<?xml version="1.0" encoding="UTF-8"?>
<gpx version="1.1" creator="https://www.youtrack.es" xsi:schemaLocation="http://www.topografix.com/GPX/1/1 http://www.topografix.com/GPX/1/1/gpx.xsd http://www.garmin.com/xmlschemas/GpxExtensions/v3 http://www.garmin.com/xmlschemas/GpxExtensionsv3.xsd http://www.garmin.com/xmlschemas/TrackPointExtension/v1 http://www.garmin.com/xmlschemas/TrackPointExtensionv1.xsd" xmlns:gpxtpx="http://www.garmin.com/xmlschemas/TrackPointExtension/v1" xmlns:gpxx="http://www.garmin.com/xmlschemas/GpxExtensions/v3" xmlns:xsi="http://www.w3.org/2001/XMLSchema-instance">
  <metadata>
    <link href="https://www.youtrack.es">
      <text>YouTrack.es</text>
    </link>
    <time>2026-05-09T02:43:26Z</time>
  </metadata>
  <trk>
    <src>https://www.youtrack.es</src>
    <link href="https://www.youtrack.es/ruta/23298-cat700">
      <text>YouTrack.es</text>
    </link>
    <trkseg>
      <trkpt lat="42.809948" lon="0.710581">
        <ele>634.485</ele>
        <time>2021-06-18T06:59:37Z</time>
      </trkpt>
      <trkpt lat="42.809947" lon="0.710582">
        <ele>634.489</ele>
        <time>2021-06-18T06:59:38Z</time>
      </trkpt>
      <trkpt lat="42.809995" lon="0.710567">
        <ele>634.817</ele>
        <time>2021-06-18T07:00:59Z</time>
      </trkpt>
      <trkpt lat="42.810021" lon="0.710617">
        <ele>634.308</ele>
        <time>2021-06-18T07:01:01Z</time>
      </trkpt>
      <trkpt lat="42.810051" lon="0.710643">
        <ele>634.195</ele>
        <time>2021-06-18T07:01:03Z</time>
      </trkpt>
      <trkpt lat="42.810079" lon="0.710654">
        <ele>633.934</ele>
        <time>2021-06-18T07:01:06Z</time>
      </trkpt>
      <trkpt lat="42.810081" lon="0.710651">
        <ele>634.080</ele>
        <time>2021-06-18T07:01:07Z</time>
      </trkpt>
      <trkpt lat="42.810168" lon="0.710613">
        <ele>634.454</ele>
        <time>2021-06-18T07:01:14Z</time>
      </trkpt>
      <trkpt lat="42.810227" lon="0.710610">
        <ele>634.478</ele>
        <time>2021-06-18T07:01:16Z</time>
      </trkpt>
      <trkpt lat="42.810258" lon="0.710714">
        <ele>633.338</ele>
        <time>2021-06-18T07:01:19Z</time>
      </trkpt>
      <trkpt lat="42.810229" lon="0.710835">
        <ele>632.041</ele>
        <time>2021-06-18T07:01:22Z</time>
      </trkpt>
      <trkpt lat="42.810213" lon="0.710958">
        <ele>633.048</ele>
        <time>2021-06-18T07:01:25Z</time>
      </trkpt>
      <trkpt lat="42.810120" lon="0.711124">
        <ele>634.633</ele>
        <time>2021-06-18T07:01:30Z</time>
      </trkpt>
      <trkpt lat="42.810023" lon="0.711184">
        <ele>635.423</ele>
        <time>2021-06-18T07:01:35Z</time>
      </trkpt>
      <trkpt lat="42.809898" lon="0.711191">
        <ele>635.815</ele>
        <time>2021-06-18T07:01:39Z</time>
      </trkpt>
      <trkpt lat="42.809751" lon="0.711168">
        <ele>636.108</ele>
        <time>2021-06-18T07:01:44Z</time>
      </trkpt>
      <trkpt lat="42.809573" lon="0.711166">
        <ele>636.230</ele>
        <time>2021-06-18T07:01:49Z</time>
      </trkpt>
      <trkpt lat="42.809398" lon="0.711084">
        <ele>636.269</ele>
        <time>2021-06-18T07:01:54Z</time>
      </trkpt>
      <trkpt lat="42.809309" lon="0.711019">
        <ele>636.365</ele>
        <time>2021-06-18T07:01:56Z</time>
      </trkpt>
      <trkpt lat="42.809226" lon="0.710931">
        <ele>636.369</ele>
        <time>2021-06-18T07:01:58Z</time>
      </trkpt>
      <trkpt lat="42.809192" lon="0.710829">
        <ele>636.053</ele>
        <time>2021-06-18T07:02:00Z</time>
      </trkpt>
      <trkpt lat="42.809159" lon="0.710659">
        <ele>636.013</ele>
        <time>2021-06-18T07:02:03Z</time>
      </trkpt>
      <trkpt lat="42.809150" lon="0.710536">
        <ele>636.116</ele>
        <time>2021-06-18T07:02:05Z</time>
      </trkpt>
      <trkpt lat="42.809089" lon="0.710248">
        <ele>636.073</ele>
        <time>2021-06-18T07:02:10Z</time>
      </trkpt>
      <trkpt lat="42.809072" lon="0.709913">
        <ele>635.598</ele>
        <time>2021-06-18T07:02:16Z</time>
      </trkpt>
      <trkpt lat="42.808989" lon="0.709561">
        <ele>635.915</ele>
        <time>2021-06-18T07:02:23Z</time>
      </trkpt>
      <trkpt lat="42.808888" lon="0.709245">
        <ele>637.026</ele>
        <time>2021-06-18T07:02:29Z</time>
      </trkpt>
      <trkpt lat="42.808870" lon="0.709194">
        <ele>637.008</ele>
        <time>2021-06-18T07:02:30Z</time>
      </trkpt>
      <trkpt lat="42.808818" lon="0.709029">
        <ele>636.696</ele>
        <time>2021-06-18T07:02:33Z</time>
      </trkpt>
      <trkpt lat="42.808757" lon="0.708861">
        <ele>636.495</ele>
        <time>2021-06-18T07:02:36Z</time>
      </trkpt>
      <trkpt lat="42.808696" lon="0.708704">
        <ele>636.541</ele>
        <time>2021-06-18T07:02:39Z</time>
      </trkpt>
      <trkpt lat="42.808617" lon="0.708564">
        <ele>637.065</ele>
        <time>2021-06-18T07:02:42Z</time>
      </trkpt>
      <trkpt lat="42.808476" lon="0.708267">
        <ele>637.529</ele>
        <time>2021-06-18T07:02:48Z</time>
      </trkpt>
      <trkpt lat="42.808418" lon="0.708170">
        <ele>637.779</ele>
        <time>2021-06-18T07:02:50Z</time>
      </trkpt>
      <trkpt lat="42.808146" lon="0.707733">
        <ele>638.522</ele>
        <time>2021-06-18T07:02:59Z</time>
      </trkpt>
      <trkpt lat="42.807819" lon="0.707275">
        <ele>638.979</ele>
        <time>2021-06-18T07:03:09Z</time>
      </trkpt>
      <trkpt lat="42.807571" lon="0.707107">
        <ele>639.896</ele>
        <time>2021-06-18T07:03:15Z</time>
      </trkpt>
      <trkpt lat="42.807407" lon="0.707012">
        <ele>639.831</ele>
        <time>2021-06-18T07:03:19Z</time>
      </trkpt>
      <trkpt lat="42.807197" lon="0.706912">
        <ele>640.824</ele>
        <time>2021-06-18T07:03:24Z</time>
      </trkpt>
      <trkpt lat="42.806897" lon="0.706830">
        <ele>641.108</ele>
        <time>2021-06-18T07:03:31Z</time>
      </trkpt>
      <trkpt lat="42.806854" lon="0.706822">
        <ele>641.136</ele>
        <time>2021-06-18T07:03:32Z</time>
      </trkpt>
      <trkpt lat="42.806530" lon="0.706752">
        <ele>641.715</ele>
        <time>2021-06-18T07:03:40Z</time>
      </trkpt>
      <trkpt lat="42.806383" lon="0.706708">
        <ele>642.591</ele>
        <time>2021-06-18T07:03:44Z</time>
      </trkpt>
      <trkpt lat="42.806212" lon="0.706647">
        <ele>643.095</ele>
        <time>2021-06-18T07:03:49Z</time>
      </trkpt>
      <trkpt lat="42.806179" lon="0.706632">
        <ele>643.119</ele>
        <time>2021-06-18T07:03:50Z</time>
      </trkpt>
      <trkpt lat="42.805977" lon="0.706538">
        <ele>643.899</ele>
        <time>2021-06-18T07:03:56Z</time>
      </trkpt>
      <trkpt lat="42.805879" lon="0.706478">
        <ele>644.272</ele>
        <time>2021-06-18T07:03:59Z</time>
      </trkpt>
      <trkpt lat="42.805698" lon="0.706334">
        <ele>644.239</ele>
        <time>2021-06-18T07:04:05Z</time>
      </trkpt>
      <trkpt lat="42.805666" lon="0.706308">
        <ele>644.142</ele>
        <time>2021-06-18T07:04:06Z</time>
      </trkpt>
      <trkpt lat="42.805535" lon="0.706202">
        <ele>644.222</ele>
        <time>2021-06-18T07:04:10Z</time>
      </trkpt>
      <trkpt lat="42.805363" lon="0.706064">
        <ele>645.114</ele>
        <time>2021-06-18T07:04:15Z</time>
      </trkpt>
      <trkpt lat="42.805167" lon="0.705872">
        <ele>644.908</ele>
        <time>2021-06-18T07:04:21Z</time>
      </trkpt>
      <trkpt lat="42.805102" lon="0.705813">
        <ele>645.341</ele>
        <time>2021-06-18T07:04:23Z</time>
      </trkpt>
      <trkpt lat="42.804906" lon="0.705624">
        <ele>645.370</ele>
        <time>2021-06-18T07:04:29Z</time>
      </trkpt>
      <trkpt lat="42.804873" lon="0.705587">
        <ele>645.546</ele>
        <time>2021-06-18T07:04:30Z</time>
      </trkpt>
      <trkpt lat="42.804808" lon="0.705511">
        <ele>646.010</ele>
        <time>2021-06-18T07:04:32Z</time>
      </trkpt>
      <trkpt lat="42.804574" lon="0.705254">
        <ele>646.384</ele>
        <time>2021-06-18T07:04:39Z</time>
      </trkpt>
      <trkpt lat="42.804470" lon="0.705147">
        <ele>646.254</ele>
        <time>2021-06-18T07:04:42Z</time>
      </trkpt>
      <trkpt lat="42.804268" lon="0.704928">
        <ele>646.747</ele>
        <time>2021-06-18T07:04:48Z</time>
      </trkpt>
      <trkpt lat="42.804069" lon="0.704756">
        <ele>647.354</ele>
        <time>2021-06-18T07:04:54Z</time>
      </trkpt>
      <trkpt lat="42.803960" lon="0.704789">
        <ele>648.642</ele>
        <time>2021-06-18T07:04:58Z</time>
      </trkpt>
      <trkpt lat="42.803943" lon="0.704791">
        <ele>648.822</ele>
        <time>2021-06-18T07:04:59Z</time>
      </trkpt>
      <trkpt lat="42.803822" lon="0.704781">
        <ele>649.914</ele>
        <time>2021-06-18T07:05:04Z</time>
      </trkpt>
      <trkpt lat="42.803764" lon="0.704774">
        <ele>650.508</ele>
        <time>2021-06-18T07:05:06Z</time>
      </trkpt>
      <trkpt lat="42.803581" lon="0.704741">
        <ele>652.561</ele>
        <time>2021-06-18T07:05:12Z</time>
      </trkpt>
      <trkpt lat="42.803462" lon="0.704727">
        <ele>654.280</ele>
        <time>2021-06-18T07:05:16Z</time>
      </trkpt>
      <trkpt lat="42.803336" lon="0.704690">
        <ele>655.336</ele>
        <time>2021-06-18T07:05:20Z</time>
      </trkpt>
      <trkpt lat="42.803272" lon="0.704663">
        <ele>655.490</ele>
        <time>2021-06-18T07:05:22Z</time>
      </trkpt>
      <trkpt lat="42.803169" lon="0.704610">
        <ele>655.644</ele>
        <time>2021-06-18T07:05:25Z</time>
      </trkpt>
      <trkpt lat="42.803043" lon="0.704551">
        <ele>655.914</ele>
        <time>2021-06-18T07:05:29Z</time>
      </trkpt>
      <trkpt lat="42.802820" lon="0.704573">
        <ele>656.877</ele>
        <time>2021-06-18T07:05:36Z</time>
      </trkpt>
      <trkpt lat="42.802764" lon="0.704610">
        <ele>657.364</ele>
        <time>2021-06-18T07:05:38Z</time>
      </trkpt>
      <trkpt lat="42.802618" lon="0.704704">
        <ele>658.138</ele>
        <time>2021-06-18T07:05:43Z</time>
      </trkpt>
      <trkpt lat="42.802528" lon="0.704763">
        <ele>658.370</ele>
        <time>2021-06-18T07:05:46Z</time>
      </trkpt>
      <trkpt lat="42.802399" lon="0.704825">
        <ele>658.717</ele>
        <time>2021-06-18T07:05:50Z</time>
      </trkpt>
      <trkpt lat="42.802221" lon="0.704820">
        <ele>659.408</ele>
        <time>2021-06-18T07:05:55Z</time>
      </trkpt>
      <trkpt lat="42.802188" lon="0.704802">
        <ele>660.940</ele>
        <time>2021-06-18T07:05:56Z</time>
      </trkpt>
      <trkpt lat="42.802135" lon="0.704744">
        <ele>661.879</ele>
        <time>2021-06-18T07:05:58Z</time>
      </trkpt>
      <trkpt lat="42.802077" lon="0.704623">
        <ele>660.535</ele>
        <time>2021-06-18T07:06:01Z</time>
      </trkpt>
      <trkpt lat="42.801998" lon="0.704514">
        <ele>659.799</ele>
        <time>2021-06-18T07:06:04Z</time>
      </trkpt>
      <trkpt lat="42.801958" lon="0.704499">
        <ele>660.173</ele>
        <time>2021-06-18T07:06:05Z</time>
      </trkpt>
      <trkpt lat="42.801789" lon="0.704493">
        <ele>660.323</ele>
        <time>2021-06-18T07:06:08Z</time>
      </trkpt>
      <trkpt lat="42.801725" lon="0.704489">
        <ele>660.166</ele>
        <time>2021-06-18T07:06:09Z</time>
      </trkpt>
      <trkpt lat="42.801662" lon="0.704476">
        <ele>659.513</ele>
        <time>2021-06-18T07:06:10Z</time>
      </trkpt>
      <trkpt lat="42.801439" lon="0.704379">
        <ele>657.848</ele>
        <time>2021-06-18T07:06:14Z</time>
      </trkpt>
      <trkpt lat="42.801328" lon="0.704314">
        <ele>657.861</ele>
        <time>2021-06-18T07:06:16Z</time>
      </trkpt>
      <trkpt lat="42.801225" lon="0.704244">
        <ele>657.917</ele>
        <time>2021-06-18T07:06:18Z</time>
      </trkpt>
      <trkpt lat="42.801145" lon="0.704155">
        <ele>657.508</ele>
        <time>2021-06-18T07:06:20Z</time>
      </trkpt>
      <trkpt lat="42.800939" lon="0.703877">
        <ele>656.331</ele>
        <time>2021-06-18T07:06:26Z</time>
      </trkpt>
      <trkpt lat="42.800912" lon="0.703836">
        <ele>655.950</ele>
        <time>2021-06-18T07:06:27Z</time>
      </trkpt>
      <trkpt lat="42.800825" lon="0.703729">
        <ele>655.376</ele>
        <time>2021-06-18T07:06:30Z</time>
      </trkpt>
      <trkpt lat="42.800799" lon="0.703688">
        <ele>655.010</ele>
        <time>2021-06-18T07:06:31Z</time>
      </trkpt>
      <trkpt lat="42.800696" lon="0.703515">
        <ele>653.944</ele>
        <time>2021-06-18T07:06:36Z</time>
      </trkpt>
      <trkpt lat="42.800672" lon="0.703499">
        <ele>654.074</ele>
        <time>2021-06-18T07:06:37Z</time>
      </trkpt>
      <trkpt lat="42.800612" lon="0.703447">
        <ele>653.997</ele>
        <time>2021-06-18T07:06:39Z</time>
      </trkpt>
      <trkpt lat="42.800577" lon="0.703408">
        <ele>653.544</ele>
        <time>2021-06-18T07:06:40Z</time>
      </trkpt>
      <trkpt lat="42.800540" lon="0.703370">
        <ele>653.246</ele>
        <time>2021-06-18T07:06:41Z</time>
      </trkpt>
      <trkpt lat="42.800372" lon="0.703276">
        <ele>654.188</ele>
        <time>2021-06-18T07:06:45Z</time>
      </trkpt>
      <trkpt lat="42.800150" lon="0.703156">
        <ele>653.716</ele>
        <time>2021-06-18T07:06:50Z</time>
      </trkpt>
      <trkpt lat="42.800060" lon="0.703102">
        <ele>653.508</ele>
        <time>2021-06-18T07:06:52Z</time>
      </trkpt>
      <trkpt lat="42.799970" lon="0.703042">
        <ele>653.521</ele>
        <time>2021-06-18T07:06:54Z</time>
      </trkpt>
      <trkpt lat="42.799827" lon="0.702973">
        <ele>654.990</ele>
        <time>2021-06-18T07:06:57Z</time>
      </trkpt>
      <trkpt lat="42.799778" lon="0.702949">
        <ele>655.136</ele>
        <time>2021-06-18T07:06:58Z</time>
      </trkpt>
      <trkpt lat="42.799630" lon="0.702835">
        <ele>654.220</ele>
        <time>2021-06-18T07:07:02Z</time>
      </trkpt>
      <trkpt lat="42.799595" lon="0.702831">
        <ele>654.644</ele>
        <time>2021-06-18T07:07:03Z</time>
      </trkpt>
      <trkpt lat="42.799532" lon="0.702850">
        <ele>656.644</ele>
        <time>2021-06-18T07:07:05Z</time>
      </trkpt>
      <trkpt lat="42.799413" lon="0.702850">
        <ele>658.657</ele>
        <time>2021-06-18T07:07:10Z</time>
      </trkpt>
      <trkpt lat="42.799279" lon="0.702801">
        <ele>657.764</ele>
        <time>2021-06-18T07:07:16Z</time>
      </trkpt>
      <trkpt lat="42.799220" lon="0.702777">
        <ele>657.231</ele>
        <time>2021-06-18T07:07:18Z</time>
      </trkpt>
      <trkpt lat="42.799131" lon="0.702737">
        <ele>658.161</ele>
        <time>2021-06-18T07:07:21Z</time>
      </trkpt>
      <trkpt lat="42.798987" lon="0.702670">
        <ele>659.107</ele>
        <time>2021-06-18T07:07:26Z</time>
      </trkpt>
      <trkpt lat="42.798823" lon="0.702595">
        <ele>658.308</ele>
        <time>2021-06-18T07:07:32Z</time>
      </trkpt>
      <trkpt lat="42.798690" lon="0.702586">
        <ele>659.160</ele>
        <time>2021-06-18T07:07:38Z</time>
      </trkpt>
      <trkpt lat="42.798571" lon="0.702523">
        <ele>658.099</ele>
        <time>2021-06-18T07:07:44Z</time>
      </trkpt>
      <trkpt lat="42.798552" lon="0.702506">
        <ele>657.765</ele>
        <time>2021-06-18T07:07:45Z</time>
      </trkpt>
      <trkpt lat="42.798402" lon="0.702416">
        <ele>659.149</ele>
        <time>2021-06-18T07:07:51Z</time>
      </trkpt>
      <trkpt lat="42.798315" lon="0.702378">
        <ele>659.883</ele>
        <time>2021-06-18T07:07:55Z</time>
      </trkpt>
      <trkpt lat="42.798206" lon="0.702289">
        <ele>658.973</ele>
        <time>2021-06-18T07:08:02Z</time>
      </trkpt>
      <trkpt lat="42.798183" lon="0.702276">
        <ele>658.866</ele>
        <time>2021-06-18T07:08:03Z</time>
      </trkpt>
      <trkpt lat="42.798106" lon="0.702237">
        <ele>658.733</ele>
        <time>2021-06-18T07:08:06Z</time>
      </trkpt>
      <trkpt lat="42.798068" lon="0.702213">
        <ele>658.765</ele>
        <time>2021-06-18T07:08:08Z</time>
      </trkpt>
      <trkpt lat="42.797945" lon="0.702128">
        <ele>659.568</ele>
        <time>2021-06-18T07:08:12Z</time>
      </trkpt>
      <trkpt lat="42.797820" lon="0.702081">
        <ele>660.714</ele>
        <time>2021-06-18T07:08:16Z</time>
      </trkpt>
      <trkpt lat="42.797674" lon="0.702057">
        <ele>662.208</ele>
        <time>2021-06-18T07:08:21Z</time>
      </trkpt>
      <trkpt lat="42.797580" lon="0.701994">
        <ele>660.743</ele>
        <time>2021-06-18T07:08:25Z</time>
      </trkpt>
      <trkpt lat="42.797559" lon="0.701969">
        <ele>659.752</ele>
        <time>2021-06-18T07:08:26Z</time>
      </trkpt>
      <trkpt lat="42.797444" lon="0.701770">
        <ele>658.488</ele>
        <time>2021-06-18T07:08:31Z</time>
      </trkpt>
      <trkpt lat="42.797317" lon="0.701558">
        <ele>657.792</ele>
        <time>2021-06-18T07:08:36Z</time>
      </trkpt>
      <trkpt lat="42.797115" lon="0.701377">
        <ele>658.436</ele>
        <time>2021-06-18T07:08:43Z</time>
      </trkpt>
      <trkpt lat="42.797030" lon="0.701316">
        <ele>658.896</ele>
        <time>2021-06-18T07:08:46Z</time>
      </trkpt>
      <trkpt lat="42.796913" lon="0.701246">
        <ele>659.569</ele>
        <time>2021-06-18T07:08:50Z</time>
      </trkpt>
      <trkpt lat="42.796773" lon="0.701213">
        <ele>661.276</ele>
        <time>2021-06-18T07:08:55Z</time>
      </trkpt>
      <trkpt lat="42.796608" lon="0.701182">
        <ele>662.966</ele>
        <time>2021-06-18T07:09:01Z</time>
      </trkpt>
      <trkpt lat="42.796565" lon="0.701166">
        <ele>663.129</ele>
        <time>2021-06-18T07:09:03Z</time>
      </trkpt>
      <trkpt lat="42.796475" lon="0.701126">
        <ele>663.221</ele>
        <time>2021-06-18T07:09:08Z</time>
      </trkpt>
      <trkpt lat="42.796443" lon="0.701099">
        <ele>663.108</ele>
        <time>2021-06-18T07:09:10Z</time>
      </trkpt>
      <trkpt lat="42.796380" lon="0.701051">
        <ele>663.693</ele>
        <time>2021-06-18T07:09:14Z</time>
      </trkpt>
      <trkpt lat="42.796347" lon="0.701027">
        <ele>664.442</ele>
        <time>2021-06-18T07:09:16Z</time>
      </trkpt>
      <trkpt lat="42.796276" lon="0.700972">
        <ele>665.728</ele>
        <time>2021-06-18T07:09:21Z</time>
      </trkpt>
      <trkpt lat="42.796264" lon="0.700961">
        <ele>665.982</ele>
        <time>2021-06-18T07:09:22Z</time>
      </trkpt>
      <trkpt lat="42.796200" lon="0.700911">
        <ele>666.746</ele>
        <time>2021-06-18T07:09:27Z</time>
      </trkpt>
      <trkpt lat="42.796155" lon="0.700889">
        <ele>667.386</ele>
        <time>2021-06-18T07:09:30Z</time>
      </trkpt>
      <trkpt lat="42.796126" lon="0.700874">
        <ele>667.789</ele>
        <time>2021-06-18T07:09:32Z</time>
      </trkpt>
      <trkpt lat="42.796046" lon="0.700815">
        <ele>668.346</ele>
        <time>2021-06-18T07:09:38Z</time>
      </trkpt>
      <trkpt lat="42.796034" lon="0.700806">
        <ele>668.471</ele>
        <time>2021-06-18T07:09:39Z</time>
      </trkpt>
      <trkpt lat="42.795998" lon="0.700780">
        <ele>668.841</ele>
        <time>2021-06-18T07:09:42Z</time>
      </trkpt>
      <trkpt lat="42.795950" lon="0.700753">
        <ele>669.515</ele>
        <time>2021-06-18T07:09:46Z</time>
      </trkpt>
      <trkpt lat="42.795922" lon="0.700740">
        <ele>670.008</ele>
        <time>2021-06-18T07:09:48Z</time>
      </trkpt>
      <trkpt lat="42.795862" lon="0.700690">
        <ele>670.624</ele>
        <time>2021-06-18T07:09:53Z</time>
      </trkpt>
      <trkpt lat="42.795852" lon="0.700680">
        <ele>670.753</ele>
        <time>2021-06-18T07:09:54Z</time>
      </trkpt>
      <trkpt lat="42.795808" lon="0.700652">
        <ele>671.269</ele>
        <time>2021-06-18T07:09:58Z</time>
      </trkpt>
      <trkpt lat="42.795780" lon="0.700643">
        <ele>671.673</ele>
        <time>2021-06-18T07:10:00Z</time>
      </trkpt>
      <trkpt lat="42.795766" lon="0.700636">
        <ele>671.867</ele>
        <time>2021-06-18T07:10:01Z</time>
      </trkpt>
      <trkpt lat="42.795755" lon="0.700626">
        <ele>671.927</ele>
        <time>2021-06-18T07:10:02Z</time>
      </trkpt>
      <trkpt lat="42.795718" lon="0.700610">
        <ele>672.590</ele>
        <time>2021-06-18T07:10:05Z</time>
      </trkpt>
      <trkpt lat="42.795706" lon="0.700606">
        <ele>672.787</ele>
        <time>2021-06-18T07:10:06Z</time>
      </trkpt>
      <trkpt lat="42.795694" lon="0.700602">
        <ele>672.993</ele>
        <time>2021-06-18T07:10:07Z</time>
      </trkpt>
      <trkpt lat="42.795670" lon="0.700590">
        <ele>673.465</ele>
        <time>2021-06-18T07:10:09Z</time>
      </trkpt>
      <trkpt lat="42.795646" lon="0.700591">
        <ele>673.921</ele>
        <time>2021-06-18T07:10:11Z</time>
      </trkpt>
      <trkpt lat="42.795635" lon="0.700593">
        <ele>674.208</ele>
        <time>2021-06-18T07:10:12Z</time>
      </trkpt>
      <trkpt lat="42.795587" lon="0.700601">
        <ele>675.356</ele>
        <time>2021-06-18T07:10:16Z</time>
      </trkpt>
      <trkpt lat="42.795514" lon="0.700612">
        <ele>676.345</ele>
        <time>2021-06-18T07:10:20Z</time>
      </trkpt>
      <trkpt lat="42.795480" lon="0.700607">
        <ele>676.511</ele>
        <time>2021-06-18T07:10:22Z</time>
      </trkpt>
      <trkpt lat="42.795430" lon="0.700588">
        <ele>676.985</ele>
        <time>2021-06-18T07:10:26Z</time>
      </trkpt>
      <trkpt lat="42.795421" lon="0.700584">
        <ele>677.039</ele>
        <time>2021-06-18T07:10:27Z</time>
      </trkpt>
      <trkpt lat="42.795404" lon="0.700575">
        <ele>677.139</ele>
        <time>2021-06-18T07:10:29Z</time>
      </trkpt>
      <trkpt lat="42.795351" lon="0.700560">
        <ele>677.522</ele>
        <time>2021-06-18T07:10:34Z</time>
      </trkpt>
      <trkpt lat="42.795337" lon="0.700555">
        <ele>677.629</ele>
        <time>2021-06-18T07:10:35Z</time>
      </trkpt>
      <trkpt lat="42.795231" lon="0.700499">
        <ele>678.863</ele>
        <time>2021-06-18T07:10:41Z</time>
      </trkpt>
      <trkpt lat="42.795163" lon="0.700468">
        <ele>680.344</ele>
        <time>2021-06-18T07:10:45Z</time>
      </trkpt>
      <trkpt lat="42.795140" lon="0.700437">
        <ele>680.618</ele>
        <time>2021-06-18T07:10:47Z</time>
      </trkpt>
      <trkpt lat="42.795110" lon="0.700401">
        <ele>681.108</ele>
        <time>2021-06-18T07:10:49Z</time>
      </trkpt>
      <trkpt lat="42.795069" lon="0.700357">
        <ele>681.863</ele>
        <time>2021-06-18T07:10:51Z</time>
      </trkpt>
      <trkpt lat="42.795028" lon="0.700318">
        <ele>682.642</ele>
        <time>2021-06-18T07:10:53Z</time>
      </trkpt>
      <trkpt lat="42.794983" lon="0.700280">
        <ele>683.418</ele>
        <time>2021-06-18T07:10:55Z</time>
      </trkpt>
      <trkpt lat="42.794874" lon="0.700186">
        <ele>683.672</ele>
        <time>2021-06-18T07:10:59Z</time>
      </trkpt>
      <trkpt lat="42.794742" lon="0.700046">
        <ele>682.846</ele>
        <time>2021-06-18T07:11:04Z</time>
      </trkpt>
      <trkpt lat="42.794722" lon="0.699998">
        <ele>682.066</ele>
        <time>2021-06-18T07:11:05Z</time>
      </trkpt>
      <trkpt lat="42.794763" lon="0.699863">
        <ele>679.649</ele>
        <time>2021-06-18T07:11:08Z</time>
      </trkpt>
      <trkpt lat="42.794774" lon="0.699750">
        <ele>677.866</ele>
        <time>2021-06-18T07:11:11Z</time>
      </trkpt>
      <trkpt lat="42.794725" lon="0.699647">
        <ele>678.862</ele>
        <time>2021-06-18T07:11:14Z</time>
      </trkpt>
      <trkpt lat="42.794689" lon="0.699577">
        <ele>678.483</ele>
        <time>2021-06-18T07:11:16Z</time>
      </trkpt>
      <trkpt lat="42.794656" lon="0.699504">
        <ele>678.111</ele>
        <time>2021-06-18T07:11:18Z</time>
      </trkpt>
      <trkpt lat="42.794559" lon="0.699306">
        <ele>679.308</ele>
        <time>2021-06-18T07:11:24Z</time>
      </trkpt>
      <trkpt lat="42.794423" lon="0.699094">
        <ele>682.073</ele>
        <time>2021-06-18T07:11:30Z</time>
      </trkpt>
      <trkpt lat="42.794357" lon="0.699021">
        <ele>681.782</ele>
        <time>2021-06-18T07:11:32Z</time>
      </trkpt>
      <trkpt lat="42.794240" lon="0.698969">
        <ele>681.058</ele>
        <time>2021-06-18T07:11:35Z</time>
      </trkpt>
      <trkpt lat="42.794140" lon="0.699020">
        <ele>681.092</ele>
        <time>2021-06-18T07:11:38Z</time>
      </trkpt>
      <trkpt lat="42.794123" lon="0.699124">
        <ele>681.926</ele>
        <time>2021-06-18T07:11:41Z</time>
      </trkpt>
      <trkpt lat="42.794135" lon="0.699153">
        <ele>682.126</ele>
        <time>2021-06-18T07:11:42Z</time>
      </trkpt>
      <trkpt lat="42.794154" lon="0.699219">
        <ele>682.389</ele>
        <time>2021-06-18T07:11:44Z</time>
      </trkpt>
      <trkpt lat="42.794146" lon="0.699290">
        <ele>682.616</ele>
        <time>2021-06-18T07:11:46Z</time>
      </trkpt>
      <trkpt lat="42.794061" lon="0.699481">
        <ele>683.648</ele>
        <time>2021-06-18T07:11:52Z</time>
      </trkpt>
      <trkpt lat="42.793969" lon="0.699629">
        <ele>684.861</ele>
        <time>2021-06-18T07:11:57Z</time>
      </trkpt>
      <trkpt lat="42.793908" lon="0.699716">
        <ele>685.817</ele>
        <time>2021-06-18T07:12:00Z</time>
      </trkpt>
      <trkpt lat="42.793847" lon="0.699791">
        <ele>687.208</ele>
        <time>2021-06-18T07:12:03Z</time>
      </trkpt>
      <trkpt lat="42.793763" lon="0.699867">
        <ele>688.671</ele>
        <time>2021-06-18T07:12:07Z</time>
      </trkpt>
      <trkpt lat="42.793716" lon="0.699895">
        <ele>689.110</ele>
        <time>2021-06-18T07:12:09Z</time>
      </trkpt>
      <trkpt lat="42.793639" lon="0.699920">
        <ele>689.656</ele>
        <time>2021-06-18T07:12:13Z</time>
      </trkpt>
      <trkpt lat="42.793550" lon="0.699865">
        <ele>690.190</ele>
        <time>2021-06-18T07:12:18Z</time>
      </trkpt>
      <trkpt lat="42.793500" lon="0.699816">
        <ele>690.214</ele>
        <time>2021-06-18T07:12:21Z</time>
      </trkpt>
      <trkpt lat="42.793471" lon="0.699785">
        <ele>690.154</ele>
        <time>2021-06-18T07:12:23Z</time>
      </trkpt>
      <trkpt lat="42.793389" lon="0.699730">
        <ele>690.237</ele>
        <time>2021-06-18T07:12:29Z</time>
      </trkpt>
      <trkpt lat="42.793342" lon="0.699693">
        <ele>690.314</ele>
        <time>2021-06-18T07:12:33Z</time>
      </trkpt>
      <trkpt lat="42.793302" lon="0.699670">
        <ele>691.287</ele>
        <time>2021-06-18T07:12:36Z</time>
      </trkpt>
      <trkpt lat="42.793292" lon="0.699656">
        <ele>691.342</ele>
        <time>2021-06-18T07:12:37Z</time>
      </trkpt>
      <trkpt lat="42.793269" lon="0.699631">
        <ele>691.626</ele>
        <time>2021-06-18T07:12:39Z</time>
      </trkpt>
      <trkpt lat="42.793240" lon="0.699612">
        <ele>692.208</ele>
        <time>2021-06-18T07:12:41Z</time>
      </trkpt>
      <trkpt lat="42.793198" lon="0.699589">
        <ele>693.075</ele>
        <time>2021-06-18T07:12:44Z</time>
      </trkpt>
      <trkpt lat="42.793185" lon="0.699579">
        <ele>693.284</ele>
        <time>2021-06-18T07:12:45Z</time>
      </trkpt>
      <trkpt lat="42.793131" lon="0.699549">
        <ele>694.150</ele>
        <time>2021-06-18T07:12:49Z</time>
      </trkpt>
      <trkpt lat="42.793106" lon="0.699542">
        <ele>694.674</ele>
        <time>2021-06-18T07:12:51Z</time>
      </trkpt>
      <trkpt lat="42.793066" lon="0.699525">
        <ele>695.358</ele>
        <time>2021-06-18T07:12:54Z</time>
      </trkpt>
      <trkpt lat="42.793040" lon="0.699519">
        <ele>695.788</ele>
        <time>2021-06-18T07:12:56Z</time>
      </trkpt>
      <trkpt lat="42.793002" lon="0.699518">
        <ele>696.361</ele>
        <time>2021-06-18T07:12:59Z</time>
      </trkpt>
      <trkpt lat="42.792944" lon="0.699523">
        <ele>697.618</ele>
        <time>2021-06-18T07:13:03Z</time>
      </trkpt>
      <trkpt lat="42.792914" lon="0.699524">
        <ele>698.191</ele>
        <time>2021-06-18T07:13:05Z</time>
      </trkpt>
      <trkpt lat="42.792888" lon="0.699532">
        <ele>698.981</ele>
        <time>2021-06-18T07:13:07Z</time>
      </trkpt>
      <trkpt lat="42.792861" lon="0.699520">
        <ele>699.019</ele>
        <time>2021-06-18T07:13:09Z</time>
      </trkpt>
      <trkpt lat="42.792845" lon="0.699512">
        <ele>699.008</ele>
        <time>2021-06-18T07:13:10Z</time>
      </trkpt>
      <trkpt lat="42.792760" lon="0.699507">
        <ele>700.236</ele>
        <time>2021-06-18T07:13:15Z</time>
      </trkpt>
      <trkpt lat="42.792736" lon="0.699514">
        <ele>700.725</ele>
        <time>2021-06-18T07:13:16Z</time>
      </trkpt>
      <trkpt lat="42.792640" lon="0.699509">
        <ele>701.761</ele>
        <time>2021-06-18T07:13:20Z</time>
      </trkpt>
      <trkpt lat="42.792524" lon="0.699437">
        <ele>700.485</ele>
        <time>2021-06-18T07:13:26Z</time>
      </trkpt>
      <trkpt lat="42.792423" lon="0.699370">
        <ele>698.989</ele>
        <time>2021-06-18T07:13:32Z</time>
      </trkpt>
      <trkpt lat="42.792399" lon="0.699363">
        <ele>699.069</ele>
        <time>2021-06-18T07:13:33Z</time>
      </trkpt>
      <trkpt lat="42.792318" lon="0.699346">
        <ele>700.062</ele>
        <time>2021-06-18T07:13:38Z</time>
      </trkpt>
      <trkpt lat="42.792298" lon="0.699342">
        <ele>700.349</ele>
        <time>2021-06-18T07:13:40Z</time>
      </trkpt>
      <trkpt lat="42.792287" lon="0.699335">
        <ele>700.277</ele>
        <time>2021-06-18T07:13:41Z</time>
      </trkpt>
      <trkpt lat="42.792275" lon="0.699328">
        <ele>700.261</ele>
        <time>2021-06-18T07:13:43Z</time>
      </trkpt>
      <trkpt lat="42.792227" lon="0.699301">
        <ele>700.227</ele>
        <time>2021-06-18T07:13:49Z</time>
      </trkpt>
      <trkpt lat="42.792220" lon="0.699301">
        <ele>700.408</ele>
        <time>2021-06-18T07:13:50Z</time>
      </trkpt>
      <trkpt lat="42.792203" lon="0.699303">
        <ele>700.894</ele>
        <time>2021-06-18T07:13:52Z</time>
      </trkpt>
      <trkpt lat="42.792165" lon="0.699299">
        <ele>701.413</ele>
        <time>2021-06-18T07:13:55Z</time>
      </trkpt>
      <trkpt lat="42.792130" lon="0.699299">
        <ele>702.049</ele>
        <time>2021-06-18T07:14:00Z</time>
      </trkpt>
      <trkpt lat="42.792106" lon="0.699289">
        <ele>702.143</ele>
        <time>2021-06-18T07:14:02Z</time>
      </trkpt>
      <trkpt lat="42.792060" lon="0.699272">
        <ele>702.257</ele>
        <time>2021-06-18T07:14:06Z</time>
      </trkpt>
      <trkpt lat="42.792046" lon="0.699271">
        <ele>702.417</ele>
        <time>2021-06-18T07:14:07Z</time>
      </trkpt>
      <trkpt lat="42.792030" lon="0.699272">
        <ele>702.770</ele>
        <time>2021-06-18T07:14:08Z</time>
      </trkpt>
      <trkpt lat="42.792016" lon="0.699277">
        <ele>703.257</ele>
        <time>2021-06-18T07:14:09Z</time>
      </trkpt>
      <trkpt lat="42.791976" lon="0.699316">
        <ele>705.981</ele>
        <time>2021-06-18T07:14:12Z</time>
      </trkpt>
      <trkpt lat="42.791949" lon="0.699336">
        <ele>707.461</ele>
        <time>2021-06-18T07:14:14Z</time>
      </trkpt>
      <trkpt lat="42.791879" lon="0.699381">
        <ele>708.917</ele>
        <time>2021-06-18T07:14:18Z</time>
      </trkpt>
      <trkpt lat="42.791714" lon="0.699438">
        <ele>709.408</ele>
        <time>2021-06-18T07:14:25Z</time>
      </trkpt>
      <trkpt lat="42.791607" lon="0.699432">
        <ele>708.895</ele>
        <time>2021-06-18T07:14:29Z</time>
      </trkpt>
      <trkpt lat="42.791547" lon="0.699426">
        <ele>709.014</ele>
        <time>2021-06-18T07:14:31Z</time>
      </trkpt>
      <trkpt lat="42.791379" lon="0.699459">
        <ele>712.380</ele>
        <time>2021-06-18T07:14:37Z</time>
      </trkpt>
      <trkpt lat="42.791227" lon="0.699418">
        <ele>712.034</ele>
        <time>2021-06-18T07:14:42Z</time>
      </trkpt>
      <trkpt lat="42.791044" lon="0.699289">
        <ele>708.198</ele>
        <time>2021-06-18T07:14:48Z</time>
      </trkpt>
      <trkpt lat="42.790877" lon="0.699150">
        <ele>706.498</ele>
        <time>2021-06-18T07:14:55Z</time>
      </trkpt>
      <trkpt lat="42.790752" lon="0.699062">
        <ele>707.211</ele>
        <time>2021-06-18T07:15:01Z</time>
      </trkpt>
      <trkpt lat="42.790671" lon="0.698959">
        <ele>706.038</ele>
        <time>2021-06-18T07:15:06Z</time>
      </trkpt>
      <trkpt lat="42.790612" lon="0.698864">
        <ele>704.761</ele>
        <time>2021-06-18T07:15:10Z</time>
      </trkpt>
      <trkpt lat="42.790607" lon="0.698848">
        <ele>704.521</ele>
        <time>2021-06-18T07:15:11Z</time>
      </trkpt>
      <trkpt lat="42.790577" lon="0.698760">
        <ele>703.813</ele>
        <time>2021-06-18T07:15:15Z</time>
      </trkpt>
      <trkpt lat="42.790532" lon="0.698685">
        <ele>703.808</ele>
        <time>2021-06-18T07:15:18Z</time>
      </trkpt>
      <trkpt lat="42.790517" lon="0.698657">
        <ele>703.853</ele>
        <time>2021-06-18T07:15:19Z</time>
      </trkpt>
      <trkpt lat="42.790496" lon="0.698632">
        <ele>704.022</ele>
        <time>2021-06-18T07:15:20Z</time>
      </trkpt>
      <trkpt lat="42.790350" lon="0.698523">
        <ele>706.168</ele>
        <time>2021-06-18T07:15:26Z</time>
      </trkpt>
      <trkpt lat="42.790179" lon="0.698393">
        <ele>706.922</ele>
        <time>2021-06-18T07:15:32Z</time>
      </trkpt>
      <trkpt lat="42.790030" lon="0.698313">
        <ele>708.876</ele>
        <time>2021-06-18T07:15:37Z</time>
      </trkpt>
      <trkpt lat="42.789836" lon="0.698189">
        <ele>708.186</ele>
        <time>2021-06-18T07:15:42Z</time>
      </trkpt>
      <trkpt lat="42.789593" lon="0.698016">
        <ele>706.919</ele>
        <time>2021-06-18T07:15:48Z</time>
      </trkpt>
      <trkpt lat="42.789418" lon="0.697940">
        <ele>707.936</ele>
        <time>2021-06-18T07:15:53Z</time>
      </trkpt>
      <trkpt lat="42.789266" lon="0.697782">
        <ele>707.328</ele>
        <time>2021-06-18T07:15:58Z</time>
      </trkpt>
      <trkpt lat="42.789139" lon="0.697524">
        <ele>706.589</ele>
        <time>2021-06-18T07:16:03Z</time>
      </trkpt>
      <trkpt lat="42.789123" lon="0.697464">
        <ele>706.117</ele>
        <time>2021-06-18T07:16:04Z</time>
      </trkpt>
      <trkpt lat="42.789102" lon="0.697410">
        <ele>706.008</ele>
        <time>2021-06-18T07:16:05Z</time>
      </trkpt>
      <trkpt lat="42.789032" lon="0.697241">
        <ele>706.139</ele>
        <time>2021-06-18T07:16:08Z</time>
      </trkpt>
      <trkpt lat="42.788892" lon="0.696880">
        <ele>705.578</ele>
        <time>2021-06-18T07:16:13Z</time>
      </trkpt>
      <trkpt lat="42.788756" lon="0.696453">
        <ele>704.494</ele>
        <time>2021-06-18T07:16:17Z</time>
      </trkpt>
      <trkpt lat="42.788718" lon="0.696343">
        <ele>703.718</ele>
        <time>2021-06-18T07:16:18Z</time>
      </trkpt>
      <trkpt lat="42.788636" lon="0.696136">
        <ele>703.922</ele>
        <time>2021-06-18T07:16:20Z</time>
      </trkpt>
      <trkpt lat="42.788611" lon="0.696037">
        <ele>703.242</ele>
        <time>2021-06-18T07:16:21Z</time>
      </trkpt>
      <trkpt lat="42.788582" lon="0.695944">
        <ele>702.635</ele>
        <time>2021-06-18T07:16:22Z</time>
      </trkpt>
      <trkpt lat="42.788513" lon="0.695759">
        <ele>701.912</ele>
        <time>2021-06-18T07:16:24Z</time>
      </trkpt>
      <trkpt lat="42.788440" lon="0.695588">
        <ele>702.557</ele>
        <time>2021-06-18T07:16:26Z</time>
      </trkpt>
      <trkpt lat="42.788270" lon="0.695228">
        <ele>702.300</ele>
        <time>2021-06-18T07:16:31Z</time>
      </trkpt>
      <trkpt lat="42.788077" lon="0.694972">
        <ele>702.720</ele>
        <time>2021-06-18T07:16:36Z</time>
      </trkpt>
      <trkpt lat="42.787789" lon="0.694684">
        <ele>703.608</ele>
        <time>2021-06-18T07:16:43Z</time>
      </trkpt>
      <trkpt lat="42.787552" lon="0.694506">
        <ele>703.472</ele>
        <time>2021-06-18T07:16:49Z</time>
      </trkpt>
      <trkpt lat="42.787437" lon="0.694424">
        <ele>703.671</ele>
        <time>2021-06-18T07:16:52Z</time>
      </trkpt>
      <trkpt lat="42.787363" lon="0.694396">
        <ele>704.227</ele>
        <time>2021-06-18T07:16:54Z</time>
      </trkpt>
      <trkpt lat="42.787256" lon="0.694397">
        <ele>705.211</ele>
        <time>2021-06-18T07:16:57Z</time>
      </trkpt>
      <trkpt lat="42.787210" lon="0.694396">
        <ele>705.535</ele>
        <time>2021-06-18T07:16:58Z</time>
      </trkpt>
      <trkpt lat="42.787161" lon="0.694395">
        <ele>705.515</ele>
        <time>2021-06-18T07:16:59Z</time>
      </trkpt>
      <trkpt lat="42.787031" lon="0.694382">
        <ele>705.658</ele>
        <time>2021-06-18T07:17:02Z</time>
      </trkpt>
      <trkpt lat="42.786987" lon="0.694375">
        <ele>705.755</ele>
        <time>2021-06-18T07:17:03Z</time>
      </trkpt>
      <trkpt lat="42.786735" lon="0.694341">
        <ele>706.491</ele>
        <time>2021-06-18T07:17:09Z</time>
      </trkpt>
      <trkpt lat="42.786647" lon="0.694323">
        <ele>706.681</ele>
        <time>2021-06-18T07:17:11Z</time>
      </trkpt>
      <trkpt lat="42.786468" lon="0.694292">
        <ele>707.219</ele>
        <time>2021-06-18T07:17:15Z</time>
      </trkpt>
      <trkpt lat="42.786073" lon="0.694193">
        <ele>708.008</ele>
        <time>2021-06-18T07:17:24Z</time>
      </trkpt>
      <trkpt lat="42.786031" lon="0.694188">
        <ele>708.066</ele>
        <time>2021-06-18T07:17:25Z</time>
      </trkpt>
      <trkpt lat="42.785949" lon="0.694204">
        <ele>708.055</ele>
        <time>2021-06-18T07:17:27Z</time>
      </trkpt>
      <trkpt lat="42.785910" lon="0.694228">
        <ele>708.031</ele>
        <time>2021-06-18T07:17:28Z</time>
      </trkpt>
      <trkpt lat="42.785852" lon="0.694357">
        <ele>708.045</ele>
        <time>2021-06-18T07:17:31Z</time>
      </trkpt>
      <trkpt lat="42.785866" lon="0.694566">
        <ele>708.419</ele>
        <time>2021-06-18T07:17:35Z</time>
      </trkpt>
      <trkpt lat="42.785886" lon="0.694664">
        <ele>708.619</ele>
        <time>2021-06-18T07:17:37Z</time>
      </trkpt>
      <trkpt lat="42.786008" lon="0.695034">
        <ele>709.232</ele>
        <time>2021-06-18T07:17:45Z</time>
      </trkpt>
      <trkpt lat="42.786137" lon="0.695314">
        <ele>711.579</ele>
        <time>2021-06-18T07:17:52Z</time>
      </trkpt>
      <trkpt lat="42.786164" lon="0.695331">
        <ele>711.958</ele>
        <time>2021-06-18T07:17:53Z</time>
      </trkpt>
      <trkpt lat="42.786286" lon="0.695352">
        <ele>712.952</ele>
        <time>2021-06-18T07:17:57Z</time>
      </trkpt>
      <trkpt lat="42.786377" lon="0.695328">
        <ele>713.017</ele>
        <time>2021-06-18T07:18:00Z</time>
      </trkpt>
      <trkpt lat="42.786467" lon="0.695311">
        <ele>712.908</ele>
        <time>2021-06-18T07:18:03Z</time>
      </trkpt>
      <trkpt lat="42.786581" lon="0.695334">
        <ele>713.812</ele>
        <time>2021-06-18T07:18:07Z</time>
      </trkpt>
      <trkpt lat="42.786621" lon="0.695380">
        <ele>715.441</ele>
        <time>2021-06-18T07:18:09Z</time>
      </trkpt>
      <trkpt lat="42.786629" lon="0.695412">
        <ele>716.657</ele>
        <time>2021-06-18T07:18:10Z</time>
      </trkpt>
      <trkpt lat="42.786603" lon="0.695507">
        <ele>719.591</ele>
        <time>2021-06-18T07:18:13Z</time>
      </trkpt>
      <trkpt lat="42.786565" lon="0.695551">
        <ele>720.475</ele>
        <time>2021-06-18T07:18:15Z</time>
      </trkpt>
      <trkpt lat="42.786522" lon="0.695588">
        <ele>720.475</ele>
        <time>2021-06-18T07:18:17Z</time>
      </trkpt>
      <trkpt lat="42.786481" lon="0.695622">
        <ele>720.418</ele>
        <time>2021-06-18T07:18:19Z</time>
      </trkpt>
      <trkpt lat="42.786441" lon="0.695655">
        <ele>720.595</ele>
        <time>2021-06-18T07:18:21Z</time>
      </trkpt>
      <trkpt lat="42.786386" lon="0.695712">
        <ele>720.826</ele>
        <time>2021-06-18T07:18:24Z</time>
      </trkpt>
      <trkpt lat="42.786321" lon="0.695790">
        <ele>721.447</ele>
        <time>2021-06-18T07:18:28Z</time>
      </trkpt>
      <trkpt lat="42.786306" lon="0.695811">
        <ele>721.711</ele>
        <time>2021-06-18T07:18:29Z</time>
      </trkpt>
      <trkpt lat="42.786262" lon="0.695873">
        <ele>722.408</ele>
        <time>2021-06-18T07:18:32Z</time>
      </trkpt>
      <trkpt lat="42.786180" lon="0.695982">
        <ele>723.899</ele>
        <time>2021-06-18T07:18:37Z</time>
      </trkpt>
      <trkpt lat="42.786162" lon="0.695999">
        <ele>724.088</ele>
        <time>2021-06-18T07:18:38Z</time>
      </trkpt>
      <trkpt lat="42.786086" lon="0.696065">
        <ele>724.834</ele>
        <time>2021-06-18T07:18:42Z</time>
      </trkpt>
      <trkpt lat="42.786026" lon="0.696106">
        <ele>725.348</ele>
        <time>2021-06-18T07:18:45Z</time>
      </trkpt>
      <trkpt lat="42.785962" lon="0.696141">
        <ele>725.412</ele>
        <time>2021-06-18T07:18:48Z</time>
      </trkpt>
      <trkpt lat="42.785846" lon="0.696191">
        <ele>725.592</ele>
        <time>2021-06-18T07:18:53Z</time>
      </trkpt>
      <trkpt lat="42.785822" lon="0.696199">
        <ele>725.615</ele>
        <time>2021-06-18T07:18:54Z</time>
      </trkpt>
      <trkpt lat="42.785674" lon="0.696251">
        <ele>726.252</ele>
        <time>2021-06-18T07:19:00Z</time>
      </trkpt>
      <trkpt lat="42.785579" lon="0.696305">
        <ele>726.986</ele>
        <time>2021-06-18T07:19:04Z</time>
      </trkpt>
      <trkpt lat="42.785531" lon="0.696338">
        <ele>727.260</ele>
        <time>2021-06-18T07:19:06Z</time>
      </trkpt>
      <trkpt lat="42.785414" lon="0.696429">
        <ele>727.826</ele>
        <time>2021-06-18T07:19:11Z</time>
      </trkpt>
      <trkpt lat="42.785348" lon="0.696479">
        <ele>727.908</ele>
        <time>2021-06-18T07:19:14Z</time>
      </trkpt>
      <trkpt lat="42.785215" lon="0.696593">
        <ele>728.525</ele>
        <time>2021-06-18T07:19:20Z</time>
      </trkpt>
      <trkpt lat="42.785120" lon="0.696673">
        <ele>729.174</ele>
        <time>2021-06-18T07:19:24Z</time>
      </trkpt>
      <trkpt lat="42.784895" lon="0.696867">
        <ele>730.120</ele>
        <time>2021-06-18T07:19:33Z</time>
      </trkpt>
      <trkpt lat="42.784683" lon="0.697047">
        <ele>730.124</ele>
        <time>2021-06-18T07:19:41Z</time>
      </trkpt>
      <trkpt lat="42.784455" lon="0.697230">
        <ele>730.148</ele>
        <time>2021-06-18T07:19:49Z</time>
      </trkpt>
      <trkpt lat="42.784223" lon="0.697379">
        <ele>730.738</ele>
        <time>2021-06-18T07:19:57Z</time>
      </trkpt>
      <trkpt lat="42.783952" lon="0.697506">
        <ele>732.031</ele>
        <time>2021-06-18T07:20:06Z</time>
      </trkpt>
      <trkpt lat="42.783773" lon="0.697478">
        <ele>734.948</ele>
        <time>2021-06-18T07:20:12Z</time>
      </trkpt>
      <trkpt lat="42.783652" lon="0.697438">
        <ele>737.069</ele>
        <time>2021-06-18T07:20:17Z</time>
      </trkpt>
      <trkpt lat="42.783620" lon="0.697427">
        <ele>737.404</ele>
        <time>2021-06-18T07:20:19Z</time>
      </trkpt>
      <trkpt lat="42.783555" lon="0.697395">
        <ele>738.124</ele>
        <time>2021-06-18T07:20:22Z</time>
      </trkpt>
      <trkpt lat="42.783509" lon="0.697379">
        <ele>738.708</ele>
        <time>2021-06-18T07:20:24Z</time>
      </trkpt>
      <trkpt lat="42.783441" lon="0.697357">
        <ele>739.613</ele>
        <time>2021-06-18T07:20:27Z</time>
      </trkpt>
      <trkpt lat="42.783398" lon="0.697342">
        <ele>740.032</ele>
        <time>2021-06-18T07:20:29Z</time>
      </trkpt>
      <trkpt lat="42.783356" lon="0.697331">
        <ele>740.648</ele>
        <time>2021-06-18T07:20:31Z</time>
      </trkpt>
      <trkpt lat="42.783279" lon="0.697350">
        <ele>742.232</ele>
        <time>2021-06-18T07:20:35Z</time>
      </trkpt>
      <trkpt lat="42.783197" lon="0.697404">
        <ele>744.896</ele>
        <time>2021-06-18T07:20:39Z</time>
      </trkpt>
      <trkpt lat="42.783131" lon="0.697447">
        <ele>746.896</ele>
        <time>2021-06-18T07:20:42Z</time>
      </trkpt>
      <trkpt lat="42.783109" lon="0.697453">
        <ele>747.199</ele>
        <time>2021-06-18T07:20:43Z</time>
      </trkpt>
      <trkpt lat="42.783032" lon="0.697467">
        <ele>747.756</ele>
        <time>2021-06-18T07:20:46Z</time>
      </trkpt>
      <trkpt lat="42.782960" lon="0.697463">
        <ele>747.748</ele>
        <time>2021-06-18T07:20:49Z</time>
      </trkpt>
      <trkpt lat="42.782936" lon="0.697460">
        <ele>747.661</ele>
        <time>2021-06-18T07:20:50Z</time>
      </trkpt>
      <trkpt lat="42.782821" lon="0.697442">
        <ele>747.217</ele>
        <time>2021-06-18T07:20:55Z</time>
      </trkpt>
      <trkpt lat="42.782776" lon="0.697445">
        <ele>747.408</ele>
        <time>2021-06-18T07:20:57Z</time>
      </trkpt>
      <trkpt lat="42.782702" lon="0.697444">
        <ele>747.961</ele>
        <time>2021-06-18T07:21:00Z</time>
      </trkpt>
      <trkpt lat="42.782583" lon="0.697444">
        <ele>748.850</ele>
        <time>2021-06-18T07:21:05Z</time>
      </trkpt>
      <trkpt lat="42.782561" lon="0.697446">
        <ele>749.026</ele>
        <time>2021-06-18T07:21:06Z</time>
      </trkpt>
      <trkpt lat="42.782447" lon="0.697450">
        <ele>749.870</ele>
        <time>2021-06-18T07:21:11Z</time>
      </trkpt>
      <trkpt lat="42.782355" lon="0.697450">
        <ele>750.224</ele>
        <time>2021-06-18T07:21:15Z</time>
      </trkpt>
      <trkpt lat="42.782331" lon="0.697452">
        <ele>750.324</ele>
        <time>2021-06-18T07:21:16Z</time>
      </trkpt>
      <trkpt lat="42.782211" lon="0.697463">
        <ele>751.197</ele>
        <time>2021-06-18T07:21:21Z</time>
      </trkpt>
      <trkpt lat="42.782095" lon="0.697468">
        <ele>751.894</ele>
        <time>2021-06-18T07:21:26Z</time>
      </trkpt>
      <trkpt lat="42.781979" lon="0.697480">
        <ele>752.563</ele>
        <time>2021-06-18T07:21:31Z</time>
      </trkpt>
      <trkpt lat="42.781889" lon="0.697481">
        <ele>753.344</ele>
        <time>2021-06-18T07:21:35Z</time>
      </trkpt>
      <trkpt lat="42.781869" lon="0.697483">
        <ele>753.518</ele>
        <time>2021-06-18T07:21:36Z</time>
      </trkpt>
      <trkpt lat="42.781786" lon="0.697479">
        <ele>754.408</ele>
        <time>2021-06-18T07:21:40Z</time>
      </trkpt>
      <trkpt lat="42.781704" lon="0.697477">
        <ele>755.323</ele>
        <time>2021-06-18T07:21:44Z</time>
      </trkpt>
      <trkpt lat="42.781664" lon="0.697474">
        <ele>755.712</ele>
        <time>2021-06-18T07:21:46Z</time>
      </trkpt>
      <trkpt lat="42.781568" lon="0.697478">
        <ele>756.798</ele>
        <time>2021-06-18T07:21:51Z</time>
      </trkpt>
      <trkpt lat="42.781530" lon="0.697486">
        <ele>757.242</ele>
        <time>2021-06-18T07:21:53Z</time>
      </trkpt>
      <trkpt lat="42.781492" lon="0.697491">
        <ele>757.756</ele>
        <time>2021-06-18T07:21:55Z</time>
      </trkpt>
      <trkpt lat="42.781392" lon="0.697513">
        <ele>759.296</ele>
        <time>2021-06-18T07:22:00Z</time>
      </trkpt>
      <trkpt lat="42.781355" lon="0.697524">
        <ele>760.079</ele>
        <time>2021-06-18T07:22:02Z</time>
      </trkpt>
      <trkpt lat="42.781316" lon="0.697536">
        <ele>760.836</ele>
        <time>2021-06-18T07:22:04Z</time>
      </trkpt>
      <trkpt lat="42.781255" lon="0.697549">
        <ele>762.147</ele>
        <time>2021-06-18T07:22:07Z</time>
      </trkpt>
      <trkpt lat="42.781186" lon="0.697545">
        <ele>763.029</ele>
        <time>2021-06-18T07:22:11Z</time>
      </trkpt>
      <trkpt lat="42.781155" lon="0.697548">
        <ele>763.621</ele>
        <time>2021-06-18T07:22:13Z</time>
      </trkpt>
      <trkpt lat="42.781143" lon="0.697548">
        <ele>763.808</ele>
        <time>2021-06-18T07:22:14Z</time>
      </trkpt>
      <trkpt lat="42.781107" lon="0.697548">
        <ele>764.491</ele>
        <time>2021-06-18T07:22:16Z</time>
      </trkpt>
      <trkpt lat="42.781042" lon="0.697540">
        <ele>766.470</ele>
        <time>2021-06-18T07:22:19Z</time>
      </trkpt>
      <trkpt lat="42.780968" lon="0.697519">
        <ele>767.836</ele>
        <time>2021-06-18T07:22:23Z</time>
      </trkpt>
      <trkpt lat="42.780936" lon="0.697512">
        <ele>768.510</ele>
        <time>2021-06-18T07:22:25Z</time>
      </trkpt>
      <trkpt lat="42.780895" lon="0.697478">
        <ele>768.234</ele>
        <time>2021-06-18T07:22:29Z</time>
      </trkpt>
      <trkpt lat="42.780865" lon="0.697443">
        <ele>767.884</ele>
        <time>2021-06-18T07:22:31Z</time>
      </trkpt>
      <trkpt lat="42.780819" lon="0.697384">
        <ele>766.927</ele>
        <time>2021-06-18T07:22:35Z</time>
      </trkpt>
      <trkpt lat="42.780737" lon="0.697356">
        <ele>768.734</ele>
        <time>2021-06-18T07:22:40Z</time>
      </trkpt>
      <trkpt lat="42.780682" lon="0.697341">
        <ele>770.048</ele>
        <time>2021-06-18T07:22:43Z</time>
      </trkpt>
      <trkpt lat="42.780643" lon="0.697330">
        <ele>770.861</ele>
        <time>2021-06-18T07:22:45Z</time>
      </trkpt>
      <trkpt lat="42.780561" lon="0.697323">
        <ele>773.317</ele>
        <time>2021-06-18T07:22:49Z</time>
      </trkpt>
      <trkpt lat="42.780541" lon="0.697321">
        <ele>773.608</ele>
        <time>2021-06-18T07:22:50Z</time>
      </trkpt>
      <trkpt lat="42.780451" lon="0.697300">
        <ele>774.171</ele>
        <time>2021-06-18T07:22:54Z</time>
      </trkpt>
      <trkpt lat="42.780407" lon="0.697280">
        <ele>773.870</ele>
        <time>2021-06-18T07:22:56Z</time>
      </trkpt>
      <trkpt lat="42.780354" lon="0.697223">
        <ele>771.726</ele>
        <time>2021-06-18T07:22:59Z</time>
      </trkpt>
      <trkpt lat="42.780287" lon="0.697149">
        <ele>771.840</ele>
        <time>2021-06-18T07:23:03Z</time>
      </trkpt>
      <trkpt lat="42.780270" lon="0.697129">
        <ele>771.814</ele>
        <time>2021-06-18T07:23:04Z</time>
      </trkpt>
      <trkpt lat="42.780209" lon="0.697058">
        <ele>772.064</ele>
        <time>2021-06-18T07:23:08Z</time>
      </trkpt>
      <trkpt lat="42.780176" lon="0.697029">
        <ele>772.267</ele>
        <time>2021-06-18T07:23:10Z</time>
      </trkpt>
      <trkpt lat="42.780125" lon="0.696971">
        <ele>772.214</ele>
        <time>2021-06-18T07:23:13Z</time>
      </trkpt>
      <trkpt lat="42.780079" lon="0.696913">
        <ele>772.468</ele>
        <time>2021-06-18T07:23:16Z</time>
      </trkpt>
      <trkpt lat="42.780012" lon="0.696846">
        <ele>773.442</ele>
        <time>2021-06-18T07:23:20Z</time>
      </trkpt>
      <trkpt lat="42.779923" lon="0.696784">
        <ele>775.026</ele>
        <time>2021-06-18T07:23:25Z</time>
      </trkpt>
      <trkpt lat="42.779842" lon="0.696715">
        <ele>776.208</ele>
        <time>2021-06-18T07:23:30Z</time>
      </trkpt>
      <trkpt lat="42.779783" lon="0.696646">
        <ele>776.893</ele>
        <time>2021-06-18T07:23:34Z</time>
      </trkpt>
      <trkpt lat="42.779703" lon="0.696581">
        <ele>778.132</ele>
        <time>2021-06-18T07:23:39Z</time>
      </trkpt>
      <trkpt lat="42.779671" lon="0.696553">
        <ele>778.568</ele>
        <time>2021-06-18T07:23:41Z</time>
      </trkpt>
      <trkpt lat="42.779612" lon="0.696487">
        <ele>779.272</ele>
        <time>2021-06-18T07:23:45Z</time>
      </trkpt>
      <trkpt lat="42.779563" lon="0.696451">
        <ele>779.866</ele>
        <time>2021-06-18T07:23:48Z</time>
      </trkpt>
      <trkpt lat="42.779517" lon="0.696408">
        <ele>780.166</ele>
        <time>2021-06-18T07:23:51Z</time>
      </trkpt>
      <trkpt lat="42.779453" lon="0.696362">
        <ele>780.879</ele>
        <time>2021-06-18T07:23:55Z</time>
      </trkpt>
      <trkpt lat="42.779407" lon="0.696329">
        <ele>781.446</ele>
        <time>2021-06-18T07:23:58Z</time>
      </trkpt>
      <trkpt lat="42.779324" lon="0.696280">
        <ele>782.647</ele>
        <time>2021-06-18T07:24:03Z</time>
      </trkpt>
      <trkpt lat="42.779230" lon="0.696224">
        <ele>783.829</ele>
        <time>2021-06-18T07:24:09Z</time>
      </trkpt>
      <trkpt lat="42.779201" lon="0.696214">
        <ele>784.221</ele>
        <time>2021-06-18T07:24:11Z</time>
      </trkpt>
      <trkpt lat="42.779160" lon="0.696213">
        <ele>784.808</ele>
        <time>2021-06-18T07:24:14Z</time>
      </trkpt>
      <trkpt lat="42.779116" lon="0.696222">
        <ele>785.481</ele>
        <time>2021-06-18T07:24:17Z</time>
      </trkpt>
      <trkpt lat="42.779100" lon="0.696227">
        <ele>785.670</ele>
        <time>2021-06-18T07:24:18Z</time>
      </trkpt>
      <trkpt lat="42.779029" lon="0.696239">
        <ele>786.646</ele>
        <time>2021-06-18T07:24:23Z</time>
      </trkpt>
      <trkpt lat="42.779013" lon="0.696243">
        <ele>786.880</ele>
        <time>2021-06-18T07:24:24Z</time>
      </trkpt>
      <trkpt lat="42.778955" lon="0.696286">
        <ele>788.244</ele>
        <time>2021-06-18T07:24:28Z</time>
      </trkpt>
      <trkpt lat="42.778943" lon="0.696299">
        <ele>788.634</ele>
        <time>2021-06-18T07:24:29Z</time>
      </trkpt>
      <trkpt lat="42.778884" lon="0.696382">
        <ele>790.847</ele>
        <time>2021-06-18T07:24:34Z</time>
      </trkpt>
      <trkpt lat="42.778873" lon="0.696401">
        <ele>791.074</ele>
        <time>2021-06-18T07:24:35Z</time>
      </trkpt>
      <trkpt lat="42.778850" lon="0.696464">
        <ele>791.638</ele>
        <time>2021-06-18T07:24:39Z</time>
      </trkpt>
      <trkpt lat="42.778846" lon="0.696497">
        <ele>791.970</ele>
        <time>2021-06-18T07:24:41Z</time>
      </trkpt>
      <trkpt lat="42.778825" lon="0.696570">
        <ele>792.617</ele>
        <time>2021-06-18T07:24:46Z</time>
      </trkpt>
      <trkpt lat="42.778810" lon="0.696587">
        <ele>792.808</ele>
        <time>2021-06-18T07:24:47Z</time>
      </trkpt>
      <trkpt lat="42.778770" lon="0.696626">
        <ele>793.190</ele>
        <time>2021-06-18T07:24:49Z</time>
      </trkpt>
      <trkpt lat="42.778670" lon="0.696657">
        <ele>793.139</ele>
        <time>2021-06-18T07:24:53Z</time>
      </trkpt>
      <trkpt lat="42.778633" lon="0.696659">
        <ele>793.085</ele>
        <time>2021-06-18T07:24:55Z</time>
      </trkpt>
      <trkpt lat="42.778573" lon="0.696646">
        <ele>793.439</ele>
        <time>2021-06-18T07:24:59Z</time>
      </trkpt>
      <trkpt lat="42.778537" lon="0.696628">
        <ele>793.743</ele>
        <time>2021-06-18T07:25:03Z</time>
      </trkpt>
      <trkpt lat="42.778508" lon="0.696611">
        <ele>793.913</ele>
        <time>2021-06-18T07:25:06Z</time>
      </trkpt>
      <trkpt lat="42.778489" lon="0.696604">
        <ele>794.136</ele>
        <time>2021-06-18T07:25:08Z</time>
      </trkpt>
      <trkpt lat="42.778433" lon="0.696570">
        <ele>794.423</ele>
        <time>2021-06-18T07:25:12Z</time>
      </trkpt>
      <trkpt lat="42.778376" lon="0.696536">
        <ele>794.671</ele>
        <time>2021-06-18T07:25:16Z</time>
      </trkpt>
      <trkpt lat="42.778348" lon="0.696513">
        <ele>794.541</ele>
        <time>2021-06-18T07:25:18Z</time>
      </trkpt>
      <trkpt lat="42.778304" lon="0.696460">
        <ele>794.715</ele>
        <time>2021-06-18T07:25:23Z</time>
      </trkpt>
      <trkpt lat="42.778243" lon="0.696400">
        <ele>795.808</ele>
        <time>2021-06-18T07:25:27Z</time>
      </trkpt>
      <trkpt lat="42.778217" lon="0.696377">
        <ele>796.454</ele>
        <time>2021-06-18T07:25:29Z</time>
      </trkpt>
      <trkpt lat="42.778178" lon="0.696305">
        <ele>796.513</ele>
        <time>2021-06-18T07:25:34Z</time>
      </trkpt>
      <trkpt lat="42.778155" lon="0.696257">
        <ele>796.489</ele>
        <time>2021-06-18T07:25:37Z</time>
      </trkpt>
      <trkpt lat="42.778139" lon="0.696211">
        <ele>796.043</ele>
        <time>2021-06-18T07:25:40Z</time>
      </trkpt>
      <trkpt lat="42.778084" lon="0.696140">
        <ele>796.637</ele>
        <time>2021-06-18T07:25:46Z</time>
      </trkpt>
      <trkpt lat="42.778075" lon="0.696128">
        <ele>796.777</ele>
        <time>2021-06-18T07:25:47Z</time>
      </trkpt>
      <trkpt lat="42.778001" lon="0.696026">
        <ele>797.470</ele>
        <time>2021-06-18T07:25:53Z</time>
      </trkpt>
      <trkpt lat="42.777942" lon="0.695970">
        <ele>798.977</ele>
        <time>2021-06-18T07:25:57Z</time>
      </trkpt>
      <trkpt lat="42.777890" lon="0.695874">
        <ele>799.074</ele>
        <time>2021-06-18T07:26:03Z</time>
      </trkpt>
      <trkpt lat="42.777880" lon="0.695853">
        <ele>799.056</ele>
        <time>2021-06-18T07:26:04Z</time>
      </trkpt>
      <trkpt lat="42.777870" lon="0.695836">
        <ele>799.121</ele>
        <time>2021-06-18T07:26:05Z</time>
      </trkpt>
      <trkpt lat="42.777849" lon="0.695756">
        <ele>799.308</ele>
        <time>2021-06-18T07:26:09Z</time>
      </trkpt>
      <trkpt lat="42.777827" lon="0.695664">
        <ele>799.774</ele>
        <time>2021-06-18T07:26:13Z</time>
      </trkpt>
      <trkpt lat="42.777822" lon="0.695645">
        <ele>799.843</ele>
        <time>2021-06-18T07:26:14Z</time>
      </trkpt>
      <trkpt lat="42.777756" lon="0.695557">
        <ele>802.979</ele>
        <time>2021-06-18T07:26:19Z</time>
      </trkpt>
      <trkpt lat="42.777731" lon="0.695533">
        <ele>803.573</ele>
        <time>2021-06-18T07:26:21Z</time>
      </trkpt>
      <trkpt lat="42.777712" lon="0.695522">
        <ele>804.057</ele>
        <time>2021-06-18T07:26:23Z</time>
      </trkpt>
      <trkpt lat="42.777660" lon="0.695494">
        <ele>805.667</ele>
        <time>2021-06-18T07:26:26Z</time>
      </trkpt>
      <trkpt lat="42.777643" lon="0.695482">
        <ele>806.140</ele>
        <time>2021-06-18T07:26:27Z</time>
      </trkpt>
      <trkpt lat="42.777627" lon="0.695470">
        <ele>806.657</ele>
        <time>2021-06-18T07:26:28Z</time>
      </trkpt>
      <trkpt lat="42.777576" lon="0.695432">
        <ele>808.114</ele>
        <time>2021-06-18T07:26:32Z</time>
      </trkpt>
      <trkpt lat="42.777546" lon="0.695406">
        <ele>808.954</ele>
        <time>2021-06-18T07:26:34Z</time>
      </trkpt>
      <trkpt lat="42.777412" lon="0.695289">
        <ele>811.209</ele>
        <time>2021-06-18T07:26:42Z</time>
      </trkpt>
      <trkpt lat="42.777388" lon="0.695263">
        <ele>811.008</ele>
        <time>2021-06-18T07:26:44Z</time>
      </trkpt>
      <trkpt lat="42.777354" lon="0.695225">
        <ele>810.768</ele>
        <time>2021-06-18T07:26:46Z</time>
      </trkpt>
      <trkpt lat="42.777242" lon="0.695126">
        <ele>811.147</ele>
        <time>2021-06-18T07:26:52Z</time>
      </trkpt>
      <trkpt lat="42.777113" lon="0.695082">
        <ele>813.933</ele>
        <time>2021-06-18T07:26:56Z</time>
      </trkpt>
      <trkpt lat="42.777063" lon="0.695054">
        <ele>814.557</ele>
        <time>2021-06-18T07:26:58Z</time>
      </trkpt>
      <trkpt lat="42.777008" lon="0.694961">
        <ele>813.231</ele>
        <time>2021-06-18T07:27:02Z</time>
      </trkpt>
      <trkpt lat="42.777007" lon="0.694934">
        <ele>812.431</ele>
        <time>2021-06-18T07:27:03Z</time>
      </trkpt>
      <trkpt lat="42.776973" lon="0.694774">
        <ele>808.194</ele>
        <time>2021-06-18T07:27:09Z</time>
      </trkpt>
      <trkpt lat="42.776960" lon="0.694753">
        <ele>807.761</ele>
        <time>2021-06-18T07:27:10Z</time>
      </trkpt>
      <trkpt lat="42.776903" lon="0.694684">
        <ele>808.081</ele>
        <time>2021-06-18T07:27:14Z</time>
      </trkpt>
      <trkpt lat="42.776895" lon="0.694664">
        <ele>807.961</ele>
        <time>2021-06-18T07:27:15Z</time>
      </trkpt>
      <trkpt lat="42.776892" lon="0.694646">
        <ele>807.617</ele>
        <time>2021-06-18T07:27:16Z</time>
      </trkpt>
      <trkpt lat="42.776866" lon="0.694573">
        <ele>807.208</ele>
        <time>2021-06-18T07:27:19Z</time>
      </trkpt>
      <trkpt lat="42.776871" lon="0.694527">
        <ele>805.915</ele>
        <time>2021-06-18T07:27:21Z</time>
      </trkpt>
      <trkpt lat="42.776833" lon="0.694422">
        <ele>805.874</ele>
        <time>2021-06-18T07:27:25Z</time>
      </trkpt>
      <trkpt lat="42.776825" lon="0.694379">
        <ele>805.890</ele>
        <time>2021-06-18T07:27:27Z</time>
      </trkpt>
      <trkpt lat="42.776804" lon="0.694284">
        <ele>806.144</ele>
        <time>2021-06-18T07:27:31Z</time>
      </trkpt>
      <trkpt lat="42.776798" lon="0.694231">
        <ele>806.018</ele>
        <time>2021-06-18T07:27:33Z</time>
      </trkpt>
      <trkpt lat="42.776778" lon="0.694165">
        <ele>806.858</ele>
        <time>2021-06-18T07:27:36Z</time>
      </trkpt>
      <trkpt lat="42.776767" lon="0.694145">
        <ele>807.511</ele>
        <time>2021-06-18T07:27:37Z</time>
      </trkpt>
      <trkpt lat="42.776757" lon="0.694124">
        <ele>808.168</ele>
        <time>2021-06-18T07:27:38Z</time>
      </trkpt>
      <trkpt lat="42.776728" lon="0.694053">
        <ele>810.245</ele>
        <time>2021-06-18T07:27:41Z</time>
      </trkpt>
      <trkpt lat="42.776719" lon="0.693972">
        <ele>810.947</ele>
        <time>2021-06-18T07:27:44Z</time>
      </trkpt>
      <trkpt lat="42.776725" lon="0.693942">
        <ele>810.511</ele>
        <time>2021-06-18T07:27:45Z</time>
      </trkpt>
      <trkpt lat="42.776705" lon="0.693813">
        <ele>811.608</ele>
        <time>2021-06-18T07:27:50Z</time>
      </trkpt>
      <trkpt lat="42.776695" lon="0.693790">
        <ele>812.141</ele>
        <time>2021-06-18T07:27:51Z</time>
      </trkpt>
      <trkpt lat="42.776662" lon="0.693718">
        <ele>814.130</ele>
        <time>2021-06-18T07:27:55Z</time>
      </trkpt>
      <trkpt lat="42.776654" lon="0.693691">
        <ele>814.486</ele>
        <time>2021-06-18T07:27:56Z</time>
      </trkpt>
      <trkpt lat="42.776626" lon="0.693632">
        <ele>815.860</ele>
        <time>2021-06-18T07:27:59Z</time>
      </trkpt>
      <trkpt lat="42.776620" lon="0.693616">
        <ele>816.174</ele>
        <time>2021-06-18T07:28:00Z</time>
      </trkpt>
      <trkpt lat="42.776589" lon="0.693564">
        <ele>817.184</ele>
        <time>2021-06-18T07:28:03Z</time>
      </trkpt>
      <trkpt lat="42.776579" lon="0.693518">
        <ele>816.857</ele>
        <time>2021-06-18T07:28:06Z</time>
      </trkpt>
      <trkpt lat="42.776550" lon="0.693479">
        <ele>817.834</ele>
        <time>2021-06-18T07:28:10Z</time>
      </trkpt>
      <trkpt lat="42.776503" lon="0.693419">
        <ele>819.331</ele>
        <time>2021-06-18T07:28:15Z</time>
      </trkpt>
      <trkpt lat="42.776431" lon="0.693324">
        <ele>821.461</ele>
        <time>2021-06-18T07:28:21Z</time>
      </trkpt>
      <trkpt lat="42.776350" lon="0.693239">
        <ele>823.607</ele>
        <time>2021-06-18T07:28:27Z</time>
      </trkpt>
      <trkpt lat="42.776265" lon="0.693162">
        <ele>825.308</ele>
        <time>2021-06-18T07:28:33Z</time>
      </trkpt>
      <trkpt lat="42.776186" lon="0.693087">
        <ele>826.220</ele>
        <time>2021-06-18T07:28:38Z</time>
      </trkpt>
      <trkpt lat="42.776087" lon="0.692963">
        <ele>825.889</ele>
        <time>2021-06-18T07:28:44Z</time>
      </trkpt>
      <trkpt lat="42.775988" lon="0.692813">
        <ele>825.465</ele>
        <time>2021-06-18T07:28:50Z</time>
      </trkpt>
      <trkpt lat="42.775972" lon="0.692790">
        <ele>825.419</ele>
        <time>2021-06-18T07:28:51Z</time>
      </trkpt>
      <trkpt lat="42.775897" lon="0.692693">
        <ele>826.593</ele>
        <time>2021-06-18T07:28:56Z</time>
      </trkpt>
      <trkpt lat="42.775867" lon="0.692660">
        <ele>827.523</ele>
        <time>2021-06-18T07:28:58Z</time>
      </trkpt>
      <trkpt lat="42.775790" lon="0.692589">
        <ele>830.016</ele>
        <time>2021-06-18T07:29:02Z</time>
      </trkpt>
      <trkpt lat="42.775720" lon="0.692540">
        <ele>832.263</ele>
        <time>2021-06-18T07:29:05Z</time>
      </trkpt>
      <trkpt lat="42.775651" lon="0.692500">
        <ele>834.582</ele>
        <time>2021-06-18T07:29:08Z</time>
      </trkpt>
      <trkpt lat="42.775529" lon="0.692428">
        <ele>836.843</ele>
        <time>2021-06-18T07:29:14Z</time>
      </trkpt>
      <trkpt lat="42.775483" lon="0.692392">
        <ele>836.517</ele>
        <time>2021-06-18T07:29:17Z</time>
      </trkpt>
      <trkpt lat="42.775416" lon="0.692353">
        <ele>837.008</ele>
        <time>2021-06-18T07:29:21Z</time>
      </trkpt>
      <trkpt lat="42.775378" lon="0.692334">
        <ele>837.525</ele>
        <time>2021-06-18T07:29:23Z</time>
      </trkpt>
      <trkpt lat="42.775287" lon="0.692292">
        <ele>839.234</ele>
        <time>2021-06-18T07:29:28Z</time>
      </trkpt>
      <trkpt lat="42.775266" lon="0.692287">
        <ele>839.650</ele>
        <time>2021-06-18T07:29:29Z</time>
      </trkpt>
      <trkpt lat="42.775169" lon="0.692289">
        <ele>841.374</ele>
        <time>2021-06-18T07:29:34Z</time>
      </trkpt>
      <trkpt lat="42.775151" lon="0.692291">
        <ele>841.658</ele>
        <time>2021-06-18T07:29:35Z</time>
      </trkpt>
      <trkpt lat="42.775055" lon="0.692319">
        <ele>844.128</ele>
        <time>2021-06-18T07:29:40Z</time>
      </trkpt>
      <trkpt lat="42.775021" lon="0.692328">
        <ele>845.061</ele>
        <time>2021-06-18T07:29:42Z</time>
      </trkpt>
      <trkpt lat="42.774964" lon="0.692348">
        <ele>846.148</ele>
        <time>2021-06-18T07:29:47Z</time>
      </trkpt>
      <trkpt lat="42.774939" lon="0.692351">
        <ele>846.317</ele>
        <time>2021-06-18T07:29:49Z</time>
      </trkpt>
      <trkpt lat="42.774886" lon="0.692355">
        <ele>846.587</ele>
        <time>2021-06-18T07:29:53Z</time>
      </trkpt>
      <trkpt lat="42.774869" lon="0.692361">
        <ele>846.715</ele>
        <time>2021-06-18T07:29:54Z</time>
      </trkpt>
      <trkpt lat="42.774775" lon="0.692365">
        <ele>847.008</ele>
        <time>2021-06-18T07:29:59Z</time>
      </trkpt>
      <trkpt lat="42.774754" lon="0.692369">
        <ele>847.238</ele>
        <time>2021-06-18T07:30:00Z</time>
      </trkpt>
      <trkpt lat="42.774707" lon="0.692394">
        <ele>848.027</ele>
        <time>2021-06-18T07:30:03Z</time>
      </trkpt>
      <trkpt lat="42.774656" lon="0.692450">
        <ele>849.953</ele>
        <time>2021-06-18T07:30:07Z</time>
      </trkpt>
      <trkpt lat="42.774649" lon="0.692466">
        <ele>850.527</ele>
        <time>2021-06-18T07:30:08Z</time>
      </trkpt>
      <trkpt lat="42.774648" lon="0.692558">
        <ele>853.961</ele>
        <time>2021-06-18T07:30:13Z</time>
      </trkpt>
      <trkpt lat="42.774658" lon="0.692571">
        <ele>854.361</ele>
        <time>2021-06-18T07:30:14Z</time>
      </trkpt>
      <trkpt lat="42.774700" lon="0.692613">
        <ele>855.754</ele>
        <time>2021-06-18T07:30:18Z</time>
      </trkpt>
      <trkpt lat="42.774743" lon="0.692636">
        <ele>856.271</ele>
        <time>2021-06-18T07:30:22Z</time>
      </trkpt>
      <trkpt lat="42.774753" lon="0.692640">
        <ele>856.382</ele>
        <time>2021-06-18T07:30:23Z</time>
      </trkpt>
      <trkpt lat="42.774772" lon="0.692647">
        <ele>856.443</ele>
        <time>2021-06-18T07:30:25Z</time>
      </trkpt>
      <trkpt lat="42.774784" lon="0.692647">
        <ele>856.417</ele>
        <time>2021-06-18T07:30:26Z</time>
      </trkpt>
      <trkpt lat="42.774867" lon="0.692647">
        <ele>855.708</ele>
        <time>2021-06-18T07:30:31Z</time>
      </trkpt>
      <trkpt lat="42.774923" lon="0.692664">
        <ele>855.845</ele>
        <time>2021-06-18T07:30:34Z</time>
      </trkpt>
      <trkpt lat="42.774958" lon="0.692688">
        <ele>856.144</ele>
        <time>2021-06-18T07:30:37Z</time>
      </trkpt>
      <trkpt lat="42.775049" lon="0.692748">
        <ele>856.020</ele>
        <time>2021-06-18T07:30:42Z</time>
      </trkpt>
      <trkpt lat="42.775066" lon="0.692766">
        <ele>856.044</ele>
        <time>2021-06-18T07:30:43Z</time>
      </trkpt>
      <trkpt lat="42.775133" lon="0.692866">
        <ele>857.198</ele>
        <time>2021-06-18T07:30:48Z</time>
      </trkpt>
      <trkpt lat="42.775140" lon="0.692890">
        <ele>857.538</ele>
        <time>2021-06-18T07:30:49Z</time>
      </trkpt>
      <trkpt lat="42.775207" lon="0.693035">
        <ele>859.061</ele>
        <time>2021-06-18T07:30:56Z</time>
      </trkpt>
      <trkpt lat="42.775219" lon="0.693052">
        <ele>859.028</ele>
        <time>2021-06-18T07:30:57Z</time>
      </trkpt>
      <trkpt lat="42.775309" lon="0.693159">
        <ele>859.739</ele>
        <time>2021-06-18T07:31:03Z</time>
      </trkpt>
      <trkpt lat="42.775436" lon="0.693296">
        <ele>861.401</ele>
        <time>2021-06-18T07:31:10Z</time>
      </trkpt>
      <trkpt lat="42.775455" lon="0.693312">
        <ele>861.521</ele>
        <time>2021-06-18T07:31:11Z</time>
      </trkpt>
      <trkpt lat="42.775538" lon="0.693360">
        <ele>861.308</ele>
        <time>2021-06-18T07:31:15Z</time>
      </trkpt>
      <trkpt lat="42.775592" lon="0.693415">
        <ele>861.520</ele>
        <time>2021-06-18T07:31:18Z</time>
      </trkpt>
      <trkpt lat="42.775624" lon="0.693454">
        <ele>861.649</ele>
        <time>2021-06-18T07:31:20Z</time>
      </trkpt>
      <trkpt lat="42.775701" lon="0.693559">
        <ele>861.845</ele>
        <time>2021-06-18T07:31:25Z</time>
      </trkpt>
      <trkpt lat="42.775764" lon="0.693712">
        <ele>863.089</ele>
        <time>2021-06-18T07:31:31Z</time>
      </trkpt>
      <trkpt lat="42.775784" lon="0.693760">
        <ele>863.333</ele>
        <time>2021-06-18T07:31:33Z</time>
      </trkpt>
      <trkpt lat="42.775856" lon="0.693934">
        <ele>864.093</ele>
        <time>2021-06-18T07:31:40Z</time>
      </trkpt>
      <trkpt lat="42.775896" lon="0.694090">
        <ele>865.246</ele>
        <time>2021-06-18T07:31:46Z</time>
      </trkpt>
      <trkpt lat="42.775919" lon="0.694204">
        <ele>865.613</ele>
        <time>2021-06-18T07:31:51Z</time>
      </trkpt>
      <trkpt lat="42.775929" lon="0.694226">
        <ele>865.257</ele>
        <time>2021-06-18T07:31:52Z</time>
      </trkpt>
      <trkpt lat="42.775954" lon="0.694297">
        <ele>864.200</ele>
        <time>2021-06-18T07:31:55Z</time>
      </trkpt>
      <trkpt lat="42.775948" lon="0.694445">
        <ele>865.420</ele>
        <time>2021-06-18T07:32:01Z</time>
      </trkpt>
      <trkpt lat="42.775950" lon="0.694468">
        <ele>865.208</ele>
        <time>2021-06-18T07:32:02Z</time>
      </trkpt>
      <trkpt lat="42.775935" lon="0.694596">
        <ele>865.932</ele>
        <time>2021-06-18T07:32:07Z</time>
      </trkpt>
      <trkpt lat="42.775933" lon="0.694619">
        <ele>866.051</ele>
        <time>2021-06-18T07:32:08Z</time>
      </trkpt>
      <trkpt lat="42.775936" lon="0.694671">
        <ele>865.837</ele>
        <time>2021-06-18T07:32:11Z</time>
      </trkpt>
      <trkpt lat="42.775923" lon="0.694727">
        <ele>866.531</ele>
        <time>2021-06-18T07:32:14Z</time>
      </trkpt>
      <trkpt lat="42.775906" lon="0.694788">
        <ele>867.725</ele>
        <time>2021-06-18T07:32:17Z</time>
      </trkpt>
      <trkpt lat="42.775891" lon="0.694836">
        <ele>868.665</ele>
        <time>2021-06-18T07:32:19Z</time>
      </trkpt>
      <trkpt lat="42.775880" lon="0.694932">
        <ele>869.498</ele>
        <time>2021-06-18T07:32:22Z</time>
      </trkpt>
      <trkpt lat="42.775871" lon="0.695017">
        <ele>870.025</ele>
        <time>2021-06-18T07:32:25Z</time>
      </trkpt>
      <trkpt lat="42.775869" lon="0.695109">
        <ele>870.215</ele>
        <time>2021-06-18T07:32:28Z</time>
      </trkpt>
      <trkpt lat="42.775867" lon="0.695174">
        <ele>870.465</ele>
        <time>2021-06-18T07:32:30Z</time>
      </trkpt>
      <trkpt lat="42.775874" lon="0.695255">
        <ele>870.211</ele>
        <time>2021-06-18T07:32:33Z</time>
      </trkpt>
      <trkpt lat="42.775893" lon="0.695314">
        <ele>869.908</ele>
        <time>2021-06-18T07:32:35Z</time>
      </trkpt>
      <trkpt lat="42.775902" lon="0.695346">
        <ele>869.998</ele>
        <time>2021-06-18T07:32:36Z</time>
      </trkpt>
      <trkpt lat="42.775963" lon="0.695500">
        <ele>869.557</ele>
        <time>2021-06-18T07:32:42Z</time>
      </trkpt>
      <trkpt lat="42.775972" lon="0.695521">
        <ele>869.573</ele>
        <time>2021-06-18T07:32:43Z</time>
      </trkpt>
      <trkpt lat="42.775979" lon="0.695567">
        <ele>870.137</ele>
        <time>2021-06-18T07:32:45Z</time>
      </trkpt>
      <trkpt lat="42.775984" lon="0.695636">
        <ele>871.821</ele>
        <time>2021-06-18T07:32:48Z</time>
      </trkpt>
      <trkpt lat="42.775992" lon="0.695658">
        <ele>872.171</ele>
        <time>2021-06-18T07:32:49Z</time>
      </trkpt>
      <trkpt lat="42.776000" lon="0.695741">
        <ele>874.124</ele>
        <time>2021-06-18T07:32:52Z</time>
      </trkpt>
      <trkpt lat="42.776005" lon="0.695767">
        <ele>874.641</ele>
        <time>2021-06-18T07:32:53Z</time>
      </trkpt>
      <trkpt lat="42.776011" lon="0.695791">
        <ele>875.197</ele>
        <time>2021-06-18T07:32:54Z</time>
      </trkpt>
      <trkpt lat="42.776023" lon="0.695837">
        <ele>876.023</ele>
        <time>2021-06-18T07:32:56Z</time>
      </trkpt>
      <trkpt lat="42.776034" lon="0.695861">
        <ele>876.425</ele>
        <time>2021-06-18T07:32:57Z</time>
      </trkpt>
      <trkpt lat="42.776047" lon="0.695884">
        <ele>876.808</ele>
        <time>2021-06-18T07:32:58Z</time>
      </trkpt>
      <trkpt lat="42.776054" lon="0.695903">
        <ele>877.296</ele>
        <time>2021-06-18T07:32:59Z</time>
      </trkpt>
      <trkpt lat="42.776071" lon="0.695933">
        <ele>877.645</ele>
        <time>2021-06-18T07:33:01Z</time>
      </trkpt>
      <trkpt lat="42.776095" lon="0.695966">
        <ele>877.891</ele>
        <time>2021-06-18T07:33:03Z</time>
      </trkpt>
      <trkpt lat="42.776106" lon="0.695983">
        <ele>878.075</ele>
        <time>2021-06-18T07:33:04Z</time>
      </trkpt>
      <trkpt lat="42.776128" lon="0.696030">
        <ele>879.079</ele>
        <time>2021-06-18T07:33:07Z</time>
      </trkpt>
      <trkpt lat="42.776135" lon="0.696047">
        <ele>879.469</ele>
        <time>2021-06-18T07:33:08Z</time>
      </trkpt>
      <trkpt lat="42.776179" lon="0.696134">
        <ele>881.552</ele>
        <time>2021-06-18T07:33:13Z</time>
      </trkpt>
      <trkpt lat="42.776243" lon="0.696277">
        <ele>883.639</ele>
        <time>2021-06-18T07:33:19Z</time>
      </trkpt>
      <trkpt lat="42.776330" lon="0.696457">
        <ele>883.626</ele>
        <time>2021-06-18T07:33:26Z</time>
      </trkpt>
      <trkpt lat="42.776391" lon="0.696599">
        <ele>882.947</ele>
        <time>2021-06-18T07:33:32Z</time>
      </trkpt>
      <trkpt lat="42.776400" lon="0.696618">
        <ele>882.811</ele>
        <time>2021-06-18T07:33:33Z</time>
      </trkpt>
      <trkpt lat="42.776413" lon="0.696677">
        <ele>882.908</ele>
        <time>2021-06-18T07:33:36Z</time>
      </trkpt>
      <trkpt lat="42.776434" lon="0.696772">
        <ele>882.669</ele>
        <time>2021-06-18T07:33:42Z</time>
      </trkpt>
      <trkpt lat="42.776437" lon="0.696785">
        <ele>882.548</ele>
        <time>2021-06-18T07:33:43Z</time>
      </trkpt>
      <trkpt lat="42.776437" lon="0.696866">
        <ele>883.164</ele>
        <time>2021-06-18T07:33:47Z</time>
      </trkpt>
      <trkpt lat="42.776440" lon="0.696896">
        <ele>883.158</ele>
        <time>2021-06-18T07:33:48Z</time>
      </trkpt>
      <trkpt lat="42.776475" lon="0.697039">
        <ele>882.552</ele>
        <time>2021-06-18T07:33:53Z</time>
      </trkpt>
      <trkpt lat="42.776481" lon="0.697065">
        <ele>882.472</ele>
        <time>2021-06-18T07:33:54Z</time>
      </trkpt>
      <trkpt lat="42.776487" lon="0.697238">
        <ele>883.465</ele>
        <time>2021-06-18T07:34:00Z</time>
      </trkpt>
      <trkpt lat="42.776474" lon="0.697323">
        <ele>884.262</ele>
        <time>2021-06-18T07:34:03Z</time>
      </trkpt>
      <trkpt lat="42.776451" lon="0.697388">
        <ele>885.642</ele>
        <time>2021-06-18T07:34:06Z</time>
      </trkpt>
      <trkpt lat="42.776407" lon="0.697506">
        <ele>888.022</ele>
        <time>2021-06-18T07:34:11Z</time>
      </trkpt>
      <trkpt lat="42.776394" lon="0.697554">
        <ele>888.214</ele>
        <time>2021-06-18T07:34:13Z</time>
      </trkpt>
      <trkpt lat="42.776377" lon="0.697648">
        <ele>888.108</ele>
        <time>2021-06-18T07:34:17Z</time>
      </trkpt>
      <trkpt lat="42.776362" lon="0.697737">
        <ele>888.021</ele>
        <time>2021-06-18T07:34:21Z</time>
      </trkpt>
      <trkpt lat="42.776350" lon="0.697773">
        <ele>888.370</ele>
        <time>2021-06-18T07:34:23Z</time>
      </trkpt>
      <trkpt lat="42.776344" lon="0.697790">
        <ele>888.596</ele>
        <time>2021-06-18T07:34:24Z</time>
      </trkpt>
      <trkpt lat="42.776329" lon="0.697827">
        <ele>889.130</ele>
        <time>2021-06-18T07:34:26Z</time>
      </trkpt>
      <trkpt lat="42.776307" lon="0.697894">
        <ele>889.854</ele>
        <time>2021-06-18T07:34:29Z</time>
      </trkpt>
      <trkpt lat="42.776301" lon="0.697915">
        <ele>889.974</ele>
        <time>2021-06-18T07:34:30Z</time>
      </trkpt>
      <trkpt lat="42.776287" lon="0.697968">
        <ele>890.227</ele>
        <time>2021-06-18T07:34:32Z</time>
      </trkpt>
      <trkpt lat="42.776269" lon="0.698060">
        <ele>890.234</ele>
        <time>2021-06-18T07:34:35Z</time>
      </trkpt>
      <trkpt lat="42.776255" lon="0.698092">
        <ele>890.682</ele>
        <time>2021-06-18T07:34:36Z</time>
      </trkpt>
      <trkpt lat="42.776248" lon="0.698148">
        <ele>890.843</ele>
        <time>2021-06-18T07:34:38Z</time>
      </trkpt>
      <trkpt lat="42.776224" lon="0.698243">
        <ele>891.717</ele>
        <time>2021-06-18T07:34:42Z</time>
      </trkpt>
      <trkpt lat="42.776208" lon="0.698307">
        <ele>892.508</ele>
        <time>2021-06-18T07:34:45Z</time>
      </trkpt>
      <trkpt lat="42.776195" lon="0.698349">
        <ele>893.145</ele>
        <time>2021-06-18T07:34:47Z</time>
      </trkpt>
      <trkpt lat="42.776175" lon="0.698370">
        <ele>894.234</ele>
        <time>2021-06-18T07:34:49Z</time>
      </trkpt>
      <trkpt lat="42.776155" lon="0.698361">
        <ele>895.410</ele>
        <time>2021-06-18T07:34:51Z</time>
      </trkpt>
      <trkpt lat="42.776136" lon="0.698303">
        <ele>896.514</ele>
        <time>2021-06-18T07:34:55Z</time>
      </trkpt>
      <trkpt lat="42.776129" lon="0.698261">
        <ele>896.868</ele>
        <time>2021-06-18T07:34:57Z</time>
      </trkpt>
      <trkpt lat="42.776138" lon="0.698176">
        <ele>896.188</ele>
        <time>2021-06-18T07:35:01Z</time>
      </trkpt>
      <trkpt lat="42.776135" lon="0.698155">
        <ele>896.241</ele>
        <time>2021-06-18T07:35:02Z</time>
      </trkpt>
      <trkpt lat="42.776122" lon="0.698071">
        <ele>896.628</ele>
        <time>2021-06-18T07:35:06Z</time>
      </trkpt>
      <trkpt lat="42.776133" lon="0.698035">
        <ele>896.488</ele>
        <time>2021-06-18T07:35:08Z</time>
      </trkpt>
      <trkpt lat="42.776133" lon="0.698003">
        <ele>896.924</ele>
        <time>2021-06-18T07:35:10Z</time>
      </trkpt>
      <trkpt lat="42.776134" lon="0.697956">
        <ele>897.726</ele>
        <time>2021-06-18T07:35:13Z</time>
      </trkpt>
      <trkpt lat="42.776146" lon="0.697897">
        <ele>898.108</ele>
        <time>2021-06-18T07:35:17Z</time>
      </trkpt>
      <trkpt lat="42.776139" lon="0.697872">
        <ele>898.865</ele>
        <time>2021-06-18T07:35:19Z</time>
      </trkpt>
      <trkpt lat="42.776153" lon="0.697791">
        <ele>899.474</ele>
        <time>2021-06-18T07:35:24Z</time>
      </trkpt>
      <trkpt lat="42.776152" lon="0.697773">
        <ele>899.730</ele>
        <time>2021-06-18T07:35:25Z</time>
      </trkpt>
      <trkpt lat="42.776163" lon="0.697675">
        <ele>900.114</ele>
        <time>2021-06-18T07:35:29Z</time>
      </trkpt>
      <trkpt lat="42.776167" lon="0.697613">
        <ele>900.698</ele>
        <time>2021-06-18T07:35:32Z</time>
      </trkpt>
      <trkpt lat="42.776161" lon="0.697560">
        <ele>901.518</ele>
        <time>2021-06-18T07:35:34Z</time>
      </trkpt>
      <trkpt lat="42.776152" lon="0.697540">
        <ele>902.211</ele>
        <time>2021-06-18T07:35:35Z</time>
      </trkpt>
      <trkpt lat="42.776133" lon="0.697444">
        <ele>903.758</ele>
        <time>2021-06-18T07:35:39Z</time>
      </trkpt>
      <trkpt lat="42.776126" lon="0.697421">
        <ele>904.128</ele>
        <time>2021-06-18T07:35:40Z</time>
      </trkpt>
      <trkpt lat="42.776111" lon="0.697297">
        <ele>905.089</ele>
        <time>2021-06-18T07:35:45Z</time>
      </trkpt>
      <trkpt lat="42.776100" lon="0.697241">
        <ele>905.617</ele>
        <time>2021-06-18T07:35:47Z</time>
      </trkpt>
      <trkpt lat="42.776098" lon="0.697127">
        <ele>905.108</ele>
        <time>2021-06-18T07:35:51Z</time>
      </trkpt>
      <trkpt lat="42.776088" lon="0.697077">
        <ele>905.399</ele>
        <time>2021-06-18T07:35:53Z</time>
      </trkpt>
      <trkpt lat="42.776087" lon="0.696989">
        <ele>904.838</ele>
        <time>2021-06-18T07:35:56Z</time>
      </trkpt>
      <trkpt lat="42.776058" lon="0.696877">
        <ele>904.974</ele>
        <time>2021-06-18T07:36:01Z</time>
      </trkpt>
      <trkpt lat="42.776053" lon="0.696856">
        <ele>904.738</ele>
        <time>2021-06-18T07:36:02Z</time>
      </trkpt>
      <trkpt lat="42.776029" lon="0.696768">
        <ele>904.112</ele>
        <time>2021-06-18T07:36:06Z</time>
      </trkpt>
      <trkpt lat="42.776015" lon="0.696730">
        <ele>904.092</ele>
        <time>2021-06-18T07:36:08Z</time>
      </trkpt>
      <trkpt lat="42.775979" lon="0.696691">
        <ele>904.835</ele>
        <time>2021-06-18T07:36:11Z</time>
      </trkpt>
      <trkpt lat="42.775914" lon="0.696625">
        <ele>906.252</ele>
        <time>2021-06-18T07:36:16Z</time>
      </trkpt>
      <trkpt lat="42.775899" lon="0.696613">
        <ele>906.638</ele>
        <time>2021-06-18T07:36:17Z</time>
      </trkpt>
      <trkpt lat="42.775794" lon="0.696589">
        <ele>910.370</ele>
        <time>2021-06-18T07:36:23Z</time>
      </trkpt>
      <trkpt lat="42.775707" lon="0.696538">
        <ele>911.317</ele>
        <time>2021-06-18T07:36:29Z</time>
      </trkpt>
      <trkpt lat="42.775655" lon="0.696508">
        <ele>911.608</ele>
        <time>2021-06-18T07:36:33Z</time>
      </trkpt>
      <trkpt lat="42.775635" lon="0.696495">
        <ele>911.680</ele>
        <time>2021-06-18T07:36:35Z</time>
      </trkpt>
      <trkpt lat="42.775578" lon="0.696464">
        <ele>911.739</ele>
        <time>2021-06-18T07:36:39Z</time>
      </trkpt>
      <trkpt lat="42.775537" lon="0.696449">
        <ele>912.165</ele>
        <time>2021-06-18T07:36:41Z</time>
      </trkpt>
      <trkpt lat="42.775454" lon="0.696379">
        <ele>911.659</ele>
        <time>2021-06-18T07:36:46Z</time>
      </trkpt>
      <trkpt lat="42.775428" lon="0.696346">
        <ele>911.353</ele>
        <time>2021-06-18T07:36:48Z</time>
      </trkpt>
      <trkpt lat="42.775366" lon="0.696269">
        <ele>911.073</ele>
        <time>2021-06-18T07:36:53Z</time>
      </trkpt>
      <trkpt lat="42.775355" lon="0.696255">
        <ele>911.016</ele>
        <time>2021-06-18T07:36:54Z</time>
      </trkpt>
      <trkpt lat="42.775286" lon="0.696160">
        <ele>910.923</ele>
        <time>2021-06-18T07:37:00Z</time>
      </trkpt>
      <trkpt lat="42.775278" lon="0.696146">
        <ele>910.982</ele>
        <time>2021-06-18T07:37:01Z</time>
      </trkpt>
      <trkpt lat="42.775242" lon="0.696092">
        <ele>911.143</ele>
        <time>2021-06-18T07:37:04Z</time>
      </trkpt>
      <trkpt lat="42.775209" lon="0.696037">
        <ele>911.417</ele>
        <time>2021-06-18T07:37:07Z</time>
      </trkpt>
      <trkpt lat="42.775166" lon="0.695977">
        <ele>912.108</ele>
        <time>2021-06-18T07:37:10Z</time>
      </trkpt>
      <trkpt lat="42.775125" lon="0.695906">
        <ele>912.665</ele>
        <time>2021-06-18T07:37:14Z</time>
      </trkpt>
      <trkpt lat="42.775113" lon="0.695888">
        <ele>912.844</ele>
        <time>2021-06-18T07:37:15Z</time>
      </trkpt>
      <trkpt lat="42.775067" lon="0.695789">
        <ele>913.530</ele>
        <time>2021-06-18T07:37:20Z</time>
      </trkpt>
      <trkpt lat="42.775053" lon="0.695768">
        <ele>914.034</ele>
        <time>2021-06-18T07:37:21Z</time>
      </trkpt>
      <trkpt lat="42.775020" lon="0.695631">
        <ele>914.628</ele>
        <time>2021-06-18T07:37:27Z</time>
      </trkpt>
      <trkpt lat="42.774972" lon="0.695481">
        <ele>916.038</ele>
        <time>2021-06-18T07:37:33Z</time>
      </trkpt>
      <trkpt lat="42.774936" lon="0.695333">
        <ele>917.031</ele>
        <time>2021-06-18T07:37:39Z</time>
      </trkpt>
      <trkpt lat="42.774927" lon="0.695291">
        <ele>917.218</ele>
        <time>2021-06-18T07:37:41Z</time>
      </trkpt>
      <trkpt lat="42.774916" lon="0.695224">
        <ele>917.676</ele>
        <time>2021-06-18T07:37:44Z</time>
      </trkpt>
      <trkpt lat="42.774893" lon="0.695194">
        <ele>918.590</ele>
        <time>2021-06-18T07:37:46Z</time>
      </trkpt>
      <trkpt lat="42.774836" lon="0.695228">
        <ele>921.019</ele>
        <time>2021-06-18T07:37:51Z</time>
      </trkpt>
      <trkpt lat="42.774810" lon="0.695315">
        <ele>922.408</ele>
        <time>2021-06-18T07:37:56Z</time>
      </trkpt>
      <trkpt lat="42.774807" lon="0.695333">
        <ele>922.784</ele>
        <time>2021-06-18T07:37:57Z</time>
      </trkpt>
      <trkpt lat="42.774810" lon="0.695384">
        <ele>922.993</ele>
        <time>2021-06-18T07:38:00Z</time>
      </trkpt>
      <trkpt lat="42.774827" lon="0.695446">
        <ele>922.589</ele>
        <time>2021-06-18T07:38:04Z</time>
      </trkpt>
      <trkpt lat="42.774825" lon="0.695479">
        <ele>922.763</ele>
        <time>2021-06-18T07:38:06Z</time>
      </trkpt>
      <trkpt lat="42.774824" lon="0.695536">
        <ele>923.167</ele>
        <time>2021-06-18T07:38:09Z</time>
      </trkpt>
      <trkpt lat="42.774814" lon="0.695561">
        <ele>923.817</ele>
        <time>2021-06-18T07:38:10Z</time>
      </trkpt>
      <trkpt lat="42.774815" lon="0.695614">
        <ele>924.260</ele>
        <time>2021-06-18T07:38:13Z</time>
      </trkpt>
      <trkpt lat="42.774825" lon="0.695660">
        <ele>924.257</ele>
        <time>2021-06-18T07:38:16Z</time>
      </trkpt>
      <trkpt lat="42.774822" lon="0.695674">
        <ele>924.591</ele>
        <time>2021-06-18T07:38:17Z</time>
      </trkpt>
      <trkpt lat="42.774818" lon="0.695725">
        <ele>925.181</ele>
        <time>2021-06-18T07:38:21Z</time>
      </trkpt>
      <trkpt lat="42.774797" lon="0.695842">
        <ele>927.319</ele>
        <time>2021-06-18T07:38:29Z</time>
      </trkpt>
      <trkpt lat="42.774788" lon="0.695866">
        <ele>928.008</ele>
        <time>2021-06-18T07:38:31Z</time>
      </trkpt>
      <trkpt lat="42.774780" lon="0.695963">
        <ele>929.396</ele>
        <time>2021-06-18T07:38:37Z</time>
      </trkpt>
      <trkpt lat="42.774794" lon="0.696023">
        <ele>929.395</ele>
        <time>2021-06-18T07:38:40Z</time>
      </trkpt>
      <trkpt lat="42.774804" lon="0.696132">
        <ele>930.251</ele>
        <time>2021-06-18T07:38:45Z</time>
      </trkpt>
      <trkpt lat="42.774826" lon="0.696235">
        <ele>931.385</ele>
        <time>2021-06-18T07:38:50Z</time>
      </trkpt>
      <trkpt lat="42.774844" lon="0.696272">
        <ele>931.399</ele>
        <time>2021-06-18T07:38:52Z</time>
      </trkpt>
      <trkpt lat="42.774850" lon="0.696337">
        <ele>932.429</ele>
        <time>2021-06-18T07:38:55Z</time>
      </trkpt>
      <trkpt lat="42.774844" lon="0.696454">
        <ele>935.232</ele>
        <time>2021-06-18T07:39:02Z</time>
      </trkpt>
      <trkpt lat="42.774879" lon="0.696608">
        <ele>937.429</ele>
        <time>2021-06-18T07:39:10Z</time>
      </trkpt>
      <trkpt lat="42.774917" lon="0.696703">
        <ele>938.172</ele>
        <time>2021-06-18T07:39:16Z</time>
      </trkpt>
      <trkpt lat="42.774932" lon="0.696762">
        <ele>938.813</ele>
        <time>2021-06-18T07:39:19Z</time>
      </trkpt>
      <trkpt lat="42.774961" lon="0.696814">
        <ele>938.814</ele>
        <time>2021-06-18T07:39:22Z</time>
      </trkpt>
      <trkpt lat="42.775020" lon="0.696983">
        <ele>940.208</ele>
        <time>2021-06-18T07:39:29Z</time>
      </trkpt>
      <trkpt lat="42.775070" lon="0.697156">
        <ele>942.074</ele>
        <time>2021-06-18T07:39:36Z</time>
      </trkpt>
      <trkpt lat="42.775095" lon="0.697204">
        <ele>941.963</ele>
        <time>2021-06-18T07:39:38Z</time>
      </trkpt>
      <trkpt lat="42.775111" lon="0.697275">
        <ele>942.799</ele>
        <time>2021-06-18T07:39:42Z</time>
      </trkpt>
      <trkpt lat="42.775153" lon="0.697359">
        <ele>942.963</ele>
        <time>2021-06-18T07:39:47Z</time>
      </trkpt>
      <trkpt lat="42.775161" lon="0.697375">
        <ele>942.937</ele>
        <time>2021-06-18T07:39:48Z</time>
      </trkpt>
      <trkpt lat="42.775188" lon="0.697441">
        <ele>943.397</ele>
        <time>2021-06-18T07:39:52Z</time>
      </trkpt>
      <trkpt lat="42.775195" lon="0.697569">
        <ele>944.490</ele>
        <time>2021-06-18T07:39:58Z</time>
      </trkpt>
      <trkpt lat="42.775200" lon="0.697727">
        <ele>944.397</ele>
        <time>2021-06-18T07:40:06Z</time>
      </trkpt>
      <trkpt lat="42.775187" lon="0.697760">
        <ele>944.918</ele>
        <time>2021-06-18T07:40:08Z</time>
      </trkpt>
      <trkpt lat="42.775125" lon="0.697889">
        <ele>946.898</ele>
        <time>2021-06-18T07:40:16Z</time>
      </trkpt>
      <trkpt lat="42.775116" lon="0.697926">
        <ele>946.917</ele>
        <time>2021-06-18T07:40:18Z</time>
      </trkpt>
      <trkpt lat="42.775129" lon="0.698087">
        <ele>945.908</ele>
        <time>2021-06-18T07:40:25Z</time>
      </trkpt>
      <trkpt lat="42.775130" lon="0.698105">
        <ele>946.288</ele>
        <time>2021-06-18T07:40:27Z</time>
      </trkpt>
      <trkpt lat="42.775126" lon="0.698116">
        <ele>946.687</ele>
        <time>2021-06-18T07:40:28Z</time>
      </trkpt>
      <trkpt lat="42.775254" lon="0.698374">
        <ele>943.783</ele>
        <time>2021-06-18T07:48:21Z</time>
      </trkpt>
      <trkpt lat="42.775275" lon="0.698451">
        <ele>943.037</ele>
        <time>2021-06-18T07:48:24Z</time>
      </trkpt>
      <trkpt lat="42.775304" lon="0.698528">
        <ele>941.791</ele>
        <time>2021-06-18T07:48:27Z</time>
      </trkpt>
      <trkpt lat="42.775327" lon="0.698601">
        <ele>940.641</ele>
        <time>2021-06-18T07:48:30Z</time>
      </trkpt>
      <trkpt lat="42.775341" lon="0.698650">
        <ele>940.034</ele>
        <time>2021-06-18T07:48:32Z</time>
      </trkpt>
      <trkpt lat="42.775331" lon="0.698735">
        <ele>941.541</ele>
        <time>2021-06-18T07:48:35Z</time>
      </trkpt>
      <trkpt lat="42.775324" lon="0.698763">
        <ele>942.358</ele>
        <time>2021-06-18T07:48:36Z</time>
      </trkpt>
      <trkpt lat="42.775322" lon="0.698813">
        <ele>942.952</ele>
        <time>2021-06-18T07:48:38Z</time>
      </trkpt>
      <trkpt lat="42.775327" lon="0.698832">
        <ele>942.717</ele>
        <time>2021-06-18T07:48:39Z</time>
      </trkpt>
      <trkpt lat="42.775324" lon="0.698881">
        <ele>943.408</ele>
        <time>2021-06-18T07:48:41Z</time>
      </trkpt>
      <trkpt lat="42.775319" lon="0.698910">
        <ele>944.092</ele>
        <time>2021-06-18T07:48:42Z</time>
      </trkpt>
      <trkpt lat="42.775329" lon="0.698979">
        <ele>943.891</ele>
        <time>2021-06-18T07:48:45Z</time>
      </trkpt>
      <trkpt lat="42.775321" lon="0.699032">
        <ele>944.827</ele>
        <time>2021-06-18T07:48:47Z</time>
      </trkpt>
      <trkpt lat="42.775336" lon="0.699086">
        <ele>944.041</ele>
        <time>2021-06-18T07:48:49Z</time>
      </trkpt>
      <trkpt lat="42.775341" lon="0.699200">
        <ele>945.155</ele>
        <time>2021-06-18T07:48:53Z</time>
      </trkpt>
      <trkpt lat="42.775333" lon="0.699231">
        <ele>946.415</ele>
        <time>2021-06-18T07:48:54Z</time>
      </trkpt>
      <trkpt lat="42.775300" lon="0.699317">
        <ele>951.118</ele>
        <time>2021-06-18T07:48:58Z</time>
      </trkpt>
      <trkpt lat="42.775289" lon="0.699325">
        <ele>952.135</ele>
        <time>2021-06-18T07:48:59Z</time>
      </trkpt>
      <trkpt lat="42.775277" lon="0.699328">
        <ele>953.159</ele>
        <time>2021-06-18T07:49:00Z</time>
      </trkpt>
      <trkpt lat="42.775249" lon="0.699322">
        <ele>954.503</ele>
        <time>2021-06-18T07:49:02Z</time>
      </trkpt>
      <trkpt lat="42.775237" lon="0.699315">
        <ele>955.023</ele>
        <time>2021-06-18T07:49:03Z</time>
      </trkpt>
      <trkpt lat="42.775228" lon="0.699304">
        <ele>955.208</ele>
        <time>2021-06-18T07:49:04Z</time>
      </trkpt>
      <trkpt lat="42.775215" lon="0.699270">
        <ele>955.192</ele>
        <time>2021-06-18T07:49:06Z</time>
      </trkpt>
      <trkpt lat="42.775216" lon="0.699224">
        <ele>953.811</ele>
        <time>2021-06-18T07:49:08Z</time>
      </trkpt>
      <trkpt lat="42.775194" lon="0.699164">
        <ele>953.557</ele>
        <time>2021-06-18T07:49:11Z</time>
      </trkpt>
      <trkpt lat="42.775185" lon="0.699122">
        <ele>953.711</ele>
        <time>2021-06-18T07:49:13Z</time>
      </trkpt>
      <trkpt lat="42.775175" lon="0.699101">
        <ele>954.235</ele>
        <time>2021-06-18T07:49:14Z</time>
      </trkpt>
      <trkpt lat="42.775125" lon="0.699015">
        <ele>956.595</ele>
        <time>2021-06-18T07:49:19Z</time>
      </trkpt>
      <trkpt lat="42.775098" lon="0.698937">
        <ele>957.648</ele>
        <time>2021-06-18T07:49:23Z</time>
      </trkpt>
      <trkpt lat="42.775106" lon="0.698892">
        <ele>956.975</ele>
        <time>2021-06-18T07:49:25Z</time>
      </trkpt>
      <trkpt lat="42.775116" lon="0.698852">
        <ele>956.352</ele>
        <time>2021-06-18T07:49:27Z</time>
      </trkpt>
      <trkpt lat="42.775127" lon="0.698793">
        <ele>955.653</ele>
        <time>2021-06-18T07:49:30Z</time>
      </trkpt>
      <trkpt lat="42.775099" lon="0.698698">
        <ele>957.408</ele>
        <time>2021-06-18T07:49:35Z</time>
      </trkpt>
      <trkpt lat="42.775086" lon="0.698676">
        <ele>958.408</ele>
        <time>2021-06-18T07:49:36Z</time>
      </trkpt>
      <trkpt lat="42.774990" lon="0.698578">
        <ele>964.592</ele>
        <time>2021-06-18T07:49:42Z</time>
      </trkpt>
      <trkpt lat="42.774979" lon="0.698568">
        <ele>964.851</ele>
        <time>2021-06-18T07:49:43Z</time>
      </trkpt>
      <trkpt lat="42.774934" lon="0.698525">
        <ele>965.747</ele>
        <time>2021-06-18T07:49:47Z</time>
      </trkpt>
      <trkpt lat="42.774908" lon="0.698499">
        <ele>966.241</ele>
        <time>2021-06-18T07:49:49Z</time>
      </trkpt>
      <trkpt lat="42.774894" lon="0.698485">
        <ele>966.595</ele>
        <time>2021-06-18T07:49:50Z</time>
      </trkpt>
      <trkpt lat="42.774868" lon="0.698464">
        <ele>967.275</ele>
        <time>2021-06-18T07:49:52Z</time>
      </trkpt>
      <trkpt lat="42.774856" lon="0.698449">
        <ele>967.468</ele>
        <time>2021-06-18T07:49:53Z</time>
      </trkpt>
      <trkpt lat="42.774815" lon="0.698376">
        <ele>967.565</ele>
        <time>2021-06-18T07:49:57Z</time>
      </trkpt>
      <trkpt lat="42.774789" lon="0.698344">
        <ele>967.939</ele>
        <time>2021-06-18T07:49:59Z</time>
      </trkpt>
      <trkpt lat="42.774760" lon="0.698275">
        <ele>968.201</ele>
        <time>2021-06-18T07:50:03Z</time>
      </trkpt>
      <trkpt lat="42.774753" lon="0.698254">
        <ele>968.221</ele>
        <time>2021-06-18T07:50:04Z</time>
      </trkpt>
      <trkpt lat="42.774741" lon="0.698234">
        <ele>968.608</ele>
        <time>2021-06-18T07:50:05Z</time>
      </trkpt>
      <trkpt lat="42.774720" lon="0.698172">
        <ele>968.820</ele>
        <time>2021-06-18T07:50:08Z</time>
      </trkpt>
      <trkpt lat="42.774710" lon="0.698135">
        <ele>969.029</ele>
        <time>2021-06-18T07:50:10Z</time>
      </trkpt>
      <trkpt lat="42.774700" lon="0.698122">
        <ele>969.585</ele>
        <time>2021-06-18T07:50:11Z</time>
      </trkpt>
      <trkpt lat="42.774663" lon="0.698013">
        <ele>971.139</ele>
        <time>2021-06-18T07:50:16Z</time>
      </trkpt>
      <trkpt lat="42.774642" lon="0.697961">
        <ele>972.463</ele>
        <time>2021-06-18T07:50:18Z</time>
      </trkpt>
      <trkpt lat="42.774622" lon="0.697912">
        <ele>973.633</ele>
        <time>2021-06-18T07:50:20Z</time>
      </trkpt>
      <trkpt lat="42.774620" lon="0.697886">
        <ele>973.716</ele>
        <time>2021-06-18T07:50:21Z</time>
      </trkpt>
      <trkpt lat="42.774619" lon="0.697862">
        <ele>973.713</ele>
        <time>2021-06-18T07:50:22Z</time>
      </trkpt>
      <trkpt lat="42.774611" lon="0.697841">
        <ele>974.164</ele>
        <time>2021-06-18T07:50:23Z</time>
      </trkpt>
      <trkpt lat="42.774576" lon="0.697750">
        <ele>975.506</ele>
        <time>2021-06-18T07:50:27Z</time>
      </trkpt>
      <trkpt lat="42.774563" lon="0.697729">
        <ele>975.916</ele>
        <time>2021-06-18T07:50:28Z</time>
      </trkpt>
      <trkpt lat="42.774516" lon="0.697620">
        <ele>976.608</ele>
        <time>2021-06-18T07:50:33Z</time>
      </trkpt>
      <trkpt lat="42.774509" lon="0.697597">
        <ele>976.663</ele>
        <time>2021-06-18T07:50:34Z</time>
      </trkpt>
      <trkpt lat="42.774503" lon="0.697575">
        <ele>976.552</ele>
        <time>2021-06-18T07:50:35Z</time>
      </trkpt>
      <trkpt lat="42.774471" lon="0.697467">
        <ele>976.178</ele>
        <time>2021-06-18T07:50:40Z</time>
      </trkpt>
      <trkpt lat="42.774466" lon="0.697447">
        <ele>976.032</ele>
        <time>2021-06-18T07:50:41Z</time>
      </trkpt>
      <trkpt lat="42.774461" lon="0.697417">
        <ele>975.756</ele>
        <time>2021-06-18T07:50:43Z</time>
      </trkpt>
      <trkpt lat="42.774447" lon="0.697383">
        <ele>975.846</ele>
        <time>2021-06-18T07:50:45Z</time>
      </trkpt>
      <trkpt lat="42.774409" lon="0.697326">
        <ele>977.329</ele>
        <time>2021-06-18T07:50:48Z</time>
      </trkpt>
      <trkpt lat="42.774397" lon="0.697284">
        <ele>977.456</ele>
        <time>2021-06-18T07:50:50Z</time>
      </trkpt>
      <trkpt lat="42.774374" lon="0.697225">
        <ele>978.126</ele>
        <time>2021-06-18T07:50:53Z</time>
      </trkpt>
      <trkpt lat="42.774364" lon="0.697202">
        <ele>978.447</ele>
        <time>2021-06-18T07:50:54Z</time>
      </trkpt>
      <trkpt lat="42.774349" lon="0.697157">
        <ele>978.811</ele>
        <time>2021-06-18T07:50:56Z</time>
      </trkpt>
      <trkpt lat="42.774323" lon="0.697109">
        <ele>979.908</ele>
        <time>2021-06-18T07:50:58Z</time>
      </trkpt>
      <trkpt lat="42.774269" lon="0.697045">
        <ele>982.839</ele>
        <time>2021-06-18T07:51:01Z</time>
      </trkpt>
      <trkpt lat="42.774253" lon="0.697025">
        <ele>983.728</ele>
        <time>2021-06-18T07:51:02Z</time>
      </trkpt>
      <trkpt lat="42.774192" lon="0.696948">
        <ele>987.114</ele>
        <time>2021-06-18T07:51:07Z</time>
      </trkpt>
      <trkpt lat="42.774140" lon="0.696850">
        <ele>987.458</ele>
        <time>2021-06-18T07:51:13Z</time>
      </trkpt>
      <trkpt lat="42.774130" lon="0.696832">
        <ele>987.422</ele>
        <time>2021-06-18T07:51:14Z</time>
      </trkpt>
      <trkpt lat="42.774057" lon="0.696699">
        <ele>987.092</ele>
        <time>2021-06-18T07:51:20Z</time>
      </trkpt>
      <trkpt lat="42.774051" lon="0.696677">
        <ele>986.555</ele>
        <time>2021-06-18T07:51:21Z</time>
      </trkpt>
      <trkpt lat="42.774027" lon="0.696609">
        <ele>985.572</ele>
        <time>2021-06-18T07:51:25Z</time>
      </trkpt>
      <trkpt lat="42.774016" lon="0.696595">
        <ele>985.673</ele>
        <time>2021-06-18T07:51:26Z</time>
      </trkpt>
      <trkpt lat="42.773991" lon="0.696558">
        <ele>985.785</ele>
        <time>2021-06-18T07:51:29Z</time>
      </trkpt>
      <trkpt lat="42.773982" lon="0.696546">
        <ele>985.813</ele>
        <time>2021-06-18T07:51:30Z</time>
      </trkpt>
      <trkpt lat="42.773976" lon="0.696535">
        <ele>985.808</ele>
        <time>2021-06-18T07:51:31Z</time>
      </trkpt>
      <trkpt lat="42.773968" lon="0.696526">
        <ele>985.944</ele>
        <time>2021-06-18T07:51:32Z</time>
      </trkpt>
      <trkpt lat="42.773948" lon="0.696479">
        <ele>985.213</ele>
        <time>2021-06-18T07:51:35Z</time>
      </trkpt>
      <trkpt lat="42.773935" lon="0.696461">
        <ele>985.329</ele>
        <time>2021-06-18T07:51:36Z</time>
      </trkpt>
      <trkpt lat="42.773921" lon="0.696447">
        <ele>985.523</ele>
        <time>2021-06-18T07:51:37Z</time>
      </trkpt>
      <trkpt lat="42.773870" lon="0.696390">
        <ele>986.397</ele>
        <time>2021-06-18T07:51:40Z</time>
      </trkpt>
      <trkpt lat="42.773843" lon="0.696363">
        <ele>987.067</ele>
        <time>2021-06-18T07:51:42Z</time>
      </trkpt>
      <trkpt lat="42.773830" lon="0.696348">
        <ele>987.240</ele>
        <time>2021-06-18T07:51:43Z</time>
      </trkpt>
      <trkpt lat="42.773763" lon="0.696276">
        <ele>988.557</ele>
        <time>2021-06-18T07:51:48Z</time>
      </trkpt>
      <trkpt lat="42.773730" lon="0.696230">
        <ele>988.698</ele>
        <time>2021-06-18T07:51:51Z</time>
      </trkpt>
      <trkpt lat="42.773681" lon="0.696163">
        <ele>988.515</ele>
        <time>2021-06-18T07:51:55Z</time>
      </trkpt>
      <trkpt lat="42.773588" lon="0.696092">
        <ele>990.726</ele>
        <time>2021-06-18T07:52:01Z</time>
      </trkpt>
      <trkpt lat="42.773569" lon="0.696074">
        <ele>991.108</ele>
        <time>2021-06-18T07:52:02Z</time>
      </trkpt>
      <trkpt lat="42.773479" lon="0.695975">
        <ele>991.886</ele>
        <time>2021-06-18T07:52:07Z</time>
      </trkpt>
      <trkpt lat="42.773410" lon="0.695941">
        <ele>993.635</ele>
        <time>2021-06-18T07:52:11Z</time>
      </trkpt>
      <trkpt lat="42.773381" lon="0.695940">
        <ele>995.181</ele>
        <time>2021-06-18T07:52:13Z</time>
      </trkpt>
      <trkpt lat="42.773328" lon="0.695904">
        <ele>995.685</ele>
        <time>2021-06-18T07:52:17Z</time>
      </trkpt>
      <trkpt lat="42.773319" lon="0.695893">
        <ele>995.399</ele>
        <time>2021-06-18T07:52:18Z</time>
      </trkpt>
      <trkpt lat="42.773254" lon="0.695802">
        <ele>993.039</ele>
        <time>2021-06-18T07:52:24Z</time>
      </trkpt>
      <trkpt lat="42.773124" lon="0.695755">
        <ele>996.472</ele>
        <time>2021-06-18T07:52:29Z</time>
      </trkpt>
      <trkpt lat="42.773101" lon="0.695747">
        <ele>997.099</ele>
        <time>2021-06-18T07:52:30Z</time>
      </trkpt>
      <trkpt lat="42.773015" lon="0.695640">
        <ele>995.914</ele>
        <time>2021-06-18T07:52:35Z</time>
      </trkpt>
      <trkpt lat="42.772997" lon="0.695616">
        <ele>995.754</ele>
        <time>2021-06-18T07:52:36Z</time>
      </trkpt>
      <trkpt lat="42.772913" lon="0.695502">
        <ele>996.409</ele>
        <time>2021-06-18T07:52:41Z</time>
      </trkpt>
      <trkpt lat="42.772886" lon="0.695429">
        <ele>996.108</ele>
        <time>2021-06-18T07:52:44Z</time>
      </trkpt>
      <trkpt lat="42.772870" lon="0.695407">
        <ele>996.538</ele>
        <time>2021-06-18T07:52:45Z</time>
      </trkpt>
      <trkpt lat="42.772855" lon="0.695389">
        <ele>996.987</ele>
        <time>2021-06-18T07:52:46Z</time>
      </trkpt>
      <trkpt lat="42.772826" lon="0.695349">
        <ele>997.713</ele>
        <time>2021-06-18T07:52:48Z</time>
      </trkpt>
      <trkpt lat="42.772816" lon="0.695330">
        <ele>997.837</ele>
        <time>2021-06-18T07:52:49Z</time>
      </trkpt>
      <trkpt lat="42.772793" lon="0.695284">
        <ele>998.261</ele>
        <time>2021-06-18T07:52:51Z</time>
      </trkpt>
      <trkpt lat="42.772734" lon="0.695207">
        <ele>1000.951</ele>
        <time>2021-06-18T07:52:55Z</time>
      </trkpt>
      <trkpt lat="42.772661" lon="0.695081">
        <ele>1003.754</ele>
        <time>2021-06-18T07:53:01Z</time>
      </trkpt>
      <trkpt lat="42.772587" lon="0.694957">
        <ele>1006.121</ele>
        <time>2021-06-18T07:53:07Z</time>
      </trkpt>
      <trkpt lat="42.772555" lon="0.694893">
        <ele>1006.525</ele>
        <time>2021-06-18T07:53:10Z</time>
      </trkpt>
      <trkpt lat="42.772521" lon="0.694831">
        <ele>1007.026</ele>
        <time>2021-06-18T07:53:13Z</time>
      </trkpt>
      <trkpt lat="42.772477" lon="0.694760">
        <ele>1007.608</ele>
        <time>2021-06-18T07:53:17Z</time>
      </trkpt>
      <trkpt lat="42.772457" lon="0.694726">
        <ele>1007.808</ele>
        <time>2021-06-18T07:53:19Z</time>
      </trkpt>
      <trkpt lat="42.772415" lon="0.694645">
        <ele>1008.429</ele>
        <time>2021-06-18T07:53:24Z</time>
      </trkpt>
      <trkpt lat="42.772404" lon="0.694633">
        <ele>1008.748</ele>
        <time>2021-06-18T07:53:25Z</time>
      </trkpt>
      <trkpt lat="42.772287" lon="0.694555">
        <ele>1012.744</ele>
        <time>2021-06-18T07:53:32Z</time>
      </trkpt>
      <trkpt lat="42.772179" lon="0.694505">
        <ele>1015.328</ele>
        <time>2021-06-18T07:53:38Z</time>
      </trkpt>
      <trkpt lat="42.772087" lon="0.694474">
        <ele>1016.572</ele>
        <time>2021-06-18T07:53:44Z</time>
      </trkpt>
      <trkpt lat="42.771987" lon="0.694459">
        <ele>1018.552</ele>
        <time>2021-06-18T07:53:50Z</time>
      </trkpt>
      <trkpt lat="42.771969" lon="0.694459">
        <ele>1019.025</ele>
        <time>2021-06-18T07:53:51Z</time>
      </trkpt>
      <trkpt lat="42.771869" lon="0.694454">
        <ele>1020.522</ele>
        <time>2021-06-18T07:53:56Z</time>
      </trkpt>
      <trkpt lat="42.771849" lon="0.694452">
        <ele>1020.716</ele>
        <time>2021-06-18T07:53:57Z</time>
      </trkpt>
      <trkpt lat="42.771758" lon="0.694429">
        <ele>1021.476</ele>
        <time>2021-06-18T07:54:02Z</time>
      </trkpt>
      <trkpt lat="42.771706" lon="0.694414">
        <ele>1021.913</ele>
        <time>2021-06-18T07:54:05Z</time>
      </trkpt>
      <trkpt lat="42.771652" lon="0.694393">
        <ele>1022.608</ele>
        <time>2021-06-18T07:54:08Z</time>
      </trkpt>
      <trkpt lat="42.771637" lon="0.694379">
        <ele>1022.758</ele>
        <time>2021-06-18T07:54:09Z</time>
      </trkpt>
      <trkpt lat="42.771593" lon="0.694331">
        <ele>1022.977</ele>
        <time>2021-06-18T07:54:12Z</time>
      </trkpt>
      <trkpt lat="42.771526" lon="0.694259">
        <ele>1022.963</ele>
        <time>2021-06-18T07:54:16Z</time>
      </trkpt>
      <trkpt lat="42.771492" lon="0.694213">
        <ele>1022.537</ele>
        <time>2021-06-18T07:54:19Z</time>
      </trkpt>
      <trkpt lat="42.771448" lon="0.694163">
        <ele>1022.151</ele>
        <time>2021-06-18T07:54:22Z</time>
      </trkpt>
      <trkpt lat="42.771417" lon="0.694129">
        <ele>1021.651</ele>
        <time>2021-06-18T07:54:24Z</time>
      </trkpt>
      <trkpt lat="42.771348" lon="0.694095">
        <ele>1022.344</ele>
        <time>2021-06-18T07:54:28Z</time>
      </trkpt>
      <trkpt lat="42.771319" lon="0.694106">
        <ele>1023.461</ele>
        <time>2021-06-18T07:54:30Z</time>
      </trkpt>
      <trkpt lat="42.771306" lon="0.694113">
        <ele>1024.065</ele>
        <time>2021-06-18T07:54:31Z</time>
      </trkpt>
      <trkpt lat="42.771293" lon="0.694139">
        <ele>1025.068</ele>
        <time>2021-06-18T07:54:33Z</time>
      </trkpt>
      <trkpt lat="42.771287" lon="0.694185">
        <ele>1026.514</ele>
        <time>2021-06-18T07:54:35Z</time>
      </trkpt>
      <trkpt lat="42.771283" lon="0.694233">
        <ele>1028.108</ele>
        <time>2021-06-18T07:54:37Z</time>
      </trkpt>
      <trkpt lat="42.771279" lon="0.694281">
        <ele>1029.723</ele>
        <time>2021-06-18T07:54:39Z</time>
      </trkpt>
      <trkpt lat="42.771292" lon="0.694318">
        <ele>1030.412</ele>
        <time>2021-06-18T07:54:41Z</time>
      </trkpt>
      <trkpt lat="42.771317" lon="0.694369">
        <ele>1030.998</ele>
        <time>2021-06-18T07:54:44Z</time>
      </trkpt>
      <trkpt lat="42.771323" lon="0.694406">
        <ele>1031.732</ele>
        <time>2021-06-18T07:54:46Z</time>
      </trkpt>
      <trkpt lat="42.771336" lon="0.694445">
        <ele>1032.396</ele>
        <time>2021-06-18T07:54:48Z</time>
      </trkpt>
      <trkpt lat="42.771341" lon="0.694464">
        <ele>1032.826</ele>
        <time>2021-06-18T07:54:49Z</time>
      </trkpt>
      <trkpt lat="42.771372" lon="0.694521">
        <ele>1033.899</ele>
        <time>2021-06-18T07:54:52Z</time>
      </trkpt>
      <trkpt lat="42.771374" lon="0.694540">
        <ele>1034.426</ele>
        <time>2021-06-18T07:54:53Z</time>
      </trkpt>
      <trkpt lat="42.771390" lon="0.694603">
        <ele>1036.274</ele>
        <time>2021-06-18T07:54:56Z</time>
      </trkpt>
      <trkpt lat="42.771419" lon="0.694667">
        <ele>1038.056</ele>
        <time>2021-06-18T07:54:59Z</time>
      </trkpt>
      <trkpt lat="42.771443" lon="0.694706">
        <ele>1038.821</ele>
        <time>2021-06-18T07:55:01Z</time>
      </trkpt>
      <trkpt lat="42.771470" lon="0.694743">
        <ele>1039.708</ele>
        <time>2021-06-18T07:55:03Z</time>
      </trkpt>
      <trkpt lat="42.771489" lon="0.694759">
        <ele>1039.964</ele>
        <time>2021-06-18T07:55:04Z</time>
      </trkpt>
      <trkpt lat="42.771551" lon="0.694797">
        <ele>1039.773</ele>
        <time>2021-06-18T07:55:07Z</time>
      </trkpt>
      <trkpt lat="42.771599" lon="0.694840">
        <ele>1040.049</ele>
        <time>2021-06-18T07:55:10Z</time>
      </trkpt>
      <trkpt lat="42.771664" lon="0.694871">
        <ele>1039.073</ele>
        <time>2021-06-18T07:55:13Z</time>
      </trkpt>
      <trkpt lat="42.771707" lon="0.694889">
        <ele>1038.987</ele>
        <time>2021-06-18T07:55:15Z</time>
      </trkpt>
      <trkpt lat="42.771770" lon="0.694916">
        <ele>1038.877</ele>
        <time>2021-06-18T07:55:19Z</time>
      </trkpt>
      <trkpt lat="42.771798" lon="0.694930">
        <ele>1038.790</ele>
        <time>2021-06-18T07:55:21Z</time>
      </trkpt>
      <trkpt lat="42.771821" lon="0.694942">
        <ele>1038.727</ele>
        <time>2021-06-18T07:55:24Z</time>
      </trkpt>
      <trkpt lat="42.771851" lon="0.694966">
        <ele>1038.966</ele>
        <time>2021-06-18T07:55:27Z</time>
      </trkpt>
      <trkpt lat="42.771879" lon="0.694983">
        <ele>1038.929</ele>
        <time>2021-06-18T07:55:30Z</time>
      </trkpt>
      <trkpt lat="42.771898" lon="0.694988">
        <ele>1038.621</ele>
        <time>2021-06-18T07:55:31Z</time>
      </trkpt>
      <trkpt lat="42.771996" lon="0.695046">
        <ele>1038.008</ele>
        <time>2021-06-18T07:55:36Z</time>
      </trkpt>
      <trkpt lat="42.772009" lon="0.695061">
        <ele>1038.043</ele>
        <time>2021-06-18T07:55:37Z</time>
      </trkpt>
      <trkpt lat="42.772075" lon="0.695117">
        <ele>1037.732</ele>
        <time>2021-06-18T07:55:41Z</time>
      </trkpt>
      <trkpt lat="42.772087" lon="0.695137">
        <ele>1037.998</ele>
        <time>2021-06-18T07:55:42Z</time>
      </trkpt>
      <trkpt lat="42.772132" lon="0.695261">
        <ele>1039.372</ele>
        <time>2021-06-18T07:55:47Z</time>
      </trkpt>
      <trkpt lat="42.772150" lon="0.695312">
        <ele>1039.856</ele>
        <time>2021-06-18T07:55:49Z</time>
      </trkpt>
      <trkpt lat="42.772215" lon="0.695435">
        <ele>1040.196</ele>
        <time>2021-06-18T07:55:55Z</time>
      </trkpt>
      <trkpt lat="42.772237" lon="0.695466">
        <ele>1039.669</ele>
        <time>2021-06-18T07:55:57Z</time>
      </trkpt>
      <trkpt lat="42.772268" lon="0.695542">
        <ele>1039.336</ele>
        <time>2021-06-18T07:56:01Z</time>
      </trkpt>
      <trkpt lat="42.772278" lon="0.695563">
        <ele>1039.152</ele>
        <time>2021-06-18T07:56:02Z</time>
      </trkpt>
      <trkpt lat="42.772289" lon="0.695584">
        <ele>1039.053</ele>
        <time>2021-06-18T07:56:03Z</time>
      </trkpt>
      <trkpt lat="42.772324" lon="0.695673">
        <ele>1039.008</ele>
        <time>2021-06-18T07:56:07Z</time>
      </trkpt>
      <trkpt lat="42.772359" lon="0.695788">
        <ele>1039.608</ele>
        <time>2021-06-18T07:56:12Z</time>
      </trkpt>
      <trkpt lat="42.772366" lon="0.695811">
        <ele>1039.832</ele>
        <time>2021-06-18T07:56:13Z</time>
      </trkpt>
      <trkpt lat="42.772398" lon="0.695930">
        <ele>1040.511</ele>
        <time>2021-06-18T07:56:18Z</time>
      </trkpt>
      <trkpt lat="42.772401" lon="0.695956">
        <ele>1040.857</ele>
        <time>2021-06-18T07:56:19Z</time>
      </trkpt>
      <trkpt lat="42.772432" lon="0.696045">
        <ele>1041.131</ele>
        <time>2021-06-18T07:56:23Z</time>
      </trkpt>
      <trkpt lat="42.772434" lon="0.696065">
        <ele>1041.415</ele>
        <time>2021-06-18T07:56:24Z</time>
      </trkpt>
      <trkpt lat="42.772394" lon="0.696126">
        <ele>1045.045</ele>
        <time>2021-06-18T07:56:28Z</time>
      </trkpt>
      <trkpt lat="42.772377" lon="0.696124">
        <ele>1045.718</ele>
        <time>2021-06-18T07:56:29Z</time>
      </trkpt>
      <trkpt lat="42.772318" lon="0.696084">
        <ele>1047.765</ele>
        <time>2021-06-18T07:56:33Z</time>
      </trkpt>
      <trkpt lat="42.772296" lon="0.696049">
        <ele>1048.147</ele>
        <time>2021-06-18T07:56:35Z</time>
      </trkpt>
      <trkpt lat="42.772277" lon="0.695999">
        <ele>1048.129</ele>
        <time>2021-06-18T07:56:38Z</time>
      </trkpt>
      <trkpt lat="42.772260" lon="0.695967">
        <ele>1048.421</ele>
        <time>2021-06-18T07:56:40Z</time>
      </trkpt>
      <trkpt lat="42.772254" lon="0.695889">
        <ele>1047.308</ele>
        <time>2021-06-18T07:56:44Z</time>
      </trkpt>
      <trkpt lat="42.772213" lon="0.695820">
        <ele>1048.291</ele>
        <time>2021-06-18T07:56:47Z</time>
      </trkpt>
      <trkpt lat="42.772170" lon="0.695754">
        <ele>1048.790</ele>
        <time>2021-06-18T07:56:50Z</time>
      </trkpt>
      <trkpt lat="42.772112" lon="0.695631">
        <ele>1048.066</ele>
        <time>2021-06-18T07:56:56Z</time>
      </trkpt>
      <trkpt lat="42.772066" lon="0.695524">
        <ele>1046.980</ele>
        <time>2021-06-18T07:57:02Z</time>
      </trkpt>
      <trkpt lat="42.772044" lon="0.695491">
        <ele>1047.044</ele>
        <time>2021-06-18T07:57:04Z</time>
      </trkpt>
      <trkpt lat="42.772032" lon="0.695477">
        <ele>1047.014</ele>
        <time>2021-06-18T07:57:05Z</time>
      </trkpt>
      <trkpt lat="42.771988" lon="0.695444">
        <ele>1047.757</ele>
        <time>2021-06-18T07:57:08Z</time>
      </trkpt>
      <trkpt lat="42.771965" lon="0.695424">
        <ele>1048.024</ele>
        <time>2021-06-18T07:57:10Z</time>
      </trkpt>
      <trkpt lat="42.771956" lon="0.695410">
        <ele>1048.057</ele>
        <time>2021-06-18T07:57:11Z</time>
      </trkpt>
      <trkpt lat="42.771903" lon="0.695376">
        <ele>1049.000</ele>
        <time>2021-06-18T07:57:14Z</time>
      </trkpt>
      <trkpt lat="42.771890" lon="0.695359">
        <ele>1049.020</ele>
        <time>2021-06-18T07:57:15Z</time>
      </trkpt>
      <trkpt lat="42.771860" lon="0.695324">
        <ele>1049.108</ele>
        <time>2021-06-18T07:57:17Z</time>
      </trkpt>
      <trkpt lat="42.771827" lon="0.695289">
        <ele>1049.152</ele>
        <time>2021-06-18T07:57:19Z</time>
      </trkpt>
      <trkpt lat="42.771721" lon="0.695228">
        <ele>1050.681</ele>
        <time>2021-06-18T07:57:24Z</time>
      </trkpt>
      <trkpt lat="42.771693" lon="0.695220">
        <ele>1051.177</ele>
        <time>2021-06-18T07:57:25Z</time>
      </trkpt>
      <trkpt lat="42.771596" lon="0.695189">
        <ele>1053.751</ele>
        <time>2021-06-18T07:57:29Z</time>
      </trkpt>
      <trkpt lat="42.771553" lon="0.695178">
        <ele>1055.135</ele>
        <time>2021-06-18T07:57:31Z</time>
      </trkpt>
      <trkpt lat="42.771492" lon="0.695156">
        <ele>1056.825</ele>
        <time>2021-06-18T07:57:34Z</time>
      </trkpt>
      <trkpt lat="42.771423" lon="0.695123">
        <ele>1058.648</ele>
        <time>2021-06-18T07:57:38Z</time>
      </trkpt>
      <trkpt lat="42.771400" lon="0.695119">
        <ele>1059.415</ele>
        <time>2021-06-18T07:57:39Z</time>
      </trkpt>
      <trkpt lat="42.771329" lon="0.695101">
        <ele>1061.089</ele>
        <time>2021-06-18T07:57:43Z</time>
      </trkpt>
      <trkpt lat="42.771300" lon="0.695078">
        <ele>1061.006</ele>
        <time>2021-06-18T07:57:45Z</time>
      </trkpt>
      <trkpt lat="42.771223" lon="0.695021">
        <ele>1061.026</ele>
        <time>2021-06-18T07:57:50Z</time>
      </trkpt>
      <trkpt lat="42.771206" lon="0.695013">
        <ele>1061.108</ele>
        <time>2021-06-18T07:57:51Z</time>
      </trkpt>
      <trkpt lat="42.771163" lon="0.694979">
        <ele>1060.975</ele>
        <time>2021-06-18T07:57:55Z</time>
      </trkpt>
      <trkpt lat="42.771140" lon="0.694958">
        <ele>1060.774</ele>
        <time>2021-06-18T07:57:57Z</time>
      </trkpt>
      <trkpt lat="42.771129" lon="0.694943">
        <ele>1060.470</ele>
        <time>2021-06-18T07:57:58Z</time>
      </trkpt>
      <trkpt lat="42.771102" lon="0.694884">
        <ele>1059.314</ele>
        <time>2021-06-18T07:58:01Z</time>
      </trkpt>
      <trkpt lat="42.771090" lon="0.694863">
        <ele>1059.138</ele>
        <time>2021-06-18T07:58:02Z</time>
      </trkpt>
      <trkpt lat="42.771006" lon="0.694748">
        <ele>1059.578</ele>
        <time>2021-06-18T07:58:08Z</time>
      </trkpt>
      <trkpt lat="42.770991" lon="0.694733">
        <ele>1059.871</ele>
        <time>2021-06-18T07:58:09Z</time>
      </trkpt>
      <trkpt lat="42.770912" lon="0.694631">
        <ele>1061.198</ele>
        <time>2021-06-18T07:58:15Z</time>
      </trkpt>
      <trkpt lat="42.770902" lon="0.694616">
        <ele>1061.241</ele>
        <time>2021-06-18T07:58:16Z</time>
      </trkpt>
      <trkpt lat="42.770828" lon="0.694506">
        <ele>1062.881</ele>
        <time>2021-06-18T07:58:22Z</time>
      </trkpt>
      <trkpt lat="42.770743" lon="0.694415">
        <ele>1063.809</ele>
        <time>2021-06-18T07:58:27Z</time>
      </trkpt>
      <trkpt lat="42.770698" lon="0.694377">
        <ele>1064.308</ele>
        <time>2021-06-18T07:58:30Z</time>
      </trkpt>
      <trkpt lat="42.770687" lon="0.694370">
        <ele>1064.561</ele>
        <time>2021-06-18T07:58:31Z</time>
      </trkpt>
      <trkpt lat="42.770631" lon="0.694348">
        <ele>1066.040</ele>
        <time>2021-06-18T07:58:35Z</time>
      </trkpt>
      <trkpt lat="42.770592" lon="0.694355">
        <ele>1067.936</ele>
        <time>2021-06-18T07:58:38Z</time>
      </trkpt>
      <trkpt lat="42.770591" lon="0.694379">
        <ele>1068.950</ele>
        <time>2021-06-18T07:58:40Z</time>
      </trkpt>
      <trkpt lat="42.770592" lon="0.694398">
        <ele>1069.664</ele>
        <time>2021-06-18T07:58:41Z</time>
      </trkpt>
      <trkpt lat="42.770606" lon="0.694437">
        <ele>1070.534</ele>
        <time>2021-06-18T07:58:43Z</time>
      </trkpt>
      <trkpt lat="42.770638" lon="0.694506">
        <ele>1071.837</ele>
        <time>2021-06-18T07:58:47Z</time>
      </trkpt>
      <trkpt lat="42.770655" lon="0.694529">
        <ele>1071.824</ele>
        <time>2021-06-18T07:58:49Z</time>
      </trkpt>
      <trkpt lat="42.770664" lon="0.694566">
        <ele>1072.727</ele>
        <time>2021-06-18T07:58:52Z</time>
      </trkpt>
      <trkpt lat="42.770667" lon="0.694584">
        <ele>1073.268</ele>
        <time>2021-06-18T07:58:53Z</time>
      </trkpt>
      <trkpt lat="42.770681" lon="0.694623">
        <ele>1073.814</ele>
        <time>2021-06-18T07:58:55Z</time>
      </trkpt>
      <trkpt lat="42.770687" lon="0.694678">
        <ele>1075.408</ele>
        <time>2021-06-18T07:58:58Z</time>
      </trkpt>
      <trkpt lat="42.770695" lon="0.694696">
        <ele>1075.669</ele>
        <time>2021-06-18T07:58:59Z</time>
      </trkpt>
      <trkpt lat="42.770710" lon="0.694751">
        <ele>1076.688</ele>
        <time>2021-06-18T07:59:02Z</time>
      </trkpt>
      <trkpt lat="42.770719" lon="0.694772">
        <ele>1076.894</ele>
        <time>2021-06-18T07:59:03Z</time>
      </trkpt>
      <trkpt lat="42.770728" lon="0.694798">
        <ele>1077.168</ele>
        <time>2021-06-18T07:59:04Z</time>
      </trkpt>
      <trkpt lat="42.770773" lon="0.694912">
        <ele>1077.912</ele>
        <time>2021-06-18T07:59:09Z</time>
      </trkpt>
      <trkpt lat="42.770781" lon="0.694931">
        <ele>1077.942</ele>
        <time>2021-06-18T07:59:10Z</time>
      </trkpt>
      <trkpt lat="42.770781" lon="0.694952">
        <ele>1078.675</ele>
        <time>2021-06-18T07:59:11Z</time>
      </trkpt>
      <trkpt lat="42.770775" lon="0.695056">
        <ele>1082.442</ele>
        <time>2021-06-18T07:59:15Z</time>
      </trkpt>
      <trkpt lat="42.770785" lon="0.695081">
        <ele>1082.445</ele>
        <time>2021-06-18T07:59:16Z</time>
      </trkpt>
      <trkpt lat="42.770799" lon="0.695150">
        <ele>1083.747</ele>
        <time>2021-06-18T07:59:19Z</time>
      </trkpt>
      <trkpt lat="42.770814" lon="0.695209">
        <ele>1084.711</ele>
        <time>2021-06-18T07:59:22Z</time>
      </trkpt>
      <trkpt lat="42.770819" lon="0.695229">
        <ele>1085.108</ele>
        <time>2021-06-18T07:59:23Z</time>
      </trkpt>
      <trkpt lat="42.770826" lon="0.695250">
        <ele>1085.461</ele>
        <time>2021-06-18T07:59:24Z</time>
      </trkpt>
      <trkpt lat="42.770869" lon="0.695337">
        <ele>1087.110</ele>
        <time>2021-06-18T07:59:29Z</time>
      </trkpt>
      <trkpt lat="42.770877" lon="0.695353">
        <ele>1087.566</ele>
        <time>2021-06-18T07:59:30Z</time>
      </trkpt>
      <trkpt lat="42.770935" lon="0.695447">
        <ele>1089.190</ele>
        <time>2021-06-18T07:59:35Z</time>
      </trkpt>
      <trkpt lat="42.770962" lon="0.695492">
        <ele>1089.864</ele>
        <time>2021-06-18T07:59:37Z</time>
      </trkpt>
      <trkpt lat="42.771040" lon="0.695538">
        <ele>1088.484</ele>
        <time>2021-06-18T07:59:41Z</time>
      </trkpt>
      <trkpt lat="42.771061" lon="0.695555">
        <ele>1088.137</ele>
        <time>2021-06-18T07:59:42Z</time>
      </trkpt>
      <trkpt lat="42.771098" lon="0.695591">
        <ele>1088.224</ele>
        <time>2021-06-18T07:59:44Z</time>
      </trkpt>
      <trkpt lat="42.771131" lon="0.695650">
        <ele>1089.749</ele>
        <time>2021-06-18T07:59:47Z</time>
      </trkpt>
      <trkpt lat="42.771135" lon="0.695673">
        <ele>1090.602</ele>
        <time>2021-06-18T07:59:48Z</time>
      </trkpt>
      <trkpt lat="42.771193" lon="0.695793">
        <ele>1093.522</ele>
        <time>2021-06-18T07:59:54Z</time>
      </trkpt>
      <trkpt lat="42.771256" lon="0.695894">
        <ele>1095.208</ele>
        <time>2021-06-18T08:00:00Z</time>
      </trkpt>
      <trkpt lat="42.771272" lon="0.695914">
        <ele>1095.451</ele>
        <time>2021-06-18T08:00:01Z</time>
      </trkpt>
      <trkpt lat="42.771311" lon="0.695985">
        <ele>1096.350</ele>
        <time>2021-06-18T08:00:05Z</time>
      </trkpt>
      <trkpt lat="42.771350" lon="0.696020">
        <ele>1095.396</ele>
        <time>2021-06-18T08:00:07Z</time>
      </trkpt>
      <trkpt lat="42.771363" lon="0.696063">
        <ele>1096.140</ele>
        <time>2021-06-18T08:00:09Z</time>
      </trkpt>
      <trkpt lat="42.771365" lon="0.696082">
        <ele>1096.734</ele>
        <time>2021-06-18T08:00:10Z</time>
      </trkpt>
      <trkpt lat="42.771386" lon="0.696122">
        <ele>1096.744</ele>
        <time>2021-06-18T08:00:12Z</time>
      </trkpt>
      <trkpt lat="42.771433" lon="0.696177">
        <ele>1096.727</ele>
        <time>2021-06-18T08:00:16Z</time>
      </trkpt>
      <trkpt lat="42.771501" lon="0.696259">
        <ele>1096.644</ele>
        <time>2021-06-18T08:00:21Z</time>
      </trkpt>
      <trkpt lat="42.771519" lon="0.696271">
        <ele>1096.199</ele>
        <time>2021-06-18T08:00:22Z</time>
      </trkpt>
      <trkpt lat="42.771590" lon="0.696345">
        <ele>1094.907</ele>
        <time>2021-06-18T08:00:27Z</time>
      </trkpt>
      <trkpt lat="42.771609" lon="0.696359">
        <ele>1094.327</ele>
        <time>2021-06-18T08:00:28Z</time>
      </trkpt>
      <trkpt lat="42.771637" lon="0.696392">
        <ele>1093.708</ele>
        <time>2021-06-18T08:00:30Z</time>
      </trkpt>
      <trkpt lat="42.771646" lon="0.696418">
        <ele>1094.096</ele>
        <time>2021-06-18T08:00:31Z</time>
      </trkpt>
      <trkpt lat="42.771669" lon="0.696461">
        <ele>1094.035</ele>
        <time>2021-06-18T08:00:33Z</time>
      </trkpt>
      <trkpt lat="42.771690" lon="0.696507">
        <ele>1094.371</ele>
        <time>2021-06-18T08:00:35Z</time>
      </trkpt>
      <trkpt lat="42.771712" lon="0.696570">
        <ele>1095.295</ele>
        <time>2021-06-18T08:00:38Z</time>
      </trkpt>
      <trkpt lat="42.771730" lon="0.696600">
        <ele>1095.349</ele>
        <time>2021-06-18T08:00:40Z</time>
      </trkpt>
      <trkpt lat="42.771741" lon="0.696638">
        <ele>1095.999</ele>
        <time>2021-06-18T08:00:42Z</time>
      </trkpt>
      <trkpt lat="42.771753" lon="0.696652">
        <ele>1095.812</ele>
        <time>2021-06-18T08:00:43Z</time>
      </trkpt>
      <trkpt lat="42.771812" lon="0.696768">
        <ele>1096.359</ele>
        <time>2021-06-18T08:00:48Z</time>
      </trkpt>
      <trkpt lat="42.771821" lon="0.696788">
        <ele>1096.369</ele>
        <time>2021-06-18T08:00:49Z</time>
      </trkpt>
      <trkpt lat="42.771829" lon="0.696807">
        <ele>1096.404</ele>
        <time>2021-06-18T08:00:50Z</time>
      </trkpt>
      <trkpt lat="42.771826" lon="0.696858">
        <ele>1097.824</ele>
        <time>2021-06-18T08:00:53Z</time>
      </trkpt>
      <trkpt lat="42.771822" lon="0.696872">
        <ele>1098.408</ele>
        <time>2021-06-18T08:00:54Z</time>
      </trkpt>
      <trkpt lat="42.771814" lon="0.696879">
        <ele>1098.993</ele>
        <time>2021-06-18T08:00:55Z</time>
      </trkpt>
      <trkpt lat="42.771807" lon="0.696883">
        <ele>1099.412</ele>
        <time>2021-06-18T08:00:56Z</time>
      </trkpt>
      <trkpt lat="42.771808" lon="0.696869">
        <ele>1099.058</ele>
        <time>2021-06-18T08:00:58Z</time>
      </trkpt>
      <trkpt lat="42.771804" lon="0.696856">
        <ele>1098.822</ele>
        <time>2021-06-18T08:00:59Z</time>
      </trkpt>
      <trkpt lat="42.771802" lon="0.696799">
        <ele>1097.596</ele>
        <time>2021-06-18T08:01:03Z</time>
      </trkpt>
      <trkpt lat="42.771797" lon="0.696756">
        <ele>1096.616</ele>
        <time>2021-06-18T08:01:06Z</time>
      </trkpt>
      <trkpt lat="42.771777" lon="0.696702">
        <ele>1096.259</ele>
        <time>2021-06-18T08:01:09Z</time>
      </trkpt>
      <trkpt lat="42.771756" lon="0.696675">
        <ele>1096.456</ele>
        <time>2021-06-18T08:01:11Z</time>
      </trkpt>
      <trkpt lat="42.771752" lon="0.696658">
        <ele>1096.119</ele>
        <time>2021-06-18T08:01:12Z</time>
      </trkpt>
      <trkpt lat="42.771745" lon="0.696640">
        <ele>1095.809</ele>
        <time>2021-06-18T08:01:13Z</time>
      </trkpt>
      <trkpt lat="42.771718" lon="0.696593">
        <ele>1095.619</ele>
        <time>2021-06-18T08:01:16Z</time>
      </trkpt>
      <trkpt lat="42.771688" lon="0.696522">
        <ele>1094.908</ele>
        <time>2021-06-18T08:01:20Z</time>
      </trkpt>
      <trkpt lat="42.771676" lon="0.696484">
        <ele>1094.318</ele>
        <time>2021-06-18T08:01:22Z</time>
      </trkpt>
      <trkpt lat="42.771624" lon="0.696421">
        <ele>1095.337</ele>
        <time>2021-06-18T08:01:27Z</time>
      </trkpt>
      <trkpt lat="42.771564" lon="0.696302">
        <ele>1094.953</ele>
        <time>2021-06-18T08:01:33Z</time>
      </trkpt>
      <trkpt lat="42.771555" lon="0.696284">
        <ele>1094.867</ele>
        <time>2021-06-18T08:01:34Z</time>
      </trkpt>
      <trkpt lat="42.771520" lon="0.696217">
        <ele>1094.391</ele>
        <time>2021-06-18T08:01:38Z</time>
      </trkpt>
      <trkpt lat="42.771491" lon="0.696184">
        <ele>1094.521</ele>
        <time>2021-06-18T08:01:40Z</time>
      </trkpt>
      <trkpt lat="42.771438" lon="0.696122">
        <ele>1094.554</ele>
        <time>2021-06-18T08:01:44Z</time>
      </trkpt>
      <trkpt lat="42.771429" lon="0.696103">
        <ele>1094.191</ele>
        <time>2021-06-18T08:01:45Z</time>
      </trkpt>
      <trkpt lat="42.771418" lon="0.696082">
        <ele>1093.829</ele>
        <time>2021-06-18T08:01:46Z</time>
      </trkpt>
      <trkpt lat="42.771358" lon="0.695987">
        <ele>1093.500</ele>
        <time>2021-06-18T08:01:51Z</time>
      </trkpt>
      <trkpt lat="42.771317" lon="0.695962">
        <ele>1095.020</ele>
        <time>2021-06-18T08:01:53Z</time>
      </trkpt>
      <trkpt lat="42.771274" lon="0.695934">
        <ele>1096.208</ele>
        <time>2021-06-18T08:01:55Z</time>
      </trkpt>
      <trkpt lat="42.771183" lon="0.695923">
        <ele>1100.859</ele>
        <time>2021-06-18T08:01:58Z</time>
      </trkpt>
      <trkpt lat="42.771115" lon="0.695928">
        <ele>1104.948</ele>
        <time>2021-06-18T08:02:01Z</time>
      </trkpt>
      <trkpt lat="42.771091" lon="0.695934">
        <ele>1106.424</ele>
        <time>2021-06-18T08:02:02Z</time>
      </trkpt>
      <trkpt lat="42.771010" lon="0.695948">
        <ele>1110.958</ele>
        <time>2021-06-18T08:02:06Z</time>
      </trkpt>
      <trkpt lat="42.770990" lon="0.695950">
        <ele>1112.092</ele>
        <time>2021-06-18T08:02:07Z</time>
      </trkpt>
      <trkpt lat="42.770934" lon="0.695951">
        <ele>1114.582</ele>
        <time>2021-06-18T08:02:11Z</time>
      </trkpt>
      <trkpt lat="42.770919" lon="0.695948">
        <ele>1115.015</ele>
        <time>2021-06-18T08:02:12Z</time>
      </trkpt>
      <trkpt lat="42.770842" lon="0.695940">
        <ele>1117.922</ele>
        <time>2021-06-18T08:02:16Z</time>
      </trkpt>
      <trkpt lat="42.770789" lon="0.695906">
        <ele>1117.239</ele>
        <time>2021-06-18T08:02:19Z</time>
      </trkpt>
      <trkpt lat="42.770717" lon="0.695860">
        <ele>1116.101</ele>
        <time>2021-06-18T08:02:23Z</time>
      </trkpt>
      <trkpt lat="42.770678" lon="0.695841">
        <ele>1116.021</ele>
        <time>2021-06-18T08:02:25Z</time>
      </trkpt>
      <trkpt lat="42.770628" lon="0.695825">
        <ele>1116.508</ele>
        <time>2021-06-18T08:02:28Z</time>
      </trkpt>
      <trkpt lat="42.770585" lon="0.695806">
        <ele>1117.060</ele>
        <time>2021-06-18T08:02:31Z</time>
      </trkpt>
      <trkpt lat="42.770557" lon="0.695789">
        <ele>1117.029</ele>
        <time>2021-06-18T08:02:33Z</time>
      </trkpt>
      <trkpt lat="42.770545" lon="0.695779">
        <ele>1117.195</ele>
        <time>2021-06-18T08:02:34Z</time>
      </trkpt>
      <trkpt lat="42.770509" lon="0.695716">
        <ele>1115.949</ele>
        <time>2021-06-18T08:02:37Z</time>
      </trkpt>
      <trkpt lat="42.770482" lon="0.695659">
        <ele>1114.523</ele>
        <time>2021-06-18T08:02:39Z</time>
      </trkpt>
      <trkpt lat="42.770421" lon="0.695569">
        <ele>1112.913</ele>
        <time>2021-06-18T08:02:43Z</time>
      </trkpt>
      <trkpt lat="42.770405" lon="0.695546">
        <ele>1112.846</ele>
        <time>2021-06-18T08:02:44Z</time>
      </trkpt>
      <trkpt lat="42.770362" lon="0.695492">
        <ele>1113.873</ele>
        <time>2021-06-18T08:02:47Z</time>
      </trkpt>
      <trkpt lat="42.770350" lon="0.695473">
        <ele>1114.168</ele>
        <time>2021-06-18T08:02:48Z</time>
      </trkpt>
      <trkpt lat="42.770326" lon="0.695438">
        <ele>1114.742</ele>
        <time>2021-06-18T08:02:50Z</time>
      </trkpt>
      <trkpt lat="42.770289" lon="0.695381">
        <ele>1115.626</ele>
        <time>2021-06-18T08:02:53Z</time>
      </trkpt>
      <trkpt lat="42.770229" lon="0.695298">
        <ele>1116.908</ele>
        <time>2021-06-18T08:02:57Z</time>
      </trkpt>
      <trkpt lat="42.770192" lon="0.695263">
        <ele>1117.553</ele>
        <time>2021-06-18T08:02:59Z</time>
      </trkpt>
      <trkpt lat="42.770123" lon="0.695203">
        <ele>1118.782</ele>
        <time>2021-06-18T08:03:03Z</time>
      </trkpt>
      <trkpt lat="42.770067" lon="0.695177">
        <ele>1120.258</ele>
        <time>2021-06-18T08:03:06Z</time>
      </trkpt>
      <trkpt lat="42.769966" lon="0.695147">
        <ele>1123.172</ele>
        <time>2021-06-18T08:03:11Z</time>
      </trkpt>
      <trkpt lat="42.769948" lon="0.695142">
        <ele>1123.626</ele>
        <time>2021-06-18T08:03:12Z</time>
      </trkpt>
      <trkpt lat="42.769857" lon="0.695074">
        <ele>1124.566</ele>
        <time>2021-06-18T08:03:18Z</time>
      </trkpt>
      <trkpt lat="42.769840" lon="0.695069">
        <ele>1124.769</ele>
        <time>2021-06-18T08:03:19Z</time>
      </trkpt>
      <trkpt lat="42.769764" lon="0.695029">
        <ele>1125.246</ele>
        <time>2021-06-18T08:03:25Z</time>
      </trkpt>
      <trkpt lat="42.769678" lon="0.694976">
        <ele>1126.041</ele>
        <time>2021-06-18T08:03:30Z</time>
      </trkpt>
      <trkpt lat="42.769634" lon="0.694940">
        <ele>1126.681</ele>
        <time>2021-06-18T08:03:33Z</time>
      </trkpt>
      <trkpt lat="42.769583" lon="0.694920">
        <ele>1127.709</ele>
        <time>2021-06-18T08:03:36Z</time>
      </trkpt>
      <trkpt lat="42.769514" lon="0.694893">
        <ele>1129.008</ele>
        <time>2021-06-18T08:03:40Z</time>
      </trkpt>
      <trkpt lat="42.769495" lon="0.694880">
        <ele>1129.261</ele>
        <time>2021-06-18T08:03:41Z</time>
      </trkpt>
      <trkpt lat="42.769432" lon="0.694862">
        <ele>1130.570</ele>
        <time>2021-06-18T08:03:44Z</time>
      </trkpt>
      <trkpt lat="42.769391" lon="0.694853">
        <ele>1131.786</ele>
        <time>2021-06-18T08:03:46Z</time>
      </trkpt>
      <trkpt lat="42.769275" lon="0.694837">
        <ele>1135.240</ele>
        <time>2021-06-18T08:03:52Z</time>
      </trkpt>
      <trkpt lat="42.769179" lon="0.694842">
        <ele>1138.974</ele>
        <time>2021-06-18T08:03:57Z</time>
      </trkpt>
      <trkpt lat="42.769159" lon="0.694838">
        <ele>1139.324</ele>
        <time>2021-06-18T08:03:58Z</time>
      </trkpt>
      <trkpt lat="42.769143" lon="0.694840">
        <ele>1139.727</ele>
        <time>2021-06-18T08:03:59Z</time>
      </trkpt>
      <trkpt lat="42.769114" lon="0.694826">
        <ele>1139.524</ele>
        <time>2021-06-18T08:04:01Z</time>
      </trkpt>
      <trkpt lat="42.769064" lon="0.694768">
        <ele>1137.038</ele>
        <time>2021-06-18T08:04:04Z</time>
      </trkpt>
      <trkpt lat="42.769040" lon="0.694733">
        <ele>1135.470</ele>
        <time>2021-06-18T08:04:06Z</time>
      </trkpt>
      <trkpt lat="42.769006" lon="0.694681">
        <ele>1133.317</ele>
        <time>2021-06-18T08:04:09Z</time>
      </trkpt>
      <trkpt lat="42.768976" lon="0.694648">
        <ele>1132.308</ele>
        <time>2021-06-18T08:04:11Z</time>
      </trkpt>
      <trkpt lat="42.768917" lon="0.694597">
        <ele>1131.770</ele>
        <time>2021-06-18T08:04:15Z</time>
      </trkpt>
      <trkpt lat="42.768905" lon="0.694585">
        <ele>1131.539</ele>
        <time>2021-06-18T08:04:16Z</time>
      </trkpt>
      <trkpt lat="42.768840" lon="0.694555">
        <ele>1132.415</ele>
        <time>2021-06-18T08:04:20Z</time>
      </trkpt>
      <trkpt lat="42.768825" lon="0.694551">
        <ele>1132.789</ele>
        <time>2021-06-18T08:04:21Z</time>
      </trkpt>
      <trkpt lat="42.768714" lon="0.694531">
        <ele>1135.743</ele>
        <time>2021-06-18T08:04:27Z</time>
      </trkpt>
      <trkpt lat="42.768699" lon="0.694538">
        <ele>1136.463</ele>
        <time>2021-06-18T08:04:28Z</time>
      </trkpt>
      <trkpt lat="42.768588" lon="0.694576">
        <ele>1140.296</ele>
        <time>2021-06-18T08:04:34Z</time>
      </trkpt>
      <trkpt lat="42.768557" lon="0.694590">
        <ele>1140.533</ele>
        <time>2021-06-18T08:04:36Z</time>
      </trkpt>
      <trkpt lat="42.768467" lon="0.694612">
        <ele>1140.942</ele>
        <time>2021-06-18T08:04:41Z</time>
      </trkpt>
      <trkpt lat="42.768439" lon="0.694635">
        <ele>1141.622</ele>
        <time>2021-06-18T08:04:43Z</time>
      </trkpt>
      <trkpt lat="42.768383" lon="0.694681">
        <ele>1143.314</ele>
        <time>2021-06-18T08:04:47Z</time>
      </trkpt>
      <trkpt lat="42.768304" lon="0.694754">
        <ele>1143.308</ele>
        <time>2021-06-18T08:04:53Z</time>
      </trkpt>
      <trkpt lat="42.768218" lon="0.694814">
        <ele>1138.381</ele>
        <time>2021-06-18T08:04:59Z</time>
      </trkpt>
      <trkpt lat="42.768207" lon="0.694829">
        <ele>1137.950</ele>
        <time>2021-06-18T08:05:00Z</time>
      </trkpt>
      <trkpt lat="42.768189" lon="0.694909">
        <ele>1138.546</ele>
        <time>2021-06-18T08:05:04Z</time>
      </trkpt>
      <trkpt lat="42.768187" lon="0.694958">
        <ele>1139.620</ele>
        <time>2021-06-18T08:05:06Z</time>
      </trkpt>
      <trkpt lat="42.768237" lon="0.695166">
        <ele>1142.934</ele>
        <time>2021-06-18T08:05:14Z</time>
      </trkpt>
      <trkpt lat="42.768354" lon="0.695263">
        <ele>1149.084</ele>
        <time>2021-06-18T08:05:21Z</time>
      </trkpt>
      <trkpt lat="42.768438" lon="0.695226">
        <ele>1152.517</ele>
        <time>2021-06-18T08:05:26Z</time>
      </trkpt>
      <trkpt lat="42.768469" lon="0.695206">
        <ele>1153.594</ele>
        <time>2021-06-18T08:05:28Z</time>
      </trkpt>
      <trkpt lat="42.768537" lon="0.695132">
        <ele>1153.826</ele>
        <time>2021-06-18T08:05:33Z</time>
      </trkpt>
      <trkpt lat="42.768582" lon="0.695095">
        <ele>1153.547</ele>
        <time>2021-06-18T08:05:36Z</time>
      </trkpt>
      <trkpt lat="42.768654" lon="0.695057">
        <ele>1153.311</ele>
        <time>2021-06-18T08:05:40Z</time>
      </trkpt>
      <trkpt lat="42.768716" lon="0.695023">
        <ele>1152.908</ele>
        <time>2021-06-18T08:05:44Z</time>
      </trkpt>
      <trkpt lat="42.768733" lon="0.695018">
        <ele>1153.059</ele>
        <time>2021-06-18T08:05:45Z</time>
      </trkpt>
      <trkpt lat="42.768828" lon="0.694998">
        <ele>1153.858</ele>
        <time>2021-06-18T08:05:51Z</time>
      </trkpt>
      <trkpt lat="42.768872" lon="0.694999">
        <ele>1154.654</ele>
        <time>2021-06-18T08:05:54Z</time>
      </trkpt>
      <trkpt lat="42.768903" lon="0.695004">
        <ele>1154.948</ele>
        <time>2021-06-18T08:05:56Z</time>
      </trkpt>
      <trkpt lat="42.768965" lon="0.695018">
        <ele>1154.132</ele>
        <time>2021-06-18T08:06:00Z</time>
      </trkpt>
      <trkpt lat="42.768980" lon="0.695023">
        <ele>1154.092</ele>
        <time>2021-06-18T08:06:01Z</time>
      </trkpt>
      <trkpt lat="42.769056" lon="0.695088">
        <ele>1154.955</ele>
        <time>2021-06-18T08:06:07Z</time>
      </trkpt>
      <trkpt lat="42.769079" lon="0.695113">
        <ele>1155.332</ele>
        <time>2021-06-18T08:06:09Z</time>
      </trkpt>
      <trkpt lat="42.769120" lon="0.695152">
        <ele>1155.884</ele>
        <time>2021-06-18T08:06:12Z</time>
      </trkpt>
      <trkpt lat="42.769200" lon="0.695269">
        <ele>1157.507</ele>
        <time>2021-06-18T08:06:19Z</time>
      </trkpt>
      <trkpt lat="42.769240" lon="0.695370">
        <ele>1158.717</ele>
        <time>2021-06-18T08:06:24Z</time>
      </trkpt>
      <trkpt lat="42.769258" lon="0.695411">
        <ele>1159.108</ele>
        <time>2021-06-18T08:06:26Z</time>
      </trkpt>
      <trkpt lat="42.769285" lon="0.695557">
        <ele>1161.845</ele>
        <time>2021-06-18T08:06:33Z</time>
      </trkpt>
      <trkpt lat="42.769306" lon="0.695616">
        <ele>1163.344</ele>
        <time>2021-06-18T08:06:36Z</time>
      </trkpt>
      <trkpt lat="42.769333" lon="0.695662">
        <ele>1164.150</ele>
        <time>2021-06-18T08:06:39Z</time>
      </trkpt>
      <trkpt lat="42.769363" lon="0.695684">
        <ele>1163.914</ele>
        <time>2021-06-18T08:06:41Z</time>
      </trkpt>
      <trkpt lat="42.769393" lon="0.695702">
        <ele>1163.658</ele>
        <time>2021-06-18T08:06:43Z</time>
      </trkpt>
      <trkpt lat="42.769457" lon="0.695770">
        <ele>1164.078</ele>
        <time>2021-06-18T08:06:49Z</time>
      </trkpt>
      <trkpt lat="42.769479" lon="0.695790">
        <ele>1164.121</ele>
        <time>2021-06-18T08:06:51Z</time>
      </trkpt>
      <trkpt lat="42.769515" lon="0.695827">
        <ele>1164.478</ele>
        <time>2021-06-18T08:06:54Z</time>
      </trkpt>
      <trkpt lat="42.769577" lon="0.695911">
        <ele>1166.247</ele>
        <time>2021-06-18T08:07:00Z</time>
      </trkpt>
      <trkpt lat="42.769592" lon="0.695921">
        <ele>1166.229</ele>
        <time>2021-06-18T08:07:01Z</time>
      </trkpt>
      <trkpt lat="42.769680" lon="0.696009">
        <ele>1167.521</ele>
        <time>2021-06-18T08:07:08Z</time>
      </trkpt>
      <trkpt lat="42.769693" lon="0.696018">
        <ele>1167.508</ele>
        <time>2021-06-18T08:07:09Z</time>
      </trkpt>
      <trkpt lat="42.769767" lon="0.696096">
        <ele>1169.061</ele>
        <time>2021-06-18T08:07:15Z</time>
      </trkpt>
      <trkpt lat="42.769779" lon="0.696109">
        <ele>1169.390</ele>
        <time>2021-06-18T08:07:16Z</time>
      </trkpt>
      <trkpt lat="42.769820" lon="0.696165">
        <ele>1170.826</ele>
        <time>2021-06-18T08:07:21Z</time>
      </trkpt>
      <trkpt lat="42.769829" lon="0.696180">
        <ele>1171.340</ele>
        <time>2021-06-18T08:07:22Z</time>
      </trkpt>
      <trkpt lat="42.769865" lon="0.696260">
        <ele>1174.144</ele>
        <time>2021-06-18T08:07:27Z</time>
      </trkpt>
      <trkpt lat="42.769881" lon="0.696270">
        <ele>1174.174</ele>
        <time>2021-06-18T08:07:28Z</time>
      </trkpt>
      <trkpt lat="42.769939" lon="0.696320">
        <ele>1174.737</ele>
        <time>2021-06-18T08:07:32Z</time>
      </trkpt>
      <trkpt lat="42.769979" lon="0.696356">
        <ele>1175.184</ele>
        <time>2021-06-18T08:07:35Z</time>
      </trkpt>
      <trkpt lat="42.769992" lon="0.696367">
        <ele>1175.289</ele>
        <time>2021-06-18T08:07:36Z</time>
      </trkpt>
      <trkpt lat="42.770027" lon="0.696428">
        <ele>1176.906</ele>
        <time>2021-06-18T08:07:40Z</time>
      </trkpt>
      <trkpt lat="42.770036" lon="0.696442">
        <ele>1177.226</ele>
        <time>2021-06-18T08:07:41Z</time>
      </trkpt>
      <trkpt lat="42.770106" lon="0.696482">
        <ele>1176.808</ele>
        <time>2021-06-18T08:07:46Z</time>
      </trkpt>
      <trkpt lat="42.770114" lon="0.696494">
        <ele>1177.165</ele>
        <time>2021-06-18T08:07:47Z</time>
      </trkpt>
      <trkpt lat="42.770169" lon="0.696550">
        <ele>1178.244</ele>
        <time>2021-06-18T08:07:51Z</time>
      </trkpt>
      <trkpt lat="42.770255" lon="0.696628">
        <ele>1179.680</ele>
        <time>2021-06-18T08:07:57Z</time>
      </trkpt>
      <trkpt lat="42.770341" lon="0.696677">
        <ele>1178.894</ele>
        <time>2021-06-18T08:08:02Z</time>
      </trkpt>
      <trkpt lat="42.770364" lon="0.696693">
        <ele>1178.468</ele>
        <time>2021-06-18T08:08:04Z</time>
      </trkpt>
      <trkpt lat="42.770450" lon="0.696777">
        <ele>1177.878</ele>
        <time>2021-06-18T08:08:12Z</time>
      </trkpt>
      <trkpt lat="42.770500" lon="0.696826">
        <ele>1177.711</ele>
        <time>2021-06-18T08:08:16Z</time>
      </trkpt>
      <trkpt lat="42.770525" lon="0.696851">
        <ele>1177.728</ele>
        <time>2021-06-18T08:08:18Z</time>
      </trkpt>
      <trkpt lat="42.770587" lon="0.696917">
        <ele>1178.365</ele>
        <time>2021-06-18T08:08:23Z</time>
      </trkpt>
      <trkpt lat="42.770600" lon="0.696928">
        <ele>1178.468</ele>
        <time>2021-06-18T08:08:24Z</time>
      </trkpt>
      <trkpt lat="42.770653" lon="0.696963">
        <ele>1178.214</ele>
        <time>2021-06-18T08:08:27Z</time>
      </trkpt>
      <trkpt lat="42.770704" lon="0.697004">
        <ele>1177.908</ele>
        <time>2021-06-18T08:08:30Z</time>
      </trkpt>
      <trkpt lat="42.770752" lon="0.697045">
        <ele>1177.633</ele>
        <time>2021-06-18T08:08:33Z</time>
      </trkpt>
      <trkpt lat="42.770774" lon="0.697128">
        <ele>1178.672</ele>
        <time>2021-06-18T08:08:37Z</time>
      </trkpt>
      <trkpt lat="42.770775" lon="0.697173">
        <ele>1179.498</ele>
        <time>2021-06-18T08:08:39Z</time>
      </trkpt>
      <trkpt lat="42.770770" lon="0.697280">
        <ele>1180.412</ele>
        <time>2021-06-18T08:08:44Z</time>
      </trkpt>
      <trkpt lat="42.770765" lon="0.697298">
        <ele>1180.656</ele>
        <time>2021-06-18T08:08:45Z</time>
      </trkpt>
      <trkpt lat="42.770722" lon="0.697409">
        <ele>1182.356</ele>
        <time>2021-06-18T08:08:51Z</time>
      </trkpt>
      <trkpt lat="42.770721" lon="0.697428">
        <ele>1182.529</ele>
        <time>2021-06-18T08:08:52Z</time>
      </trkpt>
      <trkpt lat="42.770722" lon="0.697450">
        <ele>1182.686</ele>
        <time>2021-06-18T08:08:53Z</time>
      </trkpt>
      <trkpt lat="42.770722" lon="0.697536">
        <ele>1183.174</ele>
        <time>2021-06-18T08:08:57Z</time>
      </trkpt>
      <trkpt lat="42.770716" lon="0.697594">
        <ele>1183.756</ele>
        <time>2021-06-18T08:09:00Z</time>
      </trkpt>
      <trkpt lat="42.770731" lon="0.697673">
        <ele>1183.721</ele>
        <time>2021-06-18T08:09:04Z</time>
      </trkpt>
      <trkpt lat="42.770735" lon="0.697712">
        <ele>1183.808</ele>
        <time>2021-06-18T08:09:06Z</time>
      </trkpt>
      <trkpt lat="42.770736" lon="0.697794">
        <ele>1184.544</ele>
        <time>2021-06-18T08:09:10Z</time>
      </trkpt>
      <trkpt lat="42.770741" lon="0.697840">
        <ele>1185.073</ele>
        <time>2021-06-18T08:09:12Z</time>
      </trkpt>
      <trkpt lat="42.770757" lon="0.697946">
        <ele>1186.299</ele>
        <time>2021-06-18T08:09:17Z</time>
      </trkpt>
      <trkpt lat="42.770763" lon="0.697966">
        <ele>1186.323</ele>
        <time>2021-06-18T08:09:18Z</time>
      </trkpt>
      <trkpt lat="42.770798" lon="0.698059">
        <ele>1186.547</ele>
        <time>2021-06-18T08:09:23Z</time>
      </trkpt>
      <trkpt lat="42.770811" lon="0.698096">
        <ele>1186.997</ele>
        <time>2021-06-18T08:09:25Z</time>
      </trkpt>
      <trkpt lat="42.770841" lon="0.698198">
        <ele>1188.150</ele>
        <time>2021-06-18T08:09:31Z</time>
      </trkpt>
      <trkpt lat="42.770840" lon="0.698217">
        <ele>1188.797</ele>
        <time>2021-06-18T08:09:32Z</time>
      </trkpt>
      <trkpt lat="42.770848" lon="0.698249">
        <ele>1189.051</ele>
        <time>2021-06-18T08:09:34Z</time>
      </trkpt>
      <trkpt lat="42.770873" lon="0.698294">
        <ele>1188.701</ele>
        <time>2021-06-18T08:09:37Z</time>
      </trkpt>
      <trkpt lat="42.770880" lon="0.698310">
        <ele>1188.711</ele>
        <time>2021-06-18T08:09:38Z</time>
      </trkpt>
      <trkpt lat="42.770881" lon="0.698327">
        <ele>1189.108</ele>
        <time>2021-06-18T08:09:39Z</time>
      </trkpt>
      <trkpt lat="42.770892" lon="0.698399">
        <ele>1190.182</ele>
        <time>2021-06-18T08:09:43Z</time>
      </trkpt>
      <trkpt lat="42.770901" lon="0.698414">
        <ele>1190.031</ele>
        <time>2021-06-18T08:09:44Z</time>
      </trkpt>
      <trkpt lat="42.770908" lon="0.698429">
        <ele>1190.077</ele>
        <time>2021-06-18T08:09:45Z</time>
      </trkpt>
      <trkpt lat="42.770956" lon="0.698505">
        <ele>1189.261</ele>
        <time>2021-06-18T08:09:50Z</time>
      </trkpt>
      <trkpt lat="42.770969" lon="0.698520">
        <ele>1188.925</ele>
        <time>2021-06-18T08:09:51Z</time>
      </trkpt>
      <trkpt lat="42.771015" lon="0.698586">
        <ele>1188.295</ele>
        <time>2021-06-18T08:09:55Z</time>
      </trkpt>
      <trkpt lat="42.771029" lon="0.698604">
        <ele>1187.978</ele>
        <time>2021-06-18T08:09:56Z</time>
      </trkpt>
      <trkpt lat="42.771052" lon="0.698720">
        <ele>1188.355</ele>
        <time>2021-06-18T08:10:01Z</time>
      </trkpt>
      <trkpt lat="42.771029" lon="0.698802">
        <ele>1190.329</ele>
        <time>2021-06-18T08:10:05Z</time>
      </trkpt>
      <trkpt lat="42.771007" lon="0.698854">
        <ele>1191.800</ele>
        <time>2021-06-18T08:10:08Z</time>
      </trkpt>
      <trkpt lat="42.770955" lon="0.698984">
        <ele>1195.120</ele>
        <time>2021-06-18T08:10:15Z</time>
      </trkpt>
      <trkpt lat="42.770946" lon="0.698999">
        <ele>1195.608</ele>
        <time>2021-06-18T08:10:16Z</time>
      </trkpt>
      <trkpt lat="42.770939" lon="0.699039">
        <ele>1196.299</ele>
        <time>2021-06-18T08:10:18Z</time>
      </trkpt>
      <trkpt lat="42.770939" lon="0.699085">
        <ele>1196.758</ele>
        <time>2021-06-18T08:10:20Z</time>
      </trkpt>
      <trkpt lat="42.770950" lon="0.699157">
        <ele>1196.964</ele>
        <time>2021-06-18T08:10:23Z</time>
      </trkpt>
      <trkpt lat="42.770958" lon="0.699176">
        <ele>1196.918</ele>
        <time>2021-06-18T08:10:24Z</time>
      </trkpt>
      <trkpt lat="42.770964" lon="0.699198">
        <ele>1197.232</ele>
        <time>2021-06-18T08:10:25Z</time>
      </trkpt>
      <trkpt lat="42.770971" lon="0.699220">
        <ele>1197.492</ele>
        <time>2021-06-18T08:10:26Z</time>
      </trkpt>
      <trkpt lat="42.771019" lon="0.699335">
        <ele>1198.015</ele>
        <time>2021-06-18T08:10:32Z</time>
      </trkpt>
      <trkpt lat="42.771028" lon="0.699379">
        <ele>1198.642</ele>
        <time>2021-06-18T08:10:34Z</time>
      </trkpt>
      <trkpt lat="42.771033" lon="0.699422">
        <ele>1199.486</ele>
        <time>2021-06-18T08:10:36Z</time>
      </trkpt>
      <trkpt lat="42.771038" lon="0.699441">
        <ele>1199.660</ele>
        <time>2021-06-18T08:10:37Z</time>
      </trkpt>
      <trkpt lat="42.771041" lon="0.699473">
        <ele>1200.126</ele>
        <time>2021-06-18T08:10:39Z</time>
      </trkpt>
      <trkpt lat="42.771045" lon="0.699491">
        <ele>1200.208</ele>
        <time>2021-06-18T08:10:40Z</time>
      </trkpt>
      <trkpt lat="42.771052" lon="0.699559">
        <ele>1201.135</ele>
        <time>2021-06-18T08:10:43Z</time>
      </trkpt>
      <trkpt lat="42.771067" lon="0.699614">
        <ele>1201.434</ele>
        <time>2021-06-18T08:10:46Z</time>
      </trkpt>
      <trkpt lat="42.771091" lon="0.699687">
        <ele>1201.410</ele>
        <time>2021-06-18T08:10:50Z</time>
      </trkpt>
      <trkpt lat="42.771106" lon="0.699749">
        <ele>1202.194</ele>
        <time>2021-06-18T08:10:53Z</time>
      </trkpt>
      <trkpt lat="42.771117" lon="0.699789">
        <ele>1202.868</ele>
        <time>2021-06-18T08:10:55Z</time>
      </trkpt>
      <trkpt lat="42.771147" lon="0.699893">
        <ele>1204.998</ele>
        <time>2021-06-18T08:11:00Z</time>
      </trkpt>
      <trkpt lat="42.771160" lon="0.699934">
        <ele>1205.781</ele>
        <time>2021-06-18T08:11:02Z</time>
      </trkpt>
      <trkpt lat="42.771197" lon="0.700015">
        <ele>1207.288</ele>
        <time>2021-06-18T08:11:07Z</time>
      </trkpt>
      <trkpt lat="42.771215" lon="0.700041">
        <ele>1207.574</ele>
        <time>2021-06-18T08:11:09Z</time>
      </trkpt>
      <trkpt lat="42.771266" lon="0.700120">
        <ele>1208.756</ele>
        <time>2021-06-18T08:11:14Z</time>
      </trkpt>
      <trkpt lat="42.771295" lon="0.700140">
        <ele>1208.421</ele>
        <time>2021-06-18T08:11:16Z</time>
      </trkpt>
      <trkpt lat="42.771352" lon="0.700168">
        <ele>1207.608</ele>
        <time>2021-06-18T08:11:19Z</time>
      </trkpt>
      <trkpt lat="42.771383" lon="0.700209">
        <ele>1208.274</ele>
        <time>2021-06-18T08:11:22Z</time>
      </trkpt>
      <trkpt lat="42.771421" lon="0.700229">
        <ele>1207.943</ele>
        <time>2021-06-18T08:11:24Z</time>
      </trkpt>
      <trkpt lat="42.771440" lon="0.700237">
        <ele>1207.799</ele>
        <time>2021-06-18T08:11:25Z</time>
      </trkpt>
      <trkpt lat="42.771458" lon="0.700246">
        <ele>1207.653</ele>
        <time>2021-06-18T08:11:26Z</time>
      </trkpt>
      <trkpt lat="42.771523" lon="0.700279">
        <ele>1207.267</ele>
        <time>2021-06-18T08:11:30Z</time>
      </trkpt>
      <trkpt lat="42.771533" lon="0.700292">
        <ele>1207.217</ele>
        <time>2021-06-18T08:11:31Z</time>
      </trkpt>
      <trkpt lat="42.771541" lon="0.700307">
        <ele>1207.390</ele>
        <time>2021-06-18T08:11:32Z</time>
      </trkpt>
      <trkpt lat="42.771562" lon="0.700386">
        <ele>1208.517</ele>
        <time>2021-06-18T08:11:36Z</time>
      </trkpt>
      <trkpt lat="42.771565" lon="0.700445">
        <ele>1209.849</ele>
        <time>2021-06-18T08:11:39Z</time>
      </trkpt>
      <trkpt lat="42.771573" lon="0.700513">
        <ele>1211.102</ele>
        <time>2021-06-18T08:11:42Z</time>
      </trkpt>
      <trkpt lat="42.771585" lon="0.700575">
        <ele>1212.122</ele>
        <time>2021-06-18T08:11:45Z</time>
      </trkpt>
      <trkpt lat="42.771590" lon="0.700596">
        <ele>1212.608</ele>
        <time>2021-06-18T08:11:46Z</time>
      </trkpt>
      <trkpt lat="42.771604" lon="0.700671">
        <ele>1214.441</ele>
        <time>2021-06-18T08:11:50Z</time>
      </trkpt>
      <trkpt lat="42.771616" lon="0.700735">
        <ele>1215.980</ele>
        <time>2021-06-18T08:11:54Z</time>
      </trkpt>
      <trkpt lat="42.771631" lon="0.700760">
        <ele>1216.116</ele>
        <time>2021-06-18T08:11:56Z</time>
      </trkpt>
      <trkpt lat="42.771655" lon="0.700785">
        <ele>1215.980</ele>
        <time>2021-06-18T08:11:58Z</time>
      </trkpt>
      <trkpt lat="42.771667" lon="0.700794">
        <ele>1215.784</ele>
        <time>2021-06-18T08:11:59Z</time>
      </trkpt>
      <trkpt lat="42.771714" lon="0.700851">
        <ele>1215.794</ele>
        <time>2021-06-18T08:12:03Z</time>
      </trkpt>
      <trkpt lat="42.771725" lon="0.700869">
        <ele>1215.897</ele>
        <time>2021-06-18T08:12:04Z</time>
      </trkpt>
      <trkpt lat="42.771764" lon="0.700916">
        <ele>1215.654</ele>
        <time>2021-06-18T08:12:07Z</time>
      </trkpt>
      <trkpt lat="42.771793" lon="0.700965">
        <ele>1215.892</ele>
        <time>2021-06-18T08:12:10Z</time>
      </trkpt>
      <trkpt lat="42.771802" lon="0.700985">
        <ele>1216.073</ele>
        <time>2021-06-18T08:12:11Z</time>
      </trkpt>
      <trkpt lat="42.771862" lon="0.701097">
        <ele>1216.520</ele>
        <time>2021-06-18T08:12:17Z</time>
      </trkpt>
      <trkpt lat="42.771921" lon="0.701211">
        <ele>1216.608</ele>
        <time>2021-06-18T08:12:23Z</time>
      </trkpt>
      <trkpt lat="42.771928" lon="0.701250">
        <ele>1217.236</ele>
        <time>2021-06-18T08:12:25Z</time>
      </trkpt>
      <trkpt lat="42.771938" lon="0.701290">
        <ele>1217.855</ele>
        <time>2021-06-18T08:12:27Z</time>
      </trkpt>
      <trkpt lat="42.771956" lon="0.701323">
        <ele>1217.721</ele>
        <time>2021-06-18T08:12:29Z</time>
      </trkpt>
      <trkpt lat="42.771973" lon="0.701350">
        <ele>1217.535</ele>
        <time>2021-06-18T08:12:31Z</time>
      </trkpt>
      <trkpt lat="42.771980" lon="0.701364">
        <ele>1217.469</ele>
        <time>2021-06-18T08:12:32Z</time>
      </trkpt>
      <trkpt lat="42.771984" lon="0.701376">
        <ele>1217.599</ele>
        <time>2021-06-18T08:12:33Z</time>
      </trkpt>
      <trkpt lat="42.771990" lon="0.701431">
        <ele>1218.542</ele>
        <time>2021-06-18T08:12:36Z</time>
      </trkpt>
      <trkpt lat="42.772000" lon="0.701479">
        <ele>1218.949</ele>
        <time>2021-06-18T08:12:39Z</time>
      </trkpt>
      <trkpt lat="42.772011" lon="0.701509">
        <ele>1219.021</ele>
        <time>2021-06-18T08:12:41Z</time>
      </trkpt>
      <trkpt lat="42.772011" lon="0.701525">
        <ele>1219.341</ele>
        <time>2021-06-18T08:12:42Z</time>
      </trkpt>
      <trkpt lat="42.772026" lon="0.701560">
        <ele>1219.305</ele>
        <time>2021-06-18T08:12:45Z</time>
      </trkpt>
      <trkpt lat="42.772029" lon="0.701577">
        <ele>1219.508</ele>
        <time>2021-06-18T08:12:46Z</time>
      </trkpt>
      <trkpt lat="42.772039" lon="0.701609">
        <ele>1219.649</ele>
        <time>2021-06-18T08:12:48Z</time>
      </trkpt>
      <trkpt lat="42.772065" lon="0.701753">
        <ele>1220.248</ele>
        <time>2021-06-18T08:12:55Z</time>
      </trkpt>
      <trkpt lat="42.772063" lon="0.701900">
        <ele>1221.684</ele>
        <time>2021-06-18T08:13:02Z</time>
      </trkpt>
      <trkpt lat="42.772058" lon="0.701922">
        <ele>1222.168</ele>
        <time>2021-06-18T08:13:03Z</time>
      </trkpt>
      <trkpt lat="42.772039" lon="0.702022">
        <ele>1224.362</ele>
        <time>2021-06-18T08:13:08Z</time>
      </trkpt>
      <trkpt lat="42.772037" lon="0.702057">
        <ele>1224.862</ele>
        <time>2021-06-18T08:13:10Z</time>
      </trkpt>
      <trkpt lat="42.772040" lon="0.702140">
        <ele>1225.875</ele>
        <time>2021-06-18T08:13:14Z</time>
      </trkpt>
      <trkpt lat="42.772049" lon="0.702182">
        <ele>1225.912</ele>
        <time>2021-06-18T08:13:16Z</time>
      </trkpt>
      <trkpt lat="42.772066" lon="0.702260">
        <ele>1226.964</ele>
        <time>2021-06-18T08:13:20Z</time>
      </trkpt>
      <trkpt lat="42.772087" lon="0.702326">
        <ele>1228.006</ele>
        <time>2021-06-18T08:13:23Z</time>
      </trkpt>
      <trkpt lat="42.772095" lon="0.702346">
        <ele>1228.316</ele>
        <time>2021-06-18T08:13:24Z</time>
      </trkpt>
      <trkpt lat="42.772123" lon="0.702416">
        <ele>1229.108</ele>
        <time>2021-06-18T08:13:28Z</time>
      </trkpt>
      <trkpt lat="42.772129" lon="0.702434">
        <ele>1229.473</ele>
        <time>2021-06-18T08:13:29Z</time>
      </trkpt>
      <trkpt lat="42.772136" lon="0.702453">
        <ele>1229.652</ele>
        <time>2021-06-18T08:13:30Z</time>
      </trkpt>
      <trkpt lat="42.772153" lon="0.702485">
        <ele>1229.828</ele>
        <time>2021-06-18T08:13:32Z</time>
      </trkpt>
      <trkpt lat="42.772171" lon="0.702538">
        <ele>1230.752</ele>
        <time>2021-06-18T08:13:35Z</time>
      </trkpt>
      <trkpt lat="42.772179" lon="0.702554">
        <ele>1230.826</ele>
        <time>2021-06-18T08:13:36Z</time>
      </trkpt>
      <trkpt lat="42.772189" lon="0.702569">
        <ele>1230.936</ele>
        <time>2021-06-18T08:13:37Z</time>
      </trkpt>
      <trkpt lat="42.772242" lon="0.702644">
        <ele>1231.559</ele>
        <time>2021-06-18T08:13:42Z</time>
      </trkpt>
      <trkpt lat="42.772268" lon="0.702706">
        <ele>1232.936</ele>
        <time>2021-06-18T08:13:46Z</time>
      </trkpt>
      <trkpt lat="42.772288" lon="0.702733">
        <ele>1233.177</ele>
        <time>2021-06-18T08:13:48Z</time>
      </trkpt>
      <trkpt lat="42.772361" lon="0.702808">
        <ele>1232.961</ele>
        <time>2021-06-18T08:13:54Z</time>
      </trkpt>
      <trkpt lat="42.772373" lon="0.702822">
        <ele>1232.827</ele>
        <time>2021-06-18T08:13:55Z</time>
      </trkpt>
      <trkpt lat="42.772414" lon="0.702917">
        <ele>1234.108</ele>
        <time>2021-06-18T08:14:00Z</time>
      </trkpt>
      <trkpt lat="42.772418" lon="0.702938">
        <ele>1234.674</ele>
        <time>2021-06-18T08:14:01Z</time>
      </trkpt>
      <trkpt lat="42.772433" lon="0.702959">
        <ele>1234.613</ele>
        <time>2021-06-18T08:14:02Z</time>
      </trkpt>
      <trkpt lat="42.772492" lon="0.703078">
        <ele>1235.969</ele>
        <time>2021-06-18T08:14:08Z</time>
      </trkpt>
      <trkpt lat="42.772506" lon="0.703097">
        <ele>1235.863</ele>
        <time>2021-06-18T08:14:09Z</time>
      </trkpt>
      <trkpt lat="42.772532" lon="0.703194">
        <ele>1237.217</ele>
        <time>2021-06-18T08:14:14Z</time>
      </trkpt>
      <trkpt lat="42.772535" lon="0.703214">
        <ele>1237.697</ele>
        <time>2021-06-18T08:14:15Z</time>
      </trkpt>
      <trkpt lat="42.772569" lon="0.703323">
        <ele>1239.550</ele>
        <time>2021-06-18T08:14:21Z</time>
      </trkpt>
      <trkpt lat="42.772577" lon="0.703333">
        <ele>1239.557</ele>
        <time>2021-06-18T08:14:22Z</time>
      </trkpt>
      <trkpt lat="42.772585" lon="0.703344">
        <ele>1239.577</ele>
        <time>2021-06-18T08:14:23Z</time>
      </trkpt>
      <trkpt lat="42.772632" lon="0.703393">
        <ele>1239.261</ele>
        <time>2021-06-18T08:14:28Z</time>
      </trkpt>
      <trkpt lat="42.772725" lon="0.703470">
        <ele>1238.527</ele>
        <time>2021-06-18T08:14:35Z</time>
      </trkpt>
      <trkpt lat="42.772751" lon="0.703494">
        <ele>1238.408</ele>
        <time>2021-06-18T08:14:37Z</time>
      </trkpt>
      <trkpt lat="42.772769" lon="0.703518">
        <ele>1238.694</ele>
        <time>2021-06-18T08:14:39Z</time>
      </trkpt>
      <trkpt lat="42.772782" lon="0.703530">
        <ele>1238.443</ele>
        <time>2021-06-18T08:14:40Z</time>
      </trkpt>
      <trkpt lat="42.772798" lon="0.703545">
        <ele>1238.169</ele>
        <time>2021-06-18T08:14:41Z</time>
      </trkpt>
      <trkpt lat="42.772858" lon="0.703640">
        <ele>1237.783</ele>
        <time>2021-06-18T08:14:47Z</time>
      </trkpt>
      <trkpt lat="42.772880" lon="0.703673">
        <ele>1237.277</ele>
        <time>2021-06-18T08:14:49Z</time>
      </trkpt>
      <trkpt lat="42.772876" lon="0.703740">
        <ele>1238.647</ele>
        <time>2021-06-18T08:14:52Z</time>
      </trkpt>
      <trkpt lat="42.772850" lon="0.703811">
        <ele>1241.080</ele>
        <time>2021-06-18T08:14:56Z</time>
      </trkpt>
      <trkpt lat="42.772824" lon="0.703830">
        <ele>1242.637</ele>
        <time>2021-06-18T08:14:58Z</time>
      </trkpt>
      <trkpt lat="42.772760" lon="0.703837">
        <ele>1245.729</ele>
        <time>2021-06-18T08:15:03Z</time>
      </trkpt>
      <trkpt lat="42.772750" lon="0.703829">
        <ele>1245.900</ele>
        <time>2021-06-18T08:15:04Z</time>
      </trkpt>
      <trkpt lat="42.772681" lon="0.703745">
        <ele>1246.520</ele>
        <time>2021-06-18T08:15:11Z</time>
      </trkpt>
      <trkpt lat="42.772672" lon="0.703729">
        <ele>1246.408</ele>
        <time>2021-06-18T08:15:12Z</time>
      </trkpt>
      <trkpt lat="42.772612" lon="0.703650">
        <ele>1246.289</ele>
        <time>2021-06-18T08:15:18Z</time>
      </trkpt>
      <trkpt lat="42.772570" lon="0.703599">
        <ele>1246.078</ele>
        <time>2021-06-18T08:15:22Z</time>
      </trkpt>
      <trkpt lat="42.772554" lon="0.703572">
        <ele>1245.784</ele>
        <time>2021-06-18T08:15:24Z</time>
      </trkpt>
      <trkpt lat="42.772530" lon="0.703552">
        <ele>1245.938</ele>
        <time>2021-06-18T08:15:26Z</time>
      </trkpt>
      <trkpt lat="42.772461" lon="0.703483">
        <ele>1246.522</ele>
        <time>2021-06-18T08:15:32Z</time>
      </trkpt>
      <trkpt lat="42.772409" lon="0.703422">
        <ele>1246.912</ele>
        <time>2021-06-18T08:15:36Z</time>
      </trkpt>
      <trkpt lat="42.772348" lon="0.703368">
        <ele>1247.725</ele>
        <time>2021-06-18T08:15:40Z</time>
      </trkpt>
      <trkpt lat="42.772288" lon="0.703319">
        <ele>1248.552</ele>
        <time>2021-06-18T08:15:44Z</time>
      </trkpt>
      <trkpt lat="42.772274" lon="0.703306">
        <ele>1248.761</ele>
        <time>2021-06-18T08:15:45Z</time>
      </trkpt>
      <trkpt lat="42.772169" lon="0.703253">
        <ele>1250.421</ele>
        <time>2021-06-18T08:15:52Z</time>
      </trkpt>
      <trkpt lat="42.772041" lon="0.703213">
        <ele>1252.313</ele>
        <time>2021-06-18T08:16:00Z</time>
      </trkpt>
      <trkpt lat="42.772013" lon="0.703199">
        <ele>1252.608</ele>
        <time>2021-06-18T08:16:02Z</time>
      </trkpt>
      <trkpt lat="42.771963" lon="0.703181">
        <ele>1253.363</ele>
        <time>2021-06-18T08:16:07Z</time>
      </trkpt>
      <trkpt lat="42.771921" lon="0.703134">
        <ele>1253.372</ele>
        <time>2021-06-18T08:16:12Z</time>
      </trkpt>
      <trkpt lat="42.771900" lon="0.703100">
        <ele>1253.228</ele>
        <time>2021-06-18T08:16:14Z</time>
      </trkpt>
      <trkpt lat="42.771873" lon="0.703041">
        <ele>1252.862</ele>
        <time>2021-06-18T08:16:18Z</time>
      </trkpt>
      <trkpt lat="42.771826" lon="0.702955">
        <ele>1253.246</ele>
        <time>2021-06-18T08:16:23Z</time>
      </trkpt>
      <trkpt lat="42.771819" lon="0.702941">
        <ele>1253.356</ele>
        <time>2021-06-18T08:16:24Z</time>
      </trkpt>
      <trkpt lat="42.771785" lon="0.702863">
        <ele>1253.799</ele>
        <time>2021-06-18T08:16:29Z</time>
      </trkpt>
      <trkpt lat="42.771779" lon="0.702846">
        <ele>1253.896</ele>
        <time>2021-06-18T08:16:30Z</time>
      </trkpt>
      <trkpt lat="42.771737" lon="0.702754">
        <ele>1254.658</ele>
        <time>2021-06-18T08:16:35Z</time>
      </trkpt>
      <trkpt lat="42.771697" lon="0.702711">
        <ele>1255.752</ele>
        <time>2021-06-18T08:16:38Z</time>
      </trkpt>
      <trkpt lat="42.771637" lon="0.702675">
        <ele>1257.317</ele>
        <time>2021-06-18T08:16:42Z</time>
      </trkpt>
      <trkpt lat="42.771619" lon="0.702664">
        <ele>1257.608</ele>
        <time>2021-06-18T08:16:43Z</time>
      </trkpt>
      <trkpt lat="42.771506" lon="0.702598">
        <ele>1259.592</ele>
        <time>2021-06-18T08:16:50Z</time>
      </trkpt>
      <trkpt lat="42.771490" lon="0.702576">
        <ele>1259.571</ele>
        <time>2021-06-18T08:16:51Z</time>
      </trkpt>
      <trkpt lat="42.771423" lon="0.702479">
        <ele>1260.087</ele>
        <time>2021-06-18T08:16:57Z</time>
      </trkpt>
      <trkpt lat="42.771376" lon="0.702363">
        <ele>1260.851</ele>
        <time>2021-06-18T08:17:03Z</time>
      </trkpt>
      <trkpt lat="42.771310" lon="0.702270">
        <ele>1261.735</ele>
        <time>2021-06-18T08:17:09Z</time>
      </trkpt>
      <trkpt lat="42.771282" lon="0.702255">
        <ele>1262.255</ele>
        <time>2021-06-18T08:17:11Z</time>
      </trkpt>
      <trkpt lat="42.771211" lon="0.702235">
        <ele>1263.388</ele>
        <time>2021-06-18T08:17:16Z</time>
      </trkpt>
      <trkpt lat="42.771167" lon="0.702224">
        <ele>1264.055</ele>
        <time>2021-06-18T08:17:19Z</time>
      </trkpt>
      <trkpt lat="42.771137" lon="0.702222">
        <ele>1264.523</ele>
        <time>2021-06-18T08:17:21Z</time>
      </trkpt>
      <trkpt lat="42.771091" lon="0.702212">
        <ele>1265.483</ele>
        <time>2021-06-18T08:17:25Z</time>
      </trkpt>
      <trkpt lat="42.771064" lon="0.702203">
        <ele>1266.011</ele>
        <time>2021-06-18T08:17:28Z</time>
      </trkpt>
      <trkpt lat="42.771050" lon="0.702189">
        <ele>1266.108</ele>
        <time>2021-06-18T08:17:30Z</time>
      </trkpt>
      <trkpt lat="42.771013" lon="0.702145">
        <ele>1266.269</ele>
        <time>2021-06-18T08:17:35Z</time>
      </trkpt>
      <trkpt lat="42.770993" lon="0.702129">
        <ele>1266.528</ele>
        <time>2021-06-18T08:17:37Z</time>
      </trkpt>
      <trkpt lat="42.770974" lon="0.702105">
        <ele>1266.544</ele>
        <time>2021-06-18T08:17:40Z</time>
      </trkpt>
      <trkpt lat="42.770943" lon="0.702087">
        <ele>1267.028</ele>
        <time>2021-06-18T08:17:43Z</time>
      </trkpt>
      <trkpt lat="42.770904" lon="0.702052">
        <ele>1267.412</ele>
        <time>2021-06-18T08:17:46Z</time>
      </trkpt>
      <trkpt lat="42.770818" lon="0.701970">
        <ele>1268.562</ele>
        <time>2021-06-18T08:17:52Z</time>
      </trkpt>
      <trkpt lat="42.770805" lon="0.701958">
        <ele>1268.925</ele>
        <time>2021-06-18T08:17:53Z</time>
      </trkpt>
      <trkpt lat="42.770767" lon="0.701907">
        <ele>1269.442</ele>
        <time>2021-06-18T08:17:57Z</time>
      </trkpt>
      <trkpt lat="42.770759" lon="0.701892">
        <ele>1269.418</ele>
        <time>2021-06-18T08:17:58Z</time>
      </trkpt>
      <trkpt lat="42.770754" lon="0.701878">
        <ele>1269.298</ele>
        <time>2021-06-18T08:17:59Z</time>
      </trkpt>
      <trkpt lat="42.770735" lon="0.701852">
        <ele>1269.317</ele>
        <time>2021-06-18T08:18:01Z</time>
      </trkpt>
      <trkpt lat="42.770703" lon="0.701804">
        <ele>1269.308</ele>
        <time>2021-06-18T08:18:04Z</time>
      </trkpt>
      <trkpt lat="42.770694" lon="0.701792">
        <ele>1269.358</ele>
        <time>2021-06-18T08:18:05Z</time>
      </trkpt>
      <trkpt lat="42.770621" lon="0.701732">
        <ele>1270.687</ele>
        <time>2021-06-18T08:18:10Z</time>
      </trkpt>
      <trkpt lat="42.770578" lon="0.701677">
        <ele>1270.433</ele>
        <time>2021-06-18T08:18:13Z</time>
      </trkpt>
      <trkpt lat="42.770557" lon="0.701599">
        <ele>1270.217</ele>
        <time>2021-06-18T08:18:17Z</time>
      </trkpt>
      <trkpt lat="42.770551" lon="0.701582">
        <ele>1270.411</ele>
        <time>2021-06-18T08:18:18Z</time>
      </trkpt>
      <trkpt lat="42.770546" lon="0.701543">
        <ele>1270.331</ele>
        <time>2021-06-18T08:18:20Z</time>
      </trkpt>
      <trkpt lat="42.770540" lon="0.701453">
        <ele>1269.954</ele>
        <time>2021-06-18T08:18:24Z</time>
      </trkpt>
      <trkpt lat="42.770511" lon="0.701368">
        <ele>1271.831</ele>
        <time>2021-06-18T08:18:28Z</time>
      </trkpt>
      <trkpt lat="42.770495" lon="0.701274">
        <ele>1273.842</ele>
        <time>2021-06-18T08:18:32Z</time>
      </trkpt>
      <trkpt lat="42.770491" lon="0.701253">
        <ele>1274.422</ele>
        <time>2021-06-18T08:18:33Z</time>
      </trkpt>
      <trkpt lat="42.770454" lon="0.701132">
        <ele>1279.514</ele>
        <time>2021-06-18T08:18:39Z</time>
      </trkpt>
      <trkpt lat="42.770454" lon="0.701108">
        <ele>1279.708</ele>
        <time>2021-06-18T08:18:40Z</time>
      </trkpt>
      <trkpt lat="42.770442" lon="0.700970">
        <ele>1278.871</ele>
        <time>2021-06-18T08:18:47Z</time>
      </trkpt>
      <trkpt lat="42.770451" lon="0.700930">
        <ele>1277.230</ele>
        <time>2021-06-18T08:18:49Z</time>
      </trkpt>
      <trkpt lat="42.770439" lon="0.700823">
        <ele>1276.776</ele>
        <time>2021-06-18T08:18:54Z</time>
      </trkpt>
      <trkpt lat="42.770416" lon="0.700759">
        <ele>1277.210</ele>
        <time>2021-06-18T08:18:57Z</time>
      </trkpt>
      <trkpt lat="42.770362" lon="0.700644">
        <ele>1278.994</ele>
        <time>2021-06-18T08:19:03Z</time>
      </trkpt>
      <trkpt lat="42.770341" lon="0.700613">
        <ele>1279.944</ele>
        <time>2021-06-18T08:19:05Z</time>
      </trkpt>
      <trkpt lat="42.770288" lon="0.700569">
        <ele>1283.527</ele>
        <time>2021-06-18T08:19:09Z</time>
      </trkpt>
      <trkpt lat="42.770243" lon="0.700530">
        <ele>1286.264</ele>
        <time>2021-06-18T08:19:13Z</time>
      </trkpt>
      <trkpt lat="42.770220" lon="0.700507">
        <ele>1287.137</ele>
        <time>2021-06-18T08:19:15Z</time>
      </trkpt>
      <trkpt lat="42.770154" lon="0.700418">
        <ele>1287.449</ele>
        <time>2021-06-18T08:19:21Z</time>
      </trkpt>
      <trkpt lat="42.770124" lon="0.700406">
        <ele>1288.913</ele>
        <time>2021-06-18T08:19:23Z</time>
      </trkpt>
      <trkpt lat="42.770041" lon="0.700361">
        <ele>1291.608</ele>
        <time>2021-06-18T08:19:29Z</time>
      </trkpt>
      <trkpt lat="42.769946" lon="0.700278">
        <ele>1292.150</ele>
        <time>2021-06-18T08:19:36Z</time>
      </trkpt>
      <trkpt lat="42.769902" lon="0.700222">
        <ele>1292.279</ele>
        <time>2021-06-18T08:19:39Z</time>
      </trkpt>
      <trkpt lat="42.769802" lon="0.700123">
        <ele>1292.085</ele>
        <time>2021-06-18T08:19:46Z</time>
      </trkpt>
      <trkpt lat="42.769790" lon="0.700114">
        <ele>1292.079</ele>
        <time>2021-06-18T08:19:47Z</time>
      </trkpt>
      <trkpt lat="42.769738" lon="0.700106">
        <ele>1294.723</ele>
        <time>2021-06-18T08:19:51Z</time>
      </trkpt>
      <trkpt lat="42.769726" lon="0.700104">
        <ele>1295.213</ele>
        <time>2021-06-18T08:19:52Z</time>
      </trkpt>
      <trkpt lat="42.769668" lon="0.700067">
        <ele>1293.716</ele>
        <time>2021-06-18T08:19:57Z</time>
      </trkpt>
      <trkpt lat="42.769654" lon="0.700058">
        <ele>1293.483</ele>
        <time>2021-06-18T08:19:58Z</time>
      </trkpt>
      <trkpt lat="42.769599" lon="0.700015">
        <ele>1292.096</ele>
        <time>2021-06-18T08:20:02Z</time>
      </trkpt>
      <trkpt lat="42.769566" lon="0.699992">
        <ele>1291.931</ele>
        <time>2021-06-18T08:20:04Z</time>
      </trkpt>
      <trkpt lat="42.769479" lon="0.699923">
        <ele>1292.624</ele>
        <time>2021-06-18T08:20:10Z</time>
      </trkpt>
      <trkpt lat="42.769467" lon="0.699904">
        <ele>1292.208</ele>
        <time>2021-06-18T08:20:11Z</time>
      </trkpt>
      <trkpt lat="42.769393" lon="0.699852">
        <ele>1293.246</ele>
        <time>2021-06-18T08:20:16Z</time>
      </trkpt>
      <trkpt lat="42.769335" lon="0.699793">
        <ele>1293.415</ele>
        <time>2021-06-18T08:20:20Z</time>
      </trkpt>
      <trkpt lat="42.769311" lon="0.699760">
        <ele>1293.031</ele>
        <time>2021-06-18T08:20:22Z</time>
      </trkpt>
      <trkpt lat="42.769250" lon="0.699687">
        <ele>1292.995</ele>
        <time>2021-06-18T08:20:27Z</time>
      </trkpt>
      <trkpt lat="42.769240" lon="0.699669">
        <ele>1292.719</ele>
        <time>2021-06-18T08:20:28Z</time>
      </trkpt>
      <trkpt lat="42.769187" lon="0.699582">
        <ele>1291.429</ele>
        <time>2021-06-18T08:20:33Z</time>
      </trkpt>
      <trkpt lat="42.769145" lon="0.699504">
        <ele>1289.932</ele>
        <time>2021-06-18T08:20:37Z</time>
      </trkpt>
      <trkpt lat="42.769102" lon="0.699440">
        <ele>1289.489</ele>
        <time>2021-06-18T08:20:41Z</time>
      </trkpt>
      <trkpt lat="42.769054" lon="0.699364">
        <ele>1289.438</ele>
        <time>2021-06-18T08:20:46Z</time>
      </trkpt>
      <trkpt lat="42.769043" lon="0.699348">
        <ele>1289.470</ele>
        <time>2021-06-18T08:20:47Z</time>
      </trkpt>
      <trkpt lat="42.768972" lon="0.699296">
        <ele>1291.117</ele>
        <time>2021-06-18T08:20:52Z</time>
      </trkpt>
      <trkpt lat="42.768944" lon="0.699270">
        <ele>1291.508</ele>
        <time>2021-06-18T08:20:54Z</time>
      </trkpt>
      <trkpt lat="42.768839" lon="0.699205">
        <ele>1292.420</ele>
        <time>2021-06-18T08:21:01Z</time>
      </trkpt>
      <trkpt lat="42.768807" lon="0.699196">
        <ele>1292.659</ele>
        <time>2021-06-18T08:21:03Z</time>
      </trkpt>
      <trkpt lat="42.768733" lon="0.699186">
        <ele>1293.565</ele>
        <time>2021-06-18T08:21:08Z</time>
      </trkpt>
      <trkpt lat="42.768705" lon="0.699181">
        <ele>1293.889</ele>
        <time>2021-06-18T08:21:10Z</time>
      </trkpt>
      <trkpt lat="42.768648" lon="0.699187">
        <ele>1295.073</ele>
        <time>2021-06-18T08:21:14Z</time>
      </trkpt>
      <trkpt lat="42.768574" lon="0.699201">
        <ele>1296.513</ele>
        <time>2021-06-18T08:21:19Z</time>
      </trkpt>
      <trkpt lat="42.768559" lon="0.699203">
        <ele>1296.836</ele>
        <time>2021-06-18T08:21:20Z</time>
      </trkpt>
      <trkpt lat="42.768467" lon="0.699218">
        <ele>1298.333</ele>
        <time>2021-06-18T08:21:26Z</time>
      </trkpt>
      <trkpt lat="42.768453" lon="0.699219">
        <ele>1298.568</ele>
        <time>2021-06-18T08:21:27Z</time>
      </trkpt>
      <trkpt lat="42.768380" lon="0.699216">
        <ele>1299.242</ele>
        <time>2021-06-18T08:21:32Z</time>
      </trkpt>
      <trkpt lat="42.768336" lon="0.699220">
        <ele>1299.926</ele>
        <time>2021-06-18T08:21:35Z</time>
      </trkpt>
      <trkpt lat="42.768260" lon="0.699231">
        <ele>1300.808</ele>
        <time>2021-06-18T08:21:40Z</time>
      </trkpt>
      <trkpt lat="42.768211" lon="0.699231">
        <ele>1301.183</ele>
        <time>2021-06-18T08:21:43Z</time>
      </trkpt>
      <trkpt lat="42.768166" lon="0.699233">
        <ele>1301.422</ele>
        <time>2021-06-18T08:21:46Z</time>
      </trkpt>
      <trkpt lat="42.768070" lon="0.699239">
        <ele>1302.318</ele>
        <time>2021-06-18T08:21:52Z</time>
      </trkpt>
      <trkpt lat="42.768054" lon="0.699241">
        <ele>1302.482</ele>
        <time>2021-06-18T08:21:53Z</time>
      </trkpt>
      <trkpt lat="42.767959" lon="0.699227">
        <ele>1302.786</ele>
        <time>2021-06-18T08:21:59Z</time>
      </trkpt>
      <trkpt lat="42.767927" lon="0.699224">
        <ele>1302.996</ele>
        <time>2021-06-18T08:22:01Z</time>
      </trkpt>
      <trkpt lat="42.767819" lon="0.699220">
        <ele>1303.629</ele>
        <time>2021-06-18T08:22:08Z</time>
      </trkpt>
      <trkpt lat="42.767711" lon="0.699214">
        <ele>1303.926</ele>
        <time>2021-06-18T08:22:15Z</time>
      </trkpt>
      <trkpt lat="42.767667" lon="0.699233">
        <ele>1304.221</ele>
        <time>2021-06-18T08:22:18Z</time>
      </trkpt>
      <trkpt lat="42.767639" lon="0.699253">
        <ele>1304.641</ele>
        <time>2021-06-18T08:22:20Z</time>
      </trkpt>
      <trkpt lat="42.767540" lon="0.699307">
        <ele>1305.505</ele>
        <time>2021-06-18T08:22:27Z</time>
      </trkpt>
      <trkpt lat="42.767529" lon="0.699320">
        <ele>1305.808</ele>
        <time>2021-06-18T08:22:28Z</time>
      </trkpt>
      <trkpt lat="42.767450" lon="0.699426">
        <ele>1306.969</ele>
        <time>2021-06-18T08:22:35Z</time>
      </trkpt>
      <trkpt lat="42.767398" lon="0.699474">
        <ele>1307.288</ele>
        <time>2021-06-18T08:22:39Z</time>
      </trkpt>
      <trkpt lat="42.767349" lon="0.699534">
        <ele>1307.994</ele>
        <time>2021-06-18T08:22:43Z</time>
      </trkpt>
      <trkpt lat="42.767295" lon="0.699594">
        <ele>1308.758</ele>
        <time>2021-06-18T08:22:47Z</time>
      </trkpt>
      <trkpt lat="42.767152" lon="0.699693">
        <ele>1308.652</ele>
        <time>2021-06-18T08:22:55Z</time>
      </trkpt>
      <trkpt lat="42.767049" lon="0.699741">
        <ele>1307.942</ele>
        <time>2021-06-18T08:23:01Z</time>
      </trkpt>
      <trkpt lat="42.766969" lon="0.699807">
        <ele>1308.145</ele>
        <time>2021-06-18T08:23:06Z</time>
      </trkpt>
      <trkpt lat="42.766822" lon="0.699976">
        <ele>1307.612</ele>
        <time>2021-06-18T08:23:13Z</time>
      </trkpt>
      <trkpt lat="42.766637" lon="0.700209">
        <ele>1307.646</ele>
        <time>2021-06-18T08:23:19Z</time>
      </trkpt>
      <trkpt lat="42.766419" lon="0.700478">
        <ele>1308.588</ele>
        <time>2021-06-18T08:23:26Z</time>
      </trkpt>
      <trkpt lat="42.766253" lon="0.700684">
        <ele>1307.416</ele>
        <time>2021-06-18T08:23:33Z</time>
      </trkpt>
      <trkpt lat="42.766207" lon="0.700852">
        <ele>1309.308</ele>
        <time>2021-06-18T08:23:38Z</time>
      </trkpt>
      <trkpt lat="42.766170" lon="0.701066">
        <ele>1312.251</ele>
        <time>2021-06-18T08:23:44Z</time>
      </trkpt>
      <trkpt lat="42.766062" lon="0.701278">
        <ele>1316.320</ele>
        <time>2021-06-18T08:23:50Z</time>
      </trkpt>
      <trkpt lat="42.766035" lon="0.701307">
        <ele>1316.446</ele>
        <time>2021-06-18T08:23:51Z</time>
      </trkpt>
      <trkpt lat="42.765880" lon="0.701418">
        <ele>1314.770</ele>
        <time>2021-06-18T08:23:56Z</time>
      </trkpt>
      <trkpt lat="42.765802" lon="0.701491">
        <ele>1317.554</ele>
        <time>2021-06-18T08:23:59Z</time>
      </trkpt>
      <trkpt lat="42.765651" lon="0.701589">
        <ele>1318.664</ele>
        <time>2021-06-18T08:24:05Z</time>
      </trkpt>
      <trkpt lat="42.765596" lon="0.701637">
        <ele>1319.287</ele>
        <time>2021-06-18T08:24:08Z</time>
      </trkpt>
      <trkpt lat="42.765535" lon="0.701683">
        <ele>1320.464</ele>
        <time>2021-06-18T08:24:11Z</time>
      </trkpt>
      <trkpt lat="42.765490" lon="0.701702">
        <ele>1320.969</ele>
        <time>2021-06-18T08:24:13Z</time>
      </trkpt>
      <trkpt lat="42.765398" lon="0.701730">
        <ele>1319.804</ele>
        <time>2021-06-18T08:24:17Z</time>
      </trkpt>
      <trkpt lat="42.765377" lon="0.701740">
        <ele>1319.824</ele>
        <time>2021-06-18T08:24:18Z</time>
      </trkpt>
      <trkpt lat="42.765292" lon="0.701785">
        <ele>1319.208</ele>
        <time>2021-06-18T08:24:22Z</time>
      </trkpt>
      <trkpt lat="42.765211" lon="0.701840">
        <ele>1319.883</ele>
        <time>2021-06-18T08:24:26Z</time>
      </trkpt>
      <trkpt lat="42.765189" lon="0.701845">
        <ele>1319.242</ele>
        <time>2021-06-18T08:24:27Z</time>
      </trkpt>
      <trkpt lat="42.765071" lon="0.701937">
        <ele>1320.198</ele>
        <time>2021-06-18T08:24:33Z</time>
      </trkpt>
      <trkpt lat="42.765002" lon="0.701977">
        <ele>1319.662</ele>
        <time>2021-06-18T08:24:36Z</time>
      </trkpt>
      <trkpt lat="42.764932" lon="0.701983">
        <ele>1323.056</ele>
        <time>2021-06-18T08:24:39Z</time>
      </trkpt>
      <trkpt lat="42.764847" lon="0.701885">
        <ele>1321.556</ele>
        <time>2021-06-18T08:24:44Z</time>
      </trkpt>
      <trkpt lat="42.764818" lon="0.701836">
        <ele>1320.679</ele>
        <time>2021-06-18T08:24:46Z</time>
      </trkpt>
      <trkpt lat="42.764757" lon="0.701740">
        <ele>1319.316</ele>
        <time>2021-06-18T08:24:50Z</time>
      </trkpt>
      <trkpt lat="42.764647" lon="0.701594">
        <ele>1317.636</ele>
        <time>2021-06-18T08:24:57Z</time>
      </trkpt>
      <trkpt lat="42.764579" lon="0.701535">
        <ele>1317.617</ele>
        <time>2021-06-18T08:25:01Z</time>
      </trkpt>
      <trkpt lat="42.764562" lon="0.701528">
        <ele>1317.818</ele>
        <time>2021-06-18T08:25:02Z</time>
      </trkpt>
      <trkpt lat="42.764520" lon="0.701519">
        <ele>1318.708</ele>
        <time>2021-06-18T08:25:04Z</time>
      </trkpt>
      <trkpt lat="42.764473" lon="0.701523">
        <ele>1320.170</ele>
        <time>2021-06-18T08:25:06Z</time>
      </trkpt>
      <trkpt lat="42.764367" lon="0.701554">
        <ele>1320.549</ele>
        <time>2021-06-18T08:25:10Z</time>
      </trkpt>
      <trkpt lat="42.764216" lon="0.701647">
        <ele>1319.715</ele>
        <time>2021-06-18T08:25:15Z</time>
      </trkpt>
      <trkpt lat="42.763940" lon="0.701800">
        <ele>1319.039</ele>
        <time>2021-06-18T08:25:22Z</time>
      </trkpt>
      <trkpt lat="42.763890" lon="0.701834">
        <ele>1317.823</ele>
        <time>2021-06-18T08:25:23Z</time>
      </trkpt>
      <trkpt lat="42.763832" lon="0.701864">
        <ele>1315.843</ele>
        <time>2021-06-18T08:25:24Z</time>
      </trkpt>
      <trkpt lat="42.763723" lon="0.701955">
        <ele>1313.416</ele>
        <time>2021-06-18T08:25:26Z</time>
      </trkpt>
      <trkpt lat="42.763654" lon="0.702034">
        <ele>1313.533</ele>
        <time>2021-06-18T08:25:28Z</time>
      </trkpt>
      <trkpt lat="42.763602" lon="0.702095">
        <ele>1312.931</ele>
        <time>2021-06-18T08:25:30Z</time>
      </trkpt>
      <trkpt lat="42.763543" lon="0.702181">
        <ele>1312.061</ele>
        <time>2021-06-18T08:25:32Z</time>
      </trkpt>
      <trkpt lat="42.763473" lon="0.702309">
        <ele>1311.407</ele>
        <time>2021-06-18T08:25:34Z</time>
      </trkpt>
      <trkpt lat="42.763365" lon="0.702536">
        <ele>1308.708</ele>
        <time>2021-06-18T08:25:37Z</time>
      </trkpt>
      <trkpt lat="42.763335" lon="0.702599">
        <ele>1308.360</ele>
        <time>2021-06-18T08:25:38Z</time>
      </trkpt>
      <trkpt lat="42.763306" lon="0.702657">
        <ele>1308.099</ele>
        <time>2021-06-18T08:25:39Z</time>
      </trkpt>
      <trkpt lat="42.763249" lon="0.702786">
        <ele>1307.285</ele>
        <time>2021-06-18T08:25:41Z</time>
      </trkpt>
      <trkpt lat="42.763182" lon="0.702943">
        <ele>1305.049</ele>
        <time>2021-06-18T08:25:43Z</time>
      </trkpt>
      <trkpt lat="42.763070" lon="0.703232">
        <ele>1301.963</ele>
        <time>2021-06-18T08:25:46Z</time>
      </trkpt>
      <trkpt lat="42.763027" lon="0.703339">
        <ele>1300.853</ele>
        <time>2021-06-18T08:25:47Z</time>
      </trkpt>
      <trkpt lat="42.762985" lon="0.703448">
        <ele>1299.866</ele>
        <time>2021-06-18T08:25:48Z</time>
      </trkpt>
      <trkpt lat="42.762901" lon="0.703669">
        <ele>1299.093</ele>
        <time>2021-06-18T08:25:50Z</time>
      </trkpt>
      <trkpt lat="42.762807" lon="0.703882">
        <ele>1297.278</ele>
        <time>2021-06-18T08:25:52Z</time>
      </trkpt>
      <trkpt lat="42.762696" lon="0.704071">
        <ele>1296.133</ele>
        <time>2021-06-18T08:25:54Z</time>
      </trkpt>
      <trkpt lat="42.762627" lon="0.704152">
        <ele>1295.326</ele>
        <time>2021-06-18T08:25:55Z</time>
      </trkpt>
      <trkpt lat="42.762552" lon="0.704226">
        <ele>1294.908</ele>
        <time>2021-06-18T08:25:56Z</time>
      </trkpt>
      <trkpt lat="42.762470" lon="0.704299">
        <ele>1294.754</ele>
        <time>2021-06-18T08:25:57Z</time>
      </trkpt>
      <trkpt lat="42.762310" lon="0.704455">
        <ele>1295.023</ele>
        <time>2021-06-18T08:25:59Z</time>
      </trkpt>
      <trkpt lat="42.762160" lon="0.704566">
        <ele>1294.989</ele>
        <time>2021-06-18T08:26:01Z</time>
      </trkpt>
      <trkpt lat="42.762090" lon="0.704605">
        <ele>1294.683</ele>
        <time>2021-06-18T08:26:02Z</time>
      </trkpt>
      <trkpt lat="42.761797" lon="0.704801">
        <ele>1293.117</ele>
        <time>2021-06-18T08:26:07Z</time>
      </trkpt>
      <trkpt lat="42.761720" lon="0.704899">
        <ele>1293.857</ele>
        <time>2021-06-18T08:26:09Z</time>
      </trkpt>
      <trkpt lat="42.761666" lon="0.704992">
        <ele>1294.630</ele>
        <time>2021-06-18T08:26:11Z</time>
      </trkpt>
      <trkpt lat="42.761560" lon="0.705185">
        <ele>1295.147</ele>
        <time>2021-06-18T08:26:15Z</time>
      </trkpt>
      <trkpt lat="42.761531" lon="0.705245">
        <ele>1295.563</ele>
        <time>2021-06-18T08:26:16Z</time>
      </trkpt>
      <trkpt lat="42.761503" lon="0.705319">
        <ele>1296.344</ele>
        <time>2021-06-18T08:26:17Z</time>
      </trkpt>
      <trkpt lat="42.761429" lon="0.705538">
        <ele>1298.218</ele>
        <time>2021-06-18T08:26:20Z</time>
      </trkpt>
      <trkpt lat="42.761370" lon="0.705749">
        <ele>1298.108</ele>
        <time>2021-06-18T08:26:23Z</time>
      </trkpt>
      <trkpt lat="42.761300" lon="0.706011">
        <ele>1297.273</ele>
        <time>2021-06-18T08:26:27Z</time>
      </trkpt>
      <trkpt lat="42.761281" lon="0.706068">
        <ele>1296.912</ele>
        <time>2021-06-18T08:26:28Z</time>
      </trkpt>
      <trkpt lat="42.761236" lon="0.706256">
        <ele>1297.158</ele>
        <time>2021-06-18T08:26:31Z</time>
      </trkpt>
      <trkpt lat="42.761200" lon="0.706386">
        <ele>1296.752</ele>
        <time>2021-06-18T08:26:33Z</time>
      </trkpt>
      <trkpt lat="42.761099" lon="0.706677">
        <ele>1297.556</ele>
        <time>2021-06-18T08:26:38Z</time>
      </trkpt>
      <trkpt lat="42.761071" lon="0.706730">
        <ele>1297.146</ele>
        <time>2021-06-18T08:26:39Z</time>
      </trkpt>
      <trkpt lat="42.760926" lon="0.706950">
        <ele>1296.959</ele>
        <time>2021-06-18T08:26:44Z</time>
      </trkpt>
      <trkpt lat="42.760895" lon="0.706980">
        <ele>1297.036</ele>
        <time>2021-06-18T08:26:45Z</time>
      </trkpt>
      <trkpt lat="42.760724" lon="0.707099">
        <ele>1297.582</ele>
        <time>2021-06-18T08:26:50Z</time>
      </trkpt>
      <trkpt lat="42.760686" lon="0.707119">
        <ele>1297.643</ele>
        <time>2021-06-18T08:26:51Z</time>
      </trkpt>
      <trkpt lat="42.760578" lon="0.707168">
        <ele>1297.617</ele>
        <time>2021-06-18T08:26:54Z</time>
      </trkpt>
      <trkpt lat="42.760436" lon="0.707239">
        <ele>1299.208</ele>
        <time>2021-06-18T08:26:58Z</time>
      </trkpt>
      <trkpt lat="42.760398" lon="0.707256">
        <ele>1299.615</ele>
        <time>2021-06-18T08:26:59Z</time>
      </trkpt>
      <trkpt lat="42.760271" lon="0.707293">
        <ele>1299.874</ele>
        <time>2021-06-18T08:27:02Z</time>
      </trkpt>
      <trkpt lat="42.760175" lon="0.707302">
        <ele>1299.860</ele>
        <time>2021-06-18T08:27:04Z</time>
      </trkpt>
      <trkpt lat="42.759843" lon="0.707304">
        <ele>1299.324</ele>
        <time>2021-06-18T08:27:10Z</time>
      </trkpt>
      <trkpt lat="42.759608" lon="0.707276">
        <ele>1298.328</ele>
        <time>2021-06-18T08:27:14Z</time>
      </trkpt>
      <trkpt lat="42.759491" lon="0.707264">
        <ele>1298.388</ele>
        <time>2021-06-18T08:27:16Z</time>
      </trkpt>
      <trkpt lat="42.759435" lon="0.707256">
        <ele>1298.291</ele>
        <time>2021-06-18T08:27:17Z</time>
      </trkpt>
      <trkpt lat="42.759077" lon="0.707207">
        <ele>1301.398</ele>
        <time>2021-06-18T08:27:24Z</time>
      </trkpt>
      <trkpt lat="42.758691" lon="0.707170">
        <ele>1302.885</ele>
        <time>2021-06-18T08:27:32Z</time>
      </trkpt>
      <trkpt lat="42.758488" lon="0.707146">
        <ele>1302.389</ele>
        <time>2021-06-18T08:27:36Z</time>
      </trkpt>
      <trkpt lat="42.758383" lon="0.707150">
        <ele>1302.917</ele>
        <time>2021-06-18T08:27:38Z</time>
      </trkpt>
      <trkpt lat="42.758233" lon="0.707145">
        <ele>1300.908</ele>
        <time>2021-06-18T08:27:41Z</time>
      </trkpt>
      <trkpt lat="42.758150" lon="0.707188">
        <ele>1299.795</ele>
        <time>2021-06-18T08:27:43Z</time>
      </trkpt>
      <trkpt lat="42.758104" lon="0.707342">
        <ele>1298.254</ele>
        <time>2021-06-18T08:27:46Z</time>
      </trkpt>
      <trkpt lat="42.758117" lon="0.707493">
        <ele>1298.370</ele>
        <time>2021-06-18T08:27:49Z</time>
      </trkpt>
      <trkpt lat="42.758141" lon="0.707634">
        <ele>1298.634</ele>
        <time>2021-06-18T08:27:52Z</time>
      </trkpt>
      <trkpt lat="42.758179" lon="0.707794">
        <ele>1299.588</ele>
        <time>2021-06-18T08:27:56Z</time>
      </trkpt>
      <trkpt lat="42.758209" lon="0.707902">
        <ele>1300.138</ele>
        <time>2021-06-18T08:27:59Z</time>
      </trkpt>
      <trkpt lat="42.758249" lon="0.708070">
        <ele>1300.671</ele>
        <time>2021-06-18T08:28:03Z</time>
      </trkpt>
      <trkpt lat="42.758288" lon="0.708180">
        <ele>1301.678</ele>
        <time>2021-06-18T08:28:06Z</time>
      </trkpt>
      <trkpt lat="42.758310" lon="0.708296">
        <ele>1301.448</ele>
        <time>2021-06-18T08:28:09Z</time>
      </trkpt>
      <trkpt lat="42.758317" lon="0.708454">
        <ele>1304.461</ele>
        <time>2021-06-18T08:28:13Z</time>
      </trkpt>
      <trkpt lat="42.758296" lon="0.708525">
        <ele>1305.517</ele>
        <time>2021-06-18T08:28:15Z</time>
      </trkpt>
      <trkpt lat="42.758224" lon="0.708654">
        <ele>1306.208</ele>
        <time>2021-06-18T08:28:19Z</time>
      </trkpt>
      <trkpt lat="42.758180" lon="0.708711">
        <ele>1305.991</ele>
        <time>2021-06-18T08:28:21Z</time>
      </trkpt>
      <trkpt lat="42.758107" lon="0.708849">
        <ele>1306.550</ele>
        <time>2021-06-18T08:28:25Z</time>
      </trkpt>
      <trkpt lat="42.758092" lon="0.708886">
        <ele>1306.996</ele>
        <time>2021-06-18T08:28:26Z</time>
      </trkpt>
      <trkpt lat="42.758054" lon="0.709003">
        <ele>1306.860</ele>
        <time>2021-06-18T08:28:29Z</time>
      </trkpt>
      <trkpt lat="42.758004" lon="0.709212">
        <ele>1307.024</ele>
        <time>2021-06-18T08:28:34Z</time>
      </trkpt>
      <trkpt lat="42.757976" lon="0.709345">
        <ele>1306.734</ele>
        <time>2021-06-18T08:28:37Z</time>
      </trkpt>
      <trkpt lat="42.757907" lon="0.709625">
        <ele>1307.227</ele>
        <time>2021-06-18T08:28:43Z</time>
      </trkpt>
      <trkpt lat="42.757773" lon="0.710133">
        <ele>1305.824</ele>
        <time>2021-06-18T08:28:53Z</time>
      </trkpt>
      <trkpt lat="42.757766" lon="0.710544">
        <ele>1305.687</ele>
        <time>2021-06-18T08:28:59Z</time>
      </trkpt>
      <trkpt lat="42.757783" lon="0.711029">
        <ele>1306.042</ele>
        <time>2021-06-18T08:29:06Z</time>
      </trkpt>
      <trkpt lat="42.757774" lon="0.711148">
        <ele>1307.226</ele>
        <time>2021-06-18T08:29:08Z</time>
      </trkpt>
      <trkpt lat="42.757708" lon="0.711387">
        <ele>1311.708</ele>
        <time>2021-06-18T08:29:13Z</time>
      </trkpt>
      <trkpt lat="42.757621" lon="0.711594">
        <ele>1313.675</ele>
        <time>2021-06-18T08:29:18Z</time>
      </trkpt>
      <trkpt lat="42.757599" lon="0.711637">
        <ele>1313.594</ele>
        <time>2021-06-18T08:29:19Z</time>
      </trkpt>
      <trkpt lat="42.757556" lon="0.711714">
        <ele>1312.270</ele>
        <time>2021-06-18T08:29:21Z</time>
      </trkpt>
      <trkpt lat="42.757459" lon="0.711876">
        <ele>1310.954</ele>
        <time>2021-06-18T08:29:26Z</time>
      </trkpt>
      <trkpt lat="42.757420" lon="0.711930">
        <ele>1311.518</ele>
        <time>2021-06-18T08:29:28Z</time>
      </trkpt>
      <trkpt lat="42.757350" lon="0.711996">
        <ele>1311.898</ele>
        <time>2021-06-18T08:29:31Z</time>
      </trkpt>
      <trkpt lat="42.757305" lon="0.712045">
        <ele>1312.011</ele>
        <time>2021-06-18T08:29:33Z</time>
      </trkpt>
      <trkpt lat="42.757212" lon="0.712136">
        <ele>1311.698</ele>
        <time>2021-06-18T08:29:37Z</time>
      </trkpt>
      <trkpt lat="42.757123" lon="0.712233">
        <ele>1311.764</ele>
        <time>2021-06-18T08:29:41Z</time>
      </trkpt>
      <trkpt lat="42.757096" lon="0.712303">
        <ele>1312.206</ele>
        <time>2021-06-18T08:29:43Z</time>
      </trkpt>
      <trkpt lat="42.757024" lon="0.712511">
        <ele>1313.116</ele>
        <time>2021-06-18T08:29:49Z</time>
      </trkpt>
      <trkpt lat="42.756898" lon="0.712737">
        <ele>1311.708</ele>
        <time>2021-06-18T08:29:56Z</time>
      </trkpt>
      <trkpt lat="42.756752" lon="0.712940">
        <ele>1310.863</ele>
        <time>2021-06-18T08:30:01Z</time>
      </trkpt>
      <trkpt lat="42.756519" lon="0.713215">
        <ele>1308.162</ele>
        <time>2021-06-18T08:30:06Z</time>
      </trkpt>
      <trkpt lat="42.756324" lon="0.713377">
        <ele>1307.178</ele>
        <time>2021-06-18T08:30:09Z</time>
      </trkpt>
      <trkpt lat="42.756247" lon="0.713417">
        <ele>1307.312</ele>
        <time>2021-06-18T08:30:10Z</time>
      </trkpt>
      <trkpt lat="42.756166" lon="0.713445">
        <ele>1307.386</ele>
        <time>2021-06-18T08:30:11Z</time>
      </trkpt>
      <trkpt lat="42.755999" lon="0.713476">
        <ele>1304.816</ele>
        <time>2021-06-18T08:30:13Z</time>
      </trkpt>
      <trkpt lat="42.755919" lon="0.713492">
        <ele>1303.419</ele>
        <time>2021-06-18T08:30:14Z</time>
      </trkpt>
      <trkpt lat="42.755843" lon="0.713515">
        <ele>1302.776</ele>
        <time>2021-06-18T08:30:15Z</time>
      </trkpt>
      <trkpt lat="42.755694" lon="0.713597">
        <ele>1303.157</ele>
        <time>2021-06-18T08:30:17Z</time>
      </trkpt>
      <trkpt lat="42.755621" lon="0.713651">
        <ele>1302.800</ele>
        <time>2021-06-18T08:30:18Z</time>
      </trkpt>
      <trkpt lat="42.755545" lon="0.713710">
        <ele>1301.920</ele>
        <time>2021-06-18T08:30:19Z</time>
      </trkpt>
      <trkpt lat="42.755300" lon="0.713886">
        <ele>1299.608</ele>
        <time>2021-06-18T08:30:22Z</time>
      </trkpt>
      <trkpt lat="42.755131" lon="0.714011">
        <ele>1298.872</ele>
        <time>2021-06-18T08:30:24Z</time>
      </trkpt>
      <trkpt lat="42.754954" lon="0.714130">
        <ele>1297.671</ele>
        <time>2021-06-18T08:30:26Z</time>
      </trkpt>
      <trkpt lat="42.754858" lon="0.714179">
        <ele>1297.677</ele>
        <time>2021-06-18T08:30:27Z</time>
      </trkpt>
      <trkpt lat="42.754758" lon="0.714214">
        <ele>1297.341</ele>
        <time>2021-06-18T08:30:28Z</time>
      </trkpt>
      <trkpt lat="42.754544" lon="0.714263">
        <ele>1296.095</ele>
        <time>2021-06-18T08:30:30Z</time>
      </trkpt>
      <trkpt lat="42.754439" lon="0.714297">
        <ele>1296.755</ele>
        <time>2021-06-18T08:30:31Z</time>
      </trkpt>
      <trkpt lat="42.754334" lon="0.714333">
        <ele>1296.338</ele>
        <time>2021-06-18T08:30:32Z</time>
      </trkpt>
      <trkpt lat="42.754122" lon="0.714404">
        <ele>1294.355</ele>
        <time>2021-06-18T08:30:34Z</time>
      </trkpt>
      <trkpt lat="42.753908" lon="0.714505">
        <ele>1289.146</ele>
        <time>2021-06-18T08:30:36Z</time>
      </trkpt>
      <trkpt lat="42.753801" lon="0.714558">
        <ele>1288.588</ele>
        <time>2021-06-18T08:30:37Z</time>
      </trkpt>
      <trkpt lat="42.753689" lon="0.714596">
        <ele>1287.916</ele>
        <time>2021-06-18T08:30:38Z</time>
      </trkpt>
      <trkpt lat="42.753457" lon="0.714627">
        <ele>1285.508</ele>
        <time>2021-06-18T08:30:40Z</time>
      </trkpt>
      <trkpt lat="42.753339" lon="0.714639">
        <ele>1284.551</ele>
        <time>2021-06-18T08:30:41Z</time>
      </trkpt>
      <trkpt lat="42.753103" lon="0.714661">
        <ele>1284.380</ele>
        <time>2021-06-18T08:30:43Z</time>
      </trkpt>
      <trkpt lat="42.752990" lon="0.714673">
        <ele>1283.786</ele>
        <time>2021-06-18T08:30:44Z</time>
      </trkpt>
      <trkpt lat="42.752775" lon="0.714701">
        <ele>1280.760</ele>
        <time>2021-06-18T08:30:46Z</time>
      </trkpt>
      <trkpt lat="42.752674" lon="0.714731">
        <ele>1280.554</ele>
        <time>2021-06-18T08:30:47Z</time>
      </trkpt>
      <trkpt lat="42.752583" lon="0.714788">
        <ele>1281.124</ele>
        <time>2021-06-18T08:30:48Z</time>
      </trkpt>
      <trkpt lat="42.752504" lon="0.714867">
        <ele>1281.227</ele>
        <time>2021-06-18T08:30:49Z</time>
      </trkpt>
      <trkpt lat="42.752365" lon="0.715058">
        <ele>1279.374</ele>
        <time>2021-06-18T08:30:51Z</time>
      </trkpt>
      <trkpt lat="42.752229" lon="0.715262">
        <ele>1278.035</ele>
        <time>2021-06-18T08:30:53Z</time>
      </trkpt>
      <trkpt lat="42.752149" lon="0.715352">
        <ele>1277.786</ele>
        <time>2021-06-18T08:30:54Z</time>
      </trkpt>
      <trkpt lat="42.751966" lon="0.715490">
        <ele>1275.314</ele>
        <time>2021-06-18T08:30:56Z</time>
      </trkpt>
      <trkpt lat="42.751787" lon="0.715610">
        <ele>1273.208</ele>
        <time>2021-06-18T08:30:58Z</time>
      </trkpt>
      <trkpt lat="42.751678" lon="0.715771">
        <ele>1271.250</ele>
        <time>2021-06-18T08:31:00Z</time>
      </trkpt>
      <trkpt lat="42.751665" lon="0.715875">
        <ele>1270.899</ele>
        <time>2021-06-18T08:31:01Z</time>
      </trkpt>
      <trkpt lat="42.751674" lon="0.715988">
        <ele>1270.825</ele>
        <time>2021-06-18T08:31:02Z</time>
      </trkpt>
      <trkpt lat="42.751689" lon="0.716105">
        <ele>1271.349</ele>
        <time>2021-06-18T08:31:03Z</time>
      </trkpt>
      <trkpt lat="42.751700" lon="0.716225">
        <ele>1271.933</ele>
        <time>2021-06-18T08:31:04Z</time>
      </trkpt>
      <trkpt lat="42.751703" lon="0.716342">
        <ele>1272.173</ele>
        <time>2021-06-18T08:31:05Z</time>
      </trkpt>
      <trkpt lat="42.751698" lon="0.716444">
        <ele>1272.966</ele>
        <time>2021-06-18T08:31:06Z</time>
      </trkpt>
      <trkpt lat="42.751638" lon="0.716549">
        <ele>1273.573</ele>
        <time>2021-06-18T08:31:08Z</time>
      </trkpt>
      <trkpt lat="42.751564" lon="0.716498">
        <ele>1272.014</ele>
        <time>2021-06-18T08:31:10Z</time>
      </trkpt>
      <trkpt lat="42.751555" lon="0.716426">
        <ele>1269.654</ele>
        <time>2021-06-18T08:31:11Z</time>
      </trkpt>
      <trkpt lat="42.751570" lon="0.716346">
        <ele>1268.009</ele>
        <time>2021-06-18T08:31:12Z</time>
      </trkpt>
      <trkpt lat="42.751587" lon="0.716007">
        <ele>1266.008</ele>
        <time>2021-06-18T08:31:16Z</time>
      </trkpt>
      <trkpt lat="42.751563" lon="0.715921">
        <ele>1264.828</ele>
        <time>2021-06-18T08:31:17Z</time>
      </trkpt>
      <trkpt lat="42.751531" lon="0.715833">
        <ele>1263.287</ele>
        <time>2021-06-18T08:31:18Z</time>
      </trkpt>
      <trkpt lat="42.751473" lon="0.715634">
        <ele>1261.663</ele>
        <time>2021-06-18T08:31:20Z</time>
      </trkpt>
      <trkpt lat="42.751471" lon="0.715521">
        <ele>1261.847</ele>
        <time>2021-06-18T08:31:21Z</time>
      </trkpt>
      <trkpt lat="42.751495" lon="0.715407">
        <ele>1261.091</ele>
        <time>2021-06-18T08:31:22Z</time>
      </trkpt>
      <trkpt lat="42.751675" lon="0.715159">
        <ele>1261.131</ele>
        <time>2021-06-18T08:31:25Z</time>
      </trkpt>
      <trkpt lat="42.751824" lon="0.715093">
        <ele>1261.694</ele>
        <time>2021-06-18T08:31:27Z</time>
      </trkpt>
      <trkpt lat="42.751885" lon="0.715057">
        <ele>1261.371</ele>
        <time>2021-06-18T08:31:28Z</time>
      </trkpt>
      <trkpt lat="42.751924" lon="0.714994">
        <ele>1259.778</ele>
        <time>2021-06-18T08:31:29Z</time>
      </trkpt>
      <trkpt lat="42.751935" lon="0.714923">
        <ele>1258.533</ele>
        <time>2021-06-18T08:31:30Z</time>
      </trkpt>
      <trkpt lat="42.751866" lon="0.714829">
        <ele>1255.926</ele>
        <time>2021-06-18T08:31:32Z</time>
      </trkpt>
      <trkpt lat="42.751664" lon="0.714874">
        <ele>1254.208</ele>
        <time>2021-06-18T08:31:35Z</time>
      </trkpt>
      <trkpt lat="42.751437" lon="0.714987">
        <ele>1252.674</ele>
        <time>2021-06-18T08:31:38Z</time>
      </trkpt>
      <trkpt lat="42.751368" lon="0.715043">
        <ele>1252.193</ele>
        <time>2021-06-18T08:31:39Z</time>
      </trkpt>
      <trkpt lat="42.751314" lon="0.715107">
        <ele>1251.659</ele>
        <time>2021-06-18T08:31:40Z</time>
      </trkpt>
      <trkpt lat="42.751253" lon="0.715265">
        <ele>1251.563</ele>
        <time>2021-06-18T08:31:42Z</time>
      </trkpt>
      <trkpt lat="42.751236" lon="0.715445">
        <ele>1250.597</ele>
        <time>2021-06-18T08:31:44Z</time>
      </trkpt>
      <trkpt lat="42.751250" lon="0.715530">
        <ele>1251.057</ele>
        <time>2021-06-18T08:31:45Z</time>
      </trkpt>
      <trkpt lat="42.751269" lon="0.715610">
        <ele>1251.660</ele>
        <time>2021-06-18T08:31:46Z</time>
      </trkpt>
      <trkpt lat="42.751289" lon="0.715688">
        <ele>1252.047</ele>
        <time>2021-06-18T08:31:47Z</time>
      </trkpt>
      <trkpt lat="42.751325" lon="0.715845">
        <ele>1252.385</ele>
        <time>2021-06-18T08:31:49Z</time>
      </trkpt>
      <trkpt lat="42.751324" lon="0.716013">
        <ele>1253.189</ele>
        <time>2021-06-18T08:31:51Z</time>
      </trkpt>
      <trkpt lat="42.751295" lon="0.716096">
        <ele>1252.917</ele>
        <time>2021-06-18T08:31:52Z</time>
      </trkpt>
      <trkpt lat="42.751206" lon="0.716199">
        <ele>1255.808</ele>
        <time>2021-06-18T08:31:54Z</time>
      </trkpt>
      <trkpt lat="42.751039" lon="0.716251">
        <ele>1256.165</ele>
        <time>2021-06-18T08:31:57Z</time>
      </trkpt>
      <trkpt lat="42.750984" lon="0.716265">
        <ele>1255.924</ele>
        <time>2021-06-18T08:31:58Z</time>
      </trkpt>
      <trkpt lat="42.750719" lon="0.716303">
        <ele>1254.840</ele>
        <time>2021-06-18T08:32:03Z</time>
      </trkpt>
      <trkpt lat="42.750663" lon="0.716311">
        <ele>1255.044</ele>
        <time>2021-06-18T08:32:04Z</time>
      </trkpt>
      <trkpt lat="42.750606" lon="0.716323">
        <ele>1255.528</ele>
        <time>2021-06-18T08:32:05Z</time>
      </trkpt>
      <trkpt lat="42.750490" lon="0.716350">
        <ele>1255.388</ele>
        <time>2021-06-18T08:32:07Z</time>
      </trkpt>
      <trkpt lat="42.750434" lon="0.716372">
        <ele>1255.351</ele>
        <time>2021-06-18T08:32:08Z</time>
      </trkpt>
      <trkpt lat="42.750088" lon="0.716513">
        <ele>1253.328</ele>
        <time>2021-06-18T08:32:15Z</time>
      </trkpt>
      <trkpt lat="42.750058" lon="0.716549">
        <ele>1253.685</ele>
        <time>2021-06-18T08:32:16Z</time>
      </trkpt>
      <trkpt lat="42.750026" lon="0.716670">
        <ele>1256.589</ele>
        <time>2021-06-18T08:32:19Z</time>
      </trkpt>
      <trkpt lat="42.750023" lon="0.716712">
        <ele>1256.817</ele>
        <time>2021-06-18T08:32:20Z</time>
      </trkpt>
      <trkpt lat="42.750019" lon="0.716850">
        <ele>1257.808</ele>
        <time>2021-06-18T08:32:23Z</time>
      </trkpt>
      <trkpt lat="42.750017" lon="0.716982">
        <ele>1259.095</ele>
        <time>2021-06-18T08:32:26Z</time>
      </trkpt>
      <trkpt lat="42.750010" lon="0.717069">
        <ele>1259.364</ele>
        <time>2021-06-18T08:32:28Z</time>
      </trkpt>
      <trkpt lat="42.749987" lon="0.717274">
        <ele>1259.120</ele>
        <time>2021-06-18T08:32:33Z</time>
      </trkpt>
      <trkpt lat="42.749981" lon="0.717357">
        <ele>1258.994</ele>
        <time>2021-06-18T08:32:35Z</time>
      </trkpt>
      <trkpt lat="42.749976" lon="0.717714">
        <ele>1259.848</ele>
        <time>2021-06-18T08:32:43Z</time>
      </trkpt>
      <trkpt lat="42.749960" lon="0.718132">
        <ele>1260.168</ele>
        <time>2021-06-18T08:32:51Z</time>
      </trkpt>
      <trkpt lat="42.749904" lon="0.718651">
        <ele>1256.751</ele>
        <time>2021-06-18T08:32:59Z</time>
      </trkpt>
      <trkpt lat="42.749829" lon="0.719336">
        <ele>1256.738</ele>
        <time>2021-06-18T08:33:09Z</time>
      </trkpt>
      <trkpt lat="42.749748" lon="0.719971">
        <ele>1257.282</ele>
        <time>2021-06-18T08:33:18Z</time>
      </trkpt>
      <trkpt lat="42.749581" lon="0.720534">
        <ele>1257.643</ele>
        <time>2021-06-18T08:33:27Z</time>
      </trkpt>
      <trkpt lat="42.749485" lon="0.720961">
        <ele>1259.517</ele>
        <time>2021-06-18T08:33:35Z</time>
      </trkpt>
      <trkpt lat="42.749437" lon="0.721108">
        <ele>1259.708</ele>
        <time>2021-06-18T08:33:38Z</time>
      </trkpt>
      <trkpt lat="42.749357" lon="0.721274">
        <ele>1260.845</ele>
        <time>2021-06-18T08:33:42Z</time>
      </trkpt>
      <trkpt lat="42.749336" lon="0.721309">
        <ele>1261.014</ele>
        <time>2021-06-18T08:33:43Z</time>
      </trkpt>
      <trkpt lat="42.749265" lon="0.721442">
        <ele>1260.970</ele>
        <time>2021-06-18T08:33:48Z</time>
      </trkpt>
      <trkpt lat="42.749258" lon="0.721455">
        <ele>1260.814</ele>
        <time>2021-06-18T08:33:50Z</time>
      </trkpt>
      <trkpt lat="42.749258" lon="0.721455">
        <ele>1260.878</ele>
        <time>2021-06-18T08:33:51Z</time>
      </trkpt>
      <trkpt lat="42.749268" lon="0.721490">
        <ele>1261.488</ele>
        <time>2021-06-18T08:35:01Z</time>
      </trkpt>
      <trkpt lat="42.749254" lon="0.721664">
        <ele>1262.161</ele>
        <time>2021-06-18T08:35:06Z</time>
      </trkpt>
      <trkpt lat="42.749162" lon="0.722053">
        <ele>1261.288</ele>
        <time>2021-06-18T08:35:12Z</time>
      </trkpt>
      <trkpt lat="42.749099" lon="0.722291">
        <ele>1259.644</ele>
        <time>2021-06-18T08:35:15Z</time>
      </trkpt>
      <trkpt lat="42.749035" lon="0.722557">
        <ele>1257.705</ele>
        <time>2021-06-18T08:35:18Z</time>
      </trkpt>
      <trkpt lat="42.748992" lon="0.722863">
        <ele>1256.715</ele>
        <time>2021-06-18T08:35:21Z</time>
      </trkpt>
      <trkpt lat="42.748958" lon="0.723075">
        <ele>1256.208</ele>
        <time>2021-06-18T08:35:23Z</time>
      </trkpt>
      <trkpt lat="42.748904" lon="0.723277">
        <ele>1256.121</ele>
        <time>2021-06-18T08:35:25Z</time>
      </trkpt>
      <trkpt lat="42.748836" lon="0.723472">
        <ele>1255.940</ele>
        <time>2021-06-18T08:35:27Z</time>
      </trkpt>
      <trkpt lat="42.748801" lon="0.723566">
        <ele>1255.996</ele>
        <time>2021-06-18T08:35:28Z</time>
      </trkpt>
      <trkpt lat="42.748766" lon="0.723658">
        <ele>1255.890</ele>
        <time>2021-06-18T08:35:29Z</time>
      </trkpt>
      <trkpt lat="42.748566" lon="0.724129">
        <ele>1253.594</ele>
        <time>2021-06-18T08:35:34Z</time>
      </trkpt>
      <trkpt lat="42.748466" lon="0.724306">
        <ele>1253.344</ele>
        <time>2021-06-18T08:35:36Z</time>
      </trkpt>
      <trkpt lat="42.748252" lon="0.724628">
        <ele>1251.157</ele>
        <time>2021-06-18T08:35:40Z</time>
      </trkpt>
      <trkpt lat="42.748211" lon="0.724719">
        <ele>1251.024</ele>
        <time>2021-06-18T08:35:41Z</time>
      </trkpt>
      <trkpt lat="42.748110" lon="0.725014">
        <ele>1249.987</ele>
        <time>2021-06-18T08:35:44Z</time>
      </trkpt>
      <trkpt lat="42.748040" lon="0.725198">
        <ele>1250.042</ele>
        <time>2021-06-18T08:35:46Z</time>
      </trkpt>
      <trkpt lat="42.747980" lon="0.725390">
        <ele>1251.326</ele>
        <time>2021-06-18T08:35:49Z</time>
      </trkpt>
      <trkpt lat="42.747946" lon="0.725565">
        <ele>1252.408</ele>
        <time>2021-06-18T08:35:53Z</time>
      </trkpt>
      <trkpt lat="42.747938" lon="0.725825">
        <ele>1252.725</ele>
        <time>2021-06-18T08:35:58Z</time>
      </trkpt>
      <trkpt lat="42.747915" lon="0.725939">
        <ele>1252.714</ele>
        <time>2021-06-18T08:36:00Z</time>
      </trkpt>
      <trkpt lat="42.747858" lon="0.726167">
        <ele>1252.840</ele>
        <time>2021-06-18T08:36:04Z</time>
      </trkpt>
      <trkpt lat="42.747733" lon="0.726349">
        <ele>1252.764</ele>
        <time>2021-06-18T08:36:08Z</time>
      </trkpt>
      <trkpt lat="42.747617" lon="0.726555">
        <ele>1253.458</ele>
        <time>2021-06-18T08:36:13Z</time>
      </trkpt>
      <trkpt lat="42.747500" lon="0.726759">
        <ele>1254.348</ele>
        <time>2021-06-18T08:36:18Z</time>
      </trkpt>
      <trkpt lat="42.747478" lon="0.726804">
        <ele>1253.931</ele>
        <time>2021-06-18T08:36:19Z</time>
      </trkpt>
      <trkpt lat="42.747430" lon="0.726951">
        <ele>1253.598</ele>
        <time>2021-06-18T08:36:22Z</time>
      </trkpt>
      <trkpt lat="42.747411" lon="0.727095">
        <ele>1253.394</ele>
        <time>2021-06-18T08:36:25Z</time>
      </trkpt>
      <trkpt lat="42.747431" lon="0.727276">
        <ele>1253.557</ele>
        <time>2021-06-18T08:36:29Z</time>
      </trkpt>
      <trkpt lat="42.747399" lon="0.727592">
        <ele>1251.722</ele>
        <time>2021-06-18T08:36:33Z</time>
      </trkpt>
      <trkpt lat="42.747339" lon="0.728082">
        <ele>1251.708</ele>
        <time>2021-06-18T08:36:39Z</time>
      </trkpt>
      <trkpt lat="42.747319" lon="0.728157">
        <ele>1251.646</ele>
        <time>2021-06-18T08:36:40Z</time>
      </trkpt>
      <trkpt lat="42.747295" lon="0.728233">
        <ele>1251.495</ele>
        <time>2021-06-18T08:36:41Z</time>
      </trkpt>
      <trkpt lat="42.747228" lon="0.728384">
        <ele>1250.731</ele>
        <time>2021-06-18T08:36:43Z</time>
      </trkpt>
      <trkpt lat="42.747145" lon="0.728526">
        <ele>1250.375</ele>
        <time>2021-06-18T08:36:45Z</time>
      </trkpt>
      <trkpt lat="42.746939" lon="0.728871">
        <ele>1249.769</ele>
        <time>2021-06-18T08:36:50Z</time>
      </trkpt>
      <trkpt lat="42.746822" lon="0.729069">
        <ele>1250.329</ele>
        <time>2021-06-18T08:36:53Z</time>
      </trkpt>
      <trkpt lat="42.746745" lon="0.729182">
        <ele>1249.922</ele>
        <time>2021-06-18T08:36:55Z</time>
      </trkpt>
      <trkpt lat="42.746664" lon="0.729276">
        <ele>1249.669</ele>
        <time>2021-06-18T08:36:57Z</time>
      </trkpt>
      <trkpt lat="42.746583" lon="0.729345">
        <ele>1250.079</ele>
        <time>2021-06-18T08:36:59Z</time>
      </trkpt>
      <trkpt lat="42.746433" lon="0.729471">
        <ele>1249.805</ele>
        <time>2021-06-18T08:37:03Z</time>
      </trkpt>
      <trkpt lat="42.746375" lon="0.729559">
        <ele>1250.625</ele>
        <time>2021-06-18T08:37:05Z</time>
      </trkpt>
      <trkpt lat="42.746316" lon="0.729716">
        <ele>1252.508</ele>
        <time>2021-06-18T08:37:08Z</time>
      </trkpt>
      <trkpt lat="42.746279" lon="0.729874">
        <ele>1252.754</ele>
        <time>2021-06-18T08:37:11Z</time>
      </trkpt>
      <trkpt lat="42.746236" lon="0.730292">
        <ele>1252.673</ele>
        <time>2021-06-18T08:37:18Z</time>
      </trkpt>
      <trkpt lat="42.746249" lon="0.730564">
        <ele>1254.569</ele>
        <time>2021-06-18T08:37:23Z</time>
      </trkpt>
      <trkpt lat="42.746234" lon="0.730902">
        <ele>1258.483</ele>
        <time>2021-06-18T08:37:31Z</time>
      </trkpt>
      <trkpt lat="42.746180" lon="0.731121">
        <ele>1260.237</ele>
        <time>2021-06-18T08:37:37Z</time>
      </trkpt>
      <trkpt lat="42.746161" lon="0.731189">
        <ele>1259.977</ele>
        <time>2021-06-18T08:37:39Z</time>
      </trkpt>
      <trkpt lat="42.746133" lon="0.731286">
        <ele>1259.520</ele>
        <time>2021-06-18T08:37:42Z</time>
      </trkpt>
      <trkpt lat="42.746106" lon="0.731380">
        <ele>1259.597</ele>
        <time>2021-06-18T08:37:45Z</time>
      </trkpt>
      <trkpt lat="42.746078" lon="0.731473">
        <ele>1259.928</ele>
        <time>2021-06-18T08:37:48Z</time>
      </trkpt>
      <trkpt lat="42.746034" lon="0.731621">
        <ele>1260.389</ele>
        <time>2021-06-18T08:37:53Z</time>
      </trkpt>
      <trkpt lat="42.746025" lon="0.731648">
        <ele>1260.317</ele>
        <time>2021-06-18T08:37:54Z</time>
      </trkpt>
      <trkpt lat="42.745975" lon="0.731809">
        <ele>1261.508</ele>
        <time>2021-06-18T08:38:00Z</time>
      </trkpt>
      <trkpt lat="42.745939" lon="0.731914">
        <ele>1262.049</ele>
        <time>2021-06-18T08:38:04Z</time>
      </trkpt>
      <trkpt lat="42.745910" lon="0.731994">
        <ele>1262.278</ele>
        <time>2021-06-18T08:38:07Z</time>
      </trkpt>
      <trkpt lat="42.745899" lon="0.732019">
        <ele>1262.294</ele>
        <time>2021-06-18T08:38:08Z</time>
      </trkpt>
      <trkpt lat="42.745832" lon="0.732140">
        <ele>1261.638</ele>
        <time>2021-06-18T08:38:14Z</time>
      </trkpt>
      <trkpt lat="42.745820" lon="0.732158">
        <ele>1261.642</ele>
        <time>2021-06-18T08:38:15Z</time>
      </trkpt>
      <trkpt lat="42.745755" lon="0.732287">
        <ele>1262.362</ele>
        <time>2021-06-18T08:38:21Z</time>
      </trkpt>
      <trkpt lat="42.745747" lon="0.732314">
        <ele>1262.545</ele>
        <time>2021-06-18T08:38:22Z</time>
      </trkpt>
      <trkpt lat="42.745712" lon="0.732449">
        <ele>1263.122</ele>
        <time>2021-06-18T08:38:27Z</time>
      </trkpt>
      <trkpt lat="42.745705" lon="0.732478">
        <ele>1263.277</ele>
        <time>2021-06-18T08:38:28Z</time>
      </trkpt>
      <trkpt lat="42.745685" lon="0.732587">
        <ele>1264.261</ele>
        <time>2021-06-18T08:38:32Z</time>
      </trkpt>
      <trkpt lat="42.745664" lon="0.732667">
        <ele>1264.727</ele>
        <time>2021-06-18T08:38:35Z</time>
      </trkpt>
      <trkpt lat="42.745657" lon="0.732694">
        <ele>1264.908</ele>
        <time>2021-06-18T08:38:36Z</time>
      </trkpt>
      <trkpt lat="42.745627" lon="0.732842">
        <ele>1265.564</ele>
        <time>2021-06-18T08:38:41Z</time>
      </trkpt>
      <trkpt lat="42.745629" lon="0.732990">
        <ele>1267.053</ele>
        <time>2021-06-18T08:38:46Z</time>
      </trkpt>
      <trkpt lat="42.745655" lon="0.733134">
        <ele>1267.779</ele>
        <time>2021-06-18T08:38:50Z</time>
      </trkpt>
      <trkpt lat="42.745716" lon="0.733365">
        <ele>1267.383</ele>
        <time>2021-06-18T08:38:54Z</time>
      </trkpt>
      <trkpt lat="42.745731" lon="0.733441">
        <ele>1266.937</ele>
        <time>2021-06-18T08:38:55Z</time>
      </trkpt>
      <trkpt lat="42.745729" lon="0.733604">
        <ele>1264.667</ele>
        <time>2021-06-18T08:38:57Z</time>
      </trkpt>
      <trkpt lat="42.745655" lon="0.733843">
        <ele>1262.140</ele>
        <time>2021-06-18T08:39:00Z</time>
      </trkpt>
      <trkpt lat="42.745635" lon="0.733921">
        <ele>1261.487</ele>
        <time>2021-06-18T08:39:01Z</time>
      </trkpt>
      <trkpt lat="42.745623" lon="0.734007">
        <ele>1260.874</ele>
        <time>2021-06-18T08:39:02Z</time>
      </trkpt>
      <trkpt lat="42.745620" lon="0.734096">
        <ele>1260.656</ele>
        <time>2021-06-18T08:39:03Z</time>
      </trkpt>
      <trkpt lat="42.745625" lon="0.734275">
        <ele>1260.821</ele>
        <time>2021-06-18T08:39:05Z</time>
      </trkpt>
      <trkpt lat="42.745629" lon="0.734363">
        <ele>1260.908</ele>
        <time>2021-06-18T08:39:06Z</time>
      </trkpt>
      <trkpt lat="42.745635" lon="0.734538">
        <ele>1261.124</ele>
        <time>2021-06-18T08:39:08Z</time>
      </trkpt>
      <trkpt lat="42.745624" lon="0.734872">
        <ele>1261.413</ele>
        <time>2021-06-18T08:39:12Z</time>
      </trkpt>
      <trkpt lat="42.745600" lon="0.735121">
        <ele>1261.429</ele>
        <time>2021-06-18T08:39:16Z</time>
      </trkpt>
      <trkpt lat="42.745586" lon="0.735406">
        <ele>1261.053</ele>
        <time>2021-06-18T08:39:21Z</time>
      </trkpt>
      <trkpt lat="42.745560" lon="0.735965">
        <ele>1258.267</ele>
        <time>2021-06-18T08:39:28Z</time>
      </trkpt>
      <trkpt lat="42.745532" lon="0.736232">
        <ele>1257.437</ele>
        <time>2021-06-18T08:39:31Z</time>
      </trkpt>
      <trkpt lat="42.745504" lon="0.736500">
        <ele>1257.950</ele>
        <time>2021-06-18T08:39:34Z</time>
      </trkpt>
      <trkpt lat="42.745478" lon="0.736674">
        <ele>1258.327</ele>
        <time>2021-06-18T08:39:36Z</time>
      </trkpt>
      <trkpt lat="42.745460" lon="0.736757">
        <ele>1258.131</ele>
        <time>2021-06-18T08:39:37Z</time>
      </trkpt>
      <trkpt lat="42.745358" lon="0.737288">
        <ele>1255.961</ele>
        <time>2021-06-18T08:39:43Z</time>
      </trkpt>
      <trkpt lat="42.745337" lon="0.737458">
        <ele>1254.807</ele>
        <time>2021-06-18T08:39:45Z</time>
      </trkpt>
      <trkpt lat="42.745328" lon="0.737632">
        <ele>1254.308</ele>
        <time>2021-06-18T08:39:47Z</time>
      </trkpt>
      <trkpt lat="42.745320" lon="0.737717">
        <ele>1254.020</ele>
        <time>2021-06-18T08:39:48Z</time>
      </trkpt>
      <trkpt lat="42.745306" lon="0.737799">
        <ele>1253.489</ele>
        <time>2021-06-18T08:39:49Z</time>
      </trkpt>
      <trkpt lat="42.745252" lon="0.737996">
        <ele>1252.115</ele>
        <time>2021-06-18T08:39:52Z</time>
      </trkpt>
      <trkpt lat="42.745195" lon="0.738248">
        <ele>1251.169</ele>
        <time>2021-06-18T08:39:57Z</time>
      </trkpt>
      <trkpt lat="42.745188" lon="0.738494">
        <ele>1251.373</ele>
        <time>2021-06-18T08:40:01Z</time>
      </trkpt>
      <trkpt lat="42.745206" lon="0.738717">
        <ele>1251.753</ele>
        <time>2021-06-18T08:40:04Z</time>
      </trkpt>
      <trkpt lat="42.745246" lon="0.738927">
        <ele>1251.936</ele>
        <time>2021-06-18T08:40:07Z</time>
      </trkpt>
      <trkpt lat="42.745297" lon="0.739196">
        <ele>1251.943</ele>
        <time>2021-06-18T08:40:11Z</time>
      </trkpt>
      <trkpt lat="42.745338" lon="0.739345">
        <ele>1250.999</ele>
        <time>2021-06-18T08:40:13Z</time>
      </trkpt>
      <trkpt lat="42.745419" lon="0.739796">
        <ele>1248.907</ele>
        <time>2021-06-18T08:40:18Z</time>
      </trkpt>
      <trkpt lat="42.745459" lon="0.740066">
        <ele>1249.027</ele>
        <time>2021-06-18T08:40:21Z</time>
      </trkpt>
      <trkpt lat="42.745488" lon="0.740226">
        <ele>1249.308</ele>
        <time>2021-06-18T08:40:23Z</time>
      </trkpt>
      <trkpt lat="42.745510" lon="0.740296">
        <ele>1249.466</ele>
        <time>2021-06-18T08:40:24Z</time>
      </trkpt>
      <trkpt lat="42.745536" lon="0.740359">
        <ele>1249.585</ele>
        <time>2021-06-18T08:40:25Z</time>
      </trkpt>
      <trkpt lat="42.745597" lon="0.740474">
        <ele>1250.161</ele>
        <time>2021-06-18T08:40:27Z</time>
      </trkpt>
      <trkpt lat="42.745651" lon="0.740584">
        <ele>1250.535</ele>
        <time>2021-06-18T08:40:29Z</time>
      </trkpt>
      <trkpt lat="42.745679" lon="0.740640">
        <ele>1250.669</ele>
        <time>2021-06-18T08:40:30Z</time>
      </trkpt>
      <trkpt lat="42.745804" lon="0.740894">
        <ele>1251.059</ele>
        <time>2021-06-18T08:40:35Z</time>
      </trkpt>
      <trkpt lat="42.745852" lon="0.741148">
        <ele>1250.482</ele>
        <time>2021-06-18T08:40:40Z</time>
      </trkpt>
      <trkpt lat="42.745867" lon="0.741310">
        <ele>1250.679</ele>
        <time>2021-06-18T08:40:43Z</time>
      </trkpt>
      <trkpt lat="42.745914" lon="0.741611">
        <ele>1250.855</ele>
        <time>2021-06-18T08:40:48Z</time>
      </trkpt>
      <trkpt lat="42.746031" lon="0.741964">
        <ele>1249.307</ele>
        <time>2021-06-18T08:40:53Z</time>
      </trkpt>
      <trkpt lat="42.746221" lon="0.742507">
        <ele>1249.217</ele>
        <time>2021-06-18T08:41:00Z</time>
      </trkpt>
      <trkpt lat="42.746249" lon="0.742580">
        <ele>1249.108</ele>
        <time>2021-06-18T08:41:01Z</time>
      </trkpt>
      <trkpt lat="42.746304" lon="0.742717">
        <ele>1248.832</ele>
        <time>2021-06-18T08:41:03Z</time>
      </trkpt>
      <trkpt lat="42.746464" lon="0.743067">
        <ele>1247.721</ele>
        <time>2021-06-18T08:41:08Z</time>
      </trkpt>
      <trkpt lat="42.746616" lon="0.743557">
        <ele>1247.327</ele>
        <time>2021-06-18T08:41:14Z</time>
      </trkpt>
      <trkpt lat="42.746614" lon="0.743713">
        <ele>1247.611</ele>
        <time>2021-06-18T08:41:16Z</time>
      </trkpt>
      <trkpt lat="42.746600" lon="0.743843">
        <ele>1247.925</ele>
        <time>2021-06-18T08:41:18Z</time>
      </trkpt>
      <trkpt lat="42.746590" lon="0.743904">
        <ele>1248.115</ele>
        <time>2021-06-18T08:41:19Z</time>
      </trkpt>
      <trkpt lat="42.746553" lon="0.744082">
        <ele>1249.968</ele>
        <time>2021-06-18T08:41:23Z</time>
      </trkpt>
      <trkpt lat="42.746523" lon="0.744240">
        <ele>1251.235</ele>
        <time>2021-06-18T08:41:28Z</time>
      </trkpt>
      <trkpt lat="42.746516" lon="0.744274">
        <ele>1251.455</ele>
        <time>2021-06-18T08:41:29Z</time>
      </trkpt>
      <trkpt lat="42.746503" lon="0.744336">
        <ele>1251.907</ele>
        <time>2021-06-18T08:41:31Z</time>
      </trkpt>
      <trkpt lat="42.746476" lon="0.744464">
        <ele>1252.817</ele>
        <time>2021-06-18T08:41:35Z</time>
      </trkpt>
      <trkpt lat="42.746463" lon="0.744525">
        <ele>1253.308</ele>
        <time>2021-06-18T08:41:37Z</time>
      </trkpt>
      <trkpt lat="42.746445" lon="0.744614">
        <ele>1254.042</ele>
        <time>2021-06-18T08:41:40Z</time>
      </trkpt>
      <trkpt lat="42.746412" lon="0.744729">
        <ele>1254.671</ele>
        <time>2021-06-18T08:41:44Z</time>
      </trkpt>
      <trkpt lat="42.746402" lon="0.744755">
        <ele>1254.887</ele>
        <time>2021-06-18T08:41:45Z</time>
      </trkpt>
      <trkpt lat="42.746357" lon="0.744851">
        <ele>1254.941</ele>
        <time>2021-06-18T08:41:49Z</time>
      </trkpt>
      <trkpt lat="42.746313" lon="0.744944">
        <ele>1255.065</ele>
        <time>2021-06-18T08:41:53Z</time>
      </trkpt>
      <trkpt lat="42.746292" lon="0.744990">
        <ele>1255.125</ele>
        <time>2021-06-18T08:41:55Z</time>
      </trkpt>
      <trkpt lat="42.746262" lon="0.745088">
        <ele>1255.378</ele>
        <time>2021-06-18T08:41:59Z</time>
      </trkpt>
      <trkpt lat="42.746256" lon="0.745142">
        <ele>1255.765</ele>
        <time>2021-06-18T08:42:01Z</time>
      </trkpt>
      <trkpt lat="42.746272" lon="0.745246">
        <ele>1257.325</ele>
        <time>2021-06-18T08:42:05Z</time>
      </trkpt>
      <trkpt lat="42.746298" lon="0.745282">
        <ele>1258.426</ele>
        <time>2021-06-18T08:42:07Z</time>
      </trkpt>
      <trkpt lat="42.746359" lon="0.745305">
        <ele>1260.508</ele>
        <time>2021-06-18T08:42:10Z</time>
      </trkpt>
      <trkpt lat="42.746400" lon="0.745296">
        <ele>1261.408</ele>
        <time>2021-06-18T08:42:12Z</time>
      </trkpt>
      <trkpt lat="42.746457" lon="0.745264">
        <ele>1261.899</ele>
        <time>2021-06-18T08:42:15Z</time>
      </trkpt>
      <trkpt lat="42.746555" lon="0.745214">
        <ele>1262.878</ele>
        <time>2021-06-18T08:42:20Z</time>
      </trkpt>
      <trkpt lat="42.746663" lon="0.745130">
        <ele>1263.964</ele>
        <time>2021-06-18T08:42:26Z</time>
      </trkpt>
      <trkpt lat="42.746691" lon="0.745094">
        <ele>1264.488</ele>
        <time>2021-06-18T08:42:28Z</time>
      </trkpt>
      <trkpt lat="42.746759" lon="0.744959">
        <ele>1265.392</ele>
        <time>2021-06-18T08:42:35Z</time>
      </trkpt>
      <trkpt lat="42.746770" lon="0.744939">
        <ele>1265.432</ele>
        <time>2021-06-18T08:42:36Z</time>
      </trkpt>
      <trkpt lat="42.746831" lon="0.744873">
        <ele>1266.685</ele>
        <time>2021-06-18T08:42:41Z</time>
      </trkpt>
      <trkpt lat="42.746904" lon="0.744870">
        <ele>1268.882</ele>
        <time>2021-06-18T08:42:46Z</time>
      </trkpt>
      <trkpt lat="42.746917" lon="0.744881">
        <ele>1269.398</ele>
        <time>2021-06-18T08:42:47Z</time>
      </trkpt>
      <trkpt lat="42.746938" lon="0.744923">
        <ele>1270.315</ele>
        <time>2021-06-18T08:42:50Z</time>
      </trkpt>
      <trkpt lat="42.746942" lon="0.744959">
        <ele>1270.626</ele>
        <time>2021-06-18T08:42:52Z</time>
      </trkpt>
      <trkpt lat="42.746942" lon="0.744978">
        <ele>1270.808</ele>
        <time>2021-06-18T08:42:53Z</time>
      </trkpt>
      <trkpt lat="42.746940" lon="0.744990">
        <ele>1270.816</ele>
        <time>2021-06-18T08:42:54Z</time>
      </trkpt>
      <trkpt lat="42.746932" lon="0.745060">
        <ele>1271.315</ele>
        <time>2021-06-18T08:42:58Z</time>
      </trkpt>
      <trkpt lat="42.746922" lon="0.745131">
        <ele>1271.751</ele>
        <time>2021-06-18T08:43:01Z</time>
      </trkpt>
      <trkpt lat="42.746918" lon="0.745196">
        <ele>1272.355</ele>
        <time>2021-06-18T08:43:04Z</time>
      </trkpt>
      <trkpt lat="42.746919" lon="0.745217">
        <ele>1272.519</ele>
        <time>2021-06-18T08:43:05Z</time>
      </trkpt>
      <trkpt lat="42.746913" lon="0.745340">
        <ele>1273.529</ele>
        <time>2021-06-18T08:43:11Z</time>
      </trkpt>
      <trkpt lat="42.746895" lon="0.745516">
        <ele>1274.382</ele>
        <time>2021-06-18T08:43:18Z</time>
      </trkpt>
      <trkpt lat="42.746889" lon="0.745563">
        <ele>1274.589</ele>
        <time>2021-06-18T08:43:20Z</time>
      </trkpt>
      <trkpt lat="42.746876" lon="0.745654">
        <ele>1274.825</ele>
        <time>2021-06-18T08:43:24Z</time>
      </trkpt>
      <trkpt lat="42.746869" lon="0.745702">
        <ele>1275.026</ele>
        <time>2021-06-18T08:43:26Z</time>
      </trkpt>
      <trkpt lat="42.746865" lon="0.745788">
        <ele>1275.608</ele>
        <time>2021-06-18T08:43:30Z</time>
      </trkpt>
      <trkpt lat="42.746854" lon="0.745838">
        <ele>1275.808</ele>
        <time>2021-06-18T08:43:32Z</time>
      </trkpt>
      <trkpt lat="42.746851" lon="0.745864">
        <ele>1275.989</ele>
        <time>2021-06-18T08:43:33Z</time>
      </trkpt>
      <trkpt lat="42.746849" lon="0.745921">
        <ele>1276.218</ele>
        <time>2021-06-18T08:43:35Z</time>
      </trkpt>
      <trkpt lat="42.746832" lon="0.746042">
        <ele>1276.774</ele>
        <time>2021-06-18T08:43:39Z</time>
      </trkpt>
      <trkpt lat="42.746811" lon="0.746170">
        <ele>1277.358</ele>
        <time>2021-06-18T08:43:43Z</time>
      </trkpt>
      <trkpt lat="42.746789" lon="0.746353">
        <ele>1278.762</ele>
        <time>2021-06-18T08:43:49Z</time>
      </trkpt>
      <trkpt lat="42.746786" lon="0.746380">
        <ele>1278.972</ele>
        <time>2021-06-18T08:43:50Z</time>
      </trkpt>
      <trkpt lat="42.746771" lon="0.746575">
        <ele>1281.565</ele>
        <time>2021-06-18T08:43:57Z</time>
      </trkpt>
      <trkpt lat="42.746769" lon="0.746600">
        <ele>1281.872</ele>
        <time>2021-06-18T08:43:58Z</time>
      </trkpt>
      <trkpt lat="42.746757" lon="0.746747">
        <ele>1283.277</ele>
        <time>2021-06-18T08:44:04Z</time>
      </trkpt>
      <trkpt lat="42.746758" lon="0.746798">
        <ele>1283.861</ele>
        <time>2021-06-18T08:44:06Z</time>
      </trkpt>
      <trkpt lat="42.746746" lon="0.746905">
        <ele>1284.527</ele>
        <time>2021-06-18T08:44:10Z</time>
      </trkpt>
      <trkpt lat="42.746744" lon="0.746985">
        <ele>1285.308</ele>
        <time>2021-06-18T08:44:13Z</time>
      </trkpt>
      <trkpt lat="42.746726" lon="0.747121">
        <ele>1285.994</ele>
        <time>2021-06-18T08:44:18Z</time>
      </trkpt>
      <trkpt lat="42.746724" lon="0.747167">
        <ele>1286.393</ele>
        <time>2021-06-18T08:44:20Z</time>
      </trkpt>
      <trkpt lat="42.746712" lon="0.747256">
        <ele>1286.429</ele>
        <time>2021-06-18T08:44:24Z</time>
      </trkpt>
      <trkpt lat="42.746703" lon="0.747332">
        <ele>1286.353</ele>
        <time>2021-06-18T08:44:27Z</time>
      </trkpt>
      <trkpt lat="42.746680" lon="0.747462">
        <ele>1285.627</ele>
        <time>2021-06-18T08:44:31Z</time>
      </trkpt>
      <trkpt lat="42.746634" lon="0.747755">
        <ele>1282.827</ele>
        <time>2021-06-18T08:44:39Z</time>
      </trkpt>
      <trkpt lat="42.746586" lon="0.748012">
        <ele>1282.570</ele>
        <time>2021-06-18T08:44:45Z</time>
      </trkpt>
      <trkpt lat="42.746563" lon="0.748216">
        <ele>1281.757</ele>
        <time>2021-06-18T08:44:50Z</time>
      </trkpt>
      <trkpt lat="42.746560" lon="0.748470">
        <ele>1281.586</ele>
        <time>2021-06-18T08:44:55Z</time>
      </trkpt>
      <trkpt lat="42.746526" lon="0.748956">
        <ele>1278.760</ele>
        <time>2021-06-18T08:45:02Z</time>
      </trkpt>
      <trkpt lat="42.746503" lon="0.749125">
        <ele>1277.126</ele>
        <time>2021-06-18T08:45:04Z</time>
      </trkpt>
      <trkpt lat="42.746479" lon="0.749395">
        <ele>1275.408</ele>
        <time>2021-06-18T08:45:07Z</time>
      </trkpt>
      <trkpt lat="42.746468" lon="0.749579">
        <ele>1273.995</ele>
        <time>2021-06-18T08:45:09Z</time>
      </trkpt>
      <trkpt lat="42.746479" lon="0.749663">
        <ele>1273.774</ele>
        <time>2021-06-18T08:45:10Z</time>
      </trkpt>
      <trkpt lat="42.746498" lon="0.749744">
        <ele>1273.620</ele>
        <time>2021-06-18T08:45:11Z</time>
      </trkpt>
      <trkpt lat="42.746524" lon="0.749820">
        <ele>1273.534</ele>
        <time>2021-06-18T08:45:12Z</time>
      </trkpt>
      <trkpt lat="42.746563" lon="0.749883">
        <ele>1273.888</ele>
        <time>2021-06-18T08:45:13Z</time>
      </trkpt>
      <trkpt lat="42.746666" lon="0.750000">
        <ele>1275.098</ele>
        <time>2021-06-18T08:45:15Z</time>
      </trkpt>
      <trkpt lat="42.746734" lon="0.750165">
        <ele>1275.661</ele>
        <time>2021-06-18T08:45:17Z</time>
      </trkpt>
      <trkpt lat="42.746757" lon="0.750262">
        <ele>1274.958</ele>
        <time>2021-06-18T08:45:18Z</time>
      </trkpt>
      <trkpt lat="42.746780" lon="0.750362">
        <ele>1274.538</ele>
        <time>2021-06-18T08:45:19Z</time>
      </trkpt>
      <trkpt lat="42.746808" lon="0.750463">
        <ele>1274.270</ele>
        <time>2021-06-18T08:45:20Z</time>
      </trkpt>
      <trkpt lat="42.746837" lon="0.750561">
        <ele>1273.717</ele>
        <time>2021-06-18T08:45:21Z</time>
      </trkpt>
      <trkpt lat="42.746892" lon="0.750762">
        <ele>1270.708</ele>
        <time>2021-06-18T08:45:23Z</time>
      </trkpt>
      <trkpt lat="42.746921" lon="0.750859">
        <ele>1269.210</ele>
        <time>2021-06-18T08:45:24Z</time>
      </trkpt>
      <trkpt lat="42.746991" lon="0.751043">
        <ele>1267.399</ele>
        <time>2021-06-18T08:45:26Z</time>
      </trkpt>
      <trkpt lat="42.747100" lon="0.751223">
        <ele>1265.695</ele>
        <time>2021-06-18T08:45:28Z</time>
      </trkpt>
      <trkpt lat="42.747250" lon="0.751380">
        <ele>1264.519</ele>
        <time>2021-06-18T08:45:30Z</time>
      </trkpt>
      <trkpt lat="42.747407" lon="0.751536">
        <ele>1263.193</ele>
        <time>2021-06-18T08:45:32Z</time>
      </trkpt>
      <trkpt lat="42.747564" lon="0.751700">
        <ele>1261.563</ele>
        <time>2021-06-18T08:45:34Z</time>
      </trkpt>
      <trkpt lat="42.747724" lon="0.751859">
        <ele>1261.186</ele>
        <time>2021-06-18T08:45:36Z</time>
      </trkpt>
      <trkpt lat="42.747806" lon="0.751942">
        <ele>1260.413</ele>
        <time>2021-06-18T08:45:37Z</time>
      </trkpt>
      <trkpt lat="42.747887" lon="0.752021">
        <ele>1260.592</ele>
        <time>2021-06-18T08:45:38Z</time>
      </trkpt>
      <trkpt lat="42.747965" lon="0.752104">
        <ele>1259.773</ele>
        <time>2021-06-18T08:45:39Z</time>
      </trkpt>
      <trkpt lat="42.748113" lon="0.752251">
        <ele>1258.320</ele>
        <time>2021-06-18T08:45:41Z</time>
      </trkpt>
      <trkpt lat="42.748262" lon="0.752391">
        <ele>1258.308</ele>
        <time>2021-06-18T08:45:43Z</time>
      </trkpt>
      <trkpt lat="42.748569" lon="0.752735">
        <ele>1259.816</ele>
        <time>2021-06-18T08:45:48Z</time>
      </trkpt>
      <trkpt lat="42.748746" lon="0.752940">
        <ele>1260.555</ele>
        <time>2021-06-18T08:45:52Z</time>
      </trkpt>
      <trkpt lat="42.748975" lon="0.753212">
        <ele>1261.831</ele>
        <time>2021-06-18T08:45:59Z</time>
      </trkpt>
      <trkpt lat="42.749050" lon="0.753311">
        <ele>1262.485</ele>
        <time>2021-06-18T08:46:02Z</time>
      </trkpt>
      <trkpt lat="42.749092" lon="0.753372">
        <ele>1262.679</ele>
        <time>2021-06-18T08:46:04Z</time>
      </trkpt>
      <trkpt lat="42.749153" lon="0.753443">
        <ele>1263.899</ele>
        <time>2021-06-18T08:46:07Z</time>
      </trkpt>
      <trkpt lat="42.749200" lon="0.753492">
        <ele>1264.422</ele>
        <time>2021-06-18T08:46:10Z</time>
      </trkpt>
      <trkpt lat="42.749216" lon="0.753510">
        <ele>1264.619</ele>
        <time>2021-06-18T08:46:11Z</time>
      </trkpt>
      <trkpt lat="42.749347" lon="0.753661">
        <ele>1264.627</ele>
        <time>2021-06-18T08:46:16Z</time>
      </trkpt>
      <trkpt lat="42.749477" lon="0.753774">
        <ele>1264.968</ele>
        <time>2021-06-18T08:46:19Z</time>
      </trkpt>
      <trkpt lat="42.749573" lon="0.753853">
        <ele>1263.714</ele>
        <time>2021-06-18T08:46:21Z</time>
      </trkpt>
      <trkpt lat="42.749875" lon="0.754054">
        <ele>1262.408</ele>
        <time>2021-06-18T08:46:26Z</time>
      </trkpt>
      <trkpt lat="42.750064" lon="0.754242">
        <ele>1257.769</ele>
        <time>2021-06-18T08:46:29Z</time>
      </trkpt>
      <trkpt lat="42.750194" lon="0.754350">
        <ele>1256.538</ele>
        <time>2021-06-18T08:46:31Z</time>
      </trkpt>
      <trkpt lat="42.750262" lon="0.754388">
        <ele>1256.684</ele>
        <time>2021-06-18T08:46:32Z</time>
      </trkpt>
      <trkpt lat="42.750410" lon="0.754415">
        <ele>1257.078</ele>
        <time>2021-06-18T08:46:34Z</time>
      </trkpt>
      <trkpt lat="42.750553" lon="0.754453">
        <ele>1256.582</ele>
        <time>2021-06-18T08:46:36Z</time>
      </trkpt>
      <trkpt lat="42.750623" lon="0.754483">
        <ele>1255.482</ele>
        <time>2021-06-18T08:46:37Z</time>
      </trkpt>
      <trkpt lat="42.750694" lon="0.754501">
        <ele>1254.975</ele>
        <time>2021-06-18T08:46:38Z</time>
      </trkpt>
      <trkpt lat="42.750891" lon="0.754484">
        <ele>1255.572</ele>
        <time>2021-06-18T08:46:41Z</time>
      </trkpt>
      <trkpt lat="42.750954" lon="0.754463">
        <ele>1255.115</ele>
        <time>2021-06-18T08:46:42Z</time>
      </trkpt>
      <trkpt lat="42.751083" lon="0.754414">
        <ele>1255.765</ele>
        <time>2021-06-18T08:46:44Z</time>
      </trkpt>
      <trkpt lat="42.751270" lon="0.754360">
        <ele>1256.311</ele>
        <time>2021-06-18T08:46:47Z</time>
      </trkpt>
      <trkpt lat="42.751326" lon="0.754356">
        <ele>1255.308</ele>
        <time>2021-06-18T08:46:48Z</time>
      </trkpt>
      <trkpt lat="42.751476" lon="0.754409">
        <ele>1252.358</ele>
        <time>2021-06-18T08:46:51Z</time>
      </trkpt>
      <trkpt lat="42.751560" lon="0.754596">
        <ele>1251.027</ele>
        <time>2021-06-18T08:46:54Z</time>
      </trkpt>
      <trkpt lat="42.751547" lon="0.754764">
        <ele>1248.093</ele>
        <time>2021-06-18T08:46:56Z</time>
      </trkpt>
      <trkpt lat="42.751539" lon="0.754855">
        <ele>1247.097</ele>
        <time>2021-06-18T08:46:57Z</time>
      </trkpt>
      <trkpt lat="42.751532" lon="0.755170">
        <ele>1244.741</ele>
        <time>2021-06-18T08:47:00Z</time>
      </trkpt>
      <trkpt lat="42.751533" lon="0.755280">
        <ele>1244.091</ele>
        <time>2021-06-18T08:47:01Z</time>
      </trkpt>
      <trkpt lat="42.751522" lon="0.755567">
        <ele>1240.344</ele>
        <time>2021-06-18T08:47:04Z</time>
      </trkpt>
      <trkpt lat="42.751531" lon="0.755647">
        <ele>1239.381</ele>
        <time>2021-06-18T08:47:05Z</time>
      </trkpt>
      <trkpt lat="42.751551" lon="0.755729">
        <ele>1238.983</ele>
        <time>2021-06-18T08:47:06Z</time>
      </trkpt>
      <trkpt lat="42.751586" lon="0.755810">
        <ele>1239.325</ele>
        <time>2021-06-18T08:47:07Z</time>
      </trkpt>
      <trkpt lat="42.751626" lon="0.755893">
        <ele>1239.717</ele>
        <time>2021-06-18T08:47:08Z</time>
      </trkpt>
      <trkpt lat="42.751706" lon="0.756058">
        <ele>1240.508</ele>
        <time>2021-06-18T08:47:10Z</time>
      </trkpt>
      <trkpt lat="42.751830" lon="0.756324">
        <ele>1240.745</ele>
        <time>2021-06-18T08:47:13Z</time>
      </trkpt>
      <trkpt lat="42.751881" lon="0.756403">
        <ele>1241.664</ele>
        <time>2021-06-18T08:47:14Z</time>
      </trkpt>
      <trkpt lat="42.751985" lon="0.756551">
        <ele>1241.970</ele>
        <time>2021-06-18T08:47:16Z</time>
      </trkpt>
      <trkpt lat="42.752037" lon="0.756606">
        <ele>1241.524</ele>
        <time>2021-06-18T08:47:17Z</time>
      </trkpt>
      <trkpt lat="42.752090" lon="0.756653">
        <ele>1241.098</ele>
        <time>2021-06-18T08:47:18Z</time>
      </trkpt>
      <trkpt lat="42.752148" lon="0.756673">
        <ele>1241.938</ele>
        <time>2021-06-18T08:47:19Z</time>
      </trkpt>
      <trkpt lat="42.752253" lon="0.756721">
        <ele>1242.611</ele>
        <time>2021-06-18T08:47:21Z</time>
      </trkpt>
      <trkpt lat="42.752595" lon="0.756840">
        <ele>1245.138</ele>
        <time>2021-06-18T08:47:27Z</time>
      </trkpt>
      <trkpt lat="42.752650" lon="0.756870">
        <ele>1244.618</ele>
        <time>2021-06-18T08:47:28Z</time>
      </trkpt>
      <trkpt lat="42.752833" lon="0.757010">
        <ele>1240.598</ele>
        <time>2021-06-18T08:47:32Z</time>
      </trkpt>
      <trkpt lat="42.753134" lon="0.757185">
        <ele>1242.317</ele>
        <time>2021-06-18T08:47:39Z</time>
      </trkpt>
      <trkpt lat="42.753169" lon="0.757216">
        <ele>1242.508</ele>
        <time>2021-06-18T08:47:40Z</time>
      </trkpt>
      <trkpt lat="42.753282" lon="0.757333">
        <ele>1242.258</ele>
        <time>2021-06-18T08:47:44Z</time>
      </trkpt>
      <trkpt lat="42.753373" lon="0.757406">
        <ele>1243.247</ele>
        <time>2021-06-18T08:47:47Z</time>
      </trkpt>
      <trkpt lat="42.753407" lon="0.757428">
        <ele>1243.753</ele>
        <time>2021-06-18T08:47:48Z</time>
      </trkpt>
      <trkpt lat="42.753470" lon="0.757471">
        <ele>1244.227</ele>
        <time>2021-06-18T08:47:50Z</time>
      </trkpt>
      <trkpt lat="42.753581" lon="0.757541">
        <ele>1245.251</ele>
        <time>2021-06-18T08:47:54Z</time>
      </trkpt>
      <trkpt lat="42.753611" lon="0.757556">
        <ele>1245.891</ele>
        <time>2021-06-18T08:47:55Z</time>
      </trkpt>
      <trkpt lat="42.753736" lon="0.757606">
        <ele>1245.184</ele>
        <time>2021-06-18T08:47:59Z</time>
      </trkpt>
      <trkpt lat="42.753821" lon="0.757604">
        <ele>1246.851</ele>
        <time>2021-06-18T08:48:02Z</time>
      </trkpt>
      <trkpt lat="42.753875" lon="0.757592">
        <ele>1248.526</ele>
        <time>2021-06-18T08:48:04Z</time>
      </trkpt>
      <trkpt lat="42.753970" lon="0.757585">
        <ele>1250.147</ele>
        <time>2021-06-18T08:48:07Z</time>
      </trkpt>
      <trkpt lat="42.754036" lon="0.757590">
        <ele>1250.611</ele>
        <time>2021-06-18T08:48:09Z</time>
      </trkpt>
      <trkpt lat="42.754134" lon="0.757613">
        <ele>1250.508</ele>
        <time>2021-06-18T08:48:12Z</time>
      </trkpt>
      <trkpt lat="42.754252" lon="0.757687">
        <ele>1251.679</ele>
        <time>2021-06-18T08:48:16Z</time>
      </trkpt>
      <trkpt lat="42.754281" lon="0.757708">
        <ele>1252.388</ele>
        <time>2021-06-18T08:48:17Z</time>
      </trkpt>
      <trkpt lat="42.754350" lon="0.757873">
        <ele>1251.144</ele>
        <time>2021-06-18T08:48:21Z</time>
      </trkpt>
      <trkpt lat="42.754451" lon="0.758167">
        <ele>1250.768</ele>
        <time>2021-06-18T08:48:28Z</time>
      </trkpt>
      <trkpt lat="42.754565" lon="0.758314">
        <ele>1248.912</ele>
        <time>2021-06-18T08:48:33Z</time>
      </trkpt>
      <trkpt lat="42.754597" lon="0.758318">
        <ele>1249.692</ele>
        <time>2021-06-18T08:48:34Z</time>
      </trkpt>
      <trkpt lat="42.754734" lon="0.758299">
        <ele>1253.895</ele>
        <time>2021-06-18T08:48:38Z</time>
      </trkpt>
      <trkpt lat="42.754890" lon="0.758212">
        <ele>1255.832</ele>
        <time>2021-06-18T08:48:44Z</time>
      </trkpt>
      <trkpt lat="42.754941" lon="0.758149">
        <ele>1258.667</ele>
        <time>2021-06-18T08:48:47Z</time>
      </trkpt>
      <trkpt lat="42.754986" lon="0.758162">
        <ele>1256.881</ele>
        <time>2021-06-18T08:48:49Z</time>
      </trkpt>
      <trkpt lat="42.755046" lon="0.758213">
        <ele>1255.519</ele>
        <time>2021-06-18T08:48:51Z</time>
      </trkpt>
      <trkpt lat="42.755144" lon="0.758296">
        <ele>1254.308</ele>
        <time>2021-06-18T08:48:54Z</time>
      </trkpt>
      <trkpt lat="42.755179" lon="0.758314">
        <ele>1254.533</ele>
        <time>2021-06-18T08:48:55Z</time>
      </trkpt>
      <trkpt lat="42.755359" lon="0.758399">
        <ele>1254.942</ele>
        <time>2021-06-18T08:49:00Z</time>
      </trkpt>
      <trkpt lat="42.755601" lon="0.758533">
        <ele>1255.148</ele>
        <time>2021-06-18T08:49:07Z</time>
      </trkpt>
      <trkpt lat="42.755628" lon="0.758576">
        <ele>1254.622</ele>
        <time>2021-06-18T08:49:08Z</time>
      </trkpt>
      <trkpt lat="42.755664" lon="0.758663">
        <ele>1255.046</ele>
        <time>2021-06-18T08:49:10Z</time>
      </trkpt>
      <trkpt lat="42.755657" lon="0.758889">
        <ele>1252.656</ele>
        <time>2021-06-18T08:49:15Z</time>
      </trkpt>
      <trkpt lat="42.755642" lon="0.758920">
        <ele>1252.549</ele>
        <time>2021-06-18T08:49:16Z</time>
      </trkpt>
      <trkpt lat="42.755592" lon="0.759064">
        <ele>1252.756</ele>
        <time>2021-06-18T08:49:20Z</time>
      </trkpt>
      <trkpt lat="42.755583" lon="0.759148">
        <ele>1254.088</ele>
        <time>2021-06-18T08:49:22Z</time>
      </trkpt>
      <trkpt lat="42.755592" lon="0.759300">
        <ele>1254.724</ele>
        <time>2021-06-18T08:49:26Z</time>
      </trkpt>
      <trkpt lat="42.755636" lon="0.759554">
        <ele>1255.826</ele>
        <time>2021-06-18T08:49:32Z</time>
      </trkpt>
      <trkpt lat="42.755663" lon="0.759647">
        <ele>1256.108</ele>
        <time>2021-06-18T08:49:34Z</time>
      </trkpt>
      <trkpt lat="42.755725" lon="0.759745">
        <ele>1258.695</ele>
        <time>2021-06-18T08:49:37Z</time>
      </trkpt>
      <trkpt lat="42.755824" lon="0.759921">
        <ele>1259.494</ele>
        <time>2021-06-18T08:49:41Z</time>
      </trkpt>
      <trkpt lat="42.755991" lon="0.760235">
        <ele>1257.290</ele>
        <time>2021-06-18T08:49:47Z</time>
      </trkpt>
      <trkpt lat="42.756069" lon="0.760326">
        <ele>1257.644</ele>
        <time>2021-06-18T08:49:49Z</time>
      </trkpt>
      <trkpt lat="42.756172" lon="0.760363">
        <ele>1258.848</ele>
        <time>2021-06-18T08:49:51Z</time>
      </trkpt>
      <trkpt lat="42.756393" lon="0.760429">
        <ele>1257.378</ele>
        <time>2021-06-18T08:49:55Z</time>
      </trkpt>
      <trkpt lat="42.756513" lon="0.760499">
        <ele>1255.391</ele>
        <time>2021-06-18T08:49:57Z</time>
      </trkpt>
      <trkpt lat="42.756627" lon="0.760589">
        <ele>1252.938</ele>
        <time>2021-06-18T08:49:59Z</time>
      </trkpt>
      <trkpt lat="42.756670" lon="0.760667">
        <ele>1251.252</ele>
        <time>2021-06-18T08:50:00Z</time>
      </trkpt>
      <trkpt lat="42.756732" lon="0.760858">
        <ele>1248.853</ele>
        <time>2021-06-18T08:50:02Z</time>
      </trkpt>
      <trkpt lat="42.756750" lon="0.760950">
        <ele>1248.308</ele>
        <time>2021-06-18T08:50:03Z</time>
      </trkpt>
      <trkpt lat="42.756803" lon="0.761131">
        <ele>1248.208</ele>
        <time>2021-06-18T08:50:05Z</time>
      </trkpt>
      <trkpt lat="42.756841" lon="0.761228">
        <ele>1247.822</ele>
        <time>2021-06-18T08:50:06Z</time>
      </trkpt>
      <trkpt lat="42.756880" lon="0.761326">
        <ele>1247.551</ele>
        <time>2021-06-18T08:50:07Z</time>
      </trkpt>
      <trkpt lat="42.756920" lon="0.761424">
        <ele>1247.187</ele>
        <time>2021-06-18T08:50:08Z</time>
      </trkpt>
      <trkpt lat="42.757040" lon="0.761680">
        <ele>1243.261</ele>
        <time>2021-06-18T08:50:11Z</time>
      </trkpt>
      <trkpt lat="42.757086" lon="0.761745">
        <ele>1241.835</ele>
        <time>2021-06-18T08:50:12Z</time>
      </trkpt>
      <trkpt lat="42.757271" lon="0.761805">
        <ele>1242.835</ele>
        <time>2021-06-18T08:50:15Z</time>
      </trkpt>
      <trkpt lat="42.757336" lon="0.761785">
        <ele>1242.868</ele>
        <time>2021-06-18T08:50:16Z</time>
      </trkpt>
      <trkpt lat="42.757399" lon="0.761768">
        <ele>1242.645</ele>
        <time>2021-06-18T08:50:17Z</time>
      </trkpt>
      <trkpt lat="42.757515" lon="0.761755">
        <ele>1242.792</ele>
        <time>2021-06-18T08:50:19Z</time>
      </trkpt>
      <trkpt lat="42.757559" lon="0.761789">
        <ele>1245.173</ele>
        <time>2021-06-18T08:50:20Z</time>
      </trkpt>
      <trkpt lat="42.757606" lon="0.761925">
        <ele>1244.920</ele>
        <time>2021-06-18T08:50:22Z</time>
      </trkpt>
      <trkpt lat="42.757613" lon="0.762005">
        <ele>1243.808</ele>
        <time>2021-06-18T08:50:23Z</time>
      </trkpt>
      <trkpt lat="42.757623" lon="0.762188">
        <ele>1241.266</ele>
        <time>2021-06-18T08:50:25Z</time>
      </trkpt>
      <trkpt lat="42.757633" lon="0.762393">
        <ele>1239.695</ele>
        <time>2021-06-18T08:50:27Z</time>
      </trkpt>
      <trkpt lat="42.757633" lon="0.762498">
        <ele>1238.481</ele>
        <time>2021-06-18T08:50:28Z</time>
      </trkpt>
      <trkpt lat="42.757619" lon="0.762943">
        <ele>1232.445</ele>
        <time>2021-06-18T08:50:32Z</time>
      </trkpt>
      <trkpt lat="42.757621" lon="0.763049">
        <ele>1231.699</ele>
        <time>2021-06-18T08:50:33Z</time>
      </trkpt>
      <trkpt lat="42.757637" lon="0.763145">
        <ele>1230.869</ele>
        <time>2021-06-18T08:50:34Z</time>
      </trkpt>
      <trkpt lat="42.757664" lon="0.763243">
        <ele>1230.342</ele>
        <time>2021-06-18T08:50:35Z</time>
      </trkpt>
      <trkpt lat="42.757704" lon="0.763338">
        <ele>1230.359</ele>
        <time>2021-06-18T08:50:36Z</time>
      </trkpt>
      <trkpt lat="42.757810" lon="0.763509">
        <ele>1229.867</ele>
        <time>2021-06-18T08:50:38Z</time>
      </trkpt>
      <trkpt lat="42.757929" lon="0.763656">
        <ele>1229.181</ele>
        <time>2021-06-18T08:50:40Z</time>
      </trkpt>
      <trkpt lat="42.757992" lon="0.763718">
        <ele>1228.519</ele>
        <time>2021-06-18T08:50:41Z</time>
      </trkpt>
      <trkpt lat="42.758058" lon="0.763762">
        <ele>1228.808</ele>
        <time>2021-06-18T08:50:42Z</time>
      </trkpt>
      <trkpt lat="42.758201" lon="0.763811">
        <ele>1227.123</ele>
        <time>2021-06-18T08:50:44Z</time>
      </trkpt>
      <trkpt lat="42.758275" lon="0.763831">
        <ele>1226.592</ele>
        <time>2021-06-18T08:50:45Z</time>
      </trkpt>
      <trkpt lat="42.758355" lon="0.763851">
        <ele>1225.768</ele>
        <time>2021-06-18T08:50:46Z</time>
      </trkpt>
      <trkpt lat="42.758531" lon="0.763905">
        <ele>1223.452</ele>
        <time>2021-06-18T08:50:48Z</time>
      </trkpt>
      <trkpt lat="42.758711" lon="0.763967">
        <ele>1221.936</ele>
        <time>2021-06-18T08:50:50Z</time>
      </trkpt>
      <trkpt lat="42.758866" lon="0.764015">
        <ele>1222.276</ele>
        <time>2021-06-18T08:50:52Z</time>
      </trkpt>
      <trkpt lat="42.758927" lon="0.764046">
        <ele>1222.559</ele>
        <time>2021-06-18T08:50:53Z</time>
      </trkpt>
      <trkpt lat="42.758972" lon="0.764089">
        <ele>1222.076</ele>
        <time>2021-06-18T08:50:54Z</time>
      </trkpt>
      <trkpt lat="42.758997" lon="0.764146">
        <ele>1219.882</ele>
        <time>2021-06-18T08:50:55Z</time>
      </trkpt>
      <trkpt lat="42.758999" lon="0.764212">
        <ele>1220.143</ele>
        <time>2021-06-18T08:50:56Z</time>
      </trkpt>
      <trkpt lat="42.758943" lon="0.764323">
        <ele>1220.317</ele>
        <time>2021-06-18T08:50:58Z</time>
      </trkpt>
      <trkpt lat="42.758895" lon="0.764365">
        <ele>1218.608</ele>
        <time>2021-06-18T08:50:59Z</time>
      </trkpt>
      <trkpt lat="42.758846" lon="0.764405">
        <ele>1217.155</ele>
        <time>2021-06-18T08:51:00Z</time>
      </trkpt>
      <trkpt lat="42.758707" lon="0.764557">
        <ele>1213.064</ele>
        <time>2021-06-18T08:51:03Z</time>
      </trkpt>
      <trkpt lat="42.758665" lon="0.764622">
        <ele>1212.350</ele>
        <time>2021-06-18T08:51:04Z</time>
      </trkpt>
      <trkpt lat="42.758630" lon="0.764688">
        <ele>1212.114</ele>
        <time>2021-06-18T08:51:05Z</time>
      </trkpt>
      <trkpt lat="42.758583" lon="0.764905">
        <ele>1209.928</ele>
        <time>2021-06-18T08:51:08Z</time>
      </trkpt>
      <trkpt lat="42.758622" lon="0.765071">
        <ele>1210.528</ele>
        <time>2021-06-18T08:51:10Z</time>
      </trkpt>
      <trkpt lat="42.758641" lon="0.765170">
        <ele>1209.981</ele>
        <time>2021-06-18T08:51:11Z</time>
      </trkpt>
      <trkpt lat="42.758669" lon="0.765386">
        <ele>1208.358</ele>
        <time>2021-06-18T08:51:13Z</time>
      </trkpt>
      <trkpt lat="42.758696" lon="0.765700">
        <ele>1206.453</ele>
        <time>2021-06-18T08:51:16Z</time>
      </trkpt>
      <trkpt lat="42.758689" lon="0.765803">
        <ele>1205.204</ele>
        <time>2021-06-18T08:51:17Z</time>
      </trkpt>
      <trkpt lat="42.758666" lon="0.765912">
        <ele>1203.414</ele>
        <time>2021-06-18T08:51:18Z</time>
      </trkpt>
      <trkpt lat="42.758633" lon="0.766027">
        <ele>1201.408</ele>
        <time>2021-06-18T08:51:19Z</time>
      </trkpt>
      <trkpt lat="42.758599" lon="0.766146">
        <ele>1199.712</ele>
        <time>2021-06-18T08:51:20Z</time>
      </trkpt>
      <trkpt lat="42.758566" lon="0.766265">
        <ele>1198.851</ele>
        <time>2021-06-18T08:51:21Z</time>
      </trkpt>
      <trkpt lat="42.758512" lon="0.766483">
        <ele>1196.777</ele>
        <time>2021-06-18T08:51:23Z</time>
      </trkpt>
      <trkpt lat="42.758493" lon="0.766585">
        <ele>1195.931</ele>
        <time>2021-06-18T08:51:24Z</time>
      </trkpt>
      <trkpt lat="42.758484" lon="0.766690">
        <ele>1195.275</ele>
        <time>2021-06-18T08:51:25Z</time>
      </trkpt>
      <trkpt lat="42.758492" lon="0.766791">
        <ele>1194.045</ele>
        <time>2021-06-18T08:51:26Z</time>
      </trkpt>
      <trkpt lat="42.758511" lon="0.766898">
        <ele>1193.148</ele>
        <time>2021-06-18T08:51:27Z</time>
      </trkpt>
      <trkpt lat="42.758535" lon="0.767011">
        <ele>1191.985</ele>
        <time>2021-06-18T08:51:28Z</time>
      </trkpt>
      <trkpt lat="42.758557" lon="0.767128">
        <ele>1190.566</ele>
        <time>2021-06-18T08:51:29Z</time>
      </trkpt>
      <trkpt lat="42.758595" lon="0.767373">
        <ele>1188.129</ele>
        <time>2021-06-18T08:51:31Z</time>
      </trkpt>
      <trkpt lat="42.758610" lon="0.767494">
        <ele>1187.021</ele>
        <time>2021-06-18T08:51:32Z</time>
      </trkpt>
      <trkpt lat="42.758622" lon="0.767619">
        <ele>1186.308</ele>
        <time>2021-06-18T08:51:33Z</time>
      </trkpt>
      <trkpt lat="42.758633" lon="0.767850">
        <ele>1184.483</ele>
        <time>2021-06-18T08:51:35Z</time>
      </trkpt>
      <trkpt lat="42.758640" lon="0.767957">
        <ele>1183.542</ele>
        <time>2021-06-18T08:51:36Z</time>
      </trkpt>
      <trkpt lat="42.758655" lon="0.768054">
        <ele>1183.168</ele>
        <time>2021-06-18T08:51:37Z</time>
      </trkpt>
      <trkpt lat="42.758687" lon="0.768135">
        <ele>1182.662</ele>
        <time>2021-06-18T08:51:38Z</time>
      </trkpt>
      <trkpt lat="42.758729" lon="0.768212">
        <ele>1182.436</ele>
        <time>2021-06-18T08:51:39Z</time>
      </trkpt>
      <trkpt lat="42.758781" lon="0.768282">
        <ele>1182.636</ele>
        <time>2021-06-18T08:51:40Z</time>
      </trkpt>
      <trkpt lat="42.758833" lon="0.768348">
        <ele>1182.559</ele>
        <time>2021-06-18T08:51:41Z</time>
      </trkpt>
      <trkpt lat="42.758884" lon="0.768415">
        <ele>1182.446</ele>
        <time>2021-06-18T08:51:42Z</time>
      </trkpt>
      <trkpt lat="42.758940" lon="0.768472">
        <ele>1183.669</ele>
        <time>2021-06-18T08:51:43Z</time>
      </trkpt>
      <trkpt lat="42.758996" lon="0.768530">
        <ele>1184.604</ele>
        <time>2021-06-18T08:51:44Z</time>
      </trkpt>
      <trkpt lat="42.759097" lon="0.768662">
        <ele>1185.224</ele>
        <time>2021-06-18T08:51:46Z</time>
      </trkpt>
      <trkpt lat="42.759162" lon="0.768839">
        <ele>1184.008</ele>
        <time>2021-06-18T08:51:48Z</time>
      </trkpt>
      <trkpt lat="42.759183" lon="0.768937">
        <ele>1183.273</ele>
        <time>2021-06-18T08:51:49Z</time>
      </trkpt>
      <trkpt lat="42.759321" lon="0.769416">
        <ele>1180.092</ele>
        <time>2021-06-18T08:51:54Z</time>
      </trkpt>
      <trkpt lat="42.759356" lon="0.769508">
        <ele>1179.568</ele>
        <time>2021-06-18T08:51:55Z</time>
      </trkpt>
      <trkpt lat="42.759425" lon="0.769701">
        <ele>1178.492</ele>
        <time>2021-06-18T08:51:57Z</time>
      </trkpt>
      <trkpt lat="42.759498" lon="0.769895">
        <ele>1176.086</ele>
        <time>2021-06-18T08:51:59Z</time>
      </trkpt>
      <trkpt lat="42.759580" lon="0.770057">
        <ele>1174.616</ele>
        <time>2021-06-18T08:52:01Z</time>
      </trkpt>
      <trkpt lat="42.759723" lon="0.770259">
        <ele>1173.749</ele>
        <time>2021-06-18T08:52:04Z</time>
      </trkpt>
      <trkpt lat="42.759852" lon="0.770344">
        <ele>1172.526</ele>
        <time>2021-06-18T08:52:06Z</time>
      </trkpt>
      <trkpt lat="42.759927" lon="0.770368">
        <ele>1172.467</ele>
        <time>2021-06-18T08:52:07Z</time>
      </trkpt>
      <trkpt lat="42.760008" lon="0.770386">
        <ele>1172.381</ele>
        <time>2021-06-18T08:52:08Z</time>
      </trkpt>
      <trkpt lat="42.760093" lon="0.770394">
        <ele>1171.119</ele>
        <time>2021-06-18T08:52:09Z</time>
      </trkpt>
      <trkpt lat="42.760177" lon="0.770396">
        <ele>1170.208</ele>
        <time>2021-06-18T08:52:10Z</time>
      </trkpt>
      <trkpt lat="42.760266" lon="0.770389">
        <ele>1169.963</ele>
        <time>2021-06-18T08:52:11Z</time>
      </trkpt>
      <trkpt lat="42.760429" lon="0.770396">
        <ele>1169.052</ele>
        <time>2021-06-18T08:52:13Z</time>
      </trkpt>
      <trkpt lat="42.760516" lon="0.770418">
        <ele>1167.548</ele>
        <time>2021-06-18T08:52:14Z</time>
      </trkpt>
      <trkpt lat="42.760597" lon="0.770447">
        <ele>1166.352</ele>
        <time>2021-06-18T08:52:15Z</time>
      </trkpt>
      <trkpt lat="42.760675" lon="0.770487">
        <ele>1165.286</ele>
        <time>2021-06-18T08:52:16Z</time>
      </trkpt>
      <trkpt lat="42.760819" lon="0.770594">
        <ele>1161.986</ele>
        <time>2021-06-18T08:52:18Z</time>
      </trkpt>
      <trkpt lat="42.760942" lon="0.770753">
        <ele>1159.769</ele>
        <time>2021-06-18T08:52:20Z</time>
      </trkpt>
      <trkpt lat="42.761000" lon="0.770844">
        <ele>1158.366</ele>
        <time>2021-06-18T08:52:21Z</time>
      </trkpt>
      <trkpt lat="42.761061" lon="0.770934">
        <ele>1157.335</ele>
        <time>2021-06-18T08:52:22Z</time>
      </trkpt>
      <trkpt lat="42.761133" lon="0.771016">
        <ele>1156.986</ele>
        <time>2021-06-18T08:52:23Z</time>
      </trkpt>
      <trkpt lat="42.761213" lon="0.771093">
        <ele>1156.214</ele>
        <time>2021-06-18T08:52:24Z</time>
      </trkpt>
      <trkpt lat="42.761297" lon="0.771176">
        <ele>1155.108</ele>
        <time>2021-06-18T08:52:25Z</time>
      </trkpt>
      <trkpt lat="42.761380" lon="0.771268">
        <ele>1153.930</ele>
        <time>2021-06-18T08:52:26Z</time>
      </trkpt>
      <trkpt lat="42.761533" lon="0.771454">
        <ele>1153.429</ele>
        <time>2021-06-18T08:52:28Z</time>
      </trkpt>
      <trkpt lat="42.761655" lon="0.771651">
        <ele>1152.015</ele>
        <time>2021-06-18T08:52:30Z</time>
      </trkpt>
      <trkpt lat="42.761763" lon="0.771832">
        <ele>1151.119</ele>
        <time>2021-06-18T08:52:32Z</time>
      </trkpt>
      <trkpt lat="42.761821" lon="0.771896">
        <ele>1151.293</ele>
        <time>2021-06-18T08:52:33Z</time>
      </trkpt>
      <trkpt lat="42.761892" lon="0.771950">
        <ele>1151.953</ele>
        <time>2021-06-18T08:52:34Z</time>
      </trkpt>
      <trkpt lat="42.762117" lon="0.772136">
        <ele>1150.476</ele>
        <time>2021-06-18T08:52:37Z</time>
      </trkpt>
      <trkpt lat="42.762185" lon="0.772214">
        <ele>1149.233</ele>
        <time>2021-06-18T08:52:38Z</time>
      </trkpt>
      <trkpt lat="42.762246" lon="0.772309">
        <ele>1148.387</ele>
        <time>2021-06-18T08:52:39Z</time>
      </trkpt>
      <trkpt lat="42.762340" lon="0.772531">
        <ele>1145.642</ele>
        <time>2021-06-18T08:52:41Z</time>
      </trkpt>
      <trkpt lat="42.762392" lon="0.772746">
        <ele>1143.026</ele>
        <time>2021-06-18T08:52:43Z</time>
      </trkpt>
      <trkpt lat="42.762417" lon="0.772839">
        <ele>1141.808</ele>
        <time>2021-06-18T08:52:44Z</time>
      </trkpt>
      <trkpt lat="42.762446" lon="0.772927">
        <ele>1140.865</ele>
        <time>2021-06-18T08:52:45Z</time>
      </trkpt>
      <trkpt lat="42.762483" lon="0.773013">
        <ele>1140.354</ele>
        <time>2021-06-18T08:52:46Z</time>
      </trkpt>
      <trkpt lat="42.762523" lon="0.773100">
        <ele>1139.240</ele>
        <time>2021-06-18T08:52:47Z</time>
      </trkpt>
      <trkpt lat="42.762570" lon="0.773183">
        <ele>1137.994</ele>
        <time>2021-06-18T08:52:48Z</time>
      </trkpt>
      <trkpt lat="42.762692" lon="0.773325">
        <ele>1137.218</ele>
        <time>2021-06-18T08:52:50Z</time>
      </trkpt>
      <trkpt lat="42.762736" lon="0.773391">
        <ele>1137.078</ele>
        <time>2021-06-18T08:52:51Z</time>
      </trkpt>
      <trkpt lat="42.762804" lon="0.773527">
        <ele>1136.481</ele>
        <time>2021-06-18T08:52:53Z</time>
      </trkpt>
      <trkpt lat="42.762833" lon="0.773598">
        <ele>1135.918</ele>
        <time>2021-06-18T08:52:54Z</time>
      </trkpt>
      <trkpt lat="42.762861" lon="0.773642">
        <ele>1136.157</ele>
        <time>2021-06-18T08:52:55Z</time>
      </trkpt>
      <trkpt lat="42.762920" lon="0.773724">
        <ele>1136.800</ele>
        <time>2021-06-18T08:52:58Z</time>
      </trkpt>
      <trkpt lat="42.762966" lon="0.773776">
        <ele>1137.720</ele>
        <time>2021-06-18T08:53:01Z</time>
      </trkpt>
      <trkpt lat="42.763013" lon="0.773824">
        <ele>1138.608</ele>
        <time>2021-06-18T08:53:04Z</time>
      </trkpt>
      <trkpt lat="42.763078" lon="0.773927">
        <ele>1139.032</ele>
        <time>2021-06-18T08:53:09Z</time>
      </trkpt>
      <trkpt lat="42.763144" lon="0.774016">
        <ele>1139.841</ele>
        <time>2021-06-18T08:53:14Z</time>
      </trkpt>
      <trkpt lat="42.763200" lon="0.774084">
        <ele>1140.727</ele>
        <time>2021-06-18T08:53:18Z</time>
      </trkpt>
      <trkpt lat="42.763258" lon="0.774165">
        <ele>1141.541</ele>
        <time>2021-06-18T08:53:23Z</time>
      </trkpt>
      <trkpt lat="42.763280" lon="0.774195">
        <ele>1141.965</ele>
        <time>2021-06-18T08:53:25Z</time>
      </trkpt>
      <trkpt lat="42.763322" lon="0.774258">
        <ele>1142.535</ele>
        <time>2021-06-18T08:53:29Z</time>
      </trkpt>
      <trkpt lat="42.763353" lon="0.774304">
        <ele>1142.928</ele>
        <time>2021-06-18T08:53:32Z</time>
      </trkpt>
      <trkpt lat="42.763377" lon="0.774335">
        <ele>1143.395</ele>
        <time>2021-06-18T08:53:34Z</time>
      </trkpt>
      <trkpt lat="42.763436" lon="0.774398">
        <ele>1144.535</ele>
        <time>2021-06-18T08:53:39Z</time>
      </trkpt>
      <trkpt lat="42.763449" lon="0.774408">
        <ele>1144.886</ele>
        <time>2021-06-18T08:53:40Z</time>
      </trkpt>
      <trkpt lat="42.763506" lon="0.774465">
        <ele>1145.914</ele>
        <time>2021-06-18T08:53:45Z</time>
      </trkpt>
      <trkpt lat="42.763519" lon="0.774475">
        <ele>1146.208</ele>
        <time>2021-06-18T08:53:46Z</time>
      </trkpt>
      <trkpt lat="42.763572" lon="0.774532">
        <ele>1147.150</ele>
        <time>2021-06-18T08:53:50Z</time>
      </trkpt>
      <trkpt lat="42.763585" lon="0.774544">
        <ele>1147.389</ele>
        <time>2021-06-18T08:53:51Z</time>
      </trkpt>
      <trkpt lat="42.763595" lon="0.774556">
        <ele>1147.545</ele>
        <time>2021-06-18T08:53:52Z</time>
      </trkpt>
      <trkpt lat="42.763656" lon="0.774604">
        <ele>1148.719</ele>
        <time>2021-06-18T08:53:57Z</time>
      </trkpt>
      <trkpt lat="42.763669" lon="0.774615">
        <ele>1148.933</ele>
        <time>2021-06-18T08:53:58Z</time>
      </trkpt>
      <trkpt lat="42.763692" lon="0.774638">
        <ele>1149.293</ele>
        <time>2021-06-18T08:54:00Z</time>
      </trkpt>
      <trkpt lat="42.763710" lon="0.774666">
        <ele>1149.116</ele>
        <time>2021-06-18T08:54:02Z</time>
      </trkpt>
      <trkpt lat="42.763730" lon="0.774695">
        <ele>1149.053</ele>
        <time>2021-06-18T08:54:04Z</time>
      </trkpt>
      <trkpt lat="42.763765" lon="0.774727">
        <ele>1149.491</ele>
        <time>2021-06-18T08:54:07Z</time>
      </trkpt>
      <trkpt lat="42.763792" lon="0.774751">
        <ele>1149.981</ele>
        <time>2021-06-18T08:54:09Z</time>
      </trkpt>
      <trkpt lat="42.763805" lon="0.774758">
        <ele>1150.219</ele>
        <time>2021-06-18T08:54:10Z</time>
      </trkpt>
      <trkpt lat="42.763843" lon="0.774809">
        <ele>1150.608</ele>
        <time>2021-06-18T08:54:14Z</time>
      </trkpt>
      <trkpt lat="42.763857" lon="0.774818">
        <ele>1151.056</ele>
        <time>2021-06-18T08:54:15Z</time>
      </trkpt>
      <trkpt lat="42.763917" lon="0.774896">
        <ele>1151.775</ele>
        <time>2021-06-18T08:54:20Z</time>
      </trkpt>
      <trkpt lat="42.763944" lon="0.774925">
        <ele>1151.851</ele>
        <time>2021-06-18T08:54:22Z</time>
      </trkpt>
      <trkpt lat="42.763984" lon="0.774965">
        <ele>1151.965</ele>
        <time>2021-06-18T08:54:25Z</time>
      </trkpt>
      <trkpt lat="42.764033" lon="0.774986">
        <ele>1152.549</ele>
        <time>2021-06-18T08:54:28Z</time>
      </trkpt>
      <trkpt lat="42.764067" lon="0.774987">
        <ele>1153.289</ele>
        <time>2021-06-18T08:54:30Z</time>
      </trkpt>
      <trkpt lat="42.764165" lon="0.774963">
        <ele>1156.372</ele>
        <time>2021-06-18T08:54:36Z</time>
      </trkpt>
      <trkpt lat="42.764181" lon="0.774954">
        <ele>1156.829</ele>
        <time>2021-06-18T08:54:37Z</time>
      </trkpt>
      <trkpt lat="42.764263" lon="0.774924">
        <ele>1158.735</ele>
        <time>2021-06-18T08:54:43Z</time>
      </trkpt>
      <trkpt lat="42.764279" lon="0.774923">
        <ele>1158.986</ele>
        <time>2021-06-18T08:54:44Z</time>
      </trkpt>
      <trkpt lat="42.764365" lon="0.774922">
        <ele>1159.814</ele>
        <time>2021-06-18T08:54:50Z</time>
      </trkpt>
      <trkpt lat="42.764381" lon="0.774924">
        <ele>1159.908</ele>
        <time>2021-06-18T08:54:51Z</time>
      </trkpt>
      <trkpt lat="42.764441" lon="0.774940">
        <ele>1159.840</ele>
        <time>2021-06-18T08:54:55Z</time>
      </trkpt>
      <trkpt lat="42.764484" lon="0.774946">
        <ele>1160.419</ele>
        <time>2021-06-18T08:54:58Z</time>
      </trkpt>
      <trkpt lat="42.764526" lon="0.774952">
        <ele>1161.125</ele>
        <time>2021-06-18T08:55:01Z</time>
      </trkpt>
      <trkpt lat="42.764596" lon="0.774962">
        <ele>1162.299</ele>
        <time>2021-06-18T08:55:06Z</time>
      </trkpt>
      <trkpt lat="42.764678" lon="0.774957">
        <ele>1164.393</ele>
        <time>2021-06-18T08:55:12Z</time>
      </trkpt>
      <trkpt lat="42.764693" lon="0.774956">
        <ele>1164.723</ele>
        <time>2021-06-18T08:55:13Z</time>
      </trkpt>
      <trkpt lat="42.764706" lon="0.774961">
        <ele>1164.786</ele>
        <time>2021-06-18T08:55:14Z</time>
      </trkpt>
      <trkpt lat="42.764744" lon="0.774969">
        <ele>1165.223</ele>
        <time>2021-06-18T08:55:17Z</time>
      </trkpt>
      <trkpt lat="42.764757" lon="0.774973">
        <ele>1165.231</ele>
        <time>2021-06-18T08:55:18Z</time>
      </trkpt>
      <trkpt lat="42.764768" lon="0.774983">
        <ele>1164.961</ele>
        <time>2021-06-18T08:55:19Z</time>
      </trkpt>
      <trkpt lat="42.764799" lon="0.775008">
        <ele>1164.207</ele>
        <time>2021-06-18T08:55:22Z</time>
      </trkpt>
      <trkpt lat="42.764806" lon="0.775014">
        <ele>1164.108</ele>
        <time>2021-06-18T08:55:23Z</time>
      </trkpt>
      <trkpt lat="42.764848" lon="0.775035">
        <ele>1163.840</ele>
        <time>2021-06-18T08:55:27Z</time>
      </trkpt>
      <trkpt lat="42.764877" lon="0.775033">
        <ele>1164.589</ele>
        <time>2021-06-18T08:55:29Z</time>
      </trkpt>
      <trkpt lat="42.764928" lon="0.775054">
        <ele>1164.455</ele>
        <time>2021-06-18T08:55:33Z</time>
      </trkpt>
      <trkpt lat="42.764988" lon="0.775064">
        <ele>1165.119</ele>
        <time>2021-06-18T08:55:37Z</time>
      </trkpt>
      <trkpt lat="42.765017" lon="0.775066">
        <ele>1165.493</ele>
        <time>2021-06-18T08:55:39Z</time>
      </trkpt>
      <trkpt lat="42.765096" lon="0.775043">
        <ele>1167.813</ele>
        <time>2021-06-18T08:55:44Z</time>
      </trkpt>
      <trkpt lat="42.765111" lon="0.775040">
        <ele>1168.246</ele>
        <time>2021-06-18T08:55:45Z</time>
      </trkpt>
      <trkpt lat="42.765123" lon="0.775042">
        <ele>1168.213</ele>
        <time>2021-06-18T08:55:46Z</time>
      </trkpt>
      <trkpt lat="42.765179" lon="0.775053">
        <ele>1168.346</ele>
        <time>2021-06-18T08:55:50Z</time>
      </trkpt>
      <trkpt lat="42.765194" lon="0.775059">
        <ele>1168.188</ele>
        <time>2021-06-18T08:55:51Z</time>
      </trkpt>
      <trkpt lat="42.765264" lon="0.775063">
        <ele>1168.716</ele>
        <time>2021-06-18T08:55:56Z</time>
      </trkpt>
      <trkpt lat="42.765313" lon="0.775064">
        <ele>1170.108</ele>
        <time>2021-06-18T08:55:59Z</time>
      </trkpt>
      <trkpt lat="42.765389" lon="0.775087">
        <ele>1171.581</ele>
        <time>2021-06-18T08:56:04Z</time>
      </trkpt>
      <trkpt lat="42.765434" lon="0.775094">
        <ele>1172.790</ele>
        <time>2021-06-18T08:56:07Z</time>
      </trkpt>
      <trkpt lat="42.765464" lon="0.775107">
        <ele>1173.146</ele>
        <time>2021-06-18T08:56:09Z</time>
      </trkpt>
      <trkpt lat="42.765526" lon="0.775120">
        <ele>1174.840</ele>
        <time>2021-06-18T08:56:13Z</time>
      </trkpt>
      <trkpt lat="42.765542" lon="0.775120">
        <ele>1175.474</ele>
        <time>2021-06-18T08:56:14Z</time>
      </trkpt>
      <trkpt lat="42.765589" lon="0.775127">
        <ele>1176.994</ele>
        <time>2021-06-18T08:56:17Z</time>
      </trkpt>
      <trkpt lat="42.765605" lon="0.775131">
        <ele>1177.387</ele>
        <time>2021-06-18T08:56:18Z</time>
      </trkpt>
      <trkpt lat="42.765651" lon="0.775146">
        <ele>1178.344</ele>
        <time>2021-06-18T08:56:21Z</time>
      </trkpt>
      <trkpt lat="42.765682" lon="0.775150">
        <ele>1179.231</ele>
        <time>2021-06-18T08:56:23Z</time>
      </trkpt>
      <trkpt lat="42.765728" lon="0.775148">
        <ele>1181.161</ele>
        <time>2021-06-18T08:56:26Z</time>
      </trkpt>
      <trkpt lat="42.765754" lon="0.775165">
        <ele>1181.307</ele>
        <time>2021-06-18T08:56:28Z</time>
      </trkpt>
      <trkpt lat="42.765814" lon="0.775221">
        <ele>1180.908</ele>
        <time>2021-06-18T08:56:33Z</time>
      </trkpt>
      <trkpt lat="42.765827" lon="0.775227">
        <ele>1181.140</ele>
        <time>2021-06-18T08:56:34Z</time>
      </trkpt>
      <trkpt lat="42.765855" lon="0.775235">
        <ele>1182.589</ele>
        <time>2021-06-18T08:56:36Z</time>
      </trkpt>
      <trkpt lat="42.765897" lon="0.775289">
        <ele>1182.875</ele>
        <time>2021-06-18T08:56:40Z</time>
      </trkpt>
      <trkpt lat="42.765956" lon="0.775356">
        <ele>1183.659</ele>
        <time>2021-06-18T08:56:45Z</time>
      </trkpt>
      <trkpt lat="42.765979" lon="0.775379">
        <ele>1184.033</ele>
        <time>2021-06-18T08:56:47Z</time>
      </trkpt>
      <trkpt lat="42.766023" lon="0.775423">
        <ele>1184.633</ele>
        <time>2021-06-18T08:56:51Z</time>
      </trkpt>
      <trkpt lat="42.766034" lon="0.775435">
        <ele>1184.766</ele>
        <time>2021-06-18T08:56:52Z</time>
      </trkpt>
      <trkpt lat="42.766061" lon="0.775446">
        <ele>1185.853</ele>
        <time>2021-06-18T08:56:54Z</time>
      </trkpt>
      <trkpt lat="42.766094" lon="0.775484">
        <ele>1185.858</ele>
        <time>2021-06-18T08:56:57Z</time>
      </trkpt>
      <trkpt lat="42.766115" lon="0.775532">
        <ele>1184.652</ele>
        <time>2021-06-18T08:57:00Z</time>
      </trkpt>
      <trkpt lat="42.766129" lon="0.775564">
        <ele>1184.217</ele>
        <time>2021-06-18T08:57:02Z</time>
      </trkpt>
      <trkpt lat="42.766167" lon="0.775595">
        <ele>1186.208</ele>
        <time>2021-06-18T08:57:05Z</time>
      </trkpt>
      <trkpt lat="42.766192" lon="0.775615">
        <ele>1187.542</ele>
        <time>2021-06-18T08:57:07Z</time>
      </trkpt>
      <trkpt lat="42.766228" lon="0.775676">
        <ele>1187.621</ele>
        <time>2021-06-18T08:57:11Z</time>
      </trkpt>
      <trkpt lat="42.766235" lon="0.775691">
        <ele>1187.457</ele>
        <time>2021-06-18T08:57:12Z</time>
      </trkpt>
      <trkpt lat="42.766246" lon="0.775703">
        <ele>1187.761</ele>
        <time>2021-06-18T08:57:13Z</time>
      </trkpt>
      <trkpt lat="42.766289" lon="0.775753">
        <ele>1188.775</ele>
        <time>2021-06-18T08:57:17Z</time>
      </trkpt>
      <trkpt lat="42.766312" lon="0.775778">
        <ele>1189.275</ele>
        <time>2021-06-18T08:57:19Z</time>
      </trkpt>
      <trkpt lat="42.766360" lon="0.775821">
        <ele>1190.538</ele>
        <time>2021-06-18T08:57:23Z</time>
      </trkpt>
      <trkpt lat="42.766415" lon="0.775882">
        <ele>1191.295</ele>
        <time>2021-06-18T08:57:28Z</time>
      </trkpt>
      <trkpt lat="42.766426" lon="0.775893">
        <ele>1191.445</ele>
        <time>2021-06-18T08:57:29Z</time>
      </trkpt>
      <trkpt lat="42.766460" lon="0.775949">
        <ele>1190.747</ele>
        <time>2021-06-18T08:57:33Z</time>
      </trkpt>
      <trkpt lat="42.766480" lon="0.775969">
        <ele>1190.911</ele>
        <time>2021-06-18T08:57:35Z</time>
      </trkpt>
      <trkpt lat="42.766515" lon="0.776003">
        <ele>1191.308</ele>
        <time>2021-06-18T08:57:38Z</time>
      </trkpt>
      <trkpt lat="42.766552" lon="0.776026">
        <ele>1192.541</ele>
        <time>2021-06-18T08:57:41Z</time>
      </trkpt>
      <trkpt lat="42.766587" lon="0.776058">
        <ele>1192.940</ele>
        <time>2021-06-18T08:57:44Z</time>
      </trkpt>
      <trkpt lat="42.766611" lon="0.776079">
        <ele>1193.326</ele>
        <time>2021-06-18T08:57:46Z</time>
      </trkpt>
      <trkpt lat="42.766648" lon="0.776111">
        <ele>1193.930</ele>
        <time>2021-06-18T08:57:49Z</time>
      </trkpt>
      <trkpt lat="42.766677" lon="0.776121">
        <ele>1195.284</ele>
        <time>2021-06-18T08:57:51Z</time>
      </trkpt>
      <trkpt lat="42.766738" lon="0.776176">
        <ele>1196.794</ele>
        <time>2021-06-18T08:57:56Z</time>
      </trkpt>
      <trkpt lat="42.766749" lon="0.776191">
        <ele>1196.827</ele>
        <time>2021-06-18T08:57:57Z</time>
      </trkpt>
      <trkpt lat="42.766758" lon="0.776205">
        <ele>1196.944</ele>
        <time>2021-06-18T08:57:58Z</time>
      </trkpt>
      <trkpt lat="42.766782" lon="0.776253">
        <ele>1196.859</ele>
        <time>2021-06-18T08:58:01Z</time>
      </trkpt>
      <trkpt lat="42.766791" lon="0.776269">
        <ele>1196.903</ele>
        <time>2021-06-18T08:58:02Z</time>
      </trkpt>
      <trkpt lat="42.766812" lon="0.776316">
        <ele>1196.823</ele>
        <time>2021-06-18T08:58:05Z</time>
      </trkpt>
      <trkpt lat="42.766823" lon="0.776351">
        <ele>1196.608</ele>
        <time>2021-06-18T08:58:07Z</time>
      </trkpt>
      <trkpt lat="42.766864" lon="0.776425">
        <ele>1197.682</ele>
        <time>2021-06-18T08:58:12Z</time>
      </trkpt>
      <trkpt lat="42.766872" lon="0.776440">
        <ele>1197.811</ele>
        <time>2021-06-18T08:58:13Z</time>
      </trkpt>
      <trkpt lat="42.766933" lon="0.776548">
        <ele>1200.087</ele>
        <time>2021-06-18T08:58:20Z</time>
      </trkpt>
      <trkpt lat="42.767003" lon="0.776648">
        <ele>1202.121</ele>
        <time>2021-06-18T08:58:27Z</time>
      </trkpt>
      <trkpt lat="42.767013" lon="0.776663">
        <ele>1202.345</ele>
        <time>2021-06-18T08:58:28Z</time>
      </trkpt>
      <trkpt lat="42.767036" lon="0.776710">
        <ele>1202.355</ele>
        <time>2021-06-18T08:58:31Z</time>
      </trkpt>
      <trkpt lat="42.767057" lon="0.776734">
        <ele>1202.828</ele>
        <time>2021-06-18T08:58:33Z</time>
      </trkpt>
      <trkpt lat="42.767068" lon="0.776746">
        <ele>1203.165</ele>
        <time>2021-06-18T08:58:34Z</time>
      </trkpt>
      <trkpt lat="42.767101" lon="0.776778">
        <ele>1204.276</ele>
        <time>2021-06-18T08:58:37Z</time>
      </trkpt>
      <trkpt lat="42.767128" lon="0.776797">
        <ele>1205.390</ele>
        <time>2021-06-18T08:58:39Z</time>
      </trkpt>
      <trkpt lat="42.767138" lon="0.776814">
        <ele>1205.419</ele>
        <time>2021-06-18T08:58:40Z</time>
      </trkpt>
      <trkpt lat="42.767167" lon="0.776849">
        <ele>1206.208</ele>
        <time>2021-06-18T08:58:43Z</time>
      </trkpt>
      <trkpt lat="42.767178" lon="0.776861">
        <ele>1206.644</ele>
        <time>2021-06-18T08:58:44Z</time>
      </trkpt>
      <trkpt lat="42.767191" lon="0.776869">
        <ele>1207.233</ele>
        <time>2021-06-18T08:58:45Z</time>
      </trkpt>
      <trkpt lat="42.767211" lon="0.776895">
        <ele>1207.739</ele>
        <time>2021-06-18T08:58:47Z</time>
      </trkpt>
      <trkpt lat="42.767232" lon="0.776923">
        <ele>1208.323</ele>
        <time>2021-06-18T08:58:49Z</time>
      </trkpt>
      <trkpt lat="42.767262" lon="0.776975">
        <ele>1208.887</ele>
        <time>2021-06-18T08:58:53Z</time>
      </trkpt>
      <trkpt lat="42.767280" lon="0.777010">
        <ele>1209.147</ele>
        <time>2021-06-18T08:58:56Z</time>
      </trkpt>
      <trkpt lat="42.767325" lon="0.777059">
        <ele>1210.810</ele>
        <time>2021-06-18T08:59:00Z</time>
      </trkpt>
      <trkpt lat="42.767345" lon="0.777094">
        <ele>1211.217</ele>
        <time>2021-06-18T08:59:02Z</time>
      </trkpt>
      <trkpt lat="42.767377" lon="0.777170">
        <ele>1211.334</ele>
        <time>2021-06-18T08:59:06Z</time>
      </trkpt>
      <trkpt lat="42.767387" lon="0.777183">
        <ele>1211.755</ele>
        <time>2021-06-18T08:59:07Z</time>
      </trkpt>
      <trkpt lat="42.767397" lon="0.777188">
        <ele>1212.210</ele>
        <time>2021-06-18T08:59:08Z</time>
      </trkpt>
      <trkpt lat="42.767429" lon="0.777223">
        <ele>1213.408</ele>
        <time>2021-06-18T08:59:11Z</time>
      </trkpt>
      <trkpt lat="42.767472" lon="0.777280">
        <ele>1214.940</ele>
        <time>2021-06-18T08:59:15Z</time>
      </trkpt>
      <trkpt lat="42.767488" lon="0.777310">
        <ele>1215.399</ele>
        <time>2021-06-18T08:59:17Z</time>
      </trkpt>
      <trkpt lat="42.767516" lon="0.777384">
        <ele>1215.445</ele>
        <time>2021-06-18T08:59:21Z</time>
      </trkpt>
      <trkpt lat="42.767541" lon="0.777413">
        <ele>1216.259</ele>
        <time>2021-06-18T08:59:23Z</time>
      </trkpt>
      <trkpt lat="42.767572" lon="0.777456">
        <ele>1216.833</ele>
        <time>2021-06-18T08:59:26Z</time>
      </trkpt>
      <trkpt lat="42.767594" lon="0.777483">
        <ele>1217.253</ele>
        <time>2021-06-18T08:59:28Z</time>
      </trkpt>
      <trkpt lat="42.767638" lon="0.777533">
        <ele>1218.356</ele>
        <time>2021-06-18T08:59:32Z</time>
      </trkpt>
      <trkpt lat="42.767652" lon="0.777542">
        <ele>1218.913</ele>
        <time>2021-06-18T08:59:33Z</time>
      </trkpt>
      <trkpt lat="42.767712" lon="0.777602">
        <ele>1221.121</ele>
        <time>2021-06-18T08:59:38Z</time>
      </trkpt>
      <trkpt lat="42.767740" lon="0.777655">
        <ele>1222.041</ele>
        <time>2021-06-18T08:59:41Z</time>
      </trkpt>
      <trkpt lat="42.767754" lon="0.777696">
        <ele>1222.405</ele>
        <time>2021-06-18T08:59:43Z</time>
      </trkpt>
      <trkpt lat="42.767760" lon="0.777787">
        <ele>1221.808</ele>
        <time>2021-06-18T08:59:47Z</time>
      </trkpt>
      <trkpt lat="42.767755" lon="0.777846">
        <ele>1221.439</ele>
        <time>2021-06-18T08:59:50Z</time>
      </trkpt>
      <trkpt lat="42.767752" lon="0.777897">
        <ele>1221.188</ele>
        <time>2021-06-18T08:59:53Z</time>
      </trkpt>
      <trkpt lat="42.767756" lon="0.777932">
        <ele>1221.374</ele>
        <time>2021-06-18T08:59:55Z</time>
      </trkpt>
      <trkpt lat="42.767758" lon="0.778012">
        <ele>1221.438</ele>
        <time>2021-06-18T08:59:59Z</time>
      </trkpt>
      <trkpt lat="42.767794" lon="0.778134">
        <ele>1223.252</ele>
        <time>2021-06-18T09:00:06Z</time>
      </trkpt>
      <trkpt lat="42.767805" lon="0.778150">
        <ele>1223.732</ele>
        <time>2021-06-18T09:00:07Z</time>
      </trkpt>
      <trkpt lat="42.767815" lon="0.778165">
        <ele>1224.175</ele>
        <time>2021-06-18T09:00:08Z</time>
      </trkpt>
      <trkpt lat="42.767823" lon="0.778181">
        <ele>1224.472</ele>
        <time>2021-06-18T09:00:09Z</time>
      </trkpt>
      <trkpt lat="42.767855" lon="0.778245">
        <ele>1225.282</ele>
        <time>2021-06-18T09:00:13Z</time>
      </trkpt>
      <trkpt lat="42.767915" lon="0.778300">
        <ele>1227.243</ele>
        <time>2021-06-18T09:00:18Z</time>
      </trkpt>
      <trkpt lat="42.767982" lon="0.778345">
        <ele>1229.317</ele>
        <time>2021-06-18T09:00:24Z</time>
      </trkpt>
      <trkpt lat="42.768024" lon="0.778396">
        <ele>1230.108</ele>
        <time>2021-06-18T09:00:28Z</time>
      </trkpt>
      <trkpt lat="42.768041" lon="0.778428">
        <ele>1230.215</ele>
        <time>2021-06-18T09:00:30Z</time>
      </trkpt>
      <trkpt lat="42.768048" lon="0.778445">
        <ele>1230.284</ele>
        <time>2021-06-18T09:00:31Z</time>
      </trkpt>
      <trkpt lat="42.768068" lon="0.778514">
        <ele>1229.920</ele>
        <time>2021-06-18T09:00:35Z</time>
      </trkpt>
      <trkpt lat="42.768077" lon="0.778569">
        <ele>1229.414</ele>
        <time>2021-06-18T09:00:38Z</time>
      </trkpt>
      <trkpt lat="42.768075" lon="0.778591">
        <ele>1228.828</ele>
        <time>2021-06-18T09:00:39Z</time>
      </trkpt>
      <trkpt lat="42.768080" lon="0.778610">
        <ele>1228.768</ele>
        <time>2021-06-18T09:00:40Z</time>
      </trkpt>
      <trkpt lat="42.768084" lon="0.778676">
        <ele>1229.421</ele>
        <time>2021-06-18T09:00:44Z</time>
      </trkpt>
      <trkpt lat="42.768082" lon="0.778712">
        <ele>1229.528</ele>
        <time>2021-06-18T09:00:46Z</time>
      </trkpt>
      <trkpt lat="42.768090" lon="0.778766">
        <ele>1230.427</ele>
        <time>2021-06-18T09:00:49Z</time>
      </trkpt>
      <trkpt lat="42.768106" lon="0.778801">
        <ele>1231.768</ele>
        <time>2021-06-18T09:00:51Z</time>
      </trkpt>
      <trkpt lat="42.768113" lon="0.778822">
        <ele>1232.314</ele>
        <time>2021-06-18T09:00:52Z</time>
      </trkpt>
      <trkpt lat="42.768128" lon="0.778906">
        <ele>1233.508</ele>
        <time>2021-06-18T09:00:56Z</time>
      </trkpt>
      <trkpt lat="42.768144" lon="0.778939">
        <ele>1234.069</ele>
        <time>2021-06-18T09:00:58Z</time>
      </trkpt>
      <trkpt lat="42.768203" lon="0.779014">
        <ele>1236.598</ele>
        <time>2021-06-18T09:01:03Z</time>
      </trkpt>
      <trkpt lat="42.768212" lon="0.779030">
        <ele>1236.874</ele>
        <time>2021-06-18T09:01:04Z</time>
      </trkpt>
      <trkpt lat="42.768245" lon="0.779114">
        <ele>1237.268</ele>
        <time>2021-06-18T09:01:09Z</time>
      </trkpt>
      <trkpt lat="42.768252" lon="0.779131">
        <ele>1237.362</ele>
        <time>2021-06-18T09:01:10Z</time>
      </trkpt>
      <trkpt lat="42.768271" lon="0.779162">
        <ele>1237.752</ele>
        <time>2021-06-18T09:01:12Z</time>
      </trkpt>
      <trkpt lat="42.768293" lon="0.779189">
        <ele>1238.455</ele>
        <time>2021-06-18T09:01:14Z</time>
      </trkpt>
      <trkpt lat="42.768296" lon="0.779207">
        <ele>1238.352</ele>
        <time>2021-06-18T09:01:15Z</time>
      </trkpt>
      <trkpt lat="42.768297" lon="0.779288">
        <ele>1236.969</ele>
        <time>2021-06-18T09:01:19Z</time>
      </trkpt>
      <trkpt lat="42.768301" lon="0.779303">
        <ele>1236.904</ele>
        <time>2021-06-18T09:01:20Z</time>
      </trkpt>
      <trkpt lat="42.768309" lon="0.779321">
        <ele>1237.024</ele>
        <time>2021-06-18T09:01:21Z</time>
      </trkpt>
      <trkpt lat="42.768337" lon="0.779368">
        <ele>1237.608</ele>
        <time>2021-06-18T09:01:24Z</time>
      </trkpt>
      <trkpt lat="42.768354" lon="0.779421">
        <ele>1238.043</ele>
        <time>2021-06-18T09:01:27Z</time>
      </trkpt>
      <trkpt lat="42.768357" lon="0.779461">
        <ele>1237.652</ele>
        <time>2021-06-18T09:01:29Z</time>
      </trkpt>
      <trkpt lat="42.768361" lon="0.779480">
        <ele>1237.718</ele>
        <time>2021-06-18T09:01:30Z</time>
      </trkpt>
      <trkpt lat="42.768370" lon="0.779506">
        <ele>1238.052</ele>
        <time>2021-06-18T09:01:32Z</time>
      </trkpt>
      <trkpt lat="42.768374" lon="0.779520">
        <ele>1238.126</ele>
        <time>2021-06-18T09:01:33Z</time>
      </trkpt>
      <trkpt lat="42.768393" lon="0.779545">
        <ele>1239.136</ele>
        <time>2021-06-18T09:01:35Z</time>
      </trkpt>
      <trkpt lat="42.768420" lon="0.779589">
        <ele>1240.379</ele>
        <time>2021-06-18T09:01:38Z</time>
      </trkpt>
      <trkpt lat="42.768436" lon="0.779623">
        <ele>1240.936</ele>
        <time>2021-06-18T09:01:40Z</time>
      </trkpt>
      <trkpt lat="42.768443" lon="0.779643">
        <ele>1241.095</ele>
        <time>2021-06-18T09:01:41Z</time>
      </trkpt>
      <trkpt lat="42.768487" lon="0.779728">
        <ele>1242.349</ele>
        <time>2021-06-18T09:01:46Z</time>
      </trkpt>
      <trkpt lat="42.768517" lon="0.779800">
        <ele>1242.223</ele>
        <time>2021-06-18T09:01:50Z</time>
      </trkpt>
      <trkpt lat="42.768529" lon="0.779812">
        <ele>1242.608</ele>
        <time>2021-06-18T09:01:51Z</time>
      </trkpt>
      <trkpt lat="42.768557" lon="0.779838">
        <ele>1243.546</ele>
        <time>2021-06-18T09:01:53Z</time>
      </trkpt>
      <trkpt lat="42.768572" lon="0.779844">
        <ele>1244.275</ele>
        <time>2021-06-18T09:01:54Z</time>
      </trkpt>
      <trkpt lat="42.768608" lon="0.779867">
        <ele>1245.741</ele>
        <time>2021-06-18T09:01:57Z</time>
      </trkpt>
      <trkpt lat="42.768617" lon="0.779884">
        <ele>1245.755</ele>
        <time>2021-06-18T09:01:58Z</time>
      </trkpt>
      <trkpt lat="42.768624" lon="0.779906">
        <ele>1245.569</ele>
        <time>2021-06-18T09:01:59Z</time>
      </trkpt>
      <trkpt lat="42.768630" lon="0.779923">
        <ele>1245.419</ele>
        <time>2021-06-18T09:02:00Z</time>
      </trkpt>
      <trkpt lat="42.768661" lon="0.779951">
        <ele>1246.622</ele>
        <time>2021-06-18T09:02:03Z</time>
      </trkpt>
      <trkpt lat="42.768674" lon="0.779958">
        <ele>1247.239</ele>
        <time>2021-06-18T09:02:04Z</time>
      </trkpt>
      <trkpt lat="42.768685" lon="0.779970">
        <ele>1247.554</ele>
        <time>2021-06-18T09:02:05Z</time>
      </trkpt>
      <trkpt lat="42.768720" lon="0.780033">
        <ele>1247.156</ele>
        <time>2021-06-18T09:02:09Z</time>
      </trkpt>
      <trkpt lat="42.768758" lon="0.780097">
        <ele>1246.711</ele>
        <time>2021-06-18T09:02:13Z</time>
      </trkpt>
      <trkpt lat="42.768775" lon="0.780136">
        <ele>1246.108</ele>
        <time>2021-06-18T09:02:15Z</time>
      </trkpt>
      <trkpt lat="42.768783" lon="0.780155">
        <ele>1245.922</ele>
        <time>2021-06-18T09:02:16Z</time>
      </trkpt>
      <trkpt lat="42.768817" lon="0.780212">
        <ele>1246.021</ele>
        <time>2021-06-18T09:02:20Z</time>
      </trkpt>
      <trkpt lat="42.768832" lon="0.780247">
        <ele>1245.787</ele>
        <time>2021-06-18T09:02:22Z</time>
      </trkpt>
      <trkpt lat="42.768852" lon="0.780269">
        <ele>1246.421</ele>
        <time>2021-06-18T09:02:24Z</time>
      </trkpt>
      <trkpt lat="42.768874" lon="0.780294">
        <ele>1246.965</ele>
        <time>2021-06-18T09:02:26Z</time>
      </trkpt>
      <trkpt lat="42.768893" lon="0.780326">
        <ele>1246.265</ele>
        <time>2021-06-18T09:02:28Z</time>
      </trkpt>
      <trkpt lat="42.768946" lon="0.780354">
        <ele>1244.948</ele>
        <time>2021-06-18T09:02:32Z</time>
      </trkpt>
      <trkpt lat="42.768975" lon="0.780360">
        <ele>1244.675</ele>
        <time>2021-06-18T09:02:34Z</time>
      </trkpt>
      <trkpt lat="42.769004" lon="0.780346">
        <ele>1245.676</ele>
        <time>2021-06-18T09:02:36Z</time>
      </trkpt>
      <trkpt lat="42.769044" lon="0.780319">
        <ele>1247.590</ele>
        <time>2021-06-18T09:02:39Z</time>
      </trkpt>
      <trkpt lat="42.769091" lon="0.780271">
        <ele>1250.819</ele>
        <time>2021-06-18T09:02:43Z</time>
      </trkpt>
      <trkpt lat="42.769099" lon="0.780259">
        <ele>1251.308</ele>
        <time>2021-06-18T09:02:44Z</time>
      </trkpt>
      <trkpt lat="42.769137" lon="0.780219">
        <ele>1253.514</ele>
        <time>2021-06-18T09:02:48Z</time>
      </trkpt>
      <trkpt lat="42.769148" lon="0.780203">
        <ele>1254.383</ele>
        <time>2021-06-18T09:02:49Z</time>
      </trkpt>
      <trkpt lat="42.769192" lon="0.780148">
        <ele>1256.759</ele>
        <time>2021-06-18T09:02:53Z</time>
      </trkpt>
      <trkpt lat="42.769212" lon="0.780112">
        <ele>1258.273</ele>
        <time>2021-06-18T09:02:55Z</time>
      </trkpt>
      <trkpt lat="42.769260" lon="0.780064">
        <ele>1260.127</ele>
        <time>2021-06-18T09:02:59Z</time>
      </trkpt>
      <trkpt lat="42.769274" lon="0.780053">
        <ele>1260.517</ele>
        <time>2021-06-18T09:03:00Z</time>
      </trkpt>
      <trkpt lat="42.769350" lon="0.779984">
        <ele>1263.730</ele>
        <time>2021-06-18T09:03:06Z</time>
      </trkpt>
      <trkpt lat="42.769361" lon="0.779973">
        <ele>1264.417</ele>
        <time>2021-06-18T09:03:07Z</time>
      </trkpt>
      <trkpt lat="42.769418" lon="0.779951">
        <ele>1265.539</ele>
        <time>2021-06-18T09:03:11Z</time>
      </trkpt>
      <trkpt lat="42.769466" lon="0.779965">
        <ele>1265.401</ele>
        <time>2021-06-18T09:03:14Z</time>
      </trkpt>
      <trkpt lat="42.769500" lon="0.780001">
        <ele>1264.521</ele>
        <time>2021-06-18T09:03:17Z</time>
      </trkpt>
      <trkpt lat="42.769519" lon="0.780037">
        <ele>1263.408</ele>
        <time>2021-06-18T09:03:19Z</time>
      </trkpt>
      <trkpt lat="42.769533" lon="0.780049">
        <ele>1263.490</ele>
        <time>2021-06-18T09:03:20Z</time>
      </trkpt>
      <trkpt lat="42.769565" lon="0.780075">
        <ele>1263.499</ele>
        <time>2021-06-18T09:03:22Z</time>
      </trkpt>
      <trkpt lat="42.769621" lon="0.780129">
        <ele>1263.125</ele>
        <time>2021-06-18T09:03:26Z</time>
      </trkpt>
      <trkpt lat="42.769643" lon="0.780157">
        <ele>1262.769</ele>
        <time>2021-06-18T09:03:28Z</time>
      </trkpt>
      <trkpt lat="42.769680" lon="0.780187">
        <ele>1262.853</ele>
        <time>2021-06-18T09:03:31Z</time>
      </trkpt>
      <trkpt lat="42.769697" lon="0.780189">
        <ele>1263.623</ele>
        <time>2021-06-18T09:03:32Z</time>
      </trkpt>
      <trkpt lat="42.769735" lon="0.780215">
        <ele>1264.326</ele>
        <time>2021-06-18T09:03:35Z</time>
      </trkpt>
      <trkpt lat="42.769746" lon="0.780224">
        <ele>1264.643</ele>
        <time>2021-06-18T09:03:36Z</time>
      </trkpt>
      <trkpt lat="42.769757" lon="0.780234">
        <ele>1264.849</ele>
        <time>2021-06-18T09:03:37Z</time>
      </trkpt>
      <trkpt lat="42.769810" lon="0.780315">
        <ele>1264.702</ele>
        <time>2021-06-18T09:03:42Z</time>
      </trkpt>
      <trkpt lat="42.769819" lon="0.780332">
        <ele>1264.622</ele>
        <time>2021-06-18T09:03:43Z</time>
      </trkpt>
      <trkpt lat="42.769912" lon="0.780420">
        <ele>1267.708</ele>
        <time>2021-06-18T09:03:50Z</time>
      </trkpt>
      <trkpt lat="42.769926" lon="0.780430">
        <ele>1268.441</ele>
        <time>2021-06-18T09:03:51Z</time>
      </trkpt>
      <trkpt lat="42.769971" lon="0.780491">
        <ele>1269.370</ele>
        <time>2021-06-18T09:03:55Z</time>
      </trkpt>
      <trkpt lat="42.769982" lon="0.780507">
        <ele>1269.576</ele>
        <time>2021-06-18T09:03:56Z</time>
      </trkpt>
      <trkpt lat="42.770015" lon="0.780577">
        <ele>1269.350</ele>
        <time>2021-06-18T09:04:00Z</time>
      </trkpt>
      <trkpt lat="42.770026" lon="0.780594">
        <ele>1269.414</ele>
        <time>2021-06-18T09:04:01Z</time>
      </trkpt>
      <trkpt lat="42.770086" lon="0.780667">
        <ele>1270.394</ele>
        <time>2021-06-18T09:04:06Z</time>
      </trkpt>
      <trkpt lat="42.770113" lon="0.780705">
        <ele>1270.217</ele>
        <time>2021-06-18T09:04:08Z</time>
      </trkpt>
      <trkpt lat="42.770172" lon="0.780759">
        <ele>1270.964</ele>
        <time>2021-06-18T09:04:12Z</time>
      </trkpt>
      <trkpt lat="42.770245" lon="0.780837">
        <ele>1270.353</ele>
        <time>2021-06-18T09:04:17Z</time>
      </trkpt>
      <trkpt lat="42.770330" lon="0.780857">
        <ele>1269.204</ele>
        <time>2021-06-18T09:04:22Z</time>
      </trkpt>
      <trkpt lat="42.770348" lon="0.780854">
        <ele>1268.814</ele>
        <time>2021-06-18T09:04:23Z</time>
      </trkpt>
      <trkpt lat="42.770446" lon="0.780785">
        <ele>1270.708</ele>
        <time>2021-06-18T09:04:30Z</time>
      </trkpt>
      <trkpt lat="42.770458" lon="0.780773">
        <ele>1271.392</ele>
        <time>2021-06-18T09:04:31Z</time>
      </trkpt>
      <trkpt lat="42.770545" lon="0.780689">
        <ele>1276.181</ele>
        <time>2021-06-18T09:04:38Z</time>
      </trkpt>
      <trkpt lat="42.770588" lon="0.780649">
        <ele>1277.727</ele>
        <time>2021-06-18T09:04:41Z</time>
      </trkpt>
      <trkpt lat="42.770634" lon="0.780583">
        <ele>1280.471</ele>
        <time>2021-06-18T09:04:45Z</time>
      </trkpt>
      <trkpt lat="42.770668" lon="0.780484">
        <ele>1286.875</ele>
        <time>2021-06-18T09:04:50Z</time>
      </trkpt>
      <trkpt lat="42.770680" lon="0.780469">
        <ele>1287.545</ele>
        <time>2021-06-18T09:04:51Z</time>
      </trkpt>
      <trkpt lat="42.770778" lon="0.780440">
        <ele>1284.578</ele>
        <time>2021-06-18T09:04:56Z</time>
      </trkpt>
      <trkpt lat="42.770867" lon="0.780426">
        <ele>1283.635</ele>
        <time>2021-06-18T09:05:01Z</time>
      </trkpt>
      <trkpt lat="42.770884" lon="0.780426">
        <ele>1284.141</ele>
        <time>2021-06-18T09:05:02Z</time>
      </trkpt>
      <trkpt lat="42.770968" lon="0.780477">
        <ele>1283.181</ele>
        <time>2021-06-18T09:05:07Z</time>
      </trkpt>
      <trkpt lat="42.770993" lon="0.780513">
        <ele>1281.709</ele>
        <time>2021-06-18T09:05:09Z</time>
      </trkpt>
      <trkpt lat="42.771025" lon="0.780606">
        <ele>1279.008</ele>
        <time>2021-06-18T09:05:13Z</time>
      </trkpt>
      <trkpt lat="42.771072" lon="0.780794">
        <ele>1276.771</ele>
        <time>2021-06-18T09:05:20Z</time>
      </trkpt>
      <trkpt lat="42.771113" lon="0.780917">
        <ele>1277.460</ele>
        <time>2021-06-18T09:05:25Z</time>
      </trkpt>
      <trkpt lat="42.771118" lon="0.780944">
        <ele>1277.296</ele>
        <time>2021-06-18T09:05:26Z</time>
      </trkpt>
      <trkpt lat="42.771139" lon="0.781040">
        <ele>1276.640</ele>
        <time>2021-06-18T09:05:30Z</time>
      </trkpt>
      <trkpt lat="42.771163" lon="0.781118">
        <ele>1276.364</ele>
        <time>2021-06-18T09:05:33Z</time>
      </trkpt>
      <trkpt lat="42.771235" lon="0.781186">
        <ele>1278.724</ele>
        <time>2021-06-18T09:05:38Z</time>
      </trkpt>
      <trkpt lat="42.771254" lon="0.781198">
        <ele>1279.597</ele>
        <time>2021-06-18T09:05:39Z</time>
      </trkpt>
      <trkpt lat="42.771345" lon="0.781295">
        <ele>1280.994</ele>
        <time>2021-06-18T09:05:45Z</time>
      </trkpt>
      <trkpt lat="42.771354" lon="0.781323">
        <ele>1280.222</ele>
        <time>2021-06-18T09:05:46Z</time>
      </trkpt>
      <trkpt lat="42.771446" lon="0.781388">
        <ele>1281.962</ele>
        <time>2021-06-18T09:05:52Z</time>
      </trkpt>
      <trkpt lat="42.771526" lon="0.781472">
        <ele>1282.308</ele>
        <time>2021-06-18T09:05:58Z</time>
      </trkpt>
      <trkpt lat="42.771539" lon="0.781483">
        <ele>1282.508</ele>
        <time>2021-06-18T09:05:59Z</time>
      </trkpt>
      <trkpt lat="42.771631" lon="0.781556">
        <ele>1284.059</ele>
        <time>2021-06-18T09:06:05Z</time>
      </trkpt>
      <trkpt lat="42.771699" lon="0.781641">
        <ele>1283.868</ele>
        <time>2021-06-18T09:06:10Z</time>
      </trkpt>
      <trkpt lat="42.771716" lon="0.781653">
        <ele>1284.144</ele>
        <time>2021-06-18T09:06:11Z</time>
      </trkpt>
      <trkpt lat="42.771789" lon="0.781679">
        <ele>1286.828</ele>
        <time>2021-06-18T09:06:15Z</time>
      </trkpt>
      <trkpt lat="42.771843" lon="0.781704">
        <ele>1288.792</ele>
        <time>2021-06-18T09:06:18Z</time>
      </trkpt>
      <trkpt lat="42.771901" lon="0.781771">
        <ele>1289.462</ele>
        <time>2021-06-18T09:06:22Z</time>
      </trkpt>
      <trkpt lat="42.771925" lon="0.781820">
        <ele>1289.185</ele>
        <time>2021-06-18T09:06:24Z</time>
      </trkpt>
      <trkpt lat="42.771995" lon="0.781953">
        <ele>1289.022</ele>
        <time>2021-06-18T09:06:30Z</time>
      </trkpt>
      <trkpt lat="42.772007" lon="0.781971">
        <ele>1289.314</ele>
        <time>2021-06-18T09:06:31Z</time>
      </trkpt>
      <trkpt lat="42.772077" lon="0.782064">
        <ele>1291.454</ele>
        <time>2021-06-18T09:06:36Z</time>
      </trkpt>
      <trkpt lat="42.772104" lon="0.782109">
        <ele>1291.909</ele>
        <time>2021-06-18T09:06:38Z</time>
      </trkpt>
      <trkpt lat="42.772128" lon="0.782216">
        <ele>1290.708</ele>
        <time>2021-06-18T09:06:42Z</time>
      </trkpt>
      <trkpt lat="42.772090" lon="0.782367">
        <ele>1290.598</ele>
        <time>2021-06-18T09:06:47Z</time>
      </trkpt>
      <trkpt lat="42.772034" lon="0.782488">
        <ele>1289.227</ele>
        <time>2021-06-18T09:06:52Z</time>
      </trkpt>
      <trkpt lat="42.772008" lon="0.782529">
        <ele>1288.493</ele>
        <time>2021-06-18T09:06:54Z</time>
      </trkpt>
      <trkpt lat="42.771990" lon="0.782589">
        <ele>1288.227</ele>
        <time>2021-06-18T09:06:57Z</time>
      </trkpt>
      <trkpt lat="42.771972" lon="0.782641">
        <ele>1287.951</ele>
        <time>2021-06-18T09:07:01Z</time>
      </trkpt>
      <trkpt lat="42.771972" lon="0.782643">
        <ele>1287.971</ele>
        <time>2021-06-18T09:07:02Z</time>
      </trkpt>
      <trkpt lat="42.772015" lon="0.782683">
        <ele>1291.554</ele>
        <time>2021-06-18T09:08:15Z</time>
      </trkpt>
      <trkpt lat="42.772010" lon="0.782735">
        <ele>1292.041</ele>
        <time>2021-06-18T09:08:18Z</time>
      </trkpt>
      <trkpt lat="42.771986" lon="0.782871">
        <ele>1294.059</ele>
        <time>2021-06-18T09:08:24Z</time>
      </trkpt>
      <trkpt lat="42.771961" lon="0.782961">
        <ele>1295.103</ele>
        <time>2021-06-18T09:08:28Z</time>
      </trkpt>
      <trkpt lat="42.771944" lon="0.783008">
        <ele>1295.423</ele>
        <time>2021-06-18T09:08:31Z</time>
      </trkpt>
      <trkpt lat="42.771938" lon="0.783051">
        <ele>1296.308</ele>
        <time>2021-06-18T09:08:34Z</time>
      </trkpt>
      <trkpt lat="42.771939" lon="0.783086">
        <ele>1296.852</ele>
        <time>2021-06-18T09:08:36Z</time>
      </trkpt>
      <trkpt lat="42.771943" lon="0.783139">
        <ele>1297.541</ele>
        <time>2021-06-18T09:08:39Z</time>
      </trkpt>
      <trkpt lat="42.771950" lon="0.783179">
        <ele>1298.457</ele>
        <time>2021-06-18T09:08:41Z</time>
      </trkpt>
      <trkpt lat="42.771952" lon="0.783201">
        <ele>1298.791</ele>
        <time>2021-06-18T09:08:42Z</time>
      </trkpt>
      <trkpt lat="42.771958" lon="0.783264">
        <ele>1299.895</ele>
        <time>2021-06-18T09:08:45Z</time>
      </trkpt>
      <trkpt lat="42.771963" lon="0.783321">
        <ele>1300.895</ele>
        <time>2021-06-18T09:08:48Z</time>
      </trkpt>
      <trkpt lat="42.771965" lon="0.783336">
        <ele>1301.258</ele>
        <time>2021-06-18T09:08:49Z</time>
      </trkpt>
      <trkpt lat="42.771970" lon="0.783400">
        <ele>1302.935</ele>
        <time>2021-06-18T09:08:54Z</time>
      </trkpt>
      <trkpt lat="42.771964" lon="0.783416">
        <ele>1302.514</ele>
        <time>2021-06-18T09:08:55Z</time>
      </trkpt>
      <trkpt lat="42.771944" lon="0.783499">
        <ele>1301.954</ele>
        <time>2021-06-18T09:09:00Z</time>
      </trkpt>
      <trkpt lat="42.771944" lon="0.783514">
        <ele>1302.209</ele>
        <time>2021-06-18T09:09:01Z</time>
      </trkpt>
      <trkpt lat="42.771944" lon="0.783595">
        <ele>1303.708</ele>
        <time>2021-06-18T09:09:06Z</time>
      </trkpt>
      <trkpt lat="42.771944" lon="0.783611">
        <ele>1304.098</ele>
        <time>2021-06-18T09:09:07Z</time>
      </trkpt>
      <trkpt lat="42.771945" lon="0.783711">
        <ele>1304.127</ele>
        <time>2021-06-18T09:09:12Z</time>
      </trkpt>
      <trkpt lat="42.771948" lon="0.783756">
        <ele>1304.433</ele>
        <time>2021-06-18T09:09:14Z</time>
      </trkpt>
      <trkpt lat="42.771973" lon="0.783832">
        <ele>1307.127</ele>
        <time>2021-06-18T09:09:18Z</time>
      </trkpt>
      <trkpt lat="42.771985" lon="0.783866">
        <ele>1308.581</ele>
        <time>2021-06-18T09:09:20Z</time>
      </trkpt>
      <trkpt lat="42.771989" lon="0.783884">
        <ele>1309.021</ele>
        <time>2021-06-18T09:09:21Z</time>
      </trkpt>
      <trkpt lat="42.771998" lon="0.783947">
        <ele>1309.574</ele>
        <time>2021-06-18T09:09:24Z</time>
      </trkpt>
      <trkpt lat="42.771997" lon="0.783983">
        <ele>1309.141</ele>
        <time>2021-06-18T09:09:26Z</time>
      </trkpt>
      <trkpt lat="42.771998" lon="0.784003">
        <ele>1309.155</ele>
        <time>2021-06-18T09:09:27Z</time>
      </trkpt>
      <trkpt lat="42.772008" lon="0.784076">
        <ele>1309.507</ele>
        <time>2021-06-18T09:09:31Z</time>
      </trkpt>
      <trkpt lat="42.772012" lon="0.784097">
        <ele>1309.717</ele>
        <time>2021-06-18T09:09:32Z</time>
      </trkpt>
      <trkpt lat="42.772022" lon="0.784193">
        <ele>1309.608</ele>
        <time>2021-06-18T09:09:37Z</time>
      </trkpt>
      <trkpt lat="42.772030" lon="0.784207">
        <ele>1310.142</ele>
        <time>2021-06-18T09:09:38Z</time>
      </trkpt>
      <trkpt lat="42.772067" lon="0.784289">
        <ele>1311.961</ele>
        <time>2021-06-18T09:09:43Z</time>
      </trkpt>
      <trkpt lat="42.772074" lon="0.784304">
        <ele>1312.377</ele>
        <time>2021-06-18T09:09:44Z</time>
      </trkpt>
      <trkpt lat="42.772080" lon="0.784319">
        <ele>1312.541</ele>
        <time>2021-06-18T09:09:45Z</time>
      </trkpt>
      <trkpt lat="42.772105" lon="0.784399">
        <ele>1313.085</ele>
        <time>2021-06-18T09:09:50Z</time>
      </trkpt>
      <trkpt lat="42.772115" lon="0.784413">
        <ele>1313.585</ele>
        <time>2021-06-18T09:09:51Z</time>
      </trkpt>
      <trkpt lat="42.772160" lon="0.784458">
        <ele>1315.828</ele>
        <time>2021-06-18T09:09:55Z</time>
      </trkpt>
      <trkpt lat="42.772170" lon="0.784472">
        <ele>1315.925</ele>
        <time>2021-06-18T09:09:56Z</time>
      </trkpt>
      <trkpt lat="42.772180" lon="0.784485">
        <ele>1316.155</ele>
        <time>2021-06-18T09:09:57Z</time>
      </trkpt>
      <trkpt lat="42.772229" lon="0.784532">
        <ele>1317.607</ele>
        <time>2021-06-18T09:10:01Z</time>
      </trkpt>
      <trkpt lat="42.772251" lon="0.784547">
        <ele>1318.417</ele>
        <time>2021-06-18T09:10:03Z</time>
      </trkpt>
      <trkpt lat="42.772290" lon="0.784582">
        <ele>1319.308</ele>
        <time>2021-06-18T09:10:07Z</time>
      </trkpt>
      <trkpt lat="42.772312" lon="0.784600">
        <ele>1320.092</ele>
        <time>2021-06-18T09:10:09Z</time>
      </trkpt>
      <trkpt lat="42.772331" lon="0.784623">
        <ele>1320.221</ele>
        <time>2021-06-18T09:10:11Z</time>
      </trkpt>
      <trkpt lat="42.772357" lon="0.784661">
        <ele>1320.367</ele>
        <time>2021-06-18T09:10:14Z</time>
      </trkpt>
      <trkpt lat="42.772367" lon="0.784695">
        <ele>1319.541</ele>
        <time>2021-06-18T09:10:16Z</time>
      </trkpt>
      <trkpt lat="42.772367" lon="0.784720">
        <ele>1318.595</ele>
        <time>2021-06-18T09:10:17Z</time>
      </trkpt>
      <trkpt lat="42.772366" lon="0.784742">
        <ele>1318.685</ele>
        <time>2021-06-18T09:10:18Z</time>
      </trkpt>
      <trkpt lat="42.772368" lon="0.784793">
        <ele>1319.578</ele>
        <time>2021-06-18T09:10:21Z</time>
      </trkpt>
      <trkpt lat="42.772365" lon="0.784827">
        <ele>1319.865</ele>
        <time>2021-06-18T09:10:23Z</time>
      </trkpt>
      <trkpt lat="42.772342" lon="0.784896">
        <ele>1319.159</ele>
        <time>2021-06-18T09:10:27Z</time>
      </trkpt>
      <trkpt lat="42.772337" lon="0.784908">
        <ele>1318.903</ele>
        <time>2021-06-18T09:10:28Z</time>
      </trkpt>
      <trkpt lat="42.772322" lon="0.784935">
        <ele>1318.123</ele>
        <time>2021-06-18T09:10:30Z</time>
      </trkpt>
      <trkpt lat="42.772301" lon="0.785003">
        <ele>1317.408</ele>
        <time>2021-06-18T09:10:34Z</time>
      </trkpt>
      <trkpt lat="42.772285" lon="0.785042">
        <ele>1317.792</ele>
        <time>2021-06-18T09:10:37Z</time>
      </trkpt>
      <trkpt lat="42.772261" lon="0.785105">
        <ele>1318.111</ele>
        <time>2021-06-18T09:10:41Z</time>
      </trkpt>
      <trkpt lat="42.772246" lon="0.785159">
        <ele>1318.967</ele>
        <time>2021-06-18T09:10:44Z</time>
      </trkpt>
      <trkpt lat="42.772244" lon="0.785181">
        <ele>1319.511</ele>
        <time>2021-06-18T09:10:45Z</time>
      </trkpt>
      <trkpt lat="42.772238" lon="0.785209">
        <ele>1320.055</ele>
        <time>2021-06-18T09:10:46Z</time>
      </trkpt>
      <trkpt lat="42.772240" lon="0.785276">
        <ele>1322.745</ele>
        <time>2021-06-18T09:10:49Z</time>
      </trkpt>
      <trkpt lat="42.772244" lon="0.785294">
        <ele>1323.288</ele>
        <time>2021-06-18T09:10:50Z</time>
      </trkpt>
      <trkpt lat="42.772247" lon="0.785343">
        <ele>1323.775</ele>
        <time>2021-06-18T09:10:52Z</time>
      </trkpt>
      <trkpt lat="42.772255" lon="0.785427">
        <ele>1324.819</ele>
        <time>2021-06-18T09:10:56Z</time>
      </trkpt>
      <trkpt lat="42.772257" lon="0.785495">
        <ele>1325.309</ele>
        <time>2021-06-18T09:10:59Z</time>
      </trkpt>
      <trkpt lat="42.772264" lon="0.785559">
        <ele>1326.219</ele>
        <time>2021-06-18T09:11:02Z</time>
      </trkpt>
      <trkpt lat="42.772279" lon="0.785616">
        <ele>1327.708</ele>
        <time>2021-06-18T09:11:05Z</time>
      </trkpt>
      <trkpt lat="42.772290" lon="0.785672">
        <ele>1328.728</ele>
        <time>2021-06-18T09:11:08Z</time>
      </trkpt>
      <trkpt lat="42.772293" lon="0.785732">
        <ele>1329.057</ele>
        <time>2021-06-18T09:11:11Z</time>
      </trkpt>
      <trkpt lat="42.772297" lon="0.785788">
        <ele>1329.353</ele>
        <time>2021-06-18T09:11:14Z</time>
      </trkpt>
      <trkpt lat="42.772299" lon="0.785807">
        <ele>1329.567</ele>
        <time>2021-06-18T09:11:15Z</time>
      </trkpt>
      <trkpt lat="42.772296" lon="0.785896">
        <ele>1330.231</ele>
        <time>2021-06-18T09:11:20Z</time>
      </trkpt>
      <trkpt lat="42.772296" lon="0.785912">
        <ele>1330.461</ele>
        <time>2021-06-18T09:11:21Z</time>
      </trkpt>
      <trkpt lat="42.772273" lon="0.785994">
        <ele>1329.624</ele>
        <time>2021-06-18T09:11:26Z</time>
      </trkpt>
      <trkpt lat="42.772265" lon="0.786017">
        <ele>1329.381</ele>
        <time>2021-06-18T09:11:27Z</time>
      </trkpt>
      <trkpt lat="42.772260" lon="0.786056">
        <ele>1329.568</ele>
        <time>2021-06-18T09:11:29Z</time>
      </trkpt>
      <trkpt lat="42.772259" lon="0.786088">
        <ele>1329.942</ele>
        <time>2021-06-18T09:11:31Z</time>
      </trkpt>
      <trkpt lat="42.772258" lon="0.786105">
        <ele>1330.126</ele>
        <time>2021-06-18T09:11:32Z</time>
      </trkpt>
      <trkpt lat="42.772260" lon="0.786124">
        <ele>1330.408</ele>
        <time>2021-06-18T09:11:33Z</time>
      </trkpt>
      <trkpt lat="42.772270" lon="0.786202">
        <ele>1331.293</ele>
        <time>2021-06-18T09:11:37Z</time>
      </trkpt>
      <trkpt lat="42.772281" lon="0.786242">
        <ele>1331.922</ele>
        <time>2021-06-18T09:11:39Z</time>
      </trkpt>
      <trkpt lat="42.772323" lon="0.786321">
        <ele>1334.068</ele>
        <time>2021-06-18T09:11:44Z</time>
      </trkpt>
      <trkpt lat="42.772336" lon="0.786334">
        <ele>1334.672</ele>
        <time>2021-06-18T09:11:45Z</time>
      </trkpt>
      <trkpt lat="42.772389" lon="0.786373">
        <ele>1336.536</ele>
        <time>2021-06-18T09:11:49Z</time>
      </trkpt>
      <trkpt lat="42.772432" lon="0.786387">
        <ele>1338.156</ele>
        <time>2021-06-18T09:11:52Z</time>
      </trkpt>
      <trkpt lat="42.772457" lon="0.786395">
        <ele>1338.949</ele>
        <time>2021-06-18T09:11:54Z</time>
      </trkpt>
      <trkpt lat="42.772516" lon="0.786430">
        <ele>1340.196</ele>
        <time>2021-06-18T09:11:59Z</time>
      </trkpt>
      <trkpt lat="42.772530" lon="0.786435">
        <ele>1340.443</ele>
        <time>2021-06-18T09:12:00Z</time>
      </trkpt>
      <trkpt lat="42.772592" lon="0.786442">
        <ele>1342.364</ele>
        <time>2021-06-18T09:12:05Z</time>
      </trkpt>
      <trkpt lat="42.772616" lon="0.786447">
        <ele>1342.910</ele>
        <time>2021-06-18T09:12:07Z</time>
      </trkpt>
      <trkpt lat="42.772673" lon="0.786438">
        <ele>1345.208</ele>
        <time>2021-06-18T09:12:11Z</time>
      </trkpt>
      <trkpt lat="42.772686" lon="0.786444">
        <ele>1345.461</ele>
        <time>2021-06-18T09:12:12Z</time>
      </trkpt>
      <trkpt lat="42.772708" lon="0.786462">
        <ele>1345.760</ele>
        <time>2021-06-18T09:12:14Z</time>
      </trkpt>
      <trkpt lat="42.772736" lon="0.786515">
        <ele>1345.326</ele>
        <time>2021-06-18T09:12:17Z</time>
      </trkpt>
      <trkpt lat="42.772743" lon="0.786573">
        <ele>1344.090</ele>
        <time>2021-06-18T09:12:20Z</time>
      </trkpt>
      <trkpt lat="42.772739" lon="0.786603">
        <ele>1343.044</ele>
        <time>2021-06-18T09:12:22Z</time>
      </trkpt>
      <trkpt lat="42.772736" lon="0.786614">
        <ele>1342.634</ele>
        <time>2021-06-18T09:12:23Z</time>
      </trkpt>
      <trkpt lat="42.772711" lon="0.786661">
        <ele>1340.397</ele>
        <time>2021-06-18T09:12:27Z</time>
      </trkpt>
      <trkpt lat="42.772692" lon="0.786713">
        <ele>1340.674</ele>
        <time>2021-06-18T09:12:30Z</time>
      </trkpt>
      <trkpt lat="42.772686" lon="0.786732">
        <ele>1340.899</ele>
        <time>2021-06-18T09:12:31Z</time>
      </trkpt>
      <trkpt lat="42.772664" lon="0.786793">
        <ele>1341.207</ele>
        <time>2021-06-18T09:12:35Z</time>
      </trkpt>
      <trkpt lat="42.772645" lon="0.786889">
        <ele>1342.227</ele>
        <time>2021-06-18T09:12:40Z</time>
      </trkpt>
      <trkpt lat="42.772643" lon="0.786914">
        <ele>1342.708</ele>
        <time>2021-06-18T09:12:41Z</time>
      </trkpt>
      <trkpt lat="42.772648" lon="0.787009">
        <ele>1343.996</ele>
        <time>2021-06-18T09:12:45Z</time>
      </trkpt>
      <trkpt lat="42.772653" lon="0.787032">
        <ele>1344.455</ele>
        <time>2021-06-18T09:12:46Z</time>
      </trkpt>
      <trkpt lat="42.772667" lon="0.787072">
        <ele>1345.671</ele>
        <time>2021-06-18T09:12:48Z</time>
      </trkpt>
      <trkpt lat="42.772696" lon="0.787203">
        <ele>1348.135</ele>
        <time>2021-06-18T09:12:54Z</time>
      </trkpt>
      <trkpt lat="42.772717" lon="0.787232">
        <ele>1349.389</ele>
        <time>2021-06-18T09:12:56Z</time>
      </trkpt>
      <trkpt lat="42.772763" lon="0.787291">
        <ele>1350.599</ele>
        <time>2021-06-18T09:13:00Z</time>
      </trkpt>
      <trkpt lat="42.772806" lon="0.787348">
        <ele>1351.362</ele>
        <time>2021-06-18T09:13:04Z</time>
      </trkpt>
      <trkpt lat="42.772850" lon="0.787432">
        <ele>1350.829</ele>
        <time>2021-06-18T09:13:09Z</time>
      </trkpt>
      <trkpt lat="42.772916" lon="0.787463">
        <ele>1353.551</ele>
        <time>2021-06-18T09:13:14Z</time>
      </trkpt>
      <trkpt lat="42.772928" lon="0.787471">
        <ele>1353.901</ele>
        <time>2021-06-18T09:13:15Z</time>
      </trkpt>
      <trkpt lat="42.772970" lon="0.787521">
        <ele>1354.411</ele>
        <time>2021-06-18T09:13:19Z</time>
      </trkpt>
      <trkpt lat="42.773004" lon="0.787553">
        <ele>1355.508</ele>
        <time>2021-06-18T09:13:22Z</time>
      </trkpt>
      <trkpt lat="42.773042" lon="0.787581">
        <ele>1356.932</ele>
        <time>2021-06-18T09:13:25Z</time>
      </trkpt>
      <trkpt lat="42.773065" lon="0.787606">
        <ele>1357.581</ele>
        <time>2021-06-18T09:13:27Z</time>
      </trkpt>
      <trkpt lat="42.773088" lon="0.787655">
        <ele>1357.787</ele>
        <time>2021-06-18T09:13:30Z</time>
      </trkpt>
      <trkpt lat="42.773128" lon="0.787703">
        <ele>1359.111</ele>
        <time>2021-06-18T09:13:34Z</time>
      </trkpt>
      <trkpt lat="42.773139" lon="0.787716">
        <ele>1359.545</ele>
        <time>2021-06-18T09:13:35Z</time>
      </trkpt>
      <trkpt lat="42.773158" lon="0.787785">
        <ele>1359.415</ele>
        <time>2021-06-18T09:13:39Z</time>
      </trkpt>
      <trkpt lat="42.773160" lon="0.787869">
        <ele>1359.418</ele>
        <time>2021-06-18T09:13:43Z</time>
      </trkpt>
      <trkpt lat="42.773157" lon="0.787889">
        <ele>1359.165</ele>
        <time>2021-06-18T09:13:44Z</time>
      </trkpt>
      <trkpt lat="42.773162" lon="0.787936">
        <ele>1359.437</ele>
        <time>2021-06-18T09:13:47Z</time>
      </trkpt>
      <trkpt lat="42.773171" lon="0.787972">
        <ele>1359.849</ele>
        <time>2021-06-18T09:13:49Z</time>
      </trkpt>
      <trkpt lat="42.773176" lon="0.787987">
        <ele>1360.113</ele>
        <time>2021-06-18T09:13:50Z</time>
      </trkpt>
      <trkpt lat="42.773196" lon="0.788035">
        <ele>1361.208</ele>
        <time>2021-06-18T09:13:53Z</time>
      </trkpt>
      <trkpt lat="42.773209" lon="0.788073">
        <ele>1361.620</ele>
        <time>2021-06-18T09:13:55Z</time>
      </trkpt>
      <trkpt lat="42.773222" lon="0.788139">
        <ele>1361.519</ele>
        <time>2021-06-18T09:13:58Z</time>
      </trkpt>
      <trkpt lat="42.773228" lon="0.788158">
        <ele>1361.665</ele>
        <time>2021-06-18T09:13:59Z</time>
      </trkpt>
      <trkpt lat="42.773235" lon="0.788175">
        <ele>1361.819</ele>
        <time>2021-06-18T09:14:00Z</time>
      </trkpt>
      <trkpt lat="42.773254" lon="0.788232">
        <ele>1362.113</ele>
        <time>2021-06-18T09:14:03Z</time>
      </trkpt>
      <trkpt lat="42.773294" lon="0.788293">
        <ele>1363.413</ele>
        <time>2021-06-18T09:14:07Z</time>
      </trkpt>
      <trkpt lat="42.773326" lon="0.788405">
        <ele>1364.986</ele>
        <time>2021-06-18T09:14:13Z</time>
      </trkpt>
      <trkpt lat="42.773312" lon="0.788530">
        <ele>1364.763</ele>
        <time>2021-06-18T09:14:19Z</time>
      </trkpt>
      <trkpt lat="42.773311" lon="0.788551">
        <ele>1364.725</ele>
        <time>2021-06-18T09:14:20Z</time>
      </trkpt>
      <trkpt lat="42.773317" lon="0.788693">
        <ele>1364.926</ele>
        <time>2021-06-18T09:14:27Z</time>
      </trkpt>
      <trkpt lat="42.773323" lon="0.788712">
        <ele>1365.208</ele>
        <time>2021-06-18T09:14:28Z</time>
      </trkpt>
      <trkpt lat="42.773379" lon="0.788808">
        <ele>1367.108</ele>
        <time>2021-06-18T09:14:34Z</time>
      </trkpt>
      <trkpt lat="42.773404" lon="0.788835">
        <ele>1367.979</ele>
        <time>2021-06-18T09:14:36Z</time>
      </trkpt>
      <trkpt lat="42.773439" lon="0.788883">
        <ele>1368.848</ele>
        <time>2021-06-18T09:14:40Z</time>
      </trkpt>
      <trkpt lat="42.773466" lon="0.788934">
        <ele>1369.464</ele>
        <time>2021-06-18T09:14:43Z</time>
      </trkpt>
      <trkpt lat="42.773507" lon="0.788992">
        <ele>1370.498</ele>
        <time>2021-06-18T09:14:47Z</time>
      </trkpt>
      <trkpt lat="42.773530" lon="0.789019">
        <ele>1371.032</ele>
        <time>2021-06-18T09:14:49Z</time>
      </trkpt>
      <trkpt lat="42.773546" lon="0.789078">
        <ele>1371.192</ele>
        <time>2021-06-18T09:14:52Z</time>
      </trkpt>
      <trkpt lat="42.773551" lon="0.789120">
        <ele>1371.075</ele>
        <time>2021-06-18T09:14:54Z</time>
      </trkpt>
      <trkpt lat="42.773571" lon="0.789150">
        <ele>1371.552</ele>
        <time>2021-06-18T09:14:56Z</time>
      </trkpt>
      <trkpt lat="42.773582" lon="0.789165">
        <ele>1371.961</ele>
        <time>2021-06-18T09:14:57Z</time>
      </trkpt>
      <trkpt lat="42.773611" lon="0.789217">
        <ele>1372.321</ele>
        <time>2021-06-18T09:15:00Z</time>
      </trkpt>
      <trkpt lat="42.773625" lon="0.789256">
        <ele>1372.213</ele>
        <time>2021-06-18T09:15:02Z</time>
      </trkpt>
      <trkpt lat="42.773638" lon="0.789294">
        <ele>1372.108</ele>
        <time>2021-06-18T09:15:04Z</time>
      </trkpt>
      <trkpt lat="42.773646" lon="0.789310">
        <ele>1372.193</ele>
        <time>2021-06-18T09:15:05Z</time>
      </trkpt>
      <trkpt lat="42.773672" lon="0.789337">
        <ele>1372.742</ele>
        <time>2021-06-18T09:15:07Z</time>
      </trkpt>
      <trkpt lat="42.773717" lon="0.789361">
        <ele>1373.948</ele>
        <time>2021-06-18T09:15:10Z</time>
      </trkpt>
      <trkpt lat="42.773733" lon="0.789362">
        <ele>1374.452</ele>
        <time>2021-06-18T09:15:11Z</time>
      </trkpt>
      <trkpt lat="42.773804" lon="0.789331">
        <ele>1377.376</ele>
        <time>2021-06-18T09:15:16Z</time>
      </trkpt>
      <trkpt lat="42.773808" lon="0.789317">
        <ele>1377.666</ele>
        <time>2021-06-18T09:15:17Z</time>
      </trkpt>
      <trkpt lat="42.773824" lon="0.789228">
        <ele>1379.239</ele>
        <time>2021-06-18T09:15:22Z</time>
      </trkpt>
      <trkpt lat="42.773814" lon="0.789171">
        <ele>1379.586</ele>
        <time>2021-06-18T09:15:25Z</time>
      </trkpt>
      <trkpt lat="42.773793" lon="0.789113">
        <ele>1379.335</ele>
        <time>2021-06-18T09:15:28Z</time>
      </trkpt>
      <trkpt lat="42.773775" lon="0.789078">
        <ele>1378.986</ele>
        <time>2021-06-18T09:15:30Z</time>
      </trkpt>
      <trkpt lat="42.773758" lon="0.789020">
        <ele>1378.814</ele>
        <time>2021-06-18T09:15:33Z</time>
      </trkpt>
      <trkpt lat="42.773756" lon="0.789000">
        <ele>1378.908</ele>
        <time>2021-06-18T09:15:34Z</time>
      </trkpt>
      <trkpt lat="42.773755" lon="0.788978">
        <ele>1379.020</ele>
        <time>2021-06-18T09:15:35Z</time>
      </trkpt>
      <trkpt lat="42.773745" lon="0.788872">
        <ele>1379.669</ele>
        <time>2021-06-18T09:15:40Z</time>
      </trkpt>
      <trkpt lat="42.773748" lon="0.788808">
        <ele>1380.635</ele>
        <time>2021-06-18T09:15:43Z</time>
      </trkpt>
      <trkpt lat="42.773731" lon="0.788749">
        <ele>1380.979</ele>
        <time>2021-06-18T09:15:46Z</time>
      </trkpt>
      <trkpt lat="42.773729" lon="0.788729">
        <ele>1381.173</ele>
        <time>2021-06-18T09:15:47Z</time>
      </trkpt>
      <trkpt lat="42.773726" lon="0.788689">
        <ele>1381.673</ele>
        <time>2021-06-18T09:15:49Z</time>
      </trkpt>
      <trkpt lat="42.773727" lon="0.788626">
        <ele>1382.526</ele>
        <time>2021-06-18T09:15:52Z</time>
      </trkpt>
      <trkpt lat="42.773723" lon="0.788607">
        <ele>1382.743</ele>
        <time>2021-06-18T09:15:53Z</time>
      </trkpt>
      <trkpt lat="42.773711" lon="0.788545">
        <ele>1382.944</ele>
        <time>2021-06-18T09:15:56Z</time>
      </trkpt>
      <trkpt lat="42.773710" lon="0.788500">
        <ele>1383.305</ele>
        <time>2021-06-18T09:15:58Z</time>
      </trkpt>
      <trkpt lat="42.773717" lon="0.788459">
        <ele>1383.915</ele>
        <time>2021-06-18T09:16:00Z</time>
      </trkpt>
      <trkpt lat="42.773720" lon="0.788398">
        <ele>1384.708</ele>
        <time>2021-06-18T09:16:03Z</time>
      </trkpt>
      <trkpt lat="42.773714" lon="0.788379">
        <ele>1384.611</ele>
        <time>2021-06-18T09:16:04Z</time>
      </trkpt>
      <trkpt lat="42.773709" lon="0.788300">
        <ele>1385.230</ele>
        <time>2021-06-18T09:16:08Z</time>
      </trkpt>
      <trkpt lat="42.773714" lon="0.788259">
        <ele>1385.956</ele>
        <time>2021-06-18T09:16:10Z</time>
      </trkpt>
      <trkpt lat="42.773733" lon="0.788158">
        <ele>1387.720</ele>
        <time>2021-06-18T09:16:15Z</time>
      </trkpt>
      <trkpt lat="42.773733" lon="0.788137">
        <ele>1387.914</ele>
        <time>2021-06-18T09:16:16Z</time>
      </trkpt>
      <trkpt lat="42.773723" lon="0.788033">
        <ele>1388.874</ele>
        <time>2021-06-18T09:16:21Z</time>
      </trkpt>
      <trkpt lat="42.773707" lon="0.787976">
        <ele>1389.227</ele>
        <time>2021-06-18T09:16:24Z</time>
      </trkpt>
      <trkpt lat="42.773697" lon="0.787937">
        <ele>1389.544</ele>
        <time>2021-06-18T09:16:26Z</time>
      </trkpt>
      <trkpt lat="42.773691" lon="0.787840">
        <ele>1391.082</ele>
        <time>2021-06-18T09:16:31Z</time>
      </trkpt>
      <trkpt lat="42.773689" lon="0.787819">
        <ele>1391.343</ele>
        <time>2021-06-18T09:16:32Z</time>
      </trkpt>
      <trkpt lat="42.773661" lon="0.787707">
        <ele>1391.817</ele>
        <time>2021-06-18T09:16:38Z</time>
      </trkpt>
      <trkpt lat="42.773647" lon="0.787674">
        <ele>1391.608</ele>
        <time>2021-06-18T09:16:40Z</time>
      </trkpt>
      <trkpt lat="42.773637" lon="0.787637">
        <ele>1391.625</ele>
        <time>2021-06-18T09:16:42Z</time>
      </trkpt>
      <trkpt lat="42.773638" lon="0.787618">
        <ele>1391.914</ele>
        <time>2021-06-18T09:16:43Z</time>
      </trkpt>
      <trkpt lat="42.773642" lon="0.787560">
        <ele>1392.860</ele>
        <time>2021-06-18T09:16:46Z</time>
      </trkpt>
      <trkpt lat="42.773651" lon="0.787523">
        <ele>1393.624</ele>
        <time>2021-06-18T09:16:48Z</time>
      </trkpt>
      <trkpt lat="42.773679" lon="0.787439">
        <ele>1395.988</ele>
        <time>2021-06-18T09:16:53Z</time>
      </trkpt>
      <trkpt lat="42.773676" lon="0.787400">
        <ele>1396.328</ele>
        <time>2021-06-18T09:16:55Z</time>
      </trkpt>
      <trkpt lat="42.773649" lon="0.787265">
        <ele>1396.931</ele>
        <time>2021-06-18T09:17:02Z</time>
      </trkpt>
      <trkpt lat="42.773614" lon="0.787181">
        <ele>1396.918</ele>
        <time>2021-06-18T09:17:07Z</time>
      </trkpt>
      <trkpt lat="42.773595" lon="0.787122">
        <ele>1397.261</ele>
        <time>2021-06-18T09:17:10Z</time>
      </trkpt>
      <trkpt lat="42.773581" lon="0.787084">
        <ele>1397.321</ele>
        <time>2021-06-18T09:17:12Z</time>
      </trkpt>
      <trkpt lat="42.773579" lon="0.786957">
        <ele>1399.513</ele>
        <time>2021-06-18T09:17:18Z</time>
      </trkpt>
      <trkpt lat="42.773601" lon="0.786832">
        <ele>1400.208</ele>
        <time>2021-06-18T09:17:24Z</time>
      </trkpt>
      <trkpt lat="42.773618" lon="0.786796">
        <ele>1400.833</ele>
        <time>2021-06-18T09:17:26Z</time>
      </trkpt>
      <trkpt lat="42.773649" lon="0.786725">
        <ele>1401.882</ele>
        <time>2021-06-18T09:17:30Z</time>
      </trkpt>
      <trkpt lat="42.773681" lon="0.786684">
        <ele>1403.198</ele>
        <time>2021-06-18T09:17:33Z</time>
      </trkpt>
      <trkpt lat="42.773700" lon="0.786653">
        <ele>1403.772</ele>
        <time>2021-06-18T09:17:35Z</time>
      </trkpt>
      <trkpt lat="42.773707" lon="0.786635">
        <ele>1403.716</ele>
        <time>2021-06-18T09:17:36Z</time>
      </trkpt>
      <trkpt lat="42.773736" lon="0.786587">
        <ele>1404.476</ele>
        <time>2021-06-18T09:17:39Z</time>
      </trkpt>
      <trkpt lat="42.773770" lon="0.786515">
        <ele>1405.079</ele>
        <time>2021-06-18T09:17:43Z</time>
      </trkpt>
      <trkpt lat="42.773791" lon="0.786435">
        <ele>1405.016</ele>
        <time>2021-06-18T09:17:47Z</time>
      </trkpt>
      <trkpt lat="42.773803" lon="0.786395">
        <ele>1405.119</ele>
        <time>2021-06-18T09:17:49Z</time>
      </trkpt>
      <trkpt lat="42.773843" lon="0.786260">
        <ele>1406.709</ele>
        <time>2021-06-18T09:17:56Z</time>
      </trkpt>
      <trkpt lat="42.773845" lon="0.786240">
        <ele>1406.819</ele>
        <time>2021-06-18T09:17:57Z</time>
      </trkpt>
      <trkpt lat="42.773876" lon="0.786099">
        <ele>1408.208</ele>
        <time>2021-06-18T09:18:04Z</time>
      </trkpt>
      <trkpt lat="42.773879" lon="0.786080">
        <ele>1408.258</ele>
        <time>2021-06-18T09:18:05Z</time>
      </trkpt>
      <trkpt lat="42.773902" lon="0.785982">
        <ele>1408.827</ele>
        <time>2021-06-18T09:18:10Z</time>
      </trkpt>
      <trkpt lat="42.773921" lon="0.785905">
        <ele>1409.243</ele>
        <time>2021-06-18T09:18:14Z</time>
      </trkpt>
      <trkpt lat="42.773931" lon="0.785867">
        <ele>1409.557</ele>
        <time>2021-06-18T09:18:16Z</time>
      </trkpt>
      <trkpt lat="42.773963" lon="0.785774">
        <ele>1409.961</ele>
        <time>2021-06-18T09:18:21Z</time>
      </trkpt>
      <trkpt lat="42.773970" lon="0.785756">
        <ele>1409.941</ele>
        <time>2021-06-18T09:18:22Z</time>
      </trkpt>
      <trkpt lat="42.774052" lon="0.785640">
        <ele>1411.474</ele>
        <time>2021-06-18T09:18:30Z</time>
      </trkpt>
      <trkpt lat="42.774151" lon="0.785580">
        <ele>1414.171</ele>
        <time>2021-06-18T09:18:37Z</time>
      </trkpt>
      <trkpt lat="42.774165" lon="0.785571">
        <ele>1414.498</ele>
        <time>2021-06-18T09:18:38Z</time>
      </trkpt>
      <trkpt lat="42.774218" lon="0.785536">
        <ele>1415.515</ele>
        <time>2021-06-18T09:18:42Z</time>
      </trkpt>
      <trkpt lat="42.774274" lon="0.785502">
        <ele>1417.026</ele>
        <time>2021-06-18T09:18:46Z</time>
      </trkpt>
      <trkpt lat="42.774315" lon="0.785441">
        <ele>1417.808</ele>
        <time>2021-06-18T09:18:50Z</time>
      </trkpt>
      <trkpt lat="42.774345" lon="0.785397">
        <ele>1418.126</ele>
        <time>2021-06-18T09:18:53Z</time>
      </trkpt>
      <trkpt lat="42.774373" lon="0.785344">
        <ele>1418.135</ele>
        <time>2021-06-18T09:18:56Z</time>
      </trkpt>
      <trkpt lat="42.774423" lon="0.785275">
        <ele>1417.981</ele>
        <time>2021-06-18T09:19:01Z</time>
      </trkpt>
      <trkpt lat="42.774464" lon="0.785249">
        <ele>1419.365</ele>
        <time>2021-06-18T09:19:04Z</time>
      </trkpt>
      <trkpt lat="42.774492" lon="0.785250">
        <ele>1420.039</ele>
        <time>2021-06-18T09:19:06Z</time>
      </trkpt>
      <trkpt lat="42.774506" lon="0.785259">
        <ele>1420.249</ele>
        <time>2021-06-18T09:19:07Z</time>
      </trkpt>
      <trkpt lat="42.774545" lon="0.785329">
        <ele>1421.922</ele>
        <time>2021-06-18T09:19:11Z</time>
      </trkpt>
      <trkpt lat="42.774548" lon="0.785353">
        <ele>1422.519</ele>
        <time>2021-06-18T09:19:12Z</time>
      </trkpt>
      <trkpt lat="42.774531" lon="0.785422">
        <ele>1423.268</ele>
        <time>2021-06-18T09:19:15Z</time>
      </trkpt>
      <trkpt lat="42.774510" lon="0.785460">
        <ele>1423.142</ele>
        <time>2021-06-18T09:19:17Z</time>
      </trkpt>
      <trkpt lat="42.774472" lon="0.785509">
        <ele>1422.526</ele>
        <time>2021-06-18T09:19:20Z</time>
      </trkpt>
      <trkpt lat="42.774404" lon="0.785589">
        <ele>1422.108</ele>
        <time>2021-06-18T09:19:25Z</time>
      </trkpt>
      <trkpt lat="42.774309" lon="0.785670">
        <ele>1422.043</ele>
        <time>2021-06-18T09:19:32Z</time>
      </trkpt>
      <trkpt lat="42.774272" lon="0.785711">
        <ele>1422.162</ele>
        <time>2021-06-18T09:19:35Z</time>
      </trkpt>
      <trkpt lat="42.774215" lon="0.785817">
        <ele>1423.468</ele>
        <time>2021-06-18T09:19:41Z</time>
      </trkpt>
      <trkpt lat="42.774208" lon="0.785876">
        <ele>1423.832</ele>
        <time>2021-06-18T09:19:44Z</time>
      </trkpt>
      <trkpt lat="42.774206" lon="0.785982">
        <ele>1424.286</ele>
        <time>2021-06-18T09:19:49Z</time>
      </trkpt>
      <trkpt lat="42.774220" lon="0.786107">
        <ele>1425.366</ele>
        <time>2021-06-18T09:19:55Z</time>
      </trkpt>
      <trkpt lat="42.774226" lon="0.786126">
        <ele>1425.619</ele>
        <time>2021-06-18T09:19:56Z</time>
      </trkpt>
      <trkpt lat="42.774259" lon="0.786221">
        <ele>1427.016</ele>
        <time>2021-06-18T09:20:01Z</time>
      </trkpt>
      <trkpt lat="42.774275" lon="0.786323">
        <ele>1427.773</ele>
        <time>2021-06-18T09:20:06Z</time>
      </trkpt>
      <trkpt lat="42.774283" lon="0.786363">
        <ele>1428.085</ele>
        <time>2021-06-18T09:20:08Z</time>
      </trkpt>
      <trkpt lat="42.774295" lon="0.786484">
        <ele>1428.713</ele>
        <time>2021-06-18T09:20:14Z</time>
      </trkpt>
      <trkpt lat="42.774299" lon="0.786503">
        <ele>1428.908</ele>
        <time>2021-06-18T09:20:15Z</time>
      </trkpt>
      <trkpt lat="42.774307" lon="0.786627">
        <ele>1429.514</ele>
        <time>2021-06-18T09:20:21Z</time>
      </trkpt>
      <trkpt lat="42.774315" lon="0.786666">
        <ele>1429.993</ele>
        <time>2021-06-18T09:20:23Z</time>
      </trkpt>
      <trkpt lat="42.774332" lon="0.786744">
        <ele>1430.019</ele>
        <time>2021-06-18T09:20:27Z</time>
      </trkpt>
      <trkpt lat="42.774392" lon="0.786853">
        <ele>1431.343</ele>
        <time>2021-06-18T09:20:34Z</time>
      </trkpt>
      <trkpt lat="42.774458" lon="0.786900">
        <ele>1432.987</ele>
        <time>2021-06-18T09:20:39Z</time>
      </trkpt>
      <trkpt lat="42.774483" lon="0.786918">
        <ele>1433.477</ele>
        <time>2021-06-18T09:20:41Z</time>
      </trkpt>
      <trkpt lat="42.774539" lon="0.786978">
        <ele>1434.410</ele>
        <time>2021-06-18T09:20:46Z</time>
      </trkpt>
      <trkpt lat="42.774578" lon="0.787008">
        <ele>1435.447</ele>
        <time>2021-06-18T09:20:49Z</time>
      </trkpt>
      <trkpt lat="42.774622" lon="0.787063">
        <ele>1436.493</ele>
        <time>2021-06-18T09:20:53Z</time>
      </trkpt>
      <trkpt lat="42.774641" lon="0.787119">
        <ele>1436.765</ele>
        <time>2021-06-18T09:20:56Z</time>
      </trkpt>
      <trkpt lat="42.774678" lon="0.787206">
        <ele>1437.521</ele>
        <time>2021-06-18T09:21:01Z</time>
      </trkpt>
      <trkpt lat="42.774738" lon="0.787264">
        <ele>1438.608</ele>
        <time>2021-06-18T09:21:06Z</time>
      </trkpt>
      <trkpt lat="42.774750" lon="0.787276">
        <ele>1438.546</ele>
        <time>2021-06-18T09:21:07Z</time>
      </trkpt>
      <trkpt lat="42.774804" lon="0.787341">
        <ele>1437.975</ele>
        <time>2021-06-18T09:21:12Z</time>
      </trkpt>
      <trkpt lat="42.774813" lon="0.787357">
        <ele>1437.751</ele>
        <time>2021-06-18T09:21:13Z</time>
      </trkpt>
      <trkpt lat="42.774838" lon="0.787363">
        <ele>1437.815</ele>
        <time>2021-06-18T09:21:15Z</time>
      </trkpt>
      <trkpt lat="42.774893" lon="0.787332">
        <ele>1438.889</ele>
        <time>2021-06-18T09:21:19Z</time>
      </trkpt>
      <trkpt lat="42.774907" lon="0.787321">
        <ele>1439.169</ele>
        <time>2021-06-18T09:21:20Z</time>
      </trkpt>
      <trkpt lat="42.774948" lon="0.787295">
        <ele>1440.022</ele>
        <time>2021-06-18T09:21:23Z</time>
      </trkpt>
      <trkpt lat="42.774962" lon="0.787286">
        <ele>1440.399</ele>
        <time>2021-06-18T09:21:24Z</time>
      </trkpt>
      <trkpt lat="42.774986" lon="0.787263">
        <ele>1441.079</ele>
        <time>2021-06-18T09:21:26Z</time>
      </trkpt>
      <trkpt lat="42.775007" lon="0.787229">
        <ele>1441.805</ele>
        <time>2021-06-18T09:21:28Z</time>
      </trkpt>
      <trkpt lat="42.775043" lon="0.787184">
        <ele>1442.325</ele>
        <time>2021-06-18T09:21:31Z</time>
      </trkpt>
      <trkpt lat="42.775097" lon="0.787142">
        <ele>1442.708</ele>
        <time>2021-06-18T09:21:35Z</time>
      </trkpt>
      <trkpt lat="42.775123" lon="0.787121">
        <ele>1442.934</ele>
        <time>2021-06-18T09:21:37Z</time>
      </trkpt>
      <trkpt lat="42.775189" lon="0.787035">
        <ele>1444.393</ele>
        <time>2021-06-18T09:21:43Z</time>
      </trkpt>
      <trkpt lat="42.775235" lon="0.786958">
        <ele>1445.739</ele>
        <time>2021-06-18T09:21:48Z</time>
      </trkpt>
      <trkpt lat="42.775296" lon="0.786906">
        <ele>1446.783</ele>
        <time>2021-06-18T09:21:53Z</time>
      </trkpt>
      <trkpt lat="42.775324" lon="0.786889">
        <ele>1447.147</ele>
        <time>2021-06-18T09:21:55Z</time>
      </trkpt>
      <trkpt lat="42.775394" lon="0.786850">
        <ele>1448.277</ele>
        <time>2021-06-18T09:22:00Z</time>
      </trkpt>
      <trkpt lat="42.775453" lon="0.786810">
        <ele>1449.240</ele>
        <time>2021-06-18T09:22:04Z</time>
      </trkpt>
      <trkpt lat="42.775468" lon="0.786808">
        <ele>1449.357</ele>
        <time>2021-06-18T09:22:05Z</time>
      </trkpt>
      <trkpt lat="42.775482" lon="0.786802">
        <ele>1449.515</ele>
        <time>2021-06-18T09:22:06Z</time>
      </trkpt>
      <trkpt lat="42.775522" lon="0.786781">
        <ele>1450.165</ele>
        <time>2021-06-18T09:22:09Z</time>
      </trkpt>
      <trkpt lat="42.775564" lon="0.786766">
        <ele>1450.711</ele>
        <time>2021-06-18T09:22:12Z</time>
      </trkpt>
      <trkpt lat="42.775652" lon="0.786733">
        <ele>1451.908</ele>
        <time>2021-06-18T09:22:18Z</time>
      </trkpt>
      <trkpt lat="42.775698" lon="0.786720">
        <ele>1452.548</ele>
        <time>2021-06-18T09:22:21Z</time>
      </trkpt>
      <trkpt lat="42.775759" lon="0.786709">
        <ele>1453.157</ele>
        <time>2021-06-18T09:22:25Z</time>
      </trkpt>
      <trkpt lat="42.775803" lon="0.786722">
        <ele>1453.373</ele>
        <time>2021-06-18T09:22:28Z</time>
      </trkpt>
      <trkpt lat="42.775831" lon="0.786721">
        <ele>1453.677</ele>
        <time>2021-06-18T09:22:30Z</time>
      </trkpt>
      <trkpt lat="42.775933" lon="0.786692">
        <ele>1455.651</ele>
        <time>2021-06-18T09:22:37Z</time>
      </trkpt>
      <trkpt lat="42.776031" lon="0.786754">
        <ele>1457.211</ele>
        <time>2021-06-18T09:22:44Z</time>
      </trkpt>
      <trkpt lat="42.776087" lon="0.786838">
        <ele>1457.924</ele>
        <time>2021-06-18T09:22:49Z</time>
      </trkpt>
      <trkpt lat="42.776109" lon="0.786900">
        <ele>1458.111</ele>
        <time>2021-06-18T09:22:52Z</time>
      </trkpt>
      <trkpt lat="42.776133" lon="0.786986">
        <ele>1458.788</ele>
        <time>2021-06-18T09:22:56Z</time>
      </trkpt>
      <trkpt lat="42.776161" lon="0.787086">
        <ele>1459.524</ele>
        <time>2021-06-18T09:23:01Z</time>
      </trkpt>
      <trkpt lat="42.776167" lon="0.787107">
        <ele>1459.726</ele>
        <time>2021-06-18T09:23:02Z</time>
      </trkpt>
      <trkpt lat="42.776183" lon="0.787223">
        <ele>1460.108</ele>
        <time>2021-06-18T09:23:07Z</time>
      </trkpt>
      <trkpt lat="42.776190" lon="0.787310">
        <ele>1460.955</ele>
        <time>2021-06-18T09:23:11Z</time>
      </trkpt>
      <trkpt lat="42.776179" lon="0.787517">
        <ele>1461.634</ele>
        <time>2021-06-18T09:23:20Z</time>
      </trkpt>
      <trkpt lat="42.776178" lon="0.787538">
        <ele>1461.740</ele>
        <time>2021-06-18T09:23:21Z</time>
      </trkpt>
      <trkpt lat="42.776156" lon="0.787690">
        <ele>1461.724</ele>
        <time>2021-06-18T09:23:28Z</time>
      </trkpt>
      <trkpt lat="42.776147" lon="0.787785">
        <ele>1462.098</ele>
        <time>2021-06-18T09:23:32Z</time>
      </trkpt>
      <trkpt lat="42.776150" lon="0.787885">
        <ele>1462.938</ele>
        <time>2021-06-18T09:23:36Z</time>
      </trkpt>
      <trkpt lat="42.776149" lon="0.787983">
        <ele>1463.511</ele>
        <time>2021-06-18T09:23:40Z</time>
      </trkpt>
      <trkpt lat="42.776154" lon="0.788070">
        <ele>1464.328</ele>
        <time>2021-06-18T09:23:44Z</time>
      </trkpt>
      <trkpt lat="42.776164" lon="0.788202">
        <ele>1464.334</ele>
        <time>2021-06-18T09:23:50Z</time>
      </trkpt>
      <trkpt lat="42.776202" lon="0.788379">
        <ele>1465.255</ele>
        <time>2021-06-18T09:23:58Z</time>
      </trkpt>
      <trkpt lat="42.776212" lon="0.788424">
        <ele>1465.110</ele>
        <time>2021-06-18T09:24:00Z</time>
      </trkpt>
      <trkpt lat="42.776252" lon="0.788551">
        <ele>1465.508</ele>
        <time>2021-06-18T09:24:06Z</time>
      </trkpt>
      <trkpt lat="42.776295" lon="0.788654">
        <ele>1466.680</ele>
        <time>2021-06-18T09:24:11Z</time>
      </trkpt>
      <trkpt lat="42.776299" lon="0.788678">
        <ele>1466.689</ele>
        <time>2021-06-18T09:24:12Z</time>
      </trkpt>
      <trkpt lat="42.776342" lon="0.788884">
        <ele>1467.845</ele>
        <time>2021-06-18T09:24:22Z</time>
      </trkpt>
      <trkpt lat="42.776365" lon="0.789041">
        <ele>1468.449</ele>
        <time>2021-06-18T09:24:29Z</time>
      </trkpt>
      <trkpt lat="42.776374" lon="0.789088">
        <ele>1468.623</ele>
        <time>2021-06-18T09:24:31Z</time>
      </trkpt>
      <trkpt lat="42.776388" lon="0.789277">
        <ele>1469.393</ele>
        <time>2021-06-18T09:24:38Z</time>
      </trkpt>
      <trkpt lat="42.776377" lon="0.789433">
        <ele>1469.366</ele>
        <time>2021-06-18T09:24:44Z</time>
      </trkpt>
      <trkpt lat="42.776367" lon="0.789482">
        <ele>1469.093</ele>
        <time>2021-06-18T09:24:46Z</time>
      </trkpt>
      <trkpt lat="42.776346" lon="0.789679">
        <ele>1469.539</ele>
        <time>2021-06-18T09:24:53Z</time>
      </trkpt>
      <trkpt lat="42.776391" lon="0.789918">
        <ele>1469.201</ele>
        <time>2021-06-18T09:25:01Z</time>
      </trkpt>
      <trkpt lat="42.776529" lon="0.790051">
        <ele>1470.221</ele>
        <time>2021-06-18T09:25:08Z</time>
      </trkpt>
      <trkpt lat="42.776702" lon="0.790178">
        <ele>1471.108</ele>
        <time>2021-06-18T09:25:15Z</time>
      </trkpt>
      <trkpt lat="42.776949" lon="0.790416">
        <ele>1472.390</ele>
        <time>2021-06-18T09:25:25Z</time>
      </trkpt>
      <trkpt lat="42.776989" lon="0.790585">
        <ele>1471.559</ele>
        <time>2021-06-18T09:25:29Z</time>
      </trkpt>
      <trkpt lat="42.776958" lon="0.790813">
        <ele>1469.635</ele>
        <time>2021-06-18T09:25:34Z</time>
      </trkpt>
      <trkpt lat="42.776843" lon="0.790967">
        <ele>1470.799</ele>
        <time>2021-06-18T09:25:40Z</time>
      </trkpt>
      <trkpt lat="42.776732" lon="0.791113">
        <ele>1472.153</ele>
        <time>2021-06-18T09:25:46Z</time>
      </trkpt>
      <trkpt lat="42.776719" lon="0.791140">
        <ele>1471.733</ele>
        <time>2021-06-18T09:25:47Z</time>
      </trkpt>
      <trkpt lat="42.776697" lon="0.791333">
        <ele>1472.096</ele>
        <time>2021-06-18T09:25:53Z</time>
      </trkpt>
      <trkpt lat="42.776710" lon="0.791630">
        <ele>1471.383</ele>
        <time>2021-06-18T09:26:00Z</time>
      </trkpt>
      <trkpt lat="42.776669" lon="0.791951">
        <ele>1472.154</ele>
        <time>2021-06-18T09:26:08Z</time>
      </trkpt>
      <trkpt lat="42.776687" lon="0.792185">
        <ele>1471.556</ele>
        <time>2021-06-18T09:26:14Z</time>
      </trkpt>
      <trkpt lat="42.776766" lon="0.792384">
        <ele>1472.911</ele>
        <time>2021-06-18T09:26:19Z</time>
      </trkpt>
      <trkpt lat="42.776800" lon="0.792472">
        <ele>1473.208</ele>
        <time>2021-06-18T09:26:21Z</time>
      </trkpt>
      <trkpt lat="42.776864" lon="0.792705">
        <ele>1473.692</ele>
        <time>2021-06-18T09:26:26Z</time>
      </trkpt>
      <trkpt lat="42.776870" lon="0.792895">
        <ele>1474.561</ele>
        <time>2021-06-18T09:26:30Z</time>
      </trkpt>
      <trkpt lat="42.776846" lon="0.793191">
        <ele>1475.527</ele>
        <time>2021-06-18T09:26:37Z</time>
      </trkpt>
      <trkpt lat="42.776890" lon="0.793514">
        <ele>1478.261</ele>
        <time>2021-06-18T09:26:45Z</time>
      </trkpt>
      <trkpt lat="42.776890" lon="0.793549">
        <ele>1477.965</ele>
        <time>2021-06-18T09:26:46Z</time>
      </trkpt>
      <trkpt lat="42.776871" lon="0.793715">
        <ele>1478.075</ele>
        <time>2021-06-18T09:26:51Z</time>
      </trkpt>
      <trkpt lat="42.776864" lon="0.793832">
        <ele>1479.748</ele>
        <time>2021-06-18T09:26:55Z</time>
      </trkpt>
      <trkpt lat="42.776860" lon="0.793978">
        <ele>1481.555</ele>
        <time>2021-06-18T09:27:00Z</time>
      </trkpt>
      <trkpt lat="42.776857" lon="0.794038">
        <ele>1481.952</ele>
        <time>2021-06-18T09:27:02Z</time>
      </trkpt>
      <trkpt lat="42.776844" lon="0.794186">
        <ele>1482.653</ele>
        <time>2021-06-18T09:27:07Z</time>
      </trkpt>
      <trkpt lat="42.776841" lon="0.794216">
        <ele>1482.808</ele>
        <time>2021-06-18T09:27:08Z</time>
      </trkpt>
      <trkpt lat="42.776823" lon="0.794360">
        <ele>1483.708</ele>
        <time>2021-06-18T09:27:13Z</time>
      </trkpt>
      <trkpt lat="42.776808" lon="0.794442">
        <ele>1483.792</ele>
        <time>2021-06-18T09:27:16Z</time>
      </trkpt>
      <trkpt lat="42.776775" lon="0.794547">
        <ele>1482.851</ele>
        <time>2021-06-18T09:27:20Z</time>
      </trkpt>
      <trkpt lat="42.776750" lon="0.794589">
        <ele>1481.527</ele>
        <time>2021-06-18T09:27:22Z</time>
      </trkpt>
      <trkpt lat="42.776723" lon="0.794691">
        <ele>1481.781</ele>
        <time>2021-06-18T09:27:26Z</time>
      </trkpt>
      <trkpt lat="42.776720" lon="0.794751">
        <ele>1482.295</ele>
        <time>2021-06-18T09:27:28Z</time>
      </trkpt>
      <trkpt lat="42.776724" lon="0.794842">
        <ele>1482.685</ele>
        <time>2021-06-18T09:27:31Z</time>
      </trkpt>
      <trkpt lat="42.776732" lon="0.795022">
        <ele>1483.298</ele>
        <time>2021-06-18T09:27:37Z</time>
      </trkpt>
      <trkpt lat="42.776744" lon="0.795111">
        <ele>1483.865</ele>
        <time>2021-06-18T09:27:40Z</time>
      </trkpt>
      <trkpt lat="42.776771" lon="0.795291">
        <ele>1485.265</ele>
        <time>2021-06-18T09:27:46Z</time>
      </trkpt>
      <trkpt lat="42.776748" lon="0.795415">
        <ele>1485.668</ele>
        <time>2021-06-18T09:27:50Z</time>
      </trkpt>
      <trkpt lat="42.776736" lon="0.795440">
        <ele>1485.314</ele>
        <time>2021-06-18T09:27:51Z</time>
      </trkpt>
      <trkpt lat="42.776607" lon="0.795568">
        <ele>1483.008</ele>
        <time>2021-06-18T09:27:58Z</time>
      </trkpt>
      <trkpt lat="42.776476" lon="0.795776">
        <ele>1483.013</ele>
        <time>2021-06-18T09:28:06Z</time>
      </trkpt>
      <trkpt lat="42.776408" lon="0.796045">
        <ele>1483.382</ele>
        <time>2021-06-18T09:28:13Z</time>
      </trkpt>
      <trkpt lat="42.776384" lon="0.796266">
        <ele>1483.898</ele>
        <time>2021-06-18T09:28:19Z</time>
      </trkpt>
      <trkpt lat="42.776336" lon="0.796503">
        <ele>1482.772</ele>
        <time>2021-06-18T09:28:25Z</time>
      </trkpt>
      <trkpt lat="42.776286" lon="0.796732">
        <ele>1482.116</ele>
        <time>2021-06-18T09:28:31Z</time>
      </trkpt>
      <trkpt lat="42.776254" lon="0.796972">
        <ele>1482.426</ele>
        <time>2021-06-18T09:28:37Z</time>
      </trkpt>
      <trkpt lat="42.776205" lon="0.797198">
        <ele>1480.939</ele>
        <time>2021-06-18T09:28:43Z</time>
      </trkpt>
      <trkpt lat="42.776188" lon="0.797282">
        <ele>1480.776</ele>
        <time>2021-06-18T09:28:45Z</time>
      </trkpt>
      <trkpt lat="42.776221" lon="0.797546">
        <ele>1485.083</ele>
        <time>2021-06-18T09:28:51Z</time>
      </trkpt>
      <trkpt lat="42.776256" lon="0.797784">
        <ele>1487.425</ele>
        <time>2021-06-18T09:28:57Z</time>
      </trkpt>
      <trkpt lat="42.776267" lon="0.797906">
        <ele>1488.517</ele>
        <time>2021-06-18T09:29:00Z</time>
      </trkpt>
      <trkpt lat="42.776273" lon="0.797991">
        <ele>1489.208</ele>
        <time>2021-06-18T09:29:02Z</time>
      </trkpt>
      <trkpt lat="42.776272" lon="0.798183">
        <ele>1490.065</ele>
        <time>2021-06-18T09:29:07Z</time>
      </trkpt>
      <trkpt lat="42.776252" lon="0.798372">
        <ele>1489.314</ele>
        <time>2021-06-18T09:29:12Z</time>
      </trkpt>
      <trkpt lat="42.776229" lon="0.798662">
        <ele>1489.190</ele>
        <time>2021-06-18T09:29:19Z</time>
      </trkpt>
      <trkpt lat="42.776236" lon="0.798734">
        <ele>1490.534</ele>
        <time>2021-06-18T09:29:21Z</time>
      </trkpt>
      <trkpt lat="42.776234" lon="0.798840">
        <ele>1491.748</ele>
        <time>2021-06-18T09:29:24Z</time>
      </trkpt>
      <trkpt lat="42.776180" lon="0.799012">
        <ele>1491.128</ele>
        <time>2021-06-18T09:29:29Z</time>
      </trkpt>
      <trkpt lat="42.776151" lon="0.799070">
        <ele>1490.411</ele>
        <time>2021-06-18T09:29:31Z</time>
      </trkpt>
      <trkpt lat="42.776087" lon="0.799181">
        <ele>1488.438</ele>
        <time>2021-06-18T09:29:35Z</time>
      </trkpt>
      <trkpt lat="42.776046" lon="0.799303">
        <ele>1488.036</ele>
        <time>2021-06-18T09:29:39Z</time>
      </trkpt>
      <trkpt lat="42.776027" lon="0.799411">
        <ele>1489.117</ele>
        <time>2021-06-18T09:29:42Z</time>
      </trkpt>
      <trkpt lat="42.776025" lon="0.799604">
        <ele>1491.118</ele>
        <time>2021-06-18T09:29:47Z</time>
      </trkpt>
      <trkpt lat="42.776034" lon="0.799869">
        <ele>1493.108</ele>
        <time>2021-06-18T09:29:54Z</time>
      </trkpt>
      <trkpt lat="42.776068" lon="0.800060">
        <ele>1495.360</ele>
        <time>2021-06-18T09:29:59Z</time>
      </trkpt>
      <trkpt lat="42.776084" lon="0.800124">
        <ele>1495.839</ele>
        <time>2021-06-18T09:30:01Z</time>
      </trkpt>
      <trkpt lat="42.776083" lon="0.800320">
        <ele>1494.135</ele>
        <time>2021-06-18T09:30:06Z</time>
      </trkpt>
      <trkpt lat="42.776086" lon="0.800400">
        <ele>1494.149</ele>
        <time>2021-06-18T09:30:08Z</time>
      </trkpt>
      <trkpt lat="42.776097" lon="0.800469">
        <ele>1494.523</ele>
        <time>2021-06-18T09:30:10Z</time>
      </trkpt>
      <trkpt lat="42.776116" lon="0.800560">
        <ele>1495.253</ele>
        <time>2021-06-18T09:30:12Z</time>
      </trkpt>
      <trkpt lat="42.776125" lon="0.800722">
        <ele>1495.086</ele>
        <time>2021-06-18T09:30:16Z</time>
      </trkpt>
      <trkpt lat="42.776127" lon="0.800858">
        <ele>1494.883</ele>
        <time>2021-06-18T09:30:19Z</time>
      </trkpt>
      <trkpt lat="42.776120" lon="0.800918">
        <ele>1494.782</ele>
        <time>2021-06-18T09:30:21Z</time>
      </trkpt>
      <trkpt lat="42.776118" lon="0.800879">
        <ele>1494.543</ele>
        <time>2021-06-18T09:30:24Z</time>
      </trkpt>
      <trkpt lat="42.776127" lon="0.800866">
        <ele>1494.817</ele>
        <time>2021-06-18T09:30:25Z</time>
      </trkpt>
      <trkpt lat="42.776129" lon="0.800867">
        <ele>1494.908</ele>
        <time>2021-06-18T09:30:26Z</time>
      </trkpt>
      <trkpt lat="42.776132" lon="0.800868">
        <ele>1495.085</ele>
        <time>2021-06-18T09:30:27Z</time>
      </trkpt>
      <trkpt lat="42.776142" lon="0.800944">
        <ele>1495.744</ele>
        <time>2021-06-18T09:30:42Z</time>
      </trkpt>
      <trkpt lat="42.776153" lon="0.801100">
        <ele>1496.870</ele>
        <time>2021-06-18T09:30:47Z</time>
      </trkpt>
      <trkpt lat="42.776166" lon="0.801326">
        <ele>1497.284</ele>
        <time>2021-06-18T09:30:54Z</time>
      </trkpt>
      <trkpt lat="42.776160" lon="0.801430">
        <ele>1497.398</ele>
        <time>2021-06-18T09:30:57Z</time>
      </trkpt>
      <trkpt lat="42.776141" lon="0.801499">
        <ele>1496.968</ele>
        <time>2021-06-18T09:30:59Z</time>
      </trkpt>
      <trkpt lat="42.776051" lon="0.801675">
        <ele>1495.391</ele>
        <time>2021-06-18T09:31:04Z</time>
      </trkpt>
      <trkpt lat="42.775924" lon="0.801898">
        <ele>1496.298</ele>
        <time>2021-06-18T09:31:11Z</time>
      </trkpt>
      <trkpt lat="42.775871" lon="0.801989">
        <ele>1496.582</ele>
        <time>2021-06-18T09:31:14Z</time>
      </trkpt>
      <trkpt lat="42.775827" lon="0.802090">
        <ele>1497.543</ele>
        <time>2021-06-18T09:31:17Z</time>
      </trkpt>
      <trkpt lat="42.775790" lon="0.802199">
        <ele>1498.917</ele>
        <time>2021-06-18T09:31:20Z</time>
      </trkpt>
      <trkpt lat="42.775763" lon="0.802312">
        <ele>1499.308</ele>
        <time>2021-06-18T09:31:23Z</time>
      </trkpt>
      <trkpt lat="42.775711" lon="0.802541">
        <ele>1498.915</ele>
        <time>2021-06-18T09:31:29Z</time>
      </trkpt>
      <trkpt lat="42.775706" lon="0.802583">
        <ele>1498.844</ele>
        <time>2021-06-18T09:31:30Z</time>
      </trkpt>
      <trkpt lat="42.775689" lon="0.802827">
        <ele>1498.960</ele>
        <time>2021-06-18T09:31:36Z</time>
      </trkpt>
      <trkpt lat="42.775688" lon="0.802866">
        <ele>1499.114</ele>
        <time>2021-06-18T09:31:37Z</time>
      </trkpt>
      <trkpt lat="42.775683" lon="0.803057">
        <ele>1499.828</ele>
        <time>2021-06-18T09:31:42Z</time>
      </trkpt>
      <trkpt lat="42.775689" lon="0.803129">
        <ele>1501.048</ele>
        <time>2021-06-18T09:31:44Z</time>
      </trkpt>
      <trkpt lat="42.775698" lon="0.803278">
        <ele>1503.131</ele>
        <time>2021-06-18T09:31:48Z</time>
      </trkpt>
      <trkpt lat="42.775697" lon="0.803315">
        <ele>1503.448</ele>
        <time>2021-06-18T09:31:49Z</time>
      </trkpt>
      <trkpt lat="42.775701" lon="0.803497">
        <ele>1504.642</ele>
        <time>2021-06-18T09:31:54Z</time>
      </trkpt>
      <trkpt lat="42.775698" lon="0.803679">
        <ele>1505.222</ele>
        <time>2021-06-18T09:32:00Z</time>
      </trkpt>
      <trkpt lat="42.775684" lon="0.803838">
        <ele>1505.114</ele>
        <time>2021-06-18T09:32:05Z</time>
      </trkpt>
      <trkpt lat="42.775657" lon="0.803940">
        <ele>1505.108</ele>
        <time>2021-06-18T09:32:08Z</time>
      </trkpt>
      <trkpt lat="42.775630" lon="0.804003">
        <ele>1505.161</ele>
        <time>2021-06-18T09:32:10Z</time>
      </trkpt>
      <trkpt lat="42.775532" lon="0.804148">
        <ele>1504.170</ele>
        <time>2021-06-18T09:32:16Z</time>
      </trkpt>
      <trkpt lat="42.775516" lon="0.804176">
        <ele>1504.076</ele>
        <time>2021-06-18T09:32:17Z</time>
      </trkpt>
      <trkpt lat="42.775455" lon="0.804385">
        <ele>1506.030</ele>
        <time>2021-06-18T09:32:23Z</time>
      </trkpt>
      <trkpt lat="42.775436" lon="0.804629">
        <ele>1507.734</ele>
        <time>2021-06-18T09:32:29Z</time>
      </trkpt>
      <trkpt lat="42.775393" lon="0.804953">
        <ele>1507.294</ele>
        <time>2021-06-18T09:32:35Z</time>
      </trkpt>
      <trkpt lat="42.775267" lon="0.805329">
        <ele>1504.837</ele>
        <time>2021-06-18T09:32:41Z</time>
      </trkpt>
      <trkpt lat="42.775128" lon="0.805676">
        <ele>1501.274</ele>
        <time>2021-06-18T09:32:46Z</time>
      </trkpt>
      <trkpt lat="42.775076" lon="0.805826">
        <ele>1501.937</ele>
        <time>2021-06-18T09:32:48Z</time>
      </trkpt>
      <trkpt lat="42.775038" lon="0.805984">
        <ele>1502.149</ele>
        <time>2021-06-18T09:32:50Z</time>
      </trkpt>
      <trkpt lat="42.775021" lon="0.806215">
        <ele>1503.313</ele>
        <time>2021-06-18T09:32:53Z</time>
      </trkpt>
      <trkpt lat="42.775030" lon="0.806352">
        <ele>1504.208</ele>
        <time>2021-06-18T09:32:55Z</time>
      </trkpt>
      <trkpt lat="42.775065" lon="0.806541">
        <ele>1504.530</ele>
        <time>2021-06-18T09:32:58Z</time>
      </trkpt>
      <trkpt lat="42.775082" lon="0.806597">
        <ele>1505.059</ele>
        <time>2021-06-18T09:32:59Z</time>
      </trkpt>
      <trkpt lat="42.775209" lon="0.806924">
        <ele>1508.075</ele>
        <time>2021-06-18T09:33:05Z</time>
      </trkpt>
      <trkpt lat="42.775279" lon="0.807139">
        <ele>1507.929</ele>
        <time>2021-06-18T09:33:09Z</time>
      </trkpt>
      <trkpt lat="42.775310" lon="0.807250">
        <ele>1507.823</ele>
        <time>2021-06-18T09:33:11Z</time>
      </trkpt>
      <trkpt lat="42.775322" lon="0.807304">
        <ele>1507.963</ele>
        <time>2021-06-18T09:33:12Z</time>
      </trkpt>
      <trkpt lat="42.775339" lon="0.807420">
        <ele>1507.546</ele>
        <time>2021-06-18T09:33:14Z</time>
      </trkpt>
      <trkpt lat="42.775339" lon="0.807548">
        <ele>1506.583</ele>
        <time>2021-06-18T09:33:16Z</time>
      </trkpt>
      <trkpt lat="42.775345" lon="0.807938">
        <ele>1506.951</ele>
        <time>2021-06-18T09:33:22Z</time>
      </trkpt>
      <trkpt lat="42.775393" lon="0.808445">
        <ele>1507.501</ele>
        <time>2021-06-18T09:33:29Z</time>
      </trkpt>
      <trkpt lat="42.775396" lon="0.808519">
        <ele>1507.211</ele>
        <time>2021-06-18T09:33:30Z</time>
      </trkpt>
      <trkpt lat="42.775393" lon="0.808594">
        <ele>1506.608</ele>
        <time>2021-06-18T09:33:31Z</time>
      </trkpt>
      <trkpt lat="42.775356" lon="0.808967">
        <ele>1505.142</ele>
        <time>2021-06-18T09:33:36Z</time>
      </trkpt>
      <trkpt lat="42.775325" lon="0.809618">
        <ele>1505.511</ele>
        <time>2021-06-18T09:33:45Z</time>
      </trkpt>
      <trkpt lat="42.775289" lon="0.810098">
        <ele>1506.087</ele>
        <time>2021-06-18T09:33:52Z</time>
      </trkpt>
      <trkpt lat="42.775227" lon="0.810470">
        <ele>1506.511</ele>
        <time>2021-06-18T09:33:59Z</time>
      </trkpt>
      <trkpt lat="42.775171" lon="0.810629">
        <ele>1506.295</ele>
        <time>2021-06-18T09:34:03Z</time>
      </trkpt>
      <trkpt lat="42.775125" lon="0.810778">
        <ele>1506.825</ele>
        <time>2021-06-18T09:34:07Z</time>
      </trkpt>
      <trkpt lat="42.775117" lon="0.810814">
        <ele>1507.198</ele>
        <time>2021-06-18T09:34:08Z</time>
      </trkpt>
      <trkpt lat="42.775112" lon="0.810987">
        <ele>1508.745</ele>
        <time>2021-06-18T09:34:13Z</time>
      </trkpt>
      <trkpt lat="42.775112" lon="0.811023">
        <ele>1509.051</ele>
        <time>2021-06-18T09:34:14Z</time>
      </trkpt>
      <trkpt lat="42.775132" lon="0.811266">
        <ele>1510.601</ele>
        <time>2021-06-18T09:34:21Z</time>
      </trkpt>
      <trkpt lat="42.775137" lon="0.811299">
        <ele>1510.811</ele>
        <time>2021-06-18T09:34:22Z</time>
      </trkpt>
      <trkpt lat="42.775136" lon="0.811462">
        <ele>1511.908</ele>
        <time>2021-06-18T09:34:27Z</time>
      </trkpt>
      <trkpt lat="42.775128" lon="0.811528">
        <ele>1512.592</ele>
        <time>2021-06-18T09:34:29Z</time>
      </trkpt>
      <trkpt lat="42.775121" lon="0.811626">
        <ele>1513.521</ele>
        <time>2021-06-18T09:34:32Z</time>
      </trkpt>
      <trkpt lat="42.775125" lon="0.811723">
        <ele>1514.457</ele>
        <time>2021-06-18T09:34:35Z</time>
      </trkpt>
      <trkpt lat="42.775141" lon="0.811813">
        <ele>1515.331</ele>
        <time>2021-06-18T09:34:38Z</time>
      </trkpt>
      <trkpt lat="42.775145" lon="0.811843">
        <ele>1515.685</ele>
        <time>2021-06-18T09:34:39Z</time>
      </trkpt>
      <trkpt lat="42.775180" lon="0.811987">
        <ele>1517.265</ele>
        <time>2021-06-18T09:34:44Z</time>
      </trkpt>
      <trkpt lat="42.775194" lon="0.812044">
        <ele>1517.658</ele>
        <time>2021-06-18T09:34:46Z</time>
      </trkpt>
      <trkpt lat="42.775202" lon="0.812164">
        <ele>1517.895</ele>
        <time>2021-06-18T09:34:50Z</time>
      </trkpt>
      <trkpt lat="42.775207" lon="0.812254">
        <ele>1517.951</ele>
        <time>2021-06-18T09:34:53Z</time>
      </trkpt>
      <trkpt lat="42.775211" lon="0.812282">
        <ele>1518.001</ele>
        <time>2021-06-18T09:34:54Z</time>
      </trkpt>
      <trkpt lat="42.775237" lon="0.812459">
        <ele>1518.711</ele>
        <time>2021-06-18T09:35:00Z</time>
      </trkpt>
      <trkpt lat="42.775271" lon="0.812645">
        <ele>1519.208</ele>
        <time>2021-06-18T09:35:06Z</time>
      </trkpt>
      <trkpt lat="42.775277" lon="0.812677">
        <ele>1519.322</ele>
        <time>2021-06-18T09:35:07Z</time>
      </trkpt>
      <trkpt lat="42.775355" lon="0.813000">
        <ele>1519.371</ele>
        <time>2021-06-18T09:35:16Z</time>
      </trkpt>
      <trkpt lat="42.775459" lon="0.813378">
        <ele>1518.537</ele>
        <time>2021-06-18T09:35:24Z</time>
      </trkpt>
      <trkpt lat="42.775542" lon="0.813727">
        <ele>1518.981</ele>
        <time>2021-06-18T09:35:31Z</time>
      </trkpt>
      <trkpt lat="42.775670" lon="0.814187">
        <ele>1519.435</ele>
        <time>2021-06-18T09:35:40Z</time>
      </trkpt>
      <trkpt lat="42.775781" lon="0.814589">
        <ele>1520.135</ele>
        <time>2021-06-18T09:35:48Z</time>
      </trkpt>
      <trkpt lat="42.775839" lon="0.814946">
        <ele>1521.278</ele>
        <time>2021-06-18T09:35:56Z</time>
      </trkpt>
      <trkpt lat="42.775881" lon="0.815102">
        <ele>1522.055</ele>
        <time>2021-06-18T09:36:00Z</time>
      </trkpt>
      <trkpt lat="42.775926" lon="0.815260">
        <ele>1522.543</ele>
        <time>2021-06-18T09:36:04Z</time>
      </trkpt>
      <trkpt lat="42.775944" lon="0.815376">
        <ele>1522.664</ele>
        <time>2021-06-18T09:36:07Z</time>
      </trkpt>
      <trkpt lat="42.775950" lon="0.815468">
        <ele>1522.510</ele>
        <time>2021-06-18T09:36:10Z</time>
      </trkpt>
      <trkpt lat="42.775943" lon="0.815495">
        <ele>1522.208</ele>
        <time>2021-06-18T09:36:13Z</time>
      </trkpt>
      <trkpt lat="42.775983" lon="0.815524">
        <ele>1523.571</ele>
        <time>2021-06-18T09:36:54Z</time>
      </trkpt>
      <trkpt lat="42.776019" lon="0.815645">
        <ele>1524.730</ele>
        <time>2021-06-18T09:36:59Z</time>
      </trkpt>
      <trkpt lat="42.776023" lon="0.815674">
        <ele>1524.846</ele>
        <time>2021-06-18T09:37:00Z</time>
      </trkpt>
      <trkpt lat="42.776036" lon="0.815830">
        <ele>1525.360</ele>
        <time>2021-06-18T09:37:06Z</time>
      </trkpt>
      <trkpt lat="42.776053" lon="0.815907">
        <ele>1526.494</ele>
        <time>2021-06-18T09:37:09Z</time>
      </trkpt>
      <trkpt lat="42.776056" lon="0.815933">
        <ele>1526.744</ele>
        <time>2021-06-18T09:37:10Z</time>
      </trkpt>
      <trkpt lat="42.776050" lon="0.816034">
        <ele>1527.137</ele>
        <time>2021-06-18T09:37:14Z</time>
      </trkpt>
      <trkpt lat="42.776047" lon="0.816061">
        <ele>1527.134</ele>
        <time>2021-06-18T09:37:15Z</time>
      </trkpt>
      <trkpt lat="42.776043" lon="0.816181">
        <ele>1527.539</ele>
        <time>2021-06-18T09:37:19Z</time>
      </trkpt>
      <trkpt lat="42.776043" lon="0.816211">
        <ele>1527.601</ele>
        <time>2021-06-18T09:37:20Z</time>
      </trkpt>
      <trkpt lat="42.776047" lon="0.816269">
        <ele>1527.921</ele>
        <time>2021-06-18T09:37:22Z</time>
      </trkpt>
      <trkpt lat="42.776052" lon="0.816343">
        <ele>1528.308</ele>
        <time>2021-06-18T09:37:24Z</time>
      </trkpt>
      <trkpt lat="42.776060" lon="0.816472">
        <ele>1528.770</ele>
        <time>2021-06-18T09:37:28Z</time>
      </trkpt>
      <trkpt lat="42.776079" lon="0.816634">
        <ele>1529.489</ele>
        <time>2021-06-18T09:37:34Z</time>
      </trkpt>
      <trkpt lat="42.776079" lon="0.816662">
        <ele>1529.425</ele>
        <time>2021-06-18T09:37:36Z</time>
      </trkpt>
      <trkpt lat="42.776080" lon="0.816663">
        <ele>1529.459</ele>
        <time>2021-06-18T09:37:37Z</time>
      </trkpt>
      <trkpt lat="42.776087" lon="0.816721">
        <ele>1529.993</ele>
        <time>2021-06-18T09:37:44Z</time>
      </trkpt>
      <trkpt lat="42.776092" lon="0.816746">
        <ele>1530.253</ele>
        <time>2021-06-18T09:37:45Z</time>
      </trkpt>
      <trkpt lat="42.776124" lon="0.816912">
        <ele>1532.556</ele>
        <time>2021-06-18T09:37:51Z</time>
      </trkpt>
      <trkpt lat="42.776119" lon="0.816978">
        <ele>1532.553</ele>
        <time>2021-06-18T09:37:54Z</time>
      </trkpt>
      <trkpt lat="42.776091" lon="0.817035">
        <ele>1530.963</ele>
        <time>2021-06-18T09:37:57Z</time>
      </trkpt>
      <trkpt lat="42.776083" lon="0.817078">
        <ele>1530.544</ele>
        <time>2021-06-18T09:37:59Z</time>
      </trkpt>
      <trkpt lat="42.776065" lon="0.817190">
        <ele>1529.418</ele>
        <time>2021-06-18T09:38:03Z</time>
      </trkpt>
      <trkpt lat="42.776064" lon="0.817218">
        <ele>1529.408</ele>
        <time>2021-06-18T09:38:04Z</time>
      </trkpt>
      <trkpt lat="42.776077" lon="0.817444">
        <ele>1532.983</ele>
        <time>2021-06-18T09:38:10Z</time>
      </trkpt>
      <trkpt lat="42.776070" lon="0.817515">
        <ele>1533.322</ele>
        <time>2021-06-18T09:38:12Z</time>
      </trkpt>
      <trkpt lat="42.776063" lon="0.817620">
        <ele>1534.568</ele>
        <time>2021-06-18T09:38:15Z</time>
      </trkpt>
      <trkpt lat="42.776061" lon="0.817756">
        <ele>1536.642</ele>
        <time>2021-06-18T09:38:19Z</time>
      </trkpt>
      <trkpt lat="42.776056" lon="0.817818">
        <ele>1537.156</ele>
        <time>2021-06-18T09:38:21Z</time>
      </trkpt>
      <trkpt lat="42.776018" lon="0.817996">
        <ele>1537.526</ele>
        <time>2021-06-18T09:38:27Z</time>
      </trkpt>
      <trkpt lat="42.776016" lon="0.818059">
        <ele>1538.249</ele>
        <time>2021-06-18T09:38:29Z</time>
      </trkpt>
      <trkpt lat="42.776021" lon="0.818261">
        <ele>1538.416</ele>
        <time>2021-06-18T09:38:35Z</time>
      </trkpt>
      <trkpt lat="42.776049" lon="0.818547">
        <ele>1539.566</ele>
        <time>2021-06-18T09:38:42Z</time>
      </trkpt>
      <trkpt lat="42.776041" lon="0.818792">
        <ele>1540.029</ele>
        <time>2021-06-18T09:38:48Z</time>
      </trkpt>
      <trkpt lat="42.776066" lon="0.819092">
        <ele>1541.021</ele>
        <time>2021-06-18T09:38:55Z</time>
      </trkpt>
      <trkpt lat="42.776148" lon="0.819423">
        <ele>1541.608</ele>
        <time>2021-06-18T09:39:03Z</time>
      </trkpt>
      <trkpt lat="42.776185" lon="0.819491">
        <ele>1541.883</ele>
        <time>2021-06-18T09:39:05Z</time>
      </trkpt>
      <trkpt lat="42.776307" lon="0.819680">
        <ele>1542.882</ele>
        <time>2021-06-18T09:39:11Z</time>
      </trkpt>
      <trkpt lat="42.776369" lon="0.819782">
        <ele>1543.788</ele>
        <time>2021-06-18T09:39:14Z</time>
      </trkpt>
      <trkpt lat="42.776394" lon="0.819909">
        <ele>1543.172</ele>
        <time>2021-06-18T09:39:17Z</time>
      </trkpt>
      <trkpt lat="42.776354" lon="0.820141">
        <ele>1543.336</ele>
        <time>2021-06-18T09:39:23Z</time>
      </trkpt>
      <trkpt lat="42.776342" lon="0.820172">
        <ele>1543.636</ele>
        <time>2021-06-18T09:39:24Z</time>
      </trkpt>
      <trkpt lat="42.776292" lon="0.820379">
        <ele>1545.199</ele>
        <time>2021-06-18T09:39:30Z</time>
      </trkpt>
      <trkpt lat="42.776284" lon="0.820415">
        <ele>1545.046</ele>
        <time>2021-06-18T09:39:31Z</time>
      </trkpt>
      <trkpt lat="42.776270" lon="0.820523">
        <ele>1545.031</ele>
        <time>2021-06-18T09:39:34Z</time>
      </trkpt>
      <trkpt lat="42.776258" lon="0.820675">
        <ele>1545.261</ele>
        <time>2021-06-18T09:39:38Z</time>
      </trkpt>
      <trkpt lat="42.776254" lon="0.820787">
        <ele>1545.507</ele>
        <time>2021-06-18T09:39:41Z</time>
      </trkpt>
      <trkpt lat="42.776267" lon="0.820978">
        <ele>1546.308</ele>
        <time>2021-06-18T09:39:46Z</time>
      </trkpt>
      <trkpt lat="42.776321" lon="0.821303">
        <ele>1546.080</ele>
        <time>2021-06-18T09:39:53Z</time>
      </trkpt>
      <trkpt lat="42.776398" lon="0.821625">
        <ele>1544.059</ele>
        <time>2021-06-18T09:39:58Z</time>
      </trkpt>
      <trkpt lat="42.776412" lon="0.821702">
        <ele>1543.455</ele>
        <time>2021-06-18T09:39:59Z</time>
      </trkpt>
      <trkpt lat="42.776512" lon="0.822110">
        <ele>1542.229</ele>
        <time>2021-06-18T09:40:04Z</time>
      </trkpt>
      <trkpt lat="42.776527" lon="0.822193">
        <ele>1541.823</ele>
        <time>2021-06-18T09:40:05Z</time>
      </trkpt>
      <trkpt lat="42.776538" lon="0.822277">
        <ele>1541.353</ele>
        <time>2021-06-18T09:40:06Z</time>
      </trkpt>
      <trkpt lat="42.776545" lon="0.822471">
        <ele>1539.826</ele>
        <time>2021-06-18T09:40:08Z</time>
      </trkpt>
      <trkpt lat="42.776535" lon="0.822567">
        <ele>1539.593</ele>
        <time>2021-06-18T09:40:09Z</time>
      </trkpt>
      <trkpt lat="42.776499" lon="0.822744">
        <ele>1538.983</ele>
        <time>2021-06-18T09:40:11Z</time>
      </trkpt>
      <trkpt lat="42.776485" lon="0.822825">
        <ele>1538.725</ele>
        <time>2021-06-18T09:40:12Z</time>
      </trkpt>
      <trkpt lat="42.776472" lon="0.822984">
        <ele>1539.017</ele>
        <time>2021-06-18T09:40:14Z</time>
      </trkpt>
      <trkpt lat="42.776477" lon="0.823232">
        <ele>1539.708</ele>
        <time>2021-06-18T09:40:17Z</time>
      </trkpt>
      <trkpt lat="42.776488" lon="0.823492">
        <ele>1540.395</ele>
        <time>2021-06-18T09:40:20Z</time>
      </trkpt>
      <trkpt lat="42.776487" lon="0.823742">
        <ele>1540.574</ele>
        <time>2021-06-18T09:40:23Z</time>
      </trkpt>
      <trkpt lat="42.776447" lon="0.824035">
        <ele>1540.870</ele>
        <time>2021-06-18T09:40:27Z</time>
      </trkpt>
      <trkpt lat="42.776369" lon="0.824386">
        <ele>1541.834</ele>
        <time>2021-06-18T09:40:33Z</time>
      </trkpt>
      <trkpt lat="42.776352" lon="0.824694">
        <ele>1541.928</ele>
        <time>2021-06-18T09:40:38Z</time>
      </trkpt>
      <trkpt lat="42.776345" lon="0.824756">
        <ele>1542.238</ele>
        <time>2021-06-18T09:40:39Z</time>
      </trkpt>
      <trkpt lat="42.776332" lon="0.824816">
        <ele>1542.641</ele>
        <time>2021-06-18T09:40:40Z</time>
      </trkpt>
      <trkpt lat="42.776279" lon="0.824969">
        <ele>1543.098</ele>
        <time>2021-06-18T09:40:43Z</time>
      </trkpt>
      <trkpt lat="42.776230" lon="0.825104">
        <ele>1543.188</ele>
        <time>2021-06-18T09:40:46Z</time>
      </trkpt>
      <trkpt lat="42.776191" lon="0.825299">
        <ele>1543.924</ele>
        <time>2021-06-18T09:40:50Z</time>
      </trkpt>
      <trkpt lat="42.776168" lon="0.825452">
        <ele>1543.326</ele>
        <time>2021-06-18T09:40:53Z</time>
      </trkpt>
      <trkpt lat="42.776164" lon="0.825502">
        <ele>1543.208</ele>
        <time>2021-06-18T09:40:54Z</time>
      </trkpt>
      <trkpt lat="42.776167" lon="0.825760">
        <ele>1544.215</ele>
        <time>2021-06-18T09:40:59Z</time>
      </trkpt>
      <trkpt lat="42.776178" lon="0.825863">
        <ele>1544.824</ele>
        <time>2021-06-18T09:41:01Z</time>
      </trkpt>
      <trkpt lat="42.776195" lon="0.826249">
        <ele>1545.610</ele>
        <time>2021-06-18T09:41:08Z</time>
      </trkpt>
      <trkpt lat="42.776185" lon="0.826352">
        <ele>1545.754</ele>
        <time>2021-06-18T09:41:10Z</time>
      </trkpt>
      <trkpt lat="42.776183" lon="0.826718">
        <ele>1545.798</ele>
        <time>2021-06-18T09:41:17Z</time>
      </trkpt>
      <trkpt lat="42.776217" lon="0.827073">
        <ele>1546.318</ele>
        <time>2021-06-18T09:41:24Z</time>
      </trkpt>
      <trkpt lat="42.776225" lon="0.827118">
        <ele>1546.621</ele>
        <time>2021-06-18T09:41:25Z</time>
      </trkpt>
      <trkpt lat="42.776297" lon="0.827343">
        <ele>1547.618</ele>
        <time>2021-06-18T09:41:30Z</time>
      </trkpt>
      <trkpt lat="42.776357" lon="0.827488">
        <ele>1547.448</ele>
        <time>2021-06-18T09:41:33Z</time>
      </trkpt>
      <trkpt lat="42.776517" lon="0.827892">
        <ele>1548.861</ele>
        <time>2021-06-18T09:41:41Z</time>
      </trkpt>
      <trkpt lat="42.776640" lon="0.828303">
        <ele>1549.517</ele>
        <time>2021-06-18T09:41:50Z</time>
      </trkpt>
      <trkpt lat="42.776689" lon="0.828469">
        <ele>1549.508</ele>
        <time>2021-06-18T09:41:54Z</time>
      </trkpt>
      <trkpt lat="42.776756" lon="0.828671">
        <ele>1550.221</ele>
        <time>2021-06-18T09:41:59Z</time>
      </trkpt>
      <trkpt lat="42.776798" lon="0.828790">
        <ele>1550.980</ele>
        <time>2021-06-18T09:42:02Z</time>
      </trkpt>
      <trkpt lat="42.776873" lon="0.829037">
        <ele>1551.566</ele>
        <time>2021-06-18T09:42:08Z</time>
      </trkpt>
      <trkpt lat="42.776925" lon="0.829202">
        <ele>1551.490</ele>
        <time>2021-06-18T09:42:12Z</time>
      </trkpt>
      <trkpt lat="42.776959" lon="0.829426">
        <ele>1550.984</ele>
        <time>2021-06-18T09:42:17Z</time>
      </trkpt>
      <trkpt lat="42.776958" lon="0.829747">
        <ele>1551.914</ele>
        <time>2021-06-18T09:42:24Z</time>
      </trkpt>
      <trkpt lat="42.776942" lon="0.829984">
        <ele>1552.857</ele>
        <time>2021-06-18T09:42:29Z</time>
      </trkpt>
      <trkpt lat="42.776948" lon="0.830284">
        <ele>1552.284</ele>
        <time>2021-06-18T09:42:35Z</time>
      </trkpt>
      <trkpt lat="42.777021" lon="0.830696">
        <ele>1554.635</ele>
        <time>2021-06-18T09:42:43Z</time>
      </trkpt>
      <trkpt lat="42.777134" lon="0.831146">
        <ele>1555.986</ele>
        <time>2021-06-18T09:42:52Z</time>
      </trkpt>
      <trkpt lat="42.777151" lon="0.831446">
        <ele>1554.814</ele>
        <time>2021-06-18T09:42:58Z</time>
      </trkpt>
      <trkpt lat="42.777128" lon="0.831588">
        <ele>1555.208</ele>
        <time>2021-06-18T09:43:01Z</time>
      </trkpt>
      <trkpt lat="42.777071" lon="0.831809">
        <ele>1555.970</ele>
        <time>2021-06-18T09:43:06Z</time>
      </trkpt>
      <trkpt lat="42.777038" lon="0.831891">
        <ele>1555.879</ele>
        <time>2021-06-18T09:43:08Z</time>
      </trkpt>
      <trkpt lat="42.776959" lon="0.832113">
        <ele>1554.855</ele>
        <time>2021-06-18T09:43:13Z</time>
      </trkpt>
      <trkpt lat="42.776919" lon="0.832198">
        <ele>1554.629</ele>
        <time>2021-06-18T09:43:15Z</time>
      </trkpt>
      <trkpt lat="42.776788" lon="0.832382">
        <ele>1555.573</ele>
        <time>2021-06-18T09:43:20Z</time>
      </trkpt>
      <trkpt lat="42.776617" lon="0.832475">
        <ele>1553.683</ele>
        <time>2021-06-18T09:43:25Z</time>
      </trkpt>
      <trkpt lat="42.776435" lon="0.832512">
        <ele>1553.286</ele>
        <time>2021-06-18T09:43:31Z</time>
      </trkpt>
      <trkpt lat="42.776354" lon="0.832498">
        <ele>1554.053</ele>
        <time>2021-06-18T09:43:35Z</time>
      </trkpt>
      <trkpt lat="42.776341" lon="0.832492">
        <ele>1554.396</ele>
        <time>2021-06-18T09:43:36Z</time>
      </trkpt>
      <trkpt lat="42.776296" lon="0.832412">
        <ele>1555.031</ele>
        <time>2021-06-18T09:43:41Z</time>
      </trkpt>
      <trkpt lat="42.776224" lon="0.832368">
        <ele>1556.824</ele>
        <time>2021-06-18T09:43:46Z</time>
      </trkpt>
      <trkpt lat="42.776204" lon="0.832336">
        <ele>1557.108</ele>
        <time>2021-06-18T09:43:48Z</time>
      </trkpt>
      <trkpt lat="42.776192" lon="0.832317">
        <ele>1557.456</ele>
        <time>2021-06-18T09:43:49Z</time>
      </trkpt>
      <trkpt lat="42.776159" lon="0.832275">
        <ele>1558.085</ele>
        <time>2021-06-18T09:43:51Z</time>
      </trkpt>
      <trkpt lat="42.776098" lon="0.832162">
        <ele>1558.971</ele>
        <time>2021-06-18T09:43:56Z</time>
      </trkpt>
      <trkpt lat="42.776046" lon="0.832064">
        <ele>1559.675</ele>
        <time>2021-06-18T09:44:01Z</time>
      </trkpt>
      <trkpt lat="42.776032" lon="0.832046">
        <ele>1559.839</ele>
        <time>2021-06-18T09:44:02Z</time>
      </trkpt>
      <trkpt lat="42.775939" lon="0.831939">
        <ele>1561.349</ele>
        <time>2021-06-18T09:44:08Z</time>
      </trkpt>
      <trkpt lat="42.775882" lon="0.831846">
        <ele>1561.852</ele>
        <time>2021-06-18T09:44:13Z</time>
      </trkpt>
      <trkpt lat="42.775850" lon="0.831790">
        <ele>1561.939</ele>
        <time>2021-06-18T09:44:16Z</time>
      </trkpt>
      <trkpt lat="42.775826" lon="0.831747">
        <ele>1562.119</ele>
        <time>2021-06-18T09:44:18Z</time>
      </trkpt>
      <trkpt lat="42.775792" lon="0.831672">
        <ele>1562.409</ele>
        <time>2021-06-18T09:44:22Z</time>
      </trkpt>
      <trkpt lat="42.775769" lon="0.831625">
        <ele>1562.619</ele>
        <time>2021-06-18T09:44:24Z</time>
      </trkpt>
      <trkpt lat="42.775708" lon="0.831524">
        <ele>1563.508</ele>
        <time>2021-06-18T09:44:29Z</time>
      </trkpt>
      <trkpt lat="42.775672" lon="0.831385">
        <ele>1563.238</ele>
        <time>2021-06-18T09:44:35Z</time>
      </trkpt>
      <trkpt lat="42.775666" lon="0.831340">
        <ele>1563.387</ele>
        <time>2021-06-18T09:44:37Z</time>
      </trkpt>
      <trkpt lat="42.775635" lon="0.831239">
        <ele>1564.083</ele>
        <time>2021-06-18T09:44:42Z</time>
      </trkpt>
      <trkpt lat="42.775617" lon="0.831200">
        <ele>1564.517</ele>
        <time>2021-06-18T09:44:44Z</time>
      </trkpt>
      <trkpt lat="42.775583" lon="0.831167">
        <ele>1565.471</ele>
        <time>2021-06-18T09:44:47Z</time>
      </trkpt>
      <trkpt lat="42.775553" lon="0.831165">
        <ele>1566.371</ele>
        <time>2021-06-18T09:44:49Z</time>
      </trkpt>
      <trkpt lat="42.775516" lon="0.831182">
        <ele>1567.474</ele>
        <time>2021-06-18T09:44:52Z</time>
      </trkpt>
      <trkpt lat="42.775499" lon="0.831200">
        <ele>1568.071</ele>
        <time>2021-06-18T09:44:54Z</time>
      </trkpt>
      <trkpt lat="42.775480" lon="0.831225">
        <ele>1568.798</ele>
        <time>2021-06-18T09:44:56Z</time>
      </trkpt>
      <trkpt lat="42.775476" lon="0.831265">
        <ele>1569.015</ele>
        <time>2021-06-18T09:44:58Z</time>
      </trkpt>
      <trkpt lat="42.775472" lon="0.831306">
        <ele>1569.326</ele>
        <time>2021-06-18T09:45:00Z</time>
      </trkpt>
      <trkpt lat="42.775473" lon="0.831344">
        <ele>1569.508</ele>
        <time>2021-06-18T09:45:02Z</time>
      </trkpt>
      <trkpt lat="42.775498" lon="0.831425">
        <ele>1569.356</ele>
        <time>2021-06-18T09:45:06Z</time>
      </trkpt>
      <trkpt lat="42.775527" lon="0.831582">
        <ele>1570.045</ele>
        <time>2021-06-18T09:45:14Z</time>
      </trkpt>
      <trkpt lat="42.775531" lon="0.831601">
        <ele>1570.161</ele>
        <time>2021-06-18T09:45:15Z</time>
      </trkpt>
      <trkpt lat="42.775535" lon="0.831678">
        <ele>1570.725</ele>
        <time>2021-06-18T09:45:19Z</time>
      </trkpt>
      <trkpt lat="42.775540" lon="0.831719">
        <ele>1570.749</ele>
        <time>2021-06-18T09:45:21Z</time>
      </trkpt>
      <trkpt lat="42.775540" lon="0.831740">
        <ele>1570.819</ele>
        <time>2021-06-18T09:45:22Z</time>
      </trkpt>
      <trkpt lat="42.775537" lon="0.831783">
        <ele>1571.072</ele>
        <time>2021-06-18T09:45:24Z</time>
      </trkpt>
      <trkpt lat="42.775533" lon="0.831879">
        <ele>1571.679</ele>
        <time>2021-06-18T09:45:29Z</time>
      </trkpt>
      <trkpt lat="42.775538" lon="0.831924">
        <ele>1571.626</ele>
        <time>2021-06-18T09:45:31Z</time>
      </trkpt>
      <trkpt lat="42.775543" lon="0.832017">
        <ele>1572.047</ele>
        <time>2021-06-18T09:45:35Z</time>
      </trkpt>
      <trkpt lat="42.775537" lon="0.832178">
        <ele>1573.211</ele>
        <time>2021-06-18T09:45:42Z</time>
      </trkpt>
      <trkpt lat="42.775513" lon="0.832317">
        <ele>1574.208</ele>
        <time>2021-06-18T09:45:49Z</time>
      </trkpt>
      <trkpt lat="42.775508" lon="0.832339">
        <ele>1574.349</ele>
        <time>2021-06-18T09:45:50Z</time>
      </trkpt>
      <trkpt lat="42.775459" lon="0.832429">
        <ele>1575.558</ele>
        <time>2021-06-18T09:45:55Z</time>
      </trkpt>
      <trkpt lat="42.775449" lon="0.832445">
        <ele>1575.864</ele>
        <time>2021-06-18T09:45:56Z</time>
      </trkpt>
      <trkpt lat="42.775364" lon="0.832574">
        <ele>1577.148</ele>
        <time>2021-06-18T09:46:04Z</time>
      </trkpt>
      <trkpt lat="42.775325" lon="0.832641">
        <ele>1577.432</ele>
        <time>2021-06-18T09:46:09Z</time>
      </trkpt>
      <trkpt lat="42.775312" lon="0.832652">
        <ele>1577.672</ele>
        <time>2021-06-18T09:46:10Z</time>
      </trkpt>
      <trkpt lat="42.775300" lon="0.832690">
        <ele>1577.445</ele>
        <time>2021-06-18T09:46:13Z</time>
      </trkpt>
      <trkpt lat="42.775280" lon="0.832713">
        <ele>1577.772</ele>
        <time>2021-06-18T09:46:15Z</time>
      </trkpt>
      <trkpt lat="42.775252" lon="0.832742">
        <ele>1578.176</ele>
        <time>2021-06-18T09:46:17Z</time>
      </trkpt>
      <trkpt lat="42.775236" lon="0.832781">
        <ele>1578.290</ele>
        <time>2021-06-18T09:46:19Z</time>
      </trkpt>
      <trkpt lat="42.775211" lon="0.832809">
        <ele>1578.619</ele>
        <time>2021-06-18T09:46:21Z</time>
      </trkpt>
      <trkpt lat="42.775196" lon="0.832821">
        <ele>1578.908</ele>
        <time>2021-06-18T09:46:22Z</time>
      </trkpt>
      <trkpt lat="42.775149" lon="0.832901">
        <ele>1579.414</ele>
        <time>2021-06-18T09:46:26Z</time>
      </trkpt>
      <trkpt lat="42.775108" lon="0.832966">
        <ele>1579.933</ele>
        <time>2021-06-18T09:46:30Z</time>
      </trkpt>
      <trkpt lat="42.775100" lon="0.832983">
        <ele>1579.939</ele>
        <time>2021-06-18T09:46:31Z</time>
      </trkpt>
      <trkpt lat="42.775072" lon="0.833130">
        <ele>1579.933</ele>
        <time>2021-06-18T09:46:38Z</time>
      </trkpt>
      <trkpt lat="42.775060" lon="0.833252">
        <ele>1580.117</ele>
        <time>2021-06-18T09:46:44Z</time>
      </trkpt>
      <trkpt lat="42.775056" lon="0.833270">
        <ele>1580.237</ele>
        <time>2021-06-18T09:46:45Z</time>
      </trkpt>
      <trkpt lat="42.775051" lon="0.833286">
        <ele>1580.410</ele>
        <time>2021-06-18T09:46:46Z</time>
      </trkpt>
      <trkpt lat="42.775036" lon="0.833332">
        <ele>1580.857</ele>
        <time>2021-06-18T09:46:49Z</time>
      </trkpt>
      <trkpt lat="42.775023" lon="0.833393">
        <ele>1581.289</ele>
        <time>2021-06-18T09:46:53Z</time>
      </trkpt>
      <trkpt lat="42.775018" lon="0.833409">
        <ele>1581.406</ele>
        <time>2021-06-18T09:46:54Z</time>
      </trkpt>
      <trkpt lat="42.775010" lon="0.833471">
        <ele>1581.726</ele>
        <time>2021-06-18T09:46:59Z</time>
      </trkpt>
      <trkpt lat="42.775007" lon="0.833482">
        <ele>1581.808</ele>
        <time>2021-06-18T09:47:00Z</time>
      </trkpt>
      <trkpt lat="42.774991" lon="0.833553">
        <ele>1582.495</ele>
        <time>2021-06-18T09:47:04Z</time>
      </trkpt>
      <trkpt lat="42.774986" lon="0.833568">
        <ele>1582.734</ele>
        <time>2021-06-18T09:47:05Z</time>
      </trkpt>
      <trkpt lat="42.774979" lon="0.833588">
        <ele>1583.060</ele>
        <time>2021-06-18T09:47:06Z</time>
      </trkpt>
      <trkpt lat="42.774969" lon="0.833637">
        <ele>1583.544</ele>
        <time>2021-06-18T09:47:08Z</time>
      </trkpt>
      <trkpt lat="42.774953" lon="0.833736">
        <ele>1584.268</ele>
        <time>2021-06-18T09:47:12Z</time>
      </trkpt>
      <trkpt lat="42.774951" lon="0.833792">
        <ele>1584.318</ele>
        <time>2021-06-18T09:47:14Z</time>
      </trkpt>
      <trkpt lat="42.774927" lon="0.833931">
        <ele>1585.551</ele>
        <time>2021-06-18T09:47:19Z</time>
      </trkpt>
      <trkpt lat="42.774907" lon="0.834095">
        <ele>1586.628</ele>
        <time>2021-06-18T09:47:25Z</time>
      </trkpt>
      <trkpt lat="42.774897" lon="0.834147">
        <ele>1587.163</ele>
        <time>2021-06-18T09:47:27Z</time>
      </trkpt>
      <trkpt lat="42.774890" lon="0.834292">
        <ele>1588.744</ele>
        <time>2021-06-18T09:47:33Z</time>
      </trkpt>
      <trkpt lat="42.774889" lon="0.834314">
        <ele>1589.018</ele>
        <time>2021-06-18T09:47:34Z</time>
      </trkpt>
      <trkpt lat="42.774890" lon="0.834428">
        <ele>1590.208</ele>
        <time>2021-06-18T09:47:39Z</time>
      </trkpt>
      <trkpt lat="42.774892" lon="0.834452">
        <ele>1590.373</ele>
        <time>2021-06-18T09:47:40Z</time>
      </trkpt>
      <trkpt lat="42.774911" lon="0.834526">
        <ele>1590.332</ele>
        <time>2021-06-18T09:47:43Z</time>
      </trkpt>
      <trkpt lat="42.774916" lon="0.834549">
        <ele>1590.368</ele>
        <time>2021-06-18T09:47:44Z</time>
      </trkpt>
      <trkpt lat="42.774939" lon="0.834675">
        <ele>1590.752</ele>
        <time>2021-06-18T09:47:50Z</time>
      </trkpt>
      <trkpt lat="42.774943" lon="0.834698">
        <ele>1590.836</ele>
        <time>2021-06-18T09:47:51Z</time>
      </trkpt>
      <trkpt lat="42.774955" lon="0.834813">
        <ele>1591.326</ele>
        <time>2021-06-18T09:47:56Z</time>
      </trkpt>
      <trkpt lat="42.774956" lon="0.834835">
        <ele>1591.599</ele>
        <time>2021-06-18T09:47:57Z</time>
      </trkpt>
      <trkpt lat="42.774951" lon="0.834960">
        <ele>1592.626</ele>
        <time>2021-06-18T09:48:03Z</time>
      </trkpt>
      <trkpt lat="42.774947" lon="0.835107">
        <ele>1593.933</ele>
        <time>2021-06-18T09:48:10Z</time>
      </trkpt>
      <trkpt lat="42.774942" lon="0.835131">
        <ele>1594.223</ele>
        <time>2021-06-18T09:48:11Z</time>
      </trkpt>
      <trkpt lat="42.774925" lon="0.835269">
        <ele>1595.915</ele>
        <time>2021-06-18T09:48:17Z</time>
      </trkpt>
      <trkpt lat="42.774922" lon="0.835293">
        <ele>1596.008</ele>
        <time>2021-06-18T09:48:18Z</time>
      </trkpt>
      <trkpt lat="42.774883" lon="0.835437">
        <ele>1596.510</ele>
        <time>2021-06-18T09:48:25Z</time>
      </trkpt>
      <trkpt lat="42.774835" lon="0.835551">
        <ele>1597.659</ele>
        <time>2021-06-18T09:48:31Z</time>
      </trkpt>
      <trkpt lat="42.774824" lon="0.835584">
        <ele>1597.735</ele>
        <time>2021-06-18T09:48:33Z</time>
      </trkpt>
      <trkpt lat="42.774792" lon="0.835653">
        <ele>1598.379</ele>
        <time>2021-06-18T09:48:37Z</time>
      </trkpt>
      <trkpt lat="42.774740" lon="0.835789">
        <ele>1598.833</ele>
        <time>2021-06-18T09:48:44Z</time>
      </trkpt>
      <trkpt lat="42.774734" lon="0.835809">
        <ele>1598.883</ele>
        <time>2021-06-18T09:48:45Z</time>
      </trkpt>
      <trkpt lat="42.774712" lon="0.835930">
        <ele>1599.376</ele>
        <time>2021-06-18T09:48:51Z</time>
      </trkpt>
      <trkpt lat="42.774708" lon="0.835951">
        <ele>1599.493</ele>
        <time>2021-06-18T09:48:52Z</time>
      </trkpt>
      <trkpt lat="42.774714" lon="0.836086">
        <ele>1598.634</ele>
        <time>2021-06-18T09:48:58Z</time>
      </trkpt>
      <trkpt lat="42.774713" lon="0.836107">
        <ele>1598.655</ele>
        <time>2021-06-18T09:48:59Z</time>
      </trkpt>
      <trkpt lat="42.774695" lon="0.836212">
        <ele>1599.310</ele>
        <time>2021-06-18T09:49:04Z</time>
      </trkpt>
      <trkpt lat="42.774691" lon="0.836236">
        <ele>1599.408</ele>
        <time>2021-06-18T09:49:05Z</time>
      </trkpt>
      <trkpt lat="42.774666" lon="0.836365">
        <ele>1600.340</ele>
        <time>2021-06-18T09:49:11Z</time>
      </trkpt>
      <trkpt lat="42.774650" lon="0.836398">
        <ele>1601.129</ele>
        <time>2021-06-18T09:49:13Z</time>
      </trkpt>
      <trkpt lat="42.774612" lon="0.836484">
        <ele>1602.235</ele>
        <time>2021-06-18T09:49:18Z</time>
      </trkpt>
      <trkpt lat="42.774580" lon="0.836586">
        <ele>1602.729</ele>
        <time>2021-06-18T09:49:23Z</time>
      </trkpt>
      <trkpt lat="42.774550" lon="0.836656">
        <ele>1603.473</ele>
        <time>2021-06-18T09:49:27Z</time>
      </trkpt>
      <trkpt lat="42.774541" lon="0.836675">
        <ele>1603.713</ele>
        <time>2021-06-18T09:49:28Z</time>
      </trkpt>
      <trkpt lat="42.774536" lon="0.836757">
        <ele>1603.256</ele>
        <time>2021-06-18T09:49:32Z</time>
      </trkpt>
      <trkpt lat="42.774533" lon="0.836796">
        <ele>1603.053</ele>
        <time>2021-06-18T09:49:34Z</time>
      </trkpt>
      <trkpt lat="42.774534" lon="0.836815">
        <ele>1602.722</ele>
        <time>2021-06-18T09:49:35Z</time>
      </trkpt>
      <trkpt lat="42.774513" lon="0.836917">
        <ele>1602.862</ele>
        <time>2021-06-18T09:49:40Z</time>
      </trkpt>
      <trkpt lat="42.774503" lon="0.836957">
        <ele>1602.908</ele>
        <time>2021-06-18T09:49:42Z</time>
      </trkpt>
      <trkpt lat="42.774481" lon="0.837032">
        <ele>1603.308</ele>
        <time>2021-06-18T09:49:46Z</time>
      </trkpt>
      <trkpt lat="42.774469" lon="0.837047">
        <ele>1603.749</ele>
        <time>2021-06-18T09:49:47Z</time>
      </trkpt>
      <trkpt lat="42.774447" lon="0.837101">
        <ele>1604.258</ele>
        <time>2021-06-18T09:49:50Z</time>
      </trkpt>
      <trkpt lat="42.774444" lon="0.837136">
        <ele>1604.014</ele>
        <time>2021-06-18T09:49:52Z</time>
      </trkpt>
      <trkpt lat="42.774422" lon="0.837237">
        <ele>1604.218</ele>
        <time>2021-06-18T09:49:56Z</time>
      </trkpt>
      <trkpt lat="42.774402" lon="0.837294">
        <ele>1605.182</ele>
        <time>2021-06-18T09:49:59Z</time>
      </trkpt>
      <trkpt lat="42.774388" lon="0.837312">
        <ele>1605.982</ele>
        <time>2021-06-18T09:50:00Z</time>
      </trkpt>
      <trkpt lat="42.774330" lon="0.837447">
        <ele>1608.475</ele>
        <time>2021-06-18T09:50:07Z</time>
      </trkpt>
      <trkpt lat="42.774325" lon="0.837467">
        <ele>1608.642</ele>
        <time>2021-06-18T09:50:08Z</time>
      </trkpt>
      <trkpt lat="42.774306" lon="0.837522">
        <ele>1609.326</ele>
        <time>2021-06-18T09:50:11Z</time>
      </trkpt>
      <trkpt lat="42.774287" lon="0.837558">
        <ele>1610.147</ele>
        <time>2021-06-18T09:50:13Z</time>
      </trkpt>
      <trkpt lat="42.774258" lon="0.837619">
        <ele>1611.111</ele>
        <time>2021-06-18T09:50:16Z</time>
      </trkpt>
      <trkpt lat="42.774224" lon="0.837705">
        <ele>1612.008</ele>
        <time>2021-06-18T09:50:20Z</time>
      </trkpt>
      <trkpt lat="42.774194" lon="0.837749">
        <ele>1613.089</ele>
        <time>2021-06-18T09:50:22Z</time>
      </trkpt>
      <trkpt lat="42.774173" lon="0.837788">
        <ele>1613.698</ele>
        <time>2021-06-18T09:50:24Z</time>
      </trkpt>
      <trkpt lat="42.774114" lon="0.837928">
        <ele>1614.694</ele>
        <time>2021-06-18T09:50:30Z</time>
      </trkpt>
      <trkpt lat="42.774106" lon="0.837950">
        <ele>1614.788</ele>
        <time>2021-06-18T09:50:31Z</time>
      </trkpt>
      <trkpt lat="42.774094" lon="0.837971">
        <ele>1615.042</ele>
        <time>2021-06-18T09:50:32Z</time>
      </trkpt>
      <trkpt lat="42.774053" lon="0.838028">
        <ele>1616.252</ele>
        <time>2021-06-18T09:50:35Z</time>
      </trkpt>
      <trkpt lat="42.773975" lon="0.838177">
        <ele>1618.555</ele>
        <time>2021-06-18T09:50:42Z</time>
      </trkpt>
      <trkpt lat="42.773955" lon="0.838219">
        <ele>1619.012</ele>
        <time>2021-06-18T09:50:44Z</time>
      </trkpt>
      <trkpt lat="42.773950" lon="0.838237">
        <ele>1619.152</ele>
        <time>2021-06-18T09:50:45Z</time>
      </trkpt>
      <trkpt lat="42.773948" lon="0.838280">
        <ele>1618.853</ele>
        <time>2021-06-18T09:50:47Z</time>
      </trkpt>
      <trkpt lat="42.773931" lon="0.838364">
        <ele>1619.008</ele>
        <time>2021-06-18T09:50:51Z</time>
      </trkpt>
      <trkpt lat="42.773919" lon="0.838382">
        <ele>1619.608</ele>
        <time>2021-06-18T09:50:52Z</time>
      </trkpt>
      <trkpt lat="42.773897" lon="0.838533">
        <ele>1620.612</ele>
        <time>2021-06-18T09:50:59Z</time>
      </trkpt>
      <trkpt lat="42.773898" lon="0.838657">
        <ele>1620.781</ele>
        <time>2021-06-18T09:51:05Z</time>
      </trkpt>
      <trkpt lat="42.773904" lon="0.838699">
        <ele>1620.647</ele>
        <time>2021-06-18T09:51:07Z</time>
      </trkpt>
      <trkpt lat="42.773905" lon="0.838744">
        <ele>1620.731</ele>
        <time>2021-06-18T09:51:09Z</time>
      </trkpt>
      <trkpt lat="42.773904" lon="0.838813">
        <ele>1621.025</ele>
        <time>2021-06-18T09:51:12Z</time>
      </trkpt>
      <trkpt lat="42.773906" lon="0.838835">
        <ele>1621.055</ele>
        <time>2021-06-18T09:51:13Z</time>
      </trkpt>
      <trkpt lat="42.773898" lon="0.838917">
        <ele>1621.758</ele>
        <time>2021-06-18T09:51:17Z</time>
      </trkpt>
      <trkpt lat="42.773895" lon="0.838960">
        <ele>1622.025</ele>
        <time>2021-06-18T09:51:19Z</time>
      </trkpt>
      <trkpt lat="42.773892" lon="0.839006">
        <ele>1622.321</ele>
        <time>2021-06-18T09:51:21Z</time>
      </trkpt>
      <trkpt lat="42.773894" lon="0.839051">
        <ele>1622.441</ele>
        <time>2021-06-18T09:51:23Z</time>
      </trkpt>
      <trkpt lat="42.773892" lon="0.839096">
        <ele>1622.605</ele>
        <time>2021-06-18T09:51:25Z</time>
      </trkpt>
      <trkpt lat="42.773894" lon="0.839118">
        <ele>1622.608</ele>
        <time>2021-06-18T09:51:26Z</time>
      </trkpt>
      <trkpt lat="42.773897" lon="0.839165">
        <ele>1622.619</ele>
        <time>2021-06-18T09:51:28Z</time>
      </trkpt>
      <trkpt lat="42.773901" lon="0.839229">
        <ele>1622.928</ele>
        <time>2021-06-18T09:51:31Z</time>
      </trkpt>
      <trkpt lat="42.773887" lon="0.839294">
        <ele>1624.084</ele>
        <time>2021-06-18T09:51:34Z</time>
      </trkpt>
      <trkpt lat="42.773879" lon="0.839382">
        <ele>1625.128</ele>
        <time>2021-06-18T09:51:38Z</time>
      </trkpt>
      <trkpt lat="42.773877" lon="0.839423">
        <ele>1625.482</ele>
        <time>2021-06-18T09:51:40Z</time>
      </trkpt>
      <trkpt lat="42.773886" lon="0.839511">
        <ele>1625.132</ele>
        <time>2021-06-18T09:51:44Z</time>
      </trkpt>
      <trkpt lat="42.773888" lon="0.839533">
        <ele>1625.045</ele>
        <time>2021-06-18T09:51:45Z</time>
      </trkpt>
      <trkpt lat="42.773876" lon="0.839633">
        <ele>1625.732</ele>
        <time>2021-06-18T09:51:50Z</time>
      </trkpt>
      <trkpt lat="42.773866" lon="0.839693">
        <ele>1626.231</ele>
        <time>2021-06-18T09:51:53Z</time>
      </trkpt>
      <trkpt lat="42.773869" lon="0.839774">
        <ele>1626.161</ele>
        <time>2021-06-18T09:51:57Z</time>
      </trkpt>
      <trkpt lat="42.773864" lon="0.839794">
        <ele>1626.407</ele>
        <time>2021-06-18T09:51:58Z</time>
      </trkpt>
      <trkpt lat="42.773856" lon="0.839837">
        <ele>1626.808</ele>
        <time>2021-06-18T09:52:00Z</time>
      </trkpt>
      <trkpt lat="42.773843" lon="0.839908">
        <ele>1627.650</ele>
        <time>2021-06-18T09:52:03Z</time>
      </trkpt>
      <trkpt lat="42.773833" lon="0.839948">
        <ele>1628.299</ele>
        <time>2021-06-18T09:52:05Z</time>
      </trkpt>
      <trkpt lat="42.773821" lon="0.839993">
        <ele>1628.925</ele>
        <time>2021-06-18T09:52:07Z</time>
      </trkpt>
      <trkpt lat="42.773823" lon="0.840043">
        <ele>1628.819</ele>
        <time>2021-06-18T09:52:09Z</time>
      </trkpt>
      <trkpt lat="42.773813" lon="0.840135">
        <ele>1629.273</ele>
        <time>2021-06-18T09:52:13Z</time>
      </trkpt>
      <trkpt lat="42.773793" lon="0.840224">
        <ele>1630.273</ele>
        <time>2021-06-18T09:52:17Z</time>
      </trkpt>
      <trkpt lat="42.773790" lon="0.840271">
        <ele>1630.316</ele>
        <time>2021-06-18T09:52:19Z</time>
      </trkpt>
      <trkpt lat="42.773798" lon="0.840295">
        <ele>1630.183</ele>
        <time>2021-06-18T09:52:20Z</time>
      </trkpt>
      <trkpt lat="42.773806" lon="0.840376">
        <ele>1630.367</ele>
        <time>2021-06-18T09:52:24Z</time>
      </trkpt>
      <trkpt lat="42.773813" lon="0.840457">
        <ele>1630.781</ele>
        <time>2021-06-18T09:52:28Z</time>
      </trkpt>
      <trkpt lat="42.773813" lon="0.840479">
        <ele>1630.919</ele>
        <time>2021-06-18T09:52:29Z</time>
      </trkpt>
      <trkpt lat="42.773815" lon="0.840503">
        <ele>1631.008</ele>
        <time>2021-06-18T09:52:30Z</time>
      </trkpt>
      <trkpt lat="42.773820" lon="0.840549">
        <ele>1631.233</ele>
        <time>2021-06-18T09:52:32Z</time>
      </trkpt>
      <trkpt lat="42.773816" lon="0.840615">
        <ele>1631.852</ele>
        <time>2021-06-18T09:52:35Z</time>
      </trkpt>
      <trkpt lat="42.773815" lon="0.840635">
        <ele>1632.028</ele>
        <time>2021-06-18T09:52:36Z</time>
      </trkpt>
      <trkpt lat="42.773817" lon="0.840762">
        <ele>1632.992</ele>
        <time>2021-06-18T09:52:42Z</time>
      </trkpt>
      <trkpt lat="42.773814" lon="0.840807">
        <ele>1633.396</ele>
        <time>2021-06-18T09:52:44Z</time>
      </trkpt>
      <trkpt lat="42.773805" lon="0.840944">
        <ele>1634.666</ele>
        <time>2021-06-18T09:52:50Z</time>
      </trkpt>
      <trkpt lat="42.773803" lon="0.840967">
        <ele>1634.829</ele>
        <time>2021-06-18T09:52:51Z</time>
      </trkpt>
      <trkpt lat="42.773794" lon="0.841052">
        <ele>1635.786</ele>
        <time>2021-06-18T09:52:55Z</time>
      </trkpt>
      <trkpt lat="42.773791" lon="0.841095">
        <ele>1636.165</ele>
        <time>2021-06-18T09:52:57Z</time>
      </trkpt>
      <trkpt lat="42.773793" lon="0.841117">
        <ele>1636.268</ele>
        <time>2021-06-18T09:52:58Z</time>
      </trkpt>
      <trkpt lat="42.773797" lon="0.841280">
        <ele>1637.414</ele>
        <time>2021-06-18T09:53:05Z</time>
      </trkpt>
      <trkpt lat="42.773791" lon="0.841410">
        <ele>1638.708</ele>
        <time>2021-06-18T09:53:11Z</time>
      </trkpt>
      <trkpt lat="42.773792" lon="0.841432">
        <ele>1638.743</ele>
        <time>2021-06-18T09:53:12Z</time>
      </trkpt>
      <trkpt lat="42.773791" lon="0.841536">
        <ele>1639.342</ele>
        <time>2021-06-18T09:53:17Z</time>
      </trkpt>
      <trkpt lat="42.773793" lon="0.841557">
        <ele>1639.348</ele>
        <time>2021-06-18T09:53:18Z</time>
      </trkpt>
      <trkpt lat="42.773797" lon="0.841602">
        <ele>1639.362</ele>
        <time>2021-06-18T09:53:20Z</time>
      </trkpt>
      <trkpt lat="42.773798" lon="0.841623">
        <ele>1639.426</ele>
        <time>2021-06-18T09:53:21Z</time>
      </trkpt>
      <trkpt lat="42.773821" lon="0.841753">
        <ele>1639.546</ele>
        <time>2021-06-18T09:53:27Z</time>
      </trkpt>
      <trkpt lat="42.773828" lon="0.841774">
        <ele>1639.499</ele>
        <time>2021-06-18T09:53:28Z</time>
      </trkpt>
      <trkpt lat="42.773842" lon="0.841833">
        <ele>1639.616</ele>
        <time>2021-06-18T09:53:31Z</time>
      </trkpt>
      <trkpt lat="42.773840" lon="0.841853">
        <ele>1639.992</ele>
        <time>2021-06-18T09:53:32Z</time>
      </trkpt>
      <trkpt lat="42.773846" lon="0.841900">
        <ele>1640.373</ele>
        <time>2021-06-18T09:53:34Z</time>
      </trkpt>
      <trkpt lat="42.773841" lon="0.841983">
        <ele>1641.320</ele>
        <time>2021-06-18T09:53:38Z</time>
      </trkpt>
      <trkpt lat="42.773843" lon="0.842025">
        <ele>1641.608</ele>
        <time>2021-06-18T09:53:40Z</time>
      </trkpt>
      <trkpt lat="42.773844" lon="0.842050">
        <ele>1641.786</ele>
        <time>2021-06-18T09:53:41Z</time>
      </trkpt>
      <trkpt lat="42.773836" lon="0.842117">
        <ele>1642.595</ele>
        <time>2021-06-18T09:53:44Z</time>
      </trkpt>
      <trkpt lat="42.773822" lon="0.842224">
        <ele>1643.951</ele>
        <time>2021-06-18T09:53:49Z</time>
      </trkpt>
      <trkpt lat="42.773817" lon="0.842263">
        <ele>1644.415</ele>
        <time>2021-06-18T09:53:51Z</time>
      </trkpt>
      <trkpt lat="42.773824" lon="0.842396">
        <ele>1644.999</ele>
        <time>2021-06-18T09:53:57Z</time>
      </trkpt>
      <trkpt lat="42.773824" lon="0.842418">
        <ele>1645.019</ele>
        <time>2021-06-18T09:53:58Z</time>
      </trkpt>
      <trkpt lat="42.773829" lon="0.842533">
        <ele>1645.492</ele>
        <time>2021-06-18T09:54:03Z</time>
      </trkpt>
      <trkpt lat="42.773827" lon="0.842555">
        <ele>1645.569</ele>
        <time>2021-06-18T09:54:04Z</time>
      </trkpt>
      <trkpt lat="42.773824" lon="0.842577">
        <ele>1645.614</ele>
        <time>2021-06-18T09:54:05Z</time>
      </trkpt>
      <trkpt lat="42.773821" lon="0.842733">
        <ele>1645.754</ele>
        <time>2021-06-18T09:54:12Z</time>
      </trkpt>
      <trkpt lat="42.773827" lon="0.842826">
        <ele>1645.809</ele>
        <time>2021-06-18T09:54:16Z</time>
      </trkpt>
      <trkpt lat="42.773822" lon="0.842935">
        <ele>1646.908</ele>
        <time>2021-06-18T09:54:21Z</time>
      </trkpt>
      <trkpt lat="42.773815" lon="0.842966">
        <ele>1647.578</ele>
        <time>2021-06-18T09:54:23Z</time>
      </trkpt>
      <trkpt lat="42.773812" lon="0.843046">
        <ele>1648.277</ele>
        <time>2021-06-18T09:54:27Z</time>
      </trkpt>
      <trkpt lat="42.773805" lon="0.843087">
        <ele>1648.833</ele>
        <time>2021-06-18T09:54:29Z</time>
      </trkpt>
      <trkpt lat="42.773797" lon="0.843161">
        <ele>1649.597</ele>
        <time>2021-06-18T09:54:33Z</time>
      </trkpt>
      <trkpt lat="42.773794" lon="0.843227">
        <ele>1649.961</ele>
        <time>2021-06-18T09:54:36Z</time>
      </trkpt>
      <trkpt lat="42.773790" lon="0.843337">
        <ele>1650.711</ele>
        <time>2021-06-18T09:54:41Z</time>
      </trkpt>
      <trkpt lat="42.773788" lon="0.843358">
        <ele>1650.984</ele>
        <time>2021-06-18T09:54:42Z</time>
      </trkpt>
      <trkpt lat="42.773783" lon="0.843467">
        <ele>1651.951</ele>
        <time>2021-06-18T09:54:47Z</time>
      </trkpt>
      <trkpt lat="42.773776" lon="0.843505">
        <ele>1652.578</ele>
        <time>2021-06-18T09:54:49Z</time>
      </trkpt>
      <trkpt lat="42.773778" lon="0.843543">
        <ele>1652.733</ele>
        <time>2021-06-18T09:54:51Z</time>
      </trkpt>
      <trkpt lat="42.773774" lon="0.843557">
        <ele>1653.026</ele>
        <time>2021-06-18T09:54:52Z</time>
      </trkpt>
      <trkpt lat="42.773763" lon="0.843650">
        <ele>1654.108</ele>
        <time>2021-06-18T09:54:57Z</time>
      </trkpt>
      <trkpt lat="42.773758" lon="0.843666">
        <ele>1654.444</ele>
        <time>2021-06-18T09:54:58Z</time>
      </trkpt>
      <trkpt lat="42.773761" lon="0.843688">
        <ele>1654.483</ele>
        <time>2021-06-18T09:54:59Z</time>
      </trkpt>
      <trkpt lat="42.773752" lon="0.843819">
        <ele>1655.599</ele>
        <time>2021-06-18T09:55:05Z</time>
      </trkpt>
      <trkpt lat="42.773737" lon="0.843891">
        <ele>1656.623</ele>
        <time>2021-06-18T09:55:09Z</time>
      </trkpt>
      <trkpt lat="42.773734" lon="0.843938">
        <ele>1656.967</ele>
        <time>2021-06-18T09:55:11Z</time>
      </trkpt>
      <trkpt lat="42.773728" lon="0.844073">
        <ele>1657.937</ele>
        <time>2021-06-18T09:55:17Z</time>
      </trkpt>
      <trkpt lat="42.773727" lon="0.844111">
        <ele>1658.130</ele>
        <time>2021-06-18T09:55:19Z</time>
      </trkpt>
      <trkpt lat="42.773725" lon="0.844196">
        <ele>1658.477</ele>
        <time>2021-06-18T09:55:23Z</time>
      </trkpt>
      <trkpt lat="42.773728" lon="0.844217">
        <ele>1658.276</ele>
        <time>2021-06-18T09:55:24Z</time>
      </trkpt>
      <trkpt lat="42.773729" lon="0.844239">
        <ele>1658.190</ele>
        <time>2021-06-18T09:55:25Z</time>
      </trkpt>
      <trkpt lat="42.773720" lon="0.844322">
        <ele>1658.119</ele>
        <time>2021-06-18T09:55:29Z</time>
      </trkpt>
      <trkpt lat="42.773717" lon="0.844364">
        <ele>1658.108</ele>
        <time>2021-06-18T09:55:31Z</time>
      </trkpt>
      <trkpt lat="42.773714" lon="0.844386">
        <ele>1658.124</ele>
        <time>2021-06-18T09:55:32Z</time>
      </trkpt>
      <trkpt lat="42.773701" lon="0.844475">
        <ele>1658.223</ele>
        <time>2021-06-18T09:55:36Z</time>
      </trkpt>
      <trkpt lat="42.773688" lon="0.844538">
        <ele>1658.389</ele>
        <time>2021-06-18T09:55:40Z</time>
      </trkpt>
      <trkpt lat="42.773694" lon="0.844557">
        <ele>1658.053</ele>
        <time>2021-06-18T09:55:41Z</time>
      </trkpt>
      <trkpt lat="42.773694" lon="0.844574">
        <ele>1657.817</ele>
        <time>2021-06-18T09:55:42Z</time>
      </trkpt>
      <trkpt lat="42.773704" lon="0.844596">
        <ele>1657.297</ele>
        <time>2021-06-18T09:55:43Z</time>
      </trkpt>
      <trkpt lat="42.773698" lon="0.844654">
        <ele>1657.140</ele>
        <time>2021-06-18T09:55:46Z</time>
      </trkpt>
      <trkpt lat="42.773689" lon="0.844692">
        <ele>1657.327</ele>
        <time>2021-06-18T09:55:48Z</time>
      </trkpt>
      <trkpt lat="42.773677" lon="0.844780">
        <ele>1658.021</ele>
        <time>2021-06-18T09:55:52Z</time>
      </trkpt>
      <trkpt lat="42.773652" lon="0.844872">
        <ele>1659.241</ele>
        <time>2021-06-18T09:55:57Z</time>
      </trkpt>
      <trkpt lat="42.773650" lon="0.844892">
        <ele>1659.305</ele>
        <time>2021-06-18T09:55:58Z</time>
      </trkpt>
      <trkpt lat="42.773641" lon="0.844929">
        <ele>1659.508</ele>
        <time>2021-06-18T09:56:00Z</time>
      </trkpt>
      <trkpt lat="42.773620" lon="0.844985">
        <ele>1659.999</ele>
        <time>2021-06-18T09:56:03Z</time>
      </trkpt>
      <trkpt lat="42.773599" lon="0.845052">
        <ele>1660.478</ele>
        <time>2021-06-18T09:56:06Z</time>
      </trkpt>
      <trkpt lat="42.773580" lon="0.845117">
        <ele>1661.094</ele>
        <time>2021-06-18T09:56:09Z</time>
      </trkpt>
      <trkpt lat="42.773566" lon="0.845161">
        <ele>1661.448</ele>
        <time>2021-06-18T09:56:11Z</time>
      </trkpt>
      <trkpt lat="42.773531" lon="0.845265">
        <ele>1662.362</ele>
        <time>2021-06-18T09:56:16Z</time>
      </trkpt>
      <trkpt lat="42.773512" lon="0.845300">
        <ele>1662.922</ele>
        <time>2021-06-18T09:56:18Z</time>
      </trkpt>
      <trkpt lat="42.773470" lon="0.845405">
        <ele>1664.115</ele>
        <time>2021-06-18T09:56:23Z</time>
      </trkpt>
      <trkpt lat="42.773433" lon="0.845484">
        <ele>1664.982</ele>
        <time>2021-06-18T09:56:27Z</time>
      </trkpt>
      <trkpt lat="42.773369" lon="0.845599">
        <ele>1665.958</ele>
        <time>2021-06-18T09:56:33Z</time>
      </trkpt>
      <trkpt lat="42.773355" lon="0.845618">
        <ele>1666.152</ele>
        <time>2021-06-18T09:56:34Z</time>
      </trkpt>
      <trkpt lat="42.773257" lon="0.845733">
        <ele>1667.117</ele>
        <time>2021-06-18T09:56:40Z</time>
      </trkpt>
      <trkpt lat="42.773237" lon="0.845748">
        <ele>1667.308</ele>
        <time>2021-06-18T09:56:41Z</time>
      </trkpt>
      <trkpt lat="42.773133" lon="0.845857">
        <ele>1668.482</ele>
        <time>2021-06-18T09:56:47Z</time>
      </trkpt>
      <trkpt lat="42.772996" lon="0.845987">
        <ele>1669.711</ele>
        <time>2021-06-18T09:56:55Z</time>
      </trkpt>
      <trkpt lat="42.772963" lon="0.846021">
        <ele>1670.187</ele>
        <time>2021-06-18T09:56:57Z</time>
      </trkpt>
      <trkpt lat="42.772889" lon="0.846118">
        <ele>1670.661</ele>
        <time>2021-06-18T09:57:02Z</time>
      </trkpt>
      <trkpt lat="42.772819" lon="0.846276">
        <ele>1671.355</ele>
        <time>2021-06-18T09:57:09Z</time>
      </trkpt>
      <trkpt lat="42.772734" lon="0.846410">
        <ele>1671.655</ele>
        <time>2021-06-18T09:57:16Z</time>
      </trkpt>
      <trkpt lat="42.772720" lon="0.846428">
        <ele>1671.798</ele>
        <time>2021-06-18T09:57:17Z</time>
      </trkpt>
      <trkpt lat="42.772652" lon="0.846521">
        <ele>1672.165</ele>
        <time>2021-06-18T09:57:22Z</time>
      </trkpt>
      <trkpt lat="42.772604" lon="0.846572">
        <ele>1672.482</ele>
        <time>2021-06-18T09:57:25Z</time>
      </trkpt>
      <trkpt lat="42.772536" lon="0.846668">
        <ele>1672.543</ele>
        <time>2021-06-18T09:57:30Z</time>
      </trkpt>
      <trkpt lat="42.772526" lon="0.846724">
        <ele>1672.317</ele>
        <time>2021-06-18T09:57:32Z</time>
      </trkpt>
      <trkpt lat="42.772490" lon="0.846923">
        <ele>1671.308</ele>
        <time>2021-06-18T09:57:37Z</time>
      </trkpt>
      <trkpt lat="42.772501" lon="0.847063">
        <ele>1672.365</ele>
        <time>2021-06-18T09:57:41Z</time>
      </trkpt>
      <trkpt lat="42.772510" lon="0.847109">
        <ele>1672.874</ele>
        <time>2021-06-18T09:57:43Z</time>
      </trkpt>
      <trkpt lat="42.772501" lon="0.847175">
        <ele>1673.570</ele>
        <time>2021-06-18T09:57:46Z</time>
      </trkpt>
      <trkpt lat="42.772496" lon="0.847195">
        <ele>1673.774</ele>
        <time>2021-06-18T09:57:47Z</time>
      </trkpt>
      <trkpt lat="42.772455" lon="0.847280">
        <ele>1674.668</ele>
        <time>2021-06-18T09:57:52Z</time>
      </trkpt>
      <trkpt lat="42.772431" lon="0.847304">
        <ele>1674.798</ele>
        <time>2021-06-18T09:57:54Z</time>
      </trkpt>
      <trkpt lat="42.772423" lon="0.847319">
        <ele>1674.911</ele>
        <time>2021-06-18T09:57:55Z</time>
      </trkpt>
      <trkpt lat="42.772400" lon="0.847393">
        <ele>1675.428</ele>
        <time>2021-06-18T09:57:59Z</time>
      </trkpt>
      <trkpt lat="42.772395" lon="0.847413">
        <ele>1675.592</ele>
        <time>2021-06-18T09:58:00Z</time>
      </trkpt>
      <trkpt lat="42.772375" lon="0.847517">
        <ele>1676.373</ele>
        <time>2021-06-18T09:58:05Z</time>
      </trkpt>
      <trkpt lat="42.772373" lon="0.847562">
        <ele>1676.720</ele>
        <time>2021-06-18T09:58:07Z</time>
      </trkpt>
      <trkpt lat="42.772343" lon="0.847664">
        <ele>1677.308</ele>
        <time>2021-06-18T09:58:12Z</time>
      </trkpt>
      <trkpt lat="42.772332" lon="0.847677">
        <ele>1677.336</ele>
        <time>2021-06-18T09:58:13Z</time>
      </trkpt>
      <trkpt lat="42.772284" lon="0.847785">
        <ele>1677.875</ele>
        <time>2021-06-18T09:58:19Z</time>
      </trkpt>
      <trkpt lat="42.772270" lon="0.847959">
        <ele>1679.641</ele>
        <time>2021-06-18T09:58:27Z</time>
      </trkpt>
      <trkpt lat="42.772270" lon="0.847981">
        <ele>1679.865</ele>
        <time>2021-06-18T09:58:28Z</time>
      </trkpt>
      <trkpt lat="42.772279" lon="0.848157">
        <ele>1681.569</ele>
        <time>2021-06-18T09:58:36Z</time>
      </trkpt>
      <trkpt lat="42.772280" lon="0.848180">
        <ele>1681.729</ele>
        <time>2021-06-18T09:58:37Z</time>
      </trkpt>
      <trkpt lat="42.772271" lon="0.848359">
        <ele>1682.712</ele>
        <time>2021-06-18T09:58:45Z</time>
      </trkpt>
      <trkpt lat="42.772265" lon="0.848404">
        <ele>1683.169</ele>
        <time>2021-06-18T09:58:47Z</time>
      </trkpt>
      <trkpt lat="42.772242" lon="0.848555">
        <ele>1684.131</ele>
        <time>2021-06-18T09:58:54Z</time>
      </trkpt>
      <trkpt lat="42.772234" lon="0.848598">
        <ele>1684.361</ele>
        <time>2021-06-18T09:58:56Z</time>
      </trkpt>
      <trkpt lat="42.772216" lon="0.848707">
        <ele>1685.607</ele>
        <time>2021-06-18T09:59:01Z</time>
      </trkpt>
      <trkpt lat="42.772212" lon="0.848729">
        <ele>1685.808</ele>
        <time>2021-06-18T09:59:02Z</time>
      </trkpt>
      <trkpt lat="42.772178" lon="0.848857">
        <ele>1686.930</ele>
        <time>2021-06-18T09:59:08Z</time>
      </trkpt>
      <trkpt lat="42.772158" lon="0.848946">
        <ele>1687.629</ele>
        <time>2021-06-18T09:59:12Z</time>
      </trkpt>
      <trkpt lat="42.772139" lon="0.849013">
        <ele>1688.025</ele>
        <time>2021-06-18T09:59:15Z</time>
      </trkpt>
      <trkpt lat="42.772102" lon="0.849113">
        <ele>1688.049</ele>
        <time>2021-06-18T09:59:20Z</time>
      </trkpt>
      <trkpt lat="42.772080" lon="0.849229">
        <ele>1688.613</ele>
        <time>2021-06-18T09:59:25Z</time>
      </trkpt>
      <trkpt lat="42.772076" lon="0.849252">
        <ele>1688.813</ele>
        <time>2021-06-18T09:59:26Z</time>
      </trkpt>
      <trkpt lat="42.772060" lon="0.849409">
        <ele>1690.126</ele>
        <time>2021-06-18T09:59:33Z</time>
      </trkpt>
      <trkpt lat="42.772054" lon="0.849430">
        <ele>1690.273</ele>
        <time>2021-06-18T09:59:34Z</time>
      </trkpt>
      <trkpt lat="42.772002" lon="0.849593">
        <ele>1691.053</ele>
        <time>2021-06-18T09:59:42Z</time>
      </trkpt>
      <trkpt lat="42.771994" lon="0.849612">
        <ele>1691.004</ele>
        <time>2021-06-18T09:59:43Z</time>
      </trkpt>
      <trkpt lat="42.771979" lon="0.849651">
        <ele>1691.114</ele>
        <time>2021-06-18T09:59:45Z</time>
      </trkpt>
      <trkpt lat="42.771931" lon="0.849764">
        <ele>1691.508</ele>
        <time>2021-06-18T09:59:51Z</time>
      </trkpt>
      <trkpt lat="42.771922" lon="0.849783">
        <ele>1691.632</ele>
        <time>2021-06-18T09:59:52Z</time>
      </trkpt>
      <trkpt lat="42.771857" lon="0.849904">
        <ele>1692.481</ele>
        <time>2021-06-18T09:59:59Z</time>
      </trkpt>
      <trkpt lat="42.771831" lon="0.849931">
        <ele>1692.317</ele>
        <time>2021-06-18T10:00:01Z</time>
      </trkpt>
      <trkpt lat="42.771792" lon="0.849992">
        <ele>1692.671</ele>
        <time>2021-06-18T10:00:05Z</time>
      </trkpt>
      <trkpt lat="42.771756" lon="0.850061">
        <ele>1692.975</ele>
        <time>2021-06-18T10:00:09Z</time>
      </trkpt>
      <trkpt lat="42.771727" lon="0.850134">
        <ele>1693.425</ele>
        <time>2021-06-18T10:00:13Z</time>
      </trkpt>
      <trkpt lat="42.771712" lon="0.850215">
        <ele>1694.368</ele>
        <time>2021-06-18T10:00:17Z</time>
      </trkpt>
      <trkpt lat="42.771705" lon="0.850234">
        <ele>1694.495</ele>
        <time>2021-06-18T10:00:18Z</time>
      </trkpt>
      <trkpt lat="42.771700" lon="0.850254">
        <ele>1694.616</ele>
        <time>2021-06-18T10:00:19Z</time>
      </trkpt>
      <trkpt lat="42.771697" lon="0.850338">
        <ele>1695.676</ele>
        <time>2021-06-18T10:00:23Z</time>
      </trkpt>
      <trkpt lat="42.771695" lon="0.850358">
        <ele>1695.713</ele>
        <time>2021-06-18T10:00:24Z</time>
      </trkpt>
      <trkpt lat="42.771691" lon="0.850378">
        <ele>1695.808</ele>
        <time>2021-06-18T10:00:25Z</time>
      </trkpt>
      <trkpt lat="42.771689" lon="0.850505">
        <ele>1697.238</ele>
        <time>2021-06-18T10:00:31Z</time>
      </trkpt>
      <trkpt lat="42.771687" lon="0.850546">
        <ele>1697.687</ele>
        <time>2021-06-18T10:00:33Z</time>
      </trkpt>
      <trkpt lat="42.771677" lon="0.850667">
        <ele>1698.653</ele>
        <time>2021-06-18T10:00:39Z</time>
      </trkpt>
      <trkpt lat="42.771676" lon="0.850688">
        <ele>1698.897</ele>
        <time>2021-06-18T10:00:40Z</time>
      </trkpt>
      <trkpt lat="42.771663" lon="0.850813">
        <ele>1699.751</ele>
        <time>2021-06-18T10:00:46Z</time>
      </trkpt>
      <trkpt lat="42.771662" lon="0.850836">
        <ele>1699.951</ele>
        <time>2021-06-18T10:00:47Z</time>
      </trkpt>
      <trkpt lat="42.771656" lon="0.850965">
        <ele>1700.784</ele>
        <time>2021-06-18T10:00:53Z</time>
      </trkpt>
      <trkpt lat="42.771657" lon="0.850987">
        <ele>1700.961</ele>
        <time>2021-06-18T10:00:54Z</time>
      </trkpt>
      <trkpt lat="42.771666" lon="0.851130">
        <ele>1702.314</ele>
        <time>2021-06-18T10:01:01Z</time>
      </trkpt>
      <trkpt lat="42.771627" lon="0.851293">
        <ele>1703.954</ele>
        <time>2021-06-18T10:01:09Z</time>
      </trkpt>
      <trkpt lat="42.771619" lon="0.851313">
        <ele>1704.009</ele>
        <time>2021-06-18T10:01:10Z</time>
      </trkpt>
      <trkpt lat="42.771546" lon="0.851419">
        <ele>1704.508</ele>
        <time>2021-06-18T10:01:17Z</time>
      </trkpt>
      <trkpt lat="42.771534" lon="0.851433">
        <ele>1704.668</ele>
        <time>2021-06-18T10:01:18Z</time>
      </trkpt>
      <trkpt lat="42.771471" lon="0.851521">
        <ele>1705.187</ele>
        <time>2021-06-18T10:01:24Z</time>
      </trkpt>
      <trkpt lat="42.771444" lon="0.851570">
        <ele>1705.543</ele>
        <time>2021-06-18T10:01:27Z</time>
      </trkpt>
      <trkpt lat="42.771435" lon="0.851586">
        <ele>1705.637</ele>
        <time>2021-06-18T10:01:28Z</time>
      </trkpt>
      <trkpt lat="42.771408" lon="0.851660">
        <ele>1706.481</ele>
        <time>2021-06-18T10:01:32Z</time>
      </trkpt>
      <trkpt lat="42.771400" lon="0.851679">
        <ele>1706.531</ele>
        <time>2021-06-18T10:01:33Z</time>
      </trkpt>
      <trkpt lat="42.771356" lon="0.851792">
        <ele>1707.694</ele>
        <time>2021-06-18T10:01:39Z</time>
      </trkpt>
      <trkpt lat="42.771325" lon="0.851889">
        <ele>1708.581</ele>
        <time>2021-06-18T10:01:44Z</time>
      </trkpt>
      <trkpt lat="42.771321" lon="0.851909">
        <ele>1708.788</ele>
        <time>2021-06-18T10:01:45Z</time>
      </trkpt>
      <trkpt lat="42.771309" lon="0.851992">
        <ele>1709.624</ele>
        <time>2021-06-18T10:01:49Z</time>
      </trkpt>
      <trkpt lat="42.771310" lon="0.852034">
        <ele>1710.226</ele>
        <time>2021-06-18T10:01:51Z</time>
      </trkpt>
      <trkpt lat="42.771300" lon="0.852097">
        <ele>1710.808</ele>
        <time>2021-06-18T10:01:54Z</time>
      </trkpt>
      <trkpt lat="42.771277" lon="0.852171">
        <ele>1711.325</ele>
        <time>2021-06-18T10:01:58Z</time>
      </trkpt>
      <trkpt lat="42.771231" lon="0.852248">
        <ele>1711.634</ele>
        <time>2021-06-18T10:02:03Z</time>
      </trkpt>
      <trkpt lat="42.771209" lon="0.852277">
        <ele>1711.730</ele>
        <time>2021-06-18T10:02:05Z</time>
      </trkpt>
      <trkpt lat="42.771129" lon="0.852335">
        <ele>1711.454</ele>
        <time>2021-06-18T10:02:11Z</time>
      </trkpt>
      <trkpt lat="42.771115" lon="0.852340">
        <ele>1711.278</ele>
        <time>2021-06-18T10:02:12Z</time>
      </trkpt>
      <trkpt lat="42.771102" lon="0.852348">
        <ele>1711.318</ele>
        <time>2021-06-18T10:02:13Z</time>
      </trkpt>
      <trkpt lat="42.771044" lon="0.852411">
        <ele>1712.661</ele>
        <time>2021-06-18T10:02:18Z</time>
      </trkpt>
      <trkpt lat="42.771023" lon="0.852430">
        <ele>1713.138</ele>
        <time>2021-06-18T10:02:20Z</time>
      </trkpt>
      <trkpt lat="42.770988" lon="0.852495">
        <ele>1714.893</ele>
        <time>2021-06-18T10:02:24Z</time>
      </trkpt>
      <trkpt lat="42.770979" lon="0.852555">
        <ele>1716.265</ele>
        <time>2021-06-18T10:02:27Z</time>
      </trkpt>
      <trkpt lat="42.771004" lon="0.852614">
        <ele>1717.321</ele>
        <time>2021-06-18T10:02:30Z</time>
      </trkpt>
      <trkpt lat="42.771016" lon="0.852631">
        <ele>1717.508</ele>
        <time>2021-06-18T10:02:31Z</time>
      </trkpt>
      <trkpt lat="42.771083" lon="0.852669">
        <ele>1717.476</ele>
        <time>2021-06-18T10:02:36Z</time>
      </trkpt>
      <trkpt lat="42.771131" lon="0.852648">
        <ele>1717.055</ele>
        <time>2021-06-18T10:02:39Z</time>
      </trkpt>
      <trkpt lat="42.771153" lon="0.852611">
        <ele>1716.751</ele>
        <time>2021-06-18T10:02:41Z</time>
      </trkpt>
      <trkpt lat="42.771233" lon="0.852561">
        <ele>1717.295</ele>
        <time>2021-06-18T10:02:46Z</time>
      </trkpt>
      <trkpt lat="42.771246" lon="0.852550">
        <ele>1717.289</ele>
        <time>2021-06-18T10:02:47Z</time>
      </trkpt>
      <trkpt lat="42.771323" lon="0.852493">
        <ele>1717.759</ele>
        <time>2021-06-18T10:02:52Z</time>
      </trkpt>
      <trkpt lat="42.771458" lon="0.852410">
        <ele>1719.872</ele>
        <time>2021-06-18T10:03:01Z</time>
      </trkpt>
      <trkpt lat="42.771472" lon="0.852397">
        <ele>1720.059</ele>
        <time>2021-06-18T10:03:02Z</time>
      </trkpt>
      <trkpt lat="42.771534" lon="0.852327">
        <ele>1720.835</ele>
        <time>2021-06-18T10:03:07Z</time>
      </trkpt>
      <trkpt lat="42.771581" lon="0.852265">
        <ele>1721.186</ele>
        <time>2021-06-18T10:03:11Z</time>
      </trkpt>
      <trkpt lat="42.771614" lon="0.852222">
        <ele>1721.314</ele>
        <time>2021-06-18T10:03:14Z</time>
      </trkpt>
      <trkpt lat="42.771675" lon="0.852135">
        <ele>1722.108</ele>
        <time>2021-06-18T10:03:20Z</time>
      </trkpt>
      <trkpt lat="42.771685" lon="0.852122">
        <ele>1722.370</ele>
        <time>2021-06-18T10:03:21Z</time>
      </trkpt>
      <trkpt lat="42.771743" lon="0.852031">
        <ele>1723.179</ele>
        <time>2021-06-18T10:03:27Z</time>
      </trkpt>
      <trkpt lat="42.771753" lon="0.852015">
        <ele>1723.265</ele>
        <time>2021-06-18T10:03:28Z</time>
      </trkpt>
      <trkpt lat="42.771784" lon="0.851946">
        <ele>1723.249</ele>
        <time>2021-06-18T10:03:32Z</time>
      </trkpt>
      <trkpt lat="42.771794" lon="0.851908">
        <ele>1722.973</ele>
        <time>2021-06-18T10:03:34Z</time>
      </trkpt>
      <trkpt lat="42.771880" lon="0.851826">
        <ele>1724.873</ele>
        <time>2021-06-18T10:03:41Z</time>
      </trkpt>
      <trkpt lat="42.771944" lon="0.851868">
        <ele>1727.966</ele>
        <time>2021-06-18T10:03:46Z</time>
      </trkpt>
      <trkpt lat="42.771950" lon="0.851911">
        <ele>1728.833</ele>
        <time>2021-06-18T10:03:48Z</time>
      </trkpt>
      <trkpt lat="42.771929" lon="0.852006">
        <ele>1729.586</ele>
        <time>2021-06-18T10:03:52Z</time>
      </trkpt>
      <trkpt lat="42.771922" lon="0.852029">
        <ele>1729.760</ele>
        <time>2021-06-18T10:03:53Z</time>
      </trkpt>
      <trkpt lat="42.771879" lon="0.852133">
        <ele>1729.926</ele>
        <time>2021-06-18T10:03:58Z</time>
      </trkpt>
      <trkpt lat="42.771871" lon="0.852150">
        <ele>1729.908</ele>
        <time>2021-06-18T10:03:59Z</time>
      </trkpt>
      <trkpt lat="42.771801" lon="0.852269">
        <ele>1729.215</ele>
        <time>2021-06-18T10:04:06Z</time>
      </trkpt>
      <trkpt lat="42.771777" lon="0.852298">
        <ele>1728.964</ele>
        <time>2021-06-18T10:04:08Z</time>
      </trkpt>
      <trkpt lat="42.771736" lon="0.852396">
        <ele>1729.340</ele>
        <time>2021-06-18T10:04:13Z</time>
      </trkpt>
      <trkpt lat="42.771728" lon="0.852416">
        <ele>1729.594</ele>
        <time>2021-06-18T10:04:14Z</time>
      </trkpt>
      <trkpt lat="42.771723" lon="0.852439">
        <ele>1729.888</ele>
        <time>2021-06-18T10:04:15Z</time>
      </trkpt>
      <trkpt lat="42.771705" lon="0.852527">
        <ele>1730.798</ele>
        <time>2021-06-18T10:04:19Z</time>
      </trkpt>
      <trkpt lat="42.771711" lon="0.852661">
        <ele>1732.661</ele>
        <time>2021-06-18T10:04:25Z</time>
      </trkpt>
      <trkpt lat="42.771707" lon="0.852707">
        <ele>1733.058</ele>
        <time>2021-06-18T10:04:27Z</time>
      </trkpt>
      <trkpt lat="42.771700" lon="0.852792">
        <ele>1733.853</ele>
        <time>2021-06-18T10:04:31Z</time>
      </trkpt>
      <trkpt lat="42.771686" lon="0.852874">
        <ele>1734.604</ele>
        <time>2021-06-18T10:04:35Z</time>
      </trkpt>
      <trkpt lat="42.771668" lon="0.852934">
        <ele>1734.914</ele>
        <time>2021-06-18T10:04:38Z</time>
      </trkpt>
      <trkpt lat="42.771600" lon="0.853053">
        <ele>1734.808</ele>
        <time>2021-06-18T10:04:45Z</time>
      </trkpt>
      <trkpt lat="42.771577" lon="0.853080">
        <ele>1734.572</ele>
        <time>2021-06-18T10:04:47Z</time>
      </trkpt>
      <trkpt lat="42.771534" lon="0.853174">
        <ele>1734.631</ele>
        <time>2021-06-18T10:04:52Z</time>
      </trkpt>
      <trkpt lat="42.771524" lon="0.853240">
        <ele>1735.417</ele>
        <time>2021-06-18T10:04:55Z</time>
      </trkpt>
      <trkpt lat="42.771517" lon="0.853284">
        <ele>1735.861</ele>
        <time>2021-06-18T10:04:57Z</time>
      </trkpt>
      <trkpt lat="42.771512" lon="0.853326">
        <ele>1736.335</ele>
        <time>2021-06-18T10:04:59Z</time>
      </trkpt>
      <trkpt lat="42.771509" lon="0.853432">
        <ele>1737.255</ele>
        <time>2021-06-18T10:05:04Z</time>
      </trkpt>
      <trkpt lat="42.771506" lon="0.853515">
        <ele>1737.828</ele>
        <time>2021-06-18T10:05:08Z</time>
      </trkpt>
      <trkpt lat="42.771510" lon="0.853618">
        <ele>1738.835</ele>
        <time>2021-06-18T10:05:13Z</time>
      </trkpt>
      <trkpt lat="42.771513" lon="0.853681">
        <ele>1739.421</ele>
        <time>2021-06-18T10:05:16Z</time>
      </trkpt>
      <trkpt lat="42.771518" lon="0.853744">
        <ele>1740.141</ele>
        <time>2021-06-18T10:05:19Z</time>
      </trkpt>
      <trkpt lat="42.771533" lon="0.853841">
        <ele>1741.305</ele>
        <time>2021-06-18T10:05:24Z</time>
      </trkpt>
      <trkpt lat="42.771516" lon="0.853999">
        <ele>1741.908</ele>
        <time>2021-06-18T10:05:32Z</time>
      </trkpt>
      <trkpt lat="42.771513" lon="0.854017">
        <ele>1741.919</ele>
        <time>2021-06-18T10:05:33Z</time>
      </trkpt>
      <trkpt lat="42.771501" lon="0.854153">
        <ele>1742.548</ele>
        <time>2021-06-18T10:05:40Z</time>
      </trkpt>
      <trkpt lat="42.771504" lon="0.854192">
        <ele>1742.884</ele>
        <time>2021-06-18T10:05:42Z</time>
      </trkpt>
      <trkpt lat="42.771519" lon="0.854305">
        <ele>1743.428</ele>
        <time>2021-06-18T10:05:48Z</time>
      </trkpt>
      <trkpt lat="42.771527" lon="0.854363">
        <ele>1743.822</ele>
        <time>2021-06-18T10:05:51Z</time>
      </trkpt>
      <trkpt lat="42.771534" lon="0.854402">
        <ele>1744.122</ele>
        <time>2021-06-18T10:05:53Z</time>
      </trkpt>
      <trkpt lat="42.771535" lon="0.854422">
        <ele>1744.255</ele>
        <time>2021-06-18T10:05:54Z</time>
      </trkpt>
      <trkpt lat="42.771541" lon="0.854481">
        <ele>1744.522</ele>
        <time>2021-06-18T10:05:57Z</time>
      </trkpt>
      <trkpt lat="42.771543" lon="0.854501">
        <ele>1744.773</ele>
        <time>2021-06-18T10:05:58Z</time>
      </trkpt>
      <trkpt lat="42.771560" lon="0.854616">
        <ele>1745.585</ele>
        <time>2021-06-18T10:06:04Z</time>
      </trkpt>
      <trkpt lat="42.771563" lon="0.854636">
        <ele>1745.713</ele>
        <time>2021-06-18T10:06:05Z</time>
      </trkpt>
      <trkpt lat="42.771590" lon="0.854759">
        <ele>1747.108</ele>
        <time>2021-06-18T10:06:11Z</time>
      </trkpt>
      <trkpt lat="42.771598" lon="0.854803">
        <ele>1747.644</ele>
        <time>2021-06-18T10:06:13Z</time>
      </trkpt>
      <trkpt lat="42.771600" lon="0.854895">
        <ele>1748.073</ele>
        <time>2021-06-18T10:06:17Z</time>
      </trkpt>
      <trkpt lat="42.771596" lon="0.855005">
        <ele>1748.339</ele>
        <time>2021-06-18T10:06:22Z</time>
      </trkpt>
      <trkpt lat="42.771596" lon="0.855026">
        <ele>1748.573</ele>
        <time>2021-06-18T10:06:23Z</time>
      </trkpt>
      <trkpt lat="42.771602" lon="0.855108">
        <ele>1749.697</ele>
        <time>2021-06-18T10:06:27Z</time>
      </trkpt>
      <trkpt lat="42.771599" lon="0.855128">
        <ele>1749.747</ele>
        <time>2021-06-18T10:06:28Z</time>
      </trkpt>
      <trkpt lat="42.771598" lon="0.855149">
        <ele>1749.930</ele>
        <time>2021-06-18T10:06:29Z</time>
      </trkpt>
      <trkpt lat="42.771569" lon="0.855286">
        <ele>1750.387</ele>
        <time>2021-06-18T10:06:36Z</time>
      </trkpt>
      <trkpt lat="42.771528" lon="0.855410">
        <ele>1750.723</ele>
        <time>2021-06-18T10:06:43Z</time>
      </trkpt>
      <trkpt lat="42.771524" lon="0.855430">
        <ele>1750.883</ele>
        <time>2021-06-18T10:06:44Z</time>
      </trkpt>
      <trkpt lat="42.771514" lon="0.855555">
        <ele>1752.411</ele>
        <time>2021-06-18T10:06:50Z</time>
      </trkpt>
      <trkpt lat="42.771497" lon="0.855681">
        <ele>1753.908</ele>
        <time>2021-06-18T10:06:56Z</time>
      </trkpt>
      <trkpt lat="42.771449" lon="0.855812">
        <ele>1754.269</ele>
        <time>2021-06-18T10:07:03Z</time>
      </trkpt>
      <trkpt lat="42.771442" lon="0.855852">
        <ele>1754.678</ele>
        <time>2021-06-18T10:07:05Z</time>
      </trkpt>
      <trkpt lat="42.771418" lon="0.855971">
        <ele>1755.334</ele>
        <time>2021-06-18T10:07:11Z</time>
      </trkpt>
      <trkpt lat="42.771401" lon="0.856087">
        <ele>1756.368</ele>
        <time>2021-06-18T10:07:17Z</time>
      </trkpt>
      <trkpt lat="42.771397" lon="0.856106">
        <ele>1756.322</ele>
        <time>2021-06-18T10:07:18Z</time>
      </trkpt>
      <trkpt lat="42.771371" lon="0.856222">
        <ele>1757.012</ele>
        <time>2021-06-18T10:07:24Z</time>
      </trkpt>
      <trkpt lat="42.771364" lon="0.856263">
        <ele>1757.345</ele>
        <time>2021-06-18T10:07:26Z</time>
      </trkpt>
      <trkpt lat="42.771340" lon="0.856389">
        <ele>1758.662</ele>
        <time>2021-06-18T10:07:32Z</time>
      </trkpt>
      <trkpt lat="42.771324" lon="0.856428">
        <ele>1759.316</ele>
        <time>2021-06-18T10:07:34Z</time>
      </trkpt>
      <trkpt lat="42.771265" lon="0.856527">
        <ele>1760.476</ele>
        <time>2021-06-18T10:07:40Z</time>
      </trkpt>
      <trkpt lat="42.771252" lon="0.856538">
        <ele>1760.413</ele>
        <time>2021-06-18T10:07:41Z</time>
      </trkpt>
      <trkpt lat="42.771239" lon="0.856545">
        <ele>1760.208</ele>
        <time>2021-06-18T10:07:42Z</time>
      </trkpt>
      <trkpt lat="42.771166" lon="0.856607">
        <ele>1759.928</ele>
        <time>2021-06-18T10:07:48Z</time>
      </trkpt>
      <trkpt lat="42.771156" lon="0.856624">
        <ele>1760.167</ele>
        <time>2021-06-18T10:07:49Z</time>
      </trkpt>
      <trkpt lat="42.771100" lon="0.856757">
        <ele>1762.193</ele>
        <time>2021-06-18T10:07:56Z</time>
      </trkpt>
      <trkpt lat="42.771082" lon="0.856794">
        <ele>1762.477</ele>
        <time>2021-06-18T10:07:58Z</time>
      </trkpt>
      <trkpt lat="42.771040" lon="0.856861">
        <ele>1762.691</ele>
        <time>2021-06-18T10:08:02Z</time>
      </trkpt>
      <trkpt lat="42.770987" lon="0.856968">
        <ele>1763.751</ele>
        <time>2021-06-18T10:08:08Z</time>
      </trkpt>
      <trkpt lat="42.770896" lon="0.857104">
        <ele>1763.644</ele>
        <time>2021-06-18T10:08:17Z</time>
      </trkpt>
      <trkpt lat="42.770861" lon="0.857177">
        <ele>1764.091</ele>
        <time>2021-06-18T10:08:21Z</time>
      </trkpt>
      <trkpt lat="42.770852" lon="0.857219">
        <ele>1764.793</ele>
        <time>2021-06-18T10:08:23Z</time>
      </trkpt>
      <trkpt lat="42.770835" lon="0.857426">
        <ele>1766.365</ele>
        <time>2021-06-18T10:08:32Z</time>
      </trkpt>
      <trkpt lat="42.770838" lon="0.857495">
        <ele>1767.121</ele>
        <time>2021-06-18T10:08:35Z</time>
      </trkpt>
      <trkpt lat="42.770811" lon="0.857597">
        <ele>1766.708</ele>
        <time>2021-06-18T10:08:40Z</time>
      </trkpt>
      <trkpt lat="42.770806" lon="0.857617">
        <ele>1766.676</ele>
        <time>2021-06-18T10:08:41Z</time>
      </trkpt>
      <trkpt lat="42.770781" lon="0.857792">
        <ele>1766.755</ele>
        <time>2021-06-18T10:08:49Z</time>
      </trkpt>
      <trkpt lat="42.770785" lon="0.857812">
        <ele>1766.941</ele>
        <time>2021-06-18T10:08:50Z</time>
      </trkpt>
      <trkpt lat="42.770836" lon="0.857891">
        <ele>1769.195</ele>
        <time>2021-06-18T10:08:55Z</time>
      </trkpt>
      <trkpt lat="42.770867" lon="0.857895">
        <ele>1770.349</ele>
        <time>2021-06-18T10:08:57Z</time>
      </trkpt>
      <trkpt lat="42.770928" lon="0.857837">
        <ele>1772.799</ele>
        <time>2021-06-18T10:09:02Z</time>
      </trkpt>
      <trkpt lat="42.770935" lon="0.857819">
        <ele>1773.042</ele>
        <time>2021-06-18T10:09:03Z</time>
      </trkpt>
      <trkpt lat="42.770946" lon="0.857736">
        <ele>1773.229</ele>
        <time>2021-06-18T10:09:07Z</time>
      </trkpt>
      <trkpt lat="42.770949" lon="0.857693">
        <ele>1773.196</ele>
        <time>2021-06-18T10:09:09Z</time>
      </trkpt>
      <trkpt lat="42.770957" lon="0.857601">
        <ele>1772.931</ele>
        <time>2021-06-18T10:09:13Z</time>
      </trkpt>
      <trkpt lat="42.770980" lon="0.857465">
        <ele>1773.024</ele>
        <time>2021-06-18T10:09:19Z</time>
      </trkpt>
      <trkpt lat="42.770995" lon="0.857379">
        <ele>1772.708</ele>
        <time>2021-06-18T10:09:23Z</time>
      </trkpt>
      <trkpt lat="42.771038" lon="0.857278">
        <ele>1773.476</ele>
        <time>2021-06-18T10:09:28Z</time>
      </trkpt>
      <trkpt lat="42.771059" lon="0.857243">
        <ele>1774.085</ele>
        <time>2021-06-18T10:09:30Z</time>
      </trkpt>
      <trkpt lat="42.771148" lon="0.857144">
        <ele>1774.861</ele>
        <time>2021-06-18T10:09:37Z</time>
      </trkpt>
      <trkpt lat="42.771162" lon="0.857130">
        <ele>1774.955</ele>
        <time>2021-06-18T10:09:38Z</time>
      </trkpt>
      <trkpt lat="42.771274" lon="0.857034">
        <ele>1775.799</ele>
        <time>2021-06-18T10:09:46Z</time>
      </trkpt>
      <trkpt lat="42.771328" lon="0.856985">
        <ele>1776.179</ele>
        <time>2021-06-18T10:09:50Z</time>
      </trkpt>
      <trkpt lat="42.771355" lon="0.856963">
        <ele>1776.412</ele>
        <time>2021-06-18T10:09:52Z</time>
      </trkpt>
      <trkpt lat="42.771432" lon="0.856940">
        <ele>1777.819</ele>
        <time>2021-06-18T10:09:57Z</time>
      </trkpt>
      <trkpt lat="42.771478" lon="0.856928">
        <ele>1778.546</ele>
        <time>2021-06-18T10:10:00Z</time>
      </trkpt>
      <trkpt lat="42.771559" lon="0.856932">
        <ele>1780.488</ele>
        <time>2021-06-18T10:10:05Z</time>
      </trkpt>
      <trkpt lat="42.771574" lon="0.856927">
        <ele>1780.616</ele>
        <time>2021-06-18T10:10:06Z</time>
      </trkpt>
      <trkpt lat="42.771656" lon="0.856865">
        <ele>1781.308</ele>
        <time>2021-06-18T10:10:12Z</time>
      </trkpt>
      <trkpt lat="42.771661" lon="0.856847">
        <ele>1781.181</ele>
        <time>2021-06-18T10:10:13Z</time>
      </trkpt>
      <trkpt lat="42.771726" lon="0.856735">
        <ele>1782.190</ele>
        <time>2021-06-18T10:10:20Z</time>
      </trkpt>
      <trkpt lat="42.771749" lon="0.856682">
        <ele>1782.496</ele>
        <time>2021-06-18T10:10:23Z</time>
      </trkpt>
      <trkpt lat="42.771796" lon="0.856579">
        <ele>1783.480</ele>
        <time>2021-06-18T10:10:29Z</time>
      </trkpt>
      <trkpt lat="42.771839" lon="0.856477">
        <ele>1784.294</ele>
        <time>2021-06-18T10:10:35Z</time>
      </trkpt>
      <trkpt lat="42.771856" lon="0.856445">
        <ele>1784.644</ele>
        <time>2021-06-18T10:10:37Z</time>
      </trkpt>
      <trkpt lat="42.771892" lon="0.856386">
        <ele>1785.597</ele>
        <time>2021-06-18T10:10:41Z</time>
      </trkpt>
      <trkpt lat="42.771923" lon="0.856344">
        <ele>1786.024</ele>
        <time>2021-06-18T10:10:44Z</time>
      </trkpt>
      <trkpt lat="42.771943" lon="0.856318">
        <ele>1786.478</ele>
        <time>2021-06-18T10:10:46Z</time>
      </trkpt>
      <trkpt lat="42.771994" lon="0.856249">
        <ele>1787.533</ele>
        <time>2021-06-18T10:10:51Z</time>
      </trkpt>
      <trkpt lat="42.772005" lon="0.856236">
        <ele>1787.826</ele>
        <time>2021-06-18T10:10:52Z</time>
      </trkpt>
      <trkpt lat="42.772062" lon="0.856154">
        <ele>1788.908</ele>
        <time>2021-06-18T10:10:58Z</time>
      </trkpt>
      <trkpt lat="42.772090" lon="0.856110">
        <ele>1789.334</ele>
        <time>2021-06-18T10:11:01Z</time>
      </trkpt>
      <trkpt lat="42.772133" lon="0.856032">
        <ele>1790.333</ele>
        <time>2021-06-18T10:11:06Z</time>
      </trkpt>
      <trkpt lat="42.772142" lon="0.856016">
        <ele>1790.519</ele>
        <time>2021-06-18T10:11:07Z</time>
      </trkpt>
      <trkpt lat="42.772149" lon="0.856000">
        <ele>1790.653</ele>
        <time>2021-06-18T10:11:08Z</time>
      </trkpt>
      <trkpt lat="42.772215" lon="0.855870">
        <ele>1792.157</ele>
        <time>2021-06-18T10:11:16Z</time>
      </trkpt>
      <trkpt lat="42.772234" lon="0.855838">
        <ele>1792.797</ele>
        <time>2021-06-18T10:11:18Z</time>
      </trkpt>
      <trkpt lat="42.772251" lon="0.855802">
        <ele>1793.130</ele>
        <time>2021-06-18T10:11:20Z</time>
      </trkpt>
      <trkpt lat="42.772285" lon="0.855714">
        <ele>1793.667</ele>
        <time>2021-06-18T10:11:25Z</time>
      </trkpt>
      <trkpt lat="42.772302" lon="0.855663">
        <ele>1793.733</ele>
        <time>2021-06-18T10:11:28Z</time>
      </trkpt>
      <trkpt lat="42.772328" lon="0.855595">
        <ele>1794.123</ele>
        <time>2021-06-18T10:11:32Z</time>
      </trkpt>
      <trkpt lat="42.772348" lon="0.855542">
        <ele>1794.515</ele>
        <time>2021-06-18T10:11:35Z</time>
      </trkpt>
      <trkpt lat="42.772379" lon="0.855434">
        <ele>1794.808</ele>
        <time>2021-06-18T10:11:41Z</time>
      </trkpt>
      <trkpt lat="42.772385" lon="0.855415">
        <ele>1794.950</ele>
        <time>2021-06-18T10:11:42Z</time>
      </trkpt>
      <trkpt lat="42.772413" lon="0.855287">
        <ele>1794.479</ele>
        <time>2021-06-18T10:11:49Z</time>
      </trkpt>
      <trkpt lat="42.772415" lon="0.855265">
        <ele>1794.345</ele>
        <time>2021-06-18T10:11:50Z</time>
      </trkpt>
      <trkpt lat="42.772456" lon="0.855159">
        <ele>1796.159</ele>
        <time>2021-06-18T10:11:56Z</time>
      </trkpt>
      <trkpt lat="42.772481" lon="0.855136">
        <ele>1797.463</ele>
        <time>2021-06-18T10:11:58Z</time>
      </trkpt>
      <trkpt lat="42.772536" lon="0.855136">
        <ele>1800.893</ele>
        <time>2021-06-18T10:12:02Z</time>
      </trkpt>
      <trkpt lat="42.772557" lon="0.855164">
        <ele>1802.346</ele>
        <time>2021-06-18T10:12:04Z</time>
      </trkpt>
      <trkpt lat="42.772564" lon="0.855182">
        <ele>1802.973</ele>
        <time>2021-06-18T10:12:05Z</time>
      </trkpt>
      <trkpt lat="42.772549" lon="0.855270">
        <ele>1802.361</ele>
        <time>2021-06-18T10:12:10Z</time>
      </trkpt>
      <trkpt lat="42.772541" lon="0.855286">
        <ele>1801.921</ele>
        <time>2021-06-18T10:12:11Z</time>
      </trkpt>
      <trkpt lat="42.772502" lon="0.855392">
        <ele>1801.213</ele>
        <time>2021-06-18T10:12:17Z</time>
      </trkpt>
      <trkpt lat="42.772498" lon="0.855412">
        <ele>1801.308</ele>
        <time>2021-06-18T10:12:18Z</time>
      </trkpt>
      <trkpt lat="42.772477" lon="0.855514">
        <ele>1801.953</ele>
        <time>2021-06-18T10:12:23Z</time>
      </trkpt>
      <trkpt lat="42.772469" lon="0.855554">
        <ele>1802.142</ele>
        <time>2021-06-18T10:12:25Z</time>
      </trkpt>
      <trkpt lat="42.772451" lon="0.855675">
        <ele>1802.858</ele>
        <time>2021-06-18T10:12:31Z</time>
      </trkpt>
      <trkpt lat="42.772439" lon="0.855755">
        <ele>1803.342</ele>
        <time>2021-06-18T10:12:35Z</time>
      </trkpt>
      <trkpt lat="42.772429" lon="0.855817">
        <ele>1803.756</ele>
        <time>2021-06-18T10:12:38Z</time>
      </trkpt>
      <trkpt lat="42.772419" lon="0.855944">
        <ele>1804.936</ele>
        <time>2021-06-18T10:12:44Z</time>
      </trkpt>
      <trkpt lat="42.772416" lon="0.856007">
        <ele>1805.769</ele>
        <time>2021-06-18T10:12:47Z</time>
      </trkpt>
      <trkpt lat="42.772403" lon="0.856121">
        <ele>1806.686</ele>
        <time>2021-06-18T10:12:53Z</time>
      </trkpt>
      <trkpt lat="42.772397" lon="0.856215">
        <ele>1807.853</ele>
        <time>2021-06-18T10:12:58Z</time>
      </trkpt>
      <trkpt lat="42.772387" lon="0.856290">
        <ele>1808.604</ele>
        <time>2021-06-18T10:13:02Z</time>
      </trkpt>
      <trkpt lat="42.772374" lon="0.856362">
        <ele>1809.214</ele>
        <time>2021-06-18T10:13:06Z</time>
      </trkpt>
      <trkpt lat="42.772366" lon="0.856399">
        <ele>1809.408</ele>
        <time>2021-06-18T10:13:08Z</time>
      </trkpt>
      <trkpt lat="42.772363" lon="0.856435">
        <ele>1809.822</ele>
        <time>2021-06-18T10:13:10Z</time>
      </trkpt>
      <trkpt lat="42.772354" lon="0.856489">
        <ele>1810.321</ele>
        <time>2021-06-18T10:13:13Z</time>
      </trkpt>
      <trkpt lat="42.772347" lon="0.856525">
        <ele>1810.537</ele>
        <time>2021-06-18T10:13:15Z</time>
      </trkpt>
      <trkpt lat="42.772332" lon="0.856596">
        <ele>1810.861</ele>
        <time>2021-06-18T10:13:19Z</time>
      </trkpt>
      <trkpt lat="42.772332" lon="0.856615">
        <ele>1811.125</ele>
        <time>2021-06-18T10:13:20Z</time>
      </trkpt>
      <trkpt lat="42.772321" lon="0.856740">
        <ele>1812.165</ele>
        <time>2021-06-18T10:13:27Z</time>
      </trkpt>
      <trkpt lat="42.772319" lon="0.856757">
        <ele>1812.218</ele>
        <time>2021-06-18T10:13:28Z</time>
      </trkpt>
      <trkpt lat="42.772313" lon="0.856885">
        <ele>1813.335</ele>
        <time>2021-06-18T10:13:35Z</time>
      </trkpt>
      <trkpt lat="42.772314" lon="0.856903">
        <ele>1813.594</ele>
        <time>2021-06-18T10:13:36Z</time>
      </trkpt>
      <trkpt lat="42.772312" lon="0.857033">
        <ele>1815.157</ele>
        <time>2021-06-18T10:13:43Z</time>
      </trkpt>
      <trkpt lat="42.772311" lon="0.857053">
        <ele>1815.422</ele>
        <time>2021-06-18T10:13:44Z</time>
      </trkpt>
      <trkpt lat="42.772292" lon="0.857206">
        <ele>1816.508</ele>
        <time>2021-06-18T10:13:52Z</time>
      </trkpt>
      <trkpt lat="42.772290" lon="0.857225">
        <ele>1816.736</ele>
        <time>2021-06-18T10:13:53Z</time>
      </trkpt>
      <trkpt lat="42.772284" lon="0.857344">
        <ele>1818.115</ele>
        <time>2021-06-18T10:13:59Z</time>
      </trkpt>
      <trkpt lat="42.772263" lon="0.857459">
        <ele>1818.631</ele>
        <time>2021-06-18T10:14:05Z</time>
      </trkpt>
      <trkpt lat="42.772254" lon="0.857495">
        <ele>1818.635</ele>
        <time>2021-06-18T10:14:07Z</time>
      </trkpt>
      <trkpt lat="42.772229" lon="0.857607">
        <ele>1819.329</ele>
        <time>2021-06-18T10:14:13Z</time>
      </trkpt>
      <trkpt lat="42.772222" lon="0.857625">
        <ele>1819.279</ele>
        <time>2021-06-18T10:14:14Z</time>
      </trkpt>
      <trkpt lat="42.772177" lon="0.857723">
        <ele>1819.112</ele>
        <time>2021-06-18T10:14:20Z</time>
      </trkpt>
      <trkpt lat="42.772173" lon="0.857761">
        <ele>1819.689</ele>
        <time>2021-06-18T10:14:22Z</time>
      </trkpt>
      <trkpt lat="42.772165" lon="0.857839">
        <ele>1820.325</ele>
        <time>2021-06-18T10:14:26Z</time>
      </trkpt>
      <trkpt lat="42.772162" lon="0.857917">
        <ele>1821.226</ele>
        <time>2021-06-18T10:14:30Z</time>
      </trkpt>
      <trkpt lat="42.772180" lon="0.857992">
        <ele>1823.008</ele>
        <time>2021-06-18T10:14:34Z</time>
      </trkpt>
      <trkpt lat="42.772183" lon="0.858011">
        <ele>1823.408</ele>
        <time>2021-06-18T10:14:35Z</time>
      </trkpt>
      <trkpt lat="42.772182" lon="0.858029">
        <ele>1823.629</ele>
        <time>2021-06-18T10:14:36Z</time>
      </trkpt>
      <trkpt lat="42.772183" lon="0.858108">
        <ele>1824.438</ele>
        <time>2021-06-18T10:14:40Z</time>
      </trkpt>
      <trkpt lat="42.772181" lon="0.858190">
        <ele>1825.054</ele>
        <time>2021-06-18T10:14:44Z</time>
      </trkpt>
      <trkpt lat="42.772177" lon="0.858272">
        <ele>1825.488</ele>
        <time>2021-06-18T10:14:48Z</time>
      </trkpt>
      <trkpt lat="42.772173" lon="0.858332">
        <ele>1825.742</ele>
        <time>2021-06-18T10:14:51Z</time>
      </trkpt>
      <trkpt lat="42.772158" lon="0.858429">
        <ele>1826.352</ele>
        <time>2021-06-18T10:14:56Z</time>
      </trkpt>
      <trkpt lat="42.772155" lon="0.858448">
        <ele>1826.445</ele>
        <time>2021-06-18T10:14:57Z</time>
      </trkpt>
      <trkpt lat="42.772126" lon="0.858573">
        <ele>1826.642</ele>
        <time>2021-06-18T10:15:04Z</time>
      </trkpt>
      <trkpt lat="42.772116" lon="0.858628">
        <ele>1826.997</ele>
        <time>2021-06-18T10:15:07Z</time>
      </trkpt>
      <trkpt lat="42.772122" lon="0.858737">
        <ele>1828.623</ele>
        <time>2021-06-18T10:15:13Z</time>
      </trkpt>
      <trkpt lat="42.772120" lon="0.858755">
        <ele>1828.725</ele>
        <time>2021-06-18T10:15:14Z</time>
      </trkpt>
      <trkpt lat="42.772110" lon="0.858858">
        <ele>1829.508</ele>
        <time>2021-06-18T10:15:20Z</time>
      </trkpt>
      <trkpt lat="42.772105" lon="0.858896">
        <ele>1829.866</ele>
        <time>2021-06-18T10:15:22Z</time>
      </trkpt>
      <trkpt lat="42.772088" lon="0.859005">
        <ele>1830.835</ele>
        <time>2021-06-18T10:15:28Z</time>
      </trkpt>
      <trkpt lat="42.772086" lon="0.859046">
        <ele>1831.521</ele>
        <time>2021-06-18T10:15:30Z</time>
      </trkpt>
      <trkpt lat="42.772073" lon="0.859193">
        <ele>1833.775</ele>
        <time>2021-06-18T10:15:38Z</time>
      </trkpt>
      <trkpt lat="42.772070" lon="0.859209">
        <ele>1834.019</ele>
        <time>2021-06-18T10:15:39Z</time>
      </trkpt>
      <trkpt lat="42.772034" lon="0.859292">
        <ele>1834.879</ele>
        <time>2021-06-18T10:15:44Z</time>
      </trkpt>
      <trkpt lat="42.772025" lon="0.859306">
        <ele>1834.842</ele>
        <time>2021-06-18T10:15:45Z</time>
      </trkpt>
      <trkpt lat="42.771965" lon="0.859352">
        <ele>1834.119</ele>
        <time>2021-06-18T10:15:50Z</time>
      </trkpt>
      <trkpt lat="42.771936" lon="0.859361">
        <ele>1833.436</ele>
        <time>2021-06-18T10:15:52Z</time>
      </trkpt>
      <trkpt lat="42.771923" lon="0.859370">
        <ele>1833.217</ele>
        <time>2021-06-18T10:15:53Z</time>
      </trkpt>
      <trkpt lat="42.771884" lon="0.859402">
        <ele>1832.918</ele>
        <time>2021-06-18T10:15:56Z</time>
      </trkpt>
      <trkpt lat="42.771832" lon="0.859472">
        <ele>1833.608</ele>
        <time>2021-06-18T10:16:01Z</time>
      </trkpt>
      <trkpt lat="42.771813" lon="0.859500">
        <ele>1833.970</ele>
        <time>2021-06-18T10:16:03Z</time>
      </trkpt>
      <trkpt lat="42.771755" lon="0.859607">
        <ele>1835.319</ele>
        <time>2021-06-18T10:16:10Z</time>
      </trkpt>
      <trkpt lat="42.771705" lon="0.859730">
        <ele>1837.175</ele>
        <time>2021-06-18T10:16:17Z</time>
      </trkpt>
      <trkpt lat="42.771680" lon="0.859862">
        <ele>1839.219</ele>
        <time>2021-06-18T10:16:24Z</time>
      </trkpt>
      <trkpt lat="42.771679" lon="0.859900">
        <ele>1840.233</ele>
        <time>2021-06-18T10:16:26Z</time>
      </trkpt>
      <trkpt lat="42.771664" lon="0.859954">
        <ele>1840.773</ele>
        <time>2021-06-18T10:16:29Z</time>
      </trkpt>
      <trkpt lat="42.771637" lon="0.860025">
        <ele>1840.356</ele>
        <time>2021-06-18T10:16:33Z</time>
      </trkpt>
      <trkpt lat="42.771631" lon="0.860064">
        <ele>1840.413</ele>
        <time>2021-06-18T10:16:35Z</time>
      </trkpt>
      <trkpt lat="42.771642" lon="0.860174">
        <ele>1842.192</ele>
        <time>2021-06-18T10:16:41Z</time>
      </trkpt>
      <trkpt lat="42.771661" lon="0.860218">
        <ele>1843.373</ele>
        <time>2021-06-18T10:16:44Z</time>
      </trkpt>
      <trkpt lat="42.771661" lon="0.860287">
        <ele>1844.120</ele>
        <time>2021-06-18T10:16:48Z</time>
      </trkpt>
      <trkpt lat="42.771655" lon="0.860323">
        <ele>1845.108</ele>
        <time>2021-06-18T10:16:50Z</time>
      </trkpt>
      <trkpt lat="42.771631" lon="0.860383">
        <ele>1846.266</ele>
        <time>2021-06-18T10:16:54Z</time>
      </trkpt>
      <trkpt lat="42.771621" lon="0.860391">
        <ele>1846.145</ele>
        <time>2021-06-18T10:16:55Z</time>
      </trkpt>
      <trkpt lat="42.771560" lon="0.860423">
        <ele>1845.171</ele>
        <time>2021-06-18T10:17:00Z</time>
      </trkpt>
      <trkpt lat="42.771525" lon="0.860437">
        <ele>1844.425</ele>
        <time>2021-06-18T10:17:03Z</time>
      </trkpt>
      <trkpt lat="42.771495" lon="0.860475">
        <ele>1844.679</ele>
        <time>2021-06-18T10:17:06Z</time>
      </trkpt>
      <trkpt lat="42.771459" lon="0.860538">
        <ele>1845.739</ele>
        <time>2021-06-18T10:17:10Z</time>
      </trkpt>
      <trkpt lat="42.771420" lon="0.860622">
        <ele>1847.062</ele>
        <time>2021-06-18T10:17:15Z</time>
      </trkpt>
      <trkpt lat="42.771410" lon="0.860638">
        <ele>1847.149</ele>
        <time>2021-06-18T10:17:16Z</time>
      </trkpt>
      <trkpt lat="42.771363" lon="0.860729">
        <ele>1847.713</ele>
        <time>2021-06-18T10:17:22Z</time>
      </trkpt>
      <trkpt lat="42.771312" lon="0.860788">
        <ele>1846.843</ele>
        <time>2021-06-18T10:17:27Z</time>
      </trkpt>
      <trkpt lat="42.771308" lon="0.860806">
        <ele>1847.107</ele>
        <time>2021-06-18T10:17:28Z</time>
      </trkpt>
      <trkpt lat="42.771292" lon="0.860838">
        <ele>1847.308</ele>
        <time>2021-06-18T10:17:30Z</time>
      </trkpt>
      <trkpt lat="42.771270" lon="0.860881">
        <ele>1847.518</ele>
        <time>2021-06-18T10:17:33Z</time>
      </trkpt>
      <trkpt lat="42.771251" lon="0.860926">
        <ele>1848.057</ele>
        <time>2021-06-18T10:17:36Z</time>
      </trkpt>
      <trkpt lat="42.771244" lon="0.860943">
        <ele>1848.393</ele>
        <time>2021-06-18T10:17:37Z</time>
      </trkpt>
      <trkpt lat="42.771202" lon="0.861019">
        <ele>1848.817</ele>
        <time>2021-06-18T10:17:42Z</time>
      </trkpt>
      <trkpt lat="42.771176" lon="0.861089">
        <ele>1850.071</ele>
        <time>2021-06-18T10:17:46Z</time>
      </trkpt>
      <trkpt lat="42.771165" lon="0.861143">
        <ele>1851.021</ele>
        <time>2021-06-18T10:17:49Z</time>
      </trkpt>
      <trkpt lat="42.771115" lon="0.861253">
        <ele>1851.224</ele>
        <time>2021-06-18T10:17:56Z</time>
      </trkpt>
      <trkpt lat="42.771108" lon="0.861270">
        <ele>1851.241</ele>
        <time>2021-06-18T10:17:57Z</time>
      </trkpt>
      <trkpt lat="42.771067" lon="0.861419">
        <ele>1851.912</ele>
        <time>2021-06-18T10:18:05Z</time>
      </trkpt>
      <trkpt lat="42.771052" lon="0.861472">
        <ele>1851.932</ele>
        <time>2021-06-18T10:18:08Z</time>
      </trkpt>
      <trkpt lat="42.771048" lon="0.861511">
        <ele>1852.405</ele>
        <time>2021-06-18T10:18:10Z</time>
      </trkpt>
      <trkpt lat="42.771039" lon="0.861583">
        <ele>1853.308</ele>
        <time>2021-06-18T10:18:14Z</time>
      </trkpt>
      <trkpt lat="42.771025" lon="0.861654">
        <ele>1853.818</ele>
        <time>2021-06-18T10:18:18Z</time>
      </trkpt>
      <trkpt lat="42.771024" lon="0.861710">
        <ele>1854.587</ele>
        <time>2021-06-18T10:18:21Z</time>
      </trkpt>
      <trkpt lat="42.771025" lon="0.861764">
        <ele>1855.363</ele>
        <time>2021-06-18T10:18:24Z</time>
      </trkpt>
      <trkpt lat="42.771023" lon="0.861781">
        <ele>1855.497</ele>
        <time>2021-06-18T10:18:25Z</time>
      </trkpt>
      <trkpt lat="42.771021" lon="0.861886">
        <ele>1856.731</ele>
        <time>2021-06-18T10:18:31Z</time>
      </trkpt>
      <trkpt lat="42.771020" lon="0.861904">
        <ele>1856.911</ele>
        <time>2021-06-18T10:18:32Z</time>
      </trkpt>
      <trkpt lat="42.771009" lon="0.862012">
        <ele>1857.874</ele>
        <time>2021-06-18T10:18:38Z</time>
      </trkpt>
      <trkpt lat="42.771007" lon="0.862048">
        <ele>1858.241</ele>
        <time>2021-06-18T10:18:40Z</time>
      </trkpt>
      <trkpt lat="42.770997" lon="0.862142">
        <ele>1859.118</ele>
        <time>2021-06-18T10:18:45Z</time>
      </trkpt>
      <trkpt lat="42.770993" lon="0.862180">
        <ele>1859.498</ele>
        <time>2021-06-18T10:18:47Z</time>
      </trkpt>
      <trkpt lat="42.770985" lon="0.862290">
        <ele>1860.517</ele>
        <time>2021-06-18T10:18:53Z</time>
      </trkpt>
      <trkpt lat="42.770986" lon="0.862309">
        <ele>1860.808</ele>
        <time>2021-06-18T10:18:54Z</time>
      </trkpt>
      <trkpt lat="42.770976" lon="0.862401">
        <ele>1861.528</ele>
        <time>2021-06-18T10:18:59Z</time>
      </trkpt>
      <trkpt lat="42.770965" lon="0.862437">
        <ele>1861.327</ele>
        <time>2021-06-18T10:19:01Z</time>
      </trkpt>
      <trkpt lat="42.770958" lon="0.862474">
        <ele>1861.473</ele>
        <time>2021-06-18T10:19:03Z</time>
      </trkpt>
      <trkpt lat="42.770930" lon="0.862584">
        <ele>1861.657</ele>
        <time>2021-06-18T10:19:09Z</time>
      </trkpt>
      <trkpt lat="42.770929" lon="0.862620">
        <ele>1862.211</ele>
        <time>2021-06-18T10:19:11Z</time>
      </trkpt>
      <trkpt lat="42.770914" lon="0.862707">
        <ele>1862.921</ele>
        <time>2021-06-18T10:19:16Z</time>
      </trkpt>
      <trkpt lat="42.770895" lon="0.862776">
        <ele>1863.164</ele>
        <time>2021-06-18T10:19:20Z</time>
      </trkpt>
      <trkpt lat="42.770895" lon="0.862815">
        <ele>1863.451</ele>
        <time>2021-06-18T10:19:22Z</time>
      </trkpt>
      <trkpt lat="42.770913" lon="0.862946">
        <ele>1865.384</ele>
        <time>2021-06-18T10:19:29Z</time>
      </trkpt>
      <trkpt lat="42.770912" lon="0.862965">
        <ele>1865.407</ele>
        <time>2021-06-18T10:19:30Z</time>
      </trkpt>
      <trkpt lat="42.770900" lon="0.863052">
        <ele>1865.617</ele>
        <time>2021-06-18T10:19:35Z</time>
      </trkpt>
      <trkpt lat="42.770896" lon="0.863082">
        <ele>1866.108</ele>
        <time>2021-06-18T10:19:37Z</time>
      </trkpt>
      <trkpt lat="42.770867" lon="0.863141">
        <ele>1866.445</ele>
        <time>2021-06-18T10:19:41Z</time>
      </trkpt>
      <trkpt lat="42.770861" lon="0.863157">
        <ele>1866.634</ele>
        <time>2021-06-18T10:19:42Z</time>
      </trkpt>
      <trkpt lat="42.770848" lon="0.863190">
        <ele>1866.970</ele>
        <time>2021-06-18T10:19:44Z</time>
      </trkpt>
      <trkpt lat="42.770822" lon="0.863257">
        <ele>1867.774</ele>
        <time>2021-06-18T10:19:48Z</time>
      </trkpt>
      <trkpt lat="42.770790" lon="0.863335">
        <ele>1868.528</ele>
        <time>2021-06-18T10:19:53Z</time>
      </trkpt>
      <trkpt lat="42.770785" lon="0.863352">
        <ele>1868.738</ele>
        <time>2021-06-18T10:19:54Z</time>
      </trkpt>
      <trkpt lat="42.770778" lon="0.863367">
        <ele>1868.891</ele>
        <time>2021-06-18T10:19:55Z</time>
      </trkpt>
      <trkpt lat="42.770753" lon="0.863435">
        <ele>1869.668</ele>
        <time>2021-06-18T10:19:59Z</time>
      </trkpt>
      <trkpt lat="42.770729" lon="0.863483">
        <ele>1869.841</ele>
        <time>2021-06-18T10:20:02Z</time>
      </trkpt>
      <trkpt lat="42.770717" lon="0.863538">
        <ele>1870.781</ele>
        <time>2021-06-18T10:20:05Z</time>
      </trkpt>
      <trkpt lat="42.770658" lon="0.863668">
        <ele>1871.709</ele>
        <time>2021-06-18T10:20:13Z</time>
      </trkpt>
      <trkpt lat="42.770652" lon="0.863684">
        <ele>1872.008</ele>
        <time>2021-06-18T10:20:14Z</time>
      </trkpt>
      <trkpt lat="42.770603" lon="0.863751">
        <ele>1872.211</ele>
        <time>2021-06-18T10:20:19Z</time>
      </trkpt>
      <trkpt lat="42.770573" lon="0.863785">
        <ele>1872.220</ele>
        <time>2021-06-18T10:20:22Z</time>
      </trkpt>
      <trkpt lat="42.770560" lon="0.863791">
        <ele>1872.076</ele>
        <time>2021-06-18T10:20:23Z</time>
      </trkpt>
      <trkpt lat="42.770538" lon="0.863806">
        <ele>1871.860</ele>
        <time>2021-06-18T10:20:25Z</time>
      </trkpt>
      <trkpt lat="42.770483" lon="0.863885">
        <ele>1872.894</ele>
        <time>2021-06-18T10:20:31Z</time>
      </trkpt>
      <trkpt lat="42.770437" lon="0.864006">
        <ele>1874.894</ele>
        <time>2021-06-18T10:20:38Z</time>
      </trkpt>
      <trkpt lat="42.770430" lon="0.864023">
        <ele>1875.017</ele>
        <time>2021-06-18T10:20:39Z</time>
      </trkpt>
      <trkpt lat="42.770383" lon="0.864128">
        <ele>1876.484</ele>
        <time>2021-06-18T10:20:45Z</time>
      </trkpt>
      <trkpt lat="42.770310" lon="0.864256">
        <ele>1877.317</ele>
        <time>2021-06-18T10:20:53Z</time>
      </trkpt>
      <trkpt lat="42.770298" lon="0.864269">
        <ele>1877.287</ele>
        <time>2021-06-18T10:20:54Z</time>
      </trkpt>
      <trkpt lat="42.770221" lon="0.864387">
        <ele>1877.315</ele>
        <time>2021-06-18T10:21:02Z</time>
      </trkpt>
      <trkpt lat="42.770178" lon="0.864520">
        <ele>1879.108</ele>
        <time>2021-06-18T10:21:09Z</time>
      </trkpt>
      <trkpt lat="42.770156" lon="0.864549">
        <ele>1879.148</ele>
        <time>2021-06-18T10:21:11Z</time>
      </trkpt>
      <trkpt lat="42.770111" lon="0.864635">
        <ele>1880.017</ele>
        <time>2021-06-18T10:21:16Z</time>
      </trkpt>
      <trkpt lat="42.770048" lon="0.864702">
        <ele>1879.963</ele>
        <time>2021-06-18T10:21:21Z</time>
      </trkpt>
      <trkpt lat="42.770022" lon="0.864721">
        <ele>1879.767</ele>
        <time>2021-06-18T10:21:23Z</time>
      </trkpt>
      <trkpt lat="42.769942" lon="0.864826">
        <ele>1879.121</ele>
        <time>2021-06-18T10:21:30Z</time>
      </trkpt>
      <trkpt lat="42.769932" lon="0.864843">
        <ele>1879.191</ele>
        <time>2021-06-18T10:21:31Z</time>
      </trkpt>
      <trkpt lat="42.769871" lon="0.865001">
        <ele>1881.194</ele>
        <time>2021-06-18T10:21:39Z</time>
      </trkpt>
      <trkpt lat="42.769863" lon="0.865021">
        <ele>1881.581</ele>
        <time>2021-06-18T10:21:40Z</time>
      </trkpt>
      <trkpt lat="42.769821" lon="0.865115">
        <ele>1882.921</ele>
        <time>2021-06-18T10:21:45Z</time>
      </trkpt>
      <trkpt lat="42.769765" lon="0.865249">
        <ele>1884.741</ele>
        <time>2021-06-18T10:21:52Z</time>
      </trkpt>
      <trkpt lat="42.769695" lon="0.865398">
        <ele>1885.705</ele>
        <time>2021-06-18T10:22:00Z</time>
      </trkpt>
      <trkpt lat="42.769687" lon="0.865416">
        <ele>1885.908</ele>
        <time>2021-06-18T10:22:01Z</time>
      </trkpt>
      <trkpt lat="42.769629" lon="0.865562">
        <ele>1887.899</ele>
        <time>2021-06-18T10:22:09Z</time>
      </trkpt>
      <trkpt lat="42.769618" lon="0.865582">
        <ele>1887.988</ele>
        <time>2021-06-18T10:22:10Z</time>
      </trkpt>
      <trkpt lat="42.769570" lon="0.865677">
        <ele>1888.114</ele>
        <time>2021-06-18T10:22:15Z</time>
      </trkpt>
      <trkpt lat="42.769523" lon="0.865758">
        <ele>1887.738</ele>
        <time>2021-06-18T10:22:20Z</time>
      </trkpt>
      <trkpt lat="42.769515" lon="0.865776">
        <ele>1887.762</ele>
        <time>2021-06-18T10:22:21Z</time>
      </trkpt>
      <trkpt lat="42.769472" lon="0.865961">
        <ele>1887.782</ele>
        <time>2021-06-18T10:22:30Z</time>
      </trkpt>
      <trkpt lat="42.769464" lon="0.866050">
        <ele>1888.085</ele>
        <time>2021-06-18T10:22:34Z</time>
      </trkpt>
      <trkpt lat="42.769463" lon="0.866113">
        <ele>1888.432</ele>
        <time>2021-06-18T10:22:37Z</time>
      </trkpt>
      <trkpt lat="42.769469" lon="0.866278">
        <ele>1890.352</ele>
        <time>2021-06-18T10:22:45Z</time>
      </trkpt>
      <trkpt lat="42.769478" lon="0.866353">
        <ele>1891.753</ele>
        <time>2021-06-18T10:22:49Z</time>
      </trkpt>
      <trkpt lat="42.769482" lon="0.866393">
        <ele>1892.508</ele>
        <time>2021-06-18T10:22:51Z</time>
      </trkpt>
      <trkpt lat="42.769495" lon="0.866509">
        <ele>1895.908</ele>
        <time>2021-06-18T10:22:57Z</time>
      </trkpt>
      <trkpt lat="42.769465" lon="0.866596">
        <ele>1894.752</ele>
        <time>2021-06-18T10:23:02Z</time>
      </trkpt>
      <trkpt lat="42.769453" lon="0.866603">
        <ele>1893.741</ele>
        <time>2021-06-18T10:23:03Z</time>
      </trkpt>
      <trkpt lat="42.769424" lon="0.866607">
        <ele>1893.217</ele>
        <time>2021-06-18T10:23:05Z</time>
      </trkpt>
      <trkpt lat="42.769373" lon="0.866598">
        <ele>1893.651</ele>
        <time>2021-06-18T10:23:09Z</time>
      </trkpt>
      <trkpt lat="42.769338" lon="0.866581">
        <ele>1893.755</ele>
        <time>2021-06-18T10:23:12Z</time>
      </trkpt>
      <trkpt lat="42.769325" lon="0.866552">
        <ele>1893.425</ele>
        <time>2021-06-18T10:23:14Z</time>
      </trkpt>
      <trkpt lat="42.769318" lon="0.866534">
        <ele>1893.238</ele>
        <time>2021-06-18T10:23:15Z</time>
      </trkpt>
      <trkpt lat="42.769304" lon="0.866495">
        <ele>1892.725</ele>
        <time>2021-06-18T10:23:17Z</time>
      </trkpt>
      <trkpt lat="42.769259" lon="0.866440">
        <ele>1892.581</ele>
        <time>2021-06-18T10:23:21Z</time>
      </trkpt>
      <trkpt lat="42.769249" lon="0.866426">
        <ele>1892.461</ele>
        <time>2021-06-18T10:23:22Z</time>
      </trkpt>
      <trkpt lat="42.769181" lon="0.866354">
        <ele>1891.517</ele>
        <time>2021-06-18T10:23:28Z</time>
      </trkpt>
      <trkpt lat="42.769159" lon="0.866331">
        <ele>1890.808</ele>
        <time>2021-06-18T10:23:30Z</time>
      </trkpt>
      <trkpt lat="42.769104" lon="0.866287">
        <ele>1889.745</ele>
        <time>2021-06-18T10:23:35Z</time>
      </trkpt>
      <trkpt lat="42.769090" lon="0.866287">
        <ele>1889.914</ele>
        <time>2021-06-18T10:23:36Z</time>
      </trkpt>
      <trkpt lat="42.769075" lon="0.866288">
        <ele>1890.160</ele>
        <time>2021-06-18T10:23:37Z</time>
      </trkpt>
      <trkpt lat="42.769037" lon="0.866300">
        <ele>1891.024</ele>
        <time>2021-06-18T10:23:40Z</time>
      </trkpt>
      <trkpt lat="42.769010" lon="0.866316">
        <ele>1891.858</ele>
        <time>2021-06-18T10:23:43Z</time>
      </trkpt>
      <trkpt lat="42.768942" lon="0.866320">
        <ele>1892.738</ele>
        <time>2021-06-18T10:23:48Z</time>
      </trkpt>
      <trkpt lat="42.768915" lon="0.866317">
        <ele>1892.941</ele>
        <time>2021-06-18T10:23:50Z</time>
      </trkpt>
      <trkpt lat="42.768887" lon="0.866313">
        <ele>1893.168</ele>
        <time>2021-06-18T10:23:52Z</time>
      </trkpt>
      <trkpt lat="42.768873" lon="0.866312">
        <ele>1893.048</ele>
        <time>2021-06-18T10:23:53Z</time>
      </trkpt>
      <trkpt lat="42.768827" lon="0.866311">
        <ele>1892.861</ele>
        <time>2021-06-18T10:23:56Z</time>
      </trkpt>
      <trkpt lat="42.768722" lon="0.866376">
        <ele>1893.617</ele>
        <time>2021-06-18T10:24:04Z</time>
      </trkpt>
      <trkpt lat="42.768688" lon="0.866524">
        <ele>1894.808</ele>
        <time>2021-06-18T10:24:11Z</time>
      </trkpt>
      <trkpt lat="42.768686" lon="0.866563">
        <ele>1895.171</ele>
        <time>2021-06-18T10:24:13Z</time>
      </trkpt>
      <trkpt lat="42.768692" lon="0.866633">
        <ele>1895.950</ele>
        <time>2021-06-18T10:24:16Z</time>
      </trkpt>
      <trkpt lat="42.768693" lon="0.866682">
        <ele>1896.536</ele>
        <time>2021-06-18T10:24:18Z</time>
      </trkpt>
      <trkpt lat="42.768688" lon="0.866702">
        <ele>1896.810</ele>
        <time>2021-06-18T10:24:19Z</time>
      </trkpt>
      <trkpt lat="42.768671" lon="0.866741">
        <ele>1897.424</ele>
        <time>2021-06-18T10:24:21Z</time>
      </trkpt>
      <trkpt lat="42.768617" lon="0.866790">
        <ele>1897.744</ele>
        <time>2021-06-18T10:24:25Z</time>
      </trkpt>
      <trkpt lat="42.768601" lon="0.866795">
        <ele>1897.827</ele>
        <time>2021-06-18T10:24:26Z</time>
      </trkpt>
      <trkpt lat="42.768540" lon="0.866766">
        <ele>1897.654</ele>
        <time>2021-06-18T10:24:30Z</time>
      </trkpt>
      <trkpt lat="42.768525" lon="0.866761">
        <ele>1897.631</ele>
        <time>2021-06-18T10:24:31Z</time>
      </trkpt>
      <trkpt lat="42.768510" lon="0.866754">
        <ele>1897.561</ele>
        <time>2021-06-18T10:24:32Z</time>
      </trkpt>
      <trkpt lat="42.768424" lon="0.866756">
        <ele>1898.007</ele>
        <time>2021-06-18T10:24:38Z</time>
      </trkpt>
      <trkpt lat="42.768394" lon="0.866752">
        <ele>1898.108</ele>
        <time>2021-06-18T10:24:40Z</time>
      </trkpt>
      <trkpt lat="42.768333" lon="0.866772">
        <ele>1899.040</ele>
        <time>2021-06-18T10:24:44Z</time>
      </trkpt>
      <trkpt lat="42.768253" lon="0.866814">
        <ele>1901.199</ele>
        <time>2021-06-18T10:24:50Z</time>
      </trkpt>
      <trkpt lat="42.768240" lon="0.866823">
        <ele>1901.415</ele>
        <time>2021-06-18T10:24:51Z</time>
      </trkpt>
      <trkpt lat="42.768225" lon="0.866830">
        <ele>1901.749</ele>
        <time>2021-06-18T10:24:52Z</time>
      </trkpt>
      <trkpt lat="42.768163" lon="0.866824">
        <ele>1902.263</ele>
        <time>2021-06-18T10:24:57Z</time>
      </trkpt>
      <trkpt lat="42.768125" lon="0.866834">
        <ele>1902.823</ele>
        <time>2021-06-18T10:25:00Z</time>
      </trkpt>
      <trkpt lat="42.768090" lon="0.866815">
        <ele>1902.816</ele>
        <time>2021-06-18T10:25:03Z</time>
      </trkpt>
      <trkpt lat="42.768037" lon="0.866752">
        <ele>1902.843</ele>
        <time>2021-06-18T10:25:08Z</time>
      </trkpt>
      <trkpt lat="42.768009" lon="0.866685">
        <ele>1902.617</ele>
        <time>2021-06-18T10:25:12Z</time>
      </trkpt>
      <trkpt lat="42.768001" lon="0.866628">
        <ele>1902.687</ele>
        <time>2021-06-18T10:25:15Z</time>
      </trkpt>
      <trkpt lat="42.768005" lon="0.866549">
        <ele>1902.515</ele>
        <time>2021-06-18T10:25:19Z</time>
      </trkpt>
      <trkpt lat="42.767961" lon="0.866420">
        <ele>1903.108</ele>
        <time>2021-06-18T10:25:26Z</time>
      </trkpt>
      <trkpt lat="42.767949" lon="0.866407">
        <ele>1903.288</ele>
        <time>2021-06-18T10:25:27Z</time>
      </trkpt>
      <trkpt lat="42.767854" lon="0.866365">
        <ele>1903.797</ele>
        <time>2021-06-18T10:25:34Z</time>
      </trkpt>
      <trkpt lat="42.767825" lon="0.866365">
        <ele>1904.083</ele>
        <time>2021-06-18T10:25:36Z</time>
      </trkpt>
      <trkpt lat="42.767728" lon="0.866394">
        <ele>1904.787</ele>
        <time>2021-06-18T10:25:43Z</time>
      </trkpt>
      <trkpt lat="42.767716" lon="0.866401">
        <ele>1904.781</ele>
        <time>2021-06-18T10:25:44Z</time>
      </trkpt>
      <trkpt lat="42.767637" lon="0.866458">
        <ele>1905.211</ele>
        <time>2021-06-18T10:25:50Z</time>
      </trkpt>
      <trkpt lat="42.767540" lon="0.866545">
        <ele>1906.564</ele>
        <time>2021-06-18T10:25:57Z</time>
      </trkpt>
      <trkpt lat="42.767501" lon="0.866583">
        <ele>1907.281</ele>
        <time>2021-06-18T10:26:00Z</time>
      </trkpt>
      <trkpt lat="42.767398" lon="0.866707">
        <ele>1907.716</ele>
        <time>2021-06-18T10:26:09Z</time>
      </trkpt>
      <trkpt lat="42.767351" lon="0.866785">
        <ele>1908.376</ele>
        <time>2021-06-18T10:26:14Z</time>
      </trkpt>
      <trkpt lat="42.767331" lon="0.866805">
        <ele>1908.313</ele>
        <time>2021-06-18T10:26:16Z</time>
      </trkpt>
      <trkpt lat="42.767286" lon="0.866927">
        <ele>1910.008</ele>
        <time>2021-06-18T10:26:23Z</time>
      </trkpt>
      <trkpt lat="42.767219" lon="0.867023">
        <ele>1911.218</ele>
        <time>2021-06-18T10:26:30Z</time>
      </trkpt>
      <trkpt lat="42.767198" lon="0.867047">
        <ele>1911.457</ele>
        <time>2021-06-18T10:26:32Z</time>
      </trkpt>
      <trkpt lat="42.767185" lon="0.867054">
        <ele>1911.353</ele>
        <time>2021-06-18T10:26:33Z</time>
      </trkpt>
      <trkpt lat="42.767128" lon="0.867124">
        <ele>1911.927</ele>
        <time>2021-06-18T10:26:39Z</time>
      </trkpt>
      <trkpt lat="42.767118" lon="0.867140">
        <ele>1912.151</ele>
        <time>2021-06-18T10:26:40Z</time>
      </trkpt>
      <trkpt lat="42.767050" lon="0.867262">
        <ele>1913.151</ele>
        <time>2021-06-18T10:26:48Z</time>
      </trkpt>
      <trkpt lat="42.767039" lon="0.867293">
        <ele>1913.244</ele>
        <time>2021-06-18T10:26:50Z</time>
      </trkpt>
      <trkpt lat="42.767028" lon="0.867370">
        <ele>1913.911</ele>
        <time>2021-06-18T10:26:54Z</time>
      </trkpt>
      <trkpt lat="42.766978" lon="0.867459">
        <ele>1914.083</ele>
        <time>2021-06-18T10:27:00Z</time>
      </trkpt>
      <trkpt lat="42.766960" lon="0.867489">
        <ele>1914.125</ele>
        <time>2021-06-18T10:27:02Z</time>
      </trkpt>
      <trkpt lat="42.766880" lon="0.867567">
        <ele>1914.817</ele>
        <time>2021-06-18T10:27:09Z</time>
      </trkpt>
      <trkpt lat="42.766861" lon="0.867594">
        <ele>1915.108</ele>
        <time>2021-06-18T10:27:11Z</time>
      </trkpt>
      <trkpt lat="42.766813" lon="0.867663">
        <ele>1916.115</ele>
        <time>2021-06-18T10:27:16Z</time>
      </trkpt>
      <trkpt lat="42.766726" lon="0.867797">
        <ele>1918.114</ele>
        <time>2021-06-18T10:27:26Z</time>
      </trkpt>
      <trkpt lat="42.766716" lon="0.867809">
        <ele>1918.240</ele>
        <time>2021-06-18T10:27:27Z</time>
      </trkpt>
      <trkpt lat="42.766664" lon="0.867913">
        <ele>1919.484</ele>
        <time>2021-06-18T10:27:34Z</time>
      </trkpt>
      <trkpt lat="42.766648" lon="0.867943">
        <ele>1919.758</ele>
        <time>2021-06-18T10:27:36Z</time>
      </trkpt>
      <trkpt lat="42.766581" lon="0.868080">
        <ele>1920.728</ele>
        <time>2021-06-18T10:27:45Z</time>
      </trkpt>
      <trkpt lat="42.766572" lon="0.868093">
        <ele>1920.791</ele>
        <time>2021-06-18T10:27:46Z</time>
      </trkpt>
      <trkpt lat="42.766560" lon="0.868182">
        <ele>1921.478</ele>
        <time>2021-06-18T10:27:51Z</time>
      </trkpt>
      <trkpt lat="42.766548" lon="0.868234">
        <ele>1921.823</ele>
        <time>2021-06-18T10:27:54Z</time>
      </trkpt>
      <trkpt lat="42.766527" lon="0.868339">
        <ele>1922.583</ele>
        <time>2021-06-18T10:28:00Z</time>
      </trkpt>
      <trkpt lat="42.766522" lon="0.868398">
        <ele>1923.011</ele>
        <time>2021-06-18T10:28:03Z</time>
      </trkpt>
      <trkpt lat="42.766517" lon="0.868513">
        <ele>1923.808</ele>
        <time>2021-06-18T10:28:09Z</time>
      </trkpt>
      <trkpt lat="42.766514" lon="0.868551">
        <ele>1924.149</ele>
        <time>2021-06-18T10:28:11Z</time>
      </trkpt>
      <trkpt lat="42.766520" lon="0.868640">
        <ele>1925.098</ele>
        <time>2021-06-18T10:28:16Z</time>
      </trkpt>
      <trkpt lat="42.766524" lon="0.868751">
        <ele>1925.944</ele>
        <time>2021-06-18T10:28:22Z</time>
      </trkpt>
      <trkpt lat="42.766526" lon="0.868808">
        <ele>1926.488</ele>
        <time>2021-06-18T10:28:25Z</time>
      </trkpt>
      <trkpt lat="42.766531" lon="0.868927">
        <ele>1927.042</ele>
        <time>2021-06-18T10:28:31Z</time>
      </trkpt>
      <trkpt lat="42.766535" lon="0.868965">
        <ele>1927.152</ele>
        <time>2021-06-18T10:28:33Z</time>
      </trkpt>
      <trkpt lat="42.766535" lon="0.869098">
        <ele>1926.935</ele>
        <time>2021-06-18T10:28:40Z</time>
      </trkpt>
      <trkpt lat="42.766550" lon="0.869244">
        <ele>1927.152</ele>
        <time>2021-06-18T10:28:48Z</time>
      </trkpt>
      <trkpt lat="42.766556" lon="0.869280">
        <ele>1927.323</ele>
        <time>2021-06-18T10:28:50Z</time>
      </trkpt>
      <trkpt lat="42.766581" lon="0.869365">
        <ele>1928.283</ele>
        <time>2021-06-18T10:28:55Z</time>
      </trkpt>
      <trkpt lat="42.766593" lon="0.869376">
        <ele>1928.711</ele>
        <time>2021-06-18T10:28:56Z</time>
      </trkpt>
      <trkpt lat="42.766630" lon="0.869437">
        <ele>1930.308</ele>
        <time>2021-06-18T10:29:00Z</time>
      </trkpt>
      <trkpt lat="42.766643" lon="0.869496">
        <ele>1931.329</ele>
        <time>2021-06-18T10:29:03Z</time>
      </trkpt>
      <trkpt lat="42.766646" lon="0.869516">
        <ele>1931.678</ele>
        <time>2021-06-18T10:29:04Z</time>
      </trkpt>
      <trkpt lat="42.766656" lon="0.869658">
        <ele>1933.124</ele>
        <time>2021-06-18T10:29:11Z</time>
      </trkpt>
      <trkpt lat="42.766654" lon="0.869679">
        <ele>1933.298</ele>
        <time>2021-06-18T10:29:12Z</time>
      </trkpt>
      <trkpt lat="42.766631" lon="0.869779">
        <ele>1933.992</ele>
        <time>2021-06-18T10:29:18Z</time>
      </trkpt>
      <trkpt lat="42.766625" lon="0.869796">
        <ele>1934.072</ele>
        <time>2021-06-18T10:29:19Z</time>
      </trkpt>
      <trkpt lat="42.766559" lon="0.869931">
        <ele>1934.825</ele>
        <time>2021-06-18T10:29:27Z</time>
      </trkpt>
      <trkpt lat="42.766540" lon="0.869961">
        <ele>1934.912</ele>
        <time>2021-06-18T10:29:29Z</time>
      </trkpt>
      <trkpt lat="42.766490" lon="0.870028">
        <ele>1935.461</ele>
        <time>2021-06-18T10:29:34Z</time>
      </trkpt>
      <trkpt lat="42.766469" lon="0.870053">
        <ele>1935.921</ele>
        <time>2021-06-18T10:29:36Z</time>
      </trkpt>
      <trkpt lat="42.766413" lon="0.870120">
        <ele>1937.213</ele>
        <time>2021-06-18T10:29:42Z</time>
      </trkpt>
      <trkpt lat="42.766391" lon="0.870141">
        <ele>1937.708</ele>
        <time>2021-06-18T10:29:44Z</time>
      </trkpt>
      <trkpt lat="42.766345" lon="0.870175">
        <ele>1938.363</ele>
        <time>2021-06-18T10:29:48Z</time>
      </trkpt>
      <trkpt lat="42.766332" lon="0.870184">
        <ele>1938.452</ele>
        <time>2021-06-18T10:29:49Z</time>
      </trkpt>
      <trkpt lat="42.766319" lon="0.870193">
        <ele>1938.648</ele>
        <time>2021-06-18T10:29:50Z</time>
      </trkpt>
      <trkpt lat="42.766252" lon="0.870232">
        <ele>1939.282</ele>
        <time>2021-06-18T10:29:55Z</time>
      </trkpt>
      <trkpt lat="42.766212" lon="0.870257">
        <ele>1939.716</ele>
        <time>2021-06-18T10:29:58Z</time>
      </trkpt>
      <trkpt lat="42.766185" lon="0.870269">
        <ele>1939.926</ele>
        <time>2021-06-18T10:30:00Z</time>
      </trkpt>
      <trkpt lat="42.766109" lon="0.870299">
        <ele>1940.449</ele>
        <time>2021-06-18T10:30:05Z</time>
      </trkpt>
      <trkpt lat="42.766028" lon="0.870298">
        <ele>1939.956</ele>
        <time>2021-06-18T10:30:10Z</time>
      </trkpt>
      <trkpt lat="42.765998" lon="0.870309">
        <ele>1940.471</ele>
        <time>2021-06-18T10:30:12Z</time>
      </trkpt>
      <trkpt lat="42.765926" lon="0.870322">
        <ele>1940.741</ele>
        <time>2021-06-18T10:30:17Z</time>
      </trkpt>
      <trkpt lat="42.765884" lon="0.870331">
        <ele>1940.815</ele>
        <time>2021-06-18T10:30:20Z</time>
      </trkpt>
      <trkpt lat="42.765820" lon="0.870367">
        <ele>1941.808</ele>
        <time>2021-06-18T10:30:25Z</time>
      </trkpt>
      <trkpt lat="42.765782" lon="0.870395">
        <ele>1942.124</ele>
        <time>2021-06-18T10:30:28Z</time>
      </trkpt>
      <trkpt lat="42.765725" lon="0.870451">
        <ele>1943.153</ele>
        <time>2021-06-18T10:30:33Z</time>
      </trkpt>
      <trkpt lat="42.765698" lon="0.870469">
        <ele>1943.219</ele>
        <time>2021-06-18T10:30:35Z</time>
      </trkpt>
      <trkpt lat="42.765630" lon="0.870539">
        <ele>1944.483</ele>
        <time>2021-06-18T10:30:41Z</time>
      </trkpt>
      <trkpt lat="42.765619" lon="0.870551">
        <ele>1944.627</ele>
        <time>2021-06-18T10:30:42Z</time>
      </trkpt>
      <trkpt lat="42.765550" lon="0.870632">
        <ele>1946.177</ele>
        <time>2021-06-18T10:30:49Z</time>
      </trkpt>
      <trkpt lat="42.765499" lon="0.870723">
        <ele>1947.950</ele>
        <time>2021-06-18T10:30:55Z</time>
      </trkpt>
      <trkpt lat="42.765479" lon="0.870750">
        <ele>1948.247</ele>
        <time>2021-06-18T10:30:57Z</time>
      </trkpt>
      <trkpt lat="42.765407" lon="0.870866">
        <ele>1949.987</ele>
        <time>2021-06-18T10:31:05Z</time>
      </trkpt>
      <trkpt lat="42.765391" lon="0.870914">
        <ele>1951.142</ele>
        <time>2021-06-18T10:31:08Z</time>
      </trkpt>
      <trkpt lat="42.765357" lon="0.870948">
        <ele>1951.026</ele>
        <time>2021-06-18T10:31:11Z</time>
      </trkpt>
      <trkpt lat="42.765295" lon="0.871037">
        <ele>1951.808</ele>
        <time>2021-06-18T10:31:17Z</time>
      </trkpt>
      <trkpt lat="42.765270" lon="0.871062">
        <ele>1951.865</ele>
        <time>2021-06-18T10:31:19Z</time>
      </trkpt>
      <trkpt lat="42.765220" lon="0.871097">
        <ele>1951.424</ele>
        <time>2021-06-18T10:31:23Z</time>
      </trkpt>
      <trkpt lat="42.765193" lon="0.871112">
        <ele>1951.040</ele>
        <time>2021-06-18T10:31:25Z</time>
      </trkpt>
      <trkpt lat="42.765147" lon="0.871172">
        <ele>1951.854</ele>
        <time>2021-06-18T10:31:29Z</time>
      </trkpt>
      <trkpt lat="42.765138" lon="0.871189">
        <ele>1952.298</ele>
        <time>2021-06-18T10:31:30Z</time>
      </trkpt>
      <trkpt lat="42.765069" lon="0.871263">
        <ele>1952.688</ele>
        <time>2021-06-18T10:31:36Z</time>
      </trkpt>
      <trkpt lat="42.765004" lon="0.871371">
        <ele>1954.491</ele>
        <time>2021-06-18T10:31:43Z</time>
      </trkpt>
      <trkpt lat="42.764971" lon="0.871409">
        <ele>1954.278</ele>
        <time>2021-06-18T10:31:46Z</time>
      </trkpt>
      <trkpt lat="42.764929" lon="0.871521">
        <ele>1955.096</ele>
        <time>2021-06-18T10:31:52Z</time>
      </trkpt>
      <trkpt lat="42.764910" lon="0.871601">
        <ele>1956.131</ele>
        <time>2021-06-18T10:31:56Z</time>
      </trkpt>
      <trkpt lat="42.764911" lon="0.871664">
        <ele>1957.824</ele>
        <time>2021-06-18T10:31:59Z</time>
      </trkpt>
      <trkpt lat="42.764881" lon="0.871778">
        <ele>1959.108</ele>
        <time>2021-06-18T10:32:05Z</time>
      </trkpt>
      <trkpt lat="42.764814" lon="0.871860">
        <ele>1958.946</ele>
        <time>2021-06-18T10:32:11Z</time>
      </trkpt>
      <trkpt lat="42.764786" lon="0.871878">
        <ele>1958.565</ele>
        <time>2021-06-18T10:32:13Z</time>
      </trkpt>
      <trkpt lat="42.764716" lon="0.871922">
        <ele>1958.171</ele>
        <time>2021-06-18T10:32:18Z</time>
      </trkpt>
      <trkpt lat="42.764673" lon="0.871940">
        <ele>1958.095</ele>
        <time>2021-06-18T10:32:21Z</time>
      </trkpt>
      <trkpt lat="42.764592" lon="0.872013">
        <ele>1958.259</ele>
        <time>2021-06-18T10:32:28Z</time>
      </trkpt>
      <trkpt lat="42.764582" lon="0.872025">
        <ele>1958.259</ele>
        <time>2021-06-18T10:32:29Z</time>
      </trkpt>
      <trkpt lat="42.764545" lon="0.872126">
        <ele>1959.492</ele>
        <time>2021-06-18T10:32:35Z</time>
      </trkpt>
      <trkpt lat="42.764540" lon="0.872165">
        <ele>1960.019</ele>
        <time>2021-06-18T10:32:37Z</time>
      </trkpt>
      <trkpt lat="42.764538" lon="0.872276">
        <ele>1961.731</ele>
        <time>2021-06-18T10:32:43Z</time>
      </trkpt>
      <trkpt lat="42.764541" lon="0.872329">
        <ele>1962.461</ele>
        <time>2021-06-18T10:32:46Z</time>
      </trkpt>
      <trkpt lat="42.764541" lon="0.872400">
        <ele>1963.307</ele>
        <time>2021-06-18T10:32:50Z</time>
      </trkpt>
      <trkpt lat="42.764536" lon="0.872514">
        <ele>1964.508</ele>
        <time>2021-06-18T10:32:57Z</time>
      </trkpt>
      <trkpt lat="42.764538" lon="0.872529">
        <ele>1964.820</ele>
        <time>2021-06-18T10:32:58Z</time>
      </trkpt>
      <trkpt lat="42.764527" lon="0.872597">
        <ele>1965.159</ele>
        <time>2021-06-18T10:33:02Z</time>
      </trkpt>
      <trkpt lat="42.764522" lon="0.872632">
        <ele>1965.385</ele>
        <time>2021-06-18T10:33:04Z</time>
      </trkpt>
      <trkpt lat="42.764520" lon="0.872668">
        <ele>1965.779</ele>
        <time>2021-06-18T10:33:06Z</time>
      </trkpt>
      <trkpt lat="42.764522" lon="0.872763">
        <ele>1967.133</ele>
        <time>2021-06-18T10:33:11Z</time>
      </trkpt>
      <trkpt lat="42.764520" lon="0.872783">
        <ele>1967.323</ele>
        <time>2021-06-18T10:33:12Z</time>
      </trkpt>
      <trkpt lat="42.764506" lon="0.872889">
        <ele>1968.516</ele>
        <time>2021-06-18T10:33:18Z</time>
      </trkpt>
      <trkpt lat="42.764510" lon="0.872922">
        <ele>1969.443</ele>
        <time>2021-06-18T10:33:20Z</time>
      </trkpt>
      <trkpt lat="42.764502" lon="0.873013">
        <ele>1970.714</ele>
        <time>2021-06-18T10:33:25Z</time>
      </trkpt>
      <trkpt lat="42.764496" lon="0.873030">
        <ele>1970.654</ele>
        <time>2021-06-18T10:33:26Z</time>
      </trkpt>
      <trkpt lat="42.764485" lon="0.873063">
        <ele>1970.509</ele>
        <time>2021-06-18T10:33:28Z</time>
      </trkpt>
      <trkpt lat="42.764468" lon="0.873134">
        <ele>1972.008</ele>
        <time>2021-06-18T10:33:32Z</time>
      </trkpt>
      <trkpt lat="42.764419" lon="0.873194">
        <ele>1971.018</ele>
        <time>2021-06-18T10:33:37Z</time>
      </trkpt>
      <trkpt lat="42.764405" lon="0.873225">
        <ele>1971.437</ele>
        <time>2021-06-18T10:33:39Z</time>
      </trkpt>
      <trkpt lat="42.764400" lon="0.873242">
        <ele>1971.863</ele>
        <time>2021-06-18T10:33:40Z</time>
      </trkpt>
      <trkpt lat="42.764380" lon="0.873317">
        <ele>1973.657</ele>
        <time>2021-06-18T10:33:44Z</time>
      </trkpt>
      <trkpt lat="42.764374" lon="0.873336">
        <ele>1974.041</ele>
        <time>2021-06-18T10:33:45Z</time>
      </trkpt>
      <trkpt lat="42.764360" lon="0.873434">
        <ele>1976.681</ele>
        <time>2021-06-18T10:33:50Z</time>
      </trkpt>
      <trkpt lat="42.764350" lon="0.873467">
        <ele>1977.294</ele>
        <time>2021-06-18T10:33:52Z</time>
      </trkpt>
      <trkpt lat="42.764334" lon="0.873526">
        <ele>1978.621</ele>
        <time>2021-06-18T10:33:55Z</time>
      </trkpt>
      <trkpt lat="42.764308" lon="0.873543">
        <ele>1978.016</ele>
        <time>2021-06-18T10:33:57Z</time>
      </trkpt>
      <trkpt lat="42.764284" lon="0.873562">
        <ele>1977.776</ele>
        <time>2021-06-18T10:33:59Z</time>
      </trkpt>
      <trkpt lat="42.764197" lon="0.873609">
        <ele>1976.113</ele>
        <time>2021-06-18T10:34:05Z</time>
      </trkpt>
      <trkpt lat="42.764165" lon="0.873610">
        <ele>1974.908</ele>
        <time>2021-06-18T10:34:07Z</time>
      </trkpt>
      <trkpt lat="42.764083" lon="0.873648">
        <ele>1974.858</ele>
        <time>2021-06-18T10:34:13Z</time>
      </trkpt>
      <trkpt lat="42.763992" lon="0.873719">
        <ele>1975.837</ele>
        <time>2021-06-18T10:34:20Z</time>
      </trkpt>
      <trkpt lat="42.763977" lon="0.873721">
        <ele>1975.513</ele>
        <time>2021-06-18T10:34:21Z</time>
      </trkpt>
      <trkpt lat="42.763951" lon="0.873739">
        <ele>1975.667</ele>
        <time>2021-06-18T10:34:23Z</time>
      </trkpt>
      <trkpt lat="42.763914" lon="0.873773">
        <ele>1976.191</ele>
        <time>2021-06-18T10:34:26Z</time>
      </trkpt>
      <trkpt lat="42.763849" lon="0.873819">
        <ele>1976.441</ele>
        <time>2021-06-18T10:34:31Z</time>
      </trkpt>
      <trkpt lat="42.763822" lon="0.873833">
        <ele>1976.514</ele>
        <time>2021-06-18T10:34:33Z</time>
      </trkpt>
      <trkpt lat="42.763811" lon="0.873846">
        <ele>1976.891</ele>
        <time>2021-06-18T10:34:34Z</time>
      </trkpt>
      <trkpt lat="42.763747" lon="0.873892">
        <ele>1977.611</ele>
        <time>2021-06-18T10:34:39Z</time>
      </trkpt>
      <trkpt lat="42.763723" lon="0.873912">
        <ele>1978.121</ele>
        <time>2021-06-18T10:34:41Z</time>
      </trkpt>
      <trkpt lat="42.763672" lon="0.873953">
        <ele>1979.003</ele>
        <time>2021-06-18T10:34:45Z</time>
      </trkpt>
      <trkpt lat="42.763620" lon="0.873992">
        <ele>1979.608</ele>
        <time>2021-06-18T10:34:49Z</time>
      </trkpt>
      <trkpt lat="42.763535" lon="0.874040">
        <ele>1979.998</ele>
        <time>2021-06-18T10:34:55Z</time>
      </trkpt>
      <trkpt lat="42.763521" lon="0.874050">
        <ele>1980.057</ele>
        <time>2021-06-18T10:34:56Z</time>
      </trkpt>
      <trkpt lat="42.763461" lon="0.874099">
        <ele>1980.893</ele>
        <time>2021-06-18T10:35:01Z</time>
      </trkpt>
      <trkpt lat="42.763451" lon="0.874111">
        <ele>1981.177</ele>
        <time>2021-06-18T10:35:02Z</time>
      </trkpt>
      <trkpt lat="42.763409" lon="0.874167">
        <ele>1982.661</ele>
        <time>2021-06-18T10:35:06Z</time>
      </trkpt>
      <trkpt lat="42.763366" lon="0.874211">
        <ele>1983.671</ele>
        <time>2021-06-18T10:35:10Z</time>
      </trkpt>
      <trkpt lat="42.763320" lon="0.874249">
        <ele>1984.564</ele>
        <time>2021-06-18T10:35:14Z</time>
      </trkpt>
      <trkpt lat="42.763285" lon="0.874274">
        <ele>1985.381</ele>
        <time>2021-06-18T10:35:17Z</time>
      </trkpt>
      <trkpt lat="42.763238" lon="0.874307">
        <ele>1986.282</ele>
        <time>2021-06-18T10:35:21Z</time>
      </trkpt>
      <trkpt lat="42.763165" lon="0.874349">
        <ele>1987.143</ele>
        <time>2021-06-18T10:35:27Z</time>
      </trkpt>
      <trkpt lat="42.763153" lon="0.874357">
        <ele>1987.217</ele>
        <time>2021-06-18T10:35:28Z</time>
      </trkpt>
      <trkpt lat="42.763067" lon="0.874374">
        <ele>1986.908</ele>
        <time>2021-06-18T10:35:34Z</time>
      </trkpt>
      <trkpt lat="42.763035" lon="0.874373">
        <ele>1987.125</ele>
        <time>2021-06-18T10:35:36Z</time>
      </trkpt>
      <trkpt lat="42.763013" lon="0.874370">
        <ele>1987.464</ele>
        <time>2021-06-18T10:35:38Z</time>
      </trkpt>
      <trkpt lat="42.762994" lon="0.874350">
        <ele>1987.020</ele>
        <time>2021-06-18T10:35:40Z</time>
      </trkpt>
      <trkpt lat="42.762985" lon="0.874317">
        <ele>1986.164</ele>
        <time>2021-06-18T10:35:42Z</time>
      </trkpt>
      <trkpt lat="42.762964" lon="0.874263">
        <ele>1984.848</ele>
        <time>2021-06-18T10:35:45Z</time>
      </trkpt>
      <trkpt lat="42.762903" lon="0.874212">
        <ele>1984.278</ele>
        <time>2021-06-18T10:35:50Z</time>
      </trkpt>
      <trkpt lat="42.762875" lon="0.874199">
        <ele>1984.321</ele>
        <time>2021-06-18T10:35:52Z</time>
      </trkpt>
      <trkpt lat="42.762748" lon="0.874221">
        <ele>1987.148</ele>
        <time>2021-06-18T10:36:01Z</time>
      </trkpt>
      <trkpt lat="42.762737" lon="0.874232">
        <ele>1987.593</ele>
        <time>2021-06-18T10:36:02Z</time>
      </trkpt>
      <trkpt lat="42.762725" lon="0.874241">
        <ele>1987.965</ele>
        <time>2021-06-18T10:36:03Z</time>
      </trkpt>
      <trkpt lat="42.762673" lon="0.874254">
        <ele>1988.821</ele>
        <time>2021-06-18T10:36:07Z</time>
      </trkpt>
      <trkpt lat="42.762590" lon="0.874246">
        <ele>1989.408</ele>
        <time>2021-06-18T10:36:13Z</time>
      </trkpt>
      <trkpt lat="42.762565" lon="0.874236">
        <ele>1989.426</ele>
        <time>2021-06-18T10:36:15Z</time>
      </trkpt>
      <trkpt lat="42.762483" lon="0.874230">
        <ele>1990.055</ele>
        <time>2021-06-18T10:36:21Z</time>
      </trkpt>
      <trkpt lat="42.762469" lon="0.874229">
        <ele>1990.141</ele>
        <time>2021-06-18T10:36:22Z</time>
      </trkpt>
      <trkpt lat="42.762373" lon="0.874244">
        <ele>1991.345</ele>
        <time>2021-06-18T10:36:29Z</time>
      </trkpt>
      <trkpt lat="42.762361" lon="0.874244">
        <ele>1991.559</ele>
        <time>2021-06-18T10:36:30Z</time>
      </trkpt>
      <trkpt lat="42.762308" lon="0.874224">
        <ele>1991.459</ele>
        <time>2021-06-18T10:36:34Z</time>
      </trkpt>
      <trkpt lat="42.762294" lon="0.874227">
        <ele>1991.632</ele>
        <time>2021-06-18T10:36:35Z</time>
      </trkpt>
      <trkpt lat="42.762231" lon="0.874207">
        <ele>1991.899</ele>
        <time>2021-06-18T10:36:40Z</time>
      </trkpt>
      <trkpt lat="42.762217" lon="0.874208">
        <ele>1991.919</ele>
        <time>2021-06-18T10:36:41Z</time>
      </trkpt>
      <trkpt lat="42.762161" lon="0.874205">
        <ele>1991.709</ele>
        <time>2021-06-18T10:36:45Z</time>
      </trkpt>
      <trkpt lat="42.762116" lon="0.874233">
        <ele>1992.219</ele>
        <time>2021-06-18T10:36:49Z</time>
      </trkpt>
      <trkpt lat="42.762106" lon="0.874248">
        <ele>1992.408</ele>
        <time>2021-06-18T10:36:50Z</time>
      </trkpt>
      <trkpt lat="42.762056" lon="0.874341">
        <ele>1993.668</ele>
        <time>2021-06-18T10:36:56Z</time>
      </trkpt>
      <trkpt lat="42.762042" lon="0.874375">
        <ele>1994.027</ele>
        <time>2021-06-18T10:36:58Z</time>
      </trkpt>
      <trkpt lat="42.761995" lon="0.874488">
        <ele>1995.453</ele>
        <time>2021-06-18T10:37:05Z</time>
      </trkpt>
      <trkpt lat="42.761988" lon="0.874503">
        <ele>1995.677</ele>
        <time>2021-06-18T10:37:06Z</time>
      </trkpt>
      <trkpt lat="42.761944" lon="0.874610">
        <ele>1997.061</ele>
        <time>2021-06-18T10:37:13Z</time>
      </trkpt>
      <trkpt lat="42.761930" lon="0.874640">
        <ele>1997.341</ele>
        <time>2021-06-18T10:37:15Z</time>
      </trkpt>
      <trkpt lat="42.761884" lon="0.874768">
        <ele>1999.224</ele>
        <time>2021-06-18T10:37:23Z</time>
      </trkpt>
      <trkpt lat="42.761873" lon="0.874780">
        <ele>1999.431</ele>
        <time>2021-06-18T10:37:24Z</time>
      </trkpt>
      <trkpt lat="42.761840" lon="0.874814">
        <ele>1999.722</ele>
        <time>2021-06-18T10:37:27Z</time>
      </trkpt>
      <trkpt lat="42.761817" lon="0.874857">
        <ele>2000.362</ele>
        <time>2021-06-18T10:37:30Z</time>
      </trkpt>
      <trkpt lat="42.761766" lon="0.874965">
        <ele>2002.008</ele>
        <time>2021-06-18T10:37:37Z</time>
      </trkpt>
      <trkpt lat="42.761747" lon="0.874988">
        <ele>2002.208</ele>
        <time>2021-06-18T10:37:39Z</time>
      </trkpt>
      <trkpt lat="42.761682" lon="0.875073">
        <ele>2002.969</ele>
        <time>2021-06-18T10:37:46Z</time>
      </trkpt>
      <trkpt lat="42.761674" lon="0.875088">
        <ele>2003.098</ele>
        <time>2021-06-18T10:37:47Z</time>
      </trkpt>
      <trkpt lat="42.761632" lon="0.875188">
        <ele>2004.354</ele>
        <time>2021-06-18T10:37:53Z</time>
      </trkpt>
      <trkpt lat="42.761607" lon="0.875230">
        <ele>2004.788</ele>
        <time>2021-06-18T10:37:56Z</time>
      </trkpt>
      <trkpt lat="42.761570" lon="0.875311">
        <ele>2005.562</ele>
        <time>2021-06-18T10:38:01Z</time>
      </trkpt>
      <trkpt lat="42.761560" lon="0.875324">
        <ele>2005.552</ele>
        <time>2021-06-18T10:38:02Z</time>
      </trkpt>
      <trkpt lat="42.761554" lon="0.875339">
        <ele>2005.665</ele>
        <time>2021-06-18T10:38:03Z</time>
      </trkpt>
      <trkpt lat="42.761524" lon="0.875424">
        <ele>2006.342</ele>
        <time>2021-06-18T10:38:08Z</time>
      </trkpt>
      <trkpt lat="42.761498" lon="0.875526">
        <ele>2007.349</ele>
        <time>2021-06-18T10:38:14Z</time>
      </trkpt>
      <trkpt lat="42.761499" lon="0.875582">
        <ele>2008.102</ele>
        <time>2021-06-18T10:38:17Z</time>
      </trkpt>
      <trkpt lat="42.761499" lon="0.875601">
        <ele>2008.322</ele>
        <time>2021-06-18T10:38:18Z</time>
      </trkpt>
      <trkpt lat="42.761493" lon="0.875708">
        <ele>2009.308</ele>
        <time>2021-06-18T10:38:24Z</time>
      </trkpt>
      <trkpt lat="42.761493" lon="0.875843">
        <ele>2010.871</ele>
        <time>2021-06-18T10:38:31Z</time>
      </trkpt>
      <trkpt lat="42.761491" lon="0.875899">
        <ele>2010.810</ele>
        <time>2021-06-18T10:38:34Z</time>
      </trkpt>
      <trkpt lat="42.761500" lon="0.876001">
        <ele>2011.516</ele>
        <time>2021-06-18T10:38:39Z</time>
      </trkpt>
      <trkpt lat="42.761510" lon="0.876066">
        <ele>2012.130</ele>
        <time>2021-06-18T10:38:42Z</time>
      </trkpt>
      <trkpt lat="42.761527" lon="0.876170">
        <ele>2012.524</ele>
        <time>2021-06-18T10:38:47Z</time>
      </trkpt>
      <trkpt lat="42.761552" lon="0.876329">
        <ele>2012.864</ele>
        <time>2021-06-18T10:38:55Z</time>
      </trkpt>
      <trkpt lat="42.761607" lon="0.876525">
        <ele>2013.237</ele>
        <time>2021-06-18T10:39:05Z</time>
      </trkpt>
      <trkpt lat="42.761652" lon="0.876678">
        <ele>2013.934</ele>
        <time>2021-06-18T10:39:12Z</time>
      </trkpt>
      <trkpt lat="42.761681" lon="0.876849">
        <ele>2014.382</ele>
        <time>2021-06-18T10:39:18Z</time>
      </trkpt>
      <trkpt lat="42.761683" lon="0.876903">
        <ele>2014.043</ele>
        <time>2021-06-18T10:39:20Z</time>
      </trkpt>
      <trkpt lat="42.761671" lon="0.877041">
        <ele>2013.517</ele>
        <time>2021-06-18T10:39:25Z</time>
      </trkpt>
      <trkpt lat="42.761663" lon="0.877244">
        <ele>2013.908</ele>
        <time>2021-06-18T10:39:33Z</time>
      </trkpt>
      <trkpt lat="42.761658" lon="0.877435">
        <ele>2013.865</ele>
        <time>2021-06-18T10:39:41Z</time>
      </trkpt>
      <trkpt lat="42.761658" lon="0.877481">
        <ele>2013.814</ele>
        <time>2021-06-18T10:39:43Z</time>
      </trkpt>
      <trkpt lat="42.761641" lon="0.877638">
        <ele>2014.410</ele>
        <time>2021-06-18T10:39:50Z</time>
      </trkpt>
      <trkpt lat="42.761625" lon="0.877741">
        <ele>2014.794</ele>
        <time>2021-06-18T10:39:55Z</time>
      </trkpt>
      <trkpt lat="42.761621" lon="0.877827">
        <ele>2014.828</ele>
        <time>2021-06-18T10:39:59Z</time>
      </trkpt>
      <trkpt lat="42.761637" lon="0.878074">
        <ele>2015.348</ele>
        <time>2021-06-18T10:40:09Z</time>
      </trkpt>
      <trkpt lat="42.761654" lon="0.878304">
        <ele>2015.741</ele>
        <time>2021-06-18T10:40:17Z</time>
      </trkpt>
      <trkpt lat="42.761651" lon="0.878569">
        <ele>2017.268</ele>
        <time>2021-06-18T10:40:26Z</time>
      </trkpt>
      <trkpt lat="42.761622" lon="0.878825">
        <ele>2017.825</ele>
        <time>2021-06-18T10:40:35Z</time>
      </trkpt>
      <trkpt lat="42.761618" lon="0.878853">
        <ele>2017.926</ele>
        <time>2021-06-18T10:40:36Z</time>
      </trkpt>
      <trkpt lat="42.761548" lon="0.879122">
        <ele>2017.808</ele>
        <time>2021-06-18T10:40:46Z</time>
      </trkpt>
      <trkpt lat="42.761528" lon="0.879245">
        <ele>2018.108</ele>
        <time>2021-06-18T10:40:50Z</time>
      </trkpt>
      <trkpt lat="42.761518" lon="0.879306">
        <ele>2018.159</ele>
        <time>2021-06-18T10:40:52Z</time>
      </trkpt>
      <trkpt lat="42.761502" lon="0.879394">
        <ele>2018.028</ele>
        <time>2021-06-18T10:40:55Z</time>
      </trkpt>
      <trkpt lat="42.761483" lon="0.879658">
        <ele>2018.274</ele>
        <time>2021-06-18T10:41:03Z</time>
      </trkpt>
      <trkpt lat="42.761442" lon="0.879819">
        <ele>2018.448</ele>
        <time>2021-06-18T10:41:09Z</time>
      </trkpt>
      <trkpt lat="42.761403" lon="0.879942">
        <ele>2018.722</ele>
        <time>2021-06-18T10:41:15Z</time>
      </trkpt>
      <trkpt lat="42.761399" lon="0.879963">
        <ele>2018.952</ele>
        <time>2021-06-18T10:41:16Z</time>
      </trkpt>
      <trkpt lat="42.761356" lon="0.880124">
        <ele>2020.295</ele>
        <time>2021-06-18T10:41:24Z</time>
      </trkpt>
      <trkpt lat="42.761351" lon="0.880145">
        <ele>2020.422</ele>
        <time>2021-06-18T10:41:25Z</time>
      </trkpt>
      <trkpt lat="42.761320" lon="0.880310">
        <ele>2021.918</ele>
        <time>2021-06-18T10:41:33Z</time>
      </trkpt>
      <trkpt lat="42.761315" lon="0.880353">
        <ele>2022.698</ele>
        <time>2021-06-18T10:41:35Z</time>
      </trkpt>
      <trkpt lat="42.761291" lon="0.880460">
        <ele>2023.617</ele>
        <time>2021-06-18T10:41:40Z</time>
      </trkpt>
      <trkpt lat="42.761264" lon="0.880542">
        <ele>2023.908</ele>
        <time>2021-06-18T10:41:44Z</time>
      </trkpt>
      <trkpt lat="42.761253" lon="0.880585">
        <ele>2024.178</ele>
        <time>2021-06-18T10:41:46Z</time>
      </trkpt>
      <trkpt lat="42.761206" lon="0.880736">
        <ele>2024.237</ele>
        <time>2021-06-18T10:41:53Z</time>
      </trkpt>
      <trkpt lat="42.761191" lon="0.880776">
        <ele>2024.283</ele>
        <time>2021-06-18T10:41:55Z</time>
      </trkpt>
      <trkpt lat="42.761142" lon="0.880892">
        <ele>2024.357</ele>
        <time>2021-06-18T10:42:01Z</time>
      </trkpt>
      <trkpt lat="42.761073" lon="0.881006">
        <ele>2024.091</ele>
        <time>2021-06-18T10:42:08Z</time>
      </trkpt>
      <trkpt lat="42.761002" lon="0.881175">
        <ele>2025.191</ele>
        <time>2021-06-18T10:42:17Z</time>
      </trkpt>
      <trkpt lat="42.760995" lon="0.881193">
        <ele>2025.274</ele>
        <time>2021-06-18T10:42:18Z</time>
      </trkpt>
      <trkpt lat="42.760944" lon="0.881320">
        <ele>2025.831</ele>
        <time>2021-06-18T10:42:25Z</time>
      </trkpt>
      <trkpt lat="42.760914" lon="0.881397">
        <ele>2026.144</ele>
        <time>2021-06-18T10:42:29Z</time>
      </trkpt>
      <trkpt lat="42.760883" lon="0.881484">
        <ele>2026.805</ele>
        <time>2021-06-18T10:42:34Z</time>
      </trkpt>
      <trkpt lat="42.760871" lon="0.881516">
        <ele>2027.115</ele>
        <time>2021-06-18T10:42:36Z</time>
      </trkpt>
      <trkpt lat="42.760832" lon="0.881620">
        <ele>2027.908</ele>
        <time>2021-06-18T10:42:42Z</time>
      </trkpt>
      <trkpt lat="42.760827" lon="0.881640">
        <ele>2028.221</ele>
        <time>2021-06-18T10:42:43Z</time>
      </trkpt>
      <trkpt lat="42.760802" lon="0.881738">
        <ele>2028.940</ele>
        <time>2021-06-18T10:42:48Z</time>
      </trkpt>
      <trkpt lat="42.760790" lon="0.881793">
        <ele>2029.346</ele>
        <time>2021-06-18T10:42:51Z</time>
      </trkpt>
      <trkpt lat="42.760736" lon="0.881937">
        <ele>2029.450</ele>
        <time>2021-06-18T10:42:59Z</time>
      </trkpt>
      <trkpt lat="42.760696" lon="0.882048">
        <ele>2029.554</ele>
        <time>2021-06-18T10:43:05Z</time>
      </trkpt>
      <trkpt lat="42.760690" lon="0.882088">
        <ele>2029.964</ele>
        <time>2021-06-18T10:43:07Z</time>
      </trkpt>
      <trkpt lat="42.760667" lon="0.882235">
        <ele>2031.127</ele>
        <time>2021-06-18T10:43:14Z</time>
      </trkpt>
      <trkpt lat="42.760672" lon="0.882280">
        <ele>2031.874</ele>
        <time>2021-06-18T10:43:16Z</time>
      </trkpt>
      <trkpt lat="42.760671" lon="0.882323">
        <ele>2032.238</ele>
        <time>2021-06-18T10:43:18Z</time>
      </trkpt>
      <trkpt lat="42.760660" lon="0.882453">
        <ele>2033.070</ele>
        <time>2021-06-18T10:43:24Z</time>
      </trkpt>
      <trkpt lat="42.760638" lon="0.882622">
        <ele>2033.617</ele>
        <time>2021-06-18T10:43:32Z</time>
      </trkpt>
      <trkpt lat="42.760636" lon="0.882644">
        <ele>2033.708</ele>
        <time>2021-06-18T10:43:33Z</time>
      </trkpt>
      <trkpt lat="42.760603" lon="0.882866">
        <ele>2034.880</ele>
        <time>2021-06-18T10:43:42Z</time>
      </trkpt>
      <trkpt lat="42.760600" lon="0.882893">
        <ele>2035.019</ele>
        <time>2021-06-18T10:43:43Z</time>
      </trkpt>
      <trkpt lat="42.760554" lon="0.883083">
        <ele>2035.575</ele>
        <time>2021-06-18T10:43:51Z</time>
      </trkpt>
      <trkpt lat="42.760545" lon="0.883107">
        <ele>2035.719</ele>
        <time>2021-06-18T10:43:52Z</time>
      </trkpt>
      <trkpt lat="42.760464" lon="0.883306">
        <ele>2037.513</ele>
        <time>2021-06-18T10:44:01Z</time>
      </trkpt>
      <trkpt lat="42.760389" lon="0.883435">
        <ele>2038.793</ele>
        <time>2021-06-18T10:44:08Z</time>
      </trkpt>
      <trkpt lat="42.760379" lon="0.883453">
        <ele>2038.916</ele>
        <time>2021-06-18T10:44:09Z</time>
      </trkpt>
      <trkpt lat="42.760313" lon="0.883599">
        <ele>2039.353</ele>
        <time>2021-06-18T10:44:17Z</time>
      </trkpt>
      <trkpt lat="42.760307" lon="0.883619">
        <ele>2039.485</ele>
        <time>2021-06-18T10:44:18Z</time>
      </trkpt>
      <trkpt lat="42.760240" lon="0.883792">
        <ele>2041.089</ele>
        <time>2021-06-18T10:44:27Z</time>
      </trkpt>
      <trkpt lat="42.760210" lon="0.883845">
        <ele>2041.417</ele>
        <time>2021-06-18T10:44:30Z</time>
      </trkpt>
      <trkpt lat="42.760161" lon="0.883930">
        <ele>2042.608</ele>
        <time>2021-06-18T10:44:35Z</time>
      </trkpt>
      <trkpt lat="42.760106" lon="0.884004">
        <ele>2043.765</ele>
        <time>2021-06-18T10:44:40Z</time>
      </trkpt>
      <trkpt lat="42.760065" lon="0.884035">
        <ele>2043.654</ele>
        <time>2021-06-18T10:44:43Z</time>
      </trkpt>
      <trkpt lat="42.759995" lon="0.884080">
        <ele>2043.180</ele>
        <time>2021-06-18T10:44:48Z</time>
      </trkpt>
      <trkpt lat="42.759966" lon="0.884094">
        <ele>2042.954</ele>
        <time>2021-06-18T10:44:50Z</time>
      </trkpt>
      <trkpt lat="42.759881" lon="0.884128">
        <ele>2042.218</ele>
        <time>2021-06-18T10:44:56Z</time>
      </trkpt>
      <trkpt lat="42.759852" lon="0.884134">
        <ele>2041.898</ele>
        <time>2021-06-18T10:44:58Z</time>
      </trkpt>
      <trkpt lat="42.759799" lon="0.884192">
        <ele>2042.231</ele>
        <time>2021-06-18T10:45:02Z</time>
      </trkpt>
      <trkpt lat="42.759736" lon="0.884289">
        <ele>2042.998</ele>
        <time>2021-06-18T10:45:07Z</time>
      </trkpt>
      <trkpt lat="42.759672" lon="0.884390">
        <ele>2043.863</ele>
        <time>2021-06-18T10:45:11Z</time>
      </trkpt>
      <trkpt lat="42.759494" lon="0.884560">
        <ele>2042.244</ele>
        <time>2021-06-18T10:45:18Z</time>
      </trkpt>
      <trkpt lat="42.759351" lon="0.884693">
        <ele>2043.118</ele>
        <time>2021-06-18T10:45:24Z</time>
      </trkpt>
      <trkpt lat="42.759316" lon="0.884751">
        <ele>2043.608</ele>
        <time>2021-06-18T10:45:27Z</time>
      </trkpt>
      <trkpt lat="42.759287" lon="0.884817">
        <ele>2043.913</ele>
        <time>2021-06-18T10:45:30Z</time>
      </trkpt>
      <trkpt lat="42.759231" lon="0.884925">
        <ele>2044.512</ele>
        <time>2021-06-18T10:45:36Z</time>
      </trkpt>
      <trkpt lat="42.759210" lon="0.884959">
        <ele>2044.778</ele>
        <time>2021-06-18T10:45:38Z</time>
      </trkpt>
      <trkpt lat="42.759151" lon="0.885042">
        <ele>2045.112</ele>
        <time>2021-06-18T10:45:43Z</time>
      </trkpt>
      <trkpt lat="42.759074" lon="0.885188">
        <ele>2045.456</ele>
        <time>2021-06-18T10:45:51Z</time>
      </trkpt>
      <trkpt lat="42.758994" lon="0.885307">
        <ele>2045.746</ele>
        <time>2021-06-18T10:45:58Z</time>
      </trkpt>
      <trkpt lat="42.758930" lon="0.885480">
        <ele>2046.539</ele>
        <time>2021-06-18T10:46:05Z</time>
      </trkpt>
      <trkpt lat="42.758871" lon="0.885733">
        <ele>2047.296</ele>
        <time>2021-06-18T10:46:14Z</time>
      </trkpt>
      <trkpt lat="42.758865" lon="0.885914">
        <ele>2047.057</ele>
        <time>2021-06-18T10:46:21Z</time>
      </trkpt>
      <trkpt lat="42.758853" lon="0.885958">
        <ele>2047.000</ele>
        <time>2021-06-18T10:46:23Z</time>
      </trkpt>
      <trkpt lat="42.758819" lon="0.886036">
        <ele>2047.220</ele>
        <time>2021-06-18T10:46:26Z</time>
      </trkpt>
      <trkpt lat="42.758807" lon="0.886063">
        <ele>2047.308</ele>
        <time>2021-06-18T10:46:27Z</time>
      </trkpt>
      <trkpt lat="42.758705" lon="0.886339">
        <ele>2047.322</ele>
        <time>2021-06-18T10:46:35Z</time>
      </trkpt>
      <trkpt lat="42.758650" lon="0.886634">
        <ele>2046.981</ele>
        <time>2021-06-18T10:46:42Z</time>
      </trkpt>
      <trkpt lat="42.758670" lon="0.886886">
        <ele>2047.697</ele>
        <time>2021-06-18T10:46:49Z</time>
      </trkpt>
      <trkpt lat="42.758671" lon="0.887164">
        <ele>2048.641</ele>
        <time>2021-06-18T10:46:58Z</time>
      </trkpt>
      <trkpt lat="42.758627" lon="0.887453">
        <ele>2049.055</ele>
        <time>2021-06-18T10:47:08Z</time>
      </trkpt>
      <trkpt lat="42.758611" lon="0.887484">
        <ele>2049.075</ele>
        <time>2021-06-18T10:47:12Z</time>
      </trkpt>
      <trkpt lat="42.758587" lon="0.887503">
        <ele>2049.268</ele>
        <time>2021-06-18T10:48:08Z</time>
      </trkpt>
      <trkpt lat="42.758450" lon="0.887622">
        <ele>2049.875</ele>
        <time>2021-06-18T10:48:14Z</time>
      </trkpt>
      <trkpt lat="42.758367" lon="0.887838">
        <ele>2048.557</ele>
        <time>2021-06-18T10:48:19Z</time>
      </trkpt>
      <trkpt lat="42.758334" lon="0.887938">
        <ele>2047.300</ele>
        <time>2021-06-18T10:48:21Z</time>
      </trkpt>
      <trkpt lat="42.758274" lon="0.888102">
        <ele>2046.520</ele>
        <time>2021-06-18T10:48:24Z</time>
      </trkpt>
      <trkpt lat="42.758233" lon="0.888221">
        <ele>2046.008</ele>
        <time>2021-06-18T10:48:26Z</time>
      </trkpt>
      <trkpt lat="42.758215" lon="0.888273">
        <ele>2045.672</ele>
        <time>2021-06-18T10:48:27Z</time>
      </trkpt>
      <trkpt lat="42.758151" lon="0.888420">
        <ele>2044.731</ele>
        <time>2021-06-18T10:48:30Z</time>
      </trkpt>
      <trkpt lat="42.758126" lon="0.888475">
        <ele>2044.537</ele>
        <time>2021-06-18T10:48:31Z</time>
      </trkpt>
      <trkpt lat="42.758044" lon="0.888729">
        <ele>2043.921</ele>
        <time>2021-06-18T10:48:35Z</time>
      </trkpt>
      <trkpt lat="42.757994" lon="0.888948">
        <ele>2043.875</ele>
        <time>2021-06-18T10:48:38Z</time>
      </trkpt>
      <trkpt lat="42.757975" lon="0.889024">
        <ele>2043.395</ele>
        <time>2021-06-18T10:48:39Z</time>
      </trkpt>
      <trkpt lat="42.757906" lon="0.889276">
        <ele>2041.198</ele>
        <time>2021-06-18T10:48:42Z</time>
      </trkpt>
      <trkpt lat="42.757881" lon="0.889365">
        <ele>2040.155</ele>
        <time>2021-06-18T10:48:43Z</time>
      </trkpt>
      <trkpt lat="42.757851" lon="0.889456">
        <ele>2039.126</ele>
        <time>2021-06-18T10:48:44Z</time>
      </trkpt>
      <trkpt lat="42.757822" lon="0.889550">
        <ele>2038.347</ele>
        <time>2021-06-18T10:48:45Z</time>
      </trkpt>
      <trkpt lat="42.757801" lon="0.889649">
        <ele>2037.511</ele>
        <time>2021-06-18T10:48:46Z</time>
      </trkpt>
      <trkpt lat="42.757791" lon="0.889753">
        <ele>2036.708</ele>
        <time>2021-06-18T10:48:47Z</time>
      </trkpt>
      <trkpt lat="42.757827" lon="0.890059">
        <ele>2035.599</ele>
        <time>2021-06-18T10:48:50Z</time>
      </trkpt>
      <trkpt lat="42.757857" lon="0.890145">
        <ele>2035.288</ele>
        <time>2021-06-18T10:48:51Z</time>
      </trkpt>
      <trkpt lat="42.757886" lon="0.890220">
        <ele>2034.934</ele>
        <time>2021-06-18T10:48:52Z</time>
      </trkpt>
      <trkpt lat="42.757904" lon="0.890291">
        <ele>2034.768</ele>
        <time>2021-06-18T10:48:53Z</time>
      </trkpt>
      <trkpt lat="42.757908" lon="0.890362">
        <ele>2034.372</ele>
        <time>2021-06-18T10:48:54Z</time>
      </trkpt>
      <trkpt lat="42.757890" lon="0.890492">
        <ele>2034.112</ele>
        <time>2021-06-18T10:48:56Z</time>
      </trkpt>
      <trkpt lat="42.757843" lon="0.890614">
        <ele>2033.795</ele>
        <time>2021-06-18T10:48:58Z</time>
      </trkpt>
      <trkpt lat="42.757778" lon="0.890741">
        <ele>2033.042</ele>
        <time>2021-06-18T10:49:00Z</time>
      </trkpt>
      <trkpt lat="42.757697" lon="0.890874">
        <ele>2032.487</ele>
        <time>2021-06-18T10:49:02Z</time>
      </trkpt>
      <trkpt lat="42.757666" lon="0.890951">
        <ele>2031.942</ele>
        <time>2021-06-18T10:49:03Z</time>
      </trkpt>
      <trkpt lat="42.757552" lon="0.891258">
        <ele>2030.626</ele>
        <time>2021-06-18T10:49:07Z</time>
      </trkpt>
      <trkpt lat="42.757525" lon="0.891341">
        <ele>2030.108</ele>
        <time>2021-06-18T10:49:08Z</time>
      </trkpt>
      <trkpt lat="42.757491" lon="0.891523">
        <ele>2028.215</ele>
        <time>2021-06-18T10:49:10Z</time>
      </trkpt>
      <trkpt lat="42.757469" lon="0.891612">
        <ele>2027.344</ele>
        <time>2021-06-18T10:49:11Z</time>
      </trkpt>
      <trkpt lat="42.757369" lon="0.891834">
        <ele>2025.820</ele>
        <time>2021-06-18T10:49:14Z</time>
      </trkpt>
      <trkpt lat="42.757327" lon="0.891893">
        <ele>2025.534</ele>
        <time>2021-06-18T10:49:15Z</time>
      </trkpt>
      <trkpt lat="42.757288" lon="0.891962">
        <ele>2025.138</ele>
        <time>2021-06-18T10:49:16Z</time>
      </trkpt>
      <trkpt lat="42.757235" lon="0.892116">
        <ele>2024.098</ele>
        <time>2021-06-18T10:49:18Z</time>
      </trkpt>
      <trkpt lat="42.757175" lon="0.892262">
        <ele>2022.521</ele>
        <time>2021-06-18T10:49:20Z</time>
      </trkpt>
      <trkpt lat="42.757092" lon="0.892392">
        <ele>2021.078</ele>
        <time>2021-06-18T10:49:22Z</time>
      </trkpt>
      <trkpt lat="42.757038" lon="0.892443">
        <ele>2020.283</ele>
        <time>2021-06-18T10:49:23Z</time>
      </trkpt>
      <trkpt lat="42.756977" lon="0.892488">
        <ele>2019.425</ele>
        <time>2021-06-18T10:49:24Z</time>
      </trkpt>
      <trkpt lat="42.756862" lon="0.892588">
        <ele>2017.517</ele>
        <time>2021-06-18T10:49:26Z</time>
      </trkpt>
      <trkpt lat="42.756818" lon="0.892658">
        <ele>2016.608</ele>
        <time>2021-06-18T10:49:27Z</time>
      </trkpt>
      <trkpt lat="42.756776" lon="0.892819">
        <ele>2014.835</ele>
        <time>2021-06-18T10:49:29Z</time>
      </trkpt>
      <trkpt lat="42.756768" lon="0.892891">
        <ele>2013.864</ele>
        <time>2021-06-18T10:49:30Z</time>
      </trkpt>
      <trkpt lat="42.756754" lon="0.892954">
        <ele>2013.070</ele>
        <time>2021-06-18T10:49:31Z</time>
      </trkpt>
      <trkpt lat="42.756690" lon="0.893040">
        <ele>2012.844</ele>
        <time>2021-06-18T10:49:33Z</time>
      </trkpt>
      <trkpt lat="42.756644" lon="0.893055">
        <ele>2012.418</ele>
        <time>2021-06-18T10:49:34Z</time>
      </trkpt>
      <trkpt lat="42.756597" lon="0.893044">
        <ele>2011.118</ele>
        <time>2021-06-18T10:49:35Z</time>
      </trkpt>
      <trkpt lat="42.756558" lon="0.893001">
        <ele>2010.391</ele>
        <time>2021-06-18T10:49:36Z</time>
      </trkpt>
      <trkpt lat="42.756496" lon="0.892868">
        <ele>2009.838</ele>
        <time>2021-06-18T10:49:38Z</time>
      </trkpt>
      <trkpt lat="42.756445" lon="0.892732">
        <ele>2009.713</ele>
        <time>2021-06-18T10:49:40Z</time>
      </trkpt>
      <trkpt lat="42.756424" lon="0.892665">
        <ele>2009.743</ele>
        <time>2021-06-18T10:49:41Z</time>
      </trkpt>
      <trkpt lat="42.756396" lon="0.892597">
        <ele>2009.507</ele>
        <time>2021-06-18T10:49:42Z</time>
      </trkpt>
      <trkpt lat="42.756311" lon="0.892463">
        <ele>2008.408</ele>
        <time>2021-06-18T10:49:44Z</time>
      </trkpt>
      <trkpt lat="42.756197" lon="0.892362">
        <ele>2007.018</ele>
        <time>2021-06-18T10:49:46Z</time>
      </trkpt>
      <trkpt lat="42.756101" lon="0.892237">
        <ele>2006.417</ele>
        <time>2021-06-18T10:49:48Z</time>
      </trkpt>
      <trkpt lat="42.756047" lon="0.892076">
        <ele>2005.963</ele>
        <time>2021-06-18T10:49:50Z</time>
      </trkpt>
      <trkpt lat="42.756036" lon="0.891992">
        <ele>2006.197</ele>
        <time>2021-06-18T10:49:51Z</time>
      </trkpt>
      <trkpt lat="42.756018" lon="0.891907">
        <ele>2006.171</ele>
        <time>2021-06-18T10:49:52Z</time>
      </trkpt>
      <trkpt lat="42.755927" lon="0.891781">
        <ele>2004.551</ele>
        <time>2021-06-18T10:49:54Z</time>
      </trkpt>
      <trkpt lat="42.755725" lon="0.891750">
        <ele>1999.954</ele>
        <time>2021-06-18T10:49:57Z</time>
      </trkpt>
      <trkpt lat="42.755609" lon="0.891708">
        <ele>1998.541</ele>
        <time>2021-06-18T10:49:59Z</time>
      </trkpt>
      <trkpt lat="42.755558" lon="0.891665">
        <ele>1998.187</ele>
        <time>2021-06-18T10:50:00Z</time>
      </trkpt>
      <trkpt lat="42.755502" lon="0.891617">
        <ele>1998.342</ele>
        <time>2021-06-18T10:50:01Z</time>
      </trkpt>
      <trkpt lat="42.755367" lon="0.891536">
        <ele>1997.826</ele>
        <time>2021-06-18T10:50:03Z</time>
      </trkpt>
      <trkpt lat="42.755293" lon="0.891524">
        <ele>1996.808</ele>
        <time>2021-06-18T10:50:04Z</time>
      </trkpt>
      <trkpt lat="42.755146" lon="0.891566">
        <ele>1996.915</ele>
        <time>2021-06-18T10:50:06Z</time>
      </trkpt>
      <trkpt lat="42.755085" lon="0.891619">
        <ele>1996.464</ele>
        <time>2021-06-18T10:50:07Z</time>
      </trkpt>
      <trkpt lat="42.755029" lon="0.891686">
        <ele>1995.590</ele>
        <time>2021-06-18T10:50:08Z</time>
      </trkpt>
      <trkpt lat="42.754974" lon="0.891761">
        <ele>1994.944</ele>
        <time>2021-06-18T10:50:09Z</time>
      </trkpt>
      <trkpt lat="42.754919" lon="0.891842">
        <ele>1994.358</ele>
        <time>2021-06-18T10:50:10Z</time>
      </trkpt>
      <trkpt lat="42.754864" lon="0.891928">
        <ele>1993.748</ele>
        <time>2021-06-18T10:50:11Z</time>
      </trkpt>
      <trkpt lat="42.754808" lon="0.892015">
        <ele>1992.971</ele>
        <time>2021-06-18T10:50:12Z</time>
      </trkpt>
      <trkpt lat="42.754685" lon="0.892170">
        <ele>1991.518</ele>
        <time>2021-06-18T10:50:14Z</time>
      </trkpt>
      <trkpt lat="42.754556" lon="0.892290">
        <ele>1991.171</ele>
        <time>2021-06-18T10:50:16Z</time>
      </trkpt>
      <trkpt lat="42.754497" lon="0.892346">
        <ele>1990.741</ele>
        <time>2021-06-18T10:50:17Z</time>
      </trkpt>
      <trkpt lat="42.754399" lon="0.892484">
        <ele>1989.715</ele>
        <time>2021-06-18T10:50:19Z</time>
      </trkpt>
      <trkpt lat="42.754362" lon="0.892566">
        <ele>1989.208</ele>
        <time>2021-06-18T10:50:20Z</time>
      </trkpt>
      <trkpt lat="42.754328" lon="0.892652">
        <ele>1988.514</ele>
        <time>2021-06-18T10:50:21Z</time>
      </trkpt>
      <trkpt lat="42.754247" lon="0.892818">
        <ele>1986.993</ele>
        <time>2021-06-18T10:50:23Z</time>
      </trkpt>
      <trkpt lat="42.754161" lon="0.892975">
        <ele>1985.699</ele>
        <time>2021-06-18T10:50:25Z</time>
      </trkpt>
      <trkpt lat="42.754050" lon="0.893213">
        <ele>1983.633</ele>
        <time>2021-06-18T10:50:28Z</time>
      </trkpt>
      <trkpt lat="42.754016" lon="0.893286">
        <ele>1982.997</ele>
        <time>2021-06-18T10:50:29Z</time>
      </trkpt>
      <trkpt lat="42.753977" lon="0.893353">
        <ele>1982.427</ele>
        <time>2021-06-18T10:50:30Z</time>
      </trkpt>
      <trkpt lat="42.753886" lon="0.893459">
        <ele>1981.890</ele>
        <time>2021-06-18T10:50:32Z</time>
      </trkpt>
      <trkpt lat="42.753782" lon="0.893550">
        <ele>1981.327</ele>
        <time>2021-06-18T10:50:34Z</time>
      </trkpt>
      <trkpt lat="42.753695" lon="0.893638">
        <ele>1980.618</ele>
        <time>2021-06-18T10:50:36Z</time>
      </trkpt>
      <trkpt lat="42.753681" lon="0.893695">
        <ele>1979.898</ele>
        <time>2021-06-18T10:50:37Z</time>
      </trkpt>
      <trkpt lat="42.753728" lon="0.893785">
        <ele>1977.917</ele>
        <time>2021-06-18T10:50:39Z</time>
      </trkpt>
      <trkpt lat="42.753823" lon="0.893766">
        <ele>1977.308</ele>
        <time>2021-06-18T10:50:41Z</time>
      </trkpt>
      <trkpt lat="42.753930" lon="0.893701">
        <ele>1977.438</ele>
        <time>2021-06-18T10:50:43Z</time>
      </trkpt>
      <trkpt lat="42.754035" lon="0.893644">
        <ele>1977.517</ele>
        <time>2021-06-18T10:50:45Z</time>
      </trkpt>
      <trkpt lat="42.754087" lon="0.893617">
        <ele>1977.523</ele>
        <time>2021-06-18T10:50:46Z</time>
      </trkpt>
      <trkpt lat="42.754339" lon="0.893560">
        <ele>1976.837</ele>
        <time>2021-06-18T10:50:50Z</time>
      </trkpt>
      <trkpt lat="42.754477" lon="0.893702">
        <ele>1974.091</ele>
        <time>2021-06-18T10:50:53Z</time>
      </trkpt>
      <trkpt lat="42.754462" lon="0.893856">
        <ele>1972.051</ele>
        <time>2021-06-18T10:50:55Z</time>
      </trkpt>
      <trkpt lat="42.754424" lon="0.893926">
        <ele>1971.184</ele>
        <time>2021-06-18T10:50:56Z</time>
      </trkpt>
      <trkpt lat="42.754331" lon="0.894057">
        <ele>1968.881</ele>
        <time>2021-06-18T10:50:58Z</time>
      </trkpt>
      <trkpt lat="42.754285" lon="0.894129">
        <ele>1968.158</ele>
        <time>2021-06-18T10:50:59Z</time>
      </trkpt>
      <trkpt lat="42.754234" lon="0.894201">
        <ele>1967.752</ele>
        <time>2021-06-18T10:51:00Z</time>
      </trkpt>
      <trkpt lat="42.754178" lon="0.894267">
        <ele>1967.517</ele>
        <time>2021-06-18T10:51:01Z</time>
      </trkpt>
      <trkpt lat="42.754119" lon="0.894323">
        <ele>1966.608</ele>
        <time>2021-06-18T10:51:02Z</time>
      </trkpt>
      <trkpt lat="42.754058" lon="0.894367">
        <ele>1965.792</ele>
        <time>2021-06-18T10:51:03Z</time>
      </trkpt>
      <trkpt lat="42.753928" lon="0.894438">
        <ele>1964.171</ele>
        <time>2021-06-18T10:51:05Z</time>
      </trkpt>
      <trkpt lat="42.753859" lon="0.894459">
        <ele>1963.497</ele>
        <time>2021-06-18T10:51:06Z</time>
      </trkpt>
      <trkpt lat="42.753792" lon="0.894469">
        <ele>1962.941</ele>
        <time>2021-06-18T10:51:07Z</time>
      </trkpt>
      <trkpt lat="42.753667" lon="0.894472">
        <ele>1962.315</ele>
        <time>2021-06-18T10:51:09Z</time>
      </trkpt>
      <trkpt lat="42.753604" lon="0.894481">
        <ele>1961.835</ele>
        <time>2021-06-18T10:51:10Z</time>
      </trkpt>
      <trkpt lat="42.753539" lon="0.894501">
        <ele>1961.258</ele>
        <time>2021-06-18T10:51:11Z</time>
      </trkpt>
      <trkpt lat="42.753475" lon="0.894524">
        <ele>1960.645</ele>
        <time>2021-06-18T10:51:12Z</time>
      </trkpt>
      <trkpt lat="42.753414" lon="0.894546">
        <ele>1960.059</ele>
        <time>2021-06-18T10:51:13Z</time>
      </trkpt>
      <trkpt lat="42.753358" lon="0.894568">
        <ele>1959.403</ele>
        <time>2021-06-18T10:51:14Z</time>
      </trkpt>
      <trkpt lat="42.753303" lon="0.894592">
        <ele>1959.423</ele>
        <time>2021-06-18T10:51:15Z</time>
      </trkpt>
      <trkpt lat="42.753198" lon="0.894675">
        <ele>1959.208</ele>
        <time>2021-06-18T10:51:17Z</time>
      </trkpt>
      <trkpt lat="42.753150" lon="0.894733">
        <ele>1958.632</ele>
        <time>2021-06-18T10:51:18Z</time>
      </trkpt>
      <trkpt lat="42.753108" lon="0.894803">
        <ele>1957.251</ele>
        <time>2021-06-18T10:51:19Z</time>
      </trkpt>
      <trkpt lat="42.753068" lon="0.894885">
        <ele>1955.547</ele>
        <time>2021-06-18T10:51:20Z</time>
      </trkpt>
      <trkpt lat="42.752990" lon="0.895055">
        <ele>1953.971</ele>
        <time>2021-06-18T10:51:22Z</time>
      </trkpt>
      <trkpt lat="42.752956" lon="0.895140">
        <ele>1953.255</ele>
        <time>2021-06-18T10:51:23Z</time>
      </trkpt>
      <trkpt lat="42.752889" lon="0.895308">
        <ele>1951.695</ele>
        <time>2021-06-18T10:51:25Z</time>
      </trkpt>
      <trkpt lat="42.752819" lon="0.895473">
        <ele>1950.018</ele>
        <time>2021-06-18T10:51:27Z</time>
      </trkpt>
      <trkpt lat="42.752775" lon="0.895541">
        <ele>1949.685</ele>
        <time>2021-06-18T10:51:28Z</time>
      </trkpt>
      <trkpt lat="42.752727" lon="0.895597">
        <ele>1950.181</ele>
        <time>2021-06-18T10:51:29Z</time>
      </trkpt>
      <trkpt lat="42.752687" lon="0.895649">
        <ele>1950.461</ele>
        <time>2021-06-18T10:51:30Z</time>
      </trkpt>
      <trkpt lat="42.752669" lon="0.895709">
        <ele>1949.517</ele>
        <time>2021-06-18T10:51:31Z</time>
      </trkpt>
      <trkpt lat="42.752682" lon="0.895772">
        <ele>1947.608</ele>
        <time>2021-06-18T10:51:32Z</time>
      </trkpt>
      <trkpt lat="42.752718" lon="0.895814">
        <ele>1945.755</ele>
        <time>2021-06-18T10:51:33Z</time>
      </trkpt>
      <trkpt lat="42.752763" lon="0.895813">
        <ele>1944.774</ele>
        <time>2021-06-18T10:51:34Z</time>
      </trkpt>
      <trkpt lat="42.752805" lon="0.895775">
        <ele>1944.140</ele>
        <time>2021-06-18T10:51:35Z</time>
      </trkpt>
      <trkpt lat="42.752847" lon="0.895710">
        <ele>1943.754</ele>
        <time>2021-06-18T10:51:36Z</time>
      </trkpt>
      <trkpt lat="42.752964" lon="0.895483">
        <ele>1943.978</ele>
        <time>2021-06-18T10:51:39Z</time>
      </trkpt>
      <trkpt lat="42.753004" lon="0.895400">
        <ele>1944.198</ele>
        <time>2021-06-18T10:51:40Z</time>
      </trkpt>
      <trkpt lat="42.753052" lon="0.895321">
        <ele>1943.441</ele>
        <time>2021-06-18T10:51:41Z</time>
      </trkpt>
      <trkpt lat="42.753169" lon="0.895205">
        <ele>1943.688</ele>
        <time>2021-06-18T10:51:43Z</time>
      </trkpt>
      <trkpt lat="42.753303" lon="0.895184">
        <ele>1941.463</ele>
        <time>2021-06-18T10:51:45Z</time>
      </trkpt>
      <trkpt lat="42.753370" lon="0.895208">
        <ele>1940.244</ele>
        <time>2021-06-18T10:51:46Z</time>
      </trkpt>
      <trkpt lat="42.753499" lon="0.895284">
        <ele>1939.118</ele>
        <time>2021-06-18T10:51:48Z</time>
      </trkpt>
      <trkpt lat="42.753619" lon="0.895376">
        <ele>1937.908</ele>
        <time>2021-06-18T10:51:50Z</time>
      </trkpt>
      <trkpt lat="42.753677" lon="0.895435">
        <ele>1936.753</ele>
        <time>2021-06-18T10:51:51Z</time>
      </trkpt>
      <trkpt lat="42.753736" lon="0.895490">
        <ele>1935.572</ele>
        <time>2021-06-18T10:51:52Z</time>
      </trkpt>
      <trkpt lat="42.753800" lon="0.895537">
        <ele>1934.428</ele>
        <time>2021-06-18T10:51:53Z</time>
      </trkpt>
      <trkpt lat="42.753937" lon="0.895597">
        <ele>1933.042</ele>
        <time>2021-06-18T10:51:55Z</time>
      </trkpt>
      <trkpt lat="42.754059" lon="0.895595">
        <ele>1932.116</ele>
        <time>2021-06-18T10:51:57Z</time>
      </trkpt>
      <trkpt lat="42.754111" lon="0.895576">
        <ele>1932.066</ele>
        <time>2021-06-18T10:51:58Z</time>
      </trkpt>
      <trkpt lat="42.754161" lon="0.895553">
        <ele>1932.159</ele>
        <time>2021-06-18T10:51:59Z</time>
      </trkpt>
      <trkpt lat="42.754260" lon="0.895503">
        <ele>1931.966</ele>
        <time>2021-06-18T10:52:01Z</time>
      </trkpt>
      <trkpt lat="42.754354" lon="0.895428">
        <ele>1931.483</ele>
        <time>2021-06-18T10:52:03Z</time>
      </trkpt>
      <trkpt lat="42.754388" lon="0.895380">
        <ele>1931.425</ele>
        <time>2021-06-18T10:52:04Z</time>
      </trkpt>
      <trkpt lat="42.754533" lon="0.895258">
        <ele>1930.517</ele>
        <time>2021-06-18T10:52:08Z</time>
      </trkpt>
      <trkpt lat="42.754585" lon="0.895348">
        <ele>1928.508</ele>
        <time>2021-06-18T10:52:11Z</time>
      </trkpt>
      <trkpt lat="42.754581" lon="0.895395">
        <ele>1927.865</ele>
        <time>2021-06-18T10:52:14Z</time>
      </trkpt>
      <trkpt lat="42.754582" lon="0.895394">
        <ele>1927.864</ele>
        <time>2021-06-18T10:52:15Z</time>
      </trkpt>
      <trkpt lat="42.754559" lon="0.895434">
        <ele>1927.630</ele>
        <time>2021-06-18T10:52:30Z</time>
      </trkpt>
      <trkpt lat="42.754523" lon="0.895487">
        <ele>1927.584</ele>
        <time>2021-06-18T10:52:32Z</time>
      </trkpt>
      <trkpt lat="42.754379" lon="0.895707">
        <ele>1926.638</ele>
        <time>2021-06-18T10:52:37Z</time>
      </trkpt>
      <trkpt lat="42.754350" lon="0.895765">
        <ele>1926.138</ele>
        <time>2021-06-18T10:52:38Z</time>
      </trkpt>
      <trkpt lat="42.754326" lon="0.895827">
        <ele>1925.481</ele>
        <time>2021-06-18T10:52:39Z</time>
      </trkpt>
      <trkpt lat="42.754249" lon="0.895994">
        <ele>1924.088</ele>
        <time>2021-06-18T10:52:42Z</time>
      </trkpt>
      <trkpt lat="42.754179" lon="0.896069">
        <ele>1923.515</ele>
        <time>2021-06-18T10:52:44Z</time>
      </trkpt>
      <trkpt lat="42.754091" lon="0.896113">
        <ele>1924.165</ele>
        <time>2021-06-18T10:52:46Z</time>
      </trkpt>
      <trkpt lat="42.753975" lon="0.896216">
        <ele>1923.611</ele>
        <time>2021-06-18T10:52:49Z</time>
      </trkpt>
      <trkpt lat="42.753922" lon="0.896321">
        <ele>1922.108</ele>
        <time>2021-06-18T10:52:51Z</time>
      </trkpt>
      <trkpt lat="42.753898" lon="0.896380">
        <ele>1921.118</ele>
        <time>2021-06-18T10:52:52Z</time>
      </trkpt>
      <trkpt lat="42.753859" lon="0.896526">
        <ele>1920.297</ele>
        <time>2021-06-18T10:52:54Z</time>
      </trkpt>
      <trkpt lat="42.753842" lon="0.896606">
        <ele>1919.793</ele>
        <time>2021-06-18T10:52:55Z</time>
      </trkpt>
      <trkpt lat="42.753768" lon="0.896912">
        <ele>1917.347</ele>
        <time>2021-06-18T10:52:59Z</time>
      </trkpt>
      <trkpt lat="42.753737" lon="0.897066">
        <ele>1916.491</ele>
        <time>2021-06-18T10:53:01Z</time>
      </trkpt>
      <trkpt lat="42.753725" lon="0.897147">
        <ele>1915.831</ele>
        <time>2021-06-18T10:53:02Z</time>
      </trkpt>
      <trkpt lat="42.753717" lon="0.897226">
        <ele>1915.044</ele>
        <time>2021-06-18T10:53:03Z</time>
      </trkpt>
      <trkpt lat="42.753709" lon="0.897307">
        <ele>1914.181</ele>
        <time>2021-06-18T10:53:04Z</time>
      </trkpt>
      <trkpt lat="42.753699" lon="0.897385">
        <ele>1913.458</ele>
        <time>2021-06-18T10:53:05Z</time>
      </trkpt>
      <trkpt lat="42.753686" lon="0.897460">
        <ele>1912.852</ele>
        <time>2021-06-18T10:53:06Z</time>
      </trkpt>
      <trkpt lat="42.753656" lon="0.897609">
        <ele>1911.617</ele>
        <time>2021-06-18T10:53:08Z</time>
      </trkpt>
      <trkpt lat="42.753624" lon="0.897755">
        <ele>1910.008</ele>
        <time>2021-06-18T10:53:10Z</time>
      </trkpt>
      <trkpt lat="42.753603" lon="0.897825">
        <ele>1909.252</ele>
        <time>2021-06-18T10:53:11Z</time>
      </trkpt>
      <trkpt lat="42.753570" lon="0.897973">
        <ele>1907.171</ele>
        <time>2021-06-18T10:53:13Z</time>
      </trkpt>
      <trkpt lat="42.753535" lon="0.898125">
        <ele>1905.427</ele>
        <time>2021-06-18T10:53:15Z</time>
      </trkpt>
      <trkpt lat="42.753495" lon="0.898251">
        <ele>1904.121</ele>
        <time>2021-06-18T10:53:17Z</time>
      </trkpt>
      <trkpt lat="42.753475" lon="0.898300">
        <ele>1903.645</ele>
        <time>2021-06-18T10:53:18Z</time>
      </trkpt>
      <trkpt lat="42.753437" lon="0.898373">
        <ele>1903.115</ele>
        <time>2021-06-18T10:53:20Z</time>
      </trkpt>
      <trkpt lat="42.753415" lon="0.898405">
        <ele>1903.088</ele>
        <time>2021-06-18T10:53:21Z</time>
      </trkpt>
      <trkpt lat="42.753398" lon="0.898443">
        <ele>1902.645</ele>
        <time>2021-06-18T10:53:22Z</time>
      </trkpt>
      <trkpt lat="42.753356" lon="0.898518">
        <ele>1901.842</ele>
        <time>2021-06-18T10:53:25Z</time>
      </trkpt>
      <trkpt lat="42.753321" lon="0.898571">
        <ele>1900.722</ele>
        <time>2021-06-18T10:53:27Z</time>
      </trkpt>
      <trkpt lat="42.753292" lon="0.898585">
        <ele>1899.614</ele>
        <time>2021-06-18T10:53:28Z</time>
      </trkpt>
      <trkpt lat="42.753258" lon="0.898579">
        <ele>1898.808</ele>
        <time>2021-06-18T10:53:29Z</time>
      </trkpt>
      <trkpt lat="42.753193" lon="0.898424">
        <ele>1900.261</ele>
        <time>2021-06-18T10:53:32Z</time>
      </trkpt>
      <trkpt lat="42.753177" lon="0.898349">
        <ele>1901.170</ele>
        <time>2021-06-18T10:53:33Z</time>
      </trkpt>
      <trkpt lat="42.753153" lon="0.898277">
        <ele>1901.746</ele>
        <time>2021-06-18T10:53:34Z</time>
      </trkpt>
      <trkpt lat="42.753117" lon="0.898213">
        <ele>1901.660</ele>
        <time>2021-06-18T10:53:35Z</time>
      </trkpt>
      <trkpt lat="42.753071" lon="0.898163">
        <ele>1900.734</ele>
        <time>2021-06-18T10:53:36Z</time>
      </trkpt>
      <trkpt lat="42.752968" lon="0.898111">
        <ele>1900.494</ele>
        <time>2021-06-18T10:53:38Z</time>
      </trkpt>
      <trkpt lat="42.752917" lon="0.898115">
        <ele>1900.067</ele>
        <time>2021-06-18T10:53:39Z</time>
      </trkpt>
      <trkpt lat="42.752865" lon="0.898131">
        <ele>1899.584</ele>
        <time>2021-06-18T10:53:40Z</time>
      </trkpt>
      <trkpt lat="42.752813" lon="0.898142">
        <ele>1899.084</ele>
        <time>2021-06-18T10:53:41Z</time>
      </trkpt>
      <trkpt lat="42.752758" lon="0.898137">
        <ele>1898.707</ele>
        <time>2021-06-18T10:53:42Z</time>
      </trkpt>
      <trkpt lat="42.752708" lon="0.898118">
        <ele>1898.617</ele>
        <time>2021-06-18T10:53:43Z</time>
      </trkpt>
      <trkpt lat="42.752627" lon="0.898060">
        <ele>1898.808</ele>
        <time>2021-06-18T10:53:45Z</time>
      </trkpt>
      <trkpt lat="42.752587" lon="0.898035">
        <ele>1899.045</ele>
        <time>2021-06-18T10:53:46Z</time>
      </trkpt>
      <trkpt lat="42.752545" lon="0.898024">
        <ele>1898.844</ele>
        <time>2021-06-18T10:53:47Z</time>
      </trkpt>
      <trkpt lat="42.752455" lon="0.898104">
        <ele>1898.140</ele>
        <time>2021-06-18T10:53:50Z</time>
      </trkpt>
      <trkpt lat="42.752367" lon="0.898309">
        <ele>1896.714</ele>
        <time>2021-06-18T10:53:54Z</time>
      </trkpt>
      <trkpt lat="42.752344" lon="0.898369">
        <ele>1896.218</ele>
        <time>2021-06-18T10:53:55Z</time>
      </trkpt>
      <trkpt lat="42.752313" lon="0.898426">
        <ele>1895.688</ele>
        <time>2021-06-18T10:53:56Z</time>
      </trkpt>
      <trkpt lat="42.752229" lon="0.898514">
        <ele>1895.081</ele>
        <time>2021-06-18T10:53:58Z</time>
      </trkpt>
      <trkpt lat="42.752131" lon="0.898522">
        <ele>1894.448</ele>
        <time>2021-06-18T10:54:00Z</time>
      </trkpt>
      <trkpt lat="42.752084" lon="0.898501">
        <ele>1894.691</ele>
        <time>2021-06-18T10:54:01Z</time>
      </trkpt>
      <trkpt lat="42.752034" lon="0.898485">
        <ele>1894.781</ele>
        <time>2021-06-18T10:54:02Z</time>
      </trkpt>
      <trkpt lat="42.751937" lon="0.898517">
        <ele>1893.619</ele>
        <time>2021-06-18T10:54:04Z</time>
      </trkpt>
      <trkpt lat="42.751868" lon="0.898638">
        <ele>1893.108</ele>
        <time>2021-06-18T10:54:06Z</time>
      </trkpt>
      <trkpt lat="42.751831" lon="0.898703">
        <ele>1892.886</ele>
        <time>2021-06-18T10:54:07Z</time>
      </trkpt>
      <trkpt lat="42.751790" lon="0.898766">
        <ele>1892.795</ele>
        <time>2021-06-18T10:54:08Z</time>
      </trkpt>
      <trkpt lat="42.751716" lon="0.898892">
        <ele>1892.151</ele>
        <time>2021-06-18T10:54:10Z</time>
      </trkpt>
      <trkpt lat="42.751597" lon="0.899165">
        <ele>1886.035</ele>
        <time>2021-06-18T10:54:14Z</time>
      </trkpt>
      <trkpt lat="42.751548" lon="0.899301">
        <ele>1883.389</ele>
        <time>2021-06-18T10:54:16Z</time>
      </trkpt>
      <trkpt lat="42.751502" lon="0.899415">
        <ele>1881.159</ele>
        <time>2021-06-18T10:54:18Z</time>
      </trkpt>
      <trkpt lat="42.751472" lon="0.899446">
        <ele>1880.882</ele>
        <time>2021-06-18T10:54:19Z</time>
      </trkpt>
      <trkpt lat="42.751437" lon="0.899450">
        <ele>1881.269</ele>
        <time>2021-06-18T10:54:20Z</time>
      </trkpt>
      <trkpt lat="42.751377" lon="0.899392">
        <ele>1882.915</ele>
        <time>2021-06-18T10:54:22Z</time>
      </trkpt>
      <trkpt lat="42.751359" lon="0.899343">
        <ele>1883.665</ele>
        <time>2021-06-18T10:54:23Z</time>
      </trkpt>
      <trkpt lat="42.751342" lon="0.899290">
        <ele>1884.411</ele>
        <time>2021-06-18T10:54:24Z</time>
      </trkpt>
      <trkpt lat="42.751279" lon="0.899143">
        <ele>1885.808</ele>
        <time>2021-06-18T10:54:27Z</time>
      </trkpt>
      <trkpt lat="42.751154" lon="0.899039">
        <ele>1884.398</ele>
        <time>2021-06-18T10:54:30Z</time>
      </trkpt>
      <trkpt lat="42.751043" lon="0.899033">
        <ele>1882.227</ele>
        <time>2021-06-18T10:54:32Z</time>
      </trkpt>
      <trkpt lat="42.750983" lon="0.899030">
        <ele>1881.173</ele>
        <time>2021-06-18T10:54:33Z</time>
      </trkpt>
      <trkpt lat="42.750924" lon="0.899012">
        <ele>1880.557</ele>
        <time>2021-06-18T10:54:34Z</time>
      </trkpt>
      <trkpt lat="42.750801" lon="0.898852">
        <ele>1881.381</ele>
        <time>2021-06-18T10:54:37Z</time>
      </trkpt>
      <trkpt lat="42.750774" lon="0.898786">
        <ele>1882.191</ele>
        <time>2021-06-18T10:54:38Z</time>
      </trkpt>
      <trkpt lat="42.750748" lon="0.898720">
        <ele>1882.744</ele>
        <time>2021-06-18T10:54:39Z</time>
      </trkpt>
      <trkpt lat="42.750618" lon="0.898391">
        <ele>1882.991</ele>
        <time>2021-06-18T10:54:44Z</time>
      </trkpt>
      <trkpt lat="42.750578" lon="0.898245">
        <ele>1882.269</ele>
        <time>2021-06-18T10:54:46Z</time>
      </trkpt>
      <trkpt lat="42.750572" lon="0.898084">
        <ele>1881.604</ele>
        <time>2021-06-18T10:54:48Z</time>
      </trkpt>
      <trkpt lat="42.750613" lon="0.897915">
        <ele>1881.324</ele>
        <time>2021-06-18T10:54:50Z</time>
      </trkpt>
      <trkpt lat="42.750656" lon="0.897746">
        <ele>1881.508</ele>
        <time>2021-06-18T10:54:52Z</time>
      </trkpt>
      <trkpt lat="42.750632" lon="0.897531">
        <ele>1879.483</ele>
        <time>2021-06-18T10:54:55Z</time>
      </trkpt>
      <trkpt lat="42.750526" lon="0.897426">
        <ele>1877.672</ele>
        <time>2021-06-18T10:54:58Z</time>
      </trkpt>
      <trkpt lat="42.750482" lon="0.897405">
        <ele>1877.818</ele>
        <time>2021-06-18T10:54:59Z</time>
      </trkpt>
      <trkpt lat="42.750432" lon="0.897391">
        <ele>1877.862</ele>
        <time>2021-06-18T10:55:00Z</time>
      </trkpt>
      <trkpt lat="42.750273" lon="0.897404">
        <ele>1876.126</ele>
        <time>2021-06-18T10:55:03Z</time>
      </trkpt>
      <trkpt lat="42.750035" lon="0.897489">
        <ele>1874.276</ele>
        <time>2021-06-18T10:55:07Z</time>
      </trkpt>
      <trkpt lat="42.749983" lon="0.897505">
        <ele>1874.039</ele>
        <time>2021-06-18T10:55:08Z</time>
      </trkpt>
      <trkpt lat="42.749841" lon="0.897499">
        <ele>1874.676</ele>
        <time>2021-06-18T10:55:11Z</time>
      </trkpt>
      <trkpt lat="42.749793" lon="0.897486">
        <ele>1875.218</ele>
        <time>2021-06-18T10:55:12Z</time>
      </trkpt>
      <trkpt lat="42.749744" lon="0.897469">
        <ele>1875.998</ele>
        <time>2021-06-18T10:55:13Z</time>
      </trkpt>
      <trkpt lat="42.749636" lon="0.897423">
        <ele>1876.017</ele>
        <time>2021-06-18T10:55:15Z</time>
      </trkpt>
      <trkpt lat="42.749585" lon="0.897384">
        <ele>1875.408</ele>
        <time>2021-06-18T10:55:16Z</time>
      </trkpt>
      <trkpt lat="42.749544" lon="0.897332">
        <ele>1874.438</ele>
        <time>2021-06-18T10:55:17Z</time>
      </trkpt>
      <trkpt lat="42.749475" lon="0.897207">
        <ele>1870.977</ele>
        <time>2021-06-18T10:55:19Z</time>
      </trkpt>
      <trkpt lat="42.749436" lon="0.897142">
        <ele>1870.283</ele>
        <time>2021-06-18T10:55:20Z</time>
      </trkpt>
      <trkpt lat="42.749338" lon="0.897061">
        <ele>1868.997</ele>
        <time>2021-06-18T10:55:22Z</time>
      </trkpt>
      <trkpt lat="42.749284" lon="0.897064">
        <ele>1867.361</ele>
        <time>2021-06-18T10:55:23Z</time>
      </trkpt>
      <trkpt lat="42.749238" lon="0.897099">
        <ele>1865.961</ele>
        <time>2021-06-18T10:55:24Z</time>
      </trkpt>
      <trkpt lat="42.749206" lon="0.897157">
        <ele>1864.984</ele>
        <time>2021-06-18T10:55:25Z</time>
      </trkpt>
      <trkpt lat="42.749173" lon="0.897278">
        <ele>1864.351</ele>
        <time>2021-06-18T10:55:27Z</time>
      </trkpt>
      <trkpt lat="42.749114" lon="0.897381">
        <ele>1863.722</ele>
        <time>2021-06-18T10:55:29Z</time>
      </trkpt>
      <trkpt lat="42.749072" lon="0.897414">
        <ele>1863.162</ele>
        <time>2021-06-18T10:55:30Z</time>
      </trkpt>
      <trkpt lat="42.749023" lon="0.897427">
        <ele>1862.408</ele>
        <time>2021-06-18T10:55:31Z</time>
      </trkpt>
      <trkpt lat="42.748927" lon="0.897393">
        <ele>1860.508</ele>
        <time>2021-06-18T10:55:33Z</time>
      </trkpt>
      <trkpt lat="42.748892" lon="0.897289">
        <ele>1858.889</ele>
        <time>2021-06-18T10:55:35Z</time>
      </trkpt>
      <trkpt lat="42.748903" lon="0.897218">
        <ele>1858.348</ele>
        <time>2021-06-18T10:55:36Z</time>
      </trkpt>
      <trkpt lat="42.748944" lon="0.897084">
        <ele>1858.414</ele>
        <time>2021-06-18T10:55:38Z</time>
      </trkpt>
      <trkpt lat="42.748944" lon="0.896965">
        <ele>1857.798</ele>
        <time>2021-06-18T10:55:40Z</time>
      </trkpt>
      <trkpt lat="42.748933" lon="0.896911">
        <ele>1857.782</ele>
        <time>2021-06-18T10:55:41Z</time>
      </trkpt>
      <trkpt lat="42.748918" lon="0.896856">
        <ele>1857.872</ele>
        <time>2021-06-18T10:55:42Z</time>
      </trkpt>
      <trkpt lat="42.748860" lon="0.896748">
        <ele>1857.485</ele>
        <time>2021-06-18T10:55:44Z</time>
      </trkpt>
      <trkpt lat="42.748820" lon="0.896696">
        <ele>1857.082</ele>
        <time>2021-06-18T10:55:45Z</time>
      </trkpt>
      <trkpt lat="42.748728" lon="0.896608">
        <ele>1856.773</ele>
        <time>2021-06-18T10:55:47Z</time>
      </trkpt>
      <trkpt lat="42.748615" lon="0.896550">
        <ele>1855.185</ele>
        <time>2021-06-18T10:55:49Z</time>
      </trkpt>
      <trkpt lat="42.748502" lon="0.896529">
        <ele>1853.513</ele>
        <time>2021-06-18T10:55:51Z</time>
      </trkpt>
      <trkpt lat="42.748388" lon="0.896517">
        <ele>1851.808</ele>
        <time>2021-06-18T10:55:53Z</time>
      </trkpt>
      <trkpt lat="42.748330" lon="0.896505">
        <ele>1851.144</ele>
        <time>2021-06-18T10:55:54Z</time>
      </trkpt>
      <trkpt lat="42.748272" lon="0.896495">
        <ele>1851.433</ele>
        <time>2021-06-18T10:55:55Z</time>
      </trkpt>
      <trkpt lat="42.748103" lon="0.896543">
        <ele>1849.949</ele>
        <time>2021-06-18T10:55:58Z</time>
      </trkpt>
      <trkpt lat="42.748050" lon="0.896576">
        <ele>1848.713</ele>
        <time>2021-06-18T10:55:59Z</time>
      </trkpt>
      <trkpt lat="42.747944" lon="0.896654">
        <ele>1847.967</ele>
        <time>2021-06-18T10:56:01Z</time>
      </trkpt>
      <trkpt lat="42.747895" lon="0.896701">
        <ele>1847.577</ele>
        <time>2021-06-18T10:56:02Z</time>
      </trkpt>
      <trkpt lat="42.747846" lon="0.896748">
        <ele>1847.080</ele>
        <time>2021-06-18T10:56:03Z</time>
      </trkpt>
      <trkpt lat="42.747797" lon="0.896795">
        <ele>1846.137</ele>
        <time>2021-06-18T10:56:04Z</time>
      </trkpt>
      <trkpt lat="42.747702" lon="0.896894">
        <ele>1843.528</ele>
        <time>2021-06-18T10:56:06Z</time>
      </trkpt>
      <trkpt lat="42.747597" lon="0.896990">
        <ele>1841.789</ele>
        <time>2021-06-18T10:56:08Z</time>
      </trkpt>
      <trkpt lat="42.747543" lon="0.897032">
        <ele>1841.117</ele>
        <time>2021-06-18T10:56:09Z</time>
      </trkpt>
      <trkpt lat="42.747487" lon="0.897059">
        <ele>1840.608</ele>
        <time>2021-06-18T10:56:10Z</time>
      </trkpt>
      <trkpt lat="42.747374" lon="0.897064">
        <ele>1839.639</ele>
        <time>2021-06-18T10:56:12Z</time>
      </trkpt>
      <trkpt lat="42.747264" lon="0.897034">
        <ele>1839.428</ele>
        <time>2021-06-18T10:56:14Z</time>
      </trkpt>
      <trkpt lat="42.747209" lon="0.897019">
        <ele>1839.364</ele>
        <time>2021-06-18T10:56:15Z</time>
      </trkpt>
      <trkpt lat="42.746981" lon="0.896979">
        <ele>1838.658</ele>
        <time>2021-06-18T10:56:19Z</time>
      </trkpt>
      <trkpt lat="42.746867" lon="0.896964">
        <ele>1838.152</ele>
        <time>2021-06-18T10:56:21Z</time>
      </trkpt>
      <trkpt lat="42.746760" lon="0.896916">
        <ele>1838.352</ele>
        <time>2021-06-18T10:56:23Z</time>
      </trkpt>
      <trkpt lat="42.746577" lon="0.896807">
        <ele>1842.175</ele>
        <time>2021-06-18T10:56:27Z</time>
      </trkpt>
      <trkpt lat="42.746477" lon="0.896924">
        <ele>1842.292</ele>
        <time>2021-06-18T10:56:30Z</time>
      </trkpt>
      <trkpt lat="42.746447" lon="0.897061">
        <ele>1840.053</ele>
        <time>2021-06-18T10:56:32Z</time>
      </trkpt>
      <trkpt lat="42.746371" lon="0.897331">
        <ele>1836.504</ele>
        <time>2021-06-18T10:56:36Z</time>
      </trkpt>
      <trkpt lat="42.746342" lon="0.897389">
        <ele>1836.214</ele>
        <time>2021-06-18T10:56:37Z</time>
      </trkpt>
      <trkpt lat="42.746262" lon="0.897569">
        <ele>1834.608</ele>
        <time>2021-06-18T10:56:41Z</time>
      </trkpt>
      <trkpt lat="42.746261" lon="0.897588">
        <ele>1834.362</ele>
        <time>2021-06-18T10:56:44Z</time>
      </trkpt>
      <trkpt lat="42.746231" lon="0.897603">
        <ele>1834.731</ele>
        <time>2021-06-18T10:58:49Z</time>
      </trkpt>
      <trkpt lat="42.746194" lon="0.897646">
        <ele>1834.767</ele>
        <time>2021-06-18T10:58:51Z</time>
      </trkpt>
      <trkpt lat="42.746064" lon="0.897856">
        <ele>1833.581</ele>
        <time>2021-06-18T10:58:56Z</time>
      </trkpt>
      <trkpt lat="42.745997" lon="0.897967">
        <ele>1832.595</ele>
        <time>2021-06-18T10:58:58Z</time>
      </trkpt>
      <trkpt lat="42.745955" lon="0.898018">
        <ele>1832.185</ele>
        <time>2021-06-18T10:58:59Z</time>
      </trkpt>
      <trkpt lat="42.745854" lon="0.898103">
        <ele>1831.548</ele>
        <time>2021-06-18T10:59:01Z</time>
      </trkpt>
      <trkpt lat="42.745739" lon="0.898171">
        <ele>1831.025</ele>
        <time>2021-06-18T10:59:03Z</time>
      </trkpt>
      <trkpt lat="42.745679" lon="0.898198">
        <ele>1830.891</ele>
        <time>2021-06-18T10:59:04Z</time>
      </trkpt>
      <trkpt lat="42.745559" lon="0.898265">
        <ele>1829.981</ele>
        <time>2021-06-18T10:59:06Z</time>
      </trkpt>
      <trkpt lat="42.745377" lon="0.898398">
        <ele>1830.019</ele>
        <time>2021-06-18T10:59:09Z</time>
      </trkpt>
      <trkpt lat="42.745198" lon="0.898583">
        <ele>1829.708</ele>
        <time>2021-06-18T10:59:12Z</time>
      </trkpt>
      <trkpt lat="42.745094" lon="0.898748">
        <ele>1829.046</ele>
        <time>2021-06-18T10:59:14Z</time>
      </trkpt>
      <trkpt lat="42.744998" lon="0.898930">
        <ele>1827.055</ele>
        <time>2021-06-18T10:59:16Z</time>
      </trkpt>
      <trkpt lat="42.744915" lon="0.899108">
        <ele>1825.881</ele>
        <time>2021-06-18T10:59:18Z</time>
      </trkpt>
      <trkpt lat="42.744873" lon="0.899193">
        <ele>1825.175</ele>
        <time>2021-06-18T10:59:19Z</time>
      </trkpt>
      <trkpt lat="42.744776" lon="0.899350">
        <ele>1823.369</ele>
        <time>2021-06-18T10:59:21Z</time>
      </trkpt>
      <trkpt lat="42.744676" lon="0.899500">
        <ele>1821.019</ele>
        <time>2021-06-18T10:59:23Z</time>
      </trkpt>
      <trkpt lat="42.744630" lon="0.899579">
        <ele>1819.672</ele>
        <time>2021-06-18T10:59:24Z</time>
      </trkpt>
      <trkpt lat="42.744591" lon="0.899664">
        <ele>1818.439</ele>
        <time>2021-06-18T10:59:25Z</time>
      </trkpt>
      <trkpt lat="42.744522" lon="0.899830">
        <ele>1818.666</ele>
        <time>2021-06-18T10:59:27Z</time>
      </trkpt>
      <trkpt lat="42.744486" lon="0.899897">
        <ele>1819.429</ele>
        <time>2021-06-18T10:59:28Z</time>
      </trkpt>
      <trkpt lat="42.744403" lon="0.899988">
        <ele>1819.521</ele>
        <time>2021-06-18T10:59:30Z</time>
      </trkpt>
      <trkpt lat="42.744236" lon="0.900039">
        <ele>1817.208</ele>
        <time>2021-06-18T10:59:33Z</time>
      </trkpt>
      <trkpt lat="42.744180" lon="0.900032">
        <ele>1816.543</ele>
        <time>2021-06-18T10:59:34Z</time>
      </trkpt>
      <trkpt lat="42.744124" lon="0.900019">
        <ele>1815.722</ele>
        <time>2021-06-18T10:59:35Z</time>
      </trkpt>
      <trkpt lat="42.743932" lon="0.900010">
        <ele>1813.568</ele>
        <time>2021-06-18T10:59:38Z</time>
      </trkpt>
      <trkpt lat="42.743865" lon="0.900033">
        <ele>1812.852</ele>
        <time>2021-06-18T10:59:39Z</time>
      </trkpt>
      <trkpt lat="42.743734" lon="0.900079">
        <ele>1811.326</ele>
        <time>2021-06-18T10:59:41Z</time>
      </trkpt>
      <trkpt lat="42.743674" lon="0.900091">
        <ele>1810.436</ele>
        <time>2021-06-18T10:59:42Z</time>
      </trkpt>
      <trkpt lat="42.743619" lon="0.900101">
        <ele>1809.519</ele>
        <time>2021-06-18T10:59:43Z</time>
      </trkpt>
      <trkpt lat="42.743518" lon="0.900128">
        <ele>1808.216</ele>
        <time>2021-06-18T10:59:45Z</time>
      </trkpt>
      <trkpt lat="42.743439" lon="0.900146">
        <ele>1807.576</ele>
        <time>2021-06-18T10:59:47Z</time>
      </trkpt>
      <trkpt lat="42.743280" lon="0.900208">
        <ele>1805.790</ele>
        <time>2021-06-18T10:59:50Z</time>
      </trkpt>
      <trkpt lat="42.743217" lon="0.900238">
        <ele>1805.219</ele>
        <time>2021-06-18T10:59:51Z</time>
      </trkpt>
      <trkpt lat="42.742951" lon="0.900378">
        <ele>1801.008</ele>
        <time>2021-06-18T10:59:55Z</time>
      </trkpt>
      <trkpt lat="42.742814" lon="0.900424">
        <ele>1799.214</ele>
        <time>2021-06-18T10:59:57Z</time>
      </trkpt>
      <trkpt lat="42.742673" lon="0.900456">
        <ele>1797.813</ele>
        <time>2021-06-18T10:59:59Z</time>
      </trkpt>
      <trkpt lat="42.742523" lon="0.900480">
        <ele>1796.619</ele>
        <time>2021-06-18T11:00:01Z</time>
      </trkpt>
      <trkpt lat="42.742374" lon="0.900486">
        <ele>1795.753</ele>
        <time>2021-06-18T11:00:03Z</time>
      </trkpt>
      <trkpt lat="42.742234" lon="0.900485">
        <ele>1795.157</ele>
        <time>2021-06-18T11:00:05Z</time>
      </trkpt>
      <trkpt lat="42.742103" lon="0.900512">
        <ele>1795.327</ele>
        <time>2021-06-18T11:00:07Z</time>
      </trkpt>
      <trkpt lat="42.742041" lon="0.900548">
        <ele>1794.190</ele>
        <time>2021-06-18T11:00:08Z</time>
      </trkpt>
      <trkpt lat="42.741931" lon="0.900655">
        <ele>1791.967</ele>
        <time>2021-06-18T11:00:10Z</time>
      </trkpt>
      <trkpt lat="42.741888" lon="0.900720">
        <ele>1790.938</ele>
        <time>2021-06-18T11:00:11Z</time>
      </trkpt>
      <trkpt lat="42.741851" lon="0.900790">
        <ele>1789.670</ele>
        <time>2021-06-18T11:00:12Z</time>
      </trkpt>
      <trkpt lat="42.741815" lon="0.900858">
        <ele>1788.317</ele>
        <time>2021-06-18T11:00:13Z</time>
      </trkpt>
      <trkpt lat="42.741732" lon="0.900978">
        <ele>1786.408</ele>
        <time>2021-06-18T11:00:15Z</time>
      </trkpt>
      <trkpt lat="42.741678" lon="0.901025">
        <ele>1786.130</ele>
        <time>2021-06-18T11:00:16Z</time>
      </trkpt>
      <trkpt lat="42.741621" lon="0.901066">
        <ele>1785.299</ele>
        <time>2021-06-18T11:00:17Z</time>
      </trkpt>
      <trkpt lat="42.741510" lon="0.901144">
        <ele>1782.875</ele>
        <time>2021-06-18T11:00:19Z</time>
      </trkpt>
      <trkpt lat="42.741395" lon="0.901206">
        <ele>1780.979</ele>
        <time>2021-06-18T11:00:21Z</time>
      </trkpt>
      <trkpt lat="42.741336" lon="0.901226">
        <ele>1780.523</ele>
        <time>2021-06-18T11:00:22Z</time>
      </trkpt>
      <trkpt lat="42.741217" lon="0.901244">
        <ele>1780.863</ele>
        <time>2021-06-18T11:00:24Z</time>
      </trkpt>
      <trkpt lat="42.741161" lon="0.901255">
        <ele>1780.886</ele>
        <time>2021-06-18T11:00:25Z</time>
      </trkpt>
      <trkpt lat="42.741114" lon="0.901275">
        <ele>1780.553</ele>
        <time>2021-06-18T11:00:26Z</time>
      </trkpt>
      <trkpt lat="42.741086" lon="0.901313">
        <ele>1779.512</ele>
        <time>2021-06-18T11:00:27Z</time>
      </trkpt>
      <trkpt lat="42.741081" lon="0.901359">
        <ele>1777.632</ele>
        <time>2021-06-18T11:00:28Z</time>
      </trkpt>
      <trkpt lat="42.741104" lon="0.901404">
        <ele>1775.305</ele>
        <time>2021-06-18T11:00:29Z</time>
      </trkpt>
      <trkpt lat="42.741143" lon="0.901434">
        <ele>1773.408</ele>
        <time>2021-06-18T11:00:30Z</time>
      </trkpt>
      <trkpt lat="42.741194" lon="0.901442">
        <ele>1772.588</ele>
        <time>2021-06-18T11:00:31Z</time>
      </trkpt>
      <trkpt lat="42.741304" lon="0.901412">
        <ele>1772.947</ele>
        <time>2021-06-18T11:00:33Z</time>
      </trkpt>
      <trkpt lat="42.741365" lon="0.901402">
        <ele>1772.793</ele>
        <time>2021-06-18T11:00:34Z</time>
      </trkpt>
      <trkpt lat="42.741566" lon="0.901431">
        <ele>1770.527</ele>
        <time>2021-06-18T11:00:37Z</time>
      </trkpt>
      <trkpt lat="42.741700" lon="0.901460">
        <ele>1768.411</ele>
        <time>2021-06-18T11:00:39Z</time>
      </trkpt>
      <trkpt lat="42.741836" lon="0.901457">
        <ele>1766.381</ele>
        <time>2021-06-18T11:00:41Z</time>
      </trkpt>
      <trkpt lat="42.741901" lon="0.901442">
        <ele>1765.894</ele>
        <time>2021-06-18T11:00:42Z</time>
      </trkpt>
      <trkpt lat="42.741964" lon="0.901410">
        <ele>1765.931</ele>
        <time>2021-06-18T11:00:43Z</time>
      </trkpt>
      <trkpt lat="42.742072" lon="0.901322">
        <ele>1766.724</ele>
        <time>2021-06-18T11:00:45Z</time>
      </trkpt>
      <trkpt lat="42.742123" lon="0.901289">
        <ele>1766.604</ele>
        <time>2021-06-18T11:00:46Z</time>
      </trkpt>
      <trkpt lat="42.742174" lon="0.901281">
        <ele>1765.714</ele>
        <time>2021-06-18T11:00:47Z</time>
      </trkpt>
      <trkpt lat="42.742220" lon="0.901300">
        <ele>1764.308</ele>
        <time>2021-06-18T11:00:48Z</time>
      </trkpt>
      <trkpt lat="42.742250" lon="0.901349">
        <ele>1763.419</ele>
        <time>2021-06-18T11:00:49Z</time>
      </trkpt>
      <trkpt lat="42.742257" lon="0.901415">
        <ele>1762.038</ele>
        <time>2021-06-18T11:00:50Z</time>
      </trkpt>
      <trkpt lat="42.742233" lon="0.901478">
        <ele>1760.384</ele>
        <time>2021-06-18T11:00:51Z</time>
      </trkpt>
      <trkpt lat="42.742186" lon="0.901525">
        <ele>1759.548</ele>
        <time>2021-06-18T11:00:52Z</time>
      </trkpt>
      <trkpt lat="42.742126" lon="0.901558">
        <ele>1759.282</ele>
        <time>2021-06-18T11:00:53Z</time>
      </trkpt>
      <trkpt lat="42.742004" lon="0.901614">
        <ele>1758.582</ele>
        <time>2021-06-18T11:00:55Z</time>
      </trkpt>
      <trkpt lat="42.741946" lon="0.901650">
        <ele>1757.665</ele>
        <time>2021-06-18T11:00:56Z</time>
      </trkpt>
      <trkpt lat="42.741836" lon="0.901738">
        <ele>1755.432</ele>
        <time>2021-06-18T11:00:58Z</time>
      </trkpt>
      <trkpt lat="42.741782" lon="0.901781">
        <ele>1754.525</ele>
        <time>2021-06-18T11:00:59Z</time>
      </trkpt>
      <trkpt lat="42.741662" lon="0.901849">
        <ele>1753.426</ele>
        <time>2021-06-18T11:01:01Z</time>
      </trkpt>
      <trkpt lat="42.741599" lon="0.901873">
        <ele>1752.608</ele>
        <time>2021-06-18T11:01:02Z</time>
      </trkpt>
      <trkpt lat="42.741472" lon="0.901906">
        <ele>1751.508</ele>
        <time>2021-06-18T11:01:04Z</time>
      </trkpt>
      <trkpt lat="42.741271" lon="0.901960">
        <ele>1749.469</ele>
        <time>2021-06-18T11:01:07Z</time>
      </trkpt>
      <trkpt lat="42.741137" lon="0.901990">
        <ele>1748.228</ele>
        <time>2021-06-18T11:01:09Z</time>
      </trkpt>
      <trkpt lat="42.740994" lon="0.902034">
        <ele>1747.014</ele>
        <time>2021-06-18T11:01:11Z</time>
      </trkpt>
      <trkpt lat="42.740920" lon="0.902059">
        <ele>1746.398</ele>
        <time>2021-06-18T11:01:12Z</time>
      </trkpt>
      <trkpt lat="42.740844" lon="0.902075">
        <ele>1745.872</ele>
        <time>2021-06-18T11:01:13Z</time>
      </trkpt>
      <trkpt lat="42.740688" lon="0.902119">
        <ele>1745.712</ele>
        <time>2021-06-18T11:01:15Z</time>
      </trkpt>
      <trkpt lat="42.740613" lon="0.902162">
        <ele>1744.855</ele>
        <time>2021-06-18T11:01:16Z</time>
      </trkpt>
      <trkpt lat="42.740544" lon="0.902219">
        <ele>1743.522</ele>
        <time>2021-06-18T11:01:17Z</time>
      </trkpt>
      <trkpt lat="42.740478" lon="0.902283">
        <ele>1743.012</ele>
        <time>2021-06-18T11:01:18Z</time>
      </trkpt>
      <trkpt lat="42.740413" lon="0.902340">
        <ele>1742.532</ele>
        <time>2021-06-18T11:01:19Z</time>
      </trkpt>
      <trkpt lat="42.740352" lon="0.902386">
        <ele>1742.205</ele>
        <time>2021-06-18T11:01:20Z</time>
      </trkpt>
      <trkpt lat="42.740296" lon="0.902418">
        <ele>1742.308</ele>
        <time>2021-06-18T11:01:21Z</time>
      </trkpt>
      <trkpt lat="42.740192" lon="0.902450">
        <ele>1741.328</ele>
        <time>2021-06-18T11:01:23Z</time>
      </trkpt>
      <trkpt lat="42.740137" lon="0.902449">
        <ele>1741.437</ele>
        <time>2021-06-18T11:01:24Z</time>
      </trkpt>
      <trkpt lat="42.740081" lon="0.902443">
        <ele>1741.733</ele>
        <time>2021-06-18T11:01:25Z</time>
      </trkpt>
      <trkpt lat="42.740022" lon="0.902443">
        <ele>1741.727</ele>
        <time>2021-06-18T11:01:26Z</time>
      </trkpt>
      <trkpt lat="42.739852" lon="0.902501">
        <ele>1741.121</ele>
        <time>2021-06-18T11:01:29Z</time>
      </trkpt>
      <trkpt lat="42.739808" lon="0.902524">
        <ele>1740.681</ele>
        <time>2021-06-18T11:01:30Z</time>
      </trkpt>
      <trkpt lat="42.739758" lon="0.902554">
        <ele>1739.824</ele>
        <time>2021-06-18T11:01:32Z</time>
      </trkpt>
      <trkpt lat="42.739752" lon="0.902559">
        <ele>1739.621</ele>
        <time>2021-06-18T11:01:34Z</time>
      </trkpt>
      <trkpt lat="42.739731" lon="0.902562">
        <ele>1739.861</ele>
        <time>2021-06-18T11:03:28Z</time>
      </trkpt>
      <trkpt lat="42.739609" lon="0.902577">
        <ele>1739.521</ele>
        <time>2021-06-18T11:03:33Z</time>
      </trkpt>
      <trkpt lat="42.739460" lon="0.902572">
        <ele>1740.313</ele>
        <time>2021-06-18T11:03:37Z</time>
      </trkpt>
      <trkpt lat="42.739418" lon="0.902574">
        <ele>1740.108</ele>
        <time>2021-06-18T11:03:38Z</time>
      </trkpt>
      <trkpt lat="42.739376" lon="0.902573">
        <ele>1739.853</ele>
        <time>2021-06-18T11:03:39Z</time>
      </trkpt>
      <trkpt lat="42.739287" lon="0.902560">
        <ele>1739.872</ele>
        <time>2021-06-18T11:03:41Z</time>
      </trkpt>
      <trkpt lat="42.739142" lon="0.902530">
        <ele>1740.458</ele>
        <time>2021-06-18T11:03:44Z</time>
      </trkpt>
      <trkpt lat="42.739044" lon="0.902525">
        <ele>1740.242</ele>
        <time>2021-06-18T11:03:46Z</time>
      </trkpt>
      <trkpt lat="42.738894" lon="0.902532">
        <ele>1739.276</ele>
        <time>2021-06-18T11:03:49Z</time>
      </trkpt>
      <trkpt lat="42.738843" lon="0.902537">
        <ele>1738.716</ele>
        <time>2021-06-18T11:03:50Z</time>
      </trkpt>
      <trkpt lat="42.738796" lon="0.902540">
        <ele>1738.469</ele>
        <time>2021-06-18T11:03:51Z</time>
      </trkpt>
      <trkpt lat="42.738657" lon="0.902536">
        <ele>1738.196</ele>
        <time>2021-06-18T11:03:54Z</time>
      </trkpt>
      <trkpt lat="42.738570" lon="0.902502">
        <ele>1739.024</ele>
        <time>2021-06-18T11:03:56Z</time>
      </trkpt>
      <trkpt lat="42.738430" lon="0.902440">
        <ele>1739.304</ele>
        <time>2021-06-18T11:03:59Z</time>
      </trkpt>
      <trkpt lat="42.738057" lon="0.902290">
        <ele>1737.614</ele>
        <time>2021-06-18T11:04:06Z</time>
      </trkpt>
      <trkpt lat="42.737902" lon="0.902203">
        <ele>1736.408</ele>
        <time>2021-06-18T11:04:09Z</time>
      </trkpt>
      <trkpt lat="42.737813" lon="0.902120">
        <ele>1736.859</ele>
        <time>2021-06-18T11:04:11Z</time>
      </trkpt>
      <trkpt lat="42.737681" lon="0.902023">
        <ele>1739.938</ele>
        <time>2021-06-18T11:04:15Z</time>
      </trkpt>
      <trkpt lat="42.737623" lon="0.902021">
        <ele>1740.194</ele>
        <time>2021-06-18T11:04:17Z</time>
      </trkpt>
      <trkpt lat="42.737561" lon="0.902058">
        <ele>1738.698</ele>
        <time>2021-06-18T11:04:19Z</time>
      </trkpt>
      <trkpt lat="42.737483" lon="0.902113">
        <ele>1736.072</ele>
        <time>2021-06-18T11:04:21Z</time>
      </trkpt>
      <trkpt lat="42.737392" lon="0.902128">
        <ele>1735.042</ele>
        <time>2021-06-18T11:04:23Z</time>
      </trkpt>
      <trkpt lat="42.737252" lon="0.902088">
        <ele>1736.425</ele>
        <time>2021-06-18T11:04:27Z</time>
      </trkpt>
      <trkpt lat="42.737168" lon="0.902074">
        <ele>1737.242</ele>
        <time>2021-06-18T11:04:29Z</time>
      </trkpt>
      <trkpt lat="42.737045" lon="0.902096">
        <ele>1736.994</ele>
        <time>2021-06-18T11:04:32Z</time>
      </trkpt>
      <trkpt lat="42.737002" lon="0.902105">
        <ele>1736.757</ele>
        <time>2021-06-18T11:04:33Z</time>
      </trkpt>
      <trkpt lat="42.736807" lon="0.902146">
        <ele>1735.222</ele>
        <time>2021-06-18T11:04:37Z</time>
      </trkpt>
      <trkpt lat="42.736561" lon="0.902128">
        <ele>1733.708</ele>
        <time>2021-06-18T11:04:42Z</time>
      </trkpt>
      <trkpt lat="42.736394" lon="0.902025">
        <ele>1734.256</ele>
        <time>2021-06-18T11:04:46Z</time>
      </trkpt>
      <trkpt lat="42.736314" lon="0.901968">
        <ele>1735.875</ele>
        <time>2021-06-18T11:04:48Z</time>
      </trkpt>
      <trkpt lat="42.736228" lon="0.901924">
        <ele>1737.361</ele>
        <time>2021-06-18T11:04:50Z</time>
      </trkpt>
      <trkpt lat="42.736185" lon="0.901918">
        <ele>1737.455</ele>
        <time>2021-06-18T11:04:51Z</time>
      </trkpt>
      <trkpt lat="42.736078" lon="0.901982">
        <ele>1734.279</ele>
        <time>2021-06-18T11:04:54Z</time>
      </trkpt>
      <trkpt lat="42.735915" lon="0.902049">
        <ele>1730.879</ele>
        <time>2021-06-18T11:04:58Z</time>
      </trkpt>
      <trkpt lat="42.735700" lon="0.901953">
        <ele>1731.822</ele>
        <time>2021-06-18T11:05:02Z</time>
      </trkpt>
      <trkpt lat="42.735525" lon="0.901885">
        <ele>1729.389</ele>
        <time>2021-06-18T11:05:05Z</time>
      </trkpt>
      <trkpt lat="42.735417" lon="0.901916">
        <ele>1726.386</ele>
        <time>2021-06-18T11:05:07Z</time>
      </trkpt>
      <trkpt lat="42.735370" lon="0.901913">
        <ele>1725.560</ele>
        <time>2021-06-18T11:05:08Z</time>
      </trkpt>
      <trkpt lat="42.735325" lon="0.901887">
        <ele>1725.226</ele>
        <time>2021-06-18T11:05:09Z</time>
      </trkpt>
      <trkpt lat="42.735251" lon="0.901768">
        <ele>1725.908</ele>
        <time>2021-06-18T11:05:11Z</time>
      </trkpt>
      <trkpt lat="42.735179" lon="0.901638">
        <ele>1726.835</ele>
        <time>2021-06-18T11:05:13Z</time>
      </trkpt>
      <trkpt lat="42.735140" lon="0.901581">
        <ele>1727.384</ele>
        <time>2021-06-18T11:05:14Z</time>
      </trkpt>
      <trkpt lat="42.735055" lon="0.901505">
        <ele>1726.770</ele>
        <time>2021-06-18T11:05:16Z</time>
      </trkpt>
      <trkpt lat="42.735012" lon="0.901499">
        <ele>1725.394</ele>
        <time>2021-06-18T11:05:17Z</time>
      </trkpt>
      <trkpt lat="42.734947" lon="0.901555">
        <ele>1726.128</ele>
        <time>2021-06-18T11:05:19Z</time>
      </trkpt>
      <trkpt lat="42.734940" lon="0.901619">
        <ele>1724.858</ele>
        <time>2021-06-18T11:05:20Z</time>
      </trkpt>
      <trkpt lat="42.734940" lon="0.901693">
        <ele>1722.741</ele>
        <time>2021-06-18T11:05:21Z</time>
      </trkpt>
      <trkpt lat="42.734934" lon="0.901767">
        <ele>1720.758</ele>
        <time>2021-06-18T11:05:22Z</time>
      </trkpt>
      <trkpt lat="42.734918" lon="0.901838">
        <ele>1719.452</ele>
        <time>2021-06-18T11:05:23Z</time>
      </trkpt>
      <trkpt lat="42.734868" lon="0.901987">
        <ele>1717.453</ele>
        <time>2021-06-18T11:05:25Z</time>
      </trkpt>
      <trkpt lat="42.734833" lon="0.902059">
        <ele>1716.908</ele>
        <time>2021-06-18T11:05:26Z</time>
      </trkpt>
      <trkpt lat="42.734795" lon="0.902120">
        <ele>1716.808</ele>
        <time>2021-06-18T11:05:27Z</time>
      </trkpt>
      <trkpt lat="42.734727" lon="0.902221">
        <ele>1716.882</ele>
        <time>2021-06-18T11:05:29Z</time>
      </trkpt>
      <trkpt lat="42.734710" lon="0.902272">
        <ele>1716.091</ele>
        <time>2021-06-18T11:05:30Z</time>
      </trkpt>
      <trkpt lat="42.734701" lon="0.902332">
        <ele>1714.677</ele>
        <time>2021-06-18T11:05:31Z</time>
      </trkpt>
      <trkpt lat="42.734682" lon="0.902397">
        <ele>1713.561</ele>
        <time>2021-06-18T11:05:32Z</time>
      </trkpt>
      <trkpt lat="42.734652" lon="0.902462">
        <ele>1712.725</ele>
        <time>2021-06-18T11:05:33Z</time>
      </trkpt>
      <trkpt lat="42.734614" lon="0.902531">
        <ele>1711.855</ele>
        <time>2021-06-18T11:05:34Z</time>
      </trkpt>
      <trkpt lat="42.734575" lon="0.902599">
        <ele>1710.778</ele>
        <time>2021-06-18T11:05:35Z</time>
      </trkpt>
      <trkpt lat="42.734533" lon="0.902665">
        <ele>1709.415</ele>
        <time>2021-06-18T11:05:36Z</time>
      </trkpt>
      <trkpt lat="42.734429" lon="0.902745">
        <ele>1708.185</ele>
        <time>2021-06-18T11:05:38Z</time>
      </trkpt>
      <trkpt lat="42.734372" lon="0.902751">
        <ele>1706.989</ele>
        <time>2021-06-18T11:05:39Z</time>
      </trkpt>
      <trkpt lat="42.734248" lon="0.902714">
        <ele>1706.417</ele>
        <time>2021-06-18T11:05:41Z</time>
      </trkpt>
      <trkpt lat="42.734185" lon="0.902684">
        <ele>1706.708</ele>
        <time>2021-06-18T11:05:42Z</time>
      </trkpt>
      <trkpt lat="42.734123" lon="0.902651">
        <ele>1708.525</ele>
        <time>2021-06-18T11:05:43Z</time>
      </trkpt>
      <trkpt lat="42.734066" lon="0.902622">
        <ele>1710.114</ele>
        <time>2021-06-18T11:05:44Z</time>
      </trkpt>
      <trkpt lat="42.734022" lon="0.902612">
        <ele>1710.640</ele>
        <time>2021-06-18T11:05:45Z</time>
      </trkpt>
      <trkpt lat="42.733985" lon="0.902612">
        <ele>1710.814</ele>
        <time>2021-06-18T11:05:46Z</time>
      </trkpt>
      <trkpt lat="42.733953" lon="0.902627">
        <ele>1710.938</ele>
        <time>2021-06-18T11:05:47Z</time>
      </trkpt>
      <trkpt lat="42.733936" lon="0.902659">
        <ele>1710.978</ele>
        <time>2021-06-18T11:05:48Z</time>
      </trkpt>
      <trkpt lat="42.733938" lon="0.902708">
        <ele>1710.681</ele>
        <time>2021-06-18T11:05:49Z</time>
      </trkpt>
      <trkpt lat="42.733950" lon="0.902766">
        <ele>1709.948</ele>
        <time>2021-06-18T11:05:50Z</time>
      </trkpt>
      <trkpt lat="42.733996" lon="0.902893">
        <ele>1709.011</ele>
        <time>2021-06-18T11:05:52Z</time>
      </trkpt>
      <trkpt lat="42.734027" lon="0.902962">
        <ele>1707.721</ele>
        <time>2021-06-18T11:05:53Z</time>
      </trkpt>
      <trkpt lat="42.734061" lon="0.903034">
        <ele>1705.603</ele>
        <time>2021-06-18T11:05:54Z</time>
      </trkpt>
      <trkpt lat="42.734091" lon="0.903111">
        <ele>1703.808</ele>
        <time>2021-06-18T11:05:55Z</time>
      </trkpt>
      <trkpt lat="42.734118" lon="0.903278">
        <ele>1703.088</ele>
        <time>2021-06-18T11:05:57Z</time>
      </trkpt>
      <trkpt lat="42.734136" lon="0.903363">
        <ele>1702.747</ele>
        <time>2021-06-18T11:05:58Z</time>
      </trkpt>
      <trkpt lat="42.734170" lon="0.903442">
        <ele>1702.253</ele>
        <time>2021-06-18T11:05:59Z</time>
      </trkpt>
      <trkpt lat="42.734215" lon="0.903516">
        <ele>1701.377</ele>
        <time>2021-06-18T11:06:00Z</time>
      </trkpt>
      <trkpt lat="42.734265" lon="0.903585">
        <ele>1700.151</ele>
        <time>2021-06-18T11:06:01Z</time>
      </trkpt>
      <trkpt lat="42.734366" lon="0.903719">
        <ele>1698.821</ele>
        <time>2021-06-18T11:06:03Z</time>
      </trkpt>
      <trkpt lat="42.734466" lon="0.903829">
        <ele>1697.714</ele>
        <time>2021-06-18T11:06:05Z</time>
      </trkpt>
      <trkpt lat="42.734515" lon="0.903876">
        <ele>1697.051</ele>
        <time>2021-06-18T11:06:06Z</time>
      </trkpt>
      <trkpt lat="42.734553" lon="0.903933">
        <ele>1695.528</ele>
        <time>2021-06-18T11:06:07Z</time>
      </trkpt>
      <trkpt lat="42.734581" lon="0.904088">
        <ele>1694.189</ele>
        <time>2021-06-18T11:06:09Z</time>
      </trkpt>
      <trkpt lat="42.734563" lon="0.904367">
        <ele>1692.717</ele>
        <time>2021-06-18T11:06:12Z</time>
      </trkpt>
      <trkpt lat="42.734563" lon="0.904459">
        <ele>1691.708</ele>
        <time>2021-06-18T11:06:13Z</time>
      </trkpt>
      <trkpt lat="42.734573" lon="0.904544">
        <ele>1691.159</ele>
        <time>2021-06-18T11:06:14Z</time>
      </trkpt>
      <trkpt lat="42.734612" lon="0.904704">
        <ele>1688.958</ele>
        <time>2021-06-18T11:06:16Z</time>
      </trkpt>
      <trkpt lat="42.734645" lon="0.904778">
        <ele>1686.564</ele>
        <time>2021-06-18T11:06:17Z</time>
      </trkpt>
      <trkpt lat="42.734667" lon="0.904857">
        <ele>1684.578</ele>
        <time>2021-06-18T11:06:18Z</time>
      </trkpt>
      <trkpt lat="42.734664" lon="0.904934">
        <ele>1683.822</ele>
        <time>2021-06-18T11:06:19Z</time>
      </trkpt>
      <trkpt lat="42.734636" lon="0.905006">
        <ele>1684.082</ele>
        <time>2021-06-18T11:06:20Z</time>
      </trkpt>
      <trkpt lat="42.734537" lon="0.905087">
        <ele>1685.585</ele>
        <time>2021-06-18T11:06:22Z</time>
      </trkpt>
      <trkpt lat="42.734485" lon="0.905120">
        <ele>1686.582</ele>
        <time>2021-06-18T11:06:23Z</time>
      </trkpt>
      <trkpt lat="42.734454" lon="0.905216">
        <ele>1685.272</ele>
        <time>2021-06-18T11:06:25Z</time>
      </trkpt>
      <trkpt lat="42.734522" lon="0.905261">
        <ele>1681.613</ele>
        <time>2021-06-18T11:06:27Z</time>
      </trkpt>
      <trkpt lat="42.734569" lon="0.905236">
        <ele>1680.614</ele>
        <time>2021-06-18T11:06:28Z</time>
      </trkpt>
      <trkpt lat="42.734618" lon="0.905195">
        <ele>1679.808</ele>
        <time>2021-06-18T11:06:29Z</time>
      </trkpt>
      <trkpt lat="42.734666" lon="0.905148">
        <ele>1679.364</ele>
        <time>2021-06-18T11:06:30Z</time>
      </trkpt>
      <trkpt lat="42.734757" lon="0.905030">
        <ele>1678.793</ele>
        <time>2021-06-18T11:06:32Z</time>
      </trkpt>
      <trkpt lat="42.734810" lon="0.904878">
        <ele>1677.739</ele>
        <time>2021-06-18T11:06:34Z</time>
      </trkpt>
      <trkpt lat="42.734813" lon="0.904802">
        <ele>1677.813</ele>
        <time>2021-06-18T11:06:35Z</time>
      </trkpt>
      <trkpt lat="42.734797" lon="0.904674">
        <ele>1678.867</ele>
        <time>2021-06-18T11:06:37Z</time>
      </trkpt>
      <trkpt lat="42.734823" lon="0.904546">
        <ele>1677.227</ele>
        <time>2021-06-18T11:06:39Z</time>
      </trkpt>
      <trkpt lat="42.734858" lon="0.904487">
        <ele>1675.290</ele>
        <time>2021-06-18T11:06:40Z</time>
      </trkpt>
      <trkpt lat="42.734891" lon="0.904424">
        <ele>1673.747</ele>
        <time>2021-06-18T11:06:41Z</time>
      </trkpt>
      <trkpt lat="42.734933" lon="0.904269">
        <ele>1672.621</ele>
        <time>2021-06-18T11:06:43Z</time>
      </trkpt>
      <trkpt lat="42.734920" lon="0.904020">
        <ele>1673.141</ele>
        <time>2021-06-18T11:06:46Z</time>
      </trkpt>
      <trkpt lat="42.734912" lon="0.903932">
        <ele>1673.005</ele>
        <time>2021-06-18T11:06:47Z</time>
      </trkpt>
      <trkpt lat="42.734899" lon="0.903842">
        <ele>1673.008</ele>
        <time>2021-06-18T11:06:48Z</time>
      </trkpt>
      <trkpt lat="42.734849" lon="0.903635">
        <ele>1672.069</ele>
        <time>2021-06-18T11:06:51Z</time>
      </trkpt>
      <trkpt lat="42.734872" lon="0.903540">
        <ele>1672.388</ele>
        <time>2021-06-18T11:06:53Z</time>
      </trkpt>
      <trkpt lat="42.734904" lon="0.903516">
        <ele>1671.884</ele>
        <time>2021-06-18T11:06:54Z</time>
      </trkpt>
      <trkpt lat="42.734946" lon="0.903503">
        <ele>1670.858</ele>
        <time>2021-06-18T11:06:55Z</time>
      </trkpt>
      <trkpt lat="42.735047" lon="0.903494">
        <ele>1669.752</ele>
        <time>2021-06-18T11:06:57Z</time>
      </trkpt>
      <trkpt lat="42.735100" lon="0.903506">
        <ele>1669.752</ele>
        <time>2021-06-18T11:06:58Z</time>
      </trkpt>
      <trkpt lat="42.735229" lon="0.903612">
        <ele>1666.825</ele>
        <time>2021-06-18T11:07:01Z</time>
      </trkpt>
      <trkpt lat="42.735269" lon="0.903670">
        <ele>1665.112</ele>
        <time>2021-06-18T11:07:02Z</time>
      </trkpt>
      <trkpt lat="42.735392" lon="0.903855">
        <ele>1662.467</ele>
        <time>2021-06-18T11:07:05Z</time>
      </trkpt>
      <trkpt lat="42.735486" lon="0.903970">
        <ele>1661.481</ele>
        <time>2021-06-18T11:07:07Z</time>
      </trkpt>
      <trkpt lat="42.735538" lon="0.904015">
        <ele>1661.119</ele>
        <time>2021-06-18T11:07:08Z</time>
      </trkpt>
      <trkpt lat="42.735649" lon="0.904073">
        <ele>1659.608</ele>
        <time>2021-06-18T11:07:10Z</time>
      </trkpt>
      <trkpt lat="42.735706" lon="0.904091">
        <ele>1659.133</ele>
        <time>2021-06-18T11:07:11Z</time>
      </trkpt>
      <trkpt lat="42.735759" lon="0.904104">
        <ele>1658.852</ele>
        <time>2021-06-18T11:07:12Z</time>
      </trkpt>
      <trkpt lat="42.735805" lon="0.904119">
        <ele>1658.528</ele>
        <time>2021-06-18T11:07:13Z</time>
      </trkpt>
      <trkpt lat="42.735850" lon="0.904138">
        <ele>1658.052</ele>
        <time>2021-06-18T11:07:14Z</time>
      </trkpt>
      <trkpt lat="42.735946" lon="0.904189">
        <ele>1656.956</ele>
        <time>2021-06-18T11:07:16Z</time>
      </trkpt>
      <trkpt lat="42.735999" lon="0.904216">
        <ele>1656.516</ele>
        <time>2021-06-18T11:07:17Z</time>
      </trkpt>
      <trkpt lat="42.736238" lon="0.904340">
        <ele>1655.889</ele>
        <time>2021-06-18T11:07:21Z</time>
      </trkpt>
      <trkpt lat="42.736297" lon="0.904391">
        <ele>1655.346</ele>
        <time>2021-06-18T11:07:22Z</time>
      </trkpt>
      <trkpt lat="42.736402" lon="0.904515">
        <ele>1653.559</ele>
        <time>2021-06-18T11:07:24Z</time>
      </trkpt>
      <trkpt lat="42.736481" lon="0.904612">
        <ele>1652.603</ele>
        <time>2021-06-18T11:07:26Z</time>
      </trkpt>
      <trkpt lat="42.736559" lon="0.904706">
        <ele>1652.023</ele>
        <time>2021-06-18T11:07:28Z</time>
      </trkpt>
      <trkpt lat="42.736598" lon="0.904764">
        <ele>1652.008</ele>
        <time>2021-06-18T11:07:29Z</time>
      </trkpt>
      <trkpt lat="42.736630" lon="0.904832">
        <ele>1651.972</ele>
        <time>2021-06-18T11:07:30Z</time>
      </trkpt>
      <trkpt lat="42.736650" lon="0.904909">
        <ele>1651.561</ele>
        <time>2021-06-18T11:07:31Z</time>
      </trkpt>
      <trkpt lat="42.736649" lon="0.905167">
        <ele>1649.717</ele>
        <time>2021-06-18T11:07:34Z</time>
      </trkpt>
      <trkpt lat="42.736637" lon="0.905256">
        <ele>1648.871</ele>
        <time>2021-06-18T11:07:35Z</time>
      </trkpt>
      <trkpt lat="42.736612" lon="0.905424">
        <ele>1645.055</ele>
        <time>2021-06-18T11:07:37Z</time>
      </trkpt>
      <trkpt lat="42.736632" lon="0.905578">
        <ele>1642.935</ele>
        <time>2021-06-18T11:07:39Z</time>
      </trkpt>
      <trkpt lat="42.736746" lon="0.905676">
        <ele>1639.888</ele>
        <time>2021-06-18T11:07:42Z</time>
      </trkpt>
      <trkpt lat="42.736834" lon="0.905626">
        <ele>1639.495</ele>
        <time>2021-06-18T11:07:44Z</time>
      </trkpt>
      <trkpt lat="42.736882" lon="0.905589">
        <ele>1639.486</ele>
        <time>2021-06-18T11:07:45Z</time>
      </trkpt>
      <trkpt lat="42.736930" lon="0.905541">
        <ele>1639.660</ele>
        <time>2021-06-18T11:07:46Z</time>
      </trkpt>
      <trkpt lat="42.737019" lon="0.905419">
        <ele>1638.926</ele>
        <time>2021-06-18T11:07:48Z</time>
      </trkpt>
      <trkpt lat="42.737087" lon="0.905286">
        <ele>1638.708</ele>
        <time>2021-06-18T11:07:50Z</time>
      </trkpt>
      <trkpt lat="42.737122" lon="0.905226">
        <ele>1638.465</ele>
        <time>2021-06-18T11:07:51Z</time>
      </trkpt>
      <trkpt lat="42.737201" lon="0.905122">
        <ele>1637.084</ele>
        <time>2021-06-18T11:07:53Z</time>
      </trkpt>
      <trkpt lat="42.737234" lon="0.905067">
        <ele>1636.740</ele>
        <time>2021-06-18T11:07:54Z</time>
      </trkpt>
      <trkpt lat="42.737266" lon="0.905006">
        <ele>1636.694</ele>
        <time>2021-06-18T11:07:55Z</time>
      </trkpt>
      <trkpt lat="42.737402" lon="0.904955">
        <ele>1633.958</ele>
        <time>2021-06-18T11:07:58Z</time>
      </trkpt>
      <trkpt lat="42.737443" lon="0.905065">
        <ele>1630.558</ele>
        <time>2021-06-18T11:08:00Z</time>
      </trkpt>
      <trkpt lat="42.737369" lon="0.905269">
        <ele>1629.491</ele>
        <time>2021-06-18T11:08:03Z</time>
      </trkpt>
      <trkpt lat="42.737297" lon="0.905494">
        <ele>1628.518</ele>
        <time>2021-06-18T11:08:06Z</time>
      </trkpt>
      <trkpt lat="42.737278" lon="0.905577">
        <ele>1627.752</ele>
        <time>2021-06-18T11:08:07Z</time>
      </trkpt>
      <trkpt lat="42.737253" lon="0.905657">
        <ele>1626.453</ele>
        <time>2021-06-18T11:08:08Z</time>
      </trkpt>
      <trkpt lat="42.737184" lon="0.905803">
        <ele>1624.908</ele>
        <time>2021-06-18T11:08:10Z</time>
      </trkpt>
      <trkpt lat="42.737142" lon="0.905871">
        <ele>1624.208</ele>
        <time>2021-06-18T11:08:11Z</time>
      </trkpt>
      <trkpt lat="42.737097" lon="0.905934">
        <ele>1623.542</ele>
        <time>2021-06-18T11:08:12Z</time>
      </trkpt>
      <trkpt lat="42.737051" lon="0.905995">
        <ele>1622.941</ele>
        <time>2021-06-18T11:08:13Z</time>
      </trkpt>
      <trkpt lat="42.737002" lon="0.906051">
        <ele>1622.537</ele>
        <time>2021-06-18T11:08:14Z</time>
      </trkpt>
      <trkpt lat="42.736898" lon="0.906151">
        <ele>1621.461</ele>
        <time>2021-06-18T11:08:16Z</time>
      </trkpt>
      <trkpt lat="42.736842" lon="0.906193">
        <ele>1621.035</ele>
        <time>2021-06-18T11:08:17Z</time>
      </trkpt>
      <trkpt lat="42.736784" lon="0.906230">
        <ele>1620.985</ele>
        <time>2021-06-18T11:08:18Z</time>
      </trkpt>
      <trkpt lat="42.736722" lon="0.906260">
        <ele>1621.188</ele>
        <time>2021-06-18T11:08:19Z</time>
      </trkpt>
      <trkpt lat="42.736658" lon="0.906282">
        <ele>1621.345</ele>
        <time>2021-06-18T11:08:20Z</time>
      </trkpt>
      <trkpt lat="42.736594" lon="0.906297">
        <ele>1619.965</ele>
        <time>2021-06-18T11:08:21Z</time>
      </trkpt>
      <trkpt lat="42.736537" lon="0.906315">
        <ele>1618.768</ele>
        <time>2021-06-18T11:08:22Z</time>
      </trkpt>
      <trkpt lat="42.736468" lon="0.906393">
        <ele>1616.514</ele>
        <time>2021-06-18T11:08:24Z</time>
      </trkpt>
      <trkpt lat="42.736500" lon="0.906493">
        <ele>1614.008</ele>
        <time>2021-06-18T11:08:26Z</time>
      </trkpt>
      <trkpt lat="42.736604" lon="0.906527">
        <ele>1613.023</ele>
        <time>2021-06-18T11:08:28Z</time>
      </trkpt>
      <trkpt lat="42.736667" lon="0.906511">
        <ele>1613.672</ele>
        <time>2021-06-18T11:08:29Z</time>
      </trkpt>
      <trkpt lat="42.736791" lon="0.906457">
        <ele>1612.918</ele>
        <time>2021-06-18T11:08:31Z</time>
      </trkpt>
      <trkpt lat="42.736842" lon="0.906433">
        <ele>1612.672</ele>
        <time>2021-06-18T11:08:32Z</time>
      </trkpt>
      <trkpt lat="42.736889" lon="0.906412">
        <ele>1612.446</ele>
        <time>2021-06-18T11:08:33Z</time>
      </trkpt>
      <trkpt lat="42.736938" lon="0.906395">
        <ele>1611.926</ele>
        <time>2021-06-18T11:08:34Z</time>
      </trkpt>
      <trkpt lat="42.736992" lon="0.906382">
        <ele>1611.489</ele>
        <time>2021-06-18T11:08:35Z</time>
      </trkpt>
      <trkpt lat="42.737115" lon="0.906348">
        <ele>1610.296</ele>
        <time>2021-06-18T11:08:37Z</time>
      </trkpt>
      <trkpt lat="42.737180" lon="0.906326">
        <ele>1609.692</ele>
        <time>2021-06-18T11:08:38Z</time>
      </trkpt>
      <trkpt lat="42.737244" lon="0.906300">
        <ele>1608.973</ele>
        <time>2021-06-18T11:08:39Z</time>
      </trkpt>
      <trkpt lat="42.737483" lon="0.906171">
        <ele>1605.820</ele>
        <time>2021-06-18T11:08:43Z</time>
      </trkpt>
      <trkpt lat="42.737533" lon="0.906120">
        <ele>1605.708</ele>
        <time>2021-06-18T11:08:44Z</time>
      </trkpt>
      <trkpt lat="42.737578" lon="0.906071">
        <ele>1605.436</ele>
        <time>2021-06-18T11:08:45Z</time>
      </trkpt>
      <trkpt lat="42.737643" lon="0.905986">
        <ele>1605.185</ele>
        <time>2021-06-18T11:08:47Z</time>
      </trkpt>
      <trkpt lat="42.737672" lon="0.905965">
        <ele>1604.551</ele>
        <time>2021-06-18T11:08:48Z</time>
      </trkpt>
      <trkpt lat="42.737701" lon="0.905979">
        <ele>1603.115</ele>
        <time>2021-06-18T11:08:49Z</time>
      </trkpt>
      <trkpt lat="42.737697" lon="0.906138">
        <ele>1599.779</ele>
        <time>2021-06-18T11:08:52Z</time>
      </trkpt>
      <trkpt lat="42.737617" lon="0.906257">
        <ele>1598.669</ele>
        <time>2021-06-18T11:08:54Z</time>
      </trkpt>
      <trkpt lat="42.737574" lon="0.906320">
        <ele>1598.212</ele>
        <time>2021-06-18T11:08:55Z</time>
      </trkpt>
      <trkpt lat="42.737534" lon="0.906385">
        <ele>1597.819</ele>
        <time>2021-06-18T11:08:56Z</time>
      </trkpt>
      <trkpt lat="42.737493" lon="0.906448">
        <ele>1597.529</ele>
        <time>2021-06-18T11:08:57Z</time>
      </trkpt>
      <trkpt lat="42.737400" lon="0.906566">
        <ele>1596.100</ele>
        <time>2021-06-18T11:08:59Z</time>
      </trkpt>
      <trkpt lat="42.737347" lon="0.906616">
        <ele>1595.520</ele>
        <time>2021-06-18T11:09:00Z</time>
      </trkpt>
      <trkpt lat="42.737287" lon="0.906649">
        <ele>1595.508</ele>
        <time>2021-06-18T11:09:01Z</time>
      </trkpt>
      <trkpt lat="42.737229" lon="0.906683">
        <ele>1595.539</ele>
        <time>2021-06-18T11:09:02Z</time>
      </trkpt>
      <trkpt lat="42.737137" lon="0.906803">
        <ele>1594.948</ele>
        <time>2021-06-18T11:09:04Z</time>
      </trkpt>
      <trkpt lat="42.737098" lon="0.906874">
        <ele>1594.234</ele>
        <time>2021-06-18T11:09:05Z</time>
      </trkpt>
      <trkpt lat="42.737060" lon="0.906945">
        <ele>1593.548</ele>
        <time>2021-06-18T11:09:06Z</time>
      </trkpt>
      <trkpt lat="42.737027" lon="0.907019">
        <ele>1592.942</ele>
        <time>2021-06-18T11:09:07Z</time>
      </trkpt>
      <trkpt lat="42.736985" lon="0.907182">
        <ele>1591.822</ele>
        <time>2021-06-18T11:09:09Z</time>
      </trkpt>
      <trkpt lat="42.736976" lon="0.907357">
        <ele>1589.485</ele>
        <time>2021-06-18T11:09:11Z</time>
      </trkpt>
      <trkpt lat="42.736958" lon="0.907535">
        <ele>1587.422</ele>
        <time>2021-06-18T11:09:13Z</time>
      </trkpt>
      <trkpt lat="42.736938" lon="0.907625">
        <ele>1586.523</ele>
        <time>2021-06-18T11:09:14Z</time>
      </trkpt>
      <trkpt lat="42.736874" lon="0.907798">
        <ele>1585.083</ele>
        <time>2021-06-18T11:09:16Z</time>
      </trkpt>
      <trkpt lat="42.736831" lon="0.907871">
        <ele>1584.611</ele>
        <time>2021-06-18T11:09:17Z</time>
      </trkpt>
      <trkpt lat="42.736785" lon="0.907926">
        <ele>1584.708</ele>
        <time>2021-06-18T11:09:18Z</time>
      </trkpt>
      <trkpt lat="42.736717" lon="0.908011">
        <ele>1584.689</ele>
        <time>2021-06-18T11:09:20Z</time>
      </trkpt>
      <trkpt lat="42.736651" lon="0.908112">
        <ele>1583.918</ele>
        <time>2021-06-18T11:09:22Z</time>
      </trkpt>
      <trkpt lat="42.736616" lon="0.908168">
        <ele>1583.484</ele>
        <time>2021-06-18T11:09:23Z</time>
      </trkpt>
      <trkpt lat="42.736580" lon="0.908235">
        <ele>1582.698</ele>
        <time>2021-06-18T11:09:24Z</time>
      </trkpt>
      <trkpt lat="42.736522" lon="0.908374">
        <ele>1580.442</ele>
        <time>2021-06-18T11:09:26Z</time>
      </trkpt>
      <trkpt lat="42.736459" lon="0.908517">
        <ele>1577.922</ele>
        <time>2021-06-18T11:09:28Z</time>
      </trkpt>
      <trkpt lat="42.736349" lon="0.908613">
        <ele>1576.785</ele>
        <time>2021-06-18T11:09:30Z</time>
      </trkpt>
      <trkpt lat="42.736287" lon="0.908630">
        <ele>1575.762</ele>
        <time>2021-06-18T11:09:31Z</time>
      </trkpt>
      <trkpt lat="42.736222" lon="0.908627">
        <ele>1575.339</ele>
        <time>2021-06-18T11:09:32Z</time>
      </trkpt>
      <trkpt lat="42.736102" lon="0.908578">
        <ele>1576.001</ele>
        <time>2021-06-18T11:09:34Z</time>
      </trkpt>
      <trkpt lat="42.735994" lon="0.908545">
        <ele>1575.721</ele>
        <time>2021-06-18T11:09:36Z</time>
      </trkpt>
      <trkpt lat="42.735936" lon="0.908550">
        <ele>1574.808</ele>
        <time>2021-06-18T11:09:37Z</time>
      </trkpt>
      <trkpt lat="42.735878" lon="0.908549">
        <ele>1574.120</ele>
        <time>2021-06-18T11:09:38Z</time>
      </trkpt>
      <trkpt lat="42.735706" lon="0.908454">
        <ele>1573.339</ele>
        <time>2021-06-18T11:09:41Z</time>
      </trkpt>
      <trkpt lat="42.735649" lon="0.908419">
        <ele>1572.875</ele>
        <time>2021-06-18T11:09:42Z</time>
      </trkpt>
      <trkpt lat="42.735489" lon="0.908296">
        <ele>1572.619</ele>
        <time>2021-06-18T11:09:45Z</time>
      </trkpt>
      <trkpt lat="42.735345" lon="0.908265">
        <ele>1573.513</ele>
        <time>2021-06-18T11:09:48Z</time>
      </trkpt>
      <trkpt lat="42.735308" lon="0.908288">
        <ele>1573.153</ele>
        <time>2021-06-18T11:09:49Z</time>
      </trkpt>
      <trkpt lat="42.735253" lon="0.908380">
        <ele>1571.686</ele>
        <time>2021-06-18T11:09:51Z</time>
      </trkpt>
      <trkpt lat="42.735180" lon="0.908565">
        <ele>1568.653</ele>
        <time>2021-06-18T11:09:54Z</time>
      </trkpt>
      <trkpt lat="42.735134" lon="0.908686">
        <ele>1566.296</ele>
        <time>2021-06-18T11:09:56Z</time>
      </trkpt>
      <trkpt lat="42.735102" lon="0.908736">
        <ele>1565.131</ele>
        <time>2021-06-18T11:09:57Z</time>
      </trkpt>
      <trkpt lat="42.735057" lon="0.908770">
        <ele>1564.524</ele>
        <time>2021-06-18T11:09:58Z</time>
      </trkpt>
      <trkpt lat="42.735005" lon="0.908794">
        <ele>1564.008</ele>
        <time>2021-06-18T11:09:59Z</time>
      </trkpt>
      <trkpt lat="42.734947" lon="0.908812">
        <ele>1563.636</ele>
        <time>2021-06-18T11:10:00Z</time>
      </trkpt>
      <trkpt lat="42.734830" lon="0.908845">
        <ele>1562.625</ele>
        <time>2021-06-18T11:10:02Z</time>
      </trkpt>
      <trkpt lat="42.734746" lon="0.908875">
        <ele>1561.531</ele>
        <time>2021-06-18T11:10:04Z</time>
      </trkpt>
      <trkpt lat="42.734713" lon="0.908895">
        <ele>1560.955</ele>
        <time>2021-06-18T11:10:05Z</time>
      </trkpt>
      <trkpt lat="42.734634" lon="0.908946">
        <ele>1560.249</ele>
        <time>2021-06-18T11:10:07Z</time>
      </trkpt>
      <trkpt lat="42.734534" lon="0.909003">
        <ele>1559.289</ele>
        <time>2021-06-18T11:10:09Z</time>
      </trkpt>
      <trkpt lat="42.734412" lon="0.909058">
        <ele>1558.362</ele>
        <time>2021-06-18T11:10:11Z</time>
      </trkpt>
      <trkpt lat="42.734346" lon="0.909094">
        <ele>1557.929</ele>
        <time>2021-06-18T11:10:12Z</time>
      </trkpt>
      <trkpt lat="42.734280" lon="0.909140">
        <ele>1557.384</ele>
        <time>2021-06-18T11:10:13Z</time>
      </trkpt>
      <trkpt lat="42.734162" lon="0.909241">
        <ele>1556.207</ele>
        <time>2021-06-18T11:10:15Z</time>
      </trkpt>
      <trkpt lat="42.734065" lon="0.909366">
        <ele>1554.517</ele>
        <time>2021-06-18T11:10:17Z</time>
      </trkpt>
      <trkpt lat="42.734016" lon="0.909424">
        <ele>1553.708</ele>
        <time>2021-06-18T11:10:18Z</time>
      </trkpt>
      <trkpt lat="42.733963" lon="0.909481">
        <ele>1553.075</ele>
        <time>2021-06-18T11:10:19Z</time>
      </trkpt>
      <trkpt lat="42.733908" lon="0.909541">
        <ele>1552.364</ele>
        <time>2021-06-18T11:10:20Z</time>
      </trkpt>
      <trkpt lat="42.733851" lon="0.909600">
        <ele>1551.610</ele>
        <time>2021-06-18T11:10:21Z</time>
      </trkpt>
      <trkpt lat="42.733790" lon="0.909661">
        <ele>1550.834</ele>
        <time>2021-06-18T11:10:22Z</time>
      </trkpt>
      <trkpt lat="42.733590" lon="0.909841">
        <ele>1548.318</ele>
        <time>2021-06-18T11:10:25Z</time>
      </trkpt>
      <trkpt lat="42.733454" lon="0.909944">
        <ele>1547.398</ele>
        <time>2021-06-18T11:10:27Z</time>
      </trkpt>
      <trkpt lat="42.733388" lon="0.909991">
        <ele>1546.751</ele>
        <time>2021-06-18T11:10:28Z</time>
      </trkpt>
      <trkpt lat="42.733260" lon="0.910097">
        <ele>1545.478</ele>
        <time>2021-06-18T11:10:30Z</time>
      </trkpt>
      <trkpt lat="42.733203" lon="0.910154">
        <ele>1544.724</ele>
        <time>2021-06-18T11:10:31Z</time>
      </trkpt>
      <trkpt lat="42.733154" lon="0.910207">
        <ele>1543.804</ele>
        <time>2021-06-18T11:10:32Z</time>
      </trkpt>
      <trkpt lat="42.733060" lon="0.910299">
        <ele>1542.314</ele>
        <time>2021-06-18T11:10:34Z</time>
      </trkpt>
      <trkpt lat="42.733014" lon="0.910345">
        <ele>1541.908</ele>
        <time>2021-06-18T11:10:35Z</time>
      </trkpt>
      <trkpt lat="42.732969" lon="0.910394">
        <ele>1541.369</ele>
        <time>2021-06-18T11:10:36Z</time>
      </trkpt>
      <trkpt lat="42.732922" lon="0.910437">
        <ele>1540.758</ele>
        <time>2021-06-18T11:10:37Z</time>
      </trkpt>
      <trkpt lat="42.732770" lon="0.910543">
        <ele>1539.714</ele>
        <time>2021-06-18T11:10:40Z</time>
      </trkpt>
      <trkpt lat="42.732723" lon="0.910582">
        <ele>1540.418</ele>
        <time>2021-06-18T11:10:41Z</time>
      </trkpt>
      <trkpt lat="42.732690" lon="0.910629">
        <ele>1540.562</ele>
        <time>2021-06-18T11:10:42Z</time>
      </trkpt>
      <trkpt lat="42.732714" lon="0.910793">
        <ele>1536.272</ele>
        <time>2021-06-18T11:10:45Z</time>
      </trkpt>
      <trkpt lat="42.732796" lon="0.910822">
        <ele>1533.815</ele>
        <time>2021-06-18T11:10:47Z</time>
      </trkpt>
      <trkpt lat="42.732848" lon="0.910800">
        <ele>1533.162</ele>
        <time>2021-06-18T11:10:48Z</time>
      </trkpt>
      <trkpt lat="42.732901" lon="0.910770">
        <ele>1532.747</ele>
        <time>2021-06-18T11:10:49Z</time>
      </trkpt>
      <trkpt lat="42.732958" lon="0.910732">
        <ele>1532.429</ele>
        <time>2021-06-18T11:10:50Z</time>
      </trkpt>
      <trkpt lat="42.733017" lon="0.910693">
        <ele>1532.221</ele>
        <time>2021-06-18T11:10:51Z</time>
      </trkpt>
      <trkpt lat="42.733141" lon="0.910621">
        <ele>1532.508</ele>
        <time>2021-06-18T11:10:53Z</time>
      </trkpt>
      <trkpt lat="42.733211" lon="0.910604">
        <ele>1532.211</ele>
        <time>2021-06-18T11:10:54Z</time>
      </trkpt>
      <trkpt lat="42.733356" lon="0.910609">
        <ele>1530.880</ele>
        <time>2021-06-18T11:10:56Z</time>
      </trkpt>
      <trkpt lat="42.733498" lon="0.910625">
        <ele>1529.976</ele>
        <time>2021-06-18T11:10:58Z</time>
      </trkpt>
      <trkpt lat="42.733570" lon="0.910638">
        <ele>1529.470</ele>
        <time>2021-06-18T11:10:59Z</time>
      </trkpt>
      <trkpt lat="42.733642" lon="0.910655">
        <ele>1528.774</ele>
        <time>2021-06-18T11:11:00Z</time>
      </trkpt>
      <trkpt lat="42.733716" lon="0.910672">
        <ele>1528.034</ele>
        <time>2021-06-18T11:11:01Z</time>
      </trkpt>
      <trkpt lat="42.733789" lon="0.910683">
        <ele>1527.657</ele>
        <time>2021-06-18T11:11:02Z</time>
      </trkpt>
      <trkpt lat="42.733927" lon="0.910698">
        <ele>1527.034</ele>
        <time>2021-06-18T11:11:04Z</time>
      </trkpt>
      <trkpt lat="42.733993" lon="0.910725">
        <ele>1526.842</ele>
        <time>2021-06-18T11:11:05Z</time>
      </trkpt>
      <trkpt lat="42.734099" lon="0.910833">
        <ele>1525.822</ele>
        <time>2021-06-18T11:11:07Z</time>
      </trkpt>
      <trkpt lat="42.734138" lon="0.910899">
        <ele>1525.114</ele>
        <time>2021-06-18T11:11:08Z</time>
      </trkpt>
      <trkpt lat="42.734226" lon="0.911139">
        <ele>1522.908</ele>
        <time>2021-06-18T11:11:11Z</time>
      </trkpt>
      <trkpt lat="42.734328" lon="0.911284">
        <ele>1521.791</ele>
        <time>2021-06-18T11:11:13Z</time>
      </trkpt>
      <trkpt lat="42.734444" lon="0.911401">
        <ele>1520.850</ele>
        <time>2021-06-18T11:11:15Z</time>
      </trkpt>
      <trkpt lat="42.734561" lon="0.911497">
        <ele>1519.676</ele>
        <time>2021-06-18T11:11:17Z</time>
      </trkpt>
      <trkpt lat="42.734618" lon="0.911524">
        <ele>1519.440</ele>
        <time>2021-06-18T11:11:18Z</time>
      </trkpt>
      <trkpt lat="42.734670" lon="0.911533">
        <ele>1519.394</ele>
        <time>2021-06-18T11:11:19Z</time>
      </trkpt>
      <trkpt lat="42.734711" lon="0.911534">
        <ele>1519.414</ele>
        <time>2021-06-18T11:11:20Z</time>
      </trkpt>
      <trkpt lat="42.734766" lon="0.911536">
        <ele>1519.617</ele>
        <time>2021-06-18T11:11:22Z</time>
      </trkpt>
      <trkpt lat="42.734802" lon="0.911562">
        <ele>1519.524</ele>
        <time>2021-06-18T11:11:24Z</time>
      </trkpt>
      <trkpt lat="42.734838" lon="0.911610">
        <ele>1519.175</ele>
        <time>2021-06-18T11:11:26Z</time>
      </trkpt>
      <trkpt lat="42.734963" lon="0.911697">
        <ele>1518.428</ele>
        <time>2021-06-18T11:11:30Z</time>
      </trkpt>
      <trkpt lat="42.735006" lon="0.911705">
        <ele>1518.420</ele>
        <time>2021-06-18T11:11:31Z</time>
      </trkpt>
      <trkpt lat="42.735154" lon="0.911680">
        <ele>1518.208</ele>
        <time>2021-06-18T11:11:34Z</time>
      </trkpt>
      <trkpt lat="42.735403" lon="0.911692">
        <ele>1517.544</ele>
        <time>2021-06-18T11:11:39Z</time>
      </trkpt>
      <trkpt lat="42.735492" lon="0.911702">
        <ele>1517.413</ele>
        <time>2021-06-18T11:11:41Z</time>
      </trkpt>
      <trkpt lat="42.735539" lon="0.911701">
        <ele>1517.539</ele>
        <time>2021-06-18T11:11:42Z</time>
      </trkpt>
      <trkpt lat="42.735635" lon="0.911682">
        <ele>1517.543</ele>
        <time>2021-06-18T11:11:44Z</time>
      </trkpt>
      <trkpt lat="42.735683" lon="0.911660">
        <ele>1517.627</ele>
        <time>2021-06-18T11:11:45Z</time>
      </trkpt>
      <trkpt lat="42.735783" lon="0.911627">
        <ele>1517.897</ele>
        <time>2021-06-18T11:11:47Z</time>
      </trkpt>
      <trkpt lat="42.735883" lon="0.911604">
        <ele>1517.780</ele>
        <time>2021-06-18T11:11:49Z</time>
      </trkpt>
      <trkpt lat="42.736036" lon="0.911558">
        <ele>1517.847</ele>
        <time>2021-06-18T11:11:52Z</time>
      </trkpt>
      <trkpt lat="42.736148" lon="0.911531">
        <ele>1517.633</ele>
        <time>2021-06-18T11:11:54Z</time>
      </trkpt>
      <trkpt lat="42.736262" lon="0.911509">
        <ele>1516.723</ele>
        <time>2021-06-18T11:11:56Z</time>
      </trkpt>
      <trkpt lat="42.736436" lon="0.911417">
        <ele>1516.515</ele>
        <time>2021-06-18T11:11:59Z</time>
      </trkpt>
      <trkpt lat="42.736495" lon="0.911392">
        <ele>1516.008</ele>
        <time>2021-06-18T11:12:00Z</time>
      </trkpt>
      <trkpt lat="42.736817" lon="0.911232">
        <ele>1514.330</ele>
        <time>2021-06-18T11:12:06Z</time>
      </trkpt>
      <trkpt lat="42.736993" lon="0.911126">
        <ele>1514.779</ele>
        <time>2021-06-18T11:12:09Z</time>
      </trkpt>
      <trkpt lat="42.737110" lon="0.911009">
        <ele>1514.025</ele>
        <time>2021-06-18T11:12:11Z</time>
      </trkpt>
      <trkpt lat="42.737384" lon="0.910628">
        <ele>1512.619</ele>
        <time>2021-06-18T11:12:16Z</time>
      </trkpt>
      <trkpt lat="42.737438" lon="0.910555">
        <ele>1512.143</ele>
        <time>2021-06-18T11:12:17Z</time>
      </trkpt>
      <trkpt lat="42.737577" lon="0.910479">
        <ele>1511.823</ele>
        <time>2021-06-18T11:12:19Z</time>
      </trkpt>
      <trkpt lat="42.737708" lon="0.910531">
        <ele>1511.946</ele>
        <time>2021-06-18T11:12:21Z</time>
      </trkpt>
      <trkpt lat="42.737812" lon="0.910633">
        <ele>1511.673</ele>
        <time>2021-06-18T11:12:23Z</time>
      </trkpt>
      <trkpt lat="42.737950" lon="0.910774">
        <ele>1511.098</ele>
        <time>2021-06-18T11:12:26Z</time>
      </trkpt>
      <trkpt lat="42.738218" lon="0.911027">
        <ele>1511.515</ele>
        <time>2021-06-18T11:12:32Z</time>
      </trkpt>
      <trkpt lat="42.738258" lon="0.911075">
        <ele>1511.526</ele>
        <time>2021-06-18T11:12:33Z</time>
      </trkpt>
      <trkpt lat="42.738407" lon="0.911277">
        <ele>1513.008</ele>
        <time>2021-06-18T11:12:37Z</time>
      </trkpt>
      <trkpt lat="42.738460" lon="0.911400">
        <ele>1513.146</ele>
        <time>2021-06-18T11:12:39Z</time>
      </trkpt>
      <trkpt lat="42.738574" lon="0.911663">
        <ele>1512.825</ele>
        <time>2021-06-18T11:12:44Z</time>
      </trkpt>
      <trkpt lat="42.738629" lon="0.911835">
        <ele>1512.611</ele>
        <time>2021-06-18T11:12:48Z</time>
      </trkpt>
      <trkpt lat="42.738607" lon="0.911935">
        <ele>1512.055</ele>
        <time>2021-06-18T11:12:50Z</time>
      </trkpt>
      <trkpt lat="42.738563" lon="0.912026">
        <ele>1512.129</ele>
        <time>2021-06-18T11:12:52Z</time>
      </trkpt>
      <trkpt lat="42.738382" lon="0.912251">
        <ele>1512.339</ele>
        <time>2021-06-18T11:12:58Z</time>
      </trkpt>
      <trkpt lat="42.738204" lon="0.912451">
        <ele>1512.032</ele>
        <time>2021-06-18T11:13:04Z</time>
      </trkpt>
      <trkpt lat="42.738172" lon="0.912490">
        <ele>1511.819</ele>
        <time>2021-06-18T11:13:05Z</time>
      </trkpt>
      <trkpt lat="42.738057" lon="0.912628">
        <ele>1511.049</ele>
        <time>2021-06-18T11:13:09Z</time>
      </trkpt>
      <trkpt lat="42.737875" lon="0.912808">
        <ele>1510.302</ele>
        <time>2021-06-18T11:13:15Z</time>
      </trkpt>
      <trkpt lat="42.737763" lon="0.912983">
        <ele>1509.922</ele>
        <time>2021-06-18T11:13:20Z</time>
      </trkpt>
      <trkpt lat="42.737595" lon="0.913170">
        <ele>1509.108</ele>
        <time>2021-06-18T11:13:26Z</time>
      </trkpt>
      <trkpt lat="42.737402" lon="0.913271">
        <ele>1508.491</ele>
        <time>2021-06-18T11:13:30Z</time>
      </trkpt>
      <trkpt lat="42.737086" lon="0.913414">
        <ele>1507.220</ele>
        <time>2021-06-18T11:13:35Z</time>
      </trkpt>
      <trkpt lat="42.736791" lon="0.913545">
        <ele>1505.856</ele>
        <time>2021-06-18T11:13:39Z</time>
      </trkpt>
      <trkpt lat="42.736639" lon="0.913618">
        <ele>1504.970</ele>
        <time>2021-06-18T11:13:41Z</time>
      </trkpt>
      <trkpt lat="42.736482" lon="0.913690">
        <ele>1504.354</ele>
        <time>2021-06-18T11:13:43Z</time>
      </trkpt>
      <trkpt lat="42.736234" lon="0.913797">
        <ele>1502.994</ele>
        <time>2021-06-18T11:13:46Z</time>
      </trkpt>
      <trkpt lat="42.735971" lon="0.913892">
        <ele>1501.037</ele>
        <time>2021-06-18T11:13:49Z</time>
      </trkpt>
      <trkpt lat="42.735702" lon="0.913958">
        <ele>1499.854</ele>
        <time>2021-06-18T11:13:52Z</time>
      </trkpt>
      <trkpt lat="42.735525" lon="0.913983">
        <ele>1499.286</ele>
        <time>2021-06-18T11:13:54Z</time>
      </trkpt>
      <trkpt lat="42.735438" lon="0.913991">
        <ele>1498.960</ele>
        <time>2021-06-18T11:13:55Z</time>
      </trkpt>
      <trkpt lat="42.735352" lon="0.914003">
        <ele>1498.726</ele>
        <time>2021-06-18T11:13:56Z</time>
      </trkpt>
      <trkpt lat="42.735006" lon="0.914117">
        <ele>1497.008</ele>
        <time>2021-06-18T11:14:00Z</time>
      </trkpt>
      <trkpt lat="42.734918" lon="0.914155">
        <ele>1496.745</ele>
        <time>2021-06-18T11:14:01Z</time>
      </trkpt>
      <trkpt lat="42.734738" lon="0.914218">
        <ele>1496.154</ele>
        <time>2021-06-18T11:14:03Z</time>
      </trkpt>
      <trkpt lat="42.734461" lon="0.914289">
        <ele>1495.180</ele>
        <time>2021-06-18T11:14:06Z</time>
      </trkpt>
      <trkpt lat="42.734369" lon="0.914307">
        <ele>1494.774</ele>
        <time>2021-06-18T11:14:07Z</time>
      </trkpt>
      <trkpt lat="42.734186" lon="0.914343">
        <ele>1494.198</ele>
        <time>2021-06-18T11:14:09Z</time>
      </trkpt>
      <trkpt lat="42.733921" lon="0.914390">
        <ele>1493.148</ele>
        <time>2021-06-18T11:14:12Z</time>
      </trkpt>
      <trkpt lat="42.733751" lon="0.914419">
        <ele>1492.171</ele>
        <time>2021-06-18T11:14:14Z</time>
      </trkpt>
      <trkpt lat="42.733585" lon="0.914425">
        <ele>1491.198</ele>
        <time>2021-06-18T11:14:16Z</time>
      </trkpt>
      <trkpt lat="42.733347" lon="0.914423">
        <ele>1491.062</ele>
        <time>2021-06-18T11:14:19Z</time>
      </trkpt>
      <trkpt lat="42.733197" lon="0.914409">
        <ele>1491.483</ele>
        <time>2021-06-18T11:14:21Z</time>
      </trkpt>
      <trkpt lat="42.732841" lon="0.914307">
        <ele>1490.211</ele>
        <time>2021-06-18T11:14:26Z</time>
      </trkpt>
      <trkpt lat="42.732394" lon="0.914189">
        <ele>1489.508</ele>
        <time>2021-06-18T11:14:32Z</time>
      </trkpt>
      <trkpt lat="42.732064" lon="0.914075">
        <ele>1489.243</ele>
        <time>2021-06-18T11:14:37Z</time>
      </trkpt>
      <trkpt lat="42.732002" lon="0.914070">
        <ele>1489.082</ele>
        <time>2021-06-18T11:14:38Z</time>
      </trkpt>
      <trkpt lat="42.731716" lon="0.914147">
        <ele>1489.068</ele>
        <time>2021-06-18T11:14:43Z</time>
      </trkpt>
      <trkpt lat="42.731665" lon="0.914181">
        <ele>1489.192</ele>
        <time>2021-06-18T11:14:44Z</time>
      </trkpt>
      <trkpt lat="42.731301" lon="0.914481">
        <ele>1487.276</ele>
        <time>2021-06-18T11:14:51Z</time>
      </trkpt>
      <trkpt lat="42.731249" lon="0.914536">
        <ele>1486.896</ele>
        <time>2021-06-18T11:14:52Z</time>
      </trkpt>
      <trkpt lat="42.731153" lon="0.914669">
        <ele>1485.739</ele>
        <time>2021-06-18T11:14:54Z</time>
      </trkpt>
      <trkpt lat="42.731108" lon="0.914746">
        <ele>1485.246</ele>
        <time>2021-06-18T11:14:55Z</time>
      </trkpt>
      <trkpt lat="42.731017" lon="0.914889">
        <ele>1485.856</ele>
        <time>2021-06-18T11:14:57Z</time>
      </trkpt>
      <trkpt lat="42.730923" lon="0.914984">
        <ele>1485.659</ele>
        <time>2021-06-18T11:14:59Z</time>
      </trkpt>
      <trkpt lat="42.730764" lon="0.915156">
        <ele>1486.114</ele>
        <time>2021-06-18T11:15:03Z</time>
      </trkpt>
      <trkpt lat="42.730717" lon="0.915239">
        <ele>1486.108</ele>
        <time>2021-06-18T11:15:05Z</time>
      </trkpt>
      <trkpt lat="42.730680" lon="0.915357">
        <ele>1486.432</ele>
        <time>2021-06-18T11:15:08Z</time>
      </trkpt>
      <trkpt lat="42.730665" lon="0.915425">
        <ele>1486.661</ele>
        <time>2021-06-18T11:15:10Z</time>
      </trkpt>
      <trkpt lat="42.730656" lon="0.915539">
        <ele>1487.357</ele>
        <time>2021-06-18T11:15:13Z</time>
      </trkpt>
      <trkpt lat="42.730642" lon="0.915614">
        <ele>1487.431</ele>
        <time>2021-06-18T11:15:15Z</time>
      </trkpt>
      <trkpt lat="42.730562" lon="0.915831">
        <ele>1486.165</ele>
        <time>2021-06-18T11:15:20Z</time>
      </trkpt>
      <trkpt lat="42.730509" lon="0.915920">
        <ele>1487.125</ele>
        <time>2021-06-18T11:15:22Z</time>
      </trkpt>
      <trkpt lat="42.730408" lon="0.916017">
        <ele>1487.278</ele>
        <time>2021-06-18T11:15:25Z</time>
      </trkpt>
      <trkpt lat="42.730277" lon="0.916067">
        <ele>1485.795</ele>
        <time>2021-06-18T11:15:29Z</time>
      </trkpt>
      <trkpt lat="42.730182" lon="0.916075">
        <ele>1485.338</ele>
        <time>2021-06-18T11:15:33Z</time>
      </trkpt>
      <trkpt lat="42.730143" lon="0.916077">
        <ele>1485.270</ele>
        <time>2021-06-18T11:15:34Z</time>
      </trkpt>
      <trkpt lat="42.730049" lon="0.916075">
        <ele>1484.717</ele>
        <time>2021-06-18T11:15:36Z</time>
      </trkpt>
      <trkpt lat="42.730002" lon="0.916064">
        <ele>1484.308</ele>
        <time>2021-06-18T11:15:37Z</time>
      </trkpt>
      <trkpt lat="42.729852" lon="0.916017">
        <ele>1483.540</ele>
        <time>2021-06-18T11:15:40Z</time>
      </trkpt>
      <trkpt lat="42.729740" lon="0.915981">
        <ele>1482.389</ele>
        <time>2021-06-18T11:15:42Z</time>
      </trkpt>
      <trkpt lat="42.729615" lon="0.915924">
        <ele>1480.045</ele>
        <time>2021-06-18T11:15:44Z</time>
      </trkpt>
      <trkpt lat="42.729555" lon="0.915880">
        <ele>1478.579</ele>
        <time>2021-06-18T11:15:45Z</time>
      </trkpt>
      <trkpt lat="42.729495" lon="0.915835">
        <ele>1477.273</ele>
        <time>2021-06-18T11:15:46Z</time>
      </trkpt>
      <trkpt lat="42.729430" lon="0.915785">
        <ele>1476.083</ele>
        <time>2021-06-18T11:15:47Z</time>
      </trkpt>
      <trkpt lat="42.729263" lon="0.915616">
        <ele>1472.856</ele>
        <time>2021-06-18T11:15:50Z</time>
      </trkpt>
      <trkpt lat="42.729209" lon="0.915569">
        <ele>1472.113</ele>
        <time>2021-06-18T11:15:51Z</time>
      </trkpt>
      <trkpt lat="42.729148" lon="0.915533">
        <ele>1471.672</ele>
        <time>2021-06-18T11:15:52Z</time>
      </trkpt>
      <trkpt lat="42.729015" lon="0.915492">
        <ele>1470.513</ele>
        <time>2021-06-18T11:15:54Z</time>
      </trkpt>
      <trkpt lat="42.728938" lon="0.915477">
        <ele>1469.914</ele>
        <time>2021-06-18T11:15:55Z</time>
      </trkpt>
      <trkpt lat="42.728766" lon="0.915447">
        <ele>1468.308</ele>
        <time>2021-06-18T11:15:57Z</time>
      </trkpt>
      <trkpt lat="42.728489" lon="0.915404">
        <ele>1466.644</ele>
        <time>2021-06-18T11:16:00Z</time>
      </trkpt>
      <trkpt lat="42.728316" lon="0.915371">
        <ele>1466.853</ele>
        <time>2021-06-18T11:16:02Z</time>
      </trkpt>
      <trkpt lat="42.728256" lon="0.915360">
        <ele>1466.949</ele>
        <time>2021-06-18T11:16:03Z</time>
      </trkpt>
      <trkpt lat="42.728212" lon="0.915351">
        <ele>1467.013</ele>
        <time>2021-06-18T11:16:04Z</time>
      </trkpt>
      <trkpt lat="42.728139" lon="0.915331">
        <ele>1467.177</ele>
        <time>2021-06-18T11:16:06Z</time>
      </trkpt>
      <trkpt lat="42.728102" lon="0.915318">
        <ele>1467.157</ele>
        <time>2021-06-18T11:16:07Z</time>
      </trkpt>
      <trkpt lat="42.727866" lon="0.915235">
        <ele>1466.340</ele>
        <time>2021-06-18T11:16:12Z</time>
      </trkpt>
      <trkpt lat="42.727785" lon="0.915195">
        <ele>1465.857</ele>
        <time>2021-06-18T11:16:14Z</time>
      </trkpt>
      <trkpt lat="42.727744" lon="0.915163">
        <ele>1465.375</ele>
        <time>2021-06-18T11:16:16Z</time>
      </trkpt>
      <trkpt lat="42.727727" lon="0.915147">
        <ele>1465.028</ele>
        <time>2021-06-18T11:16:19Z</time>
      </trkpt>
      <trkpt lat="42.727650" lon="0.915144">
        <ele>1464.920</ele>
        <time>2021-06-18T11:16:35Z</time>
      </trkpt>
      <trkpt lat="42.727508" lon="0.915085">
        <ele>1463.508</ele>
        <time>2021-06-18T11:16:39Z</time>
      </trkpt>
      <trkpt lat="42.727376" lon="0.914999">
        <ele>1461.554</ele>
        <time>2021-06-18T11:16:42Z</time>
      </trkpt>
      <trkpt lat="42.727275" lon="0.914910">
        <ele>1459.833</ele>
        <time>2021-06-18T11:16:44Z</time>
      </trkpt>
      <trkpt lat="42.727223" lon="0.914867">
        <ele>1459.179</ele>
        <time>2021-06-18T11:16:45Z</time>
      </trkpt>
      <trkpt lat="42.727121" lon="0.914781">
        <ele>1457.513</ele>
        <time>2021-06-18T11:16:47Z</time>
      </trkpt>
      <trkpt lat="42.727014" lon="0.914702">
        <ele>1456.067</ele>
        <time>2021-06-18T11:16:49Z</time>
      </trkpt>
      <trkpt lat="42.726955" lon="0.914674">
        <ele>1455.337</ele>
        <time>2021-06-18T11:16:50Z</time>
      </trkpt>
      <trkpt lat="42.726888" lon="0.914645">
        <ele>1454.850</ele>
        <time>2021-06-18T11:16:51Z</time>
      </trkpt>
      <trkpt lat="42.726814" lon="0.914610">
        <ele>1454.227</ele>
        <time>2021-06-18T11:16:52Z</time>
      </trkpt>
      <trkpt lat="42.726667" lon="0.914540">
        <ele>1452.798</ele>
        <time>2021-06-18T11:16:54Z</time>
      </trkpt>
      <trkpt lat="42.726587" lon="0.914504">
        <ele>1451.915</ele>
        <time>2021-06-18T11:16:55Z</time>
      </trkpt>
      <trkpt lat="42.726508" lon="0.914467">
        <ele>1451.326</ele>
        <time>2021-06-18T11:16:56Z</time>
      </trkpt>
      <trkpt lat="42.726354" lon="0.914404">
        <ele>1450.208</ele>
        <time>2021-06-18T11:16:58Z</time>
      </trkpt>
      <trkpt lat="42.726197" lon="0.914364">
        <ele>1448.556</ele>
        <time>2021-06-18T11:17:00Z</time>
      </trkpt>
      <trkpt lat="42.726112" lon="0.914345">
        <ele>1447.655</ele>
        <time>2021-06-18T11:17:01Z</time>
      </trkpt>
      <trkpt lat="42.725949" lon="0.914304">
        <ele>1445.851</ele>
        <time>2021-06-18T11:17:03Z</time>
      </trkpt>
      <trkpt lat="42.725874" lon="0.914281">
        <ele>1444.925</ele>
        <time>2021-06-18T11:17:04Z</time>
      </trkpt>
      <trkpt lat="42.725790" lon="0.914260">
        <ele>1444.029</ele>
        <time>2021-06-18T11:17:05Z</time>
      </trkpt>
      <trkpt lat="42.725606" lon="0.914225">
        <ele>1442.289</ele>
        <time>2021-06-18T11:17:07Z</time>
      </trkpt>
      <trkpt lat="42.725507" lon="0.914215">
        <ele>1441.362</ele>
        <time>2021-06-18T11:17:08Z</time>
      </trkpt>
      <trkpt lat="42.725423" lon="0.914211">
        <ele>1440.689</ele>
        <time>2021-06-18T11:17:09Z</time>
      </trkpt>
      <trkpt lat="42.725263" lon="0.914211">
        <ele>1439.355</ele>
        <time>2021-06-18T11:17:11Z</time>
      </trkpt>
      <trkpt lat="42.725176" lon="0.914187">
        <ele>1438.107</ele>
        <time>2021-06-18T11:17:12Z</time>
      </trkpt>
      <trkpt lat="42.725084" lon="0.914160">
        <ele>1436.817</ele>
        <time>2021-06-18T11:17:13Z</time>
      </trkpt>
      <trkpt lat="42.724912" lon="0.914105">
        <ele>1434.508</ele>
        <time>2021-06-18T11:17:15Z</time>
      </trkpt>
      <trkpt lat="42.724836" lon="0.914073">
        <ele>1433.562</ele>
        <time>2021-06-18T11:17:16Z</time>
      </trkpt>
      <trkpt lat="42.724768" lon="0.914033">
        <ele>1432.451</ele>
        <time>2021-06-18T11:17:17Z</time>
      </trkpt>
      <trkpt lat="42.724704" lon="0.913979">
        <ele>1431.267</ele>
        <time>2021-06-18T11:17:18Z</time>
      </trkpt>
      <trkpt lat="42.724639" lon="0.913924">
        <ele>1429.911</ele>
        <time>2021-06-18T11:17:19Z</time>
      </trkpt>
      <trkpt lat="42.724573" lon="0.913870">
        <ele>1428.725</ele>
        <time>2021-06-18T11:17:20Z</time>
      </trkpt>
      <trkpt lat="42.724501" lon="0.913824">
        <ele>1427.725</ele>
        <time>2021-06-18T11:17:21Z</time>
      </trkpt>
      <trkpt lat="42.724426" lon="0.913799">
        <ele>1426.918</ele>
        <time>2021-06-18T11:17:22Z</time>
      </trkpt>
      <trkpt lat="42.724276" lon="0.913789">
        <ele>1425.535</ele>
        <time>2021-06-18T11:17:24Z</time>
      </trkpt>
      <trkpt lat="42.724209" lon="0.913795">
        <ele>1425.045</ele>
        <time>2021-06-18T11:17:25Z</time>
      </trkpt>
      <trkpt lat="42.724142" lon="0.913801">
        <ele>1424.447</ele>
        <time>2021-06-18T11:17:26Z</time>
      </trkpt>
      <trkpt lat="42.724073" lon="0.913818">
        <ele>1423.711</ele>
        <time>2021-06-18T11:17:27Z</time>
      </trkpt>
      <trkpt lat="42.724015" lon="0.913846">
        <ele>1423.308</ele>
        <time>2021-06-18T11:17:28Z</time>
      </trkpt>
      <trkpt lat="42.723952" lon="0.913876">
        <ele>1422.821</ele>
        <time>2021-06-18T11:17:29Z</time>
      </trkpt>
      <trkpt lat="42.723801" lon="0.913927">
        <ele>1421.680</ele>
        <time>2021-06-18T11:17:31Z</time>
      </trkpt>
      <trkpt lat="42.723645" lon="0.913982">
        <ele>1420.746</ele>
        <time>2021-06-18T11:17:33Z</time>
      </trkpt>
      <trkpt lat="42.723472" lon="0.914050">
        <ele>1420.010</ele>
        <time>2021-06-18T11:17:35Z</time>
      </trkpt>
      <trkpt lat="42.723305" lon="0.914131">
        <ele>1419.334</ele>
        <time>2021-06-18T11:17:37Z</time>
      </trkpt>
      <trkpt lat="42.723064" lon="0.914235">
        <ele>1418.824</ele>
        <time>2021-06-18T11:17:40Z</time>
      </trkpt>
      <trkpt lat="42.722988" lon="0.914253">
        <ele>1419.647</ele>
        <time>2021-06-18T11:17:41Z</time>
      </trkpt>
      <trkpt lat="42.722920" lon="0.914252">
        <ele>1419.914</ele>
        <time>2021-06-18T11:17:42Z</time>
      </trkpt>
      <trkpt lat="42.722705" lon="0.914215">
        <ele>1420.272</ele>
        <time>2021-06-18T11:17:46Z</time>
      </trkpt>
      <trkpt lat="42.722565" lon="0.914220">
        <ele>1422.513</ele>
        <time>2021-06-18T11:17:51Z</time>
      </trkpt>
      <trkpt lat="42.722474" lon="0.914228">
        <ele>1424.214</ele>
        <time>2021-06-18T11:17:55Z</time>
      </trkpt>
      <trkpt lat="42.722454" lon="0.914228">
        <ele>1424.508</ele>
        <time>2021-06-18T11:17:56Z</time>
      </trkpt>
      <trkpt lat="42.722382" lon="0.914224">
        <ele>1425.464</ele>
        <time>2021-06-18T11:17:59Z</time>
      </trkpt>
      <trkpt lat="42.722265" lon="0.914212">
        <ele>1426.583</ele>
        <time>2021-06-18T11:18:04Z</time>
      </trkpt>
      <trkpt lat="42.722141" lon="0.914201">
        <ele>1427.789</ele>
        <time>2021-06-18T11:18:10Z</time>
      </trkpt>
      <trkpt lat="42.722031" lon="0.914181">
        <ele>1428.483</ele>
        <time>2021-06-18T11:18:15Z</time>
      </trkpt>
      <trkpt lat="42.722008" lon="0.914176">
        <ele>1428.517</ele>
        <time>2021-06-18T11:18:16Z</time>
      </trkpt>
      <trkpt lat="42.721898" lon="0.914151">
        <ele>1428.947</ele>
        <time>2021-06-18T11:18:21Z</time>
      </trkpt>
      <trkpt lat="42.721854" lon="0.914143">
        <ele>1429.130</ele>
        <time>2021-06-18T11:18:23Z</time>
      </trkpt>
      <trkpt lat="42.721835" lon="0.914144">
        <ele>1429.367</ele>
        <time>2021-06-18T11:18:24Z</time>
      </trkpt>
      <trkpt lat="42.721759" lon="0.914150">
        <ele>1430.377</ele>
        <time>2021-06-18T11:18:28Z</time>
      </trkpt>
      <trkpt lat="42.721721" lon="0.914155">
        <ele>1430.961</ele>
        <time>2021-06-18T11:18:30Z</time>
      </trkpt>
      <trkpt lat="42.721618" lon="0.914148">
        <ele>1431.927</ele>
        <time>2021-06-18T11:18:35Z</time>
      </trkpt>
      <trkpt lat="42.721583" lon="0.914141">
        <ele>1432.208</ele>
        <time>2021-06-18T11:18:37Z</time>
      </trkpt>
      <trkpt lat="42.721498" lon="0.914134">
        <ele>1433.254</ele>
        <time>2021-06-18T11:18:42Z</time>
      </trkpt>
      <trkpt lat="42.721445" lon="0.914129">
        <ele>1433.843</ele>
        <time>2021-06-18T11:18:45Z</time>
      </trkpt>
      <trkpt lat="42.721384" lon="0.914121">
        <ele>1434.479</ele>
        <time>2021-06-18T11:18:49Z</time>
      </trkpt>
      <trkpt lat="42.721352" lon="0.914130">
        <ele>1435.373</ele>
        <time>2021-06-18T11:18:51Z</time>
      </trkpt>
      <trkpt lat="42.721290" lon="0.914123">
        <ele>1436.077</ele>
        <time>2021-06-18T11:18:55Z</time>
      </trkpt>
      <trkpt lat="42.721262" lon="0.914103">
        <ele>1435.857</ele>
        <time>2021-06-18T11:18:57Z</time>
      </trkpt>
      <trkpt lat="42.721235" lon="0.914089">
        <ele>1435.980</ele>
        <time>2021-06-18T11:18:59Z</time>
      </trkpt>
      <trkpt lat="42.721209" lon="0.914105">
        <ele>1436.847</ele>
        <time>2021-06-18T11:19:01Z</time>
      </trkpt>
      <trkpt lat="42.721195" lon="0.914112">
        <ele>1437.218</ele>
        <time>2021-06-18T11:19:02Z</time>
      </trkpt>
      <trkpt lat="42.721181" lon="0.914114">
        <ele>1437.598</ele>
        <time>2021-06-18T11:19:03Z</time>
      </trkpt>
      <trkpt lat="42.721127" lon="0.914110">
        <ele>1438.317</ele>
        <time>2021-06-18T11:19:07Z</time>
      </trkpt>
      <trkpt lat="42.721089" lon="0.914116">
        <ele>1438.208</ele>
        <time>2021-06-18T11:19:10Z</time>
      </trkpt>
      <trkpt lat="42.721060" lon="0.914129">
        <ele>1437.958</ele>
        <time>2021-06-18T11:19:13Z</time>
      </trkpt>
      <trkpt lat="42.721047" lon="0.914160">
        <ele>1438.287</ele>
        <time>2021-06-18T11:19:15Z</time>
      </trkpt>
      <trkpt lat="42.721023" lon="0.914228">
        <ele>1438.953</ele>
        <time>2021-06-18T11:19:19Z</time>
      </trkpt>
      <trkpt lat="42.721011" lon="0.914282">
        <ele>1439.577</ele>
        <time>2021-06-18T11:19:22Z</time>
      </trkpt>
      <trkpt lat="42.721009" lon="0.914298">
        <ele>1439.711</ele>
        <time>2021-06-18T11:19:23Z</time>
      </trkpt>
      <trkpt lat="42.721013" lon="0.914331">
        <ele>1440.581</ele>
        <time>2021-06-18T11:19:25Z</time>
      </trkpt>
      <trkpt lat="42.721024" lon="0.914388">
        <ele>1441.814</ele>
        <time>2021-06-18T11:19:28Z</time>
      </trkpt>
      <trkpt lat="42.721035" lon="0.914447">
        <ele>1443.331</ele>
        <time>2021-06-18T11:19:31Z</time>
      </trkpt>
      <trkpt lat="42.721046" lon="0.914552">
        <ele>1444.234</ele>
        <time>2021-06-18T11:19:36Z</time>
      </trkpt>
      <trkpt lat="42.721033" lon="0.914657">
        <ele>1444.455</ele>
        <time>2021-06-18T11:19:41Z</time>
      </trkpt>
      <trkpt lat="42.721002" lon="0.914719">
        <ele>1443.810</ele>
        <time>2021-06-18T11:19:44Z</time>
      </trkpt>
      <trkpt lat="42.720880" lon="0.914903">
        <ele>1443.408</ele>
        <time>2021-06-18T11:19:52Z</time>
      </trkpt>
      <trkpt lat="42.720696" lon="0.915047">
        <ele>1443.610</ele>
        <time>2021-06-18T11:20:01Z</time>
      </trkpt>
      <trkpt lat="42.720503" lon="0.915177">
        <ele>1442.829</ele>
        <time>2021-06-18T11:20:09Z</time>
      </trkpt>
      <trkpt lat="42.720443" lon="0.915264">
        <ele>1442.715</ele>
        <time>2021-06-18T11:20:12Z</time>
      </trkpt>
      <trkpt lat="42.720407" lon="0.915367">
        <ele>1442.999</ele>
        <time>2021-06-18T11:20:15Z</time>
      </trkpt>
      <trkpt lat="42.720372" lon="0.915576">
        <ele>1443.483</ele>
        <time>2021-06-18T11:20:21Z</time>
      </trkpt>
      <trkpt lat="42.720335" lon="0.915966">
        <ele>1443.353</ele>
        <time>2021-06-18T11:20:30Z</time>
      </trkpt>
      <trkpt lat="42.720270" lon="0.916392">
        <ele>1443.976</ele>
        <time>2021-06-18T11:20:40Z</time>
      </trkpt>
      <trkpt lat="42.720167" lon="0.916631">
        <ele>1445.473</ele>
        <time>2021-06-18T11:20:47Z</time>
      </trkpt>
      <trkpt lat="42.720010" lon="0.916756">
        <ele>1444.863</ele>
        <time>2021-06-18T11:20:53Z</time>
      </trkpt>
      <trkpt lat="42.719753" lon="0.916705">
        <ele>1443.844</ele>
        <time>2021-06-18T11:21:00Z</time>
      </trkpt>
      <trkpt lat="42.719497" lon="0.916630">
        <ele>1442.118</ele>
        <time>2021-06-18T11:21:08Z</time>
      </trkpt>
      <trkpt lat="42.719423" lon="0.916591">
        <ele>1441.208</ele>
        <time>2021-06-18T11:21:13Z</time>
      </trkpt>
      <trkpt lat="42.719421" lon="0.916593">
        <ele>1441.293</ele>
        <time>2021-06-18T11:21:14Z</time>
      </trkpt>
      <trkpt lat="42.719285" lon="0.916691">
        <ele>1444.022</ele>
        <time>2021-06-18T11:22:50Z</time>
      </trkpt>
      <trkpt lat="42.719235" lon="0.916685">
        <ele>1444.118</ele>
        <time>2021-06-18T11:22:52Z</time>
      </trkpt>
      <trkpt lat="42.719047" lon="0.916683">
        <ele>1443.842</ele>
        <time>2021-06-18T11:22:58Z</time>
      </trkpt>
      <trkpt lat="42.718831" lon="0.916793">
        <ele>1443.936</ele>
        <time>2021-06-18T11:23:05Z</time>
      </trkpt>
      <trkpt lat="42.718602" lon="0.917005">
        <ele>1444.496</ele>
        <time>2021-06-18T11:23:13Z</time>
      </trkpt>
      <trkpt lat="42.718444" lon="0.917198">
        <ele>1444.669</ele>
        <time>2021-06-18T11:23:19Z</time>
      </trkpt>
      <trkpt lat="42.718356" lon="0.917457">
        <ele>1444.426</ele>
        <time>2021-06-18T11:23:25Z</time>
      </trkpt>
      <trkpt lat="42.718350" lon="0.917500">
        <ele>1444.387</ele>
        <time>2021-06-18T11:23:26Z</time>
      </trkpt>
      <trkpt lat="42.718379" lon="0.917565">
        <ele>1445.142</ele>
        <time>2021-06-18T11:23:28Z</time>
      </trkpt>
      <trkpt lat="42.718431" lon="0.917542">
        <ele>1446.026</ele>
        <time>2021-06-18T11:23:31Z</time>
      </trkpt>
      <trkpt lat="42.718445" lon="0.917519">
        <ele>1446.108</ele>
        <time>2021-06-18T11:23:32Z</time>
      </trkpt>
      <trkpt lat="42.718516" lon="0.917426">
        <ele>1446.885</ele>
        <time>2021-06-18T11:23:36Z</time>
      </trkpt>
      <trkpt lat="42.718536" lon="0.917401">
        <ele>1446.964</ele>
        <time>2021-06-18T11:23:37Z</time>
      </trkpt>
      <trkpt lat="42.718639" lon="0.917272">
        <ele>1446.850</ele>
        <time>2021-06-18T11:23:42Z</time>
      </trkpt>
      <trkpt lat="42.718705" lon="0.917192">
        <ele>1446.864</ele>
        <time>2021-06-18T11:23:45Z</time>
      </trkpt>
      <trkpt lat="42.718898" lon="0.916941">
        <ele>1446.178</ele>
        <time>2021-06-18T11:23:54Z</time>
      </trkpt>
      <trkpt lat="42.719024" lon="0.916851">
        <ele>1446.198</ele>
        <time>2021-06-18T11:23:59Z</time>
      </trkpt>
      <trkpt lat="42.719158" lon="0.916863">
        <ele>1447.541</ele>
        <time>2021-06-18T11:24:04Z</time>
      </trkpt>
      <trkpt lat="42.719179" lon="0.916868">
        <ele>1447.618</ele>
        <time>2021-06-18T11:24:05Z</time>
      </trkpt>
      <trkpt lat="42.719226" lon="0.916885">
        <ele>1447.937</ele>
        <time>2021-06-18T11:24:08Z</time>
      </trkpt>
      <trkpt lat="42.719246" lon="0.916901">
        <ele>1448.249</ele>
        <time>2021-06-18T11:24:10Z</time>
      </trkpt>
      <trkpt lat="42.719281" lon="0.916913">
        <ele>1448.413</ele>
        <time>2021-06-18T11:24:13Z</time>
      </trkpt>
      <trkpt lat="42.719297" lon="0.916918">
        <ele>1448.508</ele>
        <time>2021-06-18T11:24:14Z</time>
      </trkpt>
      <trkpt lat="42.719339" lon="0.916916">
        <ele>1448.480</ele>
        <time>2021-06-18T11:24:16Z</time>
      </trkpt>
      <trkpt lat="42.719455" lon="0.916986">
        <ele>1449.569</ele>
        <time>2021-06-18T11:24:22Z</time>
      </trkpt>
      <trkpt lat="42.719625" lon="0.917087">
        <ele>1450.965</ele>
        <time>2021-06-18T11:24:30Z</time>
      </trkpt>
      <trkpt lat="42.719691" lon="0.917125">
        <ele>1451.529</ele>
        <time>2021-06-18T11:24:33Z</time>
      </trkpt>
      <trkpt lat="42.719793" lon="0.917182">
        <ele>1452.853</ele>
        <time>2021-06-18T11:24:38Z</time>
      </trkpt>
      <trkpt lat="42.719874" lon="0.917207">
        <ele>1453.883</ele>
        <time>2021-06-18T11:24:42Z</time>
      </trkpt>
      <trkpt lat="42.719952" lon="0.917227">
        <ele>1454.816</ele>
        <time>2021-06-18T11:24:46Z</time>
      </trkpt>
      <trkpt lat="42.719969" lon="0.917230">
        <ele>1455.073</ele>
        <time>2021-06-18T11:24:47Z</time>
      </trkpt>
      <trkpt lat="42.720050" lon="0.917253">
        <ele>1456.772</ele>
        <time>2021-06-18T11:24:51Z</time>
      </trkpt>
      <trkpt lat="42.720068" lon="0.917258">
        <ele>1457.213</ele>
        <time>2021-06-18T11:24:52Z</time>
      </trkpt>
      <trkpt lat="42.720146" lon="0.917269">
        <ele>1458.814</ele>
        <time>2021-06-18T11:24:56Z</time>
      </trkpt>
      <trkpt lat="42.720185" lon="0.917251">
        <ele>1459.008</ele>
        <time>2021-06-18T11:24:58Z</time>
      </trkpt>
      <trkpt lat="42.720241" lon="0.917172">
        <ele>1458.434</ele>
        <time>2021-06-18T11:25:02Z</time>
      </trkpt>
      <trkpt lat="42.720284" lon="0.917103">
        <ele>1458.033</ele>
        <time>2021-06-18T11:25:05Z</time>
      </trkpt>
      <trkpt lat="42.720311" lon="0.917054">
        <ele>1458.099</ele>
        <time>2021-06-18T11:25:07Z</time>
      </trkpt>
      <trkpt lat="42.720340" lon="0.917008">
        <ele>1458.173</ele>
        <time>2021-06-18T11:25:09Z</time>
      </trkpt>
      <trkpt lat="42.720435" lon="0.916885">
        <ele>1458.857</ele>
        <time>2021-06-18T11:25:15Z</time>
      </trkpt>
      <trkpt lat="42.720452" lon="0.916867">
        <ele>1459.067</ele>
        <time>2021-06-18T11:25:16Z</time>
      </trkpt>
      <trkpt lat="42.720558" lon="0.916779">
        <ele>1461.180</ele>
        <time>2021-06-18T11:25:22Z</time>
      </trkpt>
      <trkpt lat="42.720593" lon="0.916741">
        <ele>1461.067</ele>
        <time>2021-06-18T11:25:24Z</time>
      </trkpt>
      <trkpt lat="42.720709" lon="0.916607">
        <ele>1461.159</ele>
        <time>2021-06-18T11:25:31Z</time>
      </trkpt>
      <trkpt lat="42.720723" lon="0.916581">
        <ele>1461.203</ele>
        <time>2021-06-18T11:25:32Z</time>
      </trkpt>
      <trkpt lat="42.720829" lon="0.916412">
        <ele>1462.123</ele>
        <time>2021-06-18T11:25:39Z</time>
      </trkpt>
      <trkpt lat="42.720842" lon="0.916386">
        <ele>1462.208</ele>
        <time>2021-06-18T11:25:40Z</time>
      </trkpt>
      <trkpt lat="42.720945" lon="0.916187">
        <ele>1462.872</ele>
        <time>2021-06-18T11:25:48Z</time>
      </trkpt>
      <trkpt lat="42.721022" lon="0.916062">
        <ele>1463.731</ele>
        <time>2021-06-18T11:25:53Z</time>
      </trkpt>
      <trkpt lat="42.721077" lon="0.916008">
        <ele>1464.327</ele>
        <time>2021-06-18T11:25:56Z</time>
      </trkpt>
      <trkpt lat="42.721162" lon="0.916002">
        <ele>1465.171</ele>
        <time>2021-06-18T11:26:00Z</time>
      </trkpt>
      <trkpt lat="42.721183" lon="0.916013">
        <ele>1465.255</ele>
        <time>2021-06-18T11:26:01Z</time>
      </trkpt>
      <trkpt lat="42.721243" lon="0.916062">
        <ele>1465.985</ele>
        <time>2021-06-18T11:26:06Z</time>
      </trkpt>
      <trkpt lat="42.721244" lon="0.916061">
        <ele>1465.918</ele>
        <time>2021-06-18T11:26:07Z</time>
      </trkpt>
      <trkpt lat="42.721265" lon="0.916095">
        <ele>1466.345</ele>
        <time>2021-06-18T11:27:02Z</time>
      </trkpt>
      <trkpt lat="42.721284" lon="0.916158">
        <ele>1466.774</ele>
        <time>2021-06-18T11:27:05Z</time>
      </trkpt>
      <trkpt lat="42.721339" lon="0.916348">
        <ele>1467.756</ele>
        <time>2021-06-18T11:27:12Z</time>
      </trkpt>
      <trkpt lat="42.721399" lon="0.916550">
        <ele>1469.221</ele>
        <time>2021-06-18T11:27:20Z</time>
      </trkpt>
      <trkpt lat="42.721441" lon="0.916703">
        <ele>1470.708</ele>
        <time>2021-06-18T11:27:26Z</time>
      </trkpt>
      <trkpt lat="42.721451" lon="0.916754">
        <ele>1471.384</ele>
        <time>2021-06-18T11:27:28Z</time>
      </trkpt>
      <trkpt lat="42.721487" lon="0.916903">
        <ele>1473.293</ele>
        <time>2021-06-18T11:27:34Z</time>
      </trkpt>
      <trkpt lat="42.721547" lon="0.917049">
        <ele>1475.139</ele>
        <time>2021-06-18T11:27:41Z</time>
      </trkpt>
      <trkpt lat="42.721610" lon="0.917166">
        <ele>1476.673</ele>
        <time>2021-06-18T11:27:47Z</time>
      </trkpt>
      <trkpt lat="42.721638" lon="0.917200">
        <ele>1476.987</ele>
        <time>2021-06-18T11:27:49Z</time>
      </trkpt>
      <trkpt lat="42.721711" lon="0.917253">
        <ele>1478.167</ele>
        <time>2021-06-18T11:27:54Z</time>
      </trkpt>
      <trkpt lat="42.721774" lon="0.917272">
        <ele>1479.530</ele>
        <time>2021-06-18T11:27:58Z</time>
      </trkpt>
      <trkpt lat="42.721872" lon="0.917192">
        <ele>1480.357</ele>
        <time>2021-06-18T11:28:05Z</time>
      </trkpt>
      <trkpt lat="42.721882" lon="0.917171">
        <ele>1480.369</ele>
        <time>2021-06-18T11:28:06Z</time>
      </trkpt>
      <trkpt lat="42.721943" lon="0.916997">
        <ele>1479.504</ele>
        <time>2021-06-18T11:28:14Z</time>
      </trkpt>
      <trkpt lat="42.721948" lon="0.916974">
        <ele>1479.524</ele>
        <time>2021-06-18T11:28:15Z</time>
      </trkpt>
      <trkpt lat="42.721994" lon="0.916786">
        <ele>1479.808</ele>
        <time>2021-06-18T11:28:23Z</time>
      </trkpt>
      <trkpt lat="42.721996" lon="0.916737">
        <ele>1479.533</ele>
        <time>2021-06-18T11:28:25Z</time>
      </trkpt>
      <trkpt lat="42.722010" lon="0.916674">
        <ele>1479.632</ele>
        <time>2021-06-18T11:28:28Z</time>
      </trkpt>
      <trkpt lat="42.722014" lon="0.916649">
        <ele>1479.768</ele>
        <time>2021-06-18T11:28:29Z</time>
      </trkpt>
      <trkpt lat="42.722029" lon="0.916408">
        <ele>1480.152</ele>
        <time>2021-06-18T11:28:38Z</time>
      </trkpt>
      <trkpt lat="42.722017" lon="0.916181">
        <ele>1480.266</ele>
        <time>2021-06-18T11:28:45Z</time>
      </trkpt>
      <trkpt lat="42.722036" lon="0.915972">
        <ele>1480.556</ele>
        <time>2021-06-18T11:28:52Z</time>
      </trkpt>
      <trkpt lat="42.722052" lon="0.915955">
        <ele>1480.839</ele>
        <time>2021-06-18T11:28:53Z</time>
      </trkpt>
      <trkpt lat="42.722071" lon="0.915944">
        <ele>1481.346</ele>
        <time>2021-06-18T11:28:54Z</time>
      </trkpt>
      <trkpt lat="42.722140" lon="0.915948">
        <ele>1483.191</ele>
        <time>2021-06-18T11:28:58Z</time>
      </trkpt>
      <trkpt lat="42.722153" lon="0.915962">
        <ele>1483.581</ele>
        <time>2021-06-18T11:28:59Z</time>
      </trkpt>
      <trkpt lat="42.722190" lon="0.916052">
        <ele>1485.419</ele>
        <time>2021-06-18T11:29:04Z</time>
      </trkpt>
      <trkpt lat="42.722186" lon="0.916074">
        <ele>1485.508</ele>
        <time>2021-06-18T11:29:05Z</time>
      </trkpt>
      <trkpt lat="42.722167" lon="0.916201">
        <ele>1485.136</ele>
        <time>2021-06-18T11:29:10Z</time>
      </trkpt>
      <trkpt lat="42.722165" lon="0.916228">
        <ele>1485.175</ele>
        <time>2021-06-18T11:29:11Z</time>
      </trkpt>
      <trkpt lat="42.722158" lon="0.916476">
        <ele>1484.931</ele>
        <time>2021-06-18T11:29:20Z</time>
      </trkpt>
      <trkpt lat="42.722150" lon="0.916641">
        <ele>1485.135</ele>
        <time>2021-06-18T11:29:26Z</time>
      </trkpt>
      <trkpt lat="42.722138" lon="0.916750">
        <ele>1485.329</ele>
        <time>2021-06-18T11:29:30Z</time>
      </trkpt>
      <trkpt lat="42.722124" lon="0.916950">
        <ele>1486.289</ele>
        <time>2021-06-18T11:29:38Z</time>
      </trkpt>
      <trkpt lat="42.722116" lon="0.917017">
        <ele>1486.762</ele>
        <time>2021-06-18T11:29:41Z</time>
      </trkpt>
      <trkpt lat="42.722105" lon="0.917126">
        <ele>1487.739</ele>
        <time>2021-06-18T11:29:46Z</time>
      </trkpt>
      <trkpt lat="42.722089" lon="0.917182">
        <ele>1487.746</ele>
        <time>2021-06-18T11:29:49Z</time>
      </trkpt>
      <trkpt lat="42.722079" lon="0.917243">
        <ele>1488.088</ele>
        <time>2021-06-18T11:29:52Z</time>
      </trkpt>
      <trkpt lat="42.722080" lon="0.917287">
        <ele>1488.416</ele>
        <time>2021-06-18T11:29:54Z</time>
      </trkpt>
      <trkpt lat="42.722069" lon="0.917412">
        <ele>1489.108</ele>
        <time>2021-06-18T11:30:00Z</time>
      </trkpt>
      <trkpt lat="42.722075" lon="0.917531">
        <ele>1490.211</ele>
        <time>2021-06-18T11:30:06Z</time>
      </trkpt>
      <trkpt lat="42.722081" lon="0.917552">
        <ele>1490.430</ele>
        <time>2021-06-18T11:30:07Z</time>
      </trkpt>
      <trkpt lat="42.722117" lon="0.917667">
        <ele>1491.736</ele>
        <time>2021-06-18T11:30:13Z</time>
      </trkpt>
      <trkpt lat="42.722125" lon="0.917686">
        <ele>1491.930</ele>
        <time>2021-06-18T11:30:14Z</time>
      </trkpt>
      <trkpt lat="42.722159" lon="0.917785">
        <ele>1492.924</ele>
        <time>2021-06-18T11:30:19Z</time>
      </trkpt>
      <trkpt lat="42.722191" lon="0.917863">
        <ele>1493.874</ele>
        <time>2021-06-18T11:30:23Z</time>
      </trkpt>
      <trkpt lat="42.722233" lon="0.917995">
        <ele>1494.517</ele>
        <time>2021-06-18T11:30:29Z</time>
      </trkpt>
      <trkpt lat="42.722248" lon="0.918038">
        <ele>1494.714</ele>
        <time>2021-06-18T11:30:31Z</time>
      </trkpt>
      <trkpt lat="42.722303" lon="0.918173">
        <ele>1495.993</ele>
        <time>2021-06-18T11:30:38Z</time>
      </trkpt>
      <trkpt lat="42.722326" lon="0.918235">
        <ele>1496.465</ele>
        <time>2021-06-18T11:30:41Z</time>
      </trkpt>
      <trkpt lat="42.722350" lon="0.918298">
        <ele>1496.821</ele>
        <time>2021-06-18T11:30:44Z</time>
      </trkpt>
      <trkpt lat="42.722400" lon="0.918443">
        <ele>1498.408</ele>
        <time>2021-06-18T11:30:51Z</time>
      </trkpt>
      <trkpt lat="42.722419" lon="0.918579">
        <ele>1499.496</ele>
        <time>2021-06-18T11:30:57Z</time>
      </trkpt>
      <trkpt lat="42.722419" lon="0.918603">
        <ele>1499.595</ele>
        <time>2021-06-18T11:30:58Z</time>
      </trkpt>
      <trkpt lat="42.722374" lon="0.918766">
        <ele>1500.731</ele>
        <time>2021-06-18T11:31:05Z</time>
      </trkpt>
      <trkpt lat="42.722340" lon="0.918827">
        <ele>1500.965</ele>
        <time>2021-06-18T11:31:08Z</time>
      </trkpt>
      <trkpt lat="42.722254" lon="0.918935">
        <ele>1501.639</ele>
        <time>2021-06-18T11:31:14Z</time>
      </trkpt>
      <trkpt lat="42.722166" lon="0.919037">
        <ele>1503.799</ele>
        <time>2021-06-18T11:31:21Z</time>
      </trkpt>
      <trkpt lat="42.722156" lon="0.919053">
        <ele>1504.192</ele>
        <time>2021-06-18T11:31:22Z</time>
      </trkpt>
      <trkpt lat="42.722088" lon="0.919131">
        <ele>1505.759</ele>
        <time>2021-06-18T11:31:28Z</time>
      </trkpt>
      <trkpt lat="42.722053" lon="0.919163">
        <ele>1506.381</ele>
        <time>2021-06-18T11:31:31Z</time>
      </trkpt>
      <trkpt lat="42.722019" lon="0.919189">
        <ele>1507.161</ele>
        <time>2021-06-18T11:31:34Z</time>
      </trkpt>
      <trkpt lat="42.721975" lon="0.919215">
        <ele>1507.817</ele>
        <time>2021-06-18T11:31:38Z</time>
      </trkpt>
      <trkpt lat="42.721963" lon="0.919221">
        <ele>1508.008</ele>
        <time>2021-06-18T11:31:39Z</time>
      </trkpt>
      <trkpt lat="42.721907" lon="0.919236">
        <ele>1508.435</ele>
        <time>2021-06-18T11:31:43Z</time>
      </trkpt>
      <trkpt lat="42.721854" lon="0.919254">
        <ele>1508.824</ele>
        <time>2021-06-18T11:31:47Z</time>
      </trkpt>
      <trkpt lat="42.721770" lon="0.919272">
        <ele>1509.130</ele>
        <time>2021-06-18T11:31:53Z</time>
      </trkpt>
      <trkpt lat="42.721744" lon="0.919283">
        <ele>1509.394</ele>
        <time>2021-06-18T11:31:55Z</time>
      </trkpt>
      <trkpt lat="42.721675" lon="0.919324">
        <ele>1510.038</ele>
        <time>2021-06-18T11:32:00Z</time>
      </trkpt>
      <trkpt lat="42.721614" lon="0.919344">
        <ele>1509.958</ele>
        <time>2021-06-18T11:32:04Z</time>
      </trkpt>
      <trkpt lat="42.721512" lon="0.919414">
        <ele>1510.241</ele>
        <time>2021-06-18T11:32:11Z</time>
      </trkpt>
      <trkpt lat="42.721428" lon="0.919536">
        <ele>1511.048</ele>
        <time>2021-06-18T11:32:19Z</time>
      </trkpt>
      <trkpt lat="42.721425" lon="0.919556">
        <ele>1511.379</ele>
        <time>2021-06-18T11:32:20Z</time>
      </trkpt>
      <trkpt lat="42.721410" lon="0.919699">
        <ele>1513.205</ele>
        <time>2021-06-18T11:32:27Z</time>
      </trkpt>
      <trkpt lat="42.721378" lon="0.919852">
        <ele>1515.425</ele>
        <time>2021-06-18T11:32:35Z</time>
      </trkpt>
      <trkpt lat="42.721369" lon="0.919869">
        <ele>1515.708</ele>
        <time>2021-06-18T11:32:36Z</time>
      </trkpt>
      <trkpt lat="42.721305" lon="0.919957">
        <ele>1517.754</ele>
        <time>2021-06-18T11:32:42Z</time>
      </trkpt>
      <trkpt lat="42.721279" lon="0.919975">
        <ele>1518.283</ele>
        <time>2021-06-18T11:32:44Z</time>
      </trkpt>
      <trkpt lat="42.721199" lon="0.919989">
        <ele>1519.199</ele>
        <time>2021-06-18T11:32:49Z</time>
      </trkpt>
      <trkpt lat="42.721109" lon="0.919978">
        <ele>1519.423</ele>
        <time>2021-06-18T11:32:55Z</time>
      </trkpt>
      <trkpt lat="42.721095" lon="0.919973">
        <ele>1519.667</ele>
        <time>2021-06-18T11:32:56Z</time>
      </trkpt>
      <trkpt lat="42.721068" lon="0.919961">
        <ele>1519.917</ele>
        <time>2021-06-18T11:32:58Z</time>
      </trkpt>
      <trkpt lat="42.721026" lon="0.919939">
        <ele>1520.360</ele>
        <time>2021-06-18T11:33:01Z</time>
      </trkpt>
      <trkpt lat="42.721012" lon="0.919932">
        <ele>1520.557</ele>
        <time>2021-06-18T11:33:02Z</time>
      </trkpt>
      <trkpt lat="42.720939" lon="0.919902">
        <ele>1521.398</ele>
        <time>2021-06-18T11:33:08Z</time>
      </trkpt>
      <trkpt lat="42.720878" lon="0.919889">
        <ele>1522.315</ele>
        <time>2021-06-18T11:33:13Z</time>
      </trkpt>
      <trkpt lat="42.720855" lon="0.919882">
        <ele>1522.726</ele>
        <time>2021-06-18T11:33:15Z</time>
      </trkpt>
      <trkpt lat="42.720814" lon="0.919854">
        <ele>1522.308</ele>
        <time>2021-06-18T11:33:19Z</time>
      </trkpt>
      <trkpt lat="42.720802" lon="0.919854">
        <ele>1522.366</ele>
        <time>2021-06-18T11:33:20Z</time>
      </trkpt>
      <trkpt lat="42.720789" lon="0.919855">
        <ele>1522.435</ele>
        <time>2021-06-18T11:33:21Z</time>
      </trkpt>
      <trkpt lat="42.720711" lon="0.919856">
        <ele>1522.621</ele>
        <time>2021-06-18T11:33:26Z</time>
      </trkpt>
      <trkpt lat="42.720676" lon="0.919856">
        <ele>1522.625</ele>
        <time>2021-06-18T11:33:28Z</time>
      </trkpt>
      <trkpt lat="42.720568" lon="0.919897">
        <ele>1524.019</ele>
        <time>2021-06-18T11:33:34Z</time>
      </trkpt>
      <trkpt lat="42.720486" lon="0.919950">
        <ele>1524.129</ele>
        <time>2021-06-18T11:33:39Z</time>
      </trkpt>
      <trkpt lat="42.720440" lon="0.919990">
        <ele>1524.242</ele>
        <time>2021-06-18T11:33:42Z</time>
      </trkpt>
      <trkpt lat="42.720364" lon="0.920082">
        <ele>1525.489</ele>
        <time>2021-06-18T11:33:48Z</time>
      </trkpt>
      <trkpt lat="42.720261" lon="0.920163">
        <ele>1526.583</ele>
        <time>2021-06-18T11:33:55Z</time>
      </trkpt>
      <trkpt lat="42.720167" lon="0.920241">
        <ele>1526.625</ele>
        <time>2021-06-18T11:34:02Z</time>
      </trkpt>
      <trkpt lat="42.720111" lon="0.920292">
        <ele>1526.717</ele>
        <time>2021-06-18T11:34:06Z</time>
      </trkpt>
      <trkpt lat="42.720083" lon="0.920319">
        <ele>1526.908</ele>
        <time>2021-06-18T11:34:08Z</time>
      </trkpt>
      <trkpt lat="42.719975" lon="0.920420">
        <ele>1527.515</ele>
        <time>2021-06-18T11:34:15Z</time>
      </trkpt>
      <trkpt lat="42.719847" lon="0.920498">
        <ele>1527.144</ele>
        <time>2021-06-18T11:34:21Z</time>
      </trkpt>
      <trkpt lat="42.719733" lon="0.920607">
        <ele>1527.640</ele>
        <time>2021-06-18T11:34:28Z</time>
      </trkpt>
      <trkpt lat="42.719681" lon="0.920672">
        <ele>1527.894</ele>
        <time>2021-06-18T11:34:32Z</time>
      </trkpt>
      <trkpt lat="42.719643" lon="0.920739">
        <ele>1528.568</ele>
        <time>2021-06-18T11:34:36Z</time>
      </trkpt>
      <trkpt lat="42.719617" lon="0.920769">
        <ele>1528.638</ele>
        <time>2021-06-18T11:34:38Z</time>
      </trkpt>
      <trkpt lat="42.719583" lon="0.920812">
        <ele>1528.911</ele>
        <time>2021-06-18T11:34:41Z</time>
      </trkpt>
      <trkpt lat="42.719532" lon="0.920862">
        <ele>1529.088</ele>
        <time>2021-06-18T11:34:45Z</time>
      </trkpt>
      <trkpt lat="42.719515" lon="0.920885">
        <ele>1529.239</ele>
        <time>2021-06-18T11:34:47Z</time>
      </trkpt>
      <trkpt lat="42.719494" lon="0.920900">
        <ele>1529.101</ele>
        <time>2021-06-18T11:34:49Z</time>
      </trkpt>
      <trkpt lat="42.719476" lon="0.920924">
        <ele>1529.421</ele>
        <time>2021-06-18T11:34:51Z</time>
      </trkpt>
      <trkpt lat="42.719428" lon="0.921012">
        <ele>1530.708</ele>
        <time>2021-06-18T11:34:57Z</time>
      </trkpt>
      <trkpt lat="42.719411" lon="0.921044">
        <ele>1531.040</ele>
        <time>2021-06-18T11:34:59Z</time>
      </trkpt>
      <trkpt lat="42.719383" lon="0.921106">
        <ele>1531.759</ele>
        <time>2021-06-18T11:35:02Z</time>
      </trkpt>
      <trkpt lat="42.719366" lon="0.921138">
        <ele>1531.995</ele>
        <time>2021-06-18T11:35:04Z</time>
      </trkpt>
      <trkpt lat="42.719329" lon="0.921224">
        <ele>1532.949</ele>
        <time>2021-06-18T11:35:08Z</time>
      </trkpt>
      <trkpt lat="42.719313" lon="0.921264">
        <ele>1533.413</ele>
        <time>2021-06-18T11:35:10Z</time>
      </trkpt>
      <trkpt lat="42.719268" lon="0.921375">
        <ele>1534.633</ele>
        <time>2021-06-18T11:35:15Z</time>
      </trkpt>
      <trkpt lat="42.719257" lon="0.921417">
        <ele>1535.246</ele>
        <time>2021-06-18T11:35:17Z</time>
      </trkpt>
      <trkpt lat="42.719225" lon="0.921526">
        <ele>1536.383</ele>
        <time>2021-06-18T11:35:22Z</time>
      </trkpt>
      <trkpt lat="42.719215" lon="0.921568">
        <ele>1536.838</ele>
        <time>2021-06-18T11:35:24Z</time>
      </trkpt>
      <trkpt lat="42.719170" lon="0.921655">
        <ele>1536.970</ele>
        <time>2021-06-18T11:35:29Z</time>
      </trkpt>
      <trkpt lat="42.719088" lon="0.921712">
        <ele>1538.417</ele>
        <time>2021-06-18T11:35:35Z</time>
      </trkpt>
      <trkpt lat="42.719065" lon="0.921740">
        <ele>1539.208</ele>
        <time>2021-06-18T11:35:37Z</time>
      </trkpt>
      <trkpt lat="42.719008" lon="0.921789">
        <ele>1540.130</ele>
        <time>2021-06-18T11:35:41Z</time>
      </trkpt>
      <trkpt lat="42.718925" lon="0.921828">
        <ele>1540.359</ele>
        <time>2021-06-18T11:35:47Z</time>
      </trkpt>
      <trkpt lat="42.718905" lon="0.921834">
        <ele>1540.215</ele>
        <time>2021-06-18T11:35:48Z</time>
      </trkpt>
      <trkpt lat="42.718788" lon="0.921845">
        <ele>1540.419</ele>
        <time>2021-06-18T11:35:55Z</time>
      </trkpt>
      <trkpt lat="42.718770" lon="0.921842">
        <ele>1540.493</ele>
        <time>2021-06-18T11:35:56Z</time>
      </trkpt>
      <trkpt lat="42.718638" lon="0.921855">
        <ele>1541.013</ele>
        <time>2021-06-18T11:36:03Z</time>
      </trkpt>
      <trkpt lat="42.718620" lon="0.921860">
        <ele>1541.296</ele>
        <time>2021-06-18T11:36:04Z</time>
      </trkpt>
      <trkpt lat="42.718522" lon="0.921894">
        <ele>1542.413</ele>
        <time>2021-06-18T11:36:10Z</time>
      </trkpt>
      <trkpt lat="42.718509" lon="0.921902">
        <ele>1542.775</ele>
        <time>2021-06-18T11:36:11Z</time>
      </trkpt>
      <trkpt lat="42.718453" lon="0.921955">
        <ele>1544.328</ele>
        <time>2021-06-18T11:36:16Z</time>
      </trkpt>
      <trkpt lat="42.718444" lon="0.921965">
        <ele>1544.620</ele>
        <time>2021-06-18T11:36:17Z</time>
      </trkpt>
      <trkpt lat="42.718381" lon="0.922012">
        <ele>1546.008</ele>
        <time>2021-06-18T11:36:22Z</time>
      </trkpt>
      <trkpt lat="42.718367" lon="0.922020">
        <ele>1546.294</ele>
        <time>2021-06-18T11:36:23Z</time>
      </trkpt>
      <trkpt lat="42.718304" lon="0.922049">
        <ele>1546.793</ele>
        <time>2021-06-18T11:36:27Z</time>
      </trkpt>
      <trkpt lat="42.718263" lon="0.922073">
        <ele>1547.099</ele>
        <time>2021-06-18T11:36:30Z</time>
      </trkpt>
      <trkpt lat="42.718221" lon="0.922094">
        <ele>1547.193</ele>
        <time>2021-06-18T11:36:33Z</time>
      </trkpt>
      <trkpt lat="42.718149" lon="0.922141">
        <ele>1547.487</ele>
        <time>2021-06-18T11:36:38Z</time>
      </trkpt>
      <trkpt lat="42.718137" lon="0.922154">
        <ele>1547.647</ele>
        <time>2021-06-18T11:36:39Z</time>
      </trkpt>
      <trkpt lat="42.718055" lon="0.922217">
        <ele>1547.970</ele>
        <time>2021-06-18T11:36:45Z</time>
      </trkpt>
      <trkpt lat="42.718042" lon="0.922225">
        <ele>1548.017</ele>
        <time>2021-06-18T11:36:46Z</time>
      </trkpt>
      <trkpt lat="42.717944" lon="0.922282">
        <ele>1549.541</ele>
        <time>2021-06-18T11:36:53Z</time>
      </trkpt>
      <trkpt lat="42.717930" lon="0.922291">
        <ele>1549.881</ele>
        <time>2021-06-18T11:36:54Z</time>
      </trkpt>
      <trkpt lat="42.717866" lon="0.922340">
        <ele>1551.309</ele>
        <time>2021-06-18T11:36:59Z</time>
      </trkpt>
      <trkpt lat="42.717840" lon="0.922362">
        <ele>1552.008</ele>
        <time>2021-06-18T11:37:01Z</time>
      </trkpt>
      <trkpt lat="42.717814" lon="0.922381">
        <ele>1552.761</ele>
        <time>2021-06-18T11:37:03Z</time>
      </trkpt>
      <trkpt lat="42.717781" lon="0.922386">
        <ele>1552.980</ele>
        <time>2021-06-18T11:37:05Z</time>
      </trkpt>
      <trkpt lat="42.717686" lon="0.922423">
        <ele>1555.896</ele>
        <time>2021-06-18T11:37:11Z</time>
      </trkpt>
      <trkpt lat="42.717669" lon="0.922428">
        <ele>1556.390</ele>
        <time>2021-06-18T11:37:12Z</time>
      </trkpt>
      <trkpt lat="42.717590" lon="0.922432">
        <ele>1557.874</ele>
        <time>2021-06-18T11:37:17Z</time>
      </trkpt>
      <trkpt lat="42.717560" lon="0.922424">
        <ele>1558.084</ele>
        <time>2021-06-18T11:37:19Z</time>
      </trkpt>
      <trkpt lat="42.717514" lon="0.922413">
        <ele>1558.677</ele>
        <time>2021-06-18T11:37:23Z</time>
      </trkpt>
      <trkpt lat="42.717506" lon="0.922403">
        <ele>1558.494</ele>
        <time>2021-06-18T11:37:24Z</time>
      </trkpt>
      <trkpt lat="42.717497" lon="0.922392">
        <ele>1558.549</ele>
        <time>2021-06-18T11:37:25Z</time>
      </trkpt>
      <trkpt lat="42.717468" lon="0.922359">
        <ele>1559.402</ele>
        <time>2021-06-18T11:37:28Z</time>
      </trkpt>
      <trkpt lat="42.717442" lon="0.922348">
        <ele>1560.722</ele>
        <time>2021-06-18T11:37:30Z</time>
      </trkpt>
      <trkpt lat="42.717419" lon="0.922330">
        <ele>1561.508</ele>
        <time>2021-06-18T11:37:32Z</time>
      </trkpt>
      <trkpt lat="42.717370" lon="0.922262">
        <ele>1562.011</ele>
        <time>2021-06-18T11:37:36Z</time>
      </trkpt>
      <trkpt lat="42.717319" lon="0.922193">
        <ele>1561.810</ele>
        <time>2021-06-18T11:37:40Z</time>
      </trkpt>
      <trkpt lat="42.717219" lon="0.922109">
        <ele>1562.886</ele>
        <time>2021-06-18T11:37:47Z</time>
      </trkpt>
      <trkpt lat="42.717098" lon="0.922041">
        <ele>1561.230</ele>
        <time>2021-06-18T11:37:55Z</time>
      </trkpt>
      <trkpt lat="42.716976" lon="0.922031">
        <ele>1562.394</ele>
        <time>2021-06-18T11:38:02Z</time>
      </trkpt>
      <trkpt lat="42.716926" lon="0.922052">
        <ele>1563.974</ele>
        <time>2021-06-18T11:38:05Z</time>
      </trkpt>
      <trkpt lat="42.716876" lon="0.922074">
        <ele>1565.547</ele>
        <time>2021-06-18T11:38:08Z</time>
      </trkpt>
      <trkpt lat="42.716793" lon="0.922103">
        <ele>1567.714</ele>
        <time>2021-06-18T11:38:13Z</time>
      </trkpt>
      <trkpt lat="42.716749" lon="0.922107">
        <ele>1568.228</ele>
        <time>2021-06-18T11:38:16Z</time>
      </trkpt>
      <trkpt lat="42.716723" lon="0.922103">
        <ele>1568.289</ele>
        <time>2021-06-18T11:38:18Z</time>
      </trkpt>
      <trkpt lat="42.716709" lon="0.922107">
        <ele>1568.517</ele>
        <time>2021-06-18T11:38:19Z</time>
      </trkpt>
      <trkpt lat="42.716646" lon="0.922113">
        <ele>1569.608</ele>
        <time>2021-06-18T11:38:24Z</time>
      </trkpt>
      <trkpt lat="42.716581" lon="0.922115">
        <ele>1571.289</ele>
        <time>2021-06-18T11:38:30Z</time>
      </trkpt>
      <trkpt lat="42.716552" lon="0.922114">
        <ele>1571.928</ele>
        <time>2021-06-18T11:38:32Z</time>
      </trkpt>
      <trkpt lat="42.716497" lon="0.922107">
        <ele>1572.814</ele>
        <time>2021-06-18T11:38:36Z</time>
      </trkpt>
      <trkpt lat="42.716452" lon="0.922096">
        <ele>1573.518</ele>
        <time>2021-06-18T11:38:39Z</time>
      </trkpt>
      <trkpt lat="42.716411" lon="0.922051">
        <ele>1572.622</ele>
        <time>2021-06-18T11:38:43Z</time>
      </trkpt>
      <trkpt lat="42.716401" lon="0.922042">
        <ele>1572.582</ele>
        <time>2021-06-18T11:38:44Z</time>
      </trkpt>
      <trkpt lat="42.716384" lon="0.922004">
        <ele>1571.555</ele>
        <time>2021-06-18T11:38:46Z</time>
      </trkpt>
      <trkpt lat="42.716354" lon="0.921915">
        <ele>1569.662</ele>
        <time>2021-06-18T11:38:50Z</time>
      </trkpt>
      <trkpt lat="42.716330" lon="0.921842">
        <ele>1569.169</ele>
        <time>2021-06-18T11:38:53Z</time>
      </trkpt>
      <trkpt lat="42.716287" lon="0.921750">
        <ele>1568.804</ele>
        <time>2021-06-18T11:38:57Z</time>
      </trkpt>
      <trkpt lat="42.716212" lon="0.921634">
        <ele>1569.124</ele>
        <time>2021-06-18T11:39:03Z</time>
      </trkpt>
      <trkpt lat="42.716181" lon="0.921602">
        <ele>1569.508</ele>
        <time>2021-06-18T11:39:05Z</time>
      </trkpt>
      <trkpt lat="42.716093" lon="0.921527">
        <ele>1570.823</ele>
        <time>2021-06-18T11:39:10Z</time>
      </trkpt>
      <trkpt lat="42.716028" lon="0.921495">
        <ele>1571.412</ele>
        <time>2021-06-18T11:39:13Z</time>
      </trkpt>
      <trkpt lat="42.715904" lon="0.921425">
        <ele>1572.488</ele>
        <time>2021-06-18T11:39:20Z</time>
      </trkpt>
      <trkpt lat="42.715869" lon="0.921400">
        <ele>1572.682</ele>
        <time>2021-06-18T11:39:22Z</time>
      </trkpt>
      <trkpt lat="42.715759" lon="0.921336">
        <ele>1574.296</ele>
        <time>2021-06-18T11:39:28Z</time>
      </trkpt>
      <trkpt lat="42.715628" lon="0.921254">
        <ele>1575.426</ele>
        <time>2021-06-18T11:39:35Z</time>
      </trkpt>
      <trkpt lat="42.715548" lon="0.921207">
        <ele>1575.739</ele>
        <time>2021-06-18T11:39:39Z</time>
      </trkpt>
      <trkpt lat="42.715436" lon="0.921148">
        <ele>1576.416</ele>
        <time>2021-06-18T11:39:45Z</time>
      </trkpt>
      <trkpt lat="42.715418" lon="0.921140">
        <ele>1576.663</ele>
        <time>2021-06-18T11:39:46Z</time>
      </trkpt>
      <trkpt lat="42.715287" lon="0.921108">
        <ele>1578.744</ele>
        <time>2021-06-18T11:39:53Z</time>
      </trkpt>
      <trkpt lat="42.715226" lon="0.921093">
        <ele>1580.318</ele>
        <time>2021-06-18T11:39:56Z</time>
      </trkpt>
      <trkpt lat="42.715141" lon="0.921012">
        <ele>1581.808</ele>
        <time>2021-06-18T11:40:01Z</time>
      </trkpt>
      <trkpt lat="42.715111" lon="0.920967">
        <ele>1582.273</ele>
        <time>2021-06-18T11:40:04Z</time>
      </trkpt>
      <trkpt lat="42.715108" lon="0.920950">
        <ele>1582.012</ele>
        <time>2021-06-18T11:40:05Z</time>
      </trkpt>
      <trkpt lat="42.715105" lon="0.920931">
        <ele>1581.818</ele>
        <time>2021-06-18T11:40:06Z</time>
      </trkpt>
      <trkpt lat="42.715096" lon="0.920808">
        <ele>1580.352</ele>
        <time>2021-06-18T11:40:12Z</time>
      </trkpt>
      <trkpt lat="42.715100" lon="0.920781">
        <ele>1579.876</ele>
        <time>2021-06-18T11:40:13Z</time>
      </trkpt>
      <trkpt lat="42.715116" lon="0.920645">
        <ele>1577.596</ele>
        <time>2021-06-18T11:40:18Z</time>
      </trkpt>
      <trkpt lat="42.715114" lon="0.920621">
        <ele>1577.459</ele>
        <time>2021-06-18T11:40:19Z</time>
      </trkpt>
      <trkpt lat="42.715074" lon="0.920486">
        <ele>1578.626</ele>
        <time>2021-06-18T11:40:24Z</time>
      </trkpt>
      <trkpt lat="42.715042" lon="0.920448">
        <ele>1580.269</ele>
        <time>2021-06-18T11:40:26Z</time>
      </trkpt>
      <trkpt lat="42.714986" lon="0.920421">
        <ele>1583.104</ele>
        <time>2021-06-18T11:40:29Z</time>
      </trkpt>
      <trkpt lat="42.714817" lon="0.920368">
        <ele>1587.824</ele>
        <time>2021-06-18T11:40:37Z</time>
      </trkpt>
      <trkpt lat="42.714726" lon="0.920351">
        <ele>1590.208</ele>
        <time>2021-06-18T11:40:41Z</time>
      </trkpt>
      <trkpt lat="42.714670" lon="0.920321">
        <ele>1590.953</ele>
        <time>2021-06-18T11:40:44Z</time>
      </trkpt>
      <trkpt lat="42.714556" lon="0.920248">
        <ele>1591.772</ele>
        <time>2021-06-18T11:40:50Z</time>
      </trkpt>
      <trkpt lat="42.714538" lon="0.920241">
        <ele>1592.018</ele>
        <time>2021-06-18T11:40:51Z</time>
      </trkpt>
      <trkpt lat="42.714441" lon="0.920197">
        <ele>1593.242</ele>
        <time>2021-06-18T11:40:57Z</time>
      </trkpt>
      <trkpt lat="42.714350" lon="0.920156">
        <ele>1595.076</ele>
        <time>2021-06-18T11:41:03Z</time>
      </trkpt>
      <trkpt lat="42.714335" lon="0.920144">
        <ele>1595.166</ele>
        <time>2021-06-18T11:41:04Z</time>
      </trkpt>
      <trkpt lat="42.714233" lon="0.920100">
        <ele>1597.229</ele>
        <time>2021-06-18T11:41:11Z</time>
      </trkpt>
      <trkpt lat="42.714157" lon="0.920058">
        <ele>1598.576</ele>
        <time>2021-06-18T11:41:16Z</time>
      </trkpt>
      <trkpt lat="42.714110" lon="0.920023">
        <ele>1599.525</ele>
        <time>2021-06-18T11:41:19Z</time>
      </trkpt>
      <trkpt lat="42.714065" lon="0.920009">
        <ele>1601.126</ele>
        <time>2021-06-18T11:41:22Z</time>
      </trkpt>
      <trkpt lat="42.713986" lon="0.919900">
        <ele>1601.008</ele>
        <time>2021-06-18T11:41:27Z</time>
      </trkpt>
      <trkpt lat="42.713972" lon="0.919878">
        <ele>1600.808</ele>
        <time>2021-06-18T11:41:28Z</time>
      </trkpt>
      <trkpt lat="42.713895" lon="0.919770">
        <ele>1600.589</ele>
        <time>2021-06-18T11:41:34Z</time>
      </trkpt>
      <trkpt lat="42.713885" lon="0.919752">
        <ele>1600.368</ele>
        <time>2021-06-18T11:41:35Z</time>
      </trkpt>
      <trkpt lat="42.713833" lon="0.919608">
        <ele>1598.074</ele>
        <time>2021-06-18T11:41:40Z</time>
      </trkpt>
      <trkpt lat="42.713810" lon="0.919569">
        <ele>1597.798</ele>
        <time>2021-06-18T11:41:42Z</time>
      </trkpt>
      <trkpt lat="42.713747" lon="0.919490">
        <ele>1597.492</ele>
        <time>2021-06-18T11:41:47Z</time>
      </trkpt>
      <trkpt lat="42.713732" lon="0.919478">
        <ele>1597.682</ele>
        <time>2021-06-18T11:41:48Z</time>
      </trkpt>
      <trkpt lat="42.713641" lon="0.919412">
        <ele>1598.585</ele>
        <time>2021-06-18T11:41:54Z</time>
      </trkpt>
      <trkpt lat="42.713623" lon="0.919402">
        <ele>1598.772</ele>
        <time>2021-06-18T11:41:55Z</time>
      </trkpt>
      <trkpt lat="42.713566" lon="0.919381">
        <ele>1599.491</ele>
        <time>2021-06-18T11:41:59Z</time>
      </trkpt>
      <trkpt lat="42.713535" lon="0.919369">
        <ele>1599.681</ele>
        <time>2021-06-18T11:42:01Z</time>
      </trkpt>
      <trkpt lat="42.713478" lon="0.919351">
        <ele>1600.219</ele>
        <time>2021-06-18T11:42:05Z</time>
      </trkpt>
      <trkpt lat="42.713451" lon="0.919344">
        <ele>1600.408</ele>
        <time>2021-06-18T11:42:07Z</time>
      </trkpt>
      <trkpt lat="42.713439" lon="0.919341">
        <ele>1600.686</ele>
        <time>2021-06-18T11:42:08Z</time>
      </trkpt>
      <trkpt lat="42.713376" lon="0.919353">
        <ele>1602.775</ele>
        <time>2021-06-18T11:42:12Z</time>
      </trkpt>
      <trkpt lat="42.713361" lon="0.919354">
        <ele>1603.171</ele>
        <time>2021-06-18T11:42:13Z</time>
      </trkpt>
      <trkpt lat="42.713316" lon="0.919352">
        <ele>1604.165</ele>
        <time>2021-06-18T11:42:16Z</time>
      </trkpt>
      <trkpt lat="42.713241" lon="0.919338">
        <ele>1605.039</ele>
        <time>2021-06-18T11:42:21Z</time>
      </trkpt>
      <trkpt lat="42.713217" lon="0.919359">
        <ele>1606.789</ele>
        <time>2021-06-18T11:42:23Z</time>
      </trkpt>
      <trkpt lat="42.713170" lon="0.919368">
        <ele>1608.352</ele>
        <time>2021-06-18T11:42:26Z</time>
      </trkpt>
      <trkpt lat="42.713154" lon="0.919370">
        <ele>1608.859</ele>
        <time>2021-06-18T11:42:27Z</time>
      </trkpt>
      <trkpt lat="42.713108" lon="0.919363">
        <ele>1609.498</ele>
        <time>2021-06-18T11:42:32Z</time>
      </trkpt>
      <trkpt lat="42.713009" lon="0.919291">
        <ele>1607.815</ele>
        <time>2021-06-18T11:46:08Z</time>
      </trkpt>
      <trkpt lat="42.712966" lon="0.919274">
        <ele>1607.926</ele>
        <time>2021-06-18T11:46:11Z</time>
      </trkpt>
      <trkpt lat="42.712849" lon="0.919264">
        <ele>1610.208</ele>
        <time>2021-06-18T11:46:19Z</time>
      </trkpt>
      <trkpt lat="42.712810" lon="0.919259">
        <ele>1610.916</ele>
        <time>2021-06-18T11:46:22Z</time>
      </trkpt>
      <trkpt lat="42.712740" lon="0.919243">
        <ele>1610.785</ele>
        <time>2021-06-18T11:46:27Z</time>
      </trkpt>
      <trkpt lat="42.712725" lon="0.919242">
        <ele>1610.741</ele>
        <time>2021-06-18T11:46:28Z</time>
      </trkpt>
      <trkpt lat="42.712669" lon="0.919237">
        <ele>1610.395</ele>
        <time>2021-06-18T11:46:32Z</time>
      </trkpt>
      <trkpt lat="42.712628" lon="0.919255">
        <ele>1611.149</ele>
        <time>2021-06-18T11:46:35Z</time>
      </trkpt>
      <trkpt lat="42.712614" lon="0.919260">
        <ele>1611.349</ele>
        <time>2021-06-18T11:46:36Z</time>
      </trkpt>
      <trkpt lat="42.712537" lon="0.919284">
        <ele>1612.462</ele>
        <time>2021-06-18T11:46:41Z</time>
      </trkpt>
      <trkpt lat="42.712508" lon="0.919298">
        <ele>1613.119</ele>
        <time>2021-06-18T11:46:43Z</time>
      </trkpt>
      <trkpt lat="42.712392" lon="0.919323">
        <ele>1614.427</ele>
        <time>2021-06-18T11:46:51Z</time>
      </trkpt>
      <trkpt lat="42.712378" lon="0.919320">
        <ele>1614.368</ele>
        <time>2021-06-18T11:46:52Z</time>
      </trkpt>
      <trkpt lat="42.712272" lon="0.919317">
        <ele>1614.114</ele>
        <time>2021-06-18T11:46:59Z</time>
      </trkpt>
      <trkpt lat="42.712258" lon="0.919318">
        <ele>1614.208</ele>
        <time>2021-06-18T11:47:00Z</time>
      </trkpt>
      <trkpt lat="42.712181" lon="0.919323">
        <ele>1614.079</ele>
        <time>2021-06-18T11:47:05Z</time>
      </trkpt>
      <trkpt lat="42.712108" lon="0.919340">
        <ele>1614.058</ele>
        <time>2021-06-18T11:47:10Z</time>
      </trkpt>
      <trkpt lat="42.712094" lon="0.919346">
        <ele>1614.294</ele>
        <time>2021-06-18T11:47:11Z</time>
      </trkpt>
      <trkpt lat="42.711957" lon="0.919404">
        <ele>1615.348</ele>
        <time>2021-06-18T11:47:20Z</time>
      </trkpt>
      <trkpt lat="42.711818" lon="0.919488">
        <ele>1615.352</ele>
        <time>2021-06-18T11:47:29Z</time>
      </trkpt>
      <trkpt lat="42.711802" lon="0.919500">
        <ele>1615.312</ele>
        <time>2021-06-18T11:47:30Z</time>
      </trkpt>
      <trkpt lat="42.711698" lon="0.919614">
        <ele>1616.365</ele>
        <time>2021-06-18T11:47:38Z</time>
      </trkpt>
      <trkpt lat="42.711681" lon="0.919653">
        <ele>1617.162</ele>
        <time>2021-06-18T11:47:40Z</time>
      </trkpt>
      <trkpt lat="42.711632" lon="0.919738">
        <ele>1618.814</ele>
        <time>2021-06-18T11:47:45Z</time>
      </trkpt>
      <trkpt lat="42.711604" lon="0.919793">
        <ele>1620.454</ele>
        <time>2021-06-18T11:47:48Z</time>
      </trkpt>
      <trkpt lat="42.711559" lon="0.919878">
        <ele>1622.809</ele>
        <time>2021-06-18T11:47:53Z</time>
      </trkpt>
      <trkpt lat="42.711524" lon="0.919920">
        <ele>1623.608</ele>
        <time>2021-06-18T11:47:56Z</time>
      </trkpt>
      <trkpt lat="42.711496" lon="0.919942">
        <ele>1623.728</ele>
        <time>2021-06-18T11:47:58Z</time>
      </trkpt>
      <trkpt lat="42.711428" lon="0.919993">
        <ele>1623.877</ele>
        <time>2021-06-18T11:48:03Z</time>
      </trkpt>
      <trkpt lat="42.711397" lon="0.920005">
        <ele>1623.533</ele>
        <time>2021-06-18T11:48:05Z</time>
      </trkpt>
      <trkpt lat="42.711298" lon="0.920034">
        <ele>1624.967</ele>
        <time>2021-06-18T11:48:11Z</time>
      </trkpt>
      <trkpt lat="42.711244" lon="0.920044">
        <ele>1625.591</ele>
        <time>2021-06-18T11:48:14Z</time>
      </trkpt>
      <trkpt lat="42.711123" lon="0.920051">
        <ele>1625.881</ele>
        <time>2021-06-18T11:48:21Z</time>
      </trkpt>
      <trkpt lat="42.711030" lon="0.920053">
        <ele>1625.034</ele>
        <time>2021-06-18T11:48:27Z</time>
      </trkpt>
      <trkpt lat="42.710985" lon="0.920062">
        <ele>1625.071</ele>
        <time>2021-06-18T11:48:30Z</time>
      </trkpt>
      <trkpt lat="42.710941" lon="0.920085">
        <ele>1625.869</ele>
        <time>2021-06-18T11:48:33Z</time>
      </trkpt>
      <trkpt lat="42.710869" lon="0.920122">
        <ele>1627.004</ele>
        <time>2021-06-18T11:48:38Z</time>
      </trkpt>
      <trkpt lat="42.710846" lon="0.920146">
        <ele>1628.024</ele>
        <time>2021-06-18T11:48:40Z</time>
      </trkpt>
      <trkpt lat="42.710752" lon="0.920196">
        <ele>1629.408</ele>
        <time>2021-06-18T11:48:47Z</time>
      </trkpt>
      <trkpt lat="42.710672" lon="0.920243">
        <ele>1630.493</ele>
        <time>2021-06-18T11:48:53Z</time>
      </trkpt>
      <trkpt lat="42.710644" lon="0.920253">
        <ele>1630.462</ele>
        <time>2021-06-18T11:48:55Z</time>
      </trkpt>
      <trkpt lat="42.710566" lon="0.920300">
        <ele>1631.268</ele>
        <time>2021-06-18T11:49:01Z</time>
      </trkpt>
      <trkpt lat="42.710531" lon="0.920325">
        <ele>1632.352</ele>
        <time>2021-06-18T11:49:04Z</time>
      </trkpt>
      <trkpt lat="42.710481" lon="0.920351">
        <ele>1633.836</ele>
        <time>2021-06-18T11:49:08Z</time>
      </trkpt>
      <trkpt lat="42.710421" lon="0.920379">
        <ele>1635.486</ele>
        <time>2021-06-18T11:49:13Z</time>
      </trkpt>
      <trkpt lat="42.710408" lon="0.920382">
        <ele>1635.639</ele>
        <time>2021-06-18T11:49:14Z</time>
      </trkpt>
      <trkpt lat="42.710362" lon="0.920408">
        <ele>1637.166</ele>
        <time>2021-06-18T11:49:18Z</time>
      </trkpt>
      <trkpt lat="42.710350" lon="0.920410">
        <ele>1637.351</ele>
        <time>2021-06-18T11:49:19Z</time>
      </trkpt>
      <trkpt lat="42.710321" lon="0.920407">
        <ele>1637.301</ele>
        <time>2021-06-18T11:49:21Z</time>
      </trkpt>
      <trkpt lat="42.710308" lon="0.920408">
        <ele>1637.411</ele>
        <time>2021-06-18T11:49:22Z</time>
      </trkpt>
      <trkpt lat="42.710267" lon="0.920407">
        <ele>1637.708</ele>
        <time>2021-06-18T11:49:25Z</time>
      </trkpt>
      <trkpt lat="42.710255" lon="0.920407">
        <ele>1638.092</ele>
        <time>2021-06-18T11:49:26Z</time>
      </trkpt>
      <trkpt lat="42.710187" lon="0.920395">
        <ele>1638.951</ele>
        <time>2021-06-18T11:49:31Z</time>
      </trkpt>
      <trkpt lat="42.710173" lon="0.920394">
        <ele>1639.117</ele>
        <time>2021-06-18T11:49:32Z</time>
      </trkpt>
      <trkpt lat="42.710092" lon="0.920367">
        <ele>1639.541</ele>
        <time>2021-06-18T11:49:38Z</time>
      </trkpt>
      <trkpt lat="42.710065" lon="0.920354">
        <ele>1639.435</ele>
        <time>2021-06-18T11:49:40Z</time>
      </trkpt>
      <trkpt lat="42.710016" lon="0.920331">
        <ele>1639.375</ele>
        <time>2021-06-18T11:49:44Z</time>
      </trkpt>
      <trkpt lat="42.709979" lon="0.920320">
        <ele>1639.628</ele>
        <time>2021-06-18T11:49:47Z</time>
      </trkpt>
      <trkpt lat="42.709966" lon="0.920322">
        <ele>1640.095</ele>
        <time>2021-06-18T11:49:48Z</time>
      </trkpt>
      <trkpt lat="42.709914" lon="0.920331">
        <ele>1641.772</ele>
        <time>2021-06-18T11:49:52Z</time>
      </trkpt>
      <trkpt lat="42.709900" lon="0.920328">
        <ele>1641.913</ele>
        <time>2021-06-18T11:49:53Z</time>
      </trkpt>
      <trkpt lat="42.709875" lon="0.920320">
        <ele>1642.114</ele>
        <time>2021-06-18T11:49:55Z</time>
      </trkpt>
      <trkpt lat="42.709836" lon="0.920307">
        <ele>1642.408</ele>
        <time>2021-06-18T11:49:58Z</time>
      </trkpt>
      <trkpt lat="42.709785" lon="0.920316">
        <ele>1644.084</ele>
        <time>2021-06-18T11:50:02Z</time>
      </trkpt>
      <trkpt lat="42.709772" lon="0.920322">
        <ele>1644.663</ele>
        <time>2021-06-18T11:50:03Z</time>
      </trkpt>
      <trkpt lat="42.709731" lon="0.920329">
        <ele>1645.869</ele>
        <time>2021-06-18T11:50:06Z</time>
      </trkpt>
      <trkpt lat="42.709672" lon="0.920313">
        <ele>1648.053</ele>
        <time>2021-06-18T11:50:10Z</time>
      </trkpt>
      <trkpt lat="42.709641" lon="0.920280">
        <ele>1648.547</ele>
        <time>2021-06-18T11:50:13Z</time>
      </trkpt>
      <trkpt lat="42.709604" lon="0.920228">
        <ele>1648.717</ele>
        <time>2021-06-18T11:50:17Z</time>
      </trkpt>
      <trkpt lat="42.709596" lon="0.920213">
        <ele>1648.620</ele>
        <time>2021-06-18T11:50:18Z</time>
      </trkpt>
      <trkpt lat="42.709555" lon="0.920136">
        <ele>1648.157</ele>
        <time>2021-06-18T11:50:23Z</time>
      </trkpt>
      <trkpt lat="42.709545" lon="0.920124">
        <ele>1648.263</ele>
        <time>2021-06-18T11:50:24Z</time>
      </trkpt>
      <trkpt lat="42.709481" lon="0.920065">
        <ele>1649.544</ele>
        <time>2021-06-18T11:50:30Z</time>
      </trkpt>
      <trkpt lat="42.709470" lon="0.920053">
        <ele>1649.618</ele>
        <time>2021-06-18T11:50:31Z</time>
      </trkpt>
      <trkpt lat="42.709434" lon="0.920030">
        <ele>1650.308</ele>
        <time>2021-06-18T11:50:34Z</time>
      </trkpt>
      <trkpt lat="42.709390" lon="0.920014">
        <ele>1650.783</ele>
        <time>2021-06-18T11:50:37Z</time>
      </trkpt>
      <trkpt lat="42.709376" lon="0.920006">
        <ele>1650.732</ele>
        <time>2021-06-18T11:50:38Z</time>
      </trkpt>
      <trkpt lat="42.709293" lon="0.919962">
        <ele>1651.368</ele>
        <time>2021-06-18T11:50:44Z</time>
      </trkpt>
      <trkpt lat="42.709257" lon="0.919933">
        <ele>1651.482</ele>
        <time>2021-06-18T11:50:47Z</time>
      </trkpt>
      <trkpt lat="42.709235" lon="0.919912">
        <ele>1651.436</ele>
        <time>2021-06-18T11:50:49Z</time>
      </trkpt>
      <trkpt lat="42.709223" lon="0.919908">
        <ele>1651.646</ele>
        <time>2021-06-18T11:50:50Z</time>
      </trkpt>
      <trkpt lat="42.709181" lon="0.919917">
        <ele>1652.979</ele>
        <time>2021-06-18T11:50:53Z</time>
      </trkpt>
      <trkpt lat="42.709167" lon="0.919923">
        <ele>1653.326</ele>
        <time>2021-06-18T11:50:54Z</time>
      </trkpt>
      <trkpt lat="42.709151" lon="0.919925">
        <ele>1653.755</ele>
        <time>2021-06-18T11:50:55Z</time>
      </trkpt>
      <trkpt lat="42.709096" lon="0.919911">
        <ele>1654.407</ele>
        <time>2021-06-18T11:50:59Z</time>
      </trkpt>
      <trkpt lat="42.709043" lon="0.919913">
        <ele>1655.517</ele>
        <time>2021-06-18T11:51:03Z</time>
      </trkpt>
      <trkpt lat="42.709031" lon="0.919912">
        <ele>1655.708</ele>
        <time>2021-06-18T11:51:04Z</time>
      </trkpt>
      <trkpt lat="42.708976" lon="0.919878">
        <ele>1656.152</ele>
        <time>2021-06-18T11:51:09Z</time>
      </trkpt>
      <trkpt lat="42.708965" lon="0.919874">
        <ele>1656.221</ele>
        <time>2021-06-18T11:51:10Z</time>
      </trkpt>
      <trkpt lat="42.708914" lon="0.919866">
        <ele>1657.187</ele>
        <time>2021-06-18T11:51:14Z</time>
      </trkpt>
      <trkpt lat="42.708894" lon="0.919891">
        <ele>1657.921</ele>
        <time>2021-06-18T11:51:16Z</time>
      </trkpt>
      <trkpt lat="42.708886" lon="0.919905">
        <ele>1658.375</ele>
        <time>2021-06-18T11:51:17Z</time>
      </trkpt>
      <trkpt lat="42.708870" lon="0.919973">
        <ele>1659.515</ele>
        <time>2021-06-18T11:51:21Z</time>
      </trkpt>
      <trkpt lat="42.708875" lon="0.919989">
        <ele>1659.818</ele>
        <time>2021-06-18T11:51:22Z</time>
      </trkpt>
      <trkpt lat="42.708883" lon="0.920006">
        <ele>1660.125</ele>
        <time>2021-06-18T11:51:23Z</time>
      </trkpt>
      <trkpt lat="42.708913" lon="0.920076">
        <ele>1660.789</ele>
        <time>2021-06-18T11:51:27Z</time>
      </trkpt>
      <trkpt lat="42.708921" lon="0.920095">
        <ele>1660.906</ele>
        <time>2021-06-18T11:51:28Z</time>
      </trkpt>
      <trkpt lat="42.708950" lon="0.920141">
        <ele>1661.326</ele>
        <time>2021-06-18T11:51:31Z</time>
      </trkpt>
      <trkpt lat="42.708996" lon="0.920193">
        <ele>1661.708</ele>
        <time>2021-06-18T11:51:35Z</time>
      </trkpt>
      <trkpt lat="42.709039" lon="0.920202">
        <ele>1661.445</ele>
        <time>2021-06-18T11:51:38Z</time>
      </trkpt>
      <trkpt lat="42.709065" lon="0.920211">
        <ele>1661.334</ele>
        <time>2021-06-18T11:51:40Z</time>
      </trkpt>
      <trkpt lat="42.709170" lon="0.920268">
        <ele>1661.750</ele>
        <time>2021-06-18T11:51:48Z</time>
      </trkpt>
      <trkpt lat="42.709257" lon="0.920313">
        <ele>1661.994</ele>
        <time>2021-06-18T11:51:55Z</time>
      </trkpt>
      <trkpt lat="42.709270" lon="0.920324">
        <ele>1662.078</ele>
        <time>2021-06-18T11:51:56Z</time>
      </trkpt>
      <trkpt lat="42.709323" lon="0.920412">
        <ele>1663.428</ele>
        <time>2021-06-18T11:52:02Z</time>
      </trkpt>
      <trkpt lat="42.709317" lon="0.920516">
        <ele>1665.831</ele>
        <time>2021-06-18T11:52:08Z</time>
      </trkpt>
      <trkpt lat="42.709276" lon="0.920565">
        <ele>1667.938</ele>
        <time>2021-06-18T11:52:12Z</time>
      </trkpt>
      <trkpt lat="42.709220" lon="0.920584">
        <ele>1669.727</ele>
        <time>2021-06-18T11:52:16Z</time>
      </trkpt>
      <trkpt lat="42.709190" lon="0.920578">
        <ele>1670.168</ele>
        <time>2021-06-18T11:52:18Z</time>
      </trkpt>
      <trkpt lat="42.709130" lon="0.920565">
        <ele>1670.314</ele>
        <time>2021-06-18T11:52:22Z</time>
      </trkpt>
      <trkpt lat="42.709116" lon="0.920560">
        <ele>1670.108</ele>
        <time>2021-06-18T11:52:23Z</time>
      </trkpt>
      <trkpt lat="42.709057" lon="0.920553">
        <ele>1669.999</ele>
        <time>2021-06-18T11:52:27Z</time>
      </trkpt>
      <trkpt lat="42.709001" lon="0.920568">
        <ele>1670.418</ele>
        <time>2021-06-18T11:52:31Z</time>
      </trkpt>
      <trkpt lat="42.708948" lon="0.920602">
        <ele>1671.594</ele>
        <time>2021-06-18T11:52:35Z</time>
      </trkpt>
      <trkpt lat="42.708925" lon="0.920623">
        <ele>1672.298</ele>
        <time>2021-06-18T11:52:37Z</time>
      </trkpt>
      <trkpt lat="42.708913" lon="0.920631">
        <ele>1672.492</ele>
        <time>2021-06-18T11:52:38Z</time>
      </trkpt>
      <trkpt lat="42.708874" lon="0.920642">
        <ele>1672.862</ele>
        <time>2021-06-18T11:52:41Z</time>
      </trkpt>
      <trkpt lat="42.708825" lon="0.920652">
        <ele>1672.945</ele>
        <time>2021-06-18T11:52:45Z</time>
      </trkpt>
      <trkpt lat="42.708777" lon="0.920700">
        <ele>1674.152</ele>
        <time>2021-06-18T11:52:50Z</time>
      </trkpt>
      <trkpt lat="42.708751" lon="0.920707">
        <ele>1674.183</ele>
        <time>2021-06-18T11:52:52Z</time>
      </trkpt>
      <trkpt lat="42.708714" lon="0.920717">
        <ele>1674.125</ele>
        <time>2021-06-18T11:52:55Z</time>
      </trkpt>
      <trkpt lat="42.708661" lon="0.920741">
        <ele>1674.417</ele>
        <time>2021-06-18T11:52:59Z</time>
      </trkpt>
      <trkpt lat="42.708649" lon="0.920751">
        <ele>1674.508</ele>
        <time>2021-06-18T11:53:00Z</time>
      </trkpt>
      <trkpt lat="42.708637" lon="0.920761">
        <ele>1674.635</ele>
        <time>2021-06-18T11:53:01Z</time>
      </trkpt>
      <trkpt lat="42.708586" lon="0.920833">
        <ele>1675.234</ele>
        <time>2021-06-18T11:53:06Z</time>
      </trkpt>
      <trkpt lat="42.708576" lon="0.920850">
        <ele>1675.260</ele>
        <time>2021-06-18T11:53:07Z</time>
      </trkpt>
      <trkpt lat="42.708529" lon="0.920996">
        <ele>1676.774</ele>
        <time>2021-06-18T11:53:14Z</time>
      </trkpt>
      <trkpt lat="42.708510" lon="0.921057">
        <ele>1677.378</ele>
        <time>2021-06-18T11:53:17Z</time>
      </trkpt>
      <trkpt lat="42.708478" lon="0.921151">
        <ele>1678.178</ele>
        <time>2021-06-18T11:53:22Z</time>
      </trkpt>
      <trkpt lat="42.708432" lon="0.921243">
        <ele>1678.621</ele>
        <time>2021-06-18T11:53:28Z</time>
      </trkpt>
      <trkpt lat="42.708427" lon="0.921262">
        <ele>1678.858</ele>
        <time>2021-06-18T11:53:29Z</time>
      </trkpt>
      <trkpt lat="42.708366" lon="0.921429">
        <ele>1679.964</ele>
        <time>2021-06-18T11:53:38Z</time>
      </trkpt>
      <trkpt lat="42.708323" lon="0.921571">
        <ele>1679.806</ele>
        <time>2021-06-18T11:53:46Z</time>
      </trkpt>
      <trkpt lat="42.708319" lon="0.921610">
        <ele>1680.116</ele>
        <time>2021-06-18T11:53:48Z</time>
      </trkpt>
      <trkpt lat="42.708312" lon="0.921726">
        <ele>1680.408</ele>
        <time>2021-06-18T11:53:54Z</time>
      </trkpt>
      <trkpt lat="42.708311" lon="0.921747">
        <ele>1680.463</ele>
        <time>2021-06-18T11:53:55Z</time>
      </trkpt>
      <trkpt lat="42.708329" lon="0.921889">
        <ele>1681.782</ele>
        <time>2021-06-18T11:54:02Z</time>
      </trkpt>
      <trkpt lat="42.708348" lon="0.922041">
        <ele>1683.638</ele>
        <time>2021-06-18T11:54:09Z</time>
      </trkpt>
      <trkpt lat="42.708349" lon="0.922111">
        <ele>1684.252</ele>
        <time>2021-06-18T11:54:12Z</time>
      </trkpt>
      <trkpt lat="42.708339" lon="0.922247">
        <ele>1684.766</ele>
        <time>2021-06-18T11:54:18Z</time>
      </trkpt>
      <trkpt lat="42.708316" lon="0.922448">
        <ele>1686.466</ele>
        <time>2021-06-18T11:54:27Z</time>
      </trkpt>
      <trkpt lat="42.708313" lon="0.922470">
        <ele>1686.699</ele>
        <time>2021-06-18T11:54:28Z</time>
      </trkpt>
      <trkpt lat="42.708289" lon="0.922593">
        <ele>1688.056</ele>
        <time>2021-06-18T11:54:34Z</time>
      </trkpt>
      <trkpt lat="42.708272" lon="0.922654">
        <ele>1688.767</ele>
        <time>2021-06-18T11:54:37Z</time>
      </trkpt>
      <trkpt lat="42.708240" lon="0.922746">
        <ele>1689.581</ele>
        <time>2021-06-18T11:54:42Z</time>
      </trkpt>
      <trkpt lat="42.708227" lon="0.922805">
        <ele>1690.419</ele>
        <time>2021-06-18T11:54:45Z</time>
      </trkpt>
      <trkpt lat="42.708205" lon="0.922879">
        <ele>1691.308</ele>
        <time>2021-06-18T11:54:49Z</time>
      </trkpt>
      <trkpt lat="42.708192" lon="0.922935">
        <ele>1692.133</ele>
        <time>2021-06-18T11:54:52Z</time>
      </trkpt>
      <trkpt lat="42.708162" lon="0.923025">
        <ele>1692.952</ele>
        <time>2021-06-18T11:54:57Z</time>
      </trkpt>
      <trkpt lat="42.708157" lon="0.923045">
        <ele>1693.128</ele>
        <time>2021-06-18T11:54:58Z</time>
      </trkpt>
      <trkpt lat="42.708132" lon="0.923118">
        <ele>1693.552</ele>
        <time>2021-06-18T11:55:02Z</time>
      </trkpt>
      <trkpt lat="42.708104" lon="0.923211">
        <ele>1694.096</ele>
        <time>2021-06-18T11:55:07Z</time>
      </trkpt>
      <trkpt lat="42.708097" lon="0.923230">
        <ele>1694.026</ele>
        <time>2021-06-18T11:55:08Z</time>
      </trkpt>
      <trkpt lat="42.708069" lon="0.923344">
        <ele>1694.839</ele>
        <time>2021-06-18T11:55:14Z</time>
      </trkpt>
      <trkpt lat="42.708057" lon="0.923382">
        <ele>1694.886</ele>
        <time>2021-06-18T11:55:16Z</time>
      </trkpt>
      <trkpt lat="42.708031" lon="0.923526">
        <ele>1695.461</ele>
        <time>2021-06-18T11:55:23Z</time>
      </trkpt>
      <trkpt lat="42.708008" lon="0.923700">
        <ele>1696.721</ele>
        <time>2021-06-18T11:55:31Z</time>
      </trkpt>
      <trkpt lat="42.708005" lon="0.923744">
        <ele>1697.213</ele>
        <time>2021-06-18T11:55:33Z</time>
      </trkpt>
      <trkpt lat="42.707991" lon="0.923920">
        <ele>1698.808</ele>
        <time>2021-06-18T11:55:41Z</time>
      </trkpt>
      <trkpt lat="42.708002" lon="0.924124">
        <ele>1701.093</ele>
        <time>2021-06-18T11:55:50Z</time>
      </trkpt>
      <trkpt lat="42.708003" lon="0.924145">
        <ele>1701.282</ele>
        <time>2021-06-18T11:55:51Z</time>
      </trkpt>
      <trkpt lat="42.707991" lon="0.924278">
        <ele>1701.938</ele>
        <time>2021-06-18T11:55:57Z</time>
      </trkpt>
      <trkpt lat="42.707974" lon="0.924367">
        <ele>1702.122</ele>
        <time>2021-06-18T11:56:01Z</time>
      </trkpt>
      <trkpt lat="42.707965" lon="0.924435">
        <ele>1702.346</ele>
        <time>2021-06-18T11:56:04Z</time>
      </trkpt>
      <trkpt lat="42.707954" lon="0.924542">
        <ele>1702.996</ele>
        <time>2021-06-18T11:56:09Z</time>
      </trkpt>
      <trkpt lat="42.707946" lon="0.924584">
        <ele>1703.089</ele>
        <time>2021-06-18T11:56:11Z</time>
      </trkpt>
      <trkpt lat="42.707938" lon="0.924694">
        <ele>1703.816</ele>
        <time>2021-06-18T11:56:16Z</time>
      </trkpt>
      <trkpt lat="42.707934" lon="0.924739">
        <ele>1704.027</ele>
        <time>2021-06-18T11:56:18Z</time>
      </trkpt>
      <trkpt lat="42.707935" lon="0.924849">
        <ele>1705.168</ele>
        <time>2021-06-18T11:56:23Z</time>
      </trkpt>
      <trkpt lat="42.707932" lon="0.924891">
        <ele>1705.314</ele>
        <time>2021-06-18T11:56:25Z</time>
      </trkpt>
      <trkpt lat="42.707908" lon="0.925038">
        <ele>1705.608</ele>
        <time>2021-06-18T11:56:32Z</time>
      </trkpt>
      <trkpt lat="42.707905" lon="0.925058">
        <ele>1705.789</ele>
        <time>2021-06-18T11:56:33Z</time>
      </trkpt>
      <trkpt lat="42.707899" lon="0.925231">
        <ele>1708.088</ele>
        <time>2021-06-18T11:56:41Z</time>
      </trkpt>
      <trkpt lat="42.707897" lon="0.925251">
        <ele>1708.284</ele>
        <time>2021-06-18T11:56:42Z</time>
      </trkpt>
      <trkpt lat="42.707894" lon="0.925378">
        <ele>1709.758</ele>
        <time>2021-06-18T11:56:48Z</time>
      </trkpt>
      <trkpt lat="42.707893" lon="0.925438">
        <ele>1710.422</ele>
        <time>2021-06-18T11:56:51Z</time>
      </trkpt>
      <trkpt lat="42.707888" lon="0.925527">
        <ele>1711.262</ele>
        <time>2021-06-18T11:56:55Z</time>
      </trkpt>
      <trkpt lat="42.707877" lon="0.925591">
        <ele>1711.595</ele>
        <time>2021-06-18T11:56:58Z</time>
      </trkpt>
      <trkpt lat="42.707856" lon="0.925675">
        <ele>1711.542</ele>
        <time>2021-06-18T11:57:02Z</time>
      </trkpt>
      <trkpt lat="42.707844" lon="0.925759">
        <ele>1711.979</ele>
        <time>2021-06-18T11:57:06Z</time>
      </trkpt>
      <trkpt lat="42.707836" lon="0.925824">
        <ele>1712.205</ele>
        <time>2021-06-18T11:57:09Z</time>
      </trkpt>
      <trkpt lat="42.707820" lon="0.925954">
        <ele>1713.225</ele>
        <time>2021-06-18T11:57:15Z</time>
      </trkpt>
      <trkpt lat="42.707802" lon="0.926082">
        <ele>1714.108</ele>
        <time>2021-06-18T11:57:21Z</time>
      </trkpt>
      <trkpt lat="42.707793" lon="0.926125">
        <ele>1714.134</ele>
        <time>2021-06-18T11:57:23Z</time>
      </trkpt>
      <trkpt lat="42.707790" lon="0.926234">
        <ele>1715.163</ele>
        <time>2021-06-18T11:57:28Z</time>
      </trkpt>
      <trkpt lat="42.707784" lon="0.926276">
        <ele>1715.219</ele>
        <time>2021-06-18T11:57:30Z</time>
      </trkpt>
      <trkpt lat="42.707781" lon="0.926297">
        <ele>1715.293</ele>
        <time>2021-06-18T11:57:31Z</time>
      </trkpt>
      <trkpt lat="42.707766" lon="0.926446">
        <ele>1716.477</ele>
        <time>2021-06-18T11:57:38Z</time>
      </trkpt>
      <trkpt lat="42.707749" lon="0.926510">
        <ele>1716.627</ele>
        <time>2021-06-18T11:57:41Z</time>
      </trkpt>
      <trkpt lat="42.707735" lon="0.926609">
        <ele>1717.720</ele>
        <time>2021-06-18T11:57:46Z</time>
      </trkpt>
      <trkpt lat="42.707724" lon="0.926651">
        <ele>1717.827</ele>
        <time>2021-06-18T11:57:48Z</time>
      </trkpt>
      <trkpt lat="42.707702" lon="0.926775">
        <ele>1718.418</ele>
        <time>2021-06-18T11:57:54Z</time>
      </trkpt>
      <trkpt lat="42.707699" lon="0.926818">
        <ele>1718.898</ele>
        <time>2021-06-18T11:57:56Z</time>
      </trkpt>
      <trkpt lat="42.707689" lon="0.926922">
        <ele>1719.617</ele>
        <time>2021-06-18T11:58:01Z</time>
      </trkpt>
      <trkpt lat="42.707684" lon="0.926963">
        <ele>1719.808</ele>
        <time>2021-06-18T11:58:03Z</time>
      </trkpt>
      <trkpt lat="42.707675" lon="0.927045">
        <ele>1720.248</ele>
        <time>2021-06-18T11:58:07Z</time>
      </trkpt>
      <trkpt lat="42.707675" lon="0.927129">
        <ele>1721.117</ele>
        <time>2021-06-18T11:58:11Z</time>
      </trkpt>
      <trkpt lat="42.707664" lon="0.927269">
        <ele>1722.223</ele>
        <time>2021-06-18T11:58:18Z</time>
      </trkpt>
      <trkpt lat="42.707658" lon="0.927304">
        <ele>1722.367</ele>
        <time>2021-06-18T11:58:20Z</time>
      </trkpt>
      <trkpt lat="42.707656" lon="0.927379">
        <ele>1723.351</ele>
        <time>2021-06-18T11:58:24Z</time>
      </trkpt>
      <trkpt lat="42.707657" lon="0.927499">
        <ele>1725.251</ele>
        <time>2021-06-18T11:58:30Z</time>
      </trkpt>
      <trkpt lat="42.707657" lon="0.927520">
        <ele>1725.454</ele>
        <time>2021-06-18T11:58:31Z</time>
      </trkpt>
      <trkpt lat="42.707633" lon="0.927639">
        <ele>1725.441</ele>
        <time>2021-06-18T11:58:37Z</time>
      </trkpt>
      <trkpt lat="42.707631" lon="0.927660">
        <ele>1725.518</ele>
        <time>2021-06-18T11:58:38Z</time>
      </trkpt>
      <trkpt lat="42.707620" lon="0.927786">
        <ele>1726.498</ele>
        <time>2021-06-18T11:58:44Z</time>
      </trkpt>
      <trkpt lat="42.707619" lon="0.927807">
        <ele>1726.517</ele>
        <time>2021-06-18T11:58:45Z</time>
      </trkpt>
      <trkpt lat="42.707617" lon="0.927997">
        <ele>1728.108</ele>
        <time>2021-06-18T11:58:54Z</time>
      </trkpt>
      <trkpt lat="42.707614" lon="0.928018">
        <ele>1728.178</ele>
        <time>2021-06-18T11:58:55Z</time>
      </trkpt>
      <trkpt lat="42.707616" lon="0.928169">
        <ele>1729.497</ele>
        <time>2021-06-18T11:59:02Z</time>
      </trkpt>
      <trkpt lat="42.707621" lon="0.928258">
        <ele>1730.413</ele>
        <time>2021-06-18T11:59:06Z</time>
      </trkpt>
      <trkpt lat="42.707627" lon="0.928347">
        <ele>1731.447</ele>
        <time>2021-06-18T11:59:10Z</time>
      </trkpt>
      <trkpt lat="42.707628" lon="0.928479">
        <ele>1731.921</ele>
        <time>2021-06-18T11:59:16Z</time>
      </trkpt>
      <trkpt lat="42.707633" lon="0.928583">
        <ele>1732.681</ele>
        <time>2021-06-18T11:59:21Z</time>
      </trkpt>
      <trkpt lat="42.707634" lon="0.928626">
        <ele>1732.874</ele>
        <time>2021-06-18T11:59:23Z</time>
      </trkpt>
      <trkpt lat="42.707641" lon="0.928730">
        <ele>1734.061</ele>
        <time>2021-06-18T11:59:28Z</time>
      </trkpt>
      <trkpt lat="42.707636" lon="0.928794">
        <ele>1734.278</ele>
        <time>2021-06-18T11:59:31Z</time>
      </trkpt>
      <trkpt lat="42.707636" lon="0.928815">
        <ele>1734.333</ele>
        <time>2021-06-18T11:59:32Z</time>
      </trkpt>
      <trkpt lat="42.707642" lon="0.928938">
        <ele>1735.626</ele>
        <time>2021-06-18T11:59:38Z</time>
      </trkpt>
      <trkpt lat="42.707644" lon="0.928959">
        <ele>1735.908</ele>
        <time>2021-06-18T11:59:39Z</time>
      </trkpt>
      <trkpt lat="42.707649" lon="0.929099">
        <ele>1737.474</ele>
        <time>2021-06-18T11:59:46Z</time>
      </trkpt>
      <trkpt lat="42.707648" lon="0.929120">
        <ele>1737.553</ele>
        <time>2021-06-18T11:59:47Z</time>
      </trkpt>
      <trkpt lat="42.707646" lon="0.929261">
        <ele>1738.449</ele>
        <time>2021-06-18T11:59:54Z</time>
      </trkpt>
      <trkpt lat="42.707647" lon="0.929300">
        <ele>1738.653</ele>
        <time>2021-06-18T11:59:56Z</time>
      </trkpt>
      <trkpt lat="42.707647" lon="0.929360">
        <ele>1738.947</ele>
        <time>2021-06-18T11:59:59Z</time>
      </trkpt>
      <trkpt lat="42.707643" lon="0.929464">
        <ele>1739.397</ele>
        <time>2021-06-18T12:00:04Z</time>
      </trkpt>
      <trkpt lat="42.707646" lon="0.929525">
        <ele>1739.820</ele>
        <time>2021-06-18T12:00:07Z</time>
      </trkpt>
      <trkpt lat="42.707649" lon="0.929666">
        <ele>1740.777</ele>
        <time>2021-06-18T12:00:14Z</time>
      </trkpt>
      <trkpt lat="42.707651" lon="0.929686">
        <ele>1740.931</ele>
        <time>2021-06-18T12:00:15Z</time>
      </trkpt>
      <trkpt lat="42.707663" lon="0.929829">
        <ele>1741.761</ele>
        <time>2021-06-18T12:00:22Z</time>
      </trkpt>
      <trkpt lat="42.707687" lon="0.929968">
        <ele>1743.107</ele>
        <time>2021-06-18T12:00:29Z</time>
      </trkpt>
      <trkpt lat="42.707690" lon="0.929988">
        <ele>1743.208</ele>
        <time>2021-06-18T12:00:30Z</time>
      </trkpt>
      <trkpt lat="42.707715" lon="0.930121">
        <ele>1744.830</ele>
        <time>2021-06-18T12:00:36Z</time>
      </trkpt>
      <trkpt lat="42.707714" lon="0.930144">
        <ele>1744.849</ele>
        <time>2021-06-18T12:00:37Z</time>
      </trkpt>
      <trkpt lat="42.707713" lon="0.930188">
        <ele>1744.885</ele>
        <time>2021-06-18T12:00:39Z</time>
      </trkpt>
      <trkpt lat="42.707730" lon="0.930290">
        <ele>1745.919</ele>
        <time>2021-06-18T12:00:44Z</time>
      </trkpt>
      <trkpt lat="42.707746" lon="0.930457">
        <ele>1747.853</ele>
        <time>2021-06-18T12:00:52Z</time>
      </trkpt>
      <trkpt lat="42.707747" lon="0.930480">
        <ele>1748.083</ele>
        <time>2021-06-18T12:00:53Z</time>
      </trkpt>
      <trkpt lat="42.707760" lon="0.930617">
        <ele>1749.496</ele>
        <time>2021-06-18T12:00:59Z</time>
      </trkpt>
      <trkpt lat="42.707754" lon="0.930688">
        <ele>1749.463</ele>
        <time>2021-06-18T12:01:02Z</time>
      </trkpt>
      <trkpt lat="42.707740" lon="0.930809">
        <ele>1749.314</ele>
        <time>2021-06-18T12:01:07Z</time>
      </trkpt>
      <trkpt lat="42.707727" lon="0.930874">
        <ele>1749.054</ele>
        <time>2021-06-18T12:01:10Z</time>
      </trkpt>
      <trkpt lat="42.707711" lon="0.930958">
        <ele>1748.909</ele>
        <time>2021-06-18T12:01:14Z</time>
      </trkpt>
      <trkpt lat="42.707703" lon="0.931068">
        <ele>1749.308</ele>
        <time>2021-06-18T12:01:19Z</time>
      </trkpt>
      <trkpt lat="42.707704" lon="0.931090">
        <ele>1749.578</ele>
        <time>2021-06-18T12:01:20Z</time>
      </trkpt>
      <trkpt lat="42.707716" lon="0.931146">
        <ele>1750.247</ele>
        <time>2021-06-18T12:01:24Z</time>
      </trkpt>
      <trkpt lat="42.707716" lon="0.931146">
        <ele>1750.253</ele>
        <time>2021-06-18T12:01:25Z</time>
      </trkpt>
      <trkpt lat="42.707783" lon="0.931158">
        <ele>1752.427</ele>
        <time>2021-06-18T12:02:36Z</time>
      </trkpt>
      <trkpt lat="42.707807" lon="0.931123">
        <ele>1753.591</ele>
        <time>2021-06-18T12:02:38Z</time>
      </trkpt>
      <trkpt lat="42.707850" lon="0.930998">
        <ele>1755.221</ele>
        <time>2021-06-18T12:02:43Z</time>
      </trkpt>
      <trkpt lat="42.707855" lon="0.930968">
        <ele>1755.444</ele>
        <time>2021-06-18T12:02:44Z</time>
      </trkpt>
      <trkpt lat="42.707892" lon="0.930764">
        <ele>1756.581</ele>
        <time>2021-06-18T12:02:51Z</time>
      </trkpt>
      <trkpt lat="42.707896" lon="0.930735">
        <ele>1756.627</ele>
        <time>2021-06-18T12:02:52Z</time>
      </trkpt>
      <trkpt lat="42.707927" lon="0.930593">
        <ele>1757.768</ele>
        <time>2021-06-18T12:02:57Z</time>
      </trkpt>
      <trkpt lat="42.707953" lon="0.930448">
        <ele>1758.314</ele>
        <time>2021-06-18T12:03:02Z</time>
      </trkpt>
      <trkpt lat="42.707956" lon="0.930418">
        <ele>1758.308</ele>
        <time>2021-06-18T12:03:03Z</time>
      </trkpt>
      <trkpt lat="42.707983" lon="0.930178">
        <ele>1759.139</ele>
        <time>2021-06-18T12:03:11Z</time>
      </trkpt>
      <trkpt lat="42.707988" lon="0.930149">
        <ele>1759.468</ele>
        <time>2021-06-18T12:03:12Z</time>
      </trkpt>
      <trkpt lat="42.708009" lon="0.929971">
        <ele>1760.454</ele>
        <time>2021-06-18T12:03:18Z</time>
      </trkpt>
      <trkpt lat="42.708021" lon="0.929884">
        <ele>1760.738</ele>
        <time>2021-06-18T12:03:21Z</time>
      </trkpt>
      <trkpt lat="42.708041" lon="0.929707">
        <ele>1761.292</ele>
        <time>2021-06-18T12:03:27Z</time>
      </trkpt>
      <trkpt lat="42.708052" lon="0.929622">
        <ele>1761.892</ele>
        <time>2021-06-18T12:03:30Z</time>
      </trkpt>
      <trkpt lat="42.708057" lon="0.929533">
        <ele>1762.135</ele>
        <time>2021-06-18T12:03:33Z</time>
      </trkpt>
      <trkpt lat="42.708069" lon="0.929420">
        <ele>1762.872</ele>
        <time>2021-06-18T12:03:37Z</time>
      </trkpt>
      <trkpt lat="42.708079" lon="0.929333">
        <ele>1763.181</ele>
        <time>2021-06-18T12:03:40Z</time>
      </trkpt>
      <trkpt lat="42.708078" lon="0.929219">
        <ele>1762.661</ele>
        <time>2021-06-18T12:03:44Z</time>
      </trkpt>
      <trkpt lat="42.708078" lon="0.929191">
        <ele>1762.517</ele>
        <time>2021-06-18T12:03:45Z</time>
      </trkpt>
      <trkpt lat="42.708083" lon="0.929044">
        <ele>1762.808</ele>
        <time>2021-06-18T12:03:50Z</time>
      </trkpt>
      <trkpt lat="42.708093" lon="0.928986">
        <ele>1763.485</ele>
        <time>2021-06-18T12:03:52Z</time>
      </trkpt>
      <trkpt lat="42.708125" lon="0.928849">
        <ele>1765.564</ele>
        <time>2021-06-18T12:03:57Z</time>
      </trkpt>
      <trkpt lat="42.708130" lon="0.928793">
        <ele>1765.920</ele>
        <time>2021-06-18T12:03:59Z</time>
      </trkpt>
      <trkpt lat="42.708142" lon="0.928677">
        <ele>1766.714</ele>
        <time>2021-06-18T12:04:03Z</time>
      </trkpt>
      <trkpt lat="42.708148" lon="0.928561">
        <ele>1767.078</ele>
        <time>2021-06-18T12:04:07Z</time>
      </trkpt>
      <trkpt lat="42.708152" lon="0.928477">
        <ele>1767.248</ele>
        <time>2021-06-18T12:04:10Z</time>
      </trkpt>
      <trkpt lat="42.708162" lon="0.928307">
        <ele>1767.761</ele>
        <time>2021-06-18T12:04:16Z</time>
      </trkpt>
      <trkpt lat="42.708161" lon="0.928137">
        <ele>1767.368</ele>
        <time>2021-06-18T12:04:22Z</time>
      </trkpt>
      <trkpt lat="42.708152" lon="0.928023">
        <ele>1766.645</ele>
        <time>2021-06-18T12:04:26Z</time>
      </trkpt>
      <trkpt lat="42.708148" lon="0.927935">
        <ele>1766.547</ele>
        <time>2021-06-18T12:04:29Z</time>
      </trkpt>
      <trkpt lat="42.708150" lon="0.927790">
        <ele>1766.811</ele>
        <time>2021-06-18T12:04:34Z</time>
      </trkpt>
      <trkpt lat="42.708176" lon="0.927721">
        <ele>1767.908</ele>
        <time>2021-06-18T12:04:37Z</time>
      </trkpt>
      <trkpt lat="42.708210" lon="0.927708">
        <ele>1770.061</ele>
        <time>2021-06-18T12:04:39Z</time>
      </trkpt>
      <trkpt lat="42.708256" lon="0.927753">
        <ele>1773.290</ele>
        <time>2021-06-18T12:04:43Z</time>
      </trkpt>
      <trkpt lat="42.708258" lon="0.927830">
        <ele>1773.396</ele>
        <time>2021-06-18T12:04:46Z</time>
      </trkpt>
      <trkpt lat="42.708257" lon="0.927856">
        <ele>1773.110</ele>
        <time>2021-06-18T12:04:47Z</time>
      </trkpt>
      <trkpt lat="42.708259" lon="0.927931">
        <ele>1773.084</ele>
        <time>2021-06-18T12:04:50Z</time>
      </trkpt>
      <trkpt lat="42.708258" lon="0.928114">
        <ele>1772.774</ele>
        <time>2021-06-18T12:04:57Z</time>
      </trkpt>
      <trkpt lat="42.708260" lon="0.928140">
        <ele>1772.917</ele>
        <time>2021-06-18T12:04:58Z</time>
      </trkpt>
      <trkpt lat="42.708264" lon="0.928217">
        <ele>1773.274</ele>
        <time>2021-06-18T12:05:01Z</time>
      </trkpt>
      <trkpt lat="42.708280" lon="0.928321">
        <ele>1774.174</ele>
        <time>2021-06-18T12:05:05Z</time>
      </trkpt>
      <trkpt lat="42.708282" lon="0.928506">
        <ele>1774.256</ele>
        <time>2021-06-18T12:05:12Z</time>
      </trkpt>
      <trkpt lat="42.708283" lon="0.928532">
        <ele>1774.321</ele>
        <time>2021-06-18T12:05:13Z</time>
      </trkpt>
      <trkpt lat="42.708297" lon="0.928635">
        <ele>1775.208</ele>
        <time>2021-06-18T12:05:17Z</time>
      </trkpt>
      <trkpt lat="42.708311" lon="0.928768">
        <ele>1776.864</ele>
        <time>2021-06-18T12:05:22Z</time>
      </trkpt>
      <trkpt lat="42.708313" lon="0.928821">
        <ele>1777.213</ele>
        <time>2021-06-18T12:05:24Z</time>
      </trkpt>
      <trkpt lat="42.708326" lon="0.929001">
        <ele>1778.539</ele>
        <time>2021-06-18T12:05:31Z</time>
      </trkpt>
      <trkpt lat="42.708333" lon="0.929102">
        <ele>1779.053</ele>
        <time>2021-06-18T12:05:35Z</time>
      </trkpt>
      <trkpt lat="42.708326" lon="0.929156">
        <ele>1778.567</ele>
        <time>2021-06-18T12:05:37Z</time>
      </trkpt>
      <trkpt lat="42.708332" lon="0.929367">
        <ele>1779.697</ele>
        <time>2021-06-18T12:05:45Z</time>
      </trkpt>
      <trkpt lat="42.708337" lon="0.929421">
        <ele>1780.270</ele>
        <time>2021-06-18T12:05:47Z</time>
      </trkpt>
      <trkpt lat="42.708342" lon="0.929606">
        <ele>1781.237</ele>
        <time>2021-06-18T12:05:54Z</time>
      </trkpt>
      <trkpt lat="42.708342" lon="0.929634">
        <ele>1781.363</ele>
        <time>2021-06-18T12:05:55Z</time>
      </trkpt>
      <trkpt lat="42.708348" lon="0.929848">
        <ele>1782.544</ele>
        <time>2021-06-18T12:06:03Z</time>
      </trkpt>
      <trkpt lat="42.708349" lon="0.929875">
        <ele>1782.718</ele>
        <time>2021-06-18T12:06:04Z</time>
      </trkpt>
      <trkpt lat="42.708356" lon="0.930066">
        <ele>1783.708</ele>
        <time>2021-06-18T12:06:11Z</time>
      </trkpt>
      <trkpt lat="42.708356" lon="0.930091">
        <ele>1783.883</ele>
        <time>2021-06-18T12:06:12Z</time>
      </trkpt>
      <trkpt lat="42.708346" lon="0.930207">
        <ele>1783.592</ele>
        <time>2021-06-18T12:06:17Z</time>
      </trkpt>
      <trkpt lat="42.708351" lon="0.930256">
        <ele>1784.098</ele>
        <time>2021-06-18T12:06:19Z</time>
      </trkpt>
      <trkpt lat="42.708359" lon="0.930325">
        <ele>1784.772</ele>
        <time>2021-06-18T12:06:22Z</time>
      </trkpt>
      <trkpt lat="42.708376" lon="0.930446">
        <ele>1786.396</ele>
        <time>2021-06-18T12:06:27Z</time>
      </trkpt>
      <trkpt lat="42.708379" lon="0.930529">
        <ele>1787.086</ele>
        <time>2021-06-18T12:06:30Z</time>
      </trkpt>
      <trkpt lat="42.708385" lon="0.930647">
        <ele>1787.719</ele>
        <time>2021-06-18T12:06:34Z</time>
      </trkpt>
      <trkpt lat="42.708389" lon="0.930733">
        <ele>1788.196</ele>
        <time>2021-06-18T12:06:37Z</time>
      </trkpt>
      <trkpt lat="42.708391" lon="0.930821">
        <ele>1788.377</ele>
        <time>2021-06-18T12:06:40Z</time>
      </trkpt>
      <trkpt lat="42.708399" lon="0.931043">
        <ele>1789.061</ele>
        <time>2021-06-18T12:06:47Z</time>
      </trkpt>
      <trkpt lat="42.708399" lon="0.931075">
        <ele>1789.027</ele>
        <time>2021-06-18T12:06:48Z</time>
      </trkpt>
      <trkpt lat="42.708407" lon="0.931324">
        <ele>1790.108</ele>
        <time>2021-06-18T12:06:56Z</time>
      </trkpt>
      <trkpt lat="42.708408" lon="0.931383">
        <ele>1790.454</ele>
        <time>2021-06-18T12:06:58Z</time>
      </trkpt>
      <trkpt lat="42.708406" lon="0.931660">
        <ele>1790.783</ele>
        <time>2021-06-18T12:07:07Z</time>
      </trkpt>
      <trkpt lat="42.708407" lon="0.931839">
        <ele>1791.729</ele>
        <time>2021-06-18T12:07:13Z</time>
      </trkpt>
      <trkpt lat="42.708409" lon="0.931899">
        <ele>1792.133</ele>
        <time>2021-06-18T12:07:15Z</time>
      </trkpt>
      <trkpt lat="42.708415" lon="0.932140">
        <ele>1793.417</ele>
        <time>2021-06-18T12:07:23Z</time>
      </trkpt>
      <trkpt lat="42.708414" lon="0.932201">
        <ele>1793.677</ele>
        <time>2021-06-18T12:07:25Z</time>
      </trkpt>
      <trkpt lat="42.708416" lon="0.932410">
        <ele>1794.740</ele>
        <time>2021-06-18T12:07:32Z</time>
      </trkpt>
      <trkpt lat="42.708412" lon="0.932532">
        <ele>1795.237</ele>
        <time>2021-06-18T12:07:36Z</time>
      </trkpt>
      <trkpt lat="42.708413" lon="0.932561">
        <ele>1795.465</ele>
        <time>2021-06-18T12:07:37Z</time>
      </trkpt>
      <trkpt lat="42.708412" lon="0.932769">
        <ele>1796.668</ele>
        <time>2021-06-18T12:07:44Z</time>
      </trkpt>
      <trkpt lat="42.708411" lon="0.932799">
        <ele>1796.814</ele>
        <time>2021-06-18T12:07:45Z</time>
      </trkpt>
      <trkpt lat="42.708411" lon="0.933003">
        <ele>1798.608</ele>
        <time>2021-06-18T12:07:52Z</time>
      </trkpt>
      <trkpt lat="42.708405" lon="0.933053">
        <ele>1798.843</ele>
        <time>2021-06-18T12:07:54Z</time>
      </trkpt>
      <trkpt lat="42.708406" lon="0.933213">
        <ele>1800.222</ele>
        <time>2021-06-18T12:08:00Z</time>
      </trkpt>
      <trkpt lat="42.708407" lon="0.933396">
        <ele>1801.668</ele>
        <time>2021-06-18T12:08:07Z</time>
      </trkpt>
      <trkpt lat="42.708410" lon="0.933421">
        <ele>1801.952</ele>
        <time>2021-06-18T12:08:08Z</time>
      </trkpt>
      <trkpt lat="42.708416" lon="0.933532">
        <ele>1803.016</ele>
        <time>2021-06-18T12:08:12Z</time>
      </trkpt>
      <trkpt lat="42.708410" lon="0.933639">
        <ele>1803.466</ele>
        <time>2021-06-18T12:08:16Z</time>
      </trkpt>
      <trkpt lat="42.708414" lon="0.933716">
        <ele>1804.089</ele>
        <time>2021-06-18T12:08:19Z</time>
      </trkpt>
      <trkpt lat="42.708401" lon="0.933833">
        <ele>1803.996</ele>
        <time>2021-06-18T12:08:24Z</time>
      </trkpt>
      <trkpt lat="42.708388" lon="0.933895">
        <ele>1803.614</ele>
        <time>2021-06-18T12:08:26Z</time>
      </trkpt>
      <trkpt lat="42.708363" lon="0.933994">
        <ele>1803.354</ele>
        <time>2021-06-18T12:08:29Z</time>
      </trkpt>
      <trkpt lat="42.708300" lon="0.934212">
        <ele>1801.909</ele>
        <time>2021-06-18T12:08:35Z</time>
      </trkpt>
      <trkpt lat="42.708294" lon="0.934244">
        <ele>1802.108</ele>
        <time>2021-06-18T12:08:36Z</time>
      </trkpt>
      <trkpt lat="42.708255" lon="0.934390">
        <ele>1802.458</ele>
        <time>2021-06-18T12:08:41Z</time>
      </trkpt>
      <trkpt lat="42.708234" lon="0.934481">
        <ele>1803.297</ele>
        <time>2021-06-18T12:08:44Z</time>
      </trkpt>
      <trkpt lat="42.708200" lon="0.934598">
        <ele>1804.683</ele>
        <time>2021-06-18T12:08:48Z</time>
      </trkpt>
      <trkpt lat="42.708164" lon="0.934706">
        <ele>1805.927</ele>
        <time>2021-06-18T12:08:52Z</time>
      </trkpt>
      <trkpt lat="42.708130" lon="0.934813">
        <ele>1806.961</ele>
        <time>2021-06-18T12:08:56Z</time>
      </trkpt>
      <trkpt lat="42.708102" lon="0.934883">
        <ele>1807.161</ele>
        <time>2021-06-18T12:08:59Z</time>
      </trkpt>
      <trkpt lat="42.708065" lon="0.934974">
        <ele>1807.044</ele>
        <time>2021-06-18T12:09:03Z</time>
      </trkpt>
      <trkpt lat="42.708039" lon="0.935035">
        <ele>1807.211</ele>
        <time>2021-06-18T12:09:06Z</time>
      </trkpt>
      <trkpt lat="42.708008" lon="0.935127">
        <ele>1808.413</ele>
        <time>2021-06-18T12:09:10Z</time>
      </trkpt>
      <trkpt lat="42.707976" lon="0.935226">
        <ele>1809.643</ele>
        <time>2021-06-18T12:09:14Z</time>
      </trkpt>
      <trkpt lat="42.707932" lon="0.935315">
        <ele>1809.607</ele>
        <time>2021-06-18T12:09:18Z</time>
      </trkpt>
      <trkpt lat="42.707909" lon="0.935391">
        <ele>1810.308</ele>
        <time>2021-06-18T12:09:21Z</time>
      </trkpt>
      <trkpt lat="42.707885" lon="0.935492">
        <ele>1811.528</ele>
        <time>2021-06-18T12:09:25Z</time>
      </trkpt>
      <trkpt lat="42.707835" lon="0.935660">
        <ele>1812.467</ele>
        <time>2021-06-18T12:09:32Z</time>
      </trkpt>
      <trkpt lat="42.707831" lon="0.935684">
        <ele>1812.653</ele>
        <time>2021-06-18T12:09:33Z</time>
      </trkpt>
      <trkpt lat="42.707789" lon="0.935901">
        <ele>1813.437</ele>
        <time>2021-06-18T12:09:42Z</time>
      </trkpt>
      <trkpt lat="42.707763" lon="0.936051">
        <ele>1813.611</ele>
        <time>2021-06-18T12:09:48Z</time>
      </trkpt>
      <trkpt lat="42.707757" lon="0.936154">
        <ele>1814.591</ele>
        <time>2021-06-18T12:09:52Z</time>
      </trkpt>
      <trkpt lat="42.707740" lon="0.936254">
        <ele>1815.044</ele>
        <time>2021-06-18T12:09:56Z</time>
      </trkpt>
      <trkpt lat="42.707711" lon="0.936430">
        <ele>1815.821</ele>
        <time>2021-06-18T12:10:03Z</time>
      </trkpt>
      <trkpt lat="42.707695" lon="0.936638">
        <ele>1817.029</ele>
        <time>2021-06-18T12:10:11Z</time>
      </trkpt>
      <trkpt lat="42.707700" lon="0.936835">
        <ele>1816.200</ele>
        <time>2021-06-18T12:10:19Z</time>
      </trkpt>
      <trkpt lat="42.707709" lon="0.936883">
        <ele>1816.520</ele>
        <time>2021-06-18T12:10:21Z</time>
      </trkpt>
      <trkpt lat="42.707731" lon="0.936954">
        <ele>1817.808</ele>
        <time>2021-06-18T12:10:24Z</time>
      </trkpt>
      <trkpt lat="42.707776" lon="0.937064">
        <ele>1819.369</ele>
        <time>2021-06-18T12:10:29Z</time>
      </trkpt>
      <trkpt lat="42.707786" lon="0.937085">
        <ele>1819.798</ele>
        <time>2021-06-18T12:10:30Z</time>
      </trkpt>
      <trkpt lat="42.707832" lon="0.937180">
        <ele>1821.464</ele>
        <time>2021-06-18T12:10:35Z</time>
      </trkpt>
      <trkpt lat="42.707843" lon="0.937200">
        <ele>1821.928</ele>
        <time>2021-06-18T12:10:36Z</time>
      </trkpt>
      <trkpt lat="42.707878" lon="0.937286">
        <ele>1822.912</ele>
        <time>2021-06-18T12:10:41Z</time>
      </trkpt>
      <trkpt lat="42.707879" lon="0.937298">
        <ele>1822.782</ele>
        <time>2021-06-18T12:10:43Z</time>
      </trkpt>
      <trkpt lat="42.707879" lon="0.937297">
        <ele>1822.785</ele>
        <time>2021-06-18T12:10:44Z</time>
      </trkpt>
      <trkpt lat="42.707897" lon="0.937403">
        <ele>1821.812</ele>
        <time>2021-06-18T12:10:53Z</time>
      </trkpt>
      <trkpt lat="42.707961" lon="0.937568">
        <ele>1823.528</ele>
        <time>2021-06-18T12:10:59Z</time>
      </trkpt>
      <trkpt lat="42.707936" lon="0.937742">
        <ele>1820.289</ele>
        <time>2021-06-18T12:11:05Z</time>
      </trkpt>
      <trkpt lat="42.707965" lon="0.937775">
        <ele>1821.817</ele>
        <time>2021-06-18T12:11:06Z</time>
      </trkpt>
      <trkpt lat="42.707956" lon="0.937908">
        <ele>1820.108</ele>
        <time>2021-06-18T12:11:10Z</time>
      </trkpt>
      <trkpt lat="42.708028" lon="0.938019">
        <ele>1824.399</ele>
        <time>2021-06-18T12:11:15Z</time>
      </trkpt>
      <trkpt lat="42.708038" lon="0.938040">
        <ele>1824.968</ele>
        <time>2021-06-18T12:11:16Z</time>
      </trkpt>
      <trkpt lat="42.708116" lon="0.938153">
        <ele>1830.014</ele>
        <time>2021-06-18T12:11:21Z</time>
      </trkpt>
      <trkpt lat="42.708126" lon="0.938170">
        <ele>1830.788</ele>
        <time>2021-06-18T12:11:22Z</time>
      </trkpt>
      <trkpt lat="42.708139" lon="0.938201">
        <ele>1831.672</ele>
        <time>2021-06-18T12:11:24Z</time>
      </trkpt>
      <trkpt lat="42.708175" lon="0.938326">
        <ele>1833.972</ele>
        <time>2021-06-18T12:11:29Z</time>
      </trkpt>
      <trkpt lat="42.708175" lon="0.938456">
        <ele>1832.685</ele>
        <time>2021-06-18T12:11:32Z</time>
      </trkpt>
      <trkpt lat="42.708181" lon="0.938609">
        <ele>1831.552</ele>
        <time>2021-06-18T12:11:36Z</time>
      </trkpt>
      <trkpt lat="42.708201" lon="0.938816">
        <ele>1831.565</ele>
        <time>2021-06-18T12:11:42Z</time>
      </trkpt>
      <trkpt lat="42.708209" lon="0.938878">
        <ele>1831.668</ele>
        <time>2021-06-18T12:11:44Z</time>
      </trkpt>
      <trkpt lat="42.708251" lon="0.939112">
        <ele>1833.014</ele>
        <time>2021-06-18T12:11:52Z</time>
      </trkpt>
      <trkpt lat="42.708255" lon="0.939146">
        <ele>1833.108</ele>
        <time>2021-06-18T12:11:53Z</time>
      </trkpt>
      <trkpt lat="42.708306" lon="0.939364">
        <ele>1833.363</ele>
        <time>2021-06-18T12:12:01Z</time>
      </trkpt>
      <trkpt lat="42.708316" lon="0.939389">
        <ele>1833.672</ele>
        <time>2021-06-18T12:12:02Z</time>
      </trkpt>
      <trkpt lat="42.708357" lon="0.939543">
        <ele>1834.798</ele>
        <time>2021-06-18T12:12:08Z</time>
      </trkpt>
      <trkpt lat="42.708369" lon="0.939595">
        <ele>1834.922</ele>
        <time>2021-06-18T12:12:10Z</time>
      </trkpt>
      <trkpt lat="42.708449" lon="0.939818">
        <ele>1836.276</ele>
        <time>2021-06-18T12:12:19Z</time>
      </trkpt>
      <trkpt lat="42.708457" lon="0.939844">
        <ele>1836.176</ele>
        <time>2021-06-18T12:12:20Z</time>
      </trkpt>
      <trkpt lat="42.708518" lon="0.940022">
        <ele>1836.589</ele>
        <time>2021-06-18T12:12:27Z</time>
      </trkpt>
      <trkpt lat="42.708554" lon="0.940112">
        <ele>1837.276</ele>
        <time>2021-06-18T12:12:31Z</time>
      </trkpt>
      <trkpt lat="42.708620" lon="0.940275">
        <ele>1838.621</ele>
        <time>2021-06-18T12:12:38Z</time>
      </trkpt>
      <trkpt lat="42.708701" lon="0.940515">
        <ele>1839.541</ele>
        <time>2021-06-18T12:12:48Z</time>
      </trkpt>
      <trkpt lat="42.708711" lon="0.940537">
        <ele>1839.705</ele>
        <time>2021-06-18T12:12:49Z</time>
      </trkpt>
      <trkpt lat="42.708768" lon="0.940678">
        <ele>1840.308</ele>
        <time>2021-06-18T12:12:55Z</time>
      </trkpt>
      <trkpt lat="42.708815" lon="0.940803">
        <ele>1840.619</ele>
        <time>2021-06-18T12:13:00Z</time>
      </trkpt>
      <trkpt lat="42.708876" lon="0.940942">
        <ele>1841.728</ele>
        <time>2021-06-18T12:13:06Z</time>
      </trkpt>
      <trkpt lat="42.708949" lon="0.941102">
        <ele>1843.044</ele>
        <time>2021-06-18T12:13:13Z</time>
      </trkpt>
      <trkpt lat="42.708969" lon="0.941148">
        <ele>1843.268</ele>
        <time>2021-06-18T12:13:15Z</time>
      </trkpt>
      <trkpt lat="42.709016" lon="0.941237">
        <ele>1843.962</ele>
        <time>2021-06-18T12:13:19Z</time>
      </trkpt>
      <trkpt lat="42.709078" lon="0.941370">
        <ele>1844.542</ele>
        <time>2021-06-18T12:13:25Z</time>
      </trkpt>
      <trkpt lat="42.709105" lon="0.941407">
        <ele>1845.075</ele>
        <time>2021-06-18T12:13:27Z</time>
      </trkpt>
      <trkpt lat="42.709157" lon="0.941522">
        <ele>1845.242</ele>
        <time>2021-06-18T12:13:32Z</time>
      </trkpt>
      <trkpt lat="42.709193" lon="0.941599">
        <ele>1845.697</ele>
        <time>2021-06-18T12:13:35Z</time>
      </trkpt>
      <trkpt lat="42.709269" lon="0.941741">
        <ele>1847.023</ele>
        <time>2021-06-18T12:13:40Z</time>
      </trkpt>
      <trkpt lat="42.709320" lon="0.941857">
        <ele>1847.525</ele>
        <time>2021-06-18T12:13:44Z</time>
      </trkpt>
      <trkpt lat="42.709355" lon="0.941929">
        <ele>1848.108</ele>
        <time>2021-06-18T12:13:47Z</time>
      </trkpt>
      <trkpt lat="42.709377" lon="0.941975">
        <ele>1848.796</ele>
        <time>2021-06-18T12:13:49Z</time>
      </trkpt>
      <trkpt lat="42.709419" lon="0.942056">
        <ele>1850.025</ele>
        <time>2021-06-18T12:13:53Z</time>
      </trkpt>
      <trkpt lat="42.709440" lon="0.942124">
        <ele>1850.211</ele>
        <time>2021-06-18T12:13:56Z</time>
      </trkpt>
      <trkpt lat="42.709477" lon="0.942267">
        <ele>1850.835</ele>
        <time>2021-06-18T12:14:02Z</time>
      </trkpt>
      <trkpt lat="42.709493" lon="0.942341">
        <ele>1851.469</ele>
        <time>2021-06-18T12:14:05Z</time>
      </trkpt>
      <trkpt lat="42.709508" lon="0.942416">
        <ele>1852.069</ele>
        <time>2021-06-18T12:14:08Z</time>
      </trkpt>
      <trkpt lat="42.709531" lon="0.942544">
        <ele>1852.962</ele>
        <time>2021-06-18T12:14:13Z</time>
      </trkpt>
      <trkpt lat="42.709545" lon="0.942622">
        <ele>1853.459</ele>
        <time>2021-06-18T12:14:16Z</time>
      </trkpt>
      <trkpt lat="42.709572" lon="0.942806">
        <ele>1854.134</ele>
        <time>2021-06-18T12:14:23Z</time>
      </trkpt>
      <trkpt lat="42.709610" lon="0.943010">
        <ele>1855.955</ele>
        <time>2021-06-18T12:14:31Z</time>
      </trkpt>
      <trkpt lat="42.709613" lon="0.943034">
        <ele>1856.010</ele>
        <time>2021-06-18T12:14:32Z</time>
      </trkpt>
      <trkpt lat="42.709637" lon="0.943183">
        <ele>1857.008</ele>
        <time>2021-06-18T12:14:38Z</time>
      </trkpt>
      <trkpt lat="42.709647" lon="0.943235">
        <ele>1857.430</ele>
        <time>2021-06-18T12:14:40Z</time>
      </trkpt>
      <trkpt lat="42.709683" lon="0.943412">
        <ele>1858.539</ele>
        <time>2021-06-18T12:14:47Z</time>
      </trkpt>
      <trkpt lat="42.709687" lon="0.943437">
        <ele>1858.625</ele>
        <time>2021-06-18T12:14:48Z</time>
      </trkpt>
      <trkpt lat="42.709708" lon="0.943537">
        <ele>1859.029</ele>
        <time>2021-06-18T12:14:52Z</time>
      </trkpt>
      <trkpt lat="42.709735" lon="0.943691">
        <ele>1859.613</ele>
        <time>2021-06-18T12:14:58Z</time>
      </trkpt>
      <trkpt lat="42.709738" lon="0.943717">
        <ele>1859.733</ele>
        <time>2021-06-18T12:14:59Z</time>
      </trkpt>
      <trkpt lat="42.709778" lon="0.943924">
        <ele>1862.056</ele>
        <time>2021-06-18T12:15:07Z</time>
      </trkpt>
      <trkpt lat="42.709836" lon="0.944120">
        <ele>1866.023</ele>
        <time>2021-06-18T12:15:15Z</time>
      </trkpt>
      <trkpt lat="42.709916" lon="0.944331">
        <ele>1867.429</ele>
        <time>2021-06-18T12:15:24Z</time>
      </trkpt>
      <trkpt lat="42.709926" lon="0.944352">
        <ele>1867.300</ele>
        <time>2021-06-18T12:15:25Z</time>
      </trkpt>
      <trkpt lat="42.709996" lon="0.944504">
        <ele>1865.520</ele>
        <time>2021-06-18T12:15:32Z</time>
      </trkpt>
      <trkpt lat="42.710005" lon="0.944526">
        <ele>1865.708</ele>
        <time>2021-06-18T12:15:33Z</time>
      </trkpt>
      <trkpt lat="42.710056" lon="0.944636">
        <ele>1867.249</ele>
        <time>2021-06-18T12:15:38Z</time>
      </trkpt>
      <trkpt lat="42.710107" lon="0.944748">
        <ele>1868.298</ele>
        <time>2021-06-18T12:15:43Z</time>
      </trkpt>
      <trkpt lat="42.710124" lon="0.944797">
        <ele>1868.874</ele>
        <time>2021-06-18T12:15:45Z</time>
      </trkpt>
      <trkpt lat="42.710178" lon="0.944912">
        <ele>1869.628</ele>
        <time>2021-06-18T12:15:50Z</time>
      </trkpt>
      <trkpt lat="42.710208" lon="0.944982">
        <ele>1869.422</ele>
        <time>2021-06-18T12:15:53Z</time>
      </trkpt>
      <trkpt lat="42.710277" lon="0.945148">
        <ele>1868.912</ele>
        <time>2021-06-18T12:16:00Z</time>
      </trkpt>
      <trkpt lat="42.710363" lon="0.945333">
        <ele>1869.815</ele>
        <time>2021-06-18T12:16:08Z</time>
      </trkpt>
      <trkpt lat="42.710463" lon="0.945544">
        <ele>1869.882</ele>
        <time>2021-06-18T12:16:17Z</time>
      </trkpt>
      <trkpt lat="42.710570" lon="0.945775">
        <ele>1870.668</ele>
        <time>2021-06-18T12:16:27Z</time>
      </trkpt>
      <trkpt lat="42.710652" lon="0.945984">
        <ele>1872.642</ele>
        <time>2021-06-18T12:16:36Z</time>
      </trkpt>
      <trkpt lat="42.710720" lon="0.946174">
        <ele>1873.926</ele>
        <time>2021-06-18T12:16:44Z</time>
      </trkpt>
      <trkpt lat="42.710738" lon="0.946224">
        <ele>1874.208</ele>
        <time>2021-06-18T12:16:46Z</time>
      </trkpt>
      <trkpt lat="42.710767" lon="0.946328">
        <ele>1874.583</ele>
        <time>2021-06-18T12:16:50Z</time>
      </trkpt>
      <trkpt lat="42.710823" lon="0.946471">
        <ele>1875.272</ele>
        <time>2021-06-18T12:16:56Z</time>
      </trkpt>
      <trkpt lat="42.710846" lon="0.946515">
        <ele>1875.468</ele>
        <time>2021-06-18T12:16:58Z</time>
      </trkpt>
      <trkpt lat="42.710931" lon="0.946707">
        <ele>1876.062</ele>
        <time>2021-06-18T12:17:06Z</time>
      </trkpt>
      <trkpt lat="42.711078" lon="0.947009">
        <ele>1877.316</ele>
        <time>2021-06-18T12:17:17Z</time>
      </trkpt>
      <trkpt lat="42.711092" lon="0.947038">
        <ele>1877.426</ele>
        <time>2021-06-18T12:17:18Z</time>
      </trkpt>
      <trkpt lat="42.711233" lon="0.947382">
        <ele>1879.649</ele>
        <time>2021-06-18T12:17:28Z</time>
      </trkpt>
      <trkpt lat="42.711393" lon="0.947775">
        <ele>1879.136</ele>
        <time>2021-06-18T12:17:37Z</time>
      </trkpt>
      <trkpt lat="42.711591" lon="0.948229">
        <ele>1877.864</ele>
        <time>2021-06-18T12:17:47Z</time>
      </trkpt>
      <trkpt lat="42.711778" lon="0.948513">
        <ele>1876.406</ele>
        <time>2021-06-18T12:17:54Z</time>
      </trkpt>
      <trkpt lat="42.712009" lon="0.948779">
        <ele>1874.416</ele>
        <time>2021-06-18T12:18:01Z</time>
      </trkpt>
      <trkpt lat="42.712264" lon="0.949063">
        <ele>1874.308</ele>
        <time>2021-06-18T12:18:08Z</time>
      </trkpt>
      <trkpt lat="42.712328" lon="0.949149">
        <ele>1874.383</ele>
        <time>2021-06-18T12:18:10Z</time>
      </trkpt>
      <trkpt lat="42.712585" lon="0.949455">
        <ele>1875.142</ele>
        <time>2021-06-18T12:18:17Z</time>
      </trkpt>
      <trkpt lat="42.712744" lon="0.949632">
        <ele>1875.688</ele>
        <time>2021-06-18T12:18:21Z</time>
      </trkpt>
      <trkpt lat="42.712856" lon="0.949777">
        <ele>1875.532</ele>
        <time>2021-06-18T12:18:24Z</time>
      </trkpt>
      <trkpt lat="42.713160" lon="0.950250">
        <ele>1876.676</ele>
        <time>2021-06-18T12:18:33Z</time>
      </trkpt>
      <trkpt lat="42.713468" lon="0.950914">
        <ele>1876.726</ele>
        <time>2021-06-18T12:18:44Z</time>
      </trkpt>
      <trkpt lat="42.713743" lon="0.951427">
        <ele>1876.329</ele>
        <time>2021-06-18T12:18:53Z</time>
      </trkpt>
      <trkpt lat="42.714038" lon="0.951676">
        <ele>1875.426</ele>
        <time>2021-06-18T12:18:59Z</time>
      </trkpt>
      <trkpt lat="42.714593" lon="0.951970">
        <ele>1872.713</ele>
        <time>2021-06-18T12:19:08Z</time>
      </trkpt>
      <trkpt lat="42.714659" lon="0.952001">
        <ele>1872.243</ele>
        <time>2021-06-18T12:19:09Z</time>
      </trkpt>
      <trkpt lat="42.715050" lon="0.952190">
        <ele>1871.407</ele>
        <time>2021-06-18T12:19:15Z</time>
      </trkpt>
      <trkpt lat="42.715239" lon="0.952284">
        <ele>1872.108</ele>
        <time>2021-06-18T12:19:18Z</time>
      </trkpt>
      <trkpt lat="42.715708" lon="0.952500">
        <ele>1872.528</ele>
        <time>2021-06-18T12:19:26Z</time>
      </trkpt>
      <trkpt lat="42.716194" lon="0.952735">
        <ele>1872.577</ele>
        <time>2021-06-18T12:19:35Z</time>
      </trkpt>
      <trkpt lat="42.716398" lon="0.952851">
        <ele>1872.623</ele>
        <time>2021-06-18T12:19:39Z</time>
      </trkpt>
      <trkpt lat="42.716485" lon="0.952935">
        <ele>1873.067</ele>
        <time>2021-06-18T12:19:41Z</time>
      </trkpt>
      <trkpt lat="42.716606" lon="0.953072">
        <ele>1872.431</ele>
        <time>2021-06-18T12:19:44Z</time>
      </trkpt>
      <trkpt lat="42.716759" lon="0.953274">
        <ele>1872.291</ele>
        <time>2021-06-18T12:19:48Z</time>
      </trkpt>
      <trkpt lat="42.717076" lon="0.953680">
        <ele>1870.344</ele>
        <time>2021-06-18T12:19:55Z</time>
      </trkpt>
      <trkpt lat="42.717422" lon="0.954097">
        <ele>1868.691</ele>
        <time>2021-06-18T12:20:01Z</time>
      </trkpt>
      <trkpt lat="42.717485" lon="0.954169">
        <ele>1867.934</ele>
        <time>2021-06-18T12:20:02Z</time>
      </trkpt>
      <trkpt lat="42.717682" lon="0.954390">
        <ele>1867.355</ele>
        <time>2021-06-18T12:20:05Z</time>
      </trkpt>
      <trkpt lat="42.717890" lon="0.954617">
        <ele>1865.310</ele>
        <time>2021-06-18T12:20:08Z</time>
      </trkpt>
      <trkpt lat="42.718031" lon="0.954773">
        <ele>1864.108</ele>
        <time>2021-06-18T12:20:10Z</time>
      </trkpt>
      <trkpt lat="42.718103" lon="0.954851">
        <ele>1863.190</ele>
        <time>2021-06-18T12:20:11Z</time>
      </trkpt>
      <trkpt lat="42.718173" lon="0.954932">
        <ele>1862.249</ele>
        <time>2021-06-18T12:20:12Z</time>
      </trkpt>
      <trkpt lat="42.718397" lon="0.955176">
        <ele>1860.465</ele>
        <time>2021-06-18T12:20:15Z</time>
      </trkpt>
      <trkpt lat="42.718549" lon="0.955341">
        <ele>1859.969</ele>
        <time>2021-06-18T12:20:17Z</time>
      </trkpt>
      <trkpt lat="42.718625" lon="0.955424">
        <ele>1859.523</ele>
        <time>2021-06-18T12:20:18Z</time>
      </trkpt>
      <trkpt lat="42.718849" lon="0.955672">
        <ele>1858.833</ele>
        <time>2021-06-18T12:20:21Z</time>
      </trkpt>
      <trkpt lat="42.718996" lon="0.955831">
        <ele>1859.266</ele>
        <time>2021-06-18T12:20:23Z</time>
      </trkpt>
      <trkpt lat="42.719137" lon="0.955987">
        <ele>1859.073</ele>
        <time>2021-06-18T12:20:25Z</time>
      </trkpt>
      <trkpt lat="42.719210" lon="0.956058">
        <ele>1858.885</ele>
        <time>2021-06-18T12:20:26Z</time>
      </trkpt>
      <trkpt lat="42.719702" lon="0.956504">
        <ele>1857.089</ele>
        <time>2021-06-18T12:20:33Z</time>
      </trkpt>
      <trkpt lat="42.719768" lon="0.956564">
        <ele>1857.117</ele>
        <time>2021-06-18T12:20:34Z</time>
      </trkpt>
      <trkpt lat="42.720097" lon="0.956833">
        <ele>1857.008</ele>
        <time>2021-06-18T12:20:39Z</time>
      </trkpt>
      <trkpt lat="42.720163" lon="0.956884">
        <ele>1857.015</ele>
        <time>2021-06-18T12:20:40Z</time>
      </trkpt>
      <trkpt lat="42.720615" lon="0.957250">
        <ele>1856.324</ele>
        <time>2021-06-18T12:20:47Z</time>
      </trkpt>
      <trkpt lat="42.720976" lon="0.957540">
        <ele>1856.580</ele>
        <time>2021-06-18T12:20:53Z</time>
      </trkpt>
      <trkpt lat="42.721086" lon="0.957633">
        <ele>1856.344</ele>
        <time>2021-06-18T12:20:55Z</time>
      </trkpt>
      <trkpt lat="42.721433" lon="0.957917">
        <ele>1857.188</ele>
        <time>2021-06-18T12:21:02Z</time>
      </trkpt>
      <trkpt lat="42.721817" lon="0.958211">
        <ele>1857.138</ele>
        <time>2021-06-18T12:21:10Z</time>
      </trkpt>
      <trkpt lat="42.721868" lon="0.958245">
        <ele>1857.361</ele>
        <time>2021-06-18T12:21:11Z</time>
      </trkpt>
      <trkpt lat="42.722329" lon="0.958547">
        <ele>1857.488</ele>
        <time>2021-06-18T12:21:20Z</time>
      </trkpt>
      <trkpt lat="42.722847" lon="0.958850">
        <ele>1858.614</ele>
        <time>2021-06-18T12:21:30Z</time>
      </trkpt>
      <trkpt lat="42.723233" lon="0.959086">
        <ele>1857.754</ele>
        <time>2021-06-18T12:21:37Z</time>
      </trkpt>
      <trkpt lat="42.723509" lon="0.959343">
        <ele>1856.509</ele>
        <time>2021-06-18T12:21:42Z</time>
      </trkpt>
      <trkpt lat="42.723956" lon="0.959866">
        <ele>1854.508</ele>
        <time>2021-06-18T12:21:50Z</time>
      </trkpt>
      <trkpt lat="42.724014" lon="0.959937">
        <ele>1854.258</ele>
        <time>2021-06-18T12:21:51Z</time>
      </trkpt>
      <trkpt lat="42.724435" lon="0.960440">
        <ele>1852.527</ele>
        <time>2021-06-18T12:21:58Z</time>
      </trkpt>
      <trkpt lat="42.724620" lon="0.960656">
        <ele>1852.273</ele>
        <time>2021-06-18T12:22:01Z</time>
      </trkpt>
      <trkpt lat="42.724747" lon="0.960798">
        <ele>1852.097</ele>
        <time>2021-06-18T12:22:03Z</time>
      </trkpt>
      <trkpt lat="42.724949" lon="0.960993">
        <ele>1851.331</ele>
        <time>2021-06-18T12:22:06Z</time>
      </trkpt>
      <trkpt lat="42.725392" lon="0.961331">
        <ele>1850.361</ele>
        <time>2021-06-18T12:22:12Z</time>
      </trkpt>
      <trkpt lat="42.725470" lon="0.961383">
        <ele>1849.874</ele>
        <time>2021-06-18T12:22:13Z</time>
      </trkpt>
      <trkpt lat="42.725779" lon="0.961622">
        <ele>1847.561</ele>
        <time>2021-06-18T12:22:17Z</time>
      </trkpt>
      <trkpt lat="42.725844" lon="0.961707">
        <ele>1847.471</ele>
        <time>2021-06-18T12:22:18Z</time>
      </trkpt>
      <trkpt lat="42.725903" lon="0.961804">
        <ele>1846.341</ele>
        <time>2021-06-18T12:22:19Z</time>
      </trkpt>
      <trkpt lat="42.725997" lon="0.962024">
        <ele>1845.415</ele>
        <time>2021-06-18T12:22:21Z</time>
      </trkpt>
      <trkpt lat="42.726038" lon="0.962139">
        <ele>1845.308</ele>
        <time>2021-06-18T12:22:22Z</time>
      </trkpt>
      <trkpt lat="42.726078" lon="0.962254">
        <ele>1845.354</ele>
        <time>2021-06-18T12:22:23Z</time>
      </trkpt>
      <trkpt lat="42.726163" lon="0.962479">
        <ele>1844.363</ele>
        <time>2021-06-18T12:22:25Z</time>
      </trkpt>
      <trkpt lat="42.726222" lon="0.962576">
        <ele>1844.149</ele>
        <time>2021-06-18T12:22:26Z</time>
      </trkpt>
      <trkpt lat="42.726294" lon="0.962657">
        <ele>1844.173</ele>
        <time>2021-06-18T12:22:27Z</time>
      </trkpt>
      <trkpt lat="42.726375" lon="0.962715">
        <ele>1844.227</ele>
        <time>2021-06-18T12:22:28Z</time>
      </trkpt>
      <trkpt lat="42.726550" lon="0.962762">
        <ele>1844.187</ele>
        <time>2021-06-18T12:22:30Z</time>
      </trkpt>
      <trkpt lat="42.726638" lon="0.962773">
        <ele>1844.030</ele>
        <time>2021-06-18T12:22:31Z</time>
      </trkpt>
      <trkpt lat="42.726724" lon="0.962785">
        <ele>1844.057</ele>
        <time>2021-06-18T12:22:32Z</time>
      </trkpt>
      <trkpt lat="42.727215" lon="0.962845">
        <ele>1844.022</ele>
        <time>2021-06-18T12:22:38Z</time>
      </trkpt>
      <trkpt lat="42.727797" lon="0.962903">
        <ele>1844.062</ele>
        <time>2021-06-18T12:22:46Z</time>
      </trkpt>
      <trkpt lat="42.728307" lon="0.962966">
        <ele>1844.008</ele>
        <time>2021-06-18T12:22:54Z</time>
      </trkpt>
      <trkpt lat="42.728709" lon="0.962892">
        <ele>1843.908</ele>
        <time>2021-06-18T12:23:01Z</time>
      </trkpt>
      <trkpt lat="42.728910" lon="0.962835">
        <ele>1843.829</ele>
        <time>2021-06-18T12:23:05Z</time>
      </trkpt>
      <trkpt lat="42.728968" lon="0.962749">
        <ele>1844.118</ele>
        <time>2021-06-18T12:23:08Z</time>
      </trkpt>
      <trkpt lat="42.729026" lon="0.962713">
        <ele>1844.164</ele>
        <time>2021-06-18T12:23:12Z</time>
      </trkpt>
      <trkpt lat="42.729082" lon="0.962643">
        <ele>1844.128</ele>
        <time>2021-06-18T12:23:16Z</time>
      </trkpt>
      <trkpt lat="42.729126" lon="0.962568">
        <ele>1844.112</ele>
        <time>2021-06-18T12:23:20Z</time>
      </trkpt>
      <trkpt lat="42.729112" lon="0.962524">
        <ele>1844.282</ele>
        <time>2021-06-18T12:23:24Z</time>
      </trkpt>
      <trkpt lat="42.729087" lon="0.962577">
        <ele>1844.235</ele>
        <time>2021-06-18T12:23:26Z</time>
      </trkpt>
      <trkpt lat="42.729071" lon="0.962615">
        <ele>1844.232</ele>
        <time>2021-06-18T12:23:27Z</time>
      </trkpt>
      <trkpt lat="42.728958" lon="0.962778">
        <ele>1844.044</ele>
        <time>2021-06-18T12:23:32Z</time>
      </trkpt>
      <trkpt lat="42.728763" lon="0.962860">
        <ele>1843.805</ele>
        <time>2021-06-18T12:23:38Z</time>
      </trkpt>
      <trkpt lat="42.728674" lon="0.962953">
        <ele>1843.915</ele>
        <time>2021-06-18T12:23:42Z</time>
      </trkpt>
      <trkpt lat="42.728707" lon="0.963037">
        <ele>1843.708</ele>
        <time>2021-06-18T12:23:45Z</time>
      </trkpt>
      <trkpt lat="42.728719" lon="0.963036">
        <ele>1843.661</ele>
        <time>2021-06-18T12:23:47Z</time>
      </trkpt>
      <trkpt lat="42.728759" lon="0.963056">
        <ele>1843.560</ele>
        <time>2021-06-18T12:26:49Z</time>
      </trkpt>
      <trkpt lat="42.728734" lon="0.963141">
        <ele>1843.416</ele>
        <time>2021-06-18T12:26:52Z</time>
      </trkpt>
      <trkpt lat="42.728595" lon="0.963211">
        <ele>1843.410</ele>
        <time>2021-06-18T12:26:57Z</time>
      </trkpt>
      <trkpt lat="42.728532" lon="0.963141">
        <ele>1843.754</ele>
        <time>2021-06-18T12:27:00Z</time>
      </trkpt>
      <trkpt lat="42.728587" lon="0.963052">
        <ele>1844.014</ele>
        <time>2021-06-18T12:27:03Z</time>
      </trkpt>
      <trkpt lat="42.728613" lon="0.963033">
        <ele>1844.087</ele>
        <time>2021-06-18T12:27:04Z</time>
      </trkpt>
      <trkpt lat="42.728635" lon="0.963005">
        <ele>1843.984</ele>
        <time>2021-06-18T12:27:05Z</time>
      </trkpt>
      <trkpt lat="42.728668" lon="0.962929">
        <ele>1843.987</ele>
        <time>2021-06-18T12:27:07Z</time>
      </trkpt>
      <trkpt lat="42.728798" lon="0.962851">
        <ele>1843.842</ele>
        <time>2021-06-18T12:27:11Z</time>
      </trkpt>
      <trkpt lat="42.728836" lon="0.962847">
        <ele>1843.826</ele>
        <time>2021-06-18T12:27:12Z</time>
      </trkpt>
      <trkpt lat="42.728867" lon="0.962833">
        <ele>1843.808</ele>
        <time>2021-06-18T12:27:13Z</time>
      </trkpt>
      <trkpt lat="42.728925" lon="0.962788">
        <ele>1844.055</ele>
        <time>2021-06-18T12:27:15Z</time>
      </trkpt>
      <trkpt lat="42.729072" lon="0.962576">
        <ele>1844.214</ele>
        <time>2021-06-18T12:27:21Z</time>
      </trkpt>
      <trkpt lat="42.729166" lon="0.962474">
        <ele>1844.120</ele>
        <time>2021-06-18T12:27:25Z</time>
      </trkpt>
      <trkpt lat="42.729350" lon="0.962444">
        <ele>1844.264</ele>
        <time>2021-06-18T12:27:30Z</time>
      </trkpt>
      <trkpt lat="42.729588" lon="0.962489">
        <ele>1844.628</ele>
        <time>2021-06-18T12:27:35Z</time>
      </trkpt>
      <trkpt lat="42.729772" lon="0.962624">
        <ele>1844.498</ele>
        <time>2021-06-18T12:27:39Z</time>
      </trkpt>
      <trkpt lat="42.729860" lon="0.962699">
        <ele>1844.421</ele>
        <time>2021-06-18T12:27:41Z</time>
      </trkpt>
      <trkpt lat="42.730233" lon="0.963045">
        <ele>1844.928</ele>
        <time>2021-06-18T12:27:50Z</time>
      </trkpt>
      <trkpt lat="42.730396" lon="0.963189">
        <ele>1845.285</ele>
        <time>2021-06-18T12:27:54Z</time>
      </trkpt>
      <trkpt lat="42.730491" lon="0.963238">
        <ele>1845.489</ele>
        <time>2021-06-18T12:27:56Z</time>
      </trkpt>
      <trkpt lat="42.730536" lon="0.963267">
        <ele>1845.417</ele>
        <time>2021-06-18T12:27:57Z</time>
      </trkpt>
      <trkpt lat="42.730749" lon="0.963422">
        <ele>1845.908</ele>
        <time>2021-06-18T12:28:02Z</time>
      </trkpt>
      <trkpt lat="42.730889" lon="0.963485">
        <ele>1846.135</ele>
        <time>2021-06-18T12:28:05Z</time>
      </trkpt>
      <trkpt lat="42.730979" lon="0.963536">
        <ele>1846.184</ele>
        <time>2021-06-18T12:28:07Z</time>
      </trkpt>
      <trkpt lat="42.731277" lon="0.963665">
        <ele>1845.610</ele>
        <time>2021-06-18T12:28:13Z</time>
      </trkpt>
      <trkpt lat="42.731488" lon="0.963743">
        <ele>1845.614</ele>
        <time>2021-06-18T12:28:17Z</time>
      </trkpt>
      <trkpt lat="42.731588" lon="0.963800">
        <ele>1845.688</ele>
        <time>2021-06-18T12:28:19Z</time>
      </trkpt>
      <trkpt lat="42.731780" lon="0.963877">
        <ele>1845.598</ele>
        <time>2021-06-18T12:28:23Z</time>
      </trkpt>
      <trkpt lat="42.731873" lon="0.963898">
        <ele>1845.781</ele>
        <time>2021-06-18T12:28:25Z</time>
      </trkpt>
      <trkpt lat="42.732147" lon="0.964016">
        <ele>1845.868</ele>
        <time>2021-06-18T12:28:31Z</time>
      </trkpt>
      <trkpt lat="42.732188" lon="0.964058">
        <ele>1845.774</ele>
        <time>2021-06-18T12:28:32Z</time>
      </trkpt>
      <trkpt lat="42.732372" lon="0.964191">
        <ele>1845.456</ele>
        <time>2021-06-18T12:28:36Z</time>
      </trkpt>
      <trkpt lat="42.732423" lon="0.964216">
        <ele>1845.421</ele>
        <time>2021-06-18T12:28:37Z</time>
      </trkpt>
      <trkpt lat="42.732532" lon="0.964278">
        <ele>1845.308</ele>
        <time>2021-06-18T12:28:39Z</time>
      </trkpt>
      <trkpt lat="42.732639" lon="0.964363">
        <ele>1845.144</ele>
        <time>2021-06-18T12:28:41Z</time>
      </trkpt>
      <trkpt lat="42.733037" lon="0.964644">
        <ele>1843.853</ele>
        <time>2021-06-18T12:28:48Z</time>
      </trkpt>
      <trkpt lat="42.733443" lon="0.964822">
        <ele>1844.249</ele>
        <time>2021-06-18T12:28:55Z</time>
      </trkpt>
      <trkpt lat="42.733807" lon="0.964952">
        <ele>1845.733</ele>
        <time>2021-06-18T12:29:02Z</time>
      </trkpt>
      <trkpt lat="42.733896" lon="0.964977">
        <ele>1846.387</ele>
        <time>2021-06-18T12:29:04Z</time>
      </trkpt>
      <trkpt lat="42.734045" lon="0.965009">
        <ele>1846.457</ele>
        <time>2021-06-18T12:29:07Z</time>
      </trkpt>
      <trkpt lat="42.734188" lon="0.965082">
        <ele>1845.880</ele>
        <time>2021-06-18T12:29:10Z</time>
      </trkpt>
      <trkpt lat="42.734239" lon="0.965102">
        <ele>1845.647</ele>
        <time>2021-06-18T12:29:11Z</time>
      </trkpt>
      <trkpt lat="42.734291" lon="0.965126">
        <ele>1845.464</ele>
        <time>2021-06-18T12:29:12Z</time>
      </trkpt>
      <trkpt lat="42.734455" lon="0.965220">
        <ele>1844.806</ele>
        <time>2021-06-18T12:29:15Z</time>
      </trkpt>
      <trkpt lat="42.734551" lon="0.965312">
        <ele>1845.116</ele>
        <time>2021-06-18T12:29:17Z</time>
      </trkpt>
      <trkpt lat="42.734632" lon="0.965396">
        <ele>1844.808</ele>
        <time>2021-06-18T12:29:19Z</time>
      </trkpt>
      <trkpt lat="42.734721" lon="0.965437">
        <ele>1845.143</ele>
        <time>2021-06-18T12:29:21Z</time>
      </trkpt>
      <trkpt lat="42.734824" lon="0.965454">
        <ele>1845.792</ele>
        <time>2021-06-18T12:29:23Z</time>
      </trkpt>
      <trkpt lat="42.734878" lon="0.965470">
        <ele>1845.978</ele>
        <time>2021-06-18T12:29:24Z</time>
      </trkpt>
      <trkpt lat="42.734929" lon="0.965499">
        <ele>1845.952</ele>
        <time>2021-06-18T12:29:25Z</time>
      </trkpt>
      <trkpt lat="42.735042" lon="0.965632">
        <ele>1846.066</ele>
        <time>2021-06-18T12:29:28Z</time>
      </trkpt>
      <trkpt lat="42.735071" lon="0.965685">
        <ele>1846.036</ele>
        <time>2021-06-18T12:29:29Z</time>
      </trkpt>
      <trkpt lat="42.735185" lon="0.965879">
        <ele>1845.639</ele>
        <time>2021-06-18T12:29:33Z</time>
      </trkpt>
      <trkpt lat="42.735258" lon="0.965973">
        <ele>1845.316</ele>
        <time>2021-06-18T12:29:35Z</time>
      </trkpt>
      <trkpt lat="42.735385" lon="0.966158">
        <ele>1844.851</ele>
        <time>2021-06-18T12:29:38Z</time>
      </trkpt>
      <trkpt lat="42.735419" lon="0.966233">
        <ele>1844.601</ele>
        <time>2021-06-18T12:29:39Z</time>
      </trkpt>
      <trkpt lat="42.735651" lon="0.966680">
        <ele>1842.511</ele>
        <time>2021-06-18T12:29:45Z</time>
      </trkpt>
      <trkpt lat="42.735751" lon="0.966829">
        <ele>1841.708</ele>
        <time>2021-06-18T12:29:47Z</time>
      </trkpt>
      <trkpt lat="42.735806" lon="0.966902">
        <ele>1841.332</ele>
        <time>2021-06-18T12:29:48Z</time>
      </trkpt>
      <trkpt lat="42.735863" lon="0.966969">
        <ele>1840.981</ele>
        <time>2021-06-18T12:29:49Z</time>
      </trkpt>
      <trkpt lat="42.735922" lon="0.967032">
        <ele>1840.777</ele>
        <time>2021-06-18T12:29:50Z</time>
      </trkpt>
      <trkpt lat="42.735981" lon="0.967089">
        <ele>1840.531</ele>
        <time>2021-06-18T12:29:51Z</time>
      </trkpt>
      <trkpt lat="42.736134" lon="0.967222">
        <ele>1840.255</ele>
        <time>2021-06-18T12:29:54Z</time>
      </trkpt>
      <trkpt lat="42.736273" lon="0.967361">
        <ele>1840.215</ele>
        <time>2021-06-18T12:29:57Z</time>
      </trkpt>
      <trkpt lat="42.736446" lon="0.967564">
        <ele>1839.658</ele>
        <time>2021-06-18T12:30:01Z</time>
      </trkpt>
      <trkpt lat="42.736543" lon="0.967664">
        <ele>1839.075</ele>
        <time>2021-06-18T12:30:03Z</time>
      </trkpt>
      <trkpt lat="42.736654" lon="0.967749">
        <ele>1838.447</ele>
        <time>2021-06-18T12:30:05Z</time>
      </trkpt>
      <trkpt lat="42.736985" lon="0.968003">
        <ele>1838.129</ele>
        <time>2021-06-18T12:30:11Z</time>
      </trkpt>
      <trkpt lat="42.737037" lon="0.968057">
        <ele>1837.621</ele>
        <time>2021-06-18T12:30:12Z</time>
      </trkpt>
      <trkpt lat="42.737295" lon="0.968396">
        <ele>1834.808</ele>
        <time>2021-06-18T12:30:17Z</time>
      </trkpt>
      <trkpt lat="42.737352" lon="0.968475">
        <ele>1834.271</ele>
        <time>2021-06-18T12:30:18Z</time>
      </trkpt>
      <trkpt lat="42.737594" lon="0.968791">
        <ele>1831.380</ele>
        <time>2021-06-18T12:30:22Z</time>
      </trkpt>
      <trkpt lat="42.737725" lon="0.968955">
        <ele>1830.036</ele>
        <time>2021-06-18T12:30:24Z</time>
      </trkpt>
      <trkpt lat="42.737855" lon="0.969134">
        <ele>1828.910</ele>
        <time>2021-06-18T12:30:26Z</time>
      </trkpt>
      <trkpt lat="42.737919" lon="0.969223">
        <ele>1828.694</ele>
        <time>2021-06-18T12:30:27Z</time>
      </trkpt>
      <trkpt lat="42.738039" lon="0.969403">
        <ele>1828.244</ele>
        <time>2021-06-18T12:30:29Z</time>
      </trkpt>
      <trkpt lat="42.738096" lon="0.969492">
        <ele>1827.947</ele>
        <time>2021-06-18T12:30:30Z</time>
      </trkpt>
      <trkpt lat="42.738152" lon="0.969580">
        <ele>1827.494</ele>
        <time>2021-06-18T12:30:31Z</time>
      </trkpt>
      <trkpt lat="42.738262" lon="0.969754">
        <ele>1825.746</ele>
        <time>2021-06-18T12:30:33Z</time>
      </trkpt>
      <trkpt lat="42.738522" lon="0.970095">
        <ele>1823.388</ele>
        <time>2021-06-18T12:30:37Z</time>
      </trkpt>
      <trkpt lat="42.738711" lon="0.970350">
        <ele>1821.416</ele>
        <time>2021-06-18T12:30:40Z</time>
      </trkpt>
      <trkpt lat="42.738769" lon="0.970422">
        <ele>1820.808</ele>
        <time>2021-06-18T12:30:41Z</time>
      </trkpt>
      <trkpt lat="42.738891" lon="0.970551">
        <ele>1820.171</ele>
        <time>2021-06-18T12:30:43Z</time>
      </trkpt>
      <trkpt lat="42.738954" lon="0.970619">
        <ele>1819.370</ele>
        <time>2021-06-18T12:30:44Z</time>
      </trkpt>
      <trkpt lat="42.739073" lon="0.970757">
        <ele>1817.746</ele>
        <time>2021-06-18T12:30:46Z</time>
      </trkpt>
      <trkpt lat="42.739134" lon="0.970810">
        <ele>1817.280</ele>
        <time>2021-06-18T12:30:47Z</time>
      </trkpt>
      <trkpt lat="42.739251" lon="0.970856">
        <ele>1815.894</ele>
        <time>2021-06-18T12:30:49Z</time>
      </trkpt>
      <trkpt lat="42.739365" lon="0.970861">
        <ele>1814.554</ele>
        <time>2021-06-18T12:30:51Z</time>
      </trkpt>
      <trkpt lat="42.739418" lon="0.970869">
        <ele>1813.917</ele>
        <time>2021-06-18T12:30:52Z</time>
      </trkpt>
      <trkpt lat="42.739476" lon="0.970886">
        <ele>1813.974</ele>
        <time>2021-06-18T12:30:53Z</time>
      </trkpt>
      <trkpt lat="42.739533" lon="0.970917">
        <ele>1814.635</ele>
        <time>2021-06-18T12:30:54Z</time>
      </trkpt>
      <trkpt lat="42.739625" lon="0.971039">
        <ele>1815.386</ele>
        <time>2021-06-18T12:30:56Z</time>
      </trkpt>
      <trkpt lat="42.739653" lon="0.971109">
        <ele>1815.514</ele>
        <time>2021-06-18T12:30:57Z</time>
      </trkpt>
      <trkpt lat="42.739673" lon="0.971172">
        <ele>1815.208</ele>
        <time>2021-06-18T12:30:58Z</time>
      </trkpt>
      <trkpt lat="42.739691" lon="0.971224">
        <ele>1815.070</ele>
        <time>2021-06-18T12:30:59Z</time>
      </trkpt>
      <trkpt lat="42.739721" lon="0.971313">
        <ele>1814.819</ele>
        <time>2021-06-18T12:31:01Z</time>
      </trkpt>
      <trkpt lat="42.739782" lon="0.971424">
        <ele>1814.665</ele>
        <time>2021-06-18T12:31:04Z</time>
      </trkpt>
      <trkpt lat="42.739926" lon="0.971563">
        <ele>1815.279</ele>
        <time>2021-06-18T12:31:09Z</time>
      </trkpt>
      <trkpt lat="42.739962" lon="0.971593">
        <ele>1815.463</ele>
        <time>2021-06-18T12:31:10Z</time>
      </trkpt>
      <trkpt lat="42.740113" lon="0.971754">
        <ele>1814.833</ele>
        <time>2021-06-18T12:31:14Z</time>
      </trkpt>
      <trkpt lat="42.740337" lon="0.971984">
        <ele>1814.026</ele>
        <time>2021-06-18T12:31:20Z</time>
      </trkpt>
      <trkpt lat="42.740669" lon="0.972224">
        <ele>1812.823</ele>
        <time>2021-06-18T12:31:27Z</time>
      </trkpt>
      <trkpt lat="42.740726" lon="0.972266">
        <ele>1812.348</ele>
        <time>2021-06-18T12:31:28Z</time>
      </trkpt>
      <trkpt lat="42.740838" lon="0.972382">
        <ele>1810.661</ele>
        <time>2021-06-18T12:31:30Z</time>
      </trkpt>
      <trkpt lat="42.740899" lon="0.972443">
        <ele>1809.917</ele>
        <time>2021-06-18T12:31:31Z</time>
      </trkpt>
      <trkpt lat="42.741157" lon="0.972687">
        <ele>1808.708</ele>
        <time>2021-06-18T12:31:35Z</time>
      </trkpt>
      <trkpt lat="42.741372" lon="0.972859">
        <ele>1807.591</ele>
        <time>2021-06-18T12:31:38Z</time>
      </trkpt>
      <trkpt lat="42.741525" lon="0.972974">
        <ele>1806.830</ele>
        <time>2021-06-18T12:31:40Z</time>
      </trkpt>
      <trkpt lat="42.741674" lon="0.973097">
        <ele>1806.466</ele>
        <time>2021-06-18T12:31:42Z</time>
      </trkpt>
      <trkpt lat="42.741825" lon="0.973214">
        <ele>1805.380</ele>
        <time>2021-06-18T12:31:44Z</time>
      </trkpt>
      <trkpt lat="42.741984" lon="0.973334">
        <ele>1804.364</ele>
        <time>2021-06-18T12:31:46Z</time>
      </trkpt>
      <trkpt lat="42.742225" lon="0.973505">
        <ele>1802.324</ele>
        <time>2021-06-18T12:31:49Z</time>
      </trkpt>
      <trkpt lat="42.742387" lon="0.973605">
        <ele>1800.717</ele>
        <time>2021-06-18T12:31:51Z</time>
      </trkpt>
      <trkpt lat="42.742545" lon="0.973685">
        <ele>1800.014</ele>
        <time>2021-06-18T12:31:53Z</time>
      </trkpt>
      <trkpt lat="42.742692" lon="0.973771">
        <ele>1799.553</ele>
        <time>2021-06-18T12:31:55Z</time>
      </trkpt>
      <trkpt lat="42.742763" lon="0.973822">
        <ele>1799.104</ele>
        <time>2021-06-18T12:31:56Z</time>
      </trkpt>
      <trkpt lat="42.742970" lon="0.974006">
        <ele>1798.014</ele>
        <time>2021-06-18T12:31:59Z</time>
      </trkpt>
      <trkpt lat="42.743039" lon="0.974061">
        <ele>1797.708</ele>
        <time>2021-06-18T12:32:00Z</time>
      </trkpt>
      <trkpt lat="42.743113" lon="0.974112">
        <ele>1797.222</ele>
        <time>2021-06-18T12:32:01Z</time>
      </trkpt>
      <trkpt lat="42.743438" lon="0.974315">
        <ele>1795.481</ele>
        <time>2021-06-18T12:32:05Z</time>
      </trkpt>
      <trkpt lat="42.743598" lon="0.974408">
        <ele>1794.657</ele>
        <time>2021-06-18T12:32:07Z</time>
      </trkpt>
      <trkpt lat="42.743831" lon="0.974521">
        <ele>1794.681</ele>
        <time>2021-06-18T12:32:10Z</time>
      </trkpt>
      <trkpt lat="42.743985" lon="0.974592">
        <ele>1794.315</ele>
        <time>2021-06-18T12:32:12Z</time>
      </trkpt>
      <trkpt lat="42.744353" lon="0.974748">
        <ele>1793.885</ele>
        <time>2021-06-18T12:32:17Z</time>
      </trkpt>
      <trkpt lat="42.744471" lon="0.974801">
        <ele>1793.588</ele>
        <time>2021-06-18T12:32:19Z</time>
      </trkpt>
      <trkpt lat="42.744569" lon="0.974832">
        <ele>1793.415</ele>
        <time>2021-06-18T12:32:21Z</time>
      </trkpt>
      <trkpt lat="42.744641" lon="0.974854">
        <ele>1793.442</ele>
        <time>2021-06-18T12:32:23Z</time>
      </trkpt>
      <trkpt lat="42.744765" lon="0.974875">
        <ele>1793.722</ele>
        <time>2021-06-18T12:32:26Z</time>
      </trkpt>
      <trkpt lat="42.744908" lon="0.974884">
        <ele>1794.114</ele>
        <time>2021-06-18T12:32:29Z</time>
      </trkpt>
      <trkpt lat="42.745015" lon="0.974895">
        <ele>1794.208</ele>
        <time>2021-06-18T12:32:31Z</time>
      </trkpt>
      <trkpt lat="42.745243" lon="0.974898">
        <ele>1793.951</ele>
        <time>2021-06-18T12:32:35Z</time>
      </trkpt>
      <trkpt lat="42.745367" lon="0.974910">
        <ele>1794.430</ele>
        <time>2021-06-18T12:32:37Z</time>
      </trkpt>
      <trkpt lat="42.745465" lon="0.974963">
        <ele>1794.116</ele>
        <time>2021-06-18T12:32:39Z</time>
      </trkpt>
      <trkpt lat="42.745638" lon="0.975017">
        <ele>1793.580</ele>
        <time>2021-06-18T12:32:43Z</time>
      </trkpt>
      <trkpt lat="42.745691" lon="0.975009">
        <ele>1793.484</ele>
        <time>2021-06-18T12:32:44Z</time>
      </trkpt>
      <trkpt lat="42.745798" lon="0.975003">
        <ele>1793.164</ele>
        <time>2021-06-18T12:32:46Z</time>
      </trkpt>
      <trkpt lat="42.745891" lon="0.975024">
        <ele>1793.047</ele>
        <time>2021-06-18T12:32:48Z</time>
      </trkpt>
      <trkpt lat="42.745933" lon="0.975038">
        <ele>1793.044</ele>
        <time>2021-06-18T12:32:49Z</time>
      </trkpt>
      <trkpt lat="42.746124" lon="0.975115">
        <ele>1792.221</ele>
        <time>2021-06-18T12:32:53Z</time>
      </trkpt>
      <trkpt lat="42.746332" lon="0.975203">
        <ele>1790.741</ele>
        <time>2021-06-18T12:32:58Z</time>
      </trkpt>
      <trkpt lat="42.746420" lon="0.975245">
        <ele>1789.505</ele>
        <time>2021-06-18T12:33:00Z</time>
      </trkpt>
      <trkpt lat="42.746595" lon="0.975289">
        <ele>1789.008</ele>
        <time>2021-06-18T12:33:03Z</time>
      </trkpt>
      <trkpt lat="42.746659" lon="0.975316">
        <ele>1788.449</ele>
        <time>2021-06-18T12:33:04Z</time>
      </trkpt>
      <trkpt lat="42.746723" lon="0.975338">
        <ele>1787.778</ele>
        <time>2021-06-18T12:33:05Z</time>
      </trkpt>
      <trkpt lat="42.746818" lon="0.975376">
        <ele>1786.764</ele>
        <time>2021-06-18T12:33:07Z</time>
      </trkpt>
      <trkpt lat="42.746861" lon="0.975385">
        <ele>1786.698</ele>
        <time>2021-06-18T12:33:08Z</time>
      </trkpt>
      <trkpt lat="42.746909" lon="0.975400">
        <ele>1786.342</ele>
        <time>2021-06-18T12:33:09Z</time>
      </trkpt>
      <trkpt lat="42.747018" lon="0.975451">
        <ele>1785.772</ele>
        <time>2021-06-18T12:33:11Z</time>
      </trkpt>
      <trkpt lat="42.747074" lon="0.975493">
        <ele>1785.135</ele>
        <time>2021-06-18T12:33:12Z</time>
      </trkpt>
      <trkpt lat="42.747172" lon="0.975598">
        <ele>1783.242</ele>
        <time>2021-06-18T12:33:14Z</time>
      </trkpt>
      <trkpt lat="42.747227" lon="0.975649">
        <ele>1782.356</ele>
        <time>2021-06-18T12:33:15Z</time>
      </trkpt>
      <trkpt lat="42.747446" lon="0.975700">
        <ele>1780.459</ele>
        <time>2021-06-18T12:33:18Z</time>
      </trkpt>
      <trkpt lat="42.747519" lon="0.975702">
        <ele>1780.214</ele>
        <time>2021-06-18T12:33:19Z</time>
      </trkpt>
      <trkpt lat="42.747772" lon="0.975734">
        <ele>1778.908</ele>
        <time>2021-06-18T12:33:22Z</time>
      </trkpt>
      <trkpt lat="42.747943" lon="0.975772">
        <ele>1777.612</ele>
        <time>2021-06-18T12:33:24Z</time>
      </trkpt>
      <trkpt lat="42.748093" lon="0.975804">
        <ele>1776.311</ele>
        <time>2021-06-18T12:33:26Z</time>
      </trkpt>
      <trkpt lat="42.748171" lon="0.975814">
        <ele>1776.127</ele>
        <time>2021-06-18T12:33:27Z</time>
      </trkpt>
      <trkpt lat="42.748250" lon="0.975823">
        <ele>1776.061</ele>
        <time>2021-06-18T12:33:28Z</time>
      </trkpt>
      <trkpt lat="42.748326" lon="0.975832">
        <ele>1776.075</ele>
        <time>2021-06-18T12:33:29Z</time>
      </trkpt>
      <trkpt lat="42.748469" lon="0.975852">
        <ele>1776.135</ele>
        <time>2021-06-18T12:33:31Z</time>
      </trkpt>
      <trkpt lat="42.748529" lon="0.975875">
        <ele>1775.818</ele>
        <time>2021-06-18T12:33:32Z</time>
      </trkpt>
      <trkpt lat="42.748628" lon="0.975931">
        <ele>1775.185</ele>
        <time>2021-06-18T12:33:34Z</time>
      </trkpt>
      <trkpt lat="42.748719" lon="0.975997">
        <ele>1774.674</ele>
        <time>2021-06-18T12:33:36Z</time>
      </trkpt>
      <trkpt lat="42.748807" lon="0.976033">
        <ele>1774.856</ele>
        <time>2021-06-18T12:33:38Z</time>
      </trkpt>
      <trkpt lat="42.748896" lon="0.976037">
        <ele>1775.621</ele>
        <time>2021-06-18T12:33:40Z</time>
      </trkpt>
      <trkpt lat="42.749046" lon="0.975975">
        <ele>1776.108</ele>
        <time>2021-06-18T12:33:43Z</time>
      </trkpt>
      <trkpt lat="42.749146" lon="0.975958">
        <ele>1776.054</ele>
        <time>2021-06-18T12:33:45Z</time>
      </trkpt>
      <trkpt lat="42.749197" lon="0.975951">
        <ele>1776.113</ele>
        <time>2021-06-18T12:33:46Z</time>
      </trkpt>
      <trkpt lat="42.749473" lon="0.975933">
        <ele>1776.539</ele>
        <time>2021-06-18T12:33:52Z</time>
      </trkpt>
      <trkpt lat="42.749550" lon="0.975912">
        <ele>1776.213</ele>
        <time>2021-06-18T12:33:56Z</time>
      </trkpt>
      <trkpt lat="42.749550" lon="0.975911">
        <ele>1776.297</ele>
        <time>2021-06-18T12:33:57Z</time>
      </trkpt>
      <trkpt lat="42.749585" lon="0.975914">
        <ele>1775.757</ele>
        <time>2021-06-18T12:34:15Z</time>
      </trkpt>
      <trkpt lat="42.749632" lon="0.975895">
        <ele>1775.660</ele>
        <time>2021-06-18T12:34:17Z</time>
      </trkpt>
      <trkpt lat="42.749782" lon="0.975737">
        <ele>1776.867</ele>
        <time>2021-06-18T12:34:22Z</time>
      </trkpt>
      <trkpt lat="42.749815" lon="0.975700">
        <ele>1776.774</ele>
        <time>2021-06-18T12:34:23Z</time>
      </trkpt>
      <trkpt lat="42.749912" lon="0.975581">
        <ele>1776.356</ele>
        <time>2021-06-18T12:34:26Z</time>
      </trkpt>
      <trkpt lat="42.749949" lon="0.975550">
        <ele>1775.821</ele>
        <time>2021-06-18T12:34:27Z</time>
      </trkpt>
      <trkpt lat="42.750092" lon="0.975521">
        <ele>1775.008</ele>
        <time>2021-06-18T12:34:30Z</time>
      </trkpt>
      <trkpt lat="42.750198" lon="0.975648">
        <ele>1773.894</ele>
        <time>2021-06-18T12:34:33Z</time>
      </trkpt>
      <trkpt lat="42.750221" lon="0.975879">
        <ele>1771.843</ele>
        <time>2021-06-18T12:34:36Z</time>
      </trkpt>
      <trkpt lat="42.750232" lon="0.975955">
        <ele>1771.329</ele>
        <time>2021-06-18T12:34:37Z</time>
      </trkpt>
      <trkpt lat="42.750278" lon="0.976134">
        <ele>1770.813</ele>
        <time>2021-06-18T12:34:40Z</time>
      </trkpt>
      <trkpt lat="42.750310" lon="0.976290">
        <ele>1769.767</ele>
        <time>2021-06-18T12:34:43Z</time>
      </trkpt>
      <trkpt lat="42.750319" lon="0.976347">
        <ele>1769.317</ele>
        <time>2021-06-18T12:34:44Z</time>
      </trkpt>
      <trkpt lat="42.750320" lon="0.976414">
        <ele>1768.870</ele>
        <time>2021-06-18T12:34:45Z</time>
      </trkpt>
      <trkpt lat="42.750316" lon="0.976845">
        <ele>1765.117</ele>
        <time>2021-06-18T12:34:51Z</time>
      </trkpt>
      <trkpt lat="42.750308" lon="0.977060">
        <ele>1762.832</ele>
        <time>2021-06-18T12:34:54Z</time>
      </trkpt>
      <trkpt lat="42.750304" lon="0.977135">
        <ele>1761.992</ele>
        <time>2021-06-18T12:34:55Z</time>
      </trkpt>
      <trkpt lat="42.750291" lon="0.977300">
        <ele>1760.211</ele>
        <time>2021-06-18T12:34:57Z</time>
      </trkpt>
      <trkpt lat="42.750273" lon="0.977481">
        <ele>1758.208</ele>
        <time>2021-06-18T12:34:59Z</time>
      </trkpt>
      <trkpt lat="42.750259" lon="0.977575">
        <ele>1757.460</ele>
        <time>2021-06-18T12:35:00Z</time>
      </trkpt>
      <trkpt lat="42.750243" lon="0.977670">
        <ele>1756.779</ele>
        <time>2021-06-18T12:35:01Z</time>
      </trkpt>
      <trkpt lat="42.750209" lon="0.977864">
        <ele>1755.145</ele>
        <time>2021-06-18T12:35:03Z</time>
      </trkpt>
      <trkpt lat="42.750188" lon="0.978061">
        <ele>1753.759</ele>
        <time>2021-06-18T12:35:05Z</time>
      </trkpt>
      <trkpt lat="42.750201" lon="0.978228">
        <ele>1752.913</ele>
        <time>2021-06-18T12:35:07Z</time>
      </trkpt>
      <trkpt lat="42.750226" lon="0.978339">
        <ele>1752.683</ele>
        <time>2021-06-18T12:35:09Z</time>
      </trkpt>
      <trkpt lat="42.750234" lon="0.978390">
        <ele>1752.436</ele>
        <time>2021-06-18T12:35:10Z</time>
      </trkpt>
      <trkpt lat="42.750244" lon="0.978438">
        <ele>1752.353</ele>
        <time>2021-06-18T12:35:11Z</time>
      </trkpt>
      <trkpt lat="42.750289" lon="0.978534">
        <ele>1752.382</ele>
        <time>2021-06-18T12:35:14Z</time>
      </trkpt>
      <trkpt lat="42.750303" lon="0.978564">
        <ele>1752.243</ele>
        <time>2021-06-18T12:35:15Z</time>
      </trkpt>
      <trkpt lat="42.750381" lon="0.978792">
        <ele>1752.217</ele>
        <time>2021-06-18T12:35:22Z</time>
      </trkpt>
      <trkpt lat="42.750480" lon="0.979064">
        <ele>1750.308</ele>
        <time>2021-06-18T12:35:27Z</time>
      </trkpt>
      <trkpt lat="42.750574" lon="0.979356">
        <ele>1746.825</ele>
        <time>2021-06-18T12:35:31Z</time>
      </trkpt>
      <trkpt lat="42.750599" lon="0.979420">
        <ele>1746.024</ele>
        <time>2021-06-18T12:35:32Z</time>
      </trkpt>
      <trkpt lat="42.750629" lon="0.979479">
        <ele>1745.180</ele>
        <time>2021-06-18T12:35:33Z</time>
      </trkpt>
      <trkpt lat="42.750690" lon="0.979576">
        <ele>1743.844</ele>
        <time>2021-06-18T12:35:35Z</time>
      </trkpt>
      <trkpt lat="42.750753" lon="0.979651">
        <ele>1742.948</ele>
        <time>2021-06-18T12:35:37Z</time>
      </trkpt>
      <trkpt lat="42.750784" lon="0.979691">
        <ele>1742.418</ele>
        <time>2021-06-18T12:35:38Z</time>
      </trkpt>
      <trkpt lat="42.750813" lon="0.979733">
        <ele>1742.061</ele>
        <time>2021-06-18T12:35:39Z</time>
      </trkpt>
      <trkpt lat="42.750908" lon="0.979855">
        <ele>1740.858</ele>
        <time>2021-06-18T12:35:42Z</time>
      </trkpt>
      <trkpt lat="42.750990" lon="0.979983">
        <ele>1739.678</ele>
        <time>2021-06-18T12:35:45Z</time>
      </trkpt>
      <trkpt lat="42.751015" lon="0.980041">
        <ele>1739.233</ele>
        <time>2021-06-18T12:35:46Z</time>
      </trkpt>
      <trkpt lat="42.751037" lon="0.980106">
        <ele>1739.126</ele>
        <time>2021-06-18T12:35:47Z</time>
      </trkpt>
      <trkpt lat="42.751073" lon="0.980226">
        <ele>1739.408</ele>
        <time>2021-06-18T12:35:49Z</time>
      </trkpt>
      <trkpt lat="42.751103" lon="0.980292">
        <ele>1739.934</ele>
        <time>2021-06-18T12:35:52Z</time>
      </trkpt>
      <trkpt lat="42.751109" lon="0.980303">
        <ele>1740.143</ele>
        <time>2021-06-18T12:35:54Z</time>
      </trkpt>
      <trkpt lat="42.751107" lon="0.980326">
        <ele>1740.159</ele>
        <time>2021-06-18T12:35:56Z</time>
      </trkpt>
      <trkpt lat="42.751097" lon="0.980361">
        <ele>1740.023</ele>
        <time>2021-06-18T12:35:59Z</time>
      </trkpt>
      <trkpt lat="42.751100" lon="0.980391">
        <ele>1740.237</ele>
        <time>2021-06-18T12:36:01Z</time>
      </trkpt>
      <trkpt lat="42.751115" lon="0.980494">
        <ele>1740.897</ele>
        <time>2021-06-18T12:36:06Z</time>
      </trkpt>
      <trkpt lat="42.751141" lon="0.980672">
        <ele>1741.310</ele>
        <time>2021-06-18T12:36:12Z</time>
      </trkpt>
      <trkpt lat="42.751251" lon="0.980844">
        <ele>1741.547</ele>
        <time>2021-06-18T12:36:19Z</time>
      </trkpt>
      <trkpt lat="42.751425" lon="0.980971">
        <ele>1741.438</ele>
        <time>2021-06-18T12:36:25Z</time>
      </trkpt>
      <trkpt lat="42.751626" lon="0.981208">
        <ele>1739.670</ele>
        <time>2021-06-18T12:36:31Z</time>
      </trkpt>
      <trkpt lat="42.751695" lon="0.981327">
        <ele>1738.417</ele>
        <time>2021-06-18T12:36:33Z</time>
      </trkpt>
      <trkpt lat="42.751783" lon="0.981526">
        <ele>1737.108</ele>
        <time>2021-06-18T12:36:36Z</time>
      </trkpt>
      <trkpt lat="42.751843" lon="0.981644">
        <ele>1735.970</ele>
        <time>2021-06-18T12:36:38Z</time>
      </trkpt>
      <trkpt lat="42.751949" lon="0.981825">
        <ele>1733.969</ele>
        <time>2021-06-18T12:36:41Z</time>
      </trkpt>
      <trkpt lat="42.751987" lon="0.981890">
        <ele>1733.385</ele>
        <time>2021-06-18T12:36:42Z</time>
      </trkpt>
      <trkpt lat="42.752056" lon="0.982012">
        <ele>1732.369</ele>
        <time>2021-06-18T12:36:44Z</time>
      </trkpt>
      <trkpt lat="42.752118" lon="0.982119">
        <ele>1731.453</ele>
        <time>2021-06-18T12:36:46Z</time>
      </trkpt>
      <trkpt lat="42.752151" lon="0.982166">
        <ele>1730.943</ele>
        <time>2021-06-18T12:36:47Z</time>
      </trkpt>
      <trkpt lat="42.752252" lon="0.982257">
        <ele>1729.166</ele>
        <time>2021-06-18T12:36:50Z</time>
      </trkpt>
      <trkpt lat="42.752288" lon="0.982256">
        <ele>1728.273</ele>
        <time>2021-06-18T12:36:51Z</time>
      </trkpt>
      <trkpt lat="42.752418" lon="0.982156">
        <ele>1725.931</ele>
        <time>2021-06-18T12:36:55Z</time>
      </trkpt>
      <trkpt lat="42.752463" lon="0.982093">
        <ele>1725.761</ele>
        <time>2021-06-18T12:36:57Z</time>
      </trkpt>
      <trkpt lat="42.752521" lon="0.982022">
        <ele>1725.007</ele>
        <time>2021-06-18T12:37:00Z</time>
      </trkpt>
      <trkpt lat="42.752538" lon="0.982000">
        <ele>1724.608</ele>
        <time>2021-06-18T12:37:01Z</time>
      </trkpt>
      <trkpt lat="42.752583" lon="0.981945">
        <ele>1723.740</ele>
        <time>2021-06-18T12:37:03Z</time>
      </trkpt>
      <trkpt lat="42.752677" lon="0.981851">
        <ele>1721.759</ele>
        <time>2021-06-18T12:37:06Z</time>
      </trkpt>
      <trkpt lat="42.752714" lon="0.981815">
        <ele>1720.955</ele>
        <time>2021-06-18T12:37:07Z</time>
      </trkpt>
      <trkpt lat="42.752876" lon="0.981635">
        <ele>1717.649</ele>
        <time>2021-06-18T12:37:11Z</time>
      </trkpt>
      <trkpt lat="42.752915" lon="0.981584">
        <ele>1716.823</ele>
        <time>2021-06-18T12:37:12Z</time>
      </trkpt>
      <trkpt lat="42.752990" lon="0.981479">
        <ele>1715.353</ele>
        <time>2021-06-18T12:37:14Z</time>
      </trkpt>
      <trkpt lat="42.753031" lon="0.981432">
        <ele>1714.476</ele>
        <time>2021-06-18T12:37:15Z</time>
      </trkpt>
      <trkpt lat="42.753074" lon="0.981391">
        <ele>1713.683</ele>
        <time>2021-06-18T12:37:16Z</time>
      </trkpt>
      <trkpt lat="42.753120" lon="0.981359">
        <ele>1713.344</ele>
        <time>2021-06-18T12:37:17Z</time>
      </trkpt>
      <trkpt lat="42.753210" lon="0.981300">
        <ele>1712.105</ele>
        <time>2021-06-18T12:37:19Z</time>
      </trkpt>
      <trkpt lat="42.753285" lon="0.981263">
        <ele>1710.615</ele>
        <time>2021-06-18T12:37:21Z</time>
      </trkpt>
      <trkpt lat="42.753314" lon="0.981240">
        <ele>1710.008</ele>
        <time>2021-06-18T12:37:22Z</time>
      </trkpt>
      <trkpt lat="42.753340" lon="0.981210">
        <ele>1709.531</ele>
        <time>2021-06-18T12:37:23Z</time>
      </trkpt>
      <trkpt lat="42.753393" lon="0.981174">
        <ele>1708.980</ele>
        <time>2021-06-18T12:37:25Z</time>
      </trkpt>
      <trkpt lat="42.753429" lon="0.981178">
        <ele>1708.476</ele>
        <time>2021-06-18T12:37:27Z</time>
      </trkpt>
      <trkpt lat="42.753445" lon="0.981178">
        <ele>1708.230</ele>
        <time>2021-06-18T12:37:29Z</time>
      </trkpt>
      <trkpt lat="42.753446" lon="0.981178">
        <ele>1708.154</ele>
        <time>2021-06-18T12:37:30Z</time>
      </trkpt>
      <trkpt lat="42.753475" lon="0.981209">
        <ele>1707.644</ele>
        <time>2021-06-18T12:39:31Z</time>
      </trkpt>
      <trkpt lat="42.753505" lon="0.981376">
        <ele>1706.647</ele>
        <time>2021-06-18T12:39:35Z</time>
      </trkpt>
      <trkpt lat="42.753550" lon="0.981597">
        <ele>1704.684</ele>
        <time>2021-06-18T12:39:40Z</time>
      </trkpt>
      <trkpt lat="42.753567" lon="0.981682">
        <ele>1704.576</ele>
        <time>2021-06-18T12:39:42Z</time>
      </trkpt>
      <trkpt lat="42.753570" lon="0.981765">
        <ele>1706.390</ele>
        <time>2021-06-18T12:39:44Z</time>
      </trkpt>
      <trkpt lat="42.753560" lon="0.981802">
        <ele>1707.119</ele>
        <time>2021-06-18T12:39:45Z</time>
      </trkpt>
      <trkpt lat="42.753545" lon="0.981831">
        <ele>1707.508</ele>
        <time>2021-06-18T12:39:46Z</time>
      </trkpt>
      <trkpt lat="42.753469" lon="0.981905">
        <ele>1707.984</ele>
        <time>2021-06-18T12:39:51Z</time>
      </trkpt>
      <trkpt lat="42.753440" lon="0.981919">
        <ele>1707.623</ele>
        <time>2021-06-18T12:39:53Z</time>
      </trkpt>
      <trkpt lat="42.753355" lon="0.981992">
        <ele>1707.329</ele>
        <time>2021-06-18T12:39:59Z</time>
      </trkpt>
      <trkpt lat="42.753341" lon="0.982008">
        <ele>1707.313</ele>
        <time>2021-06-18T12:40:00Z</time>
      </trkpt>
      <trkpt lat="42.753310" lon="0.982078">
        <ele>1707.917</ele>
        <time>2021-06-18T12:40:03Z</time>
      </trkpt>
      <trkpt lat="42.753289" lon="0.982135">
        <ele>1708.287</ele>
        <time>2021-06-18T12:40:05Z</time>
      </trkpt>
      <trkpt lat="42.753207" lon="0.982351">
        <ele>1707.640</ele>
        <time>2021-06-18T12:40:11Z</time>
      </trkpt>
      <trkpt lat="42.753173" lon="0.982507">
        <ele>1707.737</ele>
        <time>2021-06-18T12:40:15Z</time>
      </trkpt>
      <trkpt lat="42.753184" lon="0.982542">
        <ele>1707.453</ele>
        <time>2021-06-18T12:40:16Z</time>
      </trkpt>
      <trkpt lat="42.753238" lon="0.982657">
        <ele>1707.104</ele>
        <time>2021-06-18T12:40:20Z</time>
      </trkpt>
      <trkpt lat="42.753334" lon="0.982738">
        <ele>1708.714</ele>
        <time>2021-06-18T12:40:26Z</time>
      </trkpt>
      <trkpt lat="42.753404" lon="0.982799">
        <ele>1710.008</ele>
        <time>2021-06-18T12:40:31Z</time>
      </trkpt>
      <trkpt lat="42.753459" lon="0.982856">
        <ele>1710.722</ele>
        <time>2021-06-18T12:40:35Z</time>
      </trkpt>
      <trkpt lat="42.753530" lon="0.982927">
        <ele>1711.971</ele>
        <time>2021-06-18T12:40:40Z</time>
      </trkpt>
      <trkpt lat="42.753567" lon="0.982978">
        <ele>1712.527</ele>
        <time>2021-06-18T12:40:43Z</time>
      </trkpt>
      <trkpt lat="42.753685" lon="0.983163">
        <ele>1713.441</ele>
        <time>2021-06-18T12:40:53Z</time>
      </trkpt>
      <trkpt lat="42.753720" lon="0.983226">
        <ele>1713.635</ele>
        <time>2021-06-18T12:40:56Z</time>
      </trkpt>
      <trkpt lat="42.753790" lon="0.983357">
        <ele>1714.575</ele>
        <time>2021-06-18T12:41:02Z</time>
      </trkpt>
      <trkpt lat="42.753825" lon="0.983480">
        <ele>1715.258</ele>
        <time>2021-06-18T12:41:06Z</time>
      </trkpt>
      <trkpt lat="42.753839" lon="0.983583">
        <ele>1715.315</ele>
        <time>2021-06-18T12:41:09Z</time>
      </trkpt>
      <trkpt lat="42.753878" lon="0.983821">
        <ele>1714.356</ele>
        <time>2021-06-18T12:41:16Z</time>
      </trkpt>
      <trkpt lat="42.753982" lon="0.984071">
        <ele>1714.059</ele>
        <time>2021-06-18T12:41:23Z</time>
      </trkpt>
      <trkpt lat="42.754015" lon="0.984145">
        <ele>1713.914</ele>
        <time>2021-06-18T12:41:25Z</time>
      </trkpt>
      <trkpt lat="42.754095" lon="0.984286">
        <ele>1715.608</ele>
        <time>2021-06-18T12:41:29Z</time>
      </trkpt>
      <trkpt lat="42.754186" lon="0.984574">
        <ele>1716.442</ele>
        <time>2021-06-18T12:41:36Z</time>
      </trkpt>
      <trkpt lat="42.754267" lon="0.984904">
        <ele>1717.421</ele>
        <time>2021-06-18T12:41:44Z</time>
      </trkpt>
      <trkpt lat="42.754332" lon="0.985095">
        <ele>1718.237</ele>
        <time>2021-06-18T12:41:49Z</time>
      </trkpt>
      <trkpt lat="42.754380" lon="0.985219">
        <ele>1718.341</ele>
        <time>2021-06-18T12:41:52Z</time>
      </trkpt>
      <trkpt lat="42.754442" lon="0.985394">
        <ele>1719.125</ele>
        <time>2021-06-18T12:41:56Z</time>
      </trkpt>
      <trkpt lat="42.754484" lon="0.985572">
        <ele>1719.235</ele>
        <time>2021-06-18T12:42:00Z</time>
      </trkpt>
      <trkpt lat="42.754556" lon="0.985806">
        <ele>1719.378</ele>
        <time>2021-06-18T12:42:06Z</time>
      </trkpt>
      <trkpt lat="42.754572" lon="0.985845">
        <ele>1719.465</ele>
        <time>2021-06-18T12:42:07Z</time>
      </trkpt>
      <trkpt lat="42.754697" lon="0.986083">
        <ele>1719.642</ele>
        <time>2021-06-18T12:42:14Z</time>
      </trkpt>
      <trkpt lat="42.754859" lon="0.986255">
        <ele>1719.622</ele>
        <time>2021-06-18T12:42:21Z</time>
      </trkpt>
      <trkpt lat="42.755093" lon="0.986434">
        <ele>1718.814</ele>
        <time>2021-06-18T12:42:28Z</time>
      </trkpt>
      <trkpt lat="42.755251" lon="0.986556">
        <ele>1718.008</ele>
        <time>2021-06-18T12:42:32Z</time>
      </trkpt>
      <trkpt lat="42.755294" lon="0.986573">
        <ele>1717.561</ele>
        <time>2021-06-18T12:42:33Z</time>
      </trkpt>
      <trkpt lat="42.755333" lon="0.986574">
        <ele>1716.380</ele>
        <time>2021-06-18T12:42:34Z</time>
      </trkpt>
      <trkpt lat="42.755437" lon="0.986512">
        <ele>1714.146</ele>
        <time>2021-06-18T12:42:37Z</time>
      </trkpt>
      <trkpt lat="42.755470" lon="0.986479">
        <ele>1713.620</ele>
        <time>2021-06-18T12:42:38Z</time>
      </trkpt>
      <trkpt lat="42.755571" lon="0.986368">
        <ele>1712.394</ele>
        <time>2021-06-18T12:42:41Z</time>
      </trkpt>
      <trkpt lat="42.755619" lon="0.986344">
        <ele>1711.844</ele>
        <time>2021-06-18T12:42:42Z</time>
      </trkpt>
      <trkpt lat="42.755669" lon="0.986325">
        <ele>1710.947</ele>
        <time>2021-06-18T12:42:43Z</time>
      </trkpt>
      <trkpt lat="42.755826" lon="0.986269">
        <ele>1708.164</ele>
        <time>2021-06-18T12:42:46Z</time>
      </trkpt>
      <trkpt lat="42.755880" lon="0.986249">
        <ele>1707.552</ele>
        <time>2021-06-18T12:42:47Z</time>
      </trkpt>
      <trkpt lat="42.755991" lon="0.986208">
        <ele>1706.553</ele>
        <time>2021-06-18T12:42:49Z</time>
      </trkpt>
      <trkpt lat="42.756043" lon="0.986190">
        <ele>1705.908</ele>
        <time>2021-06-18T12:42:50Z</time>
      </trkpt>
      <trkpt lat="42.756141" lon="0.986166">
        <ele>1704.908</ele>
        <time>2021-06-18T12:42:52Z</time>
      </trkpt>
      <trkpt lat="42.756222" lon="0.986140">
        <ele>1704.972</ele>
        <time>2021-06-18T12:42:54Z</time>
      </trkpt>
      <trkpt lat="42.756287" lon="0.986123">
        <ele>1704.731</ele>
        <time>2021-06-18T12:42:56Z</time>
      </trkpt>
      <trkpt lat="42.756352" lon="0.986115">
        <ele>1704.357</ele>
        <time>2021-06-18T12:42:58Z</time>
      </trkpt>
      <trkpt lat="42.756381" lon="0.986119">
        <ele>1703.881</ele>
        <time>2021-06-18T12:42:59Z</time>
      </trkpt>
      <trkpt lat="42.756481" lon="0.986128">
        <ele>1702.475</ele>
        <time>2021-06-18T12:43:02Z</time>
      </trkpt>
      <trkpt lat="42.756547" lon="0.986117">
        <ele>1702.195</ele>
        <time>2021-06-18T12:43:04Z</time>
      </trkpt>
      <trkpt lat="42.756689" lon="0.986061">
        <ele>1702.268</ele>
        <time>2021-06-18T12:43:09Z</time>
      </trkpt>
      <trkpt lat="42.756825" lon="0.986048">
        <ele>1701.295</ele>
        <time>2021-06-18T12:43:12Z</time>
      </trkpt>
      <trkpt lat="42.756881" lon="0.986061">
        <ele>1700.393</ele>
        <time>2021-06-18T12:43:13Z</time>
      </trkpt>
      <trkpt lat="42.757017" lon="0.986158">
        <ele>1696.265</ele>
        <time>2021-06-18T12:43:16Z</time>
      </trkpt>
      <trkpt lat="42.757061" lon="0.986184">
        <ele>1695.321</ele>
        <time>2021-06-18T12:43:17Z</time>
      </trkpt>
      <trkpt lat="42.757107" lon="0.986207">
        <ele>1694.708</ele>
        <time>2021-06-18T12:43:18Z</time>
      </trkpt>
      <trkpt lat="42.757207" lon="0.986251">
        <ele>1693.956</ele>
        <time>2021-06-18T12:43:20Z</time>
      </trkpt>
      <trkpt lat="42.757315" lon="0.986263">
        <ele>1692.545</ele>
        <time>2021-06-18T12:43:22Z</time>
      </trkpt>
      <trkpt lat="42.757433" lon="0.986261">
        <ele>1691.121</ele>
        <time>2021-06-18T12:43:24Z</time>
      </trkpt>
      <trkpt lat="42.757548" lon="0.986275">
        <ele>1690.135</ele>
        <time>2021-06-18T12:43:26Z</time>
      </trkpt>
      <trkpt lat="42.757602" lon="0.986296">
        <ele>1689.899</ele>
        <time>2021-06-18T12:43:27Z</time>
      </trkpt>
      <trkpt lat="42.757689" lon="0.986366">
        <ele>1688.889</ele>
        <time>2021-06-18T12:43:29Z</time>
      </trkpt>
      <trkpt lat="42.757720" lon="0.986405">
        <ele>1688.342</ele>
        <time>2021-06-18T12:43:30Z</time>
      </trkpt>
      <trkpt lat="42.757771" lon="0.986495">
        <ele>1687.019</ele>
        <time>2021-06-18T12:43:32Z</time>
      </trkpt>
      <trkpt lat="42.757799" lon="0.986555">
        <ele>1686.572</ele>
        <time>2021-06-18T12:43:33Z</time>
      </trkpt>
      <trkpt lat="42.757829" lon="0.986622">
        <ele>1685.913</ele>
        <time>2021-06-18T12:43:34Z</time>
      </trkpt>
      <trkpt lat="42.757860" lon="0.986692">
        <ele>1685.314</ele>
        <time>2021-06-18T12:43:35Z</time>
      </trkpt>
      <trkpt lat="42.757913" lon="0.986833">
        <ele>1683.908</ele>
        <time>2021-06-18T12:43:37Z</time>
      </trkpt>
      <trkpt lat="42.757948" lon="0.986982">
        <ele>1682.254</ele>
        <time>2021-06-18T12:43:39Z</time>
      </trkpt>
      <trkpt lat="42.757968" lon="0.987052">
        <ele>1681.463</ele>
        <time>2021-06-18T12:43:40Z</time>
      </trkpt>
      <trkpt lat="42.758007" lon="0.987194">
        <ele>1680.099</ele>
        <time>2021-06-18T12:43:42Z</time>
      </trkpt>
      <trkpt lat="42.758048" lon="0.987336">
        <ele>1678.743</ele>
        <time>2021-06-18T12:43:44Z</time>
      </trkpt>
      <trkpt lat="42.758062" lon="0.987406">
        <ele>1677.987</ele>
        <time>2021-06-18T12:43:45Z</time>
      </trkpt>
      <trkpt lat="42.758074" lon="0.987476">
        <ele>1677.257</ele>
        <time>2021-06-18T12:43:46Z</time>
      </trkpt>
      <trkpt lat="42.758096" lon="0.987654">
        <ele>1675.560</ele>
        <time>2021-06-18T12:43:49Z</time>
      </trkpt>
      <trkpt lat="42.758107" lon="0.987716">
        <ele>1675.197</ele>
        <time>2021-06-18T12:43:50Z</time>
      </trkpt>
      <trkpt lat="42.758117" lon="0.987782">
        <ele>1674.657</ele>
        <time>2021-06-18T12:43:51Z</time>
      </trkpt>
      <trkpt lat="42.758148" lon="0.987914">
        <ele>1674.200</ele>
        <time>2021-06-18T12:43:53Z</time>
      </trkpt>
      <trkpt lat="42.758162" lon="0.987979">
        <ele>1673.920</ele>
        <time>2021-06-18T12:43:54Z</time>
      </trkpt>
      <trkpt lat="42.758206" lon="0.988178">
        <ele>1672.608</ele>
        <time>2021-06-18T12:43:57Z</time>
      </trkpt>
      <trkpt lat="42.758220" lon="0.988235">
        <ele>1672.242</ele>
        <time>2021-06-18T12:43:58Z</time>
      </trkpt>
      <trkpt lat="42.758243" lon="0.988373">
        <ele>1671.171</ele>
        <time>2021-06-18T12:44:00Z</time>
      </trkpt>
      <trkpt lat="42.758248" lon="0.988442">
        <ele>1670.617</ele>
        <time>2021-06-18T12:44:01Z</time>
      </trkpt>
      <trkpt lat="42.758236" lon="0.988514">
        <ele>1669.711</ele>
        <time>2021-06-18T12:44:02Z</time>
      </trkpt>
      <trkpt lat="42.758208" lon="0.988576">
        <ele>1668.685</ele>
        <time>2021-06-18T12:44:03Z</time>
      </trkpt>
      <trkpt lat="42.758146" lon="0.988688">
        <ele>1666.645</ele>
        <time>2021-06-18T12:44:05Z</time>
      </trkpt>
      <trkpt lat="42.758135" lon="0.988755">
        <ele>1666.068</ele>
        <time>2021-06-18T12:44:06Z</time>
      </trkpt>
      <trkpt lat="42.758138" lon="0.988833">
        <ele>1665.775</ele>
        <time>2021-06-18T12:44:07Z</time>
      </trkpt>
      <trkpt lat="42.758169" lon="0.988987">
        <ele>1665.526</ele>
        <time>2021-06-18T12:44:09Z</time>
      </trkpt>
      <trkpt lat="42.758189" lon="0.989059">
        <ele>1665.547</ele>
        <time>2021-06-18T12:44:10Z</time>
      </trkpt>
      <trkpt lat="42.758225" lon="0.989191">
        <ele>1665.311</ele>
        <time>2021-06-18T12:44:12Z</time>
      </trkpt>
      <trkpt lat="42.758240" lon="0.989258">
        <ele>1665.008</ele>
        <time>2021-06-18T12:44:13Z</time>
      </trkpt>
      <trkpt lat="42.758269" lon="0.989395">
        <ele>1664.489</ele>
        <time>2021-06-18T12:44:15Z</time>
      </trkpt>
      <trkpt lat="42.758311" lon="0.989528">
        <ele>1664.488</ele>
        <time>2021-06-18T12:44:17Z</time>
      </trkpt>
      <trkpt lat="42.758358" lon="0.989646">
        <ele>1664.644</ele>
        <time>2021-06-18T12:44:19Z</time>
      </trkpt>
      <trkpt lat="42.758370" lon="0.989698">
        <ele>1664.528</ele>
        <time>2021-06-18T12:44:20Z</time>
      </trkpt>
      <trkpt lat="42.758392" lon="0.989925">
        <ele>1663.962</ele>
        <time>2021-06-18T12:44:24Z</time>
      </trkpt>
      <trkpt lat="42.758400" lon="0.989982">
        <ele>1663.832</ele>
        <time>2021-06-18T12:44:25Z</time>
      </trkpt>
      <trkpt lat="42.758496" lon="0.990377">
        <ele>1662.515</ele>
        <time>2021-06-18T12:44:32Z</time>
      </trkpt>
      <trkpt lat="42.758498" lon="0.990431">
        <ele>1661.942</ele>
        <time>2021-06-18T12:44:33Z</time>
      </trkpt>
      <trkpt lat="42.758495" lon="0.990491">
        <ele>1661.132</ele>
        <time>2021-06-18T12:44:34Z</time>
      </trkpt>
      <trkpt lat="42.758484" lon="0.990648">
        <ele>1659.392</ele>
        <time>2021-06-18T12:44:36Z</time>
      </trkpt>
      <trkpt lat="42.758455" lon="0.991044">
        <ele>1656.711</ele>
        <time>2021-06-18T12:44:40Z</time>
      </trkpt>
      <trkpt lat="42.758456" lon="0.991109">
        <ele>1656.408</ele>
        <time>2021-06-18T12:44:41Z</time>
      </trkpt>
      <trkpt lat="42.758458" lon="0.991165">
        <ele>1656.460</ele>
        <time>2021-06-18T12:44:42Z</time>
      </trkpt>
      <trkpt lat="42.758460" lon="0.991220">
        <ele>1656.479</ele>
        <time>2021-06-18T12:44:43Z</time>
      </trkpt>
      <trkpt lat="42.758461" lon="0.991277">
        <ele>1656.485</ele>
        <time>2021-06-18T12:44:44Z</time>
      </trkpt>
      <trkpt lat="42.758463" lon="0.991331">
        <ele>1656.479</ele>
        <time>2021-06-18T12:44:45Z</time>
      </trkpt>
      <trkpt lat="42.758468" lon="0.991378">
        <ele>1656.553</ele>
        <time>2021-06-18T12:44:46Z</time>
      </trkpt>
      <trkpt lat="42.758503" lon="0.991596">
        <ele>1655.393</ele>
        <time>2021-06-18T12:44:50Z</time>
      </trkpt>
      <trkpt lat="42.758546" lon="0.991875">
        <ele>1653.826</ele>
        <time>2021-06-18T12:44:54Z</time>
      </trkpt>
      <trkpt lat="42.758580" lon="0.992035">
        <ele>1652.793</ele>
        <time>2021-06-18T12:44:56Z</time>
      </trkpt>
      <trkpt lat="42.758692" lon="0.992396">
        <ele>1650.499</ele>
        <time>2021-06-18T12:45:00Z</time>
      </trkpt>
      <trkpt lat="42.758718" lon="0.992491">
        <ele>1649.807</ele>
        <time>2021-06-18T12:45:01Z</time>
      </trkpt>
      <trkpt lat="42.758769" lon="0.992672">
        <ele>1649.527</ele>
        <time>2021-06-18T12:45:03Z</time>
      </trkpt>
      <trkpt lat="42.758813" lon="0.992810">
        <ele>1649.508</ele>
        <time>2021-06-18T12:45:05Z</time>
      </trkpt>
      <trkpt lat="42.758832" lon="0.992866">
        <ele>1649.616</ele>
        <time>2021-06-18T12:45:06Z</time>
      </trkpt>
      <trkpt lat="42.758847" lon="0.992912">
        <ele>1649.735</ele>
        <time>2021-06-18T12:45:07Z</time>
      </trkpt>
      <trkpt lat="42.758879" lon="0.993028">
        <ele>1649.991</ele>
        <time>2021-06-18T12:45:10Z</time>
      </trkpt>
      <trkpt lat="42.758957" lon="0.993253">
        <ele>1650.935</ele>
        <time>2021-06-18T12:45:18Z</time>
      </trkpt>
      <trkpt lat="42.758977" lon="0.993302">
        <ele>1651.349</ele>
        <time>2021-06-18T12:45:20Z</time>
      </trkpt>
      <trkpt lat="42.759041" lon="0.993458">
        <ele>1652.649</ele>
        <time>2021-06-18T12:45:28Z</time>
      </trkpt>
      <trkpt lat="42.759050" lon="0.993472">
        <ele>1652.812</ele>
        <time>2021-06-18T12:45:29Z</time>
      </trkpt>
      <trkpt lat="42.759081" lon="0.993537">
        <ele>1653.319</ele>
        <time>2021-06-18T12:45:32Z</time>
      </trkpt>
      <trkpt lat="42.759107" lon="0.993617">
        <ele>1653.742</ele>
        <time>2021-06-18T12:45:35Z</time>
      </trkpt>
      <trkpt lat="42.759110" lon="0.993683">
        <ele>1653.422</ele>
        <time>2021-06-18T12:45:38Z</time>
      </trkpt>
      <trkpt lat="42.759094" lon="0.993737">
        <ele>1652.814</ele>
        <time>2021-06-18T12:45:40Z</time>
      </trkpt>
      <trkpt lat="42.759082" lon="0.993768">
        <ele>1652.408</ele>
        <time>2021-06-18T12:45:41Z</time>
      </trkpt>
      <trkpt lat="42.758990" lon="0.994078">
        <ele>1648.861</ele>
        <time>2021-06-18T12:45:48Z</time>
      </trkpt>
      <trkpt lat="42.758973" lon="0.994177">
        <ele>1647.880</ele>
        <time>2021-06-18T12:45:50Z</time>
      </trkpt>
      <trkpt lat="42.758970" lon="0.994237">
        <ele>1647.556</ele>
        <time>2021-06-18T12:45:51Z</time>
      </trkpt>
      <trkpt lat="42.758986" lon="0.994353">
        <ele>1646.920</ele>
        <time>2021-06-18T12:45:53Z</time>
      </trkpt>
      <trkpt lat="42.759041" lon="0.994433">
        <ele>1646.634</ele>
        <time>2021-06-18T12:45:55Z</time>
      </trkpt>
      <trkpt lat="42.759069" lon="0.994473">
        <ele>1646.614</ele>
        <time>2021-06-18T12:45:56Z</time>
      </trkpt>
      <trkpt lat="42.759104" lon="0.994555">
        <ele>1646.547</ele>
        <time>2021-06-18T12:45:58Z</time>
      </trkpt>
      <trkpt lat="42.759121" lon="0.994618">
        <ele>1646.374</ele>
        <time>2021-06-18T12:46:00Z</time>
      </trkpt>
      <trkpt lat="42.759131" lon="0.994633">
        <ele>1646.349</ele>
        <time>2021-06-18T12:46:01Z</time>
      </trkpt>
      <trkpt lat="42.759156" lon="0.994632">
        <ele>1646.302</ele>
        <time>2021-06-18T12:46:03Z</time>
      </trkpt>
      <trkpt lat="42.759225" lon="0.994653">
        <ele>1646.722</ele>
        <time>2021-06-18T12:46:09Z</time>
      </trkpt>
      <trkpt lat="42.759266" lon="0.994768">
        <ele>1646.408</ele>
        <time>2021-06-18T12:46:15Z</time>
      </trkpt>
      <trkpt lat="42.759285" lon="0.994802">
        <ele>1646.411</ele>
        <time>2021-06-18T12:46:17Z</time>
      </trkpt>
      <trkpt lat="42.759307" lon="0.994799">
        <ele>1646.660</ele>
        <time>2021-06-18T12:46:19Z</time>
      </trkpt>
      <trkpt lat="42.759307" lon="0.994796">
        <ele>1646.616</ele>
        <time>2021-06-18T12:46:21Z</time>
      </trkpt>
      <trkpt lat="42.759274" lon="0.994728">
        <ele>1646.730</ele>
        <time>2021-06-18T12:59:36Z</time>
      </trkpt>
      <trkpt lat="42.759253" lon="0.994699">
        <ele>1646.754</ele>
        <time>2021-06-18T12:59:38Z</time>
      </trkpt>
      <trkpt lat="42.759206" lon="0.994622">
        <ele>1646.664</ele>
        <time>2021-06-18T12:59:43Z</time>
      </trkpt>
      <trkpt lat="42.759195" lon="0.994615">
        <ele>1646.697</ele>
        <time>2021-06-18T12:59:44Z</time>
      </trkpt>
      <trkpt lat="42.759185" lon="0.994613">
        <ele>1646.584</ele>
        <time>2021-06-18T12:59:45Z</time>
      </trkpt>
      <trkpt lat="42.759137" lon="0.994648">
        <ele>1646.266</ele>
        <time>2021-06-18T12:59:49Z</time>
      </trkpt>
      <trkpt lat="42.759030" lon="0.994728">
        <ele>1646.029</ele>
        <time>2021-06-18T12:59:56Z</time>
      </trkpt>
      <trkpt lat="42.758967" lon="0.994844">
        <ele>1646.721</ele>
        <time>2021-06-18T13:00:01Z</time>
      </trkpt>
      <trkpt lat="42.759012" lon="0.995085">
        <ele>1647.408</ele>
        <time>2021-06-18T13:00:08Z</time>
      </trkpt>
      <trkpt lat="42.759042" lon="0.995179">
        <ele>1647.553</ele>
        <time>2021-06-18T13:00:11Z</time>
      </trkpt>
      <trkpt lat="42.759058" lon="0.995219">
        <ele>1647.482</ele>
        <time>2021-06-18T13:00:14Z</time>
      </trkpt>
      <trkpt lat="42.759079" lon="0.995266">
        <ele>1647.128</ele>
        <time>2021-06-18T13:00:57Z</time>
      </trkpt>
      <trkpt lat="42.759116" lon="0.995326">
        <ele>1646.572</ele>
        <time>2021-06-18T13:00:59Z</time>
      </trkpt>
      <trkpt lat="42.759209" lon="0.995542">
        <ele>1645.756</ele>
        <time>2021-06-18T13:01:05Z</time>
      </trkpt>
      <trkpt lat="42.759219" lon="0.995584">
        <ele>1645.776</ele>
        <time>2021-06-18T13:01:06Z</time>
      </trkpt>
      <trkpt lat="42.759261" lon="0.995909">
        <ele>1646.619</ele>
        <time>2021-06-18T13:01:14Z</time>
      </trkpt>
      <trkpt lat="42.759260" lon="0.995990">
        <ele>1646.946</ele>
        <time>2021-06-18T13:01:16Z</time>
      </trkpt>
      <trkpt lat="42.759281" lon="0.996203">
        <ele>1647.211</ele>
        <time>2021-06-18T13:01:21Z</time>
      </trkpt>
      <trkpt lat="42.759339" lon="0.996519">
        <ele>1647.221</ele>
        <time>2021-06-18T13:01:29Z</time>
      </trkpt>
      <trkpt lat="42.759391" lon="0.996771">
        <ele>1647.503</ele>
        <time>2021-06-18T13:01:35Z</time>
      </trkpt>
      <trkpt lat="42.759408" lon="0.997008">
        <ele>1647.508</ele>
        <time>2021-06-18T13:01:41Z</time>
      </trkpt>
      <trkpt lat="42.759443" lon="0.997305">
        <ele>1647.378</ele>
        <time>2021-06-18T13:01:48Z</time>
      </trkpt>
      <trkpt lat="42.759493" lon="0.997675">
        <ele>1648.747</ele>
        <time>2021-06-18T13:01:57Z</time>
      </trkpt>
      <trkpt lat="42.759532" lon="0.997862">
        <ele>1649.473</ele>
        <time>2021-06-18T13:02:03Z</time>
      </trkpt>
      <trkpt lat="42.759537" lon="0.997893">
        <ele>1649.687</ele>
        <time>2021-06-18T13:02:04Z</time>
      </trkpt>
      <trkpt lat="42.759556" lon="0.998046">
        <ele>1650.781</ele>
        <time>2021-06-18T13:02:09Z</time>
      </trkpt>
      <trkpt lat="42.759561" lon="0.998175">
        <ele>1651.411</ele>
        <time>2021-06-18T13:02:13Z</time>
      </trkpt>
      <trkpt lat="42.759613" lon="0.998426">
        <ele>1651.814</ele>
        <time>2021-06-18T13:02:21Z</time>
      </trkpt>
      <trkpt lat="42.759726" lon="0.998712">
        <ele>1651.081</ele>
        <time>2021-06-18T13:02:31Z</time>
      </trkpt>
      <trkpt lat="42.759828" lon="0.998939">
        <ele>1650.747</ele>
        <time>2021-06-18T13:02:37Z</time>
      </trkpt>
      <trkpt lat="42.759935" lon="0.999209">
        <ele>1651.029</ele>
        <time>2021-06-18T13:02:44Z</time>
      </trkpt>
      <trkpt lat="42.760060" lon="0.999432">
        <ele>1650.821</ele>
        <time>2021-06-18T13:02:51Z</time>
      </trkpt>
      <trkpt lat="42.760117" lon="0.999516">
        <ele>1650.108</ele>
        <time>2021-06-18T13:02:53Z</time>
      </trkpt>
      <trkpt lat="42.760168" lon="0.999642">
        <ele>1649.621</ele>
        <time>2021-06-18T13:02:55Z</time>
      </trkpt>
      <trkpt lat="42.760219" lon="0.999786">
        <ele>1649.240</ele>
        <time>2021-06-18T13:02:57Z</time>
      </trkpt>
      <trkpt lat="42.760326" lon="1.000069">
        <ele>1647.596</ele>
        <time>2021-06-18T13:03:01Z</time>
      </trkpt>
      <trkpt lat="42.760347" lon="1.000143">
        <ele>1646.860</ele>
        <time>2021-06-18T13:03:02Z</time>
      </trkpt>
      <trkpt lat="42.760364" lon="1.000220">
        <ele>1646.284</ele>
        <time>2021-06-18T13:03:03Z</time>
      </trkpt>
      <trkpt lat="42.760387" lon="1.000343">
        <ele>1645.314</ele>
        <time>2021-06-18T13:03:05Z</time>
      </trkpt>
      <trkpt lat="42.760390" lon="1.000379">
        <ele>1645.157</ele>
        <time>2021-06-18T13:03:06Z</time>
      </trkpt>
      <trkpt lat="42.760392" lon="1.000390">
        <ele>1645.014</ele>
        <time>2021-06-18T13:03:08Z</time>
      </trkpt>
      <trkpt lat="42.760392" lon="1.000424">
        <ele>1644.894</ele>
        <time>2021-06-18T13:04:18Z</time>
      </trkpt>
      <trkpt lat="42.760394" lon="1.000577">
        <ele>1644.057</ele>
        <time>2021-06-18T13:04:22Z</time>
      </trkpt>
      <trkpt lat="42.760427" lon="1.000845">
        <ele>1641.922</ele>
        <time>2021-06-18T13:04:26Z</time>
      </trkpt>
      <trkpt lat="42.760455" lon="1.001007">
        <ele>1641.508</ele>
        <time>2021-06-18T13:04:28Z</time>
      </trkpt>
      <trkpt lat="42.760487" lon="1.001168">
        <ele>1641.186</ele>
        <time>2021-06-18T13:04:30Z</time>
      </trkpt>
      <trkpt lat="42.760548" lon="1.001424">
        <ele>1639.825</ele>
        <time>2021-06-18T13:04:33Z</time>
      </trkpt>
      <trkpt lat="42.760599" lon="1.001604">
        <ele>1638.191</ele>
        <time>2021-06-18T13:04:35Z</time>
      </trkpt>
      <trkpt lat="42.760661" lon="1.001805">
        <ele>1637.115</ele>
        <time>2021-06-18T13:04:37Z</time>
      </trkpt>
      <trkpt lat="42.760696" lon="1.001907">
        <ele>1636.619</ele>
        <time>2021-06-18T13:04:38Z</time>
      </trkpt>
      <trkpt lat="42.760767" lon="1.002105">
        <ele>1636.219</ele>
        <time>2021-06-18T13:04:40Z</time>
      </trkpt>
      <trkpt lat="42.760790" lon="1.002296">
        <ele>1636.182</ele>
        <time>2021-06-18T13:04:42Z</time>
      </trkpt>
      <trkpt lat="42.760777" lon="1.002472">
        <ele>1635.759</ele>
        <time>2021-06-18T13:04:44Z</time>
      </trkpt>
      <trkpt lat="42.760758" lon="1.002728">
        <ele>1634.414</ele>
        <time>2021-06-18T13:04:47Z</time>
      </trkpt>
      <trkpt lat="42.760728" lon="1.003165">
        <ele>1633.554</ele>
        <time>2021-06-18T13:04:52Z</time>
      </trkpt>
      <trkpt lat="42.760733" lon="1.003246">
        <ele>1633.009</ele>
        <time>2021-06-18T13:04:53Z</time>
      </trkpt>
      <trkpt lat="42.760733" lon="1.003318">
        <ele>1632.508</ele>
        <time>2021-06-18T13:04:54Z</time>
      </trkpt>
      <trkpt lat="42.760700" lon="1.003495">
        <ele>1629.768</ele>
        <time>2021-06-18T13:04:57Z</time>
      </trkpt>
      <trkpt lat="42.760672" lon="1.003545">
        <ele>1629.137</ele>
        <time>2021-06-18T13:04:58Z</time>
      </trkpt>
      <trkpt lat="42.760628" lon="1.003604">
        <ele>1628.413</ele>
        <time>2021-06-18T13:04:59Z</time>
      </trkpt>
      <trkpt lat="42.760573" lon="1.003662">
        <ele>1627.997</ele>
        <time>2021-06-18T13:05:00Z</time>
      </trkpt>
      <trkpt lat="42.760457" lon="1.003784">
        <ele>1626.451</ele>
        <time>2021-06-18T13:05:02Z</time>
      </trkpt>
      <trkpt lat="42.760376" lon="1.003945">
        <ele>1626.351</ele>
        <time>2021-06-18T13:05:04Z</time>
      </trkpt>
      <trkpt lat="42.760368" lon="1.004038">
        <ele>1627.154</ele>
        <time>2021-06-18T13:05:05Z</time>
      </trkpt>
      <trkpt lat="42.760379" lon="1.004190">
        <ele>1628.031</ele>
        <time>2021-06-18T13:05:07Z</time>
      </trkpt>
      <trkpt lat="42.760381" lon="1.004246">
        <ele>1628.245</ele>
        <time>2021-06-18T13:05:08Z</time>
      </trkpt>
      <trkpt lat="42.760381" lon="1.004297">
        <ele>1628.447</ele>
        <time>2021-06-18T13:05:09Z</time>
      </trkpt>
      <trkpt lat="42.760388" lon="1.004428">
        <ele>1628.911</ele>
        <time>2021-06-18T13:05:12Z</time>
      </trkpt>
      <trkpt lat="42.760371" lon="1.004672">
        <ele>1629.308</ele>
        <time>2021-06-18T13:05:17Z</time>
      </trkpt>
      <trkpt lat="42.760325" lon="1.005107">
        <ele>1627.471</ele>
        <time>2021-06-18T13:05:24Z</time>
      </trkpt>
      <trkpt lat="42.760309" lon="1.005272">
        <ele>1626.740</ele>
        <time>2021-06-18T13:05:26Z</time>
      </trkpt>
      <trkpt lat="42.760308" lon="1.005551">
        <ele>1624.466</ele>
        <time>2021-06-18T13:05:29Z</time>
      </trkpt>
      <trkpt lat="42.760294" lon="1.005758">
        <ele>1623.230</ele>
        <time>2021-06-18T13:05:31Z</time>
      </trkpt>
      <trkpt lat="42.760278" lon="1.005959">
        <ele>1622.544</ele>
        <time>2021-06-18T13:05:33Z</time>
      </trkpt>
      <trkpt lat="42.760271" lon="1.006051">
        <ele>1622.534</ele>
        <time>2021-06-18T13:05:34Z</time>
      </trkpt>
      <trkpt lat="42.760230" lon="1.006215">
        <ele>1623.677</ele>
        <time>2021-06-18T13:05:36Z</time>
      </trkpt>
      <trkpt lat="42.760204" lon="1.006360">
        <ele>1624.184</ele>
        <time>2021-06-18T13:05:38Z</time>
      </trkpt>
      <trkpt lat="42.760199" lon="1.006427">
        <ele>1624.476</ele>
        <time>2021-06-18T13:05:39Z</time>
      </trkpt>
      <trkpt lat="42.760198" lon="1.006490">
        <ele>1624.690</ele>
        <time>2021-06-18T13:05:40Z</time>
      </trkpt>
      <trkpt lat="42.760210" lon="1.006812">
        <ele>1624.219</ele>
        <time>2021-06-18T13:05:46Z</time>
      </trkpt>
      <trkpt lat="42.760201" lon="1.006915">
        <ele>1624.408</ele>
        <time>2021-06-18T13:05:48Z</time>
      </trkpt>
      <trkpt lat="42.760184" lon="1.007033">
        <ele>1624.654</ele>
        <time>2021-06-18T13:05:50Z</time>
      </trkpt>
      <trkpt lat="42.760181" lon="1.007095">
        <ele>1624.533</ele>
        <time>2021-06-18T13:05:51Z</time>
      </trkpt>
      <trkpt lat="42.760174" lon="1.007156">
        <ele>1624.459</ele>
        <time>2021-06-18T13:05:52Z</time>
      </trkpt>
      <trkpt lat="42.760111" lon="1.007493">
        <ele>1624.133</ele>
        <time>2021-06-18T13:05:57Z</time>
      </trkpt>
      <trkpt lat="42.760054" lon="1.007780">
        <ele>1623.067</ele>
        <time>2021-06-18T13:06:01Z</time>
      </trkpt>
      <trkpt lat="42.760046" lon="1.007844">
        <ele>1623.197</ele>
        <time>2021-06-18T13:06:02Z</time>
      </trkpt>
      <trkpt lat="42.760039" lon="1.007906">
        <ele>1623.170</ele>
        <time>2021-06-18T13:06:03Z</time>
      </trkpt>
      <trkpt lat="42.760003" lon="1.008134">
        <ele>1623.317</ele>
        <time>2021-06-18T13:06:08Z</time>
      </trkpt>
      <trkpt lat="42.759993" lon="1.008338">
        <ele>1622.452</ele>
        <time>2021-06-18T13:06:12Z</time>
      </trkpt>
      <trkpt lat="42.759992" lon="1.008473">
        <ele>1621.553</ele>
        <time>2021-06-18T13:06:14Z</time>
      </trkpt>
      <trkpt lat="42.759988" lon="1.008893">
        <ele>1618.608</ele>
        <time>2021-06-18T13:06:19Z</time>
      </trkpt>
      <trkpt lat="42.759965" lon="1.009081">
        <ele>1617.908</ele>
        <time>2021-06-18T13:06:21Z</time>
      </trkpt>
      <trkpt lat="42.759949" lon="1.009166">
        <ele>1617.912</ele>
        <time>2021-06-18T13:06:22Z</time>
      </trkpt>
      <trkpt lat="42.759935" lon="1.009247">
        <ele>1618.271</ele>
        <time>2021-06-18T13:06:23Z</time>
      </trkpt>
      <trkpt lat="42.759930" lon="1.009334">
        <ele>1618.017</ele>
        <time>2021-06-18T13:06:24Z</time>
      </trkpt>
      <trkpt lat="42.759942" lon="1.009505">
        <ele>1616.171</ele>
        <time>2021-06-18T13:06:26Z</time>
      </trkpt>
      <trkpt lat="42.759940" lon="1.009581">
        <ele>1615.745</ele>
        <time>2021-06-18T13:06:27Z</time>
      </trkpt>
      <trkpt lat="42.759910" lon="1.009730">
        <ele>1616.485</ele>
        <time>2021-06-18T13:06:29Z</time>
      </trkpt>
      <trkpt lat="42.759886" lon="1.009817">
        <ele>1616.738</ele>
        <time>2021-06-18T13:06:30Z</time>
      </trkpt>
      <trkpt lat="42.759868" lon="1.009916">
        <ele>1616.425</ele>
        <time>2021-06-18T13:06:31Z</time>
      </trkpt>
      <trkpt lat="42.759838" lon="1.010311">
        <ele>1614.312</ele>
        <time>2021-06-18T13:06:35Z</time>
      </trkpt>
      <trkpt lat="42.759845" lon="1.010405">
        <ele>1614.332</ele>
        <time>2021-06-18T13:06:36Z</time>
      </trkpt>
      <trkpt lat="42.759855" lon="1.010684">
        <ele>1613.805</ele>
        <time>2021-06-18T13:06:39Z</time>
      </trkpt>
      <trkpt lat="42.759844" lon="1.010780">
        <ele>1613.908</ele>
        <time>2021-06-18T13:06:40Z</time>
      </trkpt>
      <trkpt lat="42.759837" lon="1.010885">
        <ele>1613.718</ele>
        <time>2021-06-18T13:06:41Z</time>
      </trkpt>
      <trkpt lat="42.759837" lon="1.011101">
        <ele>1612.197</ele>
        <time>2021-06-18T13:06:43Z</time>
      </trkpt>
      <trkpt lat="42.759840" lon="1.011203">
        <ele>1611.773</ele>
        <time>2021-06-18T13:06:44Z</time>
      </trkpt>
      <trkpt lat="42.759842" lon="1.011489">
        <ele>1611.757</ele>
        <time>2021-06-18T13:06:47Z</time>
      </trkpt>
      <trkpt lat="42.759860" lon="1.011576">
        <ele>1611.121</ele>
        <time>2021-06-18T13:06:48Z</time>
      </trkpt>
      <trkpt lat="42.759973" lon="1.011812">
        <ele>1607.891</ele>
        <time>2021-06-18T13:06:51Z</time>
      </trkpt>
      <trkpt lat="42.760075" lon="1.011996">
        <ele>1607.254</ele>
        <time>2021-06-18T13:06:54Z</time>
      </trkpt>
      <trkpt lat="42.760093" lon="1.012045">
        <ele>1607.021</ele>
        <time>2021-06-18T13:06:55Z</time>
      </trkpt>
      <trkpt lat="42.760112" lon="1.012219">
        <ele>1607.574</ele>
        <time>2021-06-18T13:06:58Z</time>
      </trkpt>
      <trkpt lat="42.760112" lon="1.012298">
        <ele>1607.356</ele>
        <time>2021-06-18T13:06:59Z</time>
      </trkpt>
      <trkpt lat="42.760105" lon="1.012461">
        <ele>1607.121</ele>
        <time>2021-06-18T13:07:01Z</time>
      </trkpt>
      <trkpt lat="42.760099" lon="1.012693">
        <ele>1607.108</ele>
        <time>2021-06-18T13:07:04Z</time>
      </trkpt>
      <trkpt lat="42.760100" lon="1.012763">
        <ele>1607.184</ele>
        <time>2021-06-18T13:07:05Z</time>
      </trkpt>
      <trkpt lat="42.760093" lon="1.012896">
        <ele>1607.043</ele>
        <time>2021-06-18T13:07:07Z</time>
      </trkpt>
      <trkpt lat="42.760072" lon="1.013047">
        <ele>1607.269</ele>
        <time>2021-06-18T13:07:09Z</time>
      </trkpt>
      <trkpt lat="42.760048" lon="1.013317">
        <ele>1606.173</ele>
        <time>2021-06-18T13:07:12Z</time>
      </trkpt>
      <trkpt lat="42.760047" lon="1.013410">
        <ele>1605.547</ele>
        <time>2021-06-18T13:07:13Z</time>
      </trkpt>
      <trkpt lat="42.760050" lon="1.013500">
        <ele>1604.817</ele>
        <time>2021-06-18T13:07:14Z</time>
      </trkpt>
      <trkpt lat="42.760056" lon="1.013680">
        <ele>1604.080</ele>
        <time>2021-06-18T13:07:16Z</time>
      </trkpt>
      <trkpt lat="42.760064" lon="1.013766">
        <ele>1603.867</ele>
        <time>2021-06-18T13:07:17Z</time>
      </trkpt>
      <trkpt lat="42.760065" lon="1.013843">
        <ele>1603.895</ele>
        <time>2021-06-18T13:07:18Z</time>
      </trkpt>
      <trkpt lat="42.760066" lon="1.013919">
        <ele>1603.849</ele>
        <time>2021-06-18T13:07:19Z</time>
      </trkpt>
      <trkpt lat="42.760079" lon="1.014133">
        <ele>1603.623</ele>
        <time>2021-06-18T13:07:22Z</time>
      </trkpt>
      <trkpt lat="42.760076" lon="1.014268">
        <ele>1603.308</ele>
        <time>2021-06-18T13:07:24Z</time>
      </trkpt>
      <trkpt lat="42.760082" lon="1.014341">
        <ele>1602.926</ele>
        <time>2021-06-18T13:07:25Z</time>
      </trkpt>
      <trkpt lat="42.760101" lon="1.014588">
        <ele>1602.035</ele>
        <time>2021-06-18T13:07:28Z</time>
      </trkpt>
      <trkpt lat="42.760112" lon="1.014677">
        <ele>1601.661</ele>
        <time>2021-06-18T13:07:29Z</time>
      </trkpt>
      <trkpt lat="42.760147" lon="1.015026">
        <ele>1600.285</ele>
        <time>2021-06-18T13:07:33Z</time>
      </trkpt>
      <trkpt lat="42.760158" lon="1.015181">
        <ele>1599.139</ele>
        <time>2021-06-18T13:07:35Z</time>
      </trkpt>
      <trkpt lat="42.760159" lon="1.015256">
        <ele>1598.779</ele>
        <time>2021-06-18T13:07:36Z</time>
      </trkpt>
      <trkpt lat="42.760181" lon="1.015471">
        <ele>1597.662</ele>
        <time>2021-06-18T13:07:39Z</time>
      </trkpt>
      <trkpt lat="42.760210" lon="1.015651">
        <ele>1596.819</ele>
        <time>2021-06-18T13:07:42Z</time>
      </trkpt>
      <trkpt lat="42.760225" lon="1.015836">
        <ele>1596.587</ele>
        <time>2021-06-18T13:07:45Z</time>
      </trkpt>
      <trkpt lat="42.760221" lon="1.016028">
        <ele>1596.142</ele>
        <time>2021-06-18T13:07:48Z</time>
      </trkpt>
      <trkpt lat="42.760201" lon="1.016179">
        <ele>1596.426</ele>
        <time>2021-06-18T13:07:50Z</time>
      </trkpt>
      <trkpt lat="42.760178" lon="1.016406">
        <ele>1596.808</ele>
        <time>2021-06-18T13:07:53Z</time>
      </trkpt>
      <trkpt lat="42.760126" lon="1.016643">
        <ele>1596.965</ele>
        <time>2021-06-18T13:07:56Z</time>
      </trkpt>
      <trkpt lat="42.760098" lon="1.016723">
        <ele>1596.844</ele>
        <time>2021-06-18T13:07:57Z</time>
      </trkpt>
      <trkpt lat="42.760044" lon="1.016888">
        <ele>1596.270</ele>
        <time>2021-06-18T13:07:59Z</time>
      </trkpt>
      <trkpt lat="42.759978" lon="1.017132">
        <ele>1595.134</ele>
        <time>2021-06-18T13:08:02Z</time>
      </trkpt>
      <trkpt lat="42.759871" lon="1.017520">
        <ele>1594.158</ele>
        <time>2021-06-18T13:08:07Z</time>
      </trkpt>
      <trkpt lat="42.759858" lon="1.017607">
        <ele>1594.298</ele>
        <time>2021-06-18T13:08:08Z</time>
      </trkpt>
      <trkpt lat="42.759872" lon="1.017947">
        <ele>1593.491</ele>
        <time>2021-06-18T13:08:12Z</time>
      </trkpt>
      <trkpt lat="42.759876" lon="1.018018">
        <ele>1593.438</ele>
        <time>2021-06-18T13:08:13Z</time>
      </trkpt>
      <trkpt lat="42.759878" lon="1.018225">
        <ele>1592.982</ele>
        <time>2021-06-18T13:08:16Z</time>
      </trkpt>
      <trkpt lat="42.759866" lon="1.018377">
        <ele>1592.543</ele>
        <time>2021-06-18T13:08:18Z</time>
      </trkpt>
      <trkpt lat="42.759849" lon="1.018526">
        <ele>1591.617</ele>
        <time>2021-06-18T13:08:20Z</time>
      </trkpt>
      <trkpt lat="42.759830" lon="1.018678">
        <ele>1591.208</ele>
        <time>2021-06-18T13:08:22Z</time>
      </trkpt>
      <trkpt lat="42.759765" lon="1.018972">
        <ele>1591.235</ele>
        <time>2021-06-18T13:08:26Z</time>
      </trkpt>
      <trkpt lat="42.759730" lon="1.019109">
        <ele>1590.594</ele>
        <time>2021-06-18T13:08:28Z</time>
      </trkpt>
      <trkpt lat="42.759589" lon="1.019534">
        <ele>1590.650</ele>
        <time>2021-06-18T13:08:35Z</time>
      </trkpt>
      <trkpt lat="42.759528" lon="1.019815">
        <ele>1590.954</ele>
        <time>2021-06-18T13:08:39Z</time>
      </trkpt>
      <trkpt lat="42.759514" lon="1.019891">
        <ele>1591.078</ele>
        <time>2021-06-18T13:08:40Z</time>
      </trkpt>
      <trkpt lat="42.759431" lon="1.020187">
        <ele>1589.348</ele>
        <time>2021-06-18T13:08:44Z</time>
      </trkpt>
      <trkpt lat="42.759375" lon="1.020322">
        <ele>1589.361</ele>
        <time>2021-06-18T13:08:46Z</time>
      </trkpt>
      <trkpt lat="42.759280" lon="1.020553">
        <ele>1590.048</ele>
        <time>2021-06-18T13:08:51Z</time>
      </trkpt>
      <trkpt lat="42.759230" lon="1.020653">
        <ele>1590.453</ele>
        <time>2021-06-18T13:08:56Z</time>
      </trkpt>
      <trkpt lat="42.759177" lon="1.020796">
        <ele>1590.204</ele>
        <time>2021-06-18T13:09:01Z</time>
      </trkpt>
      <trkpt lat="42.759065" lon="1.020976">
        <ele>1591.414</ele>
        <time>2021-06-18T13:09:08Z</time>
      </trkpt>
      <trkpt lat="42.759056" lon="1.020999">
        <ele>1591.408</ele>
        <time>2021-06-18T13:09:09Z</time>
      </trkpt>
      <trkpt lat="42.759046" lon="1.021019">
        <ele>1591.512</ele>
        <time>2021-06-18T13:09:10Z</time>
      </trkpt>
      <trkpt lat="42.758974" lon="1.021137">
        <ele>1592.431</ele>
        <time>2021-06-18T13:09:17Z</time>
      </trkpt>
      <trkpt lat="42.758955" lon="1.021166">
        <ele>1592.917</ele>
        <time>2021-06-18T13:09:19Z</time>
      </trkpt>
      <trkpt lat="42.758919" lon="1.021287">
        <ele>1593.441</ele>
        <time>2021-06-18T13:09:25Z</time>
      </trkpt>
      <trkpt lat="42.758918" lon="1.021310">
        <ele>1593.475</ele>
        <time>2021-06-18T13:09:26Z</time>
      </trkpt>
      <trkpt lat="42.758873" lon="1.021415">
        <ele>1594.185</ele>
        <time>2021-06-18T13:09:31Z</time>
      </trkpt>
      <trkpt lat="42.758828" lon="1.021498">
        <ele>1594.318</ele>
        <time>2021-06-18T13:09:34Z</time>
      </trkpt>
      <trkpt lat="42.758789" lon="1.021608">
        <ele>1594.025</ele>
        <time>2021-06-18T13:09:37Z</time>
      </trkpt>
      <trkpt lat="42.758677" lon="1.021841">
        <ele>1594.486</ele>
        <time>2021-06-18T13:09:44Z</time>
      </trkpt>
      <trkpt lat="42.758542" lon="1.022111">
        <ele>1595.260</ele>
        <time>2021-06-18T13:09:51Z</time>
      </trkpt>
      <trkpt lat="42.758449" lon="1.022402">
        <ele>1594.826</ele>
        <time>2021-06-18T13:09:57Z</time>
      </trkpt>
      <trkpt lat="42.758406" lon="1.022517">
        <ele>1595.108</ele>
        <time>2021-06-18T13:10:00Z</time>
      </trkpt>
      <trkpt lat="42.758383" lon="1.022593">
        <ele>1594.935</ele>
        <time>2021-06-18T13:10:02Z</time>
      </trkpt>
      <trkpt lat="42.758305" lon="1.022786">
        <ele>1594.764</ele>
        <time>2021-06-18T13:10:07Z</time>
      </trkpt>
      <trkpt lat="42.758230" lon="1.022973">
        <ele>1594.180</ele>
        <time>2021-06-18T13:10:12Z</time>
      </trkpt>
      <trkpt lat="42.758157" lon="1.023153">
        <ele>1594.724</ele>
        <time>2021-06-18T13:10:18Z</time>
      </trkpt>
      <trkpt lat="42.758088" lon="1.023308">
        <ele>1595.768</ele>
        <time>2021-06-18T13:10:21Z</time>
      </trkpt>
      <trkpt lat="42.758066" lon="1.023370">
        <ele>1595.848</ele>
        <time>2021-06-18T13:10:22Z</time>
      </trkpt>
      <trkpt lat="42.758004" lon="1.023539">
        <ele>1595.221</ele>
        <time>2021-06-18T13:10:25Z</time>
      </trkpt>
      <trkpt lat="42.757958" lon="1.023661">
        <ele>1594.938</ele>
        <time>2021-06-18T13:10:27Z</time>
      </trkpt>
      <trkpt lat="42.757890" lon="1.023896">
        <ele>1594.426</ele>
        <time>2021-06-18T13:10:31Z</time>
      </trkpt>
      <trkpt lat="42.757885" lon="1.023981">
        <ele>1595.347</ele>
        <time>2021-06-18T13:10:34Z</time>
      </trkpt>
      <trkpt lat="42.757882" lon="1.023997">
        <ele>1595.511</ele>
        <time>2021-06-18T13:10:35Z</time>
      </trkpt>
      <trkpt lat="42.757860" lon="1.024157">
        <ele>1597.608</ele>
        <time>2021-06-18T13:10:43Z</time>
      </trkpt>
      <trkpt lat="42.757859" lon="1.024179">
        <ele>1597.569</ele>
        <time>2021-06-18T13:10:44Z</time>
      </trkpt>
      <trkpt lat="42.757839" lon="1.024274">
        <ele>1597.218</ele>
        <time>2021-06-18T13:10:48Z</time>
      </trkpt>
      <trkpt lat="42.757816" lon="1.024323">
        <ele>1597.514</ele>
        <time>2021-06-18T13:10:50Z</time>
      </trkpt>
      <trkpt lat="42.757753" lon="1.024465">
        <ele>1598.478</ele>
        <time>2021-06-18T13:10:55Z</time>
      </trkpt>
      <trkpt lat="42.757680" lon="1.024600">
        <ele>1598.492</ele>
        <time>2021-06-18T13:11:00Z</time>
      </trkpt>
      <trkpt lat="42.757621" lon="1.024781">
        <ele>1597.532</ele>
        <time>2021-06-18T13:11:05Z</time>
      </trkpt>
      <trkpt lat="42.757533" lon="1.024987">
        <ele>1597.735</ele>
        <time>2021-06-18T13:11:09Z</time>
      </trkpt>
      <trkpt lat="42.757431" lon="1.025278">
        <ele>1596.562</ele>
        <time>2021-06-18T13:11:13Z</time>
      </trkpt>
      <trkpt lat="42.757410" lon="1.025348">
        <ele>1596.351</ele>
        <time>2021-06-18T13:11:14Z</time>
      </trkpt>
      <trkpt lat="42.757392" lon="1.025549">
        <ele>1594.801</ele>
        <time>2021-06-18T13:11:17Z</time>
      </trkpt>
      <trkpt lat="42.757377" lon="1.025608">
        <ele>1594.111</ele>
        <time>2021-06-18T13:11:18Z</time>
      </trkpt>
      <trkpt lat="42.757366" lon="1.025667">
        <ele>1593.308</ele>
        <time>2021-06-18T13:11:19Z</time>
      </trkpt>
      <trkpt lat="42.757346" lon="1.025793">
        <ele>1591.812</ele>
        <time>2021-06-18T13:11:21Z</time>
      </trkpt>
      <trkpt lat="42.757330" lon="1.025866">
        <ele>1591.211</ele>
        <time>2021-06-18T13:11:22Z</time>
      </trkpt>
      <trkpt lat="42.757302" lon="1.026063">
        <ele>1588.957</ele>
        <time>2021-06-18T13:11:25Z</time>
      </trkpt>
      <trkpt lat="42.757301" lon="1.026174">
        <ele>1587.911</ele>
        <time>2021-06-18T13:11:27Z</time>
      </trkpt>
      <trkpt lat="42.757302" lon="1.026230">
        <ele>1587.635</ele>
        <time>2021-06-18T13:11:28Z</time>
      </trkpt>
      <trkpt lat="42.757298" lon="1.026288">
        <ele>1587.515</ele>
        <time>2021-06-18T13:11:29Z</time>
      </trkpt>
      <trkpt lat="42.757292" lon="1.026405">
        <ele>1587.218</ele>
        <time>2021-06-18T13:11:31Z</time>
      </trkpt>
      <trkpt lat="42.757288" lon="1.026449">
        <ele>1587.135</ele>
        <time>2021-06-18T13:11:32Z</time>
      </trkpt>
      <trkpt lat="42.757286" lon="1.026491">
        <ele>1586.951</ele>
        <time>2021-06-18T13:11:33Z</time>
      </trkpt>
      <trkpt lat="42.757274" lon="1.026596">
        <ele>1586.701</ele>
        <time>2021-06-18T13:11:36Z</time>
      </trkpt>
      <trkpt lat="42.757251" lon="1.026724">
        <ele>1586.911</ele>
        <time>2021-06-18T13:11:40Z</time>
      </trkpt>
      <trkpt lat="42.757246" lon="1.026758">
        <ele>1586.908</ele>
        <time>2021-06-18T13:11:41Z</time>
      </trkpt>
      <trkpt lat="42.757224" lon="1.027027">
        <ele>1586.942</ele>
        <time>2021-06-18T13:11:46Z</time>
      </trkpt>
      <trkpt lat="42.757176" lon="1.027369">
        <ele>1586.881</ele>
        <time>2021-06-18T13:11:52Z</time>
      </trkpt>
      <trkpt lat="42.757181" lon="1.027601">
        <ele>1583.987</ele>
        <time>2021-06-18T13:11:56Z</time>
      </trkpt>
      <trkpt lat="42.757171" lon="1.027731">
        <ele>1583.271</ele>
        <time>2021-06-18T13:11:58Z</time>
      </trkpt>
      <trkpt lat="42.757162" lon="1.027805">
        <ele>1583.115</ele>
        <time>2021-06-18T13:11:59Z</time>
      </trkpt>
      <trkpt lat="42.757151" lon="1.027885">
        <ele>1583.265</ele>
        <time>2021-06-18T13:12:00Z</time>
      </trkpt>
      <trkpt lat="42.757130" lon="1.028336">
        <ele>1582.028</ele>
        <time>2021-06-18T13:12:06Z</time>
      </trkpt>
      <trkpt lat="42.757126" lon="1.028409">
        <ele>1582.015</ele>
        <time>2021-06-18T13:12:07Z</time>
      </trkpt>
      <trkpt lat="42.757109" lon="1.028544">
        <ele>1582.592</ele>
        <time>2021-06-18T13:12:09Z</time>
      </trkpt>
      <trkpt lat="42.757104" lon="1.028626">
        <ele>1582.573</ele>
        <time>2021-06-18T13:12:10Z</time>
      </trkpt>
      <trkpt lat="42.757088" lon="1.028778">
        <ele>1582.720</ele>
        <time>2021-06-18T13:12:12Z</time>
      </trkpt>
      <trkpt lat="42.757080" lon="1.028938">
        <ele>1582.408</ele>
        <time>2021-06-18T13:12:14Z</time>
      </trkpt>
      <trkpt lat="42.757079" lon="1.028990">
        <ele>1582.286</ele>
        <time>2021-06-18T13:12:15Z</time>
      </trkpt>
      <trkpt lat="42.757089" lon="1.029188">
        <ele>1580.845</ele>
        <time>2021-06-18T13:12:19Z</time>
      </trkpt>
      <trkpt lat="42.757080" lon="1.029267">
        <ele>1581.111</ele>
        <time>2021-06-18T13:12:20Z</time>
      </trkpt>
      <trkpt lat="42.757073" lon="1.029352">
        <ele>1581.485</ele>
        <time>2021-06-18T13:12:21Z</time>
      </trkpt>
      <trkpt lat="42.757063" lon="1.029526">
        <ele>1581.679</ele>
        <time>2021-06-18T13:12:23Z</time>
      </trkpt>
      <trkpt lat="42.757037" lon="1.029711">
        <ele>1582.089</ele>
        <time>2021-06-18T13:12:25Z</time>
      </trkpt>
      <trkpt lat="42.756992" lon="1.029923">
        <ele>1582.562</ele>
        <time>2021-06-18T13:12:28Z</time>
      </trkpt>
      <trkpt lat="42.756971" lon="1.029968">
        <ele>1582.789</ele>
        <time>2021-06-18T13:12:29Z</time>
      </trkpt>
      <trkpt lat="42.756927" lon="1.030207">
        <ele>1583.858</ele>
        <time>2021-06-18T13:12:34Z</time>
      </trkpt>
      <trkpt lat="42.756943" lon="1.030421">
        <ele>1583.652</ele>
        <time>2021-06-18T13:12:40Z</time>
      </trkpt>
      <trkpt lat="42.756958" lon="1.030488">
        <ele>1583.617</ele>
        <time>2021-06-18T13:12:43Z</time>
      </trkpt>
      <trkpt lat="42.756986" lon="1.030566">
        <ele>1583.708</ele>
        <time>2021-06-18T13:12:47Z</time>
      </trkpt>
      <trkpt lat="42.757000" lon="1.030585">
        <ele>1583.822</ele>
        <time>2021-06-18T13:12:50Z</time>
      </trkpt>
      <trkpt lat="42.757083" lon="1.031013">
        <ele>1587.551</ele>
        <time>2021-06-18T13:13:34Z</time>
      </trkpt>
      <trkpt lat="42.757083" lon="1.031036">
        <ele>1587.697</ele>
        <time>2021-06-18T13:13:35Z</time>
      </trkpt>
      <trkpt lat="42.757070" lon="1.031117">
        <ele>1588.251</ele>
        <time>2021-06-18T13:13:40Z</time>
      </trkpt>
      <trkpt lat="42.757070" lon="1.031138">
        <ele>1588.415</ele>
        <time>2021-06-18T13:13:41Z</time>
      </trkpt>
      <trkpt lat="42.757073" lon="1.031162">
        <ele>1588.515</ele>
        <time>2021-06-18T13:13:42Z</time>
      </trkpt>
      <trkpt lat="42.757092" lon="1.031216">
        <ele>1588.638</ele>
        <time>2021-06-18T13:13:46Z</time>
      </trkpt>
      <trkpt lat="42.757107" lon="1.031258">
        <ele>1588.665</ele>
        <time>2021-06-18T13:13:48Z</time>
      </trkpt>
      <trkpt lat="42.757177" lon="1.031389">
        <ele>1588.037</ele>
        <time>2021-06-18T13:13:55Z</time>
      </trkpt>
      <trkpt lat="42.757210" lon="1.031483">
        <ele>1588.349</ele>
        <time>2021-06-18T13:14:00Z</time>
      </trkpt>
      <trkpt lat="42.757213" lon="1.031598">
        <ele>1589.513</ele>
        <time>2021-06-18T13:14:05Z</time>
      </trkpt>
      <trkpt lat="42.757215" lon="1.031620">
        <ele>1589.708</ele>
        <time>2021-06-18T13:14:06Z</time>
      </trkpt>
      <trkpt lat="42.757214" lon="1.031667">
        <ele>1590.280</ele>
        <time>2021-06-18T13:14:08Z</time>
      </trkpt>
      <trkpt lat="42.757218" lon="1.031735">
        <ele>1590.849</ele>
        <time>2021-06-18T13:14:12Z</time>
      </trkpt>
      <trkpt lat="42.757249" lon="1.031838">
        <ele>1591.055</ele>
        <time>2021-06-18T13:14:18Z</time>
      </trkpt>
      <trkpt lat="42.757273" lon="1.031933">
        <ele>1591.449</ele>
        <time>2021-06-18T13:14:22Z</time>
      </trkpt>
      <trkpt lat="42.757287" lon="1.031995">
        <ele>1591.983</ele>
        <time>2021-06-18T13:14:24Z</time>
      </trkpt>
      <trkpt lat="42.757299" lon="1.032063">
        <ele>1592.513</ele>
        <time>2021-06-18T13:14:26Z</time>
      </trkpt>
      <trkpt lat="42.757307" lon="1.032099">
        <ele>1592.846</ele>
        <time>2021-06-18T13:14:27Z</time>
      </trkpt>
      <trkpt lat="42.757333" lon="1.032217">
        <ele>1593.753</ele>
        <time>2021-06-18T13:14:31Z</time>
      </trkpt>
      <trkpt lat="42.757345" lon="1.032283">
        <ele>1594.061</ele>
        <time>2021-06-18T13:14:33Z</time>
      </trkpt>
      <trkpt lat="42.757379" lon="1.032439">
        <ele>1594.621</ele>
        <time>2021-06-18T13:14:38Z</time>
      </trkpt>
      <trkpt lat="42.757489" lon="1.032669">
        <ele>1595.013</ele>
        <time>2021-06-18T13:14:47Z</time>
      </trkpt>
      <trkpt lat="42.757517" lon="1.032709">
        <ele>1595.508</ele>
        <time>2021-06-18T13:14:49Z</time>
      </trkpt>
      <trkpt lat="42.757612" lon="1.032809">
        <ele>1598.133</ele>
        <time>2021-06-18T13:14:55Z</time>
      </trkpt>
      <trkpt lat="42.757630" lon="1.032817">
        <ele>1598.452</ele>
        <time>2021-06-18T13:14:56Z</time>
      </trkpt>
      <trkpt lat="42.757712" lon="1.032819">
        <ele>1599.648</ele>
        <time>2021-06-18T13:15:01Z</time>
      </trkpt>
      <trkpt lat="42.757744" lon="1.032805">
        <ele>1599.952</ele>
        <time>2021-06-18T13:15:03Z</time>
      </trkpt>
      <trkpt lat="42.757809" lon="1.032772">
        <ele>1600.316</ele>
        <time>2021-06-18T13:15:07Z</time>
      </trkpt>
      <trkpt lat="42.757840" lon="1.032767">
        <ele>1600.716</ele>
        <time>2021-06-18T13:15:09Z</time>
      </trkpt>
      <trkpt lat="42.757883" lon="1.032743">
        <ele>1601.089</ele>
        <time>2021-06-18T13:15:12Z</time>
      </trkpt>
      <trkpt lat="42.757904" lon="1.032721">
        <ele>1601.086</ele>
        <time>2021-06-18T13:15:14Z</time>
      </trkpt>
      <trkpt lat="42.757912" lon="1.032705">
        <ele>1600.954</ele>
        <time>2021-06-18T13:15:15Z</time>
      </trkpt>
      <trkpt lat="42.757952" lon="1.032663">
        <ele>1601.056</ele>
        <time>2021-06-18T13:15:19Z</time>
      </trkpt>
      <trkpt lat="42.757966" lon="1.032652">
        <ele>1601.111</ele>
        <time>2021-06-18T13:15:20Z</time>
      </trkpt>
      <trkpt lat="42.758043" lon="1.032613">
        <ele>1602.008</ele>
        <time>2021-06-18T13:15:26Z</time>
      </trkpt>
      <trkpt lat="42.758070" lon="1.032595">
        <ele>1601.892</ele>
        <time>2021-06-18T13:15:28Z</time>
      </trkpt>
      <trkpt lat="42.758110" lon="1.032595">
        <ele>1601.211</ele>
        <time>2021-06-18T13:15:31Z</time>
      </trkpt>
      <trkpt lat="42.758122" lon="1.032610">
        <ele>1601.257</ele>
        <time>2021-06-18T13:15:32Z</time>
      </trkpt>
      <trkpt lat="42.758134" lon="1.032628">
        <ele>1601.231</ele>
        <time>2021-06-18T13:15:33Z</time>
      </trkpt>
      <trkpt lat="42.758195" lon="1.032740">
        <ele>1601.965</ele>
        <time>2021-06-18T13:15:39Z</time>
      </trkpt>
      <trkpt lat="42.758199" lon="1.032762">
        <ele>1602.285</ele>
        <time>2021-06-18T13:15:40Z</time>
      </trkpt>
      <trkpt lat="42.758183" lon="1.032892">
        <ele>1604.288</ele>
        <time>2021-06-18T13:15:46Z</time>
      </trkpt>
      <trkpt lat="42.758168" lon="1.032937">
        <ele>1605.085</ele>
        <time>2021-06-18T13:15:48Z</time>
      </trkpt>
      <trkpt lat="42.758170" lon="1.033045">
        <ele>1606.463</ele>
        <time>2021-06-18T13:15:53Z</time>
      </trkpt>
      <trkpt lat="42.758179" lon="1.033106">
        <ele>1606.544</ele>
        <time>2021-06-18T13:15:55Z</time>
      </trkpt>
      <trkpt lat="42.758209" lon="1.033239">
        <ele>1606.018</ele>
        <time>2021-06-18T13:15:59Z</time>
      </trkpt>
      <trkpt lat="42.758212" lon="1.033360">
        <ele>1605.608</ele>
        <time>2021-06-18T13:16:02Z</time>
      </trkpt>
      <trkpt lat="42.758192" lon="1.033438">
        <ele>1605.743</ele>
        <time>2021-06-18T13:16:04Z</time>
      </trkpt>
      <trkpt lat="42.758200" lon="1.033662">
        <ele>1604.932</ele>
        <time>2021-06-18T13:16:10Z</time>
      </trkpt>
      <trkpt lat="42.758201" lon="1.033771">
        <ele>1605.138</ele>
        <time>2021-06-18T13:16:14Z</time>
      </trkpt>
      <trkpt lat="42.758199" lon="1.033787">
        <ele>1605.222</ele>
        <time>2021-06-18T13:16:15Z</time>
      </trkpt>
      <trkpt lat="42.758209" lon="1.033844">
        <ele>1605.016</ele>
        <time>2021-06-18T13:16:18Z</time>
      </trkpt>
      <trkpt lat="42.758234" lon="1.033905">
        <ele>1604.486</ele>
        <time>2021-06-18T13:16:21Z</time>
      </trkpt>
      <trkpt lat="42.758274" lon="1.033972">
        <ele>1603.859</ele>
        <time>2021-06-18T13:16:24Z</time>
      </trkpt>
      <trkpt lat="42.758292" lon="1.034021">
        <ele>1603.796</ele>
        <time>2021-06-18T13:16:26Z</time>
      </trkpt>
      <trkpt lat="42.758333" lon="1.034168">
        <ele>1604.046</ele>
        <time>2021-06-18T13:16:31Z</time>
      </trkpt>
      <trkpt lat="42.758382" lon="1.034379">
        <ele>1602.388</ele>
        <time>2021-06-18T13:16:36Z</time>
      </trkpt>
      <trkpt lat="42.758396" lon="1.034417">
        <ele>1601.716</ele>
        <time>2021-06-18T13:16:37Z</time>
      </trkpt>
      <trkpt lat="42.758446" lon="1.034525">
        <ele>1600.408</ele>
        <time>2021-06-18T13:16:40Z</time>
      </trkpt>
      <trkpt lat="42.758460" lon="1.034551">
        <ele>1600.081</ele>
        <time>2021-06-18T13:16:42Z</time>
      </trkpt>
      <trkpt lat="42.758524" lon="1.034801">
        <ele>1600.130</ele>
        <time>2021-06-18T13:16:52Z</time>
      </trkpt>
      <trkpt lat="42.758524" lon="1.034830">
        <ele>1600.676</ele>
        <time>2021-06-18T13:16:53Z</time>
      </trkpt>
      <trkpt lat="42.758542" lon="1.034903">
        <ele>1601.040</ele>
        <time>2021-06-18T13:16:56Z</time>
      </trkpt>
      <trkpt lat="42.758566" lon="1.034971">
        <ele>1600.954</ele>
        <time>2021-06-18T13:17:00Z</time>
      </trkpt>
      <trkpt lat="42.758627" lon="1.035119">
        <ele>1600.964</ele>
        <time>2021-06-18T13:17:09Z</time>
      </trkpt>
      <trkpt lat="42.758635" lon="1.035132">
        <ele>1600.717</ele>
        <time>2021-06-18T13:17:10Z</time>
      </trkpt>
      <trkpt lat="42.758681" lon="1.035252">
        <ele>1600.864</ele>
        <time>2021-06-18T13:17:15Z</time>
      </trkpt>
      <trkpt lat="42.758722" lon="1.035331">
        <ele>1600.461</ele>
        <time>2021-06-18T13:17:18Z</time>
      </trkpt>
      <trkpt lat="42.758751" lon="1.035397">
        <ele>1600.621</ele>
        <time>2021-06-18T13:17:21Z</time>
      </trkpt>
      <trkpt lat="42.758780" lon="1.035459">
        <ele>1600.713</ele>
        <time>2021-06-18T13:17:26Z</time>
      </trkpt>
      <trkpt lat="42.758836" lon="1.035710">
        <ele>1602.908</ele>
        <time>2021-06-18T13:18:09Z</time>
      </trkpt>
      <trkpt lat="42.758876" lon="1.035801">
        <ele>1602.223</ele>
        <time>2021-06-18T13:18:14Z</time>
      </trkpt>
      <trkpt lat="42.758901" lon="1.035856">
        <ele>1601.692</ele>
        <time>2021-06-18T13:18:17Z</time>
      </trkpt>
      <trkpt lat="42.758917" lon="1.035893">
        <ele>1601.398</ele>
        <time>2021-06-18T13:18:18Z</time>
      </trkpt>
      <trkpt lat="42.758932" lon="1.035937">
        <ele>1601.132</ele>
        <time>2021-06-18T13:18:19Z</time>
      </trkpt>
      <trkpt lat="42.758955" lon="1.036064">
        <ele>1602.126</ele>
        <time>2021-06-18T13:18:22Z</time>
      </trkpt>
      <trkpt lat="42.758947" lon="1.036110">
        <ele>1603.436</ele>
        <time>2021-06-18T13:18:23Z</time>
      </trkpt>
      <trkpt lat="42.758940" lon="1.036242">
        <ele>1605.369</ele>
        <time>2021-06-18T13:18:25Z</time>
      </trkpt>
      <trkpt lat="42.758931" lon="1.036365">
        <ele>1607.226</ele>
        <time>2021-06-18T13:18:27Z</time>
      </trkpt>
      <trkpt lat="42.758964" lon="1.036564">
        <ele>1603.732</ele>
        <time>2021-06-18T13:18:31Z</time>
      </trkpt>
      <trkpt lat="42.758979" lon="1.036617">
        <ele>1602.592</ele>
        <time>2021-06-18T13:18:32Z</time>
      </trkpt>
      <trkpt lat="42.758991" lon="1.036750">
        <ele>1601.911</ele>
        <time>2021-06-18T13:18:35Z</time>
      </trkpt>
      <trkpt lat="42.759031" lon="1.036982">
        <ele>1601.508</ele>
        <time>2021-06-18T13:18:40Z</time>
      </trkpt>
      <trkpt lat="42.759015" lon="1.037288">
        <ele>1602.330</ele>
        <time>2021-06-18T13:18:45Z</time>
      </trkpt>
      <trkpt lat="42.758958" lon="1.037581">
        <ele>1602.729</ele>
        <time>2021-06-18T13:18:49Z</time>
      </trkpt>
      <trkpt lat="42.758916" lon="1.037884">
        <ele>1600.115</ele>
        <time>2021-06-18T13:18:53Z</time>
      </trkpt>
      <trkpt lat="42.758913" lon="1.037954">
        <ele>1599.479</ele>
        <time>2021-06-18T13:18:54Z</time>
      </trkpt>
      <trkpt lat="42.758914" lon="1.038080">
        <ele>1598.383</ele>
        <time>2021-06-18T13:18:56Z</time>
      </trkpt>
      <trkpt lat="42.758919" lon="1.038142">
        <ele>1598.243</ele>
        <time>2021-06-18T13:18:57Z</time>
      </trkpt>
      <trkpt lat="42.758925" lon="1.038202">
        <ele>1598.176</ele>
        <time>2021-06-18T13:18:58Z</time>
      </trkpt>
      <trkpt lat="42.758977" lon="1.038532">
        <ele>1598.813</ele>
        <time>2021-06-18T13:19:04Z</time>
      </trkpt>
      <trkpt lat="42.758991" lon="1.038847">
        <ele>1598.661</ele>
        <time>2021-06-18T13:19:09Z</time>
      </trkpt>
      <trkpt lat="42.758959" lon="1.038967">
        <ele>1598.921</ele>
        <time>2021-06-18T13:19:11Z</time>
      </trkpt>
      <trkpt lat="42.758968" lon="1.039105">
        <ele>1598.613</ele>
        <time>2021-06-18T13:19:13Z</time>
      </trkpt>
      <trkpt lat="42.758989" lon="1.039252">
        <ele>1597.808</ele>
        <time>2021-06-18T13:19:15Z</time>
      </trkpt>
      <trkpt lat="42.758973" lon="1.039407">
        <ele>1597.393</ele>
        <time>2021-06-18T13:19:17Z</time>
      </trkpt>
      <trkpt lat="42.758935" lon="1.039566">
        <ele>1597.612</ele>
        <time>2021-06-18T13:19:19Z</time>
      </trkpt>
      <trkpt lat="42.758901" lon="1.039712">
        <ele>1597.958</ele>
        <time>2021-06-18T13:19:21Z</time>
      </trkpt>
      <trkpt lat="42.758893" lon="1.039785">
        <ele>1597.732</ele>
        <time>2021-06-18T13:19:22Z</time>
      </trkpt>
      <trkpt lat="42.758871" lon="1.039947">
        <ele>1597.346</ele>
        <time>2021-06-18T13:19:24Z</time>
      </trkpt>
      <trkpt lat="42.758801" lon="1.040175">
        <ele>1596.796</ele>
        <time>2021-06-18T13:19:27Z</time>
      </trkpt>
      <trkpt lat="42.758733" lon="1.040314">
        <ele>1596.549</ele>
        <time>2021-06-18T13:19:29Z</time>
      </trkpt>
      <trkpt lat="42.758691" lon="1.040370">
        <ele>1596.586</ele>
        <time>2021-06-18T13:19:30Z</time>
      </trkpt>
      <trkpt lat="42.758642" lon="1.040412">
        <ele>1596.527</ele>
        <time>2021-06-18T13:19:31Z</time>
      </trkpt>
      <trkpt lat="42.758483" lon="1.040586">
        <ele>1596.868</ele>
        <time>2021-06-18T13:19:35Z</time>
      </trkpt>
      <trkpt lat="42.758382" lon="1.040752">
        <ele>1596.914</ele>
        <time>2021-06-18T13:19:39Z</time>
      </trkpt>
      <trkpt lat="42.758363" lon="1.040936">
        <ele>1597.108</ele>
        <time>2021-06-18T13:19:43Z</time>
      </trkpt>
      <trkpt lat="42.758362" lon="1.041007">
        <ele>1597.389</ele>
        <time>2021-06-18T13:19:45Z</time>
      </trkpt>
      <trkpt lat="42.758382" lon="1.041094">
        <ele>1597.338</ele>
        <time>2021-06-18T13:19:48Z</time>
      </trkpt>
      <trkpt lat="42.758405" lon="1.041212">
        <ele>1597.854</ele>
        <time>2021-06-18T13:19:51Z</time>
      </trkpt>
      <trkpt lat="42.758418" lon="1.041329">
        <ele>1598.668</ele>
        <time>2021-06-18T13:19:54Z</time>
      </trkpt>
      <trkpt lat="42.758415" lon="1.041527">
        <ele>1598.342</ele>
        <time>2021-06-18T13:20:00Z</time>
      </trkpt>
      <trkpt lat="42.758401" lon="1.041641">
        <ele>1597.932</ele>
        <time>2021-06-18T13:20:03Z</time>
      </trkpt>
      <trkpt lat="42.758375" lon="1.041744">
        <ele>1598.475</ele>
        <time>2021-06-18T13:20:05Z</time>
      </trkpt>
      <trkpt lat="42.758363" lon="1.041882">
        <ele>1598.912</ele>
        <time>2021-06-18T13:20:08Z</time>
      </trkpt>
      <trkpt lat="42.758368" lon="1.041916">
        <ele>1598.859</ele>
        <time>2021-06-18T13:20:09Z</time>
      </trkpt>
      <trkpt lat="42.758401" lon="1.042039">
        <ele>1598.603</ele>
        <time>2021-06-18T13:20:14Z</time>
      </trkpt>
      <trkpt lat="42.758478" lon="1.042211">
        <ele>1597.723</ele>
        <time>2021-06-18T13:20:20Z</time>
      </trkpt>
      <trkpt lat="42.758591" lon="1.042417">
        <ele>1596.708</ele>
        <time>2021-06-18T13:20:25Z</time>
      </trkpt>
      <trkpt lat="42.758653" lon="1.042563">
        <ele>1596.372</ele>
        <time>2021-06-18T13:20:28Z</time>
      </trkpt>
      <trkpt lat="42.758750" lon="1.042754">
        <ele>1594.791</ele>
        <time>2021-06-18T13:20:32Z</time>
      </trkpt>
      <trkpt lat="42.758770" lon="1.042811">
        <ele>1594.237</ele>
        <time>2021-06-18T13:20:33Z</time>
      </trkpt>
      <trkpt lat="42.758783" lon="1.042868">
        <ele>1593.761</ele>
        <time>2021-06-18T13:20:34Z</time>
      </trkpt>
      <trkpt lat="42.758795" lon="1.042975">
        <ele>1593.335</ele>
        <time>2021-06-18T13:20:36Z</time>
      </trkpt>
      <trkpt lat="42.758840" lon="1.043161">
        <ele>1591.855</ele>
        <time>2021-06-18T13:20:39Z</time>
      </trkpt>
      <trkpt lat="42.758893" lon="1.043288">
        <ele>1590.518</ele>
        <time>2021-06-18T13:20:41Z</time>
      </trkpt>
      <trkpt lat="42.758957" lon="1.043413">
        <ele>1587.875</ele>
        <time>2021-06-18T13:20:43Z</time>
      </trkpt>
      <trkpt lat="42.758995" lon="1.043468">
        <ele>1586.337</ele>
        <time>2021-06-18T13:20:44Z</time>
      </trkpt>
      <trkpt lat="42.759042" lon="1.043539">
        <ele>1584.749</ele>
        <time>2021-06-18T13:20:45Z</time>
      </trkpt>
      <trkpt lat="42.759161" lon="1.043648">
        <ele>1581.413</ele>
        <time>2021-06-18T13:20:47Z</time>
      </trkpt>
      <trkpt lat="42.759205" lon="1.043656">
        <ele>1579.808</ele>
        <time>2021-06-18T13:20:48Z</time>
      </trkpt>
      <trkpt lat="42.759313" lon="1.043714">
        <ele>1577.950</ele>
        <time>2021-06-18T13:20:51Z</time>
      </trkpt>
      <trkpt lat="42.759340" lon="1.043742">
        <ele>1578.249</ele>
        <time>2021-06-18T13:20:52Z</time>
      </trkpt>
      <trkpt lat="42.759350" lon="1.043767">
        <ele>1579.145</ele>
        <time>2021-06-18T13:20:53Z</time>
      </trkpt>
      <trkpt lat="42.759413" lon="1.043906">
        <ele>1583.729</ele>
        <time>2021-06-18T13:20:56Z</time>
      </trkpt>
      <trkpt lat="42.759541" lon="1.044146">
        <ele>1580.013</ele>
        <time>2021-06-18T13:21:00Z</time>
      </trkpt>
      <trkpt lat="42.759584" lon="1.044212">
        <ele>1579.063</ele>
        <time>2021-06-18T13:21:01Z</time>
      </trkpt>
      <trkpt lat="42.759635" lon="1.044279">
        <ele>1578.146</ele>
        <time>2021-06-18T13:21:02Z</time>
      </trkpt>
      <trkpt lat="42.759723" lon="1.044407">
        <ele>1577.333</ele>
        <time>2021-06-18T13:21:04Z</time>
      </trkpt>
      <trkpt lat="42.759762" lon="1.044465">
        <ele>1576.368</ele>
        <time>2021-06-18T13:21:05Z</time>
      </trkpt>
      <trkpt lat="42.759809" lon="1.044531">
        <ele>1575.442</ele>
        <time>2021-06-18T13:21:06Z</time>
      </trkpt>
      <trkpt lat="42.759846" lon="1.044605">
        <ele>1575.326</ele>
        <time>2021-06-18T13:21:07Z</time>
      </trkpt>
      <trkpt lat="42.759874" lon="1.044679">
        <ele>1575.808</ele>
        <time>2021-06-18T13:21:08Z</time>
      </trkpt>
      <trkpt lat="42.759920" lon="1.044816">
        <ele>1576.363</ele>
        <time>2021-06-18T13:21:10Z</time>
      </trkpt>
      <trkpt lat="42.759981" lon="1.045023">
        <ele>1576.072</ele>
        <time>2021-06-18T13:21:13Z</time>
      </trkpt>
      <trkpt lat="42.759992" lon="1.045108">
        <ele>1575.428</ele>
        <time>2021-06-18T13:21:14Z</time>
      </trkpt>
      <trkpt lat="42.759993" lon="1.045190">
        <ele>1575.342</ele>
        <time>2021-06-18T13:21:15Z</time>
      </trkpt>
      <trkpt lat="42.759960" lon="1.045428">
        <ele>1574.476</ele>
        <time>2021-06-18T13:21:18Z</time>
      </trkpt>
      <trkpt lat="42.759946" lon="1.045493">
        <ele>1573.816</ele>
        <time>2021-06-18T13:21:19Z</time>
      </trkpt>
      <trkpt lat="42.759920" lon="1.045619">
        <ele>1572.599</ele>
        <time>2021-06-18T13:21:21Z</time>
      </trkpt>
      <trkpt lat="42.759904" lon="1.045682">
        <ele>1572.016</ele>
        <time>2021-06-18T13:21:22Z</time>
      </trkpt>
      <trkpt lat="42.759888" lon="1.045746">
        <ele>1571.396</ele>
        <time>2021-06-18T13:21:23Z</time>
      </trkpt>
      <trkpt lat="42.759881" lon="1.045887">
        <ele>1569.131</ele>
        <time>2021-06-18T13:21:25Z</time>
      </trkpt>
      <trkpt lat="42.759888" lon="1.045941">
        <ele>1568.124</ele>
        <time>2021-06-18T13:21:26Z</time>
      </trkpt>
      <trkpt lat="42.759899" lon="1.046045">
        <ele>1566.208</ele>
        <time>2021-06-18T13:21:28Z</time>
      </trkpt>
      <trkpt lat="42.759911" lon="1.046214">
        <ele>1565.446</ele>
        <time>2021-06-18T13:21:31Z</time>
      </trkpt>
      <trkpt lat="42.759935" lon="1.046443">
        <ele>1565.925</ele>
        <time>2021-06-18T13:21:36Z</time>
      </trkpt>
      <trkpt lat="42.759940" lon="1.046480">
        <ele>1566.081</ele>
        <time>2021-06-18T13:21:37Z</time>
      </trkpt>
      <trkpt lat="42.759904" lon="1.046664">
        <ele>1568.185</ele>
        <time>2021-06-18T13:21:40Z</time>
      </trkpt>
      <trkpt lat="42.759838" lon="1.046907">
        <ele>1569.929</ele>
        <time>2021-06-18T13:21:44Z</time>
      </trkpt>
      <trkpt lat="42.759834" lon="1.046962">
        <ele>1569.859</ele>
        <time>2021-06-18T13:21:45Z</time>
      </trkpt>
      <trkpt lat="42.759817" lon="1.047141">
        <ele>1568.922</ele>
        <time>2021-06-18T13:21:50Z</time>
      </trkpt>
      <trkpt lat="42.759809" lon="1.047272">
        <ele>1568.229</ele>
        <time>2021-06-18T13:21:55Z</time>
      </trkpt>
      <trkpt lat="42.759804" lon="1.047406">
        <ele>1567.545</ele>
        <time>2021-06-18T13:22:00Z</time>
      </trkpt>
      <trkpt lat="42.759766" lon="1.047621">
        <ele>1567.947</ele>
        <time>2021-06-18T13:22:09Z</time>
      </trkpt>
      <trkpt lat="42.759769" lon="1.047624">
        <ele>1567.811</ele>
        <time>2021-06-18T13:22:10Z</time>
      </trkpt>
      <trkpt lat="42.759755" lon="1.047816">
        <ele>1567.908</ele>
        <time>2021-06-18T13:23:55Z</time>
      </trkpt>
      <trkpt lat="42.759740" lon="1.047879">
        <ele>1567.841</ele>
        <time>2021-06-18T13:23:57Z</time>
      </trkpt>
      <trkpt lat="42.759719" lon="1.048044">
        <ele>1567.270</ele>
        <time>2021-06-18T13:24:02Z</time>
      </trkpt>
      <trkpt lat="42.759711" lon="1.048074">
        <ele>1567.356</ele>
        <time>2021-06-18T13:24:03Z</time>
      </trkpt>
      <trkpt lat="42.759694" lon="1.048185">
        <ele>1567.770</ele>
        <time>2021-06-18T13:24:06Z</time>
      </trkpt>
      <trkpt lat="42.759707" lon="1.048409">
        <ele>1567.174</ele>
        <time>2021-06-18T13:24:10Z</time>
      </trkpt>
      <trkpt lat="42.759714" lon="1.048474">
        <ele>1566.724</ele>
        <time>2021-06-18T13:24:11Z</time>
      </trkpt>
      <trkpt lat="42.759757" lon="1.048915">
        <ele>1565.387</ele>
        <time>2021-06-18T13:24:17Z</time>
      </trkpt>
      <trkpt lat="42.759766" lon="1.048991">
        <ele>1565.394</ele>
        <time>2021-06-18T13:24:18Z</time>
      </trkpt>
      <trkpt lat="42.759769" lon="1.049068">
        <ele>1565.456</ele>
        <time>2021-06-18T13:24:19Z</time>
      </trkpt>
      <trkpt lat="42.759757" lon="1.049219">
        <ele>1565.859</ele>
        <time>2021-06-18T13:24:21Z</time>
      </trkpt>
      <trkpt lat="42.759745" lon="1.049286">
        <ele>1565.814</ele>
        <time>2021-06-18T13:24:22Z</time>
      </trkpt>
      <trkpt lat="42.759716" lon="1.049421">
        <ele>1566.208</ele>
        <time>2021-06-18T13:24:24Z</time>
      </trkpt>
      <trkpt lat="42.759665" lon="1.049646">
        <ele>1564.572</ele>
        <time>2021-06-18T13:24:27Z</time>
      </trkpt>
      <trkpt lat="42.759614" lon="1.049839">
        <ele>1562.871</ele>
        <time>2021-06-18T13:24:29Z</time>
      </trkpt>
      <trkpt lat="42.759558" lon="1.050059">
        <ele>1560.787</ele>
        <time>2021-06-18T13:24:31Z</time>
      </trkpt>
      <trkpt lat="42.759464" lon="1.050397">
        <ele>1559.421</ele>
        <time>2021-06-18T13:24:34Z</time>
      </trkpt>
      <trkpt lat="42.759433" lon="1.050502">
        <ele>1559.385</ele>
        <time>2021-06-18T13:24:35Z</time>
      </trkpt>
      <trkpt lat="42.759414" lon="1.050604">
        <ele>1559.135</ele>
        <time>2021-06-18T13:24:36Z</time>
      </trkpt>
      <trkpt lat="42.759394" lon="1.050706">
        <ele>1559.398</ele>
        <time>2021-06-18T13:24:37Z</time>
      </trkpt>
      <trkpt lat="42.759364" lon="1.050898">
        <ele>1559.175</ele>
        <time>2021-06-18T13:24:39Z</time>
      </trkpt>
      <trkpt lat="42.759353" lon="1.050979">
        <ele>1559.115</ele>
        <time>2021-06-18T13:24:40Z</time>
      </trkpt>
      <trkpt lat="42.759351" lon="1.051208">
        <ele>1557.965</ele>
        <time>2021-06-18T13:24:43Z</time>
      </trkpt>
      <trkpt lat="42.759363" lon="1.051368">
        <ele>1556.711</ele>
        <time>2021-06-18T13:24:45Z</time>
      </trkpt>
      <trkpt lat="42.759369" lon="1.051518">
        <ele>1556.108</ele>
        <time>2021-06-18T13:24:47Z</time>
      </trkpt>
      <trkpt lat="42.759359" lon="1.051595">
        <ele>1556.328</ele>
        <time>2021-06-18T13:24:48Z</time>
      </trkpt>
      <trkpt lat="42.759353" lon="1.051671">
        <ele>1556.347</ele>
        <time>2021-06-18T13:24:49Z</time>
      </trkpt>
      <trkpt lat="42.759358" lon="1.052014">
        <ele>1555.093</ele>
        <time>2021-06-18T13:24:53Z</time>
      </trkpt>
      <trkpt lat="42.759342" lon="1.052481">
        <ele>1554.027</ele>
        <time>2021-06-18T13:24:58Z</time>
      </trkpt>
      <trkpt lat="42.759324" lon="1.052563">
        <ele>1554.071</ele>
        <time>2021-06-18T13:24:59Z</time>
      </trkpt>
      <trkpt lat="42.759290" lon="1.052796">
        <ele>1553.381</ele>
        <time>2021-06-18T13:25:02Z</time>
      </trkpt>
      <trkpt lat="42.759292" lon="1.052906">
        <ele>1552.424</ele>
        <time>2021-06-18T13:25:03Z</time>
      </trkpt>
      <trkpt lat="42.759303" lon="1.053023">
        <ele>1551.391</ele>
        <time>2021-06-18T13:25:04Z</time>
      </trkpt>
      <trkpt lat="42.759340" lon="1.053249">
        <ele>1550.716</ele>
        <time>2021-06-18T13:25:06Z</time>
      </trkpt>
      <trkpt lat="42.759359" lon="1.053399">
        <ele>1550.976</ele>
        <time>2021-06-18T13:25:07Z</time>
      </trkpt>
      <trkpt lat="42.759379" lon="1.053524">
        <ele>1551.213</ele>
        <time>2021-06-18T13:25:08Z</time>
      </trkpt>
      <trkpt lat="42.759393" lon="1.053614">
        <ele>1551.608</ele>
        <time>2021-06-18T13:25:09Z</time>
      </trkpt>
      <trkpt lat="42.759400" lon="1.053692">
        <ele>1551.388</ele>
        <time>2021-06-18T13:25:10Z</time>
      </trkpt>
      <trkpt lat="42.759402" lon="1.053761">
        <ele>1551.297</ele>
        <time>2021-06-18T13:25:11Z</time>
      </trkpt>
      <trkpt lat="42.759399" lon="1.053825">
        <ele>1551.173</ele>
        <time>2021-06-18T13:25:12Z</time>
      </trkpt>
      <trkpt lat="42.759389" lon="1.053894">
        <ele>1551.167</ele>
        <time>2021-06-18T13:25:13Z</time>
      </trkpt>
      <trkpt lat="42.759370" lon="1.053968">
        <ele>1550.881</ele>
        <time>2021-06-18T13:25:14Z</time>
      </trkpt>
      <trkpt lat="42.759349" lon="1.054324">
        <ele>1549.351</ele>
        <time>2021-06-18T13:25:18Z</time>
      </trkpt>
      <trkpt lat="42.759391" lon="1.054686">
        <ele>1548.354</ele>
        <time>2021-06-18T13:25:22Z</time>
      </trkpt>
      <trkpt lat="42.759396" lon="1.054788">
        <ele>1548.631</ele>
        <time>2021-06-18T13:25:23Z</time>
      </trkpt>
      <trkpt lat="42.759411" lon="1.054890">
        <ele>1548.917</ele>
        <time>2021-06-18T13:25:24Z</time>
      </trkpt>
      <trkpt lat="42.759468" lon="1.055050">
        <ele>1549.587</ele>
        <time>2021-06-18T13:25:26Z</time>
      </trkpt>
      <trkpt lat="42.759566" lon="1.055255">
        <ele>1551.815</ele>
        <time>2021-06-18T13:25:30Z</time>
      </trkpt>
      <trkpt lat="42.759622" lon="1.055417">
        <ele>1552.408</ele>
        <time>2021-06-18T13:25:35Z</time>
      </trkpt>
      <trkpt lat="42.759648" lon="1.055488">
        <ele>1552.528</ele>
        <time>2021-06-18T13:25:37Z</time>
      </trkpt>
      <trkpt lat="42.759659" lon="1.055620">
        <ele>1552.397</ele>
        <time>2021-06-18T13:25:40Z</time>
      </trkpt>
      <trkpt lat="42.759644" lon="1.055722">
        <ele>1551.823</ele>
        <time>2021-06-18T13:25:42Z</time>
      </trkpt>
      <trkpt lat="42.759614" lon="1.055836">
        <ele>1551.557</ele>
        <time>2021-06-18T13:25:44Z</time>
      </trkpt>
      <trkpt lat="42.759601" lon="1.055908">
        <ele>1551.511</ele>
        <time>2021-06-18T13:25:45Z</time>
      </trkpt>
      <trkpt lat="42.759589" lon="1.056158">
        <ele>1550.831</ele>
        <time>2021-06-18T13:25:48Z</time>
      </trkpt>
      <trkpt lat="42.759594" lon="1.056247">
        <ele>1550.474</ele>
        <time>2021-06-18T13:25:49Z</time>
      </trkpt>
      <trkpt lat="42.759604" lon="1.056332">
        <ele>1549.991</ele>
        <time>2021-06-18T13:25:50Z</time>
      </trkpt>
      <trkpt lat="42.759642" lon="1.056492">
        <ele>1549.045</ele>
        <time>2021-06-18T13:25:52Z</time>
      </trkpt>
      <trkpt lat="42.759658" lon="1.056573">
        <ele>1548.847</ele>
        <time>2021-06-18T13:25:53Z</time>
      </trkpt>
      <trkpt lat="42.759668" lon="1.056657">
        <ele>1548.611</ele>
        <time>2021-06-18T13:25:54Z</time>
      </trkpt>
      <trkpt lat="42.759674" lon="1.056834">
        <ele>1548.408</ele>
        <time>2021-06-18T13:25:56Z</time>
      </trkpt>
      <trkpt lat="42.759672" lon="1.056926">
        <ele>1548.441</ele>
        <time>2021-06-18T13:25:57Z</time>
      </trkpt>
      <trkpt lat="42.759662" lon="1.057013">
        <ele>1548.420</ele>
        <time>2021-06-18T13:25:58Z</time>
      </trkpt>
      <trkpt lat="42.759647" lon="1.057099">
        <ele>1548.596</ele>
        <time>2021-06-18T13:25:59Z</time>
      </trkpt>
      <trkpt lat="42.759640" lon="1.057178">
        <ele>1548.640</ele>
        <time>2021-06-18T13:26:00Z</time>
      </trkpt>
      <trkpt lat="42.759649" lon="1.057253">
        <ele>1548.824</ele>
        <time>2021-06-18T13:26:01Z</time>
      </trkpt>
      <trkpt lat="42.759677" lon="1.057434">
        <ele>1550.124</ele>
        <time>2021-06-18T13:26:04Z</time>
      </trkpt>
      <trkpt lat="42.759682" lon="1.057479">
        <ele>1550.467</ele>
        <time>2021-06-18T13:26:05Z</time>
      </trkpt>
      <trkpt lat="42.759714" lon="1.057623">
        <ele>1551.084</ele>
        <time>2021-06-18T13:26:10Z</time>
      </trkpt>
      <trkpt lat="42.759720" lon="1.057635">
        <ele>1551.054</ele>
        <time>2021-06-18T13:26:13Z</time>
      </trkpt>
      <trkpt lat="42.759726" lon="1.057654">
        <ele>1551.156</ele>
        <time>2021-06-18T13:27:40Z</time>
      </trkpt>
      <trkpt lat="42.759748" lon="1.057809">
        <ele>1551.811</ele>
        <time>2021-06-18T13:27:46Z</time>
      </trkpt>
      <trkpt lat="42.759753" lon="1.058082">
        <ele>1552.908</ele>
        <time>2021-06-18T13:27:54Z</time>
      </trkpt>
      <trkpt lat="42.759748" lon="1.058138">
        <ele>1553.292</ele>
        <time>2021-06-18T13:27:56Z</time>
      </trkpt>
      <trkpt lat="42.759717" lon="1.058265">
        <ele>1553.851</ele>
        <time>2021-06-18T13:28:00Z</time>
      </trkpt>
      <trkpt lat="42.759695" lon="1.058407">
        <ele>1554.527</ele>
        <time>2021-06-18T13:28:04Z</time>
      </trkpt>
      <trkpt lat="42.759684" lon="1.058559">
        <ele>1554.931</ele>
        <time>2021-06-18T13:28:08Z</time>
      </trkpt>
      <trkpt lat="42.759696" lon="1.058731">
        <ele>1553.935</ele>
        <time>2021-06-18T13:28:11Z</time>
      </trkpt>
      <trkpt lat="42.759732" lon="1.058856">
        <ele>1552.365</ele>
        <time>2021-06-18T13:28:13Z</time>
      </trkpt>
      <trkpt lat="42.759757" lon="1.058928">
        <ele>1551.958</ele>
        <time>2021-06-18T13:28:14Z</time>
      </trkpt>
      <trkpt lat="42.759838" lon="1.059143">
        <ele>1550.015</ele>
        <time>2021-06-18T13:28:17Z</time>
      </trkpt>
      <trkpt lat="42.759869" lon="1.059252">
        <ele>1548.984</ele>
        <time>2021-06-18T13:28:19Z</time>
      </trkpt>
      <trkpt lat="42.759902" lon="1.059362">
        <ele>1547.707</ele>
        <time>2021-06-18T13:28:21Z</time>
      </trkpt>
      <trkpt lat="42.759932" lon="1.059512">
        <ele>1546.017</ele>
        <time>2021-06-18T13:28:23Z</time>
      </trkpt>
      <trkpt lat="42.759946" lon="1.059589">
        <ele>1545.208</ele>
        <time>2021-06-18T13:28:24Z</time>
      </trkpt>
      <trkpt lat="42.759964" lon="1.059665">
        <ele>1544.395</ele>
        <time>2021-06-18T13:28:25Z</time>
      </trkpt>
      <trkpt lat="42.759976" lon="1.059733">
        <ele>1543.694</ele>
        <time>2021-06-18T13:28:26Z</time>
      </trkpt>
      <trkpt lat="42.759990" lon="1.059781">
        <ele>1543.360</ele>
        <time>2021-06-18T13:28:27Z</time>
      </trkpt>
      <trkpt lat="42.759989" lon="1.059820">
        <ele>1543.394</ele>
        <time>2021-06-18T13:28:28Z</time>
      </trkpt>
      <trkpt lat="42.759985" lon="1.059858">
        <ele>1543.418</ele>
        <time>2021-06-18T13:28:29Z</time>
      </trkpt>
      <trkpt lat="42.759978" lon="1.059950">
        <ele>1543.778</ele>
        <time>2021-06-18T13:28:31Z</time>
      </trkpt>
      <trkpt lat="42.759974" lon="1.060040">
        <ele>1543.691</ele>
        <time>2021-06-18T13:28:33Z</time>
      </trkpt>
      <trkpt lat="42.759976" lon="1.060082">
        <ele>1543.298</ele>
        <time>2021-06-18T13:28:34Z</time>
      </trkpt>
      <trkpt lat="42.759951" lon="1.060196">
        <ele>1543.332</ele>
        <time>2021-06-18T13:28:37Z</time>
      </trkpt>
      <trkpt lat="42.759920" lon="1.060302">
        <ele>1543.692</ele>
        <time>2021-06-18T13:28:39Z</time>
      </trkpt>
      <trkpt lat="42.759905" lon="1.060450">
        <ele>1542.511</ele>
        <time>2021-06-18T13:28:41Z</time>
      </trkpt>
      <trkpt lat="42.759892" lon="1.060610">
        <ele>1541.108</ele>
        <time>2021-06-18T13:28:43Z</time>
      </trkpt>
      <trkpt lat="42.759890" lon="1.060697">
        <ele>1540.020</ele>
        <time>2021-06-18T13:28:44Z</time>
      </trkpt>
      <trkpt lat="42.759854" lon="1.061163">
        <ele>1538.149</ele>
        <time>2021-06-18T13:28:49Z</time>
      </trkpt>
      <trkpt lat="42.759838" lon="1.061416">
        <ele>1538.175</ele>
        <time>2021-06-18T13:28:52Z</time>
      </trkpt>
      <trkpt lat="42.759834" lon="1.061461">
        <ele>1538.299</ele>
        <time>2021-06-18T13:28:53Z</time>
      </trkpt>
      <trkpt lat="42.759790" lon="1.061774">
        <ele>1538.333</ele>
        <time>2021-06-18T13:28:58Z</time>
      </trkpt>
      <trkpt lat="42.759711" lon="1.062019">
        <ele>1537.923</ele>
        <time>2021-06-18T13:29:01Z</time>
      </trkpt>
      <trkpt lat="42.759688" lon="1.062097">
        <ele>1537.226</ele>
        <time>2021-06-18T13:29:02Z</time>
      </trkpt>
      <trkpt lat="42.759590" lon="1.062476">
        <ele>1535.133</ele>
        <time>2021-06-18T13:29:06Z</time>
      </trkpt>
      <trkpt lat="42.759558" lon="1.062562">
        <ele>1534.578</ele>
        <time>2021-06-18T13:29:07Z</time>
      </trkpt>
      <trkpt lat="42.759519" lon="1.062641">
        <ele>1533.933</ele>
        <time>2021-06-18T13:29:08Z</time>
      </trkpt>
      <trkpt lat="42.759421" lon="1.062806">
        <ele>1533.226</ele>
        <time>2021-06-18T13:29:10Z</time>
      </trkpt>
      <trkpt lat="42.759366" lon="1.062897">
        <ele>1533.108</ele>
        <time>2021-06-18T13:29:11Z</time>
      </trkpt>
      <trkpt lat="42.759320" lon="1.062989">
        <ele>1532.884</ele>
        <time>2021-06-18T13:29:12Z</time>
      </trkpt>
      <trkpt lat="42.759216" lon="1.063247">
        <ele>1531.693</ele>
        <time>2021-06-18T13:29:15Z</time>
      </trkpt>
      <trkpt lat="42.759113" lon="1.063461">
        <ele>1531.859</ele>
        <time>2021-06-18T13:29:18Z</time>
      </trkpt>
      <trkpt lat="42.759084" lon="1.063521">
        <ele>1531.833</ele>
        <time>2021-06-18T13:29:19Z</time>
      </trkpt>
      <trkpt lat="42.759050" lon="1.063582">
        <ele>1531.887</ele>
        <time>2021-06-18T13:29:20Z</time>
      </trkpt>
      <trkpt lat="42.758945" lon="1.063755">
        <ele>1531.587</ele>
        <time>2021-06-18T13:29:23Z</time>
      </trkpt>
      <trkpt lat="42.758914" lon="1.063823">
        <ele>1531.370</ele>
        <time>2021-06-18T13:29:24Z</time>
      </trkpt>
      <trkpt lat="42.758812" lon="1.064101">
        <ele>1531.557</ele>
        <time>2021-06-18T13:29:29Z</time>
      </trkpt>
      <trkpt lat="42.758771" lon="1.064179">
        <ele>1532.226</ele>
        <time>2021-06-18T13:29:33Z</time>
      </trkpt>
      <trkpt lat="42.758762" lon="1.064239">
        <ele>1531.047</ele>
        <time>2021-06-18T13:29:37Z</time>
      </trkpt>
      <trkpt lat="42.758762" lon="1.064253">
        <ele>1530.711</ele>
        <time>2021-06-18T13:29:38Z</time>
      </trkpt>
      <trkpt lat="42.758755" lon="1.064286">
        <ele>1530.208</ele>
        <time>2021-06-18T13:29:40Z</time>
      </trkpt>
      <trkpt lat="42.758745" lon="1.064318">
        <ele>1530.029</ele>
        <time>2021-06-18T13:29:42Z</time>
      </trkpt>
      <trkpt lat="42.758732" lon="1.064376">
        <ele>1529.548</ele>
        <time>2021-06-18T13:29:46Z</time>
      </trkpt>
      <trkpt lat="42.758726" lon="1.064392">
        <ele>1529.574</ele>
        <time>2021-06-18T13:29:47Z</time>
      </trkpt>
      <trkpt lat="42.758694" lon="1.064463">
        <ele>1530.358</ele>
        <time>2021-06-18T13:29:51Z</time>
      </trkpt>
      <trkpt lat="42.758657" lon="1.064569">
        <ele>1531.192</ele>
        <time>2021-06-18T13:29:57Z</time>
      </trkpt>
      <trkpt lat="42.758650" lon="1.064583">
        <ele>1531.422</ele>
        <time>2021-06-18T13:29:58Z</time>
      </trkpt>
      <trkpt lat="42.758584" lon="1.064692">
        <ele>1534.435</ele>
        <time>2021-06-18T13:30:03Z</time>
      </trkpt>
      <trkpt lat="42.758541" lon="1.064759">
        <ele>1535.972</ele>
        <time>2021-06-18T13:30:07Z</time>
      </trkpt>
      <trkpt lat="42.758498" lon="1.064821">
        <ele>1537.583</ele>
        <time>2021-06-18T13:30:11Z</time>
      </trkpt>
      <trkpt lat="42.758461" lon="1.064882">
        <ele>1538.925</ele>
        <time>2021-06-18T13:30:14Z</time>
      </trkpt>
      <trkpt lat="42.758431" lon="1.064945">
        <ele>1539.717</ele>
        <time>2021-06-18T13:30:17Z</time>
      </trkpt>
      <trkpt lat="42.758410" lon="1.064995">
        <ele>1540.308</ele>
        <time>2021-06-18T13:30:20Z</time>
      </trkpt>
      <trkpt lat="42.758404" lon="1.065011">
        <ele>1540.525</ele>
        <time>2021-06-18T13:30:21Z</time>
      </trkpt>
      <trkpt lat="42.758396" lon="1.065026">
        <ele>1540.924</ele>
        <time>2021-06-18T13:30:22Z</time>
      </trkpt>
      <trkpt lat="42.758363" lon="1.065110">
        <ele>1542.450</ele>
        <time>2021-06-18T13:30:27Z</time>
      </trkpt>
      <trkpt lat="42.758361" lon="1.065129">
        <ele>1542.334</ele>
        <time>2021-06-18T13:30:28Z</time>
      </trkpt>
      <trkpt lat="42.758365" lon="1.065146">
        <ele>1541.888</ele>
        <time>2021-06-18T13:30:29Z</time>
      </trkpt>
      <trkpt lat="42.758351" lon="1.065219">
        <ele>1542.198</ele>
        <time>2021-06-18T13:30:33Z</time>
      </trkpt>
      <trkpt lat="42.758336" lon="1.065299">
        <ele>1542.611</ele>
        <time>2021-06-18T13:30:37Z</time>
      </trkpt>
      <trkpt lat="42.758322" lon="1.065344">
        <ele>1543.468</ele>
        <time>2021-06-18T13:30:39Z</time>
      </trkpt>
      <trkpt lat="42.758292" lon="1.065487">
        <ele>1544.681</ele>
        <time>2021-06-18T13:30:46Z</time>
      </trkpt>
      <trkpt lat="42.758288" lon="1.065511">
        <ele>1544.761</ele>
        <time>2021-06-18T13:30:47Z</time>
      </trkpt>
      <trkpt lat="42.758267" lon="1.065648">
        <ele>1544.817</ele>
        <time>2021-06-18T13:30:52Z</time>
      </trkpt>
      <trkpt lat="42.758260" lon="1.065703">
        <ele>1544.708</ele>
        <time>2021-06-18T13:30:54Z</time>
      </trkpt>
      <trkpt lat="42.758251" lon="1.065732">
        <ele>1545.165</ele>
        <time>2021-06-18T13:30:55Z</time>
      </trkpt>
      <trkpt lat="42.758212" lon="1.065859">
        <ele>1546.574</ele>
        <time>2021-06-18T13:30:59Z</time>
      </trkpt>
      <trkpt lat="42.758163" lon="1.065972">
        <ele>1548.190</ele>
        <time>2021-06-18T13:31:04Z</time>
      </trkpt>
      <trkpt lat="42.758150" lon="1.065994">
        <ele>1548.754</ele>
        <time>2021-06-18T13:31:05Z</time>
      </trkpt>
      <trkpt lat="42.758111" lon="1.066072">
        <ele>1550.368</ele>
        <time>2021-06-18T13:31:09Z</time>
      </trkpt>
      <trkpt lat="42.758104" lon="1.066093">
        <ele>1550.448</ele>
        <time>2021-06-18T13:31:10Z</time>
      </trkpt>
      <trkpt lat="42.758082" lon="1.066178">
        <ele>1551.151</ele>
        <time>2021-06-18T13:31:14Z</time>
      </trkpt>
      <trkpt lat="42.758072" lon="1.066203">
        <ele>1551.768</ele>
        <time>2021-06-18T13:31:15Z</time>
      </trkpt>
      <trkpt lat="42.758052" lon="1.066335">
        <ele>1551.898</ele>
        <time>2021-06-18T13:31:21Z</time>
      </trkpt>
      <trkpt lat="42.758040" lon="1.066380">
        <ele>1552.215</ele>
        <time>2021-06-18T13:31:23Z</time>
      </trkpt>
      <trkpt lat="42.758042" lon="1.066503">
        <ele>1554.026</ele>
        <time>2021-06-18T13:31:28Z</time>
      </trkpt>
      <trkpt lat="42.758046" lon="1.066524">
        <ele>1554.108</ele>
        <time>2021-06-18T13:31:29Z</time>
      </trkpt>
      <trkpt lat="42.758057" lon="1.066641">
        <ele>1555.416</ele>
        <time>2021-06-18T13:31:35Z</time>
      </trkpt>
      <trkpt lat="42.758065" lon="1.066701">
        <ele>1556.045</ele>
        <time>2021-06-18T13:31:39Z</time>
      </trkpt>
      <trkpt lat="42.758068" lon="1.066737">
        <ele>1556.521</ele>
        <time>2021-06-18T13:31:41Z</time>
      </trkpt>
      <trkpt lat="42.758074" lon="1.066764">
        <ele>1556.625</ele>
        <time>2021-06-18T13:31:43Z</time>
      </trkpt>
      <trkpt lat="42.758074" lon="1.066837">
        <ele>1558.299</ele>
        <time>2021-06-18T13:31:48Z</time>
      </trkpt>
      <trkpt lat="42.758080" lon="1.066909">
        <ele>1559.249</ele>
        <time>2021-06-18T13:31:52Z</time>
      </trkpt>
      <trkpt lat="42.758099" lon="1.066989">
        <ele>1559.512</ele>
        <time>2021-06-18T13:31:57Z</time>
      </trkpt>
      <trkpt lat="42.758108" lon="1.067054">
        <ele>1560.359</ele>
        <time>2021-06-18T13:32:00Z</time>
      </trkpt>
      <trkpt lat="42.758122" lon="1.067106">
        <ele>1560.484</ele>
        <time>2021-06-18T13:32:03Z</time>
      </trkpt>
      <trkpt lat="42.758142" lon="1.067204">
        <ele>1561.107</ele>
        <time>2021-06-18T13:32:08Z</time>
      </trkpt>
      <trkpt lat="42.758152" lon="1.067266">
        <ele>1561.117</ele>
        <time>2021-06-18T13:32:12Z</time>
      </trkpt>
      <trkpt lat="42.758152" lon="1.067297">
        <ele>1561.408</ele>
        <time>2021-06-18T13:32:14Z</time>
      </trkpt>
      <trkpt lat="42.758157" lon="1.067418">
        <ele>1562.155</ele>
        <time>2021-06-18T13:32:20Z</time>
      </trkpt>
      <trkpt lat="42.758150" lon="1.067483">
        <ele>1563.314</ele>
        <time>2021-06-18T13:32:22Z</time>
      </trkpt>
      <trkpt lat="42.758132" lon="1.067695">
        <ele>1566.080</ele>
        <time>2021-06-18T13:32:27Z</time>
      </trkpt>
      <trkpt lat="42.758123" lon="1.067944">
        <ele>1567.374</ele>
        <time>2021-06-18T13:32:32Z</time>
      </trkpt>
      <trkpt lat="42.758103" lon="1.068200">
        <ele>1570.258</ele>
        <time>2021-06-18T13:32:38Z</time>
      </trkpt>
      <trkpt lat="42.758101" lon="1.068272">
        <ele>1570.918</ele>
        <time>2021-06-18T13:32:40Z</time>
      </trkpt>
      <trkpt lat="42.758106" lon="1.068345">
        <ele>1571.031</ele>
        <time>2021-06-18T13:32:42Z</time>
      </trkpt>
      <trkpt lat="42.758110" lon="1.068552">
        <ele>1571.328</ele>
        <time>2021-06-18T13:32:47Z</time>
      </trkpt>
      <trkpt lat="42.758110" lon="1.068590">
        <ele>1571.483</ele>
        <time>2021-06-18T13:32:48Z</time>
      </trkpt>
      <trkpt lat="42.758153" lon="1.068797">
        <ele>1567.925</ele>
        <time>2021-06-18T13:32:53Z</time>
      </trkpt>
      <trkpt lat="42.758161" lon="1.069078">
        <ele>1568.417</ele>
        <time>2021-06-18T13:32:58Z</time>
      </trkpt>
      <trkpt lat="42.758164" lon="1.069142">
        <ele>1568.508</ele>
        <time>2021-06-18T13:32:59Z</time>
      </trkpt>
      <trkpt lat="42.758176" lon="1.069388">
        <ele>1568.985</ele>
        <time>2021-06-18T13:33:04Z</time>
      </trkpt>
      <trkpt lat="42.758181" lon="1.069605">
        <ele>1569.764</ele>
        <time>2021-06-18T13:33:09Z</time>
      </trkpt>
      <trkpt lat="42.758188" lon="1.069804">
        <ele>1570.540</ele>
        <time>2021-06-18T13:33:14Z</time>
      </trkpt>
      <trkpt lat="42.758186" lon="1.070062">
        <ele>1573.324</ele>
        <time>2021-06-18T13:33:19Z</time>
      </trkpt>
      <trkpt lat="42.758163" lon="1.070117">
        <ele>1576.028</ele>
        <time>2021-06-18T13:33:20Z</time>
      </trkpt>
      <trkpt lat="42.758162" lon="1.070406">
        <ele>1577.258</ele>
        <time>2021-06-18T13:33:24Z</time>
      </trkpt>
      <trkpt lat="42.758206" lon="1.070738">
        <ele>1572.651</ele>
        <time>2021-06-18T13:33:28Z</time>
      </trkpt>
      <trkpt lat="42.758223" lon="1.070842">
        <ele>1570.938</ele>
        <time>2021-06-18T13:33:29Z</time>
      </trkpt>
      <trkpt lat="42.758244" lon="1.071024">
        <ele>1569.348</ele>
        <time>2021-06-18T13:33:31Z</time>
      </trkpt>
      <trkpt lat="42.758252" lon="1.071224">
        <ele>1568.661</ele>
        <time>2021-06-18T13:33:33Z</time>
      </trkpt>
      <trkpt lat="42.758252" lon="1.071326">
        <ele>1568.517</ele>
        <time>2021-06-18T13:33:34Z</time>
      </trkpt>
      <trkpt lat="42.758246" lon="1.071438">
        <ele>1568.508</ele>
        <time>2021-06-18T13:33:35Z</time>
      </trkpt>
      <trkpt lat="42.758206" lon="1.071665">
        <ele>1569.651</ele>
        <time>2021-06-18T13:33:37Z</time>
      </trkpt>
      <trkpt lat="42.758169" lon="1.071919">
        <ele>1567.330</ele>
        <time>2021-06-18T13:33:39Z</time>
      </trkpt>
      <trkpt lat="42.758110" lon="1.072360">
        <ele>1561.636</ele>
        <time>2021-06-18T13:33:42Z</time>
      </trkpt>
      <trkpt lat="42.758094" lon="1.072623">
        <ele>1559.130</ele>
        <time>2021-06-18T13:33:44Z</time>
      </trkpt>
      <trkpt lat="42.758081" lon="1.072851">
        <ele>1558.684</ele>
        <time>2021-06-18T13:33:46Z</time>
      </trkpt>
      <trkpt lat="42.758088" lon="1.072948">
        <ele>1557.784</ele>
        <time>2021-06-18T13:33:47Z</time>
      </trkpt>
      <trkpt lat="42.758086" lon="1.073036">
        <ele>1557.567</ele>
        <time>2021-06-18T13:33:48Z</time>
      </trkpt>
      <trkpt lat="42.758078" lon="1.073121">
        <ele>1557.984</ele>
        <time>2021-06-18T13:33:49Z</time>
      </trkpt>
      <trkpt lat="42.758065" lon="1.073373">
        <ele>1558.413</ele>
        <time>2021-06-18T13:33:53Z</time>
      </trkpt>
      <trkpt lat="42.758058" lon="1.073544">
        <ele>1559.643</ele>
        <time>2021-06-18T13:33:58Z</time>
      </trkpt>
      <trkpt lat="42.758051" lon="1.073571">
        <ele>1560.307</ele>
        <time>2021-06-18T13:33:59Z</time>
      </trkpt>
      <trkpt lat="42.758049" lon="1.073646">
        <ele>1560.508</ele>
        <time>2021-06-18T13:34:01Z</time>
      </trkpt>
      <trkpt lat="42.758045" lon="1.073710">
        <ele>1560.658</ele>
        <time>2021-06-18T13:34:03Z</time>
      </trkpt>
      <trkpt lat="42.758041" lon="1.073739">
        <ele>1560.937</ele>
        <time>2021-06-18T13:34:04Z</time>
      </trkpt>
      <trkpt lat="42.758031" lon="1.073885">
        <ele>1561.133</ele>
        <time>2021-06-18T13:34:09Z</time>
      </trkpt>
      <trkpt lat="42.758027" lon="1.073914">
        <ele>1561.317</ele>
        <time>2021-06-18T13:34:10Z</time>
      </trkpt>
      <trkpt lat="42.758032" lon="1.074009">
        <ele>1560.351</ele>
        <time>2021-06-18T13:34:14Z</time>
      </trkpt>
      <trkpt lat="42.758054" lon="1.074106">
        <ele>1558.331</ele>
        <time>2021-06-18T13:34:18Z</time>
      </trkpt>
      <trkpt lat="42.758059" lon="1.074156">
        <ele>1557.814</ele>
        <time>2021-06-18T13:34:20Z</time>
      </trkpt>
      <trkpt lat="42.758061" lon="1.074182">
        <ele>1558.051</ele>
        <time>2021-06-18T13:34:21Z</time>
      </trkpt>
      <trkpt lat="42.758093" lon="1.074273">
        <ele>1558.173</ele>
        <time>2021-06-18T13:34:24Z</time>
      </trkpt>
      <trkpt lat="42.758103" lon="1.074325">
        <ele>1558.685</ele>
        <time>2021-06-18T13:34:26Z</time>
      </trkpt>
      <trkpt lat="42.758114" lon="1.074419">
        <ele>1559.713</ele>
        <time>2021-06-18T13:34:30Z</time>
      </trkpt>
      <trkpt lat="42.758120" lon="1.074484">
        <ele>1560.208</ele>
        <time>2021-06-18T13:34:33Z</time>
      </trkpt>
      <trkpt lat="42.758121" lon="1.074522">
        <ele>1560.594</ele>
        <time>2021-06-18T13:34:35Z</time>
      </trkpt>
      <trkpt lat="42.758113" lon="1.074652">
        <ele>1562.263</ele>
        <time>2021-06-18T13:34:39Z</time>
      </trkpt>
      <trkpt lat="42.758110" lon="1.074717">
        <ele>1563.089</ele>
        <time>2021-06-18T13:34:41Z</time>
      </trkpt>
      <trkpt lat="42.758071" lon="1.074854">
        <ele>1565.913</ele>
        <time>2021-06-18T13:34:45Z</time>
      </trkpt>
      <trkpt lat="42.758054" lon="1.075045">
        <ele>1566.747</ele>
        <time>2021-06-18T13:34:49Z</time>
      </trkpt>
      <trkpt lat="42.758013" lon="1.075273">
        <ele>1565.637</ele>
        <time>2021-06-18T13:34:54Z</time>
      </trkpt>
      <trkpt lat="42.757984" lon="1.075445">
        <ele>1564.430</ele>
        <time>2021-06-18T13:34:57Z</time>
      </trkpt>
      <trkpt lat="42.757935" lon="1.075576">
        <ele>1564.067</ele>
        <time>2021-06-18T13:34:59Z</time>
      </trkpt>
      <trkpt lat="42.757859" lon="1.075776">
        <ele>1563.475</ele>
        <time>2021-06-18T13:35:02Z</time>
      </trkpt>
      <trkpt lat="42.757850" lon="1.075845">
        <ele>1562.928</ele>
        <time>2021-06-18T13:35:03Z</time>
      </trkpt>
      <trkpt lat="42.757852" lon="1.075919">
        <ele>1562.620</ele>
        <time>2021-06-18T13:35:04Z</time>
      </trkpt>
      <trkpt lat="42.757872" lon="1.076069">
        <ele>1561.808</ele>
        <time>2021-06-18T13:35:06Z</time>
      </trkpt>
      <trkpt lat="42.757895" lon="1.076241">
        <ele>1560.644</ele>
        <time>2021-06-18T13:35:08Z</time>
      </trkpt>
      <trkpt lat="42.757897" lon="1.076315">
        <ele>1560.163</ele>
        <time>2021-06-18T13:35:09Z</time>
      </trkpt>
      <trkpt lat="42.757882" lon="1.076449">
        <ele>1558.969</ele>
        <time>2021-06-18T13:35:11Z</time>
      </trkpt>
      <trkpt lat="42.757876" lon="1.076518">
        <ele>1558.193</ele>
        <time>2021-06-18T13:35:12Z</time>
      </trkpt>
      <trkpt lat="42.757873" lon="1.076593">
        <ele>1557.247</ele>
        <time>2021-06-18T13:35:13Z</time>
      </trkpt>
      <trkpt lat="42.757863" lon="1.076725">
        <ele>1555.797</ele>
        <time>2021-06-18T13:35:15Z</time>
      </trkpt>
      <trkpt lat="42.757837" lon="1.076886">
        <ele>1554.090</ele>
        <time>2021-06-18T13:35:17Z</time>
      </trkpt>
      <trkpt lat="42.757801" lon="1.077099">
        <ele>1552.187</ele>
        <time>2021-06-18T13:35:19Z</time>
      </trkpt>
      <trkpt lat="42.757778" lon="1.077209">
        <ele>1551.198</ele>
        <time>2021-06-18T13:35:20Z</time>
      </trkpt>
      <trkpt lat="42.757765" lon="1.077316">
        <ele>1550.915</ele>
        <time>2021-06-18T13:35:21Z</time>
      </trkpt>
      <trkpt lat="42.757754" lon="1.077419">
        <ele>1550.626</ele>
        <time>2021-06-18T13:35:22Z</time>
      </trkpt>
      <trkpt lat="42.757738" lon="1.077504">
        <ele>1550.408</ele>
        <time>2021-06-18T13:35:23Z</time>
      </trkpt>
      <trkpt lat="42.757717" lon="1.077572">
        <ele>1550.196</ele>
        <time>2021-06-18T13:35:24Z</time>
      </trkpt>
      <trkpt lat="42.757699" lon="1.077636">
        <ele>1549.735</ele>
        <time>2021-06-18T13:35:25Z</time>
      </trkpt>
      <trkpt lat="42.757688" lon="1.077700">
        <ele>1549.341</ele>
        <time>2021-06-18T13:35:26Z</time>
      </trkpt>
      <trkpt lat="42.757677" lon="1.077770">
        <ele>1548.895</ele>
        <time>2021-06-18T13:35:27Z</time>
      </trkpt>
      <trkpt lat="42.757668" lon="1.077825">
        <ele>1548.219</ele>
        <time>2021-06-18T13:35:28Z</time>
      </trkpt>
      <trkpt lat="42.757635" lon="1.078067">
        <ele>1545.389</ele>
        <time>2021-06-18T13:35:32Z</time>
      </trkpt>
      <trkpt lat="42.757614" lon="1.078142">
        <ele>1544.422</ele>
        <time>2021-06-18T13:35:33Z</time>
      </trkpt>
      <trkpt lat="42.757535" lon="1.078396">
        <ele>1541.539</ele>
        <time>2021-06-18T13:35:36Z</time>
      </trkpt>
      <trkpt lat="42.757468" lon="1.078538">
        <ele>1540.123</ele>
        <time>2021-06-18T13:35:38Z</time>
      </trkpt>
      <trkpt lat="42.757421" lon="1.078633">
        <ele>1539.583</ele>
        <time>2021-06-18T13:35:40Z</time>
      </trkpt>
      <trkpt lat="42.757407" lon="1.078670">
        <ele>1539.111</ele>
        <time>2021-06-18T13:35:41Z</time>
      </trkpt>
      <trkpt lat="42.757392" lon="1.078717">
        <ele>1538.608</ele>
        <time>2021-06-18T13:35:42Z</time>
      </trkpt>
      <trkpt lat="42.757375" lon="1.078763">
        <ele>1538.139</ele>
        <time>2021-06-18T13:35:43Z</time>
      </trkpt>
      <trkpt lat="42.757352" lon="1.078813">
        <ele>1537.838</ele>
        <time>2021-06-18T13:35:44Z</time>
      </trkpt>
      <trkpt lat="42.757324" lon="1.078869">
        <ele>1537.544</ele>
        <time>2021-06-18T13:35:45Z</time>
      </trkpt>
      <trkpt lat="42.757294" lon="1.078931">
        <ele>1537.198</ele>
        <time>2021-06-18T13:35:46Z</time>
      </trkpt>
      <trkpt lat="42.757193" lon="1.079134">
        <ele>1535.892</ele>
        <time>2021-06-18T13:35:49Z</time>
      </trkpt>
      <trkpt lat="42.757148" lon="1.079187">
        <ele>1535.052</ele>
        <time>2021-06-18T13:35:50Z</time>
      </trkpt>
      <trkpt lat="42.757101" lon="1.079236">
        <ele>1534.235</ele>
        <time>2021-06-18T13:35:51Z</time>
      </trkpt>
      <trkpt lat="42.756998" lon="1.079302">
        <ele>1533.652</ele>
        <time>2021-06-18T13:35:53Z</time>
      </trkpt>
      <trkpt lat="42.756948" lon="1.079337">
        <ele>1533.385</ele>
        <time>2021-06-18T13:35:54Z</time>
      </trkpt>
      <trkpt lat="42.756903" lon="1.079378">
        <ele>1532.789</ele>
        <time>2021-06-18T13:35:55Z</time>
      </trkpt>
      <trkpt lat="42.756773" lon="1.079565">
        <ele>1530.417</ele>
        <time>2021-06-18T13:35:58Z</time>
      </trkpt>
      <trkpt lat="42.756730" lon="1.079633">
        <ele>1530.008</ele>
        <time>2021-06-18T13:35:59Z</time>
      </trkpt>
      <trkpt lat="42.756690" lon="1.079700">
        <ele>1529.875</ele>
        <time>2021-06-18T13:36:00Z</time>
      </trkpt>
      <trkpt lat="42.756655" lon="1.079754">
        <ele>1529.514</ele>
        <time>2021-06-18T13:36:01Z</time>
      </trkpt>
      <trkpt lat="42.756621" lon="1.079793">
        <ele>1529.030</ele>
        <time>2021-06-18T13:36:02Z</time>
      </trkpt>
      <trkpt lat="42.756592" lon="1.079839">
        <ele>1528.564</ele>
        <time>2021-06-18T13:36:03Z</time>
      </trkpt>
      <trkpt lat="42.756568" lon="1.079929">
        <ele>1527.428</ele>
        <time>2021-06-18T13:36:05Z</time>
      </trkpt>
      <trkpt lat="42.756549" lon="1.079987">
        <ele>1526.918</ele>
        <time>2021-06-18T13:36:07Z</time>
      </trkpt>
      <trkpt lat="42.756534" lon="1.080007">
        <ele>1526.871</ele>
        <time>2021-06-18T13:36:10Z</time>
      </trkpt>
      <trkpt lat="42.756502" lon="1.080017">
        <ele>1527.158</ele>
        <time>2021-06-18T13:36:42Z</time>
      </trkpt>
      <trkpt lat="42.756346" lon="1.080117">
        <ele>1527.895</ele>
        <time>2021-06-18T13:36:47Z</time>
      </trkpt>
      <trkpt lat="42.756191" lon="1.080201">
        <ele>1527.349</ele>
        <time>2021-06-18T13:36:51Z</time>
      </trkpt>
      <trkpt lat="42.756148" lon="1.080228">
        <ele>1527.223</ele>
        <time>2021-06-18T13:36:52Z</time>
      </trkpt>
      <trkpt lat="42.756007" lon="1.080243">
        <ele>1526.808</ele>
        <time>2021-06-18T13:36:55Z</time>
      </trkpt>
      <trkpt lat="42.755953" lon="1.080216">
        <ele>1526.736</ele>
        <time>2021-06-18T13:36:56Z</time>
      </trkpt>
      <trkpt lat="42.755853" lon="1.080135">
        <ele>1526.665</ele>
        <time>2021-06-18T13:36:58Z</time>
      </trkpt>
      <trkpt lat="42.755802" lon="1.080097">
        <ele>1526.631</ele>
        <time>2021-06-18T13:36:59Z</time>
      </trkpt>
      <trkpt lat="42.755698" lon="1.080036">
        <ele>1526.475</ele>
        <time>2021-06-18T13:37:01Z</time>
      </trkpt>
      <trkpt lat="42.755548" lon="1.079966">
        <ele>1526.019</ele>
        <time>2021-06-18T13:37:04Z</time>
      </trkpt>
      <trkpt lat="42.755455" lon="1.079893">
        <ele>1525.339</ele>
        <time>2021-06-18T13:37:06Z</time>
      </trkpt>
      <trkpt lat="42.755161" lon="1.079624">
        <ele>1522.512</ele>
        <time>2021-06-18T13:37:12Z</time>
      </trkpt>
      <trkpt lat="42.755112" lon="1.079577">
        <ele>1522.219</ele>
        <time>2021-06-18T13:37:13Z</time>
      </trkpt>
      <trkpt lat="42.755060" lon="1.079533">
        <ele>1521.831</ele>
        <time>2021-06-18T13:37:14Z</time>
      </trkpt>
      <trkpt lat="42.754939" lon="1.079504">
        <ele>1521.661</ele>
        <time>2021-06-18T13:37:16Z</time>
      </trkpt>
      <trkpt lat="42.754816" lon="1.079556">
        <ele>1521.107</ele>
        <time>2021-06-18T13:37:18Z</time>
      </trkpt>
      <trkpt lat="42.754760" lon="1.079601">
        <ele>1520.108</ele>
        <time>2021-06-18T13:37:19Z</time>
      </trkpt>
      <trkpt lat="42.754708" lon="1.079656">
        <ele>1518.930</ele>
        <time>2021-06-18T13:37:20Z</time>
      </trkpt>
      <trkpt lat="42.754605" lon="1.079765">
        <ele>1518.379</ele>
        <time>2021-06-18T13:37:22Z</time>
      </trkpt>
      <trkpt lat="42.754513" lon="1.079893">
        <ele>1517.245</ele>
        <time>2021-06-18T13:37:24Z</time>
      </trkpt>
      <trkpt lat="42.754460" lon="1.079956">
        <ele>1516.769</ele>
        <time>2021-06-18T13:37:25Z</time>
      </trkpt>
      <trkpt lat="42.754401" lon="1.080014">
        <ele>1515.813</ele>
        <time>2021-06-18T13:37:26Z</time>
      </trkpt>
      <trkpt lat="42.754208" lon="1.080123">
        <ele>1514.563</ele>
        <time>2021-06-18T13:37:29Z</time>
      </trkpt>
      <trkpt lat="42.753999" lon="1.080163">
        <ele>1515.066</ele>
        <time>2021-06-18T13:37:32Z</time>
      </trkpt>
      <trkpt lat="42.753940" lon="1.080211">
        <ele>1514.623</ele>
        <time>2021-06-18T13:37:33Z</time>
      </trkpt>
      <trkpt lat="42.753895" lon="1.080283">
        <ele>1513.914</ele>
        <time>2021-06-18T13:37:34Z</time>
      </trkpt>
      <trkpt lat="42.753853" lon="1.080366">
        <ele>1513.654</ele>
        <time>2021-06-18T13:37:35Z</time>
      </trkpt>
      <trkpt lat="42.753806" lon="1.080445">
        <ele>1513.709</ele>
        <time>2021-06-18T13:37:36Z</time>
      </trkpt>
      <trkpt lat="42.753701" lon="1.080588">
        <ele>1514.508</ele>
        <time>2021-06-18T13:37:38Z</time>
      </trkpt>
      <trkpt lat="42.753617" lon="1.080766">
        <ele>1513.328</ele>
        <time>2021-06-18T13:37:40Z</time>
      </trkpt>
      <trkpt lat="42.753578" lon="1.080859">
        <ele>1513.087</ele>
        <time>2021-06-18T13:37:41Z</time>
      </trkpt>
      <trkpt lat="42.753544" lon="1.080948">
        <ele>1511.923</ele>
        <time>2021-06-18T13:37:42Z</time>
      </trkpt>
      <trkpt lat="42.753511" lon="1.081043">
        <ele>1510.667</ele>
        <time>2021-06-18T13:37:43Z</time>
      </trkpt>
      <trkpt lat="42.753476" lon="1.081135">
        <ele>1509.561</ele>
        <time>2021-06-18T13:37:44Z</time>
      </trkpt>
      <trkpt lat="42.753428" lon="1.081222">
        <ele>1508.881</ele>
        <time>2021-06-18T13:37:45Z</time>
      </trkpt>
      <trkpt lat="42.753378" lon="1.081299">
        <ele>1508.024</ele>
        <time>2021-06-18T13:37:46Z</time>
      </trkpt>
      <trkpt lat="42.753330" lon="1.081373">
        <ele>1506.931</ele>
        <time>2021-06-18T13:37:47Z</time>
      </trkpt>
      <trkpt lat="42.753235" lon="1.081542">
        <ele>1507.272</ele>
        <time>2021-06-18T13:37:49Z</time>
      </trkpt>
      <trkpt lat="42.753202" lon="1.081648">
        <ele>1505.713</ele>
        <time>2021-06-18T13:37:50Z</time>
      </trkpt>
      <trkpt lat="42.753165" lon="1.081754">
        <ele>1504.514</ele>
        <time>2021-06-18T13:37:51Z</time>
      </trkpt>
      <trkpt lat="42.753052" lon="1.082068">
        <ele>1500.708</ele>
        <time>2021-06-18T13:37:54Z</time>
      </trkpt>
      <trkpt lat="42.752979" lon="1.082366">
        <ele>1496.814</ele>
        <time>2021-06-18T13:37:57Z</time>
      </trkpt>
      <trkpt lat="42.752912" lon="1.082542">
        <ele>1494.953</ele>
        <time>2021-06-18T13:37:59Z</time>
      </trkpt>
      <trkpt lat="42.752790" lon="1.082683">
        <ele>1496.379</ele>
        <time>2021-06-18T13:38:01Z</time>
      </trkpt>
      <trkpt lat="42.752723" lon="1.082755">
        <ele>1495.893</ele>
        <time>2021-06-18T13:38:02Z</time>
      </trkpt>
      <trkpt lat="42.752656" lon="1.082831">
        <ele>1495.657</ele>
        <time>2021-06-18T13:38:03Z</time>
      </trkpt>
      <trkpt lat="42.752488" lon="1.083096">
        <ele>1492.687</ele>
        <time>2021-06-18T13:38:06Z</time>
      </trkpt>
      <trkpt lat="42.752408" lon="1.083275">
        <ele>1491.990</ele>
        <time>2021-06-18T13:38:08Z</time>
      </trkpt>
      <trkpt lat="42.752383" lon="1.083366">
        <ele>1491.077</ele>
        <time>2021-06-18T13:38:09Z</time>
      </trkpt>
      <trkpt lat="42.752362" lon="1.083461">
        <ele>1490.212</ele>
        <time>2021-06-18T13:38:10Z</time>
      </trkpt>
      <trkpt lat="42.752337" lon="1.083562">
        <ele>1489.332</ele>
        <time>2021-06-18T13:38:11Z</time>
      </trkpt>
      <trkpt lat="42.752251" lon="1.083745">
        <ele>1488.105</ele>
        <time>2021-06-18T13:38:13Z</time>
      </trkpt>
      <trkpt lat="42.752202" lon="1.083837">
        <ele>1487.308</ele>
        <time>2021-06-18T13:38:14Z</time>
      </trkpt>
      <trkpt lat="42.752156" lon="1.083935">
        <ele>1486.368</ele>
        <time>2021-06-18T13:38:15Z</time>
      </trkpt>
      <trkpt lat="42.752069" lon="1.084138">
        <ele>1483.917</ele>
        <time>2021-06-18T13:38:17Z</time>
      </trkpt>
      <trkpt lat="42.751960" lon="1.084292">
        <ele>1484.273</ele>
        <time>2021-06-18T13:38:19Z</time>
      </trkpt>
      <trkpt lat="42.751846" lon="1.084381">
        <ele>1483.767</ele>
        <time>2021-06-18T13:38:21Z</time>
      </trkpt>
      <trkpt lat="42.751781" lon="1.084483">
        <ele>1482.221</ele>
        <time>2021-06-18T13:38:23Z</time>
      </trkpt>
      <trkpt lat="42.751803" lon="1.084589">
        <ele>1480.251</ele>
        <time>2021-06-18T13:38:25Z</time>
      </trkpt>
      <trkpt lat="42.751836" lon="1.084609">
        <ele>1479.474</ele>
        <time>2021-06-18T13:38:26Z</time>
      </trkpt>
      <trkpt lat="42.751913" lon="1.084578">
        <ele>1479.071</ele>
        <time>2021-06-18T13:38:28Z</time>
      </trkpt>
      <trkpt lat="42.751962" lon="1.084541">
        <ele>1478.679</ele>
        <time>2021-06-18T13:38:29Z</time>
      </trkpt>
      <trkpt lat="42.752114" lon="1.084370">
        <ele>1476.205</ele>
        <time>2021-06-18T13:38:32Z</time>
      </trkpt>
      <trkpt lat="42.752173" lon="1.084319">
        <ele>1475.125</ele>
        <time>2021-06-18T13:38:33Z</time>
      </trkpt>
      <trkpt lat="42.752277" lon="1.084213">
        <ele>1473.608</ele>
        <time>2021-06-18T13:38:35Z</time>
      </trkpt>
      <trkpt lat="42.752328" lon="1.084153">
        <ele>1472.934</ele>
        <time>2021-06-18T13:38:36Z</time>
      </trkpt>
      <trkpt lat="42.752394" lon="1.084101">
        <ele>1471.853</ele>
        <time>2021-06-18T13:38:37Z</time>
      </trkpt>
      <trkpt lat="42.752457" lon="1.084053">
        <ele>1470.829</ele>
        <time>2021-06-18T13:38:38Z</time>
      </trkpt>
      <trkpt lat="42.752518" lon="1.084004">
        <ele>1470.423</ele>
        <time>2021-06-18T13:38:39Z</time>
      </trkpt>
      <trkpt lat="42.752584" lon="1.083952">
        <ele>1470.417</ele>
        <time>2021-06-18T13:38:40Z</time>
      </trkpt>
      <trkpt lat="42.752648" lon="1.083892">
        <ele>1470.137</ele>
        <time>2021-06-18T13:38:41Z</time>
      </trkpt>
      <trkpt lat="42.752712" lon="1.083832">
        <ele>1469.670</ele>
        <time>2021-06-18T13:38:42Z</time>
      </trkpt>
      <trkpt lat="42.752778" lon="1.083774">
        <ele>1468.937</ele>
        <time>2021-06-18T13:38:43Z</time>
      </trkpt>
      <trkpt lat="42.752850" lon="1.083730">
        <ele>1469.594</ele>
        <time>2021-06-18T13:38:44Z</time>
      </trkpt>
      <trkpt lat="42.752913" lon="1.083710">
        <ele>1469.457</ele>
        <time>2021-06-18T13:38:45Z</time>
      </trkpt>
      <trkpt lat="42.753003" lon="1.083726">
        <ele>1468.522</ele>
        <time>2021-06-18T13:38:47Z</time>
      </trkpt>
      <trkpt lat="42.753035" lon="1.083752">
        <ele>1468.108</ele>
        <time>2021-06-18T13:38:48Z</time>
      </trkpt>
      <trkpt lat="42.753064" lon="1.083783">
        <ele>1467.916</ele>
        <time>2021-06-18T13:38:49Z</time>
      </trkpt>
      <trkpt lat="42.753111" lon="1.083846">
        <ele>1467.885</ele>
        <time>2021-06-18T13:38:51Z</time>
      </trkpt>
      <trkpt lat="42.753148" lon="1.083907">
        <ele>1467.461</ele>
        <time>2021-06-18T13:38:53Z</time>
      </trkpt>
      <trkpt lat="42.753162" lon="1.083943">
        <ele>1466.995</ele>
        <time>2021-06-18T13:38:54Z</time>
      </trkpt>
      <trkpt lat="42.753217" lon="1.084124">
        <ele>1464.349</ele>
        <time>2021-06-18T13:38:58Z</time>
      </trkpt>
      <trkpt lat="42.753223" lon="1.084172">
        <ele>1463.669</ele>
        <time>2021-06-18T13:38:59Z</time>
      </trkpt>
      <trkpt lat="42.753199" lon="1.084378">
        <ele>1462.482</ele>
        <time>2021-06-18T13:39:03Z</time>
      </trkpt>
      <trkpt lat="42.753190" lon="1.084433">
        <ele>1462.169</ele>
        <time>2021-06-18T13:39:04Z</time>
      </trkpt>
      <trkpt lat="42.753185" lon="1.084490">
        <ele>1461.787</ele>
        <time>2021-06-18T13:39:05Z</time>
      </trkpt>
      <trkpt lat="42.753178" lon="1.084684">
        <ele>1460.342</ele>
        <time>2021-06-18T13:39:09Z</time>
      </trkpt>
      <trkpt lat="42.753180" lon="1.084711">
        <ele>1460.126</ele>
        <time>2021-06-18T13:39:10Z</time>
      </trkpt>
      <trkpt lat="42.753217" lon="1.084734">
        <ele>1460.008</ele>
        <time>2021-06-18T13:39:12Z</time>
      </trkpt>
      <trkpt lat="42.753246" lon="1.084727">
        <ele>1460.045</ele>
        <time>2021-06-18T13:39:13Z</time>
      </trkpt>
      <trkpt lat="42.753307" lon="1.084696">
        <ele>1460.294</ele>
        <time>2021-06-18T13:39:16Z</time>
      </trkpt>
      <trkpt lat="42.753312" lon="1.084695">
        <ele>1460.240</ele>
        <time>2021-06-18T13:39:18Z</time>
      </trkpt>
      <trkpt lat="42.753258" lon="1.084698">
        <ele>1460.214</ele>
        <time>2021-06-18T13:42:30Z</time>
      </trkpt>
      <trkpt lat="42.753243" lon="1.084709">
        <ele>1460.118</ele>
        <time>2021-06-18T13:42:31Z</time>
      </trkpt>
      <trkpt lat="42.753184" lon="1.084803">
        <ele>1460.378</ele>
        <time>2021-06-18T13:42:35Z</time>
      </trkpt>
      <trkpt lat="42.753180" lon="1.084838">
        <ele>1460.461</ele>
        <time>2021-06-18T13:42:36Z</time>
      </trkpt>
      <trkpt lat="42.753156" lon="1.085068">
        <ele>1461.658</ele>
        <time>2021-06-18T13:42:42Z</time>
      </trkpt>
      <trkpt lat="42.753093" lon="1.085249">
        <ele>1462.439</ele>
        <time>2021-06-18T13:42:48Z</time>
      </trkpt>
      <trkpt lat="42.753032" lon="1.085436">
        <ele>1462.401</ele>
        <time>2021-06-18T13:42:55Z</time>
      </trkpt>
      <trkpt lat="42.752963" lon="1.085663">
        <ele>1462.521</ele>
        <time>2021-06-18T13:43:00Z</time>
      </trkpt>
      <trkpt lat="42.752870" lon="1.086035">
        <ele>1461.808</ele>
        <time>2021-06-18T13:43:06Z</time>
      </trkpt>
      <trkpt lat="42.752808" lon="1.086330">
        <ele>1460.930</ele>
        <time>2021-06-18T13:43:10Z</time>
      </trkpt>
      <trkpt lat="42.752775" lon="1.086486">
        <ele>1460.099</ele>
        <time>2021-06-18T13:43:12Z</time>
      </trkpt>
      <trkpt lat="42.752727" lon="1.086732">
        <ele>1459.645</ele>
        <time>2021-06-18T13:43:15Z</time>
      </trkpt>
      <trkpt lat="42.752667" lon="1.086991">
        <ele>1459.119</ele>
        <time>2021-06-18T13:43:18Z</time>
      </trkpt>
      <trkpt lat="42.752647" lon="1.087083">
        <ele>1458.953</ele>
        <time>2021-06-18T13:43:19Z</time>
      </trkpt>
      <trkpt lat="42.752578" lon="1.087442">
        <ele>1459.563</ele>
        <time>2021-06-18T13:43:23Z</time>
      </trkpt>
      <trkpt lat="42.752547" lon="1.087517">
        <ele>1459.316</ele>
        <time>2021-06-18T13:43:24Z</time>
      </trkpt>
      <trkpt lat="42.752507" lon="1.087580">
        <ele>1458.593</ele>
        <time>2021-06-18T13:43:25Z</time>
      </trkpt>
      <trkpt lat="42.752276" lon="1.087863">
        <ele>1456.615</ele>
        <time>2021-06-18T13:43:30Z</time>
      </trkpt>
      <trkpt lat="42.752236" lon="1.087931">
        <ele>1455.765</ele>
        <time>2021-06-18T13:43:31Z</time>
      </trkpt>
      <trkpt lat="42.752021" lon="1.088399">
        <ele>1458.411</ele>
        <time>2021-06-18T13:43:37Z</time>
      </trkpt>
      <trkpt lat="42.751933" lon="1.088533">
        <ele>1461.408</ele>
        <time>2021-06-18T13:43:39Z</time>
      </trkpt>
      <trkpt lat="42.751827" lon="1.088631">
        <ele>1462.958</ele>
        <time>2021-06-18T13:43:41Z</time>
      </trkpt>
      <trkpt lat="42.751661" lon="1.088687">
        <ele>1461.457</ele>
        <time>2021-06-18T13:43:44Z</time>
      </trkpt>
      <trkpt lat="42.751581" lon="1.088706">
        <ele>1460.033</ele>
        <time>2021-06-18T13:43:46Z</time>
      </trkpt>
      <trkpt lat="42.751544" lon="1.088714">
        <ele>1459.237</ele>
        <time>2021-06-18T13:43:47Z</time>
      </trkpt>
      <trkpt lat="42.751473" lon="1.088727">
        <ele>1457.581</ele>
        <time>2021-06-18T13:43:49Z</time>
      </trkpt>
      <trkpt lat="42.751315" lon="1.088798">
        <ele>1455.551</ele>
        <time>2021-06-18T13:43:53Z</time>
      </trkpt>
      <trkpt lat="42.751276" lon="1.088818">
        <ele>1455.214</ele>
        <time>2021-06-18T13:43:54Z</time>
      </trkpt>
      <trkpt lat="42.751192" lon="1.088851">
        <ele>1454.271</ele>
        <time>2021-06-18T13:43:56Z</time>
      </trkpt>
      <trkpt lat="42.751078" lon="1.088951">
        <ele>1453.488</ele>
        <time>2021-06-18T13:43:59Z</time>
      </trkpt>
      <trkpt lat="42.750988" lon="1.089164">
        <ele>1453.724</ele>
        <time>2021-06-18T13:44:03Z</time>
      </trkpt>
      <trkpt lat="42.750974" lon="1.089228">
        <ele>1453.526</ele>
        <time>2021-06-18T13:44:04Z</time>
      </trkpt>
      <trkpt lat="42.750901" lon="1.089497">
        <ele>1452.708</ele>
        <time>2021-06-18T13:44:08Z</time>
      </trkpt>
      <trkpt lat="42.750870" lon="1.089640">
        <ele>1452.495</ele>
        <time>2021-06-18T13:44:10Z</time>
      </trkpt>
      <trkpt lat="42.750771" lon="1.089996">
        <ele>1451.154</ele>
        <time>2021-06-18T13:44:15Z</time>
      </trkpt>
      <trkpt lat="42.750757" lon="1.090075">
        <ele>1450.860</ele>
        <time>2021-06-18T13:44:16Z</time>
      </trkpt>
      <trkpt lat="42.750717" lon="1.090493">
        <ele>1449.914</ele>
        <time>2021-06-18T13:44:21Z</time>
      </trkpt>
      <trkpt lat="42.750712" lon="1.090662">
        <ele>1449.628</ele>
        <time>2021-06-18T13:44:23Z</time>
      </trkpt>
      <trkpt lat="42.750735" lon="1.091106">
        <ele>1449.578</ele>
        <time>2021-06-18T13:44:28Z</time>
      </trkpt>
      <trkpt lat="42.750755" lon="1.091392">
        <ele>1450.091</ele>
        <time>2021-06-18T13:44:31Z</time>
      </trkpt>
      <trkpt lat="42.750779" lon="1.091785">
        <ele>1451.288</ele>
        <time>2021-06-18T13:44:35Z</time>
      </trkpt>
      <trkpt lat="42.750768" lon="1.091875">
        <ele>1451.448</ele>
        <time>2021-06-18T13:44:36Z</time>
      </trkpt>
      <trkpt lat="42.750703" lon="1.091989">
        <ele>1452.561</ele>
        <time>2021-06-18T13:44:38Z</time>
      </trkpt>
      <trkpt lat="42.750611" lon="1.092044">
        <ele>1453.817</ele>
        <time>2021-06-18T13:44:40Z</time>
      </trkpt>
      <trkpt lat="42.750510" lon="1.092074">
        <ele>1454.208</ele>
        <time>2021-06-18T13:44:42Z</time>
      </trkpt>
      <trkpt lat="42.750461" lon="1.092079">
        <ele>1454.091</ele>
        <time>2021-06-18T13:44:43Z</time>
      </trkpt>
      <trkpt lat="42.750320" lon="1.092045">
        <ele>1450.270</ele>
        <time>2021-06-18T13:44:46Z</time>
      </trkpt>
      <trkpt lat="42.750226" lon="1.092032">
        <ele>1449.926</ele>
        <time>2021-06-18T13:44:48Z</time>
      </trkpt>
      <trkpt lat="42.750088" lon="1.092014">
        <ele>1450.970</ele>
        <time>2021-06-18T13:44:51Z</time>
      </trkpt>
      <trkpt lat="42.750037" lon="1.091993">
        <ele>1450.244</ele>
        <time>2021-06-18T13:44:52Z</time>
      </trkpt>
      <trkpt lat="42.749902" lon="1.091900">
        <ele>1448.844</ele>
        <time>2021-06-18T13:44:55Z</time>
      </trkpt>
      <trkpt lat="42.749812" lon="1.091832">
        <ele>1448.997</ele>
        <time>2021-06-18T13:44:57Z</time>
      </trkpt>
      <trkpt lat="42.749735" lon="1.091750">
        <ele>1447.274</ele>
        <time>2021-06-18T13:44:59Z</time>
      </trkpt>
      <trkpt lat="42.749645" lon="1.091732">
        <ele>1446.353</ele>
        <time>2021-06-18T13:45:01Z</time>
      </trkpt>
      <trkpt lat="42.749601" lon="1.091727">
        <ele>1446.004</ele>
        <time>2021-06-18T13:45:02Z</time>
      </trkpt>
      <trkpt lat="42.749479" lon="1.091745">
        <ele>1445.814</ele>
        <time>2021-06-18T13:45:05Z</time>
      </trkpt>
      <trkpt lat="42.749439" lon="1.091760">
        <ele>1445.708</ele>
        <time>2021-06-18T13:45:06Z</time>
      </trkpt>
      <trkpt lat="42.749346" lon="1.091862">
        <ele>1445.992</ele>
        <time>2021-06-18T13:45:09Z</time>
      </trkpt>
      <trkpt lat="42.749294" lon="1.092024">
        <ele>1446.271</ele>
        <time>2021-06-18T13:45:12Z</time>
      </trkpt>
      <trkpt lat="42.749276" lon="1.092077">
        <ele>1446.387</ele>
        <time>2021-06-18T13:45:13Z</time>
      </trkpt>
      <trkpt lat="42.749248" lon="1.092345">
        <ele>1446.631</ele>
        <time>2021-06-18T13:45:18Z</time>
      </trkpt>
      <trkpt lat="42.749235" lon="1.092559">
        <ele>1446.355</ele>
        <time>2021-06-18T13:45:22Z</time>
      </trkpt>
      <trkpt lat="42.749200" lon="1.092843">
        <ele>1445.415</ele>
        <time>2021-06-18T13:45:27Z</time>
      </trkpt>
      <trkpt lat="42.749176" lon="1.092980">
        <ele>1445.188</ele>
        <time>2021-06-18T13:45:29Z</time>
      </trkpt>
      <trkpt lat="42.749163" lon="1.093293">
        <ele>1444.955</ele>
        <time>2021-06-18T13:45:33Z</time>
      </trkpt>
      <trkpt lat="42.749154" lon="1.093375">
        <ele>1444.751</ele>
        <time>2021-06-18T13:45:34Z</time>
      </trkpt>
      <trkpt lat="42.749118" lon="1.093740">
        <ele>1443.301</ele>
        <time>2021-06-18T13:45:38Z</time>
      </trkpt>
      <trkpt lat="42.749095" lon="1.093937">
        <ele>1442.311</ele>
        <time>2021-06-18T13:45:40Z</time>
      </trkpt>
      <trkpt lat="42.749087" lon="1.094040">
        <ele>1442.208</ele>
        <time>2021-06-18T13:45:41Z</time>
      </trkpt>
      <trkpt lat="42.749033" lon="1.094453">
        <ele>1442.942</ele>
        <time>2021-06-18T13:45:45Z</time>
      </trkpt>
      <trkpt lat="42.749013" lon="1.094553">
        <ele>1444.071</ele>
        <time>2021-06-18T13:45:46Z</time>
      </trkpt>
      <trkpt lat="42.748988" lon="1.094651">
        <ele>1444.527</ele>
        <time>2021-06-18T13:45:47Z</time>
      </trkpt>
      <trkpt lat="42.748955" lon="1.094741">
        <ele>1444.071</ele>
        <time>2021-06-18T13:45:48Z</time>
      </trkpt>
      <trkpt lat="42.748885" lon="1.094904">
        <ele>1443.555</ele>
        <time>2021-06-18T13:45:50Z</time>
      </trkpt>
      <trkpt lat="42.748854" lon="1.094983">
        <ele>1444.335</ele>
        <time>2021-06-18T13:45:51Z</time>
      </trkpt>
      <trkpt lat="42.748831" lon="1.095060">
        <ele>1443.758</ele>
        <time>2021-06-18T13:45:52Z</time>
      </trkpt>
      <trkpt lat="42.748804" lon="1.095220">
        <ele>1442.625</ele>
        <time>2021-06-18T13:45:54Z</time>
      </trkpt>
      <trkpt lat="42.748794" lon="1.095298">
        <ele>1442.122</ele>
        <time>2021-06-18T13:45:55Z</time>
      </trkpt>
      <trkpt lat="42.748784" lon="1.095378">
        <ele>1441.462</ele>
        <time>2021-06-18T13:45:56Z</time>
      </trkpt>
      <trkpt lat="42.748776" lon="1.095458">
        <ele>1440.808</ele>
        <time>2021-06-18T13:45:57Z</time>
      </trkpt>
      <trkpt lat="42.748768" lon="1.095690">
        <ele>1440.008</ele>
        <time>2021-06-18T13:46:00Z</time>
      </trkpt>
      <trkpt lat="42.748762" lon="1.096272">
        <ele>1438.499</ele>
        <time>2021-06-18T13:46:07Z</time>
      </trkpt>
      <trkpt lat="42.748807" lon="1.097006">
        <ele>1437.568</ele>
        <time>2021-06-18T13:46:15Z</time>
      </trkpt>
      <trkpt lat="42.748820" lon="1.097191">
        <ele>1436.924</ele>
        <time>2021-06-18T13:46:17Z</time>
      </trkpt>
      <trkpt lat="42.748843" lon="1.097453">
        <ele>1437.028</ele>
        <time>2021-06-18T13:46:20Z</time>
      </trkpt>
      <trkpt lat="42.748849" lon="1.097527">
        <ele>1437.032</ele>
        <time>2021-06-18T13:46:21Z</time>
      </trkpt>
      <trkpt lat="42.748859" lon="1.097613">
        <ele>1436.652</ele>
        <time>2021-06-18T13:46:23Z</time>
      </trkpt>
      <trkpt lat="42.748888" lon="1.097859">
        <ele>1435.715</ele>
        <time>2021-06-18T13:46:31Z</time>
      </trkpt>
      <trkpt lat="42.748939" lon="1.098070">
        <ele>1435.412</ele>
        <time>2021-06-18T13:46:37Z</time>
      </trkpt>
      <trkpt lat="42.748959" lon="1.098307">
        <ele>1434.225</ele>
        <time>2021-06-18T13:46:42Z</time>
      </trkpt>
      <trkpt lat="42.748964" lon="1.098363">
        <ele>1434.126</ele>
        <time>2021-06-18T13:46:43Z</time>
      </trkpt>
      <trkpt lat="42.748951" lon="1.098654">
        <ele>1433.908</ele>
        <time>2021-06-18T13:46:48Z</time>
      </trkpt>
      <trkpt lat="42.748935" lon="1.098767">
        <ele>1433.708</ele>
        <time>2021-06-18T13:46:50Z</time>
      </trkpt>
      <trkpt lat="42.748915" lon="1.098924">
        <ele>1433.559</ele>
        <time>2021-06-18T13:46:53Z</time>
      </trkpt>
      <trkpt lat="42.748903" lon="1.098978">
        <ele>1433.568</ele>
        <time>2021-06-18T13:46:54Z</time>
      </trkpt>
      <trkpt lat="42.748891" lon="1.099034">
        <ele>1433.644</ele>
        <time>2021-06-18T13:46:55Z</time>
      </trkpt>
      <trkpt lat="42.748849" lon="1.099295">
        <ele>1434.258</ele>
        <time>2021-06-18T13:46:59Z</time>
      </trkpt>
      <trkpt lat="42.748826" lon="1.099433">
        <ele>1434.422</ele>
        <time>2021-06-18T13:47:01Z</time>
      </trkpt>
      <trkpt lat="42.748805" lon="1.099500">
        <ele>1436.112</ele>
        <time>2021-06-18T13:47:02Z</time>
      </trkpt>
      <trkpt lat="42.748736" lon="1.099615">
        <ele>1438.585</ele>
        <time>2021-06-18T13:47:04Z</time>
      </trkpt>
      <trkpt lat="42.748559" lon="1.099744">
        <ele>1437.872</ele>
        <time>2021-06-18T13:47:08Z</time>
      </trkpt>
      <trkpt lat="42.748513" lon="1.099747">
        <ele>1436.622</ele>
        <time>2021-06-18T13:47:09Z</time>
      </trkpt>
      <trkpt lat="42.748383" lon="1.099799">
        <ele>1434.062</ele>
        <time>2021-06-18T13:47:12Z</time>
      </trkpt>
      <trkpt lat="42.748232" lon="1.099974">
        <ele>1432.508</ele>
        <time>2021-06-18T13:47:16Z</time>
      </trkpt>
      <trkpt lat="42.748188" lon="1.100010">
        <ele>1432.008</ele>
        <time>2021-06-18T13:47:17Z</time>
      </trkpt>
      <trkpt lat="42.748060" lon="1.100138">
        <ele>1431.189</ele>
        <time>2021-06-18T13:47:20Z</time>
      </trkpt>
      <trkpt lat="42.747980" lon="1.100245">
        <ele>1431.368</ele>
        <time>2021-06-18T13:47:22Z</time>
      </trkpt>
      <trkpt lat="42.747733" lon="1.100489">
        <ele>1429.954</ele>
        <time>2021-06-18T13:47:27Z</time>
      </trkpt>
      <trkpt lat="42.747515" lon="1.100667">
        <ele>1429.098</ele>
        <time>2021-06-18T13:47:31Z</time>
      </trkpt>
      <trkpt lat="42.747427" lon="1.100768">
        <ele>1428.822</ele>
        <time>2021-06-18T13:47:33Z</time>
      </trkpt>
      <trkpt lat="42.747121" lon="1.101113">
        <ele>1428.662</ele>
        <time>2021-06-18T13:47:39Z</time>
      </trkpt>
      <trkpt lat="42.747011" lon="1.101228">
        <ele>1428.115</ele>
        <time>2021-06-18T13:47:41Z</time>
      </trkpt>
      <trkpt lat="42.746900" lon="1.101331">
        <ele>1428.032</ele>
        <time>2021-06-18T13:47:43Z</time>
      </trkpt>
      <trkpt lat="42.746842" lon="1.101378">
        <ele>1427.849</ele>
        <time>2021-06-18T13:47:44Z</time>
      </trkpt>
      <trkpt lat="42.746478" lon="1.101618">
        <ele>1427.402</ele>
        <time>2021-06-18T13:47:50Z</time>
      </trkpt>
      <trkpt lat="42.746417" lon="1.101644">
        <ele>1427.722</ele>
        <time>2021-06-18T13:47:51Z</time>
      </trkpt>
      <trkpt lat="42.746254" lon="1.101656">
        <ele>1431.108</ele>
        <time>2021-06-18T13:47:54Z</time>
      </trkpt>
      <trkpt lat="42.746207" lon="1.101631">
        <ele>1431.681</ele>
        <time>2021-06-18T13:47:55Z</time>
      </trkpt>
      <trkpt lat="42.746089" lon="1.101495">
        <ele>1430.370</ele>
        <time>2021-06-18T13:47:58Z</time>
      </trkpt>
      <trkpt lat="42.746058" lon="1.101437">
        <ele>1430.126</ele>
        <time>2021-06-18T13:47:59Z</time>
      </trkpt>
      <trkpt lat="42.745944" lon="1.101223">
        <ele>1430.370</ele>
        <time>2021-06-18T13:48:03Z</time>
      </trkpt>
      <trkpt lat="42.745851" lon="1.101131">
        <ele>1429.684</ele>
        <time>2021-06-18T13:48:07Z</time>
      </trkpt>
      <trkpt lat="42.745731" lon="1.100998">
        <ele>1429.374</ele>
        <time>2021-06-18T13:48:12Z</time>
      </trkpt>
      <trkpt lat="42.745554" lon="1.100780">
        <ele>1426.597</ele>
        <time>2021-06-18T13:48:18Z</time>
      </trkpt>
      <trkpt lat="42.745372" lon="1.100579">
        <ele>1426.584</ele>
        <time>2021-06-18T13:48:24Z</time>
      </trkpt>
      <trkpt lat="42.745292" lon="1.100519">
        <ele>1426.675</ele>
        <time>2021-06-18T13:48:26Z</time>
      </trkpt>
      <trkpt lat="42.745154" lon="1.100476">
        <ele>1426.728</ele>
        <time>2021-06-18T13:48:29Z</time>
      </trkpt>
      <trkpt lat="42.744896" lon="1.100545">
        <ele>1426.820</ele>
        <time>2021-06-18T13:48:34Z</time>
      </trkpt>
      <trkpt lat="42.744841" lon="1.100578">
        <ele>1426.608</ele>
        <time>2021-06-18T13:48:35Z</time>
      </trkpt>
      <trkpt lat="42.744614" lon="1.100749">
        <ele>1425.464</ele>
        <time>2021-06-18T13:48:39Z</time>
      </trkpt>
      <trkpt lat="42.744493" lon="1.100846">
        <ele>1424.183</ele>
        <time>2021-06-18T13:48:41Z</time>
      </trkpt>
      <trkpt lat="42.744326" lon="1.101044">
        <ele>1423.989</ele>
        <time>2021-06-18T13:48:44Z</time>
      </trkpt>
      <trkpt lat="42.744172" lon="1.101244">
        <ele>1424.073</ele>
        <time>2021-06-18T13:48:47Z</time>
      </trkpt>
      <trkpt lat="42.744126" lon="1.101305">
        <ele>1424.487</ele>
        <time>2021-06-18T13:48:48Z</time>
      </trkpt>
      <trkpt lat="42.744046" lon="1.101436">
        <ele>1424.647</ele>
        <time>2021-06-18T13:48:50Z</time>
      </trkpt>
      <trkpt lat="42.743935" lon="1.101746">
        <ele>1424.060</ele>
        <time>2021-06-18T13:48:54Z</time>
      </trkpt>
      <trkpt lat="42.743819" lon="1.102064">
        <ele>1423.747</ele>
        <time>2021-06-18T13:48:58Z</time>
      </trkpt>
      <trkpt lat="42.743761" lon="1.102221">
        <ele>1423.325</ele>
        <time>2021-06-18T13:49:00Z</time>
      </trkpt>
      <trkpt lat="42.743708" lon="1.102372">
        <ele>1423.126</ele>
        <time>2021-06-18T13:49:02Z</time>
      </trkpt>
      <trkpt lat="42.743623" lon="1.102662">
        <ele>1422.608</ele>
        <time>2021-06-18T13:49:06Z</time>
      </trkpt>
      <trkpt lat="42.743600" lon="1.102727">
        <ele>1422.408</ele>
        <time>2021-06-18T13:49:07Z</time>
      </trkpt>
      <trkpt lat="42.743546" lon="1.102916">
        <ele>1422.789</ele>
        <time>2021-06-18T13:49:10Z</time>
      </trkpt>
      <trkpt lat="42.743482" lon="1.103272">
        <ele>1422.688</ele>
        <time>2021-06-18T13:49:15Z</time>
      </trkpt>
      <trkpt lat="42.743466" lon="1.103342">
        <ele>1422.414</ele>
        <time>2021-06-18T13:49:16Z</time>
      </trkpt>
      <trkpt lat="42.743388" lon="1.103534">
        <ele>1421.568</ele>
        <time>2021-06-18T13:49:19Z</time>
      </trkpt>
      <trkpt lat="42.743321" lon="1.103648">
        <ele>1421.232</ele>
        <time>2021-06-18T13:49:21Z</time>
      </trkpt>
      <trkpt lat="42.743225" lon="1.103831">
        <ele>1421.532</ele>
        <time>2021-06-18T13:49:24Z</time>
      </trkpt>
      <trkpt lat="42.743203" lon="1.103900">
        <ele>1421.855</ele>
        <time>2021-06-18T13:49:25Z</time>
      </trkpt>
      <trkpt lat="42.743139" lon="1.104118">
        <ele>1422.662</ele>
        <time>2021-06-18T13:49:28Z</time>
      </trkpt>
      <trkpt lat="42.743048" lon="1.104328">
        <ele>1423.261</ele>
        <time>2021-06-18T13:49:31Z</time>
      </trkpt>
      <trkpt lat="42.742922" lon="1.104623">
        <ele>1422.321</ele>
        <time>2021-06-18T13:49:35Z</time>
      </trkpt>
      <trkpt lat="42.742865" lon="1.104782">
        <ele>1421.813</ele>
        <time>2021-06-18T13:49:37Z</time>
      </trkpt>
      <trkpt lat="42.742690" lon="1.105342">
        <ele>1422.708</ele>
        <time>2021-06-18T13:49:44Z</time>
      </trkpt>
      <trkpt lat="42.742556" lon="1.105624">
        <ele>1421.513</ele>
        <time>2021-06-18T13:49:48Z</time>
      </trkpt>
      <trkpt lat="42.742521" lon="1.105690">
        <ele>1421.412</ele>
        <time>2021-06-18T13:49:49Z</time>
      </trkpt>
      <trkpt lat="42.742350" lon="1.106106">
        <ele>1422.328</ele>
        <time>2021-06-18T13:49:55Z</time>
      </trkpt>
      <trkpt lat="42.742139" lon="1.106592">
        <ele>1419.652</ele>
        <time>2021-06-18T13:50:02Z</time>
      </trkpt>
      <trkpt lat="42.742086" lon="1.106760">
        <ele>1417.846</ele>
        <time>2021-06-18T13:50:04Z</time>
      </trkpt>
      <trkpt lat="42.742075" lon="1.106941">
        <ele>1417.636</ele>
        <time>2021-06-18T13:50:06Z</time>
      </trkpt>
      <trkpt lat="42.742096" lon="1.107328">
        <ele>1419.659</ele>
        <time>2021-06-18T13:50:10Z</time>
      </trkpt>
      <trkpt lat="42.742085" lon="1.107427">
        <ele>1419.326</ele>
        <time>2021-06-18T13:50:11Z</time>
      </trkpt>
      <trkpt lat="42.742051" lon="1.107625">
        <ele>1418.825</ele>
        <time>2021-06-18T13:50:13Z</time>
      </trkpt>
      <trkpt lat="42.742024" lon="1.107716">
        <ele>1418.126</ele>
        <time>2021-06-18T13:50:14Z</time>
      </trkpt>
      <trkpt lat="42.741985" lon="1.107800">
        <ele>1417.208</ele>
        <time>2021-06-18T13:50:15Z</time>
      </trkpt>
      <trkpt lat="42.741873" lon="1.107932">
        <ele>1418.008</ele>
        <time>2021-06-18T13:50:17Z</time>
      </trkpt>
      <trkpt lat="42.741804" lon="1.107987">
        <ele>1417.579</ele>
        <time>2021-06-18T13:50:18Z</time>
      </trkpt>
      <trkpt lat="42.741736" lon="1.108043">
        <ele>1416.588</ele>
        <time>2021-06-18T13:50:19Z</time>
      </trkpt>
      <trkpt lat="42.741673" lon="1.108111">
        <ele>1417.074</ele>
        <time>2021-06-18T13:50:20Z</time>
      </trkpt>
      <trkpt lat="42.741545" lon="1.108246">
        <ele>1418.448</ele>
        <time>2021-06-18T13:50:22Z</time>
      </trkpt>
      <trkpt lat="42.741473" lon="1.108299">
        <ele>1417.182</ele>
        <time>2021-06-18T13:50:23Z</time>
      </trkpt>
      <trkpt lat="42.741321" lon="1.108371">
        <ele>1414.332</ele>
        <time>2021-06-18T13:50:25Z</time>
      </trkpt>
      <trkpt lat="42.741250" lon="1.108406">
        <ele>1414.125</ele>
        <time>2021-06-18T13:50:26Z</time>
      </trkpt>
      <trkpt lat="42.741107" lon="1.108485">
        <ele>1413.372</ele>
        <time>2021-06-18T13:50:28Z</time>
      </trkpt>
      <trkpt lat="42.741040" lon="1.108536">
        <ele>1413.369</ele>
        <time>2021-06-18T13:50:29Z</time>
      </trkpt>
      <trkpt lat="42.740974" lon="1.108587">
        <ele>1413.004</ele>
        <time>2021-06-18T13:50:30Z</time>
      </trkpt>
      <trkpt lat="42.740775" lon="1.108721">
        <ele>1412.424</ele>
        <time>2021-06-18T13:50:33Z</time>
      </trkpt>
      <trkpt lat="42.740635" lon="1.108771">
        <ele>1411.608</ele>
        <time>2021-06-18T13:50:35Z</time>
      </trkpt>
      <trkpt lat="42.740263" lon="1.108833">
        <ele>1409.753</ele>
        <time>2021-06-18T13:50:40Z</time>
      </trkpt>
      <trkpt lat="42.740053" lon="1.108871">
        <ele>1409.062</ele>
        <time>2021-06-18T13:50:43Z</time>
      </trkpt>
      <trkpt lat="42.739980" lon="1.108888">
        <ele>1408.978</ele>
        <time>2021-06-18T13:50:44Z</time>
      </trkpt>
      <trkpt lat="42.739906" lon="1.108898">
        <ele>1409.122</ele>
        <time>2021-06-18T13:50:45Z</time>
      </trkpt>
      <trkpt lat="42.739696" lon="1.108888">
        <ele>1407.996</ele>
        <time>2021-06-18T13:50:48Z</time>
      </trkpt>
      <trkpt lat="42.739408" lon="1.108893">
        <ele>1407.426</ele>
        <time>2021-06-18T13:50:52Z</time>
      </trkpt>
      <trkpt lat="42.739333" lon="1.108885">
        <ele>1407.339</ele>
        <time>2021-06-18T13:50:53Z</time>
      </trkpt>
      <trkpt lat="42.739254" lon="1.108866">
        <ele>1407.286</ele>
        <time>2021-06-18T13:50:54Z</time>
      </trkpt>
      <trkpt lat="42.739178" lon="1.108836">
        <ele>1406.854</ele>
        <time>2021-06-18T13:50:55Z</time>
      </trkpt>
      <trkpt lat="42.739036" lon="1.108756">
        <ele>1405.956</ele>
        <time>2021-06-18T13:50:57Z</time>
      </trkpt>
      <trkpt lat="42.738885" lon="1.108698">
        <ele>1404.811</ele>
        <time>2021-06-18T13:50:59Z</time>
      </trkpt>
      <trkpt lat="42.738802" lon="1.108679">
        <ele>1404.808</ele>
        <time>2021-06-18T13:51:00Z</time>
      </trkpt>
      <trkpt lat="42.738723" lon="1.108661">
        <ele>1404.652</ele>
        <time>2021-06-18T13:51:01Z</time>
      </trkpt>
      <trkpt lat="42.738505" lon="1.108577">
        <ele>1405.161</ele>
        <time>2021-06-18T13:51:04Z</time>
      </trkpt>
      <trkpt lat="42.738444" lon="1.108539">
        <ele>1405.897</ele>
        <time>2021-06-18T13:51:05Z</time>
      </trkpt>
      <trkpt lat="42.738305" lon="1.108404">
        <ele>1404.971</ele>
        <time>2021-06-18T13:51:08Z</time>
      </trkpt>
      <trkpt lat="42.738254" lon="1.108356">
        <ele>1404.895</ele>
        <time>2021-06-18T13:51:09Z</time>
      </trkpt>
      <trkpt lat="42.737956" lon="1.108067">
        <ele>1408.955</ele>
        <time>2021-06-18T13:51:15Z</time>
      </trkpt>
      <trkpt lat="42.737811" lon="1.107832">
        <ele>1410.168</ele>
        <time>2021-06-18T13:51:19Z</time>
      </trkpt>
      <trkpt lat="42.737783" lon="1.107767">
        <ele>1408.575</ele>
        <time>2021-06-18T13:51:20Z</time>
      </trkpt>
      <trkpt lat="42.737762" lon="1.107692">
        <ele>1407.535</ele>
        <time>2021-06-18T13:51:21Z</time>
      </trkpt>
      <trkpt lat="42.737743" lon="1.107500">
        <ele>1403.086</ele>
        <time>2021-06-18T13:51:23Z</time>
      </trkpt>
      <trkpt lat="42.737728" lon="1.107415">
        <ele>1402.414</ele>
        <time>2021-06-18T13:51:24Z</time>
      </trkpt>
      <trkpt lat="42.737614" lon="1.107218">
        <ele>1401.908</ele>
        <time>2021-06-18T13:51:27Z</time>
      </trkpt>
      <trkpt lat="42.737565" lon="1.107187">
        <ele>1402.330</ele>
        <time>2021-06-18T13:51:28Z</time>
      </trkpt>
      <trkpt lat="42.737511" lon="1.107153">
        <ele>1402.619</ele>
        <time>2021-06-18T13:51:29Z</time>
      </trkpt>
      <trkpt lat="42.737350" lon="1.107043">
        <ele>1402.425</ele>
        <time>2021-06-18T13:51:32Z</time>
      </trkpt>
      <trkpt lat="42.737139" lon="1.106934">
        <ele>1401.949</ele>
        <time>2021-06-18T13:51:36Z</time>
      </trkpt>
      <trkpt lat="42.737084" lon="1.106923">
        <ele>1401.733</ele>
        <time>2021-06-18T13:51:37Z</time>
      </trkpt>
      <trkpt lat="42.736863" lon="1.106986">
        <ele>1401.783</ele>
        <time>2021-06-18T13:51:41Z</time>
      </trkpt>
      <trkpt lat="42.736812" lon="1.107029">
        <ele>1401.866</ele>
        <time>2021-06-18T13:51:42Z</time>
      </trkpt>
      <trkpt lat="42.736762" lon="1.107078">
        <ele>1401.953</ele>
        <time>2021-06-18T13:51:43Z</time>
      </trkpt>
      <trkpt lat="42.736615" lon="1.107225">
        <ele>1402.074</ele>
        <time>2021-06-18T13:51:46Z</time>
      </trkpt>
      <trkpt lat="42.736422" lon="1.107412">
        <ele>1402.056</ele>
        <time>2021-06-18T13:51:50Z</time>
      </trkpt>
      <trkpt lat="42.736325" lon="1.107507">
        <ele>1402.321</ele>
        <time>2021-06-18T13:51:52Z</time>
      </trkpt>
      <trkpt lat="42.736276" lon="1.107550">
        <ele>1402.808</ele>
        <time>2021-06-18T13:51:53Z</time>
      </trkpt>
      <trkpt lat="42.736063" lon="1.107686">
        <ele>1402.634</ele>
        <time>2021-06-18T13:51:57Z</time>
      </trkpt>
      <trkpt lat="42.735954" lon="1.107738">
        <ele>1402.943</ele>
        <time>2021-06-18T13:51:59Z</time>
      </trkpt>
      <trkpt lat="42.735793" lon="1.107765">
        <ele>1402.899</ele>
        <time>2021-06-18T13:52:02Z</time>
      </trkpt>
      <trkpt lat="42.735580" lon="1.107743">
        <ele>1402.943</ele>
        <time>2021-06-18T13:52:06Z</time>
      </trkpt>
      <trkpt lat="42.735399" lon="1.107596">
        <ele>1406.957</ele>
        <time>2021-06-18T13:52:10Z</time>
      </trkpt>
      <trkpt lat="42.735329" lon="1.107495">
        <ele>1405.637</ele>
        <time>2021-06-18T13:52:12Z</time>
      </trkpt>
      <trkpt lat="42.735242" lon="1.107368">
        <ele>1403.850</ele>
        <time>2021-06-18T13:52:15Z</time>
      </trkpt>
      <trkpt lat="42.735213" lon="1.107324">
        <ele>1402.947</ele>
        <time>2021-06-18T13:52:16Z</time>
      </trkpt>
      <trkpt lat="42.735065" lon="1.107213">
        <ele>1402.821</ele>
        <time>2021-06-18T13:52:20Z</time>
      </trkpt>
      <trkpt lat="42.734930" lon="1.107241">
        <ele>1403.941</ele>
        <time>2021-06-18T13:52:23Z</time>
      </trkpt>
      <trkpt lat="42.734890" lon="1.107268">
        <ele>1403.605</ele>
        <time>2021-06-18T13:52:24Z</time>
      </trkpt>
      <trkpt lat="42.734854" lon="1.107300">
        <ele>1403.408</ele>
        <time>2021-06-18T13:52:25Z</time>
      </trkpt>
      <trkpt lat="42.734799" lon="1.107387">
        <ele>1403.569</ele>
        <time>2021-06-18T13:52:27Z</time>
      </trkpt>
      <trkpt lat="42.734703" lon="1.107673">
        <ele>1405.038</ele>
        <time>2021-06-18T13:52:32Z</time>
      </trkpt>
      <trkpt lat="42.734691" lon="1.107739">
        <ele>1405.934</ele>
        <time>2021-06-18T13:52:33Z</time>
      </trkpt>
      <trkpt lat="42.734586" lon="1.108179">
        <ele>1407.428</ele>
        <time>2021-06-18T13:52:40Z</time>
      </trkpt>
      <trkpt lat="42.734495" lon="1.108474">
        <ele>1404.852</ele>
        <time>2021-06-18T13:52:45Z</time>
      </trkpt>
      <trkpt lat="42.734488" lon="1.108608">
        <ele>1405.052</ele>
        <time>2021-06-18T13:52:47Z</time>
      </trkpt>
      <trkpt lat="42.734473" lon="1.108826">
        <ele>1406.315</ele>
        <time>2021-06-18T13:52:50Z</time>
      </trkpt>
      <trkpt lat="42.734439" lon="1.108963">
        <ele>1407.162</ele>
        <time>2021-06-18T13:52:52Z</time>
      </trkpt>
      <trkpt lat="42.734353" lon="1.109130">
        <ele>1407.946</ele>
        <time>2021-06-18T13:52:55Z</time>
      </trkpt>
      <trkpt lat="42.734317" lon="1.109180">
        <ele>1407.788</ele>
        <time>2021-06-18T13:52:56Z</time>
      </trkpt>
      <trkpt lat="42.734279" lon="1.109226">
        <ele>1407.816</ele>
        <time>2021-06-18T13:52:57Z</time>
      </trkpt>
      <trkpt lat="42.734079" lon="1.109455">
        <ele>1408.308</ele>
        <time>2021-06-18T13:53:02Z</time>
      </trkpt>
      <trkpt lat="42.733792" lon="1.109741">
        <ele>1406.541</ele>
        <time>2021-06-18T13:53:09Z</time>
      </trkpt>
      <trkpt lat="42.733744" lon="1.109768">
        <ele>1406.350</ele>
        <time>2021-06-18T13:53:10Z</time>
      </trkpt>
      <trkpt lat="42.733545" lon="1.109795">
        <ele>1404.736</ele>
        <time>2021-06-18T13:53:14Z</time>
      </trkpt>
      <trkpt lat="42.733445" lon="1.109768">
        <ele>1404.210</ele>
        <time>2021-06-18T13:53:16Z</time>
      </trkpt>
      <trkpt lat="42.733340" lon="1.109752">
        <ele>1404.054</ele>
        <time>2021-06-18T13:53:18Z</time>
      </trkpt>
      <trkpt lat="42.733285" lon="1.109752">
        <ele>1403.554</ele>
        <time>2021-06-18T13:53:19Z</time>
      </trkpt>
      <trkpt lat="42.733229" lon="1.109758">
        <ele>1403.187</ele>
        <time>2021-06-18T13:53:20Z</time>
      </trkpt>
      <trkpt lat="42.732992" lon="1.109829">
        <ele>1401.754</ele>
        <time>2021-06-18T13:53:24Z</time>
      </trkpt>
      <trkpt lat="42.732599" lon="1.110019">
        <ele>1398.474</ele>
        <time>2021-06-18T13:53:30Z</time>
      </trkpt>
      <trkpt lat="42.732538" lon="1.110069">
        <ele>1397.856</ele>
        <time>2021-06-18T13:53:31Z</time>
      </trkpt>
      <trkpt lat="42.732429" lon="1.110176">
        <ele>1397.021</ele>
        <time>2021-06-18T13:53:33Z</time>
      </trkpt>
      <trkpt lat="42.732377" lon="1.110234">
        <ele>1396.708</ele>
        <time>2021-06-18T13:53:34Z</time>
      </trkpt>
      <trkpt lat="42.732325" lon="1.110298">
        <ele>1396.644</ele>
        <time>2021-06-18T13:53:35Z</time>
      </trkpt>
      <trkpt lat="42.732278" lon="1.110364">
        <ele>1396.813</ele>
        <time>2021-06-18T13:53:36Z</time>
      </trkpt>
      <trkpt lat="42.732173" lon="1.110503">
        <ele>1397.019</ele>
        <time>2021-06-18T13:53:38Z</time>
      </trkpt>
      <trkpt lat="42.732110" lon="1.110558">
        <ele>1396.793</ele>
        <time>2021-06-18T13:53:39Z</time>
      </trkpt>
      <trkpt lat="42.731887" lon="1.110649">
        <ele>1396.787</ele>
        <time>2021-06-18T13:53:42Z</time>
      </trkpt>
      <trkpt lat="42.731805" lon="1.110663">
        <ele>1396.257</ele>
        <time>2021-06-18T13:53:43Z</time>
      </trkpt>
      <trkpt lat="42.731722" lon="1.110664">
        <ele>1395.280</ele>
        <time>2021-06-18T13:53:44Z</time>
      </trkpt>
      <trkpt lat="42.731639" lon="1.110645">
        <ele>1393.817</ele>
        <time>2021-06-18T13:53:45Z</time>
      </trkpt>
      <trkpt lat="42.731564" lon="1.110623">
        <ele>1392.998</ele>
        <time>2021-06-18T13:53:46Z</time>
      </trkpt>
      <trkpt lat="42.731406" lon="1.110590">
        <ele>1391.815</ele>
        <time>2021-06-18T13:53:48Z</time>
      </trkpt>
      <trkpt lat="42.731330" lon="1.110608">
        <ele>1391.126</ele>
        <time>2021-06-18T13:53:49Z</time>
      </trkpt>
      <trkpt lat="42.731105" lon="1.110713">
        <ele>1391.308</ele>
        <time>2021-06-18T13:53:52Z</time>
      </trkpt>
      <trkpt lat="42.731025" lon="1.110716">
        <ele>1392.696</ele>
        <time>2021-06-18T13:53:53Z</time>
      </trkpt>
      <trkpt lat="42.730874" lon="1.110634">
        <ele>1391.165</ele>
        <time>2021-06-18T13:53:55Z</time>
      </trkpt>
      <trkpt lat="42.730817" lon="1.110570">
        <ele>1389.561</ele>
        <time>2021-06-18T13:53:56Z</time>
      </trkpt>
      <trkpt lat="42.730706" lon="1.110414">
        <ele>1389.295</ele>
        <time>2021-06-18T13:53:58Z</time>
      </trkpt>
      <trkpt lat="42.730650" lon="1.110354">
        <ele>1389.029</ele>
        <time>2021-06-18T13:53:59Z</time>
      </trkpt>
      <trkpt lat="42.730593" lon="1.110310">
        <ele>1389.219</ele>
        <time>2021-06-18T13:54:00Z</time>
      </trkpt>
      <trkpt lat="42.730485" lon="1.110217">
        <ele>1390.042</ele>
        <time>2021-06-18T13:54:02Z</time>
      </trkpt>
      <trkpt lat="42.730380" lon="1.110104">
        <ele>1390.269</ele>
        <time>2021-06-18T13:54:04Z</time>
      </trkpt>
      <trkpt lat="42.730340" lon="1.110049">
        <ele>1389.663</ele>
        <time>2021-06-18T13:54:05Z</time>
      </trkpt>
      <trkpt lat="42.730279" lon="1.109926">
        <ele>1388.144</ele>
        <time>2021-06-18T13:54:07Z</time>
      </trkpt>
      <trkpt lat="42.730237" lon="1.109770">
        <ele>1387.618</ele>
        <time>2021-06-18T13:54:09Z</time>
      </trkpt>
      <trkpt lat="42.730224" lon="1.109684">
        <ele>1387.008</ele>
        <time>2021-06-18T13:54:10Z</time>
      </trkpt>
      <trkpt lat="42.730195" lon="1.109502">
        <ele>1385.443</ele>
        <time>2021-06-18T13:54:12Z</time>
      </trkpt>
      <trkpt lat="42.730114" lon="1.109371">
        <ele>1386.742</ele>
        <time>2021-06-18T13:54:14Z</time>
      </trkpt>
      <trkpt lat="42.729875" lon="1.109231">
        <ele>1387.258</ele>
        <time>2021-06-18T13:54:18Z</time>
      </trkpt>
      <trkpt lat="42.729329" lon="1.109055">
        <ele>1386.382</ele>
        <time>2021-06-18T13:54:26Z</time>
      </trkpt>
      <trkpt lat="42.729036" lon="1.108993">
        <ele>1384.726</ele>
        <time>2021-06-18T13:54:30Z</time>
      </trkpt>
      <trkpt lat="42.728877" lon="1.108981">
        <ele>1383.616</ele>
        <time>2021-06-18T13:54:32Z</time>
      </trkpt>
      <trkpt lat="42.728403" lon="1.108891">
        <ele>1379.039</ele>
        <time>2021-06-18T13:54:38Z</time>
      </trkpt>
      <trkpt lat="42.728250" lon="1.108927">
        <ele>1378.686</ele>
        <time>2021-06-18T13:54:40Z</time>
      </trkpt>
      <trkpt lat="42.728174" lon="1.108972">
        <ele>1378.537</ele>
        <time>2021-06-18T13:54:41Z</time>
      </trkpt>
      <trkpt lat="42.728098" lon="1.109024">
        <ele>1378.949</ele>
        <time>2021-06-18T13:54:42Z</time>
      </trkpt>
      <trkpt lat="42.727771" lon="1.109234">
        <ele>1377.313</ele>
        <time>2021-06-18T13:54:46Z</time>
      </trkpt>
      <trkpt lat="42.727689" lon="1.109285">
        <ele>1377.308</ele>
        <time>2021-06-18T13:54:47Z</time>
      </trkpt>
      <trkpt lat="42.727447" lon="1.109414">
        <ele>1376.070</ele>
        <time>2021-06-18T13:54:50Z</time>
      </trkpt>
      <trkpt lat="42.727363" lon="1.109429">
        <ele>1376.119</ele>
        <time>2021-06-18T13:54:51Z</time>
      </trkpt>
      <trkpt lat="42.727278" lon="1.109420">
        <ele>1375.685</ele>
        <time>2021-06-18T13:54:52Z</time>
      </trkpt>
      <trkpt lat="42.727108" lon="1.109375">
        <ele>1374.989</ele>
        <time>2021-06-18T13:54:54Z</time>
      </trkpt>
      <trkpt lat="42.726948" lon="1.109295">
        <ele>1373.153</ele>
        <time>2021-06-18T13:54:56Z</time>
      </trkpt>
      <trkpt lat="42.726817" lon="1.109158">
        <ele>1375.713</ele>
        <time>2021-06-18T13:54:58Z</time>
      </trkpt>
      <trkpt lat="42.726770" lon="1.109074">
        <ele>1376.156</ele>
        <time>2021-06-18T13:54:59Z</time>
      </trkpt>
      <trkpt lat="42.726698" lon="1.108888">
        <ele>1373.253</ele>
        <time>2021-06-18T13:55:01Z</time>
      </trkpt>
      <trkpt lat="42.726609" lon="1.108606">
        <ele>1373.598</ele>
        <time>2021-06-18T13:55:04Z</time>
      </trkpt>
      <trkpt lat="42.726587" lon="1.108512">
        <ele>1374.015</ele>
        <time>2021-06-18T13:55:05Z</time>
      </trkpt>
      <trkpt lat="42.726574" lon="1.108425">
        <ele>1373.726</ele>
        <time>2021-06-18T13:55:06Z</time>
      </trkpt>
      <trkpt lat="42.726510" lon="1.108170">
        <ele>1373.208</ele>
        <time>2021-06-18T13:55:09Z</time>
      </trkpt>
      <trkpt lat="42.726460" lon="1.108021">
        <ele>1372.726</ele>
        <time>2021-06-18T13:55:11Z</time>
      </trkpt>
      <trkpt lat="42.726331" lon="1.107603">
        <ele>1372.295</ele>
        <time>2021-06-18T13:55:17Z</time>
      </trkpt>
      <trkpt lat="42.726167" lon="1.107361">
        <ele>1373.151</ele>
        <time>2021-06-18T13:55:22Z</time>
      </trkpt>
      <trkpt lat="42.725988" lon="1.107092">
        <ele>1370.485</ele>
        <time>2021-06-18T13:55:28Z</time>
      </trkpt>
      <trkpt lat="42.725954" lon="1.107062">
        <ele>1370.549</ele>
        <time>2021-06-18T13:55:29Z</time>
      </trkpt>
      <trkpt lat="42.725788" lon="1.107024">
        <ele>1370.959</ele>
        <time>2021-06-18T13:55:33Z</time>
      </trkpt>
      <trkpt lat="42.725640" lon="1.107140">
        <ele>1371.182</ele>
        <time>2021-06-18T13:55:37Z</time>
      </trkpt>
      <trkpt lat="42.725610" lon="1.107185">
        <ele>1371.399</ele>
        <time>2021-06-18T13:55:38Z</time>
      </trkpt>
      <trkpt lat="42.725417" lon="1.107466">
        <ele>1371.646</ele>
        <time>2021-06-18T13:55:44Z</time>
      </trkpt>
      <trkpt lat="42.725383" lon="1.107507">
        <ele>1371.488</ele>
        <time>2021-06-18T13:55:45Z</time>
      </trkpt>
      <trkpt lat="42.725347" lon="1.107548">
        <ele>1371.616</ele>
        <time>2021-06-18T13:55:46Z</time>
      </trkpt>
      <trkpt lat="42.725131" lon="1.107712">
        <ele>1370.808</ele>
        <time>2021-06-18T13:55:51Z</time>
      </trkpt>
      <trkpt lat="42.724880" lon="1.107877">
        <ele>1372.431</ele>
        <time>2021-06-18T13:55:56Z</time>
      </trkpt>
      <trkpt lat="42.724820" lon="1.107902">
        <ele>1372.770</ele>
        <time>2021-06-18T13:55:57Z</time>
      </trkpt>
      <trkpt lat="42.724633" lon="1.107945">
        <ele>1373.526</ele>
        <time>2021-06-18T13:56:00Z</time>
      </trkpt>
      <trkpt lat="42.724570" lon="1.107928">
        <ele>1372.270</ele>
        <time>2021-06-18T13:56:01Z</time>
      </trkpt>
      <trkpt lat="42.724507" lon="1.107891">
        <ele>1369.684</ele>
        <time>2021-06-18T13:56:02Z</time>
      </trkpt>
      <trkpt lat="42.724393" lon="1.107841">
        <ele>1366.084</ele>
        <time>2021-06-18T13:56:04Z</time>
      </trkpt>
      <trkpt lat="42.724332" lon="1.107851">
        <ele>1366.437</ele>
        <time>2021-06-18T13:56:05Z</time>
      </trkpt>
      <trkpt lat="42.724140" lon="1.107953">
        <ele>1370.634</ele>
        <time>2021-06-18T13:56:08Z</time>
      </trkpt>
      <trkpt lat="42.724075" lon="1.107991">
        <ele>1370.347</ele>
        <time>2021-06-18T13:56:09Z</time>
      </trkpt>
      <trkpt lat="42.723930" lon="1.108065">
        <ele>1368.229</ele>
        <time>2021-06-18T13:56:11Z</time>
      </trkpt>
      <trkpt lat="42.723780" lon="1.108139">
        <ele>1367.121</ele>
        <time>2021-06-18T13:56:13Z</time>
      </trkpt>
      <trkpt lat="42.723710" lon="1.108188">
        <ele>1367.408</ele>
        <time>2021-06-18T13:56:14Z</time>
      </trkpt>
      <trkpt lat="42.723429" lon="1.108357">
        <ele>1365.791</ele>
        <time>2021-06-18T13:56:18Z</time>
      </trkpt>
      <trkpt lat="42.723358" lon="1.108398">
        <ele>1365.210</ele>
        <time>2021-06-18T13:56:19Z</time>
      </trkpt>
      <trkpt lat="42.723141" lon="1.108533">
        <ele>1363.746</ele>
        <time>2021-06-18T13:56:22Z</time>
      </trkpt>
      <trkpt lat="42.723073" lon="1.108590">
        <ele>1363.010</ele>
        <time>2021-06-18T13:56:23Z</time>
      </trkpt>
      <trkpt lat="42.723007" lon="1.108659">
        <ele>1363.044</ele>
        <time>2021-06-18T13:56:24Z</time>
      </trkpt>
      <trkpt lat="42.722812" lon="1.108911">
        <ele>1360.834</ele>
        <time>2021-06-18T13:56:27Z</time>
      </trkpt>
      <trkpt lat="42.722683" lon="1.109102">
        <ele>1361.547</ele>
        <time>2021-06-18T13:56:29Z</time>
      </trkpt>
      <trkpt lat="42.722565" lon="1.109317">
        <ele>1359.584</ele>
        <time>2021-06-18T13:56:31Z</time>
      </trkpt>
      <trkpt lat="42.722526" lon="1.109441">
        <ele>1358.726</ele>
        <time>2021-06-18T13:56:32Z</time>
      </trkpt>
      <trkpt lat="42.722503" lon="1.109574">
        <ele>1357.247</ele>
        <time>2021-06-18T13:56:33Z</time>
      </trkpt>
      <trkpt lat="42.722493" lon="1.109856">
        <ele>1355.411</ele>
        <time>2021-06-18T13:56:35Z</time>
      </trkpt>
      <trkpt lat="42.722498" lon="1.109999">
        <ele>1354.008</ele>
        <time>2021-06-18T13:56:36Z</time>
      </trkpt>
      <trkpt lat="42.722506" lon="1.110143">
        <ele>1353.619</ele>
        <time>2021-06-18T13:56:37Z</time>
      </trkpt>
      <trkpt lat="42.722520" lon="1.110286">
        <ele>1353.888</ele>
        <time>2021-06-18T13:56:38Z</time>
      </trkpt>
      <trkpt lat="42.722546" lon="1.110426">
        <ele>1353.664</ele>
        <time>2021-06-18T13:56:39Z</time>
      </trkpt>
      <trkpt lat="42.722584" lon="1.110561">
        <ele>1354.568</ele>
        <time>2021-06-18T13:56:40Z</time>
      </trkpt>
      <trkpt lat="42.722665" lon="1.110813">
        <ele>1354.552</ele>
        <time>2021-06-18T13:56:42Z</time>
      </trkpt>
      <trkpt lat="42.722674" lon="1.110928">
        <ele>1352.452</ele>
        <time>2021-06-18T13:56:43Z</time>
      </trkpt>
      <trkpt lat="42.722654" lon="1.111032">
        <ele>1349.735</ele>
        <time>2021-06-18T13:56:44Z</time>
      </trkpt>
      <trkpt lat="42.722611" lon="1.111113">
        <ele>1347.632</ele>
        <time>2021-06-18T13:56:45Z</time>
      </trkpt>
      <trkpt lat="42.722561" lon="1.111180">
        <ele>1346.944</ele>
        <time>2021-06-18T13:56:46Z</time>
      </trkpt>
      <trkpt lat="42.722528" lon="1.111250">
        <ele>1347.005</ele>
        <time>2021-06-18T13:56:47Z</time>
      </trkpt>
      <trkpt lat="42.722510" lon="1.111326">
        <ele>1347.515</ele>
        <time>2021-06-18T13:56:48Z</time>
      </trkpt>
      <trkpt lat="42.722502" lon="1.111407">
        <ele>1348.008</ele>
        <time>2021-06-18T13:56:49Z</time>
      </trkpt>
      <trkpt lat="42.722517" lon="1.111665">
        <ele>1348.651</ele>
        <time>2021-06-18T13:56:52Z</time>
      </trkpt>
      <trkpt lat="42.722592" lon="1.112098">
        <ele>1349.110</ele>
        <time>2021-06-18T13:56:57Z</time>
      </trkpt>
      <trkpt lat="42.722619" lon="1.112275">
        <ele>1348.436</ele>
        <time>2021-06-18T13:56:59Z</time>
      </trkpt>
      <trkpt lat="42.722610" lon="1.112427">
        <ele>1348.080</ele>
        <time>2021-06-18T13:57:01Z</time>
      </trkpt>
      <trkpt lat="42.722578" lon="1.112557">
        <ele>1348.334</ele>
        <time>2021-06-18T13:57:03Z</time>
      </trkpt>
      <trkpt lat="42.722498" lon="1.112828">
        <ele>1347.274</ele>
        <time>2021-06-18T13:57:07Z</time>
      </trkpt>
      <trkpt lat="42.722430" lon="1.113037">
        <ele>1350.487</ele>
        <time>2021-06-18T13:57:10Z</time>
      </trkpt>
      <trkpt lat="42.722342" lon="1.113241">
        <ele>1352.364</ele>
        <time>2021-06-18T13:57:13Z</time>
      </trkpt>
      <trkpt lat="42.722089" lon="1.113682">
        <ele>1348.326</ele>
        <time>2021-06-18T13:57:20Z</time>
      </trkpt>
      <trkpt lat="42.721866" lon="1.113831">
        <ele>1348.247</ele>
        <time>2021-06-18T13:57:24Z</time>
      </trkpt>
      <trkpt lat="42.721800" lon="1.113849">
        <ele>1348.011</ele>
        <time>2021-06-18T13:57:25Z</time>
      </trkpt>
      <trkpt lat="42.721735" lon="1.113860">
        <ele>1348.008</ele>
        <time>2021-06-18T13:57:26Z</time>
      </trkpt>
      <trkpt lat="42.721548" lon="1.113900">
        <ele>1346.589</ele>
        <time>2021-06-18T13:57:29Z</time>
      </trkpt>
      <trkpt lat="42.721484" lon="1.113919">
        <ele>1346.258</ele>
        <time>2021-06-18T13:57:30Z</time>
      </trkpt>
      <trkpt lat="42.721196" lon="1.113930">
        <ele>1346.224</ele>
        <time>2021-06-18T13:57:34Z</time>
      </trkpt>
      <trkpt lat="42.721119" lon="1.113936">
        <ele>1345.858</ele>
        <time>2021-06-18T13:57:35Z</time>
      </trkpt>
      <trkpt lat="42.721042" lon="1.113943">
        <ele>1345.412</ele>
        <time>2021-06-18T13:57:36Z</time>
      </trkpt>
      <trkpt lat="42.720658" lon="1.114002">
        <ele>1344.212</ele>
        <time>2021-06-18T13:57:41Z</time>
      </trkpt>
      <trkpt lat="42.720580" lon="1.114010">
        <ele>1344.555</ele>
        <time>2021-06-18T13:57:42Z</time>
      </trkpt>
      <trkpt lat="42.720341" lon="1.114029">
        <ele>1341.182</ele>
        <time>2021-06-18T13:57:45Z</time>
      </trkpt>
      <trkpt lat="42.720009" lon="1.114069">
        <ele>1337.934</ele>
        <time>2021-06-18T13:57:49Z</time>
      </trkpt>
      <trkpt lat="42.719839" lon="1.114095">
        <ele>1336.255</ele>
        <time>2021-06-18T13:57:51Z</time>
      </trkpt>
      <trkpt lat="42.719584" lon="1.114151">
        <ele>1333.710</ele>
        <time>2021-06-18T13:57:54Z</time>
      </trkpt>
      <trkpt lat="42.719414" lon="1.114194">
        <ele>1333.008</ele>
        <time>2021-06-18T13:57:56Z</time>
      </trkpt>
      <trkpt lat="42.719329" lon="1.114214">
        <ele>1333.270</ele>
        <time>2021-06-18T13:57:57Z</time>
      </trkpt>
      <trkpt lat="42.719073" lon="1.114276">
        <ele>1333.579</ele>
        <time>2021-06-18T13:58:00Z</time>
      </trkpt>
      <trkpt lat="42.718903" lon="1.114328">
        <ele>1333.055</ele>
        <time>2021-06-18T13:58:02Z</time>
      </trkpt>
      <trkpt lat="42.718749" lon="1.114426">
        <ele>1334.319</ele>
        <time>2021-06-18T13:58:04Z</time>
      </trkpt>
      <trkpt lat="42.718614" lon="1.114552">
        <ele>1334.193</ele>
        <time>2021-06-18T13:58:06Z</time>
      </trkpt>
      <trkpt lat="42.718495" lon="1.114695">
        <ele>1336.083</ele>
        <time>2021-06-18T13:58:08Z</time>
      </trkpt>
      <trkpt lat="42.718444" lon="1.114773">
        <ele>1335.866</ele>
        <time>2021-06-18T13:58:09Z</time>
      </trkpt>
      <trkpt lat="42.718340" lon="1.114927">
        <ele>1331.353</ele>
        <time>2021-06-18T13:58:11Z</time>
      </trkpt>
      <trkpt lat="42.718167" lon="1.115149">
        <ele>1333.332</ele>
        <time>2021-06-18T13:58:14Z</time>
      </trkpt>
      <trkpt lat="42.717809" lon="1.115522">
        <ele>1328.692</ele>
        <time>2021-06-18T13:58:20Z</time>
      </trkpt>
      <trkpt lat="42.717382" lon="1.115873">
        <ele>1327.511</ele>
        <time>2021-06-18T13:58:27Z</time>
      </trkpt>
      <trkpt lat="42.717219" lon="1.116044">
        <ele>1326.308</ele>
        <time>2021-06-18T13:58:30Z</time>
      </trkpt>
      <trkpt lat="42.717128" lon="1.116161">
        <ele>1327.810</ele>
        <time>2021-06-18T13:58:32Z</time>
      </trkpt>
      <trkpt lat="42.717081" lon="1.116208">
        <ele>1328.599</ele>
        <time>2021-06-18T13:58:33Z</time>
      </trkpt>
      <trkpt lat="42.716946" lon="1.116299">
        <ele>1327.595</ele>
        <time>2021-06-18T13:58:36Z</time>
      </trkpt>
      <trkpt lat="42.716835" lon="1.116347">
        <ele>1325.449</ele>
        <time>2021-06-18T13:58:39Z</time>
      </trkpt>
      <trkpt lat="42.716794" lon="1.116354">
        <ele>1325.253</ele>
        <time>2021-06-18T13:58:40Z</time>
      </trkpt>
      <trkpt lat="42.716750" lon="1.116355">
        <ele>1325.373</ele>
        <time>2021-06-18T13:58:41Z</time>
      </trkpt>
      <trkpt lat="42.716620" lon="1.116280">
        <ele>1328.196</ele>
        <time>2021-06-18T13:58:44Z</time>
      </trkpt>
      <trkpt lat="42.716579" lon="1.116236">
        <ele>1328.823</ele>
        <time>2021-06-18T13:58:45Z</time>
      </trkpt>
      <trkpt lat="42.716491" lon="1.116150">
        <ele>1328.964</ele>
        <time>2021-06-18T13:58:47Z</time>
      </trkpt>
      <trkpt lat="42.716384" lon="1.116086">
        <ele>1327.206</ele>
        <time>2021-06-18T13:58:49Z</time>
      </trkpt>
      <trkpt lat="42.716115" lon="1.115957">
        <ele>1326.216</ele>
        <time>2021-06-18T13:58:53Z</time>
      </trkpt>
      <trkpt lat="42.716039" lon="1.115938">
        <ele>1326.108</ele>
        <time>2021-06-18T13:58:54Z</time>
      </trkpt>
      <trkpt lat="42.715603" lon="1.115904">
        <ele>1323.943</ele>
        <time>2021-06-18T13:58:59Z</time>
      </trkpt>
      <trkpt lat="42.715214" lon="1.115892">
        <ele>1321.942</ele>
        <time>2021-06-18T13:59:03Z</time>
      </trkpt>
      <trkpt lat="42.715015" lon="1.115919">
        <ele>1321.588</ele>
        <time>2021-06-18T13:59:05Z</time>
      </trkpt>
      <trkpt lat="42.714811" lon="1.115965">
        <ele>1320.642</ele>
        <time>2021-06-18T13:59:07Z</time>
      </trkpt>
      <trkpt lat="42.714610" lon="1.115991">
        <ele>1319.626</ele>
        <time>2021-06-18T13:59:09Z</time>
      </trkpt>
      <trkpt lat="42.714517" lon="1.115987">
        <ele>1319.696</ele>
        <time>2021-06-18T13:59:10Z</time>
      </trkpt>
      <trkpt lat="42.714431" lon="1.115963">
        <ele>1320.149</ele>
        <time>2021-06-18T13:59:11Z</time>
      </trkpt>
      <trkpt lat="42.714271" lon="1.115914">
        <ele>1319.196</ele>
        <time>2021-06-18T13:59:13Z</time>
      </trkpt>
      <trkpt lat="42.714149" lon="1.115858">
        <ele>1318.489</ele>
        <time>2021-06-18T13:59:15Z</time>
      </trkpt>
      <trkpt lat="42.714053" lon="1.115812">
        <ele>1319.406</ele>
        <time>2021-06-18T13:59:17Z</time>
      </trkpt>
      <trkpt lat="42.713840" lon="1.115697">
        <ele>1322.026</ele>
        <time>2021-06-18T13:59:23Z</time>
      </trkpt>
      <trkpt lat="42.713809" lon="1.115688">
        <ele>1322.008</ele>
        <time>2021-06-18T13:59:24Z</time>
      </trkpt>
      <trkpt lat="42.713778" lon="1.115678">
        <ele>1322.115</ele>
        <time>2021-06-18T13:59:25Z</time>
      </trkpt>
      <trkpt lat="42.713748" lon="1.115664">
        <ele>1322.454</ele>
        <time>2021-06-18T13:59:26Z</time>
      </trkpt>
      <trkpt lat="42.713653" lon="1.115619">
        <ele>1323.130</ele>
        <time>2021-06-18T13:59:29Z</time>
      </trkpt>
      <trkpt lat="42.713624" lon="1.115603">
        <ele>1323.464</ele>
        <time>2021-06-18T13:59:30Z</time>
      </trkpt>
      <trkpt lat="42.713540" lon="1.115552">
        <ele>1324.418</ele>
        <time>2021-06-18T13:59:33Z</time>
      </trkpt>
      <trkpt lat="42.713443" lon="1.115468">
        <ele>1326.668</ele>
        <time>2021-06-18T13:59:37Z</time>
      </trkpt>
      <trkpt lat="42.713305" lon="1.115321">
        <ele>1327.941</ele>
        <time>2021-06-18T13:59:43Z</time>
      </trkpt>
      <trkpt lat="42.713237" lon="1.115256">
        <ele>1327.978</ele>
        <time>2021-06-18T13:59:46Z</time>
      </trkpt>
      <trkpt lat="42.713091" lon="1.115114">
        <ele>1327.583</ele>
        <time>2021-06-18T13:59:54Z</time>
      </trkpt>
      <trkpt lat="42.712991" lon="1.114908">
        <ele>1328.125</ele>
        <time>2021-06-18T14:00:01Z</time>
      </trkpt>
      <trkpt lat="42.712978" lon="1.114876">
        <ele>1328.217</ele>
        <time>2021-06-18T14:00:02Z</time>
      </trkpt>
      <trkpt lat="42.712943" lon="1.114662">
        <ele>1330.808</ele>
        <time>2021-06-18T14:00:08Z</time>
      </trkpt>
      <trkpt lat="42.712941" lon="1.114619">
        <ele>1331.395</ele>
        <time>2021-06-18T14:00:09Z</time>
      </trkpt>
      <trkpt lat="42.712931" lon="1.114452">
        <ele>1333.344</ele>
        <time>2021-06-18T14:00:13Z</time>
      </trkpt>
      <trkpt lat="42.712917" lon="1.114312">
        <ele>1333.230</ele>
        <time>2021-06-18T14:00:16Z</time>
      </trkpt>
      <trkpt lat="42.712854" lon="1.113994">
        <ele>1333.724</ele>
        <time>2021-06-18T14:00:22Z</time>
      </trkpt>
      <trkpt lat="42.712836" lon="1.113938">
        <ele>1333.718</ele>
        <time>2021-06-18T14:00:23Z</time>
      </trkpt>
      <trkpt lat="42.712662" lon="1.113529">
        <ele>1332.968</ele>
        <time>2021-06-18T14:00:30Z</time>
      </trkpt>
      <trkpt lat="42.712522" lon="1.113231">
        <ele>1332.791</ele>
        <time>2021-06-18T14:00:35Z</time>
      </trkpt>
      <trkpt lat="42.712490" lon="1.113096">
        <ele>1332.548</ele>
        <time>2021-06-18T14:00:37Z</time>
      </trkpt>
      <trkpt lat="42.712463" lon="1.112956">
        <ele>1331.749</ele>
        <time>2021-06-18T14:00:39Z</time>
      </trkpt>
      <trkpt lat="42.712361" lon="1.112596">
        <ele>1326.202</ele>
        <time>2021-06-18T14:00:44Z</time>
      </trkpt>
      <trkpt lat="42.712338" lon="1.112507">
        <ele>1325.922</ele>
        <time>2021-06-18T14:00:45Z</time>
      </trkpt>
      <trkpt lat="42.712294" lon="1.112180">
        <ele>1330.408</ele>
        <time>2021-06-18T14:00:48Z</time>
      </trkpt>
      <trkpt lat="42.712276" lon="1.112057">
        <ele>1329.221</ele>
        <time>2021-06-18T14:00:49Z</time>
      </trkpt>
      <trkpt lat="42.712250" lon="1.111931">
        <ele>1327.530</ele>
        <time>2021-06-18T14:00:50Z</time>
      </trkpt>
      <trkpt lat="42.712175" lon="1.111669">
        <ele>1324.616</ele>
        <time>2021-06-18T14:00:52Z</time>
      </trkpt>
      <trkpt lat="42.712129" lon="1.111539">
        <ele>1323.570</ele>
        <time>2021-06-18T14:00:53Z</time>
      </trkpt>
      <trkpt lat="42.712003" lon="1.111291">
        <ele>1320.474</ele>
        <time>2021-06-18T14:00:55Z</time>
      </trkpt>
      <trkpt lat="42.711849" lon="1.111040">
        <ele>1316.354</ele>
        <time>2021-06-18T14:00:57Z</time>
      </trkpt>
      <trkpt lat="42.711689" lon="1.110798">
        <ele>1314.317</ele>
        <time>2021-06-18T14:00:59Z</time>
      </trkpt>
      <trkpt lat="42.711611" lon="1.110684">
        <ele>1313.384</ele>
        <time>2021-06-18T14:01:00Z</time>
      </trkpt>
      <trkpt lat="42.711533" lon="1.110580">
        <ele>1312.327</ele>
        <time>2021-06-18T14:01:01Z</time>
      </trkpt>
      <trkpt lat="42.711447" lon="1.110485">
        <ele>1312.068</ele>
        <time>2021-06-18T14:01:02Z</time>
      </trkpt>
      <trkpt lat="42.711353" lon="1.110399">
        <ele>1311.314</ele>
        <time>2021-06-18T14:01:03Z</time>
      </trkpt>
      <trkpt lat="42.711258" lon="1.110319">
        <ele>1310.208</ele>
        <time>2021-06-18T14:01:04Z</time>
      </trkpt>
      <trkpt lat="42.711163" lon="1.110256">
        <ele>1309.079</ele>
        <time>2021-06-18T14:01:05Z</time>
      </trkpt>
      <trkpt lat="42.711066" lon="1.110190">
        <ele>1309.188</ele>
        <time>2021-06-18T14:01:06Z</time>
      </trkpt>
      <trkpt lat="42.710970" lon="1.110128">
        <ele>1308.434</ele>
        <time>2021-06-18T14:01:07Z</time>
      </trkpt>
      <trkpt lat="42.710876" lon="1.110063">
        <ele>1307.468</ele>
        <time>2021-06-18T14:01:08Z</time>
      </trkpt>
      <trkpt lat="42.710714" lon="1.109903">
        <ele>1308.592</ele>
        <time>2021-06-18T14:01:10Z</time>
      </trkpt>
      <trkpt lat="42.710644" lon="1.109805">
        <ele>1308.532</ele>
        <time>2021-06-18T14:01:11Z</time>
      </trkpt>
      <trkpt lat="42.710572" lon="1.109707">
        <ele>1306.145</ele>
        <time>2021-06-18T14:01:12Z</time>
      </trkpt>
      <trkpt lat="42.710501" lon="1.109605">
        <ele>1306.462</ele>
        <time>2021-06-18T14:01:13Z</time>
      </trkpt>
      <trkpt lat="42.710372" lon="1.109379">
        <ele>1304.577</ele>
        <time>2021-06-18T14:01:15Z</time>
      </trkpt>
      <trkpt lat="42.710316" lon="1.109257">
        <ele>1302.461</ele>
        <time>2021-06-18T14:01:16Z</time>
      </trkpt>
      <trkpt lat="42.710261" lon="1.109134">
        <ele>1301.027</ele>
        <time>2021-06-18T14:01:17Z</time>
      </trkpt>
      <trkpt lat="42.710137" lon="1.108878">
        <ele>1300.208</ele>
        <time>2021-06-18T14:01:19Z</time>
      </trkpt>
      <trkpt lat="42.709986" lon="1.108648">
        <ele>1299.254</ele>
        <time>2021-06-18T14:01:21Z</time>
      </trkpt>
      <trkpt lat="42.709730" lon="1.108373">
        <ele>1296.133</ele>
        <time>2021-06-18T14:01:24Z</time>
      </trkpt>
      <trkpt lat="42.709648" lon="1.108309">
        <ele>1296.099</ele>
        <time>2021-06-18T14:01:25Z</time>
      </trkpt>
      <trkpt lat="42.709556" lon="1.108269">
        <ele>1295.133</ele>
        <time>2021-06-18T14:01:26Z</time>
      </trkpt>
      <trkpt lat="42.709376" lon="1.108246">
        <ele>1292.897</ele>
        <time>2021-06-18T14:01:28Z</time>
      </trkpt>
      <trkpt lat="42.709276" lon="1.108245">
        <ele>1293.017</ele>
        <time>2021-06-18T14:01:29Z</time>
      </trkpt>
      <trkpt lat="42.709173" lon="1.108236">
        <ele>1293.620</ele>
        <time>2021-06-18T14:01:30Z</time>
      </trkpt>
      <trkpt lat="42.708847" lon="1.108150">
        <ele>1290.117</ele>
        <time>2021-06-18T14:01:33Z</time>
      </trkpt>
      <trkpt lat="42.708623" lon="1.108046">
        <ele>1287.764</ele>
        <time>2021-06-18T14:01:35Z</time>
      </trkpt>
      <trkpt lat="42.708511" lon="1.107978">
        <ele>1287.306</ele>
        <time>2021-06-18T14:01:36Z</time>
      </trkpt>
      <trkpt lat="42.708400" lon="1.107908">
        <ele>1286.516</ele>
        <time>2021-06-18T14:01:37Z</time>
      </trkpt>
      <trkpt lat="42.708181" lon="1.107745">
        <ele>1285.508</ele>
        <time>2021-06-18T14:01:39Z</time>
      </trkpt>
      <trkpt lat="42.708081" lon="1.107647">
        <ele>1287.193</ele>
        <time>2021-06-18T14:01:40Z</time>
      </trkpt>
      <trkpt lat="42.707987" lon="1.107539">
        <ele>1288.382</ele>
        <time>2021-06-18T14:01:41Z</time>
      </trkpt>
      <trkpt lat="42.707902" lon="1.107424">
        <ele>1288.538</ele>
        <time>2021-06-18T14:01:42Z</time>
      </trkpt>
      <trkpt lat="42.707763" lon="1.107191">
        <ele>1285.862</ele>
        <time>2021-06-18T14:01:44Z</time>
      </trkpt>
      <trkpt lat="42.707713" lon="1.107071">
        <ele>1288.016</ele>
        <time>2021-06-18T14:01:45Z</time>
      </trkpt>
      <trkpt lat="42.707648" lon="1.106837">
        <ele>1288.316</ele>
        <time>2021-06-18T14:01:47Z</time>
      </trkpt>
      <trkpt lat="42.707628" lon="1.106716">
        <ele>1287.949</ele>
        <time>2021-06-18T14:01:48Z</time>
      </trkpt>
      <trkpt lat="42.707611" lon="1.106597">
        <ele>1286.656</ele>
        <time>2021-06-18T14:01:49Z</time>
      </trkpt>
      <trkpt lat="42.707606" lon="1.106487">
        <ele>1285.798</ele>
        <time>2021-06-18T14:01:50Z</time>
      </trkpt>
      <trkpt lat="42.707617" lon="1.106377">
        <ele>1285.915</ele>
        <time>2021-06-18T14:01:51Z</time>
      </trkpt>
      <trkpt lat="42.707689" lon="1.105941">
        <ele>1284.426</ele>
        <time>2021-06-18T14:01:55Z</time>
      </trkpt>
      <trkpt lat="42.707696" lon="1.105839">
        <ele>1283.808</ele>
        <time>2021-06-18T14:01:56Z</time>
      </trkpt>
      <trkpt lat="42.707714" lon="1.105545">
        <ele>1282.966</ele>
        <time>2021-06-18T14:01:59Z</time>
      </trkpt>
      <trkpt lat="42.707692" lon="1.105338">
        <ele>1282.075</ele>
        <time>2021-06-18T14:02:01Z</time>
      </trkpt>
      <trkpt lat="42.707588" lon="1.104779">
        <ele>1280.121</ele>
        <time>2021-06-18T14:02:06Z</time>
      </trkpt>
      <trkpt lat="42.707556" lon="1.104670">
        <ele>1279.485</ele>
        <time>2021-06-18T14:02:07Z</time>
      </trkpt>
      <trkpt lat="42.707406" lon="1.104393">
        <ele>1279.429</ele>
        <time>2021-06-18T14:02:10Z</time>
      </trkpt>
      <trkpt lat="42.707350" lon="1.104322">
        <ele>1279.259</ele>
        <time>2021-06-18T14:02:11Z</time>
      </trkpt>
      <trkpt lat="42.707173" lon="1.104115">
        <ele>1276.832</ele>
        <time>2021-06-18T14:02:14Z</time>
      </trkpt>
      <trkpt lat="42.707112" lon="1.104059">
        <ele>1277.089</ele>
        <time>2021-06-18T14:02:15Z</time>
      </trkpt>
      <trkpt lat="42.707045" lon="1.104007">
        <ele>1276.575</ele>
        <time>2021-06-18T14:02:16Z</time>
      </trkpt>
      <trkpt lat="42.706803" lon="1.103792">
        <ele>1275.928</ele>
        <time>2021-06-18T14:02:20Z</time>
      </trkpt>
      <trkpt lat="42.706754" lon="1.103736">
        <ele>1276.220</ele>
        <time>2021-06-18T14:02:21Z</time>
      </trkpt>
      <trkpt lat="42.706710" lon="1.103675">
        <ele>1276.308</ele>
        <time>2021-06-18T14:02:22Z</time>
      </trkpt>
      <trkpt lat="42.706627" lon="1.103476">
        <ele>1277.934</ele>
        <time>2021-06-18T14:02:25Z</time>
      </trkpt>
      <trkpt lat="42.706606" lon="1.103237">
        <ele>1280.453</ele>
        <time>2021-06-18T14:02:29Z</time>
      </trkpt>
      <trkpt lat="42.706607" lon="1.103024">
        <ele>1281.519</ele>
        <time>2021-06-18T14:02:33Z</time>
      </trkpt>
      <trkpt lat="42.706611" lon="1.102882">
        <ele>1282.123</ele>
        <time>2021-06-18T14:02:36Z</time>
      </trkpt>
      <trkpt lat="42.706594" lon="1.102477">
        <ele>1282.947</ele>
        <time>2021-06-18T14:02:44Z</time>
      </trkpt>
      <trkpt lat="42.706583" lon="1.102420">
        <ele>1283.047</ele>
        <time>2021-06-18T14:02:45Z</time>
      </trkpt>
      <trkpt lat="42.706513" lon="1.102166">
        <ele>1282.380</ele>
        <time>2021-06-18T14:02:50Z</time>
      </trkpt>
      <trkpt lat="42.706476" lon="1.102054">
        <ele>1282.257</ele>
        <time>2021-06-18T14:02:52Z</time>
      </trkpt>
      <trkpt lat="42.706449" lon="1.102002">
        <ele>1281.675</ele>
        <time>2021-06-18T14:02:53Z</time>
      </trkpt>
      <trkpt lat="42.706377" lon="1.101908">
        <ele>1280.028</ele>
        <time>2021-06-18T14:02:55Z</time>
      </trkpt>
      <trkpt lat="42.706286" lon="1.101823">
        <ele>1279.620</ele>
        <time>2021-06-18T14:02:57Z</time>
      </trkpt>
      <trkpt lat="42.706177" lon="1.101744">
        <ele>1277.708</ele>
        <time>2021-06-18T14:02:59Z</time>
      </trkpt>
      <trkpt lat="42.706119" lon="1.101704">
        <ele>1276.314</ele>
        <time>2021-06-18T14:03:00Z</time>
      </trkpt>
      <trkpt lat="42.705987" lon="1.101634">
        <ele>1275.553</ele>
        <time>2021-06-18T14:03:02Z</time>
      </trkpt>
      <trkpt lat="42.705840" lon="1.101595">
        <ele>1273.579</ele>
        <time>2021-06-18T14:03:04Z</time>
      </trkpt>
      <trkpt lat="42.705681" lon="1.101544">
        <ele>1273.613</ele>
        <time>2021-06-18T14:03:06Z</time>
      </trkpt>
      <trkpt lat="42.705524" lon="1.101481">
        <ele>1273.827</ele>
        <time>2021-06-18T14:03:08Z</time>
      </trkpt>
      <trkpt lat="42.705374" lon="1.101412">
        <ele>1272.997</ele>
        <time>2021-06-18T14:03:10Z</time>
      </trkpt>
      <trkpt lat="42.705231" lon="1.101341">
        <ele>1272.430</ele>
        <time>2021-06-18T14:03:12Z</time>
      </trkpt>
      <trkpt lat="42.705093" lon="1.101271">
        <ele>1272.427</ele>
        <time>2021-06-18T14:03:14Z</time>
      </trkpt>
      <trkpt lat="42.704949" lon="1.101195">
        <ele>1271.749</ele>
        <time>2021-06-18T14:03:16Z</time>
      </trkpt>
      <trkpt lat="42.704877" lon="1.101150">
        <ele>1271.002</ele>
        <time>2021-06-18T14:03:17Z</time>
      </trkpt>
      <trkpt lat="42.704477" lon="1.100898">
        <ele>1269.722</ele>
        <time>2021-06-18T14:03:22Z</time>
      </trkpt>
      <trkpt lat="42.704114" lon="1.100719">
        <ele>1269.308</ele>
        <time>2021-06-18T14:03:26Z</time>
      </trkpt>
      <trkpt lat="42.704021" lon="1.100706">
        <ele>1270.761</ele>
        <time>2021-06-18T14:03:27Z</time>
      </trkpt>
      <trkpt lat="42.703851" lon="1.100751">
        <ele>1269.990</ele>
        <time>2021-06-18T14:03:29Z</time>
      </trkpt>
      <trkpt lat="42.703774" lon="1.100795">
        <ele>1268.416</ele>
        <time>2021-06-18T14:03:30Z</time>
      </trkpt>
      <trkpt lat="42.703699" lon="1.100846">
        <ele>1266.690</ele>
        <time>2021-06-18T14:03:31Z</time>
      </trkpt>
      <trkpt lat="42.703560" lon="1.100934">
        <ele>1267.784</ele>
        <time>2021-06-18T14:03:33Z</time>
      </trkpt>
      <trkpt lat="42.703365" lon="1.101055">
        <ele>1266.994</ele>
        <time>2021-06-18T14:03:36Z</time>
      </trkpt>
      <trkpt lat="42.702876" lon="1.101337">
        <ele>1266.617</ele>
        <time>2021-06-18T14:03:44Z</time>
      </trkpt>
      <trkpt lat="42.702519" lon="1.101504">
        <ele>1264.944</ele>
        <time>2021-06-18T14:03:50Z</time>
      </trkpt>
      <trkpt lat="42.702345" lon="1.101516">
        <ele>1263.973</ele>
        <time>2021-06-18T14:03:53Z</time>
      </trkpt>
      <trkpt lat="42.702230" lon="1.101501">
        <ele>1263.685</ele>
        <time>2021-06-18T14:03:55Z</time>
      </trkpt>
      <trkpt lat="42.701819" lon="1.101374">
        <ele>1262.113</ele>
        <time>2021-06-18T14:04:02Z</time>
      </trkpt>
      <trkpt lat="42.701631" lon="1.101289">
        <ele>1262.208</ele>
        <time>2021-06-18T14:04:05Z</time>
      </trkpt>
      <trkpt lat="42.701301" lon="1.101131">
        <ele>1261.594</ele>
        <time>2021-06-18T14:04:10Z</time>
      </trkpt>
      <trkpt lat="42.700907" lon="1.100852">
        <ele>1260.443</ele>
        <time>2021-06-18T14:04:16Z</time>
      </trkpt>
      <trkpt lat="42.700847" lon="1.100788">
        <ele>1259.869</ele>
        <time>2021-06-18T14:04:17Z</time>
      </trkpt>
      <trkpt lat="42.700789" lon="1.100718">
        <ele>1259.933</ele>
        <time>2021-06-18T14:04:18Z</time>
      </trkpt>
      <trkpt lat="42.700693" lon="1.100558">
        <ele>1260.027</ele>
        <time>2021-06-18T14:04:20Z</time>
      </trkpt>
      <trkpt lat="42.700617" lon="1.100383">
        <ele>1260.457</ele>
        <time>2021-06-18T14:04:22Z</time>
      </trkpt>
      <trkpt lat="42.700585" lon="1.100295">
        <ele>1260.570</ele>
        <time>2021-06-18T14:04:23Z</time>
      </trkpt>
      <trkpt lat="42.700533" lon="1.100123">
        <ele>1260.857</ele>
        <time>2021-06-18T14:04:25Z</time>
      </trkpt>
      <trkpt lat="42.700426" lon="1.099670">
        <ele>1260.943</ele>
        <time>2021-06-18T14:04:31Z</time>
      </trkpt>
      <trkpt lat="42.700362" lon="1.099375">
        <ele>1261.064</ele>
        <time>2021-06-18T14:04:36Z</time>
      </trkpt>
      <trkpt lat="42.700333" lon="1.099274">
        <ele>1261.610</ele>
        <time>2021-06-18T14:04:38Z</time>
      </trkpt>
      <trkpt lat="42.700316" lon="1.099225">
        <ele>1261.908</ele>
        <time>2021-06-18T14:04:39Z</time>
      </trkpt>
      <trkpt lat="42.700279" lon="1.099128">
        <ele>1262.691</ele>
        <time>2021-06-18T14:04:41Z</time>
      </trkpt>
      <trkpt lat="42.700172" lon="1.098891">
        <ele>1263.740</ele>
        <time>2021-06-18T14:04:46Z</time>
      </trkpt>
      <trkpt lat="42.700071" lon="1.098718">
        <ele>1264.996</ele>
        <time>2021-06-18T14:04:50Z</time>
      </trkpt>
      <trkpt lat="42.700005" lon="1.098644">
        <ele>1264.550</ele>
        <time>2021-06-18T14:04:52Z</time>
      </trkpt>
      <trkpt lat="42.699972" lon="1.098604">
        <ele>1264.574</ele>
        <time>2021-06-18T14:04:53Z</time>
      </trkpt>
      <trkpt lat="42.699704" lon="1.098313">
        <ele>1264.394</ele>
        <time>2021-06-18T14:05:00Z</time>
      </trkpt>
      <trkpt lat="42.699412" lon="1.098054">
        <ele>1262.887</ele>
        <time>2021-06-18T14:05:07Z</time>
      </trkpt>
      <trkpt lat="42.699133" lon="1.097857">
        <ele>1261.914</ele>
        <time>2021-06-18T14:05:14Z</time>
      </trkpt>
      <trkpt lat="42.698868" lon="1.097683">
        <ele>1260.616</ele>
        <time>2021-06-18T14:05:19Z</time>
      </trkpt>
      <trkpt lat="42.698546" lon="1.097453">
        <ele>1258.776</ele>
        <time>2021-06-18T14:05:24Z</time>
      </trkpt>
      <trkpt lat="42.698468" lon="1.097420">
        <ele>1258.813</ele>
        <time>2021-06-18T14:05:25Z</time>
      </trkpt>
      <trkpt lat="42.698383" lon="1.097409">
        <ele>1257.808</ele>
        <time>2021-06-18T14:05:26Z</time>
      </trkpt>
      <trkpt lat="42.698293" lon="1.097420">
        <ele>1257.138</ele>
        <time>2021-06-18T14:05:27Z</time>
      </trkpt>
      <trkpt lat="42.698202" lon="1.097453">
        <ele>1256.627</ele>
        <time>2021-06-18T14:05:28Z</time>
      </trkpt>
      <trkpt lat="42.698014" lon="1.097545">
        <ele>1254.063</ele>
        <time>2021-06-18T14:05:30Z</time>
      </trkpt>
      <trkpt lat="42.697808" lon="1.097602">
        <ele>1253.857</ele>
        <time>2021-06-18T14:05:32Z</time>
      </trkpt>
      <trkpt lat="42.697702" lon="1.097619">
        <ele>1252.591</ele>
        <time>2021-06-18T14:05:33Z</time>
      </trkpt>
      <trkpt lat="42.697595" lon="1.097627">
        <ele>1251.251</ele>
        <time>2021-06-18T14:05:34Z</time>
      </trkpt>
      <trkpt lat="42.697492" lon="1.097627">
        <ele>1250.454</ele>
        <time>2021-06-18T14:05:35Z</time>
      </trkpt>
      <trkpt lat="42.697393" lon="1.097620">
        <ele>1250.211</ele>
        <time>2021-06-18T14:05:36Z</time>
      </trkpt>
      <trkpt lat="42.697204" lon="1.097613">
        <ele>1249.798</ele>
        <time>2021-06-18T14:05:38Z</time>
      </trkpt>
      <trkpt lat="42.696798" lon="1.097565">
        <ele>1251.515</ele>
        <time>2021-06-18T14:05:43Z</time>
      </trkpt>
      <trkpt lat="42.696494" lon="1.097582">
        <ele>1254.626</ele>
        <time>2021-06-18T14:05:48Z</time>
      </trkpt>
      <trkpt lat="42.696297" lon="1.097598">
        <ele>1256.008</ele>
        <time>2021-06-18T14:05:52Z</time>
      </trkpt>
      <trkpt lat="42.696162" lon="1.097611">
        <ele>1255.896</ele>
        <time>2021-06-18T14:05:55Z</time>
      </trkpt>
      <trkpt lat="42.696119" lon="1.097607">
        <ele>1256.275</ele>
        <time>2021-06-18T14:05:56Z</time>
      </trkpt>
      <trkpt lat="42.695984" lon="1.097593">
        <ele>1258.221</ele>
        <time>2021-06-18T14:05:59Z</time>
      </trkpt>
      <trkpt lat="42.695892" lon="1.097606">
        <ele>1258.325</ele>
        <time>2021-06-18T14:06:01Z</time>
      </trkpt>
      <trkpt lat="42.695800" lon="1.097646">
        <ele>1257.519</ele>
        <time>2021-06-18T14:06:03Z</time>
      </trkpt>
      <trkpt lat="42.695662" lon="1.097725">
        <ele>1256.529</ele>
        <time>2021-06-18T14:06:06Z</time>
      </trkpt>
      <trkpt lat="42.695466" lon="1.097791">
        <ele>1255.312</ele>
        <time>2021-06-18T14:06:10Z</time>
      </trkpt>
      <trkpt lat="42.695367" lon="1.097790">
        <ele>1255.469</ele>
        <time>2021-06-18T14:06:12Z</time>
      </trkpt>
      <trkpt lat="42.695320" lon="1.097779">
        <ele>1255.922</ele>
        <time>2021-06-18T14:06:13Z</time>
      </trkpt>
      <trkpt lat="42.695166" lon="1.097721">
        <ele>1256.462</ele>
        <time>2021-06-18T14:06:16Z</time>
      </trkpt>
      <trkpt lat="42.695111" lon="1.097695">
        <ele>1256.408</ele>
        <time>2021-06-18T14:06:17Z</time>
      </trkpt>
      <trkpt lat="42.694731" lon="1.097488">
        <ele>1255.108</ele>
        <time>2021-06-18T14:06:23Z</time>
      </trkpt>
      <trkpt lat="42.694524" lon="1.097383">
        <ele>1255.349</ele>
        <time>2021-06-18T14:06:26Z</time>
      </trkpt>
      <trkpt lat="42.694326" lon="1.097298">
        <ele>1257.248</ele>
        <time>2021-06-18T14:06:29Z</time>
      </trkpt>
      <trkpt lat="42.694118" lon="1.097229">
        <ele>1258.224</ele>
        <time>2021-06-18T14:06:32Z</time>
      </trkpt>
      <trkpt lat="42.694045" lon="1.097224">
        <ele>1258.438</ele>
        <time>2021-06-18T14:06:33Z</time>
      </trkpt>
      <trkpt lat="42.693973" lon="1.097236">
        <ele>1256.912</ele>
        <time>2021-06-18T14:06:34Z</time>
      </trkpt>
      <trkpt lat="42.693836" lon="1.097291">
        <ele>1250.972</ele>
        <time>2021-06-18T14:06:36Z</time>
      </trkpt>
      <trkpt lat="42.693763" lon="1.097314">
        <ele>1248.695</ele>
        <time>2021-06-18T14:06:37Z</time>
      </trkpt>
      <trkpt lat="42.693691" lon="1.097305">
        <ele>1249.282</ele>
        <time>2021-06-18T14:06:38Z</time>
      </trkpt>
      <trkpt lat="42.693618" lon="1.097288">
        <ele>1250.332</ele>
        <time>2021-06-18T14:06:39Z</time>
      </trkpt>
      <trkpt lat="42.693411" lon="1.097165">
        <ele>1249.492</ele>
        <time>2021-06-18T14:06:42Z</time>
      </trkpt>
      <trkpt lat="42.693238" lon="1.096973">
        <ele>1249.511</ele>
        <time>2021-06-18T14:06:45Z</time>
      </trkpt>
      <trkpt lat="42.693197" lon="1.096895">
        <ele>1249.408</ele>
        <time>2021-06-18T14:06:46Z</time>
      </trkpt>
      <trkpt lat="42.693155" lon="1.096705">
        <ele>1249.390</ele>
        <time>2021-06-18T14:06:48Z</time>
      </trkpt>
      <trkpt lat="42.693146" lon="1.096608">
        <ele>1249.399</ele>
        <time>2021-06-18T14:06:49Z</time>
      </trkpt>
      <trkpt lat="42.693074" lon="1.095862">
        <ele>1247.845</ele>
        <time>2021-06-18T14:06:57Z</time>
      </trkpt>
      <trkpt lat="42.693060" lon="1.095771">
        <ele>1247.719</ele>
        <time>2021-06-18T14:06:58Z</time>
      </trkpt>
      <trkpt lat="42.692938" lon="1.095317">
        <ele>1244.543</ele>
        <time>2021-06-18T14:07:03Z</time>
      </trkpt>
      <trkpt lat="42.692750" lon="1.094818">
        <ele>1243.523</ele>
        <time>2021-06-18T14:07:08Z</time>
      </trkpt>
      <trkpt lat="42.692707" lon="1.094711">
        <ele>1243.296</ele>
        <time>2021-06-18T14:07:09Z</time>
      </trkpt>
      <trkpt lat="42.692561" lon="1.094387">
        <ele>1243.183</ele>
        <time>2021-06-18T14:07:12Z</time>
      </trkpt>
      <trkpt lat="42.692499" lon="1.094284">
        <ele>1242.067</ele>
        <time>2021-06-18T14:07:13Z</time>
      </trkpt>
      <trkpt lat="42.692428" lon="1.094186">
        <ele>1240.881</ele>
        <time>2021-06-18T14:07:14Z</time>
      </trkpt>
      <trkpt lat="42.692348" lon="1.094094">
        <ele>1239.719</ele>
        <time>2021-06-18T14:07:15Z</time>
      </trkpt>
      <trkpt lat="42.692177" lon="1.093915">
        <ele>1237.008</ele>
        <time>2021-06-18T14:07:17Z</time>
      </trkpt>
      <trkpt lat="42.692088" lon="1.093824">
        <ele>1236.273</ele>
        <time>2021-06-18T14:07:18Z</time>
      </trkpt>
      <trkpt lat="42.691995" lon="1.093737">
        <ele>1235.662</ele>
        <time>2021-06-18T14:07:19Z</time>
      </trkpt>
      <trkpt lat="42.691898" lon="1.093660">
        <ele>1235.748</ele>
        <time>2021-06-18T14:07:20Z</time>
      </trkpt>
      <trkpt lat="42.691804" lon="1.093593">
        <ele>1236.382</ele>
        <time>2021-06-18T14:07:21Z</time>
      </trkpt>
      <trkpt lat="42.691713" lon="1.093529">
        <ele>1237.186</ele>
        <time>2021-06-18T14:07:22Z</time>
      </trkpt>
      <trkpt lat="42.691624" lon="1.093471">
        <ele>1237.496</ele>
        <time>2021-06-18T14:07:23Z</time>
      </trkpt>
      <trkpt lat="42.691446" lon="1.093375">
        <ele>1237.919</ele>
        <time>2021-06-18T14:07:25Z</time>
      </trkpt>
      <trkpt lat="42.691187" lon="1.093305">
        <ele>1239.226</ele>
        <time>2021-06-18T14:07:28Z</time>
      </trkpt>
      <trkpt lat="42.691039" lon="1.093276">
        <ele>1239.185</ele>
        <time>2021-06-18T14:07:30Z</time>
      </trkpt>
      <trkpt lat="42.690983" lon="1.093238">
        <ele>1240.389</ele>
        <time>2021-06-18T14:07:31Z</time>
      </trkpt>
      <trkpt lat="42.690827" lon="1.093100">
        <ele>1242.317</ele>
        <time>2021-06-18T14:07:35Z</time>
      </trkpt>
      <trkpt lat="42.690791" lon="1.093101">
        <ele>1243.608</ele>
        <time>2021-06-18T14:07:36Z</time>
      </trkpt>
      <trkpt lat="42.690729" lon="1.093135">
        <ele>1244.425</ele>
        <time>2021-06-18T14:07:38Z</time>
      </trkpt>
      <trkpt lat="42.690703" lon="1.093158">
        <ele>1244.294</ele>
        <time>2021-06-18T14:07:39Z</time>
      </trkpt>
      <trkpt lat="42.690651" lon="1.093194">
        <ele>1244.340</ele>
        <time>2021-06-18T14:07:41Z</time>
      </trkpt>
      <trkpt lat="42.690601" lon="1.093219">
        <ele>1244.744</ele>
        <time>2021-06-18T14:07:43Z</time>
      </trkpt>
      <trkpt lat="42.690578" lon="1.093234">
        <ele>1244.688</ele>
        <time>2021-06-18T14:07:44Z</time>
      </trkpt>
      <trkpt lat="42.690514" lon="1.093298">
        <ele>1243.928</ele>
        <time>2021-06-18T14:07:47Z</time>
      </trkpt>
      <trkpt lat="42.690457" lon="1.093377">
        <ele>1242.891</ele>
        <time>2021-06-18T14:07:50Z</time>
      </trkpt>
      <trkpt lat="42.690332" lon="1.093512">
        <ele>1244.298</ele>
        <time>2021-06-18T14:07:56Z</time>
      </trkpt>
      <trkpt lat="42.690288" lon="1.093555">
        <ele>1245.232</ele>
        <time>2021-06-18T14:07:58Z</time>
      </trkpt>
      <trkpt lat="42.690204" lon="1.093642">
        <ele>1246.292</ele>
        <time>2021-06-18T14:08:02Z</time>
      </trkpt>
      <trkpt lat="42.690117" lon="1.093715">
        <ele>1246.411</ele>
        <time>2021-06-18T14:08:06Z</time>
      </trkpt>
      <trkpt lat="42.690095" lon="1.093734">
        <ele>1246.308</ele>
        <time>2021-06-18T14:08:07Z</time>
      </trkpt>
      <trkpt lat="42.689999" lon="1.093799">
        <ele>1246.520</ele>
        <time>2021-06-18T14:08:11Z</time>
      </trkpt>
      <trkpt lat="42.689869" lon="1.093824">
        <ele>1244.759</ele>
        <time>2021-06-18T14:08:16Z</time>
      </trkpt>
      <trkpt lat="42.689765" lon="1.093793">
        <ele>1246.665</ele>
        <time>2021-06-18T14:08:20Z</time>
      </trkpt>
      <trkpt lat="42.689741" lon="1.093780">
        <ele>1247.589</ele>
        <time>2021-06-18T14:08:21Z</time>
      </trkpt>
      <trkpt lat="42.689693" lon="1.093750">
        <ele>1248.523</ele>
        <time>2021-06-18T14:08:23Z</time>
      </trkpt>
      <trkpt lat="42.689569" lon="1.093602">
        <ele>1252.583</ele>
        <time>2021-06-18T14:08:29Z</time>
      </trkpt>
      <trkpt lat="42.689501" lon="1.093430">
        <ele>1251.476</ele>
        <time>2021-06-18T14:08:34Z</time>
      </trkpt>
      <trkpt lat="42.689480" lon="1.093351">
        <ele>1251.343</ele>
        <time>2021-06-18T14:08:36Z</time>
      </trkpt>
      <trkpt lat="42.689379" lon="1.093199">
        <ele>1252.322</ele>
        <time>2021-06-18T14:08:41Z</time>
      </trkpt>
      <trkpt lat="42.689180" lon="1.092989">
        <ele>1250.162</ele>
        <time>2021-06-18T14:08:48Z</time>
      </trkpt>
      <trkpt lat="42.689014" lon="1.092685">
        <ele>1248.908</ele>
        <time>2021-06-18T14:08:54Z</time>
      </trkpt>
      <trkpt lat="42.688807" lon="1.092292">
        <ele>1246.408</ele>
        <time>2021-06-18T14:08:59Z</time>
      </trkpt>
      <trkpt lat="42.688752" lon="1.092209">
        <ele>1245.789</ele>
        <time>2021-06-18T14:09:00Z</time>
      </trkpt>
      <trkpt lat="42.688694" lon="1.092122">
        <ele>1244.678</ele>
        <time>2021-06-18T14:09:01Z</time>
      </trkpt>
      <trkpt lat="42.688566" lon="1.091944">
        <ele>1242.454</ele>
        <time>2021-06-18T14:09:03Z</time>
      </trkpt>
      <trkpt lat="42.688500" lon="1.091848">
        <ele>1241.218</ele>
        <time>2021-06-18T14:09:04Z</time>
      </trkpt>
      <trkpt lat="42.688439" lon="1.091742">
        <ele>1240.442</ele>
        <time>2021-06-18T14:09:05Z</time>
      </trkpt>
      <trkpt lat="42.688339" lon="1.091500">
        <ele>1238.852</ele>
        <time>2021-06-18T14:09:07Z</time>
      </trkpt>
      <trkpt lat="42.688300" lon="1.091366">
        <ele>1238.035</ele>
        <time>2021-06-18T14:09:08Z</time>
      </trkpt>
      <trkpt lat="42.688269" lon="1.091224">
        <ele>1236.762</ele>
        <time>2021-06-18T14:09:09Z</time>
      </trkpt>
      <trkpt lat="42.688249" lon="1.091075">
        <ele>1235.937</ele>
        <time>2021-06-18T14:09:10Z</time>
      </trkpt>
      <trkpt lat="42.688242" lon="1.090923">
        <ele>1235.749</ele>
        <time>2021-06-18T14:09:11Z</time>
      </trkpt>
      <trkpt lat="42.688249" lon="1.090775">
        <ele>1235.513</ele>
        <time>2021-06-18T14:09:12Z</time>
      </trkpt>
      <trkpt lat="42.688258" lon="1.090635">
        <ele>1235.008</ele>
        <time>2021-06-18T14:09:13Z</time>
      </trkpt>
      <trkpt lat="42.688258" lon="1.090503">
        <ele>1234.550</ele>
        <time>2021-06-18T14:09:14Z</time>
      </trkpt>
      <trkpt lat="42.688233" lon="1.090381">
        <ele>1233.669</ele>
        <time>2021-06-18T14:09:15Z</time>
      </trkpt>
      <trkpt lat="42.688113" lon="1.090247">
        <ele>1232.055</ele>
        <time>2021-06-18T14:09:17Z</time>
      </trkpt>
      <trkpt lat="42.688031" lon="1.090224">
        <ele>1231.389</ele>
        <time>2021-06-18T14:09:18Z</time>
      </trkpt>
      <trkpt lat="42.687944" lon="1.090208">
        <ele>1230.583</ele>
        <time>2021-06-18T14:09:19Z</time>
      </trkpt>
      <trkpt lat="42.687853" lon="1.090194">
        <ele>1229.663</ele>
        <time>2021-06-18T14:09:20Z</time>
      </trkpt>
      <trkpt lat="42.687760" lon="1.090194">
        <ele>1228.156</ele>
        <time>2021-06-18T14:09:21Z</time>
      </trkpt>
      <trkpt lat="42.687663" lon="1.090204">
        <ele>1226.823</ele>
        <time>2021-06-18T14:09:22Z</time>
      </trkpt>
      <trkpt lat="42.687565" lon="1.090199">
        <ele>1226.146</ele>
        <time>2021-06-18T14:09:23Z</time>
      </trkpt>
      <trkpt lat="42.687372" lon="1.090101">
        <ele>1224.088</ele>
        <time>2021-06-18T14:09:25Z</time>
      </trkpt>
      <trkpt lat="42.687274" lon="1.090036">
        <ele>1222.616</ele>
        <time>2021-06-18T14:09:26Z</time>
      </trkpt>
      <trkpt lat="42.687172" lon="1.089972">
        <ele>1221.508</ele>
        <time>2021-06-18T14:09:27Z</time>
      </trkpt>
      <trkpt lat="42.687069" lon="1.089906">
        <ele>1220.761</ele>
        <time>2021-06-18T14:09:28Z</time>
      </trkpt>
      <trkpt lat="42.686965" lon="1.089845">
        <ele>1219.510</ele>
        <time>2021-06-18T14:09:29Z</time>
      </trkpt>
      <trkpt lat="42.686751" lon="1.089752">
        <ele>1218.446</ele>
        <time>2021-06-18T14:09:31Z</time>
      </trkpt>
      <trkpt lat="42.686639" lon="1.089730">
        <ele>1217.540</ele>
        <time>2021-06-18T14:09:32Z</time>
      </trkpt>
      <trkpt lat="42.686525" lon="1.089734">
        <ele>1216.944</ele>
        <time>2021-06-18T14:09:33Z</time>
      </trkpt>
      <trkpt lat="42.686414" lon="1.089766">
        <ele>1214.924</ele>
        <time>2021-06-18T14:09:34Z</time>
      </trkpt>
      <trkpt lat="42.686306" lon="1.089823">
        <ele>1214.317</ele>
        <time>2021-06-18T14:09:35Z</time>
      </trkpt>
      <trkpt lat="42.686116" lon="1.090000">
        <ele>1210.984</ele>
        <time>2021-06-18T14:09:37Z</time>
      </trkpt>
      <trkpt lat="42.686032" lon="1.090107">
        <ele>1209.679</ele>
        <time>2021-06-18T14:09:38Z</time>
      </trkpt>
      <trkpt lat="42.685949" lon="1.090214">
        <ele>1208.905</ele>
        <time>2021-06-18T14:09:39Z</time>
      </trkpt>
      <trkpt lat="42.685864" lon="1.090316">
        <ele>1208.525</ele>
        <time>2021-06-18T14:09:40Z</time>
      </trkpt>
      <trkpt lat="42.685775" lon="1.090404">
        <ele>1206.308</ele>
        <time>2021-06-18T14:09:41Z</time>
      </trkpt>
      <trkpt lat="42.685677" lon="1.090469">
        <ele>1205.364</ele>
        <time>2021-06-18T14:09:42Z</time>
      </trkpt>
      <trkpt lat="42.685576" lon="1.090508">
        <ele>1206.283</ele>
        <time>2021-06-18T14:09:43Z</time>
      </trkpt>
      <trkpt lat="42.685378" lon="1.090488">
        <ele>1205.929</ele>
        <time>2021-06-18T14:09:45Z</time>
      </trkpt>
      <trkpt lat="42.685290" lon="1.090438">
        <ele>1205.813</ele>
        <time>2021-06-18T14:09:46Z</time>
      </trkpt>
      <trkpt lat="42.685214" lon="1.090368">
        <ele>1206.227</ele>
        <time>2021-06-18T14:09:47Z</time>
      </trkpt>
      <trkpt lat="42.685154" lon="1.090277">
        <ele>1206.267</ele>
        <time>2021-06-18T14:09:48Z</time>
      </trkpt>
      <trkpt lat="42.685106" lon="1.090172">
        <ele>1206.410</ele>
        <time>2021-06-18T14:09:49Z</time>
      </trkpt>
      <trkpt lat="42.685051" lon="1.090075">
        <ele>1205.527</ele>
        <time>2021-06-18T14:09:50Z</time>
      </trkpt>
      <trkpt lat="42.684992" lon="1.089987">
        <ele>1204.027</ele>
        <time>2021-06-18T14:09:51Z</time>
      </trkpt>
      <trkpt lat="42.684928" lon="1.089907">
        <ele>1203.368</ele>
        <time>2021-06-18T14:09:52Z</time>
      </trkpt>
      <trkpt lat="42.684803" lon="1.089744">
        <ele>1202.014</ele>
        <time>2021-06-18T14:09:54Z</time>
      </trkpt>
      <trkpt lat="42.684723" lon="1.089534">
        <ele>1200.708</ele>
        <time>2021-06-18T14:09:56Z</time>
      </trkpt>
      <trkpt lat="42.684550" lon="1.088959">
        <ele>1198.769</ele>
        <time>2021-06-18T14:10:01Z</time>
      </trkpt>
      <trkpt lat="42.684500" lon="1.088856">
        <ele>1198.488</ele>
        <time>2021-06-18T14:10:02Z</time>
      </trkpt>
      <trkpt lat="42.684343" lon="1.088564">
        <ele>1196.754</ele>
        <time>2021-06-18T14:10:05Z</time>
      </trkpt>
      <trkpt lat="42.684302" lon="1.088457">
        <ele>1195.768</ele>
        <time>2021-06-18T14:10:06Z</time>
      </trkpt>
      <trkpt lat="42.684274" lon="1.088343">
        <ele>1195.512</ele>
        <time>2021-06-18T14:10:07Z</time>
      </trkpt>
      <trkpt lat="42.684261" lon="1.088221">
        <ele>1195.582</ele>
        <time>2021-06-18T14:10:08Z</time>
      </trkpt>
      <trkpt lat="42.684248" lon="1.087968">
        <ele>1195.685</ele>
        <time>2021-06-18T14:10:10Z</time>
      </trkpt>
      <trkpt lat="42.684171" lon="1.087735">
        <ele>1193.682</ele>
        <time>2021-06-18T14:10:12Z</time>
      </trkpt>
      <trkpt lat="42.684019" lon="1.087570">
        <ele>1192.668</ele>
        <time>2021-06-18T14:10:14Z</time>
      </trkpt>
      <trkpt lat="42.683938" lon="1.087496">
        <ele>1191.942</ele>
        <time>2021-06-18T14:10:15Z</time>
      </trkpt>
      <trkpt lat="42.683853" lon="1.087425">
        <ele>1190.926</ele>
        <time>2021-06-18T14:10:16Z</time>
      </trkpt>
      <trkpt lat="42.683569" lon="1.087246">
        <ele>1187.908</ele>
        <time>2021-06-18T14:10:19Z</time>
      </trkpt>
      <trkpt lat="42.683465" lon="1.087205">
        <ele>1187.373</ele>
        <time>2021-06-18T14:10:20Z</time>
      </trkpt>
      <trkpt lat="42.683250" lon="1.087140">
        <ele>1185.942</ele>
        <time>2021-06-18T14:10:22Z</time>
      </trkpt>
      <trkpt lat="42.683028" lon="1.087102">
        <ele>1184.578</ele>
        <time>2021-06-18T14:10:24Z</time>
      </trkpt>
      <trkpt lat="42.682915" lon="1.087095">
        <ele>1184.212</ele>
        <time>2021-06-18T14:10:25Z</time>
      </trkpt>
      <trkpt lat="42.682686" lon="1.087109">
        <ele>1183.336</ele>
        <time>2021-06-18T14:10:27Z</time>
      </trkpt>
      <trkpt lat="42.682574" lon="1.087132">
        <ele>1182.666</ele>
        <time>2021-06-18T14:10:28Z</time>
      </trkpt>
      <trkpt lat="42.682355" lon="1.087207">
        <ele>1180.479</ele>
        <time>2021-06-18T14:10:30Z</time>
      </trkpt>
      <trkpt lat="42.682251" lon="1.087242">
        <ele>1179.816</ele>
        <time>2021-06-18T14:10:31Z</time>
      </trkpt>
      <trkpt lat="42.682150" lon="1.087245">
        <ele>1178.433</ele>
        <time>2021-06-18T14:10:32Z</time>
      </trkpt>
      <trkpt lat="42.681970" lon="1.087167">
        <ele>1176.523</ele>
        <time>2021-06-18T14:10:34Z</time>
      </trkpt>
      <trkpt lat="42.681885" lon="1.087113">
        <ele>1176.015</ele>
        <time>2021-06-18T14:10:35Z</time>
      </trkpt>
      <trkpt lat="42.681800" lon="1.087061">
        <ele>1175.608</ele>
        <time>2021-06-18T14:10:36Z</time>
      </trkpt>
      <trkpt lat="42.681620" lon="1.086972">
        <ele>1174.630</ele>
        <time>2021-06-18T14:10:38Z</time>
      </trkpt>
      <trkpt lat="42.681426" lon="1.086892">
        <ele>1172.829</ele>
        <time>2021-06-18T14:10:40Z</time>
      </trkpt>
      <trkpt lat="42.681328" lon="1.086840">
        <ele>1172.495</ele>
        <time>2021-06-18T14:10:41Z</time>
      </trkpt>
      <trkpt lat="42.681234" lon="1.086772">
        <ele>1172.089</ele>
        <time>2021-06-18T14:10:42Z</time>
      </trkpt>
      <trkpt lat="42.681145" lon="1.086697">
        <ele>1171.443</ele>
        <time>2021-06-18T14:10:43Z</time>
      </trkpt>
      <trkpt lat="42.680891" lon="1.086470">
        <ele>1171.083</ele>
        <time>2021-06-18T14:10:46Z</time>
      </trkpt>
      <trkpt lat="42.680729" lon="1.086322">
        <ele>1170.416</ele>
        <time>2021-06-18T14:10:48Z</time>
      </trkpt>
      <trkpt lat="42.680651" lon="1.086250">
        <ele>1170.053</ele>
        <time>2021-06-18T14:10:49Z</time>
      </trkpt>
      <trkpt lat="42.680573" lon="1.086180">
        <ele>1169.624</ele>
        <time>2021-06-18T14:10:50Z</time>
      </trkpt>
      <trkpt lat="42.680419" lon="1.086044">
        <ele>1168.604</ele>
        <time>2021-06-18T14:10:52Z</time>
      </trkpt>
      <trkpt lat="42.680043" lon="1.085753">
        <ele>1167.914</ele>
        <time>2021-06-18T14:10:57Z</time>
      </trkpt>
      <trkpt lat="42.679761" lon="1.085549">
        <ele>1166.508</ele>
        <time>2021-06-18T14:11:01Z</time>
      </trkpt>
      <trkpt lat="42.679618" lon="1.085468">
        <ele>1166.399</ele>
        <time>2021-06-18T14:11:03Z</time>
      </trkpt>
      <trkpt lat="42.679259" lon="1.085258">
        <ele>1164.788</ele>
        <time>2021-06-18T14:11:08Z</time>
      </trkpt>
      <trkpt lat="42.679188" lon="1.085225">
        <ele>1164.374</ele>
        <time>2021-06-18T14:11:09Z</time>
      </trkpt>
      <trkpt lat="42.679116" lon="1.085204">
        <ele>1164.158</ele>
        <time>2021-06-18T14:11:10Z</time>
      </trkpt>
      <trkpt lat="42.678972" lon="1.085175">
        <ele>1164.162</ele>
        <time>2021-06-18T14:11:12Z</time>
      </trkpt>
      <trkpt lat="42.678685" lon="1.085121">
        <ele>1163.712</ele>
        <time>2021-06-18T14:11:16Z</time>
      </trkpt>
      <trkpt lat="42.678332" lon="1.085059">
        <ele>1163.455</ele>
        <time>2021-06-18T14:11:21Z</time>
      </trkpt>
      <trkpt lat="42.678195" lon="1.085058">
        <ele>1162.492</ele>
        <time>2021-06-18T14:11:23Z</time>
      </trkpt>
      <trkpt lat="42.677858" lon="1.085133">
        <ele>1160.259</ele>
        <time>2021-06-18T14:11:28Z</time>
      </trkpt>
      <trkpt lat="42.677722" lon="1.085186">
        <ele>1159.703</ele>
        <time>2021-06-18T14:11:30Z</time>
      </trkpt>
      <trkpt lat="42.677650" lon="1.085201">
        <ele>1159.623</ele>
        <time>2021-06-18T14:11:31Z</time>
      </trkpt>
      <trkpt lat="42.677511" lon="1.085178">
        <ele>1159.708</ele>
        <time>2021-06-18T14:11:33Z</time>
      </trkpt>
      <trkpt lat="42.677389" lon="1.085080">
        <ele>1159.772</ele>
        <time>2021-06-18T14:11:35Z</time>
      </trkpt>
      <trkpt lat="42.677277" lon="1.084957">
        <ele>1159.581</ele>
        <time>2021-06-18T14:11:37Z</time>
      </trkpt>
      <trkpt lat="42.677012" lon="1.084617">
        <ele>1158.947</ele>
        <time>2021-06-18T14:11:42Z</time>
      </trkpt>
      <trkpt lat="42.676953" lon="1.084558">
        <ele>1158.721</ele>
        <time>2021-06-18T14:11:43Z</time>
      </trkpt>
      <trkpt lat="42.676889" lon="1.084510">
        <ele>1158.625</ele>
        <time>2021-06-18T14:11:44Z</time>
      </trkpt>
      <trkpt lat="42.676541" lon="1.084362">
        <ele>1159.985</ele>
        <time>2021-06-18T14:11:49Z</time>
      </trkpt>
      <trkpt lat="42.676253" lon="1.084361">
        <ele>1159.858</ele>
        <time>2021-06-18T14:11:53Z</time>
      </trkpt>
      <trkpt lat="42.676181" lon="1.084371">
        <ele>1159.755</ele>
        <time>2021-06-18T14:11:54Z</time>
      </trkpt>
      <trkpt lat="42.676108" lon="1.084377">
        <ele>1159.727</ele>
        <time>2021-06-18T14:11:55Z</time>
      </trkpt>
      <trkpt lat="42.675823" lon="1.084351">
        <ele>1158.668</ele>
        <time>2021-06-18T14:11:59Z</time>
      </trkpt>
      <trkpt lat="42.675558" lon="1.084289">
        <ele>1157.414</ele>
        <time>2021-06-18T14:12:03Z</time>
      </trkpt>
      <trkpt lat="42.675501" lon="1.084254">
        <ele>1157.308</ele>
        <time>2021-06-18T14:12:04Z</time>
      </trkpt>
      <trkpt lat="42.675364" lon="1.084098">
        <ele>1158.319</ele>
        <time>2021-06-18T14:12:07Z</time>
      </trkpt>
      <trkpt lat="42.675321" lon="1.084048">
        <ele>1158.598</ele>
        <time>2021-06-18T14:12:08Z</time>
      </trkpt>
      <trkpt lat="42.675117" lon="1.083882">
        <ele>1157.724</ele>
        <time>2021-06-18T14:12:13Z</time>
      </trkpt>
      <trkpt lat="42.675009" lon="1.083746">
        <ele>1156.938</ele>
        <time>2021-06-18T14:12:17Z</time>
      </trkpt>
      <trkpt lat="42.674987" lon="1.083693">
        <ele>1156.782</ele>
        <time>2021-06-18T14:12:18Z</time>
      </trkpt>
      <trkpt lat="42.674890" lon="1.083387">
        <ele>1155.652</ele>
        <time>2021-06-18T14:12:22Z</time>
      </trkpt>
      <trkpt lat="42.674654" lon="1.083029">
        <ele>1153.235</ele>
        <time>2021-06-18T14:12:27Z</time>
      </trkpt>
      <trkpt lat="42.674611" lon="1.082948">
        <ele>1152.472</ele>
        <time>2021-06-18T14:12:28Z</time>
      </trkpt>
      <trkpt lat="42.674552" lon="1.082766">
        <ele>1151.632</ele>
        <time>2021-06-18T14:12:30Z</time>
      </trkpt>
      <trkpt lat="42.674486" lon="1.082567">
        <ele>1151.592</ele>
        <time>2021-06-18T14:12:32Z</time>
      </trkpt>
      <trkpt lat="42.674442" lon="1.082470">
        <ele>1151.311</ele>
        <time>2021-06-18T14:12:33Z</time>
      </trkpt>
      <trkpt lat="42.674391" lon="1.082375">
        <ele>1151.108</ele>
        <time>2021-06-18T14:12:34Z</time>
      </trkpt>
      <trkpt lat="42.674221" lon="1.082101">
        <ele>1150.050</ele>
        <time>2021-06-18T14:12:37Z</time>
      </trkpt>
      <trkpt lat="42.674034" lon="1.081866">
        <ele>1150.099</ele>
        <time>2021-06-18T14:12:40Z</time>
      </trkpt>
      <trkpt lat="42.673901" lon="1.081736">
        <ele>1150.065</ele>
        <time>2021-06-18T14:12:42Z</time>
      </trkpt>
      <trkpt lat="42.673750" lon="1.081652">
        <ele>1149.849</ele>
        <time>2021-06-18T14:12:44Z</time>
      </trkpt>
      <trkpt lat="42.673585" lon="1.081594">
        <ele>1149.073</ele>
        <time>2021-06-18T14:12:46Z</time>
      </trkpt>
      <trkpt lat="42.673236" lon="1.081494">
        <ele>1147.483</ele>
        <time>2021-06-18T14:12:50Z</time>
      </trkpt>
      <trkpt lat="42.673053" lon="1.081504">
        <ele>1145.986</ele>
        <time>2021-06-18T14:12:52Z</time>
      </trkpt>
      <trkpt lat="42.672960" lon="1.081533">
        <ele>1145.273</ele>
        <time>2021-06-18T14:12:53Z</time>
      </trkpt>
      <trkpt lat="42.672867" lon="1.081574">
        <ele>1144.458</ele>
        <time>2021-06-18T14:12:54Z</time>
      </trkpt>
      <trkpt lat="42.672772" lon="1.081611">
        <ele>1143.852</ele>
        <time>2021-06-18T14:12:55Z</time>
      </trkpt>
      <trkpt lat="42.672576" lon="1.081658">
        <ele>1143.217</ele>
        <time>2021-06-18T14:12:57Z</time>
      </trkpt>
      <trkpt lat="42.672382" lon="1.081698">
        <ele>1143.808</ele>
        <time>2021-06-18T14:12:59Z</time>
      </trkpt>
      <trkpt lat="42.672118" lon="1.081765">
        <ele>1144.392</ele>
        <time>2021-06-18T14:13:02Z</time>
      </trkpt>
      <trkpt lat="42.672038" lon="1.081785">
        <ele>1144.431</ele>
        <time>2021-06-18T14:13:03Z</time>
      </trkpt>
      <trkpt lat="42.671962" lon="1.081802">
        <ele>1144.577</ele>
        <time>2021-06-18T14:13:04Z</time>
      </trkpt>
      <trkpt lat="42.671818" lon="1.081804">
        <ele>1142.571</ele>
        <time>2021-06-18T14:13:06Z</time>
      </trkpt>
      <trkpt lat="42.671754" lon="1.081767">
        <ele>1142.575</ele>
        <time>2021-06-18T14:13:07Z</time>
      </trkpt>
      <trkpt lat="42.671470" lon="1.081505">
        <ele>1141.795</ele>
        <time>2021-06-18T14:13:12Z</time>
      </trkpt>
      <trkpt lat="42.671111" lon="1.081167">
        <ele>1142.818</ele>
        <time>2021-06-18T14:13:19Z</time>
      </trkpt>
      <trkpt lat="42.670861" lon="1.080961">
        <ele>1142.695</ele>
        <time>2021-06-18T14:13:24Z</time>
      </trkpt>
      <trkpt lat="42.670804" lon="1.080935">
        <ele>1143.036</ele>
        <time>2021-06-18T14:13:25Z</time>
      </trkpt>
      <trkpt lat="42.670544" lon="1.080932">
        <ele>1143.417</ele>
        <time>2021-06-18T14:13:29Z</time>
      </trkpt>
      <trkpt lat="42.670265" lon="1.080929">
        <ele>1143.518</ele>
        <time>2021-06-18T14:13:33Z</time>
      </trkpt>
      <trkpt lat="42.670058" lon="1.080901">
        <ele>1139.208</ele>
        <time>2021-06-18T14:13:36Z</time>
      </trkpt>
      <trkpt lat="42.669994" lon="1.080860">
        <ele>1138.910</ele>
        <time>2021-06-18T14:13:37Z</time>
      </trkpt>
      <trkpt lat="42.669736" lon="1.080706">
        <ele>1138.389</ele>
        <time>2021-06-18T14:13:41Z</time>
      </trkpt>
      <trkpt lat="42.669593" lon="1.080743">
        <ele>1139.555</ele>
        <time>2021-06-18T14:13:43Z</time>
      </trkpt>
      <trkpt lat="42.669523" lon="1.080786">
        <ele>1138.949</ele>
        <time>2021-06-18T14:13:44Z</time>
      </trkpt>
      <trkpt lat="42.669453" lon="1.080837">
        <ele>1137.773</ele>
        <time>2021-06-18T14:13:45Z</time>
      </trkpt>
      <trkpt lat="42.669310" lon="1.080939">
        <ele>1138.343</ele>
        <time>2021-06-18T14:13:47Z</time>
      </trkpt>
      <trkpt lat="42.669156" lon="1.081009">
        <ele>1137.726</ele>
        <time>2021-06-18T14:13:49Z</time>
      </trkpt>
      <trkpt lat="42.668911" lon="1.081104">
        <ele>1133.113</ele>
        <time>2021-06-18T14:13:52Z</time>
      </trkpt>
      <trkpt lat="42.668636" lon="1.081194">
        <ele>1129.593</ele>
        <time>2021-06-18T14:13:55Z</time>
      </trkpt>
      <trkpt lat="42.668339" lon="1.081246">
        <ele>1127.665</ele>
        <time>2021-06-18T14:13:58Z</time>
      </trkpt>
      <trkpt lat="42.668133" lon="1.081243">
        <ele>1127.321</ele>
        <time>2021-06-18T14:14:00Z</time>
      </trkpt>
      <trkpt lat="42.667928" lon="1.081213">
        <ele>1126.908</ele>
        <time>2021-06-18T14:14:02Z</time>
      </trkpt>
      <trkpt lat="42.667729" lon="1.081178">
        <ele>1126.126</ele>
        <time>2021-06-18T14:14:04Z</time>
      </trkpt>
      <trkpt lat="42.667634" lon="1.081147">
        <ele>1125.575</ele>
        <time>2021-06-18T14:14:05Z</time>
      </trkpt>
      <trkpt lat="42.667453" lon="1.081068">
        <ele>1124.411</ele>
        <time>2021-06-18T14:14:07Z</time>
      </trkpt>
      <trkpt lat="42.667276" lon="1.080991">
        <ele>1123.875</ele>
        <time>2021-06-18T14:14:09Z</time>
      </trkpt>
      <trkpt lat="42.667094" lon="1.080936">
        <ele>1123.579</ele>
        <time>2021-06-18T14:14:11Z</time>
      </trkpt>
      <trkpt lat="42.667000" lon="1.080930">
        <ele>1123.039</ele>
        <time>2021-06-18T14:14:12Z</time>
      </trkpt>
      <trkpt lat="42.666539" lon="1.080917">
        <ele>1121.382</ele>
        <time>2021-06-18T14:14:17Z</time>
      </trkpt>
      <trkpt lat="42.666365" lon="1.080917">
        <ele>1121.189</ele>
        <time>2021-06-18T14:14:19Z</time>
      </trkpt>
      <trkpt lat="42.666122" lon="1.080895">
        <ele>1121.172</ele>
        <time>2021-06-18T14:14:22Z</time>
      </trkpt>
      <trkpt lat="42.666045" lon="1.080880">
        <ele>1120.913</ele>
        <time>2021-06-18T14:14:23Z</time>
      </trkpt>
      <trkpt lat="42.665969" lon="1.080866">
        <ele>1120.614</ele>
        <time>2021-06-18T14:14:24Z</time>
      </trkpt>
      <trkpt lat="42.665469" lon="1.080785">
        <ele>1119.708</ele>
        <time>2021-06-18T14:14:31Z</time>
      </trkpt>
      <trkpt lat="42.665260" lon="1.080774">
        <ele>1118.924</ele>
        <time>2021-06-18T14:14:34Z</time>
      </trkpt>
      <trkpt lat="42.665195" lon="1.080802">
        <ele>1117.963</ele>
        <time>2021-06-18T14:14:35Z</time>
      </trkpt>
      <trkpt lat="42.665054" lon="1.081002">
        <ele>1117.739</ele>
        <time>2021-06-18T14:14:38Z</time>
      </trkpt>
      <trkpt lat="42.664897" lon="1.081126">
        <ele>1121.083</ele>
        <time>2021-06-18T14:14:41Z</time>
      </trkpt>
      <trkpt lat="42.664662" lon="1.081046">
        <ele>1121.687</ele>
        <time>2021-06-18T14:14:45Z</time>
      </trkpt>
      <trkpt lat="42.664544" lon="1.081024">
        <ele>1121.427</ele>
        <time>2021-06-18T14:14:47Z</time>
      </trkpt>
      <trkpt lat="42.664317" lon="1.080955">
        <ele>1120.160</ele>
        <time>2021-06-18T14:14:51Z</time>
      </trkpt>
      <trkpt lat="42.663964" lon="1.080861">
        <ele>1119.647</ele>
        <time>2021-06-18T14:14:58Z</time>
      </trkpt>
      <trkpt lat="42.663917" lon="1.080854">
        <ele>1119.635</ele>
        <time>2021-06-18T14:14:59Z</time>
      </trkpt>
      <trkpt lat="42.663735" lon="1.080872">
        <ele>1118.886</ele>
        <time>2021-06-18T14:15:03Z</time>
      </trkpt>
      <trkpt lat="42.663378" lon="1.080914">
        <ele>1119.214</ele>
        <time>2021-06-18T14:15:09Z</time>
      </trkpt>
      <trkpt lat="42.663114" lon="1.080908">
        <ele>1118.608</ele>
        <time>2021-06-18T14:15:13Z</time>
      </trkpt>
      <trkpt lat="42.663068" lon="1.080890">
        <ele>1117.360</ele>
        <time>2021-06-18T14:15:14Z</time>
      </trkpt>
      <trkpt lat="42.662995" lon="1.080856">
        <ele>1115.029</ele>
        <time>2021-06-18T14:15:16Z</time>
      </trkpt>
      <trkpt lat="42.662943" lon="1.080834">
        <ele>1113.995</ele>
        <time>2021-06-18T14:15:18Z</time>
      </trkpt>
      <trkpt lat="42.662934" lon="1.080832">
        <ele>1113.979</ele>
        <time>2021-06-18T14:15:19Z</time>
      </trkpt>
      <trkpt lat="42.662933" lon="1.080832">
        <ele>1113.953</ele>
        <time>2021-06-18T14:15:20Z</time>
      </trkpt>
      <trkpt lat="42.662868" lon="1.080859">
        <ele>1115.863</ele>
        <time>2021-06-18T14:15:56Z</time>
      </trkpt>
      <trkpt lat="42.662830" lon="1.080856">
        <ele>1115.876</ele>
        <time>2021-06-18T14:15:57Z</time>
      </trkpt>
      <trkpt lat="42.662743" lon="1.080830">
        <ele>1115.363</ele>
        <time>2021-06-18T14:15:59Z</time>
      </trkpt>
      <trkpt lat="42.662656" lon="1.080759">
        <ele>1114.454</ele>
        <time>2021-06-18T14:16:01Z</time>
      </trkpt>
      <trkpt lat="42.662566" lon="1.080664">
        <ele>1113.356</ele>
        <time>2021-06-18T14:16:03Z</time>
      </trkpt>
      <trkpt lat="42.662425" lon="1.080506">
        <ele>1111.911</ele>
        <time>2021-06-18T14:16:06Z</time>
      </trkpt>
      <trkpt lat="42.662370" lon="1.080457">
        <ele>1111.408</ele>
        <time>2021-06-18T14:16:07Z</time>
      </trkpt>
      <trkpt lat="42.662310" lon="1.080420">
        <ele>1111.142</ele>
        <time>2021-06-18T14:16:08Z</time>
      </trkpt>
      <trkpt lat="42.662182" lon="1.080388">
        <ele>1111.061</ele>
        <time>2021-06-18T14:16:10Z</time>
      </trkpt>
      <trkpt lat="42.662119" lon="1.080392">
        <ele>1110.837</ele>
        <time>2021-06-18T14:16:11Z</time>
      </trkpt>
      <trkpt lat="42.661941" lon="1.080462">
        <ele>1111.371</ele>
        <time>2021-06-18T14:16:14Z</time>
      </trkpt>
      <trkpt lat="42.661839" lon="1.080550">
        <ele>1111.775</ele>
        <time>2021-06-18T14:16:16Z</time>
      </trkpt>
      <trkpt lat="42.661791" lon="1.080599">
        <ele>1112.095</ele>
        <time>2021-06-18T14:16:17Z</time>
      </trkpt>
      <trkpt lat="42.661701" lon="1.080696">
        <ele>1112.428</ele>
        <time>2021-06-18T14:16:19Z</time>
      </trkpt>
      <trkpt lat="42.661391" lon="1.081046">
        <ele>1114.625</ele>
        <time>2021-06-18T14:16:27Z</time>
      </trkpt>
      <trkpt lat="42.661169" lon="1.081198">
        <ele>1113.388</ele>
        <time>2021-06-18T14:16:32Z</time>
      </trkpt>
      <trkpt lat="42.660830" lon="1.081374">
        <ele>1110.824</ele>
        <time>2021-06-18T14:16:38Z</time>
      </trkpt>
      <trkpt lat="42.660775" lon="1.081423">
        <ele>1111.026</ele>
        <time>2021-06-18T14:16:39Z</time>
      </trkpt>
      <trkpt lat="42.660619" lon="1.081617">
        <ele>1110.008</ele>
        <time>2021-06-18T14:16:42Z</time>
      </trkpt>
      <trkpt lat="42.660519" lon="1.081763">
        <ele>1109.575</ele>
        <time>2021-06-18T14:16:44Z</time>
      </trkpt>
      <trkpt lat="42.660374" lon="1.082007">
        <ele>1109.624</ele>
        <time>2021-06-18T14:16:47Z</time>
      </trkpt>
      <trkpt lat="42.660283" lon="1.082179">
        <ele>1106.360</ele>
        <time>2021-06-18T14:16:49Z</time>
      </trkpt>
      <trkpt lat="42.660239" lon="1.082265">
        <ele>1105.584</ele>
        <time>2021-06-18T14:16:50Z</time>
      </trkpt>
      <trkpt lat="42.660118" lon="1.082528">
        <ele>1104.418</ele>
        <time>2021-06-18T14:16:53Z</time>
      </trkpt>
      <trkpt lat="42.660010" lon="1.082800">
        <ele>1103.328</ele>
        <time>2021-06-18T14:16:56Z</time>
      </trkpt>
      <trkpt lat="42.659930" lon="1.082978">
        <ele>1102.831</ele>
        <time>2021-06-18T14:16:58Z</time>
      </trkpt>
      <trkpt lat="42.659779" lon="1.083217">
        <ele>1104.868</ele>
        <time>2021-06-18T14:17:01Z</time>
      </trkpt>
      <trkpt lat="42.659605" lon="1.083426">
        <ele>1103.845</ele>
        <time>2021-06-18T14:17:04Z</time>
      </trkpt>
      <trkpt lat="42.659550" lon="1.083495">
        <ele>1103.347</ele>
        <time>2021-06-18T14:17:05Z</time>
      </trkpt>
      <trkpt lat="42.659467" lon="1.083652">
        <ele>1102.211</ele>
        <time>2021-06-18T14:17:07Z</time>
      </trkpt>
      <trkpt lat="42.659396" lon="1.084019">
        <ele>1101.708</ele>
        <time>2021-06-18T14:17:11Z</time>
      </trkpt>
      <trkpt lat="42.659391" lon="1.084115">
        <ele>1101.691</ele>
        <time>2021-06-18T14:17:12Z</time>
      </trkpt>
      <trkpt lat="42.659374" lon="1.084671">
        <ele>1102.080</ele>
        <time>2021-06-18T14:17:18Z</time>
      </trkpt>
      <trkpt lat="42.659327" lon="1.085099">
        <ele>1102.876</ele>
        <time>2021-06-18T14:17:23Z</time>
      </trkpt>
      <trkpt lat="42.659306" lon="1.085177">
        <ele>1102.840</ele>
        <time>2021-06-18T14:17:24Z</time>
      </trkpt>
      <trkpt lat="42.659145" lon="1.085680">
        <ele>1103.184</ele>
        <time>2021-06-18T14:17:31Z</time>
      </trkpt>
      <trkpt lat="42.658913" lon="1.086209">
        <ele>1103.534</ele>
        <time>2021-06-18T14:17:39Z</time>
      </trkpt>
      <trkpt lat="42.658593" lon="1.086644">
        <ele>1103.927</ele>
        <time>2021-06-18T14:17:47Z</time>
      </trkpt>
      <trkpt lat="42.658322" lon="1.086951">
        <ele>1105.074</ele>
        <time>2021-06-18T14:17:53Z</time>
      </trkpt>
      <trkpt lat="42.657883" lon="1.087254">
        <ele>1107.166</ele>
        <time>2021-06-18T14:18:01Z</time>
      </trkpt>
      <trkpt lat="42.657467" lon="1.087346">
        <ele>1105.029</ele>
        <time>2021-06-18T14:18:08Z</time>
      </trkpt>
      <trkpt lat="42.656933" lon="1.087439">
        <ele>1108.621</ele>
        <time>2021-06-18T14:18:17Z</time>
      </trkpt>
      <trkpt lat="42.656830" lon="1.087485">
        <ele>1106.508</ele>
        <time>2021-06-18T14:18:19Z</time>
      </trkpt>
      <trkpt lat="42.656781" lon="1.087523">
        <ele>1106.073</ele>
        <time>2021-06-18T14:18:21Z</time>
      </trkpt>
      <trkpt lat="42.656778" lon="1.087524">
        <ele>1105.992</ele>
        <time>2021-06-18T14:18:23Z</time>
      </trkpt>
      <trkpt lat="42.656752" lon="1.087570">
        <ele>1107.048</ele>
        <time>2021-06-18T14:19:19Z</time>
      </trkpt>
      <trkpt lat="42.656730" lon="1.087592">
        <ele>1106.992</ele>
        <time>2021-06-18T14:19:20Z</time>
      </trkpt>
      <trkpt lat="42.656670" lon="1.087655">
        <ele>1106.566</ele>
        <time>2021-06-18T14:19:22Z</time>
      </trkpt>
      <trkpt lat="42.656596" lon="1.087748">
        <ele>1106.896</ele>
        <time>2021-06-18T14:19:24Z</time>
      </trkpt>
      <trkpt lat="42.656287" lon="1.088184">
        <ele>1105.219</ele>
        <time>2021-06-18T14:19:31Z</time>
      </trkpt>
      <trkpt lat="42.656108" lon="1.088447">
        <ele>1103.836</ele>
        <time>2021-06-18T14:19:35Z</time>
      </trkpt>
      <trkpt lat="42.656010" lon="1.088572">
        <ele>1105.258</ele>
        <time>2021-06-18T14:19:37Z</time>
      </trkpt>
      <trkpt lat="42.655901" lon="1.088673">
        <ele>1104.452</ele>
        <time>2021-06-18T14:19:39Z</time>
      </trkpt>
      <trkpt lat="42.655785" lon="1.088758">
        <ele>1103.017</ele>
        <time>2021-06-18T14:19:41Z</time>
      </trkpt>
      <trkpt lat="42.655496" lon="1.088945">
        <ele>1101.808</ele>
        <time>2021-06-18T14:19:46Z</time>
      </trkpt>
      <trkpt lat="42.655031" lon="1.089206">
        <ele>1101.462</ele>
        <time>2021-06-18T14:19:54Z</time>
      </trkpt>
      <trkpt lat="42.654763" lon="1.089248">
        <ele>1100.211</ele>
        <time>2021-06-18T14:19:58Z</time>
      </trkpt>
      <trkpt lat="42.654693" lon="1.089256">
        <ele>1100.057</ele>
        <time>2021-06-18T14:19:59Z</time>
      </trkpt>
      <trkpt lat="42.654208" lon="1.089300">
        <ele>1099.091</ele>
        <time>2021-06-18T14:20:06Z</time>
      </trkpt>
      <trkpt lat="42.654088" lon="1.089382">
        <ele>1098.055</ele>
        <time>2021-06-18T14:20:08Z</time>
      </trkpt>
      <trkpt lat="42.654036" lon="1.089442">
        <ele>1098.155</ele>
        <time>2021-06-18T14:20:09Z</time>
      </trkpt>
      <trkpt lat="42.653986" lon="1.089508">
        <ele>1098.198</ele>
        <time>2021-06-18T14:20:10Z</time>
      </trkpt>
      <trkpt lat="42.653731" lon="1.089869">
        <ele>1094.155</ele>
        <time>2021-06-18T14:20:15Z</time>
      </trkpt>
      <trkpt lat="42.653694" lon="1.089958">
        <ele>1093.852</ele>
        <time>2021-06-18T14:20:16Z</time>
      </trkpt>
      <trkpt lat="42.653614" lon="1.090314">
        <ele>1096.553</ele>
        <time>2021-06-18T14:20:20Z</time>
      </trkpt>
      <trkpt lat="42.653601" lon="1.090480">
        <ele>1097.908</ele>
        <time>2021-06-18T14:20:22Z</time>
      </trkpt>
      <trkpt lat="42.653598" lon="1.090691">
        <ele>1100.508</ele>
        <time>2021-06-18T14:20:25Z</time>
      </trkpt>
      <trkpt lat="42.653610" lon="1.091055">
        <ele>1102.262</ele>
        <time>2021-06-18T14:20:32Z</time>
      </trkpt>
      <trkpt lat="42.653611" lon="1.091105">
        <ele>1102.031</ele>
        <time>2021-06-18T14:20:33Z</time>
      </trkpt>
      <trkpt lat="42.653612" lon="1.091156">
        <ele>1102.277</ele>
        <time>2021-06-18T14:20:34Z</time>
      </trkpt>
      <trkpt lat="42.653612" lon="1.091315">
        <ele>1102.891</ele>
        <time>2021-06-18T14:20:37Z</time>
      </trkpt>
      <trkpt lat="42.653617" lon="1.091546">
        <ele>1102.965</ele>
        <time>2021-06-18T14:20:41Z</time>
      </trkpt>
      <trkpt lat="42.653621" lon="1.091733">
        <ele>1102.665</ele>
        <time>2021-06-18T14:20:44Z</time>
      </trkpt>
      <trkpt lat="42.653602" lon="1.091986">
        <ele>1100.978</ele>
        <time>2021-06-18T14:20:48Z</time>
      </trkpt>
      <trkpt lat="42.653540" lon="1.092611">
        <ele>1104.125</ele>
        <time>2021-06-18T14:20:58Z</time>
      </trkpt>
      <trkpt lat="42.653429" lon="1.092892">
        <ele>1104.868</ele>
        <time>2021-06-18T14:21:04Z</time>
      </trkpt>
      <trkpt lat="42.653328" lon="1.093124">
        <ele>1104.442</ele>
        <time>2021-06-18T14:21:10Z</time>
      </trkpt>
      <trkpt lat="42.653269" lon="1.093290">
        <ele>1104.726</ele>
        <time>2021-06-18T14:21:14Z</time>
      </trkpt>
      <trkpt lat="42.653098" lon="1.093723">
        <ele>1104.608</ele>
        <time>2021-06-18T14:21:23Z</time>
      </trkpt>
      <trkpt lat="42.652965" lon="1.094115">
        <ele>1104.163</ele>
        <time>2021-06-18T14:21:29Z</time>
      </trkpt>
      <trkpt lat="42.652920" lon="1.094552">
        <ele>1102.532</ele>
        <time>2021-06-18T14:21:34Z</time>
      </trkpt>
      <trkpt lat="42.652911" lon="1.094647">
        <ele>1101.768</ele>
        <time>2021-06-18T14:21:35Z</time>
      </trkpt>
      <trkpt lat="42.652886" lon="1.094948">
        <ele>1099.592</ele>
        <time>2021-06-18T14:21:38Z</time>
      </trkpt>
      <trkpt lat="42.652851" lon="1.095270">
        <ele>1098.246</ele>
        <time>2021-06-18T14:21:41Z</time>
      </trkpt>
      <trkpt lat="42.652814" lon="1.095490">
        <ele>1097.936</ele>
        <time>2021-06-18T14:21:43Z</time>
      </trkpt>
      <trkpt lat="42.652738" lon="1.095699">
        <ele>1097.229</ele>
        <time>2021-06-18T14:21:45Z</time>
      </trkpt>
      <trkpt lat="42.652648" lon="1.095913">
        <ele>1095.756</ele>
        <time>2021-06-18T14:21:47Z</time>
      </trkpt>
      <trkpt lat="42.652529" lon="1.096245">
        <ele>1093.828</ele>
        <time>2021-06-18T14:21:50Z</time>
      </trkpt>
      <trkpt lat="42.652456" lon="1.096461">
        <ele>1093.589</ele>
        <time>2021-06-18T14:21:52Z</time>
      </trkpt>
      <trkpt lat="42.652383" lon="1.096666">
        <ele>1093.417</ele>
        <time>2021-06-18T14:21:54Z</time>
      </trkpt>
      <trkpt lat="42.652346" lon="1.096767">
        <ele>1093.108</ele>
        <time>2021-06-18T14:21:55Z</time>
      </trkpt>
      <trkpt lat="42.652305" lon="1.096863">
        <ele>1092.649</ele>
        <time>2021-06-18T14:21:56Z</time>
      </trkpt>
      <trkpt lat="42.652255" lon="1.096952">
        <ele>1091.678</ele>
        <time>2021-06-18T14:21:57Z</time>
      </trkpt>
      <trkpt lat="42.652200" lon="1.097032">
        <ele>1091.364</ele>
        <time>2021-06-18T14:21:58Z</time>
      </trkpt>
      <trkpt lat="42.651963" lon="1.097320">
        <ele>1089.028</ele>
        <time>2021-06-18T14:22:02Z</time>
      </trkpt>
      <trkpt lat="42.651897" lon="1.097376">
        <ele>1088.412</ele>
        <time>2021-06-18T14:22:03Z</time>
      </trkpt>
      <trkpt lat="42.651828" lon="1.097425">
        <ele>1087.922</ele>
        <time>2021-06-18T14:22:04Z</time>
      </trkpt>
      <trkpt lat="42.651297" lon="1.097739">
        <ele>1084.325</ele>
        <time>2021-06-18T14:22:11Z</time>
      </trkpt>
      <trkpt lat="42.650805" lon="1.098018">
        <ele>1082.662</ele>
        <time>2021-06-18T14:22:17Z</time>
      </trkpt>
      <trkpt lat="42.650637" lon="1.098114">
        <ele>1082.531</ele>
        <time>2021-06-18T14:22:19Z</time>
      </trkpt>
      <trkpt lat="42.650391" lon="1.098274">
        <ele>1081.661</ele>
        <time>2021-06-18T14:22:22Z</time>
      </trkpt>
      <trkpt lat="42.650157" lon="1.098470">
        <ele>1080.907</ele>
        <time>2021-06-18T14:22:25Z</time>
      </trkpt>
      <trkpt lat="42.650023" lon="1.098633">
        <ele>1080.308</ele>
        <time>2021-06-18T14:22:27Z</time>
      </trkpt>
      <trkpt lat="42.649976" lon="1.098737">
        <ele>1079.360</ele>
        <time>2021-06-18T14:22:28Z</time>
      </trkpt>
      <trkpt lat="42.649946" lon="1.098848">
        <ele>1078.249</ele>
        <time>2021-06-18T14:22:29Z</time>
      </trkpt>
      <trkpt lat="42.649919" lon="1.099080">
        <ele>1078.335</ele>
        <time>2021-06-18T14:22:31Z</time>
      </trkpt>
      <trkpt lat="42.649915" lon="1.099196">
        <ele>1078.979</ele>
        <time>2021-06-18T14:22:32Z</time>
      </trkpt>
      <trkpt lat="42.649915" lon="1.099745">
        <ele>1082.643</ele>
        <time>2021-06-18T14:22:37Z</time>
      </trkpt>
      <trkpt lat="42.649928" lon="1.100047">
        <ele>1082.943</ele>
        <time>2021-06-18T14:22:40Z</time>
      </trkpt>
      <trkpt lat="42.649908" lon="1.100138">
        <ele>1082.896</ele>
        <time>2021-06-18T14:22:41Z</time>
      </trkpt>
      <trkpt lat="42.649801" lon="1.100248">
        <ele>1083.883</ele>
        <time>2021-06-18T14:22:43Z</time>
      </trkpt>
      <trkpt lat="42.649708" lon="1.100188">
        <ele>1084.281</ele>
        <time>2021-06-18T14:22:45Z</time>
      </trkpt>
      <trkpt lat="42.649665" lon="1.099941">
        <ele>1081.661</ele>
        <time>2021-06-18T14:22:48Z</time>
      </trkpt>
      <trkpt lat="42.649593" lon="1.099456">
        <ele>1077.217</ele>
        <time>2021-06-18T14:22:53Z</time>
      </trkpt>
      <trkpt lat="42.649483" lon="1.099282">
        <ele>1077.208</ele>
        <time>2021-06-18T14:22:55Z</time>
      </trkpt>
      <trkpt lat="42.649326" lon="1.099270">
        <ele>1075.315</ele>
        <time>2021-06-18T14:22:57Z</time>
      </trkpt>
      <trkpt lat="42.649221" lon="1.099435">
        <ele>1074.824</ele>
        <time>2021-06-18T14:22:59Z</time>
      </trkpt>
      <trkpt lat="42.649186" lon="1.099539">
        <ele>1074.430</ele>
        <time>2021-06-18T14:23:00Z</time>
      </trkpt>
      <trkpt lat="42.649153" lon="1.099639">
        <ele>1074.024</ele>
        <time>2021-06-18T14:23:01Z</time>
      </trkpt>
      <trkpt lat="42.649086" lon="1.099828">
        <ele>1074.788</ele>
        <time>2021-06-18T14:23:03Z</time>
      </trkpt>
      <trkpt lat="42.649051" lon="1.099919">
        <ele>1075.368</ele>
        <time>2021-06-18T14:23:04Z</time>
      </trkpt>
      <trkpt lat="42.649014" lon="1.100004">
        <ele>1075.611</ele>
        <time>2021-06-18T14:23:05Z</time>
      </trkpt>
      <trkpt lat="42.648975" lon="1.100081">
        <ele>1076.628</ele>
        <time>2021-06-18T14:23:06Z</time>
      </trkpt>
      <trkpt lat="42.648872" lon="1.100273">
        <ele>1075.752</ele>
        <time>2021-06-18T14:23:09Z</time>
      </trkpt>
      <trkpt lat="42.648730" lon="1.100562">
        <ele>1076.453</ele>
        <time>2021-06-18T14:23:15Z</time>
      </trkpt>
      <trkpt lat="42.648669" lon="1.100684">
        <ele>1077.608</ele>
        <time>2021-06-18T14:23:18Z</time>
      </trkpt>
      <trkpt lat="42.648628" lon="1.100767">
        <ele>1078.308</ele>
        <time>2021-06-18T14:23:20Z</time>
      </trkpt>
      <trkpt lat="42.648564" lon="1.100898">
        <ele>1078.382</ele>
        <time>2021-06-18T14:23:23Z</time>
      </trkpt>
      <trkpt lat="42.648492" lon="1.101071">
        <ele>1080.681</ele>
        <time>2021-06-18T14:23:27Z</time>
      </trkpt>
      <trkpt lat="42.648446" lon="1.101213">
        <ele>1082.227</ele>
        <time>2021-06-18T14:23:30Z</time>
      </trkpt>
      <trkpt lat="42.648413" lon="1.101358">
        <ele>1082.881</ele>
        <time>2021-06-18T14:23:33Z</time>
      </trkpt>
      <trkpt lat="42.648406" lon="1.101468">
        <ele>1083.055</ele>
        <time>2021-06-18T14:23:35Z</time>
      </trkpt>
      <trkpt lat="42.648397" lon="1.101935">
        <ele>1081.675</ele>
        <time>2021-06-18T14:23:42Z</time>
      </trkpt>
      <trkpt lat="42.648385" lon="1.102091">
        <ele>1081.968</ele>
        <time>2021-06-18T14:23:44Z</time>
      </trkpt>
      <trkpt lat="42.648339" lon="1.102241">
        <ele>1079.865</ele>
        <time>2021-06-18T14:23:46Z</time>
      </trkpt>
      <trkpt lat="42.648210" lon="1.102427">
        <ele>1078.392</ele>
        <time>2021-06-18T14:23:49Z</time>
      </trkpt>
      <trkpt lat="42.648161" lon="1.102485">
        <ele>1078.873</ele>
        <time>2021-06-18T14:23:50Z</time>
      </trkpt>
      <trkpt lat="42.647806" lon="1.102947">
        <ele>1078.520</ele>
        <time>2021-06-18T14:23:58Z</time>
      </trkpt>
      <trkpt lat="42.647713" lon="1.103156">
        <ele>1079.508</ele>
        <time>2021-06-18T14:24:01Z</time>
      </trkpt>
      <trkpt lat="42.647661" lon="1.103302">
        <ele>1080.656</ele>
        <time>2021-06-18T14:24:03Z</time>
      </trkpt>
      <trkpt lat="42.647534" lon="1.103470">
        <ele>1079.015</ele>
        <time>2021-06-18T14:24:06Z</time>
      </trkpt>
      <trkpt lat="42.647359" lon="1.103679">
        <ele>1078.431</ele>
        <time>2021-06-18T14:24:10Z</time>
      </trkpt>
      <trkpt lat="42.647279" lon="1.103795">
        <ele>1079.315</ele>
        <time>2021-06-18T14:24:12Z</time>
      </trkpt>
      <trkpt lat="42.647233" lon="1.103846">
        <ele>1079.429</ele>
        <time>2021-06-18T14:24:13Z</time>
      </trkpt>
      <trkpt lat="42.647072" lon="1.103961">
        <ele>1078.759</ele>
        <time>2021-06-18T14:24:16Z</time>
      </trkpt>
      <trkpt lat="42.646756" lon="1.104247">
        <ele>1076.192</ele>
        <time>2021-06-18T14:24:22Z</time>
      </trkpt>
      <trkpt lat="42.646377" lon="1.104711">
        <ele>1075.059</ele>
        <time>2021-06-18T14:24:30Z</time>
      </trkpt>
      <trkpt lat="42.646337" lon="1.104775">
        <ele>1074.196</ele>
        <time>2021-06-18T14:24:31Z</time>
      </trkpt>
      <trkpt lat="42.646212" lon="1.105110">
        <ele>1073.331</ele>
        <time>2021-06-18T14:24:35Z</time>
      </trkpt>
      <trkpt lat="42.646169" lon="1.105201">
        <ele>1072.524</ele>
        <time>2021-06-18T14:24:36Z</time>
      </trkpt>
      <trkpt lat="42.646116" lon="1.105287">
        <ele>1070.808</ele>
        <time>2021-06-18T14:24:37Z</time>
      </trkpt>
      <trkpt lat="42.646056" lon="1.105374">
        <ele>1070.676</ele>
        <time>2021-06-18T14:24:38Z</time>
      </trkpt>
      <trkpt lat="42.645933" lon="1.105558">
        <ele>1068.635</ele>
        <time>2021-06-18T14:24:40Z</time>
      </trkpt>
      <trkpt lat="42.645824" lon="1.105773">
        <ele>1065.891</ele>
        <time>2021-06-18T14:24:42Z</time>
      </trkpt>
      <trkpt lat="42.645773" lon="1.105886">
        <ele>1065.235</ele>
        <time>2021-06-18T14:24:43Z</time>
      </trkpt>
      <trkpt lat="42.645721" lon="1.106004">
        <ele>1064.799</ele>
        <time>2021-06-18T14:24:44Z</time>
      </trkpt>
      <trkpt lat="42.645627" lon="1.106248">
        <ele>1062.369</ele>
        <time>2021-06-18T14:24:46Z</time>
      </trkpt>
      <trkpt lat="42.645588" lon="1.106376">
        <ele>1061.542</ele>
        <time>2021-06-18T14:24:47Z</time>
      </trkpt>
      <trkpt lat="42.645554" lon="1.106506">
        <ele>1061.029</ele>
        <time>2021-06-18T14:24:48Z</time>
      </trkpt>
      <trkpt lat="42.645523" lon="1.106635">
        <ele>1061.038</ele>
        <time>2021-06-18T14:24:49Z</time>
      </trkpt>
      <trkpt lat="42.645474" lon="1.106890">
        <ele>1061.970</ele>
        <time>2021-06-18T14:24:51Z</time>
      </trkpt>
      <trkpt lat="42.645432" lon="1.107133">
        <ele>1061.217</ele>
        <time>2021-06-18T14:24:53Z</time>
      </trkpt>
      <trkpt lat="42.645364" lon="1.107662">
        <ele>1063.108</ele>
        <time>2021-06-18T14:24:58Z</time>
      </trkpt>
      <trkpt lat="42.645280" lon="1.108001">
        <ele>1065.030</ele>
        <time>2021-06-18T14:25:03Z</time>
      </trkpt>
      <trkpt lat="42.645203" lon="1.108234">
        <ele>1064.079</ele>
        <time>2021-06-18T14:25:08Z</time>
      </trkpt>
      <trkpt lat="42.645188" lon="1.108277">
        <ele>1063.885</ele>
        <time>2021-06-18T14:25:09Z</time>
      </trkpt>
      <trkpt lat="42.645172" lon="1.108321">
        <ele>1063.569</ele>
        <time>2021-06-18T14:25:10Z</time>
      </trkpt>
      <trkpt lat="42.645157" lon="1.108364">
        <ele>1063.383</ele>
        <time>2021-06-18T14:25:11Z</time>
      </trkpt>
      <trkpt lat="42.645144" lon="1.108454">
        <ele>1064.363</ele>
        <time>2021-06-18T14:25:13Z</time>
      </trkpt>
      <trkpt lat="42.645135" lon="1.108552">
        <ele>1065.796</ele>
        <time>2021-06-18T14:25:15Z</time>
      </trkpt>
      <trkpt lat="42.645129" lon="1.108603">
        <ele>1066.473</ele>
        <time>2021-06-18T14:25:16Z</time>
      </trkpt>
      <trkpt lat="42.645098" lon="1.108825">
        <ele>1069.795</ele>
        <time>2021-06-18T14:25:20Z</time>
      </trkpt>
      <trkpt lat="42.645082" lon="1.108874">
        <ele>1069.549</ele>
        <time>2021-06-18T14:25:21Z</time>
      </trkpt>
      <trkpt lat="42.645063" lon="1.108924">
        <ele>1069.123</ele>
        <time>2021-06-18T14:25:22Z</time>
      </trkpt>
      <trkpt lat="42.644904" lon="1.109344">
        <ele>1065.108</ele>
        <time>2021-06-18T14:25:30Z</time>
      </trkpt>
      <trkpt lat="42.644856" lon="1.109761">
        <ele>1067.656</ele>
        <time>2021-06-18T14:25:36Z</time>
      </trkpt>
      <trkpt lat="42.644795" lon="1.110219">
        <ele>1067.185</ele>
        <time>2021-06-18T14:25:42Z</time>
      </trkpt>
      <trkpt lat="42.644759" lon="1.110373">
        <ele>1066.791</ele>
        <time>2021-06-18T14:25:44Z</time>
      </trkpt>
      <trkpt lat="42.644702" lon="1.110523">
        <ele>1066.215</ele>
        <time>2021-06-18T14:25:46Z</time>
      </trkpt>
      <trkpt lat="42.644590" lon="1.110737">
        <ele>1066.179</ele>
        <time>2021-06-18T14:25:49Z</time>
      </trkpt>
      <trkpt lat="42.644499" lon="1.110877">
        <ele>1063.699</ele>
        <time>2021-06-18T14:25:51Z</time>
      </trkpt>
      <trkpt lat="42.644376" lon="1.110981">
        <ele>1060.582</ele>
        <time>2021-06-18T14:25:53Z</time>
      </trkpt>
      <trkpt lat="42.644307" lon="1.111018">
        <ele>1060.039</ele>
        <time>2021-06-18T14:25:54Z</time>
      </trkpt>
      <trkpt lat="42.644238" lon="1.111050">
        <ele>1059.732</ele>
        <time>2021-06-18T14:25:55Z</time>
      </trkpt>
      <trkpt lat="42.644171" lon="1.111083">
        <ele>1059.992</ele>
        <time>2021-06-18T14:25:56Z</time>
      </trkpt>
      <trkpt lat="42.644045" lon="1.111162">
        <ele>1058.311</ele>
        <time>2021-06-18T14:25:58Z</time>
      </trkpt>
      <trkpt lat="42.643857" lon="1.111415">
        <ele>1057.508</ele>
        <time>2021-06-18T14:26:02Z</time>
      </trkpt>
      <trkpt lat="42.643820" lon="1.111491">
        <ele>1058.150</ele>
        <time>2021-06-18T14:26:03Z</time>
      </trkpt>
      <trkpt lat="42.643720" lon="1.111727">
        <ele>1059.479</ele>
        <time>2021-06-18T14:26:06Z</time>
      </trkpt>
      <trkpt lat="42.643642" lon="1.111874">
        <ele>1058.745</ele>
        <time>2021-06-18T14:26:08Z</time>
      </trkpt>
      <trkpt lat="42.643464" lon="1.111999">
        <ele>1059.129</ele>
        <time>2021-06-18T14:26:11Z</time>
      </trkpt>
      <trkpt lat="42.643396" lon="1.112010">
        <ele>1058.793</ele>
        <time>2021-06-18T14:26:12Z</time>
      </trkpt>
      <trkpt lat="42.643133" lon="1.112062">
        <ele>1058.033</ele>
        <time>2021-06-18T14:26:16Z</time>
      </trkpt>
      <trkpt lat="42.643071" lon="1.112090">
        <ele>1058.286</ele>
        <time>2021-06-18T14:26:17Z</time>
      </trkpt>
      <trkpt lat="42.642728" lon="1.112317">
        <ele>1057.463</ele>
        <time>2021-06-18T14:26:23Z</time>
      </trkpt>
      <trkpt lat="42.642616" lon="1.112508">
        <ele>1056.632</ele>
        <time>2021-06-18T14:26:26Z</time>
      </trkpt>
      <trkpt lat="42.642599" lon="1.112772">
        <ele>1057.592</ele>
        <time>2021-06-18T14:26:29Z</time>
      </trkpt>
      <trkpt lat="42.642575" lon="1.113155">
        <ele>1059.411</ele>
        <time>2021-06-18T14:26:33Z</time>
      </trkpt>
      <trkpt lat="42.642553" lon="1.113241">
        <ele>1059.408</ele>
        <time>2021-06-18T14:26:34Z</time>
      </trkpt>
      <trkpt lat="42.642415" lon="1.113353">
        <ele>1060.110</ele>
        <time>2021-06-18T14:26:37Z</time>
      </trkpt>
      <trkpt lat="42.642321" lon="1.113277">
        <ele>1060.679</ele>
        <time>2021-06-18T14:26:39Z</time>
      </trkpt>
      <trkpt lat="42.642240" lon="1.113084">
        <ele>1060.075</ele>
        <time>2021-06-18T14:26:42Z</time>
      </trkpt>
      <trkpt lat="42.642214" lon="1.113021">
        <ele>1059.189</ele>
        <time>2021-06-18T14:26:43Z</time>
      </trkpt>
      <trkpt lat="42.642183" lon="1.112963">
        <ele>1058.653</ele>
        <time>2021-06-18T14:26:44Z</time>
      </trkpt>
      <trkpt lat="42.642007" lon="1.112717">
        <ele>1058.193</ele>
        <time>2021-06-18T14:26:49Z</time>
      </trkpt>
      <trkpt lat="42.641870" lon="1.112650">
        <ele>1057.146</ele>
        <time>2021-06-18T14:26:53Z</time>
      </trkpt>
      <trkpt lat="42.641834" lon="1.112658">
        <ele>1057.363</ele>
        <time>2021-06-18T14:26:54Z</time>
      </trkpt>
      <trkpt lat="42.641686" lon="1.112749">
        <ele>1060.095</ele>
        <time>2021-06-18T14:26:58Z</time>
      </trkpt>
      <trkpt lat="42.641617" lon="1.112816">
        <ele>1061.249</ele>
        <time>2021-06-18T14:27:00Z</time>
      </trkpt>
      <trkpt lat="42.641531" lon="1.112860">
        <ele>1061.423</ele>
        <time>2021-06-18T14:27:02Z</time>
      </trkpt>
      <trkpt lat="42.641485" lon="1.112873">
        <ele>1061.308</ele>
        <time>2021-06-18T14:27:03Z</time>
      </trkpt>
      <trkpt lat="42.641132" lon="1.112949">
        <ele>1061.196</ele>
        <time>2021-06-18T14:27:11Z</time>
      </trkpt>
      <trkpt lat="42.640808" lon="1.113032">
        <ele>1061.245</ele>
        <time>2021-06-18T14:27:18Z</time>
      </trkpt>
      <trkpt lat="42.640761" lon="1.113038">
        <ele>1061.481</ele>
        <time>2021-06-18T14:27:19Z</time>
      </trkpt>
      <trkpt lat="42.640624" lon="1.113029">
        <ele>1061.295</ele>
        <time>2021-06-18T14:27:22Z</time>
      </trkpt>
      <trkpt lat="42.640440" lon="1.113006">
        <ele>1059.699</ele>
        <time>2021-06-18T14:27:26Z</time>
      </trkpt>
      <trkpt lat="42.640350" lon="1.113011">
        <ele>1059.179</ele>
        <time>2021-06-18T14:27:28Z</time>
      </trkpt>
      <trkpt lat="42.640213" lon="1.113071">
        <ele>1059.262</ele>
        <time>2021-06-18T14:27:31Z</time>
      </trkpt>
      <trkpt lat="42.640124" lon="1.113136">
        <ele>1058.499</ele>
        <time>2021-06-18T14:27:33Z</time>
      </trkpt>
      <trkpt lat="42.639887" lon="1.113291">
        <ele>1057.423</ele>
        <time>2021-06-18T14:27:38Z</time>
      </trkpt>
      <trkpt lat="42.639840" lon="1.113317">
        <ele>1057.783</ele>
        <time>2021-06-18T14:27:39Z</time>
      </trkpt>
      <trkpt lat="42.639609" lon="1.113476">
        <ele>1056.211</ele>
        <time>2021-06-18T14:27:44Z</time>
      </trkpt>
      <trkpt lat="42.639561" lon="1.113525">
        <ele>1056.308</ele>
        <time>2021-06-18T14:27:45Z</time>
      </trkpt>
      <trkpt lat="42.639263" lon="1.113840">
        <ele>1056.239</ele>
        <time>2021-06-18T14:27:50Z</time>
      </trkpt>
      <trkpt lat="42.638976" lon="1.114155">
        <ele>1053.158</ele>
        <time>2021-06-18T14:27:54Z</time>
      </trkpt>
      <trkpt lat="42.638906" lon="1.114249">
        <ele>1051.794</ele>
        <time>2021-06-18T14:27:55Z</time>
      </trkpt>
      <trkpt lat="42.638839" lon="1.114347">
        <ele>1050.928</ele>
        <time>2021-06-18T14:27:56Z</time>
      </trkpt>
      <trkpt lat="42.638703" lon="1.114563">
        <ele>1049.322</ele>
        <time>2021-06-18T14:27:58Z</time>
      </trkpt>
      <trkpt lat="42.638640" lon="1.114679">
        <ele>1047.552</ele>
        <time>2021-06-18T14:27:59Z</time>
      </trkpt>
      <trkpt lat="42.638582" lon="1.114800">
        <ele>1046.025</ele>
        <time>2021-06-18T14:28:00Z</time>
      </trkpt>
      <trkpt lat="42.638529" lon="1.114928">
        <ele>1045.412</ele>
        <time>2021-06-18T14:28:01Z</time>
      </trkpt>
      <trkpt lat="42.638486" lon="1.115061">
        <ele>1045.049</ele>
        <time>2021-06-18T14:28:02Z</time>
      </trkpt>
      <trkpt lat="42.638455" lon="1.115201">
        <ele>1045.002</ele>
        <time>2021-06-18T14:28:03Z</time>
      </trkpt>
      <trkpt lat="42.638424" lon="1.115489">
        <ele>1043.822</ele>
        <time>2021-06-18T14:28:05Z</time>
      </trkpt>
      <trkpt lat="42.638420" lon="1.115636">
        <ele>1042.608</ele>
        <time>2021-06-18T14:28:06Z</time>
      </trkpt>
      <trkpt lat="42.638424" lon="1.115785">
        <ele>1041.161</ele>
        <time>2021-06-18T14:28:07Z</time>
      </trkpt>
      <trkpt lat="42.638431" lon="1.115934">
        <ele>1040.940</ele>
        <time>2021-06-18T14:28:08Z</time>
      </trkpt>
      <trkpt lat="42.638425" lon="1.116083">
        <ele>1040.676</ele>
        <time>2021-06-18T14:28:09Z</time>
      </trkpt>
      <trkpt lat="42.638395" lon="1.116222">
        <ele>1041.940</ele>
        <time>2021-06-18T14:28:10Z</time>
      </trkpt>
      <trkpt lat="42.638255" lon="1.116438">
        <ele>1042.144</ele>
        <time>2021-06-18T14:28:12Z</time>
      </trkpt>
      <trkpt lat="42.638070" lon="1.116547">
        <ele>1040.854</ele>
        <time>2021-06-18T14:28:14Z</time>
      </trkpt>
      <trkpt lat="42.637976" lon="1.116591">
        <ele>1039.677</ele>
        <time>2021-06-18T14:28:15Z</time>
      </trkpt>
      <trkpt lat="42.637797" lon="1.116685">
        <ele>1038.724</ele>
        <time>2021-06-18T14:28:17Z</time>
      </trkpt>
      <trkpt lat="42.637475" lon="1.116892">
        <ele>1038.988</ele>
        <time>2021-06-18T14:28:21Z</time>
      </trkpt>
      <trkpt lat="42.637274" lon="1.117066">
        <ele>1036.924</ele>
        <time>2021-06-18T14:28:24Z</time>
      </trkpt>
      <trkpt lat="42.637220" lon="1.117139">
        <ele>1037.426</ele>
        <time>2021-06-18T14:28:25Z</time>
      </trkpt>
      <trkpt lat="42.637050" lon="1.117375">
        <ele>1039.008</ele>
        <time>2021-06-18T14:28:28Z</time>
      </trkpt>
      <trkpt lat="42.636975" lon="1.117436">
        <ele>1037.675</ele>
        <time>2021-06-18T14:28:29Z</time>
      </trkpt>
      <trkpt lat="42.636805" lon="1.117542">
        <ele>1034.234</ele>
        <time>2021-06-18T14:28:31Z</time>
      </trkpt>
      <trkpt lat="42.636721" lon="1.117606">
        <ele>1032.740</ele>
        <time>2021-06-18T14:28:32Z</time>
      </trkpt>
      <trkpt lat="42.636639" lon="1.117681">
        <ele>1031.644</ele>
        <time>2021-06-18T14:28:33Z</time>
      </trkpt>
      <trkpt lat="42.636386" lon="1.117921">
        <ele>1030.588</ele>
        <time>2021-06-18T14:28:36Z</time>
      </trkpt>
      <trkpt lat="42.636303" lon="1.118006">
        <ele>1029.668</ele>
        <time>2021-06-18T14:28:37Z</time>
      </trkpt>
      <trkpt lat="42.636220" lon="1.118095">
        <ele>1028.931</ele>
        <time>2021-06-18T14:28:38Z</time>
      </trkpt>
      <trkpt lat="42.636139" lon="1.118183">
        <ele>1027.688</ele>
        <time>2021-06-18T14:28:39Z</time>
      </trkpt>
      <trkpt lat="42.636065" lon="1.118271">
        <ele>1025.391</ele>
        <time>2021-06-18T14:28:40Z</time>
      </trkpt>
      <trkpt lat="42.636007" lon="1.118369">
        <ele>1023.281</ele>
        <time>2021-06-18T14:28:41Z</time>
      </trkpt>
      <trkpt lat="42.635974" lon="1.118485">
        <ele>1022.219</ele>
        <time>2021-06-18T14:28:42Z</time>
      </trkpt>
      <trkpt lat="42.635964" lon="1.118609">
        <ele>1023.008</ele>
        <time>2021-06-18T14:28:43Z</time>
      </trkpt>
      <trkpt lat="42.635962" lon="1.118736">
        <ele>1021.656</ele>
        <time>2021-06-18T14:28:44Z</time>
      </trkpt>
      <trkpt lat="42.635954" lon="1.118867">
        <ele>1019.945</ele>
        <time>2021-06-18T14:28:45Z</time>
      </trkpt>
      <trkpt lat="42.635939" lon="1.118997">
        <ele>1019.831</ele>
        <time>2021-06-18T14:28:46Z</time>
      </trkpt>
      <trkpt lat="42.635914" lon="1.119126">
        <ele>1019.445</ele>
        <time>2021-06-18T14:28:47Z</time>
      </trkpt>
      <trkpt lat="42.635862" lon="1.119377">
        <ele>1019.539</ele>
        <time>2021-06-18T14:28:49Z</time>
      </trkpt>
      <trkpt lat="42.635858" lon="1.119634">
        <ele>1018.279</ele>
        <time>2021-06-18T14:28:51Z</time>
      </trkpt>
      <trkpt lat="42.635857" lon="1.119764">
        <ele>1017.822</ele>
        <time>2021-06-18T14:28:52Z</time>
      </trkpt>
      <trkpt lat="42.635803" lon="1.120012">
        <ele>1017.479</ele>
        <time>2021-06-18T14:28:54Z</time>
      </trkpt>
      <trkpt lat="42.635754" lon="1.120124">
        <ele>1017.478</ele>
        <time>2021-06-18T14:28:55Z</time>
      </trkpt>
      <trkpt lat="42.635700" lon="1.120231">
        <ele>1017.033</ele>
        <time>2021-06-18T14:28:56Z</time>
      </trkpt>
      <trkpt lat="42.635650" lon="1.120340">
        <ele>1016.426</ele>
        <time>2021-06-18T14:28:57Z</time>
      </trkpt>
      <trkpt lat="42.635592" lon="1.120587">
        <ele>1016.708</ele>
        <time>2021-06-18T14:28:59Z</time>
      </trkpt>
      <trkpt lat="42.635477" lon="1.121101">
        <ele>1012.584</ele>
        <time>2021-06-18T14:29:03Z</time>
      </trkpt>
      <trkpt lat="42.635432" lon="1.121225">
        <ele>1012.093</ele>
        <time>2021-06-18T14:29:04Z</time>
      </trkpt>
      <trkpt lat="42.635377" lon="1.121340">
        <ele>1011.569</ele>
        <time>2021-06-18T14:29:05Z</time>
      </trkpt>
      <trkpt lat="42.635223" lon="1.121509">
        <ele>1010.363</ele>
        <time>2021-06-18T14:29:07Z</time>
      </trkpt>
      <trkpt lat="42.635055" lon="1.121637">
        <ele>1009.597</ele>
        <time>2021-06-18T14:29:09Z</time>
      </trkpt>
      <trkpt lat="42.634890" lon="1.121761">
        <ele>1009.097</ele>
        <time>2021-06-18T14:29:11Z</time>
      </trkpt>
      <trkpt lat="42.634650" lon="1.121941">
        <ele>1008.640</ele>
        <time>2021-06-18T14:29:14Z</time>
      </trkpt>
      <trkpt lat="42.634570" lon="1.122000">
        <ele>1008.417</ele>
        <time>2021-06-18T14:29:15Z</time>
      </trkpt>
      <trkpt lat="42.634270" lon="1.122234">
        <ele>1009.427</ele>
        <time>2021-06-18T14:29:19Z</time>
      </trkpt>
      <trkpt lat="42.634195" lon="1.122256">
        <ele>1009.068</ele>
        <time>2021-06-18T14:29:20Z</time>
      </trkpt>
      <trkpt lat="42.634078" lon="1.122187">
        <ele>1008.514</ele>
        <time>2021-06-18T14:29:22Z</time>
      </trkpt>
      <trkpt lat="42.634087" lon="1.122028">
        <ele>1006.308</ele>
        <time>2021-06-18T14:29:24Z</time>
      </trkpt>
      <trkpt lat="42.634215" lon="1.121918">
        <ele>1003.599</ele>
        <time>2021-06-18T14:29:26Z</time>
      </trkpt>
      <trkpt lat="42.634538" lon="1.121808">
        <ele>1003.968</ele>
        <time>2021-06-18T14:29:30Z</time>
      </trkpt>
      <trkpt lat="42.634612" lon="1.121745">
        <ele>1003.634</ele>
        <time>2021-06-18T14:29:31Z</time>
      </trkpt>
      <trkpt lat="42.634752" lon="1.121581">
        <ele>1001.838</ele>
        <time>2021-06-18T14:29:33Z</time>
      </trkpt>
      <trkpt lat="42.634816" lon="1.121483">
        <ele>1000.882</ele>
        <time>2021-06-18T14:29:34Z</time>
      </trkpt>
      <trkpt lat="42.634874" lon="1.121375">
        <ele>999.542</ele>
        <time>2021-06-18T14:29:35Z</time>
      </trkpt>
      <trkpt lat="42.634974" lon="1.121135">
        <ele>996.115</ele>
        <time>2021-06-18T14:29:37Z</time>
      </trkpt>
      <trkpt lat="42.635022" lon="1.121011">
        <ele>995.642</ele>
        <time>2021-06-18T14:29:38Z</time>
      </trkpt>
      <trkpt lat="42.635072" lon="1.120886">
        <ele>995.631</ele>
        <time>2021-06-18T14:29:39Z</time>
      </trkpt>
      <trkpt lat="42.635170" lon="1.120636">
        <ele>995.261</ele>
        <time>2021-06-18T14:29:41Z</time>
      </trkpt>
      <trkpt lat="42.635267" lon="1.120381">
        <ele>993.907</ele>
        <time>2021-06-18T14:29:43Z</time>
      </trkpt>
      <trkpt lat="42.635362" lon="1.120118">
        <ele>994.908</ele>
        <time>2021-06-18T14:29:45Z</time>
      </trkpt>
      <trkpt lat="42.635408" lon="1.119985">
        <ele>994.420</ele>
        <time>2021-06-18T14:29:46Z</time>
      </trkpt>
      <trkpt lat="42.635451" lon="1.119857">
        <ele>994.239</ele>
        <time>2021-06-18T14:29:47Z</time>
      </trkpt>
      <trkpt lat="42.635483" lon="1.119739">
        <ele>993.225</ele>
        <time>2021-06-18T14:29:48Z</time>
      </trkpt>
      <trkpt lat="42.635489" lon="1.119632">
        <ele>992.799</ele>
        <time>2021-06-18T14:29:49Z</time>
      </trkpt>
      <trkpt lat="42.635459" lon="1.119545">
        <ele>991.463</ele>
        <time>2021-06-18T14:29:50Z</time>
      </trkpt>
      <trkpt lat="42.635403" lon="1.119497">
        <ele>989.493</ele>
        <time>2021-06-18T14:29:51Z</time>
      </trkpt>
      <trkpt lat="42.635269" lon="1.119546">
        <ele>985.466</ele>
        <time>2021-06-18T14:29:53Z</time>
      </trkpt>
      <trkpt lat="42.635198" lon="1.119731">
        <ele>984.893</ele>
        <time>2021-06-18T14:29:55Z</time>
      </trkpt>
      <trkpt lat="42.635168" lon="1.119829">
        <ele>984.832</ele>
        <time>2021-06-18T14:29:56Z</time>
      </trkpt>
      <trkpt lat="42.635136" lon="1.119930">
        <ele>984.892</ele>
        <time>2021-06-18T14:29:57Z</time>
      </trkpt>
      <trkpt lat="42.635064" lon="1.120129">
        <ele>985.511</ele>
        <time>2021-06-18T14:29:59Z</time>
      </trkpt>
      <trkpt lat="42.635020" lon="1.120219">
        <ele>985.708</ele>
        <time>2021-06-18T14:30:00Z</time>
      </trkpt>
      <trkpt lat="42.634972" lon="1.120304">
        <ele>985.730</ele>
        <time>2021-06-18T14:30:01Z</time>
      </trkpt>
      <trkpt lat="42.634921" lon="1.120384">
        <ele>985.539</ele>
        <time>2021-06-18T14:30:02Z</time>
      </trkpt>
      <trkpt lat="42.634724" lon="1.120711">
        <ele>984.345</ele>
        <time>2021-06-18T14:30:06Z</time>
      </trkpt>
      <trkpt lat="42.634571" lon="1.120928">
        <ele>986.239</ele>
        <time>2021-06-18T14:30:09Z</time>
      </trkpt>
      <trkpt lat="42.634429" lon="1.120961">
        <ele>985.283</ele>
        <time>2021-06-18T14:30:11Z</time>
      </trkpt>
      <trkpt lat="42.634309" lon="1.120848">
        <ele>982.393</ele>
        <time>2021-06-18T14:30:13Z</time>
      </trkpt>
      <trkpt lat="42.634263" lon="1.120562">
        <ele>974.916</ele>
        <time>2021-06-18T14:30:16Z</time>
      </trkpt>
      <trkpt lat="42.634266" lon="1.120466">
        <ele>972.733</ele>
        <time>2021-06-18T14:30:17Z</time>
      </trkpt>
      <trkpt lat="42.634278" lon="1.119909">
        <ele>977.889</ele>
        <time>2021-06-18T14:30:23Z</time>
      </trkpt>
      <trkpt lat="42.634267" lon="1.119818">
        <ele>980.506</ele>
        <time>2021-06-18T14:30:24Z</time>
      </trkpt>
      <trkpt lat="42.634136" lon="1.119497">
        <ele>982.526</ele>
        <time>2021-06-18T14:30:28Z</time>
      </trkpt>
      <trkpt lat="42.633971" lon="1.119324">
        <ele>981.008</ele>
        <time>2021-06-18T14:30:31Z</time>
      </trkpt>
      <trkpt lat="42.633913" lon="1.119274">
        <ele>981.495</ele>
        <time>2021-06-18T14:30:32Z</time>
      </trkpt>
      <trkpt lat="42.633617" lon="1.119031">
        <ele>986.534</ele>
        <time>2021-06-18T14:30:37Z</time>
      </trkpt>
      <trkpt lat="42.633485" lon="1.118977">
        <ele>986.710</ele>
        <time>2021-06-18T14:30:39Z</time>
      </trkpt>
      <trkpt lat="42.633279" lon="1.119032">
        <ele>987.994</ele>
        <time>2021-06-18T14:30:42Z</time>
      </trkpt>
      <trkpt lat="42.633123" lon="1.119246">
        <ele>988.678</ele>
        <time>2021-06-18T14:30:45Z</time>
      </trkpt>
      <trkpt lat="42.633082" lon="1.119331">
        <ele>987.828</ele>
        <time>2021-06-18T14:30:46Z</time>
      </trkpt>
      <trkpt lat="42.632999" lon="1.119496">
        <ele>987.661</ele>
        <time>2021-06-18T14:30:48Z</time>
      </trkpt>
      <trkpt lat="42.632888" lon="1.119628">
        <ele>987.238</ele>
        <time>2021-06-18T14:30:50Z</time>
      </trkpt>
      <trkpt lat="42.632756" lon="1.119729">
        <ele>984.747</ele>
        <time>2021-06-18T14:30:52Z</time>
      </trkpt>
      <trkpt lat="42.632622" lon="1.119832">
        <ele>985.029</ele>
        <time>2021-06-18T14:30:54Z</time>
      </trkpt>
      <trkpt lat="42.632558" lon="1.119898">
        <ele>983.221</ele>
        <time>2021-06-18T14:30:55Z</time>
      </trkpt>
      <trkpt lat="42.632498" lon="1.119973">
        <ele>980.008</ele>
        <time>2021-06-18T14:30:56Z</time>
      </trkpt>
      <trkpt lat="42.632385" lon="1.120150">
        <ele>980.411</ele>
        <time>2021-06-18T14:30:58Z</time>
      </trkpt>
      <trkpt lat="42.632328" lon="1.120240">
        <ele>979.610</ele>
        <time>2021-06-18T14:30:59Z</time>
      </trkpt>
      <trkpt lat="42.632267" lon="1.120342">
        <ele>978.736</ele>
        <time>2021-06-18T14:31:00Z</time>
      </trkpt>
      <trkpt lat="42.632147" lon="1.120556">
        <ele>976.980</ele>
        <time>2021-06-18T14:31:02Z</time>
      </trkpt>
      <trkpt lat="42.632035" lon="1.120791">
        <ele>976.734</ele>
        <time>2021-06-18T14:31:04Z</time>
      </trkpt>
      <trkpt lat="42.631900" lon="1.121167">
        <ele>974.684</ele>
        <time>2021-06-18T14:31:07Z</time>
      </trkpt>
      <trkpt lat="42.631828" lon="1.121435">
        <ele>973.927</ele>
        <time>2021-06-18T14:31:09Z</time>
      </trkpt>
      <trkpt lat="42.631743" lon="1.121694">
        <ele>973.264</ele>
        <time>2021-06-18T14:31:11Z</time>
      </trkpt>
      <trkpt lat="42.631689" lon="1.121815">
        <ele>971.954</ele>
        <time>2021-06-18T14:31:12Z</time>
      </trkpt>
      <trkpt lat="42.631628" lon="1.121934">
        <ele>971.556</ele>
        <time>2021-06-18T14:31:13Z</time>
      </trkpt>
      <trkpt lat="42.631565" lon="1.122051">
        <ele>972.311</ele>
        <time>2021-06-18T14:31:14Z</time>
      </trkpt>
      <trkpt lat="42.631438" lon="1.122286">
        <ele>969.908</ele>
        <time>2021-06-18T14:31:16Z</time>
      </trkpt>
      <trkpt lat="42.631321" lon="1.122536">
        <ele>968.332</ele>
        <time>2021-06-18T14:31:18Z</time>
      </trkpt>
      <trkpt lat="42.631270" lon="1.122666">
        <ele>969.231</ele>
        <time>2021-06-18T14:31:19Z</time>
      </trkpt>
      <trkpt lat="42.631166" lon="1.122925">
        <ele>967.797</ele>
        <time>2021-06-18T14:31:21Z</time>
      </trkpt>
      <trkpt lat="42.631041" lon="1.123169">
        <ele>964.931</ele>
        <time>2021-06-18T14:31:23Z</time>
      </trkpt>
      <trkpt lat="42.630970" lon="1.123280">
        <ele>964.835</ele>
        <time>2021-06-18T14:31:24Z</time>
      </trkpt>
      <trkpt lat="42.630733" lon="1.123557">
        <ele>962.915</ele>
        <time>2021-06-18T14:31:27Z</time>
      </trkpt>
      <trkpt lat="42.630641" lon="1.123622">
        <ele>962.668</ele>
        <time>2021-06-18T14:31:28Z</time>
      </trkpt>
      <trkpt lat="42.630546" lon="1.123672">
        <ele>963.035</ele>
        <time>2021-06-18T14:31:29Z</time>
      </trkpt>
      <trkpt lat="42.630450" lon="1.123712">
        <ele>963.242</ele>
        <time>2021-06-18T14:31:30Z</time>
      </trkpt>
      <trkpt lat="42.630355" lon="1.123746">
        <ele>963.122</ele>
        <time>2021-06-18T14:31:31Z</time>
      </trkpt>
      <trkpt lat="42.630260" lon="1.123767">
        <ele>962.814</ele>
        <time>2021-06-18T14:31:32Z</time>
      </trkpt>
      <trkpt lat="42.629988" lon="1.123735">
        <ele>961.708</ele>
        <time>2021-06-18T14:31:35Z</time>
      </trkpt>
      <trkpt lat="42.629907" lon="1.123695">
        <ele>961.581</ele>
        <time>2021-06-18T14:31:36Z</time>
      </trkpt>
      <trkpt lat="42.629757" lon="1.123613">
        <ele>959.770</ele>
        <time>2021-06-18T14:31:38Z</time>
      </trkpt>
      <trkpt lat="42.629691" lon="1.123561">
        <ele>959.266</ele>
        <time>2021-06-18T14:31:39Z</time>
      </trkpt>
      <trkpt lat="42.629527" lon="1.123356">
        <ele>959.040</ele>
        <time>2021-06-18T14:31:42Z</time>
      </trkpt>
      <trkpt lat="42.629476" lon="1.123286">
        <ele>958.614</ele>
        <time>2021-06-18T14:31:43Z</time>
      </trkpt>
      <trkpt lat="42.629308" lon="1.123117">
        <ele>958.334</ele>
        <time>2021-06-18T14:31:46Z</time>
      </trkpt>
      <trkpt lat="42.629193" lon="1.123044">
        <ele>958.287</ele>
        <time>2021-06-18T14:31:48Z</time>
      </trkpt>
      <trkpt lat="42.629136" lon="1.123023">
        <ele>958.014</ele>
        <time>2021-06-18T14:31:49Z</time>
      </trkpt>
      <trkpt lat="42.629014" lon="1.123037">
        <ele>957.024</ele>
        <time>2021-06-18T14:31:51Z</time>
      </trkpt>
      <trkpt lat="42.628819" lon="1.123081">
        <ele>956.004</ele>
        <time>2021-06-18T14:31:55Z</time>
      </trkpt>
      <trkpt lat="42.628779" lon="1.123090">
        <ele>956.014</ele>
        <time>2021-06-18T14:31:57Z</time>
      </trkpt>
      <trkpt lat="42.628764" lon="1.123091">
        <ele>956.008</ele>
        <time>2021-06-18T14:31:59Z</time>
      </trkpt>
      <trkpt lat="42.628692" lon="1.123099">
        <ele>956.049</ele>
        <time>2021-06-18T14:32:03Z</time>
      </trkpt>
      <trkpt lat="42.628664" lon="1.123099">
        <ele>956.058</ele>
        <time>2021-06-18T14:32:04Z</time>
      </trkpt>
      <trkpt lat="42.628474" lon="1.123097">
        <ele>955.644</ele>
        <time>2021-06-18T14:32:10Z</time>
      </trkpt>
      <trkpt lat="42.628234" lon="1.123093">
        <ele>955.128</ele>
        <time>2021-06-18T14:32:18Z</time>
      </trkpt>
      <trkpt lat="42.628222" lon="1.123087">
        <ele>955.142</ele>
        <time>2021-06-18T14:32:22Z</time>
      </trkpt>
      <trkpt lat="42.628219" lon="1.123077">
        <ele>955.182</ele>
        <time>2021-06-18T14:32:24Z</time>
      </trkpt>
      <trkpt lat="42.628094" lon="1.122977">
        <ele>955.165</ele>
        <time>2021-06-18T15:15:37Z</time>
      </trkpt>
      <trkpt lat="42.628066" lon="1.122969">
        <ele>955.022</ele>
        <time>2021-06-18T15:15:38Z</time>
      </trkpt>
      <trkpt lat="42.627960" lon="1.122953">
        <ele>954.882</ele>
        <time>2021-06-18T15:15:41Z</time>
      </trkpt>
      <trkpt lat="42.627873" lon="1.122928">
        <ele>954.643</ele>
        <time>2021-06-18T15:15:43Z</time>
      </trkpt>
      <trkpt lat="42.627821" lon="1.122944">
        <ele>954.517</ele>
        <time>2021-06-18T15:15:44Z</time>
      </trkpt>
      <trkpt lat="42.627720" lon="1.122964">
        <ele>954.308</ele>
        <time>2021-06-18T15:15:47Z</time>
      </trkpt>
      <trkpt lat="42.627710" lon="1.122983">
        <ele>954.355</ele>
        <time>2021-06-18T15:15:48Z</time>
      </trkpt>
      <trkpt lat="42.627686" lon="1.123005">
        <ele>954.224</ele>
        <time>2021-06-18T15:15:50Z</time>
      </trkpt>
      <trkpt lat="42.627631" lon="1.123024">
        <ele>954.140</ele>
        <time>2021-06-18T15:15:53Z</time>
      </trkpt>
      <trkpt lat="42.627563" lon="1.123032">
        <ele>954.184</ele>
        <time>2021-06-18T15:15:56Z</time>
      </trkpt>
      <trkpt lat="42.627372" lon="1.123041">
        <ele>954.058</ele>
        <time>2021-06-18T15:16:02Z</time>
      </trkpt>
      <trkpt lat="42.627204" lon="1.123108">
        <ele>954.058</ele>
        <time>2021-06-18T15:16:06Z</time>
      </trkpt>
      <trkpt lat="42.627167" lon="1.123124">
        <ele>954.071</ele>
        <time>2021-06-18T15:16:07Z</time>
      </trkpt>
      <trkpt lat="42.626906" lon="1.123210">
        <ele>953.958</ele>
        <time>2021-06-18T15:16:14Z</time>
      </trkpt>
      <trkpt lat="42.626712" lon="1.123231">
        <ele>953.219</ele>
        <time>2021-06-18T15:16:18Z</time>
      </trkpt>
      <trkpt lat="42.626593" lon="1.123224">
        <ele>953.009</ele>
        <time>2021-06-18T15:16:20Z</time>
      </trkpt>
      <trkpt lat="42.626326" lon="1.123225">
        <ele>952.819</ele>
        <time>2021-06-18T15:16:25Z</time>
      </trkpt>
      <trkpt lat="42.626156" lon="1.123236">
        <ele>952.208</ele>
        <time>2021-06-18T15:16:28Z</time>
      </trkpt>
      <trkpt lat="42.625791" lon="1.123262">
        <ele>951.638</ele>
        <time>2021-06-18T15:16:34Z</time>
      </trkpt>
      <trkpt lat="42.625732" lon="1.123269">
        <ele>951.477</ele>
        <time>2021-06-18T15:16:35Z</time>
      </trkpt>
      <trkpt lat="42.625321" lon="1.123347">
        <ele>950.213</ele>
        <time>2021-06-18T15:16:42Z</time>
      </trkpt>
      <trkpt lat="42.625262" lon="1.123354">
        <ele>950.087</ele>
        <time>2021-06-18T15:16:43Z</time>
      </trkpt>
      <trkpt lat="42.624834" lon="1.123419">
        <ele>949.481</ele>
        <time>2021-06-18T15:16:50Z</time>
      </trkpt>
      <trkpt lat="42.624406" lon="1.123474">
        <ele>949.081</ele>
        <time>2021-06-18T15:16:57Z</time>
      </trkpt>
      <trkpt lat="42.624352" lon="1.123485">
        <ele>949.084</ele>
        <time>2021-06-18T15:16:58Z</time>
      </trkpt>
      <trkpt lat="42.623989" lon="1.123544">
        <ele>948.461</ele>
        <time>2021-06-18T15:17:04Z</time>
      </trkpt>
      <trkpt lat="42.623799" lon="1.123569">
        <ele>948.013</ele>
        <time>2021-06-18T15:17:07Z</time>
      </trkpt>
      <trkpt lat="42.623222" lon="1.123659">
        <ele>947.043</ele>
        <time>2021-06-18T15:17:16Z</time>
      </trkpt>
      <trkpt lat="42.623099" lon="1.123678">
        <ele>947.007</ele>
        <time>2021-06-18T15:17:18Z</time>
      </trkpt>
      <trkpt lat="42.622918" lon="1.123710">
        <ele>946.508</ele>
        <time>2021-06-18T15:17:21Z</time>
      </trkpt>
      <trkpt lat="42.622566" lon="1.123788">
        <ele>945.768</ele>
        <time>2021-06-18T15:17:27Z</time>
      </trkpt>
      <trkpt lat="42.622452" lon="1.123816">
        <ele>945.767</ele>
        <time>2021-06-18T15:17:29Z</time>
      </trkpt>
      <trkpt lat="42.622376" lon="1.123893">
        <ele>946.083</ele>
        <time>2021-06-18T15:17:31Z</time>
      </trkpt>
      <trkpt lat="42.622404" lon="1.124003">
        <ele>945.987</ele>
        <time>2021-06-18T15:17:33Z</time>
      </trkpt>
      <trkpt lat="42.622437" lon="1.124053">
        <ele>945.931</ele>
        <time>2021-06-18T15:17:34Z</time>
      </trkpt>
      <trkpt lat="42.622659" lon="1.124372">
        <ele>946.191</ele>
        <time>2021-06-18T15:17:40Z</time>
      </trkpt>
      <trkpt lat="42.623044" lon="1.124906">
        <ele>947.064</ele>
        <time>2021-06-18T15:17:50Z</time>
      </trkpt>
      <trkpt lat="42.623443" lon="1.125453">
        <ele>948.041</ele>
        <time>2021-06-18T15:18:01Z</time>
      </trkpt>
      <trkpt lat="42.623538" lon="1.125591">
        <ele>948.131</ele>
        <time>2021-06-18T15:18:04Z</time>
      </trkpt>
      <trkpt lat="42.623749" lon="1.125902">
        <ele>948.961</ele>
        <time>2021-06-18T15:18:11Z</time>
      </trkpt>
      <trkpt lat="42.623901" lon="1.126063">
        <ele>949.007</ele>
        <time>2021-06-18T15:18:16Z</time>
      </trkpt>
      <trkpt lat="42.623938" lon="1.126088">
        <ele>949.008</ele>
        <time>2021-06-18T15:18:17Z</time>
      </trkpt>
      <trkpt lat="42.624133" lon="1.126185">
        <ele>949.070</ele>
        <time>2021-06-18T15:18:22Z</time>
      </trkpt>
      <trkpt lat="42.624214" lon="1.126191">
        <ele>949.189</ele>
        <time>2021-06-18T15:18:24Z</time>
      </trkpt>
      <trkpt lat="42.624568" lon="1.126188">
        <ele>949.835</ele>
        <time>2021-06-18T15:18:33Z</time>
      </trkpt>
      <trkpt lat="42.624839" lon="1.126169">
        <ele>950.029</ele>
        <time>2021-06-18T15:18:40Z</time>
      </trkpt>
      <trkpt lat="42.625028" lon="1.126143">
        <ele>950.123</ele>
        <time>2021-06-18T15:18:45Z</time>
      </trkpt>
      <trkpt lat="42.625246" lon="1.126113">
        <ele>950.953</ele>
        <time>2021-06-18T15:18:51Z</time>
      </trkpt>
      <trkpt lat="42.625490" lon="1.126039">
        <ele>950.996</ele>
        <time>2021-06-18T15:18:57Z</time>
      </trkpt>
      <trkpt lat="42.625639" lon="1.126001">
        <ele>951.413</ele>
        <time>2021-06-18T15:19:01Z</time>
      </trkpt>
      <trkpt lat="42.625703" lon="1.125998">
        <ele>951.734</ele>
        <time>2021-06-18T15:19:03Z</time>
      </trkpt>
      <trkpt lat="42.625806" lon="1.125985">
        <ele>952.355</ele>
        <time>2021-06-18T15:19:07Z</time>
      </trkpt>
      <trkpt lat="42.625871" lon="1.125985">
        <ele>952.510</ele>
        <time>2021-06-18T15:19:10Z</time>
      </trkpt>
      <trkpt lat="42.625918" lon="1.125993">
        <ele>952.608</ele>
        <time>2021-06-18T15:19:12Z</time>
      </trkpt>
      <trkpt lat="42.626004" lon="1.126038">
        <ele>952.440</ele>
        <time>2021-06-18T15:19:16Z</time>
      </trkpt>
      <trkpt lat="42.626044" lon="1.126062">
        <ele>952.399</ele>
        <time>2021-06-18T15:19:18Z</time>
      </trkpt>
      <trkpt lat="42.626111" lon="1.126097">
        <ele>952.185</ele>
        <time>2021-06-18T15:19:21Z</time>
      </trkpt>
      <trkpt lat="42.626215" lon="1.126166">
        <ele>951.549</ele>
        <time>2021-06-18T15:19:25Z</time>
      </trkpt>
      <trkpt lat="42.626242" lon="1.126186">
        <ele>951.543</ele>
        <time>2021-06-18T15:19:26Z</time>
      </trkpt>
      <trkpt lat="42.626473" lon="1.126372">
        <ele>954.143</ele>
        <time>2021-06-18T15:19:34Z</time>
      </trkpt>
      <trkpt lat="42.626477" lon="1.126411">
        <ele>954.576</ele>
        <time>2021-06-18T15:19:35Z</time>
      </trkpt>
      <trkpt lat="42.626406" lon="1.126560">
        <ele>955.643</ele>
        <time>2021-06-18T15:19:39Z</time>
      </trkpt>
      <trkpt lat="42.626209" lon="1.126737">
        <ele>955.222</ele>
        <time>2021-06-18T15:19:44Z</time>
      </trkpt>
      <trkpt lat="42.626095" lon="1.126814">
        <ele>955.062</ele>
        <time>2021-06-18T15:19:46Z</time>
      </trkpt>
      <trkpt lat="42.625889" lon="1.126892">
        <ele>954.008</ele>
        <time>2021-06-18T15:19:49Z</time>
      </trkpt>
      <trkpt lat="42.625815" lon="1.126903">
        <ele>953.208</ele>
        <time>2021-06-18T15:19:50Z</time>
      </trkpt>
      <trkpt lat="42.625741" lon="1.126911">
        <ele>952.619</ele>
        <time>2021-06-18T15:19:51Z</time>
      </trkpt>
      <trkpt lat="42.625524" lon="1.126923">
        <ele>950.848</ele>
        <time>2021-06-18T15:19:54Z</time>
      </trkpt>
      <trkpt lat="42.625455" lon="1.126933">
        <ele>950.674</ele>
        <time>2021-06-18T15:19:55Z</time>
      </trkpt>
      <trkpt lat="42.625386" lon="1.126945">
        <ele>950.498</ele>
        <time>2021-06-18T15:19:56Z</time>
      </trkpt>
      <trkpt lat="42.625181" lon="1.127001">
        <ele>950.382</ele>
        <time>2021-06-18T15:19:59Z</time>
      </trkpt>
      <trkpt lat="42.624982" lon="1.127099">
        <ele>950.662</ele>
        <time>2021-06-18T15:20:02Z</time>
      </trkpt>
      <trkpt lat="42.624685" lon="1.127335">
        <ele>951.045</ele>
        <time>2021-06-18T15:20:07Z</time>
      </trkpt>
      <trkpt lat="42.624342" lon="1.127634">
        <ele>950.972</ele>
        <time>2021-06-18T15:20:13Z</time>
      </trkpt>
      <trkpt lat="42.624222" lon="1.127713">
        <ele>950.926</ele>
        <time>2021-06-18T15:20:15Z</time>
      </trkpt>
      <trkpt lat="42.623877" lon="1.127873">
        <ele>950.047</ele>
        <time>2021-06-18T15:20:21Z</time>
      </trkpt>
      <trkpt lat="42.623513" lon="1.128097">
        <ele>950.111</ele>
        <time>2021-06-18T15:20:28Z</time>
      </trkpt>
      <trkpt lat="42.623028" lon="1.128501">
        <ele>949.008</ele>
        <time>2021-06-18T15:20:37Z</time>
      </trkpt>
      <trkpt lat="42.622696" lon="1.128772">
        <ele>948.649</ele>
        <time>2021-06-18T15:20:43Z</time>
      </trkpt>
      <trkpt lat="42.622579" lon="1.128858">
        <ele>948.368</ele>
        <time>2021-06-18T15:20:45Z</time>
      </trkpt>
      <trkpt lat="42.622097" lon="1.129239">
        <ele>946.814</ele>
        <time>2021-06-18T15:20:53Z</time>
      </trkpt>
      <trkpt lat="42.622040" lon="1.129299">
        <ele>946.848</ele>
        <time>2021-06-18T15:20:54Z</time>
      </trkpt>
      <trkpt lat="42.621780" lon="1.129613">
        <ele>946.492</ele>
        <time>2021-06-18T15:20:59Z</time>
      </trkpt>
      <trkpt lat="42.621690" lon="1.129732">
        <ele>946.142</ele>
        <time>2021-06-18T15:21:01Z</time>
      </trkpt>
      <trkpt lat="42.621309" lon="1.130240">
        <ele>946.025</ele>
        <time>2021-06-18T15:21:10Z</time>
      </trkpt>
      <trkpt lat="42.621077" lon="1.130655">
        <ele>946.652</ele>
        <time>2021-06-18T15:21:17Z</time>
      </trkpt>
      <trkpt lat="42.620729" lon="1.131283">
        <ele>947.278</ele>
        <time>2021-06-18T15:21:27Z</time>
      </trkpt>
      <trkpt lat="42.620403" lon="1.131881">
        <ele>947.833</ele>
        <time>2021-06-18T15:21:37Z</time>
      </trkpt>
      <trkpt lat="42.620373" lon="1.131935">
        <ele>947.726</ele>
        <time>2021-06-18T15:21:38Z</time>
      </trkpt>
      <trkpt lat="42.620103" lon="1.132357">
        <ele>948.708</ele>
        <time>2021-06-18T15:21:47Z</time>
      </trkpt>
      <trkpt lat="42.620040" lon="1.132439">
        <ele>948.824</ele>
        <time>2021-06-18T15:21:49Z</time>
      </trkpt>
      <trkpt lat="42.619850" lon="1.132663">
        <ele>949.363</ele>
        <time>2021-06-18T15:21:55Z</time>
      </trkpt>
      <trkpt lat="42.619789" lon="1.132732">
        <ele>949.669</ele>
        <time>2021-06-18T15:21:57Z</time>
      </trkpt>
      <trkpt lat="42.619670" lon="1.132893">
        <ele>949.943</ele>
        <time>2021-06-18T15:22:01Z</time>
      </trkpt>
      <trkpt lat="42.619616" lon="1.132972">
        <ele>949.927</ele>
        <time>2021-06-18T15:22:03Z</time>
      </trkpt>
      <trkpt lat="42.619590" lon="1.133011">
        <ele>949.917</ele>
        <time>2021-06-18T15:22:04Z</time>
      </trkpt>
      <trkpt lat="42.619355" lon="1.133397">
        <ele>951.190</ele>
        <time>2021-06-18T15:22:13Z</time>
      </trkpt>
      <trkpt lat="42.619161" lon="1.133719">
        <ele>952.097</ele>
        <time>2021-06-18T15:22:21Z</time>
      </trkpt>
      <trkpt lat="42.618980" lon="1.134031">
        <ele>952.584</ele>
        <time>2021-06-18T15:22:29Z</time>
      </trkpt>
      <trkpt lat="42.618940" lon="1.134113">
        <ele>952.807</ele>
        <time>2021-06-18T15:22:31Z</time>
      </trkpt>
      <trkpt lat="42.618792" lon="1.134432">
        <ele>954.617</ele>
        <time>2021-06-18T15:22:39Z</time>
      </trkpt>
      <trkpt lat="42.618649" lon="1.134719">
        <ele>955.108</ele>
        <time>2021-06-18T15:22:47Z</time>
      </trkpt>
      <trkpt lat="42.618541" lon="1.134922">
        <ele>955.545</ele>
        <time>2021-06-18T15:22:53Z</time>
      </trkpt>
      <trkpt lat="42.618504" lon="1.135001">
        <ele>955.694</ele>
        <time>2021-06-18T15:22:55Z</time>
      </trkpt>
      <trkpt lat="42.618393" lon="1.135246">
        <ele>956.190</ele>
        <time>2021-06-18T15:23:01Z</time>
      </trkpt>
      <trkpt lat="42.618239" lon="1.135575">
        <ele>957.854</ele>
        <time>2021-06-18T15:23:09Z</time>
      </trkpt>
      <trkpt lat="42.618219" lon="1.135617">
        <ele>957.978</ele>
        <time>2021-06-18T15:23:10Z</time>
      </trkpt>
      <trkpt lat="42.618112" lon="1.135860">
        <ele>959.188</ele>
        <time>2021-06-18T15:23:16Z</time>
      </trkpt>
      <trkpt lat="42.618079" lon="1.135942">
        <ele>959.421</ele>
        <time>2021-06-18T15:23:18Z</time>
      </trkpt>
      <trkpt lat="42.618031" lon="1.136065">
        <ele>959.768</ele>
        <time>2021-06-18T15:23:21Z</time>
      </trkpt>
      <trkpt lat="42.617938" lon="1.136310">
        <ele>960.388</ele>
        <time>2021-06-18T15:23:27Z</time>
      </trkpt>
      <trkpt lat="42.617892" lon="1.136432">
        <ele>960.724</ele>
        <time>2021-06-18T15:23:30Z</time>
      </trkpt>
      <trkpt lat="42.617819" lon="1.136673">
        <ele>962.226</ele>
        <time>2021-06-18T15:23:36Z</time>
      </trkpt>
      <trkpt lat="42.617800" lon="1.136755">
        <ele>962.408</ele>
        <time>2021-06-18T15:23:38Z</time>
      </trkpt>
      <trkpt lat="42.617766" lon="1.136969">
        <ele>963.155</ele>
        <time>2021-06-18T15:23:43Z</time>
      </trkpt>
      <trkpt lat="42.617748" lon="1.137091">
        <ele>963.854</ele>
        <time>2021-06-18T15:23:46Z</time>
      </trkpt>
      <trkpt lat="42.617717" lon="1.137253">
        <ele>964.530</ele>
        <time>2021-06-18T15:23:50Z</time>
      </trkpt>
      <trkpt lat="42.617684" lon="1.137497">
        <ele>965.674</ele>
        <time>2021-06-18T15:23:56Z</time>
      </trkpt>
      <trkpt lat="42.617679" lon="1.137538">
        <ele>965.828</ele>
        <time>2021-06-18T15:23:57Z</time>
      </trkpt>
      <trkpt lat="42.617637" lon="1.137804">
        <ele>966.638</ele>
        <time>2021-06-18T15:24:03Z</time>
      </trkpt>
      <trkpt lat="42.617597" lon="1.137893">
        <ele>966.341</ele>
        <time>2021-06-18T15:24:05Z</time>
      </trkpt>
      <trkpt lat="42.617536" lon="1.137959">
        <ele>965.428</ele>
        <time>2021-06-18T15:24:07Z</time>
      </trkpt>
      <trkpt lat="42.617463" lon="1.138001">
        <ele>964.983</ele>
        <time>2021-06-18T15:24:09Z</time>
      </trkpt>
      <trkpt lat="42.617386" lon="1.138046">
        <ele>965.425</ele>
        <time>2021-06-18T15:24:11Z</time>
      </trkpt>
      <trkpt lat="42.617309" lon="1.138095">
        <ele>965.717</ele>
        <time>2021-06-18T15:24:13Z</time>
      </trkpt>
      <trkpt lat="42.617131" lon="1.138211">
        <ele>966.808</ele>
        <time>2021-06-18T15:24:19Z</time>
      </trkpt>
      <trkpt lat="42.617066" lon="1.138261">
        <ele>967.525</ele>
        <time>2021-06-18T15:24:22Z</time>
      </trkpt>
      <trkpt lat="42.617000" lon="1.138323">
        <ele>968.494</ele>
        <time>2021-06-18T15:24:26Z</time>
      </trkpt>
      <trkpt lat="42.616923" lon="1.138365">
        <ele>969.420</ele>
        <time>2021-06-18T15:24:30Z</time>
      </trkpt>
      <trkpt lat="42.616842" lon="1.138375">
        <ele>970.034</ele>
        <time>2021-06-18T15:24:33Z</time>
      </trkpt>
      <trkpt lat="42.616787" lon="1.138390">
        <ele>970.568</ele>
        <time>2021-06-18T15:24:35Z</time>
      </trkpt>
      <trkpt lat="42.616680" lon="1.138441">
        <ele>971.798</ele>
        <time>2021-06-18T15:24:39Z</time>
      </trkpt>
      <trkpt lat="42.616657" lon="1.138455">
        <ele>972.091</ele>
        <time>2021-06-18T15:24:40Z</time>
      </trkpt>
      <trkpt lat="42.616556" lon="1.138524">
        <ele>973.368</ele>
        <time>2021-06-18T15:24:44Z</time>
      </trkpt>
      <trkpt lat="42.616470" lon="1.138610">
        <ele>974.435</ele>
        <time>2021-06-18T15:24:48Z</time>
      </trkpt>
      <trkpt lat="42.616452" lon="1.138630">
        <ele>974.786</ele>
        <time>2021-06-18T15:24:49Z</time>
      </trkpt>
      <trkpt lat="42.616394" lon="1.138722">
        <ele>976.214</ele>
        <time>2021-06-18T15:24:53Z</time>
      </trkpt>
      <trkpt lat="42.616345" lon="1.138785">
        <ele>977.308</ele>
        <time>2021-06-18T15:24:56Z</time>
      </trkpt>
      <trkpt lat="42.616314" lon="1.138824">
        <ele>977.940</ele>
        <time>2021-06-18T15:24:58Z</time>
      </trkpt>
      <trkpt lat="42.616273" lon="1.138884">
        <ele>978.879</ele>
        <time>2021-06-18T15:25:01Z</time>
      </trkpt>
      <trkpt lat="42.616231" lon="1.138944">
        <ele>979.525</ele>
        <time>2021-06-18T15:25:04Z</time>
      </trkpt>
      <trkpt lat="42.616218" lon="1.138963">
        <ele>979.879</ele>
        <time>2021-06-18T15:25:05Z</time>
      </trkpt>
      <trkpt lat="42.616178" lon="1.139018">
        <ele>980.443</ele>
        <time>2021-06-18T15:25:08Z</time>
      </trkpt>
      <trkpt lat="42.616131" lon="1.139065">
        <ele>981.163</ele>
        <time>2021-06-18T15:25:11Z</time>
      </trkpt>
      <trkpt lat="42.616107" lon="1.139106">
        <ele>981.636</ele>
        <time>2021-06-18T15:25:13Z</time>
      </trkpt>
      <trkpt lat="42.616051" lon="1.139203">
        <ele>983.093</ele>
        <time>2021-06-18T15:25:18Z</time>
      </trkpt>
      <trkpt lat="42.616041" lon="1.139220">
        <ele>983.228</ele>
        <time>2021-06-18T15:25:19Z</time>
      </trkpt>
      <trkpt lat="42.615990" lon="1.139311">
        <ele>984.489</ele>
        <time>2021-06-18T15:25:24Z</time>
      </trkpt>
      <trkpt lat="42.615976" lon="1.139335">
        <ele>984.717</ele>
        <time>2021-06-18T15:25:26Z</time>
      </trkpt>
      <trkpt lat="42.615914" lon="1.139343">
        <ele>985.108</ele>
        <time>2021-06-18T15:25:30Z</time>
      </trkpt>
      <trkpt lat="42.615901" lon="1.139341">
        <ele>985.229</ele>
        <time>2021-06-18T15:25:31Z</time>
      </trkpt>
      <trkpt lat="42.615889" lon="1.139334">
        <ele>985.248</ele>
        <time>2021-06-18T15:25:32Z</time>
      </trkpt>
      <trkpt lat="42.615873" lon="1.139310">
        <ele>985.284</ele>
        <time>2021-06-18T15:25:34Z</time>
      </trkpt>
      <trkpt lat="42.615855" lon="1.139253">
        <ele>985.168</ele>
        <time>2021-06-18T15:25:37Z</time>
      </trkpt>
      <trkpt lat="42.615849" lon="1.139224">
        <ele>985.192</ele>
        <time>2021-06-18T15:25:38Z</time>
      </trkpt>
      <trkpt lat="42.615752" lon="1.139101">
        <ele>984.742</ele>
        <time>2021-06-18T15:25:42Z</time>
      </trkpt>
      <trkpt lat="42.615548" lon="1.139011">
        <ele>983.795</ele>
        <time>2021-06-18T15:25:46Z</time>
      </trkpt>
      <trkpt lat="42.615366" lon="1.139004">
        <ele>983.022</ele>
        <time>2021-06-18T15:25:49Z</time>
      </trkpt>
      <trkpt lat="42.615302" lon="1.139012">
        <ele>982.922</ele>
        <time>2021-06-18T15:25:50Z</time>
      </trkpt>
      <trkpt lat="42.615242" lon="1.139026">
        <ele>982.862</ele>
        <time>2021-06-18T15:25:51Z</time>
      </trkpt>
      <trkpt lat="42.615187" lon="1.139049">
        <ele>983.008</ele>
        <time>2021-06-18T15:25:52Z</time>
      </trkpt>
      <trkpt lat="42.615111" lon="1.139121">
        <ele>983.708</ele>
        <time>2021-06-18T15:25:54Z</time>
      </trkpt>
      <trkpt lat="42.615087" lon="1.139157">
        <ele>984.249</ele>
        <time>2021-06-18T15:25:55Z</time>
      </trkpt>
      <trkpt lat="42.615004" lon="1.139248">
        <ele>985.258</ele>
        <time>2021-06-18T15:25:59Z</time>
      </trkpt>
      <trkpt lat="42.614853" lon="1.139279">
        <ele>986.044</ele>
        <time>2021-06-18T15:26:05Z</time>
      </trkpt>
      <trkpt lat="42.614827" lon="1.139278">
        <ele>986.178</ele>
        <time>2021-06-18T15:26:06Z</time>
      </trkpt>
      <trkpt lat="42.614637" lon="1.139219">
        <ele>985.732</ele>
        <time>2021-06-18T15:26:12Z</time>
      </trkpt>
      <trkpt lat="42.614428" lon="1.139080">
        <ele>984.212</ele>
        <time>2021-06-18T15:26:16Z</time>
      </trkpt>
      <trkpt lat="42.614250" lon="1.138947">
        <ele>982.745</ele>
        <time>2021-06-18T15:26:19Z</time>
      </trkpt>
      <trkpt lat="42.614159" lon="1.138810">
        <ele>981.692</ele>
        <time>2021-06-18T15:26:21Z</time>
      </trkpt>
      <trkpt lat="42.614094" lon="1.138640">
        <ele>981.099</ele>
        <time>2021-06-18T15:26:23Z</time>
      </trkpt>
      <trkpt lat="42.614028" lon="1.138466">
        <ele>980.707</ele>
        <time>2021-06-18T15:26:25Z</time>
      </trkpt>
      <trkpt lat="42.613997" lon="1.138385">
        <ele>980.727</ele>
        <time>2021-06-18T15:26:26Z</time>
      </trkpt>
      <trkpt lat="42.613913" lon="1.138244">
        <ele>980.408</ele>
        <time>2021-06-18T15:26:28Z</time>
      </trkpt>
      <trkpt lat="42.613818" lon="1.138125">
        <ele>980.176</ele>
        <time>2021-06-18T15:26:30Z</time>
      </trkpt>
      <trkpt lat="42.613775" lon="1.138062">
        <ele>980.115</ele>
        <time>2021-06-18T15:26:31Z</time>
      </trkpt>
      <trkpt lat="42.613639" lon="1.137783">
        <ele>980.581</ele>
        <time>2021-06-18T15:26:35Z</time>
      </trkpt>
      <trkpt lat="42.613584" lon="1.137642">
        <ele>980.315</ele>
        <time>2021-06-18T15:26:37Z</time>
      </trkpt>
      <trkpt lat="42.613562" lon="1.137573">
        <ele>980.119</ele>
        <time>2021-06-18T15:26:38Z</time>
      </trkpt>
      <trkpt lat="42.613506" lon="1.137444">
        <ele>979.799</ele>
        <time>2021-06-18T15:26:40Z</time>
      </trkpt>
      <trkpt lat="42.613472" lon="1.137384">
        <ele>979.522</ele>
        <time>2021-06-18T15:26:41Z</time>
      </trkpt>
      <trkpt lat="42.613311" lon="1.137091">
        <ele>977.279</ele>
        <time>2021-06-18T15:26:46Z</time>
      </trkpt>
      <trkpt lat="42.613190" lon="1.136855">
        <ele>974.535</ele>
        <time>2021-06-18T15:26:49Z</time>
      </trkpt>
      <trkpt lat="42.613150" lon="1.136764">
        <ele>973.786</ele>
        <time>2021-06-18T15:26:50Z</time>
      </trkpt>
      <trkpt lat="42.613055" lon="1.136597">
        <ele>972.014</ele>
        <time>2021-06-18T15:26:52Z</time>
      </trkpt>
      <trkpt lat="42.612934" lon="1.136444">
        <ele>970.208</ele>
        <time>2021-06-18T15:26:54Z</time>
      </trkpt>
      <trkpt lat="42.612865" lon="1.136379">
        <ele>969.650</ele>
        <time>2021-06-18T15:26:55Z</time>
      </trkpt>
      <trkpt lat="42.612794" lon="1.136329">
        <ele>969.159</ele>
        <time>2021-06-18T15:26:56Z</time>
      </trkpt>
      <trkpt lat="42.612715" lon="1.136290">
        <ele>968.715</ele>
        <time>2021-06-18T15:26:57Z</time>
      </trkpt>
      <trkpt lat="42.612546" lon="1.136247">
        <ele>968.489</ele>
        <time>2021-06-18T15:26:59Z</time>
      </trkpt>
      <trkpt lat="42.612455" lon="1.136240">
        <ele>968.253</ele>
        <time>2021-06-18T15:27:00Z</time>
      </trkpt>
      <trkpt lat="42.612361" lon="1.136233">
        <ele>967.713</ele>
        <time>2021-06-18T15:27:01Z</time>
      </trkpt>
      <trkpt lat="42.612265" lon="1.136216">
        <ele>967.016</ele>
        <time>2021-06-18T15:27:02Z</time>
      </trkpt>
      <trkpt lat="42.612114" lon="1.136145">
        <ele>966.173</ele>
        <time>2021-06-18T15:27:04Z</time>
      </trkpt>
      <trkpt lat="42.611990" lon="1.136036">
        <ele>964.395</ele>
        <time>2021-06-18T15:27:06Z</time>
      </trkpt>
      <trkpt lat="42.611900" lon="1.135906">
        <ele>962.549</ele>
        <time>2021-06-18T15:27:08Z</time>
      </trkpt>
      <trkpt lat="42.611799" lon="1.135790">
        <ele>961.123</ele>
        <time>2021-06-18T15:27:10Z</time>
      </trkpt>
      <trkpt lat="42.611673" lon="1.135738">
        <ele>960.508</ele>
        <time>2021-06-18T15:27:12Z</time>
      </trkpt>
      <trkpt lat="42.611417" lon="1.135694">
        <ele>959.046</ele>
        <time>2021-06-18T15:27:15Z</time>
      </trkpt>
      <trkpt lat="42.611327" lon="1.135697">
        <ele>958.655</ele>
        <time>2021-06-18T15:27:16Z</time>
      </trkpt>
      <trkpt lat="42.611229" lon="1.135708">
        <ele>958.331</ele>
        <time>2021-06-18T15:27:17Z</time>
      </trkpt>
      <trkpt lat="42.611034" lon="1.135718">
        <ele>956.945</ele>
        <time>2021-06-18T15:27:19Z</time>
      </trkpt>
      <trkpt lat="42.610940" lon="1.135715">
        <ele>955.739</ele>
        <time>2021-06-18T15:27:20Z</time>
      </trkpt>
      <trkpt lat="42.610846" lon="1.135702">
        <ele>954.019</ele>
        <time>2021-06-18T15:27:21Z</time>
      </trkpt>
      <trkpt lat="42.610750" lon="1.135685">
        <ele>952.562</ele>
        <time>2021-06-18T15:27:22Z</time>
      </trkpt>
      <trkpt lat="42.610648" lon="1.135663">
        <ele>950.719</ele>
        <time>2021-06-18T15:27:23Z</time>
      </trkpt>
      <trkpt lat="42.610450" lon="1.135617">
        <ele>947.084</ele>
        <time>2021-06-18T15:27:25Z</time>
      </trkpt>
      <trkpt lat="42.610340" lon="1.135612">
        <ele>945.907</ele>
        <time>2021-06-18T15:27:26Z</time>
      </trkpt>
      <trkpt lat="42.610233" lon="1.135613">
        <ele>945.317</ele>
        <time>2021-06-18T15:27:27Z</time>
      </trkpt>
      <trkpt lat="42.610041" lon="1.135635">
        <ele>945.308</ele>
        <time>2021-06-18T15:27:29Z</time>
      </trkpt>
      <trkpt lat="42.609959" lon="1.135656">
        <ele>945.875</ele>
        <time>2021-06-18T15:27:30Z</time>
      </trkpt>
      <trkpt lat="42.609891" lon="1.135677">
        <ele>946.234</ele>
        <time>2021-06-18T15:27:31Z</time>
      </trkpt>
      <trkpt lat="42.609701" lon="1.135725">
        <ele>946.970</ele>
        <time>2021-06-18T15:27:34Z</time>
      </trkpt>
      <trkpt lat="42.609346" lon="1.135819">
        <ele>946.974</ele>
        <time>2021-06-18T15:27:41Z</time>
      </trkpt>
      <trkpt lat="42.609115" lon="1.135900">
        <ele>948.718</ele>
        <time>2021-06-18T15:27:46Z</time>
      </trkpt>
      <trkpt lat="42.609016" lon="1.135906">
        <ele>948.488</ele>
        <time>2021-06-18T15:27:48Z</time>
      </trkpt>
      <trkpt lat="42.608860" lon="1.135877">
        <ele>947.211</ele>
        <time>2021-06-18T15:27:51Z</time>
      </trkpt>
      <trkpt lat="42.608807" lon="1.135860">
        <ele>947.018</ele>
        <time>2021-06-18T15:27:52Z</time>
      </trkpt>
      <trkpt lat="42.608693" lon="1.135828">
        <ele>946.645</ele>
        <time>2021-06-18T15:27:54Z</time>
      </trkpt>
      <trkpt lat="42.608310" lon="1.135692">
        <ele>944.347</ele>
        <time>2021-06-18T15:28:00Z</time>
      </trkpt>
      <trkpt lat="42.608045" lon="1.135510">
        <ele>941.511</ele>
        <time>2021-06-18T15:28:04Z</time>
      </trkpt>
      <trkpt lat="42.607826" lon="1.135500">
        <ele>941.408</ele>
        <time>2021-06-18T15:28:07Z</time>
      </trkpt>
      <trkpt lat="42.607677" lon="1.135448">
        <ele>940.461</ele>
        <time>2021-06-18T15:28:09Z</time>
      </trkpt>
      <trkpt lat="42.607612" lon="1.135403">
        <ele>939.870</ele>
        <time>2021-06-18T15:28:10Z</time>
      </trkpt>
      <trkpt lat="42.607489" lon="1.135273">
        <ele>939.076</ele>
        <time>2021-06-18T15:28:12Z</time>
      </trkpt>
      <trkpt lat="42.607378" lon="1.135124">
        <ele>938.740</ele>
        <time>2021-06-18T15:28:14Z</time>
      </trkpt>
      <trkpt lat="42.607044" lon="1.134631">
        <ele>938.414</ele>
        <time>2021-06-18T15:28:21Z</time>
      </trkpt>
      <trkpt lat="42.606778" lon="1.134391">
        <ele>938.334</ele>
        <time>2021-06-18T15:28:26Z</time>
      </trkpt>
      <trkpt lat="42.606497" lon="1.134247">
        <ele>938.667</ele>
        <time>2021-06-18T15:28:31Z</time>
      </trkpt>
      <trkpt lat="42.606445" lon="1.134226">
        <ele>938.984</ele>
        <time>2021-06-18T15:28:32Z</time>
      </trkpt>
      <trkpt lat="42.606347" lon="1.134156">
        <ele>938.928</ele>
        <time>2021-06-18T15:28:34Z</time>
      </trkpt>
      <trkpt lat="42.606234" lon="1.134111">
        <ele>938.689</ele>
        <time>2021-06-18T15:28:36Z</time>
      </trkpt>
      <trkpt lat="42.606179" lon="1.134098">
        <ele>938.517</ele>
        <time>2021-06-18T15:28:37Z</time>
      </trkpt>
      <trkpt lat="42.606120" lon="1.134095">
        <ele>938.508</ele>
        <time>2021-06-18T15:28:38Z</time>
      </trkpt>
      <trkpt lat="42.605898" lon="1.134182">
        <ele>939.149</ele>
        <time>2021-06-18T15:28:42Z</time>
      </trkpt>
      <trkpt lat="42.605801" lon="1.134270">
        <ele>939.278</ele>
        <time>2021-06-18T15:28:44Z</time>
      </trkpt>
      <trkpt lat="42.605661" lon="1.134400">
        <ele>939.154</ele>
        <time>2021-06-18T15:28:47Z</time>
      </trkpt>
      <trkpt lat="42.605432" lon="1.134460">
        <ele>939.288</ele>
        <time>2021-06-18T15:28:51Z</time>
      </trkpt>
      <trkpt lat="42.605262" lon="1.134368">
        <ele>938.552</ele>
        <time>2021-06-18T15:28:54Z</time>
      </trkpt>
      <trkpt lat="42.605172" lon="1.134261">
        <ele>938.352</ele>
        <time>2021-06-18T15:28:56Z</time>
      </trkpt>
      <trkpt lat="42.605044" lon="1.134118">
        <ele>938.245</ele>
        <time>2021-06-18T15:28:59Z</time>
      </trkpt>
      <trkpt lat="42.604903" lon="1.134038">
        <ele>937.832</ele>
        <time>2021-06-18T15:29:02Z</time>
      </trkpt>
      <trkpt lat="42.604805" lon="1.134005">
        <ele>937.764</ele>
        <time>2021-06-18T15:29:04Z</time>
      </trkpt>
      <trkpt lat="42.604429" lon="1.133950">
        <ele>938.206</ele>
        <time>2021-06-18T15:29:10Z</time>
      </trkpt>
      <trkpt lat="42.604290" lon="1.133960">
        <ele>937.616</ele>
        <time>2021-06-18T15:29:12Z</time>
      </trkpt>
      <trkpt lat="42.604159" lon="1.133979">
        <ele>937.008</ele>
        <time>2021-06-18T15:29:14Z</time>
      </trkpt>
      <trkpt lat="42.603822" lon="1.134032">
        <ele>937.013</ele>
        <time>2021-06-18T15:29:19Z</time>
      </trkpt>
      <trkpt lat="42.603587" lon="1.134088">
        <ele>937.042</ele>
        <time>2021-06-18T15:29:23Z</time>
      </trkpt>
      <trkpt lat="42.603528" lon="1.134111">
        <ele>937.038</ele>
        <time>2021-06-18T15:29:24Z</time>
      </trkpt>
      <trkpt lat="42.603201" lon="1.134229">
        <ele>936.642</ele>
        <time>2021-06-18T15:29:29Z</time>
      </trkpt>
      <trkpt lat="42.602682" lon="1.134397">
        <ele>936.856</ele>
        <time>2021-06-18T15:29:37Z</time>
      </trkpt>
      <trkpt lat="42.602627" lon="1.134407">
        <ele>936.976</ele>
        <time>2021-06-18T15:29:38Z</time>
      </trkpt>
      <trkpt lat="42.602464" lon="1.134427">
        <ele>936.949</ele>
        <time>2021-06-18T15:29:41Z</time>
      </trkpt>
      <trkpt lat="42.602300" lon="1.134447">
        <ele>937.076</ele>
        <time>2021-06-18T15:29:44Z</time>
      </trkpt>
      <trkpt lat="42.602195" lon="1.134485">
        <ele>937.398</ele>
        <time>2021-06-18T15:29:46Z</time>
      </trkpt>
      <trkpt lat="42.602028" lon="1.134638">
        <ele>938.415</ele>
        <time>2021-06-18T15:29:50Z</time>
      </trkpt>
      <trkpt lat="42.601930" lon="1.134737">
        <ele>938.926</ele>
        <time>2021-06-18T15:29:52Z</time>
      </trkpt>
      <trkpt lat="42.601875" lon="1.134783">
        <ele>938.608</ele>
        <time>2021-06-18T15:29:53Z</time>
      </trkpt>
      <trkpt lat="42.601813" lon="1.134817">
        <ele>938.226</ele>
        <time>2021-06-18T15:29:54Z</time>
      </trkpt>
      <trkpt lat="42.601626" lon="1.134864">
        <ele>937.495</ele>
        <time>2021-06-18T15:29:57Z</time>
      </trkpt>
      <trkpt lat="42.601505" lon="1.134871">
        <ele>937.211</ele>
        <time>2021-06-18T15:29:59Z</time>
      </trkpt>
      <trkpt lat="42.601301" lon="1.134753">
        <ele>937.065</ele>
        <time>2021-06-18T15:30:03Z</time>
      </trkpt>
      <trkpt lat="42.601219" lon="1.134646">
        <ele>937.049</ele>
        <time>2021-06-18T15:30:05Z</time>
      </trkpt>
      <trkpt lat="42.601105" lon="1.134472">
        <ele>937.099</ele>
        <time>2021-06-18T15:30:08Z</time>
      </trkpt>
      <trkpt lat="42.601072" lon="1.134410">
        <ele>937.072</ele>
        <time>2021-06-18T15:30:09Z</time>
      </trkpt>
      <trkpt lat="42.600935" lon="1.134189">
        <ele>937.059</ele>
        <time>2021-06-18T15:30:13Z</time>
      </trkpt>
      <trkpt lat="42.600859" lon="1.134090">
        <ele>936.754</ele>
        <time>2021-06-18T15:30:15Z</time>
      </trkpt>
      <trkpt lat="42.600757" lon="1.134016">
        <ele>936.656</ele>
        <time>2021-06-18T15:30:17Z</time>
      </trkpt>
      <trkpt lat="42.600406" lon="1.133898">
        <ele>937.011</ele>
        <time>2021-06-18T15:30:23Z</time>
      </trkpt>
      <trkpt lat="42.599933" lon="1.133708">
        <ele>937.308</ele>
        <time>2021-06-18T15:30:30Z</time>
      </trkpt>
      <trkpt lat="42.599822" lon="1.133658">
        <ele>937.242</ele>
        <time>2021-06-18T15:30:32Z</time>
      </trkpt>
      <trkpt lat="42.599766" lon="1.133644">
        <ele>937.151</ele>
        <time>2021-06-18T15:30:33Z</time>
      </trkpt>
      <trkpt lat="42.599645" lon="1.133638">
        <ele>937.187</ele>
        <time>2021-06-18T15:30:35Z</time>
      </trkpt>
      <trkpt lat="42.599458" lon="1.133653">
        <ele>937.271</ele>
        <time>2021-06-18T15:30:38Z</time>
      </trkpt>
      <trkpt lat="42.599340" lon="1.133682">
        <ele>937.395</ele>
        <time>2021-06-18T15:30:40Z</time>
      </trkpt>
      <trkpt lat="42.599062" lon="1.133758">
        <ele>937.585</ele>
        <time>2021-06-18T15:30:45Z</time>
      </trkpt>
      <trkpt lat="42.599011" lon="1.133772">
        <ele>937.658</ele>
        <time>2021-06-18T15:30:46Z</time>
      </trkpt>
      <trkpt lat="42.598799" lon="1.133842">
        <ele>937.535</ele>
        <time>2021-06-18T15:30:50Z</time>
      </trkpt>
      <trkpt lat="42.598565" lon="1.133911">
        <ele>937.154</ele>
        <time>2021-06-18T15:30:54Z</time>
      </trkpt>
      <trkpt lat="42.598513" lon="1.133906">
        <ele>937.156</ele>
        <time>2021-06-18T15:30:55Z</time>
      </trkpt>
      <trkpt lat="42.598231" lon="1.133812">
        <ele>937.011</ele>
        <time>2021-06-18T15:31:01Z</time>
      </trkpt>
      <trkpt lat="42.598147" lon="1.133771">
        <ele>937.008</ele>
        <time>2021-06-18T15:31:03Z</time>
      </trkpt>
      <trkpt lat="42.598024" lon="1.133686">
        <ele>936.682</ele>
        <time>2021-06-18T15:31:06Z</time>
      </trkpt>
      <trkpt lat="42.597895" lon="1.133599">
        <ele>936.681</ele>
        <time>2021-06-18T15:31:09Z</time>
      </trkpt>
      <trkpt lat="42.597751" lon="1.133564">
        <ele>936.837</ele>
        <time>2021-06-18T15:31:12Z</time>
      </trkpt>
      <trkpt lat="42.597640" lon="1.133549">
        <ele>936.811</ele>
        <time>2021-06-18T15:31:14Z</time>
      </trkpt>
      <trkpt lat="42.597404" lon="1.133553">
        <ele>936.845</ele>
        <time>2021-06-18T15:31:18Z</time>
      </trkpt>
      <trkpt lat="42.597349" lon="1.133561">
        <ele>936.875</ele>
        <time>2021-06-18T15:31:19Z</time>
      </trkpt>
      <trkpt lat="42.597112" lon="1.133623">
        <ele>936.628</ele>
        <time>2021-06-18T15:31:23Z</time>
      </trkpt>
      <trkpt lat="42.596872" lon="1.133767">
        <ele>936.395</ele>
        <time>2021-06-18T15:31:28Z</time>
      </trkpt>
      <trkpt lat="42.596832" lon="1.133809">
        <ele>936.344</ele>
        <time>2021-06-18T15:31:29Z</time>
      </trkpt>
      <trkpt lat="42.596557" lon="1.134163">
        <ele>936.605</ele>
        <time>2021-06-18T15:31:36Z</time>
      </trkpt>
      <trkpt lat="42.596331" lon="1.134486">
        <ele>937.815</ele>
        <time>2021-06-18T15:31:42Z</time>
      </trkpt>
      <trkpt lat="42.596237" lon="1.134563">
        <ele>937.608</ele>
        <time>2021-06-18T15:31:44Z</time>
      </trkpt>
      <trkpt lat="42.596002" lon="1.134666">
        <ele>937.631</ele>
        <time>2021-06-18T15:31:49Z</time>
      </trkpt>
      <trkpt lat="42.595951" lon="1.134667">
        <ele>937.650</ele>
        <time>2021-06-18T15:31:50Z</time>
      </trkpt>
      <trkpt lat="42.595768" lon="1.134658">
        <ele>938.336</ele>
        <time>2021-06-18T15:31:54Z</time>
      </trkpt>
      <trkpt lat="42.595692" lon="1.134636">
        <ele>938.860</ele>
        <time>2021-06-18T15:31:56Z</time>
      </trkpt>
      <trkpt lat="42.595570" lon="1.134604">
        <ele>939.394</ele>
        <time>2021-06-18T15:31:59Z</time>
      </trkpt>
      <trkpt lat="42.595521" lon="1.134591">
        <ele>939.564</ele>
        <time>2021-06-18T15:32:00Z</time>
      </trkpt>
      <trkpt lat="42.595378" lon="1.134568">
        <ele>940.137</ele>
        <time>2021-06-18T15:32:03Z</time>
      </trkpt>
      <trkpt lat="42.595237" lon="1.134569">
        <ele>942.074</ele>
        <time>2021-06-18T15:32:06Z</time>
      </trkpt>
      <trkpt lat="42.595023" lon="1.134487">
        <ele>940.691</ele>
        <time>2021-06-18T15:32:11Z</time>
      </trkpt>
      <trkpt lat="42.594872" lon="1.134357">
        <ele>939.281</ele>
        <time>2021-06-18T15:32:15Z</time>
      </trkpt>
      <trkpt lat="42.594801" lon="1.134289">
        <ele>939.519</ele>
        <time>2021-06-18T15:32:17Z</time>
      </trkpt>
      <trkpt lat="42.594681" lon="1.134221">
        <ele>939.608</ele>
        <time>2021-06-18T15:32:20Z</time>
      </trkpt>
      <trkpt lat="42.594639" lon="1.134200">
        <ele>939.546</ele>
        <time>2021-06-18T15:32:21Z</time>
      </trkpt>
      <trkpt lat="42.594597" lon="1.134176">
        <ele>939.265</ele>
        <time>2021-06-18T15:32:22Z</time>
      </trkpt>
      <trkpt lat="42.594349" lon="1.134036">
        <ele>940.341</ele>
        <time>2021-06-18T15:32:27Z</time>
      </trkpt>
      <trkpt lat="42.594290" lon="1.134024">
        <ele>941.225</ele>
        <time>2021-06-18T15:32:28Z</time>
      </trkpt>
      <trkpt lat="42.594181" lon="1.134008">
        <ele>942.629</ele>
        <time>2021-06-18T15:32:30Z</time>
      </trkpt>
      <trkpt lat="42.594033" lon="1.133990">
        <ele>943.179</ele>
        <time>2021-06-18T15:32:33Z</time>
      </trkpt>
      <trkpt lat="42.593833" lon="1.133812">
        <ele>937.922</ele>
        <time>2021-06-18T15:32:38Z</time>
      </trkpt>
      <trkpt lat="42.593789" lon="1.133777">
        <ele>937.999</ele>
        <time>2021-06-18T15:32:39Z</time>
      </trkpt>
      <trkpt lat="42.593661" lon="1.133766">
        <ele>939.227</ele>
        <time>2021-06-18T15:32:42Z</time>
      </trkpt>
      <trkpt lat="42.593571" lon="1.133798">
        <ele>940.268</ele>
        <time>2021-06-18T15:32:44Z</time>
      </trkpt>
      <trkpt lat="42.593387" lon="1.133884">
        <ele>941.114</ele>
        <time>2021-06-18T15:32:48Z</time>
      </trkpt>
      <trkpt lat="42.593107" lon="1.133951">
        <ele>945.408</ele>
        <time>2021-06-18T15:32:53Z</time>
      </trkpt>
      <trkpt lat="42.593054" lon="1.133948">
        <ele>944.659</ele>
        <time>2021-06-18T15:32:54Z</time>
      </trkpt>
      <trkpt lat="42.593002" lon="1.133953">
        <ele>944.698</ele>
        <time>2021-06-18T15:32:55Z</time>
      </trkpt>
      <trkpt lat="42.592950" lon="1.133971">
        <ele>946.024</ele>
        <time>2021-06-18T15:32:56Z</time>
      </trkpt>
      <trkpt lat="42.592849" lon="1.133991">
        <ele>946.558</ele>
        <time>2021-06-18T15:32:58Z</time>
      </trkpt>
      <trkpt lat="42.592610" lon="1.134018">
        <ele>943.492</ele>
        <time>2021-06-18T15:33:03Z</time>
      </trkpt>
      <trkpt lat="42.592567" lon="1.134012">
        <ele>942.082</ele>
        <time>2021-06-18T15:33:04Z</time>
      </trkpt>
      <trkpt lat="42.592349" lon="1.133979">
        <ele>939.625</ele>
        <time>2021-06-18T15:33:09Z</time>
      </trkpt>
      <trkpt lat="42.591944" lon="1.133963">
        <ele>940.522</ele>
        <time>2021-06-18T15:33:17Z</time>
      </trkpt>
      <trkpt lat="42.591661" lon="1.133968">
        <ele>940.291</ele>
        <time>2021-06-18T15:33:23Z</time>
      </trkpt>
      <trkpt lat="42.591577" lon="1.133981">
        <ele>940.081</ele>
        <time>2021-06-18T15:33:25Z</time>
      </trkpt>
      <trkpt lat="42.591501" lon="1.134034">
        <ele>941.019</ele>
        <time>2021-06-18T15:33:28Z</time>
      </trkpt>
      <trkpt lat="42.591500" lon="1.134053">
        <ele>941.708</ele>
        <time>2021-06-18T15:33:29Z</time>
      </trkpt>
      <trkpt lat="42.591477" lon="1.134102">
        <ele>942.846</ele>
        <time>2021-06-18T15:33:34Z</time>
      </trkpt>
      <trkpt lat="42.591475" lon="1.134097">
        <ele>942.655</ele>
        <time>2021-06-18T15:33:35Z</time>
      </trkpt>
      <trkpt lat="42.591471" lon="1.134057">
        <ele>941.241</ele>
        <time>2021-06-18T15:33:38Z</time>
      </trkpt>
      <trkpt lat="42.591459" lon="1.134034">
        <ele>940.315</ele>
        <time>2021-06-18T15:33:39Z</time>
      </trkpt>
      <trkpt lat="42.591440" lon="1.134021">
        <ele>939.659</ele>
        <time>2021-06-18T15:33:40Z</time>
      </trkpt>
      <trkpt lat="42.591369" lon="1.134041">
        <ele>939.219</ele>
        <time>2021-06-18T15:33:43Z</time>
      </trkpt>
      <trkpt lat="42.591321" lon="1.134059">
        <ele>939.272</ele>
        <time>2021-06-18T15:33:45Z</time>
      </trkpt>
      <trkpt lat="42.591232" lon="1.134124">
        <ele>939.699</ele>
        <time>2021-06-18T15:33:49Z</time>
      </trkpt>
      <trkpt lat="42.591093" lon="1.134268">
        <ele>941.098</ele>
        <time>2021-06-18T15:33:56Z</time>
      </trkpt>
      <trkpt lat="42.590931" lon="1.134488">
        <ele>942.415</ele>
        <time>2021-06-18T15:34:04Z</time>
      </trkpt>
      <trkpt lat="42.590771" lon="1.134646">
        <ele>943.126</ele>
        <time>2021-06-18T15:34:10Z</time>
      </trkpt>
      <trkpt lat="42.590650" lon="1.134710">
        <ele>942.508</ele>
        <time>2021-06-18T15:34:14Z</time>
      </trkpt>
      <trkpt lat="42.590500" lon="1.134778">
        <ele>943.376</ele>
        <time>2021-06-18T15:34:19Z</time>
      </trkpt>
      <trkpt lat="42.590292" lon="1.134871">
        <ele>945.175</ele>
        <time>2021-06-18T15:34:26Z</time>
      </trkpt>
      <trkpt lat="42.590266" lon="1.134891">
        <ele>945.581</ele>
        <time>2021-06-18T15:34:27Z</time>
      </trkpt>
      <trkpt lat="42.590212" lon="1.134928">
        <ele>946.295</ele>
        <time>2021-06-18T15:34:29Z</time>
      </trkpt>
      <trkpt lat="42.590076" lon="1.135009">
        <ele>946.729</ele>
        <time>2021-06-18T15:34:34Z</time>
      </trkpt>
      <trkpt lat="42.589870" lon="1.135162">
        <ele>947.839</ele>
        <time>2021-06-18T15:34:42Z</time>
      </trkpt>
      <trkpt lat="42.589845" lon="1.135180">
        <ele>947.952</ele>
        <time>2021-06-18T15:34:43Z</time>
      </trkpt>
      <trkpt lat="42.589641" lon="1.135252">
        <ele>946.869</ele>
        <time>2021-06-18T15:34:50Z</time>
      </trkpt>
      <trkpt lat="42.589490" lon="1.135217">
        <ele>944.892</ele>
        <time>2021-06-18T15:34:53Z</time>
      </trkpt>
      <trkpt lat="42.589423" lon="1.135210">
        <ele>944.273</ele>
        <time>2021-06-18T15:34:54Z</time>
      </trkpt>
      <trkpt lat="42.589126" lon="1.135168">
        <ele>941.520</ele>
        <time>2021-06-18T15:34:58Z</time>
      </trkpt>
      <trkpt lat="42.589044" lon="1.135172">
        <ele>941.108</ele>
        <time>2021-06-18T15:34:59Z</time>
      </trkpt>
      <trkpt lat="42.588874" lon="1.135217">
        <ele>941.056</ele>
        <time>2021-06-18T15:35:01Z</time>
      </trkpt>
      <trkpt lat="42.588788" lon="1.135239">
        <ele>940.375</ele>
        <time>2021-06-18T15:35:02Z</time>
      </trkpt>
      <trkpt lat="42.588702" lon="1.135252">
        <ele>939.261</ele>
        <time>2021-06-18T15:35:03Z</time>
      </trkpt>
      <trkpt lat="42.588622" lon="1.135271">
        <ele>938.155</ele>
        <time>2021-06-18T15:35:04Z</time>
      </trkpt>
      <trkpt lat="42.588547" lon="1.135291">
        <ele>938.479</ele>
        <time>2021-06-18T15:35:05Z</time>
      </trkpt>
      <trkpt lat="42.588466" lon="1.135304">
        <ele>938.579</ele>
        <time>2021-06-18T15:35:06Z</time>
      </trkpt>
      <trkpt lat="42.588321" lon="1.135331">
        <ele>938.952</ele>
        <time>2021-06-18T15:35:08Z</time>
      </trkpt>
      <trkpt lat="42.588257" lon="1.135342">
        <ele>939.459</ele>
        <time>2021-06-18T15:35:09Z</time>
      </trkpt>
      <trkpt lat="42.587950" lon="1.135444">
        <ele>943.512</ele>
        <time>2021-06-18T15:35:14Z</time>
      </trkpt>
      <trkpt lat="42.587532" lon="1.135606">
        <ele>941.732</ele>
        <time>2021-06-18T15:35:21Z</time>
      </trkpt>
      <trkpt lat="42.587475" lon="1.135617">
        <ele>941.105</ele>
        <time>2021-06-18T15:35:22Z</time>
      </trkpt>
      <trkpt lat="42.587250" lon="1.135670">
        <ele>940.608</ele>
        <time>2021-06-18T15:35:26Z</time>
      </trkpt>
      <trkpt lat="42.587133" lon="1.135696">
        <ele>940.258</ele>
        <time>2021-06-18T15:35:28Z</time>
      </trkpt>
      <trkpt lat="42.587021" lon="1.135649">
        <ele>938.187</ele>
        <time>2021-06-18T15:35:30Z</time>
      </trkpt>
      <trkpt lat="42.586911" lon="1.135566">
        <ele>936.373</ele>
        <time>2021-06-18T15:35:32Z</time>
      </trkpt>
      <trkpt lat="42.586627" lon="1.135383">
        <ele>936.487</ele>
        <time>2021-06-18T15:35:37Z</time>
      </trkpt>
      <trkpt lat="42.586571" lon="1.135359">
        <ele>936.311</ele>
        <time>2021-06-18T15:35:38Z</time>
      </trkpt>
      <trkpt lat="42.586337" lon="1.135319">
        <ele>936.311</ele>
        <time>2021-06-18T15:35:42Z</time>
      </trkpt>
      <trkpt lat="42.586278" lon="1.135310">
        <ele>936.534</ele>
        <time>2021-06-18T15:35:43Z</time>
      </trkpt>
      <trkpt lat="42.586050" lon="1.135271">
        <ele>937.021</ele>
        <time>2021-06-18T15:35:47Z</time>
      </trkpt>
      <trkpt lat="42.585999" lon="1.135256">
        <ele>936.898</ele>
        <time>2021-06-18T15:35:48Z</time>
      </trkpt>
      <trkpt lat="42.585846" lon="1.135202">
        <ele>936.515</ele>
        <time>2021-06-18T15:35:51Z</time>
      </trkpt>
      <trkpt lat="42.585677" lon="1.135180">
        <ele>936.326</ele>
        <time>2021-06-18T15:35:54Z</time>
      </trkpt>
      <trkpt lat="42.585516" lon="1.135235">
        <ele>936.608</ele>
        <time>2021-06-18T15:35:57Z</time>
      </trkpt>
      <trkpt lat="42.585460" lon="1.135264">
        <ele>936.676</ele>
        <time>2021-06-18T15:35:58Z</time>
      </trkpt>
      <trkpt lat="42.585235" lon="1.135342">
        <ele>936.365</ele>
        <time>2021-06-18T15:36:02Z</time>
      </trkpt>
      <trkpt lat="42.585069" lon="1.135340">
        <ele>936.451</ele>
        <time>2021-06-18T15:36:05Z</time>
      </trkpt>
      <trkpt lat="42.584906" lon="1.135321">
        <ele>936.365</ele>
        <time>2021-06-18T15:36:08Z</time>
      </trkpt>
      <trkpt lat="42.584658" lon="1.135313">
        <ele>936.349</ele>
        <time>2021-06-18T15:36:13Z</time>
      </trkpt>
      <trkpt lat="42.584615" lon="1.135315">
        <ele>936.359</ele>
        <time>2021-06-18T15:36:14Z</time>
      </trkpt>
      <trkpt lat="42.584394" lon="1.135332">
        <ele>936.482</ele>
        <time>2021-06-18T15:36:18Z</time>
      </trkpt>
      <trkpt lat="42.584017" lon="1.135373">
        <ele>936.019</ele>
        <time>2021-06-18T15:36:25Z</time>
      </trkpt>
      <trkpt lat="42.583821" lon="1.135485">
        <ele>936.186</ele>
        <time>2021-06-18T15:36:29Z</time>
      </trkpt>
      <trkpt lat="42.583776" lon="1.135522">
        <ele>936.060</ele>
        <time>2021-06-18T15:36:30Z</time>
      </trkpt>
      <trkpt lat="42.583597" lon="1.135794">
        <ele>936.626</ele>
        <time>2021-06-18T15:36:35Z</time>
      </trkpt>
      <trkpt lat="42.583351" lon="1.136248">
        <ele>936.608</ele>
        <time>2021-06-18T15:36:43Z</time>
      </trkpt>
      <trkpt lat="42.583293" lon="1.136359">
        <ele>936.655</ele>
        <time>2021-06-18T15:36:45Z</time>
      </trkpt>
      <trkpt lat="42.583245" lon="1.136563">
        <ele>936.414</ele>
        <time>2021-06-18T15:36:48Z</time>
      </trkpt>
      <trkpt lat="42.583234" lon="1.136634">
        <ele>936.320</ele>
        <time>2021-06-18T15:36:49Z</time>
      </trkpt>
      <trkpt lat="42.583181" lon="1.136903">
        <ele>936.884</ele>
        <time>2021-06-18T15:36:53Z</time>
      </trkpt>
      <trkpt lat="42.583164" lon="1.136960">
        <ele>936.818</ele>
        <time>2021-06-18T15:36:54Z</time>
      </trkpt>
      <trkpt lat="42.583151" lon="1.137017">
        <ele>936.748</ele>
        <time>2021-06-18T15:36:55Z</time>
      </trkpt>
      <trkpt lat="42.583055" lon="1.137403">
        <ele>936.681</ele>
        <time>2021-06-18T15:37:01Z</time>
      </trkpt>
      <trkpt lat="42.582994" lon="1.137815">
        <ele>936.968</ele>
        <time>2021-06-18T15:37:07Z</time>
      </trkpt>
      <trkpt lat="42.582991" lon="1.137886">
        <ele>937.149</ele>
        <time>2021-06-18T15:37:08Z</time>
      </trkpt>
      <trkpt lat="42.582978" lon="1.138086">
        <ele>937.402</ele>
        <time>2021-06-18T15:37:11Z</time>
      </trkpt>
      <trkpt lat="42.582952" lon="1.138282">
        <ele>937.322</ele>
        <time>2021-06-18T15:37:14Z</time>
      </trkpt>
      <trkpt lat="42.582882" lon="1.138784">
        <ele>937.708</ele>
        <time>2021-06-18T15:37:22Z</time>
      </trkpt>
      <trkpt lat="42.582827" lon="1.139093">
        <ele>938.361</ele>
        <time>2021-06-18T15:37:28Z</time>
      </trkpt>
      <trkpt lat="42.582805" lon="1.139172">
        <ele>938.360</ele>
        <time>2021-06-18T15:37:30Z</time>
      </trkpt>
      <trkpt lat="42.582788" lon="1.139272">
        <ele>939.096</ele>
        <time>2021-06-18T15:37:33Z</time>
      </trkpt>
      <trkpt lat="42.582788" lon="1.139330">
        <ele>939.470</ele>
        <time>2021-06-18T15:37:35Z</time>
      </trkpt>
      <trkpt lat="42.582760" lon="1.139404">
        <ele>939.554</ele>
        <time>2021-06-18T15:37:38Z</time>
      </trkpt>
      <trkpt lat="42.582732" lon="1.139481">
        <ele>940.744</ele>
        <time>2021-06-18T15:37:41Z</time>
      </trkpt>
      <trkpt lat="42.582709" lon="1.139533">
        <ele>942.287</ele>
        <time>2021-06-18T15:37:44Z</time>
      </trkpt>
      <trkpt lat="42.582672" lon="1.139600">
        <ele>943.824</ele>
        <time>2021-06-18T15:37:47Z</time>
      </trkpt>
      <trkpt lat="42.582642" lon="1.139638">
        <ele>944.399</ele>
        <time>2021-06-18T15:37:49Z</time>
      </trkpt>
      <trkpt lat="42.582622" lon="1.139689">
        <ele>945.507</ele>
        <time>2021-06-18T15:37:51Z</time>
      </trkpt>
      <trkpt lat="42.582584" lon="1.139795">
        <ele>949.227</ele>
        <time>2021-06-18T15:37:55Z</time>
      </trkpt>
      <trkpt lat="42.582525" lon="1.139936">
        <ele>954.608</ele>
        <time>2021-06-18T15:38:01Z</time>
      </trkpt>
      <trkpt lat="42.582516" lon="1.139967">
        <ele>955.966</ele>
        <time>2021-06-18T15:38:02Z</time>
      </trkpt>
      <trkpt lat="42.582489" lon="1.140013">
        <ele>957.455</ele>
        <time>2021-06-18T15:38:04Z</time>
      </trkpt>
      <trkpt lat="42.582438" lon="1.140067">
        <ele>958.421</ele>
        <time>2021-06-18T15:38:07Z</time>
      </trkpt>
      <trkpt lat="42.582434" lon="1.140094">
        <ele>959.825</ele>
        <time>2021-06-18T15:38:08Z</time>
      </trkpt>
      <trkpt lat="42.582412" lon="1.140139">
        <ele>961.439</ele>
        <time>2021-06-18T15:38:10Z</time>
      </trkpt>
      <trkpt lat="42.582358" lon="1.140230">
        <ele>963.839</ele>
        <time>2021-06-18T15:38:14Z</time>
      </trkpt>
      <trkpt lat="42.582261" lon="1.140360">
        <ele>969.482</ele>
        <time>2021-06-18T15:38:20Z</time>
      </trkpt>
      <trkpt lat="42.582251" lon="1.140385">
        <ele>971.329</ele>
        <time>2021-06-18T15:38:21Z</time>
      </trkpt>
      <trkpt lat="42.582162" lon="1.140476">
        <ele>974.045</ele>
        <time>2021-06-18T15:38:26Z</time>
      </trkpt>
      <trkpt lat="42.582130" lon="1.140513">
        <ele>974.847</ele>
        <time>2021-06-18T15:38:28Z</time>
      </trkpt>
      <trkpt lat="42.582105" lon="1.140550">
        <ele>975.811</ele>
        <time>2021-06-18T15:38:30Z</time>
      </trkpt>
      <trkpt lat="42.582035" lon="1.140602">
        <ele>974.608</ele>
        <time>2021-06-18T15:38:34Z</time>
      </trkpt>
      <trkpt lat="42.582015" lon="1.140635">
        <ele>975.871</ele>
        <time>2021-06-18T15:38:36Z</time>
      </trkpt>
      <trkpt lat="42.581922" lon="1.140660">
        <ele>970.950</ele>
        <time>2021-06-18T15:38:40Z</time>
      </trkpt>
      <trkpt lat="42.581853" lon="1.140650">
        <ele>966.576</ele>
        <time>2021-06-18T15:38:42Z</time>
      </trkpt>
      <trkpt lat="42.581752" lon="1.140694">
        <ele>963.970</ele>
        <time>2021-06-18T15:38:47Z</time>
      </trkpt>
      <trkpt lat="42.581644" lon="1.140721">
        <ele>959.664</ele>
        <time>2021-06-18T15:38:52Z</time>
      </trkpt>
      <trkpt lat="42.581524" lon="1.140766">
        <ele>958.754</ele>
        <time>2021-06-18T15:38:58Z</time>
      </trkpt>
      <trkpt lat="42.581450" lon="1.140830">
        <ele>959.497</ele>
        <time>2021-06-18T15:39:03Z</time>
      </trkpt>
      <trkpt lat="42.581397" lon="1.140897">
        <ele>960.194</ele>
        <time>2021-06-18T15:39:07Z</time>
      </trkpt>
      <trkpt lat="42.581364" lon="1.140986">
        <ele>961.721</ele>
        <time>2021-06-18T15:39:11Z</time>
      </trkpt>
      <trkpt lat="42.581322" lon="1.141056">
        <ele>962.541</ele>
        <time>2021-06-18T15:39:15Z</time>
      </trkpt>
      <trkpt lat="42.581299" lon="1.141094">
        <ele>962.905</ele>
        <time>2021-06-18T15:39:17Z</time>
      </trkpt>
      <trkpt lat="42.581242" lon="1.141182">
        <ele>964.208</ele>
        <time>2021-06-18T15:39:22Z</time>
      </trkpt>
      <trkpt lat="42.581229" lon="1.141197">
        <ele>964.489</ele>
        <time>2021-06-18T15:39:23Z</time>
      </trkpt>
      <trkpt lat="42.581165" lon="1.141241">
        <ele>964.148</ele>
        <time>2021-06-18T15:39:27Z</time>
      </trkpt>
      <trkpt lat="42.581090" lon="1.141300">
        <ele>964.514</ele>
        <time>2021-06-18T15:39:32Z</time>
      </trkpt>
      <trkpt lat="42.581027" lon="1.141371">
        <ele>966.248</ele>
        <time>2021-06-18T15:39:37Z</time>
      </trkpt>
      <trkpt lat="42.581000" lon="1.141396">
        <ele>966.792</ele>
        <time>2021-06-18T15:39:39Z</time>
      </trkpt>
      <trkpt lat="42.580888" lon="1.141487">
        <ele>968.212</ele>
        <time>2021-06-18T15:39:47Z</time>
      </trkpt>
      <trkpt lat="42.580858" lon="1.141513">
        <ele>968.535</ele>
        <time>2021-06-18T15:39:49Z</time>
      </trkpt>
      <trkpt lat="42.580806" lon="1.141628">
        <ele>971.172</ele>
        <time>2021-06-18T15:39:55Z</time>
      </trkpt>
      <trkpt lat="42.580793" lon="1.141644">
        <ele>971.341</ele>
        <time>2021-06-18T15:39:56Z</time>
      </trkpt>
      <trkpt lat="42.580727" lon="1.141737">
        <ele>973.181</ele>
        <time>2021-06-18T15:40:02Z</time>
      </trkpt>
      <trkpt lat="42.580721" lon="1.141757">
        <ele>973.709</ele>
        <time>2021-06-18T15:40:03Z</time>
      </trkpt>
      <trkpt lat="42.580647" lon="1.141812">
        <ele>974.108</ele>
        <time>2021-06-18T15:40:08Z</time>
      </trkpt>
      <trkpt lat="42.580635" lon="1.141826">
        <ele>974.331</ele>
        <time>2021-06-18T15:40:09Z</time>
      </trkpt>
      <trkpt lat="42.580577" lon="1.141900">
        <ele>975.890</ele>
        <time>2021-06-18T15:40:14Z</time>
      </trkpt>
      <trkpt lat="42.580541" lon="1.141940">
        <ele>976.476</ele>
        <time>2021-06-18T15:40:17Z</time>
      </trkpt>
      <trkpt lat="42.580531" lon="1.141951">
        <ele>976.690</ele>
        <time>2021-06-18T15:40:18Z</time>
      </trkpt>
      <trkpt lat="42.580448" lon="1.142055">
        <ele>978.454</ele>
        <time>2021-06-18T15:40:25Z</time>
      </trkpt>
      <trkpt lat="42.580432" lon="1.142065">
        <ele>978.314</ele>
        <time>2021-06-18T15:40:26Z</time>
      </trkpt>
      <trkpt lat="42.580363" lon="1.142150">
        <ele>979.387</ele>
        <time>2021-06-18T15:40:32Z</time>
      </trkpt>
      <trkpt lat="42.580362" lon="1.142172">
        <ele>980.194</ele>
        <time>2021-06-18T15:40:33Z</time>
      </trkpt>
      <trkpt lat="42.580299" lon="1.142251">
        <ele>981.027</ele>
        <time>2021-06-18T15:40:38Z</time>
      </trkpt>
      <trkpt lat="42.580224" lon="1.142341">
        <ele>982.768</ele>
        <time>2021-06-18T15:40:44Z</time>
      </trkpt>
      <trkpt lat="42.580171" lon="1.142372">
        <ele>982.514</ele>
        <time>2021-06-18T15:40:47Z</time>
      </trkpt>
      <trkpt lat="42.580154" lon="1.142405">
        <ele>983.308</ele>
        <time>2021-06-18T15:40:49Z</time>
      </trkpt>
      <trkpt lat="42.580060" lon="1.142451">
        <ele>982.249</ele>
        <time>2021-06-18T15:40:54Z</time>
      </trkpt>
      <trkpt lat="42.580020" lon="1.142461">
        <ele>981.448</ele>
        <time>2021-06-18T15:40:56Z</time>
      </trkpt>
      <trkpt lat="42.579943" lon="1.142523">
        <ele>981.254</ele>
        <time>2021-06-18T15:41:01Z</time>
      </trkpt>
      <trkpt lat="42.579821" lon="1.142635">
        <ele>981.298</ele>
        <time>2021-06-18T15:41:08Z</time>
      </trkpt>
      <trkpt lat="42.579775" lon="1.142678">
        <ele>981.362</ele>
        <time>2021-06-18T15:41:10Z</time>
      </trkpt>
      <trkpt lat="42.579648" lon="1.142733">
        <ele>980.532</ele>
        <time>2021-06-18T15:41:14Z</time>
      </trkpt>
      <trkpt lat="42.579338" lon="1.142799">
        <ele>979.635</ele>
        <time>2021-06-18T15:41:22Z</time>
      </trkpt>
      <trkpt lat="42.579295" lon="1.142813">
        <ele>980.042</ele>
        <time>2021-06-18T15:41:23Z</time>
      </trkpt>
      <trkpt lat="42.579147" lon="1.142857">
        <ele>981.465</ele>
        <time>2021-06-18T15:41:27Z</time>
      </trkpt>
      <trkpt lat="42.579121" lon="1.142853">
        <ele>981.268</ele>
        <time>2021-06-18T15:41:28Z</time>
      </trkpt>
      <trkpt lat="42.579068" lon="1.142841">
        <ele>980.714</ele>
        <time>2021-06-18T15:41:31Z</time>
      </trkpt>
      <trkpt lat="42.579060" lon="1.142851">
        <ele>981.208</ele>
        <time>2021-06-18T15:41:32Z</time>
      </trkpt>
      <trkpt lat="42.579104" lon="1.142869">
        <ele>981.913</ele>
        <time>2021-06-18T15:41:35Z</time>
      </trkpt>
      <trkpt lat="42.579132" lon="1.142870">
        <ele>982.072</ele>
        <time>2021-06-18T15:41:36Z</time>
      </trkpt>
      <trkpt lat="42.579197" lon="1.142856">
        <ele>981.598</ele>
        <time>2021-06-18T15:41:38Z</time>
      </trkpt>
      <trkpt lat="42.579219" lon="1.142822">
        <ele>980.162</ele>
        <time>2021-06-18T15:41:39Z</time>
      </trkpt>
      <trkpt lat="42.579181" lon="1.142705">
        <ele>975.286</ele>
        <time>2021-06-18T15:41:42Z</time>
      </trkpt>
      <trkpt lat="42.578993" lon="1.142680">
        <ele>973.526</ele>
        <time>2021-06-18T15:41:45Z</time>
      </trkpt>
      <trkpt lat="42.578835" lon="1.142695">
        <ele>972.149</ele>
        <time>2021-06-18T15:41:47Z</time>
      </trkpt>
      <trkpt lat="42.578747" lon="1.142725">
        <ele>970.886</ele>
        <time>2021-06-18T15:41:48Z</time>
      </trkpt>
      <trkpt lat="42.578673" lon="1.142781">
        <ele>971.292</ele>
        <time>2021-06-18T15:41:49Z</time>
      </trkpt>
      <trkpt lat="42.578585" lon="1.142838">
        <ele>970.773</ele>
        <time>2021-06-18T15:41:50Z</time>
      </trkpt>
      <trkpt lat="42.578422" lon="1.142978">
        <ele>969.920</ele>
        <time>2021-06-18T15:41:52Z</time>
      </trkpt>
      <trkpt lat="42.578341" lon="1.143049">
        <ele>969.108</ele>
        <time>2021-06-18T15:41:53Z</time>
      </trkpt>
      <trkpt lat="42.578255" lon="1.143107">
        <ele>969.426</ele>
        <time>2021-06-18T15:41:54Z</time>
      </trkpt>
      <trkpt lat="42.578162" lon="1.143150">
        <ele>968.525</ele>
        <time>2021-06-18T15:41:55Z</time>
      </trkpt>
      <trkpt lat="42.578062" lon="1.143186">
        <ele>966.931</ele>
        <time>2021-06-18T15:41:56Z</time>
      </trkpt>
      <trkpt lat="42.577967" lon="1.143219">
        <ele>965.895</ele>
        <time>2021-06-18T15:41:57Z</time>
      </trkpt>
      <trkpt lat="42.577866" lon="1.143246">
        <ele>964.569</ele>
        <time>2021-06-18T15:41:58Z</time>
      </trkpt>
      <trkpt lat="42.577765" lon="1.143270">
        <ele>963.259</ele>
        <time>2021-06-18T15:41:59Z</time>
      </trkpt>
      <trkpt lat="42.577570" lon="1.143324">
        <ele>960.532</ele>
        <time>2021-06-18T15:42:01Z</time>
      </trkpt>
      <trkpt lat="42.577386" lon="1.143404">
        <ele>959.299</ele>
        <time>2021-06-18T15:42:03Z</time>
      </trkpt>
      <trkpt lat="42.577301" lon="1.143452">
        <ele>958.898</ele>
        <time>2021-06-18T15:42:04Z</time>
      </trkpt>
      <trkpt lat="42.577132" lon="1.143527">
        <ele>957.915</ele>
        <time>2021-06-18T15:42:06Z</time>
      </trkpt>
      <trkpt lat="42.577045" lon="1.143536">
        <ele>956.626</ele>
        <time>2021-06-18T15:42:07Z</time>
      </trkpt>
      <trkpt lat="42.576959" lon="1.143527">
        <ele>954.408</ele>
        <time>2021-06-18T15:42:08Z</time>
      </trkpt>
      <trkpt lat="42.576792" lon="1.143458">
        <ele>954.926</ele>
        <time>2021-06-18T15:42:10Z</time>
      </trkpt>
      <trkpt lat="42.576657" lon="1.143306">
        <ele>950.415</ele>
        <time>2021-06-18T15:42:12Z</time>
      </trkpt>
      <trkpt lat="42.576591" lon="1.143238">
        <ele>951.071</ele>
        <time>2021-06-18T15:42:13Z</time>
      </trkpt>
      <trkpt lat="42.576509" lon="1.143184">
        <ele>951.755</ele>
        <time>2021-06-18T15:42:14Z</time>
      </trkpt>
      <trkpt lat="42.576361" lon="1.143075">
        <ele>946.789</ele>
        <time>2021-06-18T15:42:16Z</time>
      </trkpt>
      <trkpt lat="42.576297" lon="1.143040">
        <ele>943.869</ele>
        <time>2021-06-18T15:42:17Z</time>
      </trkpt>
      <trkpt lat="42.576233" lon="1.143042">
        <ele>943.512</ele>
        <time>2021-06-18T15:42:18Z</time>
      </trkpt>
      <trkpt lat="42.576122" lon="1.143134">
        <ele>949.969</ele>
        <time>2021-06-18T15:42:20Z</time>
      </trkpt>
      <trkpt lat="42.576059" lon="1.143180">
        <ele>952.077</ele>
        <time>2021-06-18T15:42:21Z</time>
      </trkpt>
      <trkpt lat="42.575993" lon="1.143211">
        <ele>951.461</ele>
        <time>2021-06-18T15:42:22Z</time>
      </trkpt>
      <trkpt lat="42.575908" lon="1.143194">
        <ele>947.327</ele>
        <time>2021-06-18T15:42:24Z</time>
      </trkpt>
      <trkpt lat="42.575900" lon="1.143082">
        <ele>944.408</ele>
        <time>2021-06-18T15:42:26Z</time>
      </trkpt>
      <trkpt lat="42.575928" lon="1.142953">
        <ele>942.534</ele>
        <time>2021-06-18T15:42:28Z</time>
      </trkpt>
      <trkpt lat="42.575895" lon="1.142821">
        <ele>941.893</ele>
        <time>2021-06-18T15:42:30Z</time>
      </trkpt>
      <trkpt lat="42.575794" lon="1.142662">
        <ele>940.079</ele>
        <time>2021-06-18T15:42:33Z</time>
      </trkpt>
      <trkpt lat="42.575832" lon="1.142510">
        <ele>934.343</ele>
        <time>2021-06-18T15:42:36Z</time>
      </trkpt>
      <trkpt lat="42.575901" lon="1.142276">
        <ele>932.477</ele>
        <time>2021-06-18T15:42:41Z</time>
      </trkpt>
      <trkpt lat="42.575921" lon="1.142186">
        <ele>932.327</ele>
        <time>2021-06-18T15:42:43Z</time>
      </trkpt>
      <trkpt lat="42.575952" lon="1.141973">
        <ele>932.760</ele>
        <time>2021-06-18T15:42:48Z</time>
      </trkpt>
      <trkpt lat="42.575973" lon="1.141929">
        <ele>932.987</ele>
        <time>2021-06-18T15:42:49Z</time>
      </trkpt>
      <trkpt lat="42.576128" lon="1.141842">
        <ele>934.784</ele>
        <time>2021-06-18T15:42:52Z</time>
      </trkpt>
      <trkpt lat="42.576224" lon="1.141758">
        <ele>934.607</ele>
        <time>2021-06-18T15:42:54Z</time>
      </trkpt>
      <trkpt lat="42.576338" lon="1.141531">
        <ele>934.717</ele>
        <time>2021-06-18T15:42:58Z</time>
      </trkpt>
      <trkpt lat="42.576368" lon="1.141500">
        <ele>934.908</ele>
        <time>2021-06-18T15:42:59Z</time>
      </trkpt>
      <trkpt lat="42.576533" lon="1.141350">
        <ele>935.625</ele>
        <time>2021-06-18T15:43:05Z</time>
      </trkpt>
      <trkpt lat="42.576729" lon="1.141164">
        <ele>936.864</ele>
        <time>2021-06-18T15:43:12Z</time>
      </trkpt>
      <trkpt lat="42.576836" lon="1.141004">
        <ele>937.540</ele>
        <time>2021-06-18T15:43:17Z</time>
      </trkpt>
      <trkpt lat="42.576909" lon="1.140899">
        <ele>938.374</ele>
        <time>2021-06-18T15:43:20Z</time>
      </trkpt>
      <trkpt lat="42.577064" lon="1.140683">
        <ele>938.868</ele>
        <time>2021-06-18T15:43:26Z</time>
      </trkpt>
      <trkpt lat="42.577084" lon="1.140643">
        <ele>938.858</ele>
        <time>2021-06-18T15:43:27Z</time>
      </trkpt>
      <trkpt lat="42.577102" lon="1.140489">
        <ele>939.221</ele>
        <time>2021-06-18T15:43:30Z</time>
      </trkpt>
      <trkpt lat="42.577094" lon="1.140434">
        <ele>939.458</ele>
        <time>2021-06-18T15:43:31Z</time>
      </trkpt>
      <trkpt lat="42.577028" lon="1.140122">
        <ele>941.049</ele>
        <time>2021-06-18T15:43:38Z</time>
      </trkpt>
      <trkpt lat="42.576971" lon="1.139887">
        <ele>942.702</ele>
        <time>2021-06-18T15:43:45Z</time>
      </trkpt>
      <trkpt lat="42.576947" lon="1.139736">
        <ele>943.922</ele>
        <time>2021-06-18T15:43:50Z</time>
      </trkpt>
      <trkpt lat="42.576955" lon="1.139651">
        <ele>944.208</ele>
        <time>2021-06-18T15:43:53Z</time>
      </trkpt>
      <trkpt lat="42.576983" lon="1.139599">
        <ele>944.241</ele>
        <time>2021-06-18T15:43:55Z</time>
      </trkpt>
      <trkpt lat="42.577071" lon="1.139511">
        <ele>944.240</ele>
        <time>2021-06-18T15:43:59Z</time>
      </trkpt>
      <trkpt lat="42.577124" lon="1.139489">
        <ele>944.126</ele>
        <time>2021-06-18T15:44:01Z</time>
      </trkpt>
      <trkpt lat="42.577217" lon="1.139438">
        <ele>944.030</ele>
        <time>2021-06-18T15:44:05Z</time>
      </trkpt>
      <trkpt lat="42.577232" lon="1.139326">
        <ele>944.364</ele>
        <time>2021-06-18T15:44:09Z</time>
      </trkpt>
      <trkpt lat="42.577225" lon="1.139315">
        <ele>944.474</ele>
        <time>2021-06-18T15:44:10Z</time>
      </trkpt>
      <trkpt lat="42.577222" lon="1.139308">
        <ele>944.567</ele>
        <time>2021-06-18T15:44:12Z</time>
      </trkpt>
      <trkpt lat="42.577139" lon="1.139370">
        <ele>944.664</ele>
        <time>2021-06-18T15:50:39Z</time>
      </trkpt>
      <trkpt lat="42.576967" lon="1.139404">
        <ele>945.252</ele>
        <time>2021-06-18T15:50:46Z</time>
      </trkpt>
      <trkpt lat="42.576870" lon="1.139374">
        <ele>946.053</ele>
        <time>2021-06-18T15:50:51Z</time>
      </trkpt>
      <trkpt lat="42.576856" lon="1.139355">
        <ele>946.308</ele>
        <time>2021-06-18T15:50:52Z</time>
      </trkpt>
      <trkpt lat="42.576829" lon="1.139284">
        <ele>947.008</ele>
        <time>2021-06-18T15:50:55Z</time>
      </trkpt>
      <trkpt lat="42.576815" lon="1.139232">
        <ele>947.532</ele>
        <time>2021-06-18T15:50:57Z</time>
      </trkpt>
      <trkpt lat="42.576798" lon="1.139182">
        <ele>947.951</ele>
        <time>2021-06-18T15:50:59Z</time>
      </trkpt>
      <trkpt lat="42.576788" lon="1.139158">
        <ele>948.477</ele>
        <time>2021-06-18T15:51:00Z</time>
      </trkpt>
      <trkpt lat="42.576719" lon="1.139054">
        <ele>951.391</ele>
        <time>2021-06-18T15:51:05Z</time>
      </trkpt>
      <trkpt lat="42.576671" lon="1.138996">
        <ele>952.755</ele>
        <time>2021-06-18T15:51:08Z</time>
      </trkpt>
      <trkpt lat="42.576619" lon="1.138950">
        <ele>953.125</ele>
        <time>2021-06-18T15:51:11Z</time>
      </trkpt>
      <trkpt lat="42.576537" lon="1.138875">
        <ele>953.788</ele>
        <time>2021-06-18T15:51:16Z</time>
      </trkpt>
      <trkpt lat="42.576510" lon="1.138841">
        <ele>954.565</ele>
        <time>2021-06-18T15:51:18Z</time>
      </trkpt>
      <trkpt lat="42.576424" lon="1.138743">
        <ele>955.624</ele>
        <time>2021-06-18T15:51:24Z</time>
      </trkpt>
      <trkpt lat="42.576346" lon="1.138603">
        <ele>957.404</ele>
        <time>2021-06-18T15:51:31Z</time>
      </trkpt>
      <trkpt lat="42.576292" lon="1.138465">
        <ele>960.914</ele>
        <time>2021-06-18T15:51:37Z</time>
      </trkpt>
      <trkpt lat="42.576284" lon="1.138440">
        <ele>961.408</ele>
        <time>2021-06-18T15:51:38Z</time>
      </trkpt>
      <trkpt lat="42.576237" lon="1.138267">
        <ele>962.899</ele>
        <time>2021-06-18T15:51:45Z</time>
      </trkpt>
      <trkpt lat="42.576222" lon="1.138126">
        <ele>963.268</ele>
        <time>2021-06-18T15:51:51Z</time>
      </trkpt>
      <trkpt lat="42.576210" lon="1.137913">
        <ele>963.544</ele>
        <time>2021-06-18T15:51:59Z</time>
      </trkpt>
      <trkpt lat="42.576209" lon="1.137885">
        <ele>963.658</ele>
        <time>2021-06-18T15:52:00Z</time>
      </trkpt>
      <trkpt lat="42.576226" lon="1.137725">
        <ele>965.152</ele>
        <time>2021-06-18T15:52:06Z</time>
      </trkpt>
      <trkpt lat="42.576231" lon="1.137619">
        <ele>965.972</ele>
        <time>2021-06-18T15:52:10Z</time>
      </trkpt>
      <trkpt lat="42.576233" lon="1.137566">
        <ele>966.245</ele>
        <time>2021-06-18T15:52:12Z</time>
      </trkpt>
      <trkpt lat="42.576257" lon="1.137412">
        <ele>968.422</ele>
        <time>2021-06-18T15:52:18Z</time>
      </trkpt>
      <trkpt lat="42.576293" lon="1.137266">
        <ele>971.557</ele>
        <time>2021-06-18T15:52:24Z</time>
      </trkpt>
      <trkpt lat="42.576316" lon="1.137087">
        <ele>972.000</ele>
        <time>2021-06-18T15:52:31Z</time>
      </trkpt>
      <trkpt lat="42.576323" lon="1.137062">
        <ele>972.120</ele>
        <time>2021-06-18T15:52:32Z</time>
      </trkpt>
      <trkpt lat="42.576363" lon="1.136943">
        <ele>972.808</ele>
        <time>2021-06-18T15:52:37Z</time>
      </trkpt>
      <trkpt lat="42.576382" lon="1.136895">
        <ele>972.862</ele>
        <time>2021-06-18T15:52:39Z</time>
      </trkpt>
      <trkpt lat="42.576429" lon="1.136773">
        <ele>972.521</ele>
        <time>2021-06-18T15:52:44Z</time>
      </trkpt>
      <trkpt lat="42.576437" lon="1.136748">
        <ele>972.427</ele>
        <time>2021-06-18T15:52:45Z</time>
      </trkpt>
      <trkpt lat="42.576462" lon="1.136650">
        <ele>972.141</ele>
        <time>2021-06-18T15:52:49Z</time>
      </trkpt>
      <trkpt lat="42.576468" lon="1.136601">
        <ele>972.025</ele>
        <time>2021-06-18T15:52:51Z</time>
      </trkpt>
      <trkpt lat="42.576537" lon="1.136424">
        <ele>973.125</ele>
        <time>2021-06-18T15:52:59Z</time>
      </trkpt>
      <trkpt lat="42.576547" lon="1.136399">
        <ele>973.238</ele>
        <time>2021-06-18T15:53:00Z</time>
      </trkpt>
      <trkpt lat="42.576558" lon="1.136376">
        <ele>973.465</ele>
        <time>2021-06-18T15:53:01Z</time>
      </trkpt>
      <trkpt lat="42.576574" lon="1.136327">
        <ele>973.629</ele>
        <time>2021-06-18T15:53:03Z</time>
      </trkpt>
      <trkpt lat="42.576610" lon="1.136230">
        <ele>974.100</ele>
        <time>2021-06-18T15:53:07Z</time>
      </trkpt>
      <trkpt lat="42.576637" lon="1.136158">
        <ele>974.520</ele>
        <time>2021-06-18T15:53:10Z</time>
      </trkpt>
      <trkpt lat="42.576654" lon="1.136057">
        <ele>973.908</ele>
        <time>2021-06-18T15:53:14Z</time>
      </trkpt>
      <trkpt lat="42.576660" lon="1.135948">
        <ele>972.699</ele>
        <time>2021-06-18T15:53:18Z</time>
      </trkpt>
      <trkpt lat="42.576664" lon="1.135873">
        <ele>971.678</ele>
        <time>2021-06-18T15:53:21Z</time>
      </trkpt>
      <trkpt lat="42.576657" lon="1.135820">
        <ele>971.134</ele>
        <time>2021-06-18T15:53:23Z</time>
      </trkpt>
      <trkpt lat="42.576638" lon="1.135691">
        <ele>971.848</ele>
        <time>2021-06-18T15:53:28Z</time>
      </trkpt>
      <trkpt lat="42.576626" lon="1.135643">
        <ele>972.342</ele>
        <time>2021-06-18T15:53:30Z</time>
      </trkpt>
      <trkpt lat="42.576589" lon="1.135517">
        <ele>974.132</ele>
        <time>2021-06-18T15:53:35Z</time>
      </trkpt>
      <trkpt lat="42.576574" lon="1.135468">
        <ele>974.955</ele>
        <time>2021-06-18T15:53:37Z</time>
      </trkpt>
      <trkpt lat="42.576528" lon="1.135317">
        <ele>977.642</ele>
        <time>2021-06-18T15:53:43Z</time>
      </trkpt>
      <trkpt lat="42.576520" lon="1.135264">
        <ele>978.359</ele>
        <time>2021-06-18T15:53:45Z</time>
      </trkpt>
      <trkpt lat="42.576518" lon="1.135157">
        <ele>979.503</ele>
        <time>2021-06-18T15:53:49Z</time>
      </trkpt>
      <trkpt lat="42.576521" lon="1.135108">
        <ele>980.023</ele>
        <time>2021-06-18T15:53:51Z</time>
      </trkpt>
      <trkpt lat="42.576589" lon="1.135012">
        <ele>979.108</ele>
        <time>2021-06-18T15:53:56Z</time>
      </trkpt>
      <trkpt lat="42.576712" lon="1.134972">
        <ele>979.182</ele>
        <time>2021-06-18T15:54:02Z</time>
      </trkpt>
      <trkpt lat="42.576750" lon="1.134971">
        <ele>980.641</ele>
        <time>2021-06-18T15:54:04Z</time>
      </trkpt>
      <trkpt lat="42.576831" lon="1.135013">
        <ele>983.547</ele>
        <time>2021-06-18T15:54:08Z</time>
      </trkpt>
      <trkpt lat="42.576895" lon="1.135149">
        <ele>986.351</ele>
        <time>2021-06-18T15:54:13Z</time>
      </trkpt>
      <trkpt lat="42.576912" lon="1.135393">
        <ele>987.685</ele>
        <time>2021-06-18T15:54:19Z</time>
      </trkpt>
      <trkpt lat="42.576915" lon="1.135490">
        <ele>988.085</ele>
        <time>2021-06-18T15:54:21Z</time>
      </trkpt>
      <trkpt lat="42.576920" lon="1.135789">
        <ele>986.878</ele>
        <time>2021-06-18T15:54:27Z</time>
      </trkpt>
      <trkpt lat="42.576915" lon="1.136155">
        <ele>986.885</ele>
        <time>2021-06-18T15:54:35Z</time>
      </trkpt>
      <trkpt lat="42.576899" lon="1.136392">
        <ele>987.024</ele>
        <time>2021-06-18T15:54:41Z</time>
      </trkpt>
      <trkpt lat="42.576898" lon="1.136430">
        <ele>987.004</ele>
        <time>2021-06-18T15:54:42Z</time>
      </trkpt>
      <trkpt lat="42.576890" lon="1.136540">
        <ele>986.614</ele>
        <time>2021-06-18T15:54:45Z</time>
      </trkpt>
      <trkpt lat="42.576876" lon="1.136719">
        <ele>986.708</ele>
        <time>2021-06-18T15:54:50Z</time>
      </trkpt>
      <trkpt lat="42.576862" lon="1.136788">
        <ele>986.969</ele>
        <time>2021-06-18T15:54:52Z</time>
      </trkpt>
      <trkpt lat="42.576801" lon="1.136943">
        <ele>986.988</ele>
        <time>2021-06-18T15:54:57Z</time>
      </trkpt>
      <trkpt lat="42.576773" lon="1.137001">
        <ele>987.054</ele>
        <time>2021-06-18T15:54:59Z</time>
      </trkpt>
      <trkpt lat="42.576748" lon="1.137057">
        <ele>987.178</ele>
        <time>2021-06-18T15:55:01Z</time>
      </trkpt>
      <trkpt lat="42.576718" lon="1.137105">
        <ele>987.262</ele>
        <time>2021-06-18T15:55:03Z</time>
      </trkpt>
      <trkpt lat="42.576656" lon="1.137243">
        <ele>987.882</ele>
        <time>2021-06-18T15:55:08Z</time>
      </trkpt>
      <trkpt lat="42.576647" lon="1.137272">
        <ele>987.695</ele>
        <time>2021-06-18T15:55:09Z</time>
      </trkpt>
      <trkpt lat="42.576630" lon="1.137431">
        <ele>987.772</ele>
        <time>2021-06-18T15:55:14Z</time>
      </trkpt>
      <trkpt lat="42.576638" lon="1.137491">
        <ele>988.417</ele>
        <time>2021-06-18T15:55:16Z</time>
      </trkpt>
      <trkpt lat="42.576702" lon="1.137654">
        <ele>994.787</ele>
        <time>2021-06-18T15:55:22Z</time>
      </trkpt>
      <trkpt lat="42.576811" lon="1.137772">
        <ele>995.815</ele>
        <time>2021-06-18T15:55:28Z</time>
      </trkpt>
      <trkpt lat="42.576987" lon="1.137836">
        <ele>994.908</ele>
        <time>2021-06-18T15:55:36Z</time>
      </trkpt>
      <trkpt lat="42.577059" lon="1.137839">
        <ele>995.078</ele>
        <time>2021-06-18T15:55:39Z</time>
      </trkpt>
      <trkpt lat="42.577149" lon="1.137817">
        <ele>994.667</ele>
        <time>2021-06-18T15:55:43Z</time>
      </trkpt>
      <trkpt lat="42.577290" lon="1.137759">
        <ele>994.393</ele>
        <time>2021-06-18T15:55:49Z</time>
      </trkpt>
      <trkpt lat="42.577380" lon="1.137710">
        <ele>994.747</ele>
        <time>2021-06-18T15:55:53Z</time>
      </trkpt>
      <trkpt lat="42.577513" lon="1.137632">
        <ele>995.391</ele>
        <time>2021-06-18T15:55:59Z</time>
      </trkpt>
      <trkpt lat="42.577579" lon="1.137590">
        <ele>994.871</ele>
        <time>2021-06-18T15:56:02Z</time>
      </trkpt>
      <trkpt lat="42.577660" lon="1.137521">
        <ele>995.524</ele>
        <time>2021-06-18T15:56:06Z</time>
      </trkpt>
      <trkpt lat="42.577715" lon="1.137452">
        <ele>996.321</ele>
        <time>2021-06-18T15:56:09Z</time>
      </trkpt>
      <trkpt lat="42.577755" lon="1.137365">
        <ele>996.961</ele>
        <time>2021-06-18T15:56:12Z</time>
      </trkpt>
      <trkpt lat="42.577780" lon="1.137238">
        <ele>997.921</ele>
        <time>2021-06-18T15:56:16Z</time>
      </trkpt>
      <trkpt lat="42.577752" lon="1.137080">
        <ele>1001.813</ele>
        <time>2021-06-18T15:56:21Z</time>
      </trkpt>
      <trkpt lat="42.577741" lon="1.137050">
        <ele>1002.508</ele>
        <time>2021-06-18T15:56:22Z</time>
      </trkpt>
      <trkpt lat="42.577666" lon="1.136927">
        <ele>1004.983</ele>
        <time>2021-06-18T15:56:27Z</time>
      </trkpt>
      <trkpt lat="42.577647" lon="1.136906">
        <ele>1005.712</ele>
        <time>2021-06-18T15:56:28Z</time>
      </trkpt>
      <trkpt lat="42.577534" lon="1.136855">
        <ele>1006.238</ele>
        <time>2021-06-18T15:56:33Z</time>
      </trkpt>
      <trkpt lat="42.577470" lon="1.136828">
        <ele>1006.312</ele>
        <time>2021-06-18T15:56:36Z</time>
      </trkpt>
      <trkpt lat="42.577391" lon="1.136785">
        <ele>1006.786</ele>
        <time>2021-06-18T15:56:40Z</time>
      </trkpt>
      <trkpt lat="42.577353" lon="1.136759">
        <ele>1006.876</ele>
        <time>2021-06-18T15:56:42Z</time>
      </trkpt>
      <trkpt lat="42.577288" lon="1.136684">
        <ele>1007.669</ele>
        <time>2021-06-18T15:56:46Z</time>
      </trkpt>
      <trkpt lat="42.577243" lon="1.136577">
        <ele>1008.526</ele>
        <time>2021-06-18T15:56:50Z</time>
      </trkpt>
      <trkpt lat="42.577233" lon="1.136486">
        <ele>1009.849</ele>
        <time>2021-06-18T15:56:53Z</time>
      </trkpt>
      <trkpt lat="42.577224" lon="1.136328">
        <ele>1011.502</ele>
        <time>2021-06-18T15:56:58Z</time>
      </trkpt>
      <trkpt lat="42.577228" lon="1.136266">
        <ele>1012.322</ele>
        <time>2021-06-18T15:57:00Z</time>
      </trkpt>
      <trkpt lat="42.577242" lon="1.136082">
        <ele>1014.708</ele>
        <time>2021-06-18T15:57:06Z</time>
      </trkpt>
      <trkpt lat="42.577252" lon="1.136023">
        <ele>1016.041</ele>
        <time>2021-06-18T15:57:08Z</time>
      </trkpt>
      <trkpt lat="42.577269" lon="1.135895">
        <ele>1018.510</ele>
        <time>2021-06-18T15:57:12Z</time>
      </trkpt>
      <trkpt lat="42.577275" lon="1.135863">
        <ele>1019.316</ele>
        <time>2021-06-18T15:57:13Z</time>
      </trkpt>
      <trkpt lat="42.577284" lon="1.135801">
        <ele>1020.620</ele>
        <time>2021-06-18T15:57:15Z</time>
      </trkpt>
      <trkpt lat="42.577293" lon="1.135708">
        <ele>1022.074</ele>
        <time>2021-06-18T15:57:18Z</time>
      </trkpt>
      <trkpt lat="42.577322" lon="1.135494">
        <ele>1025.964</ele>
        <time>2021-06-18T15:57:25Z</time>
      </trkpt>
      <trkpt lat="42.577362" lon="1.135246">
        <ele>1029.567</ele>
        <time>2021-06-18T15:57:33Z</time>
      </trkpt>
      <trkpt lat="42.577362" lon="1.135178">
        <ele>1029.444</ele>
        <time>2021-06-18T15:57:35Z</time>
      </trkpt>
      <trkpt lat="42.577365" lon="1.135114">
        <ele>1029.697</ele>
        <time>2021-06-18T15:57:37Z</time>
      </trkpt>
      <trkpt lat="42.577362" lon="1.134909">
        <ele>1029.423</ele>
        <time>2021-06-18T15:57:43Z</time>
      </trkpt>
      <trkpt lat="42.577361" lon="1.134873">
        <ele>1029.425</ele>
        <time>2021-06-18T15:57:44Z</time>
      </trkpt>
      <trkpt lat="42.577361" lon="1.134681">
        <ele>1030.108</ele>
        <time>2021-06-18T15:57:50Z</time>
      </trkpt>
      <trkpt lat="42.577357" lon="1.134646">
        <ele>1029.786</ele>
        <time>2021-06-18T15:57:51Z</time>
      </trkpt>
      <trkpt lat="42.577330" lon="1.134377">
        <ele>1027.745</ele>
        <time>2021-06-18T15:57:59Z</time>
      </trkpt>
      <trkpt lat="42.577299" lon="1.134152">
        <ele>1026.491</ele>
        <time>2021-06-18T15:58:06Z</time>
      </trkpt>
      <trkpt lat="42.577236" lon="1.133933">
        <ele>1024.345</ele>
        <time>2021-06-18T15:58:12Z</time>
      </trkpt>
      <trkpt lat="42.577225" lon="1.133896">
        <ele>1024.189</ele>
        <time>2021-06-18T15:58:13Z</time>
      </trkpt>
      <trkpt lat="42.577152" lon="1.133685">
        <ele>1026.959</ele>
        <time>2021-06-18T15:58:20Z</time>
      </trkpt>
      <trkpt lat="42.577142" lon="1.133658">
        <ele>1027.142</ele>
        <time>2021-06-18T15:58:21Z</time>
      </trkpt>
      <trkpt lat="42.577046" lon="1.133482">
        <ele>1025.989</ele>
        <time>2021-06-18T15:58:27Z</time>
      </trkpt>
      <trkpt lat="42.576940" lon="1.133298">
        <ele>1022.954</ele>
        <time>2021-06-18T15:58:33Z</time>
      </trkpt>
      <trkpt lat="42.576907" lon="1.133239">
        <ele>1023.356</ele>
        <time>2021-06-18T15:58:35Z</time>
      </trkpt>
      <trkpt lat="42.576812" lon="1.133070">
        <ele>1023.911</ele>
        <time>2021-06-18T15:58:41Z</time>
      </trkpt>
      <trkpt lat="42.576796" lon="1.133040">
        <ele>1023.908</ele>
        <time>2021-06-18T15:58:42Z</time>
      </trkpt>
      <trkpt lat="42.576703" lon="1.132861">
        <ele>1023.372</ele>
        <time>2021-06-18T15:58:48Z</time>
      </trkpt>
      <trkpt lat="42.576668" lon="1.132797">
        <ele>1022.751</ele>
        <time>2021-06-18T15:58:50Z</time>
      </trkpt>
      <trkpt lat="42.576624" lon="1.132698">
        <ele>1023.767</ele>
        <time>2021-06-18T15:58:53Z</time>
      </trkpt>
      <trkpt lat="42.576555" lon="1.132527">
        <ele>1025.251</ele>
        <time>2021-06-18T15:58:58Z</time>
      </trkpt>
      <trkpt lat="42.576490" lon="1.132345">
        <ele>1025.465</ele>
        <time>2021-06-18T15:59:03Z</time>
      </trkpt>
      <trkpt lat="42.576432" lon="1.132115">
        <ele>1025.665</ele>
        <time>2021-06-18T15:59:09Z</time>
      </trkpt>
      <trkpt lat="42.576425" lon="1.132076">
        <ele>1025.778</ele>
        <time>2021-06-18T15:59:10Z</time>
      </trkpt>
      <trkpt lat="42.576371" lon="1.131717">
        <ele>1026.925</ele>
        <time>2021-06-18T15:59:19Z</time>
      </trkpt>
      <trkpt lat="42.576360" lon="1.131639">
        <ele>1027.383</ele>
        <time>2021-06-18T15:59:21Z</time>
      </trkpt>
      <trkpt lat="42.576331" lon="1.131360">
        <ele>1029.025</ele>
        <time>2021-06-18T15:59:28Z</time>
      </trkpt>
      <trkpt lat="42.576293" lon="1.131083">
        <ele>1030.317</ele>
        <time>2021-06-18T15:59:35Z</time>
      </trkpt>
      <trkpt lat="42.576288" lon="1.131045">
        <ele>1030.708</ele>
        <time>2021-06-18T15:59:36Z</time>
      </trkpt>
      <trkpt lat="42.576254" lon="1.130823">
        <ele>1032.475</ele>
        <time>2021-06-18T15:59:42Z</time>
      </trkpt>
      <trkpt lat="42.576242" lon="1.130753">
        <ele>1033.334</ele>
        <time>2021-06-18T15:59:44Z</time>
      </trkpt>
      <trkpt lat="42.576231" lon="1.130693">
        <ele>1033.970</ele>
        <time>2021-06-18T15:59:46Z</time>
      </trkpt>
      <trkpt lat="42.576201" lon="1.130541">
        <ele>1035.274</ele>
        <time>2021-06-18T15:59:51Z</time>
      </trkpt>
      <trkpt lat="42.576170" lon="1.130423">
        <ele>1036.558</ele>
        <time>2021-06-18T15:59:55Z</time>
      </trkpt>
      <trkpt lat="42.576135" lon="1.130317">
        <ele>1036.878</ele>
        <time>2021-06-18T15:59:59Z</time>
      </trkpt>
      <trkpt lat="42.576119" lon="1.130267">
        <ele>1037.171</ele>
        <time>2021-06-18T16:00:01Z</time>
      </trkpt>
      <trkpt lat="42.576085" lon="1.130191">
        <ele>1038.888</ele>
        <time>2021-06-18T16:00:04Z</time>
      </trkpt>
      <trkpt lat="42.576048" lon="1.130117">
        <ele>1040.169</ele>
        <time>2021-06-18T16:00:07Z</time>
      </trkpt>
      <trkpt lat="42.576005" lon="1.130050">
        <ele>1040.504</ele>
        <time>2021-06-18T16:00:10Z</time>
      </trkpt>
      <trkpt lat="42.575958" lon="1.129956">
        <ele>1041.224</ele>
        <time>2021-06-18T16:00:14Z</time>
      </trkpt>
      <trkpt lat="42.575944" lon="1.129940">
        <ele>1041.008</ele>
        <time>2021-06-18T16:00:15Z</time>
      </trkpt>
      <trkpt lat="42.575926" lon="1.129923">
        <ele>1040.543</ele>
        <time>2021-06-18T16:00:16Z</time>
      </trkpt>
      <trkpt lat="42.575879" lon="1.129857">
        <ele>1040.372</ele>
        <time>2021-06-18T16:00:19Z</time>
      </trkpt>
      <trkpt lat="42.575826" lon="1.129793">
        <ele>1040.078</ele>
        <time>2021-06-18T16:00:22Z</time>
      </trkpt>
      <trkpt lat="42.575755" lon="1.129717">
        <ele>1041.012</ele>
        <time>2021-06-18T16:00:26Z</time>
      </trkpt>
      <trkpt lat="42.575725" lon="1.129677">
        <ele>1041.866</ele>
        <time>2021-06-18T16:00:28Z</time>
      </trkpt>
      <trkpt lat="42.575625" lon="1.129570">
        <ele>1042.696</ele>
        <time>2021-06-18T16:00:34Z</time>
      </trkpt>
      <trkpt lat="42.575508" lon="1.129442">
        <ele>1043.689</ele>
        <time>2021-06-18T16:00:41Z</time>
      </trkpt>
      <trkpt lat="42.575476" lon="1.129405">
        <ele>1044.666</ele>
        <time>2021-06-18T16:00:43Z</time>
      </trkpt>
      <trkpt lat="42.575361" lon="1.129283">
        <ele>1045.893</ele>
        <time>2021-06-18T16:00:50Z</time>
      </trkpt>
      <trkpt lat="42.575346" lon="1.129265">
        <ele>1045.765</ele>
        <time>2021-06-18T16:00:51Z</time>
      </trkpt>
      <trkpt lat="42.575249" lon="1.129155">
        <ele>1045.221</ele>
        <time>2021-06-18T16:00:57Z</time>
      </trkpt>
      <trkpt lat="42.575120" lon="1.129014">
        <ele>1047.708</ele>
        <time>2021-06-18T16:01:05Z</time>
      </trkpt>
      <trkpt lat="42.575107" lon="1.128997">
        <ele>1047.936</ele>
        <time>2021-06-18T16:01:06Z</time>
      </trkpt>
      <trkpt lat="42.575018" lon="1.128885">
        <ele>1047.715</ele>
        <time>2021-06-18T16:01:12Z</time>
      </trkpt>
      <trkpt lat="42.575005" lon="1.128868">
        <ele>1047.711</ele>
        <time>2021-06-18T16:01:13Z</time>
      </trkpt>
      <trkpt lat="42.574945" lon="1.128800">
        <ele>1048.585</ele>
        <time>2021-06-18T16:01:17Z</time>
      </trkpt>
      <trkpt lat="42.574886" lon="1.128713">
        <ele>1049.419</ele>
        <time>2021-06-18T16:01:21Z</time>
      </trkpt>
      <trkpt lat="42.574853" lon="1.128671">
        <ele>1049.759</ele>
        <time>2021-06-18T16:01:23Z</time>
      </trkpt>
      <trkpt lat="42.574783" lon="1.128550">
        <ele>1050.412</ele>
        <time>2021-06-18T16:01:28Z</time>
      </trkpt>
      <trkpt lat="42.574754" lon="1.128506">
        <ele>1050.479</ele>
        <time>2021-06-18T16:01:30Z</time>
      </trkpt>
      <trkpt lat="42.574693" lon="1.128382">
        <ele>1050.993</ele>
        <time>2021-06-18T16:01:35Z</time>
      </trkpt>
      <trkpt lat="42.574623" lon="1.128231">
        <ele>1052.565</ele>
        <time>2021-06-18T16:01:41Z</time>
      </trkpt>
      <trkpt lat="42.574563" lon="1.128111">
        <ele>1053.621</ele>
        <time>2021-06-18T16:01:46Z</time>
      </trkpt>
      <trkpt lat="42.574530" lon="1.128035">
        <ele>1054.108</ele>
        <time>2021-06-18T16:01:49Z</time>
      </trkpt>
      <trkpt lat="42.574487" lon="1.127902">
        <ele>1054.366</ele>
        <time>2021-06-18T16:01:54Z</time>
      </trkpt>
      <trkpt lat="42.574459" lon="1.127828">
        <ele>1054.195</ele>
        <time>2021-06-18T16:01:57Z</time>
      </trkpt>
      <trkpt lat="42.574427" lon="1.127753">
        <ele>1054.241</ele>
        <time>2021-06-18T16:02:00Z</time>
      </trkpt>
      <trkpt lat="42.574384" lon="1.127626">
        <ele>1055.515</ele>
        <time>2021-06-18T16:02:05Z</time>
      </trkpt>
      <trkpt lat="42.574366" lon="1.127571">
        <ele>1056.089</ele>
        <time>2021-06-18T16:02:07Z</time>
      </trkpt>
      <trkpt lat="42.574338" lon="1.127493">
        <ele>1056.639</ele>
        <time>2021-06-18T16:02:10Z</time>
      </trkpt>
      <trkpt lat="42.574293" lon="1.127366">
        <ele>1057.752</ele>
        <time>2021-06-18T16:02:15Z</time>
      </trkpt>
      <trkpt lat="42.574231" lon="1.127185">
        <ele>1059.369</ele>
        <time>2021-06-18T16:02:22Z</time>
      </trkpt>
      <trkpt lat="42.574202" lon="1.127111">
        <ele>1059.746</ele>
        <time>2021-06-18T16:02:25Z</time>
      </trkpt>
      <trkpt lat="42.574161" lon="1.127013">
        <ele>1060.288</ele>
        <time>2021-06-18T16:02:29Z</time>
      </trkpt>
      <trkpt lat="42.574128" lon="1.126906">
        <ele>1061.116</ele>
        <time>2021-06-18T16:02:33Z</time>
      </trkpt>
      <trkpt lat="42.574110" lon="1.126822">
        <ele>1061.908</ele>
        <time>2021-06-18T16:02:36Z</time>
      </trkpt>
      <trkpt lat="42.574118" lon="1.126739">
        <ele>1062.831</ele>
        <time>2021-06-18T16:02:39Z</time>
      </trkpt>
      <trkpt lat="42.574129" lon="1.126685">
        <ele>1063.230</ele>
        <time>2021-06-18T16:02:41Z</time>
      </trkpt>
      <trkpt lat="42.574170" lon="1.126591">
        <ele>1064.426</ele>
        <time>2021-06-18T16:02:45Z</time>
      </trkpt>
      <trkpt lat="42.574205" lon="1.126561">
        <ele>1065.240</ele>
        <time>2021-06-18T16:02:47Z</time>
      </trkpt>
      <trkpt lat="42.574267" lon="1.126538">
        <ele>1066.274</ele>
        <time>2021-06-18T16:02:50Z</time>
      </trkpt>
      <trkpt lat="42.574395" lon="1.126566">
        <ele>1066.864</ele>
        <time>2021-06-18T16:02:55Z</time>
      </trkpt>
      <trkpt lat="42.574414" lon="1.126585">
        <ele>1066.517</ele>
        <time>2021-06-18T16:02:56Z</time>
      </trkpt>
      <trkpt lat="42.574504" lon="1.126740">
        <ele>1068.484</ele>
        <time>2021-06-18T16:03:02Z</time>
      </trkpt>
      <trkpt lat="42.574525" lon="1.126807">
        <ele>1069.159</ele>
        <time>2021-06-18T16:03:04Z</time>
      </trkpt>
      <trkpt lat="42.574554" lon="1.126975">
        <ele>1069.203</ele>
        <time>2021-06-18T16:03:08Z</time>
      </trkpt>
      <trkpt lat="42.574594" lon="1.127225">
        <ele>1067.923</ele>
        <time>2021-06-18T16:03:14Z</time>
      </trkpt>
      <trkpt lat="42.574668" lon="1.127510">
        <ele>1065.908</ele>
        <time>2021-06-18T16:03:20Z</time>
      </trkpt>
      <trkpt lat="42.574682" lon="1.127562">
        <ele>1065.542</ele>
        <time>2021-06-18T16:03:21Z</time>
      </trkpt>
      <trkpt lat="42.574786" lon="1.127861">
        <ele>1065.171</ele>
        <time>2021-06-18T16:03:27Z</time>
      </trkpt>
      <trkpt lat="42.574806" lon="1.127909">
        <ele>1065.117</ele>
        <time>2021-06-18T16:03:28Z</time>
      </trkpt>
      <trkpt lat="42.574902" lon="1.128096">
        <ele>1064.711</ele>
        <time>2021-06-18T16:03:32Z</time>
      </trkpt>
      <trkpt lat="42.575016" lon="1.128275">
        <ele>1064.435</ele>
        <time>2021-06-18T16:03:36Z</time>
      </trkpt>
      <trkpt lat="42.575109" lon="1.128392">
        <ele>1064.865</ele>
        <time>2021-06-18T16:03:39Z</time>
      </trkpt>
      <trkpt lat="42.575383" lon="1.128707">
        <ele>1063.138</ele>
        <time>2021-06-18T16:03:47Z</time>
      </trkpt>
      <trkpt lat="42.575642" lon="1.129010">
        <ele>1064.465</ele>
        <time>2021-06-18T16:03:55Z</time>
      </trkpt>
      <trkpt lat="42.575867" lon="1.129265">
        <ele>1062.858</ele>
        <time>2021-06-18T16:04:02Z</time>
      </trkpt>
      <trkpt lat="42.576059" lon="1.129498">
        <ele>1061.252</ele>
        <time>2021-06-18T16:04:08Z</time>
      </trkpt>
      <trkpt lat="42.576298" lon="1.129858">
        <ele>1062.317</ele>
        <time>2021-06-18T16:04:16Z</time>
      </trkpt>
      <trkpt lat="42.576543" lon="1.130313">
        <ele>1063.208</ele>
        <time>2021-06-18T16:04:24Z</time>
      </trkpt>
      <trkpt lat="42.576729" lon="1.130781">
        <ele>1063.312</ele>
        <time>2021-06-18T16:04:31Z</time>
      </trkpt>
      <trkpt lat="42.576826" lon="1.131226">
        <ele>1063.381</ele>
        <time>2021-06-18T16:04:37Z</time>
      </trkpt>
      <trkpt lat="42.576972" lon="1.131964">
        <ele>1062.387</ele>
        <time>2021-06-18T16:04:47Z</time>
      </trkpt>
      <trkpt lat="42.577011" lon="1.132102">
        <ele>1062.021</ele>
        <time>2021-06-18T16:04:49Z</time>
      </trkpt>
      <trkpt lat="42.577120" lon="1.132353">
        <ele>1061.265</ele>
        <time>2021-06-18T16:04:53Z</time>
      </trkpt>
      <trkpt lat="42.577183" lon="1.132470">
        <ele>1061.695</ele>
        <time>2021-06-18T16:04:55Z</time>
      </trkpt>
      <trkpt lat="42.577375" lon="1.132771">
        <ele>1063.728</ele>
        <time>2021-06-18T16:05:01Z</time>
      </trkpt>
      <trkpt lat="42.577493" lon="1.132933">
        <ele>1064.895</ele>
        <time>2021-06-18T16:05:05Z</time>
      </trkpt>
      <trkpt lat="42.577600" lon="1.133076">
        <ele>1065.966</ele>
        <time>2021-06-18T16:05:09Z</time>
      </trkpt>
      <trkpt lat="42.577695" lon="1.133216">
        <ele>1067.029</ele>
        <time>2021-06-18T16:05:13Z</time>
      </trkpt>
      <trkpt lat="42.577780" lon="1.133359">
        <ele>1067.721</ele>
        <time>2021-06-18T16:05:17Z</time>
      </trkpt>
      <trkpt lat="42.577868" lon="1.133548">
        <ele>1068.308</ele>
        <time>2021-06-18T16:05:22Z</time>
      </trkpt>
      <trkpt lat="42.577904" lon="1.133676">
        <ele>1067.953</ele>
        <time>2021-06-18T16:05:25Z</time>
      </trkpt>
      <trkpt lat="42.577951" lon="1.133852">
        <ele>1068.232</ele>
        <time>2021-06-18T16:05:29Z</time>
      </trkpt>
      <trkpt lat="42.578007" lon="1.134119">
        <ele>1069.228</ele>
        <time>2021-06-18T16:05:35Z</time>
      </trkpt>
      <trkpt lat="42.578041" lon="1.134356">
        <ele>1069.172</ele>
        <time>2021-06-18T16:05:40Z</time>
      </trkpt>
      <trkpt lat="42.578062" lon="1.134499">
        <ele>1068.926</ele>
        <time>2021-06-18T16:05:43Z</time>
      </trkpt>
      <trkpt lat="42.578114" lon="1.134839">
        <ele>1067.426</ele>
        <time>2021-06-18T16:05:50Z</time>
      </trkpt>
      <trkpt lat="42.578150" lon="1.134926">
        <ele>1067.269</ele>
        <time>2021-06-18T16:05:52Z</time>
      </trkpt>
      <trkpt lat="42.578293" lon="1.135067">
        <ele>1067.626</ele>
        <time>2021-06-18T16:05:57Z</time>
      </trkpt>
      <trkpt lat="42.578329" lon="1.135073">
        <ele>1068.392</ele>
        <time>2021-06-18T16:05:58Z</time>
      </trkpt>
      <trkpt lat="42.578432" lon="1.135039">
        <ele>1070.273</ele>
        <time>2021-06-18T16:06:01Z</time>
      </trkpt>
      <trkpt lat="42.578520" lon="1.134886">
        <ele>1073.320</ele>
        <time>2021-06-18T16:06:05Z</time>
      </trkpt>
      <trkpt lat="42.578510" lon="1.134691">
        <ele>1075.108</ele>
        <time>2021-06-18T16:06:09Z</time>
      </trkpt>
      <trkpt lat="42.578400" lon="1.134438">
        <ele>1075.586</ele>
        <time>2021-06-18T16:06:15Z</time>
      </trkpt>
      <trkpt lat="42.578291" lon="1.134121">
        <ele>1076.875</ele>
        <time>2021-06-18T16:06:23Z</time>
      </trkpt>
      <trkpt lat="42.578210" lon="1.133839">
        <ele>1078.211</ele>
        <time>2021-06-18T16:06:32Z</time>
      </trkpt>
      <trkpt lat="42.578200" lon="1.133811">
        <ele>1078.225</ele>
        <time>2021-06-18T16:06:33Z</time>
      </trkpt>
      <trkpt lat="42.578148" lon="1.133636">
        <ele>1078.149</ele>
        <time>2021-06-18T16:06:39Z</time>
      </trkpt>
      <trkpt lat="42.578107" lon="1.133498">
        <ele>1078.849</ele>
        <time>2021-06-18T16:06:44Z</time>
      </trkpt>
      <trkpt lat="42.578097" lon="1.133472">
        <ele>1078.982</ele>
        <time>2021-06-18T16:06:45Z</time>
      </trkpt>
      <trkpt lat="42.578058" lon="1.133363">
        <ele>1079.599</ele>
        <time>2021-06-18T16:06:49Z</time>
      </trkpt>
      <trkpt lat="42.578006" lon="1.133233">
        <ele>1080.069</ele>
        <time>2021-06-18T16:06:54Z</time>
      </trkpt>
      <trkpt lat="42.577997" lon="1.133206">
        <ele>1080.204</ele>
        <time>2021-06-18T16:06:55Z</time>
      </trkpt>
      <trkpt lat="42.577929" lon="1.133056">
        <ele>1080.524</ele>
        <time>2021-06-18T16:07:01Z</time>
      </trkpt>
      <trkpt lat="42.577912" lon="1.133005">
        <ele>1081.408</ele>
        <time>2021-06-18T16:07:03Z</time>
      </trkpt>
      <trkpt lat="42.577843" lon="1.132818">
        <ele>1084.133</ele>
        <time>2021-06-18T16:07:11Z</time>
      </trkpt>
      <trkpt lat="42.577827" lon="1.132772">
        <ele>1084.652</ele>
        <time>2021-06-18T16:07:13Z</time>
      </trkpt>
      <trkpt lat="42.577790" lon="1.132634">
        <ele>1085.388</ele>
        <time>2021-06-18T16:07:19Z</time>
      </trkpt>
      <trkpt lat="42.577783" lon="1.132610">
        <ele>1085.352</ele>
        <time>2021-06-18T16:07:20Z</time>
      </trkpt>
      <trkpt lat="42.577760" lon="1.132474">
        <ele>1086.726</ele>
        <time>2021-06-18T16:07:26Z</time>
      </trkpt>
      <trkpt lat="42.577758" lon="1.132450">
        <ele>1087.146</ele>
        <time>2021-06-18T16:07:27Z</time>
      </trkpt>
      <trkpt lat="42.577725" lon="1.132332">
        <ele>1088.069</ele>
        <time>2021-06-18T16:07:32Z</time>
      </trkpt>
      <trkpt lat="42.577704" lon="1.132266">
        <ele>1088.576</ele>
        <time>2021-06-18T16:07:35Z</time>
      </trkpt>
      <trkpt lat="42.577674" lon="1.132175">
        <ele>1089.558</ele>
        <time>2021-06-18T16:07:39Z</time>
      </trkpt>
      <trkpt lat="42.577653" lon="1.132105">
        <ele>1090.552</ele>
        <time>2021-06-18T16:07:42Z</time>
      </trkpt>
      <trkpt lat="42.577635" lon="1.132063">
        <ele>1090.917</ele>
        <time>2021-06-18T16:07:44Z</time>
      </trkpt>
      <trkpt lat="42.577572" lon="1.131943">
        <ele>1091.108</ele>
        <time>2021-06-18T16:07:50Z</time>
      </trkpt>
      <trkpt lat="42.577550" lon="1.131900">
        <ele>1091.272</ele>
        <time>2021-06-18T16:07:52Z</time>
      </trkpt>
      <trkpt lat="42.577478" lon="1.131751">
        <ele>1091.481</ele>
        <time>2021-06-18T16:07:59Z</time>
      </trkpt>
      <trkpt lat="42.577405" lon="1.131612">
        <ele>1092.097</ele>
        <time>2021-06-18T16:08:06Z</time>
      </trkpt>
      <trkpt lat="42.577399" lon="1.131591">
        <ele>1092.331</ele>
        <time>2021-06-18T16:08:07Z</time>
      </trkpt>
      <trkpt lat="42.577343" lon="1.131461">
        <ele>1093.465</ele>
        <time>2021-06-18T16:08:13Z</time>
      </trkpt>
      <trkpt lat="42.577311" lon="1.131345">
        <ele>1094.755</ele>
        <time>2021-06-18T16:08:18Z</time>
      </trkpt>
      <trkpt lat="42.577291" lon="1.131248">
        <ele>1095.528</ele>
        <time>2021-06-18T16:08:22Z</time>
      </trkpt>
      <trkpt lat="42.577276" lon="1.131177">
        <ele>1096.075</ele>
        <time>2021-06-18T16:08:25Z</time>
      </trkpt>
      <trkpt lat="42.577256" lon="1.131056">
        <ele>1096.935</ele>
        <time>2021-06-18T16:08:30Z</time>
      </trkpt>
      <trkpt lat="42.577241" lon="1.130984">
        <ele>1097.486</ele>
        <time>2021-06-18T16:08:33Z</time>
      </trkpt>
      <trkpt lat="42.577217" lon="1.130886">
        <ele>1097.614</ele>
        <time>2021-06-18T16:08:37Z</time>
      </trkpt>
      <trkpt lat="42.577194" lon="1.130760">
        <ele>1098.108</ele>
        <time>2021-06-18T16:08:42Z</time>
      </trkpt>
      <trkpt lat="42.577180" lon="1.130688">
        <ele>1098.450</ele>
        <time>2021-06-18T16:08:45Z</time>
      </trkpt>
      <trkpt lat="42.577151" lon="1.130539">
        <ele>1099.239</ele>
        <time>2021-06-18T16:08:51Z</time>
      </trkpt>
      <trkpt lat="42.577146" lon="1.130514">
        <ele>1099.455</ele>
        <time>2021-06-18T16:08:52Z</time>
      </trkpt>
      <trkpt lat="42.577098" lon="1.130297">
        <ele>1101.459</ele>
        <time>2021-06-18T16:09:01Z</time>
      </trkpt>
      <trkpt lat="42.577042" lon="1.130078">
        <ele>1102.523</ele>
        <time>2021-06-18T16:09:10Z</time>
      </trkpt>
      <trkpt lat="42.577030" lon="1.130029">
        <ele>1102.713</ele>
        <time>2021-06-18T16:09:12Z</time>
      </trkpt>
      <trkpt lat="42.576999" lon="1.129938">
        <ele>1102.786</ele>
        <time>2021-06-18T16:09:16Z</time>
      </trkpt>
      <trkpt lat="42.576970" lon="1.129848">
        <ele>1102.943</ele>
        <time>2021-06-18T16:09:20Z</time>
      </trkpt>
      <trkpt lat="42.576949" lon="1.129781">
        <ele>1103.056</ele>
        <time>2021-06-18T16:09:23Z</time>
      </trkpt>
      <trkpt lat="42.576942" lon="1.129759">
        <ele>1103.159</ele>
        <time>2021-06-18T16:09:24Z</time>
      </trkpt>
      <trkpt lat="42.576918" lon="1.129666">
        <ele>1104.314</ele>
        <time>2021-06-18T16:09:28Z</time>
      </trkpt>
      <trkpt lat="42.576878" lon="1.129526">
        <ele>1106.108</ele>
        <time>2021-06-18T16:09:34Z</time>
      </trkpt>
      <trkpt lat="42.576854" lon="1.129458">
        <ele>1106.892</ele>
        <time>2021-06-18T16:09:37Z</time>
      </trkpt>
      <trkpt lat="42.576794" lon="1.129252">
        <ele>1108.221</ele>
        <time>2021-06-18T16:09:46Z</time>
      </trkpt>
      <trkpt lat="42.576745" lon="1.129121">
        <ele>1108.237</ele>
        <time>2021-06-18T16:09:52Z</time>
      </trkpt>
      <trkpt lat="42.576728" lon="1.129050">
        <ele>1108.761</ele>
        <time>2021-06-18T16:09:55Z</time>
      </trkpt>
      <trkpt lat="42.576676" lon="1.128861">
        <ele>1110.165</ele>
        <time>2021-06-18T16:10:03Z</time>
      </trkpt>
      <trkpt lat="42.576671" lon="1.128839">
        <ele>1110.375</ele>
        <time>2021-06-18T16:10:04Z</time>
      </trkpt>
      <trkpt lat="42.576637" lon="1.128725">
        <ele>1111.748</ele>
        <time>2021-06-18T16:10:09Z</time>
      </trkpt>
      <trkpt lat="42.576614" lon="1.128660">
        <ele>1112.465</ele>
        <time>2021-06-18T16:10:12Z</time>
      </trkpt>
      <trkpt lat="42.576588" lon="1.128569">
        <ele>1113.784</ele>
        <time>2021-06-18T16:10:16Z</time>
      </trkpt>
      <trkpt lat="42.576548" lon="1.128430">
        <ele>1115.307</ele>
        <time>2021-06-18T16:10:22Z</time>
      </trkpt>
      <trkpt lat="42.576522" lon="1.128337">
        <ele>1116.217</ele>
        <time>2021-06-18T16:10:26Z</time>
      </trkpt>
      <trkpt lat="42.576494" lon="1.128229">
        <ele>1117.108</ele>
        <time>2021-06-18T16:10:31Z</time>
      </trkpt>
      <trkpt lat="42.576450" lon="1.128095">
        <ele>1117.435</ele>
        <time>2021-06-18T16:10:37Z</time>
      </trkpt>
      <trkpt lat="42.576442" lon="1.128048">
        <ele>1117.874</ele>
        <time>2021-06-18T16:10:39Z</time>
      </trkpt>
      <trkpt lat="42.576410" lon="1.127933">
        <ele>1117.910</ele>
        <time>2021-06-18T16:10:44Z</time>
      </trkpt>
      <trkpt lat="42.576371" lon="1.127796">
        <ele>1118.264</ele>
        <time>2021-06-18T16:10:50Z</time>
      </trkpt>
      <trkpt lat="42.576329" lon="1.127657">
        <ele>1119.638</ele>
        <time>2021-06-18T16:10:56Z</time>
      </trkpt>
      <trkpt lat="42.576314" lon="1.127612">
        <ele>1119.948</ele>
        <time>2021-06-18T16:10:58Z</time>
      </trkpt>
      <trkpt lat="42.576259" lon="1.127456">
        <ele>1120.871</ele>
        <time>2021-06-18T16:11:05Z</time>
      </trkpt>
      <trkpt lat="42.576228" lon="1.127393">
        <ele>1121.068</ele>
        <time>2021-06-18T16:11:08Z</time>
      </trkpt>
      <trkpt lat="42.576217" lon="1.127372">
        <ele>1121.129</ele>
        <time>2021-06-18T16:11:09Z</time>
      </trkpt>
      <trkpt lat="42.576167" lon="1.127266">
        <ele>1121.800</ele>
        <time>2021-06-18T16:11:14Z</time>
      </trkpt>
      <trkpt lat="42.576134" lon="1.127203">
        <ele>1122.320</ele>
        <time>2021-06-18T16:11:17Z</time>
      </trkpt>
      <trkpt lat="42.576081" lon="1.127132">
        <ele>1123.208</ele>
        <time>2021-06-18T16:11:21Z</time>
      </trkpt>
      <trkpt lat="42.576009" lon="1.127052">
        <ele>1124.459</ele>
        <time>2021-06-18T16:11:26Z</time>
      </trkpt>
      <trkpt lat="42.575993" lon="1.127037">
        <ele>1124.688</ele>
        <time>2021-06-18T16:11:27Z</time>
      </trkpt>
      <trkpt lat="42.575901" lon="1.126953">
        <ele>1125.774</ele>
        <time>2021-06-18T16:11:33Z</time>
      </trkpt>
      <trkpt lat="42.575870" lon="1.126923">
        <ele>1126.268</ele>
        <time>2021-06-18T16:11:35Z</time>
      </trkpt>
      <trkpt lat="42.575793" lon="1.126862">
        <ele>1126.722</ele>
        <time>2021-06-18T16:11:40Z</time>
      </trkpt>
      <trkpt lat="42.575767" lon="1.126827">
        <ele>1127.132</ele>
        <time>2021-06-18T16:11:42Z</time>
      </trkpt>
      <trkpt lat="42.575702" lon="1.126741">
        <ele>1127.725</ele>
        <time>2021-06-18T16:11:47Z</time>
      </trkpt>
      <trkpt lat="42.575669" lon="1.126680">
        <ele>1128.332</ele>
        <time>2021-06-18T16:11:50Z</time>
      </trkpt>
      <trkpt lat="42.575616" lon="1.126583">
        <ele>1129.121</ele>
        <time>2021-06-18T16:11:55Z</time>
      </trkpt>
      <trkpt lat="42.575572" lon="1.126504">
        <ele>1129.241</ele>
        <time>2021-06-18T16:11:59Z</time>
      </trkpt>
      <trkpt lat="42.575526" lon="1.126345">
        <ele>1131.105</ele>
        <time>2021-06-18T16:12:06Z</time>
      </trkpt>
      <trkpt lat="42.575518" lon="1.126324">
        <ele>1131.308</ele>
        <time>2021-06-18T16:12:07Z</time>
      </trkpt>
      <trkpt lat="42.575486" lon="1.126236">
        <ele>1132.489</ele>
        <time>2021-06-18T16:12:11Z</time>
      </trkpt>
      <trkpt lat="42.575443" lon="1.126104">
        <ele>1133.918</ele>
        <time>2021-06-18T16:12:17Z</time>
      </trkpt>
      <trkpt lat="42.575389" lon="1.125979">
        <ele>1134.484</ele>
        <time>2021-06-18T16:12:23Z</time>
      </trkpt>
      <trkpt lat="42.575383" lon="1.125956">
        <ele>1134.748</ele>
        <time>2021-06-18T16:12:24Z</time>
      </trkpt>
      <trkpt lat="42.575336" lon="1.125824">
        <ele>1135.462</ele>
        <time>2021-06-18T16:12:30Z</time>
      </trkpt>
      <trkpt lat="42.575329" lon="1.125801">
        <ele>1135.842</ele>
        <time>2021-06-18T16:12:31Z</time>
      </trkpt>
      <trkpt lat="42.575286" lon="1.125692">
        <ele>1136.675</ele>
        <time>2021-06-18T16:12:36Z</time>
      </trkpt>
      <trkpt lat="42.575269" lon="1.125649">
        <ele>1136.952</ele>
        <time>2021-06-18T16:12:38Z</time>
      </trkpt>
      <trkpt lat="42.575239" lon="1.125536">
        <ele>1138.918</ele>
        <time>2021-06-18T16:12:43Z</time>
      </trkpt>
      <trkpt lat="42.575207" lon="1.125480">
        <ele>1139.398</ele>
        <time>2021-06-18T16:12:46Z</time>
      </trkpt>
      <trkpt lat="42.575185" lon="1.125391">
        <ele>1140.917</ele>
        <time>2021-06-18T16:12:50Z</time>
      </trkpt>
      <trkpt lat="42.575174" lon="1.125346">
        <ele>1141.708</ele>
        <time>2021-06-18T16:12:52Z</time>
      </trkpt>
      <trkpt lat="42.575145" lon="1.125261">
        <ele>1142.878</ele>
        <time>2021-06-18T16:12:56Z</time>
      </trkpt>
      <trkpt lat="42.575095" lon="1.125137">
        <ele>1143.467</ele>
        <time>2021-06-18T16:13:02Z</time>
      </trkpt>
      <trkpt lat="42.575048" lon="1.125008">
        <ele>1143.333</ele>
        <time>2021-06-18T16:13:08Z</time>
      </trkpt>
      <trkpt lat="42.575038" lon="1.124961">
        <ele>1144.077</ele>
        <time>2021-06-18T16:13:10Z</time>
      </trkpt>
      <trkpt lat="42.574992" lon="1.124854">
        <ele>1144.411</ele>
        <time>2021-06-18T16:13:15Z</time>
      </trkpt>
      <trkpt lat="42.574977" lon="1.124789">
        <ele>1145.891</ele>
        <time>2021-06-18T16:13:18Z</time>
      </trkpt>
      <trkpt lat="42.574949" lon="1.124725">
        <ele>1146.594</ele>
        <time>2021-06-18T16:13:21Z</time>
      </trkpt>
      <trkpt lat="42.574918" lon="1.124639">
        <ele>1147.871</ele>
        <time>2021-06-18T16:13:25Z</time>
      </trkpt>
      <trkpt lat="42.574870" lon="1.124507">
        <ele>1149.217</ele>
        <time>2021-06-18T16:13:31Z</time>
      </trkpt>
      <trkpt lat="42.574860" lon="1.124489">
        <ele>1149.287</ele>
        <time>2021-06-18T16:13:32Z</time>
      </trkpt>
      <trkpt lat="42.574838" lon="1.124445">
        <ele>1149.115</ele>
        <time>2021-06-18T16:13:34Z</time>
      </trkpt>
      <trkpt lat="42.574830" lon="1.124398">
        <ele>1149.608</ele>
        <time>2021-06-18T16:13:36Z</time>
      </trkpt>
      <trkpt lat="42.574824" lon="1.124374">
        <ele>1149.718</ele>
        <time>2021-06-18T16:13:37Z</time>
      </trkpt>
      <trkpt lat="42.574778" lon="1.124226">
        <ele>1149.797</ele>
        <time>2021-06-18T16:13:44Z</time>
      </trkpt>
      <trkpt lat="42.574747" lon="1.124142">
        <ele>1149.543</ele>
        <time>2021-06-18T16:13:48Z</time>
      </trkpt>
      <trkpt lat="42.574728" lon="1.124078">
        <ele>1150.367</ele>
        <time>2021-06-18T16:13:51Z</time>
      </trkpt>
      <trkpt lat="42.574669" lon="1.123930">
        <ele>1152.451</ele>
        <time>2021-06-18T16:13:58Z</time>
      </trkpt>
      <trkpt lat="42.574652" lon="1.123888">
        <ele>1153.051</ele>
        <time>2021-06-18T16:14:00Z</time>
      </trkpt>
      <trkpt lat="42.574615" lon="1.123777">
        <ele>1155.084</ele>
        <time>2021-06-18T16:14:05Z</time>
      </trkpt>
      <trkpt lat="42.574589" lon="1.123689">
        <ele>1156.481</ele>
        <time>2021-06-18T16:14:09Z</time>
      </trkpt>
      <trkpt lat="42.574560" lon="1.123596">
        <ele>1157.524</ele>
        <time>2021-06-18T16:14:13Z</time>
      </trkpt>
      <trkpt lat="42.574525" lon="1.123485">
        <ele>1157.904</ele>
        <time>2021-06-18T16:14:18Z</time>
      </trkpt>
      <trkpt lat="42.574507" lon="1.123443">
        <ele>1157.514</ele>
        <time>2021-06-18T16:14:20Z</time>
      </trkpt>
      <trkpt lat="42.574475" lon="1.123332">
        <ele>1157.508</ele>
        <time>2021-06-18T16:14:25Z</time>
      </trkpt>
      <trkpt lat="42.574445" lon="1.123219">
        <ele>1157.929</ele>
        <time>2021-06-18T16:14:30Z</time>
      </trkpt>
      <trkpt lat="42.574418" lon="1.123129">
        <ele>1158.478</ele>
        <time>2021-06-18T16:14:34Z</time>
      </trkpt>
      <trkpt lat="42.574384" lon="1.123044">
        <ele>1158.434</ele>
        <time>2021-06-18T16:14:38Z</time>
      </trkpt>
      <trkpt lat="42.574368" lon="1.123001">
        <ele>1158.668</ele>
        <time>2021-06-18T16:14:40Z</time>
      </trkpt>
      <trkpt lat="42.574325" lon="1.122872">
        <ele>1159.542</ele>
        <time>2021-06-18T16:14:46Z</time>
      </trkpt>
      <trkpt lat="42.574319" lon="1.122850">
        <ele>1159.882</ele>
        <time>2021-06-18T16:14:47Z</time>
      </trkpt>
      <trkpt lat="42.574267" lon="1.122664">
        <ele>1161.135</ele>
        <time>2021-06-18T16:14:56Z</time>
      </trkpt>
      <trkpt lat="42.574237" lon="1.122574">
        <ele>1161.352</ele>
        <time>2021-06-18T16:15:00Z</time>
      </trkpt>
      <trkpt lat="42.574207" lon="1.122460">
        <ele>1162.245</ele>
        <time>2021-06-18T16:15:05Z</time>
      </trkpt>
      <trkpt lat="42.574163" lon="1.122301">
        <ele>1163.147</ele>
        <time>2021-06-18T16:15:12Z</time>
      </trkpt>
      <trkpt lat="42.574149" lon="1.122232">
        <ele>1163.611</ele>
        <time>2021-06-18T16:15:15Z</time>
      </trkpt>
      <trkpt lat="42.574134" lon="1.122137">
        <ele>1164.908</ele>
        <time>2021-06-18T16:15:19Z</time>
      </trkpt>
      <trkpt lat="42.574121" lon="1.122067">
        <ele>1165.751</ele>
        <time>2021-06-18T16:15:22Z</time>
      </trkpt>
      <trkpt lat="42.574115" lon="1.122021">
        <ele>1166.420</ele>
        <time>2021-06-18T16:15:24Z</time>
      </trkpt>
      <trkpt lat="42.574097" lon="1.121864">
        <ele>1169.286</ele>
        <time>2021-06-18T16:15:31Z</time>
      </trkpt>
      <trkpt lat="42.574091" lon="1.121822">
        <ele>1170.030</ele>
        <time>2021-06-18T16:15:33Z</time>
      </trkpt>
      <trkpt lat="42.574071" lon="1.121664">
        <ele>1172.964</ele>
        <time>2021-06-18T16:15:40Z</time>
      </trkpt>
      <trkpt lat="42.574050" lon="1.121569">
        <ele>1174.624</ele>
        <time>2021-06-18T16:15:44Z</time>
      </trkpt>
      <trkpt lat="42.574042" lon="1.121547">
        <ele>1174.777</ele>
        <time>2021-06-18T16:15:45Z</time>
      </trkpt>
      <trkpt lat="42.574032" lon="1.121525">
        <ele>1174.734</ele>
        <time>2021-06-18T16:15:46Z</time>
      </trkpt>
      <trkpt lat="42.573991" lon="1.121415">
        <ele>1175.052</ele>
        <time>2021-06-18T16:15:51Z</time>
      </trkpt>
      <trkpt lat="42.573978" lon="1.121394">
        <ele>1174.553</ele>
        <time>2021-06-18T16:15:52Z</time>
      </trkpt>
      <trkpt lat="42.573924" lon="1.121293">
        <ele>1174.808</ele>
        <time>2021-06-18T16:15:57Z</time>
      </trkpt>
      <trkpt lat="42.573866" lon="1.121197">
        <ele>1175.408</ele>
        <time>2021-06-18T16:16:02Z</time>
      </trkpt>
      <trkpt lat="42.573842" lon="1.121163">
        <ele>1175.782</ele>
        <time>2021-06-18T16:16:04Z</time>
      </trkpt>
      <trkpt lat="42.573791" lon="1.121092">
        <ele>1176.411</ele>
        <time>2021-06-18T16:16:08Z</time>
      </trkpt>
      <trkpt lat="42.573727" lon="1.121004">
        <ele>1177.197</ele>
        <time>2021-06-18T16:16:13Z</time>
      </trkpt>
      <trkpt lat="42.573702" lon="1.120968">
        <ele>1177.391</ele>
        <time>2021-06-18T16:16:15Z</time>
      </trkpt>
      <trkpt lat="42.573638" lon="1.120901">
        <ele>1176.075</ele>
        <time>2021-06-18T16:16:19Z</time>
      </trkpt>
      <trkpt lat="42.573624" lon="1.120882">
        <ele>1175.845</ele>
        <time>2021-06-18T16:16:20Z</time>
      </trkpt>
      <trkpt lat="42.573555" lon="1.120794">
        <ele>1176.688</ele>
        <time>2021-06-18T16:16:25Z</time>
      </trkpt>
      <trkpt lat="42.573544" lon="1.120775">
        <ele>1177.145</ele>
        <time>2021-06-18T16:16:26Z</time>
      </trkpt>
      <trkpt lat="42.573469" lon="1.120664">
        <ele>1178.759</ele>
        <time>2021-06-18T16:16:32Z</time>
      </trkpt>
      <trkpt lat="42.573445" lon="1.120628">
        <ele>1179.003</ele>
        <time>2021-06-18T16:16:34Z</time>
      </trkpt>
      <trkpt lat="42.573387" lon="1.120565">
        <ele>1178.523</ele>
        <time>2021-06-18T16:16:38Z</time>
      </trkpt>
      <trkpt lat="42.573337" lon="1.120497">
        <ele>1178.508</ele>
        <time>2021-06-18T16:16:42Z</time>
      </trkpt>
      <trkpt lat="42.573285" lon="1.120434">
        <ele>1179.572</ele>
        <time>2021-06-18T16:16:46Z</time>
      </trkpt>
      <trkpt lat="42.573251" lon="1.120382">
        <ele>1180.621</ele>
        <time>2021-06-18T16:16:49Z</time>
      </trkpt>
      <trkpt lat="42.573196" lon="1.120303">
        <ele>1182.127</ele>
        <time>2021-06-18T16:16:53Z</time>
      </trkpt>
      <trkpt lat="42.573165" lon="1.120268">
        <ele>1182.561</ele>
        <time>2021-06-18T16:16:55Z</time>
      </trkpt>
      <trkpt lat="42.573116" lon="1.120205">
        <ele>1183.155</ele>
        <time>2021-06-18T16:16:59Z</time>
      </trkpt>
      <trkpt lat="42.573076" lon="1.120154">
        <ele>1183.315</ele>
        <time>2021-06-18T16:17:02Z</time>
      </trkpt>
      <trkpt lat="42.573034" lon="1.120101">
        <ele>1183.878</ele>
        <time>2021-06-18T16:17:05Z</time>
      </trkpt>
      <trkpt lat="42.572923" lon="1.119956">
        <ele>1186.675</ele>
        <time>2021-06-18T16:17:13Z</time>
      </trkpt>
      <trkpt lat="42.572849" lon="1.119844">
        <ele>1187.948</ele>
        <time>2021-06-18T16:17:19Z</time>
      </trkpt>
      <trkpt lat="42.572806" lon="1.119775">
        <ele>1187.661</ele>
        <time>2021-06-18T16:17:23Z</time>
      </trkpt>
      <trkpt lat="42.572767" lon="1.119719">
        <ele>1186.917</ele>
        <time>2021-06-18T16:17:26Z</time>
      </trkpt>
      <trkpt lat="42.572704" lon="1.119599">
        <ele>1188.908</ele>
        <time>2021-06-18T16:17:32Z</time>
      </trkpt>
      <trkpt lat="42.572692" lon="1.119580">
        <ele>1189.021</ele>
        <time>2021-06-18T16:17:33Z</time>
      </trkpt>
      <trkpt lat="42.572637" lon="1.119451">
        <ele>1189.880</ele>
        <time>2021-06-18T16:17:39Z</time>
      </trkpt>
      <trkpt lat="42.572625" lon="1.119409">
        <ele>1189.986</ele>
        <time>2021-06-18T16:17:41Z</time>
      </trkpt>
      <trkpt lat="42.572588" lon="1.119309">
        <ele>1189.950</ele>
        <time>2021-06-18T16:17:46Z</time>
      </trkpt>
      <trkpt lat="42.572573" lon="1.119267">
        <ele>1189.924</ele>
        <time>2021-06-18T16:17:48Z</time>
      </trkpt>
      <trkpt lat="42.572519" lon="1.119123">
        <ele>1189.974</ele>
        <time>2021-06-18T16:17:55Z</time>
      </trkpt>
      <trkpt lat="42.572510" lon="1.119100">
        <ele>1190.017</ele>
        <time>2021-06-18T16:17:56Z</time>
      </trkpt>
      <trkpt lat="42.572468" lon="1.118988">
        <ele>1190.914</ele>
        <time>2021-06-18T16:18:01Z</time>
      </trkpt>
      <trkpt lat="42.572429" lon="1.118876">
        <ele>1192.213</ele>
        <time>2021-06-18T16:18:06Z</time>
      </trkpt>
      <trkpt lat="42.572401" lon="1.118812">
        <ele>1192.743</ele>
        <time>2021-06-18T16:18:09Z</time>
      </trkpt>
      <trkpt lat="42.572344" lon="1.118684">
        <ele>1194.007</ele>
        <time>2021-06-18T16:18:15Z</time>
      </trkpt>
      <trkpt lat="42.572331" lon="1.118668">
        <ele>1194.108</ele>
        <time>2021-06-18T16:18:16Z</time>
      </trkpt>
      <trkpt lat="42.572256" lon="1.118587">
        <ele>1194.068</ele>
        <time>2021-06-18T16:18:21Z</time>
      </trkpt>
      <trkpt lat="42.572225" lon="1.118556">
        <ele>1193.797</ele>
        <time>2021-06-18T16:18:23Z</time>
      </trkpt>
      <trkpt lat="42.572137" lon="1.118499">
        <ele>1194.963</ele>
        <time>2021-06-18T16:18:28Z</time>
      </trkpt>
      <trkpt lat="42.572044" lon="1.118461">
        <ele>1196.347</ele>
        <time>2021-06-18T16:18:33Z</time>
      </trkpt>
      <trkpt lat="42.572028" lon="1.118451">
        <ele>1196.651</ele>
        <time>2021-06-18T16:18:34Z</time>
      </trkpt>
      <trkpt lat="42.571991" lon="1.118434">
        <ele>1197.361</ele>
        <time>2021-06-18T16:18:38Z</time>
      </trkpt>
      <trkpt lat="42.571897" lon="1.118471">
        <ele>1198.744</ele>
        <time>2021-06-18T16:23:00Z</time>
      </trkpt>
      <trkpt lat="42.571779" lon="1.118562">
        <ele>1199.881</ele>
        <time>2021-06-18T16:23:07Z</time>
      </trkpt>
      <trkpt lat="42.571691" lon="1.118629">
        <ele>1199.956</ele>
        <time>2021-06-18T16:23:12Z</time>
      </trkpt>
      <trkpt lat="42.571641" lon="1.118669">
        <ele>1200.759</ele>
        <time>2021-06-18T16:23:15Z</time>
      </trkpt>
      <trkpt lat="42.571571" lon="1.118725">
        <ele>1202.114</ele>
        <time>2021-06-18T16:23:19Z</time>
      </trkpt>
      <trkpt lat="42.571464" lon="1.118793">
        <ele>1203.808</ele>
        <time>2021-06-18T16:23:25Z</time>
      </trkpt>
      <trkpt lat="42.571426" lon="1.118808">
        <ele>1204.532</ele>
        <time>2021-06-18T16:23:27Z</time>
      </trkpt>
      <trkpt lat="42.571323" lon="1.118839">
        <ele>1204.551</ele>
        <time>2021-06-18T16:23:32Z</time>
      </trkpt>
      <trkpt lat="42.571244" lon="1.118837">
        <ele>1204.967</ele>
        <time>2021-06-18T16:23:36Z</time>
      </trkpt>
      <trkpt lat="42.571174" lon="1.118813">
        <ele>1206.111</ele>
        <time>2021-06-18T16:23:40Z</time>
      </trkpt>
      <trkpt lat="42.571157" lon="1.118802">
        <ele>1206.615</ele>
        <time>2021-06-18T16:23:41Z</time>
      </trkpt>
      <trkpt lat="42.571081" lon="1.118738">
        <ele>1208.355</ele>
        <time>2021-06-18T16:23:46Z</time>
      </trkpt>
      <trkpt lat="42.571035" lon="1.118691">
        <ele>1208.378</ele>
        <time>2021-06-18T16:23:49Z</time>
      </trkpt>
      <trkpt lat="42.570998" lon="1.118637">
        <ele>1209.025</ele>
        <time>2021-06-18T16:23:52Z</time>
      </trkpt>
      <trkpt lat="42.570951" lon="1.118561">
        <ele>1210.027</ele>
        <time>2021-06-18T16:23:56Z</time>
      </trkpt>
      <trkpt lat="42.570915" lon="1.118508">
        <ele>1210.568</ele>
        <time>2021-06-18T16:23:59Z</time>
      </trkpt>
      <trkpt lat="42.570863" lon="1.118402">
        <ele>1212.014</ele>
        <time>2021-06-18T16:24:04Z</time>
      </trkpt>
      <trkpt lat="42.570843" lon="1.118362">
        <ele>1212.408</ele>
        <time>2021-06-18T16:24:06Z</time>
      </trkpt>
      <trkpt lat="42.570751" lon="1.118208">
        <ele>1214.669</ele>
        <time>2021-06-18T16:24:14Z</time>
      </trkpt>
      <trkpt lat="42.570729" lon="1.118166">
        <ele>1215.398</ele>
        <time>2021-06-18T16:24:16Z</time>
      </trkpt>
      <trkpt lat="42.570660" lon="1.118052">
        <ele>1216.194</ele>
        <time>2021-06-18T16:24:22Z</time>
      </trkpt>
      <trkpt lat="42.570573" lon="1.117893">
        <ele>1217.378</ele>
        <time>2021-06-18T16:24:30Z</time>
      </trkpt>
      <trkpt lat="42.570563" lon="1.117873">
        <ele>1217.672</ele>
        <time>2021-06-18T16:24:31Z</time>
      </trkpt>
      <trkpt lat="42.570498" lon="1.117760">
        <ele>1218.562</ele>
        <time>2021-06-18T16:24:37Z</time>
      </trkpt>
      <trkpt lat="42.570490" lon="1.117739">
        <ele>1218.685</ele>
        <time>2021-06-18T16:24:38Z</time>
      </trkpt>
      <trkpt lat="42.570451" lon="1.117628">
        <ele>1218.912</ele>
        <time>2021-06-18T16:24:43Z</time>
      </trkpt>
      <trkpt lat="42.570423" lon="1.117513">
        <ele>1219.627</ele>
        <time>2021-06-18T16:24:48Z</time>
      </trkpt>
      <trkpt lat="42.570421" lon="1.117489">
        <ele>1220.068</ele>
        <time>2021-06-18T16:24:49Z</time>
      </trkpt>
      <trkpt lat="42.570390" lon="1.117330">
        <ele>1220.714</ele>
        <time>2021-06-18T16:24:56Z</time>
      </trkpt>
      <trkpt lat="42.570374" lon="1.117187">
        <ele>1222.108</ele>
        <time>2021-06-18T16:25:02Z</time>
      </trkpt>
      <trkpt lat="42.570356" lon="1.117090">
        <ele>1222.939</ele>
        <time>2021-06-18T16:25:06Z</time>
      </trkpt>
      <trkpt lat="42.570342" lon="1.117017">
        <ele>1223.598</ele>
        <time>2021-06-18T16:25:09Z</time>
      </trkpt>
      <trkpt lat="42.570303" lon="1.116826">
        <ele>1224.644</ele>
        <time>2021-06-18T16:25:17Z</time>
      </trkpt>
      <trkpt lat="42.570263" lon="1.116665">
        <ele>1225.418</ele>
        <time>2021-06-18T16:25:24Z</time>
      </trkpt>
      <trkpt lat="42.570240" lon="1.116600">
        <ele>1226.782</ele>
        <time>2021-06-18T16:25:27Z</time>
      </trkpt>
      <trkpt lat="42.570194" lon="1.116492">
        <ele>1228.362</ele>
        <time>2021-06-18T16:25:32Z</time>
      </trkpt>
      <trkpt lat="42.570133" lon="1.116396">
        <ele>1228.555</ele>
        <time>2021-06-18T16:25:37Z</time>
      </trkpt>
      <trkpt lat="42.570093" lon="1.116342">
        <ele>1228.782</ele>
        <time>2021-06-18T16:25:40Z</time>
      </trkpt>
      <trkpt lat="42.570015" lon="1.116232">
        <ele>1229.165</ele>
        <time>2021-06-18T16:25:46Z</time>
      </trkpt>
      <trkpt lat="42.569901" lon="1.116101">
        <ele>1229.968</ele>
        <time>2021-06-18T16:25:54Z</time>
      </trkpt>
      <trkpt lat="42.569871" lon="1.116068">
        <ele>1230.014</ele>
        <time>2021-06-18T16:25:56Z</time>
      </trkpt>
      <trkpt lat="42.569816" lon="1.115996">
        <ele>1230.108</ele>
        <time>2021-06-18T16:26:00Z</time>
      </trkpt>
      <trkpt lat="42.569760" lon="1.115893">
        <ele>1230.013</ele>
        <time>2021-06-18T16:26:05Z</time>
      </trkpt>
      <trkpt lat="42.569741" lon="1.115851">
        <ele>1229.982</ele>
        <time>2021-06-18T16:26:07Z</time>
      </trkpt>
      <trkpt lat="42.569695" lon="1.115688">
        <ele>1230.858</ele>
        <time>2021-06-18T16:26:14Z</time>
      </trkpt>
      <trkpt lat="42.569691" lon="1.115664">
        <ele>1231.132</ele>
        <time>2021-06-18T16:26:15Z</time>
      </trkpt>
      <trkpt lat="42.569665" lon="1.115458">
        <ele>1232.736</ele>
        <time>2021-06-18T16:26:23Z</time>
      </trkpt>
      <trkpt lat="42.569649" lon="1.115201">
        <ele>1233.556</ele>
        <time>2021-06-18T16:26:32Z</time>
      </trkpt>
      <trkpt lat="42.569646" lon="1.115171">
        <ele>1233.479</ele>
        <time>2021-06-18T16:26:33Z</time>
      </trkpt>
      <trkpt lat="42.569654" lon="1.114979">
        <ele>1234.166</ele>
        <time>2021-06-18T16:26:39Z</time>
      </trkpt>
      <trkpt lat="42.569660" lon="1.114914">
        <ele>1234.484</ele>
        <time>2021-06-18T16:26:41Z</time>
      </trkpt>
      <trkpt lat="42.569674" lon="1.114732">
        <ele>1235.107</ele>
        <time>2021-06-18T16:26:47Z</time>
      </trkpt>
      <trkpt lat="42.569682" lon="1.114609">
        <ele>1235.917</ele>
        <time>2021-06-18T16:26:51Z</time>
      </trkpt>
      <trkpt lat="42.569690" lon="1.114456">
        <ele>1236.908</ele>
        <time>2021-06-18T16:26:56Z</time>
      </trkpt>
      <trkpt lat="42.569693" lon="1.114329">
        <ele>1237.535</ele>
        <time>2021-06-18T16:27:00Z</time>
      </trkpt>
      <trkpt lat="42.569687" lon="1.114205">
        <ele>1237.814</ele>
        <time>2021-06-18T16:27:04Z</time>
      </trkpt>
      <trkpt lat="42.569675" lon="1.114081">
        <ele>1238.610</ele>
        <time>2021-06-18T16:27:08Z</time>
      </trkpt>
      <trkpt lat="42.569650" lon="1.113928">
        <ele>1239.584</ele>
        <time>2021-06-18T16:27:13Z</time>
      </trkpt>
      <trkpt lat="42.569635" lon="1.113836">
        <ele>1240.388</ele>
        <time>2021-06-18T16:27:16Z</time>
      </trkpt>
      <trkpt lat="42.569570" lon="1.113606">
        <ele>1241.138</ele>
        <time>2021-06-18T16:27:24Z</time>
      </trkpt>
      <trkpt lat="42.569561" lon="1.113579">
        <ele>1241.291</ele>
        <time>2021-06-18T16:27:25Z</time>
      </trkpt>
      <trkpt lat="42.569509" lon="1.113445">
        <ele>1241.718</ele>
        <time>2021-06-18T16:27:30Z</time>
      </trkpt>
      <trkpt lat="42.569438" lon="1.113291">
        <ele>1242.087</ele>
        <time>2021-06-18T16:27:36Z</time>
      </trkpt>
      <trkpt lat="42.569296" lon="1.113066">
        <ele>1243.942</ele>
        <time>2021-06-18T16:27:46Z</time>
      </trkpt>
      <trkpt lat="42.569193" lon="1.112904">
        <ele>1244.326</ele>
        <time>2021-06-18T16:27:53Z</time>
      </trkpt>
      <trkpt lat="42.569178" lon="1.112879">
        <ele>1244.308</ele>
        <time>2021-06-18T16:27:54Z</time>
      </trkpt>
      <trkpt lat="42.569105" lon="1.112675">
        <ele>1244.945</ele>
        <time>2021-06-18T16:28:01Z</time>
      </trkpt>
      <trkpt lat="42.569095" lon="1.112575">
        <ele>1245.654</ele>
        <time>2021-06-18T16:28:04Z</time>
      </trkpt>
      <trkpt lat="42.569094" lon="1.112411">
        <ele>1246.750</ele>
        <time>2021-06-18T16:28:09Z</time>
      </trkpt>
      <trkpt lat="42.569112" lon="1.112184">
        <ele>1247.974</ele>
        <time>2021-06-18T16:28:16Z</time>
      </trkpt>
      <trkpt lat="42.569118" lon="1.112153">
        <ele>1248.098</ele>
        <time>2021-06-18T16:28:17Z</time>
      </trkpt>
      <trkpt lat="42.569193" lon="1.111826">
        <ele>1249.518</ele>
        <time>2021-06-18T16:28:27Z</time>
      </trkpt>
      <trkpt lat="42.569237" lon="1.111625">
        <ele>1250.431</ele>
        <time>2021-06-18T16:28:33Z</time>
      </trkpt>
      <trkpt lat="42.569261" lon="1.111527">
        <ele>1251.228</ele>
        <time>2021-06-18T16:28:36Z</time>
      </trkpt>
      <trkpt lat="42.569304" lon="1.111290">
        <ele>1252.311</ele>
        <time>2021-06-18T16:28:43Z</time>
      </trkpt>
      <trkpt lat="42.569315" lon="1.111222">
        <ele>1252.621</ele>
        <time>2021-06-18T16:28:45Z</time>
      </trkpt>
      <trkpt lat="42.569325" lon="1.111154">
        <ele>1252.803</ele>
        <time>2021-06-18T16:28:47Z</time>
      </trkpt>
      <trkpt lat="42.569358" lon="1.110881">
        <ele>1252.808</ele>
        <time>2021-06-18T16:28:55Z</time>
      </trkpt>
      <trkpt lat="42.569363" lon="1.110847">
        <ele>1252.848</ele>
        <time>2021-06-18T16:28:56Z</time>
      </trkpt>
      <trkpt lat="42.569399" lon="1.110547">
        <ele>1252.477</ele>
        <time>2021-06-18T16:29:05Z</time>
      </trkpt>
      <trkpt lat="42.569403" lon="1.110512">
        <ele>1252.793</ele>
        <time>2021-06-18T16:29:06Z</time>
      </trkpt>
      <trkpt lat="42.569423" lon="1.110349">
        <ele>1254.087</ele>
        <time>2021-06-18T16:29:11Z</time>
      </trkpt>
      <trkpt lat="42.569432" lon="1.110224">
        <ele>1254.771</ele>
        <time>2021-06-18T16:29:15Z</time>
      </trkpt>
      <trkpt lat="42.569432" lon="1.110192">
        <ele>1254.941</ele>
        <time>2021-06-18T16:29:16Z</time>
      </trkpt>
      <trkpt lat="42.569421" lon="1.110021">
        <ele>1255.124</ele>
        <time>2021-06-18T16:29:21Z</time>
      </trkpt>
      <trkpt lat="42.569414" lon="1.109950">
        <ele>1255.371</ele>
        <time>2021-06-18T16:29:23Z</time>
      </trkpt>
      <trkpt lat="42.569403" lon="1.109776">
        <ele>1256.211</ele>
        <time>2021-06-18T16:29:28Z</time>
      </trkpt>
      <trkpt lat="42.569392" lon="1.109569">
        <ele>1256.421</ele>
        <time>2021-06-18T16:29:34Z</time>
      </trkpt>
      <trkpt lat="42.569403" lon="1.109355">
        <ele>1257.103</ele>
        <time>2021-06-18T16:29:40Z</time>
      </trkpt>
      <trkpt lat="42.569413" lon="1.109250">
        <ele>1257.708</ele>
        <time>2021-06-18T16:29:43Z</time>
      </trkpt>
      <trkpt lat="42.569458" lon="1.108949">
        <ele>1258.888</ele>
        <time>2021-06-18T16:29:52Z</time>
      </trkpt>
      <trkpt lat="42.569506" lon="1.108620">
        <ele>1261.117</ele>
        <time>2021-06-18T16:30:02Z</time>
      </trkpt>
      <trkpt lat="42.569513" lon="1.108486">
        <ele>1261.323</ele>
        <time>2021-06-18T16:30:06Z</time>
      </trkpt>
      <trkpt lat="42.569530" lon="1.108351">
        <ele>1262.027</ele>
        <time>2021-06-18T16:30:10Z</time>
      </trkpt>
      <trkpt lat="42.569537" lon="1.108318">
        <ele>1262.341</ele>
        <time>2021-06-18T16:30:11Z</time>
      </trkpt>
      <trkpt lat="42.569569" lon="1.108080">
        <ele>1263.491</ele>
        <time>2021-06-18T16:30:18Z</time>
      </trkpt>
      <trkpt lat="42.569573" lon="1.108046">
        <ele>1263.594</ele>
        <time>2021-06-18T16:30:19Z</time>
      </trkpt>
      <trkpt lat="42.569604" lon="1.107818">
        <ele>1264.411</ele>
        <time>2021-06-18T16:30:26Z</time>
      </trkpt>
      <trkpt lat="42.569611" lon="1.107786">
        <ele>1264.681</ele>
        <time>2021-06-18T16:30:27Z</time>
      </trkpt>
      <trkpt lat="42.569635" lon="1.107590">
        <ele>1265.161</ele>
        <time>2021-06-18T16:30:33Z</time>
      </trkpt>
      <trkpt lat="42.569639" lon="1.107556">
        <ele>1265.117</ele>
        <time>2021-06-18T16:30:34Z</time>
      </trkpt>
      <trkpt lat="42.569665" lon="1.107420">
        <ele>1265.708</ele>
        <time>2021-06-18T16:30:38Z</time>
      </trkpt>
      <trkpt lat="42.569705" lon="1.107213">
        <ele>1266.415</ele>
        <time>2021-06-18T16:30:44Z</time>
      </trkpt>
      <trkpt lat="42.569717" lon="1.107145">
        <ele>1266.894</ele>
        <time>2021-06-18T16:30:46Z</time>
      </trkpt>
      <trkpt lat="42.569754" lon="1.106910">
        <ele>1267.980</ele>
        <time>2021-06-18T16:30:53Z</time>
      </trkpt>
      <trkpt lat="42.569759" lon="1.106876">
        <ele>1268.114</ele>
        <time>2021-06-18T16:30:54Z</time>
      </trkpt>
      <trkpt lat="42.569776" lon="1.106738">
        <ele>1268.578</ele>
        <time>2021-06-18T16:30:58Z</time>
      </trkpt>
      <trkpt lat="42.569773" lon="1.106563">
        <ele>1269.328</ele>
        <time>2021-06-18T16:31:03Z</time>
      </trkpt>
      <trkpt lat="42.569773" lon="1.106495">
        <ele>1269.881</ele>
        <time>2021-06-18T16:31:05Z</time>
      </trkpt>
      <trkpt lat="42.569758" lon="1.106250">
        <ele>1270.758</ele>
        <time>2021-06-18T16:31:12Z</time>
      </trkpt>
      <trkpt lat="42.569757" lon="1.105963">
        <ele>1271.737</ele>
        <time>2021-06-18T16:31:20Z</time>
      </trkpt>
      <trkpt lat="42.569764" lon="1.105892">
        <ele>1272.149</ele>
        <time>2021-06-18T16:31:22Z</time>
      </trkpt>
      <trkpt lat="42.569777" lon="1.105711">
        <ele>1272.513</ele>
        <time>2021-06-18T16:31:27Z</time>
      </trkpt>
      <trkpt lat="42.569803" lon="1.105449">
        <ele>1273.108</ele>
        <time>2021-06-18T16:31:34Z</time>
      </trkpt>
      <trkpt lat="42.569809" lon="1.105410">
        <ele>1273.360</ele>
        <time>2021-06-18T16:31:35Z</time>
      </trkpt>
      <trkpt lat="42.569887" lon="1.105147">
        <ele>1274.049</ele>
        <time>2021-06-18T16:31:42Z</time>
      </trkpt>
      <trkpt lat="42.569944" lon="1.105050">
        <ele>1274.245</ele>
        <time>2021-06-18T16:31:45Z</time>
      </trkpt>
      <trkpt lat="42.570057" lon="1.104919">
        <ele>1274.319</ele>
        <time>2021-06-18T16:31:50Z</time>
      </trkpt>
      <trkpt lat="42.570277" lon="1.104785">
        <ele>1275.533</ele>
        <time>2021-06-18T16:31:58Z</time>
      </trkpt>
      <trkpt lat="42.570364" lon="1.104738">
        <ele>1276.153</ele>
        <time>2021-06-18T16:32:01Z</time>
      </trkpt>
      <trkpt lat="42.570533" lon="1.104592">
        <ele>1276.636</ele>
        <time>2021-06-18T16:32:07Z</time>
      </trkpt>
      <trkpt lat="42.570709" lon="1.104304">
        <ele>1278.413</ele>
        <time>2021-06-18T16:32:14Z</time>
      </trkpt>
      <trkpt lat="42.570902" lon="1.103827">
        <ele>1276.524</ele>
        <time>2021-06-18T16:32:23Z</time>
      </trkpt>
      <trkpt lat="42.571003" lon="1.103420">
        <ele>1275.904</ele>
        <time>2021-06-18T16:32:30Z</time>
      </trkpt>
      <trkpt lat="42.571085" lon="1.103048">
        <ele>1276.314</ele>
        <time>2021-06-18T16:32:36Z</time>
      </trkpt>
      <trkpt lat="42.571282" lon="1.102453">
        <ele>1276.508</ele>
        <time>2021-06-18T16:32:46Z</time>
      </trkpt>
      <trkpt lat="42.571388" lon="1.102158">
        <ele>1276.859</ele>
        <time>2021-06-18T16:32:51Z</time>
      </trkpt>
      <trkpt lat="42.571425" lon="1.102043">
        <ele>1277.728</ele>
        <time>2021-06-18T16:32:53Z</time>
      </trkpt>
      <trkpt lat="42.571463" lon="1.101858">
        <ele>1278.634</ele>
        <time>2021-06-18T16:32:56Z</time>
      </trkpt>
      <trkpt lat="42.571470" lon="1.101668">
        <ele>1278.668</ele>
        <time>2021-06-18T16:32:59Z</time>
      </trkpt>
      <trkpt lat="42.571463" lon="1.101603">
        <ele>1278.822</ele>
        <time>2021-06-18T16:33:00Z</time>
      </trkpt>
      <trkpt lat="42.571453" lon="1.101539">
        <ele>1278.972</ele>
        <time>2021-06-18T16:33:01Z</time>
      </trkpt>
      <trkpt lat="42.571399" lon="1.101352">
        <ele>1278.715</ele>
        <time>2021-06-18T16:33:04Z</time>
      </trkpt>
      <trkpt lat="42.571380" lon="1.101294">
        <ele>1278.972</ele>
        <time>2021-06-18T16:33:05Z</time>
      </trkpt>
      <trkpt lat="42.571246" lon="1.100861">
        <ele>1279.712</ele>
        <time>2021-06-18T16:33:12Z</time>
      </trkpt>
      <trkpt lat="42.571190" lon="1.100595">
        <ele>1279.632</ele>
        <time>2021-06-18T16:33:16Z</time>
      </trkpt>
      <trkpt lat="42.571191" lon="1.100463">
        <ele>1280.005</ele>
        <time>2021-06-18T16:33:18Z</time>
      </trkpt>
      <trkpt lat="42.571260" lon="1.099985">
        <ele>1281.708</ele>
        <time>2021-06-18T16:33:26Z</time>
      </trkpt>
      <trkpt lat="42.571280" lon="1.099880">
        <ele>1281.868</ele>
        <time>2021-06-18T16:33:28Z</time>
      </trkpt>
      <trkpt lat="42.571338" lon="1.099644">
        <ele>1282.177</ele>
        <time>2021-06-18T16:33:33Z</time>
      </trkpt>
      <trkpt lat="42.571434" lon="1.099453">
        <ele>1282.883</ele>
        <time>2021-06-18T16:33:38Z</time>
      </trkpt>
      <trkpt lat="42.571482" lon="1.099391">
        <ele>1283.457</ele>
        <time>2021-06-18T16:33:40Z</time>
      </trkpt>
      <trkpt lat="42.571557" lon="1.099307">
        <ele>1284.271</ele>
        <time>2021-06-18T16:33:43Z</time>
      </trkpt>
      <trkpt lat="42.571695" lon="1.099157">
        <ele>1285.451</ele>
        <time>2021-06-18T16:33:49Z</time>
      </trkpt>
      <trkpt lat="42.571761" lon="1.099078">
        <ele>1285.894</ele>
        <time>2021-06-18T16:33:52Z</time>
      </trkpt>
      <trkpt lat="42.571840" lon="1.098954">
        <ele>1286.341</ele>
        <time>2021-06-18T16:33:56Z</time>
      </trkpt>
      <trkpt lat="42.571878" lon="1.098889">
        <ele>1286.652</ele>
        <time>2021-06-18T16:33:58Z</time>
      </trkpt>
      <trkpt lat="42.571986" lon="1.098647">
        <ele>1287.353</ele>
        <time>2021-06-18T16:34:05Z</time>
      </trkpt>
      <trkpt lat="42.572001" lon="1.098612">
        <ele>1287.408</ele>
        <time>2021-06-18T16:34:06Z</time>
      </trkpt>
      <trkpt lat="42.572141" lon="1.098298">
        <ele>1289.208</ele>
        <time>2021-06-18T16:34:15Z</time>
      </trkpt>
      <trkpt lat="42.572220" lon="1.098125">
        <ele>1290.292</ele>
        <time>2021-06-18T16:34:20Z</time>
      </trkpt>
      <trkpt lat="42.572235" lon="1.098089">
        <ele>1290.511</ele>
        <time>2021-06-18T16:34:21Z</time>
      </trkpt>
      <trkpt lat="42.572338" lon="1.097843">
        <ele>1291.887</ele>
        <time>2021-06-18T16:34:28Z</time>
      </trkpt>
      <trkpt lat="42.572353" lon="1.097808">
        <ele>1292.091</ele>
        <time>2021-06-18T16:34:29Z</time>
      </trkpt>
      <trkpt lat="42.572428" lon="1.097638">
        <ele>1292.975</ele>
        <time>2021-06-18T16:34:34Z</time>
      </trkpt>
      <trkpt lat="42.572492" lon="1.097502">
        <ele>1293.835</ele>
        <time>2021-06-18T16:34:38Z</time>
      </trkpt>
      <trkpt lat="42.572507" lon="1.097468">
        <ele>1293.938</ele>
        <time>2021-06-18T16:34:39Z</time>
      </trkpt>
      <trkpt lat="42.572616" lon="1.097187">
        <ele>1294.875</ele>
        <time>2021-06-18T16:34:47Z</time>
      </trkpt>
      <trkpt lat="42.572657" lon="1.097049">
        <ele>1295.727</ele>
        <time>2021-06-18T16:34:51Z</time>
      </trkpt>
      <trkpt lat="42.572704" lon="1.096875">
        <ele>1296.668</ele>
        <time>2021-06-18T16:34:56Z</time>
      </trkpt>
      <trkpt lat="42.572753" lon="1.096688">
        <ele>1297.414</ele>
        <time>2021-06-18T16:35:01Z</time>
      </trkpt>
      <trkpt lat="42.572785" lon="1.096573">
        <ele>1297.508</ele>
        <time>2021-06-18T16:35:04Z</time>
      </trkpt>
      <trkpt lat="42.572797" lon="1.096535">
        <ele>1297.549</ele>
        <time>2021-06-18T16:35:05Z</time>
      </trkpt>
      <trkpt lat="42.572884" lon="1.096230">
        <ele>1298.568</ele>
        <time>2021-06-18T16:35:13Z</time>
      </trkpt>
      <trkpt lat="42.572897" lon="1.096193">
        <ele>1298.734</ele>
        <time>2021-06-18T16:35:14Z</time>
      </trkpt>
      <trkpt lat="42.572976" lon="1.095972">
        <ele>1299.988</ele>
        <time>2021-06-18T16:35:20Z</time>
      </trkpt>
      <trkpt lat="42.573005" lon="1.095899">
        <ele>1300.352</ele>
        <time>2021-06-18T16:35:22Z</time>
      </trkpt>
      <trkpt lat="42.573118" lon="1.095615">
        <ele>1301.162</ele>
        <time>2021-06-18T16:35:29Z</time>
      </trkpt>
      <trkpt lat="42.573136" lon="1.095570">
        <ele>1301.215</ele>
        <time>2021-06-18T16:35:30Z</time>
      </trkpt>
      <trkpt lat="42.573336" lon="1.095039">
        <ele>1301.282</ele>
        <time>2021-06-18T16:35:41Z</time>
      </trkpt>
      <trkpt lat="42.573350" lon="1.094985">
        <ele>1301.434</ele>
        <time>2021-06-18T16:35:42Z</time>
      </trkpt>
      <trkpt lat="42.573399" lon="1.094622">
        <ele>1302.355</ele>
        <time>2021-06-18T16:35:48Z</time>
      </trkpt>
      <trkpt lat="42.573433" lon="1.094011">
        <ele>1303.510</ele>
        <time>2021-06-18T16:35:57Z</time>
      </trkpt>
      <trkpt lat="42.573455" lon="1.093809">
        <ele>1303.508</ele>
        <time>2021-06-18T16:36:00Z</time>
      </trkpt>
      <trkpt lat="42.573495" lon="1.093681">
        <ele>1303.580</ele>
        <time>2021-06-18T16:36:02Z</time>
      </trkpt>
      <trkpt lat="42.573764" lon="1.093157">
        <ele>1303.639</ele>
        <time>2021-06-18T16:36:11Z</time>
      </trkpt>
      <trkpt lat="42.573992" lon="1.092847">
        <ele>1304.495</ele>
        <time>2021-06-18T16:36:17Z</time>
      </trkpt>
      <trkpt lat="42.574079" lon="1.092677">
        <ele>1304.969</ele>
        <time>2021-06-18T16:36:20Z</time>
      </trkpt>
      <trkpt lat="42.574246" lon="1.092290">
        <ele>1305.233</ele>
        <time>2021-06-18T16:36:27Z</time>
      </trkpt>
      <trkpt lat="42.574406" lon="1.091943">
        <ele>1304.773</ele>
        <time>2021-06-18T16:36:33Z</time>
      </trkpt>
      <trkpt lat="42.574485" lon="1.091769">
        <ele>1304.626</ele>
        <time>2021-06-18T16:36:36Z</time>
      </trkpt>
      <trkpt lat="42.574633" lon="1.091431">
        <ele>1305.083</ele>
        <time>2021-06-18T16:36:42Z</time>
      </trkpt>
      <trkpt lat="42.574683" lon="1.091324">
        <ele>1305.249</ele>
        <time>2021-06-18T16:36:44Z</time>
      </trkpt>
      <trkpt lat="42.574712" lon="1.091279">
        <ele>1305.402</ele>
        <time>2021-06-18T16:36:45Z</time>
      </trkpt>
      <trkpt lat="42.574769" lon="1.091199">
        <ele>1305.722</ele>
        <time>2021-06-18T16:36:47Z</time>
      </trkpt>
      <trkpt lat="42.574863" lon="1.090984">
        <ele>1306.208</ele>
        <time>2021-06-18T16:36:52Z</time>
      </trkpt>
      <trkpt lat="42.574957" lon="1.090766">
        <ele>1306.891</ele>
        <time>2021-06-18T16:36:57Z</time>
      </trkpt>
      <trkpt lat="42.575050" lon="1.090600">
        <ele>1307.370</ele>
        <time>2021-06-18T16:37:01Z</time>
      </trkpt>
      <trkpt lat="42.575133" lon="1.090424">
        <ele>1307.796</ele>
        <time>2021-06-18T16:37:05Z</time>
      </trkpt>
      <trkpt lat="42.575186" lon="1.090291">
        <ele>1307.730</ele>
        <time>2021-06-18T16:37:08Z</time>
      </trkpt>
      <trkpt lat="42.575298" lon="1.090034">
        <ele>1309.074</ele>
        <time>2021-06-18T16:37:14Z</time>
      </trkpt>
      <trkpt lat="42.575348" lon="1.089913">
        <ele>1309.374</ele>
        <time>2021-06-18T16:37:17Z</time>
      </trkpt>
      <trkpt lat="42.575416" lon="1.089770">
        <ele>1309.527</ele>
        <time>2021-06-18T16:37:21Z</time>
      </trkpt>
      <trkpt lat="42.575496" lon="1.089632">
        <ele>1309.974</ele>
        <time>2021-06-18T16:37:25Z</time>
      </trkpt>
      <trkpt lat="42.575551" lon="1.089535">
        <ele>1310.055</ele>
        <time>2021-06-18T16:37:28Z</time>
      </trkpt>
      <trkpt lat="42.575576" lon="1.089496">
        <ele>1310.207</ele>
        <time>2021-06-18T16:37:32Z</time>
      </trkpt>
      <trkpt lat="42.575540" lon="1.089403">
        <ele>1310.117</ele>
        <time>2021-06-18T16:42:29Z</time>
      </trkpt>
      <trkpt lat="42.575558" lon="1.089364">
        <ele>1310.308</ele>
        <time>2021-06-18T16:42:31Z</time>
      </trkpt>
      <trkpt lat="42.575616" lon="1.089239">
        <ele>1311.042</ele>
        <time>2021-06-18T16:42:35Z</time>
      </trkpt>
      <trkpt lat="42.575716" lon="1.089070">
        <ele>1311.621</ele>
        <time>2021-06-18T16:42:40Z</time>
      </trkpt>
      <trkpt lat="42.575815" lon="1.088964">
        <ele>1311.957</ele>
        <time>2021-06-18T16:42:45Z</time>
      </trkpt>
      <trkpt lat="42.575830" lon="1.088920">
        <ele>1312.051</ele>
        <time>2021-06-18T16:42:47Z</time>
      </trkpt>
      <trkpt lat="42.575821" lon="1.088881">
        <ele>1312.065</ele>
        <time>2021-06-18T16:42:49Z</time>
      </trkpt>
      <trkpt lat="42.575803" lon="1.088813">
        <ele>1312.125</ele>
        <time>2021-06-18T16:42:52Z</time>
      </trkpt>
      <trkpt lat="42.575796" lon="1.088771">
        <ele>1312.228</ele>
        <time>2021-06-18T16:42:54Z</time>
      </trkpt>
      <trkpt lat="42.575789" lon="1.088758">
        <ele>1312.225</ele>
        <time>2021-06-18T16:42:55Z</time>
      </trkpt>
      <trkpt lat="42.575776" lon="1.088799">
        <ele>1312.072</ele>
        <time>2021-06-18T16:42:58Z</time>
      </trkpt>
      <trkpt lat="42.575800" lon="1.088786">
        <ele>1312.213</ele>
        <time>2021-06-18T16:43:01Z</time>
      </trkpt>
      <trkpt lat="42.575785" lon="1.088732">
        <ele>1312.314</ele>
        <time>2021-06-18T16:43:03Z</time>
      </trkpt>
      <trkpt lat="42.575772" lon="1.088652">
        <ele>1312.408</ele>
        <time>2021-06-18T16:43:05Z</time>
      </trkpt>
      <trkpt lat="42.575716" lon="1.088428">
        <ele>1312.764</ele>
        <time>2021-06-18T16:43:11Z</time>
      </trkpt>
      <trkpt lat="42.575668" lon="1.088359">
        <ele>1312.923</ele>
        <time>2021-06-18T16:43:15Z</time>
      </trkpt>
      <trkpt lat="42.575663" lon="1.088355">
        <ele>1312.969</ele>
        <time>2021-06-18T16:43:17Z</time>
      </trkpt>
      <trkpt lat="42.575749" lon="1.088455">
        <ele>1312.783</ele>
        <time>2021-06-18T16:53:26Z</time>
      </trkpt>
      <trkpt lat="42.575755" lon="1.088487">
        <ele>1312.797</ele>
        <time>2021-06-18T16:53:27Z</time>
      </trkpt>
      <trkpt lat="42.575814" lon="1.088776">
        <ele>1312.367</ele>
        <time>2021-06-18T16:53:34Z</time>
      </trkpt>
      <trkpt lat="42.575854" lon="1.088925">
        <ele>1312.110</ele>
        <time>2021-06-18T16:53:37Z</time>
      </trkpt>
      <trkpt lat="42.575931" lon="1.089022">
        <ele>1312.577</ele>
        <time>2021-06-18T16:53:40Z</time>
      </trkpt>
      <trkpt lat="42.576102" lon="1.089016">
        <ele>1313.459</ele>
        <time>2021-06-18T16:53:46Z</time>
      </trkpt>
      <trkpt lat="42.576285" lon="1.088846">
        <ele>1314.803</ele>
        <time>2021-06-18T16:53:54Z</time>
      </trkpt>
      <trkpt lat="42.576341" lon="1.088767">
        <ele>1315.123</ele>
        <time>2021-06-18T16:53:57Z</time>
      </trkpt>
      <trkpt lat="42.576397" lon="1.088704">
        <ele>1315.408</ele>
        <time>2021-06-18T16:54:00Z</time>
      </trkpt>
      <trkpt lat="42.576478" lon="1.088604">
        <ele>1316.072</ele>
        <time>2021-06-18T16:54:05Z</time>
      </trkpt>
      <trkpt lat="42.576514" lon="1.088573">
        <ele>1316.461</ele>
        <time>2021-06-18T16:54:07Z</time>
      </trkpt>
      <trkpt lat="42.576578" lon="1.088500">
        <ele>1317.357</ele>
        <time>2021-06-18T16:54:11Z</time>
      </trkpt>
      <trkpt lat="42.576636" lon="1.088430">
        <ele>1318.241</ele>
        <time>2021-06-18T16:54:15Z</time>
      </trkpt>
      <trkpt lat="42.576648" lon="1.088413">
        <ele>1318.595</ele>
        <time>2021-06-18T16:54:16Z</time>
      </trkpt>
      <trkpt lat="42.576703" lon="1.088327">
        <ele>1319.535</ele>
        <time>2021-06-18T16:54:21Z</time>
      </trkpt>
      <trkpt lat="42.576720" lon="1.088315">
        <ele>1319.618</ele>
        <time>2021-06-18T16:54:22Z</time>
      </trkpt>
      <trkpt lat="42.576793" lon="1.088259">
        <ele>1320.215</ele>
        <time>2021-06-18T16:54:26Z</time>
      </trkpt>
      <trkpt lat="42.576850" lon="1.088220">
        <ele>1320.627</ele>
        <time>2021-06-18T16:54:29Z</time>
      </trkpt>
      <trkpt lat="42.576892" lon="1.088185">
        <ele>1320.768</ele>
        <time>2021-06-18T16:54:31Z</time>
      </trkpt>
      <trkpt lat="42.576992" lon="1.088071">
        <ele>1321.314</ele>
        <time>2021-06-18T16:54:36Z</time>
      </trkpt>
      <trkpt lat="42.577011" lon="1.088045">
        <ele>1321.608</ele>
        <time>2021-06-18T16:54:37Z</time>
      </trkpt>
      <trkpt lat="42.577152" lon="1.087777">
        <ele>1322.719</ele>
        <time>2021-06-18T16:54:46Z</time>
      </trkpt>
      <trkpt lat="42.577190" lon="1.087671">
        <ele>1323.198</ele>
        <time>2021-06-18T16:54:49Z</time>
      </trkpt>
      <trkpt lat="42.577248" lon="1.087537">
        <ele>1323.624</ele>
        <time>2021-06-18T16:54:53Z</time>
      </trkpt>
      <trkpt lat="42.577346" lon="1.087243">
        <ele>1323.098</ele>
        <time>2021-06-18T16:55:02Z</time>
      </trkpt>
      <trkpt lat="42.577448" lon="1.086931">
        <ele>1323.492</ele>
        <time>2021-06-18T16:55:11Z</time>
      </trkpt>
      <trkpt lat="42.577438" lon="1.086716">
        <ele>1323.342</ele>
        <time>2021-06-18T16:55:17Z</time>
      </trkpt>
      <trkpt lat="42.577423" lon="1.086641">
        <ele>1323.235</ele>
        <time>2021-06-18T16:55:19Z</time>
      </trkpt>
      <trkpt lat="42.577388" lon="1.086475">
        <ele>1323.142</ele>
        <time>2021-06-18T16:55:24Z</time>
      </trkpt>
      <trkpt lat="42.577314" lon="1.086293">
        <ele>1323.132</ele>
        <time>2021-06-18T16:55:30Z</time>
      </trkpt>
      <trkpt lat="42.577256" lon="1.086112">
        <ele>1324.092</ele>
        <time>2021-06-18T16:55:36Z</time>
      </trkpt>
      <trkpt lat="42.577271" lon="1.086049">
        <ele>1325.011</ele>
        <time>2021-06-18T16:55:38Z</time>
      </trkpt>
      <trkpt lat="42.577288" lon="1.086024">
        <ele>1325.308</ele>
        <time>2021-06-18T16:55:39Z</time>
      </trkpt>
      <trkpt lat="42.577306" lon="1.086001">
        <ele>1325.610</ele>
        <time>2021-06-18T16:55:40Z</time>
      </trkpt>
      <trkpt lat="42.577392" lon="1.085925">
        <ele>1326.179</ele>
        <time>2021-06-18T16:55:44Z</time>
      </trkpt>
      <trkpt lat="42.577481" lon="1.085863">
        <ele>1326.065</ele>
        <time>2021-06-18T16:55:48Z</time>
      </trkpt>
      <trkpt lat="42.577589" lon="1.085796">
        <ele>1326.449</ele>
        <time>2021-06-18T16:55:53Z</time>
      </trkpt>
      <trkpt lat="42.577672" lon="1.085737">
        <ele>1327.273</ele>
        <time>2021-06-18T16:55:57Z</time>
      </trkpt>
      <trkpt lat="42.577714" lon="1.085712">
        <ele>1327.543</ele>
        <time>2021-06-18T16:55:59Z</time>
      </trkpt>
      <trkpt lat="42.577848" lon="1.085616">
        <ele>1328.736</ele>
        <time>2021-06-18T16:56:06Z</time>
      </trkpt>
      <trkpt lat="42.577860" lon="1.085597">
        <ele>1328.993</ele>
        <time>2021-06-18T16:56:07Z</time>
      </trkpt>
      <trkpt lat="42.577865" lon="1.085517">
        <ele>1329.894</ele>
        <time>2021-06-18T16:56:10Z</time>
      </trkpt>
      <trkpt lat="42.577863" lon="1.085488">
        <ele>1330.257</ele>
        <time>2021-06-18T16:56:11Z</time>
      </trkpt>
      <trkpt lat="42.577846" lon="1.085396">
        <ele>1331.422</ele>
        <time>2021-06-18T16:56:14Z</time>
      </trkpt>
      <trkpt lat="42.577825" lon="1.085340">
        <ele>1332.108</ele>
        <time>2021-06-18T16:56:16Z</time>
      </trkpt>
      <trkpt lat="42.577761" lon="1.085269">
        <ele>1333.786</ele>
        <time>2021-06-18T16:56:20Z</time>
      </trkpt>
      <trkpt lat="42.577741" lon="1.085267">
        <ele>1334.245</ele>
        <time>2021-06-18T16:56:21Z</time>
      </trkpt>
      <trkpt lat="42.577681" lon="1.085275">
        <ele>1335.251</ele>
        <time>2021-06-18T16:56:24Z</time>
      </trkpt>
      <trkpt lat="42.577585" lon="1.085300">
        <ele>1336.725</ele>
        <time>2021-06-18T16:56:29Z</time>
      </trkpt>
      <trkpt lat="42.577528" lon="1.085306">
        <ele>1337.739</ele>
        <time>2021-06-18T16:56:32Z</time>
      </trkpt>
      <trkpt lat="42.577489" lon="1.085330">
        <ele>1338.189</ele>
        <time>2021-06-18T16:56:34Z</time>
      </trkpt>
      <trkpt lat="42.577371" lon="1.085414">
        <ele>1339.532</ele>
        <time>2021-06-18T16:56:40Z</time>
      </trkpt>
      <trkpt lat="42.577291" lon="1.085476">
        <ele>1339.669</ele>
        <time>2021-06-18T16:56:44Z</time>
      </trkpt>
      <trkpt lat="42.577271" lon="1.085493">
        <ele>1339.557</ele>
        <time>2021-06-18T16:56:45Z</time>
      </trkpt>
      <trkpt lat="42.577190" lon="1.085563">
        <ele>1339.000</ele>
        <time>2021-06-18T16:56:49Z</time>
      </trkpt>
      <trkpt lat="42.577105" lon="1.085625">
        <ele>1340.220</ele>
        <time>2021-06-18T16:56:53Z</time>
      </trkpt>
      <trkpt lat="42.577021" lon="1.085694">
        <ele>1340.808</ele>
        <time>2021-06-18T16:56:57Z</time>
      </trkpt>
      <trkpt lat="42.576937" lon="1.085763">
        <ele>1341.042</ele>
        <time>2021-06-18T16:57:01Z</time>
      </trkpt>
      <trkpt lat="42.576872" lon="1.085810">
        <ele>1341.071</ele>
        <time>2021-06-18T16:57:04Z</time>
      </trkpt>
      <trkpt lat="42.576737" lon="1.085893">
        <ele>1341.817</ele>
        <time>2021-06-18T16:57:10Z</time>
      </trkpt>
      <trkpt lat="42.576585" lon="1.085959">
        <ele>1343.421</ele>
        <time>2021-06-18T16:57:17Z</time>
      </trkpt>
      <trkpt lat="42.576545" lon="1.085974">
        <ele>1343.895</ele>
        <time>2021-06-18T16:57:19Z</time>
      </trkpt>
      <trkpt lat="42.576456" lon="1.085997">
        <ele>1345.075</ele>
        <time>2021-06-18T16:57:24Z</time>
      </trkpt>
      <trkpt lat="42.576387" lon="1.086008">
        <ele>1346.178</ele>
        <time>2021-06-18T16:57:28Z</time>
      </trkpt>
      <trkpt lat="42.576369" lon="1.086010">
        <ele>1346.385</ele>
        <time>2021-06-18T16:57:29Z</time>
      </trkpt>
      <trkpt lat="42.576297" lon="1.086024">
        <ele>1346.986</ele>
        <time>2021-06-18T16:57:33Z</time>
      </trkpt>
      <trkpt lat="42.576191" lon="1.086032">
        <ele>1348.260</ele>
        <time>2021-06-18T16:57:39Z</time>
      </trkpt>
      <trkpt lat="42.576155" lon="1.086032">
        <ele>1348.726</ele>
        <time>2021-06-18T16:57:41Z</time>
      </trkpt>
      <trkpt lat="42.576084" lon="1.086043">
        <ele>1349.408</ele>
        <time>2021-06-18T16:57:45Z</time>
      </trkpt>
      <trkpt lat="42.576034" lon="1.086064">
        <ele>1349.285</ele>
        <time>2021-06-18T16:57:48Z</time>
      </trkpt>
      <trkpt lat="42.575999" lon="1.086071">
        <ele>1349.554</ele>
        <time>2021-06-18T16:57:50Z</time>
      </trkpt>
      <trkpt lat="42.575893" lon="1.086091">
        <ele>1350.180</ele>
        <time>2021-06-18T16:57:56Z</time>
      </trkpt>
      <trkpt lat="42.575856" lon="1.086097">
        <ele>1350.494</ele>
        <time>2021-06-18T16:57:58Z</time>
      </trkpt>
      <trkpt lat="42.575730" lon="1.086140">
        <ele>1351.688</ele>
        <time>2021-06-18T16:58:05Z</time>
      </trkpt>
      <trkpt lat="42.575523" lon="1.086243">
        <ele>1352.528</ele>
        <time>2021-06-18T16:58:15Z</time>
      </trkpt>
      <trkpt lat="42.575300" lon="1.086363">
        <ele>1351.911</ele>
        <time>2021-06-18T16:58:23Z</time>
      </trkpt>
      <trkpt lat="42.574961" lon="1.086562">
        <ele>1351.098</ele>
        <time>2021-06-18T16:58:32Z</time>
      </trkpt>
      <trkpt lat="42.574697" lon="1.086694">
        <ele>1349.925</ele>
        <time>2021-06-18T16:58:37Z</time>
      </trkpt>
      <trkpt lat="42.574577" lon="1.086721">
        <ele>1348.626</ele>
        <time>2021-06-18T16:58:39Z</time>
      </trkpt>
      <trkpt lat="42.574465" lon="1.086708">
        <ele>1348.908</ele>
        <time>2021-06-18T16:58:41Z</time>
      </trkpt>
      <trkpt lat="42.574377" lon="1.086671">
        <ele>1349.208</ele>
        <time>2021-06-18T16:58:43Z</time>
      </trkpt>
      <trkpt lat="42.574318" lon="1.086620">
        <ele>1349.949</ele>
        <time>2021-06-18T16:58:45Z</time>
      </trkpt>
      <trkpt lat="42.574222" lon="1.086467">
        <ele>1350.998</ele>
        <time>2021-06-18T16:58:50Z</time>
      </trkpt>
      <trkpt lat="42.574097" lon="1.086216">
        <ele>1352.984</ele>
        <time>2021-06-18T16:58:57Z</time>
      </trkpt>
      <trkpt lat="42.574080" lon="1.086178">
        <ele>1353.388</ele>
        <time>2021-06-18T16:58:58Z</time>
      </trkpt>
      <trkpt lat="42.574003" lon="1.086041">
        <ele>1353.992</ele>
        <time>2021-06-18T16:59:02Z</time>
      </trkpt>
      <trkpt lat="42.573910" lon="1.085889">
        <ele>1353.832</ele>
        <time>2021-06-18T16:59:07Z</time>
      </trkpt>
      <trkpt lat="42.573801" lon="1.085848">
        <ele>1353.985</ele>
        <time>2021-06-18T16:59:12Z</time>
      </trkpt>
      <trkpt lat="42.573778" lon="1.085854">
        <ele>1354.032</ele>
        <time>2021-06-18T16:59:13Z</time>
      </trkpt>
      <trkpt lat="42.573705" lon="1.085939">
        <ele>1354.426</ele>
        <time>2021-06-18T16:59:17Z</time>
      </trkpt>
      <trkpt lat="42.573626" lon="1.086127">
        <ele>1356.747</ele>
        <time>2021-06-18T16:59:24Z</time>
      </trkpt>
      <trkpt lat="42.573617" lon="1.086152">
        <ele>1356.911</ele>
        <time>2021-06-18T16:59:25Z</time>
      </trkpt>
      <trkpt lat="42.573565" lon="1.086266">
        <ele>1358.108</ele>
        <time>2021-06-18T16:59:30Z</time>
      </trkpt>
      <trkpt lat="42.573539" lon="1.086309">
        <ele>1358.799</ele>
        <time>2021-06-18T16:59:32Z</time>
      </trkpt>
      <trkpt lat="42.573510" lon="1.086347">
        <ele>1359.548</ele>
        <time>2021-06-18T16:59:34Z</time>
      </trkpt>
      <trkpt lat="42.573463" lon="1.086432">
        <ele>1360.584</ele>
        <time>2021-06-18T16:59:38Z</time>
      </trkpt>
      <trkpt lat="42.573449" lon="1.086449">
        <ele>1360.788</ele>
        <time>2021-06-18T16:59:39Z</time>
      </trkpt>
      <trkpt lat="42.573372" lon="1.086533">
        <ele>1361.762</ele>
        <time>2021-06-18T16:59:44Z</time>
      </trkpt>
      <trkpt lat="42.573328" lon="1.086588">
        <ele>1362.012</ele>
        <time>2021-06-18T16:59:47Z</time>
      </trkpt>
      <trkpt lat="42.573297" lon="1.086622">
        <ele>1362.545</ele>
        <time>2021-06-18T16:59:49Z</time>
      </trkpt>
      <trkpt lat="42.573253" lon="1.086706">
        <ele>1363.292</ele>
        <time>2021-06-18T16:59:53Z</time>
      </trkpt>
      <trkpt lat="42.573236" lon="1.086748">
        <ele>1363.655</ele>
        <time>2021-06-18T16:59:55Z</time>
      </trkpt>
      <trkpt lat="42.573201" lon="1.086803">
        <ele>1364.607</ele>
        <time>2021-06-18T16:59:58Z</time>
      </trkpt>
      <trkpt lat="42.573156" lon="1.086906">
        <ele>1365.817</ele>
        <time>2021-06-18T17:00:03Z</time>
      </trkpt>
      <trkpt lat="42.573125" lon="1.086993">
        <ele>1366.608</ele>
        <time>2021-06-18T17:00:07Z</time>
      </trkpt>
      <trkpt lat="42.573095" lon="1.087079">
        <ele>1367.232</ele>
        <time>2021-06-18T17:00:11Z</time>
      </trkpt>
      <trkpt lat="42.573079" lon="1.087121">
        <ele>1367.671</ele>
        <time>2021-06-18T17:00:13Z</time>
      </trkpt>
      <trkpt lat="42.573046" lon="1.087199">
        <ele>1368.587</ele>
        <time>2021-06-18T17:00:17Z</time>
      </trkpt>
      <trkpt lat="42.573009" lon="1.087274">
        <ele>1370.081</ele>
        <time>2021-06-18T17:00:21Z</time>
      </trkpt>
      <trkpt lat="42.572988" lon="1.087338">
        <ele>1370.645</ele>
        <time>2021-06-18T17:00:24Z</time>
      </trkpt>
      <trkpt lat="42.572952" lon="1.087440">
        <ele>1371.845</ele>
        <time>2021-06-18T17:00:29Z</time>
      </trkpt>
      <trkpt lat="42.572947" lon="1.087461">
        <ele>1371.928</ele>
        <time>2021-06-18T17:00:30Z</time>
      </trkpt>
      <trkpt lat="42.572916" lon="1.087563">
        <ele>1372.735</ele>
        <time>2021-06-18T17:00:35Z</time>
      </trkpt>
      <trkpt lat="42.572902" lon="1.087629">
        <ele>1373.063</ele>
        <time>2021-06-18T17:00:38Z</time>
      </trkpt>
      <trkpt lat="42.572894" lon="1.087673">
        <ele>1373.144</ele>
        <time>2021-06-18T17:00:40Z</time>
      </trkpt>
      <trkpt lat="42.572857" lon="1.087801">
        <ele>1374.218</ele>
        <time>2021-06-18T17:00:46Z</time>
      </trkpt>
      <trkpt lat="42.572799" lon="1.087968">
        <ele>1376.308</ele>
        <time>2021-06-18T17:00:54Z</time>
      </trkpt>
      <trkpt lat="42.572782" lon="1.088009">
        <ele>1377.063</ele>
        <time>2021-06-18T17:00:56Z</time>
      </trkpt>
      <trkpt lat="42.572773" lon="1.088029">
        <ele>1377.332</ele>
        <time>2021-06-18T17:00:57Z</time>
      </trkpt>
      <trkpt lat="42.572712" lon="1.088145">
        <ele>1378.478</ele>
        <time>2021-06-18T17:01:03Z</time>
      </trkpt>
      <trkpt lat="42.572692" lon="1.088185">
        <ele>1378.722</ele>
        <time>2021-06-18T17:01:05Z</time>
      </trkpt>
      <trkpt lat="42.572660" lon="1.088242">
        <ele>1379.256</ele>
        <time>2021-06-18T17:01:08Z</time>
      </trkpt>
      <trkpt lat="42.572591" lon="1.088375">
        <ele>1380.536</ele>
        <time>2021-06-18T17:01:15Z</time>
      </trkpt>
      <trkpt lat="42.572553" lon="1.088474">
        <ele>1381.459</ele>
        <time>2021-06-18T17:01:20Z</time>
      </trkpt>
      <trkpt lat="42.572529" lon="1.088535">
        <ele>1382.156</ele>
        <time>2021-06-18T17:01:23Z</time>
      </trkpt>
      <trkpt lat="42.572518" lon="1.088575">
        <ele>1382.464</ele>
        <time>2021-06-18T17:01:25Z</time>
      </trkpt>
      <trkpt lat="42.572487" lon="1.088662">
        <ele>1383.206</ele>
        <time>2021-06-18T17:01:29Z</time>
      </trkpt>
      <trkpt lat="42.572479" lon="1.088682">
        <ele>1383.316</ele>
        <time>2021-06-18T17:01:30Z</time>
      </trkpt>
      <trkpt lat="42.572471" lon="1.088704">
        <ele>1383.508</ele>
        <time>2021-06-18T17:01:31Z</time>
      </trkpt>
      <trkpt lat="42.572434" lon="1.088815">
        <ele>1384.353</ele>
        <time>2021-06-18T17:01:36Z</time>
      </trkpt>
      <trkpt lat="42.572403" lon="1.088897">
        <ele>1385.122</ele>
        <time>2021-06-18T17:01:40Z</time>
      </trkpt>
      <trkpt lat="42.572385" lon="1.088938">
        <ele>1385.318</ele>
        <time>2021-06-18T17:01:42Z</time>
      </trkpt>
      <trkpt lat="42.572314" lon="1.089075">
        <ele>1386.412</ele>
        <time>2021-06-18T17:01:49Z</time>
      </trkpt>
      <trkpt lat="42.572293" lon="1.089113">
        <ele>1386.716</ele>
        <time>2021-06-18T17:01:51Z</time>
      </trkpt>
      <trkpt lat="42.572248" lon="1.089183">
        <ele>1387.576</ele>
        <time>2021-06-18T17:01:55Z</time>
      </trkpt>
      <trkpt lat="42.572217" lon="1.089208">
        <ele>1388.389</ele>
        <time>2021-06-18T17:01:57Z</time>
      </trkpt>
      <trkpt lat="42.572169" lon="1.089243">
        <ele>1389.456</ele>
        <time>2021-06-18T17:02:00Z</time>
      </trkpt>
      <trkpt lat="42.572074" lon="1.089358">
        <ele>1390.457</ele>
        <time>2021-06-18T17:02:07Z</time>
      </trkpt>
      <trkpt lat="42.572059" lon="1.089372">
        <ele>1390.600</ele>
        <time>2021-06-18T17:02:08Z</time>
      </trkpt>
      <trkpt lat="42.571960" lon="1.089487">
        <ele>1391.720</ele>
        <time>2021-06-18T17:02:15Z</time>
      </trkpt>
      <trkpt lat="42.571913" lon="1.089524">
        <ele>1393.008</ele>
        <time>2021-06-18T17:02:18Z</time>
      </trkpt>
      <trkpt lat="42.571878" lon="1.089579">
        <ele>1393.742</ele>
        <time>2021-06-18T17:02:21Z</time>
      </trkpt>
      <trkpt lat="42.571835" lon="1.089656">
        <ele>1394.311</ele>
        <time>2021-06-18T17:02:25Z</time>
      </trkpt>
      <trkpt lat="42.571809" lon="1.089693">
        <ele>1394.987</ele>
        <time>2021-06-18T17:02:27Z</time>
      </trkpt>
      <trkpt lat="42.571737" lon="1.089799">
        <ele>1396.171</ele>
        <time>2021-06-18T17:02:33Z</time>
      </trkpt>
      <trkpt lat="42.571724" lon="1.089815">
        <ele>1396.425</ele>
        <time>2021-06-18T17:02:34Z</time>
      </trkpt>
      <trkpt lat="42.571687" lon="1.089868">
        <ele>1396.955</ele>
        <time>2021-06-18T17:02:37Z</time>
      </trkpt>
      <trkpt lat="42.571611" lon="1.089970">
        <ele>1398.778</ele>
        <time>2021-06-18T17:02:43Z</time>
      </trkpt>
      <trkpt lat="42.571537" lon="1.090100">
        <ele>1400.055</ele>
        <time>2021-06-18T17:02:50Z</time>
      </trkpt>
      <trkpt lat="42.571528" lon="1.090122">
        <ele>1400.197</ele>
        <time>2021-06-18T17:02:51Z</time>
      </trkpt>
      <trkpt lat="42.571482" lon="1.090222">
        <ele>1400.423</ele>
        <time>2021-06-18T17:02:56Z</time>
      </trkpt>
      <trkpt lat="42.571443" lon="1.090297">
        <ele>1401.025</ele>
        <time>2021-06-18T17:03:00Z</time>
      </trkpt>
      <trkpt lat="42.571418" lon="1.090352">
        <ele>1401.408</ele>
        <time>2021-06-18T17:03:03Z</time>
      </trkpt>
      <trkpt lat="42.571379" lon="1.090424">
        <ele>1402.366</ele>
        <time>2021-06-18T17:03:07Z</time>
      </trkpt>
      <trkpt lat="42.571369" lon="1.090443">
        <ele>1402.575</ele>
        <time>2021-06-18T17:03:08Z</time>
      </trkpt>
      <trkpt lat="42.571321" lon="1.090547">
        <ele>1403.361</ele>
        <time>2021-06-18T17:03:13Z</time>
      </trkpt>
      <trkpt lat="42.571310" lon="1.090563">
        <ele>1403.675</ele>
        <time>2021-06-18T17:03:14Z</time>
      </trkpt>
      <trkpt lat="42.571265" lon="1.090657">
        <ele>1404.089</ele>
        <time>2021-06-18T17:03:19Z</time>
      </trkpt>
      <trkpt lat="42.571232" lon="1.090715">
        <ele>1404.569</ele>
        <time>2021-06-18T17:03:22Z</time>
      </trkpt>
      <trkpt lat="42.571211" lon="1.090757">
        <ele>1404.722</ele>
        <time>2021-06-18T17:03:24Z</time>
      </trkpt>
      <trkpt lat="42.571179" lon="1.090844">
        <ele>1404.769</ele>
        <time>2021-06-18T17:03:28Z</time>
      </trkpt>
      <trkpt lat="42.571148" lon="1.090905">
        <ele>1405.367</ele>
        <time>2021-06-18T17:03:31Z</time>
      </trkpt>
      <trkpt lat="42.571089" lon="1.090994">
        <ele>1407.281</ele>
        <time>2021-06-18T17:03:36Z</time>
      </trkpt>
      <trkpt lat="42.571080" lon="1.091015">
        <ele>1407.319</ele>
        <time>2021-06-18T17:03:37Z</time>
      </trkpt>
      <trkpt lat="42.571041" lon="1.091094">
        <ele>1408.208</ele>
        <time>2021-06-18T17:03:41Z</time>
      </trkpt>
      <trkpt lat="42.571002" lon="1.091171">
        <ele>1408.643</ele>
        <time>2021-06-18T17:03:45Z</time>
      </trkpt>
      <trkpt lat="42.570969" lon="1.091223">
        <ele>1409.132</ele>
        <time>2021-06-18T17:03:48Z</time>
      </trkpt>
      <trkpt lat="42.570898" lon="1.091285">
        <ele>1411.198</ele>
        <time>2021-06-18T17:03:53Z</time>
      </trkpt>
      <trkpt lat="42.570867" lon="1.091306">
        <ele>1412.082</ele>
        <time>2021-06-18T17:03:55Z</time>
      </trkpt>
      <trkpt lat="42.570785" lon="1.091327">
        <ele>1413.446</ele>
        <time>2021-06-18T17:04:00Z</time>
      </trkpt>
      <trkpt lat="42.570769" lon="1.091328">
        <ele>1413.586</ele>
        <time>2021-06-18T17:04:01Z</time>
      </trkpt>
      <trkpt lat="42.570703" lon="1.091315">
        <ele>1414.079</ele>
        <time>2021-06-18T17:04:05Z</time>
      </trkpt>
      <trkpt lat="42.570652" lon="1.091312">
        <ele>1414.376</ele>
        <time>2021-06-18T17:04:08Z</time>
      </trkpt>
      <trkpt lat="42.570580" lon="1.091300">
        <ele>1414.829</ele>
        <time>2021-06-18T17:04:12Z</time>
      </trkpt>
      <trkpt lat="42.570528" lon="1.091274">
        <ele>1415.300</ele>
        <time>2021-06-18T17:04:15Z</time>
      </trkpt>
      <trkpt lat="42.570472" lon="1.091255">
        <ele>1415.720</ele>
        <time>2021-06-18T17:04:18Z</time>
      </trkpt>
      <trkpt lat="42.570379" lon="1.091241">
        <ele>1416.208</ele>
        <time>2021-06-18T17:04:23Z</time>
      </trkpt>
      <trkpt lat="42.570303" lon="1.091235">
        <ele>1416.689</ele>
        <time>2021-06-18T17:04:27Z</time>
      </trkpt>
      <trkpt lat="42.570168" lon="1.091244">
        <ele>1418.068</ele>
        <time>2021-06-18T17:04:34Z</time>
      </trkpt>
      <trkpt lat="42.570091" lon="1.091266">
        <ele>1418.654</ele>
        <time>2021-06-18T17:04:38Z</time>
      </trkpt>
      <trkpt lat="42.569928" lon="1.091350">
        <ele>1419.748</ele>
        <time>2021-06-18T17:04:47Z</time>
      </trkpt>
      <trkpt lat="42.569909" lon="1.091359">
        <ele>1420.052</ele>
        <time>2021-06-18T17:04:48Z</time>
      </trkpt>
      <trkpt lat="42.569756" lon="1.091471">
        <ele>1421.492</ele>
        <time>2021-06-18T17:04:56Z</time>
      </trkpt>
      <trkpt lat="42.569736" lon="1.091485">
        <ele>1421.645</ele>
        <time>2021-06-18T17:04:57Z</time>
      </trkpt>
      <trkpt lat="42.569608" lon="1.091609">
        <ele>1423.142</ele>
        <time>2021-06-18T17:05:04Z</time>
      </trkpt>
      <trkpt lat="42.569592" lon="1.091630">
        <ele>1423.187</ele>
        <time>2021-06-18T17:05:05Z</time>
      </trkpt>
      <trkpt lat="42.569475" lon="1.091780">
        <ele>1423.642</ele>
        <time>2021-06-18T17:05:12Z</time>
      </trkpt>
      <trkpt lat="42.569441" lon="1.091822">
        <ele>1423.826</ele>
        <time>2021-06-18T17:05:14Z</time>
      </trkpt>
      <trkpt lat="42.569411" lon="1.091870">
        <ele>1423.908</ele>
        <time>2021-06-18T17:05:16Z</time>
      </trkpt>
      <trkpt lat="42.569322" lon="1.092018">
        <ele>1424.685</ele>
        <time>2021-06-18T17:05:22Z</time>
      </trkpt>
      <trkpt lat="42.569262" lon="1.092114">
        <ele>1425.064</ele>
        <time>2021-06-18T17:05:26Z</time>
      </trkpt>
      <trkpt lat="42.569218" lon="1.092185">
        <ele>1425.140</ele>
        <time>2021-06-18T17:05:29Z</time>
      </trkpt>
      <trkpt lat="42.569151" lon="1.092275">
        <ele>1425.224</ele>
        <time>2021-06-18T17:05:33Z</time>
      </trkpt>
      <trkpt lat="42.569118" lon="1.092320">
        <ele>1425.118</ele>
        <time>2021-06-18T17:05:35Z</time>
      </trkpt>
      <trkpt lat="42.568961" lon="1.092510">
        <ele>1425.468</ele>
        <time>2021-06-18T17:05:44Z</time>
      </trkpt>
      <trkpt lat="42.568806" lon="1.092698">
        <ele>1426.451</ele>
        <time>2021-06-18T17:05:53Z</time>
      </trkpt>
      <trkpt lat="42.568732" lon="1.092778">
        <ele>1427.188</ele>
        <time>2021-06-18T17:05:57Z</time>
      </trkpt>
      <trkpt lat="42.568672" lon="1.092825">
        <ele>1427.863</ele>
        <time>2021-06-18T17:06:00Z</time>
      </trkpt>
      <trkpt lat="42.568597" lon="1.092895">
        <ele>1428.544</ele>
        <time>2021-06-18T17:06:04Z</time>
      </trkpt>
      <trkpt lat="42.568519" lon="1.092962">
        <ele>1429.218</ele>
        <time>2021-06-18T17:06:08Z</time>
      </trkpt>
      <trkpt lat="42.568441" lon="1.093023">
        <ele>1429.908</ele>
        <time>2021-06-18T17:06:12Z</time>
      </trkpt>
      <trkpt lat="42.568327" lon="1.093117">
        <ele>1430.943</ele>
        <time>2021-06-18T17:06:18Z</time>
      </trkpt>
      <trkpt lat="42.568286" lon="1.093145">
        <ele>1431.942</ele>
        <time>2021-06-18T17:06:20Z</time>
      </trkpt>
      <trkpt lat="42.568177" lon="1.093250">
        <ele>1433.418</ele>
        <time>2021-06-18T17:06:26Z</time>
      </trkpt>
      <trkpt lat="42.568141" lon="1.093284">
        <ele>1433.792</ele>
        <time>2021-06-18T17:06:28Z</time>
      </trkpt>
      <trkpt lat="42.568073" lon="1.093358">
        <ele>1433.966</ele>
        <time>2021-06-18T17:06:32Z</time>
      </trkpt>
      <trkpt lat="42.568040" lon="1.093398">
        <ele>1434.416</ele>
        <time>2021-06-18T17:06:34Z</time>
      </trkpt>
      <trkpt lat="42.567964" lon="1.093506">
        <ele>1435.859</ele>
        <time>2021-06-18T17:06:39Z</time>
      </trkpt>
      <trkpt lat="42.567917" lon="1.093568">
        <ele>1436.616</ele>
        <time>2021-06-18T17:06:42Z</time>
      </trkpt>
      <trkpt lat="42.567887" lon="1.093610">
        <ele>1436.989</ele>
        <time>2021-06-18T17:06:44Z</time>
      </trkpt>
      <trkpt lat="42.567829" lon="1.093696">
        <ele>1437.706</ele>
        <time>2021-06-18T17:06:48Z</time>
      </trkpt>
      <trkpt lat="42.567755" lon="1.093783">
        <ele>1439.226</ele>
        <time>2021-06-18T17:06:53Z</time>
      </trkpt>
      <trkpt lat="42.567741" lon="1.093799">
        <ele>1439.408</ele>
        <time>2021-06-18T17:06:54Z</time>
      </trkpt>
      <trkpt lat="42.567651" lon="1.093922">
        <ele>1439.855</ele>
        <time>2021-06-18T17:07:01Z</time>
      </trkpt>
      <trkpt lat="42.567638" lon="1.093940">
        <ele>1439.814</ele>
        <time>2021-06-18T17:07:02Z</time>
      </trkpt>
      <trkpt lat="42.567540" lon="1.094053">
        <ele>1440.560</ele>
        <time>2021-06-18T17:07:09Z</time>
      </trkpt>
      <trkpt lat="42.567505" lon="1.094073">
        <ele>1441.264</ele>
        <time>2021-06-18T17:07:11Z</time>
      </trkpt>
      <trkpt lat="42.567360" lon="1.094063">
        <ele>1440.478</ele>
        <time>2021-06-18T17:07:19Z</time>
      </trkpt>
      <trkpt lat="42.567344" lon="1.094051">
        <ele>1440.628</ele>
        <time>2021-06-18T17:07:20Z</time>
      </trkpt>
      <trkpt lat="42.567248" lon="1.093923">
        <ele>1442.571</ele>
        <time>2021-06-18T17:07:27Z</time>
      </trkpt>
      <trkpt lat="42.567111" lon="1.093727">
        <ele>1445.498</ele>
        <time>2021-06-18T17:07:37Z</time>
      </trkpt>
      <trkpt lat="42.567096" lon="1.093709">
        <ele>1445.559</ele>
        <time>2021-06-18T17:07:38Z</time>
      </trkpt>
      <trkpt lat="42.566981" lon="1.093567">
        <ele>1446.203</ele>
        <time>2021-06-18T17:07:46Z</time>
      </trkpt>
      <trkpt lat="42.566904" lon="1.093488">
        <ele>1446.423</ele>
        <time>2021-06-18T17:07:51Z</time>
      </trkpt>
      <trkpt lat="42.566843" lon="1.093423">
        <ele>1446.808</ele>
        <time>2021-06-18T17:07:55Z</time>
      </trkpt>
      <trkpt lat="42.566752" lon="1.093327">
        <ele>1447.042</ele>
        <time>2021-06-18T17:08:01Z</time>
      </trkpt>
      <trkpt lat="42.566700" lon="1.093290">
        <ele>1447.041</ele>
        <time>2021-06-18T17:08:04Z</time>
      </trkpt>
      <trkpt lat="42.566638" lon="1.093229">
        <ele>1447.797</ele>
        <time>2021-06-18T17:08:08Z</time>
      </trkpt>
      <trkpt lat="42.566577" lon="1.093167">
        <ele>1448.841</ele>
        <time>2021-06-18T17:08:12Z</time>
      </trkpt>
      <trkpt lat="42.566544" lon="1.093138">
        <ele>1449.185</ele>
        <time>2021-06-18T17:08:14Z</time>
      </trkpt>
      <trkpt lat="42.566474" lon="1.093095">
        <ele>1449.335</ele>
        <time>2021-06-18T17:08:18Z</time>
      </trkpt>
      <trkpt lat="42.566406" lon="1.093049">
        <ele>1449.418</ele>
        <time>2021-06-18T17:08:22Z</time>
      </trkpt>
      <trkpt lat="42.566389" lon="1.093037">
        <ele>1449.555</ele>
        <time>2021-06-18T17:08:23Z</time>
      </trkpt>
      <trkpt lat="42.566321" lon="1.092991">
        <ele>1450.649</ele>
        <time>2021-06-18T17:08:27Z</time>
      </trkpt>
      <trkpt lat="42.566228" lon="1.092949">
        <ele>1451.302</ele>
        <time>2021-06-18T17:08:32Z</time>
      </trkpt>
      <trkpt lat="42.566137" lon="1.092906">
        <ele>1451.922</ele>
        <time>2021-06-18T17:08:37Z</time>
      </trkpt>
      <trkpt lat="42.566066" lon="1.092858">
        <ele>1452.708</ele>
        <time>2021-06-18T17:08:41Z</time>
      </trkpt>
      <trkpt lat="42.565904" lon="1.092751">
        <ele>1453.531</ele>
        <time>2021-06-18T17:08:50Z</time>
      </trkpt>
      <trkpt lat="42.565738" lon="1.092737">
        <ele>1453.470</ele>
        <time>2021-06-18T17:08:57Z</time>
      </trkpt>
      <trkpt lat="42.565670" lon="1.092805">
        <ele>1452.726</ele>
        <time>2021-06-18T17:09:00Z</time>
      </trkpt>
      <trkpt lat="42.565661" lon="1.092845">
        <ele>1453.090</ele>
        <time>2021-06-18T17:09:01Z</time>
      </trkpt>
      <trkpt lat="42.565680" lon="1.093010">
        <ele>1453.674</ele>
        <time>2021-06-18T17:09:05Z</time>
      </trkpt>
      <trkpt lat="42.565710" lon="1.093068">
        <ele>1453.594</ele>
        <time>2021-06-18T17:09:07Z</time>
      </trkpt>
      <trkpt lat="42.565757" lon="1.093114">
        <ele>1453.687</ele>
        <time>2021-06-18T17:09:09Z</time>
      </trkpt>
      <trkpt lat="42.565837" lon="1.093228">
        <ele>1454.344</ele>
        <time>2021-06-18T17:09:13Z</time>
      </trkpt>
      <trkpt lat="42.565910" lon="1.093377">
        <ele>1454.792</ele>
        <time>2021-06-18T17:09:18Z</time>
      </trkpt>
      <trkpt lat="42.565935" lon="1.093561">
        <ele>1455.873</ele>
        <time>2021-06-18T17:09:24Z</time>
      </trkpt>
      <trkpt lat="42.565936" lon="1.093591">
        <ele>1456.120</ele>
        <time>2021-06-18T17:09:25Z</time>
      </trkpt>
      <trkpt lat="42.565937" lon="1.093757">
        <ele>1456.908</ele>
        <time>2021-06-18T17:09:31Z</time>
      </trkpt>
      <trkpt lat="42.565930" lon="1.093811">
        <ele>1457.596</ele>
        <time>2021-06-18T17:09:33Z</time>
      </trkpt>
      <trkpt lat="42.565916" lon="1.093890">
        <ele>1458.425</ele>
        <time>2021-06-18T17:09:36Z</time>
      </trkpt>
      <trkpt lat="42.565892" lon="1.094017">
        <ele>1459.791</ele>
        <time>2021-06-18T17:09:41Z</time>
      </trkpt>
      <trkpt lat="42.565890" lon="1.094047">
        <ele>1459.915</ele>
        <time>2021-06-18T17:09:42Z</time>
      </trkpt>
      <trkpt lat="42.565876" lon="1.094182">
        <ele>1460.849</ele>
        <time>2021-06-18T17:09:47Z</time>
      </trkpt>
      <trkpt lat="42.565863" lon="1.094235">
        <ele>1461.379</ele>
        <time>2021-06-18T17:09:49Z</time>
      </trkpt>
      <trkpt lat="42.565828" lon="1.094392">
        <ele>1462.482</ele>
        <time>2021-06-18T17:09:55Z</time>
      </trkpt>
      <trkpt lat="42.565824" lon="1.094421">
        <ele>1462.549</ele>
        <time>2021-06-18T17:09:56Z</time>
      </trkpt>
      <trkpt lat="42.565793" lon="1.094544">
        <ele>1463.593</ele>
        <time>2021-06-18T17:10:01Z</time>
      </trkpt>
      <trkpt lat="42.565788" lon="1.094567">
        <ele>1463.665</ele>
        <time>2021-06-18T17:10:02Z</time>
      </trkpt>
      <trkpt lat="42.565766" lon="1.094648">
        <ele>1464.221</ele>
        <time>2021-06-18T17:10:06Z</time>
      </trkpt>
      <trkpt lat="42.565757" lon="1.094689">
        <ele>1464.508</ele>
        <time>2021-06-18T17:10:08Z</time>
      </trkpt>
      <trkpt lat="42.565718" lon="1.094768">
        <ele>1465.386</ele>
        <time>2021-06-18T17:10:12Z</time>
      </trkpt>
      <trkpt lat="42.565702" lon="1.094804">
        <ele>1465.575</ele>
        <time>2021-06-18T17:10:14Z</time>
      </trkpt>
      <trkpt lat="42.565692" lon="1.094818">
        <ele>1465.751</ele>
        <time>2021-06-18T17:10:15Z</time>
      </trkpt>
      <trkpt lat="42.565679" lon="1.094832">
        <ele>1466.145</ele>
        <time>2021-06-18T17:10:16Z</time>
      </trkpt>
      <trkpt lat="42.565635" lon="1.094907">
        <ele>1466.979</ele>
        <time>2021-06-18T17:10:20Z</time>
      </trkpt>
      <trkpt lat="42.565623" lon="1.094930">
        <ele>1467.149</ele>
        <time>2021-06-18T17:10:21Z</time>
      </trkpt>
      <trkpt lat="42.565558" lon="1.095059">
        <ele>1468.022</ele>
        <time>2021-06-18T17:10:27Z</time>
      </trkpt>
      <trkpt lat="42.565482" lon="1.095181">
        <ele>1469.479</ele>
        <time>2021-06-18T17:10:33Z</time>
      </trkpt>
      <trkpt lat="42.565471" lon="1.095198">
        <ele>1469.687</ele>
        <time>2021-06-18T17:10:34Z</time>
      </trkpt>
      <trkpt lat="42.565393" lon="1.095302">
        <ele>1471.142</ele>
        <time>2021-06-18T17:10:40Z</time>
      </trkpt>
      <trkpt lat="42.565372" lon="1.095340">
        <ele>1471.426</ele>
        <time>2021-06-18T17:10:42Z</time>
      </trkpt>
      <trkpt lat="42.565321" lon="1.095439">
        <ele>1472.408</ele>
        <time>2021-06-18T17:10:47Z</time>
      </trkpt>
      <trkpt lat="42.565310" lon="1.095457">
        <ele>1472.665</ele>
        <time>2021-06-18T17:10:48Z</time>
      </trkpt>
      <trkpt lat="42.565282" lon="1.095513">
        <ele>1473.314</ele>
        <time>2021-06-18T17:10:51Z</time>
      </trkpt>
      <trkpt lat="42.565228" lon="1.095619">
        <ele>1474.430</ele>
        <time>2021-06-18T17:10:56Z</time>
      </trkpt>
      <trkpt lat="42.565216" lon="1.095640">
        <ele>1474.774</ele>
        <time>2021-06-18T17:10:57Z</time>
      </trkpt>
      <trkpt lat="42.565172" lon="1.095744">
        <ele>1475.288</ele>
        <time>2021-06-18T17:11:02Z</time>
      </trkpt>
      <trkpt lat="42.565156" lon="1.095807">
        <ele>1475.168</ele>
        <time>2021-06-18T17:11:05Z</time>
      </trkpt>
      <trkpt lat="42.565137" lon="1.095875">
        <ele>1474.941</ele>
        <time>2021-06-18T17:11:08Z</time>
      </trkpt>
      <trkpt lat="42.565109" lon="1.095962">
        <ele>1475.058</ele>
        <time>2021-06-18T17:11:12Z</time>
      </trkpt>
      <trkpt lat="42.565071" lon="1.096039">
        <ele>1475.965</ele>
        <time>2021-06-18T17:11:16Z</time>
      </trkpt>
      <trkpt lat="42.565054" lon="1.096082">
        <ele>1476.368</ele>
        <time>2021-06-18T17:11:18Z</time>
      </trkpt>
      <trkpt lat="42.565017" lon="1.096155">
        <ele>1477.514</ele>
        <time>2021-06-18T17:11:22Z</time>
      </trkpt>
      <trkpt lat="42.564990" lon="1.096218">
        <ele>1478.308</ele>
        <time>2021-06-18T17:11:25Z</time>
      </trkpt>
      <trkpt lat="42.564949" lon="1.096324">
        <ele>1478.993</ele>
        <time>2021-06-18T17:11:30Z</time>
      </trkpt>
      <trkpt lat="42.564942" lon="1.096347">
        <ele>1479.062</ele>
        <time>2021-06-18T17:11:31Z</time>
      </trkpt>
      <trkpt lat="42.564907" lon="1.096456">
        <ele>1479.988</ele>
        <time>2021-06-18T17:11:36Z</time>
      </trkpt>
      <trkpt lat="42.564902" lon="1.096478">
        <ele>1480.152</ele>
        <time>2021-06-18T17:11:37Z</time>
      </trkpt>
      <trkpt lat="42.564882" lon="1.096594">
        <ele>1480.876</ele>
        <time>2021-06-18T17:11:42Z</time>
      </trkpt>
      <trkpt lat="42.564872" lon="1.096669">
        <ele>1481.116</ele>
        <time>2021-06-18T17:11:45Z</time>
      </trkpt>
      <trkpt lat="42.564873" lon="1.096772">
        <ele>1481.489</ele>
        <time>2021-06-18T17:11:49Z</time>
      </trkpt>
      <trkpt lat="42.564880" lon="1.096884">
        <ele>1481.586</ele>
        <time>2021-06-18T17:11:53Z</time>
      </trkpt>
      <trkpt lat="42.564909" lon="1.097055">
        <ele>1482.261</ele>
        <time>2021-06-18T17:11:59Z</time>
      </trkpt>
      <trkpt lat="42.564913" lon="1.097142">
        <ele>1483.321</ele>
        <time>2021-06-18T17:12:02Z</time>
      </trkpt>
      <trkpt lat="42.564936" lon="1.097279">
        <ele>1484.413</ele>
        <time>2021-06-18T17:12:07Z</time>
      </trkpt>
      <trkpt lat="42.564944" lon="1.097335">
        <ele>1484.908</ele>
        <time>2021-06-18T17:12:09Z</time>
      </trkpt>
      <trkpt lat="42.564963" lon="1.097456">
        <ele>1485.983</ele>
        <time>2021-06-18T17:12:14Z</time>
      </trkpt>
      <trkpt lat="42.564965" lon="1.097506">
        <ele>1486.622</ele>
        <time>2021-06-18T17:12:16Z</time>
      </trkpt>
      <trkpt lat="42.564971" lon="1.097627">
        <ele>1487.228</ele>
        <time>2021-06-18T17:12:21Z</time>
      </trkpt>
      <trkpt lat="42.564971" lon="1.097695">
        <ele>1487.762</ele>
        <time>2021-06-18T17:12:24Z</time>
      </trkpt>
      <trkpt lat="42.564962" lon="1.097789">
        <ele>1488.616</ele>
        <time>2021-06-18T17:12:28Z</time>
      </trkpt>
      <trkpt lat="42.564948" lon="1.097880">
        <ele>1488.956</ele>
        <time>2021-06-18T17:12:32Z</time>
      </trkpt>
      <trkpt lat="42.564936" lon="1.097947">
        <ele>1489.319</ele>
        <time>2021-06-18T17:12:35Z</time>
      </trkpt>
      <trkpt lat="42.564912" lon="1.098043">
        <ele>1490.146</ele>
        <time>2021-06-18T17:12:39Z</time>
      </trkpt>
      <trkpt lat="42.564905" lon="1.098064">
        <ele>1490.413</ele>
        <time>2021-06-18T17:12:40Z</time>
      </trkpt>
      <trkpt lat="42.564861" lon="1.098207">
        <ele>1491.143</ele>
        <time>2021-06-18T17:12:46Z</time>
      </trkpt>
      <trkpt lat="42.564852" lon="1.098232">
        <ele>1491.407</ele>
        <time>2021-06-18T17:12:47Z</time>
      </trkpt>
      <trkpt lat="42.564823" lon="1.098321">
        <ele>1492.008</ele>
        <time>2021-06-18T17:12:51Z</time>
      </trkpt>
      <trkpt lat="42.564811" lon="1.098371">
        <ele>1492.378</ele>
        <time>2021-06-18T17:12:53Z</time>
      </trkpt>
      <trkpt lat="42.564785" lon="1.098458">
        <ele>1493.227</ele>
        <time>2021-06-18T17:12:57Z</time>
      </trkpt>
      <trkpt lat="42.564763" lon="1.098521">
        <ele>1494.153</ele>
        <time>2021-06-18T17:13:00Z</time>
      </trkpt>
      <trkpt lat="42.564727" lon="1.098613">
        <ele>1495.757</ele>
        <time>2021-06-18T17:13:04Z</time>
      </trkpt>
      <trkpt lat="42.564711" lon="1.098661">
        <ele>1495.861</ele>
        <time>2021-06-18T17:13:06Z</time>
      </trkpt>
      <trkpt lat="42.564677" lon="1.098721">
        <ele>1495.971</ele>
        <time>2021-06-18T17:13:09Z</time>
      </trkpt>
      <trkpt lat="42.564599" lon="1.098794">
        <ele>1496.534</ele>
        <time>2021-06-18T17:13:14Z</time>
      </trkpt>
      <trkpt lat="42.564480" lon="1.098800">
        <ele>1498.111</ele>
        <time>2021-06-18T17:13:21Z</time>
      </trkpt>
      <trkpt lat="42.564335" lon="1.098698">
        <ele>1499.157</ele>
        <time>2021-06-18T17:13:30Z</time>
      </trkpt>
      <trkpt lat="42.564325" lon="1.098676">
        <ele>1499.200</ele>
        <time>2021-06-18T17:13:31Z</time>
      </trkpt>
      <trkpt lat="42.564285" lon="1.098566">
        <ele>1499.620</ele>
        <time>2021-06-18T17:13:36Z</time>
      </trkpt>
      <trkpt lat="42.564278" lon="1.098494">
        <ele>1499.808</ele>
        <time>2021-06-18T17:13:39Z</time>
      </trkpt>
      <trkpt lat="42.564311" lon="1.098276">
        <ele>1500.782</ele>
        <time>2021-06-18T17:13:48Z</time>
      </trkpt>
      <trkpt lat="42.564320" lon="1.098254">
        <ele>1500.831</ele>
        <time>2021-06-18T17:13:49Z</time>
      </trkpt>
      <trkpt lat="42.564384" lon="1.098043">
        <ele>1501.317</ele>
        <time>2021-06-18T17:13:58Z</time>
      </trkpt>
      <trkpt lat="42.564416" lon="1.097847">
        <ele>1502.611</ele>
        <time>2021-06-18T17:14:06Z</time>
      </trkpt>
      <trkpt lat="42.564415" lon="1.097798">
        <ele>1503.055</ele>
        <time>2021-06-18T17:14:08Z</time>
      </trkpt>
      <trkpt lat="42.564384" lon="1.097592">
        <ele>1504.085</ele>
        <time>2021-06-18T17:14:16Z</time>
      </trkpt>
      <trkpt lat="42.564290" lon="1.097522">
        <ele>1505.068</ele>
        <time>2021-06-18T17:14:22Z</time>
      </trkpt>
      <trkpt lat="42.564220" lon="1.097497">
        <ele>1505.615</ele>
        <time>2021-06-18T17:14:26Z</time>
      </trkpt>
      <trkpt lat="42.564128" lon="1.097484">
        <ele>1506.318</ele>
        <time>2021-06-18T17:14:31Z</time>
      </trkpt>
      <trkpt lat="42.564036" lon="1.097470">
        <ele>1507.098</ele>
        <time>2021-06-18T17:14:36Z</time>
      </trkpt>
      <trkpt lat="42.564000" lon="1.097465">
        <ele>1507.317</ele>
        <time>2021-06-18T17:14:38Z</time>
      </trkpt>
      <trkpt lat="42.563966" lon="1.097458">
        <ele>1507.608</ele>
        <time>2021-06-18T17:14:40Z</time>
      </trkpt>
      <trkpt lat="42.563874" lon="1.097463">
        <ele>1508.368</ele>
        <time>2021-06-18T17:14:45Z</time>
      </trkpt>
      <trkpt lat="42.563856" lon="1.097467">
        <ele>1508.517</ele>
        <time>2021-06-18T17:14:46Z</time>
      </trkpt>
      <trkpt lat="42.563770" lon="1.097476">
        <ele>1509.473</ele>
        <time>2021-06-18T17:14:51Z</time>
      </trkpt>
      <trkpt lat="42.563627" lon="1.097541">
        <ele>1510.217</ele>
        <time>2021-06-18T17:14:59Z</time>
      </trkpt>
      <trkpt lat="42.563611" lon="1.097555">
        <ele>1510.271</ele>
        <time>2021-06-18T17:15:00Z</time>
      </trkpt>
      <trkpt lat="42.563500" lon="1.097701">
        <ele>1512.091</ele>
        <time>2021-06-18T17:15:09Z</time>
      </trkpt>
      <trkpt lat="42.563495" lon="1.097710">
        <ele>1512.164</ele>
        <time>2021-06-18T17:15:11Z</time>
      </trkpt>
      <trkpt lat="42.563459" lon="1.097744">
        <ele>1512.981</ele>
        <time>2021-06-18T17:16:13Z</time>
      </trkpt>
      <trkpt lat="42.563448" lon="1.097764">
        <ele>1513.015</ele>
        <time>2021-06-18T17:16:14Z</time>
      </trkpt>
      <trkpt lat="42.563377" lon="1.097960">
        <ele>1513.065</ele>
        <time>2021-06-18T17:16:22Z</time>
      </trkpt>
      <trkpt lat="42.563344" lon="1.098033">
        <ele>1513.011</ele>
        <time>2021-06-18T17:16:25Z</time>
      </trkpt>
      <trkpt lat="42.563293" lon="1.098148">
        <ele>1513.408</ele>
        <time>2021-06-18T17:16:30Z</time>
      </trkpt>
      <trkpt lat="42.563275" lon="1.098177">
        <ele>1513.738</ele>
        <time>2021-06-18T17:16:32Z</time>
      </trkpt>
      <trkpt lat="42.563235" lon="1.098242">
        <ele>1514.427</ele>
        <time>2021-06-18T17:16:36Z</time>
      </trkpt>
      <trkpt lat="42.563211" lon="1.098277">
        <ele>1514.993</ele>
        <time>2021-06-18T17:16:38Z</time>
      </trkpt>
      <trkpt lat="42.563157" lon="1.098369">
        <ele>1516.057</ele>
        <time>2021-06-18T17:16:43Z</time>
      </trkpt>
      <trkpt lat="42.563119" lon="1.098431">
        <ele>1516.741</ele>
        <time>2021-06-18T17:16:46Z</time>
      </trkpt>
      <trkpt lat="42.563071" lon="1.098514">
        <ele>1517.511</ele>
        <time>2021-06-18T17:16:50Z</time>
      </trkpt>
      <trkpt lat="42.563027" lon="1.098592">
        <ele>1518.564</ele>
        <time>2021-06-18T17:16:53Z</time>
      </trkpt>
      <trkpt lat="42.562992" lon="1.098666">
        <ele>1519.541</ele>
        <time>2021-06-18T17:16:56Z</time>
      </trkpt>
      <trkpt lat="42.562966" lon="1.098765">
        <ele>1519.754</ele>
        <time>2021-06-18T17:17:00Z</time>
      </trkpt>
      <trkpt lat="42.562954" lon="1.098785">
        <ele>1520.056</ele>
        <time>2021-06-18T17:17:01Z</time>
      </trkpt>
      <trkpt lat="42.562878" lon="1.098914">
        <ele>1521.711</ele>
        <time>2021-06-18T17:17:08Z</time>
      </trkpt>
      <trkpt lat="42.562866" lon="1.098932">
        <ele>1521.908</ele>
        <time>2021-06-18T17:17:09Z</time>
      </trkpt>
      <trkpt lat="42.562839" lon="1.098968">
        <ele>1522.452</ele>
        <time>2021-06-18T17:17:11Z</time>
      </trkpt>
      <trkpt lat="42.562805" lon="1.099024">
        <ele>1523.021</ele>
        <time>2021-06-18T17:17:14Z</time>
      </trkpt>
      <trkpt lat="42.562793" lon="1.099039">
        <ele>1523.247</ele>
        <time>2021-06-18T17:17:15Z</time>
      </trkpt>
      <trkpt lat="42.562754" lon="1.099105">
        <ele>1523.821</ele>
        <time>2021-06-18T17:17:19Z</time>
      </trkpt>
      <trkpt lat="42.562718" lon="1.099148">
        <ele>1524.685</ele>
        <time>2021-06-18T17:17:22Z</time>
      </trkpt>
      <trkpt lat="42.562704" lon="1.099164">
        <ele>1525.095</ele>
        <time>2021-06-18T17:17:23Z</time>
      </trkpt>
      <trkpt lat="42.562617" lon="1.099304">
        <ele>1525.918</ele>
        <time>2021-06-18T17:17:30Z</time>
      </trkpt>
      <trkpt lat="42.562553" lon="1.099393">
        <ele>1526.835</ele>
        <time>2021-06-18T17:17:35Z</time>
      </trkpt>
      <trkpt lat="42.562534" lon="1.099429">
        <ele>1526.912</ele>
        <time>2021-06-18T17:17:37Z</time>
      </trkpt>
      <trkpt lat="42.562480" lon="1.099550">
        <ele>1527.232</ele>
        <time>2021-06-18T17:17:44Z</time>
      </trkpt>
      <trkpt lat="42.562458" lon="1.099586">
        <ele>1527.405</ele>
        <time>2021-06-18T17:17:46Z</time>
      </trkpt>
      <trkpt lat="42.562382" lon="1.099694">
        <ele>1528.308</ele>
        <time>2021-06-18T17:17:52Z</time>
      </trkpt>
      <trkpt lat="42.562290" lon="1.099801">
        <ele>1529.498</ele>
        <time>2021-06-18T17:17:59Z</time>
      </trkpt>
      <trkpt lat="42.562278" lon="1.099816">
        <ele>1529.567</ele>
        <time>2021-06-18T17:18:00Z</time>
      </trkpt>
      <trkpt lat="42.562200" lon="1.099892">
        <ele>1530.683</ele>
        <time>2021-06-18T17:18:06Z</time>
      </trkpt>
      <trkpt lat="42.562169" lon="1.099918">
        <ele>1531.127</ele>
        <time>2021-06-18T17:18:08Z</time>
      </trkpt>
      <trkpt lat="42.562106" lon="1.099962">
        <ele>1532.171</ele>
        <time>2021-06-18T17:18:12Z</time>
      </trkpt>
      <trkpt lat="42.562073" lon="1.099982">
        <ele>1532.761</ele>
        <time>2021-06-18T17:18:14Z</time>
      </trkpt>
      <trkpt lat="42.561995" lon="1.100030">
        <ele>1533.914</ele>
        <time>2021-06-18T17:18:19Z</time>
      </trkpt>
      <trkpt lat="42.561979" lon="1.100039">
        <ele>1534.281</ele>
        <time>2021-06-18T17:18:20Z</time>
      </trkpt>
      <trkpt lat="42.561877" lon="1.100110">
        <ele>1535.393</ele>
        <time>2021-06-18T17:18:26Z</time>
      </trkpt>
      <trkpt lat="42.561859" lon="1.100123">
        <ele>1535.565</ele>
        <time>2021-06-18T17:18:27Z</time>
      </trkpt>
      <trkpt lat="42.561785" lon="1.100177">
        <ele>1536.221</ele>
        <time>2021-06-18T17:18:32Z</time>
      </trkpt>
      <trkpt lat="42.561753" lon="1.100190">
        <ele>1536.708</ele>
        <time>2021-06-18T17:18:34Z</time>
      </trkpt>
      <trkpt lat="42.561722" lon="1.100214">
        <ele>1537.016</ele>
        <time>2021-06-18T17:18:36Z</time>
      </trkpt>
      <trkpt lat="42.561665" lon="1.100255">
        <ele>1537.565</ele>
        <time>2021-06-18T17:18:40Z</time>
      </trkpt>
      <trkpt lat="42.561650" lon="1.100260">
        <ele>1537.711</ele>
        <time>2021-06-18T17:18:41Z</time>
      </trkpt>
      <trkpt lat="42.561561" lon="1.100292">
        <ele>1538.625</ele>
        <time>2021-06-18T17:18:47Z</time>
      </trkpt>
      <trkpt lat="42.561534" lon="1.100298">
        <ele>1539.059</ele>
        <time>2021-06-18T17:18:49Z</time>
      </trkpt>
      <trkpt lat="42.561466" lon="1.100310">
        <ele>1539.969</ele>
        <time>2021-06-18T17:18:53Z</time>
      </trkpt>
      <trkpt lat="42.561437" lon="1.100334">
        <ele>1539.952</ele>
        <time>2021-06-18T17:18:55Z</time>
      </trkpt>
      <trkpt lat="42.561383" lon="1.100387">
        <ele>1539.759</ele>
        <time>2021-06-18T17:19:00Z</time>
      </trkpt>
      <trkpt lat="42.561384" lon="1.100399">
        <ele>1539.591</ele>
        <time>2021-06-18T17:19:01Z</time>
      </trkpt>
      <trkpt lat="42.561274" lon="1.100497">
        <ele>1539.381</ele>
        <time>2021-06-18T17:19:57Z</time>
      </trkpt>
      <trkpt lat="42.561200" lon="1.100502">
        <ele>1540.619</ele>
        <time>2021-06-18T17:20:01Z</time>
      </trkpt>
      <trkpt lat="42.561101" lon="1.100516">
        <ele>1541.908</ele>
        <time>2021-06-18T17:20:07Z</time>
      </trkpt>
      <trkpt lat="42.561086" lon="1.100516">
        <ele>1542.186</ele>
        <time>2021-06-18T17:20:08Z</time>
      </trkpt>
      <trkpt lat="42.561033" lon="1.100499">
        <ele>1542.945</ele>
        <time>2021-06-18T17:20:12Z</time>
      </trkpt>
      <trkpt lat="42.561008" lon="1.100496">
        <ele>1543.211</ele>
        <time>2021-06-18T17:20:14Z</time>
      </trkpt>
      <trkpt lat="42.560959" lon="1.100481">
        <ele>1544.045</ele>
        <time>2021-06-18T17:20:17Z</time>
      </trkpt>
      <trkpt lat="42.560893" lon="1.100467">
        <ele>1545.049</ele>
        <time>2021-06-18T17:20:21Z</time>
      </trkpt>
      <trkpt lat="42.560877" lon="1.100468">
        <ele>1545.159</ele>
        <time>2021-06-18T17:20:22Z</time>
      </trkpt>
      <trkpt lat="42.560747" lon="1.100459">
        <ele>1546.562</ele>
        <time>2021-06-18T17:20:29Z</time>
      </trkpt>
      <trkpt lat="42.560726" lon="1.100464">
        <ele>1546.559</ele>
        <time>2021-06-18T17:20:30Z</time>
      </trkpt>
      <trkpt lat="42.560604" lon="1.100457">
        <ele>1547.718</ele>
        <time>2021-06-18T17:20:36Z</time>
      </trkpt>
      <trkpt lat="42.560555" lon="1.100391">
        <ele>1549.698</ele>
        <time>2021-06-18T17:20:40Z</time>
      </trkpt>
      <trkpt lat="42.560556" lon="1.100349">
        <ele>1550.517</ele>
        <time>2021-06-18T17:20:42Z</time>
      </trkpt>
      <trkpt lat="42.560586" lon="1.100294">
        <ele>1551.508</ele>
        <time>2021-06-18T17:20:45Z</time>
      </trkpt>
      <trkpt lat="42.560635" lon="1.100247">
        <ele>1552.658</ele>
        <time>2021-06-18T17:20:49Z</time>
      </trkpt>
      <trkpt lat="42.560725" lon="1.100220">
        <ele>1553.017</ele>
        <time>2021-06-18T17:20:55Z</time>
      </trkpt>
      <trkpt lat="42.560741" lon="1.100216">
        <ele>1553.033</ele>
        <time>2021-06-18T17:20:56Z</time>
      </trkpt>
      <trkpt lat="42.560795" lon="1.100202">
        <ele>1553.197</ele>
        <time>2021-06-18T17:20:59Z</time>
      </trkpt>
      <trkpt lat="42.560856" lon="1.100185">
        <ele>1553.091</ele>
        <time>2021-06-18T17:21:03Z</time>
      </trkpt>
      <trkpt lat="42.560884" lon="1.100173">
        <ele>1552.991</ele>
        <time>2021-06-18T17:21:05Z</time>
      </trkpt>
      <trkpt lat="42.560939" lon="1.100138">
        <ele>1553.074</ele>
        <time>2021-06-18T17:21:09Z</time>
      </trkpt>
      <trkpt lat="42.560976" lon="1.100094">
        <ele>1553.661</ele>
        <time>2021-06-18T17:21:12Z</time>
      </trkpt>
      <trkpt lat="42.561024" lon="1.100068">
        <ele>1553.518</ele>
        <time>2021-06-18T17:21:15Z</time>
      </trkpt>
      <trkpt lat="42.561072" lon="1.100004">
        <ele>1554.598</ele>
        <time>2021-06-18T17:21:19Z</time>
      </trkpt>
      <trkpt lat="42.561097" lon="1.099968">
        <ele>1555.017</ele>
        <time>2021-06-18T17:21:21Z</time>
      </trkpt>
      <trkpt lat="42.561158" lon="1.099872">
        <ele>1556.308</ele>
        <time>2021-06-18T17:21:27Z</time>
      </trkpt>
      <trkpt lat="42.561166" lon="1.099853">
        <ele>1556.648</ele>
        <time>2021-06-18T17:21:28Z</time>
      </trkpt>
      <trkpt lat="42.561196" lon="1.099806">
        <ele>1557.157</ele>
        <time>2021-06-18T17:21:32Z</time>
      </trkpt>
      <trkpt lat="42.561212" lon="1.099785">
        <ele>1557.353</ele>
        <time>2021-06-18T17:21:34Z</time>
      </trkpt>
      <trkpt lat="42.561243" lon="1.099742">
        <ele>1557.767</ele>
        <time>2021-06-18T17:21:38Z</time>
      </trkpt>
      <trkpt lat="42.561264" lon="1.099717">
        <ele>1557.971</ele>
        <time>2021-06-18T17:21:40Z</time>
      </trkpt>
      <trkpt lat="42.561321" lon="1.099617">
        <ele>1559.721</ele>
        <time>2021-06-18T17:21:46Z</time>
      </trkpt>
      <trkpt lat="42.561356" lon="1.099553">
        <ele>1560.764</ele>
        <time>2021-06-18T17:21:50Z</time>
      </trkpt>
      <trkpt lat="42.561372" lon="1.099538">
        <ele>1560.881</ele>
        <time>2021-06-18T17:21:51Z</time>
      </trkpt>
      <trkpt lat="42.561454" lon="1.099420">
        <ele>1561.859</ele>
        <time>2021-06-18T17:21:57Z</time>
      </trkpt>
      <trkpt lat="42.561468" lon="1.099392">
        <ele>1562.103</ele>
        <time>2021-06-18T17:21:58Z</time>
      </trkpt>
      <trkpt lat="42.561524" lon="1.099251">
        <ele>1564.023</ele>
        <time>2021-06-18T17:22:04Z</time>
      </trkpt>
      <trkpt lat="42.561591" lon="1.099137">
        <ele>1564.408</ele>
        <time>2021-06-18T17:22:10Z</time>
      </trkpt>
      <trkpt lat="42.561601" lon="1.099125">
        <ele>1564.372</ele>
        <time>2021-06-18T17:22:11Z</time>
      </trkpt>
      <trkpt lat="42.561619" lon="1.099080">
        <ele>1564.661</ele>
        <time>2021-06-18T17:22:14Z</time>
      </trkpt>
      <trkpt lat="42.561628" lon="1.099041">
        <ele>1565.127</ele>
        <time>2021-06-18T17:22:16Z</time>
      </trkpt>
      <trkpt lat="42.561634" lon="1.099016">
        <ele>1565.451</ele>
        <time>2021-06-18T17:22:17Z</time>
      </trkpt>
      <trkpt lat="42.561643" lon="1.098996">
        <ele>1565.535</ele>
        <time>2021-06-18T17:22:18Z</time>
      </trkpt>
      <trkpt lat="42.561671" lon="1.098937">
        <ele>1565.815</ele>
        <time>2021-06-18T17:22:21Z</time>
      </trkpt>
      <trkpt lat="42.561693" lon="1.098890">
        <ele>1566.058</ele>
        <time>2021-06-18T17:22:23Z</time>
      </trkpt>
      <trkpt lat="42.561707" lon="1.098846">
        <ele>1566.335</ele>
        <time>2021-06-18T17:22:25Z</time>
      </trkpt>
      <trkpt lat="42.561715" lon="1.098831">
        <ele>1566.351</ele>
        <time>2021-06-18T17:22:26Z</time>
      </trkpt>
      <trkpt lat="42.561728" lon="1.098798">
        <ele>1566.401</ele>
        <time>2021-06-18T17:22:28Z</time>
      </trkpt>
      <trkpt lat="42.561740" lon="1.098761">
        <ele>1566.511</ele>
        <time>2021-06-18T17:22:30Z</time>
      </trkpt>
      <trkpt lat="42.561751" lon="1.098671">
        <ele>1567.608</ele>
        <time>2021-06-18T17:22:34Z</time>
      </trkpt>
      <trkpt lat="42.561760" lon="1.098649">
        <ele>1567.712</ele>
        <time>2021-06-18T17:22:35Z</time>
      </trkpt>
      <trkpt lat="42.561797" lon="1.098529">
        <ele>1568.071</ele>
        <time>2021-06-18T17:22:40Z</time>
      </trkpt>
      <trkpt lat="42.561816" lon="1.098477">
        <ele>1568.097</ele>
        <time>2021-06-18T17:22:42Z</time>
      </trkpt>
      <trkpt lat="42.561833" lon="1.098404">
        <ele>1568.411</ele>
        <time>2021-06-18T17:22:45Z</time>
      </trkpt>
      <trkpt lat="42.561843" lon="1.098374">
        <ele>1568.435</ele>
        <time>2021-06-18T17:22:46Z</time>
      </trkpt>
      <trkpt lat="42.561849" lon="1.098347">
        <ele>1568.695</ele>
        <time>2021-06-18T17:22:47Z</time>
      </trkpt>
      <trkpt lat="42.561869" lon="1.098200">
        <ele>1569.868</ele>
        <time>2021-06-18T17:22:53Z</time>
      </trkpt>
      <trkpt lat="42.561869" lon="1.098176">
        <ele>1570.175</ele>
        <time>2021-06-18T17:22:54Z</time>
      </trkpt>
      <trkpt lat="42.561875" lon="1.098089">
        <ele>1571.016</ele>
        <time>2021-06-18T17:22:58Z</time>
      </trkpt>
      <trkpt lat="42.561876" lon="1.098042">
        <ele>1571.676</ele>
        <time>2021-06-18T17:23:00Z</time>
      </trkpt>
      <trkpt lat="42.561865" lon="1.097942">
        <ele>1572.813</ele>
        <time>2021-06-18T17:23:04Z</time>
      </trkpt>
      <trkpt lat="42.561855" lon="1.097863">
        <ele>1573.808</ele>
        <time>2021-06-18T17:23:07Z</time>
      </trkpt>
      <trkpt lat="42.561835" lon="1.097791">
        <ele>1575.268</ele>
        <time>2021-06-18T17:23:10Z</time>
      </trkpt>
      <trkpt lat="42.561830" lon="1.097720">
        <ele>1576.157</ele>
        <time>2021-06-18T17:23:13Z</time>
      </trkpt>
      <trkpt lat="42.561827" lon="1.097674">
        <ele>1576.683</ele>
        <time>2021-06-18T17:23:15Z</time>
      </trkpt>
      <trkpt lat="42.561833" lon="1.097548">
        <ele>1577.667</ele>
        <time>2021-06-18T17:23:20Z</time>
      </trkpt>
      <trkpt lat="42.561841" lon="1.097473">
        <ele>1578.021</ele>
        <time>2021-06-18T17:23:24Z</time>
      </trkpt>
      <trkpt lat="42.561849" lon="1.097459">
        <ele>1577.871</ele>
        <time>2021-06-18T17:23:25Z</time>
      </trkpt>
      <trkpt lat="42.561854" lon="1.097446">
        <ele>1577.754</ele>
        <time>2021-06-18T17:23:26Z</time>
      </trkpt>
      <trkpt lat="42.561858" lon="1.097428">
        <ele>1577.751</ele>
        <time>2021-06-18T17:23:27Z</time>
      </trkpt>
      <trkpt lat="42.561856" lon="1.097370">
        <ele>1578.377</ele>
        <time>2021-06-18T17:23:30Z</time>
      </trkpt>
      <trkpt lat="42.561865" lon="1.097338">
        <ele>1578.261</ele>
        <time>2021-06-18T17:23:32Z</time>
      </trkpt>
      <trkpt lat="42.561890" lon="1.097281">
        <ele>1577.727</ele>
        <time>2021-06-18T17:23:35Z</time>
      </trkpt>
      <trkpt lat="42.561895" lon="1.097261">
        <ele>1577.708</ele>
        <time>2021-06-18T17:23:36Z</time>
      </trkpt>
      <trkpt lat="42.561894" lon="1.097243">
        <ele>1577.874</ele>
        <time>2021-06-18T17:23:37Z</time>
      </trkpt>
      <trkpt lat="42.561896" lon="1.097131">
        <ele>1578.663</ele>
        <time>2021-06-18T17:23:42Z</time>
      </trkpt>
      <trkpt lat="42.561898" lon="1.097099">
        <ele>1578.719</ele>
        <time>2021-06-18T17:23:43Z</time>
      </trkpt>
      <trkpt lat="42.561896" lon="1.096971">
        <ele>1579.753</ele>
        <time>2021-06-18T17:23:48Z</time>
      </trkpt>
      <trkpt lat="42.561890" lon="1.096942">
        <ele>1580.247</ele>
        <time>2021-06-18T17:23:49Z</time>
      </trkpt>
      <trkpt lat="42.561881" lon="1.096781">
        <ele>1582.197</ele>
        <time>2021-06-18T17:23:55Z</time>
      </trkpt>
      <trkpt lat="42.561883" lon="1.096705">
        <ele>1582.830</ele>
        <time>2021-06-18T17:23:59Z</time>
      </trkpt>
      <trkpt lat="42.561885" lon="1.096701">
        <ele>1582.877</ele>
        <time>2021-06-18T17:24:00Z</time>
      </trkpt>
      <trkpt lat="42.561862" lon="1.096489">
        <ele>1585.231</ele>
        <time>2021-06-18T17:25:53Z</time>
      </trkpt>
      <trkpt lat="42.561853" lon="1.096422">
        <ele>1586.161</ele>
        <time>2021-06-18T17:25:56Z</time>
      </trkpt>
      <trkpt lat="42.561846" lon="1.096291">
        <ele>1586.907</ele>
        <time>2021-06-18T17:26:02Z</time>
      </trkpt>
      <trkpt lat="42.561843" lon="1.096268">
        <ele>1587.108</ele>
        <time>2021-06-18T17:26:03Z</time>
      </trkpt>
      <trkpt lat="42.561822" lon="1.096131">
        <ele>1588.380</ele>
        <time>2021-06-18T17:26:09Z</time>
      </trkpt>
      <trkpt lat="42.561824" lon="1.096107">
        <ele>1588.469</ele>
        <time>2021-06-18T17:26:10Z</time>
      </trkpt>
      <trkpt lat="42.561825" lon="1.095958">
        <ele>1589.435</ele>
        <time>2021-06-18T17:26:17Z</time>
      </trkpt>
      <trkpt lat="42.561810" lon="1.095858">
        <ele>1590.759</ele>
        <time>2021-06-18T17:26:22Z</time>
      </trkpt>
      <trkpt lat="42.561803" lon="1.095799">
        <ele>1591.233</ele>
        <time>2021-06-18T17:26:25Z</time>
      </trkpt>
      <trkpt lat="42.561802" lon="1.095753">
        <ele>1591.463</ele>
        <time>2021-06-18T17:26:27Z</time>
      </trkpt>
      <trkpt lat="42.561788" lon="1.095661">
        <ele>1592.316</ele>
        <time>2021-06-18T17:26:31Z</time>
      </trkpt>
      <trkpt lat="42.561784" lon="1.095640">
        <ele>1592.543</ele>
        <time>2021-06-18T17:26:32Z</time>
      </trkpt>
      <trkpt lat="42.561761" lon="1.095547">
        <ele>1593.644</ele>
        <time>2021-06-18T17:26:37Z</time>
      </trkpt>
      <trkpt lat="42.561749" lon="1.095500">
        <ele>1593.905</ele>
        <time>2021-06-18T17:26:40Z</time>
      </trkpt>
      <trkpt lat="42.561722" lon="1.095436">
        <ele>1594.715</ele>
        <time>2021-06-18T17:26:44Z</time>
      </trkpt>
      <trkpt lat="42.561690" lon="1.095374">
        <ele>1595.608</ele>
        <time>2021-06-18T17:26:48Z</time>
      </trkpt>
      <trkpt lat="42.561664" lon="1.095342">
        <ele>1596.341</ele>
        <time>2021-06-18T17:26:50Z</time>
      </trkpt>
      <trkpt lat="42.561594" lon="1.095244">
        <ele>1597.450</ele>
        <time>2021-06-18T17:26:55Z</time>
      </trkpt>
      <trkpt lat="42.561564" lon="1.095212">
        <ele>1597.626</ele>
        <time>2021-06-18T17:26:57Z</time>
      </trkpt>
      <trkpt lat="42.561536" lon="1.095171">
        <ele>1597.690</ele>
        <time>2021-06-18T17:27:00Z</time>
      </trkpt>
      <trkpt lat="42.561446" lon="1.095102">
        <ele>1599.184</ele>
        <time>2021-06-18T17:27:06Z</time>
      </trkpt>
      <trkpt lat="42.561394" lon="1.095064">
        <ele>1600.074</ele>
        <time>2021-06-18T17:27:09Z</time>
      </trkpt>
      <trkpt lat="42.561354" lon="1.095021">
        <ele>1600.617</ele>
        <time>2021-06-18T17:27:12Z</time>
      </trkpt>
      <trkpt lat="42.561273" lon="1.094922">
        <ele>1601.884</ele>
        <time>2021-06-18T17:27:19Z</time>
      </trkpt>
      <trkpt lat="42.561195" lon="1.094833">
        <ele>1603.012</ele>
        <time>2021-06-18T17:27:25Z</time>
      </trkpt>
      <trkpt lat="42.561114" lon="1.094750">
        <ele>1604.432</ele>
        <time>2021-06-18T17:27:31Z</time>
      </trkpt>
      <trkpt lat="42.561086" lon="1.094716">
        <ele>1605.005</ele>
        <time>2021-06-18T17:27:33Z</time>
      </trkpt>
      <trkpt lat="42.561043" lon="1.094644">
        <ele>1605.808</ele>
        <time>2021-06-18T17:27:37Z</time>
      </trkpt>
      <trkpt lat="42.561002" lon="1.094562">
        <ele>1606.438</ele>
        <time>2021-06-18T17:27:41Z</time>
      </trkpt>
      <trkpt lat="42.560992" lon="1.094541">
        <ele>1606.577</ele>
        <time>2021-06-18T17:27:42Z</time>
      </trkpt>
      <trkpt lat="42.560943" lon="1.094442">
        <ele>1607.273</ele>
        <time>2021-06-18T17:27:47Z</time>
      </trkpt>
      <trkpt lat="42.560933" lon="1.094424">
        <ele>1607.537</ele>
        <time>2021-06-18T17:27:48Z</time>
      </trkpt>
      <trkpt lat="42.560896" lon="1.094329">
        <ele>1608.071</ele>
        <time>2021-06-18T17:27:53Z</time>
      </trkpt>
      <trkpt lat="42.560881" lon="1.094286">
        <ele>1608.221</ele>
        <time>2021-06-18T17:27:55Z</time>
      </trkpt>
      <trkpt lat="42.560823" lon="1.094173">
        <ele>1609.554</ele>
        <time>2021-06-18T17:28:01Z</time>
      </trkpt>
      <trkpt lat="42.560811" lon="1.094129">
        <ele>1609.721</ele>
        <time>2021-06-18T17:28:03Z</time>
      </trkpt>
      <trkpt lat="42.560776" lon="1.094045">
        <ele>1610.458</ele>
        <time>2021-06-18T17:28:07Z</time>
      </trkpt>
      <trkpt lat="42.560748" lon="1.093983">
        <ele>1611.052</ele>
        <time>2021-06-18T17:28:10Z</time>
      </trkpt>
      <trkpt lat="42.560723" lon="1.093891">
        <ele>1611.017</ele>
        <time>2021-06-18T17:28:14Z</time>
      </trkpt>
      <trkpt lat="42.560706" lon="1.093852">
        <ele>1611.408</ele>
        <time>2021-06-18T17:28:16Z</time>
      </trkpt>
      <trkpt lat="42.560691" lon="1.093840">
        <ele>1611.912</ele>
        <time>2021-06-18T17:28:17Z</time>
      </trkpt>
      <trkpt lat="42.560641" lon="1.093870">
        <ele>1613.821</ele>
        <time>2021-06-18T17:28:21Z</time>
      </trkpt>
      <trkpt lat="42.560626" lon="1.093903">
        <ele>1614.627</ele>
        <time>2021-06-18T17:28:23Z</time>
      </trkpt>
      <trkpt lat="42.560624" lon="1.093935">
        <ele>1615.141</ele>
        <time>2021-06-18T17:28:26Z</time>
      </trkpt>
      <trkpt lat="42.560625" lon="1.093935">
        <ele>1615.185</ele>
        <time>2021-06-18T17:28:27Z</time>
      </trkpt>
      <trkpt lat="42.560643" lon="1.093993">
        <ele>1615.155</ele>
        <time>2021-06-18T17:32:34Z</time>
      </trkpt>
      <trkpt lat="42.560664" lon="1.094049">
        <ele>1615.018</ele>
        <time>2021-06-18T17:32:37Z</time>
      </trkpt>
      <trkpt lat="42.560678" lon="1.094093">
        <ele>1614.965</ele>
        <time>2021-06-18T17:32:39Z</time>
      </trkpt>
      <trkpt lat="42.560723" lon="1.094211">
        <ele>1614.245</ele>
        <time>2021-06-18T17:32:45Z</time>
      </trkpt>
      <trkpt lat="42.560748" lon="1.094339">
        <ele>1614.547</ele>
        <time>2021-06-18T17:32:51Z</time>
      </trkpt>
      <trkpt lat="42.560751" lon="1.094370">
        <ele>1614.811</ele>
        <time>2021-06-18T17:32:53Z</time>
      </trkpt>
      <trkpt lat="42.560762" lon="1.094448">
        <ele>1615.108</ele>
        <time>2021-06-18T17:32:58Z</time>
      </trkpt>
      <trkpt lat="42.560773" lon="1.094497">
        <ele>1615.311</ele>
        <time>2021-06-18T17:33:01Z</time>
      </trkpt>
      <trkpt lat="42.560777" lon="1.094552">
        <ele>1615.920</ele>
        <time>2021-06-18T17:33:04Z</time>
      </trkpt>
      <trkpt lat="42.560773" lon="1.094615">
        <ele>1616.966</ele>
        <time>2021-06-18T17:33:08Z</time>
      </trkpt>
      <trkpt lat="42.560767" lon="1.094648">
        <ele>1617.620</ele>
        <time>2021-06-18T17:33:10Z</time>
      </trkpt>
      <trkpt lat="42.560770" lon="1.094685">
        <ele>1618.084</ele>
        <time>2021-06-18T17:33:12Z</time>
      </trkpt>
      <trkpt lat="42.560780" lon="1.094724">
        <ele>1618.194</ele>
        <time>2021-06-18T17:33:14Z</time>
      </trkpt>
      <trkpt lat="42.560783" lon="1.094789">
        <ele>1618.457</ele>
        <time>2021-06-18T17:33:17Z</time>
      </trkpt>
      <trkpt lat="42.560783" lon="1.094831">
        <ele>1618.744</ele>
        <time>2021-06-18T17:33:20Z</time>
      </trkpt>
      <trkpt lat="42.560785" lon="1.094879">
        <ele>1618.933</ele>
        <time>2021-06-18T17:33:23Z</time>
      </trkpt>
      <trkpt lat="42.560788" lon="1.094893">
        <ele>1618.923</ele>
        <time>2021-06-18T17:33:24Z</time>
      </trkpt>
      <trkpt lat="42.560792" lon="1.094924">
        <ele>1619.015</ele>
        <time>2021-06-18T17:33:26Z</time>
      </trkpt>
      <trkpt lat="42.560793" lon="1.094937">
        <ele>1619.008</ele>
        <time>2021-06-18T17:33:27Z</time>
      </trkpt>
      <trkpt lat="42.560807" lon="1.095046">
        <ele>1619.410</ele>
        <time>2021-06-18T17:33:32Z</time>
      </trkpt>
      <trkpt lat="42.560818" lon="1.095087">
        <ele>1619.599</ele>
        <time>2021-06-18T17:33:34Z</time>
      </trkpt>
      <trkpt lat="42.560819" lon="1.095105">
        <ele>1619.615</ele>
        <time>2021-06-18T17:33:35Z</time>
      </trkpt>
      <trkpt lat="42.560827" lon="1.095199">
        <ele>1620.439</ele>
        <time>2021-06-18T17:33:39Z</time>
      </trkpt>
      <trkpt lat="42.560832" lon="1.095219">
        <ele>1620.463</ele>
        <time>2021-06-18T17:33:40Z</time>
      </trkpt>
      <trkpt lat="42.560845" lon="1.095363">
        <ele>1621.553</ele>
        <time>2021-06-18T17:33:46Z</time>
      </trkpt>
      <trkpt lat="42.560842" lon="1.095414">
        <ele>1622.256</ele>
        <time>2021-06-18T17:33:48Z</time>
      </trkpt>
      <trkpt lat="42.560840" lon="1.095510">
        <ele>1623.343</ele>
        <time>2021-06-18T17:33:52Z</time>
      </trkpt>
      <trkpt lat="42.560838" lon="1.095556">
        <ele>1623.922</ele>
        <time>2021-06-18T17:33:54Z</time>
      </trkpt>
      <trkpt lat="42.560845" lon="1.095656">
        <ele>1624.362</ele>
        <time>2021-06-18T17:33:58Z</time>
      </trkpt>
      <trkpt lat="42.560845" lon="1.095699">
        <ele>1624.608</ele>
        <time>2021-06-18T17:34:00Z</time>
      </trkpt>
      <trkpt lat="42.560838" lon="1.095817">
        <ele>1625.708</ele>
        <time>2021-06-18T17:34:05Z</time>
      </trkpt>
      <trkpt lat="42.560831" lon="1.095861">
        <ele>1626.219</ele>
        <time>2021-06-18T17:34:07Z</time>
      </trkpt>
      <trkpt lat="42.560809" lon="1.095958">
        <ele>1627.278</ele>
        <time>2021-06-18T17:34:12Z</time>
      </trkpt>
      <trkpt lat="42.560797" lon="1.096025">
        <ele>1627.994</ele>
        <time>2021-06-18T17:34:15Z</time>
      </trkpt>
      <trkpt lat="42.560785" lon="1.096057">
        <ele>1628.468</ele>
        <time>2021-06-18T17:34:17Z</time>
      </trkpt>
      <trkpt lat="42.560779" lon="1.096075">
        <ele>1628.662</ele>
        <time>2021-06-18T17:34:18Z</time>
      </trkpt>
      <trkpt lat="42.560766" lon="1.096160">
        <ele>1629.142</ele>
        <time>2021-06-18T17:34:22Z</time>
      </trkpt>
      <trkpt lat="42.560758" lon="1.096202">
        <ele>1629.335</ele>
        <time>2021-06-18T17:34:24Z</time>
      </trkpt>
      <trkpt lat="42.560752" lon="1.096222">
        <ele>1629.552</ele>
        <time>2021-06-18T17:34:25Z</time>
      </trkpt>
      <trkpt lat="42.560732" lon="1.096290">
        <ele>1630.182</ele>
        <time>2021-06-18T17:34:28Z</time>
      </trkpt>
      <trkpt lat="42.560726" lon="1.096311">
        <ele>1630.343</ele>
        <time>2021-06-18T17:34:29Z</time>
      </trkpt>
      <trkpt lat="42.560713" lon="1.096352">
        <ele>1630.817</ele>
        <time>2021-06-18T17:34:31Z</time>
      </trkpt>
      <trkpt lat="42.560689" lon="1.096404">
        <ele>1631.708</ele>
        <time>2021-06-18T17:34:34Z</time>
      </trkpt>
      <trkpt lat="42.560654" lon="1.096506">
        <ele>1632.835</ele>
        <time>2021-06-18T17:34:38Z</time>
      </trkpt>
      <trkpt lat="42.560633" lon="1.096555">
        <ele>1633.574</ele>
        <time>2021-06-18T17:34:40Z</time>
      </trkpt>
      <trkpt lat="42.560606" lon="1.096630">
        <ele>1634.360</ele>
        <time>2021-06-18T17:34:44Z</time>
      </trkpt>
      <trkpt lat="42.560587" lon="1.096672">
        <ele>1634.864</ele>
        <time>2021-06-18T17:34:46Z</time>
      </trkpt>
      <trkpt lat="42.560548" lon="1.096786">
        <ele>1635.458</ele>
        <time>2021-06-18T17:34:51Z</time>
      </trkpt>
      <trkpt lat="42.560527" lon="1.096856">
        <ele>1635.768</ele>
        <time>2021-06-18T17:34:54Z</time>
      </trkpt>
      <trkpt lat="42.560516" lon="1.096880">
        <ele>1635.911</ele>
        <time>2021-06-18T17:34:55Z</time>
      </trkpt>
      <trkpt lat="42.560498" lon="1.096928">
        <ele>1636.288</ele>
        <time>2021-06-18T17:34:57Z</time>
      </trkpt>
      <trkpt lat="42.560442" lon="1.097030">
        <ele>1637.365</ele>
        <time>2021-06-18T17:35:02Z</time>
      </trkpt>
      <trkpt lat="42.560407" lon="1.097088">
        <ele>1638.068</ele>
        <time>2021-06-18T17:35:05Z</time>
      </trkpt>
      <trkpt lat="42.560370" lon="1.097139">
        <ele>1638.814</ele>
        <time>2021-06-18T17:35:08Z</time>
      </trkpt>
      <trkpt lat="42.560332" lon="1.097230">
        <ele>1639.208</ele>
        <time>2021-06-18T17:35:12Z</time>
      </trkpt>
      <trkpt lat="42.560306" lon="1.097287">
        <ele>1639.443</ele>
        <time>2021-06-18T17:35:15Z</time>
      </trkpt>
      <trkpt lat="42.560283" lon="1.097327">
        <ele>1639.722</ele>
        <time>2021-06-18T17:35:17Z</time>
      </trkpt>
      <trkpt lat="42.560270" lon="1.097341">
        <ele>1640.028</ele>
        <time>2021-06-18T17:35:18Z</time>
      </trkpt>
      <trkpt lat="42.560236" lon="1.097399">
        <ele>1640.552</ele>
        <time>2021-06-18T17:35:21Z</time>
      </trkpt>
      <trkpt lat="42.560206" lon="1.097461">
        <ele>1640.866</ele>
        <time>2021-06-18T17:35:24Z</time>
      </trkpt>
      <trkpt lat="42.560147" lon="1.097555">
        <ele>1641.446</ele>
        <time>2021-06-18T17:35:29Z</time>
      </trkpt>
      <trkpt lat="42.560118" lon="1.097589">
        <ele>1641.729</ele>
        <time>2021-06-18T17:35:31Z</time>
      </trkpt>
      <trkpt lat="42.560071" lon="1.097645">
        <ele>1642.226</ele>
        <time>2021-06-18T17:35:34Z</time>
      </trkpt>
      <trkpt lat="42.559996" lon="1.097719">
        <ele>1643.252</ele>
        <time>2021-06-18T17:35:39Z</time>
      </trkpt>
      <trkpt lat="42.559965" lon="1.097746">
        <ele>1643.453</ele>
        <time>2021-06-18T17:35:41Z</time>
      </trkpt>
      <trkpt lat="42.559886" lon="1.097797">
        <ele>1643.908</ele>
        <time>2021-06-18T17:35:46Z</time>
      </trkpt>
      <trkpt lat="42.559874" lon="1.097809">
        <ele>1643.808</ele>
        <time>2021-06-18T17:35:47Z</time>
      </trkpt>
      <trkpt lat="42.559839" lon="1.097831">
        <ele>1643.932</ele>
        <time>2021-06-18T17:35:50Z</time>
      </trkpt>
      <trkpt lat="42.559810" lon="1.097836">
        <ele>1644.351</ele>
        <time>2021-06-18T17:35:52Z</time>
      </trkpt>
      <trkpt lat="42.559784" lon="1.097846">
        <ele>1644.697</ele>
        <time>2021-06-18T17:35:54Z</time>
      </trkpt>
      <trkpt lat="42.559767" lon="1.097846">
        <ele>1644.991</ele>
        <time>2021-06-18T17:35:55Z</time>
      </trkpt>
      <trkpt lat="42.559736" lon="1.097853">
        <ele>1645.365</ele>
        <time>2021-06-18T17:35:57Z</time>
      </trkpt>
      <trkpt lat="42.559706" lon="1.097856">
        <ele>1645.835</ele>
        <time>2021-06-18T17:35:59Z</time>
      </trkpt>
      <trkpt lat="42.559659" lon="1.097861">
        <ele>1646.488</ele>
        <time>2021-06-18T17:36:02Z</time>
      </trkpt>
      <trkpt lat="42.559643" lon="1.097864">
        <ele>1646.625</ele>
        <time>2021-06-18T17:36:03Z</time>
      </trkpt>
      <trkpt lat="42.559526" lon="1.097905">
        <ele>1647.483</ele>
        <time>2021-06-18T17:36:10Z</time>
      </trkpt>
      <trkpt lat="42.559439" lon="1.097926">
        <ele>1648.325</ele>
        <time>2021-06-18T17:36:15Z</time>
      </trkpt>
      <trkpt lat="42.559422" lon="1.097937">
        <ele>1648.317</ele>
        <time>2021-06-18T17:36:16Z</time>
      </trkpt>
      <trkpt lat="42.559385" lon="1.097944">
        <ele>1648.908</ele>
        <time>2021-06-18T17:36:18Z</time>
      </trkpt>
      <trkpt lat="42.559347" lon="1.097956">
        <ele>1649.395</ele>
        <time>2021-06-18T17:36:20Z</time>
      </trkpt>
      <trkpt lat="42.559224" lon="1.098007">
        <ele>1650.334</ele>
        <time>2021-06-18T17:36:27Z</time>
      </trkpt>
      <trkpt lat="42.559186" lon="1.098027">
        <ele>1650.560</ele>
        <time>2021-06-18T17:36:29Z</time>
      </trkpt>
      <trkpt lat="42.559108" lon="1.098060">
        <ele>1651.184</ele>
        <time>2021-06-18T17:36:34Z</time>
      </trkpt>
      <trkpt lat="42.558987" lon="1.098101">
        <ele>1652.518</ele>
        <time>2021-06-18T17:36:41Z</time>
      </trkpt>
      <trkpt lat="42.558892" lon="1.098128">
        <ele>1653.848</ele>
        <time>2021-06-18T17:36:47Z</time>
      </trkpt>
      <trkpt lat="42.558797" lon="1.098163">
        <ele>1654.361</ele>
        <time>2021-06-18T17:36:53Z</time>
      </trkpt>
      <trkpt lat="42.558779" lon="1.098168">
        <ele>1654.448</ele>
        <time>2021-06-18T17:36:54Z</time>
      </trkpt>
      <trkpt lat="42.558696" lon="1.098184">
        <ele>1655.174</ele>
        <time>2021-06-18T17:36:59Z</time>
      </trkpt>
      <trkpt lat="42.558646" lon="1.098185">
        <ele>1655.856</ele>
        <time>2021-06-18T17:37:02Z</time>
      </trkpt>
      <trkpt lat="42.558592" lon="1.098177">
        <ele>1656.721</ele>
        <time>2021-06-18T17:37:05Z</time>
      </trkpt>
      <trkpt lat="42.558544" lon="1.098182">
        <ele>1656.808</ele>
        <time>2021-06-18T17:37:08Z</time>
      </trkpt>
      <trkpt lat="42.558467" lon="1.098167">
        <ele>1657.834</ele>
        <time>2021-06-18T17:37:13Z</time>
      </trkpt>
      <trkpt lat="42.558430" lon="1.098165">
        <ele>1658.113</ele>
        <time>2021-06-18T17:37:15Z</time>
      </trkpt>
      <trkpt lat="42.558372" lon="1.098159">
        <ele>1658.769</ele>
        <time>2021-06-18T17:37:18Z</time>
      </trkpt>
      <trkpt lat="42.558306" lon="1.098140">
        <ele>1659.983</ele>
        <time>2021-06-18T17:37:22Z</time>
      </trkpt>
      <trkpt lat="42.558291" lon="1.098133">
        <ele>1660.267</ele>
        <time>2021-06-18T17:37:23Z</time>
      </trkpt>
      <trkpt lat="42.558257" lon="1.098119">
        <ele>1661.057</ele>
        <time>2021-06-18T17:37:25Z</time>
      </trkpt>
      <trkpt lat="42.558200" lon="1.098112">
        <ele>1661.710</ele>
        <time>2021-06-18T17:37:28Z</time>
      </trkpt>
      <trkpt lat="42.558129" lon="1.098123">
        <ele>1661.827</ele>
        <time>2021-06-18T17:37:32Z</time>
      </trkpt>
      <trkpt lat="42.558085" lon="1.098122">
        <ele>1662.298</ele>
        <time>2021-06-18T17:37:35Z</time>
      </trkpt>
      <trkpt lat="42.558019" lon="1.098133">
        <ele>1662.215</ele>
        <time>2021-06-18T17:37:39Z</time>
      </trkpt>
      <trkpt lat="42.558008" lon="1.098127">
        <ele>1662.626</ele>
        <time>2021-06-18T17:37:40Z</time>
      </trkpt>
      <trkpt lat="42.557907" lon="1.098131">
        <ele>1663.208</ele>
        <time>2021-06-18T17:37:46Z</time>
      </trkpt>
      <trkpt lat="42.557889" lon="1.098134">
        <ele>1663.346</ele>
        <time>2021-06-18T17:37:47Z</time>
      </trkpt>
      <trkpt lat="42.557818" lon="1.098152">
        <ele>1663.215</ele>
        <time>2021-06-18T17:37:51Z</time>
      </trkpt>
      <trkpt lat="42.557798" lon="1.098158">
        <ele>1663.181</ele>
        <time>2021-06-18T17:37:52Z</time>
      </trkpt>
      <trkpt lat="42.557667" lon="1.098187">
        <ele>1664.115</ele>
        <time>2021-06-18T17:37:58Z</time>
      </trkpt>
      <trkpt lat="42.557630" lon="1.098187">
        <ele>1664.629</ele>
        <time>2021-06-18T17:38:00Z</time>
      </trkpt>
      <trkpt lat="42.557532" lon="1.098194">
        <ele>1666.069</ele>
        <time>2021-06-18T17:38:05Z</time>
      </trkpt>
      <trkpt lat="42.557494" lon="1.098202">
        <ele>1666.422</ele>
        <time>2021-06-18T17:38:07Z</time>
      </trkpt>
      <trkpt lat="42.557403" lon="1.098236">
        <ele>1666.939</ele>
        <time>2021-06-18T17:38:12Z</time>
      </trkpt>
      <trkpt lat="42.557345" lon="1.098281">
        <ele>1666.749</ele>
        <time>2021-06-18T17:38:15Z</time>
      </trkpt>
      <trkpt lat="42.557249" lon="1.098333">
        <ele>1667.402</ele>
        <time>2021-06-18T17:38:20Z</time>
      </trkpt>
      <trkpt lat="42.557172" lon="1.098366">
        <ele>1668.222</ele>
        <time>2021-06-18T17:38:24Z</time>
      </trkpt>
      <trkpt lat="42.557096" lon="1.098400">
        <ele>1668.908</ele>
        <time>2021-06-18T17:38:28Z</time>
      </trkpt>
      <trkpt lat="42.557040" lon="1.098423">
        <ele>1669.641</ele>
        <time>2021-06-18T17:38:31Z</time>
      </trkpt>
      <trkpt lat="42.556948" lon="1.098449">
        <ele>1670.810</ele>
        <time>2021-06-18T17:38:36Z</time>
      </trkpt>
      <trkpt lat="42.556909" lon="1.098454">
        <ele>1671.636</ele>
        <time>2021-06-18T17:38:38Z</time>
      </trkpt>
      <trkpt lat="42.556791" lon="1.098516">
        <ele>1672.940</ele>
        <time>2021-06-18T17:38:45Z</time>
      </trkpt>
      <trkpt lat="42.556721" lon="1.098575">
        <ele>1672.944</ele>
        <time>2021-06-18T17:38:50Z</time>
      </trkpt>
      <trkpt lat="42.556704" lon="1.098584">
        <ele>1673.024</ele>
        <time>2021-06-18T17:38:51Z</time>
      </trkpt>
      <trkpt lat="42.556655" lon="1.098614">
        <ele>1673.387</ele>
        <time>2021-06-18T17:38:54Z</time>
      </trkpt>
      <trkpt lat="42.556610" lon="1.098629">
        <ele>1674.264</ele>
        <time>2021-06-18T17:38:57Z</time>
      </trkpt>
      <trkpt lat="42.556595" lon="1.098637">
        <ele>1674.461</ele>
        <time>2021-06-18T17:38:58Z</time>
      </trkpt>
      <trkpt lat="42.556565" lon="1.098653">
        <ele>1675.021</ele>
        <time>2021-06-18T17:39:00Z</time>
      </trkpt>
      <trkpt lat="42.556505" lon="1.098686">
        <ele>1676.013</ele>
        <time>2021-06-18T17:39:04Z</time>
      </trkpt>
      <trkpt lat="42.556473" lon="1.098703">
        <ele>1676.608</ele>
        <time>2021-06-18T17:39:06Z</time>
      </trkpt>
      <trkpt lat="42.556405" lon="1.098751">
        <ele>1677.633</ele>
        <time>2021-06-18T17:39:10Z</time>
      </trkpt>
      <trkpt lat="42.556387" lon="1.098767">
        <ele>1677.832</ele>
        <time>2021-06-18T17:39:11Z</time>
      </trkpt>
      <trkpt lat="42.556319" lon="1.098802">
        <ele>1678.738</ele>
        <time>2021-06-18T17:39:15Z</time>
      </trkpt>
      <trkpt lat="42.556284" lon="1.098826">
        <ele>1679.072</ele>
        <time>2021-06-18T17:39:17Z</time>
      </trkpt>
      <trkpt lat="42.556214" lon="1.098860">
        <ele>1679.856</ele>
        <time>2021-06-18T17:39:21Z</time>
      </trkpt>
      <trkpt lat="42.556196" lon="1.098871">
        <ele>1679.936</ele>
        <time>2021-06-18T17:39:22Z</time>
      </trkpt>
      <trkpt lat="42.556101" lon="1.098913">
        <ele>1680.499</ele>
        <time>2021-06-18T17:39:27Z</time>
      </trkpt>
      <trkpt lat="42.556082" lon="1.098916">
        <ele>1680.646</ele>
        <time>2021-06-18T17:39:28Z</time>
      </trkpt>
      <trkpt lat="42.555970" lon="1.098947">
        <ele>1681.495</ele>
        <time>2021-06-18T17:39:34Z</time>
      </trkpt>
      <trkpt lat="42.555931" lon="1.098951">
        <ele>1681.949</ele>
        <time>2021-06-18T17:39:36Z</time>
      </trkpt>
      <trkpt lat="42.555844" lon="1.098969">
        <ele>1682.723</ele>
        <time>2021-06-18T17:39:41Z</time>
      </trkpt>
      <trkpt lat="42.555787" lon="1.098986">
        <ele>1683.008</ele>
        <time>2021-06-18T17:39:44Z</time>
      </trkpt>
      <trkpt lat="42.555713" lon="1.099002">
        <ele>1683.756</ele>
        <time>2021-06-18T17:39:48Z</time>
      </trkpt>
      <trkpt lat="42.555676" lon="1.099009">
        <ele>1684.155</ele>
        <time>2021-06-18T17:39:50Z</time>
      </trkpt>
      <trkpt lat="42.555570" lon="1.099027">
        <ele>1685.331</ele>
        <time>2021-06-18T17:39:56Z</time>
      </trkpt>
      <trkpt lat="42.555531" lon="1.099039">
        <ele>1685.555</ele>
        <time>2021-06-18T17:39:58Z</time>
      </trkpt>
      <trkpt lat="42.555449" lon="1.099062">
        <ele>1686.329</ele>
        <time>2021-06-18T17:40:03Z</time>
      </trkpt>
      <trkpt lat="42.555416" lon="1.099065">
        <ele>1686.919</ele>
        <time>2021-06-18T17:40:05Z</time>
      </trkpt>
      <trkpt lat="42.555347" lon="1.099062">
        <ele>1688.412</ele>
        <time>2021-06-18T17:40:09Z</time>
      </trkpt>
      <trkpt lat="42.555297" lon="1.099086">
        <ele>1688.549</ele>
        <time>2021-06-18T17:40:12Z</time>
      </trkpt>
      <trkpt lat="42.555264" lon="1.099111">
        <ele>1688.327</ele>
        <time>2021-06-18T17:40:14Z</time>
      </trkpt>
      <trkpt lat="42.555203" lon="1.099138">
        <ele>1688.668</ele>
        <time>2021-06-18T17:40:18Z</time>
      </trkpt>
      <trkpt lat="42.555135" lon="1.099161">
        <ele>1689.314</ele>
        <time>2021-06-18T17:40:22Z</time>
      </trkpt>
      <trkpt lat="42.555103" lon="1.099168">
        <ele>1689.708</ele>
        <time>2021-06-18T17:40:24Z</time>
      </trkpt>
      <trkpt lat="42.555051" lon="1.099185">
        <ele>1690.279</ele>
        <time>2021-06-18T17:40:27Z</time>
      </trkpt>
      <trkpt lat="42.554980" lon="1.099204">
        <ele>1690.918</ele>
        <time>2021-06-18T17:40:31Z</time>
      </trkpt>
      <trkpt lat="42.554917" lon="1.099216">
        <ele>1691.484</ele>
        <time>2021-06-18T17:40:35Z</time>
      </trkpt>
      <trkpt lat="42.554900" lon="1.099217">
        <ele>1691.648</ele>
        <time>2021-06-18T17:40:36Z</time>
      </trkpt>
      <trkpt lat="42.554885" lon="1.099217">
        <ele>1691.822</ele>
        <time>2021-06-18T17:40:37Z</time>
      </trkpt>
      <trkpt lat="42.554838" lon="1.099230">
        <ele>1692.142</ele>
        <time>2021-06-18T17:40:40Z</time>
      </trkpt>
      <trkpt lat="42.554782" lon="1.099237">
        <ele>1692.635</ele>
        <time>2021-06-18T17:40:43Z</time>
      </trkpt>
      <trkpt lat="42.554705" lon="1.099226">
        <ele>1693.712</ele>
        <time>2021-06-18T17:40:47Z</time>
      </trkpt>
      <trkpt lat="42.554614" lon="1.099175">
        <ele>1694.585</ele>
        <time>2021-06-18T17:40:52Z</time>
      </trkpt>
      <trkpt lat="42.554595" lon="1.099165">
        <ele>1694.789</ele>
        <time>2021-06-18T17:40:53Z</time>
      </trkpt>
      <trkpt lat="42.554494" lon="1.099094">
        <ele>1696.117</ele>
        <time>2021-06-18T17:40:59Z</time>
      </trkpt>
      <trkpt lat="42.554394" lon="1.099072">
        <ele>1696.508</ele>
        <time>2021-06-18T17:41:05Z</time>
      </trkpt>
      <trkpt lat="42.554242" lon="1.099028">
        <ele>1698.445</ele>
        <time>2021-06-18T17:41:13Z</time>
      </trkpt>
      <trkpt lat="42.554164" lon="1.099026">
        <ele>1698.654</ele>
        <time>2021-06-18T17:41:17Z</time>
      </trkpt>
      <trkpt lat="42.554103" lon="1.099026">
        <ele>1699.190</ele>
        <time>2021-06-18T17:41:20Z</time>
      </trkpt>
      <trkpt lat="42.554070" lon="1.099027">
        <ele>1699.484</ele>
        <time>2021-06-18T17:41:22Z</time>
      </trkpt>
      <trkpt lat="42.554019" lon="1.099053">
        <ele>1698.858</ele>
        <time>2021-06-18T17:41:25Z</time>
      </trkpt>
      <trkpt lat="42.553881" lon="1.099101">
        <ele>1698.028</ele>
        <time>2021-06-18T17:41:32Z</time>
      </trkpt>
      <trkpt lat="42.553861" lon="1.099109">
        <ele>1698.061</ele>
        <time>2021-06-18T17:41:33Z</time>
      </trkpt>
      <trkpt lat="42.553782" lon="1.099127">
        <ele>1698.758</ele>
        <time>2021-06-18T17:41:37Z</time>
      </trkpt>
      <trkpt lat="42.553705" lon="1.099144">
        <ele>1699.363</ele>
        <time>2021-06-18T17:41:41Z</time>
      </trkpt>
      <trkpt lat="42.553667" lon="1.099145">
        <ele>1700.044</ele>
        <time>2021-06-18T17:41:43Z</time>
      </trkpt>
      <trkpt lat="42.553568" lon="1.099132">
        <ele>1701.618</ele>
        <time>2021-06-18T17:41:48Z</time>
      </trkpt>
      <trkpt lat="42.553531" lon="1.099129">
        <ele>1701.808</ele>
        <time>2021-06-18T17:41:50Z</time>
      </trkpt>
      <trkpt lat="42.553480" lon="1.099118">
        <ele>1702.393</ele>
        <time>2021-06-18T17:41:53Z</time>
      </trkpt>
      <trkpt lat="42.553410" lon="1.099102">
        <ele>1703.052</ele>
        <time>2021-06-18T17:41:57Z</time>
      </trkpt>
      <trkpt lat="42.553357" lon="1.099084">
        <ele>1703.998</ele>
        <time>2021-06-18T17:42:00Z</time>
      </trkpt>
      <trkpt lat="42.553299" lon="1.099059">
        <ele>1705.472</ele>
        <time>2021-06-18T17:42:03Z</time>
      </trkpt>
      <trkpt lat="42.553212" lon="1.099027">
        <ele>1707.646</ele>
        <time>2021-06-18T17:42:08Z</time>
      </trkpt>
      <trkpt lat="42.553085" lon="1.099063">
        <ele>1707.736</ele>
        <time>2021-06-18T17:42:15Z</time>
      </trkpt>
      <trkpt lat="42.552993" lon="1.099145">
        <ele>1708.379</ele>
        <time>2021-06-18T17:42:21Z</time>
      </trkpt>
      <trkpt lat="42.552981" lon="1.099165">
        <ele>1708.336</ele>
        <time>2021-06-18T17:42:22Z</time>
      </trkpt>
      <trkpt lat="42.552928" lon="1.099267">
        <ele>1708.182</ele>
        <time>2021-06-18T17:42:27Z</time>
      </trkpt>
      <trkpt lat="42.552881" lon="1.099340">
        <ele>1708.643</ele>
        <time>2021-06-18T17:42:31Z</time>
      </trkpt>
      <trkpt lat="42.552839" lon="1.099421">
        <ele>1708.717</ele>
        <time>2021-06-18T17:42:35Z</time>
      </trkpt>
      <trkpt lat="42.552798" lon="1.099471">
        <ele>1709.308</ele>
        <time>2021-06-18T17:42:38Z</time>
      </trkpt>
      <trkpt lat="42.552768" lon="1.099502">
        <ele>1709.785</ele>
        <time>2021-06-18T17:42:40Z</time>
      </trkpt>
      <trkpt lat="42.552660" lon="1.099602">
        <ele>1710.784</ele>
        <time>2021-06-18T17:42:47Z</time>
      </trkpt>
      <trkpt lat="42.552547" lon="1.099689">
        <ele>1712.310</ele>
        <time>2021-06-18T17:42:54Z</time>
      </trkpt>
      <trkpt lat="42.552464" lon="1.099736">
        <ele>1713.384</ele>
        <time>2021-06-18T17:42:59Z</time>
      </trkpt>
      <trkpt lat="42.552447" lon="1.099747">
        <ele>1713.298</ele>
        <time>2021-06-18T17:43:00Z</time>
      </trkpt>
      <trkpt lat="42.552342" lon="1.099788">
        <ele>1713.998</ele>
        <time>2021-06-18T17:43:06Z</time>
      </trkpt>
      <trkpt lat="42.552302" lon="1.099801">
        <ele>1714.341</ele>
        <time>2021-06-18T17:43:08Z</time>
      </trkpt>
      <trkpt lat="42.552200" lon="1.099812">
        <ele>1716.018</ele>
        <time>2021-06-18T17:43:13Z</time>
      </trkpt>
      <trkpt lat="42.552142" lon="1.099812">
        <ele>1716.722</ele>
        <time>2021-06-18T17:43:16Z</time>
      </trkpt>
      <trkpt lat="42.552103" lon="1.099812">
        <ele>1717.162</ele>
        <time>2021-06-18T17:43:18Z</time>
      </trkpt>
      <trkpt lat="42.552011" lon="1.099830">
        <ele>1717.408</ele>
        <time>2021-06-18T17:43:23Z</time>
      </trkpt>
      <trkpt lat="42.551955" lon="1.099820">
        <ele>1718.408</ele>
        <time>2021-06-18T17:43:26Z</time>
      </trkpt>
      <trkpt lat="42.551840" lon="1.099799">
        <ele>1719.779</ele>
        <time>2021-06-18T17:43:32Z</time>
      </trkpt>
      <trkpt lat="42.551709" lon="1.099766">
        <ele>1721.468</ele>
        <time>2021-06-18T17:43:39Z</time>
      </trkpt>
      <trkpt lat="42.551689" lon="1.099761">
        <ele>1721.764</ele>
        <time>2021-06-18T17:43:40Z</time>
      </trkpt>
      <trkpt lat="42.551598" lon="1.099758">
        <ele>1723.358</ele>
        <time>2021-06-18T17:43:45Z</time>
      </trkpt>
      <trkpt lat="42.551581" lon="1.099761">
        <ele>1723.662</ele>
        <time>2021-06-18T17:43:46Z</time>
      </trkpt>
      <trkpt lat="42.551475" lon="1.099770">
        <ele>1725.672</ele>
        <time>2021-06-18T17:43:52Z</time>
      </trkpt>
      <trkpt lat="42.551424" lon="1.099794">
        <ele>1725.995</ele>
        <time>2021-06-18T17:43:55Z</time>
      </trkpt>
      <trkpt lat="42.551354" lon="1.099843">
        <ele>1726.092</ele>
        <time>2021-06-18T17:43:59Z</time>
      </trkpt>
      <trkpt lat="42.551336" lon="1.099854">
        <ele>1726.134</ele>
        <time>2021-06-18T17:44:00Z</time>
      </trkpt>
      <trkpt lat="42.551259" lon="1.099907">
        <ele>1726.055</ele>
        <time>2021-06-18T17:44:05Z</time>
      </trkpt>
      <trkpt lat="42.551243" lon="1.099916">
        <ele>1726.010</ele>
        <time>2021-06-18T17:44:06Z</time>
      </trkpt>
      <trkpt lat="42.551142" lon="1.099971">
        <ele>1725.808</ele>
        <time>2021-06-18T17:44:12Z</time>
      </trkpt>
      <trkpt lat="42.551016" lon="1.099995">
        <ele>1726.990</ele>
        <time>2021-06-18T17:44:19Z</time>
      </trkpt>
      <trkpt lat="42.550999" lon="1.099995">
        <ele>1727.249</ele>
        <time>2021-06-18T17:44:20Z</time>
      </trkpt>
      <trkpt lat="42.550932" lon="1.099999">
        <ele>1728.375</ele>
        <time>2021-06-18T17:44:24Z</time>
      </trkpt>
      <trkpt lat="42.550876" lon="1.100010">
        <ele>1729.019</ele>
        <time>2021-06-18T17:44:27Z</time>
      </trkpt>
      <trkpt lat="42.550828" lon="1.100008">
        <ele>1729.973</ele>
        <time>2021-06-18T17:44:30Z</time>
      </trkpt>
      <trkpt lat="42.550792" lon="1.100005">
        <ele>1730.673</ele>
        <time>2021-06-18T17:44:32Z</time>
      </trkpt>
      <trkpt lat="42.550753" lon="1.100021">
        <ele>1731.096</ele>
        <time>2021-06-18T17:44:34Z</time>
      </trkpt>
      <trkpt lat="42.550687" lon="1.100088">
        <ele>1731.443</ele>
        <time>2021-06-18T17:44:38Z</time>
      </trkpt>
      <trkpt lat="42.550661" lon="1.100130">
        <ele>1731.614</ele>
        <time>2021-06-18T17:44:40Z</time>
      </trkpt>
      <trkpt lat="42.550652" lon="1.100153">
        <ele>1731.654</ele>
        <time>2021-06-18T17:44:41Z</time>
      </trkpt>
      <trkpt lat="42.550637" lon="1.100228">
        <ele>1731.309</ele>
        <time>2021-06-18T17:44:44Z</time>
      </trkpt>
      <trkpt lat="42.550635" lon="1.100280">
        <ele>1730.808</ele>
        <time>2021-06-18T17:44:46Z</time>
      </trkpt>
      <trkpt lat="42.550616" lon="1.100405">
        <ele>1731.438</ele>
        <time>2021-06-18T17:44:52Z</time>
      </trkpt>
      <trkpt lat="42.550611" lon="1.100422">
        <ele>1731.687</ele>
        <time>2021-06-18T17:44:53Z</time>
      </trkpt>
      <trkpt lat="42.550585" lon="1.100530">
        <ele>1732.653</ele>
        <time>2021-06-18T17:44:59Z</time>
      </trkpt>
      <trkpt lat="42.550549" lon="1.100636">
        <ele>1733.817</ele>
        <time>2021-06-18T17:45:04Z</time>
      </trkpt>
      <trkpt lat="42.550525" lon="1.100722">
        <ele>1734.571</ele>
        <time>2021-06-18T17:45:08Z</time>
      </trkpt>
      <trkpt lat="42.550518" lon="1.100745">
        <ele>1734.791</ele>
        <time>2021-06-18T17:45:09Z</time>
      </trkpt>
      <trkpt lat="42.550500" lon="1.100811">
        <ele>1735.274</ele>
        <time>2021-06-18T17:45:12Z</time>
      </trkpt>
      <trkpt lat="42.550506" lon="1.100902">
        <ele>1735.491</ele>
        <time>2021-06-18T17:45:15Z</time>
      </trkpt>
      <trkpt lat="42.550512" lon="1.100931">
        <ele>1735.482</ele>
        <time>2021-06-18T17:45:16Z</time>
      </trkpt>
      <trkpt lat="42.550566" lon="1.101040">
        <ele>1734.743</ele>
        <time>2021-06-18T17:45:21Z</time>
      </trkpt>
      <trkpt lat="42.550614" lon="1.101122">
        <ele>1735.317</ele>
        <time>2021-06-18T17:45:25Z</time>
      </trkpt>
      <trkpt lat="42.550630" lon="1.101133">
        <ele>1735.508</ele>
        <time>2021-06-18T17:45:26Z</time>
      </trkpt>
      <trkpt lat="42.550658" lon="1.101148">
        <ele>1735.545</ele>
        <time>2021-06-18T17:45:28Z</time>
      </trkpt>
      <trkpt lat="42.550684" lon="1.101149">
        <ele>1735.214</ele>
        <time>2021-06-18T17:45:30Z</time>
      </trkpt>
      <trkpt lat="42.550723" lon="1.101154">
        <ele>1734.790</ele>
        <time>2021-06-18T17:45:32Z</time>
      </trkpt>
      <trkpt lat="42.550778" lon="1.101176">
        <ele>1734.814</ele>
        <time>2021-06-18T17:45:37Z</time>
      </trkpt>
      <trkpt lat="42.550825" lon="1.101193">
        <ele>1734.998</ele>
        <time>2021-06-18T17:50:15Z</time>
      </trkpt>
      <trkpt lat="42.550896" lon="1.101237">
        <ele>1735.988</ele>
        <time>2021-06-18T17:50:22Z</time>
      </trkpt>
      <trkpt lat="42.551001" lon="1.101338">
        <ele>1738.711</ele>
        <time>2021-06-18T17:50:31Z</time>
      </trkpt>
      <trkpt lat="42.551117" lon="1.101448">
        <ele>1741.688</ele>
        <time>2021-06-18T17:50:39Z</time>
      </trkpt>
      <trkpt lat="42.551222" lon="1.101534">
        <ele>1742.831</ele>
        <time>2021-06-18T17:50:46Z</time>
      </trkpt>
      <trkpt lat="42.551236" lon="1.101541">
        <ele>1742.861</ele>
        <time>2021-06-18T17:50:47Z</time>
      </trkpt>
      <trkpt lat="42.551288" lon="1.101589">
        <ele>1743.707</ele>
        <time>2021-06-18T17:50:51Z</time>
      </trkpt>
      <trkpt lat="42.551302" lon="1.101599">
        <ele>1743.908</ele>
        <time>2021-06-18T17:50:52Z</time>
      </trkpt>
      <trkpt lat="42.551329" lon="1.101617">
        <ele>1744.090</ele>
        <time>2021-06-18T17:50:54Z</time>
      </trkpt>
      <trkpt lat="42.551403" lon="1.101672">
        <ele>1744.979</ele>
        <time>2021-06-18T17:50:59Z</time>
      </trkpt>
      <trkpt lat="42.551487" lon="1.101734">
        <ele>1745.935</ele>
        <time>2021-06-18T17:51:05Z</time>
      </trkpt>
      <trkpt lat="42.551531" lon="1.101764">
        <ele>1746.369</ele>
        <time>2021-06-18T17:51:08Z</time>
      </trkpt>
      <trkpt lat="42.551573" lon="1.101792">
        <ele>1746.783</ele>
        <time>2021-06-18T17:51:11Z</time>
      </trkpt>
      <trkpt lat="42.551588" lon="1.101798">
        <ele>1746.643</ele>
        <time>2021-06-18T17:51:12Z</time>
      </trkpt>
      <trkpt lat="42.551622" lon="1.101808">
        <ele>1746.226</ele>
        <time>2021-06-18T17:51:14Z</time>
      </trkpt>
      <trkpt lat="42.551734" lon="1.101879">
        <ele>1747.253</ele>
        <time>2021-06-18T17:51:22Z</time>
      </trkpt>
      <trkpt lat="42.551855" lon="1.101947">
        <ele>1748.033</ele>
        <time>2021-06-18T17:51:29Z</time>
      </trkpt>
      <trkpt lat="42.551873" lon="1.101952">
        <ele>1747.923</ele>
        <time>2021-06-18T17:51:30Z</time>
      </trkpt>
      <trkpt lat="42.551969" lon="1.102050">
        <ele>1749.915</ele>
        <time>2021-06-18T17:51:36Z</time>
      </trkpt>
      <trkpt lat="42.552011" lon="1.102119">
        <ele>1751.508</ele>
        <time>2021-06-18T17:51:39Z</time>
      </trkpt>
      <trkpt lat="42.552062" lon="1.102211">
        <ele>1753.440</ele>
        <time>2021-06-18T17:51:44Z</time>
      </trkpt>
      <trkpt lat="42.552109" lon="1.102290">
        <ele>1753.639</ele>
        <time>2021-06-18T17:51:49Z</time>
      </trkpt>
      <trkpt lat="42.552132" lon="1.102324">
        <ele>1753.635</ele>
        <time>2021-06-18T17:51:51Z</time>
      </trkpt>
      <trkpt lat="42.552148" lon="1.102337">
        <ele>1753.399</ele>
        <time>2021-06-18T17:51:54Z</time>
      </trkpt>
      <trkpt lat="42.552161" lon="1.102422">
        <ele>1754.783</ele>
        <time>2021-06-18T17:54:54Z</time>
      </trkpt>
      <trkpt lat="42.552174" lon="1.102442">
        <ele>1754.663</ele>
        <time>2021-06-18T17:54:55Z</time>
      </trkpt>
      <trkpt lat="42.552226" lon="1.102522">
        <ele>1754.276</ele>
        <time>2021-06-18T17:55:00Z</time>
      </trkpt>
      <trkpt lat="42.552284" lon="1.102652">
        <ele>1753.373</ele>
        <time>2021-06-18T17:55:06Z</time>
      </trkpt>
      <trkpt lat="42.552296" lon="1.102666">
        <ele>1752.993</ele>
        <time>2021-06-18T17:55:07Z</time>
      </trkpt>
      <trkpt lat="42.552322" lon="1.102742">
        <ele>1752.965</ele>
        <time>2021-06-18T17:55:11Z</time>
      </trkpt>
      <trkpt lat="42.552342" lon="1.102770">
        <ele>1752.421</ele>
        <time>2021-06-18T17:55:13Z</time>
      </trkpt>
      <trkpt lat="42.552378" lon="1.102842">
        <ele>1752.108</ele>
        <time>2021-06-18T17:55:17Z</time>
      </trkpt>
      <trkpt lat="42.552389" lon="1.102863">
        <ele>1752.096</ele>
        <time>2021-06-18T17:55:18Z</time>
      </trkpt>
      <trkpt lat="42.552402" lon="1.102907">
        <ele>1752.435</ele>
        <time>2021-06-18T17:55:20Z</time>
      </trkpt>
      <trkpt lat="42.552420" lon="1.102946">
        <ele>1752.461</ele>
        <time>2021-06-18T17:55:22Z</time>
      </trkpt>
      <trkpt lat="42.552429" lon="1.102964">
        <ele>1752.475</ele>
        <time>2021-06-18T17:55:23Z</time>
      </trkpt>
      <trkpt lat="42.552478" lon="1.103072">
        <ele>1752.619</ele>
        <time>2021-06-18T17:55:28Z</time>
      </trkpt>
      <trkpt lat="42.552517" lon="1.103153">
        <ele>1753.279</ele>
        <time>2021-06-18T17:55:32Z</time>
      </trkpt>
      <trkpt lat="42.552552" lon="1.103239">
        <ele>1754.042</ele>
        <time>2021-06-18T17:55:36Z</time>
      </trkpt>
      <trkpt lat="42.552563" lon="1.103307">
        <ele>1755.599</ele>
        <time>2021-06-18T17:55:38Z</time>
      </trkpt>
      <trkpt lat="42.552592" lon="1.103395">
        <ele>1757.022</ele>
        <time>2021-06-18T17:55:41Z</time>
      </trkpt>
      <trkpt lat="42.552628" lon="1.103456">
        <ele>1757.262</ele>
        <time>2021-06-18T17:55:44Z</time>
      </trkpt>
      <trkpt lat="42.552643" lon="1.103486">
        <ele>1757.508</ele>
        <time>2021-06-18T17:55:46Z</time>
      </trkpt>
      <trkpt lat="42.552651" lon="1.103499">
        <ele>1757.608</ele>
        <time>2021-06-18T17:55:47Z</time>
      </trkpt>
      <trkpt lat="42.552678" lon="1.103542">
        <ele>1757.769</ele>
        <time>2021-06-18T17:55:50Z</time>
      </trkpt>
      <trkpt lat="42.552688" lon="1.103557">
        <ele>1757.868</ele>
        <time>2021-06-18T17:55:51Z</time>
      </trkpt>
      <trkpt lat="42.552698" lon="1.103571">
        <ele>1757.884</ele>
        <time>2021-06-18T17:55:52Z</time>
      </trkpt>
      <trkpt lat="42.552716" lon="1.103610">
        <ele>1758.348</ele>
        <time>2021-06-18T17:55:54Z</time>
      </trkpt>
      <trkpt lat="42.552737" lon="1.103654">
        <ele>1758.552</ele>
        <time>2021-06-18T17:55:56Z</time>
      </trkpt>
      <trkpt lat="42.552755" lon="1.103699">
        <ele>1758.882</ele>
        <time>2021-06-18T17:55:58Z</time>
      </trkpt>
      <trkpt lat="42.552775" lon="1.103843">
        <ele>1761.815</ele>
        <time>2021-06-18T17:56:03Z</time>
      </trkpt>
      <trkpt lat="42.552774" lon="1.103872">
        <ele>1762.712</ele>
        <time>2021-06-18T17:56:04Z</time>
      </trkpt>
      <trkpt lat="42.552761" lon="1.103986">
        <ele>1764.167</ele>
        <time>2021-06-18T17:56:09Z</time>
      </trkpt>
      <trkpt lat="42.552761" lon="1.104002">
        <ele>1764.181</ele>
        <time>2021-06-18T17:56:10Z</time>
      </trkpt>
      <trkpt lat="42.552731" lon="1.104113">
        <ele>1766.119</ele>
        <time>2021-06-18T17:56:15Z</time>
      </trkpt>
      <trkpt lat="42.552727" lon="1.104134">
        <ele>1766.408</ele>
        <time>2021-06-18T17:56:16Z</time>
      </trkpt>
      <trkpt lat="42.552724" lon="1.104214">
        <ele>1766.573</ele>
        <time>2021-06-18T17:56:19Z</time>
      </trkpt>
      <trkpt lat="42.552717" lon="1.104273">
        <ele>1766.932</ele>
        <time>2021-06-18T17:56:22Z</time>
      </trkpt>
      <trkpt lat="42.552707" lon="1.104329">
        <ele>1767.488</ele>
        <time>2021-06-18T17:56:24Z</time>
      </trkpt>
      <trkpt lat="42.552692" lon="1.104375">
        <ele>1768.352</ele>
        <time>2021-06-18T17:56:26Z</time>
      </trkpt>
      <trkpt lat="42.552671" lon="1.104422">
        <ele>1769.726</ele>
        <time>2021-06-18T17:56:28Z</time>
      </trkpt>
      <trkpt lat="42.552669" lon="1.104468">
        <ele>1769.846</ele>
        <time>2021-06-18T17:56:30Z</time>
      </trkpt>
      <trkpt lat="42.552668" lon="1.104543">
        <ele>1769.969</ele>
        <time>2021-06-18T17:56:33Z</time>
      </trkpt>
      <trkpt lat="42.552667" lon="1.104564">
        <ele>1770.026</ele>
        <time>2021-06-18T17:56:34Z</time>
      </trkpt>
      <trkpt lat="42.552672" lon="1.104709">
        <ele>1769.681</ele>
        <time>2021-06-18T17:56:40Z</time>
      </trkpt>
      <trkpt lat="42.552646" lon="1.104825">
        <ele>1770.461</ele>
        <time>2021-06-18T17:56:45Z</time>
      </trkpt>
      <trkpt lat="42.552635" lon="1.104869">
        <ele>1770.717</ele>
        <time>2021-06-18T17:56:47Z</time>
      </trkpt>
      <trkpt lat="42.552614" lon="1.104953">
        <ele>1771.208</ele>
        <time>2021-06-18T17:56:51Z</time>
      </trkpt>
      <trkpt lat="42.552604" lon="1.105001">
        <ele>1771.375</ele>
        <time>2021-06-18T17:56:53Z</time>
      </trkpt>
      <trkpt lat="42.552623" lon="1.105126">
        <ele>1772.024</ele>
        <time>2021-06-18T17:56:58Z</time>
      </trkpt>
      <trkpt lat="42.552628" lon="1.105149">
        <ele>1772.160</ele>
        <time>2021-06-18T17:56:59Z</time>
      </trkpt>
      <trkpt lat="42.552654" lon="1.105253">
        <ele>1772.354</ele>
        <time>2021-06-18T17:57:04Z</time>
      </trkpt>
      <trkpt lat="42.552668" lon="1.105291">
        <ele>1772.488</ele>
        <time>2021-06-18T17:57:06Z</time>
      </trkpt>
      <trkpt lat="42.552677" lon="1.105327">
        <ele>1773.268</ele>
        <time>2021-06-18T17:57:08Z</time>
      </trkpt>
      <trkpt lat="42.552681" lon="1.105351">
        <ele>1773.831</ele>
        <time>2021-06-18T17:57:09Z</time>
      </trkpt>
      <trkpt lat="42.552694" lon="1.105395">
        <ele>1774.628</ele>
        <time>2021-06-18T17:57:11Z</time>
      </trkpt>
      <trkpt lat="42.552729" lon="1.105460">
        <ele>1775.167</ele>
        <time>2021-06-18T17:57:15Z</time>
      </trkpt>
      <trkpt lat="42.552757" lon="1.105485">
        <ele>1774.581</ele>
        <time>2021-06-18T17:57:17Z</time>
      </trkpt>
      <trkpt lat="42.552807" lon="1.105563">
        <ele>1775.519</ele>
        <time>2021-06-18T17:57:22Z</time>
      </trkpt>
      <trkpt lat="42.552813" lon="1.105580">
        <ele>1776.008</ele>
        <time>2021-06-18T17:57:23Z</time>
      </trkpt>
      <trkpt lat="42.552858" lon="1.105662">
        <ele>1778.293</ele>
        <time>2021-06-18T17:57:28Z</time>
      </trkpt>
      <trkpt lat="42.552885" lon="1.105697">
        <ele>1778.812</ele>
        <time>2021-06-18T17:57:30Z</time>
      </trkpt>
      <trkpt lat="42.552923" lon="1.105751">
        <ele>1779.988</ele>
        <time>2021-06-18T17:57:33Z</time>
      </trkpt>
      <trkpt lat="42.552978" lon="1.105805">
        <ele>1780.412</ele>
        <time>2021-06-18T17:57:37Z</time>
      </trkpt>
      <trkpt lat="42.553042" lon="1.105870">
        <ele>1780.996</ele>
        <time>2021-06-18T17:57:42Z</time>
      </trkpt>
      <trkpt lat="42.553081" lon="1.105909">
        <ele>1781.326</ele>
        <time>2021-06-18T17:57:45Z</time>
      </trkpt>
      <trkpt lat="42.553145" lon="1.105977">
        <ele>1782.319</ele>
        <time>2021-06-18T17:57:50Z</time>
      </trkpt>
      <trkpt lat="42.553173" lon="1.106004">
        <ele>1782.686</ele>
        <time>2021-06-18T17:57:52Z</time>
      </trkpt>
      <trkpt lat="42.553233" lon="1.106045">
        <ele>1782.841</ele>
        <time>2021-06-18T17:57:56Z</time>
      </trkpt>
      <trkpt lat="42.553268" lon="1.106073">
        <ele>1783.081</ele>
        <time>2021-06-18T17:57:59Z</time>
      </trkpt>
      <trkpt lat="42.553280" lon="1.106086">
        <ele>1783.309</ele>
        <time>2021-06-18T17:58:00Z</time>
      </trkpt>
      <trkpt lat="42.553292" lon="1.106102">
        <ele>1783.708</ele>
        <time>2021-06-18T17:58:01Z</time>
      </trkpt>
      <trkpt lat="42.553341" lon="1.106151">
        <ele>1784.751</ele>
        <time>2021-06-18T17:58:05Z</time>
      </trkpt>
      <trkpt lat="42.553359" lon="1.106157">
        <ele>1784.750</ele>
        <time>2021-06-18T17:58:06Z</time>
      </trkpt>
      <trkpt lat="42.553371" lon="1.106166">
        <ele>1784.946</ele>
        <time>2021-06-18T17:58:07Z</time>
      </trkpt>
      <trkpt lat="42.553413" lon="1.106219">
        <ele>1786.650</ele>
        <time>2021-06-18T17:58:11Z</time>
      </trkpt>
      <trkpt lat="42.553441" lon="1.106237">
        <ele>1787.014</ele>
        <time>2021-06-18T17:58:13Z</time>
      </trkpt>
      <trkpt lat="42.553455" lon="1.106246">
        <ele>1787.184</ele>
        <time>2021-06-18T17:58:14Z</time>
      </trkpt>
      <trkpt lat="42.553518" lon="1.106273">
        <ele>1787.337</ele>
        <time>2021-06-18T17:58:18Z</time>
      </trkpt>
      <trkpt lat="42.553532" lon="1.106283">
        <ele>1787.534</ele>
        <time>2021-06-18T17:58:19Z</time>
      </trkpt>
      <trkpt lat="42.553597" lon="1.106351">
        <ele>1789.592</ele>
        <time>2021-06-18T17:58:25Z</time>
      </trkpt>
      <trkpt lat="42.553611" lon="1.106367">
        <ele>1790.073</ele>
        <time>2021-06-18T17:58:26Z</time>
      </trkpt>
      <trkpt lat="42.553675" lon="1.106448">
        <ele>1790.620</ele>
        <time>2021-06-18T17:58:31Z</time>
      </trkpt>
      <trkpt lat="42.553685" lon="1.106467">
        <ele>1790.708</ele>
        <time>2021-06-18T17:58:32Z</time>
      </trkpt>
      <trkpt lat="42.553755" lon="1.106551">
        <ele>1790.396</ele>
        <time>2021-06-18T17:58:37Z</time>
      </trkpt>
      <trkpt lat="42.553767" lon="1.106566">
        <ele>1790.295</ele>
        <time>2021-06-18T17:58:38Z</time>
      </trkpt>
      <trkpt lat="42.553797" lon="1.106648">
        <ele>1790.711</ele>
        <time>2021-06-18T17:58:42Z</time>
      </trkpt>
      <trkpt lat="42.553805" lon="1.106698">
        <ele>1790.865</ele>
        <time>2021-06-18T17:58:45Z</time>
      </trkpt>
      <trkpt lat="42.553795" lon="1.106712">
        <ele>1791.229</ele>
        <time>2021-06-18T17:58:47Z</time>
      </trkpt>
      <trkpt lat="42.553778" lon="1.106717">
        <ele>1791.719</ele>
        <time>2021-06-18T17:58:49Z</time>
      </trkpt>
      <trkpt lat="42.553761" lon="1.106704">
        <ele>1792.372</ele>
        <time>2021-06-18T17:58:51Z</time>
      </trkpt>
      <trkpt lat="42.553727" lon="1.106686">
        <ele>1793.379</ele>
        <time>2021-06-18T17:58:54Z</time>
      </trkpt>
      <trkpt lat="42.553724" lon="1.106684">
        <ele>1793.461</ele>
        <time>2021-06-18T17:58:56Z</time>
      </trkpt>
      <trkpt lat="42.553698" lon="1.106663">
        <ele>1794.121</ele>
        <time>2021-06-18T17:59:08Z</time>
      </trkpt>
      <trkpt lat="42.553666" lon="1.106637">
        <ele>1794.613</ele>
        <time>2021-06-18T17:59:10Z</time>
      </trkpt>
      <trkpt lat="42.553569" lon="1.106537">
        <ele>1795.308</ele>
        <time>2021-06-18T17:59:17Z</time>
      </trkpt>
      <trkpt lat="42.553510" lon="1.106495">
        <ele>1795.773</ele>
        <time>2021-06-18T17:59:21Z</time>
      </trkpt>
      <trkpt lat="42.553486" lon="1.106467">
        <ele>1795.482</ele>
        <time>2021-06-18T17:59:23Z</time>
      </trkpt>
      <trkpt lat="42.553439" lon="1.106437">
        <ele>1795.638</ele>
        <time>2021-06-18T17:59:26Z</time>
      </trkpt>
      <trkpt lat="42.553360" lon="1.106404">
        <ele>1796.092</ele>
        <time>2021-06-18T17:59:31Z</time>
      </trkpt>
      <trkpt lat="42.553306" lon="1.106402">
        <ele>1796.976</ele>
        <time>2021-06-18T17:59:34Z</time>
      </trkpt>
      <trkpt lat="42.553234" lon="1.106390">
        <ele>1797.536</ele>
        <time>2021-06-18T17:59:38Z</time>
      </trkpt>
      <trkpt lat="42.553217" lon="1.106392">
        <ele>1797.899</ele>
        <time>2021-06-18T17:59:39Z</time>
      </trkpt>
      <trkpt lat="42.553166" lon="1.106396">
        <ele>1798.776</ele>
        <time>2021-06-18T17:59:42Z</time>
      </trkpt>
      <trkpt lat="42.553121" lon="1.106396">
        <ele>1799.399</ele>
        <time>2021-06-18T17:59:45Z</time>
      </trkpt>
      <trkpt lat="42.553064" lon="1.106378">
        <ele>1799.507</ele>
        <time>2021-06-18T17:59:49Z</time>
      </trkpt>
      <trkpt lat="42.552949" lon="1.106365">
        <ele>1801.927</ele>
        <time>2021-06-18T17:59:56Z</time>
      </trkpt>
      <trkpt lat="42.552931" lon="1.106364">
        <ele>1802.308</ele>
        <time>2021-06-18T17:59:57Z</time>
      </trkpt>
      <trkpt lat="42.552824" lon="1.106335">
        <ele>1804.116</ele>
        <time>2021-06-18T18:00:03Z</time>
      </trkpt>
      <trkpt lat="42.552709" lon="1.106236">
        <ele>1804.865</ele>
        <time>2021-06-18T18:00:10Z</time>
      </trkpt>
      <trkpt lat="42.552586" lon="1.106143">
        <ele>1806.631</ele>
        <time>2021-06-18T18:00:17Z</time>
      </trkpt>
      <trkpt lat="42.552569" lon="1.106132">
        <ele>1806.965</ele>
        <time>2021-06-18T18:00:18Z</time>
      </trkpt>
      <trkpt lat="42.552454" lon="1.106019">
        <ele>1807.919</ele>
        <time>2021-06-18T18:00:25Z</time>
      </trkpt>
      <trkpt lat="42.552437" lon="1.106003">
        <ele>1808.139</ele>
        <time>2021-06-18T18:00:26Z</time>
      </trkpt>
      <trkpt lat="42.552355" lon="1.105936">
        <ele>1809.822</ele>
        <time>2021-06-18T18:00:31Z</time>
      </trkpt>
      <trkpt lat="42.552299" lon="1.105861">
        <ele>1810.139</ele>
        <time>2021-06-18T18:00:35Z</time>
      </trkpt>
      <trkpt lat="42.552253" lon="1.105814">
        <ele>1810.944</ele>
        <time>2021-06-18T18:00:38Z</time>
      </trkpt>
      <trkpt lat="42.552195" lon="1.105746">
        <ele>1811.905</ele>
        <time>2021-06-18T18:00:42Z</time>
      </trkpt>
      <trkpt lat="42.552156" lon="1.105695">
        <ele>1812.515</ele>
        <time>2021-06-18T18:00:45Z</time>
      </trkpt>
      <trkpt lat="42.552116" lon="1.105639">
        <ele>1812.908</ele>
        <time>2021-06-18T18:00:48Z</time>
      </trkpt>
      <trkpt lat="42.552037" lon="1.105539">
        <ele>1814.091</ele>
        <time>2021-06-18T18:00:54Z</time>
      </trkpt>
      <trkpt lat="42.551981" lon="1.105401">
        <ele>1814.730</ele>
        <time>2021-06-18T18:01:00Z</time>
      </trkpt>
      <trkpt lat="42.551968" lon="1.105350">
        <ele>1814.716</ele>
        <time>2021-06-18T18:01:02Z</time>
      </trkpt>
      <trkpt lat="42.551965" lon="1.105274">
        <ele>1813.850</ele>
        <time>2021-06-18T18:01:05Z</time>
      </trkpt>
      <trkpt lat="42.551958" lon="1.105201">
        <ele>1814.474</ele>
        <time>2021-06-18T18:01:08Z</time>
      </trkpt>
      <trkpt lat="42.551957" lon="1.105049">
        <ele>1815.054</ele>
        <time>2021-06-18T18:01:14Z</time>
      </trkpt>
      <trkpt lat="42.551953" lon="1.105004">
        <ele>1815.437</ele>
        <time>2021-06-18T18:01:16Z</time>
      </trkpt>
      <trkpt lat="42.551955" lon="1.104979">
        <ele>1815.564</ele>
        <time>2021-06-18T18:01:17Z</time>
      </trkpt>
      <trkpt lat="42.551970" lon="1.104881">
        <ele>1815.637</ele>
        <time>2021-06-18T18:01:21Z</time>
      </trkpt>
      <trkpt lat="42.551971" lon="1.104856">
        <ele>1815.849</ele>
        <time>2021-06-18T18:01:22Z</time>
      </trkpt>
      <trkpt lat="42.551987" lon="1.104730">
        <ele>1816.213</ele>
        <time>2021-06-18T18:01:27Z</time>
      </trkpt>
      <trkpt lat="42.551989" lon="1.104655">
        <ele>1816.408</ele>
        <time>2021-06-18T18:01:30Z</time>
      </trkpt>
      <trkpt lat="42.551990" lon="1.104554">
        <ele>1816.750</ele>
        <time>2021-06-18T18:01:34Z</time>
      </trkpt>
      <trkpt lat="42.551969" lon="1.104454">
        <ele>1818.439</ele>
        <time>2021-06-18T18:01:38Z</time>
      </trkpt>
      <trkpt lat="42.551960" lon="1.104432">
        <ele>1818.785</ele>
        <time>2021-06-18T18:01:39Z</time>
      </trkpt>
      <trkpt lat="42.551910" lon="1.104329">
        <ele>1819.139</ele>
        <time>2021-06-18T18:01:44Z</time>
      </trkpt>
      <trkpt lat="42.551881" lon="1.104299">
        <ele>1819.753</ele>
        <time>2021-06-18T18:01:46Z</time>
      </trkpt>
      <trkpt lat="42.551806" lon="1.104235">
        <ele>1821.353</ele>
        <time>2021-06-18T18:01:51Z</time>
      </trkpt>
      <trkpt lat="42.551790" lon="1.104224">
        <ele>1821.766</ele>
        <time>2021-06-18T18:01:52Z</time>
      </trkpt>
      <trkpt lat="42.551685" lon="1.104139">
        <ele>1823.593</ele>
        <time>2021-06-18T18:01:59Z</time>
      </trkpt>
      <trkpt lat="42.551655" lon="1.104118">
        <ele>1824.213</ele>
        <time>2021-06-18T18:02:01Z</time>
      </trkpt>
      <trkpt lat="42.551569" lon="1.104038">
        <ele>1826.143</ele>
        <time>2021-06-18T18:02:07Z</time>
      </trkpt>
      <trkpt lat="42.551526" lon="1.104001">
        <ele>1827.007</ele>
        <time>2021-06-18T18:02:10Z</time>
      </trkpt>
      <trkpt lat="42.551513" lon="1.103987">
        <ele>1827.208</ele>
        <time>2021-06-18T18:02:11Z</time>
      </trkpt>
      <trkpt lat="42.551486" lon="1.103955">
        <ele>1827.518</ele>
        <time>2021-06-18T18:02:13Z</time>
      </trkpt>
      <trkpt lat="42.551459" lon="1.103924">
        <ele>1827.847</ele>
        <time>2021-06-18T18:02:15Z</time>
      </trkpt>
      <trkpt lat="42.551447" lon="1.103910">
        <ele>1827.933</ele>
        <time>2021-06-18T18:02:16Z</time>
      </trkpt>
      <trkpt lat="42.551414" lon="1.103855">
        <ele>1828.017</ele>
        <time>2021-06-18T18:02:19Z</time>
      </trkpt>
      <trkpt lat="42.551373" lon="1.103804">
        <ele>1828.691</ele>
        <time>2021-06-18T18:02:22Z</time>
      </trkpt>
      <trkpt lat="42.551333" lon="1.103756">
        <ele>1829.361</ele>
        <time>2021-06-18T18:02:25Z</time>
      </trkpt>
      <trkpt lat="42.551262" lon="1.103654">
        <ele>1829.764</ele>
        <time>2021-06-18T18:02:31Z</time>
      </trkpt>
      <trkpt lat="42.551187" lon="1.103585">
        <ele>1830.891</ele>
        <time>2021-06-18T18:02:36Z</time>
      </trkpt>
      <trkpt lat="42.551139" lon="1.103550">
        <ele>1831.673</ele>
        <time>2021-06-18T18:02:39Z</time>
      </trkpt>
      <trkpt lat="42.551092" lon="1.103485">
        <ele>1831.185</ele>
        <time>2021-06-18T18:02:43Z</time>
      </trkpt>
      <trkpt lat="42.551042" lon="1.103465">
        <ele>1832.013</ele>
        <time>2021-06-18T18:02:46Z</time>
      </trkpt>
      <trkpt lat="42.551002" lon="1.103456">
        <ele>1832.908</ele>
        <time>2021-06-18T18:02:48Z</time>
      </trkpt>
      <trkpt lat="42.550907" lon="1.103418">
        <ele>1834.494</ele>
        <time>2021-06-18T18:02:53Z</time>
      </trkpt>
      <trkpt lat="42.550872" lon="1.103401">
        <ele>1834.743</ele>
        <time>2021-06-18T18:02:55Z</time>
      </trkpt>
      <trkpt lat="42.550862" lon="1.103389">
        <ele>1834.589</ele>
        <time>2021-06-18T18:02:56Z</time>
      </trkpt>
      <trkpt lat="42.550831" lon="1.103355">
        <ele>1834.093</ele>
        <time>2021-06-18T18:02:59Z</time>
      </trkpt>
      <trkpt lat="42.550812" lon="1.103354">
        <ele>1834.427</ele>
        <time>2021-06-18T18:03:00Z</time>
      </trkpt>
      <trkpt lat="42.550752" lon="1.103329">
        <ele>1834.677</ele>
        <time>2021-06-18T18:03:04Z</time>
      </trkpt>
      <trkpt lat="42.550737" lon="1.103319">
        <ele>1834.490</ele>
        <time>2021-06-18T18:03:05Z</time>
      </trkpt>
      <trkpt lat="42.550615" lon="1.103289">
        <ele>1835.627</ele>
        <time>2021-06-18T18:03:12Z</time>
      </trkpt>
      <trkpt lat="42.550561" lon="1.103285">
        <ele>1836.695</ele>
        <time>2021-06-18T18:03:15Z</time>
      </trkpt>
      <trkpt lat="42.550476" lon="1.103273">
        <ele>1837.549</ele>
        <time>2021-06-18T18:03:20Z</time>
      </trkpt>
      <trkpt lat="42.550427" lon="1.103262">
        <ele>1837.923</ele>
        <time>2021-06-18T18:03:23Z</time>
      </trkpt>
      <trkpt lat="42.550354" lon="1.103253">
        <ele>1838.708</ele>
        <time>2021-06-18T18:03:27Z</time>
      </trkpt>
      <trkpt lat="42.550301" lon="1.103242">
        <ele>1839.036</ele>
        <time>2021-06-18T18:03:30Z</time>
      </trkpt>
      <trkpt lat="42.550255" lon="1.103234">
        <ele>1839.215</ele>
        <time>2021-06-18T18:03:33Z</time>
      </trkpt>
      <trkpt lat="42.550214" lon="1.103231">
        <ele>1839.311</ele>
        <time>2021-06-18T18:03:36Z</time>
      </trkpt>
      <trkpt lat="42.550170" lon="1.103242">
        <ele>1840.275</ele>
        <time>2021-06-18T18:03:39Z</time>
      </trkpt>
      <trkpt lat="42.550118" lon="1.103249">
        <ele>1840.999</ele>
        <time>2021-06-18T18:03:42Z</time>
      </trkpt>
      <trkpt lat="42.550051" lon="1.103250">
        <ele>1841.449</ele>
        <time>2021-06-18T18:03:46Z</time>
      </trkpt>
      <trkpt lat="42.550024" lon="1.103234">
        <ele>1840.812</ele>
        <time>2021-06-18T18:03:48Z</time>
      </trkpt>
      <trkpt lat="42.549976" lon="1.103224">
        <ele>1840.639</ele>
        <time>2021-06-18T18:03:52Z</time>
      </trkpt>
      <trkpt lat="42.549948" lon="1.103223">
        <ele>1840.657</ele>
        <time>2021-06-18T18:03:54Z</time>
      </trkpt>
      <trkpt lat="42.549883" lon="1.103233">
        <ele>1841.400</ele>
        <time>2021-06-18T18:03:58Z</time>
      </trkpt>
      <trkpt lat="42.549848" lon="1.103241">
        <ele>1841.920</ele>
        <time>2021-06-18T18:04:00Z</time>
      </trkpt>
      <trkpt lat="42.549802" lon="1.103253">
        <ele>1842.708</ele>
        <time>2021-06-18T18:04:03Z</time>
      </trkpt>
      <trkpt lat="42.549767" lon="1.103255">
        <ele>1842.942</ele>
        <time>2021-06-18T18:04:05Z</time>
      </trkpt>
      <trkpt lat="42.549670" lon="1.103273">
        <ele>1844.481</ele>
        <time>2021-06-18T18:04:10Z</time>
      </trkpt>
      <trkpt lat="42.549654" lon="1.103266">
        <ele>1844.247</ele>
        <time>2021-06-18T18:04:11Z</time>
      </trkpt>
      <trkpt lat="42.549519" lon="1.103277">
        <ele>1845.961</ele>
        <time>2021-06-18T18:04:17Z</time>
      </trkpt>
      <trkpt lat="42.549495" lon="1.103284">
        <ele>1846.465</ele>
        <time>2021-06-18T18:04:18Z</time>
      </trkpt>
      <trkpt lat="42.549362" lon="1.103310">
        <ele>1848.655</ele>
        <time>2021-06-18T18:04:24Z</time>
      </trkpt>
      <trkpt lat="42.549250" lon="1.103294">
        <ele>1848.838</ele>
        <time>2021-06-18T18:04:30Z</time>
      </trkpt>
      <trkpt lat="42.549228" lon="1.103292">
        <ele>1848.925</ele>
        <time>2021-06-18T18:04:31Z</time>
      </trkpt>
      <trkpt lat="42.549104" lon="1.103260">
        <ele>1849.888</ele>
        <time>2021-06-18T18:04:37Z</time>
      </trkpt>
      <trkpt lat="42.549044" lon="1.103244">
        <ele>1850.724</ele>
        <time>2021-06-18T18:04:40Z</time>
      </trkpt>
      <trkpt lat="42.548960" lon="1.103185">
        <ele>1850.326</ele>
        <time>2021-06-18T18:04:45Z</time>
      </trkpt>
      <trkpt lat="42.548903" lon="1.103163">
        <ele>1850.708</ele>
        <time>2021-06-18T18:04:48Z</time>
      </trkpt>
      <trkpt lat="42.548830" lon="1.103138">
        <ele>1851.365</ele>
        <time>2021-06-18T18:04:52Z</time>
      </trkpt>
      <trkpt lat="42.548777" lon="1.103131">
        <ele>1852.324</ele>
        <time>2021-06-18T18:04:55Z</time>
      </trkpt>
      <trkpt lat="42.548702" lon="1.103117">
        <ele>1853.650</ele>
        <time>2021-06-18T18:04:59Z</time>
      </trkpt>
      <trkpt lat="42.548662" lon="1.103106">
        <ele>1854.194</ele>
        <time>2021-06-18T18:05:01Z</time>
      </trkpt>
      <trkpt lat="42.548546" lon="1.103042">
        <ele>1854.938</ele>
        <time>2021-06-18T18:05:07Z</time>
      </trkpt>
      <trkpt lat="42.548510" lon="1.103016">
        <ele>1855.288</ele>
        <time>2021-06-18T18:05:09Z</time>
      </trkpt>
      <trkpt lat="42.548424" lon="1.102948">
        <ele>1855.961</ele>
        <time>2021-06-18T18:05:14Z</time>
      </trkpt>
      <trkpt lat="42.548374" lon="1.102883">
        <ele>1855.378</ele>
        <time>2021-06-18T18:05:17Z</time>
      </trkpt>
      <trkpt lat="42.548344" lon="1.102853">
        <ele>1855.321</ele>
        <time>2021-06-18T18:05:19Z</time>
      </trkpt>
      <trkpt lat="42.548265" lon="1.102762">
        <ele>1855.841</ele>
        <time>2021-06-18T18:05:24Z</time>
      </trkpt>
      <trkpt lat="42.548251" lon="1.102737">
        <ele>1855.905</ele>
        <time>2021-06-18T18:05:25Z</time>
      </trkpt>
      <trkpt lat="42.548188" lon="1.102635">
        <ele>1856.708</ele>
        <time>2021-06-18T18:05:30Z</time>
      </trkpt>
      <trkpt lat="42.548179" lon="1.102613">
        <ele>1856.749</ele>
        <time>2021-06-18T18:05:31Z</time>
      </trkpt>
      <trkpt lat="42.548131" lon="1.102431">
        <ele>1857.518</ele>
        <time>2021-06-18T18:05:38Z</time>
      </trkpt>
      <trkpt lat="42.548140" lon="1.102407">
        <ele>1857.294</ele>
        <time>2021-06-18T18:05:39Z</time>
      </trkpt>
      <trkpt lat="42.548191" lon="1.102231">
        <ele>1855.648</ele>
        <time>2021-06-18T18:05:46Z</time>
      </trkpt>
      <trkpt lat="42.548202" lon="1.102209">
        <ele>1855.422</ele>
        <time>2021-06-18T18:05:47Z</time>
      </trkpt>
      <trkpt lat="42.548245" lon="1.102123">
        <ele>1855.332</ele>
        <time>2021-06-18T18:05:51Z</time>
      </trkpt>
      <trkpt lat="42.548267" lon="1.102087">
        <ele>1855.025</ele>
        <time>2021-06-18T18:05:53Z</time>
      </trkpt>
      <trkpt lat="42.548297" lon="1.101985">
        <ele>1856.112</ele>
        <time>2021-06-18T18:05:58Z</time>
      </trkpt>
      <trkpt lat="42.548309" lon="1.101912">
        <ele>1856.913</ele>
        <time>2021-06-18T18:06:01Z</time>
      </trkpt>
      <trkpt lat="42.548314" lon="1.101816">
        <ele>1858.043</ele>
        <time>2021-06-18T18:06:05Z</time>
      </trkpt>
      <trkpt lat="42.548318" lon="1.101765">
        <ele>1858.507</ele>
        <time>2021-06-18T18:06:07Z</time>
      </trkpt>
      <trkpt lat="42.548308" lon="1.101643">
        <ele>1860.608</ele>
        <time>2021-06-18T18:06:12Z</time>
      </trkpt>
      <trkpt lat="42.548301" lon="1.101569">
        <ele>1861.398</ele>
        <time>2021-06-18T18:06:15Z</time>
      </trkpt>
      <trkpt lat="42.548301" lon="1.101447">
        <ele>1861.817</ele>
        <time>2021-06-18T18:06:20Z</time>
      </trkpt>
      <trkpt lat="42.548289" lon="1.101400">
        <ele>1862.863</ele>
        <time>2021-06-18T18:06:22Z</time>
      </trkpt>
      <trkpt lat="42.548281" lon="1.101328">
        <ele>1863.827</ele>
        <time>2021-06-18T18:06:25Z</time>
      </trkpt>
      <trkpt lat="42.548279" lon="1.101256">
        <ele>1864.461</ele>
        <time>2021-06-18T18:06:28Z</time>
      </trkpt>
      <trkpt lat="42.548275" lon="1.101231">
        <ele>1864.821</ele>
        <time>2021-06-18T18:06:29Z</time>
      </trkpt>
      <trkpt lat="42.548271" lon="1.101181">
        <ele>1865.454</ele>
        <time>2021-06-18T18:06:31Z</time>
      </trkpt>
      <trkpt lat="42.548271" lon="1.101081">
        <ele>1866.081</ele>
        <time>2021-06-18T18:06:35Z</time>
      </trkpt>
      <trkpt lat="42.548273" lon="1.100956">
        <ele>1866.565</ele>
        <time>2021-06-18T18:06:40Z</time>
      </trkpt>
      <trkpt lat="42.548284" lon="1.100884">
        <ele>1866.168</ele>
        <time>2021-06-18T18:06:43Z</time>
      </trkpt>
      <trkpt lat="42.548292" lon="1.100769">
        <ele>1866.514</ele>
        <time>2021-06-18T18:06:48Z</time>
      </trkpt>
      <trkpt lat="42.548290" lon="1.100719">
        <ele>1867.208</ele>
        <time>2021-06-18T18:06:50Z</time>
      </trkpt>
      <trkpt lat="42.548287" lon="1.100571">
        <ele>1869.073</ele>
        <time>2021-06-18T18:06:56Z</time>
      </trkpt>
      <trkpt lat="42.548287" lon="1.100399">
        <ele>1870.432</ele>
        <time>2021-06-18T18:07:03Z</time>
      </trkpt>
      <trkpt lat="42.548284" lon="1.100226">
        <ele>1871.558</ele>
        <time>2021-06-18T18:07:10Z</time>
      </trkpt>
      <trkpt lat="42.548283" lon="1.100201">
        <ele>1871.652</ele>
        <time>2021-06-18T18:07:11Z</time>
      </trkpt>
      <trkpt lat="42.548259" lon="1.100050">
        <ele>1873.116</ele>
        <time>2021-06-18T18:07:17Z</time>
      </trkpt>
      <trkpt lat="42.548255" lon="1.099977">
        <ele>1872.966</ele>
        <time>2021-06-18T18:07:20Z</time>
      </trkpt>
      <trkpt lat="42.548239" lon="1.099900">
        <ele>1872.789</ele>
        <time>2021-06-18T18:07:25Z</time>
      </trkpt>
      <trkpt lat="42.548237" lon="1.099899">
        <ele>1872.886</ele>
        <time>2021-06-18T18:07:26Z</time>
      </trkpt>
      <trkpt lat="42.548201" lon="1.099843">
        <ele>1874.222</ele>
        <time>2021-06-18T18:17:43Z</time>
      </trkpt>
      <trkpt lat="42.548193" lon="1.099823">
        <ele>1874.462</ele>
        <time>2021-06-18T18:17:44Z</time>
      </trkpt>
      <trkpt lat="42.548187" lon="1.099799">
        <ele>1874.408</ele>
        <time>2021-06-18T18:17:45Z</time>
      </trkpt>
      <trkpt lat="42.548132" lon="1.099661">
        <ele>1875.208</ele>
        <time>2021-06-18T18:17:51Z</time>
      </trkpt>
      <trkpt lat="42.548083" lon="1.099552">
        <ele>1875.859</ele>
        <time>2021-06-18T18:17:56Z</time>
      </trkpt>
      <trkpt lat="42.548073" lon="1.099529">
        <ele>1875.918</ele>
        <time>2021-06-18T18:17:57Z</time>
      </trkpt>
      <trkpt lat="42.548018" lon="1.099420">
        <ele>1877.284</ele>
        <time>2021-06-18T18:18:02Z</time>
      </trkpt>
      <trkpt lat="42.547940" lon="1.099264">
        <ele>1878.998</ele>
        <time>2021-06-18T18:18:09Z</time>
      </trkpt>
      <trkpt lat="42.547871" lon="1.099131">
        <ele>1879.972</ele>
        <time>2021-06-18T18:18:15Z</time>
      </trkpt>
      <trkpt lat="42.547856" lon="1.099087">
        <ele>1879.682</ele>
        <time>2021-06-18T18:18:17Z</time>
      </trkpt>
      <trkpt lat="42.547829" lon="1.099027">
        <ele>1879.785</ele>
        <time>2021-06-18T18:18:20Z</time>
      </trkpt>
      <trkpt lat="42.547767" lon="1.098930">
        <ele>1880.942</ele>
        <time>2021-06-18T18:18:25Z</time>
      </trkpt>
      <trkpt lat="42.547686" lon="1.098823">
        <ele>1883.461</ele>
        <time>2021-06-18T18:18:31Z</time>
      </trkpt>
      <trkpt lat="42.547674" lon="1.098805">
        <ele>1883.821</ele>
        <time>2021-06-18T18:18:32Z</time>
      </trkpt>
      <trkpt lat="42.547621" lon="1.098702">
        <ele>1884.713</ele>
        <time>2021-06-18T18:18:37Z</time>
      </trkpt>
      <trkpt lat="42.547566" lon="1.098606">
        <ele>1885.908</ele>
        <time>2021-06-18T18:18:42Z</time>
      </trkpt>
      <trkpt lat="42.547513" lon="1.098478">
        <ele>1887.433</ele>
        <time>2021-06-18T18:18:48Z</time>
      </trkpt>
      <trkpt lat="42.547510" lon="1.098308">
        <ele>1886.342</ele>
        <time>2021-06-18T18:18:55Z</time>
      </trkpt>
      <trkpt lat="42.547515" lon="1.098285">
        <ele>1886.828</ele>
        <time>2021-06-18T18:18:56Z</time>
      </trkpt>
      <trkpt lat="42.547592" lon="1.098156">
        <ele>1887.822</ele>
        <time>2021-06-18T18:19:03Z</time>
      </trkpt>
      <trkpt lat="42.547605" lon="1.098146">
        <ele>1887.636</ele>
        <time>2021-06-18T18:19:04Z</time>
      </trkpt>
      <trkpt lat="42.547668" lon="1.098067">
        <ele>1888.296</ele>
        <time>2021-06-18T18:19:09Z</time>
      </trkpt>
      <trkpt lat="42.547728" lon="1.098016">
        <ele>1888.329</ele>
        <time>2021-06-18T18:19:13Z</time>
      </trkpt>
      <trkpt lat="42.547768" lon="1.097968">
        <ele>1889.166</ele>
        <time>2021-06-18T18:19:16Z</time>
      </trkpt>
      <trkpt lat="42.547797" lon="1.097933">
        <ele>1889.721</ele>
        <time>2021-06-18T18:19:19Z</time>
      </trkpt>
      <trkpt lat="42.547797" lon="1.097931">
        <ele>1889.841</ele>
        <time>2021-06-18T18:19:20Z</time>
      </trkpt>
      <trkpt lat="42.547822" lon="1.097914">
        <ele>1889.805</ele>
        <time>2021-06-18T18:20:21Z</time>
      </trkpt>
      <trkpt lat="42.547907" lon="1.097814">
        <ele>1891.708</ele>
        <time>2021-06-18T18:20:28Z</time>
      </trkpt>
      <trkpt lat="42.548042" lon="1.097734">
        <ele>1891.969</ele>
        <time>2021-06-18T18:20:36Z</time>
      </trkpt>
      <trkpt lat="42.548127" lon="1.097690">
        <ele>1891.988</ele>
        <time>2021-06-18T18:20:41Z</time>
      </trkpt>
      <trkpt lat="42.548164" lon="1.097677">
        <ele>1891.534</ele>
        <time>2021-06-18T18:20:43Z</time>
      </trkpt>
      <trkpt lat="42.548243" lon="1.097612">
        <ele>1892.778</ele>
        <time>2021-06-18T18:20:48Z</time>
      </trkpt>
      <trkpt lat="42.548276" lon="1.097586">
        <ele>1893.252</ele>
        <time>2021-06-18T18:20:50Z</time>
      </trkpt>
      <trkpt lat="42.548334" lon="1.097534">
        <ele>1894.112</ele>
        <time>2021-06-18T18:20:54Z</time>
      </trkpt>
      <trkpt lat="42.548347" lon="1.097518">
        <ele>1894.485</ele>
        <time>2021-06-18T18:20:55Z</time>
      </trkpt>
      <trkpt lat="42.548408" lon="1.097434">
        <ele>1895.842</ele>
        <time>2021-06-18T18:21:01Z</time>
      </trkpt>
      <trkpt lat="42.548418" lon="1.097420">
        <ele>1896.083</ele>
        <time>2021-06-18T18:21:02Z</time>
      </trkpt>
      <trkpt lat="42.548430" lon="1.097404">
        <ele>1896.225</ele>
        <time>2021-06-18T18:21:03Z</time>
      </trkpt>
      <trkpt lat="42.548452" lon="1.097384">
        <ele>1896.117</ele>
        <time>2021-06-18T18:21:05Z</time>
      </trkpt>
      <trkpt lat="42.548472" lon="1.097357">
        <ele>1896.408</ele>
        <time>2021-06-18T18:21:07Z</time>
      </trkpt>
      <trkpt lat="42.548488" lon="1.097315">
        <ele>1897.685</ele>
        <time>2021-06-18T18:21:09Z</time>
      </trkpt>
      <trkpt lat="42.548529" lon="1.097257">
        <ele>1898.384</ele>
        <time>2021-06-18T18:21:12Z</time>
      </trkpt>
      <trkpt lat="42.548553" lon="1.097222">
        <ele>1898.720</ele>
        <time>2021-06-18T18:21:14Z</time>
      </trkpt>
      <trkpt lat="42.548569" lon="1.097206">
        <ele>1898.694</ele>
        <time>2021-06-18T18:21:15Z</time>
      </trkpt>
      <trkpt lat="42.548600" lon="1.097169">
        <ele>1898.448</ele>
        <time>2021-06-18T18:21:17Z</time>
      </trkpt>
      <trkpt lat="42.548610" lon="1.097146">
        <ele>1898.818</ele>
        <time>2021-06-18T18:21:18Z</time>
      </trkpt>
      <trkpt lat="42.548634" lon="1.097105">
        <ele>1899.211</ele>
        <time>2021-06-18T18:21:20Z</time>
      </trkpt>
      <trkpt lat="42.548658" lon="1.097064">
        <ele>1899.658</ele>
        <time>2021-06-18T18:21:22Z</time>
      </trkpt>
      <trkpt lat="42.548720" lon="1.097009">
        <ele>1898.924</ele>
        <time>2021-06-18T18:21:26Z</time>
      </trkpt>
      <trkpt lat="42.548767" lon="1.096908">
        <ele>1900.104</ele>
        <time>2021-06-18T18:21:31Z</time>
      </trkpt>
      <trkpt lat="42.548776" lon="1.096887">
        <ele>1900.214</ele>
        <time>2021-06-18T18:21:32Z</time>
      </trkpt>
      <trkpt lat="42.548796" lon="1.096776">
        <ele>1901.708</ele>
        <time>2021-06-18T18:21:37Z</time>
      </trkpt>
      <trkpt lat="42.548798" lon="1.096751">
        <ele>1902.159</ele>
        <time>2021-06-18T18:21:38Z</time>
      </trkpt>
      <trkpt lat="42.548841" lon="1.096597">
        <ele>1902.858</ele>
        <time>2021-06-18T18:21:44Z</time>
      </trkpt>
      <trkpt lat="42.548847" lon="1.096573">
        <ele>1902.924</ele>
        <time>2021-06-18T18:21:45Z</time>
      </trkpt>
      <trkpt lat="42.548883" lon="1.096420">
        <ele>1903.828</ele>
        <time>2021-06-18T18:21:51Z</time>
      </trkpt>
      <trkpt lat="42.548917" lon="1.096296">
        <ele>1904.612</ele>
        <time>2021-06-18T18:21:56Z</time>
      </trkpt>
      <trkpt lat="42.548937" lon="1.096225">
        <ele>1905.122</ele>
        <time>2021-06-18T18:21:59Z</time>
      </trkpt>
      <trkpt lat="42.548959" lon="1.096160">
        <ele>1905.415</ele>
        <time>2021-06-18T18:22:02Z</time>
      </trkpt>
      <trkpt lat="42.549014" lon="1.096033">
        <ele>1906.782</ele>
        <time>2021-06-18T18:22:08Z</time>
      </trkpt>
      <trkpt lat="42.549023" lon="1.096012">
        <ele>1907.026</ele>
        <time>2021-06-18T18:22:09Z</time>
      </trkpt>
      <trkpt lat="42.549079" lon="1.095911">
        <ele>1907.647</ele>
        <time>2021-06-18T18:22:15Z</time>
      </trkpt>
      <trkpt lat="42.549140" lon="1.095796">
        <ele>1908.111</ele>
        <time>2021-06-18T18:22:21Z</time>
      </trkpt>
      <trkpt lat="42.549215" lon="1.095666">
        <ele>1909.008</ele>
        <time>2021-06-18T18:22:28Z</time>
      </trkpt>
      <trkpt lat="42.549267" lon="1.095571">
        <ele>1910.029</ele>
        <time>2021-06-18T18:22:33Z</time>
      </trkpt>
      <trkpt lat="42.549278" lon="1.095553">
        <ele>1910.128</ele>
        <time>2021-06-18T18:22:34Z</time>
      </trkpt>
      <trkpt lat="42.549331" lon="1.095434">
        <ele>1911.514</ele>
        <time>2021-06-18T18:22:40Z</time>
      </trkpt>
      <trkpt lat="42.549339" lon="1.095415">
        <ele>1911.858</ele>
        <time>2021-06-18T18:22:41Z</time>
      </trkpt>
      <trkpt lat="42.549394" lon="1.095283">
        <ele>1913.592</ele>
        <time>2021-06-18T18:22:47Z</time>
      </trkpt>
      <trkpt lat="42.549403" lon="1.095259">
        <ele>1913.842</ele>
        <time>2021-06-18T18:22:48Z</time>
      </trkpt>
      <trkpt lat="42.549459" lon="1.095164">
        <ele>1914.115</ele>
        <time>2021-06-18T18:22:53Z</time>
      </trkpt>
      <trkpt lat="42.549496" lon="1.095110">
        <ele>1914.472</ele>
        <time>2021-06-18T18:22:56Z</time>
      </trkpt>
      <trkpt lat="42.549535" lon="1.095057">
        <ele>1914.779</ele>
        <time>2021-06-18T18:22:59Z</time>
      </trkpt>
      <trkpt lat="42.549570" lon="1.095009">
        <ele>1915.105</ele>
        <time>2021-06-18T18:23:02Z</time>
      </trkpt>
      <trkpt lat="42.549611" lon="1.094964">
        <ele>1915.625</ele>
        <time>2021-06-18T18:23:05Z</time>
      </trkpt>
      <trkpt lat="42.549637" lon="1.094936">
        <ele>1916.008</ele>
        <time>2021-06-18T18:23:07Z</time>
      </trkpt>
      <trkpt lat="42.549659" lon="1.094917">
        <ele>1916.134</ele>
        <time>2021-06-18T18:23:09Z</time>
      </trkpt>
      <trkpt lat="42.549687" lon="1.094900">
        <ele>1915.963</ele>
        <time>2021-06-18T18:23:11Z</time>
      </trkpt>
      <trkpt lat="42.549702" lon="1.094889">
        <ele>1915.999</ele>
        <time>2021-06-18T18:23:12Z</time>
      </trkpt>
      <trkpt lat="42.549730" lon="1.094861">
        <ele>1916.453</ele>
        <time>2021-06-18T18:23:14Z</time>
      </trkpt>
      <trkpt lat="42.549775" lon="1.094824">
        <ele>1917.387</ele>
        <time>2021-06-18T18:23:17Z</time>
      </trkpt>
      <trkpt lat="42.549811" lon="1.094808">
        <ele>1917.547</ele>
        <time>2021-06-18T18:23:19Z</time>
      </trkpt>
      <trkpt lat="42.549876" lon="1.094775">
        <ele>1918.140</ele>
        <time>2021-06-18T18:23:23Z</time>
      </trkpt>
      <trkpt lat="42.549928" lon="1.094760">
        <ele>1918.127</ele>
        <time>2021-06-18T18:23:26Z</time>
      </trkpt>
      <trkpt lat="42.550016" lon="1.094744">
        <ele>1917.895</ele>
        <time>2021-06-18T18:23:31Z</time>
      </trkpt>
      <trkpt lat="42.550032" lon="1.094744">
        <ele>1917.749</ele>
        <time>2021-06-18T18:23:32Z</time>
      </trkpt>
      <trkpt lat="42.550106" lon="1.094724">
        <ele>1918.523</ele>
        <time>2021-06-18T18:23:37Z</time>
      </trkpt>
      <trkpt lat="42.550147" lon="1.094721">
        <ele>1918.508</ele>
        <time>2021-06-18T18:23:39Z</time>
      </trkpt>
      <trkpt lat="42.550214" lon="1.094696">
        <ele>1919.496</ele>
        <time>2021-06-18T18:23:43Z</time>
      </trkpt>
      <trkpt lat="42.550247" lon="1.094673">
        <ele>1920.325</ele>
        <time>2021-06-18T18:23:45Z</time>
      </trkpt>
      <trkpt lat="42.550298" lon="1.094590">
        <ele>1923.191</ele>
        <time>2021-06-18T18:23:50Z</time>
      </trkpt>
      <trkpt lat="42.550380" lon="1.094483">
        <ele>1924.845</ele>
        <time>2021-06-18T18:23:56Z</time>
      </trkpt>
      <trkpt lat="42.550439" lon="1.094353">
        <ele>1925.549</ele>
        <time>2021-06-18T18:24:02Z</time>
      </trkpt>
      <trkpt lat="42.550449" lon="1.094334">
        <ele>1925.389</ele>
        <time>2021-06-18T18:24:03Z</time>
      </trkpt>
      <trkpt lat="42.550474" lon="1.094255">
        <ele>1925.492</ele>
        <time>2021-06-18T18:24:07Z</time>
      </trkpt>
      <trkpt lat="42.550464" lon="1.094219">
        <ele>1926.329</ele>
        <time>2021-06-18T18:24:09Z</time>
      </trkpt>
      <trkpt lat="42.550420" lon="1.094151">
        <ele>1928.344</ele>
        <time>2021-06-18T18:24:13Z</time>
      </trkpt>
      <trkpt lat="42.550407" lon="1.094135">
        <ele>1928.205</ele>
        <time>2021-06-18T18:24:14Z</time>
      </trkpt>
      <trkpt lat="42.550348" lon="1.094072">
        <ele>1928.515</ele>
        <time>2021-06-18T18:24:18Z</time>
      </trkpt>
      <trkpt lat="42.550339" lon="1.094052">
        <ele>1928.108</ele>
        <time>2021-06-18T18:24:19Z</time>
      </trkpt>
      <trkpt lat="42.550322" lon="1.094035">
        <ele>1928.341</ele>
        <time>2021-06-18T18:24:20Z</time>
      </trkpt>
      <trkpt lat="42.550283" lon="1.093980">
        <ele>1928.080</ele>
        <time>2021-06-18T18:24:23Z</time>
      </trkpt>
      <trkpt lat="42.550231" lon="1.093930">
        <ele>1928.156</ele>
        <time>2021-06-18T18:24:26Z</time>
      </trkpt>
      <trkpt lat="42.550149" lon="1.093881">
        <ele>1929.220</ele>
        <time>2021-06-18T18:24:30Z</time>
      </trkpt>
      <trkpt lat="42.550125" lon="1.093840">
        <ele>1927.994</ele>
        <time>2021-06-18T18:24:32Z</time>
      </trkpt>
      <trkpt lat="42.550034" lon="1.093769">
        <ele>1927.634</ele>
        <time>2021-06-18T18:24:37Z</time>
      </trkpt>
      <trkpt lat="42.549974" lon="1.093738">
        <ele>1928.477</ele>
        <time>2021-06-18T18:24:40Z</time>
      </trkpt>
      <trkpt lat="42.549933" lon="1.093720">
        <ele>1929.074</ele>
        <time>2021-06-18T18:24:42Z</time>
      </trkpt>
      <trkpt lat="42.549845" lon="1.093691">
        <ele>1931.052</ele>
        <time>2021-06-18T18:24:46Z</time>
      </trkpt>
      <trkpt lat="42.549773" lon="1.093668">
        <ele>1932.753</ele>
        <time>2021-06-18T18:24:49Z</time>
      </trkpt>
      <trkpt lat="42.549724" lon="1.093654">
        <ele>1933.908</ele>
        <time>2021-06-18T18:24:51Z</time>
      </trkpt>
      <trkpt lat="42.549643" lon="1.093617">
        <ele>1934.908</ele>
        <time>2021-06-18T18:24:55Z</time>
      </trkpt>
      <trkpt lat="42.549632" lon="1.093602">
        <ele>1934.412</ele>
        <time>2021-06-18T18:24:56Z</time>
      </trkpt>
      <trkpt lat="42.549560" lon="1.093595">
        <ele>1936.411</ele>
        <time>2021-06-18T18:24:59Z</time>
      </trkpt>
      <trkpt lat="42.549478" lon="1.093552">
        <ele>1937.167</ele>
        <time>2021-06-18T18:25:03Z</time>
      </trkpt>
      <trkpt lat="42.549446" lon="1.093519">
        <ele>1936.621</ele>
        <time>2021-06-18T18:25:05Z</time>
      </trkpt>
      <trkpt lat="42.549376" lon="1.093463">
        <ele>1936.915</ele>
        <time>2021-06-18T18:25:09Z</time>
      </trkpt>
      <trkpt lat="42.549345" lon="1.093430">
        <ele>1936.785</ele>
        <time>2021-06-18T18:25:11Z</time>
      </trkpt>
      <trkpt lat="42.549274" lon="1.093387">
        <ele>1937.888</ele>
        <time>2021-06-18T18:25:15Z</time>
      </trkpt>
      <trkpt lat="42.549243" lon="1.093370">
        <ele>1938.345</ele>
        <time>2021-06-18T18:25:17Z</time>
      </trkpt>
      <trkpt lat="42.549139" lon="1.093305">
        <ele>1939.992</ele>
        <time>2021-06-18T18:25:23Z</time>
      </trkpt>
      <trkpt lat="42.549044" lon="1.093243">
        <ele>1941.173</ele>
        <time>2021-06-18T18:25:29Z</time>
      </trkpt>
      <trkpt lat="42.549009" lon="1.093227">
        <ele>1941.920</ele>
        <time>2021-06-18T18:25:31Z</time>
      </trkpt>
      <trkpt lat="42.548949" lon="1.093177">
        <ele>1942.308</ele>
        <time>2021-06-18T18:25:35Z</time>
      </trkpt>
      <trkpt lat="42.548922" lon="1.093154">
        <ele>1942.536</ele>
        <time>2021-06-18T18:25:37Z</time>
      </trkpt>
      <trkpt lat="42.548849" lon="1.093090">
        <ele>1943.465</ele>
        <time>2021-06-18T18:25:42Z</time>
      </trkpt>
      <trkpt lat="42.548832" lon="1.093079">
        <ele>1943.871</ele>
        <time>2021-06-18T18:25:43Z</time>
      </trkpt>
      <trkpt lat="42.548768" lon="1.093024">
        <ele>1944.985</ele>
        <time>2021-06-18T18:25:47Z</time>
      </trkpt>
      <trkpt lat="42.548752" lon="1.093012">
        <ele>1945.389</ele>
        <time>2021-06-18T18:25:48Z</time>
      </trkpt>
      <trkpt lat="42.548672" lon="1.092950">
        <ele>1946.839</ele>
        <time>2021-06-18T18:25:53Z</time>
      </trkpt>
      <trkpt lat="42.548661" lon="1.092932">
        <ele>1946.712</ele>
        <time>2021-06-18T18:25:54Z</time>
      </trkpt>
      <trkpt lat="42.548569" lon="1.092839">
        <ele>1947.719</ele>
        <time>2021-06-18T18:26:00Z</time>
      </trkpt>
      <trkpt lat="42.548545" lon="1.092816">
        <ele>1948.143</ele>
        <time>2021-06-18T18:26:02Z</time>
      </trkpt>
      <trkpt lat="42.548497" lon="1.092723">
        <ele>1947.264</ele>
        <time>2021-06-18T18:26:06Z</time>
      </trkpt>
      <trkpt lat="42.548456" lon="1.092627">
        <ele>1945.910</ele>
        <time>2021-06-18T18:26:10Z</time>
      </trkpt>
      <trkpt lat="42.548409" lon="1.092581">
        <ele>1946.508</ele>
        <time>2021-06-18T18:26:13Z</time>
      </trkpt>
      <trkpt lat="42.548364" lon="1.092530">
        <ele>1946.721</ele>
        <time>2021-06-18T18:26:16Z</time>
      </trkpt>
      <trkpt lat="42.548337" lon="1.092500">
        <ele>1946.840</ele>
        <time>2021-06-18T18:26:18Z</time>
      </trkpt>
      <trkpt lat="42.548264" lon="1.092424">
        <ele>1947.986</ele>
        <time>2021-06-18T18:26:23Z</time>
      </trkpt>
      <trkpt lat="42.548174" lon="1.092348">
        <ele>1949.530</ele>
        <time>2021-06-18T18:26:29Z</time>
      </trkpt>
      <trkpt lat="42.548142" lon="1.092321">
        <ele>1950.064</ele>
        <time>2021-06-18T18:26:31Z</time>
      </trkpt>
      <trkpt lat="42.548044" lon="1.092245">
        <ele>1951.584</ele>
        <time>2021-06-18T18:26:37Z</time>
      </trkpt>
      <trkpt lat="42.547999" lon="1.092193">
        <ele>1952.147</ele>
        <time>2021-06-18T18:26:40Z</time>
      </trkpt>
      <trkpt lat="42.547931" lon="1.092096">
        <ele>1953.184</ele>
        <time>2021-06-18T18:26:45Z</time>
      </trkpt>
      <trkpt lat="42.547907" lon="1.092054">
        <ele>1953.212</ele>
        <time>2021-06-18T18:26:47Z</time>
      </trkpt>
      <trkpt lat="42.547882" lon="1.091897">
        <ele>1952.232</ele>
        <time>2021-06-18T18:26:53Z</time>
      </trkpt>
      <trkpt lat="42.547886" lon="1.091871">
        <ele>1952.305</ele>
        <time>2021-06-18T18:26:54Z</time>
      </trkpt>
      <trkpt lat="42.547930" lon="1.091689">
        <ele>1951.508</ele>
        <time>2021-06-18T18:27:01Z</time>
      </trkpt>
      <trkpt lat="42.547989" lon="1.091521">
        <ele>1951.928</ele>
        <time>2021-06-18T18:27:07Z</time>
      </trkpt>
      <trkpt lat="42.548021" lon="1.091435">
        <ele>1952.117</ele>
        <time>2021-06-18T18:27:10Z</time>
      </trkpt>
      <trkpt lat="42.548081" lon="1.091331">
        <ele>1950.773</ele>
        <time>2021-06-18T18:27:14Z</time>
      </trkpt>
      <trkpt lat="42.548102" lon="1.091229">
        <ele>1951.257</ele>
        <time>2021-06-18T18:27:17Z</time>
      </trkpt>
      <trkpt lat="42.548090" lon="1.091195">
        <ele>1952.571</ele>
        <time>2021-06-18T18:27:18Z</time>
      </trkpt>
      <trkpt lat="42.548073" lon="1.091133">
        <ele>1954.641</ele>
        <time>2021-06-18T18:27:21Z</time>
      </trkpt>
      <trkpt lat="42.548076" lon="1.091130">
        <ele>1954.484</ele>
        <time>2021-06-18T18:27:22Z</time>
      </trkpt>
      <trkpt lat="42.548058" lon="1.091044">
        <ele>1954.621</ele>
        <time>2021-06-18T18:29:55Z</time>
      </trkpt>
      <trkpt lat="42.548041" lon="1.090973">
        <ele>1954.572</ele>
        <time>2021-06-18T18:29:57Z</time>
      </trkpt>
      <trkpt lat="42.548009" lon="1.090825">
        <ele>1954.213</ele>
        <time>2021-06-18T18:30:00Z</time>
      </trkpt>
      <trkpt lat="42.548014" lon="1.090768">
        <ele>1953.914</ele>
        <time>2021-06-18T18:30:01Z</time>
      </trkpt>
      <trkpt lat="42.548118" lon="1.090576">
        <ele>1950.008</ele>
        <time>2021-06-18T18:30:05Z</time>
      </trkpt>
      <trkpt lat="42.548155" lon="1.090558">
        <ele>1949.184</ele>
        <time>2021-06-18T18:30:06Z</time>
      </trkpt>
      <trkpt lat="42.548223" lon="1.090517">
        <ele>1949.023</ele>
        <time>2021-06-18T18:30:08Z</time>
      </trkpt>
      <trkpt lat="42.548257" lon="1.090501">
        <ele>1948.899</ele>
        <time>2021-06-18T18:30:09Z</time>
      </trkpt>
      <trkpt lat="42.548297" lon="1.090493">
        <ele>1948.163</ele>
        <time>2021-06-18T18:30:10Z</time>
      </trkpt>
      <trkpt lat="42.548339" lon="1.090491">
        <ele>1947.267</ele>
        <time>2021-06-18T18:30:11Z</time>
      </trkpt>
      <trkpt lat="42.548470" lon="1.090475">
        <ele>1945.717</ele>
        <time>2021-06-18T18:30:14Z</time>
      </trkpt>
      <trkpt lat="42.548696" lon="1.090434">
        <ele>1944.030</ele>
        <time>2021-06-18T18:30:18Z</time>
      </trkpt>
      <trkpt lat="42.548754" lon="1.090412">
        <ele>1943.997</ele>
        <time>2021-06-18T18:30:19Z</time>
      </trkpt>
      <trkpt lat="42.548803" lon="1.090378">
        <ele>1944.371</ele>
        <time>2021-06-18T18:30:20Z</time>
      </trkpt>
      <trkpt lat="42.548879" lon="1.090281">
        <ele>1946.241</ele>
        <time>2021-06-18T18:30:22Z</time>
      </trkpt>
      <trkpt lat="42.548907" lon="1.090220">
        <ele>1946.515</ele>
        <time>2021-06-18T18:30:23Z</time>
      </trkpt>
      <trkpt lat="42.548944" lon="1.090152">
        <ele>1946.208</ele>
        <time>2021-06-18T18:30:24Z</time>
      </trkpt>
      <trkpt lat="42.549016" lon="1.090003">
        <ele>1946.054</ele>
        <time>2021-06-18T18:30:26Z</time>
      </trkpt>
      <trkpt lat="42.549129" lon="1.089764">
        <ele>1944.943</ele>
        <time>2021-06-18T18:30:29Z</time>
      </trkpt>
      <trkpt lat="42.549179" lon="1.089683">
        <ele>1944.049</ele>
        <time>2021-06-18T18:30:30Z</time>
      </trkpt>
      <trkpt lat="42.549316" lon="1.089417">
        <ele>1942.133</ele>
        <time>2021-06-18T18:30:33Z</time>
      </trkpt>
      <trkpt lat="42.549415" lon="1.089237">
        <ele>1941.137</ele>
        <time>2021-06-18T18:30:35Z</time>
      </trkpt>
      <trkpt lat="42.549463" lon="1.089143">
        <ele>1940.637</ele>
        <time>2021-06-18T18:30:36Z</time>
      </trkpt>
      <trkpt lat="42.549509" lon="1.089052">
        <ele>1940.010</ele>
        <time>2021-06-18T18:30:37Z</time>
      </trkpt>
      <trkpt lat="42.549600" lon="1.088874">
        <ele>1939.047</ele>
        <time>2021-06-18T18:30:39Z</time>
      </trkpt>
      <trkpt lat="42.549699" lon="1.088696">
        <ele>1937.671</ele>
        <time>2021-06-18T18:30:41Z</time>
      </trkpt>
      <trkpt lat="42.549883" lon="1.088444">
        <ele>1935.541</ele>
        <time>2021-06-18T18:30:44Z</time>
      </trkpt>
      <trkpt lat="42.550016" lon="1.088276">
        <ele>1933.815</ele>
        <time>2021-06-18T18:30:46Z</time>
      </trkpt>
      <trkpt lat="42.550084" lon="1.088198">
        <ele>1933.108</ele>
        <time>2021-06-18T18:30:47Z</time>
      </trkpt>
      <trkpt lat="42.550279" lon="1.087969">
        <ele>1931.134</ele>
        <time>2021-06-18T18:30:50Z</time>
      </trkpt>
      <trkpt lat="42.550385" lon="1.087826">
        <ele>1930.653</ele>
        <time>2021-06-18T18:30:52Z</time>
      </trkpt>
      <trkpt lat="42.550483" lon="1.087699">
        <ele>1930.279</ele>
        <time>2021-06-18T18:30:54Z</time>
      </trkpt>
      <trkpt lat="42.550650" lon="1.087544">
        <ele>1928.163</ele>
        <time>2021-06-18T18:30:57Z</time>
      </trkpt>
      <trkpt lat="42.550877" lon="1.087269">
        <ele>1925.847</ele>
        <time>2021-06-18T18:31:01Z</time>
      </trkpt>
      <trkpt lat="42.550928" lon="1.087195">
        <ele>1925.137</ele>
        <time>2021-06-18T18:31:02Z</time>
      </trkpt>
      <trkpt lat="42.551030" lon="1.087042">
        <ele>1923.270</ele>
        <time>2021-06-18T18:31:04Z</time>
      </trkpt>
      <trkpt lat="42.551073" lon="1.086969">
        <ele>1922.557</ele>
        <time>2021-06-18T18:31:05Z</time>
      </trkpt>
      <trkpt lat="42.551105" lon="1.086891">
        <ele>1921.931</ele>
        <time>2021-06-18T18:31:06Z</time>
      </trkpt>
      <trkpt lat="42.551125" lon="1.086805">
        <ele>1921.761</ele>
        <time>2021-06-18T18:31:07Z</time>
      </trkpt>
      <trkpt lat="42.551140" lon="1.086713">
        <ele>1921.707</ele>
        <time>2021-06-18T18:31:08Z</time>
      </trkpt>
      <trkpt lat="42.551158" lon="1.086412">
        <ele>1920.508</ele>
        <time>2021-06-18T18:31:11Z</time>
      </trkpt>
      <trkpt lat="42.551170" lon="1.086308">
        <ele>1919.960</ele>
        <time>2021-06-18T18:31:12Z</time>
      </trkpt>
      <trkpt lat="42.551231" lon="1.086024">
        <ele>1916.839</ele>
        <time>2021-06-18T18:31:15Z</time>
      </trkpt>
      <trkpt lat="42.551240" lon="1.085827">
        <ele>1917.065</ele>
        <time>2021-06-18T18:31:17Z</time>
      </trkpt>
      <trkpt lat="42.551232" lon="1.085722">
        <ele>1915.659</ele>
        <time>2021-06-18T18:31:18Z</time>
      </trkpt>
      <trkpt lat="42.551219" lon="1.085621">
        <ele>1914.683</ele>
        <time>2021-06-18T18:31:19Z</time>
      </trkpt>
      <trkpt lat="42.551168" lon="1.085441">
        <ele>1913.713</ele>
        <time>2021-06-18T18:31:21Z</time>
      </trkpt>
      <trkpt lat="42.551147" lon="1.085362">
        <ele>1913.076</ele>
        <time>2021-06-18T18:31:22Z</time>
      </trkpt>
      <trkpt lat="42.551125" lon="1.085285">
        <ele>1912.493</ele>
        <time>2021-06-18T18:31:23Z</time>
      </trkpt>
      <trkpt lat="42.551101" lon="1.085209">
        <ele>1912.121</ele>
        <time>2021-06-18T18:31:24Z</time>
      </trkpt>
      <trkpt lat="42.551055" lon="1.085039">
        <ele>1910.941</ele>
        <time>2021-06-18T18:31:26Z</time>
      </trkpt>
      <trkpt lat="42.551028" lon="1.084954">
        <ele>1910.305</ele>
        <time>2021-06-18T18:31:27Z</time>
      </trkpt>
      <trkpt lat="42.550917" lon="1.084689">
        <ele>1908.008</ele>
        <time>2021-06-18T18:31:30Z</time>
      </trkpt>
      <trkpt lat="42.550872" lon="1.084606">
        <ele>1907.769</ele>
        <time>2021-06-18T18:31:31Z</time>
      </trkpt>
      <trkpt lat="42.550767" lon="1.084403">
        <ele>1905.988</ele>
        <time>2021-06-18T18:31:34Z</time>
      </trkpt>
      <trkpt lat="42.550708" lon="1.084314">
        <ele>1905.244</ele>
        <time>2021-06-18T18:31:36Z</time>
      </trkpt>
      <trkpt lat="42.550674" lon="1.084251">
        <ele>1904.248</ele>
        <time>2021-06-18T18:31:38Z</time>
      </trkpt>
      <trkpt lat="42.550658" lon="1.084231">
        <ele>1904.092</ele>
        <time>2021-06-18T18:31:41Z</time>
      </trkpt>
      <trkpt lat="42.550635" lon="1.084194">
        <ele>1903.472</ele>
        <time>2021-06-18T18:35:58Z</time>
      </trkpt>
      <trkpt lat="42.550592" lon="1.084168">
        <ele>1903.445</ele>
        <time>2021-06-18T18:36:00Z</time>
      </trkpt>
      <trkpt lat="42.550576" lon="1.084147">
        <ele>1903.322</ele>
        <time>2021-06-18T18:36:01Z</time>
      </trkpt>
      <trkpt lat="42.550523" lon="1.084076">
        <ele>1902.954</ele>
        <time>2021-06-18T18:36:04Z</time>
      </trkpt>
      <trkpt lat="42.550367" lon="1.083893">
        <ele>1901.856</ele>
        <time>2021-06-18T18:36:09Z</time>
      </trkpt>
      <trkpt lat="42.550302" lon="1.083806">
        <ele>1900.811</ele>
        <time>2021-06-18T18:36:11Z</time>
      </trkpt>
      <trkpt lat="42.550244" lon="1.083712">
        <ele>1899.808</ele>
        <time>2021-06-18T18:36:13Z</time>
      </trkpt>
      <trkpt lat="42.550210" lon="1.083673">
        <ele>1899.412</ele>
        <time>2021-06-18T18:36:14Z</time>
      </trkpt>
      <trkpt lat="42.550136" lon="1.083605">
        <ele>1899.051</ele>
        <time>2021-06-18T18:36:16Z</time>
      </trkpt>
      <trkpt lat="42.550098" lon="1.083574">
        <ele>1899.197</ele>
        <time>2021-06-18T18:36:17Z</time>
      </trkpt>
      <trkpt lat="42.549996" lon="1.083490">
        <ele>1899.331</ele>
        <time>2021-06-18T18:36:20Z</time>
      </trkpt>
      <trkpt lat="42.549958" lon="1.083441">
        <ele>1899.335</ele>
        <time>2021-06-18T18:36:23Z</time>
      </trkpt>
      <trkpt lat="42.549954" lon="1.083427">
        <ele>1899.285</ele>
        <time>2021-06-18T18:36:24Z</time>
      </trkpt>
      <trkpt lat="42.549953" lon="1.083399">
        <ele>1898.818</ele>
        <time>2021-06-18T18:36:27Z</time>
      </trkpt>
      <trkpt lat="42.549964" lon="1.083376">
        <ele>1898.375</ele>
        <time>2021-06-18T18:36:30Z</time>
      </trkpt>
      <trkpt lat="42.549969" lon="1.083357">
        <ele>1897.965</ele>
        <time>2021-06-18T18:36:32Z</time>
      </trkpt>
      <trkpt lat="42.549979" lon="1.083311">
        <ele>1897.668</ele>
        <time>2021-06-18T18:36:35Z</time>
      </trkpt>
      <trkpt lat="42.549995" lon="1.083282">
        <ele>1897.614</ele>
        <time>2021-06-18T18:36:37Z</time>
      </trkpt>
      <trkpt lat="42.550091" lon="1.083215">
        <ele>1897.608</ele>
        <time>2021-06-18T18:36:44Z</time>
      </trkpt>
      <trkpt lat="42.550225" lon="1.083157">
        <ele>1897.323</ele>
        <time>2021-06-18T18:36:51Z</time>
      </trkpt>
      <trkpt lat="42.550357" lon="1.083042">
        <ele>1896.992</ele>
        <time>2021-06-18T18:37:00Z</time>
      </trkpt>
      <trkpt lat="42.550488" lon="1.082969">
        <ele>1895.818</ele>
        <time>2021-06-18T18:37:06Z</time>
      </trkpt>
      <trkpt lat="42.550600" lon="1.082922">
        <ele>1895.692</ele>
        <time>2021-06-18T18:37:10Z</time>
      </trkpt>
      <trkpt lat="42.550631" lon="1.082880">
        <ele>1896.386</ele>
        <time>2021-06-18T18:37:12Z</time>
      </trkpt>
      <trkpt lat="42.550629" lon="1.082843">
        <ele>1896.816</ele>
        <time>2021-06-18T18:37:14Z</time>
      </trkpt>
      <trkpt lat="42.550622" lon="1.082826">
        <ele>1897.099</ele>
        <time>2021-06-18T18:37:15Z</time>
      </trkpt>
      <trkpt lat="42.550599" lon="1.082796">
        <ele>1897.266</ele>
        <time>2021-06-18T18:37:17Z</time>
      </trkpt>
      <trkpt lat="42.550559" lon="1.082749">
        <ele>1897.597</ele>
        <time>2021-06-18T18:37:20Z</time>
      </trkpt>
      <trkpt lat="42.550478" lon="1.082570">
        <ele>1899.923</ele>
        <time>2021-06-18T18:37:29Z</time>
      </trkpt>
      <trkpt lat="42.550420" lon="1.082440">
        <ele>1901.825</ele>
        <time>2021-06-18T18:37:36Z</time>
      </trkpt>
      <trkpt lat="42.550408" lon="1.082424">
        <ele>1902.108</ele>
        <time>2021-06-18T18:37:37Z</time>
      </trkpt>
      <trkpt lat="42.550373" lon="1.082379">
        <ele>1902.776</ele>
        <time>2021-06-18T18:37:40Z</time>
      </trkpt>
      <trkpt lat="42.550299" lon="1.082329">
        <ele>1902.795</ele>
        <time>2021-06-18T18:37:46Z</time>
      </trkpt>
      <trkpt lat="42.550287" lon="1.082324">
        <ele>1902.721</ele>
        <time>2021-06-18T18:37:47Z</time>
      </trkpt>
      <trkpt lat="42.550278" lon="1.082314">
        <ele>1902.775</ele>
        <time>2021-06-18T18:37:48Z</time>
      </trkpt>
      <trkpt lat="42.550249" lon="1.082273">
        <ele>1903.559</ele>
        <time>2021-06-18T18:37:51Z</time>
      </trkpt>
      <trkpt lat="42.550224" lon="1.082256">
        <ele>1903.939</ele>
        <time>2021-06-18T18:37:53Z</time>
      </trkpt>
      <trkpt lat="42.550197" lon="1.082219">
        <ele>1904.642</ele>
        <time>2021-06-18T18:37:56Z</time>
      </trkpt>
      <trkpt lat="42.550192" lon="1.082201">
        <ele>1905.159</ele>
        <time>2021-06-18T18:37:57Z</time>
      </trkpt>
      <trkpt lat="42.550186" lon="1.082184">
        <ele>1905.469</ele>
        <time>2021-06-18T18:37:58Z</time>
      </trkpt>
      <trkpt lat="42.550139" lon="1.082144">
        <ele>1906.404</ele>
        <time>2021-06-18T18:38:02Z</time>
      </trkpt>
      <trkpt lat="42.550073" lon="1.082102">
        <ele>1907.224</ele>
        <time>2021-06-18T18:38:07Z</time>
      </trkpt>
      <trkpt lat="42.550060" lon="1.082089">
        <ele>1907.408</ele>
        <time>2021-06-18T18:38:08Z</time>
      </trkpt>
      <trkpt lat="42.550024" lon="1.082047">
        <ele>1907.963</ele>
        <time>2021-06-18T18:38:11Z</time>
      </trkpt>
      <trkpt lat="42.549997" lon="1.082031">
        <ele>1908.112</ele>
        <time>2021-06-18T18:38:13Z</time>
      </trkpt>
      <trkpt lat="42.549970" lon="1.082011">
        <ele>1908.598</ele>
        <time>2021-06-18T18:38:15Z</time>
      </trkpt>
      <trkpt lat="42.549890" lon="1.081963">
        <ele>1909.362</ele>
        <time>2021-06-18T18:38:21Z</time>
      </trkpt>
      <trkpt lat="42.549876" lon="1.081961">
        <ele>1909.326</ele>
        <time>2021-06-18T18:38:22Z</time>
      </trkpt>
      <trkpt lat="42.549802" lon="1.081912">
        <ele>1910.016</ele>
        <time>2021-06-18T18:38:28Z</time>
      </trkpt>
      <trkpt lat="42.549791" lon="1.081899">
        <ele>1910.159</ele>
        <time>2021-06-18T18:38:29Z</time>
      </trkpt>
      <trkpt lat="42.549714" lon="1.081836">
        <ele>1910.576</ele>
        <time>2021-06-18T18:38:35Z</time>
      </trkpt>
      <trkpt lat="42.549670" lon="1.081819">
        <ele>1910.892</ele>
        <time>2021-06-18T18:38:38Z</time>
      </trkpt>
      <trkpt lat="42.549563" lon="1.081755">
        <ele>1911.673</ele>
        <time>2021-06-18T18:38:46Z</time>
      </trkpt>
      <trkpt lat="42.549552" lon="1.081742">
        <ele>1911.720</ele>
        <time>2021-06-18T18:38:47Z</time>
      </trkpt>
      <trkpt lat="42.549481" lon="1.081681">
        <ele>1911.908</ele>
        <time>2021-06-18T18:38:54Z</time>
      </trkpt>
      <trkpt lat="42.549468" lon="1.081686">
        <ele>1912.076</ele>
        <time>2021-06-18T18:38:55Z</time>
      </trkpt>
      <trkpt lat="42.549401" lon="1.081710">
        <ele>1912.775</ele>
        <time>2021-06-18T18:39:00Z</time>
      </trkpt>
      <trkpt lat="42.549374" lon="1.081709">
        <ele>1913.011</ele>
        <time>2021-06-18T18:39:02Z</time>
      </trkpt>
      <trkpt lat="42.549347" lon="1.081709">
        <ele>1913.345</ele>
        <time>2021-06-18T18:39:04Z</time>
      </trkpt>
      <trkpt lat="42.549307" lon="1.081712">
        <ele>1913.799</ele>
        <time>2021-06-18T18:39:07Z</time>
      </trkpt>
      <trkpt lat="42.549255" lon="1.081712">
        <ele>1914.339</ele>
        <time>2021-06-18T18:39:11Z</time>
      </trkpt>
      <trkpt lat="42.549217" lon="1.081718">
        <ele>1914.872</ele>
        <time>2021-06-18T18:39:14Z</time>
      </trkpt>
      <trkpt lat="42.549137" lon="1.081736">
        <ele>1915.919</ele>
        <time>2021-06-18T18:39:20Z</time>
      </trkpt>
      <trkpt lat="42.549123" lon="1.081736">
        <ele>1916.177</ele>
        <time>2021-06-18T18:39:21Z</time>
      </trkpt>
      <trkpt lat="42.549068" lon="1.081724">
        <ele>1916.861</ele>
        <time>2021-06-18T18:39:25Z</time>
      </trkpt>
      <trkpt lat="42.549021" lon="1.081688">
        <ele>1917.227</ele>
        <time>2021-06-18T18:39:29Z</time>
      </trkpt>
      <trkpt lat="42.548987" lon="1.081639">
        <ele>1917.808</ele>
        <time>2021-06-18T18:39:33Z</time>
      </trkpt>
      <trkpt lat="42.548972" lon="1.081610">
        <ele>1918.234</ele>
        <time>2021-06-18T18:39:35Z</time>
      </trkpt>
      <trkpt lat="42.548931" lon="1.081522">
        <ele>1919.473</ele>
        <time>2021-06-18T18:39:41Z</time>
      </trkpt>
      <trkpt lat="42.548918" lon="1.081467">
        <ele>1920.049</ele>
        <time>2021-06-18T18:39:44Z</time>
      </trkpt>
      <trkpt lat="42.548925" lon="1.081426">
        <ele>1920.223</ele>
        <time>2021-06-18T18:39:46Z</time>
      </trkpt>
      <trkpt lat="42.548956" lon="1.081323">
        <ele>1921.097</ele>
        <time>2021-06-18T18:39:51Z</time>
      </trkpt>
      <trkpt lat="42.548972" lon="1.081284">
        <ele>1921.487</ele>
        <time>2021-06-18T18:39:53Z</time>
      </trkpt>
      <trkpt lat="42.548982" lon="1.081267">
        <ele>1921.650</ele>
        <time>2021-06-18T18:39:54Z</time>
      </trkpt>
      <trkpt lat="42.549023" lon="1.081195">
        <ele>1922.267</ele>
        <time>2021-06-18T18:39:58Z</time>
      </trkpt>
      <trkpt lat="42.549094" lon="1.081118">
        <ele>1922.781</ele>
        <time>2021-06-18T18:40:04Z</time>
      </trkpt>
      <trkpt lat="42.549119" lon="1.081096">
        <ele>1923.161</ele>
        <time>2021-06-18T18:40:06Z</time>
      </trkpt>
      <trkpt lat="42.549209" lon="1.081073">
        <ele>1923.617</ele>
        <time>2021-06-18T18:40:12Z</time>
      </trkpt>
      <trkpt lat="42.549303" lon="1.081079">
        <ele>1923.708</ele>
        <time>2021-06-18T18:40:18Z</time>
      </trkpt>
      <trkpt lat="42.549318" lon="1.081075">
        <ele>1923.965</ele>
        <time>2021-06-18T18:40:19Z</time>
      </trkpt>
      <trkpt lat="42.549403" lon="1.081046">
        <ele>1925.244</ele>
        <time>2021-06-18T18:40:25Z</time>
      </trkpt>
      <trkpt lat="42.549426" lon="1.081024">
        <ele>1926.180</ele>
        <time>2021-06-18T18:40:27Z</time>
      </trkpt>
      <trkpt lat="42.549478" lon="1.080998">
        <ele>1927.184</ele>
        <time>2021-06-18T18:40:31Z</time>
      </trkpt>
      <trkpt lat="42.549508" lon="1.080985">
        <ele>1927.798</ele>
        <time>2021-06-18T18:40:33Z</time>
      </trkpt>
      <trkpt lat="42.549554" lon="1.080979">
        <ele>1928.028</ele>
        <time>2021-06-18T18:40:36Z</time>
      </trkpt>
      <trkpt lat="42.549651" lon="1.080970">
        <ele>1928.471</ele>
        <time>2021-06-18T18:40:42Z</time>
      </trkpt>
      <trkpt lat="42.549667" lon="1.080968">
        <ele>1928.588</ele>
        <time>2021-06-18T18:40:43Z</time>
      </trkpt>
      <trkpt lat="42.549782" lon="1.080945">
        <ele>1929.765</ele>
        <time>2021-06-18T18:40:50Z</time>
      </trkpt>
      <trkpt lat="42.549799" lon="1.080944">
        <ele>1929.868</ele>
        <time>2021-06-18T18:40:51Z</time>
      </trkpt>
      <trkpt lat="42.549893" lon="1.080944">
        <ele>1930.314</ele>
        <time>2021-06-18T18:40:57Z</time>
      </trkpt>
      <trkpt lat="42.549909" lon="1.080943">
        <ele>1930.408</ele>
        <time>2021-06-18T18:40:58Z</time>
      </trkpt>
      <trkpt lat="42.550034" lon="1.080923">
        <ele>1931.593</ele>
        <time>2021-06-18T18:41:06Z</time>
      </trkpt>
      <trkpt lat="42.550050" lon="1.080924">
        <ele>1931.582</ele>
        <time>2021-06-18T18:41:07Z</time>
      </trkpt>
      <trkpt lat="42.550135" lon="1.080864">
        <ele>1932.968</ele>
        <time>2021-06-18T18:41:14Z</time>
      </trkpt>
      <trkpt lat="42.550146" lon="1.080853">
        <ele>1933.152</ele>
        <time>2021-06-18T18:41:15Z</time>
      </trkpt>
      <trkpt lat="42.550216" lon="1.080789">
        <ele>1933.556</ele>
        <time>2021-06-18T18:41:21Z</time>
      </trkpt>
      <trkpt lat="42.550254" lon="1.080744">
        <ele>1933.596</ele>
        <time>2021-06-18T18:41:24Z</time>
      </trkpt>
      <trkpt lat="42.550323" lon="1.080678">
        <ele>1933.259</ele>
        <time>2021-06-18T18:41:29Z</time>
      </trkpt>
      <trkpt lat="42.550430" lon="1.080610">
        <ele>1932.436</ele>
        <time>2021-06-18T18:41:36Z</time>
      </trkpt>
      <trkpt lat="42.550444" lon="1.080614">
        <ele>1932.296</ele>
        <time>2021-06-18T18:41:37Z</time>
      </trkpt>
      <trkpt lat="42.550533" lon="1.080695">
        <ele>1931.731</ele>
        <time>2021-06-18T18:41:44Z</time>
      </trkpt>
      <trkpt lat="42.550565" lon="1.080764">
        <ele>1931.724</ele>
        <time>2021-06-18T18:41:47Z</time>
      </trkpt>
      <trkpt lat="42.550595" lon="1.080886">
        <ele>1931.508</ele>
        <time>2021-06-18T18:41:51Z</time>
      </trkpt>
      <trkpt lat="42.550601" lon="1.080909">
        <ele>1931.426</ele>
        <time>2021-06-18T18:41:52Z</time>
      </trkpt>
      <trkpt lat="42.550609" lon="1.080928">
        <ele>1931.355</ele>
        <time>2021-06-18T18:41:54Z</time>
      </trkpt>
      <trkpt lat="42.550609" lon="1.080928">
        <ele>1931.361</ele>
        <time>2021-06-18T18:41:55Z</time>
      </trkpt>
      <trkpt lat="42.550653" lon="1.080933">
        <ele>1930.955</ele>
        <time>2021-06-18T18:42:00Z</time>
      </trkpt>
      <trkpt lat="42.550684" lon="1.080951">
        <ele>1930.729</ele>
        <time>2021-06-18T18:42:02Z</time>
      </trkpt>
      <trkpt lat="42.550704" lon="1.080982">
        <ele>1930.469</ele>
        <time>2021-06-18T18:42:04Z</time>
      </trkpt>
      <trkpt lat="42.550744" lon="1.081048">
        <ele>1929.992</ele>
        <time>2021-06-18T18:42:08Z</time>
      </trkpt>
      <trkpt lat="42.550758" lon="1.081087">
        <ele>1929.649</ele>
        <time>2021-06-18T18:42:10Z</time>
      </trkpt>
      <trkpt lat="42.550751" lon="1.081151">
        <ele>1929.481</ele>
        <time>2021-06-18T18:42:13Z</time>
      </trkpt>
      <trkpt lat="42.550740" lon="1.081219">
        <ele>1929.361</ele>
        <time>2021-06-18T18:42:17Z</time>
      </trkpt>
      <trkpt lat="42.550746" lon="1.081252">
        <ele>1929.117</ele>
        <time>2021-06-18T18:42:19Z</time>
      </trkpt>
      <trkpt lat="42.550738" lon="1.081369">
        <ele>1928.808</ele>
        <time>2021-06-18T18:42:25Z</time>
      </trkpt>
      <trkpt lat="42.550734" lon="1.081395">
        <ele>1928.685</ele>
        <time>2021-06-18T18:42:26Z</time>
      </trkpt>
      <trkpt lat="42.550720" lon="1.081486">
        <ele>1927.614</ele>
        <time>2021-06-18T18:42:30Z</time>
      </trkpt>
      <trkpt lat="42.550721" lon="1.081499">
        <ele>1927.580</ele>
        <time>2021-06-18T18:42:32Z</time>
      </trkpt>
      <trkpt lat="42.550721" lon="1.081498">
        <ele>1927.514</ele>
        <time>2021-06-18T18:42:33Z</time>
      </trkpt>
      <trkpt lat="42.550733" lon="1.081460">
        <ele>1927.988</ele>
        <time>2021-06-18T18:47:58Z</time>
      </trkpt>
      <trkpt lat="42.550718" lon="1.081430">
        <ele>1928.368</ele>
        <time>2021-06-18T18:48:00Z</time>
      </trkpt>
      <trkpt lat="42.550692" lon="1.081283">
        <ele>1929.421</ele>
        <time>2021-06-18T18:48:09Z</time>
      </trkpt>
      <trkpt lat="42.550690" lon="1.081118">
        <ele>1930.038</ele>
        <time>2021-06-18T18:48:18Z</time>
      </trkpt>
      <trkpt lat="42.550690" lon="1.081099">
        <ele>1930.188</ele>
        <time>2021-06-18T18:48:19Z</time>
      </trkpt>
      <trkpt lat="42.550673" lon="1.081021">
        <ele>1930.524</ele>
        <time>2021-06-18T18:48:24Z</time>
      </trkpt>
      <trkpt lat="42.550658" lon="1.080988">
        <ele>1930.726</ele>
        <time>2021-06-18T18:48:26Z</time>
      </trkpt>
      <trkpt lat="42.550646" lon="1.080970">
        <ele>1930.908</ele>
        <time>2021-06-18T18:48:29Z</time>
      </trkpt>
      <trkpt lat="42.550606" lon="1.080923">
        <ele>1931.335</ele>
        <time>2021-06-18T18:58:50Z</time>
      </trkpt>
      <trkpt lat="42.550549" lon="1.080860">
        <ele>1931.914</ele>
        <time>2021-06-18T18:58:55Z</time>
      </trkpt>
      <trkpt lat="42.550534" lon="1.080853">
        <ele>1932.050</ele>
        <time>2021-06-18T18:58:56Z</time>
      </trkpt>
      <trkpt lat="42.550483" lon="1.080825">
        <ele>1932.274</ele>
        <time>2021-06-18T18:59:00Z</time>
      </trkpt>
      <trkpt lat="42.550471" lon="1.080820">
        <ele>1932.348</ele>
        <time>2021-06-18T18:59:01Z</time>
      </trkpt>
      <trkpt lat="42.550365" lon="1.080769">
        <ele>1932.838</ele>
        <time>2021-06-18T18:59:09Z</time>
      </trkpt>
      <trkpt lat="42.550350" lon="1.080768">
        <ele>1932.981</ele>
        <time>2021-06-18T18:59:10Z</time>
      </trkpt>
      <trkpt lat="42.550337" lon="1.080775">
        <ele>1932.928</ele>
        <time>2021-06-18T18:59:11Z</time>
      </trkpt>
      <trkpt lat="42.550301" lon="1.080802">
        <ele>1933.097</ele>
        <time>2021-06-18T18:59:14Z</time>
      </trkpt>
      <trkpt lat="42.550279" lon="1.080817">
        <ele>1933.123</ele>
        <time>2021-06-18T18:59:16Z</time>
      </trkpt>
      <trkpt lat="42.550252" lon="1.080826">
        <ele>1933.125</ele>
        <time>2021-06-18T18:59:18Z</time>
      </trkpt>
      <trkpt lat="42.550213" lon="1.080849">
        <ele>1933.008</ele>
        <time>2021-06-18T18:59:21Z</time>
      </trkpt>
      <trkpt lat="42.550131" lon="1.080933">
        <ele>1931.596</ele>
        <time>2021-06-18T18:59:27Z</time>
      </trkpt>
      <trkpt lat="42.550125" lon="1.080951">
        <ele>1931.135</ele>
        <time>2021-06-18T18:59:28Z</time>
      </trkpt>
      <trkpt lat="42.550139" lon="1.081029">
        <ele>1929.651</ele>
        <time>2021-06-18T18:59:31Z</time>
      </trkpt>
      <trkpt lat="42.550190" lon="1.081122">
        <ele>1928.585</ele>
        <time>2021-06-18T18:59:35Z</time>
      </trkpt>
      <trkpt lat="42.550217" lon="1.081171">
        <ele>1927.729</ele>
        <time>2021-06-18T18:59:37Z</time>
      </trkpt>
      <trkpt lat="42.550244" lon="1.081246">
        <ele>1926.599</ele>
        <time>2021-06-18T18:59:39Z</time>
      </trkpt>
      <trkpt lat="42.550267" lon="1.081327">
        <ele>1925.112</ele>
        <time>2021-06-18T18:59:41Z</time>
      </trkpt>
      <trkpt lat="42.550293" lon="1.081412">
        <ele>1923.749</ele>
        <time>2021-06-18T18:59:43Z</time>
      </trkpt>
      <trkpt lat="42.550308" lon="1.081455">
        <ele>1923.076</ele>
        <time>2021-06-18T18:59:44Z</time>
      </trkpt>
      <trkpt lat="42.550336" lon="1.081533">
        <ele>1921.690</ele>
        <time>2021-06-18T18:59:46Z</time>
      </trkpt>
      <trkpt lat="42.550366" lon="1.081610">
        <ele>1920.319</ele>
        <time>2021-06-18T18:59:48Z</time>
      </trkpt>
      <trkpt lat="42.550380" lon="1.081655">
        <ele>1919.508</ele>
        <time>2021-06-18T18:59:49Z</time>
      </trkpt>
      <trkpt lat="42.550397" lon="1.081701">
        <ele>1918.764</ele>
        <time>2021-06-18T18:59:50Z</time>
      </trkpt>
      <trkpt lat="42.550446" lon="1.081788">
        <ele>1917.583</ele>
        <time>2021-06-18T18:59:52Z</time>
      </trkpt>
      <trkpt lat="42.550464" lon="1.081837">
        <ele>1916.519</ele>
        <time>2021-06-18T18:59:53Z</time>
      </trkpt>
      <trkpt lat="42.550476" lon="1.081887">
        <ele>1915.433</ele>
        <time>2021-06-18T18:59:54Z</time>
      </trkpt>
      <trkpt lat="42.550483" lon="1.081989">
        <ele>1913.087</ele>
        <time>2021-06-18T18:59:56Z</time>
      </trkpt>
      <trkpt lat="42.550486" lon="1.082044">
        <ele>1911.897</ele>
        <time>2021-06-18T18:59:57Z</time>
      </trkpt>
      <trkpt lat="42.550497" lon="1.082101">
        <ele>1910.760</ele>
        <time>2021-06-18T18:59:58Z</time>
      </trkpt>
      <trkpt lat="42.550526" lon="1.082221">
        <ele>1908.597</ele>
        <time>2021-06-18T19:00:00Z</time>
      </trkpt>
      <trkpt lat="42.550544" lon="1.082282">
        <ele>1907.137</ele>
        <time>2021-06-18T19:00:01Z</time>
      </trkpt>
      <trkpt lat="42.550559" lon="1.082340">
        <ele>1905.749</ele>
        <time>2021-06-18T19:00:02Z</time>
      </trkpt>
      <trkpt lat="42.550576" lon="1.082396">
        <ele>1904.513</ele>
        <time>2021-06-18T19:00:03Z</time>
      </trkpt>
      <trkpt lat="42.550609" lon="1.082499">
        <ele>1902.408</ele>
        <time>2021-06-18T19:00:05Z</time>
      </trkpt>
      <trkpt lat="42.550640" lon="1.082598">
        <ele>1901.380</ele>
        <time>2021-06-18T19:00:07Z</time>
      </trkpt>
      <trkpt lat="42.550653" lon="1.082650">
        <ele>1900.589</ele>
        <time>2021-06-18T19:00:08Z</time>
      </trkpt>
      <trkpt lat="42.550668" lon="1.082760">
        <ele>1898.615</ele>
        <time>2021-06-18T19:00:10Z</time>
      </trkpt>
      <trkpt lat="42.550641" lon="1.082868">
        <ele>1896.539</ele>
        <time>2021-06-18T19:00:12Z</time>
      </trkpt>
      <trkpt lat="42.550599" lon="1.082965">
        <ele>1895.013</ele>
        <time>2021-06-18T19:00:14Z</time>
      </trkpt>
      <trkpt lat="42.550556" lon="1.083080">
        <ele>1893.863</ele>
        <time>2021-06-18T19:00:16Z</time>
      </trkpt>
      <trkpt lat="42.550537" lon="1.083144">
        <ele>1893.636</ele>
        <time>2021-06-18T19:00:17Z</time>
      </trkpt>
      <trkpt lat="42.550479" lon="1.083249">
        <ele>1893.573</ele>
        <time>2021-06-18T19:00:19Z</time>
      </trkpt>
      <trkpt lat="42.550444" lon="1.083285">
        <ele>1893.651</ele>
        <time>2021-06-18T19:00:20Z</time>
      </trkpt>
      <trkpt lat="42.550408" lon="1.083299">
        <ele>1893.901</ele>
        <time>2021-06-18T19:00:21Z</time>
      </trkpt>
      <trkpt lat="42.550359" lon="1.083299">
        <ele>1894.511</ele>
        <time>2021-06-18T19:00:23Z</time>
      </trkpt>
      <trkpt lat="42.550345" lon="1.083286">
        <ele>1894.708</ele>
        <time>2021-06-18T19:00:24Z</time>
      </trkpt>
      <trkpt lat="42.550333" lon="1.083271">
        <ele>1895.062</ele>
        <time>2021-06-18T19:00:25Z</time>
      </trkpt>
      <trkpt lat="42.550318" lon="1.083261">
        <ele>1895.391</ele>
        <time>2021-06-18T19:00:26Z</time>
      </trkpt>
      <trkpt lat="42.550288" lon="1.083261">
        <ele>1895.747</ele>
        <time>2021-06-18T19:00:28Z</time>
      </trkpt>
      <trkpt lat="42.550230" lon="1.083260">
        <ele>1896.171</ele>
        <time>2021-06-18T19:00:32Z</time>
      </trkpt>
      <trkpt lat="42.550188" lon="1.083242">
        <ele>1896.635</ele>
        <time>2021-06-18T19:00:35Z</time>
      </trkpt>
      <trkpt lat="42.550136" lon="1.083224">
        <ele>1897.285</ele>
        <time>2021-06-18T19:00:39Z</time>
      </trkpt>
      <trkpt lat="42.550110" lon="1.083214">
        <ele>1897.558</ele>
        <time>2021-06-18T19:00:41Z</time>
      </trkpt>
      <trkpt lat="42.550031" lon="1.083229">
        <ele>1897.995</ele>
        <time>2021-06-18T19:00:46Z</time>
      </trkpt>
      <trkpt lat="42.550013" lon="1.083244">
        <ele>1897.951</ele>
        <time>2021-06-18T19:00:47Z</time>
      </trkpt>
      <trkpt lat="42.549951" lon="1.083314">
        <ele>1898.001</ele>
        <time>2021-06-18T19:00:52Z</time>
      </trkpt>
      <trkpt lat="42.549929" lon="1.083345">
        <ele>1898.411</ele>
        <time>2021-06-18T19:00:55Z</time>
      </trkpt>
      <trkpt lat="42.549945" lon="1.083400">
        <ele>1899.008</ele>
        <time>2021-06-18T19:00:58Z</time>
      </trkpt>
      <trkpt lat="42.550040" lon="1.083516">
        <ele>1899.232</ele>
        <time>2021-06-18T19:01:05Z</time>
      </trkpt>
      <trkpt lat="42.550141" lon="1.083603">
        <ele>1898.961</ele>
        <time>2021-06-18T19:01:12Z</time>
      </trkpt>
      <trkpt lat="42.550164" lon="1.083625">
        <ele>1899.097</ele>
        <time>2021-06-18T19:01:14Z</time>
      </trkpt>
      <trkpt lat="42.550203" lon="1.083660">
        <ele>1899.291</ele>
        <time>2021-06-18T19:01:17Z</time>
      </trkpt>
      <trkpt lat="42.550253" lon="1.083720">
        <ele>1899.825</ele>
        <time>2021-06-18T19:01:21Z</time>
      </trkpt>
      <trkpt lat="42.550278" lon="1.083748">
        <ele>1900.095</ele>
        <time>2021-06-18T19:01:23Z</time>
      </trkpt>
      <trkpt lat="42.550291" lon="1.083761">
        <ele>1900.048</ele>
        <time>2021-06-18T19:01:24Z</time>
      </trkpt>
      <trkpt lat="42.550365" lon="1.083856">
        <ele>1901.075</ele>
        <time>2021-06-18T19:01:30Z</time>
      </trkpt>
      <trkpt lat="42.550429" lon="1.083938">
        <ele>1901.825</ele>
        <time>2021-06-18T19:01:35Z</time>
      </trkpt>
      <trkpt lat="42.550467" lon="1.083985">
        <ele>1902.126</ele>
        <time>2021-06-18T19:01:38Z</time>
      </trkpt>
      <trkpt lat="42.550526" lon="1.084065">
        <ele>1902.708</ele>
        <time>2021-06-18T19:01:43Z</time>
      </trkpt>
      <trkpt lat="42.550550" lon="1.084093">
        <ele>1902.808</ele>
        <time>2021-06-18T19:01:45Z</time>
      </trkpt>
      <trkpt lat="42.550568" lon="1.084174">
        <ele>1904.039</ele>
        <time>2021-06-18T19:01:49Z</time>
      </trkpt>
      <trkpt lat="42.550517" lon="1.084220">
        <ele>1906.518</ele>
        <time>2021-06-18T19:01:53Z</time>
      </trkpt>
      <trkpt lat="42.550457" lon="1.084197">
        <ele>1906.924</ele>
        <time>2021-06-18T19:01:57Z</time>
      </trkpt>
      <trkpt lat="42.550427" lon="1.084188">
        <ele>1907.138</ele>
        <time>2021-06-18T19:01:59Z</time>
      </trkpt>
      <trkpt lat="42.550383" lon="1.084181">
        <ele>1907.742</ele>
        <time>2021-06-18T19:02:02Z</time>
      </trkpt>
      <trkpt lat="42.550351" lon="1.084140">
        <ele>1907.132</ele>
        <time>2021-06-18T19:02:05Z</time>
      </trkpt>
      <trkpt lat="42.550324" lon="1.084123">
        <ele>1907.385</ele>
        <time>2021-06-18T19:02:07Z</time>
      </trkpt>
      <trkpt lat="42.550279" lon="1.084078">
        <ele>1907.162</ele>
        <time>2021-06-18T19:02:11Z</time>
      </trkpt>
      <trkpt lat="42.550231" lon="1.084046">
        <ele>1907.751</ele>
        <time>2021-06-18T19:02:15Z</time>
      </trkpt>
      <trkpt lat="42.550202" lon="1.084026">
        <ele>1908.001</ele>
        <time>2021-06-18T19:02:17Z</time>
      </trkpt>
      <trkpt lat="42.550143" lon="1.084007">
        <ele>1909.111</ele>
        <time>2021-06-18T19:02:21Z</time>
      </trkpt>
      <trkpt lat="42.550115" lon="1.084003">
        <ele>1909.708</ele>
        <time>2021-06-18T19:02:23Z</time>
      </trkpt>
      <trkpt lat="42.550049" lon="1.083988">
        <ele>1911.012</ele>
        <time>2021-06-18T19:02:28Z</time>
      </trkpt>
      <trkpt lat="42.550036" lon="1.083985">
        <ele>1911.241</ele>
        <time>2021-06-18T19:02:29Z</time>
      </trkpt>
      <trkpt lat="42.549994" lon="1.083983">
        <ele>1912.257</ele>
        <time>2021-06-18T19:02:32Z</time>
      </trkpt>
      <trkpt lat="42.549979" lon="1.083978">
        <ele>1912.381</ele>
        <time>2021-06-18T19:02:33Z</time>
      </trkpt>
      <trkpt lat="42.549951" lon="1.083978">
        <ele>1912.855</ele>
        <time>2021-06-18T19:02:35Z</time>
      </trkpt>
      <trkpt lat="42.549911" lon="1.083982">
        <ele>1913.635</ele>
        <time>2021-06-18T19:02:38Z</time>
      </trkpt>
      <trkpt lat="42.549838" lon="1.083991">
        <ele>1915.268</ele>
        <time>2021-06-18T19:02:44Z</time>
      </trkpt>
      <trkpt lat="42.549782" lon="1.083979">
        <ele>1915.855</ele>
        <time>2021-06-18T19:02:49Z</time>
      </trkpt>
      <trkpt lat="42.549770" lon="1.083976">
        <ele>1916.055</ele>
        <time>2021-06-18T19:02:50Z</time>
      </trkpt>
      <trkpt lat="42.549718" lon="1.083966">
        <ele>1916.607</ele>
        <time>2021-06-18T19:02:54Z</time>
      </trkpt>
      <trkpt lat="42.549665" lon="1.083948">
        <ele>1916.717</ele>
        <time>2021-06-18T19:02:58Z</time>
      </trkpt>
      <trkpt lat="42.549651" lon="1.083949">
        <ele>1917.008</ele>
        <time>2021-06-18T19:02:59Z</time>
      </trkpt>
      <trkpt lat="42.549638" lon="1.083949">
        <ele>1917.222</ele>
        <time>2021-06-18T19:03:00Z</time>
      </trkpt>
      <trkpt lat="42.549576" lon="1.083945">
        <ele>1917.911</ele>
        <time>2021-06-18T19:03:05Z</time>
      </trkpt>
      <trkpt lat="42.549547" lon="1.083946">
        <ele>1918.487</ele>
        <time>2021-06-18T19:03:07Z</time>
      </trkpt>
      <trkpt lat="42.549481" lon="1.083956">
        <ele>1919.681</ele>
        <time>2021-06-18T19:03:12Z</time>
      </trkpt>
      <trkpt lat="42.549430" lon="1.083958">
        <ele>1920.495</ele>
        <time>2021-06-18T19:03:16Z</time>
      </trkpt>
      <trkpt lat="42.549416" lon="1.083958">
        <ele>1920.695</ele>
        <time>2021-06-18T19:03:17Z</time>
      </trkpt>
      <trkpt lat="42.549392" lon="1.083954">
        <ele>1920.858</ele>
        <time>2021-06-18T19:03:21Z</time>
      </trkpt>
      <trkpt lat="42.549332" lon="1.083979">
        <ele>1922.355</ele>
        <time>2021-06-18T19:06:01Z</time>
      </trkpt>
      <trkpt lat="42.549274" lon="1.083987">
        <ele>1923.264</ele>
        <time>2021-06-18T19:06:06Z</time>
      </trkpt>
      <trkpt lat="42.549215" lon="1.084012">
        <ele>1924.606</ele>
        <time>2021-06-18T19:06:11Z</time>
      </trkpt>
      <trkpt lat="42.549204" lon="1.084020">
        <ele>1924.916</ele>
        <time>2021-06-18T19:06:12Z</time>
      </trkpt>
      <trkpt lat="42.549181" lon="1.084032">
        <ele>1925.508</ele>
        <time>2021-06-18T19:06:14Z</time>
      </trkpt>
      <trkpt lat="42.549144" lon="1.084041">
        <ele>1926.033</ele>
        <time>2021-06-18T19:06:17Z</time>
      </trkpt>
      <trkpt lat="42.549099" lon="1.084065">
        <ele>1926.942</ele>
        <time>2021-06-18T19:06:21Z</time>
      </trkpt>
      <trkpt lat="42.549014" lon="1.084067">
        <ele>1927.638</ele>
        <time>2021-06-18T19:06:28Z</time>
      </trkpt>
      <trkpt lat="42.549003" lon="1.084072">
        <ele>1927.892</ele>
        <time>2021-06-18T19:06:29Z</time>
      </trkpt>
      <trkpt lat="42.548934" lon="1.084057">
        <ele>1927.976</ele>
        <time>2021-06-18T19:06:35Z</time>
      </trkpt>
      <trkpt lat="42.548924" lon="1.084045">
        <ele>1927.796</ele>
        <time>2021-06-18T19:06:36Z</time>
      </trkpt>
      <trkpt lat="42.548890" lon="1.084041">
        <ele>1927.889</ele>
        <time>2021-06-18T19:06:39Z</time>
      </trkpt>
      <trkpt lat="42.548867" lon="1.084051">
        <ele>1928.316</ele>
        <time>2021-06-18T19:06:41Z</time>
      </trkpt>
      <trkpt lat="42.548855" lon="1.084059">
        <ele>1928.671</ele>
        <time>2021-06-18T19:06:42Z</time>
      </trkpt>
      <trkpt lat="42.548783" lon="1.084085">
        <ele>1929.941</ele>
        <time>2021-06-18T19:06:48Z</time>
      </trkpt>
      <trkpt lat="42.548677" lon="1.084126">
        <ele>1932.015</ele>
        <time>2021-06-18T19:06:57Z</time>
      </trkpt>
      <trkpt lat="42.548581" lon="1.084205">
        <ele>1935.208</ele>
        <time>2021-06-18T19:07:06Z</time>
      </trkpt>
      <trkpt lat="42.548569" lon="1.084209">
        <ele>1935.324</ele>
        <time>2021-06-18T19:07:07Z</time>
      </trkpt>
      <trkpt lat="42.548520" lon="1.084232">
        <ele>1936.183</ele>
        <time>2021-06-18T19:07:11Z</time>
      </trkpt>
      <trkpt lat="42.548486" lon="1.084246">
        <ele>1936.699</ele>
        <time>2021-06-18T19:07:14Z</time>
      </trkpt>
      <trkpt lat="42.548463" lon="1.084261">
        <ele>1937.193</ele>
        <time>2021-06-18T19:07:16Z</time>
      </trkpt>
      <trkpt lat="42.548403" lon="1.084285">
        <ele>1937.857</ele>
        <time>2021-06-18T19:07:21Z</time>
      </trkpt>
      <trkpt lat="42.548345" lon="1.084307">
        <ele>1938.557</ele>
        <time>2021-06-18T19:07:26Z</time>
      </trkpt>
      <trkpt lat="42.548262" lon="1.084332">
        <ele>1939.580</ele>
        <time>2021-06-18T19:07:33Z</time>
      </trkpt>
      <trkpt lat="42.548225" lon="1.084347">
        <ele>1940.157</ele>
        <time>2021-06-18T19:07:36Z</time>
      </trkpt>
      <trkpt lat="42.548154" lon="1.084375">
        <ele>1941.462</ele>
        <time>2021-06-18T19:07:42Z</time>
      </trkpt>
      <trkpt lat="42.548142" lon="1.084376">
        <ele>1941.583</ele>
        <time>2021-06-18T19:07:43Z</time>
      </trkpt>
      <trkpt lat="42.548073" lon="1.084407">
        <ele>1942.911</ele>
        <time>2021-06-18T19:07:49Z</time>
      </trkpt>
      <trkpt lat="42.548060" lon="1.084408">
        <ele>1943.008</ele>
        <time>2021-06-18T19:07:50Z</time>
      </trkpt>
      <trkpt lat="42.548012" lon="1.084425">
        <ele>1943.853</ele>
        <time>2021-06-18T19:07:54Z</time>
      </trkpt>
      <trkpt lat="42.547966" lon="1.084443">
        <ele>1944.652</ele>
        <time>2021-06-18T19:07:58Z</time>
      </trkpt>
      <trkpt lat="42.547895" lon="1.084465">
        <ele>1945.688</ele>
        <time>2021-06-18T19:08:04Z</time>
      </trkpt>
      <trkpt lat="42.547849" lon="1.084485">
        <ele>1946.322</ele>
        <time>2021-06-18T19:08:08Z</time>
      </trkpt>
      <trkpt lat="42.547757" lon="1.084515">
        <ele>1947.776</ele>
        <time>2021-06-18T19:08:16Z</time>
      </trkpt>
      <trkpt lat="42.547736" lon="1.084530">
        <ele>1948.176</ele>
        <time>2021-06-18T19:08:18Z</time>
      </trkpt>
      <trkpt lat="42.547677" lon="1.084555">
        <ele>1949.039</ele>
        <time>2021-06-18T19:08:23Z</time>
      </trkpt>
      <trkpt lat="42.547629" lon="1.084572">
        <ele>1949.626</ele>
        <time>2021-06-18T19:08:27Z</time>
      </trkpt>
      <trkpt lat="42.547584" lon="1.084593">
        <ele>1950.266</ele>
        <time>2021-06-18T19:08:31Z</time>
      </trkpt>
      <trkpt lat="42.547560" lon="1.084597">
        <ele>1950.429</ele>
        <time>2021-06-18T19:08:33Z</time>
      </trkpt>
      <trkpt lat="42.547487" lon="1.084598">
        <ele>1950.921</ele>
        <time>2021-06-18T19:08:39Z</time>
      </trkpt>
      <trkpt lat="42.547389" lon="1.084608">
        <ele>1952.108</ele>
        <time>2021-06-18T19:08:47Z</time>
      </trkpt>
      <trkpt lat="42.547364" lon="1.084609">
        <ele>1952.383</ele>
        <time>2021-06-18T19:08:49Z</time>
      </trkpt>
      <trkpt lat="42.547316" lon="1.084619">
        <ele>1953.062</ele>
        <time>2021-06-18T19:08:53Z</time>
      </trkpt>
      <trkpt lat="42.547304" lon="1.084618">
        <ele>1953.168</ele>
        <time>2021-06-18T19:08:54Z</time>
      </trkpt>
      <trkpt lat="42.547233" lon="1.084626">
        <ele>1953.992</ele>
        <time>2021-06-18T19:09:00Z</time>
      </trkpt>
      <trkpt lat="42.547220" lon="1.084623">
        <ele>1954.096</ele>
        <time>2021-06-18T19:09:01Z</time>
      </trkpt>
      <trkpt lat="42.547149" lon="1.084633">
        <ele>1955.176</ele>
        <time>2021-06-18T19:09:07Z</time>
      </trkpt>
      <trkpt lat="42.547126" lon="1.084640">
        <ele>1955.539</ele>
        <time>2021-06-18T19:09:09Z</time>
      </trkpt>
      <trkpt lat="42.547079" lon="1.084662">
        <ele>1956.456</ele>
        <time>2021-06-18T19:09:13Z</time>
      </trkpt>
      <trkpt lat="42.547058" lon="1.084670">
        <ele>1956.896</ele>
        <time>2021-06-18T19:09:15Z</time>
      </trkpt>
      <trkpt lat="42.547050" lon="1.084669">
        <ele>1956.931</ele>
        <time>2021-06-18T19:09:16Z</time>
      </trkpt>
      <trkpt lat="42.547049" lon="1.084668">
        <ele>1956.924</ele>
        <time>2021-06-18T19:09:17Z</time>
      </trkpt>
      <trkpt lat="42.547049" lon="1.084670">
        <ele>1956.908</ele>
        <time>2021-06-18T19:09:18Z</time>
      </trkpt>
      <trkpt lat="42.547016" lon="1.084670">
        <ele>1957.456</ele>
        <time>2021-06-18T19:11:04Z</time>
      </trkpt>
      <trkpt lat="42.547003" lon="1.084675">
        <ele>1957.645</ele>
        <time>2021-06-18T19:11:05Z</time>
      </trkpt>
      <trkpt lat="42.546894" lon="1.084689">
        <ele>1959.251</ele>
        <time>2021-06-18T19:11:13Z</time>
      </trkpt>
      <trkpt lat="42.546795" lon="1.084697">
        <ele>1960.355</ele>
        <time>2021-06-18T19:11:20Z</time>
      </trkpt>
      <trkpt lat="42.546768" lon="1.084685">
        <ele>1960.419</ele>
        <time>2021-06-18T19:11:22Z</time>
      </trkpt>
      <trkpt lat="42.546714" lon="1.084692">
        <ele>1961.149</ele>
        <time>2021-06-18T19:11:26Z</time>
      </trkpt>
      <trkpt lat="42.546673" lon="1.084701">
        <ele>1961.612</ele>
        <time>2021-06-18T19:11:29Z</time>
      </trkpt>
      <trkpt lat="42.546630" lon="1.084704">
        <ele>1962.079</ele>
        <time>2021-06-18T19:11:32Z</time>
      </trkpt>
      <trkpt lat="42.546575" lon="1.084715">
        <ele>1962.688</ele>
        <time>2021-06-18T19:11:36Z</time>
      </trkpt>
      <trkpt lat="42.546467" lon="1.084740">
        <ele>1963.924</ele>
        <time>2021-06-18T19:11:44Z</time>
      </trkpt>
      <trkpt lat="42.546454" lon="1.084746">
        <ele>1964.226</ele>
        <time>2021-06-18T19:11:45Z</time>
      </trkpt>
      <trkpt lat="42.546347" lon="1.084760">
        <ele>1965.708</ele>
        <time>2021-06-18T19:11:53Z</time>
      </trkpt>
      <trkpt lat="42.546334" lon="1.084759">
        <ele>1965.935</ele>
        <time>2021-06-18T19:11:54Z</time>
      </trkpt>
      <trkpt lat="42.546266" lon="1.084751">
        <ele>1966.664</ele>
        <time>2021-06-18T19:11:59Z</time>
      </trkpt>
      <trkpt lat="42.546238" lon="1.084739">
        <ele>1966.790</ele>
        <time>2021-06-18T19:12:01Z</time>
      </trkpt>
      <trkpt lat="42.546139" lon="1.084695">
        <ele>1967.214</ele>
        <time>2021-06-18T19:12:09Z</time>
      </trkpt>
      <trkpt lat="42.546129" lon="1.084686">
        <ele>1967.268</ele>
        <time>2021-06-18T19:12:10Z</time>
      </trkpt>
      <trkpt lat="42.546071" lon="1.084636">
        <ele>1968.278</ele>
        <time>2021-06-18T19:12:15Z</time>
      </trkpt>
      <trkpt lat="42.546039" lon="1.084607">
        <ele>1968.981</ele>
        <time>2021-06-18T19:12:18Z</time>
      </trkpt>
      <trkpt lat="42.545992" lon="1.084543">
        <ele>1969.358</ele>
        <time>2021-06-18T19:12:23Z</time>
      </trkpt>
      <trkpt lat="42.545974" lon="1.084523">
        <ele>1969.512</ele>
        <time>2021-06-18T19:12:25Z</time>
      </trkpt>
      <trkpt lat="42.545965" lon="1.084510">
        <ele>1969.532</ele>
        <time>2021-06-18T19:12:26Z</time>
      </trkpt>
      <trkpt lat="42.545938" lon="1.084464">
        <ele>1969.405</ele>
        <time>2021-06-18T19:12:29Z</time>
      </trkpt>
      <trkpt lat="42.545897" lon="1.084418">
        <ele>1969.808</ele>
        <time>2021-06-18T19:12:33Z</time>
      </trkpt>
      <trkpt lat="42.545845" lon="1.084350">
        <ele>1970.318</ele>
        <time>2021-06-18T19:12:39Z</time>
      </trkpt>
      <trkpt lat="42.545823" lon="1.084330">
        <ele>1970.727</ele>
        <time>2021-06-18T19:12:41Z</time>
      </trkpt>
      <trkpt lat="42.545787" lon="1.084310">
        <ele>1971.413</ele>
        <time>2021-06-18T19:12:44Z</time>
      </trkpt>
      <trkpt lat="42.545729" lon="1.084278">
        <ele>1972.577</ele>
        <time>2021-06-18T19:12:49Z</time>
      </trkpt>
      <trkpt lat="42.545649" lon="1.084243">
        <ele>1974.181</ele>
        <time>2021-06-18T19:12:56Z</time>
      </trkpt>
      <trkpt lat="42.545574" lon="1.084221">
        <ele>1975.791</ele>
        <time>2021-06-18T19:13:02Z</time>
      </trkpt>
      <trkpt lat="42.545550" lon="1.084214">
        <ele>1976.214</ele>
        <time>2021-06-18T19:13:04Z</time>
      </trkpt>
      <trkpt lat="42.545502" lon="1.084196">
        <ele>1977.281</ele>
        <time>2021-06-18T19:13:08Z</time>
      </trkpt>
      <trkpt lat="42.545480" lon="1.084189">
        <ele>1977.716</ele>
        <time>2021-06-18T19:13:10Z</time>
      </trkpt>
      <trkpt lat="42.545400" lon="1.084166">
        <ele>1979.576</ele>
        <time>2021-06-18T19:13:17Z</time>
      </trkpt>
      <trkpt lat="42.545389" lon="1.084159">
        <ele>1979.613</ele>
        <time>2021-06-18T19:13:18Z</time>
      </trkpt>
      <trkpt lat="42.545346" lon="1.084144">
        <ele>1980.308</ele>
        <time>2021-06-18T19:13:22Z</time>
      </trkpt>
      <trkpt lat="42.545310" lon="1.084132">
        <ele>1980.948</ele>
        <time>2021-06-18T19:13:25Z</time>
      </trkpt>
      <trkpt lat="42.545257" lon="1.084123">
        <ele>1982.197</ele>
        <time>2021-06-18T19:13:30Z</time>
      </trkpt>
      <trkpt lat="42.545233" lon="1.084130">
        <ele>1983.153</ele>
        <time>2021-06-18T19:13:32Z</time>
      </trkpt>
      <trkpt lat="42.545222" lon="1.084126">
        <ele>1983.367</ele>
        <time>2021-06-18T19:13:33Z</time>
      </trkpt>
      <trkpt lat="42.545192" lon="1.084104">
        <ele>1983.511</ele>
        <time>2021-06-18T19:13:36Z</time>
      </trkpt>
      <trkpt lat="42.545180" lon="1.084099">
        <ele>1983.781</ele>
        <time>2021-06-18T19:13:37Z</time>
      </trkpt>
      <trkpt lat="42.545158" lon="1.084090">
        <ele>1984.184</ele>
        <time>2021-06-18T19:13:39Z</time>
      </trkpt>
      <trkpt lat="42.545145" lon="1.084085">
        <ele>1984.471</ele>
        <time>2021-06-18T19:13:40Z</time>
      </trkpt>
      <trkpt lat="42.545099" lon="1.084069">
        <ele>1985.332</ele>
        <time>2021-06-18T19:13:44Z</time>
      </trkpt>
      <trkpt lat="42.545091" lon="1.084063">
        <ele>1985.392</ele>
        <time>2021-06-18T19:13:47Z</time>
      </trkpt>
      <trkpt lat="42.545016" lon="1.084025">
        <ele>1986.411</ele>
        <time>2021-06-18T19:14:55Z</time>
      </trkpt>
      <trkpt lat="42.545007" lon="1.084020">
        <ele>1986.508</ele>
        <time>2021-06-18T19:14:56Z</time>
      </trkpt>
      <trkpt lat="42.544945" lon="1.083985">
        <ele>1987.020</ele>
        <time>2021-06-18T19:15:02Z</time>
      </trkpt>
      <trkpt lat="42.544936" lon="1.083976">
        <ele>1987.019</ele>
        <time>2021-06-18T19:15:03Z</time>
      </trkpt>
      <trkpt lat="42.544898" lon="1.083948">
        <ele>1987.185</ele>
        <time>2021-06-18T19:15:07Z</time>
      </trkpt>
      <trkpt lat="42.544867" lon="1.083942">
        <ele>1987.739</ele>
        <time>2021-06-18T19:15:10Z</time>
      </trkpt>
      <trkpt lat="42.544779" lon="1.083916">
        <ele>1989.363</ele>
        <time>2021-06-18T19:15:17Z</time>
      </trkpt>
      <trkpt lat="42.544742" lon="1.083922">
        <ele>1990.693</ele>
        <time>2021-06-18T19:15:20Z</time>
      </trkpt>
      <trkpt lat="42.544692" lon="1.083915">
        <ele>1991.636</ele>
        <time>2021-06-18T19:15:24Z</time>
      </trkpt>
      <trkpt lat="42.544679" lon="1.083912">
        <ele>1991.873</ele>
        <time>2021-06-18T19:15:25Z</time>
      </trkpt>
      <trkpt lat="42.544614" lon="1.083914">
        <ele>1993.389</ele>
        <time>2021-06-18T19:15:30Z</time>
      </trkpt>
      <trkpt lat="42.544589" lon="1.083909">
        <ele>1993.706</ele>
        <time>2021-06-18T19:15:32Z</time>
      </trkpt>
      <trkpt lat="42.544541" lon="1.083890">
        <ele>1994.026</ele>
        <time>2021-06-18T19:15:36Z</time>
      </trkpt>
      <trkpt lat="42.544491" lon="1.083874">
        <ele>1994.508</ele>
        <time>2021-06-18T19:15:40Z</time>
      </trkpt>
      <trkpt lat="42.544444" lon="1.083879">
        <ele>1995.745</ele>
        <time>2021-06-18T19:15:44Z</time>
      </trkpt>
      <trkpt lat="42.544422" lon="1.083877">
        <ele>1996.374</ele>
        <time>2021-06-18T19:15:46Z</time>
      </trkpt>
      <trkpt lat="42.544401" lon="1.083864">
        <ele>1996.520</ele>
        <time>2021-06-18T19:15:48Z</time>
      </trkpt>
      <trkpt lat="42.544390" lon="1.083859">
        <ele>1996.714</ele>
        <time>2021-06-18T19:15:49Z</time>
      </trkpt>
      <trkpt lat="42.544366" lon="1.083855">
        <ele>1997.288</ele>
        <time>2021-06-18T19:15:51Z</time>
      </trkpt>
      <trkpt lat="42.544330" lon="1.083860">
        <ele>1998.448</ele>
        <time>2021-06-18T19:15:54Z</time>
      </trkpt>
      <trkpt lat="42.544317" lon="1.083857">
        <ele>1998.791</ele>
        <time>2021-06-18T19:15:55Z</time>
      </trkpt>
      <trkpt lat="42.544256" lon="1.083831">
        <ele>1999.678</ele>
        <time>2021-06-18T19:16:00Z</time>
      </trkpt>
      <trkpt lat="42.544218" lon="1.083809">
        <ele>2000.063</ele>
        <time>2021-06-18T19:16:03Z</time>
      </trkpt>
      <trkpt lat="42.544188" lon="1.083786">
        <ele>2000.144</ele>
        <time>2021-06-18T19:16:06Z</time>
      </trkpt>
      <trkpt lat="42.544158" lon="1.083756">
        <ele>2000.018</ele>
        <time>2021-06-18T19:16:09Z</time>
      </trkpt>
      <trkpt lat="42.544110" lon="1.083720">
        <ele>2000.608</ele>
        <time>2021-06-18T19:16:14Z</time>
      </trkpt>
      <trkpt lat="42.544078" lon="1.083698">
        <ele>2001.183</ele>
        <time>2021-06-18T19:16:17Z</time>
      </trkpt>
      <trkpt lat="42.544056" lon="1.083687">
        <ele>2001.642</ele>
        <time>2021-06-18T19:16:19Z</time>
      </trkpt>
      <trkpt lat="42.544028" lon="1.083663">
        <ele>2001.868</ele>
        <time>2021-06-18T19:16:22Z</time>
      </trkpt>
      <trkpt lat="42.544004" lon="1.083656">
        <ele>2002.462</ele>
        <time>2021-06-18T19:16:24Z</time>
      </trkpt>
      <trkpt lat="42.543963" lon="1.083623">
        <ele>2002.786</ele>
        <time>2021-06-18T19:16:28Z</time>
      </trkpt>
      <trkpt lat="42.543952" lon="1.083611">
        <ele>2002.756</ele>
        <time>2021-06-18T19:16:31Z</time>
      </trkpt>
      <trkpt lat="42.543877" lon="1.083614">
        <ele>2005.329</ele>
        <time>2021-06-18T19:17:12Z</time>
      </trkpt>
      <trkpt lat="42.543842" lon="1.083603">
        <ele>2005.536</ele>
        <time>2021-06-18T19:17:15Z</time>
      </trkpt>
      <trkpt lat="42.543758" lon="1.083594">
        <ele>2006.593</ele>
        <time>2021-06-18T19:17:22Z</time>
      </trkpt>
      <trkpt lat="42.543695" lon="1.083614">
        <ele>2007.965</ele>
        <time>2021-06-18T19:17:27Z</time>
      </trkpt>
      <trkpt lat="42.543673" lon="1.083625">
        <ele>2008.721</ele>
        <time>2021-06-18T19:17:29Z</time>
      </trkpt>
      <trkpt lat="42.543660" lon="1.083627">
        <ele>2009.008</ele>
        <time>2021-06-18T19:17:30Z</time>
      </trkpt>
      <trkpt lat="42.543622" lon="1.083628">
        <ele>2009.656</ele>
        <time>2021-06-18T19:17:33Z</time>
      </trkpt>
      <trkpt lat="42.543561" lon="1.083601">
        <ele>2010.235</ele>
        <time>2021-06-18T19:17:38Z</time>
      </trkpt>
      <trkpt lat="42.543550" lon="1.083600">
        <ele>2010.581</ele>
        <time>2021-06-18T19:17:39Z</time>
      </trkpt>
      <trkpt lat="42.543492" lon="1.083597">
        <ele>2012.175</ele>
        <time>2021-06-18T19:17:44Z</time>
      </trkpt>
      <trkpt lat="42.543432" lon="1.083569">
        <ele>2013.039</ele>
        <time>2021-06-18T19:17:49Z</time>
      </trkpt>
      <trkpt lat="42.543397" lon="1.083551">
        <ele>2013.459</ele>
        <time>2021-06-18T19:17:52Z</time>
      </trkpt>
      <trkpt lat="42.543327" lon="1.083516">
        <ele>2014.162</ele>
        <time>2021-06-18T19:17:58Z</time>
      </trkpt>
      <trkpt lat="42.543281" lon="1.083497">
        <ele>2015.049</ele>
        <time>2021-06-18T19:18:02Z</time>
      </trkpt>
      <trkpt lat="42.543258" lon="1.083504">
        <ele>2016.025</ele>
        <time>2021-06-18T19:18:04Z</time>
      </trkpt>
      <trkpt lat="42.543246" lon="1.083505">
        <ele>2016.426</ele>
        <time>2021-06-18T19:18:05Z</time>
      </trkpt>
      <trkpt lat="42.543217" lon="1.083478">
        <ele>2016.508</ele>
        <time>2021-06-18T19:18:08Z</time>
      </trkpt>
      <trkpt lat="42.543195" lon="1.083470">
        <ele>2016.908</ele>
        <time>2021-06-18T19:18:10Z</time>
      </trkpt>
      <trkpt lat="42.543161" lon="1.083458">
        <ele>2017.639</ele>
        <time>2021-06-18T19:18:13Z</time>
      </trkpt>
      <trkpt lat="42.543137" lon="1.083429">
        <ele>2017.588</ele>
        <time>2021-06-18T19:18:16Z</time>
      </trkpt>
      <trkpt lat="42.543122" lon="1.083407">
        <ele>2017.214</ele>
        <time>2021-06-18T19:18:18Z</time>
      </trkpt>
      <trkpt lat="42.543112" lon="1.083400">
        <ele>2017.368</ele>
        <time>2021-06-18T19:18:19Z</time>
      </trkpt>
      <trkpt lat="42.543078" lon="1.083383">
        <ele>2017.982</ele>
        <time>2021-06-18T19:18:22Z</time>
      </trkpt>
      <trkpt lat="42.543066" lon="1.083379">
        <ele>2018.112</ele>
        <time>2021-06-18T19:18:23Z</time>
      </trkpt>
      <trkpt lat="42.543046" lon="1.083369">
        <ele>2018.445</ele>
        <time>2021-06-18T19:18:27Z</time>
      </trkpt>
      <trkpt lat="42.542695" lon="1.083326">
        <ele>2024.932</ele>
        <time>2021-06-18T19:19:26Z</time>
      </trkpt>
      <trkpt lat="42.542662" lon="1.083307">
        <ele>2025.341</ele>
        <time>2021-06-18T19:19:29Z</time>
      </trkpt>
      <trkpt lat="42.542653" lon="1.083295">
        <ele>2025.381</ele>
        <time>2021-06-18T19:19:30Z</time>
      </trkpt>
      <trkpt lat="42.542594" lon="1.083275">
        <ele>2026.209</ele>
        <time>2021-06-18T19:19:35Z</time>
      </trkpt>
      <trkpt lat="42.542581" lon="1.083279">
        <ele>2026.608</ele>
        <time>2021-06-18T19:19:36Z</time>
      </trkpt>
      <trkpt lat="42.542558" lon="1.083277">
        <ele>2027.211</ele>
        <time>2021-06-18T19:19:38Z</time>
      </trkpt>
      <trkpt lat="42.542533" lon="1.083261">
        <ele>2027.410</ele>
        <time>2021-06-18T19:19:40Z</time>
      </trkpt>
      <trkpt lat="42.542508" lon="1.083243">
        <ele>2027.526</ele>
        <time>2021-06-18T19:19:42Z</time>
      </trkpt>
      <trkpt lat="42.542474" lon="1.083216">
        <ele>2028.010</ele>
        <time>2021-06-18T19:19:45Z</time>
      </trkpt>
      <trkpt lat="42.542411" lon="1.083141">
        <ele>2028.594</ele>
        <time>2021-06-18T19:19:52Z</time>
      </trkpt>
      <trkpt lat="42.542400" lon="1.083133">
        <ele>2028.764</ele>
        <time>2021-06-18T19:19:53Z</time>
      </trkpt>
      <trkpt lat="42.542348" lon="1.083077">
        <ele>2029.187</ele>
        <time>2021-06-18T19:19:59Z</time>
      </trkpt>
      <trkpt lat="42.542306" lon="1.083050">
        <ele>2030.084</ele>
        <time>2021-06-18T19:20:03Z</time>
      </trkpt>
      <trkpt lat="42.542280" lon="1.083017">
        <ele>2030.767</ele>
        <time>2021-06-18T19:20:06Z</time>
      </trkpt>
      <trkpt lat="42.542254" lon="1.082984">
        <ele>2031.481</ele>
        <time>2021-06-18T19:20:09Z</time>
      </trkpt>
      <trkpt lat="42.542220" lon="1.082923">
        <ele>2032.119</ele>
        <time>2021-06-18T19:20:14Z</time>
      </trkpt>
      <trkpt lat="42.542213" lon="1.082893">
        <ele>2032.208</ele>
        <time>2021-06-18T19:20:16Z</time>
      </trkpt>
      <trkpt lat="42.542171" lon="1.082840">
        <ele>2033.533</ele>
        <time>2021-06-18T19:20:21Z</time>
      </trkpt>
      <trkpt lat="42.542165" lon="1.082827">
        <ele>2033.712</ele>
        <time>2021-06-18T19:20:22Z</time>
      </trkpt>
      <trkpt lat="42.542134" lon="1.082765">
        <ele>2034.588</ele>
        <time>2021-06-18T19:20:27Z</time>
      </trkpt>
      <trkpt lat="42.542126" lon="1.082754">
        <ele>2034.762</ele>
        <time>2021-06-18T19:20:28Z</time>
      </trkpt>
      <trkpt lat="42.542096" lon="1.082706">
        <ele>2035.636</ele>
        <time>2021-06-18T19:20:32Z</time>
      </trkpt>
      <trkpt lat="42.542056" lon="1.082651">
        <ele>2036.886</ele>
        <time>2021-06-18T19:20:37Z</time>
      </trkpt>
      <trkpt lat="42.542050" lon="1.082643">
        <ele>2036.999</ele>
        <time>2021-06-18T19:20:38Z</time>
      </trkpt>
      <trkpt lat="42.542046" lon="1.082643">
        <ele>2037.136</ele>
        <time>2021-06-18T19:20:40Z</time>
      </trkpt>
      <trkpt lat="42.541082" lon="1.081428">
        <ele>2057.066</ele>
        <time>2021-06-18T19:24:49Z</time>
      </trkpt>
      <trkpt lat="42.541083" lon="1.081411">
        <ele>2056.929</ele>
        <time>2021-06-18T19:24:50Z</time>
      </trkpt>
      <trkpt lat="42.541102" lon="1.081276">
        <ele>2057.021</ele>
        <time>2021-06-18T19:24:58Z</time>
      </trkpt>
      <trkpt lat="42.541107" lon="1.081128">
        <ele>2057.908</ele>
        <time>2021-06-18T19:25:06Z</time>
      </trkpt>
      <trkpt lat="42.541115" lon="1.081089">
        <ele>2058.143</ele>
        <time>2021-06-18T19:25:08Z</time>
      </trkpt>
      <trkpt lat="42.541131" lon="1.080930">
        <ele>2058.832</ele>
        <time>2021-06-18T19:25:16Z</time>
      </trkpt>
      <trkpt lat="42.541133" lon="1.080912">
        <ele>2058.968</ele>
        <time>2021-06-18T19:25:17Z</time>
      </trkpt>
      <trkpt lat="42.541127" lon="1.080805">
        <ele>2059.792</ele>
        <time>2021-06-18T19:25:23Z</time>
      </trkpt>
      <trkpt lat="42.541127" lon="1.080737">
        <ele>2059.956</ele>
        <time>2021-06-18T19:25:27Z</time>
      </trkpt>
      <trkpt lat="42.541122" lon="1.080705">
        <ele>2060.136</ele>
        <time>2021-06-18T19:25:29Z</time>
      </trkpt>
      <trkpt lat="42.541095" lon="1.080627">
        <ele>2061.239</ele>
        <time>2021-06-18T19:25:34Z</time>
      </trkpt>
      <trkpt lat="42.541090" lon="1.080593">
        <ele>2061.596</ele>
        <time>2021-06-18T19:25:36Z</time>
      </trkpt>
      <trkpt lat="42.541061" lon="1.080500">
        <ele>2062.714</ele>
        <time>2021-06-18T19:25:42Z</time>
      </trkpt>
      <trkpt lat="42.541057" lon="1.080485">
        <ele>2062.954</ele>
        <time>2021-06-18T19:25:43Z</time>
      </trkpt>
      <trkpt lat="42.541053" lon="1.080459">
        <ele>2063.109</ele>
        <time>2021-06-18T19:25:45Z</time>
      </trkpt>
      <trkpt lat="42.541023" lon="1.080380">
        <ele>2064.508</ele>
        <time>2021-06-18T19:25:51Z</time>
      </trkpt>
      <trkpt lat="42.541019" lon="1.080344">
        <ele>2064.728</ele>
        <time>2021-06-18T19:25:53Z</time>
      </trkpt>
      <trkpt lat="42.541001" lon="1.080232">
        <ele>2065.637</ele>
        <time>2021-06-18T19:26:00Z</time>
      </trkpt>
      <trkpt lat="42.541000" lon="1.080202">
        <ele>2065.633</ele>
        <time>2021-06-18T19:26:02Z</time>
      </trkpt>
      <trkpt lat="42.540980" lon="1.080140">
        <ele>2066.437</ele>
        <time>2021-06-18T19:26:06Z</time>
      </trkpt>
      <trkpt lat="42.540975" lon="1.080125">
        <ele>2066.661</ele>
        <time>2021-06-18T19:26:07Z</time>
      </trkpt>
      <trkpt lat="42.540971" lon="1.080111">
        <ele>2066.871</ele>
        <time>2021-06-18T19:26:08Z</time>
      </trkpt>
      <trkpt lat="42.540967" lon="1.080081">
        <ele>2066.934</ele>
        <time>2021-06-18T19:26:10Z</time>
      </trkpt>
      <trkpt lat="42.540941" lon="1.080025">
        <ele>2068.291</ele>
        <time>2021-06-18T19:26:14Z</time>
      </trkpt>
      <trkpt lat="42.540926" lon="1.079986">
        <ele>2068.958</ele>
        <time>2021-06-18T19:26:17Z</time>
      </trkpt>
      <trkpt lat="42.540913" lon="1.079945">
        <ele>2069.552</ele>
        <time>2021-06-18T19:26:20Z</time>
      </trkpt>
      <trkpt lat="42.540909" lon="1.079930">
        <ele>2069.717</ele>
        <time>2021-06-18T19:26:21Z</time>
      </trkpt>
      <trkpt lat="42.540863" lon="1.079822">
        <ele>2071.808</ele>
        <time>2021-06-18T19:26:29Z</time>
      </trkpt>
      <trkpt lat="42.540858" lon="1.079808">
        <ele>2072.052</ele>
        <time>2021-06-18T19:26:30Z</time>
      </trkpt>
      <trkpt lat="42.540839" lon="1.079716">
        <ele>2072.651</ele>
        <time>2021-06-18T19:26:36Z</time>
      </trkpt>
      <trkpt lat="42.540825" lon="1.079689">
        <ele>2073.297</ele>
        <time>2021-06-18T19:26:38Z</time>
      </trkpt>
      <trkpt lat="42.540802" lon="1.079619">
        <ele>2074.051</ele>
        <time>2021-06-18T19:26:43Z</time>
      </trkpt>
      <trkpt lat="42.540787" lon="1.079582">
        <ele>2074.685</ele>
        <time>2021-06-18T19:26:46Z</time>
      </trkpt>
      <trkpt lat="42.540771" lon="1.079531">
        <ele>2075.155</ele>
        <time>2021-06-18T19:26:50Z</time>
      </trkpt>
      <trkpt lat="42.540765" lon="1.079515">
        <ele>2075.498</ele>
        <time>2021-06-18T19:26:52Z</time>
      </trkpt>
      <trkpt lat="42.540750" lon="1.079475">
        <ele>2076.055</ele>
        <time>2021-06-18T19:26:55Z</time>
      </trkpt>
      <trkpt lat="42.540730" lon="1.079409">
        <ele>2076.631</ele>
        <time>2021-06-18T19:27:00Z</time>
      </trkpt>
      <trkpt lat="42.540725" lon="1.079396">
        <ele>2076.861</ele>
        <time>2021-06-18T19:27:01Z</time>
      </trkpt>
      <trkpt lat="42.540716" lon="1.079369">
        <ele>2077.107</ele>
        <time>2021-06-18T19:27:05Z</time>
      </trkpt>
      <trkpt lat="42.540427" lon="1.078545">
        <ele>2085.808</ele>
        <time>2021-06-18T19:28:49Z</time>
      </trkpt>
      <trkpt lat="42.540419" lon="1.078529">
        <ele>2086.070</ele>
        <time>2021-06-18T19:28:50Z</time>
      </trkpt>
      <trkpt lat="42.540369" lon="1.078458">
        <ele>2087.749</ele>
        <time>2021-06-18T19:28:55Z</time>
      </trkpt>
      <trkpt lat="42.540355" lon="1.078425">
        <ele>2088.165</ele>
        <time>2021-06-18T19:28:57Z</time>
      </trkpt>
      <trkpt lat="42.540339" lon="1.078395">
        <ele>2088.619</ele>
        <time>2021-06-18T19:28:59Z</time>
      </trkpt>
      <trkpt lat="42.540281" lon="1.078316">
        <ele>2090.743</ele>
        <time>2021-06-18T19:29:05Z</time>
      </trkpt>
      <trkpt lat="42.540275" lon="1.078302">
        <ele>2090.973</ele>
        <time>2021-06-18T19:29:06Z</time>
      </trkpt>
      <trkpt lat="42.540250" lon="1.078218">
        <ele>2091.286</ele>
        <time>2021-06-18T19:29:11Z</time>
      </trkpt>
      <trkpt lat="42.540233" lon="1.078190">
        <ele>2091.693</ele>
        <time>2021-06-18T19:29:13Z</time>
      </trkpt>
      <trkpt lat="42.540208" lon="1.078152">
        <ele>2092.287</ele>
        <time>2021-06-18T19:29:16Z</time>
      </trkpt>
      <trkpt lat="42.540186" lon="1.078096">
        <ele>2092.642</ele>
        <time>2021-06-18T19:29:20Z</time>
      </trkpt>
      <trkpt lat="42.540170" lon="1.078072">
        <ele>2093.026</ele>
        <time>2021-06-18T19:29:22Z</time>
      </trkpt>
      <trkpt lat="42.540122" lon="1.077998">
        <ele>2093.608</ele>
        <time>2021-06-18T19:29:28Z</time>
      </trkpt>
      <trkpt lat="42.540111" lon="1.077988">
        <ele>2093.835</ele>
        <time>2021-06-18T19:29:29Z</time>
      </trkpt>
      <trkpt lat="42.540056" lon="1.077949">
        <ele>2095.344</ele>
        <time>2021-06-18T19:29:34Z</time>
      </trkpt>
      <trkpt lat="42.540035" lon="1.077913">
        <ele>2095.640</ele>
        <time>2021-06-18T19:29:37Z</time>
      </trkpt>
      <trkpt lat="42.539986" lon="1.077845">
        <ele>2096.534</ele>
        <time>2021-06-18T19:29:43Z</time>
      </trkpt>
      <trkpt lat="42.539967" lon="1.077822">
        <ele>2097.038</ele>
        <time>2021-06-18T19:29:45Z</time>
      </trkpt>
      <trkpt lat="42.539942" lon="1.077782">
        <ele>2097.648</ele>
        <time>2021-06-18T19:29:48Z</time>
      </trkpt>
      <trkpt lat="42.539913" lon="1.077725">
        <ele>2098.481</ele>
        <time>2021-06-18T19:29:52Z</time>
      </trkpt>
      <trkpt lat="42.539904" lon="1.077710">
        <ele>2098.748</ele>
        <time>2021-06-18T19:29:53Z</time>
      </trkpt>
      <trkpt lat="42.539853" lon="1.077604">
        <ele>2100.121</ele>
        <time>2021-06-18T19:30:00Z</time>
      </trkpt>
      <trkpt lat="42.539841" lon="1.077572">
        <ele>2100.441</ele>
        <time>2021-06-18T19:30:02Z</time>
      </trkpt>
      <trkpt lat="42.539819" lon="1.077511">
        <ele>2100.905</ele>
        <time>2021-06-18T19:30:06Z</time>
      </trkpt>
      <trkpt lat="42.539791" lon="1.077434">
        <ele>2102.308</ele>
        <time>2021-06-18T19:30:11Z</time>
      </trkpt>
      <trkpt lat="42.539789" lon="1.077418">
        <ele>2102.589</ele>
        <time>2021-06-18T19:30:12Z</time>
      </trkpt>
      <trkpt lat="42.539787" lon="1.077369">
        <ele>2102.848</ele>
        <time>2021-06-18T19:30:15Z</time>
      </trkpt>
      <trkpt lat="42.539771" lon="1.077295">
        <ele>2103.584</ele>
        <time>2021-06-18T19:30:20Z</time>
      </trkpt>
      <trkpt lat="42.539747" lon="1.077258">
        <ele>2104.378</ele>
        <time>2021-06-18T19:30:23Z</time>
      </trkpt>
      <trkpt lat="42.539731" lon="1.077215">
        <ele>2104.822</ele>
        <time>2021-06-18T19:30:26Z</time>
      </trkpt>
      <trkpt lat="42.539719" lon="1.077153">
        <ele>2105.642</ele>
        <time>2021-06-18T19:30:30Z</time>
      </trkpt>
      <trkpt lat="42.539707" lon="1.077124">
        <ele>2106.265</ele>
        <time>2021-06-18T19:30:32Z</time>
      </trkpt>
      <trkpt lat="42.539689" lon="1.077044">
        <ele>2107.352</ele>
        <time>2021-06-18T19:30:37Z</time>
      </trkpt>
      <trkpt lat="42.539686" lon="1.077009">
        <ele>2107.665</ele>
        <time>2021-06-18T19:30:39Z</time>
      </trkpt>
      <trkpt lat="42.539686" lon="1.076990">
        <ele>2107.868</ele>
        <time>2021-06-18T19:30:40Z</time>
      </trkpt>
      <trkpt lat="42.539725" lon="1.076875">
        <ele>2108.214</ele>
        <time>2021-06-18T19:30:47Z</time>
      </trkpt>
      <trkpt lat="42.539796" lon="1.076797">
        <ele>2108.708</ele>
        <time>2021-06-18T19:30:54Z</time>
      </trkpt>
      <trkpt lat="42.539864" lon="1.076675">
        <ele>2109.853</ele>
        <time>2021-06-18T19:31:02Z</time>
      </trkpt>
      <trkpt lat="42.539871" lon="1.076657">
        <ele>2110.052</ele>
        <time>2021-06-18T19:31:03Z</time>
      </trkpt>
      <trkpt lat="42.539920" lon="1.076516">
        <ele>2110.938</ele>
        <time>2021-06-18T19:31:11Z</time>
      </trkpt>
      <trkpt lat="42.539958" lon="1.076375">
        <ele>2111.932</ele>
        <time>2021-06-18T19:31:19Z</time>
      </trkpt>
      <trkpt lat="42.539971" lon="1.076277">
        <ele>2112.786</ele>
        <time>2021-06-18T19:31:24Z</time>
      </trkpt>
      <trkpt lat="42.539975" lon="1.076258">
        <ele>2112.976</ele>
        <time>2021-06-18T19:31:25Z</time>
      </trkpt>
      <trkpt lat="42.539976" lon="1.076238">
        <ele>2113.139</ele>
        <time>2021-06-18T19:31:26Z</time>
      </trkpt>
      <trkpt lat="42.539978" lon="1.076182">
        <ele>2113.676</ele>
        <time>2021-06-18T19:31:29Z</time>
      </trkpt>
      <trkpt lat="42.539976" lon="1.076143">
        <ele>2114.161</ele>
        <time>2021-06-18T19:31:31Z</time>
      </trkpt>
      <trkpt lat="42.539978" lon="1.076123">
        <ele>2114.321</ele>
        <time>2021-06-18T19:31:32Z</time>
      </trkpt>
      <trkpt lat="42.539989" lon="1.075962">
        <ele>2115.813</ele>
        <time>2021-06-18T19:31:40Z</time>
      </trkpt>
      <trkpt lat="42.539995" lon="1.075906">
        <ele>2116.308</ele>
        <time>2021-06-18T19:31:43Z</time>
      </trkpt>
      <trkpt lat="42.539982" lon="1.075819">
        <ele>2117.473</ele>
        <time>2021-06-18T19:31:48Z</time>
      </trkpt>
      <trkpt lat="42.539982" lon="1.075800">
        <ele>2117.592</ele>
        <time>2021-06-18T19:31:49Z</time>
      </trkpt>
      <trkpt lat="42.539973" lon="1.075698">
        <ele>2118.028</ele>
        <time>2021-06-18T19:31:54Z</time>
      </trkpt>
      <trkpt lat="42.539974" lon="1.075676">
        <ele>2118.122</ele>
        <time>2021-06-18T19:31:55Z</time>
      </trkpt>
      <trkpt lat="42.539959" lon="1.075618">
        <ele>2118.686</ele>
        <time>2021-06-18T19:31:58Z</time>
      </trkpt>
      <trkpt lat="42.539952" lon="1.075599">
        <ele>2118.946</ele>
        <time>2021-06-18T19:31:59Z</time>
      </trkpt>
      <trkpt lat="42.539929" lon="1.075549">
        <ele>2119.519</ele>
        <time>2021-06-18T19:32:02Z</time>
      </trkpt>
      <trkpt lat="42.539902" lon="1.075480">
        <ele>2119.916</ele>
        <time>2021-06-18T19:32:06Z</time>
      </trkpt>
      <trkpt lat="42.539888" lon="1.075447">
        <ele>2120.286</ele>
        <time>2021-06-18T19:32:08Z</time>
      </trkpt>
      <trkpt lat="42.539866" lon="1.075420">
        <ele>2120.660</ele>
        <time>2021-06-18T19:32:10Z</time>
      </trkpt>
      <trkpt lat="42.539833" lon="1.075355">
        <ele>2121.326</ele>
        <time>2021-06-18T19:32:14Z</time>
      </trkpt>
      <trkpt lat="42.539823" lon="1.075343">
        <ele>2121.508</ele>
        <time>2021-06-18T19:32:15Z</time>
      </trkpt>
      <trkpt lat="42.539779" lon="1.075303">
        <ele>2122.685</ele>
        <time>2021-06-18T19:32:19Z</time>
      </trkpt>
      <trkpt lat="42.539769" lon="1.075287">
        <ele>2122.854</ele>
        <time>2021-06-18T19:32:20Z</time>
      </trkpt>
      <trkpt lat="42.539756" lon="1.075274">
        <ele>2123.110</ele>
        <time>2021-06-18T19:32:21Z</time>
      </trkpt>
      <trkpt lat="42.539731" lon="1.075251">
        <ele>2123.784</ele>
        <time>2021-06-18T19:32:23Z</time>
      </trkpt>
      <trkpt lat="42.539680" lon="1.075219">
        <ele>2124.288</ele>
        <time>2021-06-18T19:32:27Z</time>
      </trkpt>
      <trkpt lat="42.539666" lon="1.075210">
        <ele>2124.458</ele>
        <time>2021-06-18T19:32:28Z</time>
      </trkpt>
      <trkpt lat="42.539653" lon="1.075202">
        <ele>2124.541</ele>
        <time>2021-06-18T19:32:29Z</time>
      </trkpt>
      <trkpt lat="42.539627" lon="1.075187">
        <ele>2124.728</ele>
        <time>2021-06-18T19:32:33Z</time>
      </trkpt>
      <trkpt lat="42.537868" lon="1.076420">
        <ele>2157.328</ele>
        <time>2021-06-18T19:38:56Z</time>
      </trkpt>
      <trkpt lat="42.537868" lon="1.076535">
        <ele>2159.289</ele>
        <time>2021-06-18T19:39:02Z</time>
      </trkpt>
      <trkpt lat="42.537887" lon="1.076628">
        <ele>2159.917</ele>
        <time>2021-06-18T19:39:07Z</time>
      </trkpt>
      <trkpt lat="42.537896" lon="1.076664">
        <ele>2160.008</ele>
        <time>2021-06-18T19:39:09Z</time>
      </trkpt>
      <trkpt lat="42.537900" lon="1.076682">
        <ele>2160.129</ele>
        <time>2021-06-18T19:39:10Z</time>
      </trkpt>
      <trkpt lat="42.537914" lon="1.076775">
        <ele>2160.768</ele>
        <time>2021-06-18T19:39:15Z</time>
      </trkpt>
      <trkpt lat="42.537927" lon="1.076869">
        <ele>2161.394</ele>
        <time>2021-06-18T19:39:20Z</time>
      </trkpt>
      <trkpt lat="42.537937" lon="1.076962">
        <ele>2162.058</ele>
        <time>2021-06-18T19:39:25Z</time>
      </trkpt>
      <trkpt lat="42.537939" lon="1.077000">
        <ele>2162.392</ele>
        <time>2021-06-18T19:39:27Z</time>
      </trkpt>
      <trkpt lat="42.537942" lon="1.077075">
        <ele>2163.082</ele>
        <time>2021-06-18T19:39:31Z</time>
      </trkpt>
      <trkpt lat="42.537955" lon="1.077169">
        <ele>2163.215</ele>
        <time>2021-06-18T19:39:36Z</time>
      </trkpt>
      <trkpt lat="42.537957" lon="1.077239">
        <ele>2164.012</ele>
        <time>2021-06-18T19:39:40Z</time>
      </trkpt>
      <trkpt lat="42.537964" lon="1.077343">
        <ele>2165.449</ele>
        <time>2021-06-18T19:39:46Z</time>
      </trkpt>
      <trkpt lat="42.537973" lon="1.077481">
        <ele>2167.402</ele>
        <time>2021-06-18T19:39:54Z</time>
      </trkpt>
      <trkpt lat="42.537975" lon="1.077500">
        <ele>2167.622</ele>
        <time>2021-06-18T19:39:55Z</time>
      </trkpt>
      <trkpt lat="42.537990" lon="1.077632">
        <ele>2169.408</ele>
        <time>2021-06-18T19:40:02Z</time>
      </trkpt>
      <trkpt lat="42.538036" lon="1.077717">
        <ele>2168.131</ele>
        <time>2021-06-18T19:40:08Z</time>
      </trkpt>
      <trkpt lat="42.538042" lon="1.077733">
        <ele>2168.140</ele>
        <time>2021-06-18T19:40:09Z</time>
      </trkpt>
      <trkpt lat="42.538063" lon="1.077834">
        <ele>2168.676</ele>
        <time>2021-06-18T19:40:15Z</time>
      </trkpt>
      <trkpt lat="42.538070" lon="1.077867">
        <ele>2168.820</ele>
        <time>2021-06-18T19:40:17Z</time>
      </trkpt>
      <trkpt lat="42.538077" lon="1.077964">
        <ele>2170.284</ele>
        <time>2021-06-18T19:40:23Z</time>
      </trkpt>
      <trkpt lat="42.538077" lon="1.078067">
        <ele>2172.074</ele>
        <time>2021-06-18T19:40:29Z</time>
      </trkpt>
      <trkpt lat="42.538076" lon="1.078100">
        <ele>2172.587</ele>
        <time>2021-06-18T19:40:31Z</time>
      </trkpt>
      <trkpt lat="42.538078" lon="1.078116">
        <ele>2172.744</ele>
        <time>2021-06-18T19:40:32Z</time>
      </trkpt>
      <trkpt lat="42.538085" lon="1.078200">
        <ele>2173.571</ele>
        <time>2021-06-18T19:40:37Z</time>
      </trkpt>
      <trkpt lat="42.538091" lon="1.078234">
        <ele>2173.741</ele>
        <time>2021-06-18T19:40:39Z</time>
      </trkpt>
      <trkpt lat="42.538091" lon="1.078251">
        <ele>2173.915</ele>
        <time>2021-06-18T19:40:40Z</time>
      </trkpt>
      <trkpt lat="42.538091" lon="1.078314">
        <ele>2174.808</ele>
        <time>2021-06-18T19:40:44Z</time>
      </trkpt>
      <trkpt lat="42.538103" lon="1.078388">
        <ele>2175.444</ele>
        <time>2021-06-18T19:40:49Z</time>
      </trkpt>
      <trkpt lat="42.538103" lon="1.078403">
        <ele>2175.613</ele>
        <time>2021-06-18T19:40:50Z</time>
      </trkpt>
      <trkpt lat="42.538100" lon="1.078481">
        <ele>2177.269</ele>
        <time>2021-06-18T19:40:55Z</time>
      </trkpt>
      <trkpt lat="42.538109" lon="1.078528">
        <ele>2177.523</ele>
        <time>2021-06-18T19:40:58Z</time>
      </trkpt>
      <trkpt lat="42.538114" lon="1.078560">
        <ele>2177.867</ele>
        <time>2021-06-18T19:41:00Z</time>
      </trkpt>
      <trkpt lat="42.538116" lon="1.078591">
        <ele>2178.237</ele>
        <time>2021-06-18T19:41:02Z</time>
      </trkpt>
      <trkpt lat="42.538122" lon="1.078622">
        <ele>2178.390</ele>
        <time>2021-06-18T19:41:04Z</time>
      </trkpt>
      <trkpt lat="42.538126" lon="1.078671">
        <ele>2178.637</ele>
        <time>2021-06-18T19:41:07Z</time>
      </trkpt>
      <trkpt lat="42.538124" lon="1.078722">
        <ele>2179.472</ele>
        <time>2021-06-18T19:41:10Z</time>
      </trkpt>
      <trkpt lat="42.538125" lon="1.078739">
        <ele>2179.513</ele>
        <time>2021-06-18T19:41:11Z</time>
      </trkpt>
      <trkpt lat="42.538143" lon="1.078835">
        <ele>2179.614</ele>
        <time>2021-06-18T19:41:17Z</time>
      </trkpt>
      <trkpt lat="42.538151" lon="1.078885">
        <ele>2179.808</ele>
        <time>2021-06-18T19:41:20Z</time>
      </trkpt>
      <trkpt lat="42.538155" lon="1.078933">
        <ele>2180.574</ele>
        <time>2021-06-18T19:41:23Z</time>
      </trkpt>
      <trkpt lat="42.538168" lon="1.079033">
        <ele>2181.733</ele>
        <time>2021-06-18T19:41:29Z</time>
      </trkpt>
      <trkpt lat="42.538171" lon="1.079050">
        <ele>2181.979</ele>
        <time>2021-06-18T19:41:30Z</time>
      </trkpt>
      <trkpt lat="42.538186" lon="1.079171">
        <ele>2183.513</ele>
        <time>2021-06-18T19:41:37Z</time>
      </trkpt>
      <trkpt lat="42.538188" lon="1.079188">
        <ele>2183.937</ele>
        <time>2021-06-18T19:41:38Z</time>
      </trkpt>
      <trkpt lat="42.538209" lon="1.079290">
        <ele>2185.427</ele>
        <time>2021-06-18T19:41:44Z</time>
      </trkpt>
      <trkpt lat="42.538228" lon="1.079356">
        <ele>2186.180</ele>
        <time>2021-06-18T19:41:48Z</time>
      </trkpt>
      <trkpt lat="42.538242" lon="1.079425">
        <ele>2187.137</ele>
        <time>2021-06-18T19:41:52Z</time>
      </trkpt>
      <trkpt lat="42.538255" lon="1.079494">
        <ele>2187.735</ele>
        <time>2021-06-18T19:41:56Z</time>
      </trkpt>
      <trkpt lat="42.538257" lon="1.079512">
        <ele>2187.986</ele>
        <time>2021-06-18T19:41:57Z</time>
      </trkpt>
      <trkpt lat="42.538268" lon="1.079611">
        <ele>2188.814</ele>
        <time>2021-06-18T19:42:03Z</time>
      </trkpt>
      <trkpt lat="42.538279" lon="1.079643">
        <ele>2188.708</ele>
        <time>2021-06-18T19:42:05Z</time>
      </trkpt>
      <trkpt lat="42.538283" lon="1.079710">
        <ele>2189.520</ele>
        <time>2021-06-18T19:42:09Z</time>
      </trkpt>
      <trkpt lat="42.538277" lon="1.079777">
        <ele>2190.239</ele>
        <time>2021-06-18T19:42:13Z</time>
      </trkpt>
      <trkpt lat="42.538272" lon="1.079810">
        <ele>2190.555</ele>
        <time>2021-06-18T19:42:15Z</time>
      </trkpt>
      <trkpt lat="42.538261" lon="1.079895">
        <ele>2191.259</ele>
        <time>2021-06-18T19:42:20Z</time>
      </trkpt>
      <trkpt lat="42.538259" lon="1.079910">
        <ele>2191.313</ele>
        <time>2021-06-18T19:42:21Z</time>
      </trkpt>
      <trkpt lat="42.538258" lon="1.079917">
        <ele>2191.443</ele>
        <time>2021-06-18T19:42:23Z</time>
      </trkpt>
      <trkpt lat="42.538242" lon="1.079969">
        <ele>2192.276</ele>
        <time>2021-06-18T19:43:01Z</time>
      </trkpt>
      <trkpt lat="42.538237" lon="1.079986">
        <ele>2192.563</ele>
        <time>2021-06-18T19:43:02Z</time>
      </trkpt>
      <trkpt lat="42.538198" lon="1.080100">
        <ele>2195.152</ele>
        <time>2021-06-18T19:43:09Z</time>
      </trkpt>
      <trkpt lat="42.538188" lon="1.080149">
        <ele>2195.953</ele>
        <time>2021-06-18T19:43:12Z</time>
      </trkpt>
      <trkpt lat="42.538182" lon="1.080201">
        <ele>2196.508</ele>
        <time>2021-06-18T19:43:15Z</time>
      </trkpt>
      <trkpt lat="42.538174" lon="1.080217">
        <ele>2197.008</ele>
        <time>2021-06-18T19:43:16Z</time>
      </trkpt>
      <trkpt lat="42.538184" lon="1.080304">
        <ele>2197.642</ele>
        <time>2021-06-18T19:43:21Z</time>
      </trkpt>
      <trkpt lat="42.538194" lon="1.080387">
        <ele>2198.911</ele>
        <time>2021-06-18T19:43:26Z</time>
      </trkpt>
      <trkpt lat="42.538199" lon="1.080404">
        <ele>2199.087</ele>
        <time>2021-06-18T19:43:27Z</time>
      </trkpt>
      <trkpt lat="42.538228" lon="1.080506">
        <ele>2199.941</ele>
        <time>2021-06-18T19:43:33Z</time>
      </trkpt>
      <trkpt lat="42.538245" lon="1.080555">
        <ele>2200.155</ele>
        <time>2021-06-18T19:43:36Z</time>
      </trkpt>
      <trkpt lat="42.538272" lon="1.080600">
        <ele>2200.435</ele>
        <time>2021-06-18T19:43:39Z</time>
      </trkpt>
      <trkpt lat="42.538292" lon="1.080666">
        <ele>2201.628</ele>
        <time>2021-06-18T19:43:43Z</time>
      </trkpt>
      <trkpt lat="42.538344" lon="1.080754">
        <ele>2201.985</ele>
        <time>2021-06-18T19:43:49Z</time>
      </trkpt>
      <trkpt lat="42.538353" lon="1.080769">
        <ele>2202.028</ele>
        <time>2021-06-18T19:43:50Z</time>
      </trkpt>
      <trkpt lat="42.538409" lon="1.080865">
        <ele>2202.789</ele>
        <time>2021-06-18T19:43:56Z</time>
      </trkpt>
      <trkpt lat="42.538436" lon="1.080915">
        <ele>2203.417</ele>
        <time>2021-06-18T19:43:59Z</time>
      </trkpt>
      <trkpt lat="42.538478" lon="1.080972">
        <ele>2203.708</ele>
        <time>2021-06-18T19:44:03Z</time>
      </trkpt>
      <trkpt lat="42.538506" lon="1.081014">
        <ele>2204.129</ele>
        <time>2021-06-18T19:44:06Z</time>
      </trkpt>
      <trkpt lat="42.538539" lon="1.081085">
        <ele>2205.388</ele>
        <time>2021-06-18T19:44:10Z</time>
      </trkpt>
      <trkpt lat="42.538568" lon="1.081180">
        <ele>2206.554</ele>
        <time>2021-06-18T19:44:15Z</time>
      </trkpt>
      <trkpt lat="42.538590" lon="1.081256">
        <ele>2207.118</ele>
        <time>2021-06-18T19:44:19Z</time>
      </trkpt>
      <trkpt lat="42.538616" lon="1.081364">
        <ele>2208.242</ele>
        <time>2021-06-18T19:44:25Z</time>
      </trkpt>
      <trkpt lat="42.538625" lon="1.081400">
        <ele>2208.672</ele>
        <time>2021-06-18T19:44:27Z</time>
      </trkpt>
      <trkpt lat="42.538643" lon="1.081490">
        <ele>2209.755</ele>
        <time>2021-06-18T19:44:32Z</time>
      </trkpt>
      <trkpt lat="42.538655" lon="1.081527">
        <ele>2209.912</ele>
        <time>2021-06-18T19:44:34Z</time>
      </trkpt>
      <trkpt lat="42.538687" lon="1.081644">
        <ele>2210.771</ele>
        <time>2021-06-18T19:44:40Z</time>
      </trkpt>
      <trkpt lat="42.538692" lon="1.081662">
        <ele>2210.841</ele>
        <time>2021-06-18T19:44:41Z</time>
      </trkpt>
      <trkpt lat="42.538727" lon="1.081771">
        <ele>2211.215</ele>
        <time>2021-06-18T19:44:47Z</time>
      </trkpt>
      <trkpt lat="42.538732" lon="1.081791">
        <ele>2211.308</ele>
        <time>2021-06-18T19:44:48Z</time>
      </trkpt>
      <trkpt lat="42.538767" lon="1.081943">
        <ele>2212.724</ele>
        <time>2021-06-18T19:44:55Z</time>
      </trkpt>
      <trkpt lat="42.538783" lon="1.082013">
        <ele>2213.263</ele>
        <time>2021-06-18T19:44:58Z</time>
      </trkpt>
      <trkpt lat="42.538820" lon="1.082166">
        <ele>2214.219</ele>
        <time>2021-06-18T19:45:05Z</time>
      </trkpt>
      <trkpt lat="42.538830" lon="1.082211">
        <ele>2214.663</ele>
        <time>2021-06-18T19:45:07Z</time>
      </trkpt>
      <trkpt lat="42.538872" lon="1.082359">
        <ele>2215.387</ele>
        <time>2021-06-18T19:45:14Z</time>
      </trkpt>
      <trkpt lat="42.538882" lon="1.082407">
        <ele>2215.667</ele>
        <time>2021-06-18T19:45:16Z</time>
      </trkpt>
      <trkpt lat="42.538920" lon="1.082555">
        <ele>2216.360</ele>
        <time>2021-06-18T19:45:23Z</time>
      </trkpt>
      <trkpt lat="42.538928" lon="1.082575">
        <ele>2216.227</ele>
        <time>2021-06-18T19:45:24Z</time>
      </trkpt>
      <trkpt lat="42.538994" lon="1.082759">
        <ele>2217.288</ele>
        <time>2021-06-18T19:45:33Z</time>
      </trkpt>
      <trkpt lat="42.539064" lon="1.082885">
        <ele>2217.124</ele>
        <time>2021-06-18T19:45:40Z</time>
      </trkpt>
      <trkpt lat="42.539076" lon="1.082902">
        <ele>2217.026</ele>
        <time>2021-06-18T19:45:41Z</time>
      </trkpt>
      <trkpt lat="42.539125" lon="1.083045">
        <ele>2218.708</ele>
        <time>2021-06-18T19:45:48Z</time>
      </trkpt>
      <trkpt lat="42.539130" lon="1.083118">
        <ele>2219.295</ele>
        <time>2021-06-18T19:45:51Z</time>
      </trkpt>
      <trkpt lat="42.539132" lon="1.083269">
        <ele>2220.274</ele>
        <time>2021-06-18T19:45:57Z</time>
      </trkpt>
      <trkpt lat="42.539152" lon="1.083394">
        <ele>2220.330</ele>
        <time>2021-06-18T19:46:02Z</time>
      </trkpt>
      <trkpt lat="42.539176" lon="1.083525">
        <ele>2220.644</ele>
        <time>2021-06-18T19:46:07Z</time>
      </trkpt>
      <trkpt lat="42.539205" lon="1.083636">
        <ele>2220.738</ele>
        <time>2021-06-18T19:46:11Z</time>
      </trkpt>
      <trkpt lat="42.539260" lon="1.083825">
        <ele>2221.368</ele>
        <time>2021-06-18T19:46:18Z</time>
      </trkpt>
      <trkpt lat="42.539324" lon="1.084019">
        <ele>2222.451</ele>
        <time>2021-06-18T19:46:26Z</time>
      </trkpt>
      <trkpt lat="42.539344" lon="1.084092">
        <ele>2223.128</ele>
        <time>2021-06-18T19:46:29Z</time>
      </trkpt>
      <trkpt lat="42.539373" lon="1.084167">
        <ele>2223.699</ele>
        <time>2021-06-18T19:46:32Z</time>
      </trkpt>
      <trkpt lat="42.539422" lon="1.084262">
        <ele>2223.607</ele>
        <time>2021-06-18T19:46:36Z</time>
      </trkpt>
      <trkpt lat="42.539439" lon="1.084317">
        <ele>2223.927</ele>
        <time>2021-06-18T19:46:38Z</time>
      </trkpt>
      <trkpt lat="42.539500" lon="1.084496">
        <ele>2224.808</ele>
        <time>2021-06-18T19:46:45Z</time>
      </trkpt>
      <trkpt lat="42.539521" lon="1.084539">
        <ele>2224.896</ele>
        <time>2021-06-18T19:46:47Z</time>
      </trkpt>
      <trkpt lat="42.539576" lon="1.084664">
        <ele>2225.125</ele>
        <time>2021-06-18T19:46:53Z</time>
      </trkpt>
      <trkpt lat="42.539594" lon="1.084702">
        <ele>2225.221</ele>
        <time>2021-06-18T19:46:55Z</time>
      </trkpt>
      <trkpt lat="42.539615" lon="1.084737">
        <ele>2225.185</ele>
        <time>2021-06-18T19:46:57Z</time>
      </trkpt>
      <trkpt lat="42.539638" lon="1.084801">
        <ele>2225.419</ele>
        <time>2021-06-18T19:47:00Z</time>
      </trkpt>
      <trkpt lat="42.539653" lon="1.084849">
        <ele>2225.779</ele>
        <time>2021-06-18T19:47:02Z</time>
      </trkpt>
      <trkpt lat="42.539688" lon="1.084990">
        <ele>2226.962</ele>
        <time>2021-06-18T19:47:08Z</time>
      </trkpt>
      <trkpt lat="42.539708" lon="1.085087">
        <ele>2226.789</ele>
        <time>2021-06-18T19:47:12Z</time>
      </trkpt>
      <trkpt lat="42.539710" lon="1.085168">
        <ele>2226.929</ele>
        <time>2021-06-18T19:47:15Z</time>
      </trkpt>
      <trkpt lat="42.539676" lon="1.085382">
        <ele>2228.400</ele>
        <time>2021-06-18T19:47:24Z</time>
      </trkpt>
      <trkpt lat="42.539659" lon="1.085441">
        <ele>2228.820</ele>
        <time>2021-06-18T19:47:27Z</time>
      </trkpt>
      <trkpt lat="42.539622" lon="1.085538">
        <ele>2229.408</ele>
        <time>2021-06-18T19:47:32Z</time>
      </trkpt>
      <trkpt lat="42.539617" lon="1.085556">
        <ele>2229.579</ele>
        <time>2021-06-18T19:47:33Z</time>
      </trkpt>
      <trkpt lat="42.539603" lon="1.085638">
        <ele>2229.898</ele>
        <time>2021-06-18T19:47:38Z</time>
      </trkpt>
      <trkpt lat="42.539605" lon="1.085642">
        <ele>2229.894</ele>
        <time>2021-06-18T19:47:40Z</time>
      </trkpt>
      <trkpt lat="42.539582" lon="1.085588">
        <ele>2230.088</ele>
        <time>2021-06-18T19:52:44Z</time>
      </trkpt>
      <trkpt lat="42.539537" lon="1.085619">
        <ele>2230.552</ele>
        <time>2021-06-18T19:52:47Z</time>
      </trkpt>
      <trkpt lat="42.539491" lon="1.085669">
        <ele>2230.892</ele>
        <time>2021-06-18T19:52:52Z</time>
      </trkpt>
      <trkpt lat="42.539462" lon="1.085678">
        <ele>2231.095</ele>
        <time>2021-06-18T19:53:01Z</time>
      </trkpt>
      <trkpt lat="42.539419" lon="1.085704">
        <ele>2230.682</ele>
        <time>2021-06-18T19:53:03Z</time>
      </trkpt>
      <trkpt lat="42.539287" lon="1.085730">
        <ele>2228.425</ele>
        <time>2021-06-18T19:53:07Z</time>
      </trkpt>
      <trkpt lat="42.539239" lon="1.085734">
        <ele>2227.626</ele>
        <time>2021-06-18T19:53:08Z</time>
      </trkpt>
      <trkpt lat="42.539142" lon="1.085722">
        <ele>2226.208</ele>
        <time>2021-06-18T19:53:10Z</time>
      </trkpt>
      <trkpt lat="42.539095" lon="1.085711">
        <ele>2225.408</ele>
        <time>2021-06-18T19:53:11Z</time>
      </trkpt>
      <trkpt lat="42.539045" lon="1.085701">
        <ele>2224.559</ele>
        <time>2021-06-18T19:53:12Z</time>
      </trkpt>
      <trkpt lat="42.538994" lon="1.085696">
        <ele>2223.468</ele>
        <time>2021-06-18T19:53:13Z</time>
      </trkpt>
      <trkpt lat="42.538945" lon="1.085690">
        <ele>2222.484</ele>
        <time>2021-06-18T19:53:14Z</time>
      </trkpt>
      <trkpt lat="42.538899" lon="1.085680">
        <ele>2221.768</ele>
        <time>2021-06-18T19:53:15Z</time>
      </trkpt>
      <trkpt lat="42.538852" lon="1.085663">
        <ele>2220.732</ele>
        <time>2021-06-18T19:53:16Z</time>
      </trkpt>
      <trkpt lat="42.538804" lon="1.085640">
        <ele>2219.842</ele>
        <time>2021-06-18T19:53:17Z</time>
      </trkpt>
      <trkpt lat="42.538757" lon="1.085608">
        <ele>2219.225</ele>
        <time>2021-06-18T19:53:18Z</time>
      </trkpt>
      <trkpt lat="42.538711" lon="1.085564">
        <ele>2219.072</ele>
        <time>2021-06-18T19:53:19Z</time>
      </trkpt>
      <trkpt lat="42.538612" lon="1.085479">
        <ele>2218.835</ele>
        <time>2021-06-18T19:53:21Z</time>
      </trkpt>
      <trkpt lat="42.538496" lon="1.085407">
        <ele>2217.486</ele>
        <time>2021-06-18T19:53:23Z</time>
      </trkpt>
      <trkpt lat="42.538365" lon="1.085360">
        <ele>2214.114</ele>
        <time>2021-06-18T19:53:25Z</time>
      </trkpt>
      <trkpt lat="42.538299" lon="1.085339">
        <ele>2212.608</ele>
        <time>2021-06-18T19:53:26Z</time>
      </trkpt>
      <trkpt lat="42.538169" lon="1.085288">
        <ele>2210.690</ele>
        <time>2021-06-18T19:53:28Z</time>
      </trkpt>
      <trkpt lat="42.538109" lon="1.085260">
        <ele>2209.939</ele>
        <time>2021-06-18T19:53:29Z</time>
      </trkpt>
      <trkpt lat="42.538050" lon="1.085230">
        <ele>2209.375</ele>
        <time>2021-06-18T19:53:30Z</time>
      </trkpt>
      <trkpt lat="42.537991" lon="1.085205">
        <ele>2208.849</ele>
        <time>2021-06-18T19:53:31Z</time>
      </trkpt>
      <trkpt lat="42.537928" lon="1.085190">
        <ele>2208.183</ele>
        <time>2021-06-18T19:53:32Z</time>
      </trkpt>
      <trkpt lat="42.537864" lon="1.085178">
        <ele>2207.263</ele>
        <time>2021-06-18T19:53:33Z</time>
      </trkpt>
      <trkpt lat="42.537799" lon="1.085170">
        <ele>2206.376</ele>
        <time>2021-06-18T19:53:34Z</time>
      </trkpt>
      <trkpt lat="42.537734" lon="1.085167">
        <ele>2205.183</ele>
        <time>2021-06-18T19:53:35Z</time>
      </trkpt>
      <trkpt lat="42.537667" lon="1.085162">
        <ele>2204.094</ele>
        <time>2021-06-18T19:53:36Z</time>
      </trkpt>
      <trkpt lat="42.537600" lon="1.085154">
        <ele>2203.057</ele>
        <time>2021-06-18T19:53:37Z</time>
      </trkpt>
      <trkpt lat="42.537405" lon="1.085107">
        <ele>2199.822</ele>
        <time>2021-06-18T19:53:40Z</time>
      </trkpt>
      <trkpt lat="42.537346" lon="1.085082">
        <ele>2198.908</ele>
        <time>2021-06-18T19:53:41Z</time>
      </trkpt>
      <trkpt lat="42.537292" lon="1.085054">
        <ele>2198.396</ele>
        <time>2021-06-18T19:53:42Z</time>
      </trkpt>
      <trkpt lat="42.537242" lon="1.085025">
        <ele>2197.855</ele>
        <time>2021-06-18T19:53:43Z</time>
      </trkpt>
      <trkpt lat="42.537194" lon="1.084992">
        <ele>2197.461</ele>
        <time>2021-06-18T19:53:44Z</time>
      </trkpt>
      <trkpt lat="42.537145" lon="1.084956">
        <ele>2197.235</ele>
        <time>2021-06-18T19:53:45Z</time>
      </trkpt>
      <trkpt lat="42.537031" lon="1.084890">
        <ele>2195.729</ele>
        <time>2021-06-18T19:53:47Z</time>
      </trkpt>
      <trkpt lat="42.536832" lon="1.084804">
        <ele>2192.889</ele>
        <time>2021-06-18T19:53:50Z</time>
      </trkpt>
      <trkpt lat="42.536759" lon="1.084782">
        <ele>2191.612</ele>
        <time>2021-06-18T19:53:51Z</time>
      </trkpt>
      <trkpt lat="42.536683" lon="1.084765">
        <ele>2190.139</ele>
        <time>2021-06-18T19:53:52Z</time>
      </trkpt>
      <trkpt lat="42.536524" lon="1.084741">
        <ele>2188.996</ele>
        <time>2021-06-18T19:53:54Z</time>
      </trkpt>
      <trkpt lat="42.536362" lon="1.084732">
        <ele>2187.431</ele>
        <time>2021-06-18T19:53:56Z</time>
      </trkpt>
      <trkpt lat="42.536201" lon="1.084724">
        <ele>2185.924</ele>
        <time>2021-06-18T19:53:58Z</time>
      </trkpt>
      <trkpt lat="42.536121" lon="1.084719">
        <ele>2185.208</ele>
        <time>2021-06-18T19:53:59Z</time>
      </trkpt>
      <trkpt lat="42.536039" lon="1.084721">
        <ele>2185.056</ele>
        <time>2021-06-18T19:54:00Z</time>
      </trkpt>
      <trkpt lat="42.535958" lon="1.084733">
        <ele>2184.735</ele>
        <time>2021-06-18T19:54:01Z</time>
      </trkpt>
      <trkpt lat="42.535878" lon="1.084748">
        <ele>2184.381</ele>
        <time>2021-06-18T19:54:02Z</time>
      </trkpt>
      <trkpt lat="42.535801" lon="1.084762">
        <ele>2183.735</ele>
        <time>2021-06-18T19:54:03Z</time>
      </trkpt>
      <trkpt lat="42.535730" lon="1.084772">
        <ele>2183.279</ele>
        <time>2021-06-18T19:54:04Z</time>
      </trkpt>
      <trkpt lat="42.535518" lon="1.084787">
        <ele>2182.099</ele>
        <time>2021-06-18T19:54:07Z</time>
      </trkpt>
      <trkpt lat="42.535446" lon="1.084798">
        <ele>2181.532</ele>
        <time>2021-06-18T19:54:08Z</time>
      </trkpt>
      <trkpt lat="42.535372" lon="1.084810">
        <ele>2181.059</ele>
        <time>2021-06-18T19:54:09Z</time>
      </trkpt>
      <trkpt lat="42.535066" lon="1.084841">
        <ele>2179.457</ele>
        <time>2021-06-18T19:54:13Z</time>
      </trkpt>
      <trkpt lat="42.534911" lon="1.084827">
        <ele>2178.800</ele>
        <time>2021-06-18T19:54:15Z</time>
      </trkpt>
      <trkpt lat="42.534751" lon="1.084813">
        <ele>2177.720</ele>
        <time>2021-06-18T19:54:17Z</time>
      </trkpt>
      <trkpt lat="42.534669" lon="1.084816">
        <ele>2177.408</ele>
        <time>2021-06-18T19:54:18Z</time>
      </trkpt>
      <trkpt lat="42.534588" lon="1.084828">
        <ele>2177.192</ele>
        <time>2021-06-18T19:54:19Z</time>
      </trkpt>
      <trkpt lat="42.534508" lon="1.084844">
        <ele>2176.691</ele>
        <time>2021-06-18T19:54:20Z</time>
      </trkpt>
      <trkpt lat="42.534357" lon="1.084886">
        <ele>2175.227</ele>
        <time>2021-06-18T19:54:22Z</time>
      </trkpt>
      <trkpt lat="42.534135" lon="1.084935">
        <ele>2173.681</ele>
        <time>2021-06-18T19:54:25Z</time>
      </trkpt>
      <trkpt lat="42.533994" lon="1.084950">
        <ele>2173.355</ele>
        <time>2021-06-18T19:54:27Z</time>
      </trkpt>
      <trkpt lat="42.533742" lon="1.084951">
        <ele>2172.725</ele>
        <time>2021-06-18T19:54:31Z</time>
      </trkpt>
      <trkpt lat="42.533687" lon="1.084942">
        <ele>2172.668</ele>
        <time>2021-06-18T19:54:32Z</time>
      </trkpt>
      <trkpt lat="42.533553" lon="1.084860">
        <ele>2173.115</ele>
        <time>2021-06-18T19:54:35Z</time>
      </trkpt>
      <trkpt lat="42.533456" lon="1.084714">
        <ele>2173.222</ele>
        <time>2021-06-18T19:54:39Z</time>
      </trkpt>
      <trkpt lat="42.533421" lon="1.084611">
        <ele>2173.462</ele>
        <time>2021-06-18T19:54:42Z</time>
      </trkpt>
      <trkpt lat="42.533375" lon="1.084463">
        <ele>2173.808</ele>
        <time>2021-06-18T19:54:46Z</time>
      </trkpt>
      <trkpt lat="42.533359" lon="1.084392">
        <ele>2173.708</ele>
        <time>2021-06-18T19:54:48Z</time>
      </trkpt>
      <trkpt lat="42.533355" lon="1.084243">
        <ele>2173.749</ele>
        <time>2021-06-18T19:54:52Z</time>
      </trkpt>
      <trkpt lat="42.533356" lon="1.084203">
        <ele>2173.758</ele>
        <time>2021-06-18T19:54:53Z</time>
      </trkpt>
      <trkpt lat="42.533328" lon="1.083892">
        <ele>2172.814</ele>
        <time>2021-06-18T19:55:00Z</time>
      </trkpt>
      <trkpt lat="42.533326" lon="1.083811">
        <ele>2173.318</ele>
        <time>2021-06-18T19:55:03Z</time>
      </trkpt>
      <trkpt lat="42.533337" lon="1.083796">
        <ele>2173.852</ele>
        <time>2021-06-18T19:55:04Z</time>
      </trkpt>
      <trkpt lat="42.533344" lon="1.083787">
        <ele>2174.142</ele>
        <time>2021-06-18T19:55:07Z</time>
      </trkpt>
      <trkpt lat="42.533473" lon="1.083872">
        <ele>2178.245</ele>
        <time>2021-06-19T06:58:26Z</time>
      </trkpt>
      <trkpt lat="42.533474" lon="1.083871">
        <ele>2178.222</ele>
        <time>2021-06-19T06:58:27Z</time>
      </trkpt>
      <trkpt lat="42.533359" lon="1.083772">
        <ele>2174.825</ele>
        <time>2021-06-19T07:24:28Z</time>
      </trkpt>
      <trkpt lat="42.533334" lon="1.083713">
        <ele>2174.326</ele>
        <time>2021-06-19T07:24:30Z</time>
      </trkpt>
      <trkpt lat="42.533283" lon="1.083524">
        <ele>2173.808</ele>
        <time>2021-06-19T07:24:35Z</time>
      </trkpt>
      <trkpt lat="42.533272" lon="1.083485">
        <ele>2173.708</ele>
        <time>2021-06-19T07:24:36Z</time>
      </trkpt>
      <trkpt lat="42.533259" lon="1.083444">
        <ele>2173.579</ele>
        <time>2021-06-19T07:24:37Z</time>
      </trkpt>
      <trkpt lat="42.533205" lon="1.083280">
        <ele>2173.048</ele>
        <time>2021-06-19T07:24:41Z</time>
      </trkpt>
      <trkpt lat="42.533085" lon="1.083008">
        <ele>2171.914</ele>
        <time>2021-06-19T07:24:47Z</time>
      </trkpt>
      <trkpt lat="42.532922" lon="1.082731">
        <ele>2171.378</ele>
        <time>2021-06-19T07:24:53Z</time>
      </trkpt>
      <trkpt lat="42.532899" lon="1.082683">
        <ele>2171.372</ele>
        <time>2021-06-19T07:24:54Z</time>
      </trkpt>
      <trkpt lat="42.532706" lon="1.082351">
        <ele>2170.692</ele>
        <time>2021-06-19T07:25:01Z</time>
      </trkpt>
      <trkpt lat="42.532442" lon="1.081905">
        <ele>2170.815</ele>
        <time>2021-06-19T07:25:09Z</time>
      </trkpt>
      <trkpt lat="42.532333" lon="1.081732">
        <ele>2170.452</ele>
        <time>2021-06-19T07:25:12Z</time>
      </trkpt>
      <trkpt lat="42.532145" lon="1.081448">
        <ele>2170.531</ele>
        <time>2021-06-19T07:25:17Z</time>
      </trkpt>
      <trkpt lat="42.531925" lon="1.081127">
        <ele>2170.261</ele>
        <time>2021-06-19T07:25:23Z</time>
      </trkpt>
      <trkpt lat="42.531900" lon="1.081067">
        <ele>2170.707</ele>
        <time>2021-06-19T07:25:24Z</time>
      </trkpt>
      <trkpt lat="42.531766" lon="1.080865">
        <ele>2171.208</ele>
        <time>2021-06-19T07:25:28Z</time>
      </trkpt>
      <trkpt lat="42.531701" lon="1.080762">
        <ele>2171.040</ele>
        <time>2021-06-19T07:25:30Z</time>
      </trkpt>
      <trkpt lat="42.531611" lon="1.080511">
        <ele>2171.189</ele>
        <time>2021-06-19T07:25:34Z</time>
      </trkpt>
      <trkpt lat="42.531603" lon="1.080308">
        <ele>2171.445</ele>
        <time>2021-06-19T07:25:37Z</time>
      </trkpt>
      <trkpt lat="42.531607" lon="1.080256">
        <ele>2171.419</ele>
        <time>2021-06-19T07:25:38Z</time>
      </trkpt>
      <trkpt lat="42.531627" lon="1.080164">
        <ele>2171.293</ele>
        <time>2021-06-19T07:25:42Z</time>
      </trkpt>
      <trkpt lat="42.531630" lon="1.080162">
        <ele>2171.343</ele>
        <time>2021-06-19T07:25:43Z</time>
      </trkpt>
      <trkpt lat="42.531643" lon="1.080135">
        <ele>2171.566</ele>
        <time>2021-06-19T07:25:45Z</time>
      </trkpt>
      <trkpt lat="42.531649" lon="1.080106">
        <ele>2171.443</ele>
        <time>2021-06-19T07:25:46Z</time>
      </trkpt>
      <trkpt lat="42.531659" lon="1.080071">
        <ele>2171.532</ele>
        <time>2021-06-19T07:25:47Z</time>
      </trkpt>
      <trkpt lat="42.531725" lon="1.079897">
        <ele>2172.592</ele>
        <time>2021-06-19T07:25:51Z</time>
      </trkpt>
      <trkpt lat="42.531795" lon="1.079564">
        <ele>2172.411</ele>
        <time>2021-06-19T07:25:56Z</time>
      </trkpt>
      <trkpt lat="42.531847" lon="1.079216">
        <ele>2171.908</ele>
        <time>2021-06-19T07:26:01Z</time>
      </trkpt>
      <trkpt lat="42.531851" lon="1.079150">
        <ele>2171.580</ele>
        <time>2021-06-19T07:26:02Z</time>
      </trkpt>
      <trkpt lat="42.531874" lon="1.078948">
        <ele>2171.169</ele>
        <time>2021-06-19T07:26:05Z</time>
      </trkpt>
      <trkpt lat="42.531915" lon="1.078560">
        <ele>2171.475</ele>
        <time>2021-06-19T07:26:11Z</time>
      </trkpt>
      <trkpt lat="42.531928" lon="1.078357">
        <ele>2171.339</ele>
        <time>2021-06-19T07:26:14Z</time>
      </trkpt>
      <trkpt lat="42.531933" lon="1.078139">
        <ele>2170.883</ele>
        <time>2021-06-19T07:26:17Z</time>
      </trkpt>
      <trkpt lat="42.531949" lon="1.077849">
        <ele>2170.523</ele>
        <time>2021-06-19T07:26:21Z</time>
      </trkpt>
      <trkpt lat="42.531973" lon="1.077629">
        <ele>2172.676</ele>
        <time>2021-06-19T07:26:24Z</time>
      </trkpt>
      <trkpt lat="42.531961" lon="1.077556">
        <ele>2172.453</ele>
        <time>2021-06-19T07:26:25Z</time>
      </trkpt>
      <trkpt lat="42.531916" lon="1.077424">
        <ele>2171.567</ele>
        <time>2021-06-19T07:26:27Z</time>
      </trkpt>
      <trkpt lat="42.531879" lon="1.077296">
        <ele>2171.081</ele>
        <time>2021-06-19T07:26:29Z</time>
      </trkpt>
      <trkpt lat="42.531835" lon="1.077092">
        <ele>2170.919</ele>
        <time>2021-06-19T07:26:32Z</time>
      </trkpt>
      <trkpt lat="42.531679" lon="1.076406">
        <ele>2171.508</ele>
        <time>2021-06-19T07:26:42Z</time>
      </trkpt>
      <trkpt lat="42.531551" lon="1.075944">
        <ele>2173.443</ele>
        <time>2021-06-19T07:26:49Z</time>
      </trkpt>
      <trkpt lat="42.531391" lon="1.075520">
        <ele>2174.072</ele>
        <time>2021-06-19T07:26:56Z</time>
      </trkpt>
      <trkpt lat="42.531222" lon="1.075163">
        <ele>2174.348</ele>
        <time>2021-06-19T07:27:03Z</time>
      </trkpt>
      <trkpt lat="42.531199" lon="1.075114">
        <ele>2174.422</ele>
        <time>2021-06-19T07:27:04Z</time>
      </trkpt>
      <trkpt lat="42.531065" lon="1.074846">
        <ele>2174.726</ele>
        <time>2021-06-19T07:27:10Z</time>
      </trkpt>
      <trkpt lat="42.531020" lon="1.074757">
        <ele>2174.936</ele>
        <time>2021-06-19T07:27:12Z</time>
      </trkpt>
      <trkpt lat="42.530956" lon="1.074609">
        <ele>2174.729</ele>
        <time>2021-06-19T07:27:15Z</time>
      </trkpt>
      <trkpt lat="42.530876" lon="1.074380">
        <ele>2174.376</ele>
        <time>2021-06-19T07:27:19Z</time>
      </trkpt>
      <trkpt lat="42.530863" lon="1.074315">
        <ele>2174.597</ele>
        <time>2021-06-19T07:27:20Z</time>
      </trkpt>
      <trkpt lat="42.530806" lon="1.073854">
        <ele>2174.923</ele>
        <time>2021-06-19T07:27:27Z</time>
      </trkpt>
      <trkpt lat="42.530792" lon="1.073786">
        <ele>2175.225</ele>
        <time>2021-06-19T07:27:28Z</time>
      </trkpt>
      <trkpt lat="42.530675" lon="1.073419">
        <ele>2174.808</ele>
        <time>2021-06-19T07:27:34Z</time>
      </trkpt>
      <trkpt lat="42.530663" lon="1.073354">
        <ele>2175.226</ele>
        <time>2021-06-19T07:27:35Z</time>
      </trkpt>
      <trkpt lat="42.530588" lon="1.072971">
        <ele>2175.645</ele>
        <time>2021-06-19T07:27:41Z</time>
      </trkpt>
      <trkpt lat="42.530508" lon="1.072640">
        <ele>2175.791</ele>
        <time>2021-06-19T07:27:47Z</time>
      </trkpt>
      <trkpt lat="42.530488" lon="1.072534">
        <ele>2175.785</ele>
        <time>2021-06-19T07:27:49Z</time>
      </trkpt>
      <trkpt lat="42.530459" lon="1.072333">
        <ele>2175.859</ele>
        <time>2021-06-19T07:27:53Z</time>
      </trkpt>
      <trkpt lat="42.530454" lon="1.072184">
        <ele>2176.619</ele>
        <time>2021-06-19T07:27:56Z</time>
      </trkpt>
      <trkpt lat="42.530448" lon="1.071985">
        <ele>2177.062</ele>
        <time>2021-06-19T07:28:00Z</time>
      </trkpt>
      <trkpt lat="42.530372" lon="1.071708">
        <ele>2179.339</ele>
        <time>2021-06-19T07:28:06Z</time>
      </trkpt>
      <trkpt lat="42.530255" lon="1.071636">
        <ele>2177.665</ele>
        <time>2021-06-19T07:28:09Z</time>
      </trkpt>
      <trkpt lat="42.530150" lon="1.071713">
        <ele>2177.768</ele>
        <time>2021-06-19T07:28:12Z</time>
      </trkpt>
      <trkpt lat="42.529903" lon="1.071931">
        <ele>2175.714</ele>
        <time>2021-06-19T07:28:20Z</time>
      </trkpt>
      <trkpt lat="42.529839" lon="1.071974">
        <ele>2176.108</ele>
        <time>2021-06-19T07:28:22Z</time>
      </trkpt>
      <trkpt lat="42.529669" lon="1.072086">
        <ele>2176.543</ele>
        <time>2021-06-19T07:28:27Z</time>
      </trkpt>
      <trkpt lat="42.529312" lon="1.072289">
        <ele>2176.882</ele>
        <time>2021-06-19T07:28:37Z</time>
      </trkpt>
      <trkpt lat="42.529276" lon="1.072309">
        <ele>2176.988</ele>
        <time>2021-06-19T07:28:38Z</time>
      </trkpt>
      <trkpt lat="42.529037" lon="1.072454">
        <ele>2177.182</ele>
        <time>2021-06-19T07:28:45Z</time>
      </trkpt>
      <trkpt lat="42.528852" lon="1.072567">
        <ele>2177.166</ele>
        <time>2021-06-19T07:28:51Z</time>
      </trkpt>
      <trkpt lat="42.528628" lon="1.072699">
        <ele>2177.776</ele>
        <time>2021-06-19T07:28:58Z</time>
      </trkpt>
      <trkpt lat="42.528511" lon="1.072773">
        <ele>2178.189</ele>
        <time>2021-06-19T07:29:02Z</time>
      </trkpt>
      <trkpt lat="42.528455" lon="1.072809">
        <ele>2178.346</ele>
        <time>2021-06-19T07:29:04Z</time>
      </trkpt>
      <trkpt lat="42.528298" lon="1.072918">
        <ele>2179.273</ele>
        <time>2021-06-19T07:29:10Z</time>
      </trkpt>
      <trkpt lat="42.528257" lon="1.072959">
        <ele>2179.285</ele>
        <time>2021-06-19T07:29:12Z</time>
      </trkpt>
      <trkpt lat="42.528162" lon="1.073029">
        <ele>2180.113</ele>
        <time>2021-06-19T07:29:16Z</time>
      </trkpt>
      <trkpt lat="42.528026" lon="1.073169">
        <ele>2181.008</ele>
        <time>2021-06-19T07:29:22Z</time>
      </trkpt>
      <trkpt lat="42.527964" lon="1.073234">
        <ele>2181.664</ele>
        <time>2021-06-19T07:29:25Z</time>
      </trkpt>
      <trkpt lat="42.527924" lon="1.073258">
        <ele>2182.513</ele>
        <time>2021-06-19T07:29:27Z</time>
      </trkpt>
      <trkpt lat="42.527880" lon="1.073298">
        <ele>2183.169</ele>
        <time>2021-06-19T07:29:30Z</time>
      </trkpt>
      <trkpt lat="42.527870" lon="1.073333">
        <ele>2182.413</ele>
        <time>2021-06-19T07:29:32Z</time>
      </trkpt>
      <trkpt lat="42.527868" lon="1.073344">
        <ele>2182.127</ele>
        <time>2021-06-19T07:29:33Z</time>
      </trkpt>
      <trkpt lat="42.527869" lon="1.073344">
        <ele>2182.117</ele>
        <time>2021-06-19T07:29:34Z</time>
      </trkpt>
      <trkpt lat="42.527852" lon="1.073363">
        <ele>2182.170</ele>
        <time>2021-06-19T07:31:18Z</time>
      </trkpt>
      <trkpt lat="42.527838" lon="1.073375">
        <ele>2182.347</ele>
        <time>2021-06-19T07:31:19Z</time>
      </trkpt>
      <trkpt lat="42.527733" lon="1.073502">
        <ele>2183.135</ele>
        <time>2021-06-19T07:31:24Z</time>
      </trkpt>
      <trkpt lat="42.527579" lon="1.073698">
        <ele>2184.386</ele>
        <time>2021-06-19T07:31:30Z</time>
      </trkpt>
      <trkpt lat="42.527427" lon="1.073898">
        <ele>2185.114</ele>
        <time>2021-06-19T07:31:36Z</time>
      </trkpt>
      <trkpt lat="42.527369" lon="1.073958">
        <ele>2185.008</ele>
        <time>2021-06-19T07:31:38Z</time>
      </trkpt>
      <trkpt lat="42.527220" lon="1.074076">
        <ele>2186.010</ele>
        <time>2021-06-19T07:31:43Z</time>
      </trkpt>
      <trkpt lat="42.527191" lon="1.074092">
        <ele>2186.129</ele>
        <time>2021-06-19T07:31:44Z</time>
      </trkpt>
      <trkpt lat="42.527130" lon="1.074121">
        <ele>2186.525</ele>
        <time>2021-06-19T07:31:46Z</time>
      </trkpt>
      <trkpt lat="42.526910" lon="1.074201">
        <ele>2188.139</ele>
        <time>2021-06-19T07:31:53Z</time>
      </trkpt>
      <trkpt lat="42.526880" lon="1.074208">
        <ele>2188.343</ele>
        <time>2021-06-19T07:31:54Z</time>
      </trkpt>
      <trkpt lat="42.526762" lon="1.074230">
        <ele>2189.183</ele>
        <time>2021-06-19T07:31:58Z</time>
      </trkpt>
      <trkpt lat="42.526676" lon="1.074255">
        <ele>2189.426</ele>
        <time>2021-06-19T07:32:01Z</time>
      </trkpt>
      <trkpt lat="42.526421" lon="1.074288">
        <ele>2190.813</ele>
        <time>2021-06-19T07:32:10Z</time>
      </trkpt>
      <trkpt lat="42.526393" lon="1.074291">
        <ele>2191.069</ele>
        <time>2021-06-19T07:32:11Z</time>
      </trkpt>
      <trkpt lat="42.526226" lon="1.074317">
        <ele>2191.504</ele>
        <time>2021-06-19T07:32:17Z</time>
      </trkpt>
      <trkpt lat="42.526140" lon="1.074318">
        <ele>2192.224</ele>
        <time>2021-06-19T07:32:20Z</time>
      </trkpt>
      <trkpt lat="42.525976" lon="1.074309">
        <ele>2193.308</ele>
        <time>2021-06-19T07:32:26Z</time>
      </trkpt>
      <trkpt lat="42.525921" lon="1.074314">
        <ele>2193.393</ele>
        <time>2021-06-19T07:32:28Z</time>
      </trkpt>
      <trkpt lat="42.525759" lon="1.074309">
        <ele>2194.332</ele>
        <time>2021-06-19T07:32:34Z</time>
      </trkpt>
      <trkpt lat="42.525524" lon="1.074314">
        <ele>2195.458</ele>
        <time>2021-06-19T07:32:43Z</time>
      </trkpt>
      <trkpt lat="42.525500" lon="1.074316">
        <ele>2195.552</ele>
        <time>2021-06-19T07:32:44Z</time>
      </trkpt>
      <trkpt lat="42.525402" lon="1.074320">
        <ele>2196.036</ele>
        <time>2021-06-19T07:32:48Z</time>
      </trkpt>
      <trkpt lat="42.525282" lon="1.074325">
        <ele>2196.716</ele>
        <time>2021-06-19T07:32:53Z</time>
      </trkpt>
      <trkpt lat="42.525212" lon="1.074338">
        <ele>2196.819</ele>
        <time>2021-06-19T07:32:56Z</time>
      </trkpt>
      <trkpt lat="42.525100" lon="1.074347">
        <ele>2197.646</ele>
        <time>2021-06-19T07:33:01Z</time>
      </trkpt>
      <trkpt lat="42.524993" lon="1.074353">
        <ele>2198.382</ele>
        <time>2021-06-19T07:33:06Z</time>
      </trkpt>
      <trkpt lat="42.524971" lon="1.074350">
        <ele>2198.643</ele>
        <time>2021-06-19T07:33:07Z</time>
      </trkpt>
      <trkpt lat="42.524825" lon="1.074349">
        <ele>2199.717</ele>
        <time>2021-06-19T07:33:14Z</time>
      </trkpt>
      <trkpt lat="42.524803" lon="1.074347">
        <ele>2199.908</ele>
        <time>2021-06-19T07:33:15Z</time>
      </trkpt>
      <trkpt lat="42.524780" lon="1.074348">
        <ele>2200.195</ele>
        <time>2021-06-19T07:33:16Z</time>
      </trkpt>
      <trkpt lat="42.524682" lon="1.074362">
        <ele>2200.384</ele>
        <time>2021-06-19T07:33:20Z</time>
      </trkpt>
      <trkpt lat="42.524610" lon="1.074371">
        <ele>2200.570</ele>
        <time>2021-06-19T07:33:23Z</time>
      </trkpt>
      <trkpt lat="42.524487" lon="1.074370">
        <ele>2201.474</ele>
        <time>2021-06-19T07:33:28Z</time>
      </trkpt>
      <trkpt lat="42.524438" lon="1.074370">
        <ele>2201.718</ele>
        <time>2021-06-19T07:33:30Z</time>
      </trkpt>
      <trkpt lat="42.524297" lon="1.074366">
        <ele>2203.188</ele>
        <time>2021-06-19T07:33:36Z</time>
      </trkpt>
      <trkpt lat="42.524253" lon="1.074365">
        <ele>2203.561</ele>
        <time>2021-06-19T07:33:38Z</time>
      </trkpt>
      <trkpt lat="42.524138" lon="1.074362">
        <ele>2204.598</ele>
        <time>2021-06-19T07:33:45Z</time>
      </trkpt>
      <trkpt lat="42.524098" lon="1.074353">
        <ele>2205.054</ele>
        <time>2021-06-19T07:33:47Z</time>
      </trkpt>
      <trkpt lat="42.524034" lon="1.074347">
        <ele>2205.456</ele>
        <time>2021-06-19T07:33:50Z</time>
      </trkpt>
      <trkpt lat="42.523993" lon="1.074345">
        <ele>2205.711</ele>
        <time>2021-06-19T07:33:52Z</time>
      </trkpt>
      <trkpt lat="42.523928" lon="1.074334">
        <ele>2206.208</ele>
        <time>2021-06-19T07:33:55Z</time>
      </trkpt>
      <trkpt lat="42.523842" lon="1.074324">
        <ele>2206.912</ele>
        <time>2021-06-19T07:33:59Z</time>
      </trkpt>
      <trkpt lat="42.523822" lon="1.074320">
        <ele>2207.161</ele>
        <time>2021-06-19T07:34:00Z</time>
      </trkpt>
      <trkpt lat="42.523736" lon="1.074314">
        <ele>2207.757</ele>
        <time>2021-06-19T07:34:04Z</time>
      </trkpt>
      <trkpt lat="42.523673" lon="1.074303">
        <ele>2208.271</ele>
        <time>2021-06-19T07:34:07Z</time>
      </trkpt>
      <trkpt lat="42.523530" lon="1.074259">
        <ele>2210.065</ele>
        <time>2021-06-19T07:34:14Z</time>
      </trkpt>
      <trkpt lat="42.523391" lon="1.074133">
        <ele>2212.245</ele>
        <time>2021-06-19T07:34:23Z</time>
      </trkpt>
      <trkpt lat="42.523364" lon="1.074110">
        <ele>2212.528</ele>
        <time>2021-06-19T07:34:25Z</time>
      </trkpt>
      <trkpt lat="42.523313" lon="1.074062">
        <ele>2213.145</ele>
        <time>2021-06-19T07:34:29Z</time>
      </trkpt>
      <trkpt lat="42.523290" lon="1.074029">
        <ele>2213.483</ele>
        <time>2021-06-19T07:34:31Z</time>
      </trkpt>
      <trkpt lat="42.523256" lon="1.073978">
        <ele>2213.725</ele>
        <time>2021-06-19T07:34:34Z</time>
      </trkpt>
      <trkpt lat="42.523241" lon="1.073932">
        <ele>2214.017</ele>
        <time>2021-06-19T07:34:36Z</time>
      </trkpt>
      <trkpt lat="42.523225" lon="1.073889">
        <ele>2214.208</ele>
        <time>2021-06-19T07:34:38Z</time>
      </trkpt>
      <trkpt lat="42.523199" lon="1.073691">
        <ele>2215.195</ele>
        <time>2021-06-19T07:34:46Z</time>
      </trkpt>
      <trkpt lat="42.523164" lon="1.073481">
        <ele>2216.384</ele>
        <time>2021-06-19T07:34:54Z</time>
      </trkpt>
      <trkpt lat="42.523160" lon="1.073454">
        <ele>2216.470</ele>
        <time>2021-06-19T07:34:55Z</time>
      </trkpt>
      <trkpt lat="42.523116" lon="1.073284">
        <ele>2217.044</ele>
        <time>2021-06-19T07:35:01Z</time>
      </trkpt>
      <trkpt lat="42.523077" lon="1.073038">
        <ele>2217.768</ele>
        <time>2021-06-19T07:35:09Z</time>
      </trkpt>
      <trkpt lat="42.523076" lon="1.073009">
        <ele>2217.748</ele>
        <time>2021-06-19T07:35:10Z</time>
      </trkpt>
      <trkpt lat="42.523091" lon="1.072797">
        <ele>2218.591</ele>
        <time>2021-06-19T07:35:17Z</time>
      </trkpt>
      <trkpt lat="42.523099" lon="1.072729">
        <ele>2218.638</ele>
        <time>2021-06-19T07:35:19Z</time>
      </trkpt>
      <trkpt lat="42.523113" lon="1.072491">
        <ele>2218.334</ele>
        <time>2021-06-19T07:35:25Z</time>
      </trkpt>
      <trkpt lat="42.523134" lon="1.072206">
        <ele>2218.255</ele>
        <time>2021-06-19T07:35:31Z</time>
      </trkpt>
      <trkpt lat="42.523098" lon="1.071849">
        <ele>2218.310</ele>
        <time>2021-06-19T07:35:38Z</time>
      </trkpt>
      <trkpt lat="42.523018" lon="1.071519">
        <ele>2218.008</ele>
        <time>2021-06-19T07:35:44Z</time>
      </trkpt>
      <trkpt lat="42.523000" lon="1.071466">
        <ele>2217.810</ele>
        <time>2021-06-19T07:35:45Z</time>
      </trkpt>
      <trkpt lat="42.522916" lon="1.071204">
        <ele>2218.179</ele>
        <time>2021-06-19T07:35:50Z</time>
      </trkpt>
      <trkpt lat="42.522886" lon="1.071106">
        <ele>2218.345</ele>
        <time>2021-06-19T07:35:52Z</time>
      </trkpt>
      <trkpt lat="42.522789" lon="1.070633">
        <ele>2218.859</ele>
        <time>2021-06-19T07:36:00Z</time>
      </trkpt>
      <trkpt lat="42.522758" lon="1.070374">
        <ele>2219.063</ele>
        <time>2021-06-19T07:36:04Z</time>
      </trkpt>
      <trkpt lat="42.522758" lon="1.070183">
        <ele>2219.653</ele>
        <time>2021-06-19T07:36:07Z</time>
      </trkpt>
      <trkpt lat="42.522767" lon="1.069885">
        <ele>2219.826</ele>
        <time>2021-06-19T07:36:12Z</time>
      </trkpt>
      <trkpt lat="42.522779" lon="1.069706">
        <ele>2220.043</ele>
        <time>2021-06-19T07:36:15Z</time>
      </trkpt>
      <trkpt lat="42.522827" lon="1.069132">
        <ele>2220.022</ele>
        <time>2021-06-19T07:36:24Z</time>
      </trkpt>
      <trkpt lat="42.522908" lon="1.068660">
        <ele>2220.962</ele>
        <time>2021-06-19T07:36:32Z</time>
      </trkpt>
      <trkpt lat="42.523007" lon="1.068135">
        <ele>2221.808</ele>
        <time>2021-06-19T07:36:41Z</time>
      </trkpt>
      <trkpt lat="42.523066" lon="1.067891">
        <ele>2223.408</ele>
        <time>2021-06-19T07:36:45Z</time>
      </trkpt>
      <trkpt lat="42.523099" lon="1.067497">
        <ele>2222.119</ele>
        <time>2021-06-19T07:36:51Z</time>
      </trkpt>
      <trkpt lat="42.523067" lon="1.067161">
        <ele>2221.988</ele>
        <time>2021-06-19T07:36:56Z</time>
      </trkpt>
      <trkpt lat="42.523047" lon="1.067094">
        <ele>2221.724</ele>
        <time>2021-06-19T07:36:57Z</time>
      </trkpt>
      <trkpt lat="42.522958" lon="1.066803">
        <ele>2220.298</ele>
        <time>2021-06-19T07:37:02Z</time>
      </trkpt>
      <trkpt lat="42.522941" lon="1.066719">
        <ele>2220.012</ele>
        <time>2021-06-19T07:37:06Z</time>
      </trkpt>
      <trkpt lat="42.522940" lon="1.066719">
        <ele>2219.972</ele>
        <time>2021-06-19T07:37:07Z</time>
      </trkpt>
      <trkpt lat="42.522927" lon="1.066660">
        <ele>2219.775</ele>
        <time>2021-06-19T07:38:39Z</time>
      </trkpt>
      <trkpt lat="42.522918" lon="1.066620">
        <ele>2219.612</ele>
        <time>2021-06-19T07:38:40Z</time>
      </trkpt>
      <trkpt lat="42.522874" lon="1.066373">
        <ele>2219.411</ele>
        <time>2021-06-19T07:38:44Z</time>
      </trkpt>
      <trkpt lat="42.522796" lon="1.065951">
        <ele>2218.921</ele>
        <time>2021-06-19T07:38:49Z</time>
      </trkpt>
      <trkpt lat="42.522777" lon="1.065865">
        <ele>2218.503</ele>
        <time>2021-06-19T07:38:50Z</time>
      </trkpt>
      <trkpt lat="42.522754" lon="1.065784">
        <ele>2218.408</ele>
        <time>2021-06-19T07:38:51Z</time>
      </trkpt>
      <trkpt lat="42.522700" lon="1.065629">
        <ele>2217.888</ele>
        <time>2021-06-19T07:38:53Z</time>
      </trkpt>
      <trkpt lat="42.522673" lon="1.065553">
        <ele>2217.597</ele>
        <time>2021-06-19T07:38:54Z</time>
      </trkpt>
      <trkpt lat="42.522620" lon="1.065390">
        <ele>2216.553</ele>
        <time>2021-06-19T07:38:56Z</time>
      </trkpt>
      <trkpt lat="42.522597" lon="1.065303">
        <ele>2216.367</ele>
        <time>2021-06-19T07:38:57Z</time>
      </trkpt>
      <trkpt lat="42.522560" lon="1.065119">
        <ele>2216.081</ele>
        <time>2021-06-19T07:38:59Z</time>
      </trkpt>
      <trkpt lat="42.522539" lon="1.065029">
        <ele>2215.751</ele>
        <time>2021-06-19T07:39:00Z</time>
      </trkpt>
      <trkpt lat="42.522439" lon="1.064770">
        <ele>2214.714</ele>
        <time>2021-06-19T07:39:03Z</time>
      </trkpt>
      <trkpt lat="42.522373" lon="1.064598">
        <ele>2214.291</ele>
        <time>2021-06-19T07:39:05Z</time>
      </trkpt>
      <trkpt lat="42.522316" lon="1.064354">
        <ele>2214.899</ele>
        <time>2021-06-19T07:39:08Z</time>
      </trkpt>
      <trkpt lat="42.522292" lon="1.064212">
        <ele>2215.207</ele>
        <time>2021-06-19T07:39:10Z</time>
      </trkpt>
      <trkpt lat="42.522265" lon="1.064091">
        <ele>2215.227</ele>
        <time>2021-06-19T07:39:12Z</time>
      </trkpt>
      <trkpt lat="42.522257" lon="1.064038">
        <ele>2215.508</ele>
        <time>2021-06-19T07:39:13Z</time>
      </trkpt>
      <trkpt lat="42.522232" lon="1.063868">
        <ele>2216.756</ele>
        <time>2021-06-19T07:39:18Z</time>
      </trkpt>
      <trkpt lat="42.522233" lon="1.063865">
        <ele>2216.835</ele>
        <time>2021-06-19T07:39:20Z</time>
      </trkpt>
      <trkpt lat="42.522227" lon="1.063842">
        <ele>2216.831</ele>
        <time>2021-06-19T07:39:51Z</time>
      </trkpt>
      <trkpt lat="42.522220" lon="1.063823">
        <ele>2216.975</ele>
        <time>2021-06-19T07:39:52Z</time>
      </trkpt>
      <trkpt lat="42.522130" lon="1.063717">
        <ele>2217.269</ele>
        <time>2021-06-19T07:39:57Z</time>
      </trkpt>
      <trkpt lat="42.521983" lon="1.063674">
        <ele>2216.459</ele>
        <time>2021-06-19T07:40:03Z</time>
      </trkpt>
      <trkpt lat="42.521855" lon="1.063679">
        <ele>2217.252</ele>
        <time>2021-06-19T07:40:08Z</time>
      </trkpt>
      <trkpt lat="42.521724" lon="1.063778">
        <ele>2216.729</ele>
        <time>2021-06-19T07:40:14Z</time>
      </trkpt>
      <trkpt lat="42.521611" lon="1.063815">
        <ele>2216.226</ele>
        <time>2021-06-19T07:40:19Z</time>
      </trkpt>
      <trkpt lat="42.521590" lon="1.063826">
        <ele>2215.647</ele>
        <time>2021-06-19T07:40:20Z</time>
      </trkpt>
      <trkpt lat="42.521512" lon="1.063851">
        <ele>2213.911</ele>
        <time>2021-06-19T07:40:26Z</time>
      </trkpt>
      <trkpt lat="42.521511" lon="1.063850">
        <ele>2213.908</ele>
        <time>2021-06-19T07:40:27Z</time>
      </trkpt>
      <trkpt lat="42.521489" lon="1.063839">
        <ele>2213.959</ele>
        <time>2021-06-19T07:40:42Z</time>
      </trkpt>
      <trkpt lat="42.521444" lon="1.063795">
        <ele>2214.718</ele>
        <time>2021-06-19T07:40:44Z</time>
      </trkpt>
      <trkpt lat="42.521304" lon="1.063622">
        <ele>2217.584</ele>
        <time>2021-06-19T07:40:48Z</time>
      </trkpt>
      <trkpt lat="42.521127" lon="1.063572">
        <ele>2215.388</ele>
        <time>2021-06-19T07:40:51Z</time>
      </trkpt>
      <trkpt lat="42.521060" lon="1.063560">
        <ele>2214.842</ele>
        <time>2021-06-19T07:40:52Z</time>
      </trkpt>
      <trkpt lat="42.520991" lon="1.063545">
        <ele>2214.622</ele>
        <time>2021-06-19T07:40:53Z</time>
      </trkpt>
      <trkpt lat="42.520851" lon="1.063522">
        <ele>2213.755</ele>
        <time>2021-06-19T07:40:55Z</time>
      </trkpt>
      <trkpt lat="42.520778" lon="1.063527">
        <ele>2213.652</ele>
        <time>2021-06-19T07:40:56Z</time>
      </trkpt>
      <trkpt lat="42.520704" lon="1.063546">
        <ele>2213.152</ele>
        <time>2021-06-19T07:40:57Z</time>
      </trkpt>
      <trkpt lat="42.520632" lon="1.063580">
        <ele>2211.953</ele>
        <time>2021-06-19T07:40:58Z</time>
      </trkpt>
      <trkpt lat="42.520492" lon="1.063680">
        <ele>2210.308</ele>
        <time>2021-06-19T07:41:00Z</time>
      </trkpt>
      <trkpt lat="42.520425" lon="1.063738">
        <ele>2210.008</ele>
        <time>2021-06-19T07:41:01Z</time>
      </trkpt>
      <trkpt lat="42.520362" lon="1.063803">
        <ele>2209.272</ele>
        <time>2021-06-19T07:41:02Z</time>
      </trkpt>
      <trkpt lat="42.520245" lon="1.063943">
        <ele>2207.731</ele>
        <time>2021-06-19T07:41:04Z</time>
      </trkpt>
      <trkpt lat="42.520198" lon="1.064023">
        <ele>2207.227</ele>
        <time>2021-06-19T07:41:05Z</time>
      </trkpt>
      <trkpt lat="42.520159" lon="1.064108">
        <ele>2206.321</ele>
        <time>2021-06-19T07:41:06Z</time>
      </trkpt>
      <trkpt lat="42.520121" lon="1.064185">
        <ele>2205.795</ele>
        <time>2021-06-19T07:41:07Z</time>
      </trkpt>
      <trkpt lat="42.520077" lon="1.064243">
        <ele>2205.655</ele>
        <time>2021-06-19T07:41:08Z</time>
      </trkpt>
      <trkpt lat="42.520026" lon="1.064279">
        <ele>2206.168</ele>
        <time>2021-06-19T07:41:09Z</time>
      </trkpt>
      <trkpt lat="42.519972" lon="1.064297">
        <ele>2206.215</ele>
        <time>2021-06-19T07:41:10Z</time>
      </trkpt>
      <trkpt lat="42.519858" lon="1.064301">
        <ele>2206.189</ele>
        <time>2021-06-19T07:41:12Z</time>
      </trkpt>
      <trkpt lat="42.519799" lon="1.064301">
        <ele>2206.106</ele>
        <time>2021-06-19T07:41:13Z</time>
      </trkpt>
      <trkpt lat="42.519678" lon="1.064307">
        <ele>2206.326</ele>
        <time>2021-06-19T07:41:15Z</time>
      </trkpt>
      <trkpt lat="42.519507" lon="1.064382">
        <ele>2205.808</ele>
        <time>2021-06-19T07:41:18Z</time>
      </trkpt>
      <trkpt lat="42.519336" lon="1.064624">
        <ele>2205.945</ele>
        <time>2021-06-19T07:41:22Z</time>
      </trkpt>
      <trkpt lat="42.519303" lon="1.064698">
        <ele>2205.964</ele>
        <time>2021-06-19T07:41:23Z</time>
      </trkpt>
      <trkpt lat="42.519085" lon="1.065148">
        <ele>2203.970</ele>
        <time>2021-06-19T07:41:29Z</time>
      </trkpt>
      <trkpt lat="42.518940" lon="1.065548">
        <ele>2203.694</ele>
        <time>2021-06-19T07:41:34Z</time>
      </trkpt>
      <trkpt lat="42.518929" lon="1.065632">
        <ele>2203.868</ele>
        <time>2021-06-19T07:41:35Z</time>
      </trkpt>
      <trkpt lat="42.518883" lon="1.065943">
        <ele>2202.088</ele>
        <time>2021-06-19T07:41:39Z</time>
      </trkpt>
      <trkpt lat="42.518746" lon="1.066051">
        <ele>2203.121</ele>
        <time>2021-06-19T07:41:42Z</time>
      </trkpt>
      <trkpt lat="42.518473" lon="1.066185">
        <ele>2204.328</ele>
        <time>2021-06-19T07:41:48Z</time>
      </trkpt>
      <trkpt lat="42.518288" lon="1.066221">
        <ele>2205.421</ele>
        <time>2021-06-19T07:41:52Z</time>
      </trkpt>
      <trkpt lat="42.518102" lon="1.066220">
        <ele>2205.841</ele>
        <time>2021-06-19T07:41:56Z</time>
      </trkpt>
      <trkpt lat="42.518055" lon="1.066210">
        <ele>2206.405</ele>
        <time>2021-06-19T07:41:57Z</time>
      </trkpt>
      <trkpt lat="42.517962" lon="1.066177">
        <ele>2206.108</ele>
        <time>2021-06-19T07:41:59Z</time>
      </trkpt>
      <trkpt lat="42.517868" lon="1.066135">
        <ele>2206.489</ele>
        <time>2021-06-19T07:42:01Z</time>
      </trkpt>
      <trkpt lat="42.517821" lon="1.066113">
        <ele>2206.778</ele>
        <time>2021-06-19T07:42:02Z</time>
      </trkpt>
      <trkpt lat="42.517472" lon="1.066006">
        <ele>2207.234</ele>
        <time>2021-06-19T07:42:09Z</time>
      </trkpt>
      <trkpt lat="42.517177" lon="1.066003">
        <ele>2208.388</ele>
        <time>2021-06-19T07:42:15Z</time>
      </trkpt>
      <trkpt lat="42.517131" lon="1.066022">
        <ele>2208.992</ele>
        <time>2021-06-19T07:42:16Z</time>
      </trkpt>
      <trkpt lat="42.516997" lon="1.066201">
        <ele>2208.212</ele>
        <time>2021-06-19T07:42:20Z</time>
      </trkpt>
      <trkpt lat="42.516933" lon="1.066380">
        <ele>2207.045</ele>
        <time>2021-06-19T07:42:23Z</time>
      </trkpt>
      <trkpt lat="42.516880" lon="1.066557">
        <ele>2207.242</ele>
        <time>2021-06-19T07:42:26Z</time>
      </trkpt>
      <trkpt lat="42.516844" lon="1.066672">
        <ele>2207.419</ele>
        <time>2021-06-19T07:42:28Z</time>
      </trkpt>
      <trkpt lat="42.516745" lon="1.066960">
        <ele>2206.809</ele>
        <time>2021-06-19T07:42:33Z</time>
      </trkpt>
      <trkpt lat="42.516585" lon="1.067311">
        <ele>2207.019</ele>
        <time>2021-06-19T07:42:40Z</time>
      </trkpt>
      <trkpt lat="42.516420" lon="1.067524">
        <ele>2208.508</ele>
        <time>2021-06-19T07:42:46Z</time>
      </trkpt>
      <trkpt lat="42.516392" lon="1.067552">
        <ele>2208.888</ele>
        <time>2021-06-19T07:42:47Z</time>
      </trkpt>
      <trkpt lat="42.516268" lon="1.067643">
        <ele>2208.657</ele>
        <time>2021-06-19T07:42:51Z</time>
      </trkpt>
      <trkpt lat="42.516204" lon="1.067675">
        <ele>2209.043</ele>
        <time>2021-06-19T07:42:53Z</time>
      </trkpt>
      <trkpt lat="42.516072" lon="1.067715">
        <ele>2209.997</ele>
        <time>2021-06-19T07:42:57Z</time>
      </trkpt>
      <trkpt lat="42.515967" lon="1.067728">
        <ele>2209.991</ele>
        <time>2021-06-19T07:43:00Z</time>
      </trkpt>
      <trkpt lat="42.515728" lon="1.067652">
        <ele>2211.121</ele>
        <time>2021-06-19T07:43:07Z</time>
      </trkpt>
      <trkpt lat="42.515567" lon="1.067487">
        <ele>2214.034</ele>
        <time>2021-06-19T07:43:13Z</time>
      </trkpt>
      <trkpt lat="42.515517" lon="1.067434">
        <ele>2215.461</ele>
        <time>2021-06-19T07:43:15Z</time>
      </trkpt>
      <trkpt lat="42.515345" lon="1.067382">
        <ele>2214.721</ele>
        <time>2021-06-19T07:43:21Z</time>
      </trkpt>
      <trkpt lat="42.515292" lon="1.067362">
        <ele>2214.741</ele>
        <time>2021-06-19T07:43:23Z</time>
      </trkpt>
      <trkpt lat="42.515162" lon="1.067294">
        <ele>2217.005</ele>
        <time>2021-06-19T07:43:28Z</time>
      </trkpt>
      <trkpt lat="42.515135" lon="1.067279">
        <ele>2217.508</ele>
        <time>2021-06-19T07:43:29Z</time>
      </trkpt>
      <trkpt lat="42.515032" lon="1.067271">
        <ele>2217.389</ele>
        <time>2021-06-19T07:43:33Z</time>
      </trkpt>
      <trkpt lat="42.514908" lon="1.067292">
        <ele>2215.948</ele>
        <time>2021-06-19T07:43:38Z</time>
      </trkpt>
      <trkpt lat="42.514859" lon="1.067288">
        <ele>2215.924</ele>
        <time>2021-06-19T07:43:40Z</time>
      </trkpt>
      <trkpt lat="42.514741" lon="1.067249">
        <ele>2217.658</ele>
        <time>2021-06-19T07:43:45Z</time>
      </trkpt>
      <trkpt lat="42.514718" lon="1.067231">
        <ele>2218.542</ele>
        <time>2021-06-19T07:43:46Z</time>
      </trkpt>
      <trkpt lat="42.514673" lon="1.067194">
        <ele>2219.352</ele>
        <time>2021-06-19T07:43:48Z</time>
      </trkpt>
      <trkpt lat="42.514474" lon="1.067077">
        <ele>2221.145</ele>
        <time>2021-06-19T07:43:56Z</time>
      </trkpt>
      <trkpt lat="42.514379" lon="1.067090">
        <ele>2221.262</ele>
        <time>2021-06-19T07:43:59Z</time>
      </trkpt>
      <trkpt lat="42.514312" lon="1.067121">
        <ele>2220.951</ele>
        <time>2021-06-19T07:44:01Z</time>
      </trkpt>
      <trkpt lat="42.514021" lon="1.067301">
        <ele>2219.701</ele>
        <time>2021-06-19T07:44:10Z</time>
      </trkpt>
      <trkpt lat="42.513749" lon="1.067474">
        <ele>2220.711</ele>
        <time>2021-06-19T07:44:19Z</time>
      </trkpt>
      <trkpt lat="42.513595" lon="1.067589">
        <ele>2221.708</ele>
        <time>2021-06-19T07:44:25Z</time>
      </trkpt>
      <trkpt lat="42.513571" lon="1.067614">
        <ele>2222.112</ele>
        <time>2021-06-19T07:44:26Z</time>
      </trkpt>
      <trkpt lat="42.513420" lon="1.067825">
        <ele>2223.161</ele>
        <time>2021-06-19T07:44:33Z</time>
      </trkpt>
      <trkpt lat="42.513302" lon="1.068065">
        <ele>2223.967</ele>
        <time>2021-06-19T07:44:41Z</time>
      </trkpt>
      <trkpt lat="42.513248" lon="1.068179">
        <ele>2224.371</ele>
        <time>2021-06-19T07:44:45Z</time>
      </trkpt>
      <trkpt lat="42.513190" lon="1.068290">
        <ele>2224.655</ele>
        <time>2021-06-19T07:44:49Z</time>
      </trkpt>
      <trkpt lat="42.513156" lon="1.068339">
        <ele>2225.065</ele>
        <time>2021-06-19T07:44:51Z</time>
      </trkpt>
      <trkpt lat="42.513084" lon="1.068439">
        <ele>2225.968</ele>
        <time>2021-06-19T07:44:55Z</time>
      </trkpt>
      <trkpt lat="42.513009" lon="1.068525">
        <ele>2227.045</ele>
        <time>2021-06-19T07:44:59Z</time>
      </trkpt>
      <trkpt lat="42.512937" lon="1.068627">
        <ele>2227.335</ele>
        <time>2021-06-19T07:45:04Z</time>
      </trkpt>
      <trkpt lat="42.512927" lon="1.068640">
        <ele>2227.586</ele>
        <time>2021-06-19T07:45:05Z</time>
      </trkpt>
      <trkpt lat="42.512920" lon="1.068654">
        <ele>2227.614</ele>
        <time>2021-06-19T07:45:06Z</time>
      </trkpt>
      <trkpt lat="42.512910" lon="1.068682">
        <ele>2227.508</ele>
        <time>2021-06-19T07:45:08Z</time>
      </trkpt>
      <trkpt lat="42.512881" lon="1.068761">
        <ele>2227.580</ele>
        <time>2021-06-19T07:45:11Z</time>
      </trkpt>
      <trkpt lat="42.512823" lon="1.068889">
        <ele>2227.919</ele>
        <time>2021-06-19T07:45:15Z</time>
      </trkpt>
      <trkpt lat="42.512769" lon="1.068975">
        <ele>2228.415</ele>
        <time>2021-06-19T07:45:18Z</time>
      </trkpt>
      <trkpt lat="42.512674" lon="1.069112">
        <ele>2228.589</ele>
        <time>2021-06-19T07:45:23Z</time>
      </trkpt>
      <trkpt lat="42.512561" lon="1.069242">
        <ele>2229.373</ele>
        <time>2021-06-19T07:45:28Z</time>
      </trkpt>
      <trkpt lat="42.512511" lon="1.069305">
        <ele>2229.633</ele>
        <time>2021-06-19T07:45:30Z</time>
      </trkpt>
      <trkpt lat="42.512387" lon="1.069462">
        <ele>2230.656</ele>
        <time>2021-06-19T07:45:35Z</time>
      </trkpt>
      <trkpt lat="42.512266" lon="1.069611">
        <ele>2231.283</ele>
        <time>2021-06-19T07:45:40Z</time>
      </trkpt>
      <trkpt lat="42.512196" lon="1.069709">
        <ele>2231.486</ele>
        <time>2021-06-19T07:45:43Z</time>
      </trkpt>
      <trkpt lat="42.512147" lon="1.069773">
        <ele>2231.860</ele>
        <time>2021-06-19T07:45:45Z</time>
      </trkpt>
      <trkpt lat="42.511947" lon="1.070018">
        <ele>2233.526</ele>
        <time>2021-06-19T07:45:53Z</time>
      </trkpt>
      <trkpt lat="42.511919" lon="1.070049">
        <ele>2233.608</ele>
        <time>2021-06-19T07:45:54Z</time>
      </trkpt>
      <trkpt lat="42.511780" lon="1.070182">
        <ele>2234.495</ele>
        <time>2021-06-19T07:45:59Z</time>
      </trkpt>
      <trkpt lat="42.511694" lon="1.070256">
        <ele>2234.834</ele>
        <time>2021-06-19T07:46:02Z</time>
      </trkpt>
      <trkpt lat="42.511609" lon="1.070331">
        <ele>2235.350</ele>
        <time>2021-06-19T07:46:05Z</time>
      </trkpt>
      <trkpt lat="42.511323" lon="1.070593">
        <ele>2235.624</ele>
        <time>2021-06-19T07:46:15Z</time>
      </trkpt>
      <trkpt lat="42.511082" lon="1.070778">
        <ele>2236.858</ele>
        <time>2021-06-19T07:46:23Z</time>
      </trkpt>
      <trkpt lat="42.510849" lon="1.071115">
        <ele>2236.478</ele>
        <time>2021-06-19T07:46:33Z</time>
      </trkpt>
      <trkpt lat="42.510781" lon="1.071203">
        <ele>2236.741</ele>
        <time>2021-06-19T07:46:37Z</time>
      </trkpt>
      <trkpt lat="42.510750" lon="1.071233">
        <ele>2237.148</ele>
        <time>2021-06-19T07:46:39Z</time>
      </trkpt>
      <trkpt lat="42.510676" lon="1.071328">
        <ele>2237.416</ele>
        <time>2021-06-19T07:46:43Z</time>
      </trkpt>
      <trkpt lat="42.510653" lon="1.071366">
        <ele>2237.376</ele>
        <time>2021-06-19T07:46:44Z</time>
      </trkpt>
      <trkpt lat="42.510616" lon="1.071461">
        <ele>2237.513</ele>
        <time>2021-06-19T07:46:46Z</time>
      </trkpt>
      <trkpt lat="42.510554" lon="1.071687">
        <ele>2237.808</ele>
        <time>2021-06-19T07:46:50Z</time>
      </trkpt>
      <trkpt lat="42.510392" lon="1.072279">
        <ele>2237.168</ele>
        <time>2021-06-19T07:47:00Z</time>
      </trkpt>
      <trkpt lat="42.510285" lon="1.072513">
        <ele>2236.717</ele>
        <time>2021-06-19T07:47:04Z</time>
      </trkpt>
      <trkpt lat="42.510217" lon="1.072600">
        <ele>2236.643</ele>
        <time>2021-06-19T07:47:06Z</time>
      </trkpt>
      <trkpt lat="42.510139" lon="1.072670">
        <ele>2236.757</ele>
        <time>2021-06-19T07:47:08Z</time>
      </trkpt>
      <trkpt lat="42.509923" lon="1.072828">
        <ele>2236.641</ele>
        <time>2021-06-19T07:47:13Z</time>
      </trkpt>
      <trkpt lat="42.509574" lon="1.073040">
        <ele>2234.531</ele>
        <time>2021-06-19T07:47:20Z</time>
      </trkpt>
      <trkpt lat="42.509399" lon="1.073093">
        <ele>2231.874</ele>
        <time>2021-06-19T07:47:23Z</time>
      </trkpt>
      <trkpt lat="42.509341" lon="1.073088">
        <ele>2230.631</ele>
        <time>2021-06-19T07:47:24Z</time>
      </trkpt>
      <trkpt lat="42.509175" lon="1.072989">
        <ele>2232.778</ele>
        <time>2021-06-19T07:47:27Z</time>
      </trkpt>
      <trkpt lat="42.509119" lon="1.072952">
        <ele>2232.333</ele>
        <time>2021-06-19T07:47:28Z</time>
      </trkpt>
      <trkpt lat="42.508766" lon="1.072673">
        <ele>2231.326</ele>
        <time>2021-06-19T07:47:34Z</time>
      </trkpt>
      <trkpt lat="42.508698" lon="1.072628">
        <ele>2230.808</ele>
        <time>2021-06-19T07:47:35Z</time>
      </trkpt>
      <trkpt lat="42.508485" lon="1.072505">
        <ele>2229.224</ele>
        <time>2021-06-19T07:47:38Z</time>
      </trkpt>
      <trkpt lat="42.508357" lon="1.072414">
        <ele>2228.963</ele>
        <time>2021-06-19T07:47:40Z</time>
      </trkpt>
      <trkpt lat="42.508298" lon="1.072362">
        <ele>2229.189</ele>
        <time>2021-06-19T07:47:41Z</time>
      </trkpt>
      <trkpt lat="42.508188" lon="1.072249">
        <ele>2230.013</ele>
        <time>2021-06-19T07:47:43Z</time>
      </trkpt>
      <trkpt lat="42.508072" lon="1.072159">
        <ele>2229.417</ele>
        <time>2021-06-19T07:47:45Z</time>
      </trkpt>
      <trkpt lat="42.507947" lon="1.072133">
        <ele>2228.597</ele>
        <time>2021-06-19T07:47:47Z</time>
      </trkpt>
      <trkpt lat="42.507885" lon="1.072132">
        <ele>2227.830</ele>
        <time>2021-06-19T07:47:48Z</time>
      </trkpt>
      <trkpt lat="42.507823" lon="1.072126">
        <ele>2227.447</ele>
        <time>2021-06-19T07:47:49Z</time>
      </trkpt>
      <trkpt lat="42.507700" lon="1.072104">
        <ele>2227.657</ele>
        <time>2021-06-19T07:47:51Z</time>
      </trkpt>
      <trkpt lat="42.507570" lon="1.072095">
        <ele>2227.300</ele>
        <time>2021-06-19T07:47:53Z</time>
      </trkpt>
      <trkpt lat="42.507502" lon="1.072097">
        <ele>2226.920</ele>
        <time>2021-06-19T07:47:54Z</time>
      </trkpt>
      <trkpt lat="42.507235" lon="1.072107">
        <ele>2226.608</ele>
        <time>2021-06-19T07:47:58Z</time>
      </trkpt>
      <trkpt lat="42.507173" lon="1.072105">
        <ele>2227.162</ele>
        <time>2021-06-19T07:47:59Z</time>
      </trkpt>
      <trkpt lat="42.506917" lon="1.072136">
        <ele>2227.981</ele>
        <time>2021-06-19T07:48:04Z</time>
      </trkpt>
      <trkpt lat="42.506894" lon="1.072143">
        <ele>2228.097</ele>
        <time>2021-06-19T07:48:05Z</time>
      </trkpt>
      <trkpt lat="42.506818" lon="1.072160">
        <ele>2228.551</ele>
        <time>2021-06-19T07:48:09Z</time>
      </trkpt>
      <trkpt lat="42.506739" lon="1.072174">
        <ele>2229.325</ele>
        <time>2021-06-19T07:48:13Z</time>
      </trkpt>
      <trkpt lat="42.506699" lon="1.072176">
        <ele>2229.965</ele>
        <time>2021-06-19T07:48:15Z</time>
      </trkpt>
      <trkpt lat="42.506660" lon="1.072182">
        <ele>2230.328</ele>
        <time>2021-06-19T07:48:17Z</time>
      </trkpt>
      <trkpt lat="42.506640" lon="1.072184">
        <ele>2230.575</ele>
        <time>2021-06-19T07:48:18Z</time>
      </trkpt>
      <trkpt lat="42.506620" lon="1.072187">
        <ele>2230.672</ele>
        <time>2021-06-19T07:48:19Z</time>
      </trkpt>
      <trkpt lat="42.506581" lon="1.072189">
        <ele>2231.113</ele>
        <time>2021-06-19T07:48:21Z</time>
      </trkpt>
      <trkpt lat="42.506502" lon="1.072189">
        <ele>2232.314</ele>
        <time>2021-06-19T07:48:25Z</time>
      </trkpt>
      <trkpt lat="42.506373" lon="1.072209">
        <ele>2233.108</ele>
        <time>2021-06-19T07:48:32Z</time>
      </trkpt>
      <trkpt lat="42.506333" lon="1.072221">
        <ele>2233.384</ele>
        <time>2021-06-19T07:48:34Z</time>
      </trkpt>
      <trkpt lat="42.506197" lon="1.072255">
        <ele>2234.873</ele>
        <time>2021-06-19T07:48:41Z</time>
      </trkpt>
      <trkpt lat="42.506160" lon="1.072269">
        <ele>2235.139</ele>
        <time>2021-06-19T07:48:43Z</time>
      </trkpt>
      <trkpt lat="42.506073" lon="1.072313">
        <ele>2235.583</ele>
        <time>2021-06-19T07:48:48Z</time>
      </trkpt>
      <trkpt lat="42.506036" lon="1.072327">
        <ele>2235.997</ele>
        <time>2021-06-19T07:48:50Z</time>
      </trkpt>
      <trkpt lat="42.505927" lon="1.072377">
        <ele>2236.857</ele>
        <time>2021-06-19T07:48:56Z</time>
      </trkpt>
      <trkpt lat="42.505869" lon="1.072393">
        <ele>2237.750</ele>
        <time>2021-06-19T07:48:59Z</time>
      </trkpt>
      <trkpt lat="42.505829" lon="1.072397">
        <ele>2238.547</ele>
        <time>2021-06-19T07:49:01Z</time>
      </trkpt>
      <trkpt lat="42.505791" lon="1.072406">
        <ele>2238.776</ele>
        <time>2021-06-19T07:49:03Z</time>
      </trkpt>
      <trkpt lat="42.505752" lon="1.072409">
        <ele>2239.290</ele>
        <time>2021-06-19T07:49:05Z</time>
      </trkpt>
      <trkpt lat="42.505712" lon="1.072417">
        <ele>2239.519</ele>
        <time>2021-06-19T07:49:07Z</time>
      </trkpt>
      <trkpt lat="42.505675" lon="1.072424">
        <ele>2239.708</ele>
        <time>2021-06-19T07:49:09Z</time>
      </trkpt>
      <trkpt lat="42.505581" lon="1.072436">
        <ele>2240.694</ele>
        <time>2021-06-19T07:49:14Z</time>
      </trkpt>
      <trkpt lat="42.505434" lon="1.072455">
        <ele>2242.693</ele>
        <time>2021-06-19T07:49:22Z</time>
      </trkpt>
      <trkpt lat="42.505414" lon="1.072459">
        <ele>2242.819</ele>
        <time>2021-06-19T07:49:23Z</time>
      </trkpt>
      <trkpt lat="42.505299" lon="1.072494">
        <ele>2243.883</ele>
        <time>2021-06-19T07:49:29Z</time>
      </trkpt>
      <trkpt lat="42.505247" lon="1.072534">
        <ele>2243.887</ele>
        <time>2021-06-19T07:49:32Z</time>
      </trkpt>
      <trkpt lat="42.505158" lon="1.072608">
        <ele>2244.247</ele>
        <time>2021-06-19T07:49:37Z</time>
      </trkpt>
      <trkpt lat="42.505053" lon="1.072689">
        <ele>2245.010</ele>
        <time>2021-06-19T07:49:43Z</time>
      </trkpt>
      <trkpt lat="42.505021" lon="1.072716">
        <ele>2245.377</ele>
        <time>2021-06-19T07:49:45Z</time>
      </trkpt>
      <trkpt lat="42.504926" lon="1.072812">
        <ele>2246.237</ele>
        <time>2021-06-19T07:49:51Z</time>
      </trkpt>
      <trkpt lat="42.504886" lon="1.072861">
        <ele>2246.849</ele>
        <time>2021-06-19T07:49:54Z</time>
      </trkpt>
      <trkpt lat="42.504833" lon="1.072939">
        <ele>2247.513</ele>
        <time>2021-06-19T07:49:58Z</time>
      </trkpt>
      <trkpt lat="42.504761" lon="1.073099">
        <ele>2247.808</ele>
        <time>2021-06-19T07:50:05Z</time>
      </trkpt>
      <trkpt lat="42.504709" lon="1.073242">
        <ele>2248.820</ele>
        <time>2021-06-19T07:50:11Z</time>
      </trkpt>
      <trkpt lat="42.504701" lon="1.073266">
        <ele>2249.069</ele>
        <time>2021-06-19T07:50:12Z</time>
      </trkpt>
      <trkpt lat="42.504661" lon="1.073399">
        <ele>2250.235</ele>
        <time>2021-06-19T07:50:18Z</time>
      </trkpt>
      <trkpt lat="42.504657" lon="1.073423">
        <ele>2250.369</ele>
        <time>2021-06-19T07:50:19Z</time>
      </trkpt>
      <trkpt lat="42.504621" lon="1.073608">
        <ele>2250.993</ele>
        <time>2021-06-19T07:50:27Z</time>
      </trkpt>
      <trkpt lat="42.504602" lon="1.073740">
        <ele>2251.543</ele>
        <time>2021-06-19T07:50:32Z</time>
      </trkpt>
      <trkpt lat="42.504614" lon="1.073834">
        <ele>2250.446</ele>
        <time>2021-06-19T07:50:36Z</time>
      </trkpt>
      <trkpt lat="42.504613" lon="1.073861">
        <ele>2250.443</ele>
        <time>2021-06-19T07:50:37Z</time>
      </trkpt>
      <trkpt lat="42.504589" lon="1.074025">
        <ele>2250.559</ele>
        <time>2021-06-19T07:50:44Z</time>
      </trkpt>
      <trkpt lat="42.504526" lon="1.074217">
        <ele>2251.903</ele>
        <time>2021-06-19T07:50:51Z</time>
      </trkpt>
      <trkpt lat="42.504474" lon="1.074349">
        <ele>2252.823</ele>
        <time>2021-06-19T07:50:57Z</time>
      </trkpt>
      <trkpt lat="42.504425" lon="1.074460">
        <ele>2253.508</ele>
        <time>2021-06-19T07:51:02Z</time>
      </trkpt>
      <trkpt lat="42.504370" lon="1.074638">
        <ele>2253.672</ele>
        <time>2021-06-19T07:51:09Z</time>
      </trkpt>
      <trkpt lat="42.504363" lon="1.074660">
        <ele>2253.611</ele>
        <time>2021-06-19T07:51:10Z</time>
      </trkpt>
      <trkpt lat="42.504343" lon="1.074750">
        <ele>2253.127</ele>
        <time>2021-06-19T07:51:14Z</time>
      </trkpt>
      <trkpt lat="42.504321" lon="1.074799">
        <ele>2252.971</ele>
        <time>2021-06-19T07:51:16Z</time>
      </trkpt>
      <trkpt lat="42.504213" lon="1.074966">
        <ele>2253.885</ele>
        <time>2021-06-19T07:51:23Z</time>
      </trkpt>
      <trkpt lat="42.504098" lon="1.075115">
        <ele>2255.225</ele>
        <time>2021-06-19T07:51:31Z</time>
      </trkpt>
      <trkpt lat="42.504026" lon="1.075208">
        <ele>2255.878</ele>
        <time>2021-06-19T07:51:36Z</time>
      </trkpt>
      <trkpt lat="42.503945" lon="1.075304">
        <ele>2256.555</ele>
        <time>2021-06-19T07:51:41Z</time>
      </trkpt>
      <trkpt lat="42.503911" lon="1.075341">
        <ele>2256.743</ele>
        <time>2021-06-19T07:51:43Z</time>
      </trkpt>
      <trkpt lat="42.503741" lon="1.075471">
        <ele>2258.464</ele>
        <time>2021-06-19T07:51:52Z</time>
      </trkpt>
      <trkpt lat="42.503724" lon="1.075486">
        <ele>2258.510</ele>
        <time>2021-06-19T07:51:53Z</time>
      </trkpt>
      <trkpt lat="42.503655" lon="1.075554">
        <ele>2258.808</ele>
        <time>2021-06-19T07:51:57Z</time>
      </trkpt>
      <trkpt lat="42.503558" lon="1.075635">
        <ele>2259.571</ele>
        <time>2021-06-19T07:52:02Z</time>
      </trkpt>
      <trkpt lat="42.503538" lon="1.075654">
        <ele>2259.520</ele>
        <time>2021-06-19T07:52:03Z</time>
      </trkpt>
      <trkpt lat="42.503517" lon="1.075672">
        <ele>2259.696</ele>
        <time>2021-06-19T07:52:04Z</time>
      </trkpt>
      <trkpt lat="42.503472" lon="1.075709">
        <ele>2259.970</ele>
        <time>2021-06-19T07:52:06Z</time>
      </trkpt>
      <trkpt lat="42.503426" lon="1.075753">
        <ele>2259.944</ele>
        <time>2021-06-19T07:52:08Z</time>
      </trkpt>
      <trkpt lat="42.503355" lon="1.075804">
        <ele>2260.394</ele>
        <time>2021-06-19T07:52:11Z</time>
      </trkpt>
      <trkpt lat="42.503214" lon="1.075871">
        <ele>2261.047</ele>
        <time>2021-06-19T07:52:17Z</time>
      </trkpt>
      <trkpt lat="42.502981" lon="1.075943">
        <ele>2262.564</ele>
        <time>2021-06-19T07:52:26Z</time>
      </trkpt>
      <trkpt lat="42.502953" lon="1.075945">
        <ele>2262.762</ele>
        <time>2021-06-19T07:52:27Z</time>
      </trkpt>
      <trkpt lat="42.502867" lon="1.075953">
        <ele>2263.383</ele>
        <time>2021-06-19T07:52:30Z</time>
      </trkpt>
      <trkpt lat="42.502725" lon="1.075994">
        <ele>2264.011</ele>
        <time>2021-06-19T07:52:35Z</time>
      </trkpt>
      <trkpt lat="42.502537" lon="1.076107">
        <ele>2264.308</ele>
        <time>2021-06-19T07:52:42Z</time>
      </trkpt>
      <trkpt lat="42.502267" lon="1.076291">
        <ele>2264.713</ele>
        <time>2021-06-19T07:52:52Z</time>
      </trkpt>
      <trkpt lat="42.502040" lon="1.076408">
        <ele>2265.192</ele>
        <time>2021-06-19T07:53:00Z</time>
      </trkpt>
      <trkpt lat="42.501641" lon="1.076597">
        <ele>2266.848</ele>
        <time>2021-06-19T07:53:14Z</time>
      </trkpt>
      <trkpt lat="42.501423" lon="1.076722">
        <ele>2267.712</ele>
        <time>2021-06-19T07:53:22Z</time>
      </trkpt>
      <trkpt lat="42.501181" lon="1.076866">
        <ele>2268.496</ele>
        <time>2021-06-19T07:53:31Z</time>
      </trkpt>
      <trkpt lat="42.501155" lon="1.076884">
        <ele>2268.396</ele>
        <time>2021-06-19T07:53:32Z</time>
      </trkpt>
      <trkpt lat="42.501072" lon="1.076938">
        <ele>2268.419</ele>
        <time>2021-06-19T07:53:35Z</time>
      </trkpt>
      <trkpt lat="42.500931" lon="1.077022">
        <ele>2268.716</ele>
        <time>2021-06-19T07:53:40Z</time>
      </trkpt>
      <trkpt lat="42.500595" lon="1.077223">
        <ele>2269.741</ele>
        <time>2021-06-19T07:53:52Z</time>
      </trkpt>
      <trkpt lat="42.500329" lon="1.077368">
        <ele>2270.281</ele>
        <time>2021-06-19T07:54:01Z</time>
      </trkpt>
      <trkpt lat="42.500300" lon="1.077384">
        <ele>2270.409</ele>
        <time>2021-06-19T07:54:02Z</time>
      </trkpt>
      <trkpt lat="42.500159" lon="1.077465">
        <ele>2270.608</ele>
        <time>2021-06-19T07:54:07Z</time>
      </trkpt>
      <trkpt lat="42.500099" lon="1.077497">
        <ele>2270.621</ele>
        <time>2021-06-19T07:54:09Z</time>
      </trkpt>
      <trkpt lat="42.499828" lon="1.077608">
        <ele>2270.560</ele>
        <time>2021-06-19T07:54:17Z</time>
      </trkpt>
      <trkpt lat="42.499723" lon="1.077635">
        <ele>2271.236</ele>
        <time>2021-06-19T07:54:20Z</time>
      </trkpt>
      <trkpt lat="42.499652" lon="1.077656">
        <ele>2271.010</ele>
        <time>2021-06-19T07:54:22Z</time>
      </trkpt>
      <trkpt lat="42.499421" lon="1.077667">
        <ele>2272.674</ele>
        <time>2021-06-19T07:54:29Z</time>
      </trkpt>
      <trkpt lat="42.499389" lon="1.077657">
        <ele>2272.814</ele>
        <time>2021-06-19T07:54:30Z</time>
      </trkpt>
      <trkpt lat="42.499324" lon="1.077635">
        <ele>2273.197</ele>
        <time>2021-06-19T07:54:32Z</time>
      </trkpt>
      <trkpt lat="42.499230" lon="1.077614">
        <ele>2272.954</ele>
        <time>2021-06-19T07:54:35Z</time>
      </trkpt>
      <trkpt lat="42.499200" lon="1.077599">
        <ele>2273.155</ele>
        <time>2021-06-19T07:54:36Z</time>
      </trkpt>
      <trkpt lat="42.499170" lon="1.077579">
        <ele>2273.507</ele>
        <time>2021-06-19T07:54:37Z</time>
      </trkpt>
      <trkpt lat="42.499073" lon="1.077458">
        <ele>2273.817</ele>
        <time>2021-06-19T07:54:41Z</time>
      </trkpt>
      <trkpt lat="42.498906" lon="1.077221">
        <ele>2275.908</ele>
        <time>2021-06-19T07:54:49Z</time>
      </trkpt>
      <trkpt lat="42.498883" lon="1.077188">
        <ele>2276.262</ele>
        <time>2021-06-19T07:54:50Z</time>
      </trkpt>
      <trkpt lat="42.498838" lon="1.077125">
        <ele>2276.481</ele>
        <time>2021-06-19T07:54:52Z</time>
      </trkpt>
      <trkpt lat="42.498768" lon="1.077026">
        <ele>2276.687</ele>
        <time>2021-06-19T07:54:55Z</time>
      </trkpt>
      <trkpt lat="42.498641" lon="1.076861">
        <ele>2276.031</ele>
        <time>2021-06-19T07:55:00Z</time>
      </trkpt>
      <trkpt lat="42.498590" lon="1.076798">
        <ele>2275.995</ele>
        <time>2021-06-19T07:55:02Z</time>
      </trkpt>
      <trkpt lat="42.498511" lon="1.076704">
        <ele>2276.165</ele>
        <time>2021-06-19T07:55:05Z</time>
      </trkpt>
      <trkpt lat="42.498429" lon="1.076612">
        <ele>2276.568</ele>
        <time>2021-06-19T07:55:08Z</time>
      </trkpt>
      <trkpt lat="42.498338" lon="1.076523">
        <ele>2276.445</ele>
        <time>2021-06-19T07:55:11Z</time>
      </trkpt>
      <trkpt lat="42.498141" lon="1.076384">
        <ele>2276.718</ele>
        <time>2021-06-19T07:55:17Z</time>
      </trkpt>
      <trkpt lat="42.497811" lon="1.076196">
        <ele>2277.598</ele>
        <time>2021-06-19T07:55:27Z</time>
      </trkpt>
      <trkpt lat="42.497537" lon="1.076012">
        <ele>2277.717</ele>
        <time>2021-06-19T07:55:35Z</time>
      </trkpt>
      <trkpt lat="42.497463" lon="1.075963">
        <ele>2277.408</ele>
        <time>2021-06-19T07:55:37Z</time>
      </trkpt>
      <trkpt lat="42.497356" lon="1.075890">
        <ele>2277.838</ele>
        <time>2021-06-19T07:55:40Z</time>
      </trkpt>
      <trkpt lat="42.497319" lon="1.075870">
        <ele>2277.847</ele>
        <time>2021-06-19T07:55:41Z</time>
      </trkpt>
      <trkpt lat="42.497167" lon="1.075815">
        <ele>2276.963</ele>
        <time>2021-06-19T07:55:45Z</time>
      </trkpt>
      <trkpt lat="42.497050" lon="1.075773">
        <ele>2277.027</ele>
        <time>2021-06-19T07:55:48Z</time>
      </trkpt>
      <trkpt lat="42.496761" lon="1.075616">
        <ele>2277.911</ele>
        <time>2021-06-19T07:55:56Z</time>
      </trkpt>
      <trkpt lat="42.496519" lon="1.075450">
        <ele>2275.781</ele>
        <time>2021-06-19T07:56:03Z</time>
      </trkpt>
      <trkpt lat="42.496439" lon="1.075412">
        <ele>2274.114</ele>
        <time>2021-06-19T07:56:05Z</time>
      </trkpt>
      <trkpt lat="42.496300" lon="1.075314">
        <ele>2273.051</ele>
        <time>2021-06-19T07:56:09Z</time>
      </trkpt>
      <trkpt lat="42.496262" lon="1.075279">
        <ele>2273.263</ele>
        <time>2021-06-19T07:56:10Z</time>
      </trkpt>
      <trkpt lat="42.496119" lon="1.075223">
        <ele>2270.444</ele>
        <time>2021-06-19T07:56:13Z</time>
      </trkpt>
      <trkpt lat="42.495968" lon="1.075194">
        <ele>2270.018</ele>
        <time>2021-06-19T07:56:16Z</time>
      </trkpt>
      <trkpt lat="42.495809" lon="1.075196">
        <ele>2269.208</ele>
        <time>2021-06-19T07:56:19Z</time>
      </trkpt>
      <trkpt lat="42.495512" lon="1.075102">
        <ele>2264.943</ele>
        <time>2021-06-19T07:56:25Z</time>
      </trkpt>
      <trkpt lat="42.495483" lon="1.075067">
        <ele>2265.412</ele>
        <time>2021-06-19T07:56:26Z</time>
      </trkpt>
      <trkpt lat="42.495459" lon="1.074982">
        <ele>2266.598</ele>
        <time>2021-06-19T07:56:28Z</time>
      </trkpt>
      <trkpt lat="42.495479" lon="1.074900">
        <ele>2265.792</ele>
        <time>2021-06-19T07:56:30Z</time>
      </trkpt>
      <trkpt lat="42.495505" lon="1.074864">
        <ele>2265.416</ele>
        <time>2021-06-19T07:56:31Z</time>
      </trkpt>
      <trkpt lat="42.495536" lon="1.074828">
        <ele>2265.136</ele>
        <time>2021-06-19T07:56:32Z</time>
      </trkpt>
      <trkpt lat="42.495571" lon="1.074792">
        <ele>2264.939</ele>
        <time>2021-06-19T07:56:33Z</time>
      </trkpt>
      <trkpt lat="42.495608" lon="1.074759">
        <ele>2264.836</ele>
        <time>2021-06-19T07:56:34Z</time>
      </trkpt>
      <trkpt lat="42.495647" lon="1.074730">
        <ele>2264.735</ele>
        <time>2021-06-19T07:56:35Z</time>
      </trkpt>
      <trkpt lat="42.495688" lon="1.074701">
        <ele>2264.786</ele>
        <time>2021-06-19T07:56:36Z</time>
      </trkpt>
      <trkpt lat="42.495729" lon="1.074669">
        <ele>2264.614</ele>
        <time>2021-06-19T07:56:37Z</time>
      </trkpt>
      <trkpt lat="42.495812" lon="1.074592">
        <ele>2264.008</ele>
        <time>2021-06-19T07:56:39Z</time>
      </trkpt>
      <trkpt lat="42.495903" lon="1.074508">
        <ele>2263.470</ele>
        <time>2021-06-19T07:56:41Z</time>
      </trkpt>
      <trkpt lat="42.495948" lon="1.074463">
        <ele>2263.129</ele>
        <time>2021-06-19T07:56:42Z</time>
      </trkpt>
      <trkpt lat="42.495991" lon="1.074417">
        <ele>2262.785</ele>
        <time>2021-06-19T07:56:43Z</time>
      </trkpt>
      <trkpt lat="42.496222" lon="1.074196">
        <ele>2261.329</ele>
        <time>2021-06-19T07:56:48Z</time>
      </trkpt>
      <trkpt lat="42.496278" lon="1.074152">
        <ele>2260.953</ele>
        <time>2021-06-19T07:56:49Z</time>
      </trkpt>
      <trkpt lat="42.496394" lon="1.074065">
        <ele>2259.963</ele>
        <time>2021-06-19T07:56:51Z</time>
      </trkpt>
      <trkpt lat="42.496510" lon="1.073967">
        <ele>2259.646</ele>
        <time>2021-06-19T07:56:53Z</time>
      </trkpt>
      <trkpt lat="42.496566" lon="1.073913">
        <ele>2259.173</ele>
        <time>2021-06-19T07:56:54Z</time>
      </trkpt>
      <trkpt lat="42.496676" lon="1.073793">
        <ele>2258.224</ele>
        <time>2021-06-19T07:56:56Z</time>
      </trkpt>
      <trkpt lat="42.496830" lon="1.073621">
        <ele>2257.804</ele>
        <time>2021-06-19T07:56:59Z</time>
      </trkpt>
      <trkpt lat="42.496875" lon="1.073560">
        <ele>2257.014</ele>
        <time>2021-06-19T07:57:00Z</time>
      </trkpt>
      <trkpt lat="42.496921" lon="1.073499">
        <ele>2256.308</ele>
        <time>2021-06-19T07:57:01Z</time>
      </trkpt>
      <trkpt lat="42.496969" lon="1.073443">
        <ele>2255.819</ele>
        <time>2021-06-19T07:57:02Z</time>
      </trkpt>
      <trkpt lat="42.497130" lon="1.073294">
        <ele>2255.318</ele>
        <time>2021-06-19T07:57:05Z</time>
      </trkpt>
      <trkpt lat="42.497333" lon="1.073077">
        <ele>2253.714</ele>
        <time>2021-06-19T07:57:09Z</time>
      </trkpt>
      <trkpt lat="42.497382" lon="1.073018">
        <ele>2253.558</ele>
        <time>2021-06-19T07:57:10Z</time>
      </trkpt>
      <trkpt lat="42.497479" lon="1.072897">
        <ele>2252.632</ele>
        <time>2021-06-19T07:57:12Z</time>
      </trkpt>
      <trkpt lat="42.497577" lon="1.072783">
        <ele>2252.512</ele>
        <time>2021-06-19T07:57:14Z</time>
      </trkpt>
      <trkpt lat="42.497625" lon="1.072729">
        <ele>2252.865</ele>
        <time>2021-06-19T07:57:15Z</time>
      </trkpt>
      <trkpt lat="42.497706" lon="1.072618">
        <ele>2253.042</ele>
        <time>2021-06-19T07:57:17Z</time>
      </trkpt>
      <trkpt lat="42.497751" lon="1.072483">
        <ele>2251.331</ele>
        <time>2021-06-19T07:57:19Z</time>
      </trkpt>
      <trkpt lat="42.497788" lon="1.072346">
        <ele>2250.861</ele>
        <time>2021-06-19T07:57:21Z</time>
      </trkpt>
      <trkpt lat="42.497829" lon="1.072137">
        <ele>2249.707</ele>
        <time>2021-06-19T07:57:24Z</time>
      </trkpt>
      <trkpt lat="42.497835" lon="1.072065">
        <ele>2248.908</ele>
        <time>2021-06-19T07:57:25Z</time>
      </trkpt>
      <trkpt lat="42.497841" lon="1.071992">
        <ele>2248.130</ele>
        <time>2021-06-19T07:57:26Z</time>
      </trkpt>
      <trkpt lat="42.497849" lon="1.071918">
        <ele>2247.439</ele>
        <time>2021-06-19T07:57:27Z</time>
      </trkpt>
      <trkpt lat="42.497861" lon="1.071845">
        <ele>2246.765</ele>
        <time>2021-06-19T07:57:28Z</time>
      </trkpt>
      <trkpt lat="42.497917" lon="1.071624">
        <ele>2245.269</ele>
        <time>2021-06-19T07:57:31Z</time>
      </trkpt>
      <trkpt lat="42.497967" lon="1.071475">
        <ele>2244.023</ele>
        <time>2021-06-19T07:57:33Z</time>
      </trkpt>
      <trkpt lat="42.498074" lon="1.071268">
        <ele>2242.993</ele>
        <time>2021-06-19T07:57:36Z</time>
      </trkpt>
      <trkpt lat="42.498117" lon="1.071203">
        <ele>2242.526</ele>
        <time>2021-06-19T07:57:37Z</time>
      </trkpt>
      <trkpt lat="42.498264" lon="1.071016">
        <ele>2241.233</ele>
        <time>2021-06-19T07:57:40Z</time>
      </trkpt>
      <trkpt lat="42.498423" lon="1.070831">
        <ele>2239.611</ele>
        <time>2021-06-19T07:57:43Z</time>
      </trkpt>
      <trkpt lat="42.498597" lon="1.070666">
        <ele>2238.021</ele>
        <time>2021-06-19T07:57:46Z</time>
      </trkpt>
      <trkpt lat="42.498656" lon="1.070616">
        <ele>2237.503</ele>
        <time>2021-06-19T07:57:47Z</time>
      </trkpt>
      <trkpt lat="42.498716" lon="1.070567">
        <ele>2236.908</ele>
        <time>2021-06-19T07:57:48Z</time>
      </trkpt>
      <trkpt lat="42.498833" lon="1.070477">
        <ele>2236.028</ele>
        <time>2021-06-19T07:57:50Z</time>
      </trkpt>
      <trkpt lat="42.498891" lon="1.070437">
        <ele>2235.627</ele>
        <time>2021-06-19T07:57:51Z</time>
      </trkpt>
      <trkpt lat="42.498947" lon="1.070402">
        <ele>2235.373</ele>
        <time>2021-06-19T07:57:52Z</time>
      </trkpt>
      <trkpt lat="42.499058" lon="1.070328">
        <ele>2234.437</ele>
        <time>2021-06-19T07:57:54Z</time>
      </trkpt>
      <trkpt lat="42.499177" lon="1.070252">
        <ele>2233.461</ele>
        <time>2021-06-19T07:57:56Z</time>
      </trkpt>
      <trkpt lat="42.499300" lon="1.070177">
        <ele>2232.451</ele>
        <time>2021-06-19T07:57:58Z</time>
      </trkpt>
      <trkpt lat="42.499549" lon="1.070065">
        <ele>2230.294</ele>
        <time>2021-06-19T07:58:02Z</time>
      </trkpt>
      <trkpt lat="42.499742" lon="1.070007">
        <ele>2228.351</ele>
        <time>2021-06-19T07:58:05Z</time>
      </trkpt>
      <trkpt lat="42.499801" lon="1.069996">
        <ele>2228.232</ele>
        <time>2021-06-19T07:58:06Z</time>
      </trkpt>
      <trkpt lat="42.499857" lon="1.069986">
        <ele>2228.092</ele>
        <time>2021-06-19T07:58:07Z</time>
      </trkpt>
      <trkpt lat="42.500030" lon="1.069930">
        <ele>2226.611</ele>
        <time>2021-06-19T07:58:10Z</time>
      </trkpt>
      <trkpt lat="42.500161" lon="1.069898">
        <ele>2225.708</ele>
        <time>2021-06-19T07:58:12Z</time>
      </trkpt>
      <trkpt lat="42.500418" lon="1.069843">
        <ele>2224.360</ele>
        <time>2021-06-19T07:58:16Z</time>
      </trkpt>
      <trkpt lat="42.500541" lon="1.069800">
        <ele>2223.059</ele>
        <time>2021-06-19T07:58:18Z</time>
      </trkpt>
      <trkpt lat="42.500654" lon="1.069766">
        <ele>2222.495</ele>
        <time>2021-06-19T07:58:20Z</time>
      </trkpt>
      <trkpt lat="42.500750" lon="1.069746">
        <ele>2222.379</ele>
        <time>2021-06-19T07:58:22Z</time>
      </trkpt>
      <trkpt lat="42.500843" lon="1.069698">
        <ele>2221.123</ele>
        <time>2021-06-19T07:58:24Z</time>
      </trkpt>
      <trkpt lat="42.500944" lon="1.069650">
        <ele>2220.593</ele>
        <time>2021-06-19T07:58:26Z</time>
      </trkpt>
      <trkpt lat="42.500999" lon="1.069630">
        <ele>2220.436</ele>
        <time>2021-06-19T07:58:27Z</time>
      </trkpt>
      <trkpt lat="42.501115" lon="1.069580">
        <ele>2219.923</ele>
        <time>2021-06-19T07:58:29Z</time>
      </trkpt>
      <trkpt lat="42.501235" lon="1.069508">
        <ele>2219.824</ele>
        <time>2021-06-19T07:58:31Z</time>
      </trkpt>
      <trkpt lat="42.501358" lon="1.069408">
        <ele>2218.704</ele>
        <time>2021-06-19T07:58:33Z</time>
      </trkpt>
      <trkpt lat="42.501472" lon="1.069289">
        <ele>2217.914</ele>
        <time>2021-06-19T07:58:35Z</time>
      </trkpt>
      <trkpt lat="42.501521" lon="1.069230">
        <ele>2217.508</ele>
        <time>2021-06-19T07:58:36Z</time>
      </trkpt>
      <trkpt lat="42.501564" lon="1.069174">
        <ele>2217.289</ele>
        <time>2021-06-19T07:58:37Z</time>
      </trkpt>
      <trkpt lat="42.501636" lon="1.069076">
        <ele>2216.518</ele>
        <time>2021-06-19T07:58:39Z</time>
      </trkpt>
      <trkpt lat="42.501667" lon="1.069030">
        <ele>2216.154</ele>
        <time>2021-06-19T07:58:40Z</time>
      </trkpt>
      <trkpt lat="42.501737" lon="1.068935">
        <ele>2216.198</ele>
        <time>2021-06-19T07:58:42Z</time>
      </trkpt>
      <trkpt lat="42.501773" lon="1.068878">
        <ele>2216.092</ele>
        <time>2021-06-19T07:58:43Z</time>
      </trkpt>
      <trkpt lat="42.501838" lon="1.068739">
        <ele>2214.892</ele>
        <time>2021-06-19T07:58:45Z</time>
      </trkpt>
      <trkpt lat="42.501912" lon="1.068588">
        <ele>2213.795</ele>
        <time>2021-06-19T07:58:47Z</time>
      </trkpt>
      <trkpt lat="42.501986" lon="1.068431">
        <ele>2213.552</ele>
        <time>2021-06-19T07:58:49Z</time>
      </trkpt>
      <trkpt lat="42.502020" lon="1.068344">
        <ele>2213.219</ele>
        <time>2021-06-19T07:58:50Z</time>
      </trkpt>
      <trkpt lat="42.502051" lon="1.068254">
        <ele>2212.709</ele>
        <time>2021-06-19T07:58:51Z</time>
      </trkpt>
      <trkpt lat="42.502105" lon="1.068069">
        <ele>2211.519</ele>
        <time>2021-06-19T07:58:53Z</time>
      </trkpt>
      <trkpt lat="42.502145" lon="1.067881">
        <ele>2210.208</ele>
        <time>2021-06-19T07:58:55Z</time>
      </trkpt>
      <trkpt lat="42.502157" lon="1.067786">
        <ele>2209.088</ele>
        <time>2021-06-19T07:58:56Z</time>
      </trkpt>
      <trkpt lat="42.502166" lon="1.067692">
        <ele>2208.117</ele>
        <time>2021-06-19T07:58:57Z</time>
      </trkpt>
      <trkpt lat="42.502173" lon="1.067599">
        <ele>2207.013</ele>
        <time>2021-06-19T07:58:58Z</time>
      </trkpt>
      <trkpt lat="42.502181" lon="1.067508">
        <ele>2206.017</ele>
        <time>2021-06-19T07:58:59Z</time>
      </trkpt>
      <trkpt lat="42.502189" lon="1.067419">
        <ele>2205.171</ele>
        <time>2021-06-19T07:59:00Z</time>
      </trkpt>
      <trkpt lat="42.502223" lon="1.067237">
        <ele>2204.381</ele>
        <time>2021-06-19T07:59:02Z</time>
      </trkpt>
      <trkpt lat="42.502340" lon="1.066896">
        <ele>2201.994</ele>
        <time>2021-06-19T07:59:06Z</time>
      </trkpt>
      <trkpt lat="42.502371" lon="1.066815">
        <ele>2201.671</ele>
        <time>2021-06-19T07:59:07Z</time>
      </trkpt>
      <trkpt lat="42.502432" lon="1.066654">
        <ele>2201.388</ele>
        <time>2021-06-19T07:59:09Z</time>
      </trkpt>
      <trkpt lat="42.502455" lon="1.066569">
        <ele>2200.724</ele>
        <time>2021-06-19T07:59:10Z</time>
      </trkpt>
      <trkpt lat="42.502498" lon="1.066402">
        <ele>2199.226</ele>
        <time>2021-06-19T07:59:12Z</time>
      </trkpt>
      <trkpt lat="42.502518" lon="1.066319">
        <ele>2198.808</ele>
        <time>2021-06-19T07:59:13Z</time>
      </trkpt>
      <trkpt lat="42.502552" lon="1.066154">
        <ele>2197.635</ele>
        <time>2021-06-19T07:59:15Z</time>
      </trkpt>
      <trkpt lat="42.502579" lon="1.065986">
        <ele>2196.264</ele>
        <time>2021-06-19T07:59:17Z</time>
      </trkpt>
      <trkpt lat="42.502593" lon="1.065905">
        <ele>2195.690</ele>
        <time>2021-06-19T07:59:18Z</time>
      </trkpt>
      <trkpt lat="42.502607" lon="1.065767">
        <ele>2194.184</ele>
        <time>2021-06-19T07:59:20Z</time>
      </trkpt>
      <trkpt lat="42.502621" lon="1.065627">
        <ele>2192.888</ele>
        <time>2021-06-19T07:59:22Z</time>
      </trkpt>
      <trkpt lat="42.502658" lon="1.065410">
        <ele>2191.158</ele>
        <time>2021-06-19T07:59:25Z</time>
      </trkpt>
      <trkpt lat="42.502722" lon="1.065191">
        <ele>2189.781</ele>
        <time>2021-06-19T07:59:28Z</time>
      </trkpt>
      <trkpt lat="42.502779" lon="1.065054">
        <ele>2189.038</ele>
        <time>2021-06-19T07:59:30Z</time>
      </trkpt>
      <trkpt lat="42.502806" lon="1.064983">
        <ele>2188.633</ele>
        <time>2021-06-19T07:59:31Z</time>
      </trkpt>
      <trkpt lat="42.502863" lon="1.064836">
        <ele>2187.623</ele>
        <time>2021-06-19T07:59:33Z</time>
      </trkpt>
      <trkpt lat="42.502897" lon="1.064763">
        <ele>2187.215</ele>
        <time>2021-06-19T07:59:34Z</time>
      </trkpt>
      <trkpt lat="42.503001" lon="1.064537">
        <ele>2185.608</ele>
        <time>2021-06-19T07:59:37Z</time>
      </trkpt>
      <trkpt lat="42.503041" lon="1.064469">
        <ele>2185.220</ele>
        <time>2021-06-19T07:59:38Z</time>
      </trkpt>
      <trkpt lat="42.503128" lon="1.064339">
        <ele>2184.349</ele>
        <time>2021-06-19T07:59:40Z</time>
      </trkpt>
      <trkpt lat="42.503255" lon="1.064139">
        <ele>2182.345</ele>
        <time>2021-06-19T07:59:43Z</time>
      </trkpt>
      <trkpt lat="42.503409" lon="1.063951">
        <ele>2181.049</ele>
        <time>2021-06-19T07:59:46Z</time>
      </trkpt>
      <trkpt lat="42.503521" lon="1.063822">
        <ele>2180.383</ele>
        <time>2021-06-19T07:59:48Z</time>
      </trkpt>
      <trkpt lat="42.503690" lon="1.063637">
        <ele>2179.123</ele>
        <time>2021-06-19T07:59:51Z</time>
      </trkpt>
      <trkpt lat="42.503849" lon="1.063463">
        <ele>2177.656</ele>
        <time>2021-06-19T07:59:54Z</time>
      </trkpt>
      <trkpt lat="42.503904" lon="1.063411">
        <ele>2177.283</ele>
        <time>2021-06-19T07:59:55Z</time>
      </trkpt>
      <trkpt lat="42.503958" lon="1.063360">
        <ele>2176.756</ele>
        <time>2021-06-19T07:59:56Z</time>
      </trkpt>
      <trkpt lat="42.504067" lon="1.063256">
        <ele>2175.859</ele>
        <time>2021-06-19T07:59:58Z</time>
      </trkpt>
      <trkpt lat="42.504178" lon="1.063155">
        <ele>2174.814</ele>
        <time>2021-06-19T08:00:00Z</time>
      </trkpt>
      <trkpt lat="42.504296" lon="1.063062">
        <ele>2173.608</ele>
        <time>2021-06-19T08:00:02Z</time>
      </trkpt>
      <trkpt lat="42.504420" lon="1.062977">
        <ele>2172.782</ele>
        <time>2021-06-19T08:00:04Z</time>
      </trkpt>
      <trkpt lat="42.504606" lon="1.062847">
        <ele>2171.321</ele>
        <time>2021-06-19T08:00:07Z</time>
      </trkpt>
      <trkpt lat="42.504733" lon="1.062757">
        <ele>2170.447</ele>
        <time>2021-06-19T08:00:09Z</time>
      </trkpt>
      <trkpt lat="42.504796" lon="1.062716">
        <ele>2169.991</ele>
        <time>2021-06-19T08:00:10Z</time>
      </trkpt>
      <trkpt lat="42.504955" lon="1.062610">
        <ele>2168.895</ele>
        <time>2021-06-19T08:00:13Z</time>
      </trkpt>
      <trkpt lat="42.505004" lon="1.062574">
        <ele>2168.535</ele>
        <time>2021-06-19T08:00:14Z</time>
      </trkpt>
      <trkpt lat="42.505051" lon="1.062530">
        <ele>2167.968</ele>
        <time>2021-06-19T08:00:15Z</time>
      </trkpt>
      <trkpt lat="42.505204" lon="1.062403">
        <ele>2166.685</ele>
        <time>2021-06-19T08:00:18Z</time>
      </trkpt>
      <trkpt lat="42.505315" lon="1.062323">
        <ele>2166.099</ele>
        <time>2021-06-19T08:00:20Z</time>
      </trkpt>
      <trkpt lat="42.505372" lon="1.062276">
        <ele>2165.807</ele>
        <time>2021-06-19T08:00:21Z</time>
      </trkpt>
      <trkpt lat="42.505422" lon="1.062225">
        <ele>2165.727</ele>
        <time>2021-06-19T08:00:22Z</time>
      </trkpt>
      <trkpt lat="42.505464" lon="1.062167">
        <ele>2165.808</ele>
        <time>2021-06-19T08:00:23Z</time>
      </trkpt>
      <trkpt lat="42.505539" lon="1.061962">
        <ele>2165.556</ele>
        <time>2021-06-19T08:00:26Z</time>
      </trkpt>
      <trkpt lat="42.505557" lon="1.061890">
        <ele>2165.355</ele>
        <time>2021-06-19T08:00:27Z</time>
      </trkpt>
      <trkpt lat="42.505594" lon="1.061740">
        <ele>2165.121</ele>
        <time>2021-06-19T08:00:29Z</time>
      </trkpt>
      <trkpt lat="42.505603" lon="1.061662">
        <ele>2164.615</ele>
        <time>2021-06-19T08:00:30Z</time>
      </trkpt>
      <trkpt lat="42.505589" lon="1.061500">
        <ele>2164.339</ele>
        <time>2021-06-19T08:00:32Z</time>
      </trkpt>
      <trkpt lat="42.505572" lon="1.061418">
        <ele>2163.789</ele>
        <time>2021-06-19T08:00:33Z</time>
      </trkpt>
      <trkpt lat="42.505509" lon="1.061186">
        <ele>2160.932</ele>
        <time>2021-06-19T08:00:36Z</time>
      </trkpt>
      <trkpt lat="42.505501" lon="1.061106">
        <ele>2160.739</ele>
        <time>2021-06-19T08:00:37Z</time>
      </trkpt>
      <trkpt lat="42.505497" lon="1.061021">
        <ele>2160.785</ele>
        <time>2021-06-19T08:00:38Z</time>
      </trkpt>
      <trkpt lat="42.505480" lon="1.060843">
        <ele>2160.289</ele>
        <time>2021-06-19T08:00:40Z</time>
      </trkpt>
      <trkpt lat="42.505444" lon="1.060667">
        <ele>2160.217</ele>
        <time>2021-06-19T08:00:42Z</time>
      </trkpt>
      <trkpt lat="42.505379" lon="1.060411">
        <ele>2158.808</ele>
        <time>2021-06-19T08:00:45Z</time>
      </trkpt>
      <trkpt lat="42.505350" lon="1.060331">
        <ele>2157.895</ele>
        <time>2021-06-19T08:00:46Z</time>
      </trkpt>
      <trkpt lat="42.505301" lon="1.060168">
        <ele>2156.374</ele>
        <time>2021-06-19T08:00:48Z</time>
      </trkpt>
      <trkpt lat="42.505275" lon="1.059993">
        <ele>2155.910</ele>
        <time>2021-06-19T08:00:50Z</time>
      </trkpt>
      <trkpt lat="42.505268" lon="1.059822">
        <ele>2154.934</ele>
        <time>2021-06-19T08:00:52Z</time>
      </trkpt>
      <trkpt lat="42.505275" lon="1.059740">
        <ele>2154.998</ele>
        <time>2021-06-19T08:00:53Z</time>
      </trkpt>
      <trkpt lat="42.505290" lon="1.059662">
        <ele>2154.618</ele>
        <time>2021-06-19T08:00:54Z</time>
      </trkpt>
      <trkpt lat="42.505311" lon="1.059588">
        <ele>2154.491</ele>
        <time>2021-06-19T08:00:55Z</time>
      </trkpt>
      <trkpt lat="42.505330" lon="1.059518">
        <ele>2154.448</ele>
        <time>2021-06-19T08:00:56Z</time>
      </trkpt>
      <trkpt lat="42.505345" lon="1.059449">
        <ele>2154.265</ele>
        <time>2021-06-19T08:00:57Z</time>
      </trkpt>
      <trkpt lat="42.505356" lon="1.059380">
        <ele>2154.268</ele>
        <time>2021-06-19T08:00:58Z</time>
      </trkpt>
      <trkpt lat="42.505368" lon="1.059240">
        <ele>2153.714</ele>
        <time>2021-06-19T08:01:00Z</time>
      </trkpt>
      <trkpt lat="42.505374" lon="1.059172">
        <ele>2153.608</ele>
        <time>2021-06-19T08:01:01Z</time>
      </trkpt>
      <trkpt lat="42.505384" lon="1.059104">
        <ele>2153.223</ele>
        <time>2021-06-19T08:01:02Z</time>
      </trkpt>
      <trkpt lat="42.505396" lon="1.059037">
        <ele>2153.192</ele>
        <time>2021-06-19T08:01:03Z</time>
      </trkpt>
      <trkpt lat="42.505423" lon="1.058849">
        <ele>2151.988</ele>
        <time>2021-06-19T08:01:06Z</time>
      </trkpt>
      <trkpt lat="42.505430" lon="1.058783">
        <ele>2150.832</ele>
        <time>2021-06-19T08:01:09Z</time>
      </trkpt>
      <trkpt lat="42.505430" lon="1.058784">
        <ele>2150.886</ele>
        <time>2021-06-19T08:01:10Z</time>
      </trkpt>
      <trkpt lat="42.505453" lon="1.058761">
        <ele>2151.956</ele>
        <time>2021-06-19T08:02:32Z</time>
      </trkpt>
      <trkpt lat="42.505493" lon="1.058687">
        <ele>2153.079</ele>
        <time>2021-06-19T08:02:34Z</time>
      </trkpt>
      <trkpt lat="42.505542" lon="1.058497">
        <ele>2152.466</ele>
        <time>2021-06-19T08:02:37Z</time>
      </trkpt>
      <trkpt lat="42.505554" lon="1.058420">
        <ele>2151.711</ele>
        <time>2021-06-19T08:02:38Z</time>
      </trkpt>
      <trkpt lat="42.505562" lon="1.058336">
        <ele>2150.621</ele>
        <time>2021-06-19T08:02:39Z</time>
      </trkpt>
      <trkpt lat="42.505567" lon="1.058160">
        <ele>2148.403</ele>
        <time>2021-06-19T08:02:41Z</time>
      </trkpt>
      <trkpt lat="42.505568" lon="1.058069">
        <ele>2147.108</ele>
        <time>2021-06-19T08:02:42Z</time>
      </trkpt>
      <trkpt lat="42.505572" lon="1.057980">
        <ele>2146.188</ele>
        <time>2021-06-19T08:02:43Z</time>
      </trkpt>
      <trkpt lat="42.505584" lon="1.057893">
        <ele>2145.587</ele>
        <time>2021-06-19T08:02:44Z</time>
      </trkpt>
      <trkpt lat="42.505604" lon="1.057812">
        <ele>2145.483</ele>
        <time>2021-06-19T08:02:45Z</time>
      </trkpt>
      <trkpt lat="42.505662" lon="1.057659">
        <ele>2145.457</ele>
        <time>2021-06-19T08:02:47Z</time>
      </trkpt>
      <trkpt lat="42.505726" lon="1.057513">
        <ele>2144.511</ele>
        <time>2021-06-19T08:02:49Z</time>
      </trkpt>
      <trkpt lat="42.505762" lon="1.057440">
        <ele>2143.861</ele>
        <time>2021-06-19T08:02:50Z</time>
      </trkpt>
      <trkpt lat="42.505871" lon="1.057222">
        <ele>2142.494</ele>
        <time>2021-06-19T08:02:53Z</time>
      </trkpt>
      <trkpt lat="42.505985" lon="1.057003">
        <ele>2143.431</ele>
        <time>2021-06-19T08:02:56Z</time>
      </trkpt>
      <trkpt lat="42.506042" lon="1.056822">
        <ele>2142.061</ele>
        <time>2021-06-19T08:02:58Z</time>
      </trkpt>
      <trkpt lat="42.506069" lon="1.056727">
        <ele>2141.221</ele>
        <time>2021-06-19T08:02:59Z</time>
      </trkpt>
      <trkpt lat="42.506131" lon="1.056435">
        <ele>2140.313</ele>
        <time>2021-06-19T08:03:02Z</time>
      </trkpt>
      <trkpt lat="42.506147" lon="1.056342">
        <ele>2140.408</ele>
        <time>2021-06-19T08:03:03Z</time>
      </trkpt>
      <trkpt lat="42.506163" lon="1.056251">
        <ele>2140.563</ele>
        <time>2021-06-19T08:03:04Z</time>
      </trkpt>
      <trkpt lat="42.506179" lon="1.056162">
        <ele>2140.672</ele>
        <time>2021-06-19T08:03:05Z</time>
      </trkpt>
      <trkpt lat="42.506215" lon="1.055987">
        <ele>2140.768</ele>
        <time>2021-06-19T08:03:07Z</time>
      </trkpt>
      <trkpt lat="42.506290" lon="1.055563">
        <ele>2140.412</ele>
        <time>2021-06-19T08:03:12Z</time>
      </trkpt>
      <trkpt lat="42.506313" lon="1.055264">
        <ele>2141.916</ele>
        <time>2021-06-19T08:03:16Z</time>
      </trkpt>
      <trkpt lat="42.506303" lon="1.055137">
        <ele>2141.616</ele>
        <time>2021-06-19T08:03:18Z</time>
      </trkpt>
      <trkpt lat="42.506294" lon="1.055022">
        <ele>2141.219</ele>
        <time>2021-06-19T08:03:20Z</time>
      </trkpt>
      <trkpt lat="42.506264" lon="1.054822">
        <ele>2141.156</ele>
        <time>2021-06-19T08:03:24Z</time>
      </trkpt>
      <trkpt lat="42.506202" lon="1.054692">
        <ele>2140.092</ele>
        <time>2021-06-19T08:03:27Z</time>
      </trkpt>
      <trkpt lat="42.506136" lon="1.054640">
        <ele>2138.673</ele>
        <time>2021-06-19T08:03:29Z</time>
      </trkpt>
      <trkpt lat="42.506023" lon="1.054585">
        <ele>2136.920</ele>
        <time>2021-06-19T08:03:32Z</time>
      </trkpt>
      <trkpt lat="42.505946" lon="1.054539">
        <ele>2136.008</ele>
        <time>2021-06-19T08:03:34Z</time>
      </trkpt>
      <trkpt lat="42.505909" lon="1.054499">
        <ele>2135.966</ele>
        <time>2021-06-19T08:03:35Z</time>
      </trkpt>
      <trkpt lat="42.505858" lon="1.054299">
        <ele>2135.845</ele>
        <time>2021-06-19T08:03:38Z</time>
      </trkpt>
      <trkpt lat="42.505846" lon="1.053847">
        <ele>2135.011</ele>
        <time>2021-06-19T08:03:43Z</time>
      </trkpt>
      <trkpt lat="42.505856" lon="1.053754">
        <ele>2134.445</ele>
        <time>2021-06-19T08:03:44Z</time>
      </trkpt>
      <trkpt lat="42.505937" lon="1.053508">
        <ele>2133.639</ele>
        <time>2021-06-19T08:03:47Z</time>
      </trkpt>
      <trkpt lat="42.505979" lon="1.053440">
        <ele>2133.549</ele>
        <time>2021-06-19T08:03:48Z</time>
      </trkpt>
      <trkpt lat="42.506074" lon="1.053326">
        <ele>2133.832</ele>
        <time>2021-06-19T08:03:50Z</time>
      </trkpt>
      <trkpt lat="42.506128" lon="1.053277">
        <ele>2134.259</ele>
        <time>2021-06-19T08:03:51Z</time>
      </trkpt>
      <trkpt lat="42.506240" lon="1.053190">
        <ele>2134.798</ele>
        <time>2021-06-19T08:03:53Z</time>
      </trkpt>
      <trkpt lat="42.506293" lon="1.053143">
        <ele>2134.615</ele>
        <time>2021-06-19T08:03:54Z</time>
      </trkpt>
      <trkpt lat="42.506332" lon="1.053088">
        <ele>2133.926</ele>
        <time>2021-06-19T08:03:55Z</time>
      </trkpt>
      <trkpt lat="42.506339" lon="1.052974">
        <ele>2132.308</ele>
        <time>2021-06-19T08:03:57Z</time>
      </trkpt>
      <trkpt lat="42.506228" lon="1.052901">
        <ele>2131.176</ele>
        <time>2021-06-19T08:04:00Z</time>
      </trkpt>
      <trkpt lat="42.506184" lon="1.052903">
        <ele>2131.015</ele>
        <time>2021-06-19T08:04:01Z</time>
      </trkpt>
      <trkpt lat="42.506099" lon="1.052919">
        <ele>2130.531</ele>
        <time>2021-06-19T08:04:03Z</time>
      </trkpt>
      <trkpt lat="42.506013" lon="1.052948">
        <ele>2130.515</ele>
        <time>2021-06-19T08:04:05Z</time>
      </trkpt>
      <trkpt lat="42.505939" lon="1.052985">
        <ele>2129.939</ele>
        <time>2021-06-19T08:04:07Z</time>
      </trkpt>
      <trkpt lat="42.505905" lon="1.053005">
        <ele>2129.559</ele>
        <time>2021-06-19T08:04:09Z</time>
      </trkpt>
      <trkpt lat="42.505902" lon="1.053008">
        <ele>2129.482</ele>
        <time>2021-06-19T08:04:11Z</time>
      </trkpt>
      <trkpt lat="42.505877" lon="1.053012">
        <ele>2129.329</ele>
        <time>2021-06-19T08:05:43Z</time>
      </trkpt>
      <trkpt lat="42.505856" lon="1.053011">
        <ele>2129.379</ele>
        <time>2021-06-19T08:05:44Z</time>
      </trkpt>
      <trkpt lat="42.505723" lon="1.053043">
        <ele>2128.705</ele>
        <time>2021-06-19T08:05:48Z</time>
      </trkpt>
      <trkpt lat="42.505528" lon="1.053073">
        <ele>2128.725</ele>
        <time>2021-06-19T08:05:52Z</time>
      </trkpt>
      <trkpt lat="42.505474" lon="1.053094">
        <ele>2128.408</ele>
        <time>2021-06-19T08:05:53Z</time>
      </trkpt>
      <trkpt lat="42.505415" lon="1.053109">
        <ele>2128.244</ele>
        <time>2021-06-19T08:05:54Z</time>
      </trkpt>
      <trkpt lat="42.505228" lon="1.053094">
        <ele>2128.553</ele>
        <time>2021-06-19T08:05:57Z</time>
      </trkpt>
      <trkpt lat="42.505105" lon="1.053083">
        <ele>2128.469</ele>
        <time>2021-06-19T08:05:59Z</time>
      </trkpt>
      <trkpt lat="42.504931" lon="1.053071">
        <ele>2127.063</ele>
        <time>2021-06-19T08:06:02Z</time>
      </trkpt>
      <trkpt lat="42.504751" lon="1.052920">
        <ele>2127.617</ele>
        <time>2021-06-19T08:06:06Z</time>
      </trkpt>
      <trkpt lat="42.504715" lon="1.052861">
        <ele>2128.347</ele>
        <time>2021-06-19T08:06:07Z</time>
      </trkpt>
      <trkpt lat="42.504597" lon="1.052676">
        <ele>2129.560</ele>
        <time>2021-06-19T08:06:10Z</time>
      </trkpt>
      <trkpt lat="42.504493" lon="1.052566">
        <ele>2128.927</ele>
        <time>2021-06-19T08:06:12Z</time>
      </trkpt>
      <trkpt lat="42.504366" lon="1.052471">
        <ele>2127.838</ele>
        <time>2021-06-19T08:06:14Z</time>
      </trkpt>
      <trkpt lat="42.504299" lon="1.052426">
        <ele>2127.770</ele>
        <time>2021-06-19T08:06:15Z</time>
      </trkpt>
      <trkpt lat="42.504168" lon="1.052332">
        <ele>2126.917</ele>
        <time>2021-06-19T08:06:17Z</time>
      </trkpt>
      <trkpt lat="42.503891" lon="1.052157">
        <ele>2125.108</ele>
        <time>2021-06-19T08:06:21Z</time>
      </trkpt>
      <trkpt lat="42.503737" lon="1.052118">
        <ele>2125.090</ele>
        <time>2021-06-19T08:06:23Z</time>
      </trkpt>
      <trkpt lat="42.503500" lon="1.052147">
        <ele>2123.199</ele>
        <time>2021-06-19T08:06:26Z</time>
      </trkpt>
      <trkpt lat="42.503420" lon="1.052172">
        <ele>2122.555</ele>
        <time>2021-06-19T08:06:27Z</time>
      </trkpt>
      <trkpt lat="42.503186" lon="1.052232">
        <ele>2120.019</ele>
        <time>2021-06-19T08:06:30Z</time>
      </trkpt>
      <trkpt lat="42.503109" lon="1.052226">
        <ele>2120.023</ele>
        <time>2021-06-19T08:06:31Z</time>
      </trkpt>
      <trkpt lat="42.502609" lon="1.052118">
        <ele>2121.363</ele>
        <time>2021-06-19T08:06:38Z</time>
      </trkpt>
      <trkpt lat="42.502481" lon="1.052088">
        <ele>2121.216</ele>
        <time>2021-06-19T08:06:40Z</time>
      </trkpt>
      <trkpt lat="42.502417" lon="1.052084">
        <ele>2121.333</ele>
        <time>2021-06-19T08:06:41Z</time>
      </trkpt>
      <trkpt lat="42.502288" lon="1.052096">
        <ele>2120.657</ele>
        <time>2021-06-19T08:06:43Z</time>
      </trkpt>
      <trkpt lat="42.502159" lon="1.052091">
        <ele>2120.800</ele>
        <time>2021-06-19T08:06:45Z</time>
      </trkpt>
      <trkpt lat="42.501965" lon="1.052099">
        <ele>2120.820</ele>
        <time>2021-06-19T08:06:48Z</time>
      </trkpt>
      <trkpt lat="42.501902" lon="1.052116">
        <ele>2120.608</ele>
        <time>2021-06-19T08:06:49Z</time>
      </trkpt>
      <trkpt lat="42.501601" lon="1.052154">
        <ele>2121.152</ele>
        <time>2021-06-19T08:06:54Z</time>
      </trkpt>
      <trkpt lat="42.501221" lon="1.052114">
        <ele>2121.121</ele>
        <time>2021-06-19T08:07:01Z</time>
      </trkpt>
      <trkpt lat="42.500912" lon="1.052010">
        <ele>2121.717</ele>
        <time>2021-06-19T08:07:08Z</time>
      </trkpt>
      <trkpt lat="42.500731" lon="1.051922">
        <ele>2123.331</ele>
        <time>2021-06-19T08:07:13Z</time>
      </trkpt>
      <trkpt lat="42.500664" lon="1.051888">
        <ele>2123.815</ele>
        <time>2021-06-19T08:07:15Z</time>
      </trkpt>
      <trkpt lat="42.500546" lon="1.051821">
        <ele>2124.995</ele>
        <time>2021-06-19T08:07:19Z</time>
      </trkpt>
      <trkpt lat="42.500493" lon="1.051789">
        <ele>2125.078</ele>
        <time>2021-06-19T08:07:21Z</time>
      </trkpt>
      <trkpt lat="42.500443" lon="1.051752">
        <ele>2125.585</ele>
        <time>2021-06-19T08:07:23Z</time>
      </trkpt>
      <trkpt lat="42.500315" lon="1.051665">
        <ele>2126.254</ele>
        <time>2021-06-19T08:07:28Z</time>
      </trkpt>
      <trkpt lat="42.500263" lon="1.051631">
        <ele>2126.556</ele>
        <time>2021-06-19T08:07:30Z</time>
      </trkpt>
      <trkpt lat="42.500211" lon="1.051601">
        <ele>2126.811</ele>
        <time>2021-06-19T08:07:32Z</time>
      </trkpt>
      <trkpt lat="42.500058" lon="1.051497">
        <ele>2128.108</ele>
        <time>2021-06-19T08:07:38Z</time>
      </trkpt>
      <trkpt lat="42.500033" lon="1.051481">
        <ele>2128.312</ele>
        <time>2021-06-19T08:07:39Z</time>
      </trkpt>
      <trkpt lat="42.499877" lon="1.051373">
        <ele>2128.821</ele>
        <time>2021-06-19T08:07:45Z</time>
      </trkpt>
      <trkpt lat="42.499798" lon="1.051312">
        <ele>2129.197</ele>
        <time>2021-06-19T08:07:48Z</time>
      </trkpt>
      <trkpt lat="42.499716" lon="1.051248">
        <ele>2129.421</ele>
        <time>2021-06-19T08:07:51Z</time>
      </trkpt>
      <trkpt lat="42.499505" lon="1.051082">
        <ele>2129.435</ele>
        <time>2021-06-19T08:07:59Z</time>
      </trkpt>
      <trkpt lat="42.499437" lon="1.051014">
        <ele>2129.945</ele>
        <time>2021-06-19T08:08:02Z</time>
      </trkpt>
      <trkpt lat="42.499351" lon="1.050925">
        <ele>2130.778</ele>
        <time>2021-06-19T08:08:06Z</time>
      </trkpt>
      <trkpt lat="42.499308" lon="1.050880">
        <ele>2131.195</ele>
        <time>2021-06-19T08:08:08Z</time>
      </trkpt>
      <trkpt lat="42.499183" lon="1.050730">
        <ele>2132.458</ele>
        <time>2021-06-19T08:08:14Z</time>
      </trkpt>
      <trkpt lat="42.499162" lon="1.050705">
        <ele>2132.452</ele>
        <time>2021-06-19T08:08:15Z</time>
      </trkpt>
      <trkpt lat="42.498978" lon="1.050461">
        <ele>2133.717</ele>
        <time>2021-06-19T08:08:24Z</time>
      </trkpt>
      <trkpt lat="42.498938" lon="1.050403">
        <ele>2134.008</ele>
        <time>2021-06-19T08:08:26Z</time>
      </trkpt>
      <trkpt lat="42.498738" lon="1.050110">
        <ele>2135.292</ele>
        <time>2021-06-19T08:08:36Z</time>
      </trkpt>
      <trkpt lat="42.498576" lon="1.049958">
        <ele>2134.811</ele>
        <time>2021-06-19T08:08:43Z</time>
      </trkpt>
      <trkpt lat="42.498510" lon="1.049888">
        <ele>2135.557</ele>
        <time>2021-06-19T08:08:46Z</time>
      </trkpt>
      <trkpt lat="42.498384" lon="1.049727">
        <ele>2137.091</ele>
        <time>2021-06-19T08:08:52Z</time>
      </trkpt>
      <trkpt lat="42.498294" lon="1.049531">
        <ele>2138.435</ele>
        <time>2021-06-19T08:08:58Z</time>
      </trkpt>
      <trkpt lat="42.498281" lon="1.049496">
        <ele>2138.655</ele>
        <time>2021-06-19T08:08:59Z</time>
      </trkpt>
      <trkpt lat="42.498219" lon="1.049322">
        <ele>2141.668</ele>
        <time>2021-06-19T08:09:04Z</time>
      </trkpt>
      <trkpt lat="42.498182" lon="1.049266">
        <ele>2141.415</ele>
        <time>2021-06-19T08:09:06Z</time>
      </trkpt>
      <trkpt lat="42.498076" lon="1.049140">
        <ele>2139.345</ele>
        <time>2021-06-19T08:09:11Z</time>
      </trkpt>
      <trkpt lat="42.498025" lon="1.049109">
        <ele>2139.847</ele>
        <time>2021-06-19T08:09:13Z</time>
      </trkpt>
      <trkpt lat="42.497890" lon="1.049094">
        <ele>2141.311</ele>
        <time>2021-06-19T08:09:18Z</time>
      </trkpt>
      <trkpt lat="42.497863" lon="1.049101">
        <ele>2140.908</ele>
        <time>2021-06-19T08:09:19Z</time>
      </trkpt>
      <trkpt lat="42.497808" lon="1.049118">
        <ele>2140.061</ele>
        <time>2021-06-19T08:09:21Z</time>
      </trkpt>
      <trkpt lat="42.497688" lon="1.049146">
        <ele>2138.670</ele>
        <time>2021-06-19T08:09:25Z</time>
      </trkpt>
      <trkpt lat="42.497658" lon="1.049147">
        <ele>2138.676</ele>
        <time>2021-06-19T08:09:26Z</time>
      </trkpt>
      <trkpt lat="42.497436" lon="1.049102">
        <ele>2140.490</ele>
        <time>2021-06-19T08:09:33Z</time>
      </trkpt>
      <trkpt lat="42.497206" lon="1.049042">
        <ele>2140.524</ele>
        <time>2021-06-19T08:09:40Z</time>
      </trkpt>
      <trkpt lat="42.497139" lon="1.049029">
        <ele>2140.424</ele>
        <time>2021-06-19T08:09:42Z</time>
      </trkpt>
      <trkpt lat="42.496981" lon="1.048971">
        <ele>2141.347</ele>
        <time>2021-06-19T08:09:47Z</time>
      </trkpt>
      <trkpt lat="42.496865" lon="1.048884">
        <ele>2142.344</ele>
        <time>2021-06-19T08:09:52Z</time>
      </trkpt>
      <trkpt lat="42.496769" lon="1.048699">
        <ele>2143.466</ele>
        <time>2021-06-19T08:09:59Z</time>
      </trkpt>
      <trkpt lat="42.496717" lon="1.048537">
        <ele>2144.129</ele>
        <time>2021-06-19T08:10:04Z</time>
      </trkpt>
      <trkpt lat="42.496689" lon="1.048429">
        <ele>2144.621</ele>
        <time>2021-06-19T08:10:07Z</time>
      </trkpt>
      <trkpt lat="42.496578" lon="1.048110">
        <ele>2145.708</ele>
        <time>2021-06-19T08:10:15Z</time>
      </trkpt>
      <trkpt lat="42.496389" lon="1.047803">
        <ele>2145.293</ele>
        <time>2021-06-19T08:10:24Z</time>
      </trkpt>
      <trkpt lat="42.496370" lon="1.047766">
        <ele>2145.042</ele>
        <time>2021-06-19T08:10:25Z</time>
      </trkpt>
      <trkpt lat="42.496255" lon="1.047438">
        <ele>2147.648</ele>
        <time>2021-06-19T08:10:33Z</time>
      </trkpt>
      <trkpt lat="42.496205" lon="1.047389">
        <ele>2147.562</ele>
        <time>2021-06-19T08:10:35Z</time>
      </trkpt>
      <trkpt lat="42.496142" lon="1.047371">
        <ele>2146.146</ele>
        <time>2021-06-19T08:10:37Z</time>
      </trkpt>
      <trkpt lat="42.496108" lon="1.047368">
        <ele>2145.136</ele>
        <time>2021-06-19T08:10:38Z</time>
      </trkpt>
      <trkpt lat="42.496000" lon="1.047377">
        <ele>2143.619</ele>
        <time>2021-06-19T08:10:41Z</time>
      </trkpt>
      <trkpt lat="42.495860" lon="1.047363">
        <ele>2143.126</ele>
        <time>2021-06-19T08:10:45Z</time>
      </trkpt>
      <trkpt lat="42.495744" lon="1.047341">
        <ele>2143.884</ele>
        <time>2021-06-19T08:10:48Z</time>
      </trkpt>
      <trkpt lat="42.495462" lon="1.047367">
        <ele>2142.807</ele>
        <time>2021-06-19T08:10:54Z</time>
      </trkpt>
      <trkpt lat="42.495209" lon="1.047418">
        <ele>2142.617</ele>
        <time>2021-06-19T08:10:59Z</time>
      </trkpt>
      <trkpt lat="42.495005" lon="1.047449">
        <ele>2142.308</ele>
        <time>2021-06-19T08:11:03Z</time>
      </trkpt>
      <trkpt lat="42.494728" lon="1.047525">
        <ele>2142.485</ele>
        <time>2021-06-19T08:11:09Z</time>
      </trkpt>
      <trkpt lat="42.494537" lon="1.047530">
        <ele>2143.434</ele>
        <time>2021-06-19T08:11:15Z</time>
      </trkpt>
      <trkpt lat="42.494447" lon="1.047506">
        <ele>2145.650</ele>
        <time>2021-06-19T08:11:19Z</time>
      </trkpt>
      <trkpt lat="42.494400" lon="1.047487">
        <ele>2146.224</ele>
        <time>2021-06-19T08:11:21Z</time>
      </trkpt>
      <trkpt lat="42.494331" lon="1.047456">
        <ele>2146.918</ele>
        <time>2021-06-19T08:11:24Z</time>
      </trkpt>
      <trkpt lat="42.494287" lon="1.047427">
        <ele>2147.568</ele>
        <time>2021-06-19T08:11:26Z</time>
      </trkpt>
      <trkpt lat="42.494240" lon="1.047410">
        <ele>2147.311</ele>
        <time>2021-06-19T08:11:28Z</time>
      </trkpt>
      <trkpt lat="42.494178" lon="1.047365">
        <ele>2147.638</ele>
        <time>2021-06-19T08:11:31Z</time>
      </trkpt>
      <trkpt lat="42.494146" lon="1.047323">
        <ele>2148.036</ele>
        <time>2021-06-19T08:11:33Z</time>
      </trkpt>
      <trkpt lat="42.494093" lon="1.047158">
        <ele>2149.717</ele>
        <time>2021-06-19T08:11:39Z</time>
      </trkpt>
      <trkpt lat="42.494076" lon="1.046920">
        <ele>2152.018</ele>
        <time>2021-06-19T08:11:48Z</time>
      </trkpt>
      <trkpt lat="42.494074" lon="1.046761">
        <ele>2153.208</ele>
        <time>2021-06-19T08:11:54Z</time>
      </trkpt>
      <trkpt lat="42.494072" lon="1.046709">
        <ele>2153.580</ele>
        <time>2021-06-19T08:11:56Z</time>
      </trkpt>
      <trkpt lat="42.494065" lon="1.046561">
        <ele>2154.969</ele>
        <time>2021-06-19T08:12:02Z</time>
      </trkpt>
      <trkpt lat="42.494066" lon="1.046466">
        <ele>2156.495</ele>
        <time>2021-06-19T08:12:06Z</time>
      </trkpt>
      <trkpt lat="42.494064" lon="1.046441">
        <ele>2156.689</ele>
        <time>2021-06-19T08:12:07Z</time>
      </trkpt>
      <trkpt lat="42.494061" lon="1.046389">
        <ele>2157.283</ele>
        <time>2021-06-19T08:12:09Z</time>
      </trkpt>
      <trkpt lat="42.494043" lon="1.046291">
        <ele>2158.373</ele>
        <time>2021-06-19T08:12:13Z</time>
      </trkpt>
      <trkpt lat="42.494036" lon="1.046266">
        <ele>2158.486</ele>
        <time>2021-06-19T08:12:14Z</time>
      </trkpt>
      <trkpt lat="42.493999" lon="1.046170">
        <ele>2158.333</ele>
        <time>2021-06-19T08:12:18Z</time>
      </trkpt>
      <trkpt lat="42.493967" lon="1.046113">
        <ele>2157.734</ele>
        <time>2021-06-19T08:12:21Z</time>
      </trkpt>
      <trkpt lat="42.493931" lon="1.046055">
        <ele>2157.455</ele>
        <time>2021-06-19T08:12:24Z</time>
      </trkpt>
      <trkpt lat="42.493856" lon="1.045914">
        <ele>2157.710</ele>
        <time>2021-06-19T08:12:31Z</time>
      </trkpt>
      <trkpt lat="42.493848" lon="1.045891">
        <ele>2158.008</ele>
        <time>2021-06-19T08:12:32Z</time>
      </trkpt>
      <trkpt lat="42.493798" lon="1.045733">
        <ele>2160.240</ele>
        <time>2021-06-19T08:12:39Z</time>
      </trkpt>
      <trkpt lat="42.493783" lon="1.045688">
        <ele>2160.829</ele>
        <time>2021-06-19T08:12:41Z</time>
      </trkpt>
      <trkpt lat="42.493705" lon="1.045460">
        <ele>2163.265</ele>
        <time>2021-06-19T08:12:51Z</time>
      </trkpt>
      <trkpt lat="42.493633" lon="1.045353">
        <ele>2162.159</ele>
        <time>2021-06-19T08:12:57Z</time>
      </trkpt>
      <trkpt lat="42.493620" lon="1.045336">
        <ele>2161.823</ele>
        <time>2021-06-19T08:12:58Z</time>
      </trkpt>
      <trkpt lat="42.493566" lon="1.045258">
        <ele>2161.843</ele>
        <time>2021-06-19T08:13:02Z</time>
      </trkpt>
      <trkpt lat="42.493511" lon="1.045179">
        <ele>2162.366</ele>
        <time>2021-06-19T08:13:06Z</time>
      </trkpt>
      <trkpt lat="42.493441" lon="1.045064">
        <ele>2163.283</ele>
        <time>2021-06-19T08:13:12Z</time>
      </trkpt>
      <trkpt lat="42.493419" lon="1.045018">
        <ele>2163.774</ele>
        <time>2021-06-19T08:13:14Z</time>
      </trkpt>
      <trkpt lat="42.493330" lon="1.044839">
        <ele>2165.056</ele>
        <time>2021-06-19T08:13:22Z</time>
      </trkpt>
      <trkpt lat="42.493321" lon="1.044817">
        <ele>2165.221</ele>
        <time>2021-06-19T08:13:23Z</time>
      </trkpt>
      <trkpt lat="42.493282" lon="1.044756">
        <ele>2164.908</ele>
        <time>2021-06-19T08:13:26Z</time>
      </trkpt>
      <trkpt lat="42.493270" lon="1.044734">
        <ele>2165.044</ele>
        <time>2021-06-19T08:13:27Z</time>
      </trkpt>
      <trkpt lat="42.493193" lon="1.044526">
        <ele>2166.653</ele>
        <time>2021-06-19T08:13:36Z</time>
      </trkpt>
      <trkpt lat="42.493170" lon="1.044430">
        <ele>2167.789</ele>
        <time>2021-06-19T08:13:40Z</time>
      </trkpt>
      <trkpt lat="42.493151" lon="1.044278">
        <ele>2169.873</ele>
        <time>2021-06-19T08:13:46Z</time>
      </trkpt>
      <trkpt lat="42.493130" lon="1.044184">
        <ele>2170.487</ele>
        <time>2021-06-19T08:13:50Z</time>
      </trkpt>
      <trkpt lat="42.493106" lon="1.044119">
        <ele>2170.627</ele>
        <time>2021-06-19T08:13:53Z</time>
      </trkpt>
      <trkpt lat="42.493090" lon="1.044076">
        <ele>2170.860</ele>
        <time>2021-06-19T08:13:55Z</time>
      </trkpt>
      <trkpt lat="42.493059" lon="1.044017">
        <ele>2170.577</ele>
        <time>2021-06-19T08:13:58Z</time>
      </trkpt>
      <trkpt lat="42.493009" lon="1.043920">
        <ele>2170.983</ele>
        <time>2021-06-19T08:14:03Z</time>
      </trkpt>
      <trkpt lat="42.492989" lon="1.043882">
        <ele>2171.125</ele>
        <time>2021-06-19T08:14:05Z</time>
      </trkpt>
      <trkpt lat="42.492935" lon="1.043771">
        <ele>2172.217</ele>
        <time>2021-06-19T08:14:11Z</time>
      </trkpt>
      <trkpt lat="42.492893" lon="1.043702">
        <ele>2172.408</ele>
        <time>2021-06-19T08:14:15Z</time>
      </trkpt>
      <trkpt lat="42.492860" lon="1.043623">
        <ele>2173.555</ele>
        <time>2021-06-19T08:14:19Z</time>
      </trkpt>
      <trkpt lat="42.492832" lon="1.043570">
        <ele>2174.064</ele>
        <time>2021-06-19T08:14:22Z</time>
      </trkpt>
      <trkpt lat="42.492812" lon="1.043541">
        <ele>2174.060</ele>
        <time>2021-06-19T08:14:24Z</time>
      </trkpt>
      <trkpt lat="42.492790" lon="1.043481">
        <ele>2174.894</ele>
        <time>2021-06-19T08:14:27Z</time>
      </trkpt>
      <trkpt lat="42.492775" lon="1.043423">
        <ele>2175.918</ele>
        <time>2021-06-19T08:14:30Z</time>
      </trkpt>
      <trkpt lat="42.492770" lon="1.043407">
        <ele>2176.198</ele>
        <time>2021-06-19T08:14:31Z</time>
      </trkpt>
      <trkpt lat="42.492746" lon="1.043326">
        <ele>2177.481</ele>
        <time>2021-06-19T08:14:38Z</time>
      </trkpt>
      <trkpt lat="42.492719" lon="1.043263">
        <ele>2178.998</ele>
        <time>2021-06-19T08:15:53Z</time>
      </trkpt>
      <trkpt lat="42.492626" lon="1.043164">
        <ele>2178.214</ele>
        <time>2021-06-19T08:16:00Z</time>
      </trkpt>
      <trkpt lat="42.492578" lon="1.043115">
        <ele>2177.854</ele>
        <time>2021-06-19T08:16:04Z</time>
      </trkpt>
      <trkpt lat="42.492562" lon="1.043100">
        <ele>2177.609</ele>
        <time>2021-06-19T08:16:05Z</time>
      </trkpt>
      <trkpt lat="42.492476" lon="1.042987">
        <ele>2177.508</ele>
        <time>2021-06-19T08:16:11Z</time>
      </trkpt>
      <trkpt lat="42.492463" lon="1.042963">
        <ele>2177.868</ele>
        <time>2021-06-19T08:16:12Z</time>
      </trkpt>
      <trkpt lat="42.492406" lon="1.042798">
        <ele>2181.137</ele>
        <time>2021-06-19T08:16:18Z</time>
      </trkpt>
      <trkpt lat="42.492366" lon="1.042632">
        <ele>2183.333</ele>
        <time>2021-06-19T08:16:24Z</time>
      </trkpt>
      <trkpt lat="42.492271" lon="1.042592">
        <ele>2181.587</ele>
        <time>2021-06-19T08:16:29Z</time>
      </trkpt>
      <trkpt lat="42.492155" lon="1.042658">
        <ele>2178.621</ele>
        <time>2021-06-19T08:16:35Z</time>
      </trkpt>
      <trkpt lat="42.492055" lon="1.042738">
        <ele>2177.731</ele>
        <time>2021-06-19T08:16:40Z</time>
      </trkpt>
      <trkpt lat="42.492014" lon="1.042756">
        <ele>2178.054</ele>
        <time>2021-06-19T08:16:42Z</time>
      </trkpt>
      <trkpt lat="42.491947" lon="1.042761">
        <ele>2179.531</ele>
        <time>2021-06-19T08:16:45Z</time>
      </trkpt>
      <trkpt lat="42.491854" lon="1.042744">
        <ele>2179.732</ele>
        <time>2021-06-19T08:16:49Z</time>
      </trkpt>
      <trkpt lat="42.491794" lon="1.042654">
        <ele>2180.692</ele>
        <time>2021-06-19T08:16:53Z</time>
      </trkpt>
      <trkpt lat="42.491786" lon="1.042595">
        <ele>2181.211</ele>
        <time>2021-06-19T08:16:55Z</time>
      </trkpt>
      <trkpt lat="42.491774" lon="1.042351">
        <ele>2183.608</ele>
        <time>2021-06-19T08:17:03Z</time>
      </trkpt>
      <trkpt lat="42.491764" lon="1.042261">
        <ele>2184.290</ele>
        <time>2021-06-19T08:17:06Z</time>
      </trkpt>
      <trkpt lat="42.491724" lon="1.042127">
        <ele>2184.139</ele>
        <time>2021-06-19T08:17:11Z</time>
      </trkpt>
      <trkpt lat="42.491718" lon="1.042098">
        <ele>2184.365</ele>
        <time>2021-06-19T08:17:12Z</time>
      </trkpt>
      <trkpt lat="42.491701" lon="1.041932">
        <ele>2186.399</ele>
        <time>2021-06-19T08:17:18Z</time>
      </trkpt>
      <trkpt lat="42.491678" lon="1.041853">
        <ele>2186.423</ele>
        <time>2021-06-19T08:17:21Z</time>
      </trkpt>
      <trkpt lat="42.491654" lon="1.041773">
        <ele>2186.533</ele>
        <time>2021-06-19T08:17:24Z</time>
      </trkpt>
      <trkpt lat="42.491619" lon="1.041531">
        <ele>2188.756</ele>
        <time>2021-06-19T08:17:33Z</time>
      </trkpt>
      <trkpt lat="42.491611" lon="1.041479">
        <ele>2189.013</ele>
        <time>2021-06-19T08:17:35Z</time>
      </trkpt>
      <trkpt lat="42.491574" lon="1.041270">
        <ele>2189.571</ele>
        <time>2021-06-19T08:17:43Z</time>
      </trkpt>
      <trkpt lat="42.491568" lon="1.041049">
        <ele>2190.841</ele>
        <time>2021-06-19T08:17:51Z</time>
      </trkpt>
      <trkpt lat="42.491571" lon="1.040993">
        <ele>2191.115</ele>
        <time>2021-06-19T08:17:53Z</time>
      </trkpt>
      <trkpt lat="42.491599" lon="1.040807">
        <ele>2193.008</ele>
        <time>2021-06-19T08:18:00Z</time>
      </trkpt>
      <trkpt lat="42.491603" lon="1.040780">
        <ele>2193.264</ele>
        <time>2021-06-19T08:18:01Z</time>
      </trkpt>
      <trkpt lat="42.491621" lon="1.040588">
        <ele>2193.653</ele>
        <time>2021-06-19T08:18:08Z</time>
      </trkpt>
      <trkpt lat="42.491620" lon="1.040560">
        <ele>2193.579</ele>
        <time>2021-06-19T08:18:09Z</time>
      </trkpt>
      <trkpt lat="42.491607" lon="1.040390">
        <ele>2193.433</ele>
        <time>2021-06-19T08:18:15Z</time>
      </trkpt>
      <trkpt lat="42.491614" lon="1.040181">
        <ele>2193.657</ele>
        <time>2021-06-19T08:18:23Z</time>
      </trkpt>
      <trkpt lat="42.491670" lon="1.040040">
        <ele>2194.467</ele>
        <time>2021-06-19T08:18:29Z</time>
      </trkpt>
      <trkpt lat="42.491736" lon="1.039894">
        <ele>2196.750</ele>
        <time>2021-06-19T08:18:36Z</time>
      </trkpt>
      <trkpt lat="42.491719" lon="1.039734">
        <ele>2195.177</ele>
        <time>2021-06-19T08:18:42Z</time>
      </trkpt>
      <trkpt lat="42.491655" lon="1.039655">
        <ele>2194.147</ele>
        <time>2021-06-19T08:18:48Z</time>
      </trkpt>
      <trkpt lat="42.491656" lon="1.039656">
        <ele>2194.129</ele>
        <time>2021-06-19T08:18:49Z</time>
      </trkpt>
      <trkpt lat="42.491632" lon="1.039632">
        <ele>2194.221</ele>
        <time>2021-06-19T08:19:17Z</time>
      </trkpt>
      <trkpt lat="42.491604" lon="1.039602">
        <ele>2194.508</ele>
        <time>2021-06-19T08:19:19Z</time>
      </trkpt>
      <trkpt lat="42.491475" lon="1.039517">
        <ele>2194.621</ele>
        <time>2021-06-19T08:19:26Z</time>
      </trkpt>
      <trkpt lat="42.491317" lon="1.039388">
        <ele>2195.320</ele>
        <time>2021-06-19T08:19:35Z</time>
      </trkpt>
      <trkpt lat="42.491284" lon="1.039355">
        <ele>2195.616</ele>
        <time>2021-06-19T08:19:39Z</time>
      </trkpt>
      <trkpt lat="42.491284" lon="1.039354">
        <ele>2195.620</ele>
        <time>2021-06-19T08:19:40Z</time>
      </trkpt>
      <trkpt lat="42.491216" lon="1.039313">
        <ele>2195.834</ele>
        <time>2021-06-19T08:21:37Z</time>
      </trkpt>
      <trkpt lat="42.491167" lon="1.039306">
        <ele>2195.564</ele>
        <time>2021-06-19T08:21:40Z</time>
      </trkpt>
      <trkpt lat="42.491034" lon="1.039294">
        <ele>2196.027</ele>
        <time>2021-06-19T08:21:48Z</time>
      </trkpt>
      <trkpt lat="42.490961" lon="1.039315">
        <ele>2196.154</ele>
        <time>2021-06-19T08:21:52Z</time>
      </trkpt>
      <trkpt lat="42.490928" lon="1.039336">
        <ele>2195.638</ele>
        <time>2021-06-19T08:21:54Z</time>
      </trkpt>
      <trkpt lat="42.490855" lon="1.039383">
        <ele>2194.370</ele>
        <time>2021-06-19T08:21:58Z</time>
      </trkpt>
      <trkpt lat="42.490796" lon="1.039413">
        <ele>2193.717</ele>
        <time>2021-06-19T08:22:01Z</time>
      </trkpt>
      <trkpt lat="42.490673" lon="1.039418">
        <ele>2194.808</ele>
        <time>2021-06-19T08:22:08Z</time>
      </trkpt>
      <trkpt lat="42.490560" lon="1.039437">
        <ele>2195.370</ele>
        <time>2021-06-19T08:22:16Z</time>
      </trkpt>
      <trkpt lat="42.490428" lon="1.039454">
        <ele>2194.869</ele>
        <time>2021-06-19T08:22:23Z</time>
      </trkpt>
      <trkpt lat="42.490332" lon="1.039449">
        <ele>2194.995</ele>
        <time>2021-06-19T08:22:28Z</time>
      </trkpt>
      <trkpt lat="42.490274" lon="1.039437">
        <ele>2195.329</ele>
        <time>2021-06-19T08:22:31Z</time>
      </trkpt>
      <trkpt lat="42.490118" lon="1.039467">
        <ele>2195.083</ele>
        <time>2021-06-19T08:22:38Z</time>
      </trkpt>
      <trkpt lat="42.489968" lon="1.039485">
        <ele>2195.183</ele>
        <time>2021-06-19T08:22:45Z</time>
      </trkpt>
      <trkpt lat="42.489949" lon="1.039488">
        <ele>2195.186</ele>
        <time>2021-06-19T08:22:46Z</time>
      </trkpt>
      <trkpt lat="42.489826" lon="1.039509">
        <ele>2195.363</ele>
        <time>2021-06-19T08:22:52Z</time>
      </trkpt>
      <trkpt lat="42.489637" lon="1.039482">
        <ele>2196.188</ele>
        <time>2021-06-19T08:23:01Z</time>
      </trkpt>
      <trkpt lat="42.489569" lon="1.039475">
        <ele>2196.024</ele>
        <time>2021-06-19T08:23:04Z</time>
      </trkpt>
      <trkpt lat="42.489502" lon="1.039461">
        <ele>2196.026</ele>
        <time>2021-06-19T08:23:07Z</time>
      </trkpt>
      <trkpt lat="42.489383" lon="1.039402">
        <ele>2196.108</ele>
        <time>2021-06-19T08:23:13Z</time>
      </trkpt>
      <trkpt lat="42.489327" lon="1.039303">
        <ele>2197.055</ele>
        <time>2021-06-19T08:23:18Z</time>
      </trkpt>
      <trkpt lat="42.489326" lon="1.039300">
        <ele>2197.014</ele>
        <time>2021-06-19T08:23:20Z</time>
      </trkpt>
      <trkpt lat="42.489301" lon="1.039269">
        <ele>2197.170</ele>
        <time>2021-06-19T08:23:41Z</time>
      </trkpt>
      <trkpt lat="42.489286" lon="1.039248">
        <ele>2197.194</ele>
        <time>2021-06-19T08:23:42Z</time>
      </trkpt>
      <trkpt lat="42.489179" lon="1.039081">
        <ele>2197.678</ele>
        <time>2021-06-19T08:23:48Z</time>
      </trkpt>
      <trkpt lat="42.489118" lon="1.038996">
        <ele>2197.928</ele>
        <time>2021-06-19T08:23:52Z</time>
      </trkpt>
      <trkpt lat="42.489085" lon="1.038954">
        <ele>2197.931</ele>
        <time>2021-06-19T08:23:54Z</time>
      </trkpt>
      <trkpt lat="42.489051" lon="1.038907">
        <ele>2197.838</ele>
        <time>2021-06-19T08:23:56Z</time>
      </trkpt>
      <trkpt lat="42.489034" lon="1.038883">
        <ele>2197.941</ele>
        <time>2021-06-19T08:23:57Z</time>
      </trkpt>
      <trkpt lat="42.488896" lon="1.038749">
        <ele>2196.881</ele>
        <time>2021-06-19T08:24:04Z</time>
      </trkpt>
      <trkpt lat="42.488788" lon="1.038625">
        <ele>2196.709</ele>
        <time>2021-06-19T08:24:10Z</time>
      </trkpt>
      <trkpt lat="42.488660" lon="1.038499">
        <ele>2196.208</ele>
        <time>2021-06-19T08:24:17Z</time>
      </trkpt>
      <trkpt lat="42.488539" lon="1.038384">
        <ele>2196.491</ele>
        <time>2021-06-19T08:24:23Z</time>
      </trkpt>
      <trkpt lat="42.488438" lon="1.038285">
        <ele>2196.880</ele>
        <time>2021-06-19T08:24:28Z</time>
      </trkpt>
      <trkpt lat="42.488283" lon="1.038125">
        <ele>2196.776</ele>
        <time>2021-06-19T08:24:36Z</time>
      </trkpt>
      <trkpt lat="42.488264" lon="1.038103">
        <ele>2196.840</ele>
        <time>2021-06-19T08:24:37Z</time>
      </trkpt>
      <trkpt lat="42.488102" lon="1.037936">
        <ele>2197.824</ele>
        <time>2021-06-19T08:24:45Z</time>
      </trkpt>
      <trkpt lat="42.487981" lon="1.037841">
        <ele>2198.364</ele>
        <time>2021-06-19T08:24:50Z</time>
      </trkpt>
      <trkpt lat="42.487879" lon="1.037760">
        <ele>2198.717</ele>
        <time>2021-06-19T08:24:54Z</time>
      </trkpt>
      <trkpt lat="42.487732" lon="1.037629">
        <ele>2198.524</ele>
        <time>2021-06-19T08:25:00Z</time>
      </trkpt>
      <trkpt lat="42.487660" lon="1.037564">
        <ele>2198.678</ele>
        <time>2021-06-19T08:25:03Z</time>
      </trkpt>
      <trkpt lat="42.487498" lon="1.037408">
        <ele>2199.333</ele>
        <time>2021-06-19T08:25:10Z</time>
      </trkpt>
      <trkpt lat="42.487478" lon="1.037381">
        <ele>2199.226</ele>
        <time>2021-06-19T08:25:11Z</time>
      </trkpt>
      <trkpt lat="42.487382" lon="1.037282">
        <ele>2198.808</ele>
        <time>2021-06-19T08:25:15Z</time>
      </trkpt>
      <trkpt lat="42.487223" lon="1.037105">
        <ele>2198.724</ele>
        <time>2021-06-19T08:25:21Z</time>
      </trkpt>
      <trkpt lat="42.487074" lon="1.036847">
        <ele>2198.023</ele>
        <time>2021-06-19T08:25:27Z</time>
      </trkpt>
      <trkpt lat="42.487048" lon="1.036798">
        <ele>2197.949</ele>
        <time>2021-06-19T08:25:28Z</time>
      </trkpt>
      <trkpt lat="42.486954" lon="1.036667">
        <ele>2197.293</ele>
        <time>2021-06-19T08:25:31Z</time>
      </trkpt>
      <trkpt lat="42.486843" lon="1.036566">
        <ele>2197.827</ele>
        <time>2021-06-19T08:25:34Z</time>
      </trkpt>
      <trkpt lat="42.486702" lon="1.036551">
        <ele>2196.447</ele>
        <time>2021-06-19T08:25:37Z</time>
      </trkpt>
      <trkpt lat="42.486606" lon="1.036605">
        <ele>2194.750</ele>
        <time>2021-06-19T08:25:39Z</time>
      </trkpt>
      <trkpt lat="42.486498" lon="1.036669">
        <ele>2193.637</ele>
        <time>2021-06-19T08:25:41Z</time>
      </trkpt>
      <trkpt lat="42.486433" lon="1.036697">
        <ele>2193.291</ele>
        <time>2021-06-19T08:25:42Z</time>
      </trkpt>
      <trkpt lat="42.486086" lon="1.036760">
        <ele>2191.781</ele>
        <time>2021-06-19T08:25:47Z</time>
      </trkpt>
      <trkpt lat="42.486016" lon="1.036755">
        <ele>2191.119</ele>
        <time>2021-06-19T08:25:48Z</time>
      </trkpt>
      <trkpt lat="42.485949" lon="1.036740">
        <ele>2190.708</ele>
        <time>2021-06-19T08:25:49Z</time>
      </trkpt>
      <trkpt lat="42.485883" lon="1.036716">
        <ele>2190.576</ele>
        <time>2021-06-19T08:25:50Z</time>
      </trkpt>
      <trkpt lat="42.485755" lon="1.036642">
        <ele>2190.025</ele>
        <time>2021-06-19T08:25:52Z</time>
      </trkpt>
      <trkpt lat="42.485595" lon="1.036470">
        <ele>2189.661</ele>
        <time>2021-06-19T08:25:55Z</time>
      </trkpt>
      <trkpt lat="42.485558" lon="1.036393">
        <ele>2190.025</ele>
        <time>2021-06-19T08:25:56Z</time>
      </trkpt>
      <trkpt lat="42.485485" lon="1.036256">
        <ele>2189.859</ele>
        <time>2021-06-19T08:25:58Z</time>
      </trkpt>
      <trkpt lat="42.485384" lon="1.036150">
        <ele>2188.849</ele>
        <time>2021-06-19T08:26:00Z</time>
      </trkpt>
      <trkpt lat="42.485326" lon="1.036115">
        <ele>2188.012</ele>
        <time>2021-06-19T08:26:01Z</time>
      </trkpt>
      <trkpt lat="42.485265" lon="1.036088">
        <ele>2187.519</ele>
        <time>2021-06-19T08:26:02Z</time>
      </trkpt>
      <trkpt lat="42.485154" lon="1.036036">
        <ele>2187.037</ele>
        <time>2021-06-19T08:26:04Z</time>
      </trkpt>
      <trkpt lat="42.485030" lon="1.035950">
        <ele>2186.749</ele>
        <time>2021-06-19T08:26:08Z</time>
      </trkpt>
      <trkpt lat="42.484924" lon="1.035892">
        <ele>2186.213</ele>
        <time>2021-06-19T08:26:11Z</time>
      </trkpt>
      <trkpt lat="42.484881" lon="1.035886">
        <ele>2185.608</ele>
        <time>2021-06-19T08:26:12Z</time>
      </trkpt>
      <trkpt lat="42.484837" lon="1.035871">
        <ele>2185.260</ele>
        <time>2021-06-19T08:26:13Z</time>
      </trkpt>
      <trkpt lat="42.484684" lon="1.035801">
        <ele>2184.589</ele>
        <time>2021-06-19T08:26:16Z</time>
      </trkpt>
      <trkpt lat="42.484629" lon="1.035784">
        <ele>2184.475</ele>
        <time>2021-06-19T08:26:17Z</time>
      </trkpt>
      <trkpt lat="42.484455" lon="1.035765">
        <ele>2183.149</ele>
        <time>2021-06-19T08:26:20Z</time>
      </trkpt>
      <trkpt lat="42.484397" lon="1.035752">
        <ele>2182.873</ele>
        <time>2021-06-19T08:26:21Z</time>
      </trkpt>
      <trkpt lat="42.484175" lon="1.035660">
        <ele>2182.583</ele>
        <time>2021-06-19T08:26:25Z</time>
      </trkpt>
      <trkpt lat="42.484064" lon="1.035631">
        <ele>2182.256</ele>
        <time>2021-06-19T08:26:27Z</time>
      </trkpt>
      <trkpt lat="42.484008" lon="1.035626">
        <ele>2181.853</ele>
        <time>2021-06-19T08:26:28Z</time>
      </trkpt>
      <trkpt lat="42.483895" lon="1.035625">
        <ele>2180.816</ele>
        <time>2021-06-19T08:26:30Z</time>
      </trkpt>
      <trkpt lat="42.483723" lon="1.035614">
        <ele>2179.876</ele>
        <time>2021-06-19T08:26:33Z</time>
      </trkpt>
      <trkpt lat="42.483545" lon="1.035570">
        <ele>2179.313</ele>
        <time>2021-06-19T08:26:36Z</time>
      </trkpt>
      <trkpt lat="42.483488" lon="1.035541">
        <ele>2179.208</ele>
        <time>2021-06-19T08:26:37Z</time>
      </trkpt>
      <trkpt lat="42.483320" lon="1.035432">
        <ele>2178.868</ele>
        <time>2021-06-19T08:26:40Z</time>
      </trkpt>
      <trkpt lat="42.483212" lon="1.035348">
        <ele>2178.637</ele>
        <time>2021-06-19T08:26:42Z</time>
      </trkpt>
      <trkpt lat="42.483155" lon="1.035313">
        <ele>2178.313</ele>
        <time>2021-06-19T08:26:43Z</time>
      </trkpt>
      <trkpt lat="42.483034" lon="1.035254">
        <ele>2177.687</ele>
        <time>2021-06-19T08:26:45Z</time>
      </trkpt>
      <trkpt lat="42.482899" lon="1.035207">
        <ele>2177.061</ele>
        <time>2021-06-19T08:26:47Z</time>
      </trkpt>
      <trkpt lat="42.482827" lon="1.035193">
        <ele>2176.231</ele>
        <time>2021-06-19T08:26:48Z</time>
      </trkpt>
      <trkpt lat="42.482754" lon="1.035188">
        <ele>2175.514</ele>
        <time>2021-06-19T08:26:49Z</time>
      </trkpt>
      <trkpt lat="42.482607" lon="1.035204">
        <ele>2174.871</ele>
        <time>2021-06-19T08:26:51Z</time>
      </trkpt>
      <trkpt lat="42.482536" lon="1.035211">
        <ele>2174.469</ele>
        <time>2021-06-19T08:26:52Z</time>
      </trkpt>
      <trkpt lat="42.482393" lon="1.035215">
        <ele>2173.504</ele>
        <time>2021-06-19T08:26:54Z</time>
      </trkpt>
      <trkpt lat="42.482191" lon="1.035193">
        <ele>2172.824</ele>
        <time>2021-06-19T08:26:57Z</time>
      </trkpt>
      <trkpt lat="42.482124" lon="1.035179">
        <ele>2172.608</ele>
        <time>2021-06-19T08:26:58Z</time>
      </trkpt>
      <trkpt lat="42.481873" lon="1.035130">
        <ele>2170.733</ele>
        <time>2021-06-19T08:27:02Z</time>
      </trkpt>
      <trkpt lat="42.481816" lon="1.035106">
        <ele>2170.142</ele>
        <time>2021-06-19T08:27:03Z</time>
      </trkpt>
      <trkpt lat="42.481592" lon="1.034970">
        <ele>2169.218</ele>
        <time>2021-06-19T08:27:07Z</time>
      </trkpt>
      <trkpt lat="42.481456" lon="1.034951">
        <ele>2168.262</ele>
        <time>2021-06-19T08:27:09Z</time>
      </trkpt>
      <trkpt lat="42.481307" lon="1.034929">
        <ele>2166.826</ele>
        <time>2021-06-19T08:27:11Z</time>
      </trkpt>
      <trkpt lat="42.481233" lon="1.034906">
        <ele>2166.496</ele>
        <time>2021-06-19T08:27:12Z</time>
      </trkpt>
      <trkpt lat="42.481022" lon="1.034844">
        <ele>2166.259</ele>
        <time>2021-06-19T08:27:15Z</time>
      </trkpt>
      <trkpt lat="42.480887" lon="1.034870">
        <ele>2164.536</ele>
        <time>2021-06-19T08:27:17Z</time>
      </trkpt>
      <trkpt lat="42.480754" lon="1.034899">
        <ele>2162.516</ele>
        <time>2021-06-19T08:27:19Z</time>
      </trkpt>
      <trkpt lat="42.480562" lon="1.034819">
        <ele>2162.676</ele>
        <time>2021-06-19T08:27:22Z</time>
      </trkpt>
      <trkpt lat="42.480496" lon="1.034790">
        <ele>2162.913</ele>
        <time>2021-06-19T08:27:23Z</time>
      </trkpt>
      <trkpt lat="42.480428" lon="1.034774">
        <ele>2162.908</ele>
        <time>2021-06-19T08:27:24Z</time>
      </trkpt>
      <trkpt lat="42.480359" lon="1.034775">
        <ele>2162.428</ele>
        <time>2021-06-19T08:27:25Z</time>
      </trkpt>
      <trkpt lat="42.480162" lon="1.034786">
        <ele>2161.297</ele>
        <time>2021-06-19T08:27:28Z</time>
      </trkpt>
      <trkpt lat="42.479971" lon="1.034757">
        <ele>2160.923</ele>
        <time>2021-06-19T08:27:31Z</time>
      </trkpt>
      <trkpt lat="42.479908" lon="1.034739">
        <ele>2160.697</ele>
        <time>2021-06-19T08:27:32Z</time>
      </trkpt>
      <trkpt lat="42.479845" lon="1.034713">
        <ele>2160.651</ele>
        <time>2021-06-19T08:27:33Z</time>
      </trkpt>
      <trkpt lat="42.479726" lon="1.034634">
        <ele>2161.011</ele>
        <time>2021-06-19T08:27:35Z</time>
      </trkpt>
      <trkpt lat="42.479538" lon="1.034507">
        <ele>2160.824</ele>
        <time>2021-06-19T08:27:38Z</time>
      </trkpt>
      <trkpt lat="42.479397" lon="1.034471">
        <ele>2160.141</ele>
        <time>2021-06-19T08:27:40Z</time>
      </trkpt>
      <trkpt lat="42.479114" lon="1.034433">
        <ele>2159.616</ele>
        <time>2021-06-19T08:27:44Z</time>
      </trkpt>
      <trkpt lat="42.478904" lon="1.034370">
        <ele>2158.676</ele>
        <time>2021-06-19T08:27:47Z</time>
      </trkpt>
      <trkpt lat="42.478562" lon="1.034273">
        <ele>2158.313</ele>
        <time>2021-06-19T08:27:52Z</time>
      </trkpt>
      <trkpt lat="42.478495" lon="1.034258">
        <ele>2158.308</ele>
        <time>2021-06-19T08:27:53Z</time>
      </trkpt>
      <trkpt lat="42.478430" lon="1.034241">
        <ele>2158.358</ele>
        <time>2021-06-19T08:27:54Z</time>
      </trkpt>
      <trkpt lat="42.478366" lon="1.034220">
        <ele>2158.477</ele>
        <time>2021-06-19T08:27:55Z</time>
      </trkpt>
      <trkpt lat="42.478303" lon="1.034199">
        <ele>2158.463</ele>
        <time>2021-06-19T08:27:56Z</time>
      </trkpt>
      <trkpt lat="42.477994" lon="1.034047">
        <ele>2158.097</ele>
        <time>2021-06-19T08:28:01Z</time>
      </trkpt>
      <trkpt lat="42.477863" lon="1.033984">
        <ele>2157.481</ele>
        <time>2021-06-19T08:28:03Z</time>
      </trkpt>
      <trkpt lat="42.477649" lon="1.033893">
        <ele>2156.591</ele>
        <time>2021-06-19T08:28:06Z</time>
      </trkpt>
      <trkpt lat="42.477503" lon="1.033862">
        <ele>2155.614</ele>
        <time>2021-06-19T08:28:08Z</time>
      </trkpt>
      <trkpt lat="42.477383" lon="1.033785">
        <ele>2155.641</ele>
        <time>2021-06-19T08:28:10Z</time>
      </trkpt>
      <trkpt lat="42.477285" lon="1.033630">
        <ele>2155.449</ele>
        <time>2021-06-19T08:28:13Z</time>
      </trkpt>
      <trkpt lat="42.477261" lon="1.033574">
        <ele>2155.202</ele>
        <time>2021-06-19T08:28:14Z</time>
      </trkpt>
      <trkpt lat="42.477237" lon="1.033516">
        <ele>2154.822</ele>
        <time>2021-06-19T08:28:15Z</time>
      </trkpt>
      <trkpt lat="42.477214" lon="1.033453">
        <ele>2154.308</ele>
        <time>2021-06-19T08:28:16Z</time>
      </trkpt>
      <trkpt lat="42.477181" lon="1.033315">
        <ele>2153.711</ele>
        <time>2021-06-19T08:28:18Z</time>
      </trkpt>
      <trkpt lat="42.477169" lon="1.033242">
        <ele>2153.910</ele>
        <time>2021-06-19T08:28:19Z</time>
      </trkpt>
      <trkpt lat="42.477157" lon="1.033169">
        <ele>2154.166</ele>
        <time>2021-06-19T08:28:20Z</time>
      </trkpt>
      <trkpt lat="42.477085" lon="1.032967">
        <ele>2154.520</ele>
        <time>2021-06-19T08:28:23Z</time>
      </trkpt>
      <trkpt lat="42.477053" lon="1.032910">
        <ele>2154.464</ele>
        <time>2021-06-19T08:28:24Z</time>
      </trkpt>
      <trkpt lat="42.476959" lon="1.032750">
        <ele>2153.214</ele>
        <time>2021-06-19T08:28:27Z</time>
      </trkpt>
      <trkpt lat="42.476934" lon="1.032692">
        <ele>2152.697</ele>
        <time>2021-06-19T08:28:28Z</time>
      </trkpt>
      <trkpt lat="42.476914" lon="1.032628">
        <ele>2152.324</ele>
        <time>2021-06-19T08:28:29Z</time>
      </trkpt>
      <trkpt lat="42.476901" lon="1.032562">
        <ele>2152.321</ele>
        <time>2021-06-19T08:28:30Z</time>
      </trkpt>
      <trkpt lat="42.476899" lon="1.032352">
        <ele>2150.841</ele>
        <time>2021-06-19T08:28:33Z</time>
      </trkpt>
      <trkpt lat="42.476906" lon="1.032279">
        <ele>2150.305</ele>
        <time>2021-06-19T08:28:34Z</time>
      </trkpt>
      <trkpt lat="42.476935" lon="1.032134">
        <ele>2149.508</ele>
        <time>2021-06-19T08:28:36Z</time>
      </trkpt>
      <trkpt lat="42.476957" lon="1.032065">
        <ele>2149.459</ele>
        <time>2021-06-19T08:28:37Z</time>
      </trkpt>
      <trkpt lat="42.476983" lon="1.031995">
        <ele>2149.638</ele>
        <time>2021-06-19T08:28:38Z</time>
      </trkpt>
      <trkpt lat="42.477009" lon="1.031924">
        <ele>2149.784</ele>
        <time>2021-06-19T08:28:39Z</time>
      </trkpt>
      <trkpt lat="42.477173" lon="1.031536">
        <ele>2149.318</ele>
        <time>2021-06-19T08:28:45Z</time>
      </trkpt>
      <trkpt lat="42.477202" lon="1.031479">
        <ele>2149.492</ele>
        <time>2021-06-19T08:28:46Z</time>
      </trkpt>
      <trkpt lat="42.477314" lon="1.031256">
        <ele>2149.572</ele>
        <time>2021-06-19T08:28:50Z</time>
      </trkpt>
      <trkpt lat="42.477405" lon="1.031089">
        <ele>2149.245</ele>
        <time>2021-06-19T08:28:53Z</time>
      </trkpt>
      <trkpt lat="42.477663" lon="1.030651">
        <ele>2148.862</ele>
        <time>2021-06-19T08:29:01Z</time>
      </trkpt>
      <trkpt lat="42.477720" lon="1.030549">
        <ele>2148.159</ele>
        <time>2021-06-19T08:29:03Z</time>
      </trkpt>
      <trkpt lat="42.477795" lon="1.030396">
        <ele>2147.803</ele>
        <time>2021-06-19T08:29:06Z</time>
      </trkpt>
      <trkpt lat="42.477953" lon="1.030117">
        <ele>2147.923</ele>
        <time>2021-06-19T08:29:12Z</time>
      </trkpt>
      <trkpt lat="42.477984" lon="1.030074">
        <ele>2148.308</ele>
        <time>2021-06-19T08:29:13Z</time>
      </trkpt>
      <trkpt lat="42.478129" lon="1.029786">
        <ele>2148.132</ele>
        <time>2021-06-19T08:29:19Z</time>
      </trkpt>
      <trkpt lat="42.478156" lon="1.029740">
        <ele>2148.271</ele>
        <time>2021-06-19T08:29:20Z</time>
      </trkpt>
      <trkpt lat="42.478211" lon="1.029651">
        <ele>2149.347</ele>
        <time>2021-06-19T08:29:22Z</time>
      </trkpt>
      <trkpt lat="42.478245" lon="1.029545">
        <ele>2149.841</ele>
        <time>2021-06-19T08:29:24Z</time>
      </trkpt>
      <trkpt lat="42.478239" lon="1.029356">
        <ele>2148.065</ele>
        <time>2021-06-19T08:29:27Z</time>
      </trkpt>
      <trkpt lat="42.478232" lon="1.029285">
        <ele>2147.435</ele>
        <time>2021-06-19T08:29:28Z</time>
      </trkpt>
      <trkpt lat="42.478225" lon="1.029052">
        <ele>2147.058</ele>
        <time>2021-06-19T08:29:31Z</time>
      </trkpt>
      <trkpt lat="42.478204" lon="1.028893">
        <ele>2146.115</ele>
        <time>2021-06-19T08:29:33Z</time>
      </trkpt>
      <trkpt lat="42.478197" lon="1.028818">
        <ele>2146.348</ele>
        <time>2021-06-19T08:29:34Z</time>
      </trkpt>
      <trkpt lat="42.478163" lon="1.028617">
        <ele>2146.161</ele>
        <time>2021-06-19T08:29:37Z</time>
      </trkpt>
      <trkpt lat="42.478142" lon="1.028554">
        <ele>2145.717</ele>
        <time>2021-06-19T08:29:38Z</time>
      </trkpt>
      <trkpt lat="42.478081" lon="1.028354">
        <ele>2145.108</ele>
        <time>2021-06-19T08:29:41Z</time>
      </trkpt>
      <trkpt lat="42.478066" lon="1.028283">
        <ele>2144.991</ele>
        <time>2021-06-19T08:29:42Z</time>
      </trkpt>
      <trkpt lat="42.478036" lon="1.028140">
        <ele>2144.510</ele>
        <time>2021-06-19T08:29:44Z</time>
      </trkpt>
      <trkpt lat="42.477947" lon="1.027690">
        <ele>2142.976</ele>
        <time>2021-06-19T08:29:50Z</time>
      </trkpt>
      <trkpt lat="42.477925" lon="1.027613">
        <ele>2142.570</ele>
        <time>2021-06-19T08:29:51Z</time>
      </trkpt>
      <trkpt lat="42.477867" lon="1.027460">
        <ele>2141.424</ele>
        <time>2021-06-19T08:29:53Z</time>
      </trkpt>
      <trkpt lat="42.477798" lon="1.027305">
        <ele>2141.224</ele>
        <time>2021-06-19T08:29:55Z</time>
      </trkpt>
      <trkpt lat="42.477719" lon="1.027163">
        <ele>2140.577</ele>
        <time>2021-06-19T08:29:57Z</time>
      </trkpt>
      <trkpt lat="42.477681" lon="1.027089">
        <ele>2140.144</ele>
        <time>2021-06-19T08:29:58Z</time>
      </trkpt>
      <trkpt lat="42.477616" lon="1.026931">
        <ele>2139.793</ele>
        <time>2021-06-19T08:30:00Z</time>
      </trkpt>
      <trkpt lat="42.477504" lon="1.026575">
        <ele>2138.865</ele>
        <time>2021-06-19T08:30:04Z</time>
      </trkpt>
      <trkpt lat="42.477430" lon="1.026300">
        <ele>2137.821</ele>
        <time>2021-06-19T08:30:07Z</time>
      </trkpt>
      <trkpt lat="42.477390" lon="1.026120">
        <ele>2137.208</ele>
        <time>2021-06-19T08:30:09Z</time>
      </trkpt>
      <trkpt lat="42.477360" lon="1.025939">
        <ele>2136.676</ele>
        <time>2021-06-19T08:30:11Z</time>
      </trkpt>
      <trkpt lat="42.477332" lon="1.025766">
        <ele>2136.135</ele>
        <time>2021-06-19T08:30:13Z</time>
      </trkpt>
      <trkpt lat="42.477287" lon="1.025416">
        <ele>2135.921</ele>
        <time>2021-06-19T08:30:17Z</time>
      </trkpt>
      <trkpt lat="42.477271" lon="1.025323">
        <ele>2135.655</ele>
        <time>2021-06-19T08:30:18Z</time>
      </trkpt>
      <trkpt lat="42.477222" lon="1.025044">
        <ele>2134.849</ele>
        <time>2021-06-19T08:30:21Z</time>
      </trkpt>
      <trkpt lat="42.477195" lon="1.024875">
        <ele>2134.599</ele>
        <time>2021-06-19T08:30:23Z</time>
      </trkpt>
      <trkpt lat="42.477136" lon="1.024729">
        <ele>2133.542</ele>
        <time>2021-06-19T08:30:25Z</time>
      </trkpt>
      <trkpt lat="42.477106" lon="1.024652">
        <ele>2133.249</ele>
        <time>2021-06-19T08:30:26Z</time>
      </trkpt>
      <trkpt lat="42.477084" lon="1.024569">
        <ele>2133.174</ele>
        <time>2021-06-19T08:30:27Z</time>
      </trkpt>
      <trkpt lat="42.477044" lon="1.024241">
        <ele>2133.156</ele>
        <time>2021-06-19T08:30:31Z</time>
      </trkpt>
      <trkpt lat="42.476941" lon="1.024030">
        <ele>2131.821</ele>
        <time>2021-06-19T08:30:34Z</time>
      </trkpt>
      <trkpt lat="42.476903" lon="1.023955">
        <ele>2131.708</ele>
        <time>2021-06-19T08:30:35Z</time>
      </trkpt>
      <trkpt lat="42.476703" lon="1.023641">
        <ele>2131.574</ele>
        <time>2021-06-19T08:30:40Z</time>
      </trkpt>
      <trkpt lat="42.476670" lon="1.023604">
        <ele>2131.393</ele>
        <time>2021-06-19T08:30:41Z</time>
      </trkpt>
      <trkpt lat="42.476540" lon="1.023569">
        <ele>2131.459</ele>
        <time>2021-06-19T08:30:44Z</time>
      </trkpt>
      <trkpt lat="42.476443" lon="1.023609">
        <ele>2129.513</ele>
        <time>2021-06-19T08:30:46Z</time>
      </trkpt>
      <trkpt lat="42.476390" lon="1.023630">
        <ele>2128.437</ele>
        <time>2021-06-19T08:30:47Z</time>
      </trkpt>
      <trkpt lat="42.476334" lon="1.023643">
        <ele>2127.837</ele>
        <time>2021-06-19T08:30:48Z</time>
      </trkpt>
      <trkpt lat="42.476018" lon="1.023644">
        <ele>2126.060</ele>
        <time>2021-06-19T08:30:53Z</time>
      </trkpt>
      <trkpt lat="42.475954" lon="1.023628">
        <ele>2125.857</ele>
        <time>2021-06-19T08:30:54Z</time>
      </trkpt>
      <trkpt lat="42.475581" lon="1.023438">
        <ele>2123.995</ele>
        <time>2021-06-19T08:31:00Z</time>
      </trkpt>
      <trkpt lat="42.475277" lon="1.023230">
        <ele>2122.649</ele>
        <time>2021-06-19T08:31:05Z</time>
      </trkpt>
      <trkpt lat="42.474875" lon="1.023072">
        <ele>2120.223</ele>
        <time>2021-06-19T08:31:11Z</time>
      </trkpt>
      <trkpt lat="42.474759" lon="1.023026">
        <ele>2120.208</ele>
        <time>2021-06-19T08:31:13Z</time>
      </trkpt>
      <trkpt lat="42.474652" lon="1.023034">
        <ele>2119.976</ele>
        <time>2021-06-19T08:31:15Z</time>
      </trkpt>
      <trkpt lat="42.474481" lon="1.023088">
        <ele>2118.855</ele>
        <time>2021-06-19T08:31:18Z</time>
      </trkpt>
      <trkpt lat="42.474385" lon="1.023114">
        <ele>2118.241</ele>
        <time>2021-06-19T08:31:20Z</time>
      </trkpt>
      <trkpt lat="42.474309" lon="1.023132">
        <ele>2117.875</ele>
        <time>2021-06-19T08:31:23Z</time>
      </trkpt>
      <trkpt lat="42.474274" lon="1.023161">
        <ele>2117.089</ele>
        <time>2021-06-19T08:31:27Z</time>
      </trkpt>
      <trkpt lat="42.474322" lon="1.023158">
        <ele>2117.029</ele>
        <time>2021-06-19T08:31:31Z</time>
      </trkpt>
      <trkpt lat="42.474391" lon="1.023115">
        <ele>2118.272</ele>
        <time>2021-06-19T08:31:36Z</time>
      </trkpt>
      <trkpt lat="42.474391" lon="1.023116">
        <ele>2118.159</ele>
        <time>2021-06-19T08:31:37Z</time>
      </trkpt>
      <trkpt lat="42.474351" lon="1.023154">
        <ele>2117.033</ele>
        <time>2021-06-19T08:31:50Z</time>
      </trkpt>
      <trkpt lat="42.474311" lon="1.023154">
        <ele>2117.223</ele>
        <time>2021-06-19T08:31:52Z</time>
      </trkpt>
      <trkpt lat="42.474179" lon="1.023174">
        <ele>2117.015</ele>
        <time>2021-06-19T08:31:58Z</time>
      </trkpt>
      <trkpt lat="42.474018" lon="1.023194">
        <ele>2116.508</ele>
        <time>2021-06-19T08:32:03Z</time>
      </trkpt>
      <trkpt lat="42.473748" lon="1.023215">
        <ele>2115.970</ele>
        <time>2021-06-19T08:32:09Z</time>
      </trkpt>
      <trkpt lat="42.473432" lon="1.023265">
        <ele>2114.429</ele>
        <time>2021-06-19T08:32:16Z</time>
      </trkpt>
      <trkpt lat="42.473289" lon="1.023278">
        <ele>2114.125</ele>
        <time>2021-06-19T08:32:21Z</time>
      </trkpt>
      <trkpt lat="42.473144" lon="1.023306">
        <ele>2114.149</ele>
        <time>2021-06-19T08:32:27Z</time>
      </trkpt>
      <trkpt lat="42.473007" lon="1.023343">
        <ele>2113.783</ele>
        <time>2021-06-19T08:32:34Z</time>
      </trkpt>
      <trkpt lat="42.472887" lon="1.023348">
        <ele>2113.293</ele>
        <time>2021-06-19T08:32:40Z</time>
      </trkpt>
      <trkpt lat="42.472791" lon="1.023389">
        <ele>2112.296</ele>
        <time>2021-06-19T08:32:45Z</time>
      </trkpt>
      <trkpt lat="42.472767" lon="1.023382">
        <ele>2112.323</ele>
        <time>2021-06-19T08:32:46Z</time>
      </trkpt>
      <trkpt lat="42.472688" lon="1.023379">
        <ele>2112.222</ele>
        <time>2021-06-19T08:32:49Z</time>
      </trkpt>
      <trkpt lat="42.472635" lon="1.023372">
        <ele>2112.362</ele>
        <time>2021-06-19T08:32:51Z</time>
      </trkpt>
      <trkpt lat="42.472448" lon="1.023390">
        <ele>2111.408</ele>
        <time>2021-06-19T08:32:57Z</time>
      </trkpt>
      <trkpt lat="42.472246" lon="1.023372">
        <ele>2110.208</ele>
        <time>2021-06-19T08:33:02Z</time>
      </trkpt>
      <trkpt lat="42.471935" lon="1.023270">
        <ele>2109.499</ele>
        <time>2021-06-19T08:33:08Z</time>
      </trkpt>
      <trkpt lat="42.471598" lon="1.023094">
        <ele>2108.918</ele>
        <time>2021-06-19T08:33:14Z</time>
      </trkpt>
      <trkpt lat="42.471364" lon="1.022998">
        <ele>2108.224</ele>
        <time>2021-06-19T08:33:18Z</time>
      </trkpt>
      <trkpt lat="42.471118" lon="1.022892">
        <ele>2107.478</ele>
        <time>2021-06-19T08:33:22Z</time>
      </trkpt>
      <trkpt lat="42.470742" lon="1.022679">
        <ele>2105.612</ele>
        <time>2021-06-19T08:33:28Z</time>
      </trkpt>
      <trkpt lat="42.470506" lon="1.022489">
        <ele>2104.312</ele>
        <time>2021-06-19T08:33:32Z</time>
      </trkpt>
      <trkpt lat="42.470462" lon="1.022424">
        <ele>2104.165</ele>
        <time>2021-06-19T08:33:33Z</time>
      </trkpt>
      <trkpt lat="42.470383" lon="1.022231">
        <ele>2105.382</ele>
        <time>2021-06-19T08:33:36Z</time>
      </trkpt>
      <trkpt lat="42.470210" lon="1.021958">
        <ele>2104.097</ele>
        <time>2021-06-19T08:33:41Z</time>
      </trkpt>
      <trkpt lat="42.470082" lon="1.021850">
        <ele>2103.923</ele>
        <time>2021-06-19T08:33:44Z</time>
      </trkpt>
      <trkpt lat="42.469949" lon="1.021730">
        <ele>2104.125</ele>
        <time>2021-06-19T08:33:47Z</time>
      </trkpt>
      <trkpt lat="42.469848" lon="1.021654">
        <ele>2104.108</ele>
        <time>2021-06-19T08:33:49Z</time>
      </trkpt>
      <trkpt lat="42.469683" lon="1.021590">
        <ele>2102.656</ele>
        <time>2021-06-19T08:33:52Z</time>
      </trkpt>
      <trkpt lat="42.469628" lon="1.021572">
        <ele>2101.865</ele>
        <time>2021-06-19T08:33:53Z</time>
      </trkpt>
      <trkpt lat="42.469474" lon="1.021469">
        <ele>2100.811</ele>
        <time>2021-06-19T08:33:56Z</time>
      </trkpt>
      <trkpt lat="42.469379" lon="1.021373">
        <ele>2101.155</ele>
        <time>2021-06-19T08:33:58Z</time>
      </trkpt>
      <trkpt lat="42.469286" lon="1.021300">
        <ele>2101.379</ele>
        <time>2021-06-19T08:34:00Z</time>
      </trkpt>
      <trkpt lat="42.469234" lon="1.021285">
        <ele>2100.559</ele>
        <time>2021-06-19T08:34:01Z</time>
      </trkpt>
      <trkpt lat="42.469183" lon="1.021281">
        <ele>2099.522</ele>
        <time>2021-06-19T08:34:02Z</time>
      </trkpt>
      <trkpt lat="42.469079" lon="1.021286">
        <ele>2098.889</ele>
        <time>2021-06-19T08:34:04Z</time>
      </trkpt>
      <trkpt lat="42.468972" lon="1.021302">
        <ele>2098.339</ele>
        <time>2021-06-19T08:34:06Z</time>
      </trkpt>
      <trkpt lat="42.468796" lon="1.021325">
        <ele>2097.301</ele>
        <time>2021-06-19T08:34:09Z</time>
      </trkpt>
      <trkpt lat="42.468616" lon="1.021293">
        <ele>2097.421</ele>
        <time>2021-06-19T08:34:12Z</time>
      </trkpt>
      <trkpt lat="42.468504" lon="1.021274">
        <ele>2097.708</ele>
        <time>2021-06-19T08:34:14Z</time>
      </trkpt>
      <trkpt lat="42.468339" lon="1.021303">
        <ele>2096.540</ele>
        <time>2021-06-19T08:34:17Z</time>
      </trkpt>
      <trkpt lat="42.468235" lon="1.021355">
        <ele>2096.069</ele>
        <time>2021-06-19T08:34:19Z</time>
      </trkpt>
      <trkpt lat="42.468182" lon="1.021383">
        <ele>2095.815</ele>
        <time>2021-06-19T08:34:20Z</time>
      </trkpt>
      <trkpt lat="42.468008" lon="1.021448">
        <ele>2095.039</ele>
        <time>2021-06-19T08:34:23Z</time>
      </trkpt>
      <trkpt lat="42.467625" lon="1.021451">
        <ele>2093.833</ele>
        <time>2021-06-19T08:34:29Z</time>
      </trkpt>
      <trkpt lat="42.467108" lon="1.021375">
        <ele>2094.073</ele>
        <time>2021-06-19T08:34:37Z</time>
      </trkpt>
      <trkpt lat="42.467043" lon="1.021373">
        <ele>2093.966</ele>
        <time>2021-06-19T08:34:38Z</time>
      </trkpt>
      <trkpt lat="42.466803" lon="1.021396">
        <ele>2093.833</ele>
        <time>2021-06-19T08:34:42Z</time>
      </trkpt>
      <trkpt lat="42.466584" lon="1.021394">
        <ele>2094.579</ele>
        <time>2021-06-19T08:34:46Z</time>
      </trkpt>
      <trkpt lat="42.466430" lon="1.021365">
        <ele>2095.005</ele>
        <time>2021-06-19T08:34:49Z</time>
      </trkpt>
      <trkpt lat="42.466049" lon="1.021291">
        <ele>2096.725</ele>
        <time>2021-06-19T08:34:57Z</time>
      </trkpt>
      <trkpt lat="42.465662" lon="1.021207">
        <ele>2095.408</ele>
        <time>2021-06-19T08:35:06Z</time>
      </trkpt>
      <trkpt lat="42.465454" lon="1.021036">
        <ele>2095.864</ele>
        <time>2021-06-19T08:35:11Z</time>
      </trkpt>
      <trkpt lat="42.465380" lon="1.020926">
        <ele>2096.273</ele>
        <time>2021-06-19T08:35:13Z</time>
      </trkpt>
      <trkpt lat="42.465300" lon="1.020821">
        <ele>2096.149</ele>
        <time>2021-06-19T08:35:15Z</time>
      </trkpt>
      <trkpt lat="42.465255" lon="1.020781">
        <ele>2096.053</ele>
        <time>2021-06-19T08:35:16Z</time>
      </trkpt>
      <trkpt lat="42.465071" lon="1.020665">
        <ele>2096.377</ele>
        <time>2021-06-19T08:35:20Z</time>
      </trkpt>
      <trkpt lat="42.464971" lon="1.020641">
        <ele>2096.347</ele>
        <time>2021-06-19T08:35:22Z</time>
      </trkpt>
      <trkpt lat="42.464829" lon="1.020708">
        <ele>2096.690</ele>
        <time>2021-06-19T08:35:25Z</time>
      </trkpt>
      <trkpt lat="42.464789" lon="1.020751">
        <ele>2096.197</ele>
        <time>2021-06-19T08:35:26Z</time>
      </trkpt>
      <trkpt lat="42.464706" lon="1.020831">
        <ele>2095.446</ele>
        <time>2021-06-19T08:35:28Z</time>
      </trkpt>
      <trkpt lat="42.464617" lon="1.020902">
        <ele>2095.488</ele>
        <time>2021-06-19T08:35:30Z</time>
      </trkpt>
      <trkpt lat="42.464372" lon="1.021159">
        <ele>2094.316</ele>
        <time>2021-06-19T08:35:36Z</time>
      </trkpt>
      <trkpt lat="42.464291" lon="1.021237">
        <ele>2093.908</ele>
        <time>2021-06-19T08:35:38Z</time>
      </trkpt>
      <trkpt lat="42.464199" lon="1.021289">
        <ele>2094.331</ele>
        <time>2021-06-19T08:35:40Z</time>
      </trkpt>
      <trkpt lat="42.464151" lon="1.021306">
        <ele>2094.550</ele>
        <time>2021-06-19T08:35:41Z</time>
      </trkpt>
      <trkpt lat="42.464103" lon="1.021319">
        <ele>2094.636</ele>
        <time>2021-06-19T08:35:42Z</time>
      </trkpt>
      <trkpt lat="42.464006" lon="1.021340">
        <ele>2094.940</ele>
        <time>2021-06-19T08:35:44Z</time>
      </trkpt>
      <trkpt lat="42.463812" lon="1.021343">
        <ele>2095.824</ele>
        <time>2021-06-19T08:35:48Z</time>
      </trkpt>
      <trkpt lat="42.463393" lon="1.021370">
        <ele>2095.284</ele>
        <time>2021-06-19T08:35:56Z</time>
      </trkpt>
      <trkpt lat="42.462950" lon="1.021535">
        <ele>2094.867</ele>
        <time>2021-06-19T08:36:04Z</time>
      </trkpt>
      <trkpt lat="42.462895" lon="1.021562">
        <ele>2094.964</ele>
        <time>2021-06-19T08:36:05Z</time>
      </trkpt>
      <trkpt lat="42.462586" lon="1.021731">
        <ele>2094.915</ele>
        <time>2021-06-19T08:36:11Z</time>
      </trkpt>
      <trkpt lat="42.462482" lon="1.021790">
        <ele>2094.665</ele>
        <time>2021-06-19T08:36:13Z</time>
      </trkpt>
      <trkpt lat="42.462380" lon="1.021850">
        <ele>2093.711</ele>
        <time>2021-06-19T08:36:15Z</time>
      </trkpt>
      <trkpt lat="42.462325" lon="1.021866">
        <ele>2093.708</ele>
        <time>2021-06-19T08:36:16Z</time>
      </trkpt>
      <trkpt lat="42.462155" lon="1.021860">
        <ele>2094.118</ele>
        <time>2021-06-19T08:36:19Z</time>
      </trkpt>
      <trkpt lat="42.462097" lon="1.021851">
        <ele>2093.867</ele>
        <time>2021-06-19T08:36:20Z</time>
      </trkpt>
      <trkpt lat="42.461814" lon="1.021734">
        <ele>2094.363</ele>
        <time>2021-06-19T08:36:25Z</time>
      </trkpt>
      <trkpt lat="42.461756" lon="1.021707">
        <ele>2094.317</ele>
        <time>2021-06-19T08:36:26Z</time>
      </trkpt>
      <trkpt lat="42.461575" lon="1.021674">
        <ele>2093.861</ele>
        <time>2021-06-19T08:36:29Z</time>
      </trkpt>
      <trkpt lat="42.461514" lon="1.021676">
        <ele>2093.761</ele>
        <time>2021-06-19T08:36:30Z</time>
      </trkpt>
      <trkpt lat="42.461114" lon="1.021720">
        <ele>2093.544</ele>
        <time>2021-06-19T08:36:37Z</time>
      </trkpt>
      <trkpt lat="42.461010" lon="1.021739">
        <ele>2093.751</ele>
        <time>2021-06-19T08:36:39Z</time>
      </trkpt>
      <trkpt lat="42.460855" lon="1.021803">
        <ele>2093.441</ele>
        <time>2021-06-19T08:36:42Z</time>
      </trkpt>
      <trkpt lat="42.460753" lon="1.021855">
        <ele>2093.481</ele>
        <time>2021-06-19T08:36:44Z</time>
      </trkpt>
      <trkpt lat="42.460418" lon="1.022033">
        <ele>2094.409</ele>
        <time>2021-06-19T08:36:51Z</time>
      </trkpt>
      <trkpt lat="42.460372" lon="1.022064">
        <ele>2094.608</ele>
        <time>2021-06-19T08:36:52Z</time>
      </trkpt>
      <trkpt lat="42.460204" lon="1.022227">
        <ele>2094.571</ele>
        <time>2021-06-19T08:36:56Z</time>
      </trkpt>
      <trkpt lat="42.459876" lon="1.022540">
        <ele>2094.440</ele>
        <time>2021-06-19T08:37:04Z</time>
      </trkpt>
      <trkpt lat="42.459831" lon="1.022573">
        <ele>2094.616</ele>
        <time>2021-06-19T08:37:05Z</time>
      </trkpt>
      <trkpt lat="42.459705" lon="1.022689">
        <ele>2094.910</ele>
        <time>2021-06-19T08:37:08Z</time>
      </trkpt>
      <trkpt lat="42.459575" lon="1.022804">
        <ele>2095.124</ele>
        <time>2021-06-19T08:37:11Z</time>
      </trkpt>
      <trkpt lat="42.459535" lon="1.022847">
        <ele>2095.134</ele>
        <time>2021-06-19T08:37:12Z</time>
      </trkpt>
      <trkpt lat="42.459353" lon="1.023084">
        <ele>2095.417</ele>
        <time>2021-06-19T08:37:17Z</time>
      </trkpt>
      <trkpt lat="42.459135" lon="1.023473">
        <ele>2094.844</ele>
        <time>2021-06-19T08:37:24Z</time>
      </trkpt>
      <trkpt lat="42.459102" lon="1.023524">
        <ele>2094.875</ele>
        <time>2021-06-19T08:37:25Z</time>
      </trkpt>
      <trkpt lat="42.458916" lon="1.023735">
        <ele>2095.128</ele>
        <time>2021-06-19T08:37:30Z</time>
      </trkpt>
      <trkpt lat="42.458690" lon="1.023966">
        <ele>2095.920</ele>
        <time>2021-06-19T08:37:36Z</time>
      </trkpt>
      <trkpt lat="42.458582" lon="1.024094">
        <ele>2096.308</ele>
        <time>2021-06-19T08:37:39Z</time>
      </trkpt>
      <trkpt lat="42.458493" lon="1.024243">
        <ele>2096.014</ele>
        <time>2021-06-19T08:37:42Z</time>
      </trkpt>
      <trkpt lat="42.458438" lon="1.024350">
        <ele>2095.483</ele>
        <time>2021-06-19T08:37:44Z</time>
      </trkpt>
      <trkpt lat="42.458406" lon="1.024399">
        <ele>2095.449</ele>
        <time>2021-06-19T08:37:45Z</time>
      </trkpt>
      <trkpt lat="42.458310" lon="1.024535">
        <ele>2095.653</ele>
        <time>2021-06-19T08:37:48Z</time>
      </trkpt>
      <trkpt lat="42.458083" lon="1.024777">
        <ele>2095.047</ele>
        <time>2021-06-19T08:37:54Z</time>
      </trkpt>
      <trkpt lat="42.457908" lon="1.024811">
        <ele>2094.137</ele>
        <time>2021-06-19T08:37:58Z</time>
      </trkpt>
      <trkpt lat="42.457695" lon="1.024676">
        <ele>2094.940</ele>
        <time>2021-06-19T08:38:03Z</time>
      </trkpt>
      <trkpt lat="42.457650" lon="1.024637">
        <ele>2094.847</ele>
        <time>2021-06-19T08:38:04Z</time>
      </trkpt>
      <trkpt lat="42.457393" lon="1.024393">
        <ele>2092.987</ele>
        <time>2021-06-19T08:38:09Z</time>
      </trkpt>
      <trkpt lat="42.457110" lon="1.024047">
        <ele>2093.642</ele>
        <time>2021-06-19T08:38:15Z</time>
      </trkpt>
      <trkpt lat="42.457064" lon="1.024003">
        <ele>2093.426</ele>
        <time>2021-06-19T08:38:16Z</time>
      </trkpt>
      <trkpt lat="42.456912" lon="1.023892">
        <ele>2092.108</ele>
        <time>2021-06-19T08:38:19Z</time>
      </trkpt>
      <trkpt lat="42.456635" lon="1.023704">
        <ele>2091.315</ele>
        <time>2021-06-19T08:38:24Z</time>
      </trkpt>
      <trkpt lat="42.456580" lon="1.023665">
        <ele>2091.364</ele>
        <time>2021-06-19T08:38:25Z</time>
      </trkpt>
      <trkpt lat="42.456359" lon="1.023525">
        <ele>2089.780</ele>
        <time>2021-06-19T08:38:29Z</time>
      </trkpt>
      <trkpt lat="42.456180" lon="1.023284">
        <ele>2089.574</ele>
        <time>2021-06-19T08:38:33Z</time>
      </trkpt>
      <trkpt lat="42.455888" lon="1.022882">
        <ele>2088.698</ele>
        <time>2021-06-19T08:38:39Z</time>
      </trkpt>
      <trkpt lat="42.455679" lon="1.022644">
        <ele>2086.158</ele>
        <time>2021-06-19T08:38:43Z</time>
      </trkpt>
      <trkpt lat="42.455584" lon="1.022529">
        <ele>2084.641</ele>
        <time>2021-06-19T08:38:45Z</time>
      </trkpt>
      <trkpt lat="42.455503" lon="1.022372">
        <ele>2086.198</ele>
        <time>2021-06-19T08:38:48Z</time>
      </trkpt>
      <trkpt lat="42.455396" lon="1.022269">
        <ele>2085.658</ele>
        <time>2021-06-19T08:38:51Z</time>
      </trkpt>
      <trkpt lat="42.455307" lon="1.022196">
        <ele>2085.152</ele>
        <time>2021-06-19T08:38:53Z</time>
      </trkpt>
      <trkpt lat="42.455207" lon="1.022120">
        <ele>2085.117</ele>
        <time>2021-06-19T08:38:55Z</time>
      </trkpt>
      <trkpt lat="42.455035" lon="1.022050">
        <ele>2084.208</ele>
        <time>2021-06-19T08:38:58Z</time>
      </trkpt>
      <trkpt lat="42.454862" lon="1.022110">
        <ele>2083.082</ele>
        <time>2021-06-19T08:39:01Z</time>
      </trkpt>
      <trkpt lat="42.454745" lon="1.022171">
        <ele>2082.131</ele>
        <time>2021-06-19T08:39:03Z</time>
      </trkpt>
      <trkpt lat="42.454618" lon="1.022204">
        <ele>2082.087</ele>
        <time>2021-06-19T08:39:05Z</time>
      </trkpt>
      <trkpt lat="42.454556" lon="1.022228">
        <ele>2081.791</ele>
        <time>2021-06-19T08:39:06Z</time>
      </trkpt>
      <trkpt lat="42.454482" lon="1.022337">
        <ele>2081.395</ele>
        <time>2021-06-19T08:39:08Z</time>
      </trkpt>
      <trkpt lat="42.454496" lon="1.022579">
        <ele>2078.535</ele>
        <time>2021-06-19T08:39:11Z</time>
      </trkpt>
      <trkpt lat="42.454493" lon="1.022830">
        <ele>2076.558</ele>
        <time>2021-06-19T08:39:14Z</time>
      </trkpt>
      <trkpt lat="42.454430" lon="1.022991">
        <ele>2075.925</ele>
        <time>2021-06-19T08:39:16Z</time>
      </trkpt>
      <trkpt lat="42.454391" lon="1.023072">
        <ele>2075.476</ele>
        <time>2021-06-19T08:39:17Z</time>
      </trkpt>
      <trkpt lat="42.454352" lon="1.023156">
        <ele>2074.890</ele>
        <time>2021-06-19T08:39:18Z</time>
      </trkpt>
      <trkpt lat="42.454235" lon="1.023403">
        <ele>2073.019</ele>
        <time>2021-06-19T08:39:21Z</time>
      </trkpt>
      <trkpt lat="42.454146" lon="1.023535">
        <ele>2072.408</ele>
        <time>2021-06-19T08:39:23Z</time>
      </trkpt>
      <trkpt lat="42.454009" lon="1.023702">
        <ele>2070.824</ele>
        <time>2021-06-19T08:39:27Z</time>
      </trkpt>
      <trkpt lat="42.453969" lon="1.023758">
        <ele>2070.323</ele>
        <time>2021-06-19T08:39:30Z</time>
      </trkpt>
      <trkpt lat="42.453950" lon="1.023774">
        <ele>2070.359</ele>
        <time>2021-06-19T08:39:31Z</time>
      </trkpt>
      <trkpt lat="42.453926" lon="1.023793">
        <ele>2070.423</ele>
        <time>2021-06-19T08:39:32Z</time>
      </trkpt>
      <trkpt lat="42.453818" lon="1.023947">
        <ele>2069.727</ele>
        <time>2021-06-19T08:39:36Z</time>
      </trkpt>
      <trkpt lat="42.453758" lon="1.024047">
        <ele>2069.267</ele>
        <time>2021-06-19T08:39:40Z</time>
      </trkpt>
      <trkpt lat="42.453750" lon="1.024057">
        <ele>2069.250</ele>
        <time>2021-06-19T08:39:41Z</time>
      </trkpt>
      <trkpt lat="42.453746" lon="1.024067">
        <ele>2069.147</ele>
        <time>2021-06-19T08:39:42Z</time>
      </trkpt>
      <trkpt lat="42.453725" lon="1.024148">
        <ele>2067.956</ele>
        <time>2021-06-19T08:39:46Z</time>
      </trkpt>
      <trkpt lat="42.453694" lon="1.024226">
        <ele>2067.559</ele>
        <time>2021-06-19T08:39:48Z</time>
      </trkpt>
      <trkpt lat="42.453656" lon="1.024331">
        <ele>2067.214</ele>
        <time>2021-06-19T08:39:50Z</time>
      </trkpt>
      <trkpt lat="42.453589" lon="1.024519">
        <ele>2066.408</ele>
        <time>2021-06-19T08:39:53Z</time>
      </trkpt>
      <trkpt lat="42.453515" lon="1.024640">
        <ele>2066.162</ele>
        <time>2021-06-19T08:39:55Z</time>
      </trkpt>
      <trkpt lat="42.453427" lon="1.024748">
        <ele>2066.041</ele>
        <time>2021-06-19T08:39:57Z</time>
      </trkpt>
      <trkpt lat="42.453343" lon="1.024846">
        <ele>2066.587</ele>
        <time>2021-06-19T08:39:59Z</time>
      </trkpt>
      <trkpt lat="42.453319" lon="1.024905">
        <ele>2066.841</ele>
        <time>2021-06-19T08:40:00Z</time>
      </trkpt>
      <trkpt lat="42.453325" lon="1.025110">
        <ele>2065.945</ele>
        <time>2021-06-19T08:40:03Z</time>
      </trkpt>
      <trkpt lat="42.453396" lon="1.025425">
        <ele>2064.015</ele>
        <time>2021-06-19T08:40:07Z</time>
      </trkpt>
      <trkpt lat="42.453431" lon="1.025570">
        <ele>2062.458</ele>
        <time>2021-06-19T08:40:09Z</time>
      </trkpt>
      <trkpt lat="42.453459" lon="1.025767">
        <ele>2062.385</ele>
        <time>2021-06-19T08:40:13Z</time>
      </trkpt>
      <trkpt lat="42.453470" lon="1.025823">
        <ele>2062.128</ele>
        <time>2021-06-19T08:40:14Z</time>
      </trkpt>
      <trkpt lat="42.453515" lon="1.026022">
        <ele>2060.889</ele>
        <time>2021-06-19T08:40:17Z</time>
      </trkpt>
      <trkpt lat="42.453529" lon="1.026098">
        <ele>2060.617</ele>
        <time>2021-06-19T08:40:18Z</time>
      </trkpt>
      <trkpt lat="42.453591" lon="1.026626">
        <ele>2059.008</ele>
        <time>2021-06-19T08:40:24Z</time>
      </trkpt>
      <trkpt lat="42.453666" lon="1.027102">
        <ele>2056.629</ele>
        <time>2021-06-19T08:40:29Z</time>
      </trkpt>
      <trkpt lat="42.453679" lon="1.027200">
        <ele>2056.338</ele>
        <time>2021-06-19T08:40:30Z</time>
      </trkpt>
      <trkpt lat="42.453772" lon="1.027926">
        <ele>2053.184</ele>
        <time>2021-06-19T08:40:37Z</time>
      </trkpt>
      <trkpt lat="42.453777" lon="1.028034">
        <ele>2052.888</ele>
        <time>2021-06-19T08:40:38Z</time>
      </trkpt>
      <trkpt lat="42.453772" lon="1.028245">
        <ele>2052.832</ele>
        <time>2021-06-19T08:40:40Z</time>
      </trkpt>
      <trkpt lat="42.453771" lon="1.028444">
        <ele>2052.792</ele>
        <time>2021-06-19T08:40:42Z</time>
      </trkpt>
      <trkpt lat="42.453783" lon="1.028633">
        <ele>2052.255</ele>
        <time>2021-06-19T08:40:44Z</time>
      </trkpt>
      <trkpt lat="42.453791" lon="1.028731">
        <ele>2051.982</ele>
        <time>2021-06-19T08:40:45Z</time>
      </trkpt>
      <trkpt lat="42.453823" lon="1.029040">
        <ele>2050.114</ele>
        <time>2021-06-19T08:40:48Z</time>
      </trkpt>
      <trkpt lat="42.453828" lon="1.029145">
        <ele>2049.554</ele>
        <time>2021-06-19T08:40:49Z</time>
      </trkpt>
      <trkpt lat="42.453816" lon="1.029356">
        <ele>2049.209</ele>
        <time>2021-06-19T08:40:51Z</time>
      </trkpt>
      <trkpt lat="42.453810" lon="1.029459">
        <ele>2049.108</ele>
        <time>2021-06-19T08:40:52Z</time>
      </trkpt>
      <trkpt lat="42.453789" lon="1.029858">
        <ele>2048.058</ele>
        <time>2021-06-19T08:40:56Z</time>
      </trkpt>
      <trkpt lat="42.453775" lon="1.030037">
        <ele>2047.557</ele>
        <time>2021-06-19T08:40:58Z</time>
      </trkpt>
      <trkpt lat="42.453780" lon="1.030333">
        <ele>2046.783</ele>
        <time>2021-06-19T08:41:01Z</time>
      </trkpt>
      <trkpt lat="42.453801" lon="1.030648">
        <ele>2045.247</ele>
        <time>2021-06-19T08:41:04Z</time>
      </trkpt>
      <trkpt lat="42.453820" lon="1.031067">
        <ele>2043.651</ele>
        <time>2021-06-19T08:41:08Z</time>
      </trkpt>
      <trkpt lat="42.453827" lon="1.031269">
        <ele>2042.161</ele>
        <time>2021-06-19T08:41:10Z</time>
      </trkpt>
      <trkpt lat="42.453820" lon="1.031359">
        <ele>2041.744</ele>
        <time>2021-06-19T08:41:11Z</time>
      </trkpt>
      <trkpt lat="42.453758" lon="1.031552">
        <ele>2044.721</ele>
        <time>2021-06-19T08:41:14Z</time>
      </trkpt>
      <trkpt lat="42.453788" lon="1.031675">
        <ele>2045.367</ele>
        <time>2021-06-19T08:41:17Z</time>
      </trkpt>
      <trkpt lat="42.453803" lon="1.031693">
        <ele>2045.581</ele>
        <time>2021-06-19T08:41:18Z</time>
      </trkpt>
      <trkpt lat="42.453814" lon="1.031697">
        <ele>2045.519</ele>
        <time>2021-06-19T08:41:19Z</time>
      </trkpt>
      <trkpt lat="42.453851" lon="1.031686">
        <ele>2044.808</ele>
        <time>2021-06-19T08:41:21Z</time>
      </trkpt>
      <trkpt lat="42.453928" lon="1.031682">
        <ele>2043.873</ele>
        <time>2021-06-19T08:41:24Z</time>
      </trkpt>
      <trkpt lat="42.454002" lon="1.031694">
        <ele>2043.032</ele>
        <time>2021-06-19T08:41:26Z</time>
      </trkpt>
      <trkpt lat="42.454045" lon="1.031708">
        <ele>2042.638</ele>
        <time>2021-06-19T08:41:27Z</time>
      </trkpt>
      <trkpt lat="42.454235" lon="1.031809">
        <ele>2042.152</ele>
        <time>2021-06-19T08:41:31Z</time>
      </trkpt>
      <trkpt lat="42.454335" lon="1.031865">
        <ele>2041.696</ele>
        <time>2021-06-19T08:41:33Z</time>
      </trkpt>
      <trkpt lat="42.454459" lon="1.032015">
        <ele>2041.386</ele>
        <time>2021-06-19T08:41:36Z</time>
      </trkpt>
      <trkpt lat="42.454491" lon="1.032081">
        <ele>2040.899</ele>
        <time>2021-06-19T08:41:37Z</time>
      </trkpt>
      <trkpt lat="42.454544" lon="1.032223">
        <ele>2040.186</ele>
        <time>2021-06-19T08:41:39Z</time>
      </trkpt>
      <trkpt lat="42.454565" lon="1.032287">
        <ele>2039.652</ele>
        <time>2021-06-19T08:41:40Z</time>
      </trkpt>
      <trkpt lat="42.454624" lon="1.032535">
        <ele>2038.253</ele>
        <time>2021-06-19T08:41:45Z</time>
      </trkpt>
      <trkpt lat="42.454617" lon="1.032644">
        <ele>2038.508</ele>
        <time>2021-06-19T08:41:48Z</time>
      </trkpt>
      <trkpt lat="42.454620" lon="1.032690">
        <ele>2038.408</ele>
        <time>2021-06-19T08:41:49Z</time>
      </trkpt>
      <trkpt lat="42.454671" lon="1.032908">
        <ele>2037.142</ele>
        <time>2021-06-19T08:41:54Z</time>
      </trkpt>
      <trkpt lat="42.454709" lon="1.033042">
        <ele>2036.451</ele>
        <time>2021-06-19T08:41:58Z</time>
      </trkpt>
      <trkpt lat="42.454739" lon="1.033124">
        <ele>2036.377</ele>
        <time>2021-06-19T08:42:00Z</time>
      </trkpt>
      <trkpt lat="42.454758" lon="1.033171">
        <ele>2036.271</ele>
        <time>2021-06-19T08:42:01Z</time>
      </trkpt>
      <trkpt lat="42.454845" lon="1.033399">
        <ele>2035.625</ele>
        <time>2021-06-19T08:42:05Z</time>
      </trkpt>
      <trkpt lat="42.454902" lon="1.033603">
        <ele>2034.815</ele>
        <time>2021-06-19T08:42:08Z</time>
      </trkpt>
      <trkpt lat="42.454906" lon="1.033753">
        <ele>2033.718</ele>
        <time>2021-06-19T08:42:10Z</time>
      </trkpt>
      <trkpt lat="42.454899" lon="1.033831">
        <ele>2033.415</ele>
        <time>2021-06-19T08:42:11Z</time>
      </trkpt>
      <trkpt lat="42.454822" lon="1.034138">
        <ele>2032.247</ele>
        <time>2021-06-19T08:42:15Z</time>
      </trkpt>
      <trkpt lat="42.454791" lon="1.034210">
        <ele>2032.129</ele>
        <time>2021-06-19T08:42:16Z</time>
      </trkpt>
      <trkpt lat="42.454675" lon="1.034450">
        <ele>2032.121</ele>
        <time>2021-06-19T08:42:20Z</time>
      </trkpt>
      <trkpt lat="42.454645" lon="1.034513">
        <ele>2031.808</ele>
        <time>2021-06-19T08:42:21Z</time>
      </trkpt>
      <trkpt lat="42.454442" lon="1.034911">
        <ele>2030.671</ele>
        <time>2021-06-19T08:42:27Z</time>
      </trkpt>
      <trkpt lat="42.454401" lon="1.034973">
        <ele>2030.360</ele>
        <time>2021-06-19T08:42:28Z</time>
      </trkpt>
      <trkpt lat="42.454174" lon="1.035277">
        <ele>2028.996</ele>
        <time>2021-06-19T08:42:33Z</time>
      </trkpt>
      <trkpt lat="42.453968" lon="1.035412">
        <ele>2027.560</ele>
        <time>2021-06-19T08:42:37Z</time>
      </trkpt>
      <trkpt lat="42.453885" lon="1.035443">
        <ele>2027.494</ele>
        <time>2021-06-19T08:42:39Z</time>
      </trkpt>
      <trkpt lat="42.453802" lon="1.035480">
        <ele>2026.554</ele>
        <time>2021-06-19T08:42:41Z</time>
      </trkpt>
      <trkpt lat="42.453756" lon="1.035491">
        <ele>2026.357</ele>
        <time>2021-06-19T08:42:42Z</time>
      </trkpt>
      <trkpt lat="42.453658" lon="1.035474">
        <ele>2026.554</ele>
        <time>2021-06-19T08:42:44Z</time>
      </trkpt>
      <trkpt lat="42.453610" lon="1.035450">
        <ele>2026.979</ele>
        <time>2021-06-19T08:42:45Z</time>
      </trkpt>
      <trkpt lat="42.453518" lon="1.035375">
        <ele>2026.205</ele>
        <time>2021-06-19T08:42:47Z</time>
      </trkpt>
      <trkpt lat="42.453474" lon="1.035329">
        <ele>2026.125</ele>
        <time>2021-06-19T08:42:48Z</time>
      </trkpt>
      <trkpt lat="42.453225" lon="1.034982">
        <ele>2025.108</ele>
        <time>2021-06-19T08:42:54Z</time>
      </trkpt>
      <trkpt lat="42.453188" lon="1.034915">
        <ele>2025.054</ele>
        <time>2021-06-19T08:42:55Z</time>
      </trkpt>
      <trkpt lat="42.453020" lon="1.034498">
        <ele>2025.563</ele>
        <time>2021-06-19T08:43:01Z</time>
      </trkpt>
      <trkpt lat="42.452942" lon="1.034223">
        <ele>2025.889</ele>
        <time>2021-06-19T08:43:05Z</time>
      </trkpt>
      <trkpt lat="42.452887" lon="1.034091">
        <ele>2025.723</ele>
        <time>2021-06-19T08:43:07Z</time>
      </trkpt>
      <trkpt lat="42.452855" lon="1.034030">
        <ele>2025.637</ele>
        <time>2021-06-19T08:43:08Z</time>
      </trkpt>
      <trkpt lat="42.452815" lon="1.033978">
        <ele>2025.297</ele>
        <time>2021-06-19T08:43:09Z</time>
      </trkpt>
      <trkpt lat="42.452725" lon="1.033886">
        <ele>2024.620</ele>
        <time>2021-06-19T08:43:11Z</time>
      </trkpt>
      <trkpt lat="42.452565" lon="1.033750">
        <ele>2023.817</ele>
        <time>2021-06-19T08:43:15Z</time>
      </trkpt>
      <trkpt lat="42.452521" lon="1.033708">
        <ele>2023.824</ele>
        <time>2021-06-19T08:43:19Z</time>
      </trkpt>
      <trkpt lat="42.452424" lon="1.033640">
        <ele>2022.704</ele>
        <time>2021-06-19T08:43:23Z</time>
      </trkpt>
      <trkpt lat="42.452356" lon="1.033575">
        <ele>2022.414</ele>
        <time>2021-06-19T08:43:25Z</time>
      </trkpt>
      <trkpt lat="42.452249" lon="1.033438">
        <ele>2022.908</ele>
        <time>2021-06-19T08:43:28Z</time>
      </trkpt>
      <trkpt lat="42.451966" lon="1.033044">
        <ele>2022.339</ele>
        <time>2021-06-19T08:43:35Z</time>
      </trkpt>
      <trkpt lat="42.451600" lon="1.032610">
        <ele>2021.388</ele>
        <time>2021-06-19T08:43:43Z</time>
      </trkpt>
      <trkpt lat="42.451553" lon="1.032562">
        <ele>2021.324</ele>
        <time>2021-06-19T08:43:44Z</time>
      </trkpt>
      <trkpt lat="42.451363" lon="1.032383">
        <ele>2021.118</ele>
        <time>2021-06-19T08:43:48Z</time>
      </trkpt>
      <trkpt lat="42.451251" lon="1.032353">
        <ele>2021.042</ele>
        <time>2021-06-19T08:43:50Z</time>
      </trkpt>
      <trkpt lat="42.451105" lon="1.032436">
        <ele>2017.882</ele>
        <time>2021-06-19T08:43:53Z</time>
      </trkpt>
      <trkpt lat="42.451074" lon="1.032488">
        <ele>2017.215</ele>
        <time>2021-06-19T08:43:54Z</time>
      </trkpt>
      <trkpt lat="42.451025" lon="1.032617">
        <ele>2016.442</ele>
        <time>2021-06-19T08:43:56Z</time>
      </trkpt>
      <trkpt lat="42.450852" lon="1.032848">
        <ele>2016.186</ele>
        <time>2021-06-19T08:44:00Z</time>
      </trkpt>
      <trkpt lat="42.450637" lon="1.033041">
        <ele>2015.160</ele>
        <time>2021-06-19T08:44:04Z</time>
      </trkpt>
      <trkpt lat="42.450517" lon="1.033088">
        <ele>2015.226</ele>
        <time>2021-06-19T08:44:06Z</time>
      </trkpt>
      <trkpt lat="42.450456" lon="1.033091">
        <ele>2014.908</ele>
        <time>2021-06-19T08:44:07Z</time>
      </trkpt>
      <trkpt lat="42.450336" lon="1.033057">
        <ele>2015.285</ele>
        <time>2021-06-19T08:44:09Z</time>
      </trkpt>
      <trkpt lat="42.450113" lon="1.032880">
        <ele>2013.154</ele>
        <time>2021-06-19T08:44:13Z</time>
      </trkpt>
      <trkpt lat="42.450037" lon="1.032640">
        <ele>2014.090</ele>
        <time>2021-06-19T08:44:16Z</time>
      </trkpt>
      <trkpt lat="42.450026" lon="1.032556">
        <ele>2014.534</ele>
        <time>2021-06-19T08:44:17Z</time>
      </trkpt>
      <trkpt lat="42.449994" lon="1.032388">
        <ele>2015.218</ele>
        <time>2021-06-19T08:44:19Z</time>
      </trkpt>
      <trkpt lat="42.449970" lon="1.032307">
        <ele>2014.928</ele>
        <time>2021-06-19T08:44:20Z</time>
      </trkpt>
      <trkpt lat="42.449942" lon="1.032228">
        <ele>2014.461</ele>
        <time>2021-06-19T08:44:21Z</time>
      </trkpt>
      <trkpt lat="42.449705" lon="1.031787">
        <ele>2013.348</ele>
        <time>2021-06-19T08:44:27Z</time>
      </trkpt>
      <trkpt lat="42.449489" lon="1.031519">
        <ele>2012.468</ele>
        <time>2021-06-19T08:44:31Z</time>
      </trkpt>
      <trkpt lat="42.449367" lon="1.031409">
        <ele>2011.742</ele>
        <time>2021-06-19T08:44:33Z</time>
      </trkpt>
      <trkpt lat="42.448948" lon="1.031028">
        <ele>2011.226</ele>
        <time>2021-06-19T08:44:40Z</time>
      </trkpt>
      <trkpt lat="42.448887" lon="1.030985">
        <ele>2010.508</ele>
        <time>2021-06-19T08:44:41Z</time>
      </trkpt>
      <trkpt lat="42.448754" lon="1.030956">
        <ele>2009.573</ele>
        <time>2021-06-19T08:44:43Z</time>
      </trkpt>
      <trkpt lat="42.448435" lon="1.030834">
        <ele>2008.592</ele>
        <time>2021-06-19T08:44:48Z</time>
      </trkpt>
      <trkpt lat="42.448307" lon="1.030768">
        <ele>2008.778</ele>
        <time>2021-06-19T08:44:50Z</time>
      </trkpt>
      <trkpt lat="42.448178" lon="1.030720">
        <ele>2009.262</ele>
        <time>2021-06-19T08:44:52Z</time>
      </trkpt>
      <trkpt lat="42.448114" lon="1.030708">
        <ele>2008.826</ele>
        <time>2021-06-19T08:44:53Z</time>
      </trkpt>
      <trkpt lat="42.447874" lon="1.030644">
        <ele>2006.396</ele>
        <time>2021-06-19T08:44:57Z</time>
      </trkpt>
      <trkpt lat="42.447695" lon="1.030437">
        <ele>2008.069</ele>
        <time>2021-06-19T08:45:01Z</time>
      </trkpt>
      <trkpt lat="42.447474" lon="1.030333">
        <ele>2007.076</ele>
        <time>2021-06-19T08:45:05Z</time>
      </trkpt>
      <trkpt lat="42.447420" lon="1.030294">
        <ele>2007.486</ele>
        <time>2021-06-19T08:45:06Z</time>
      </trkpt>
      <trkpt lat="42.447364" lon="1.030263">
        <ele>2007.660</ele>
        <time>2021-06-19T08:45:07Z</time>
      </trkpt>
      <trkpt lat="42.447249" lon="1.030245">
        <ele>2006.626</ele>
        <time>2021-06-19T08:45:09Z</time>
      </trkpt>
      <trkpt lat="42.447092" lon="1.030267">
        <ele>2005.908</ele>
        <time>2021-06-19T08:45:13Z</time>
      </trkpt>
      <trkpt lat="42.447041" lon="1.030284">
        <ele>2005.585</ele>
        <time>2021-06-19T08:45:15Z</time>
      </trkpt>
      <trkpt lat="42.446940" lon="1.030314">
        <ele>2005.154</ele>
        <time>2021-06-19T08:45:18Z</time>
      </trkpt>
      <trkpt lat="42.446903" lon="1.030331">
        <ele>2005.060</ele>
        <time>2021-06-19T08:45:19Z</time>
      </trkpt>
      <trkpt lat="42.446789" lon="1.030403">
        <ele>2004.244</ele>
        <time>2021-06-19T08:45:22Z</time>
      </trkpt>
      <trkpt lat="42.446727" lon="1.030468">
        <ele>2003.378</ele>
        <time>2021-06-19T08:45:24Z</time>
      </trkpt>
      <trkpt lat="42.446678" lon="1.030522">
        <ele>2002.658</ele>
        <time>2021-06-19T08:45:26Z</time>
      </trkpt>
      <trkpt lat="42.446586" lon="1.030622">
        <ele>2001.961</ele>
        <time>2021-06-19T08:45:30Z</time>
      </trkpt>
      <trkpt lat="42.446532" lon="1.030683">
        <ele>2001.918</ele>
        <time>2021-06-19T08:45:35Z</time>
      </trkpt>
      <trkpt lat="42.446495" lon="1.030751">
        <ele>2001.626</ele>
        <time>2021-06-19T08:45:41Z</time>
      </trkpt>
      <trkpt lat="42.446466" lon="1.030854">
        <ele>2000.947</ele>
        <time>2021-06-19T08:45:45Z</time>
      </trkpt>
      <trkpt lat="42.446455" lon="1.031029">
        <ele>2000.311</ele>
        <time>2021-06-19T08:45:49Z</time>
      </trkpt>
      <trkpt lat="42.446480" lon="1.031272">
        <ele>1998.108</ele>
        <time>2021-06-19T08:45:53Z</time>
      </trkpt>
      <trkpt lat="42.446497" lon="1.031410">
        <ele>1996.619</ele>
        <time>2021-06-19T08:45:55Z</time>
      </trkpt>
      <trkpt lat="42.446499" lon="1.031481">
        <ele>1996.168</ele>
        <time>2021-06-19T08:45:56Z</time>
      </trkpt>
      <trkpt lat="42.446477" lon="1.031700">
        <ele>1995.414</ele>
        <time>2021-06-19T08:45:59Z</time>
      </trkpt>
      <trkpt lat="42.446360" lon="1.032130">
        <ele>1994.898</ele>
        <time>2021-06-19T08:46:05Z</time>
      </trkpt>
      <trkpt lat="42.446343" lon="1.032203">
        <ele>1995.082</ele>
        <time>2021-06-19T08:46:06Z</time>
      </trkpt>
      <trkpt lat="42.446254" lon="1.032702">
        <ele>1995.292</ele>
        <time>2021-06-19T08:46:12Z</time>
      </trkpt>
      <trkpt lat="42.446223" lon="1.033171">
        <ele>1993.885</ele>
        <time>2021-06-19T08:46:17Z</time>
      </trkpt>
      <trkpt lat="42.446214" lon="1.033362">
        <ele>1992.642</ele>
        <time>2021-06-19T08:46:19Z</time>
      </trkpt>
      <trkpt lat="42.446175" lon="1.033736">
        <ele>1992.386</ele>
        <time>2021-06-19T08:46:23Z</time>
      </trkpt>
      <trkpt lat="42.446182" lon="1.033920">
        <ele>1991.760</ele>
        <time>2021-06-19T08:46:25Z</time>
      </trkpt>
      <trkpt lat="42.446208" lon="1.034190">
        <ele>1990.426</ele>
        <time>2021-06-19T08:46:28Z</time>
      </trkpt>
      <trkpt lat="42.446212" lon="1.034379">
        <ele>1990.008</ele>
        <time>2021-06-19T08:46:30Z</time>
      </trkpt>
      <trkpt lat="42.446141" lon="1.034952">
        <ele>1988.415</ele>
        <time>2021-06-19T08:46:36Z</time>
      </trkpt>
      <trkpt lat="42.446039" lon="1.035305">
        <ele>1987.894</ele>
        <time>2021-06-19T08:46:40Z</time>
      </trkpt>
      <trkpt lat="42.445990" lon="1.035480">
        <ele>1987.770</ele>
        <time>2021-06-19T08:46:42Z</time>
      </trkpt>
      <trkpt lat="42.445853" lon="1.035885">
        <ele>1987.424</ele>
        <time>2021-06-19T08:46:47Z</time>
      </trkpt>
      <trkpt lat="42.445824" lon="1.035952">
        <ele>1987.718</ele>
        <time>2021-06-19T08:46:48Z</time>
      </trkpt>
      <trkpt lat="42.445799" lon="1.036012">
        <ele>1987.968</ele>
        <time>2021-06-19T08:46:49Z</time>
      </trkpt>
      <trkpt lat="42.445746" lon="1.036225">
        <ele>1986.691</ele>
        <time>2021-06-19T08:46:52Z</time>
      </trkpt>
      <trkpt lat="42.445599" lon="1.036639">
        <ele>1985.768</ele>
        <time>2021-06-19T08:46:57Z</time>
      </trkpt>
      <trkpt lat="42.445501" lon="1.036905">
        <ele>1984.944</ele>
        <time>2021-06-19T08:47:00Z</time>
      </trkpt>
      <trkpt lat="42.445360" lon="1.037286">
        <ele>1984.105</ele>
        <time>2021-06-19T08:47:04Z</time>
      </trkpt>
      <trkpt lat="42.445125" lon="1.037877">
        <ele>1982.715</ele>
        <time>2021-06-19T08:47:10Z</time>
      </trkpt>
      <trkpt lat="42.444910" lon="1.038329">
        <ele>1982.608</ele>
        <time>2021-06-19T08:47:15Z</time>
      </trkpt>
      <trkpt lat="42.444878" lon="1.038428">
        <ele>1982.371</ele>
        <time>2021-06-19T08:47:16Z</time>
      </trkpt>
      <trkpt lat="42.444846" lon="1.038526">
        <ele>1981.940</ele>
        <time>2021-06-19T08:47:17Z</time>
      </trkpt>
      <trkpt lat="42.444641" lon="1.038992">
        <ele>1981.286</ele>
        <time>2021-06-19T08:47:22Z</time>
      </trkpt>
      <trkpt lat="42.444548" lon="1.039171">
        <ele>1980.630</ele>
        <time>2021-06-19T08:47:24Z</time>
      </trkpt>
      <trkpt lat="42.444497" lon="1.039253">
        <ele>1980.464</ele>
        <time>2021-06-19T08:47:25Z</time>
      </trkpt>
      <trkpt lat="42.444443" lon="1.039331">
        <ele>1980.534</ele>
        <time>2021-06-19T08:47:26Z</time>
      </trkpt>
      <trkpt lat="42.444390" lon="1.039405">
        <ele>1980.677</ele>
        <time>2021-06-19T08:47:27Z</time>
      </trkpt>
      <trkpt lat="42.444163" lon="1.039832">
        <ele>1979.234</ele>
        <time>2021-06-19T08:47:32Z</time>
      </trkpt>
      <trkpt lat="42.443860" lon="1.040522">
        <ele>1977.651</ele>
        <time>2021-06-19T08:47:39Z</time>
      </trkpt>
      <trkpt lat="42.443782" lon="1.040717">
        <ele>1977.501</ele>
        <time>2021-06-19T08:47:41Z</time>
      </trkpt>
      <trkpt lat="42.443652" lon="1.041120">
        <ele>1976.411</ele>
        <time>2021-06-19T08:47:45Z</time>
      </trkpt>
      <trkpt lat="42.443474" lon="1.041631">
        <ele>1975.408</ele>
        <time>2021-06-19T08:47:50Z</time>
      </trkpt>
      <trkpt lat="42.443413" lon="1.041829">
        <ele>1975.512</ele>
        <time>2021-06-19T08:47:52Z</time>
      </trkpt>
      <trkpt lat="42.443378" lon="1.041918">
        <ele>1975.891</ele>
        <time>2021-06-19T08:47:53Z</time>
      </trkpt>
      <trkpt lat="42.443292" lon="1.042141">
        <ele>1976.287</ele>
        <time>2021-06-19T08:47:56Z</time>
      </trkpt>
      <trkpt lat="42.443277" lon="1.042206">
        <ele>1976.081</ele>
        <time>2021-06-19T08:47:57Z</time>
      </trkpt>
      <trkpt lat="42.443261" lon="1.042446">
        <ele>1974.175</ele>
        <time>2021-06-19T08:48:00Z</time>
      </trkpt>
      <trkpt lat="42.443195" lon="1.042806">
        <ele>1973.375</ele>
        <time>2021-06-19T08:48:04Z</time>
      </trkpt>
      <trkpt lat="42.443171" lon="1.042892">
        <ele>1973.428</ele>
        <time>2021-06-19T08:48:05Z</time>
      </trkpt>
      <trkpt lat="42.443146" lon="1.043164">
        <ele>1972.685</ele>
        <time>2021-06-19T08:48:08Z</time>
      </trkpt>
      <trkpt lat="42.443108" lon="1.043549">
        <ele>1971.767</ele>
        <time>2021-06-19T08:48:12Z</time>
      </trkpt>
      <trkpt lat="42.443093" lon="1.043888">
        <ele>1970.781</ele>
        <time>2021-06-19T08:48:16Z</time>
      </trkpt>
      <trkpt lat="42.443087" lon="1.043936">
        <ele>1970.719</ele>
        <time>2021-06-19T08:48:17Z</time>
      </trkpt>
      <trkpt lat="42.443052" lon="1.044136">
        <ele>1971.208</ele>
        <time>2021-06-19T08:48:23Z</time>
      </trkpt>
      <trkpt lat="42.443045" lon="1.044172">
        <ele>1971.233</ele>
        <time>2021-06-19T08:48:24Z</time>
      </trkpt>
      <trkpt lat="42.443039" lon="1.044432">
        <ele>1969.322</ele>
        <time>2021-06-19T08:48:30Z</time>
      </trkpt>
      <trkpt lat="42.443040" lon="1.044455">
        <ele>1969.168</ele>
        <time>2021-06-19T08:48:33Z</time>
      </trkpt>
      <trkpt lat="42.443043" lon="1.044501">
        <ele>1968.442</ele>
        <time>2021-06-19T08:48:51Z</time>
      </trkpt>
      <trkpt lat="42.443032" lon="1.044585">
        <ele>1967.326</ele>
        <time>2021-06-19T08:48:53Z</time>
      </trkpt>
      <trkpt lat="42.443019" lon="1.044640">
        <ele>1966.716</ele>
        <time>2021-06-19T08:48:54Z</time>
      </trkpt>
      <trkpt lat="42.442939" lon="1.044801">
        <ele>1965.129</ele>
        <time>2021-06-19T08:48:57Z</time>
      </trkpt>
      <trkpt lat="42.442845" lon="1.044867">
        <ele>1965.346</ele>
        <time>2021-06-19T08:49:00Z</time>
      </trkpt>
      <trkpt lat="42.442822" lon="1.044877">
        <ele>1965.556</ele>
        <time>2021-06-19T08:49:01Z</time>
      </trkpt>
      <trkpt lat="42.442802" lon="1.044877">
        <ele>1965.859</ele>
        <time>2021-06-19T08:49:02Z</time>
      </trkpt>
      <trkpt lat="42.442760" lon="1.044856">
        <ele>1966.314</ele>
        <time>2021-06-19T08:49:04Z</time>
      </trkpt>
      <trkpt lat="42.442740" lon="1.044816">
        <ele>1966.708</ele>
        <time>2021-06-19T08:49:08Z</time>
      </trkpt>
      <trkpt lat="42.442697" lon="1.044807">
        <ele>1966.272</ele>
        <time>2021-06-19T08:50:59Z</time>
      </trkpt>
      <trkpt lat="42.442682" lon="1.044843">
        <ele>1965.381</ele>
        <time>2021-06-19T08:51:01Z</time>
      </trkpt>
      <trkpt lat="42.442730" lon="1.044917">
        <ele>1964.787</ele>
        <time>2021-06-19T08:51:05Z</time>
      </trkpt>
      <trkpt lat="42.442809" lon="1.044868">
        <ele>1965.931</ele>
        <time>2021-06-19T08:51:09Z</time>
      </trkpt>
      <trkpt lat="42.442833" lon="1.044857">
        <ele>1965.775</ele>
        <time>2021-06-19T08:51:10Z</time>
      </trkpt>
      <trkpt lat="42.442856" lon="1.044848">
        <ele>1965.555</ele>
        <time>2021-06-19T08:51:11Z</time>
      </trkpt>
      <trkpt lat="42.442967" lon="1.044746">
        <ele>1965.868</ele>
        <time>2021-06-19T08:51:16Z</time>
      </trkpt>
      <trkpt lat="42.443026" lon="1.044598">
        <ele>1967.225</ele>
        <time>2021-06-19T08:51:21Z</time>
      </trkpt>
      <trkpt lat="42.443037" lon="1.044570">
        <ele>1967.594</ele>
        <time>2021-06-19T08:51:22Z</time>
      </trkpt>
      <trkpt lat="42.443086" lon="1.044419">
        <ele>1968.157</ele>
        <time>2021-06-19T08:51:28Z</time>
      </trkpt>
      <trkpt lat="42.443095" lon="1.044401">
        <ele>1967.922</ele>
        <time>2021-06-19T08:51:29Z</time>
      </trkpt>
      <trkpt lat="42.443170" lon="1.044259">
        <ele>1966.208</ele>
        <time>2021-06-19T08:51:34Z</time>
      </trkpt>
      <trkpt lat="42.443183" lon="1.044219">
        <ele>1966.016</ele>
        <time>2021-06-19T08:51:35Z</time>
      </trkpt>
      <trkpt lat="42.443224" lon="1.043979">
        <ele>1965.635</ele>
        <time>2021-06-19T08:51:40Z</time>
      </trkpt>
      <trkpt lat="42.443262" lon="1.043813">
        <ele>1965.081</ele>
        <time>2021-06-19T08:51:44Z</time>
      </trkpt>
      <trkpt lat="42.443292" lon="1.043609">
        <ele>1965.345</ele>
        <time>2021-06-19T08:51:47Z</time>
      </trkpt>
      <trkpt lat="42.443379" lon="1.043298">
        <ele>1964.159</ele>
        <time>2021-06-19T08:51:53Z</time>
      </trkpt>
      <trkpt lat="42.443512" lon="1.043070">
        <ele>1961.829</ele>
        <time>2021-06-19T08:51:57Z</time>
      </trkpt>
      <trkpt lat="42.443622" lon="1.042886">
        <ele>1959.212</ele>
        <time>2021-06-19T08:51:59Z</time>
      </trkpt>
      <trkpt lat="42.443643" lon="1.042835">
        <ele>1958.679</ele>
        <time>2021-06-19T08:52:01Z</time>
      </trkpt>
      <trkpt lat="42.443739" lon="1.042624">
        <ele>1956.553</ele>
        <time>2021-06-19T08:52:05Z</time>
      </trkpt>
      <trkpt lat="42.443819" lon="1.042494">
        <ele>1954.604</ele>
        <time>2021-06-19T08:52:07Z</time>
      </trkpt>
      <trkpt lat="42.443929" lon="1.042314">
        <ele>1951.914</ele>
        <time>2021-06-19T08:52:10Z</time>
      </trkpt>
      <trkpt lat="42.444152" lon="1.041989">
        <ele>1947.208</ele>
        <time>2021-06-19T08:52:16Z</time>
      </trkpt>
      <trkpt lat="42.444201" lon="1.041927">
        <ele>1946.192</ele>
        <time>2021-06-19T08:52:17Z</time>
      </trkpt>
      <trkpt lat="42.444343" lon="1.041735">
        <ele>1943.851</ele>
        <time>2021-06-19T08:52:19Z</time>
      </trkpt>
      <trkpt lat="42.444386" lon="1.041668">
        <ele>1943.167</ele>
        <time>2021-06-19T08:52:21Z</time>
      </trkpt>
      <trkpt lat="42.444635" lon="1.041248">
        <ele>1939.241</ele>
        <time>2021-06-19T08:52:27Z</time>
      </trkpt>
      <trkpt lat="42.444680" lon="1.041185">
        <ele>1938.585</ele>
        <time>2021-06-19T08:52:28Z</time>
      </trkpt>
      <trkpt lat="42.444837" lon="1.041000">
        <ele>1935.575</ele>
        <time>2021-06-19T08:52:31Z</time>
      </trkpt>
      <trkpt lat="42.444886" lon="1.040932">
        <ele>1934.728</ele>
        <time>2021-06-19T08:52:32Z</time>
      </trkpt>
      <trkpt lat="42.445082" lon="1.040660">
        <ele>1931.655</ele>
        <time>2021-06-19T08:52:36Z</time>
      </trkpt>
      <trkpt lat="42.445183" lon="1.040537">
        <ele>1930.417</ele>
        <time>2021-06-19T08:52:38Z</time>
      </trkpt>
      <trkpt lat="42.445483" lon="1.040200">
        <ele>1926.087</ele>
        <time>2021-06-19T08:52:43Z</time>
      </trkpt>
      <trkpt lat="42.445483" lon="1.040200">
        <ele>1926.015</ele>
        <time>2021-06-19T08:52:44Z</time>
      </trkpt>
      <trkpt lat="42.445536" lon="1.040148">
        <ele>1925.408</ele>
        <time>2021-06-19T08:52:45Z</time>
      </trkpt>
      <trkpt lat="42.445790" lon="1.039860">
        <ele>1922.278</ele>
        <time>2021-06-19T08:52:50Z</time>
      </trkpt>
      <trkpt lat="42.446021" lon="1.039610">
        <ele>1919.167</ele>
        <time>2021-06-19T08:52:53Z</time>
      </trkpt>
      <trkpt lat="42.446021" lon="1.039610">
        <ele>1919.113</ele>
        <time>2021-06-19T08:52:54Z</time>
      </trkpt>
      <trkpt lat="42.446072" lon="1.039535">
        <ele>1918.717</ele>
        <time>2021-06-19T08:52:55Z</time>
      </trkpt>
      <trkpt lat="42.446172" lon="1.039388">
        <ele>1917.931</ele>
        <time>2021-06-19T08:52:57Z</time>
      </trkpt>
      <trkpt lat="42.446226" lon="1.039329">
        <ele>1917.151</ele>
        <time>2021-06-19T08:52:58Z</time>
      </trkpt>
      <trkpt lat="42.446511" lon="1.039043">
        <ele>1912.644</ele>
        <time>2021-06-19T08:53:03Z</time>
      </trkpt>
      <trkpt lat="42.446563" lon="1.038981">
        <ele>1911.731</ele>
        <time>2021-06-19T08:53:04Z</time>
      </trkpt>
      <trkpt lat="42.446757" lon="1.038685">
        <ele>1909.149</ele>
        <time>2021-06-19T08:53:07Z</time>
      </trkpt>
      <trkpt lat="42.446757" lon="1.038685">
        <ele>1909.102</ele>
        <time>2021-06-19T08:53:08Z</time>
      </trkpt>
      <trkpt lat="42.446801" lon="1.038601">
        <ele>1909.322</ele>
        <time>2021-06-19T08:53:09Z</time>
      </trkpt>
      <trkpt lat="42.446966" lon="1.038387">
        <ele>1907.908</ele>
        <time>2021-06-19T08:53:12Z</time>
      </trkpt>
      <trkpt lat="42.447030" lon="1.038336">
        <ele>1908.091</ele>
        <time>2021-06-19T08:53:13Z</time>
      </trkpt>
      <trkpt lat="42.447162" lon="1.038262">
        <ele>1907.530</ele>
        <time>2021-06-19T08:53:15Z</time>
      </trkpt>
      <trkpt lat="42.447223" lon="1.038248">
        <ele>1906.916</ele>
        <time>2021-06-19T08:53:16Z</time>
      </trkpt>
      <trkpt lat="42.447369" lon="1.038295">
        <ele>1904.830</ele>
        <time>2021-06-19T08:53:19Z</time>
      </trkpt>
      <trkpt lat="42.447462" lon="1.038351">
        <ele>1903.064</ele>
        <time>2021-06-19T08:53:21Z</time>
      </trkpt>
      <trkpt lat="42.447515" lon="1.038350">
        <ele>1902.444</ele>
        <time>2021-06-19T08:53:22Z</time>
      </trkpt>
      <trkpt lat="42.447609" lon="1.038278">
        <ele>1901.187</ele>
        <time>2021-06-19T08:53:24Z</time>
      </trkpt>
      <trkpt lat="42.447644" lon="1.038214">
        <ele>1900.714</ele>
        <time>2021-06-19T08:53:25Z</time>
      </trkpt>
      <trkpt lat="42.447695" lon="1.038066">
        <ele>1900.346</ele>
        <time>2021-06-19T08:53:27Z</time>
      </trkpt>
      <trkpt lat="42.447714" lon="1.037991">
        <ele>1900.288</ele>
        <time>2021-06-19T08:53:28Z</time>
      </trkpt>
      <trkpt lat="42.447801" lon="1.037843">
        <ele>1899.316</ele>
        <time>2021-06-19T08:53:31Z</time>
      </trkpt>
      <trkpt lat="42.447891" lon="1.037934">
        <ele>1897.708</ele>
        <time>2021-06-19T08:53:34Z</time>
      </trkpt>
      <trkpt lat="42.447891" lon="1.037934">
        <ele>1897.781</ele>
        <time>2021-06-19T08:53:35Z</time>
      </trkpt>
      <trkpt lat="42.447888" lon="1.037991">
        <ele>1897.370</ele>
        <time>2021-06-19T08:53:36Z</time>
      </trkpt>
      <trkpt lat="42.447875" lon="1.038015">
        <ele>1897.266</ele>
        <time>2021-06-19T08:53:38Z</time>
      </trkpt>
      <trkpt lat="42.447858" lon="1.038037">
        <ele>1897.390</ele>
        <time>2021-06-19T08:53:39Z</time>
      </trkpt>
      <trkpt lat="42.447821" lon="1.038134">
        <ele>1897.134</ele>
        <time>2021-06-19T08:53:42Z</time>
      </trkpt>
      <trkpt lat="42.447802" lon="1.038206">
        <ele>1897.184</ele>
        <time>2021-06-19T08:53:44Z</time>
      </trkpt>
      <trkpt lat="42.447688" lon="1.038494">
        <ele>1896.867</ele>
        <time>2021-06-19T08:53:51Z</time>
      </trkpt>
      <trkpt lat="42.447570" lon="1.038644">
        <ele>1896.224</ele>
        <time>2021-06-19T08:53:55Z</time>
      </trkpt>
      <trkpt lat="42.447524" lon="1.038655">
        <ele>1896.442</ele>
        <time>2021-06-19T08:53:56Z</time>
      </trkpt>
      <trkpt lat="42.447372" lon="1.038623">
        <ele>1896.822</ele>
        <time>2021-06-19T08:53:59Z</time>
      </trkpt>
      <trkpt lat="42.447272" lon="1.038629">
        <ele>1895.914</ele>
        <time>2021-06-19T08:54:00Z</time>
      </trkpt>
      <trkpt lat="42.447229" lon="1.038661">
        <ele>1895.008</ele>
        <time>2021-06-19T08:54:02Z</time>
      </trkpt>
      <trkpt lat="42.447169" lon="1.038852">
        <ele>1892.461</ele>
        <time>2021-06-19T08:54:05Z</time>
      </trkpt>
      <trkpt lat="42.447169" lon="1.038852">
        <ele>1892.440</ele>
        <time>2021-06-19T08:54:06Z</time>
      </trkpt>
      <trkpt lat="42.447169" lon="1.038860">
        <ele>1892.266</ele>
        <time>2021-06-19T08:54:08Z</time>
      </trkpt>
      <trkpt lat="42.447152" lon="1.038902">
        <ele>1891.870</ele>
        <time>2021-06-19T08:54:13Z</time>
      </trkpt>
      <trkpt lat="42.447135" lon="1.038938">
        <ele>1891.694</ele>
        <time>2021-06-19T08:54:14Z</time>
      </trkpt>
      <trkpt lat="42.447039" lon="1.039153">
        <ele>1890.564</ele>
        <time>2021-06-19T08:54:17Z</time>
      </trkpt>
      <trkpt lat="42.447039" lon="1.039153">
        <ele>1890.577</ele>
        <time>2021-06-19T08:54:18Z</time>
      </trkpt>
      <trkpt lat="42.446955" lon="1.039388">
        <ele>1887.934</ele>
        <time>2021-06-19T08:54:21Z</time>
      </trkpt>
      <trkpt lat="42.446882" lon="1.039563">
        <ele>1886.813</ele>
        <time>2021-06-19T08:54:23Z</time>
      </trkpt>
      <trkpt lat="42.446707" lon="1.039958">
        <ele>1884.343</ele>
        <time>2021-06-19T08:54:28Z</time>
      </trkpt>
      <trkpt lat="42.446675" lon="1.040032">
        <ele>1884.007</ele>
        <time>2021-06-19T08:54:29Z</time>
      </trkpt>
      <trkpt lat="42.446648" lon="1.040107">
        <ele>1883.408</ele>
        <time>2021-06-19T08:54:30Z</time>
      </trkpt>
      <trkpt lat="42.446597" lon="1.040264">
        <ele>1881.878</ele>
        <time>2021-06-19T08:54:32Z</time>
      </trkpt>
      <trkpt lat="42.446503" lon="1.040613">
        <ele>1877.727</ele>
        <time>2021-06-19T08:54:36Z</time>
      </trkpt>
      <trkpt lat="42.446474" lon="1.040703">
        <ele>1876.893</ele>
        <time>2021-06-19T08:54:37Z</time>
      </trkpt>
      <trkpt lat="42.446412" lon="1.040863">
        <ele>1875.567</ele>
        <time>2021-06-19T08:54:39Z</time>
      </trkpt>
      <trkpt lat="42.446352" lon="1.041016">
        <ele>1874.591</ele>
        <time>2021-06-19T08:54:41Z</time>
      </trkpt>
      <trkpt lat="42.446330" lon="1.041091">
        <ele>1873.821</ele>
        <time>2021-06-19T08:54:42Z</time>
      </trkpt>
      <trkpt lat="42.446296" lon="1.041239">
        <ele>1872.774</ele>
        <time>2021-06-19T08:54:44Z</time>
      </trkpt>
      <trkpt lat="42.446286" lon="1.041323">
        <ele>1871.761</ele>
        <time>2021-06-19T08:54:45Z</time>
      </trkpt>
      <trkpt lat="42.446270" lon="1.041503">
        <ele>1869.696</ele>
        <time>2021-06-19T08:54:47Z</time>
      </trkpt>
      <trkpt lat="42.446227" lon="1.041750">
        <ele>1867.731</ele>
        <time>2021-06-19T08:54:50Z</time>
      </trkpt>
      <trkpt lat="42.446189" lon="1.041890">
        <ele>1867.324</ele>
        <time>2021-06-19T08:54:52Z</time>
      </trkpt>
      <trkpt lat="42.446177" lon="1.042067">
        <ele>1865.808</ele>
        <time>2021-06-19T08:54:53Z</time>
      </trkpt>
      <trkpt lat="42.446177" lon="1.042067">
        <ele>1865.826</ele>
        <time>2021-06-19T08:54:54Z</time>
      </trkpt>
      <trkpt lat="42.446182" lon="1.042455">
        <ele>1861.495</ele>
        <time>2021-06-19T08:54:58Z</time>
      </trkpt>
      <trkpt lat="42.446176" lon="1.042557">
        <ele>1860.411</ele>
        <time>2021-06-19T08:54:59Z</time>
      </trkpt>
      <trkpt lat="42.446168" lon="1.042646">
        <ele>1859.485</ele>
        <time>2021-06-19T08:55:00Z</time>
      </trkpt>
      <trkpt lat="42.446113" lon="1.042920">
        <ele>1857.489</ele>
        <time>2021-06-19T08:55:03Z</time>
      </trkpt>
      <trkpt lat="42.446058" lon="1.043206">
        <ele>1855.199</ele>
        <time>2021-06-19T08:55:05Z</time>
      </trkpt>
      <trkpt lat="42.446021" lon="1.043476">
        <ele>1852.882</ele>
        <time>2021-06-19T08:55:09Z</time>
      </trkpt>
      <trkpt lat="42.446004" lon="1.043652">
        <ele>1851.219</ele>
        <time>2021-06-19T08:55:11Z</time>
      </trkpt>
      <trkpt lat="42.446017" lon="1.043940">
        <ele>1848.221</ele>
        <time>2021-06-19T08:55:13Z</time>
      </trkpt>
      <trkpt lat="42.446017" lon="1.043940">
        <ele>1848.241</ele>
        <time>2021-06-19T08:55:14Z</time>
      </trkpt>
      <trkpt lat="42.446035" lon="1.044133">
        <ele>1846.705</ele>
        <time>2021-06-19T08:55:16Z</time>
      </trkpt>
      <trkpt lat="42.446055" lon="1.044316">
        <ele>1845.208</ele>
        <time>2021-06-19T08:55:18Z</time>
      </trkpt>
      <trkpt lat="42.446073" lon="1.044411">
        <ele>1844.099</ele>
        <time>2021-06-19T08:55:19Z</time>
      </trkpt>
      <trkpt lat="42.446123" lon="1.044616">
        <ele>1841.428</ele>
        <time>2021-06-19T08:55:21Z</time>
      </trkpt>
      <trkpt lat="42.446163" lon="1.044823">
        <ele>1839.454</ele>
        <time>2021-06-19T08:55:22Z</time>
      </trkpt>
      <trkpt lat="42.446176" lon="1.044921">
        <ele>1838.738</ele>
        <time>2021-06-19T08:55:24Z</time>
      </trkpt>
      <trkpt lat="42.446207" lon="1.045198">
        <ele>1837.262</ele>
        <time>2021-06-19T08:55:27Z</time>
      </trkpt>
      <trkpt lat="42.446223" lon="1.045372">
        <ele>1836.082</ele>
        <time>2021-06-19T08:55:29Z</time>
      </trkpt>
      <trkpt lat="42.446254" lon="1.045543">
        <ele>1833.865</ele>
        <time>2021-06-19T08:55:30Z</time>
      </trkpt>
      <trkpt lat="42.446280" lon="1.045740">
        <ele>1831.632</ele>
        <time>2021-06-19T08:55:33Z</time>
      </trkpt>
      <trkpt lat="42.446286" lon="1.045949">
        <ele>1829.618</ele>
        <time>2021-06-19T08:55:35Z</time>
      </trkpt>
      <trkpt lat="42.446252" lon="1.046325">
        <ele>1827.598</ele>
        <time>2021-06-19T08:55:39Z</time>
      </trkpt>
      <trkpt lat="42.446251" lon="1.046414">
        <ele>1826.817</ele>
        <time>2021-06-19T08:55:40Z</time>
      </trkpt>
      <trkpt lat="42.446295" lon="1.046841">
        <ele>1822.108</ele>
        <time>2021-06-19T08:55:45Z</time>
      </trkpt>
      <trkpt lat="42.446306" lon="1.046905">
        <ele>1821.378</ele>
        <time>2021-06-19T08:55:46Z</time>
      </trkpt>
      <trkpt lat="42.446375" lon="1.047101">
        <ele>1819.087</ele>
        <time>2021-06-19T08:55:48Z</time>
      </trkpt>
      <trkpt lat="42.446375" lon="1.047101">
        <ele>1819.043</ele>
        <time>2021-06-19T08:55:49Z</time>
      </trkpt>
      <trkpt lat="42.446419" lon="1.047162">
        <ele>1817.877</ele>
        <time>2021-06-19T08:55:50Z</time>
      </trkpt>
      <trkpt lat="42.446467" lon="1.047221">
        <ele>1816.731</ele>
        <time>2021-06-19T08:55:51Z</time>
      </trkpt>
      <trkpt lat="42.446566" lon="1.047329">
        <ele>1814.881</ele>
        <time>2021-06-19T08:55:53Z</time>
      </trkpt>
      <trkpt lat="42.446614" lon="1.047388">
        <ele>1814.124</ele>
        <time>2021-06-19T08:55:54Z</time>
      </trkpt>
      <trkpt lat="42.446657" lon="1.047450">
        <ele>1813.781</ele>
        <time>2021-06-19T08:55:55Z</time>
      </trkpt>
      <trkpt lat="42.446791" lon="1.047646">
        <ele>1810.633</ele>
        <time>2021-06-19T08:55:57Z</time>
      </trkpt>
      <trkpt lat="42.446948" lon="1.047819">
        <ele>1808.723</ele>
        <time>2021-06-19T08:56:00Z</time>
      </trkpt>
      <trkpt lat="42.446948" lon="1.047819">
        <ele>1808.715</ele>
        <time>2021-06-19T08:56:01Z</time>
      </trkpt>
      <trkpt lat="42.446988" lon="1.047896">
        <ele>1807.008</ele>
        <time>2021-06-19T08:56:02Z</time>
      </trkpt>
      <trkpt lat="42.447027" lon="1.048240">
        <ele>1804.190</ele>
        <time>2021-06-19T08:56:05Z</time>
      </trkpt>
      <trkpt lat="42.447027" lon="1.048240">
        <ele>1804.149</ele>
        <time>2021-06-19T08:56:06Z</time>
      </trkpt>
      <trkpt lat="42.446990" lon="1.048308">
        <ele>1804.315</ele>
        <time>2021-06-19T08:56:07Z</time>
      </trkpt>
      <trkpt lat="42.446932" lon="1.048355">
        <ele>1804.699</ele>
        <time>2021-06-19T08:56:08Z</time>
      </trkpt>
      <trkpt lat="42.446738" lon="1.048467">
        <ele>1803.663</ele>
        <time>2021-06-19T08:56:11Z</time>
      </trkpt>
      <trkpt lat="42.446679" lon="1.048524">
        <ele>1803.123</ele>
        <time>2021-06-19T08:56:12Z</time>
      </trkpt>
      <trkpt lat="42.446624" lon="1.048589">
        <ele>1802.986</ele>
        <time>2021-06-19T08:56:13Z</time>
      </trkpt>
      <trkpt lat="42.446527" lon="1.048728">
        <ele>1802.753</ele>
        <time>2021-06-19T08:56:15Z</time>
      </trkpt>
      <trkpt lat="42.446481" lon="1.048797">
        <ele>1802.742</ele>
        <time>2021-06-19T08:56:16Z</time>
      </trkpt>
      <trkpt lat="42.446304" lon="1.049069">
        <ele>1802.122</ele>
        <time>2021-06-19T08:56:19Z</time>
      </trkpt>
      <trkpt lat="42.446252" lon="1.049133">
        <ele>1801.914</ele>
        <time>2021-06-19T08:56:21Z</time>
      </trkpt>
      <trkpt lat="42.446202" lon="1.049198">
        <ele>1801.708</ele>
        <time>2021-06-19T08:56:22Z</time>
      </trkpt>
      <trkpt lat="42.446080" lon="1.049436">
        <ele>1800.581</ele>
        <time>2021-06-19T08:56:25Z</time>
      </trkpt>
      <trkpt lat="42.445961" lon="1.049761">
        <ele>1798.130</ele>
        <time>2021-06-19T08:56:29Z</time>
      </trkpt>
      <trkpt lat="42.445752" lon="1.050307">
        <ele>1792.916</ele>
        <time>2021-06-19T08:56:35Z</time>
      </trkpt>
      <trkpt lat="42.445708" lon="1.050360">
        <ele>1792.690</ele>
        <time>2021-06-19T08:56:37Z</time>
      </trkpt>
      <trkpt lat="42.445613" lon="1.050420">
        <ele>1793.014</ele>
        <time>2021-06-19T08:56:39Z</time>
      </trkpt>
      <trkpt lat="42.445533" lon="1.050489">
        <ele>1792.664</ele>
        <time>2021-06-19T08:56:40Z</time>
      </trkpt>
      <trkpt lat="42.445533" lon="1.050489">
        <ele>1792.697</ele>
        <time>2021-06-19T08:56:41Z</time>
      </trkpt>
      <trkpt lat="42.445518" lon="1.050547">
        <ele>1791.364</ele>
        <time>2021-06-19T08:56:42Z</time>
      </trkpt>
      <trkpt lat="42.445564" lon="1.050659">
        <ele>1788.383</ele>
        <time>2021-06-19T08:56:44Z</time>
      </trkpt>
      <trkpt lat="42.445612" lon="1.050675">
        <ele>1787.325</ele>
        <time>2021-06-19T08:56:45Z</time>
      </trkpt>
      <trkpt lat="42.445715" lon="1.050638">
        <ele>1786.817</ele>
        <time>2021-06-19T08:56:47Z</time>
      </trkpt>
      <trkpt lat="42.445770" lon="1.050617">
        <ele>1786.508</ele>
        <time>2021-06-19T08:56:48Z</time>
      </trkpt>
      <trkpt lat="42.446018" lon="1.050533">
        <ele>1784.165</ele>
        <time>2021-06-19T08:56:52Z</time>
      </trkpt>
      <trkpt lat="42.446079" lon="1.050502">
        <ele>1783.564</ele>
        <time>2021-06-19T08:56:53Z</time>
      </trkpt>
      <trkpt lat="42.446250" lon="1.050450">
        <ele>1782.430</ele>
        <time>2021-06-19T08:56:56Z</time>
      </trkpt>
      <trkpt lat="42.446360" lon="1.050459">
        <ele>1781.034</ele>
        <time>2021-06-19T08:56:58Z</time>
      </trkpt>
      <trkpt lat="42.446418" lon="1.050458">
        <ele>1780.398</ele>
        <time>2021-06-19T08:56:59Z</time>
      </trkpt>
      <trkpt lat="42.446543" lon="1.050430">
        <ele>1778.748</ele>
        <time>2021-06-19T08:57:01Z</time>
      </trkpt>
      <trkpt lat="42.446672" lon="1.050389">
        <ele>1777.521</ele>
        <time>2021-06-19T08:57:02Z</time>
      </trkpt>
      <trkpt lat="42.446729" lon="1.050357">
        <ele>1776.938</ele>
        <time>2021-06-19T08:57:04Z</time>
      </trkpt>
      <trkpt lat="42.446826" lon="1.050280">
        <ele>1776.572</ele>
        <time>2021-06-19T08:57:06Z</time>
      </trkpt>
      <trkpt lat="42.446879" lon="1.050250">
        <ele>1775.913</ele>
        <time>2021-06-19T08:57:07Z</time>
      </trkpt>
      <trkpt lat="42.446990" lon="1.050178">
        <ele>1774.514</ele>
        <time>2021-06-19T08:57:09Z</time>
      </trkpt>
      <trkpt lat="42.447103" lon="1.050089">
        <ele>1773.208</ele>
        <time>2021-06-19T08:57:11Z</time>
      </trkpt>
      <trkpt lat="42.447156" lon="1.050038">
        <ele>1772.944</ele>
        <time>2021-06-19T08:57:12Z</time>
      </trkpt>
      <trkpt lat="42.447206" lon="1.049982">
        <ele>1772.733</ele>
        <time>2021-06-19T08:57:13Z</time>
      </trkpt>
      <trkpt lat="42.447353" lon="1.049810">
        <ele>1771.779</ele>
        <time>2021-06-19T08:57:16Z</time>
      </trkpt>
      <trkpt lat="42.447398" lon="1.049745">
        <ele>1771.533</ele>
        <time>2021-06-19T08:57:17Z</time>
      </trkpt>
      <trkpt lat="42.447436" lon="1.049673">
        <ele>1771.787</ele>
        <time>2021-06-19T08:57:18Z</time>
      </trkpt>
      <trkpt lat="42.447511" lon="1.049539">
        <ele>1772.027</ele>
        <time>2021-06-19T08:57:20Z</time>
      </trkpt>
      <trkpt lat="42.447636" lon="1.049552">
        <ele>1768.440</ele>
        <time>2021-06-19T08:57:22Z</time>
      </trkpt>
      <trkpt lat="42.447647" lon="1.049619">
        <ele>1766.847</ele>
        <time>2021-06-19T08:57:24Z</time>
      </trkpt>
      <trkpt lat="42.447634" lon="1.049692">
        <ele>1765.795</ele>
        <time>2021-06-19T08:57:25Z</time>
      </trkpt>
      <trkpt lat="42.447562" lon="1.049837">
        <ele>1765.149</ele>
        <time>2021-06-19T08:57:27Z</time>
      </trkpt>
      <trkpt lat="42.447514" lon="1.049902">
        <ele>1765.423</ele>
        <time>2021-06-19T08:57:28Z</time>
      </trkpt>
      <trkpt lat="42.447391" lon="1.050135">
        <ele>1764.508</ele>
        <time>2021-06-19T08:57:31Z</time>
      </trkpt>
      <trkpt lat="42.447334" lon="1.050315">
        <ele>1762.646</ele>
        <time>2021-06-19T08:57:33Z</time>
      </trkpt>
      <trkpt lat="42.447225" lon="1.050659">
        <ele>1759.585</ele>
        <time>2021-06-19T08:57:37Z</time>
      </trkpt>
      <trkpt lat="42.447189" lon="1.050735">
        <ele>1759.171</ele>
        <time>2021-06-19T08:57:38Z</time>
      </trkpt>
      <trkpt lat="42.447088" lon="1.050903">
        <ele>1758.235</ele>
        <time>2021-06-19T08:57:41Z</time>
      </trkpt>
      <trkpt lat="42.447027" lon="1.051000">
        <ele>1757.519</ele>
        <time>2021-06-19T08:57:42Z</time>
      </trkpt>
      <trkpt lat="42.446989" lon="1.051058">
        <ele>1757.239</ele>
        <time>2021-06-19T08:57:44Z</time>
      </trkpt>
      <trkpt lat="42.446947" lon="1.051119">
        <ele>1756.822</ele>
        <time>2021-06-19T08:57:45Z</time>
      </trkpt>
      <trkpt lat="42.446848" lon="1.051237">
        <ele>1755.319</ele>
        <time>2021-06-19T08:57:47Z</time>
      </trkpt>
      <trkpt lat="42.446789" lon="1.051287">
        <ele>1754.979</ele>
        <time>2021-06-19T08:57:48Z</time>
      </trkpt>
      <trkpt lat="42.446728" lon="1.051321">
        <ele>1754.805</ele>
        <time>2021-06-19T08:57:49Z</time>
      </trkpt>
      <trkpt lat="42.446564" lon="1.051384">
        <ele>1755.225</ele>
        <time>2021-06-19T08:57:52Z</time>
      </trkpt>
      <trkpt lat="42.446528" lon="1.051434">
        <ele>1754.708</ele>
        <time>2021-06-19T08:57:53Z</time>
      </trkpt>
      <trkpt lat="42.446530" lon="1.051606">
        <ele>1751.644</ele>
        <time>2021-06-19T08:57:56Z</time>
      </trkpt>
      <trkpt lat="42.446634" lon="1.051630">
        <ele>1750.073</ele>
        <time>2021-06-19T08:57:58Z</time>
      </trkpt>
      <trkpt lat="42.446753" lon="1.051614">
        <ele>1749.069</ele>
        <time>2021-06-19T08:58:00Z</time>
      </trkpt>
      <trkpt lat="42.446894" lon="1.051610">
        <ele>1747.663</ele>
        <time>2021-06-19T08:58:02Z</time>
      </trkpt>
      <trkpt lat="42.447125" lon="1.051594">
        <ele>1744.777</ele>
        <time>2021-06-19T08:58:05Z</time>
      </trkpt>
      <trkpt lat="42.447266" lon="1.051546">
        <ele>1743.587</ele>
        <time>2021-06-19T08:58:06Z</time>
      </trkpt>
      <trkpt lat="42.447266" lon="1.051546">
        <ele>1743.520</ele>
        <time>2021-06-19T08:58:07Z</time>
      </trkpt>
      <trkpt lat="42.447571" lon="1.051336">
        <ele>1741.287</ele>
        <time>2021-06-19T08:58:11Z</time>
      </trkpt>
      <trkpt lat="42.447571" lon="1.051336">
        <ele>1741.284</ele>
        <time>2021-06-19T08:58:12Z</time>
      </trkpt>
      <trkpt lat="42.447629" lon="1.051288">
        <ele>1740.507</ele>
        <time>2021-06-19T08:58:13Z</time>
      </trkpt>
      <trkpt lat="42.447719" lon="1.051206">
        <ele>1739.417</ele>
        <time>2021-06-19T08:58:15Z</time>
      </trkpt>
      <trkpt lat="42.447783" lon="1.051125">
        <ele>1738.708</ele>
        <time>2021-06-19T08:58:16Z</time>
      </trkpt>
      <trkpt lat="42.447819" lon="1.051086">
        <ele>1738.375</ele>
        <time>2021-06-19T08:58:18Z</time>
      </trkpt>
      <trkpt lat="42.448010" lon="1.050928">
        <ele>1735.844</ele>
        <time>2021-06-19T08:58:21Z</time>
      </trkpt>
      <trkpt lat="42.448057" lon="1.050877">
        <ele>1735.370</ele>
        <time>2021-06-19T08:58:23Z</time>
      </trkpt>
      <trkpt lat="42.448123" lon="1.050754">
        <ele>1733.634</ele>
        <time>2021-06-19T08:58:25Z</time>
      </trkpt>
      <trkpt lat="42.448132" lon="1.050683">
        <ele>1733.768</ele>
        <time>2021-06-19T08:58:26Z</time>
      </trkpt>
      <trkpt lat="42.448149" lon="1.050568">
        <ele>1733.938</ele>
        <time>2021-06-19T08:58:28Z</time>
      </trkpt>
      <trkpt lat="42.448242" lon="1.050445">
        <ele>1733.631</ele>
        <time>2021-06-19T08:58:31Z</time>
      </trkpt>
      <trkpt lat="42.448291" lon="1.050413">
        <ele>1732.948</ele>
        <time>2021-06-19T08:58:32Z</time>
      </trkpt>
      <trkpt lat="42.448344" lon="1.050381">
        <ele>1732.088</ele>
        <time>2021-06-19T08:58:33Z</time>
      </trkpt>
      <trkpt lat="42.448517" lon="1.050262">
        <ele>1729.324</ele>
        <time>2021-06-19T08:58:36Z</time>
      </trkpt>
      <trkpt lat="42.448618" lon="1.050148">
        <ele>1727.526</ele>
        <time>2021-06-19T08:58:37Z</time>
      </trkpt>
      <trkpt lat="42.448656" lon="1.050076">
        <ele>1726.808</ele>
        <time>2021-06-19T08:58:39Z</time>
      </trkpt>
      <trkpt lat="42.448759" lon="1.049727">
        <ele>1725.075</ele>
        <time>2021-06-19T08:58:43Z</time>
      </trkpt>
      <trkpt lat="42.448765" lon="1.049636">
        <ele>1724.724</ele>
        <time>2021-06-19T08:58:44Z</time>
      </trkpt>
      <trkpt lat="42.448759" lon="1.049487">
        <ele>1724.770</ele>
        <time>2021-06-19T08:58:46Z</time>
      </trkpt>
      <trkpt lat="42.448738" lon="1.049375">
        <ele>1725.834</ele>
        <time>2021-06-19T08:58:48Z</time>
      </trkpt>
      <trkpt lat="42.448742" lon="1.049249">
        <ele>1726.038</ele>
        <time>2021-06-19T08:58:50Z</time>
      </trkpt>
      <trkpt lat="42.448799" lon="1.049178">
        <ele>1723.888</ele>
        <time>2021-06-19T08:58:52Z</time>
      </trkpt>
      <trkpt lat="42.448864" lon="1.049264">
        <ele>1720.731</ele>
        <time>2021-06-19T08:58:54Z</time>
      </trkpt>
      <trkpt lat="42.448883" lon="1.049462">
        <ele>1719.398</ele>
        <time>2021-06-19T08:58:57Z</time>
      </trkpt>
      <trkpt lat="42.448909" lon="1.049842">
        <ele>1717.163</ele>
        <time>2021-06-19T08:59:00Z</time>
      </trkpt>
      <trkpt lat="42.448909" lon="1.049842">
        <ele>1717.144</ele>
        <time>2021-06-19T08:59:01Z</time>
      </trkpt>
      <trkpt lat="42.448900" lon="1.050044">
        <ele>1715.718</ele>
        <time>2021-06-19T08:59:03Z</time>
      </trkpt>
      <trkpt lat="42.448860" lon="1.050244">
        <ele>1714.108</ele>
        <time>2021-06-19T08:59:05Z</time>
      </trkpt>
      <trkpt lat="42.448832" lon="1.050333">
        <ele>1713.493</ele>
        <time>2021-06-19T08:59:06Z</time>
      </trkpt>
      <trkpt lat="42.448756" lon="1.050614">
        <ele>1709.682</ele>
        <time>2021-06-19T08:59:08Z</time>
      </trkpt>
      <trkpt lat="42.448728" lon="1.050697">
        <ele>1708.868</ele>
        <time>2021-06-19T08:59:10Z</time>
      </trkpt>
      <trkpt lat="42.448661" lon="1.050832">
        <ele>1708.522</ele>
        <time>2021-06-19T08:59:12Z</time>
      </trkpt>
      <trkpt lat="42.448607" lon="1.050959">
        <ele>1709.436</ele>
        <time>2021-06-19T08:59:13Z</time>
      </trkpt>
      <trkpt lat="42.448607" lon="1.050959">
        <ele>1709.456</ele>
        <time>2021-06-19T08:59:14Z</time>
      </trkpt>
      <trkpt lat="42.448622" lon="1.051129">
        <ele>1706.349</ele>
        <time>2021-06-19T08:59:15Z</time>
      </trkpt>
      <trkpt lat="42.448622" lon="1.051129">
        <ele>1706.366</ele>
        <time>2021-06-19T08:59:16Z</time>
      </trkpt>
      <trkpt lat="42.448657" lon="1.051316">
        <ele>1704.389</ele>
        <time>2021-06-19T08:59:18Z</time>
      </trkpt>
      <trkpt lat="42.448650" lon="1.051514">
        <ele>1702.606</ele>
        <time>2021-06-19T08:59:19Z</time>
      </trkpt>
      <trkpt lat="42.448630" lon="1.051702">
        <ele>1700.526</ele>
        <time>2021-06-19T08:59:21Z</time>
      </trkpt>
      <trkpt lat="42.448593" lon="1.051863">
        <ele>1699.908</ele>
        <time>2021-06-19T08:59:24Z</time>
      </trkpt>
      <trkpt lat="42.448576" lon="1.051939">
        <ele>1699.585</ele>
        <time>2021-06-19T08:59:25Z</time>
      </trkpt>
      <trkpt lat="42.448555" lon="1.052105">
        <ele>1697.824</ele>
        <time>2021-06-19T08:59:26Z</time>
      </trkpt>
      <trkpt lat="42.448543" lon="1.052196">
        <ele>1696.970</ele>
        <time>2021-06-19T08:59:28Z</time>
      </trkpt>
      <trkpt lat="42.448489" lon="1.052587">
        <ele>1694.054</ele>
        <time>2021-06-19T08:59:32Z</time>
      </trkpt>
      <trkpt lat="42.448424" lon="1.052852">
        <ele>1693.378</ele>
        <time>2021-06-19T08:59:34Z</time>
      </trkpt>
      <trkpt lat="42.448424" lon="1.052852">
        <ele>1693.388</ele>
        <time>2021-06-19T08:59:35Z</time>
      </trkpt>
      <trkpt lat="42.448404" lon="1.052933">
        <ele>1693.211</ele>
        <time>2021-06-19T08:59:36Z</time>
      </trkpt>
      <trkpt lat="42.448389" lon="1.053105">
        <ele>1691.948</ele>
        <time>2021-06-19T08:59:38Z</time>
      </trkpt>
      <trkpt lat="42.448391" lon="1.053267">
        <ele>1690.411</ele>
        <time>2021-06-19T08:59:40Z</time>
      </trkpt>
      <trkpt lat="42.448395" lon="1.053338">
        <ele>1689.621</ele>
        <time>2021-06-19T08:59:41Z</time>
      </trkpt>
      <trkpt lat="42.448398" lon="1.053401">
        <ele>1688.903</ele>
        <time>2021-06-19T08:59:42Z</time>
      </trkpt>
      <trkpt lat="42.448376" lon="1.053583">
        <ele>1687.408</ele>
        <time>2021-06-19T08:59:45Z</time>
      </trkpt>
      <trkpt lat="42.448376" lon="1.053583">
        <ele>1687.428</ele>
        <time>2021-06-19T08:59:46Z</time>
      </trkpt>
      <trkpt lat="42.448362" lon="1.053631">
        <ele>1687.017</ele>
        <time>2021-06-19T08:59:47Z</time>
      </trkpt>
      <trkpt lat="42.448326" lon="1.053756">
        <ele>1685.583</ele>
        <time>2021-06-19T08:59:49Z</time>
      </trkpt>
      <trkpt lat="42.448307" lon="1.053827">
        <ele>1684.627</ele>
        <time>2021-06-19T08:59:50Z</time>
      </trkpt>
      <trkpt lat="42.448266" lon="1.053949">
        <ele>1682.311</ele>
        <time>2021-06-19T08:59:51Z</time>
      </trkpt>
      <trkpt lat="42.448217" lon="1.054036">
        <ele>1680.561</ele>
        <time>2021-06-19T08:59:53Z</time>
      </trkpt>
      <trkpt lat="42.448187" lon="1.054067">
        <ele>1680.294</ele>
        <time>2021-06-19T08:59:55Z</time>
      </trkpt>
      <trkpt lat="42.448151" lon="1.054093">
        <ele>1680.231</ele>
        <time>2021-06-19T08:59:56Z</time>
      </trkpt>
      <trkpt lat="42.448009" lon="1.054124">
        <ele>1680.915</ele>
        <time>2021-06-19T08:59:58Z</time>
      </trkpt>
      <trkpt lat="42.448009" lon="1.054124">
        <ele>1680.965</ele>
        <time>2021-06-19T08:59:59Z</time>
      </trkpt>
      <trkpt lat="42.447861" lon="1.054114">
        <ele>1680.111</ele>
        <time>2021-06-19T09:00:02Z</time>
      </trkpt>
      <trkpt lat="42.447761" lon="1.054151">
        <ele>1678.508</ele>
        <time>2021-06-19T09:00:03Z</time>
      </trkpt>
      <trkpt lat="42.447761" lon="1.054151">
        <ele>1678.588</ele>
        <time>2021-06-19T09:00:04Z</time>
      </trkpt>
      <trkpt lat="42.447515" lon="1.054318">
        <ele>1673.627</ele>
        <time>2021-06-19T09:00:09Z</time>
      </trkpt>
      <trkpt lat="42.447432" lon="1.054363">
        <ele>1671.553</ele>
        <time>2021-06-19T09:00:10Z</time>
      </trkpt>
      <trkpt lat="42.447384" lon="1.054378">
        <ele>1670.637</ele>
        <time>2021-06-19T09:00:12Z</time>
      </trkpt>
      <trkpt lat="42.447296" lon="1.054362">
        <ele>1670.091</ele>
        <time>2021-06-19T09:00:14Z</time>
      </trkpt>
      <trkpt lat="42.447202" lon="1.054303">
        <ele>1670.721</ele>
        <time>2021-06-19T09:00:16Z</time>
      </trkpt>
      <trkpt lat="42.447202" lon="1.054303">
        <ele>1670.764</ele>
        <time>2021-06-19T09:00:17Z</time>
      </trkpt>
      <trkpt lat="42.447164" lon="1.054306">
        <ele>1670.821</ele>
        <time>2021-06-19T09:00:18Z</time>
      </trkpt>
      <trkpt lat="42.447027" lon="1.054464">
        <ele>1667.146</ele>
        <time>2021-06-19T09:00:22Z</time>
      </trkpt>
      <trkpt lat="42.446846" lon="1.054642">
        <ele>1663.188</ele>
        <time>2021-06-19T09:00:27Z</time>
      </trkpt>
      <trkpt lat="42.446814" lon="1.054670">
        <ele>1662.516</ele>
        <time>2021-06-19T09:00:28Z</time>
      </trkpt>
      <trkpt lat="42.446783" lon="1.054705">
        <ele>1661.708</ele>
        <time>2021-06-19T09:00:29Z</time>
      </trkpt>
      <trkpt lat="42.446642" lon="1.054821">
        <ele>1659.181</ele>
        <time>2021-06-19T09:00:31Z</time>
      </trkpt>
      <trkpt lat="42.446642" lon="1.054821">
        <ele>1659.180</ele>
        <time>2021-06-19T09:00:32Z</time>
      </trkpt>
      <trkpt lat="42.446525" lon="1.054893">
        <ele>1656.876</ele>
        <time>2021-06-19T09:00:37Z</time>
      </trkpt>
      <trkpt lat="42.446486" lon="1.054901">
        <ele>1656.430</ele>
        <time>2021-06-19T09:00:38Z</time>
      </trkpt>
      <trkpt lat="42.446451" lon="1.054903">
        <ele>1656.374</ele>
        <time>2021-06-19T09:00:39Z</time>
      </trkpt>
      <trkpt lat="42.446370" lon="1.054939">
        <ele>1654.794</ele>
        <time>2021-06-19T09:00:42Z</time>
      </trkpt>
      <trkpt lat="42.446340" lon="1.054950">
        <ele>1653.977</ele>
        <time>2021-06-19T09:00:43Z</time>
      </trkpt>
      <trkpt lat="42.446256" lon="1.054962">
        <ele>1652.414</ele>
        <time>2021-06-19T09:00:44Z</time>
      </trkpt>
      <trkpt lat="42.446256" lon="1.054962">
        <ele>1652.461</ele>
        <time>2021-06-19T09:00:45Z</time>
      </trkpt>
      <trkpt lat="42.446205" lon="1.054960">
        <ele>1651.721</ele>
        <time>2021-06-19T09:00:46Z</time>
      </trkpt>
      <trkpt lat="42.446107" lon="1.054931">
        <ele>1651.413</ele>
        <time>2021-06-19T09:00:48Z</time>
      </trkpt>
      <trkpt lat="42.446062" lon="1.054915">
        <ele>1650.808</ele>
        <time>2021-06-19T09:00:49Z</time>
      </trkpt>
      <trkpt lat="42.445912" lon="1.054875">
        <ele>1648.293</ele>
        <time>2021-06-19T09:00:53Z</time>
      </trkpt>
      <trkpt lat="42.445880" lon="1.054870">
        <ele>1647.562</ele>
        <time>2021-06-19T09:00:54Z</time>
      </trkpt>
      <trkpt lat="42.445795" lon="1.054854">
        <ele>1646.568</ele>
        <time>2021-06-19T09:00:57Z</time>
      </trkpt>
      <trkpt lat="42.445712" lon="1.054823">
        <ele>1646.722</ele>
        <time>2021-06-19T09:01:00Z</time>
      </trkpt>
      <trkpt lat="42.445674" lon="1.054816">
        <ele>1646.776</ele>
        <time>2021-06-19T09:01:01Z</time>
      </trkpt>
      <trkpt lat="42.445592" lon="1.054848">
        <ele>1645.526</ele>
        <time>2021-06-19T09:01:03Z</time>
      </trkpt>
      <trkpt lat="42.445557" lon="1.054884">
        <ele>1644.589</ele>
        <time>2021-06-19T09:01:04Z</time>
      </trkpt>
      <trkpt lat="42.445477" lon="1.055110">
        <ele>1642.286</ele>
        <time>2021-06-19T09:01:07Z</time>
      </trkpt>
      <trkpt lat="42.445477" lon="1.055110">
        <ele>1642.245</ele>
        <time>2021-06-19T09:01:08Z</time>
      </trkpt>
      <trkpt lat="42.445406" lon="1.055380">
        <ele>1638.247</ele>
        <time>2021-06-19T09:01:12Z</time>
      </trkpt>
      <trkpt lat="42.445406" lon="1.055380">
        <ele>1638.211</ele>
        <time>2021-06-19T09:01:13Z</time>
      </trkpt>
      <trkpt lat="42.445287" lon="1.055541">
        <ele>1637.108</ele>
        <time>2021-06-19T09:01:18Z</time>
      </trkpt>
      <trkpt lat="42.445256" lon="1.055589">
        <ele>1636.671</ele>
        <time>2021-06-19T09:01:19Z</time>
      </trkpt>
      <trkpt lat="42.445225" lon="1.055646">
        <ele>1635.870</ele>
        <time>2021-06-19T09:01:20Z</time>
      </trkpt>
      <trkpt lat="42.445159" lon="1.055762">
        <ele>1634.076</ele>
        <time>2021-06-19T09:01:22Z</time>
      </trkpt>
      <trkpt lat="42.445119" lon="1.055816">
        <ele>1633.390</ele>
        <time>2021-06-19T09:01:23Z</time>
      </trkpt>
      <trkpt lat="42.445079" lon="1.055866">
        <ele>1632.694</ele>
        <time>2021-06-19T09:01:24Z</time>
      </trkpt>
      <trkpt lat="42.444946" lon="1.056002">
        <ele>1630.784</ele>
        <time>2021-06-19T09:01:27Z</time>
      </trkpt>
      <trkpt lat="42.444857" lon="1.056078">
        <ele>1629.837</ele>
        <time>2021-06-19T09:01:29Z</time>
      </trkpt>
      <trkpt lat="42.444785" lon="1.056131">
        <ele>1629.314</ele>
        <time>2021-06-19T09:01:31Z</time>
      </trkpt>
      <trkpt lat="42.444724" lon="1.056202">
        <ele>1628.398</ele>
        <time>2021-06-19T09:01:33Z</time>
      </trkpt>
      <trkpt lat="42.444689" lon="1.056256">
        <ele>1627.815</ele>
        <time>2021-06-19T09:01:34Z</time>
      </trkpt>
      <trkpt lat="42.444618" lon="1.056385">
        <ele>1626.526</ele>
        <time>2021-06-19T09:01:36Z</time>
      </trkpt>
      <trkpt lat="42.444586" lon="1.056456">
        <ele>1625.808</ele>
        <time>2021-06-19T09:01:37Z</time>
      </trkpt>
      <trkpt lat="42.444553" lon="1.056525">
        <ele>1625.276</ele>
        <time>2021-06-19T09:01:38Z</time>
      </trkpt>
      <trkpt lat="42.444440" lon="1.056739">
        <ele>1623.385</ele>
        <time>2021-06-19T09:01:42Z</time>
      </trkpt>
      <trkpt lat="42.444411" lon="1.056772">
        <ele>1623.471</ele>
        <time>2021-06-19T09:01:43Z</time>
      </trkpt>
      <trkpt lat="42.444317" lon="1.056920">
        <ele>1622.375</ele>
        <time>2021-06-19T09:01:46Z</time>
      </trkpt>
      <trkpt lat="42.444245" lon="1.057046">
        <ele>1621.259</ele>
        <time>2021-06-19T09:01:48Z</time>
      </trkpt>
      <trkpt lat="42.444168" lon="1.057260">
        <ele>1618.179</ele>
        <time>2021-06-19T09:01:51Z</time>
      </trkpt>
      <trkpt lat="42.444132" lon="1.057392">
        <ele>1616.412</ele>
        <time>2021-06-19T09:01:53Z</time>
      </trkpt>
      <trkpt lat="42.444105" lon="1.057518">
        <ele>1614.329</ele>
        <time>2021-06-19T09:01:55Z</time>
      </trkpt>
      <trkpt lat="42.444079" lon="1.057574">
        <ele>1613.557</ele>
        <time>2021-06-19T09:01:56Z</time>
      </trkpt>
      <trkpt lat="42.443960" lon="1.057694">
        <ele>1613.000</ele>
        <time>2021-06-19T09:01:59Z</time>
      </trkpt>
      <trkpt lat="42.443918" lon="1.057725">
        <ele>1613.020</ele>
        <time>2021-06-19T09:02:00Z</time>
      </trkpt>
      <trkpt lat="42.443860" lon="1.057820">
        <ele>1611.708</ele>
        <time>2021-06-19T09:02:01Z</time>
      </trkpt>
      <trkpt lat="42.443860" lon="1.057820">
        <ele>1611.742</ele>
        <time>2021-06-19T09:02:02Z</time>
      </trkpt>
      <trkpt lat="42.443860" lon="1.057876">
        <ele>1610.631</ele>
        <time>2021-06-19T09:02:03Z</time>
      </trkpt>
      <trkpt lat="42.443886" lon="1.057920">
        <ele>1609.527</ele>
        <time>2021-06-19T09:02:04Z</time>
      </trkpt>
      <trkpt lat="42.443973" lon="1.057932">
        <ele>1607.111</ele>
        <time>2021-06-19T09:02:06Z</time>
      </trkpt>
      <trkpt lat="42.444020" lon="1.057911">
        <ele>1606.325</ele>
        <time>2021-06-19T09:02:07Z</time>
      </trkpt>
      <trkpt lat="42.444152" lon="1.057796">
        <ele>1605.915</ele>
        <time>2021-06-19T09:02:10Z</time>
      </trkpt>
      <trkpt lat="42.444185" lon="1.057757">
        <ele>1606.158</ele>
        <time>2021-06-19T09:02:11Z</time>
      </trkpt>
      <trkpt lat="42.444219" lon="1.057721">
        <ele>1606.225</ele>
        <time>2021-06-19T09:02:12Z</time>
      </trkpt>
      <trkpt lat="42.444344" lon="1.057633">
        <ele>1605.247</ele>
        <time>2021-06-19T09:02:14Z</time>
      </trkpt>
      <trkpt lat="42.444344" lon="1.057633">
        <ele>1605.229</ele>
        <time>2021-06-19T09:02:15Z</time>
      </trkpt>
      <trkpt lat="42.444581" lon="1.057573">
        <ele>1601.521</ele>
        <time>2021-06-19T09:02:19Z</time>
      </trkpt>
      <trkpt lat="42.444637" lon="1.057560">
        <ele>1600.808</ele>
        <time>2021-06-19T09:02:20Z</time>
      </trkpt>
      <trkpt lat="42.444695" lon="1.057549">
        <ele>1600.291</ele>
        <time>2021-06-19T09:02:21Z</time>
      </trkpt>
      <trkpt lat="42.444752" lon="1.057529">
        <ele>1599.450</ele>
        <time>2021-06-19T09:02:22Z</time>
      </trkpt>
      <trkpt lat="42.444857" lon="1.057453">
        <ele>1598.056</ele>
        <time>2021-06-19T09:02:24Z</time>
      </trkpt>
      <trkpt lat="42.444998" lon="1.057302">
        <ele>1596.620</ele>
        <time>2021-06-19T09:02:27Z</time>
      </trkpt>
      <trkpt lat="42.445039" lon="1.057250">
        <ele>1596.884</ele>
        <time>2021-06-19T09:02:28Z</time>
      </trkpt>
      <trkpt lat="42.445140" lon="1.057172">
        <ele>1596.554</ele>
        <time>2021-06-19T09:02:29Z</time>
      </trkpt>
      <trkpt lat="42.445249" lon="1.057148">
        <ele>1595.197</ele>
        <time>2021-06-19T09:02:31Z</time>
      </trkpt>
      <trkpt lat="42.445249" lon="1.057148">
        <ele>1595.124</ele>
        <time>2021-06-19T09:02:32Z</time>
      </trkpt>
      <trkpt lat="42.445307" lon="1.057150">
        <ele>1594.361</ele>
        <time>2021-06-19T09:02:33Z</time>
      </trkpt>
      <trkpt lat="42.445517" lon="1.057193">
        <ele>1591.821</ele>
        <time>2021-06-19T09:02:36Z</time>
      </trkpt>
      <trkpt lat="42.445517" lon="1.057193">
        <ele>1591.813</ele>
        <time>2021-06-19T09:02:37Z</time>
      </trkpt>
      <trkpt lat="42.445571" lon="1.057179">
        <ele>1591.608</ele>
        <time>2021-06-19T09:02:38Z</time>
      </trkpt>
      <trkpt lat="42.445662" lon="1.057096">
        <ele>1591.783</ele>
        <time>2021-06-19T09:02:40Z</time>
      </trkpt>
      <trkpt lat="42.445763" lon="1.057057">
        <ele>1591.082</ele>
        <time>2021-06-19T09:02:41Z</time>
      </trkpt>
      <trkpt lat="42.445763" lon="1.057057">
        <ele>1591.028</ele>
        <time>2021-06-19T09:02:42Z</time>
      </trkpt>
      <trkpt lat="42.445811" lon="1.057083">
        <ele>1589.852</ele>
        <time>2021-06-19T09:02:43Z</time>
      </trkpt>
      <trkpt lat="42.445835" lon="1.057138">
        <ele>1588.546</ele>
        <time>2021-06-19T09:02:44Z</time>
      </trkpt>
      <trkpt lat="42.445800" lon="1.057279">
        <ele>1586.696</ele>
        <time>2021-06-19T09:02:46Z</time>
      </trkpt>
      <trkpt lat="42.445759" lon="1.057355">
        <ele>1586.049</ele>
        <time>2021-06-19T09:02:47Z</time>
      </trkpt>
      <trkpt lat="42.445662" lon="1.057504">
        <ele>1584.856</ele>
        <time>2021-06-19T09:02:48Z</time>
      </trkpt>
      <trkpt lat="42.445608" lon="1.057561">
        <ele>1584.189</ele>
        <time>2021-06-19T09:02:50Z</time>
      </trkpt>
      <trkpt lat="42.445448" lon="1.057696">
        <ele>1582.806</ele>
        <time>2021-06-19T09:02:53Z</time>
      </trkpt>
      <trkpt lat="42.445376" lon="1.057768">
        <ele>1582.126</ele>
        <time>2021-06-19T09:02:57Z</time>
      </trkpt>
      <trkpt lat="42.445350" lon="1.057811">
        <ele>1581.608</ele>
        <time>2021-06-19T09:02:58Z</time>
      </trkpt>
      <trkpt lat="42.445309" lon="1.057927">
        <ele>1579.955</ele>
        <time>2021-06-19T09:03:00Z</time>
      </trkpt>
      <trkpt lat="42.445266" lon="1.058126">
        <ele>1577.054</ele>
        <time>2021-06-19T09:03:02Z</time>
      </trkpt>
      <trkpt lat="42.445266" lon="1.058126">
        <ele>1577.020</ele>
        <time>2021-06-19T09:03:03Z</time>
      </trkpt>
      <trkpt lat="42.445249" lon="1.058195">
        <ele>1576.194</ele>
        <time>2021-06-19T09:03:04Z</time>
      </trkpt>
      <trkpt lat="42.445209" lon="1.058334">
        <ele>1574.578</ele>
        <time>2021-06-19T09:03:06Z</time>
      </trkpt>
      <trkpt lat="42.445110" lon="1.058529">
        <ele>1572.898</ele>
        <time>2021-06-19T09:03:08Z</time>
      </trkpt>
      <trkpt lat="42.445110" lon="1.058529">
        <ele>1572.851</ele>
        <time>2021-06-19T09:03:09Z</time>
      </trkpt>
      <trkpt lat="42.445070" lon="1.058596">
        <ele>1572.528</ele>
        <time>2021-06-19T09:03:10Z</time>
      </trkpt>
      <trkpt lat="42.444915" lon="1.058764">
        <ele>1571.134</ele>
        <time>2021-06-19T09:03:13Z</time>
      </trkpt>
      <trkpt lat="42.444866" lon="1.058795">
        <ele>1570.755</ele>
        <time>2021-06-19T09:03:14Z</time>
      </trkpt>
      <trkpt lat="42.444826" lon="1.058818">
        <ele>1570.310</ele>
        <time>2021-06-19T09:03:15Z</time>
      </trkpt>
      <trkpt lat="42.444790" lon="1.058835">
        <ele>1570.108</ele>
        <time>2021-06-19T09:03:16Z</time>
      </trkpt>
      <trkpt lat="42.444721" lon="1.058889">
        <ele>1569.020</ele>
        <time>2021-06-19T09:03:18Z</time>
      </trkpt>
      <trkpt lat="42.444694" lon="1.058936">
        <ele>1568.869</ele>
        <time>2021-06-19T09:03:19Z</time>
      </trkpt>
      <trkpt lat="42.444660" lon="1.059063">
        <ele>1567.285</ele>
        <time>2021-06-19T09:03:21Z</time>
      </trkpt>
      <trkpt lat="42.444640" lon="1.059134">
        <ele>1566.149</ele>
        <time>2021-06-19T09:03:22Z</time>
      </trkpt>
      <trkpt lat="42.444505" lon="1.059309">
        <ele>1564.343</ele>
        <time>2021-06-19T09:03:25Z</time>
      </trkpt>
      <trkpt lat="42.444392" lon="1.059371">
        <ele>1564.143</ele>
        <time>2021-06-19T09:03:27Z</time>
      </trkpt>
      <trkpt lat="42.444288" lon="1.059406">
        <ele>1563.636</ele>
        <time>2021-06-19T09:03:29Z</time>
      </trkpt>
      <trkpt lat="42.444238" lon="1.059416">
        <ele>1563.573</ele>
        <time>2021-06-19T09:03:30Z</time>
      </trkpt>
      <trkpt lat="42.444194" lon="1.059436">
        <ele>1563.161</ele>
        <time>2021-06-19T09:03:31Z</time>
      </trkpt>
      <trkpt lat="42.444146" lon="1.059533">
        <ele>1561.021</ele>
        <time>2021-06-19T09:03:32Z</time>
      </trkpt>
      <trkpt lat="42.444157" lon="1.059602">
        <ele>1559.913</ele>
        <time>2021-06-19T09:03:34Z</time>
      </trkpt>
      <trkpt lat="42.444196" lon="1.059667">
        <ele>1558.908</ele>
        <time>2021-06-19T09:03:35Z</time>
      </trkpt>
      <trkpt lat="42.444368" lon="1.059767">
        <ele>1556.213</ele>
        <time>2021-06-19T09:03:38Z</time>
      </trkpt>
      <trkpt lat="42.444485" lon="1.059777">
        <ele>1554.812</ele>
        <time>2021-06-19T09:03:39Z</time>
      </trkpt>
      <trkpt lat="42.444543" lon="1.059756">
        <ele>1554.158</ele>
        <time>2021-06-19T09:03:41Z</time>
      </trkpt>
      <trkpt lat="42.444595" lon="1.059722">
        <ele>1553.842</ele>
        <time>2021-06-19T09:03:42Z</time>
      </trkpt>
      <trkpt lat="42.444670" lon="1.059651">
        <ele>1553.666</ele>
        <time>2021-06-19T09:03:44Z</time>
      </trkpt>
      <trkpt lat="42.444701" lon="1.059615">
        <ele>1553.736</ele>
        <time>2021-06-19T09:03:45Z</time>
      </trkpt>
      <trkpt lat="42.444736" lon="1.059581">
        <ele>1554.049</ele>
        <time>2021-06-19T09:03:46Z</time>
      </trkpt>
      <trkpt lat="42.444831" lon="1.059571">
        <ele>1553.746</ele>
        <time>2021-06-19T09:03:48Z</time>
      </trkpt>
      <trkpt lat="42.444953" lon="1.059695">
        <ele>1550.083</ele>
        <time>2021-06-19T09:03:51Z</time>
      </trkpt>
      <trkpt lat="42.445111" lon="1.059727">
        <ele>1546.525</ele>
        <time>2021-06-19T09:03:54Z</time>
      </trkpt>
      <trkpt lat="42.445174" lon="1.059705">
        <ele>1545.717</ele>
        <time>2021-06-19T09:03:55Z</time>
      </trkpt>
      <trkpt lat="42.445296" lon="1.059624">
        <ele>1545.108</ele>
        <time>2021-06-19T09:03:57Z</time>
      </trkpt>
      <trkpt lat="42.445400" lon="1.059525">
        <ele>1545.585</ele>
        <time>2021-06-19T09:03:59Z</time>
      </trkpt>
      <trkpt lat="42.445482" lon="1.059424">
        <ele>1546.164</ele>
        <time>2021-06-19T09:04:01Z</time>
      </trkpt>
      <trkpt lat="42.445597" lon="1.059456">
        <ele>1542.580</ele>
        <time>2021-06-19T09:04:03Z</time>
      </trkpt>
      <trkpt lat="42.445597" lon="1.059456">
        <ele>1542.514</ele>
        <time>2021-06-19T09:04:04Z</time>
      </trkpt>
      <trkpt lat="42.445613" lon="1.059510">
        <ele>1540.848</ele>
        <time>2021-06-19T09:04:05Z</time>
      </trkpt>
      <trkpt lat="42.445584" lon="1.059618">
        <ele>1539.238</ele>
        <time>2021-06-19T09:04:06Z</time>
      </trkpt>
      <trkpt lat="42.445552" lon="1.059655">
        <ele>1539.521</ele>
        <time>2021-06-19T09:04:08Z</time>
      </trkpt>
      <trkpt lat="42.445487" lon="1.059694">
        <ele>1539.938</ele>
        <time>2021-06-19T09:04:10Z</time>
      </trkpt>
      <trkpt lat="42.445415" lon="1.059736">
        <ele>1540.182</ele>
        <time>2021-06-19T09:04:12Z</time>
      </trkpt>
      <trkpt lat="42.445377" lon="1.059778">
        <ele>1539.543</ele>
        <time>2021-06-19T09:04:13Z</time>
      </trkpt>
      <trkpt lat="42.445339" lon="1.059832">
        <ele>1538.617</ele>
        <time>2021-06-19T09:04:14Z</time>
      </trkpt>
      <trkpt lat="42.445280" lon="1.059963">
        <ele>1536.008</ele>
        <time>2021-06-19T09:04:15Z</time>
      </trkpt>
      <trkpt lat="42.445280" lon="1.059963">
        <ele>1536.055</ele>
        <time>2021-06-19T09:04:16Z</time>
      </trkpt>
      <trkpt lat="42.445256" lon="1.060024">
        <ele>1535.074</ele>
        <time>2021-06-19T09:04:17Z</time>
      </trkpt>
      <trkpt lat="42.445232" lon="1.060077">
        <ele>1534.460</ele>
        <time>2021-06-19T09:04:18Z</time>
      </trkpt>
      <trkpt lat="42.445139" lon="1.060272">
        <ele>1531.674</ele>
        <time>2021-06-19T09:04:22Z</time>
      </trkpt>
      <trkpt lat="42.445114" lon="1.060319">
        <ele>1530.948</ele>
        <time>2021-06-19T09:04:23Z</time>
      </trkpt>
      <trkpt lat="42.445034" lon="1.060435">
        <ele>1529.918</ele>
        <time>2021-06-19T09:04:26Z</time>
      </trkpt>
      <trkpt lat="42.445005" lon="1.060472">
        <ele>1529.761</ele>
        <time>2021-06-19T09:04:27Z</time>
      </trkpt>
      <trkpt lat="42.444971" lon="1.060491">
        <ele>1529.798</ele>
        <time>2021-06-19T09:04:28Z</time>
      </trkpt>
      <trkpt lat="42.444931" lon="1.060499">
        <ele>1530.069</ele>
        <time>2021-06-19T09:04:29Z</time>
      </trkpt>
      <trkpt lat="42.444846" lon="1.060545">
        <ele>1529.904</ele>
        <time>2021-06-19T09:04:31Z</time>
      </trkpt>
      <trkpt lat="42.444798" lon="1.060591">
        <ele>1529.224</ele>
        <time>2021-06-19T09:04:32Z</time>
      </trkpt>
      <trkpt lat="42.444640" lon="1.060797">
        <ele>1525.308</ele>
        <time>2021-06-19T09:04:36Z</time>
      </trkpt>
      <trkpt lat="42.444505" lon="1.060973">
        <ele>1521.853</ele>
        <time>2021-06-19T09:04:40Z</time>
      </trkpt>
      <trkpt lat="42.444464" lon="1.061018">
        <ele>1520.892</ele>
        <time>2021-06-19T09:04:41Z</time>
      </trkpt>
      <trkpt lat="42.444417" lon="1.061058">
        <ele>1519.818</ele>
        <time>2021-06-19T09:04:42Z</time>
      </trkpt>
      <trkpt lat="42.444315" lon="1.061095">
        <ele>1519.032</ele>
        <time>2021-06-19T09:04:44Z</time>
      </trkpt>
      <trkpt lat="42.444268" lon="1.061088">
        <ele>1519.426</ele>
        <time>2021-06-19T09:04:45Z</time>
      </trkpt>
      <trkpt lat="42.444129" lon="1.061070">
        <ele>1520.096</ele>
        <time>2021-06-19T09:04:48Z</time>
      </trkpt>
      <trkpt lat="42.444085" lon="1.061065">
        <ele>1519.529</ele>
        <time>2021-06-19T09:04:49Z</time>
      </trkpt>
      <trkpt lat="42.444002" lon="1.061058">
        <ele>1518.656</ele>
        <time>2021-06-19T09:04:51Z</time>
      </trkpt>
      <trkpt lat="42.443961" lon="1.061074">
        <ele>1517.657</ele>
        <time>2021-06-19T09:04:52Z</time>
      </trkpt>
      <trkpt lat="42.443929" lon="1.061112">
        <ele>1516.400</ele>
        <time>2021-06-19T09:04:53Z</time>
      </trkpt>
      <trkpt lat="42.443933" lon="1.061298">
        <ele>1513.520</ele>
        <time>2021-06-19T09:04:56Z</time>
      </trkpt>
      <trkpt lat="42.443965" lon="1.061354">
        <ele>1512.608</ele>
        <time>2021-06-19T09:04:57Z</time>
      </trkpt>
      <trkpt lat="42.444076" lon="1.061429">
        <ele>1510.992</ele>
        <time>2021-06-19T09:04:59Z</time>
      </trkpt>
      <trkpt lat="42.444221" lon="1.061442">
        <ele>1510.321</ele>
        <time>2021-06-19T09:05:01Z</time>
      </trkpt>
      <trkpt lat="42.444375" lon="1.061435">
        <ele>1509.917</ele>
        <time>2021-06-19T09:05:03Z</time>
      </trkpt>
      <trkpt lat="42.444451" lon="1.061431">
        <ele>1509.761</ele>
        <time>2021-06-19T09:05:04Z</time>
      </trkpt>
      <trkpt lat="42.444603" lon="1.061405">
        <ele>1508.865</ele>
        <time>2021-06-19T09:05:06Z</time>
      </trkpt>
      <trkpt lat="42.444746" lon="1.061350">
        <ele>1508.845</ele>
        <time>2021-06-19T09:05:08Z</time>
      </trkpt>
      <trkpt lat="42.445009" lon="1.061228">
        <ele>1508.318</ele>
        <time>2021-06-19T09:05:12Z</time>
      </trkpt>
      <trkpt lat="42.445074" lon="1.061212">
        <ele>1507.385</ele>
        <time>2021-06-19T09:05:13Z</time>
      </trkpt>
      <trkpt lat="42.445267" lon="1.061149">
        <ele>1505.142</ele>
        <time>2021-06-19T09:05:16Z</time>
      </trkpt>
      <trkpt lat="42.445373" lon="1.061060">
        <ele>1504.422</ele>
        <time>2021-06-19T09:05:18Z</time>
      </trkpt>
      <trkpt lat="42.445421" lon="1.061008">
        <ele>1504.314</ele>
        <time>2021-06-19T09:05:19Z</time>
      </trkpt>
      <trkpt lat="42.445679" lon="1.060754">
        <ele>1500.608</ele>
        <time>2021-06-19T09:05:24Z</time>
      </trkpt>
      <trkpt lat="42.445866" lon="1.060508">
        <ele>1499.291</ele>
        <time>2021-06-19T09:05:28Z</time>
      </trkpt>
      <trkpt lat="42.445964" lon="1.060385">
        <ele>1498.750</ele>
        <time>2021-06-19T09:05:30Z</time>
      </trkpt>
      <trkpt lat="42.446115" lon="1.060196">
        <ele>1497.566</ele>
        <time>2021-06-19T09:05:33Z</time>
      </trkpt>
      <trkpt lat="42.446308" lon="1.059939">
        <ele>1497.270</ele>
        <time>2021-06-19T09:05:37Z</time>
      </trkpt>
      <trkpt lat="42.446354" lon="1.059871">
        <ele>1496.984</ele>
        <time>2021-06-19T09:05:38Z</time>
      </trkpt>
      <trkpt lat="42.446541" lon="1.059581">
        <ele>1496.334</ele>
        <time>2021-06-19T09:05:42Z</time>
      </trkpt>
      <trkpt lat="42.446639" lon="1.059458">
        <ele>1495.797</ele>
        <time>2021-06-19T09:05:44Z</time>
      </trkpt>
      <trkpt lat="42.446742" lon="1.059347">
        <ele>1494.164</ele>
        <time>2021-06-19T09:05:46Z</time>
      </trkpt>
      <trkpt lat="42.446784" lon="1.059282">
        <ele>1493.957</ele>
        <time>2021-06-19T09:05:47Z</time>
      </trkpt>
      <trkpt lat="42.446898" lon="1.059061">
        <ele>1493.900</ele>
        <time>2021-06-19T09:05:50Z</time>
      </trkpt>
      <trkpt lat="42.446930" lon="1.058981">
        <ele>1494.020</ele>
        <time>2021-06-19T09:05:51Z</time>
      </trkpt>
      <trkpt lat="42.446993" lon="1.058831">
        <ele>1495.108</ele>
        <time>2021-06-19T09:05:53Z</time>
      </trkpt>
      <trkpt lat="42.447099" lon="1.058715">
        <ele>1496.452</ele>
        <time>2021-06-19T09:05:55Z</time>
      </trkpt>
      <trkpt lat="42.447252" lon="1.058678">
        <ele>1496.071</ele>
        <time>2021-06-19T09:05:57Z</time>
      </trkpt>
      <trkpt lat="42.447252" lon="1.058678">
        <ele>1496.077</ele>
        <time>2021-06-19T09:05:58Z</time>
      </trkpt>
      <trkpt lat="42.447281" lon="1.058678">
        <ele>1495.991</ele>
        <time>2021-06-19T09:05:59Z</time>
      </trkpt>
      <trkpt lat="42.447363" lon="1.058696">
        <ele>1494.835</ele>
        <time>2021-06-19T09:06:02Z</time>
      </trkpt>
      <trkpt lat="42.447407" lon="1.058717">
        <ele>1493.845</ele>
        <time>2021-06-19T09:06:03Z</time>
      </trkpt>
      <trkpt lat="42.447461" lon="1.058728">
        <ele>1493.198</ele>
        <time>2021-06-19T09:06:04Z</time>
      </trkpt>
      <trkpt lat="42.447579" lon="1.058717">
        <ele>1491.725</ele>
        <time>2021-06-19T09:06:05Z</time>
      </trkpt>
      <trkpt lat="42.447640" lon="1.058691">
        <ele>1491.361</ele>
        <time>2021-06-19T09:06:07Z</time>
      </trkpt>
      <trkpt lat="42.447808" lon="1.058567">
        <ele>1491.921</ele>
        <time>2021-06-19T09:06:10Z</time>
      </trkpt>
      <trkpt lat="42.447869" lon="1.058537">
        <ele>1491.813</ele>
        <time>2021-06-19T09:06:11Z</time>
      </trkpt>
      <trkpt lat="42.448055" lon="1.058511">
        <ele>1489.608</ele>
        <time>2021-06-19T09:06:13Z</time>
      </trkpt>
      <trkpt lat="42.448055" lon="1.058511">
        <ele>1489.613</ele>
        <time>2021-06-19T09:06:14Z</time>
      </trkpt>
      <trkpt lat="42.448115" lon="1.058486">
        <ele>1489.292</ele>
        <time>2021-06-19T09:06:15Z</time>
      </trkpt>
      <trkpt lat="42.448375" lon="1.058343">
        <ele>1487.728</ele>
        <time>2021-06-19T09:06:18Z</time>
      </trkpt>
      <trkpt lat="42.448375" lon="1.058343">
        <ele>1487.712</ele>
        <time>2021-06-19T09:06:19Z</time>
      </trkpt>
      <trkpt lat="42.448444" lon="1.058315">
        <ele>1486.936</ele>
        <time>2021-06-19T09:06:20Z</time>
      </trkpt>
      <trkpt lat="42.448517" lon="1.058296">
        <ele>1485.856</ele>
        <time>2021-06-19T09:06:21Z</time>
      </trkpt>
      <trkpt lat="42.448667" lon="1.058260">
        <ele>1483.219</ele>
        <time>2021-06-19T09:06:23Z</time>
      </trkpt>
      <trkpt lat="42.448740" lon="1.058225">
        <ele>1482.486</ele>
        <time>2021-06-19T09:06:24Z</time>
      </trkpt>
      <trkpt lat="42.448873" lon="1.058124">
        <ele>1482.097</ele>
        <time>2021-06-19T09:06:25Z</time>
      </trkpt>
      <trkpt lat="42.448873" lon="1.058124">
        <ele>1482.023</ele>
        <time>2021-06-19T09:06:26Z</time>
      </trkpt>
      <trkpt lat="42.449030" lon="1.057949">
        <ele>1480.925</ele>
        <time>2021-06-19T09:06:29Z</time>
      </trkpt>
      <trkpt lat="42.449130" lon="1.057849">
        <ele>1479.408</ele>
        <time>2021-06-19T09:06:30Z</time>
      </trkpt>
      <trkpt lat="42.449130" lon="1.057849">
        <ele>1479.436</ele>
        <time>2021-06-19T09:06:31Z</time>
      </trkpt>
      <trkpt lat="42.449183" lon="1.057805">
        <ele>1478.375</ele>
        <time>2021-06-19T09:06:32Z</time>
      </trkpt>
      <trkpt lat="42.449389" lon="1.057653">
        <ele>1476.341</ele>
        <time>2021-06-19T09:06:35Z</time>
      </trkpt>
      <trkpt lat="42.449389" lon="1.057653">
        <ele>1476.395</ele>
        <time>2021-06-19T09:06:36Z</time>
      </trkpt>
      <trkpt lat="42.449631" lon="1.057433">
        <ele>1474.839</ele>
        <time>2021-06-19T09:06:40Z</time>
      </trkpt>
      <trkpt lat="42.449681" lon="1.057388">
        <ele>1474.339</ele>
        <time>2021-06-19T09:06:42Z</time>
      </trkpt>
      <trkpt lat="42.449725" lon="1.057349">
        <ele>1473.932</ele>
        <time>2021-06-19T09:06:43Z</time>
      </trkpt>
      <trkpt lat="42.449860" lon="1.057304">
        <ele>1470.079</ele>
        <time>2021-06-19T09:06:45Z</time>
      </trkpt>
      <trkpt lat="42.449908" lon="1.057288">
        <ele>1468.533</ele>
        <time>2021-06-19T09:06:47Z</time>
      </trkpt>
      <trkpt lat="42.450097" lon="1.057116">
        <ele>1467.623</ele>
        <time>2021-06-19T09:06:50Z</time>
      </trkpt>
      <trkpt lat="42.450097" lon="1.057116">
        <ele>1467.615</ele>
        <time>2021-06-19T09:06:51Z</time>
      </trkpt>
      <trkpt lat="42.450152" lon="1.057074">
        <ele>1467.108</ele>
        <time>2021-06-19T09:06:52Z</time>
      </trkpt>
      <trkpt lat="42.450276" lon="1.057028">
        <ele>1463.570</ele>
        <time>2021-06-19T09:06:54Z</time>
      </trkpt>
      <trkpt lat="42.450429" lon="1.056952">
        <ele>1460.719</ele>
        <time>2021-06-19T09:06:55Z</time>
      </trkpt>
      <trkpt lat="42.450429" lon="1.056952">
        <ele>1460.725</ele>
        <time>2021-06-19T09:06:56Z</time>
      </trkpt>
      <trkpt lat="42.450429" lon="1.056952">
        <ele>1460.739</ele>
        <time>2021-06-19T09:06:57Z</time>
      </trkpt>
      <trkpt lat="42.450473" lon="1.056918">
        <ele>1460.543</ele>
        <time>2021-06-19T09:06:58Z</time>
      </trkpt>
      <trkpt lat="42.450515" lon="1.056876">
        <ele>1460.873</ele>
        <time>2021-06-19T09:06:59Z</time>
      </trkpt>
      <trkpt lat="42.450605" lon="1.056799">
        <ele>1461.516</ele>
        <time>2021-06-19T09:07:01Z</time>
      </trkpt>
      <trkpt lat="42.450657" lon="1.056768">
        <ele>1461.533</ele>
        <time>2021-06-19T09:07:02Z</time>
      </trkpt>
      <trkpt lat="42.450706" lon="1.056750">
        <ele>1460.926</ele>
        <time>2021-06-19T09:07:03Z</time>
      </trkpt>
      <trkpt lat="42.450804" lon="1.056782">
        <ele>1457.047</ele>
        <time>2021-06-19T09:07:05Z</time>
      </trkpt>
      <trkpt lat="42.450934" lon="1.056865">
        <ele>1454.411</ele>
        <time>2021-06-19T09:07:08Z</time>
      </trkpt>
      <trkpt lat="42.450972" lon="1.056880">
        <ele>1454.208</ele>
        <time>2021-06-19T09:07:09Z</time>
      </trkpt>
      <trkpt lat="42.451098" lon="1.056897">
        <ele>1454.699</ele>
        <time>2021-06-19T09:07:12Z</time>
      </trkpt>
      <trkpt lat="42.451143" lon="1.056902">
        <ele>1454.588</ele>
        <time>2021-06-19T09:07:13Z</time>
      </trkpt>
      <trkpt lat="42.451195" lon="1.056904">
        <ele>1454.544</ele>
        <time>2021-06-19T09:07:14Z</time>
      </trkpt>
      <trkpt lat="42.451309" lon="1.056917">
        <ele>1454.088</ele>
        <time>2021-06-19T09:07:16Z</time>
      </trkpt>
      <trkpt lat="42.451369" lon="1.056933">
        <ele>1453.482</ele>
        <time>2021-06-19T09:07:17Z</time>
      </trkpt>
      <trkpt lat="42.451495" lon="1.056967">
        <ele>1450.762</ele>
        <time>2021-06-19T09:07:19Z</time>
      </trkpt>
      <trkpt lat="42.451629" lon="1.056961">
        <ele>1449.825</ele>
        <time>2021-06-19T09:07:21Z</time>
      </trkpt>
      <trkpt lat="42.451762" lon="1.056898">
        <ele>1448.882</ele>
        <time>2021-06-19T09:07:23Z</time>
      </trkpt>
      <trkpt lat="42.451825" lon="1.056851">
        <ele>1448.441</ele>
        <time>2021-06-19T09:07:24Z</time>
      </trkpt>
      <trkpt lat="42.451880" lon="1.056809">
        <ele>1448.081</ele>
        <time>2021-06-19T09:07:25Z</time>
      </trkpt>
      <trkpt lat="42.451923" lon="1.056770">
        <ele>1447.709</ele>
        <time>2021-06-19T09:07:26Z</time>
      </trkpt>
      <trkpt lat="42.451961" lon="1.056737">
        <ele>1447.608</ele>
        <time>2021-06-19T09:07:27Z</time>
      </trkpt>
      <trkpt lat="42.452048" lon="1.056693">
        <ele>1447.311</ele>
        <time>2021-06-19T09:07:29Z</time>
      </trkpt>
      <trkpt lat="42.452102" lon="1.056684">
        <ele>1446.650</ele>
        <time>2021-06-19T09:07:30Z</time>
      </trkpt>
      <trkpt lat="42.452153" lon="1.056671">
        <ele>1446.196</ele>
        <time>2021-06-19T09:07:31Z</time>
      </trkpt>
      <trkpt lat="42.452247" lon="1.056643">
        <ele>1444.950</ele>
        <time>2021-06-19T09:07:33Z</time>
      </trkpt>
      <trkpt lat="42.452362" lon="1.056581">
        <ele>1443.224</ele>
        <time>2021-06-19T09:07:36Z</time>
      </trkpt>
      <trkpt lat="42.452402" lon="1.056553">
        <ele>1442.594</ele>
        <time>2021-06-19T09:07:37Z</time>
      </trkpt>
      <trkpt lat="42.452517" lon="1.056472">
        <ele>1440.417</ele>
        <time>2021-06-19T09:07:40Z</time>
      </trkpt>
      <trkpt lat="42.452547" lon="1.056456">
        <ele>1440.654</ele>
        <time>2021-06-19T09:07:41Z</time>
      </trkpt>
      <trkpt lat="42.452575" lon="1.056444">
        <ele>1440.774</ele>
        <time>2021-06-19T09:07:42Z</time>
      </trkpt>
      <trkpt lat="42.452604" lon="1.056440">
        <ele>1440.856</ele>
        <time>2021-06-19T09:07:43Z</time>
      </trkpt>
      <trkpt lat="42.452647" lon="1.056489">
        <ele>1440.721</ele>
        <time>2021-06-19T09:07:45Z</time>
      </trkpt>
      <trkpt lat="42.452672" lon="1.056580">
        <ele>1440.508</ele>
        <time>2021-06-19T09:07:47Z</time>
      </trkpt>
      <trkpt lat="42.452684" lon="1.056734">
        <ele>1441.564</ele>
        <time>2021-06-19T09:07:50Z</time>
      </trkpt>
      <trkpt lat="42.452669" lon="1.056790">
        <ele>1442.193</ele>
        <time>2021-06-19T09:07:51Z</time>
      </trkpt>
      <trkpt lat="42.452584" lon="1.056957">
        <ele>1440.799</ele>
        <time>2021-06-19T09:07:54Z</time>
      </trkpt>
      <trkpt lat="42.452552" lon="1.057013">
        <ele>1440.993</ele>
        <time>2021-06-19T09:07:55Z</time>
      </trkpt>
      <trkpt lat="42.452411" lon="1.057224">
        <ele>1440.247</ele>
        <time>2021-06-19T09:07:59Z</time>
      </trkpt>
      <trkpt lat="42.452303" lon="1.057387">
        <ele>1441.327</ele>
        <time>2021-06-19T09:08:02Z</time>
      </trkpt>
      <trkpt lat="42.452274" lon="1.057451">
        <ele>1441.720</ele>
        <time>2021-06-19T09:08:03Z</time>
      </trkpt>
      <trkpt lat="42.452219" lon="1.057595">
        <ele>1440.987</ele>
        <time>2021-06-19T09:08:04Z</time>
      </trkpt>
      <trkpt lat="42.452219" lon="1.057595">
        <ele>1440.995</ele>
        <time>2021-06-19T09:08:05Z</time>
      </trkpt>
      <trkpt lat="42.452166" lon="1.057739">
        <ele>1439.549</ele>
        <time>2021-06-19T09:08:07Z</time>
      </trkpt>
      <trkpt lat="42.452071" lon="1.058029">
        <ele>1437.723</ele>
        <time>2021-06-19T09:08:11Z</time>
      </trkpt>
      <trkpt lat="42.451971" lon="1.058330">
        <ele>1438.108</ele>
        <time>2021-06-19T09:08:13Z</time>
      </trkpt>
      <trkpt lat="42.451859" lon="1.058648">
        <ele>1438.466</ele>
        <time>2021-06-19T09:08:18Z</time>
      </trkpt>
      <trkpt lat="42.451859" lon="1.058648">
        <ele>1438.485</ele>
        <time>2021-06-19T09:08:19Z</time>
      </trkpt>
      <trkpt lat="42.451822" lon="1.058721">
        <ele>1438.921</ele>
        <time>2021-06-19T09:08:20Z</time>
      </trkpt>
      <trkpt lat="42.451695" lon="1.058931">
        <ele>1440.275</ele>
        <time>2021-06-19T09:08:23Z</time>
      </trkpt>
      <trkpt lat="42.451598" lon="1.059073">
        <ele>1441.699</ele>
        <time>2021-06-19T09:08:25Z</time>
      </trkpt>
      <trkpt lat="42.451468" lon="1.059301">
        <ele>1441.179</ele>
        <time>2021-06-19T09:08:28Z</time>
      </trkpt>
      <trkpt lat="42.451383" lon="1.059463">
        <ele>1440.482</ele>
        <time>2021-06-19T09:08:30Z</time>
      </trkpt>
      <trkpt lat="42.451245" lon="1.059696">
        <ele>1439.949</ele>
        <time>2021-06-19T09:08:32Z</time>
      </trkpt>
      <trkpt lat="42.451158" lon="1.059855">
        <ele>1438.164</ele>
        <time>2021-06-19T09:08:35Z</time>
      </trkpt>
      <trkpt lat="42.451068" lon="1.060124">
        <ele>1436.506</ele>
        <time>2021-06-19T09:08:37Z</time>
      </trkpt>
      <trkpt lat="42.451068" lon="1.060124">
        <ele>1436.516</ele>
        <time>2021-06-19T09:08:38Z</time>
      </trkpt>
      <trkpt lat="42.451061" lon="1.060318">
        <ele>1437.408</ele>
        <time>2021-06-19T09:08:39Z</time>
      </trkpt>
      <trkpt lat="42.451068" lon="1.060402">
        <ele>1437.453</ele>
        <time>2021-06-19T09:08:41Z</time>
      </trkpt>
      <trkpt lat="42.451096" lon="1.060564">
        <ele>1437.952</ele>
        <time>2021-06-19T09:08:42Z</time>
      </trkpt>
      <trkpt lat="42.451119" lon="1.060639">
        <ele>1437.488</ele>
        <time>2021-06-19T09:08:44Z</time>
      </trkpt>
      <trkpt lat="42.451148" lon="1.060712">
        <ele>1437.442</ele>
        <time>2021-06-19T09:08:45Z</time>
      </trkpt>
      <trkpt lat="42.451268" lon="1.060993">
        <ele>1437.016</ele>
        <time>2021-06-19T09:08:49Z</time>
      </trkpt>
      <trkpt lat="42.451289" lon="1.061074">
        <ele>1436.236</ele>
        <time>2021-06-19T09:08:50Z</time>
      </trkpt>
      <trkpt lat="42.451303" lon="1.061161">
        <ele>1436.389</ele>
        <time>2021-06-19T09:08:51Z</time>
      </trkpt>
      <trkpt lat="42.451288" lon="1.061417">
        <ele>1437.166</ele>
        <time>2021-06-19T09:08:53Z</time>
      </trkpt>
      <trkpt lat="42.451288" lon="1.061417">
        <ele>1437.194</ele>
        <time>2021-06-19T09:08:54Z</time>
      </trkpt>
      <trkpt lat="42.451221" lon="1.061744">
        <ele>1439.257</ele>
        <time>2021-06-19T09:08:58Z</time>
      </trkpt>
      <trkpt lat="42.451194" lon="1.061920">
        <ele>1439.922</ele>
        <time>2021-06-19T09:09:00Z</time>
      </trkpt>
      <trkpt lat="42.451149" lon="1.062257">
        <ele>1441.108</ele>
        <time>2021-06-19T09:09:04Z</time>
      </trkpt>
      <trkpt lat="42.451128" lon="1.062407">
        <ele>1441.226</ele>
        <time>2021-06-19T09:09:06Z</time>
      </trkpt>
      <trkpt lat="42.451097" lon="1.062623">
        <ele>1441.685</ele>
        <time>2021-06-19T09:09:09Z</time>
      </trkpt>
      <trkpt lat="42.451056" lon="1.062903">
        <ele>1441.061</ele>
        <time>2021-06-19T09:09:13Z</time>
      </trkpt>
      <trkpt lat="42.451043" lon="1.062973">
        <ele>1440.365</ele>
        <time>2021-06-19T09:09:14Z</time>
      </trkpt>
      <trkpt lat="42.451028" lon="1.063121">
        <ele>1439.249</ele>
        <time>2021-06-19T09:09:16Z</time>
      </trkpt>
      <trkpt lat="42.451037" lon="1.063286">
        <ele>1438.679</ele>
        <time>2021-06-19T09:09:18Z</time>
      </trkpt>
      <trkpt lat="42.451049" lon="1.063375">
        <ele>1438.522</ele>
        <time>2021-06-19T09:09:19Z</time>
      </trkpt>
      <trkpt lat="42.451118" lon="1.063761">
        <ele>1437.379</ele>
        <time>2021-06-19T09:09:23Z</time>
      </trkpt>
      <trkpt lat="42.451148" lon="1.063864">
        <ele>1437.626</ele>
        <time>2021-06-19T09:09:24Z</time>
      </trkpt>
      <trkpt lat="42.451267" lon="1.064190">
        <ele>1434.147</ele>
        <time>2021-06-19T09:09:27Z</time>
      </trkpt>
      <trkpt lat="42.451309" lon="1.064306">
        <ele>1433.111</ele>
        <time>2021-06-19T09:09:28Z</time>
      </trkpt>
      <trkpt lat="42.451482" lon="1.064777">
        <ele>1431.908</ele>
        <time>2021-06-19T09:09:32Z</time>
      </trkpt>
      <trkpt lat="42.451526" lon="1.064883">
        <ele>1431.859</ele>
        <time>2021-06-19T09:09:33Z</time>
      </trkpt>
      <trkpt lat="42.451646" lon="1.065198">
        <ele>1427.748</ele>
        <time>2021-06-19T09:09:36Z</time>
      </trkpt>
      <trkpt lat="42.451663" lon="1.065314">
        <ele>1426.614</ele>
        <time>2021-06-19T09:09:37Z</time>
      </trkpt>
      <trkpt lat="42.451628" lon="1.065534">
        <ele>1428.748</ele>
        <time>2021-06-19T09:09:39Z</time>
      </trkpt>
      <trkpt lat="42.451594" lon="1.065627">
        <ele>1429.472</ele>
        <time>2021-06-19T09:09:40Z</time>
      </trkpt>
      <trkpt lat="42.451477" lon="1.065868">
        <ele>1430.922</ele>
        <time>2021-06-19T09:09:43Z</time>
      </trkpt>
      <trkpt lat="42.451387" lon="1.066010">
        <ele>1430.565</ele>
        <time>2021-06-19T09:09:44Z</time>
      </trkpt>
      <trkpt lat="42.451241" lon="1.066210">
        <ele>1430.992</ele>
        <time>2021-06-19T09:09:48Z</time>
      </trkpt>
      <trkpt lat="42.451136" lon="1.066355">
        <ele>1429.644</ele>
        <time>2021-06-19T09:09:50Z</time>
      </trkpt>
      <trkpt lat="42.451089" lon="1.066435">
        <ele>1428.905</ele>
        <time>2021-06-19T09:09:51Z</time>
      </trkpt>
      <trkpt lat="42.451015" lon="1.066620">
        <ele>1429.115</ele>
        <time>2021-06-19T09:09:53Z</time>
      </trkpt>
      <trkpt lat="42.450989" lon="1.066724">
        <ele>1428.608</ele>
        <time>2021-06-19T09:09:54Z</time>
      </trkpt>
      <trkpt lat="42.450959" lon="1.066947">
        <ele>1427.121</ele>
        <time>2021-06-19T09:09:56Z</time>
      </trkpt>
      <trkpt lat="42.450962" lon="1.067068">
        <ele>1424.960</ele>
        <time>2021-06-19T09:09:57Z</time>
      </trkpt>
      <trkpt lat="42.451060" lon="1.067441">
        <ele>1421.736</ele>
        <time>2021-06-19T09:09:59Z</time>
      </trkpt>
      <trkpt lat="42.451174" lon="1.067684">
        <ele>1421.080</ele>
        <time>2021-06-19T09:10:02Z</time>
      </trkpt>
      <trkpt lat="42.451297" lon="1.067924">
        <ele>1419.444</ele>
        <time>2021-06-19T09:10:04Z</time>
      </trkpt>
      <trkpt lat="42.451412" lon="1.068153">
        <ele>1417.274</ele>
        <time>2021-06-19T09:10:06Z</time>
      </trkpt>
      <trkpt lat="42.451506" lon="1.068369">
        <ele>1415.027</ele>
        <time>2021-06-19T09:10:08Z</time>
      </trkpt>
      <trkpt lat="42.451541" lon="1.068591">
        <ele>1413.424</ele>
        <time>2021-06-19T09:10:09Z</time>
      </trkpt>
      <trkpt lat="42.451541" lon="1.068591">
        <ele>1413.456</ele>
        <time>2021-06-19T09:10:10Z</time>
      </trkpt>
      <trkpt lat="42.451529" lon="1.068701">
        <ele>1415.659</ele>
        <time>2021-06-19T09:10:11Z</time>
      </trkpt>
      <trkpt lat="42.451454" lon="1.068886">
        <ele>1417.114</ele>
        <time>2021-06-19T09:10:12Z</time>
      </trkpt>
      <trkpt lat="42.451341" lon="1.069033">
        <ele>1415.908</ele>
        <time>2021-06-19T09:10:15Z</time>
      </trkpt>
      <trkpt lat="42.451095" lon="1.069369">
        <ele>1414.292</ele>
        <time>2021-06-19T09:10:18Z</time>
      </trkpt>
      <trkpt lat="42.450898" lon="1.069759">
        <ele>1413.921</ele>
        <time>2021-06-19T09:10:22Z</time>
      </trkpt>
      <trkpt lat="42.450898" lon="1.069759">
        <ele>1413.927</ele>
        <time>2021-06-19T09:10:23Z</time>
      </trkpt>
      <trkpt lat="42.450843" lon="1.069973">
        <ele>1411.591</ele>
        <time>2021-06-19T09:10:24Z</time>
      </trkpt>
      <trkpt lat="42.450821" lon="1.070089">
        <ele>1410.985</ele>
        <time>2021-06-19T09:10:26Z</time>
      </trkpt>
      <trkpt lat="42.450798" lon="1.070204">
        <ele>1410.565</ele>
        <time>2021-06-19T09:10:27Z</time>
      </trkpt>
      <trkpt lat="42.450714" lon="1.070557">
        <ele>1408.698</ele>
        <time>2021-06-19T09:10:30Z</time>
      </trkpt>
      <trkpt lat="42.450617" lon="1.070928">
        <ele>1406.635</ele>
        <time>2021-06-19T09:10:33Z</time>
      </trkpt>
      <trkpt lat="42.450577" lon="1.071043">
        <ele>1406.249</ele>
        <time>2021-06-19T09:10:34Z</time>
      </trkpt>
      <trkpt lat="42.450455" lon="1.071370">
        <ele>1405.002</ele>
        <time>2021-06-19T09:10:36Z</time>
      </trkpt>
      <trkpt lat="42.450455" lon="1.071370">
        <ele>1405.022</ele>
        <time>2021-06-19T09:10:37Z</time>
      </trkpt>
      <trkpt lat="42.450428" lon="1.071489">
        <ele>1404.208</ele>
        <time>2021-06-19T09:10:38Z</time>
      </trkpt>
      <trkpt lat="42.450408" lon="1.071892">
        <ele>1401.551</ele>
        <time>2021-06-19T09:10:40Z</time>
      </trkpt>
      <trkpt lat="42.450414" lon="1.072039">
        <ele>1400.580</ele>
        <time>2021-06-19T09:10:42Z</time>
      </trkpt>
      <trkpt lat="42.450423" lon="1.072489">
        <ele>1397.426</ele>
        <time>2021-06-19T09:10:45Z</time>
      </trkpt>
      <trkpt lat="42.450422" lon="1.072634">
        <ele>1395.650</ele>
        <time>2021-06-19T09:10:46Z</time>
      </trkpt>
      <trkpt lat="42.450428" lon="1.073008">
        <ele>1392.364</ele>
        <time>2021-06-19T09:10:49Z</time>
      </trkpt>
      <trkpt lat="42.450431" lon="1.073496">
        <ele>1391.284</ele>
        <time>2021-06-19T09:10:52Z</time>
      </trkpt>
      <trkpt lat="42.450438" lon="1.073619">
        <ele>1391.127</ele>
        <time>2021-06-19T09:10:54Z</time>
      </trkpt>
      <trkpt lat="42.450455" lon="1.073739">
        <ele>1390.594</ele>
        <time>2021-06-19T09:10:55Z</time>
      </trkpt>
      <trkpt lat="42.450530" lon="1.073953">
        <ele>1390.621</ele>
        <time>2021-06-19T09:10:56Z</time>
      </trkpt>
      <trkpt lat="42.450530" lon="1.073953">
        <ele>1390.641</ele>
        <time>2021-06-19T09:10:57Z</time>
      </trkpt>
      <trkpt lat="42.450646" lon="1.074119">
        <ele>1390.905</ele>
        <time>2021-06-19T09:10:58Z</time>
      </trkpt>
      <trkpt lat="42.450714" lon="1.074187">
        <ele>1390.908</ele>
        <time>2021-06-19T09:11:00Z</time>
      </trkpt>
      <trkpt lat="42.450784" lon="1.074250">
        <ele>1390.699</ele>
        <time>2021-06-19T09:11:01Z</time>
      </trkpt>
      <trkpt lat="42.450982" lon="1.074426">
        <ele>1389.638</ele>
        <time>2021-06-19T09:11:04Z</time>
      </trkpt>
      <trkpt lat="42.451108" lon="1.074533">
        <ele>1389.434</ele>
        <time>2021-06-19T09:11:06Z</time>
      </trkpt>
      <trkpt lat="42.451289" lon="1.074718">
        <ele>1389.948</ele>
        <time>2021-06-19T09:11:08Z</time>
      </trkpt>
      <trkpt lat="42.451340" lon="1.074792">
        <ele>1390.422</ele>
        <time>2021-06-19T09:11:10Z</time>
      </trkpt>
      <trkpt lat="42.451420" lon="1.074958">
        <ele>1391.072</ele>
        <time>2021-06-19T09:11:11Z</time>
      </trkpt>
      <trkpt lat="42.451448" lon="1.075047">
        <ele>1391.175</ele>
        <time>2021-06-19T09:11:13Z</time>
      </trkpt>
      <trkpt lat="42.451470" lon="1.075139">
        <ele>1391.392</ele>
        <time>2021-06-19T09:11:14Z</time>
      </trkpt>
      <trkpt lat="42.451511" lon="1.075429">
        <ele>1391.781</ele>
        <time>2021-06-19T09:11:16Z</time>
      </trkpt>
      <trkpt lat="42.451511" lon="1.075429">
        <ele>1391.761</ele>
        <time>2021-06-19T09:11:17Z</time>
      </trkpt>
      <trkpt lat="42.451522" lon="1.075626">
        <ele>1392.217</ele>
        <time>2021-06-19T09:11:19Z</time>
      </trkpt>
      <trkpt lat="42.451513" lon="1.075718">
        <ele>1392.408</ele>
        <time>2021-06-19T09:11:20Z</time>
      </trkpt>
      <trkpt lat="42.451494" lon="1.075799">
        <ele>1392.695</ele>
        <time>2021-06-19T09:11:21Z</time>
      </trkpt>
      <trkpt lat="42.451412" lon="1.075971">
        <ele>1392.794</ele>
        <time>2021-06-19T09:11:24Z</time>
      </trkpt>
      <trkpt lat="42.451380" lon="1.076008">
        <ele>1392.620</ele>
        <time>2021-06-19T09:11:25Z</time>
      </trkpt>
      <trkpt lat="42.451315" lon="1.076037">
        <ele>1392.794</ele>
        <time>2021-06-19T09:11:27Z</time>
      </trkpt>
      <trkpt lat="42.451292" lon="1.076043">
        <ele>1392.888</ele>
        <time>2021-06-19T09:11:28Z</time>
      </trkpt>
      <trkpt lat="42.451275" lon="1.076038">
        <ele>1392.718</ele>
        <time>2021-06-19T09:11:29Z</time>
      </trkpt>
      <trkpt lat="42.451263" lon="1.076026">
        <ele>1392.731</ele>
        <time>2021-06-19T09:11:31Z</time>
      </trkpt>
      <trkpt lat="42.451247" lon="1.075979">
        <ele>1392.568</ele>
        <time>2021-06-19T09:11:38Z</time>
      </trkpt>
      <trkpt lat="42.451214" lon="1.075954">
        <ele>1392.424</ele>
        <time>2021-06-19T09:11:40Z</time>
      </trkpt>
      <trkpt lat="42.451196" lon="1.075922">
        <ele>1392.304</ele>
        <time>2021-06-19T09:11:42Z</time>
      </trkpt>
      <trkpt lat="42.451180" lon="1.075877">
        <ele>1392.214</ele>
        <time>2021-06-19T09:11:44Z</time>
      </trkpt>
      <trkpt lat="42.451156" lon="1.075850">
        <ele>1392.108</ele>
        <time>2021-06-19T09:11:47Z</time>
      </trkpt>
      <trkpt lat="42.451238" lon="1.075780">
        <ele>1391.429</ele>
        <time>2021-06-19T09:57:19Z</time>
      </trkpt>
      <trkpt lat="42.451306" lon="1.075826">
        <ele>1391.988</ele>
        <time>2021-06-19T09:57:23Z</time>
      </trkpt>
      <trkpt lat="42.451311" lon="1.075850">
        <ele>1392.114</ele>
        <time>2021-06-19T09:57:24Z</time>
      </trkpt>
      <trkpt lat="42.451279" lon="1.075943">
        <ele>1392.448</ele>
        <time>2021-06-19T09:57:28Z</time>
      </trkpt>
      <trkpt lat="42.451167" lon="1.076108">
        <ele>1393.072</ele>
        <time>2021-06-19T09:57:35Z</time>
      </trkpt>
      <trkpt lat="42.451091" lon="1.076231">
        <ele>1392.272</ele>
        <time>2021-06-19T09:57:38Z</time>
      </trkpt>
      <trkpt lat="42.451060" lon="1.076352">
        <ele>1390.855</ele>
        <time>2021-06-19T09:57:40Z</time>
      </trkpt>
      <trkpt lat="42.451116" lon="1.076709">
        <ele>1388.222</ele>
        <time>2021-06-19T09:57:43Z</time>
      </trkpt>
      <trkpt lat="42.451116" lon="1.076709">
        <ele>1388.213</ele>
        <time>2021-06-19T09:57:44Z</time>
      </trkpt>
      <trkpt lat="42.451183" lon="1.076930">
        <ele>1385.443</ele>
        <time>2021-06-19T09:57:46Z</time>
      </trkpt>
      <trkpt lat="42.451331" lon="1.077278">
        <ele>1383.807</ele>
        <time>2021-06-19T09:57:48Z</time>
      </trkpt>
      <trkpt lat="42.451530" lon="1.077587">
        <ele>1381.708</ele>
        <time>2021-06-19T09:57:52Z</time>
      </trkpt>
      <trkpt lat="42.451630" lon="1.077823">
        <ele>1380.658</ele>
        <time>2021-06-19T09:57:53Z</time>
      </trkpt>
      <trkpt lat="42.451806" lon="1.078488">
        <ele>1380.337</ele>
        <time>2021-06-19T09:57:59Z</time>
      </trkpt>
      <trkpt lat="42.451895" lon="1.078840">
        <ele>1378.583</ele>
        <time>2021-06-19T09:58:00Z</time>
      </trkpt>
      <trkpt lat="42.451895" lon="1.078840">
        <ele>1378.517</ele>
        <time>2021-06-19T09:58:02Z</time>
      </trkpt>
      <trkpt lat="42.451913" lon="1.078937">
        <ele>1378.121</ele>
        <time>2021-06-19T09:58:03Z</time>
      </trkpt>
      <trkpt lat="42.451866" lon="1.079135">
        <ele>1376.711</ele>
        <time>2021-06-19T09:58:05Z</time>
      </trkpt>
      <trkpt lat="42.451815" lon="1.079156">
        <ele>1375.374</ele>
        <time>2021-06-19T09:58:07Z</time>
      </trkpt>
      <trkpt lat="42.451717" lon="1.079117">
        <ele>1372.581</ele>
        <time>2021-06-19T09:58:08Z</time>
      </trkpt>
      <trkpt lat="42.451717" lon="1.079117">
        <ele>1372.588</ele>
        <time>2021-06-19T09:58:09Z</time>
      </trkpt>
      <trkpt lat="42.451691" lon="1.079062">
        <ele>1371.724</ele>
        <time>2021-06-19T09:58:10Z</time>
      </trkpt>
      <trkpt lat="42.451663" lon="1.078903">
        <ele>1370.826</ele>
        <time>2021-06-19T09:58:11Z</time>
      </trkpt>
      <trkpt lat="42.451643" lon="1.078610">
        <ele>1371.908</ele>
        <time>2021-06-19T09:58:14Z</time>
      </trkpt>
      <trkpt lat="42.451629" lon="1.078505">
        <ele>1372.255</ele>
        <time>2021-06-19T09:58:16Z</time>
      </trkpt>
      <trkpt lat="42.451355" lon="1.077770">
        <ele>1368.744</ele>
        <time>2021-06-19T09:58:21Z</time>
      </trkpt>
      <trkpt lat="42.451355" lon="1.077770">
        <ele>1368.740</ele>
        <time>2021-06-19T09:58:23Z</time>
      </trkpt>
      <trkpt lat="42.451226" lon="1.077578">
        <ele>1369.114</ele>
        <time>2021-06-19T09:58:24Z</time>
      </trkpt>
      <trkpt lat="42.451081" lon="1.077392">
        <ele>1368.498</ele>
        <time>2021-06-19T09:58:27Z</time>
      </trkpt>
      <trkpt lat="42.450571" lon="1.076697">
        <ele>1361.398</ele>
        <time>2021-06-19T09:58:32Z</time>
      </trkpt>
      <trkpt lat="42.450571" lon="1.076697">
        <ele>1361.311</ele>
        <time>2021-06-19T09:58:33Z</time>
      </trkpt>
      <trkpt lat="42.450351" lon="1.076377">
        <ele>1360.148</ele>
        <time>2021-06-19T09:58:36Z</time>
      </trkpt>
      <trkpt lat="42.450265" lon="1.076285">
        <ele>1359.344</ele>
        <time>2021-06-19T09:58:38Z</time>
      </trkpt>
      <trkpt lat="42.450014" lon="1.076013">
        <ele>1357.005</ele>
        <time>2021-06-19T09:58:40Z</time>
      </trkpt>
      <trkpt lat="42.449946" lon="1.075905">
        <ele>1356.115</ele>
        <time>2021-06-19T09:58:42Z</time>
      </trkpt>
      <trkpt lat="42.449831" lon="1.075661">
        <ele>1354.108</ele>
        <time>2021-06-19T09:58:43Z</time>
      </trkpt>
      <trkpt lat="42.449787" lon="1.075536">
        <ele>1352.621</ele>
        <time>2021-06-19T09:58:45Z</time>
      </trkpt>
      <trkpt lat="42.449745" lon="1.075423">
        <ele>1351.060</ele>
        <time>2021-06-19T09:58:46Z</time>
      </trkpt>
      <trkpt lat="42.449636" lon="1.075264">
        <ele>1350.536</ele>
        <time>2021-06-19T09:58:48Z</time>
      </trkpt>
      <trkpt lat="42.449494" lon="1.075216">
        <ele>1349.930</ele>
        <time>2021-06-19T09:58:49Z</time>
      </trkpt>
      <trkpt lat="42.449494" lon="1.075216">
        <ele>1349.974</ele>
        <time>2021-06-19T09:58:50Z</time>
      </trkpt>
      <trkpt lat="42.449420" lon="1.075237">
        <ele>1349.694</ele>
        <time>2021-06-19T09:58:51Z</time>
      </trkpt>
      <trkpt lat="42.449272" lon="1.075346">
        <ele>1348.817</ele>
        <time>2021-06-19T09:58:53Z</time>
      </trkpt>
      <trkpt lat="42.448939" lon="1.075494">
        <ele>1346.584</ele>
        <time>2021-06-19T09:58:56Z</time>
      </trkpt>
      <trkpt lat="42.448939" lon="1.075494">
        <ele>1346.517</ele>
        <time>2021-06-19T09:58:57Z</time>
      </trkpt>
      <trkpt lat="42.448846" lon="1.075480">
        <ele>1345.587</ele>
        <time>2021-06-19T09:58:58Z</time>
      </trkpt>
      <trkpt lat="42.448663" lon="1.075388">
        <ele>1343.115</ele>
        <time>2021-06-19T09:59:00Z</time>
      </trkpt>
      <trkpt lat="42.448322" lon="1.075065">
        <ele>1339.908</ele>
        <time>2021-06-19T09:59:04Z</time>
      </trkpt>
      <trkpt lat="42.448247" lon="1.074963">
        <ele>1339.158</ele>
        <time>2021-06-19T09:59:05Z</time>
      </trkpt>
      <trkpt lat="42.448150" lon="1.074729">
        <ele>1338.677</ele>
        <time>2021-06-19T09:59:06Z</time>
      </trkpt>
      <trkpt lat="42.448143" lon="1.074597">
        <ele>1336.823</ele>
        <time>2021-06-19T09:59:08Z</time>
      </trkpt>
      <trkpt lat="42.448196" lon="1.074333">
        <ele>1333.547</ele>
        <time>2021-06-19T09:59:09Z</time>
      </trkpt>
      <trkpt lat="42.448306" lon="1.074093">
        <ele>1330.691</ele>
        <time>2021-06-19T09:59:11Z</time>
      </trkpt>
      <trkpt lat="42.448375" lon="1.073979">
        <ele>1330.071</ele>
        <time>2021-06-19T09:59:13Z</time>
      </trkpt>
      <trkpt lat="42.448793" lon="1.073217">
        <ele>1324.734</ele>
        <time>2021-06-19T09:59:18Z</time>
      </trkpt>
      <trkpt lat="42.448976" lon="1.072457">
        <ele>1320.261</ele>
        <time>2021-06-19T09:59:22Z</time>
      </trkpt>
      <trkpt lat="42.448993" lon="1.072153">
        <ele>1319.277</ele>
        <time>2021-06-19T09:59:25Z</time>
      </trkpt>
      <trkpt lat="42.448988" lon="1.071862">
        <ele>1318.261</ele>
        <time>2021-06-19T09:59:28Z</time>
      </trkpt>
      <trkpt lat="42.448955" lon="1.071618">
        <ele>1317.527</ele>
        <time>2021-06-19T09:59:29Z</time>
      </trkpt>
      <trkpt lat="42.448811" lon="1.071409">
        <ele>1314.408</ele>
        <time>2021-06-19T09:59:31Z</time>
      </trkpt>
      <trkpt lat="42.448668" lon="1.071418">
        <ele>1311.914</ele>
        <time>2021-06-19T09:59:34Z</time>
      </trkpt>
      <trkpt lat="42.448668" lon="1.071418">
        <ele>1311.983</ele>
        <time>2021-06-19T09:59:35Z</time>
      </trkpt>
      <trkpt lat="42.448601" lon="1.071476">
        <ele>1310.399</ele>
        <time>2021-06-19T09:59:36Z</time>
      </trkpt>
      <trkpt lat="42.448552" lon="1.071562">
        <ele>1308.523</ele>
        <time>2021-06-19T09:59:37Z</time>
      </trkpt>
      <trkpt lat="42.448504" lon="1.071781">
        <ele>1306.747</ele>
        <time>2021-06-19T09:59:39Z</time>
      </trkpt>
      <trkpt lat="42.448399" lon="1.072406">
        <ele>1304.657</ele>
        <time>2021-06-19T09:59:42Z</time>
      </trkpt>
      <trkpt lat="42.448399" lon="1.072406">
        <ele>1304.620</ele>
        <time>2021-06-19T09:59:43Z</time>
      </trkpt>
      <trkpt lat="42.448173" lon="1.072876">
        <ele>1301.897</ele>
        <time>2021-06-19T09:59:48Z</time>
      </trkpt>
      <trkpt lat="42.447790" lon="1.073567">
        <ele>1297.862</ele>
        <time>2021-06-19T09:59:54Z</time>
      </trkpt>
      <trkpt lat="42.447666" lon="1.073788">
        <ele>1298.283</ele>
        <time>2021-06-19T09:59:56Z</time>
      </trkpt>
      <trkpt lat="42.447453" lon="1.074252">
        <ele>1295.511</ele>
        <time>2021-06-19T10:00:00Z</time>
      </trkpt>
      <trkpt lat="42.447418" lon="1.074384">
        <ele>1294.608</ele>
        <time>2021-06-19T10:00:01Z</time>
      </trkpt>
      <trkpt lat="42.447396" lon="1.074810">
        <ele>1293.373</ele>
        <time>2021-06-19T10:00:04Z</time>
      </trkpt>
      <trkpt lat="42.447490" lon="1.075235">
        <ele>1292.592</ele>
        <time>2021-06-19T10:00:07Z</time>
      </trkpt>
      <trkpt lat="42.447694" lon="1.075584">
        <ele>1291.348</ele>
        <time>2021-06-19T10:00:10Z</time>
      </trkpt>
      <trkpt lat="42.447858" lon="1.075752">
        <ele>1290.772</ele>
        <time>2021-06-19T10:00:12Z</time>
      </trkpt>
      <trkpt lat="42.448031" lon="1.075902">
        <ele>1290.236</ele>
        <time>2021-06-19T10:00:14Z</time>
      </trkpt>
      <trkpt lat="42.448555" lon="1.076331">
        <ele>1291.926</ele>
        <time>2021-06-19T10:00:20Z</time>
      </trkpt>
      <trkpt lat="42.448809" lon="1.076548">
        <ele>1291.559</ele>
        <time>2021-06-19T10:00:23Z</time>
      </trkpt>
      <trkpt lat="42.449042" lon="1.076814">
        <ele>1288.456</ele>
        <time>2021-06-19T10:00:26Z</time>
      </trkpt>
      <trkpt lat="42.449168" lon="1.077039">
        <ele>1287.474</ele>
        <time>2021-06-19T10:00:27Z</time>
      </trkpt>
      <trkpt lat="42.449216" lon="1.077167">
        <ele>1286.956</ele>
        <time>2021-06-19T10:00:29Z</time>
      </trkpt>
      <trkpt lat="42.449322" lon="1.077585">
        <ele>1280.321</ele>
        <time>2021-06-19T10:00:32Z</time>
      </trkpt>
      <trkpt lat="42.449454" lon="1.078021">
        <ele>1276.108</ele>
        <time>2021-06-19T10:00:35Z</time>
      </trkpt>
      <trkpt lat="42.449519" lon="1.078155">
        <ele>1275.924</ele>
        <time>2021-06-19T10:00:36Z</time>
      </trkpt>
      <trkpt lat="42.449772" lon="1.078501">
        <ele>1274.583</ele>
        <time>2021-06-19T10:00:39Z</time>
      </trkpt>
      <trkpt lat="42.450075" lon="1.078933">
        <ele>1270.239</ele>
        <time>2021-06-19T10:00:43Z</time>
      </trkpt>
      <trkpt lat="42.450143" lon="1.079299">
        <ele>1268.213</ele>
        <time>2021-06-19T10:00:45Z</time>
      </trkpt>
      <trkpt lat="42.450125" lon="1.079423">
        <ele>1267.067</ele>
        <time>2021-06-19T10:00:47Z</time>
      </trkpt>
      <trkpt lat="42.450041" lon="1.079662">
        <ele>1265.097</ele>
        <time>2021-06-19T10:00:49Z</time>
      </trkpt>
      <trkpt lat="42.449762" lon="1.080312">
        <ele>1261.050</ele>
        <time>2021-06-19T10:00:54Z</time>
      </trkpt>
      <trkpt lat="42.449599" lon="1.080736">
        <ele>1258.047</ele>
        <time>2021-06-19T10:00:57Z</time>
      </trkpt>
      <trkpt lat="42.449534" lon="1.081041">
        <ele>1255.558</ele>
        <time>2021-06-19T10:00:59Z</time>
      </trkpt>
      <trkpt lat="42.449508" lon="1.081520">
        <ele>1252.552</ele>
        <time>2021-06-19T10:01:02Z</time>
      </trkpt>
      <trkpt lat="42.449505" lon="1.081682">
        <ele>1251.517</ele>
        <time>2021-06-19T10:01:03Z</time>
      </trkpt>
      <trkpt lat="42.449502" lon="1.082462">
        <ele>1250.408</ele>
        <time>2021-06-19T10:01:08Z</time>
      </trkpt>
      <trkpt lat="42.449517" lon="1.082610">
        <ele>1249.772</ele>
        <time>2021-06-19T10:01:09Z</time>
      </trkpt>
      <trkpt lat="42.449582" lon="1.082893">
        <ele>1247.151</ele>
        <time>2021-06-19T10:01:11Z</time>
      </trkpt>
      <trkpt lat="42.449629" lon="1.083027">
        <ele>1245.297</ele>
        <time>2021-06-19T10:01:12Z</time>
      </trkpt>
      <trkpt lat="42.449890" lon="1.083534">
        <ele>1240.691</ele>
        <time>2021-06-19T10:01:16Z</time>
      </trkpt>
      <trkpt lat="42.450277" lon="1.084150">
        <ele>1235.755</ele>
        <time>2021-06-19T10:01:21Z</time>
      </trkpt>
      <trkpt lat="42.450369" lon="1.084256">
        <ele>1234.165</ele>
        <time>2021-06-19T10:01:22Z</time>
      </trkpt>
      <trkpt lat="42.450643" lon="1.084545">
        <ele>1230.998</ele>
        <time>2021-06-19T10:01:25Z</time>
      </trkpt>
      <trkpt lat="42.450715" lon="1.084662">
        <ele>1229.935</ele>
        <time>2021-06-19T10:01:26Z</time>
      </trkpt>
      <trkpt lat="42.450833" lon="1.085094">
        <ele>1228.073</ele>
        <time>2021-06-19T10:01:29Z</time>
      </trkpt>
      <trkpt lat="42.450848" lon="1.085251">
        <ele>1227.385</ele>
        <time>2021-06-19T10:01:30Z</time>
      </trkpt>
      <trkpt lat="42.450903" lon="1.086044">
        <ele>1220.713</ele>
        <time>2021-06-19T10:01:35Z</time>
      </trkpt>
      <trkpt lat="42.450906" lon="1.086201">
        <ele>1220.108</ele>
        <time>2021-06-19T10:01:36Z</time>
      </trkpt>
      <trkpt lat="42.450900" lon="1.086357">
        <ele>1219.974</ele>
        <time>2021-06-19T10:01:37Z</time>
      </trkpt>
      <trkpt lat="42.450881" lon="1.086509">
        <ele>1219.393</ele>
        <time>2021-06-19T10:01:38Z</time>
      </trkpt>
      <trkpt lat="42.450851" lon="1.086658">
        <ele>1218.469</ele>
        <time>2021-06-19T10:01:39Z</time>
      </trkpt>
      <trkpt lat="42.450717" lon="1.087072">
        <ele>1215.983</ele>
        <time>2021-06-19T10:01:41Z</time>
      </trkpt>
      <trkpt lat="42.450670" lon="1.087207">
        <ele>1215.167</ele>
        <time>2021-06-19T10:01:43Z</time>
      </trkpt>
      <trkpt lat="42.450377" lon="1.088046">
        <ele>1212.187</ele>
        <time>2021-06-19T10:01:48Z</time>
      </trkpt>
      <trkpt lat="42.450279" lon="1.088316">
        <ele>1210.080</ele>
        <time>2021-06-19T10:01:51Z</time>
      </trkpt>
      <trkpt lat="42.450221" lon="1.088441">
        <ele>1210.057</ele>
        <time>2021-06-19T10:01:52Z</time>
      </trkpt>
      <trkpt lat="42.450081" lon="1.088657">
        <ele>1209.191</ele>
        <time>2021-06-19T10:01:54Z</time>
      </trkpt>
      <trkpt lat="42.449840" lon="1.088928">
        <ele>1207.381</ele>
        <time>2021-06-19T10:01:57Z</time>
      </trkpt>
      <trkpt lat="42.449724" lon="1.089161">
        <ele>1205.019</ele>
        <time>2021-06-19T10:01:58Z</time>
      </trkpt>
      <trkpt lat="42.449724" lon="1.089161">
        <ele>1205.008</ele>
        <time>2021-06-19T10:01:59Z</time>
      </trkpt>
      <trkpt lat="42.449689" lon="1.089296">
        <ele>1203.826</ele>
        <time>2021-06-19T10:02:00Z</time>
      </trkpt>
      <trkpt lat="42.449643" lon="1.089739">
        <ele>1200.565</ele>
        <time>2021-06-19T10:02:02Z</time>
      </trkpt>
      <trkpt lat="42.449633" lon="1.090192">
        <ele>1197.431</ele>
        <time>2021-06-19T10:02:06Z</time>
      </trkpt>
      <trkpt lat="42.449679" lon="1.090487">
        <ele>1195.755</ele>
        <time>2021-06-19T10:02:08Z</time>
      </trkpt>
      <trkpt lat="42.449912" lon="1.091044">
        <ele>1189.459</ele>
        <time>2021-06-19T10:02:11Z</time>
      </trkpt>
      <trkpt lat="42.449912" lon="1.091044">
        <ele>1189.489</ele>
        <time>2021-06-19T10:02:12Z</time>
      </trkpt>
      <trkpt lat="42.450261" lon="1.091725">
        <ele>1184.892</ele>
        <time>2021-06-19T10:02:17Z</time>
      </trkpt>
      <trkpt lat="42.450324" lon="1.091865">
        <ele>1184.399</ele>
        <time>2021-06-19T10:02:18Z</time>
      </trkpt>
      <trkpt lat="42.450379" lon="1.092008">
        <ele>1183.875</ele>
        <time>2021-06-19T10:02:19Z</time>
      </trkpt>
      <trkpt lat="42.450590" lon="1.092563">
        <ele>1179.628</ele>
        <time>2021-06-19T10:02:22Z</time>
      </trkpt>
      <trkpt lat="42.450658" lon="1.092693">
        <ele>1178.320</ele>
        <time>2021-06-19T10:02:24Z</time>
      </trkpt>
      <trkpt lat="42.450821" lon="1.092929">
        <ele>1176.308</ele>
        <time>2021-06-19T10:02:25Z</time>
      </trkpt>
      <trkpt lat="42.450917" lon="1.093027">
        <ele>1174.874</ele>
        <time>2021-06-19T10:02:27Z</time>
      </trkpt>
      <trkpt lat="42.451236" lon="1.093243">
        <ele>1173.453</ele>
        <time>2021-06-19T10:02:30Z</time>
      </trkpt>
      <trkpt lat="42.451348" lon="1.093296">
        <ele>1173.059</ele>
        <time>2021-06-19T10:02:31Z</time>
      </trkpt>
      <trkpt lat="42.451569" lon="1.093398">
        <ele>1170.663</ele>
        <time>2021-06-19T10:02:33Z</time>
      </trkpt>
      <trkpt lat="42.452002" lon="1.093616">
        <ele>1167.717</ele>
        <time>2021-06-19T10:02:37Z</time>
      </trkpt>
      <trkpt lat="42.452377" lon="1.093982">
        <ele>1163.747</ele>
        <time>2021-06-19T10:02:41Z</time>
      </trkpt>
      <trkpt lat="42.452468" lon="1.094075">
        <ele>1162.980</ele>
        <time>2021-06-19T10:02:42Z</time>
      </trkpt>
      <trkpt lat="42.452656" lon="1.094234">
        <ele>1159.897</ele>
        <time>2021-06-19T10:02:44Z</time>
      </trkpt>
      <trkpt lat="42.452760" lon="1.094285">
        <ele>1158.946</ele>
        <time>2021-06-19T10:02:45Z</time>
      </trkpt>
      <trkpt lat="42.453100" lon="1.094321">
        <ele>1156.388</ele>
        <time>2021-06-19T10:02:48Z</time>
      </trkpt>
      <trkpt lat="42.453333" lon="1.094332">
        <ele>1154.816</ele>
        <time>2021-06-19T10:02:50Z</time>
      </trkpt>
      <trkpt lat="42.453563" lon="1.094405">
        <ele>1154.108</ele>
        <time>2021-06-19T10:02:52Z</time>
      </trkpt>
      <trkpt lat="42.453904" lon="1.094547">
        <ele>1149.961</ele>
        <time>2021-06-19T10:02:55Z</time>
      </trkpt>
      <trkpt lat="42.454021" lon="1.094576">
        <ele>1147.820</ele>
        <time>2021-06-19T10:02:56Z</time>
      </trkpt>
      <trkpt lat="42.454141" lon="1.094580">
        <ele>1146.426</ele>
        <time>2021-06-19T10:02:57Z</time>
      </trkpt>
      <trkpt lat="42.454502" lon="1.094476">
        <ele>1143.910</ele>
        <time>2021-06-19T10:03:00Z</time>
      </trkpt>
      <trkpt lat="42.454620" lon="1.094428">
        <ele>1143.324</ele>
        <time>2021-06-19T10:03:01Z</time>
      </trkpt>
      <trkpt lat="42.455055" lon="1.094221">
        <ele>1140.094</ele>
        <time>2021-06-19T10:03:05Z</time>
      </trkpt>
      <trkpt lat="42.455160" lon="1.094180">
        <ele>1138.917</ele>
        <time>2021-06-19T10:03:06Z</time>
      </trkpt>
      <trkpt lat="42.455266" lon="1.094156">
        <ele>1137.574</ele>
        <time>2021-06-19T10:03:07Z</time>
      </trkpt>
      <trkpt lat="42.455369" lon="1.094155">
        <ele>1138.068</ele>
        <time>2021-06-19T10:03:08Z</time>
      </trkpt>
      <trkpt lat="42.455562" lon="1.094234">
        <ele>1137.442</ele>
        <time>2021-06-19T10:03:10Z</time>
      </trkpt>
      <trkpt lat="42.455655" lon="1.094307">
        <ele>1136.726</ele>
        <time>2021-06-19T10:03:11Z</time>
      </trkpt>
      <trkpt lat="42.455830" lon="1.094485">
        <ele>1133.108</ele>
        <time>2021-06-19T10:03:13Z</time>
      </trkpt>
      <trkpt lat="42.455992" lon="1.094697">
        <ele>1133.353</ele>
        <time>2021-06-19T10:03:15Z</time>
      </trkpt>
      <trkpt lat="42.456181" lon="1.095093">
        <ele>1130.872</ele>
        <time>2021-06-19T10:03:17Z</time>
      </trkpt>
      <trkpt lat="42.456298" lon="1.095370">
        <ele>1129.388</ele>
        <time>2021-06-19T10:03:20Z</time>
      </trkpt>
      <trkpt lat="42.456559" lon="1.095893">
        <ele>1124.842</ele>
        <time>2021-06-19T10:03:24Z</time>
      </trkpt>
      <trkpt lat="42.456633" lon="1.096011">
        <ele>1123.926</ele>
        <time>2021-06-19T10:03:25Z</time>
      </trkpt>
      <trkpt lat="42.456960" lon="1.096437">
        <ele>1122.336</ele>
        <time>2021-06-19T10:03:29Z</time>
      </trkpt>
      <trkpt lat="42.457223" lon="1.096711">
        <ele>1120.639</ele>
        <time>2021-06-19T10:03:31Z</time>
      </trkpt>
      <trkpt lat="42.457394" lon="1.096872">
        <ele>1122.276</ele>
        <time>2021-06-19T10:03:34Z</time>
      </trkpt>
      <trkpt lat="42.457464" lon="1.096952">
        <ele>1120.582</ele>
        <time>2021-06-19T10:03:35Z</time>
      </trkpt>
      <trkpt lat="42.457538" lon="1.097129">
        <ele>1121.343</ele>
        <time>2021-06-19T10:03:37Z</time>
      </trkpt>
      <trkpt lat="42.457501" lon="1.097301">
        <ele>1118.017</ele>
        <time>2021-06-19T10:03:39Z</time>
      </trkpt>
      <trkpt lat="42.457447" lon="1.097350">
        <ele>1117.408</ele>
        <time>2021-06-19T10:03:40Z</time>
      </trkpt>
      <trkpt lat="42.457311" lon="1.097345">
        <ele>1115.875</ele>
        <time>2021-06-19T10:03:41Z</time>
      </trkpt>
      <trkpt lat="42.457251" lon="1.097299">
        <ele>1115.924</ele>
        <time>2021-06-19T10:03:42Z</time>
      </trkpt>
      <trkpt lat="42.457200" lon="1.097231">
        <ele>1116.090</ele>
        <time>2021-06-19T10:03:44Z</time>
      </trkpt>
      <trkpt lat="42.457087" lon="1.096955">
        <ele>1115.064</ele>
        <time>2021-06-19T10:03:47Z</time>
      </trkpt>
      <trkpt lat="42.457039" lon="1.096860">
        <ele>1115.238</ele>
        <time>2021-06-19T10:03:48Z</time>
      </trkpt>
      <trkpt lat="42.456920" lon="1.096680">
        <ele>1115.098</ele>
        <time>2021-06-19T10:03:49Z</time>
      </trkpt>
      <trkpt lat="42.456920" lon="1.096680">
        <ele>1115.081</ele>
        <time>2021-06-19T10:03:50Z</time>
      </trkpt>
      <trkpt lat="42.456542" lon="1.096240">
        <ele>1113.678</ele>
        <time>2021-06-19T10:03:55Z</time>
      </trkpt>
      <trkpt lat="42.456455" lon="1.096156">
        <ele>1112.434</ele>
        <time>2021-06-19T10:03:56Z</time>
      </trkpt>
      <trkpt lat="42.456161" lon="1.095950">
        <ele>1108.655</ele>
        <time>2021-06-19T10:03:59Z</time>
      </trkpt>
      <trkpt lat="42.455708" lon="1.095865">
        <ele>1103.610</ele>
        <time>2021-06-19T10:04:02Z</time>
      </trkpt>
      <trkpt lat="42.455708" lon="1.095865">
        <ele>1103.608</ele>
        <time>2021-06-19T10:04:03Z</time>
      </trkpt>
      <trkpt lat="42.455112" lon="1.095952">
        <ele>1099.030</ele>
        <time>2021-06-19T10:04:08Z</time>
      </trkpt>
      <trkpt lat="42.454989" lon="1.095973">
        <ele>1098.039</ele>
        <time>2021-06-19T10:04:09Z</time>
      </trkpt>
      <trkpt lat="42.454234" lon="1.096106">
        <ele>1093.175</ele>
        <time>2021-06-19T10:04:14Z</time>
      </trkpt>
      <trkpt lat="42.453715" lon="1.096194">
        <ele>1089.229</ele>
        <time>2021-06-19T10:04:18Z</time>
      </trkpt>
      <trkpt lat="42.453715" lon="1.096194">
        <ele>1089.243</ele>
        <time>2021-06-19T10:04:19Z</time>
      </trkpt>
      <trkpt lat="42.453217" lon="1.096291">
        <ele>1084.533</ele>
        <time>2021-06-19T10:04:23Z</time>
      </trkpt>
      <trkpt lat="42.453105" lon="1.096332">
        <ele>1083.076</ele>
        <time>2021-06-19T10:04:24Z</time>
      </trkpt>
      <trkpt lat="42.452897" lon="1.096475">
        <ele>1080.473</ele>
        <time>2021-06-19T10:04:26Z</time>
      </trkpt>
      <trkpt lat="42.452716" lon="1.096693">
        <ele>1076.765</ele>
        <time>2021-06-19T10:04:28Z</time>
      </trkpt>
      <trkpt lat="42.452582" lon="1.096955">
        <ele>1073.968</ele>
        <time>2021-06-19T10:04:29Z</time>
      </trkpt>
      <trkpt lat="42.452451" lon="1.097198">
        <ele>1072.014</ele>
        <time>2021-06-19T10:04:32Z</time>
      </trkpt>
      <trkpt lat="42.452371" lon="1.097295">
        <ele>1071.208</ele>
        <time>2021-06-19T10:04:33Z</time>
      </trkpt>
      <trkpt lat="42.452170" lon="1.097447">
        <ele>1069.193</ele>
        <time>2021-06-19T10:04:35Z</time>
      </trkpt>
      <trkpt lat="42.451944" lon="1.097570">
        <ele>1066.042</ele>
        <time>2021-06-19T10:04:36Z</time>
      </trkpt>
      <trkpt lat="42.451454" lon="1.097739">
        <ele>1062.698</ele>
        <time>2021-06-19T10:04:40Z</time>
      </trkpt>
      <trkpt lat="42.451454" lon="1.097739">
        <ele>1062.612</ele>
        <time>2021-06-19T10:04:41Z</time>
      </trkpt>
      <trkpt lat="42.451202" lon="1.097753">
        <ele>1060.646</ele>
        <time>2021-06-19T10:04:42Z</time>
      </trkpt>
      <trkpt lat="42.451076" lon="1.097748">
        <ele>1059.826</ele>
        <time>2021-06-19T10:04:44Z</time>
      </trkpt>
      <trkpt lat="42.450951" lon="1.097737">
        <ele>1058.839</ele>
        <time>2021-06-19T10:04:45Z</time>
      </trkpt>
      <trkpt lat="42.450715" lon="1.097681">
        <ele>1057.066</ele>
        <time>2021-06-19T10:04:46Z</time>
      </trkpt>
      <trkpt lat="42.450493" lon="1.097560">
        <ele>1053.772</ele>
        <time>2021-06-19T10:04:48Z</time>
      </trkpt>
      <trkpt lat="42.450390" lon="1.097476">
        <ele>1052.413</ele>
        <time>2021-06-19T10:04:50Z</time>
      </trkpt>
      <trkpt lat="42.450198" lon="1.097264">
        <ele>1050.314</ele>
        <time>2021-06-19T10:04:52Z</time>
      </trkpt>
      <trkpt lat="42.450111" lon="1.097141">
        <ele>1050.308</ele>
        <time>2021-06-19T10:04:53Z</time>
      </trkpt>
      <trkpt lat="42.450032" lon="1.097007">
        <ele>1049.084</ele>
        <time>2021-06-19T10:04:54Z</time>
      </trkpt>
      <trkpt lat="42.449965" lon="1.096861">
        <ele>1047.933</ele>
        <time>2021-06-19T10:04:55Z</time>
      </trkpt>
      <trkpt lat="42.449852" lon="1.096547">
        <ele>1047.069</ele>
        <time>2021-06-19T10:04:57Z</time>
      </trkpt>
      <trkpt lat="42.449663" lon="1.096078">
        <ele>1041.133</ele>
        <time>2021-06-19T10:04:59Z</time>
      </trkpt>
      <trkpt lat="42.449663" lon="1.096078">
        <ele>1041.167</ele>
        <time>2021-06-19T10:05:00Z</time>
      </trkpt>
      <trkpt lat="42.449321" lon="1.095505">
        <ele>1037.447</ele>
        <time>2021-06-19T10:05:04Z</time>
      </trkpt>
      <trkpt lat="42.449126" lon="1.095236">
        <ele>1032.980</ele>
        <time>2021-06-19T10:05:05Z</time>
      </trkpt>
      <trkpt lat="42.448916" lon="1.094978">
        <ele>1030.017</ele>
        <time>2021-06-19T10:05:08Z</time>
      </trkpt>
      <trkpt lat="42.448807" lon="1.094854">
        <ele>1028.512</ele>
        <time>2021-06-19T10:05:09Z</time>
      </trkpt>
      <trkpt lat="42.448399" lon="1.094380">
        <ele>1025.932</ele>
        <time>2021-06-19T10:05:13Z</time>
      </trkpt>
      <trkpt lat="42.448201" lon="1.094154">
        <ele>1024.005</ele>
        <time>2021-06-19T10:05:15Z</time>
      </trkpt>
      <trkpt lat="42.447905" lon="1.093819">
        <ele>1020.908</ele>
        <time>2021-06-19T10:05:18Z</time>
      </trkpt>
      <trkpt lat="42.447507" lon="1.093377">
        <ele>1015.458</ele>
        <time>2021-06-19T10:05:22Z</time>
      </trkpt>
      <trkpt lat="42.447323" lon="1.093137">
        <ele>1014.287</ele>
        <time>2021-06-19T10:05:23Z</time>
      </trkpt>
      <trkpt lat="42.447323" lon="1.093137">
        <ele>1014.293</ele>
        <time>2021-06-19T10:05:24Z</time>
      </trkpt>
      <trkpt lat="42.447240" lon="1.093005">
        <ele>1012.837</ele>
        <time>2021-06-19T10:05:25Z</time>
      </trkpt>
      <trkpt lat="42.447100" lon="1.092722">
        <ele>1013.231</ele>
        <time>2021-06-19T10:05:27Z</time>
      </trkpt>
      <trkpt lat="42.447043" lon="1.092570">
        <ele>1011.891</ele>
        <time>2021-06-19T10:05:28Z</time>
      </trkpt>
      <trkpt lat="42.446860" lon="1.091976">
        <ele>1007.254</ele>
        <time>2021-06-19T10:05:32Z</time>
      </trkpt>
      <trkpt lat="42.446759" lon="1.091737">
        <ele>1007.241</ele>
        <time>2021-06-19T10:05:34Z</time>
      </trkpt>
      <trkpt lat="42.446684" lon="1.091645">
        <ele>1005.791</ele>
        <time>2021-06-19T10:05:35Z</time>
      </trkpt>
      <trkpt lat="42.446510" lon="1.091549">
        <ele>1002.381</ele>
        <time>2021-06-19T10:05:37Z</time>
      </trkpt>
      <trkpt lat="42.446419" lon="1.091536">
        <ele>1000.219</ele>
        <time>2021-06-19T10:05:38Z</time>
      </trkpt>
      <trkpt lat="42.446237" lon="1.091589">
        <ele>1004.608</ele>
        <time>2021-06-19T10:05:40Z</time>
      </trkpt>
      <trkpt lat="42.446158" lon="1.091636">
        <ele>1006.446</ele>
        <time>2021-06-19T10:05:41Z</time>
      </trkpt>
      <trkpt lat="42.445978" lon="1.091813">
        <ele>1008.115</ele>
        <time>2021-06-19T10:05:44Z</time>
      </trkpt>
      <trkpt lat="42.445917" lon="1.091878">
        <ele>1007.311</ele>
        <time>2021-06-19T10:05:45Z</time>
      </trkpt>
      <trkpt lat="42.445675" lon="1.092168">
        <ele>1003.855</ele>
        <time>2021-06-19T10:05:49Z</time>
      </trkpt>
      <trkpt lat="42.445572" lon="1.092339">
        <ele>1003.029</ele>
        <time>2021-06-19T10:05:51Z</time>
      </trkpt>
      <trkpt lat="42.445472" lon="1.092641">
        <ele>1003.539</ele>
        <time>2021-06-19T10:05:54Z</time>
      </trkpt>
      <trkpt lat="42.445452" lon="1.092744">
        <ele>1003.832</ele>
        <time>2021-06-19T10:05:55Z</time>
      </trkpt>
      <trkpt lat="42.445430" lon="1.092851">
        <ele>1004.079</ele>
        <time>2021-06-19T10:05:56Z</time>
      </trkpt>
      <trkpt lat="42.445408" lon="1.093068">
        <ele>1003.466</ele>
        <time>2021-06-19T10:05:58Z</time>
      </trkpt>
      <trkpt lat="42.445404" lon="1.093287">
        <ele>1003.229</ele>
        <time>2021-06-19T10:06:00Z</time>
      </trkpt>
      <trkpt lat="42.445416" lon="1.093398">
        <ele>1002.621</ele>
        <time>2021-06-19T10:06:01Z</time>
      </trkpt>
      <trkpt lat="42.445434" lon="1.093511">
        <ele>1001.908</ele>
        <time>2021-06-19T10:06:02Z</time>
      </trkpt>
      <trkpt lat="42.445467" lon="1.093738">
        <ele>1000.563</ele>
        <time>2021-06-19T10:06:04Z</time>
      </trkpt>
      <trkpt lat="42.445488" lon="1.093857">
        <ele>999.522</ele>
        <time>2021-06-19T10:06:05Z</time>
      </trkpt>
      <trkpt lat="42.445600" lon="1.094464">
        <ele>998.198</ele>
        <time>2021-06-19T10:06:09Z</time>
      </trkpt>
      <trkpt lat="42.445635" lon="1.094584">
        <ele>998.252</ele>
        <time>2021-06-19T10:06:11Z</time>
      </trkpt>
      <trkpt lat="42.445713" lon="1.094817">
        <ele>998.366</ele>
        <time>2021-06-19T10:06:13Z</time>
      </trkpt>
      <trkpt lat="42.445761" lon="1.094925">
        <ele>997.976</ele>
        <time>2021-06-19T10:06:14Z</time>
      </trkpt>
      <trkpt lat="42.445870" lon="1.095129">
        <ele>997.279</ele>
        <time>2021-06-19T10:06:16Z</time>
      </trkpt>
      <trkpt lat="42.445932" lon="1.095219">
        <ele>997.336</ele>
        <time>2021-06-19T10:06:17Z</time>
      </trkpt>
      <trkpt lat="42.445994" lon="1.095308">
        <ele>997.523</ele>
        <time>2021-06-19T10:06:18Z</time>
      </trkpt>
      <trkpt lat="42.446163" lon="1.095590">
        <ele>997.483</ele>
        <time>2021-06-19T10:06:21Z</time>
      </trkpt>
      <trkpt lat="42.446213" lon="1.095688">
        <ele>997.911</ele>
        <time>2021-06-19T10:06:22Z</time>
      </trkpt>
      <trkpt lat="42.446258" lon="1.095789">
        <ele>998.508</ele>
        <time>2021-06-19T10:06:23Z</time>
      </trkpt>
      <trkpt lat="42.446334" lon="1.096003">
        <ele>997.069</ele>
        <time>2021-06-19T10:06:25Z</time>
      </trkpt>
      <trkpt lat="42.446366" lon="1.096118">
        <ele>995.978</ele>
        <time>2021-06-19T10:06:26Z</time>
      </trkpt>
      <trkpt lat="42.446396" lon="1.096237">
        <ele>994.984</ele>
        <time>2021-06-19T10:06:27Z</time>
      </trkpt>
      <trkpt lat="42.446489" lon="1.096613">
        <ele>994.048</ele>
        <time>2021-06-19T10:06:30Z</time>
      </trkpt>
      <trkpt lat="42.446661" lon="1.097136">
        <ele>990.342</ele>
        <time>2021-06-19T10:06:34Z</time>
      </trkpt>
      <trkpt lat="42.446709" lon="1.097269">
        <ele>990.162</ele>
        <time>2021-06-19T10:06:35Z</time>
      </trkpt>
      <trkpt lat="42.446851" lon="1.097652">
        <ele>988.235</ele>
        <time>2021-06-19T10:06:38Z</time>
      </trkpt>
      <trkpt lat="42.446939" lon="1.097894">
        <ele>987.532</ele>
        <time>2021-06-19T10:06:40Z</time>
      </trkpt>
      <trkpt lat="42.447014" lon="1.098127">
        <ele>987.844</ele>
        <time>2021-06-19T10:06:42Z</time>
      </trkpt>
      <trkpt lat="42.447130" lon="1.098477">
        <ele>987.405</ele>
        <time>2021-06-19T10:06:45Z</time>
      </trkpt>
      <trkpt lat="42.447168" lon="1.098595">
        <ele>987.615</ele>
        <time>2021-06-19T10:06:46Z</time>
      </trkpt>
      <trkpt lat="42.447314" lon="1.099042">
        <ele>990.108</ele>
        <time>2021-06-19T10:06:50Z</time>
      </trkpt>
      <trkpt lat="42.447426" lon="1.099367">
        <ele>989.571</ele>
        <time>2021-06-19T10:06:53Z</time>
      </trkpt>
      <trkpt lat="42.447502" lon="1.099587">
        <ele>987.590</ele>
        <time>2021-06-19T10:06:55Z</time>
      </trkpt>
      <trkpt lat="42.447654" lon="1.100044">
        <ele>986.276</ele>
        <time>2021-06-19T10:06:59Z</time>
      </trkpt>
      <trkpt lat="42.447732" lon="1.100280">
        <ele>983.740</ele>
        <time>2021-06-19T10:07:01Z</time>
      </trkpt>
      <trkpt lat="42.447818" lon="1.100529">
        <ele>981.594</ele>
        <time>2021-06-19T10:07:03Z</time>
      </trkpt>
      <trkpt lat="42.447997" lon="1.101053">
        <ele>977.614</ele>
        <time>2021-06-19T10:07:07Z</time>
      </trkpt>
      <trkpt lat="42.448183" lon="1.101593">
        <ele>978.727</ele>
        <time>2021-06-19T10:07:11Z</time>
      </trkpt>
      <trkpt lat="42.448399" lon="1.102129">
        <ele>972.934</ele>
        <time>2021-06-19T10:07:15Z</time>
      </trkpt>
      <trkpt lat="42.448590" lon="1.102516">
        <ele>970.626</ele>
        <time>2021-06-19T10:07:18Z</time>
      </trkpt>
      <trkpt lat="42.448803" lon="1.102891">
        <ele>968.347</ele>
        <time>2021-06-19T10:07:21Z</time>
      </trkpt>
      <trkpt lat="42.449019" lon="1.103254">
        <ele>964.911</ele>
        <time>2021-06-19T10:07:24Z</time>
      </trkpt>
      <trkpt lat="42.449276" lon="1.103665">
        <ele>961.508</ele>
        <time>2021-06-19T10:07:27Z</time>
      </trkpt>
      <trkpt lat="42.449408" lon="1.103952">
        <ele>960.139</ele>
        <time>2021-06-19T10:07:31Z</time>
      </trkpt>
      <trkpt lat="42.449408" lon="1.103952">
        <ele>960.118</ele>
        <time>2021-06-19T10:07:32Z</time>
      </trkpt>
      <trkpt lat="42.449448" lon="1.104156">
        <ele>959.064</ele>
        <time>2021-06-19T10:07:34Z</time>
      </trkpt>
      <trkpt lat="42.449477" lon="1.104221">
        <ele>958.738</ele>
        <time>2021-06-19T10:07:36Z</time>
      </trkpt>
      <trkpt lat="42.449538" lon="1.104427">
        <ele>957.662</ele>
        <time>2021-06-19T10:07:38Z</time>
      </trkpt>
      <trkpt lat="42.449538" lon="1.104427">
        <ele>957.652</ele>
        <time>2021-06-19T10:07:39Z</time>
      </trkpt>
      <trkpt lat="42.449538" lon="1.104752">
        <ele>958.635</ele>
        <time>2021-06-19T10:07:43Z</time>
      </trkpt>
      <trkpt lat="42.449535" lon="1.104921">
        <ele>958.742</ele>
        <time>2021-06-19T10:07:45Z</time>
      </trkpt>
      <trkpt lat="42.449530" lon="1.105094">
        <ele>958.673</ele>
        <time>2021-06-19T10:07:47Z</time>
      </trkpt>
      <trkpt lat="42.449521" lon="1.105359">
        <ele>958.585</ele>
        <time>2021-06-19T10:07:50Z</time>
      </trkpt>
      <trkpt lat="42.449501" lon="1.105806">
        <ele>959.013</ele>
        <time>2021-06-19T10:07:55Z</time>
      </trkpt>
      <trkpt lat="42.449492" lon="1.106262">
        <ele>957.708</ele>
        <time>2021-06-19T10:08:00Z</time>
      </trkpt>
      <trkpt lat="42.449518" lon="1.106536">
        <ele>957.464</ele>
        <time>2021-06-19T10:08:03Z</time>
      </trkpt>
      <trkpt lat="42.449572" lon="1.106711">
        <ele>957.173</ele>
        <time>2021-06-19T10:08:04Z</time>
      </trkpt>
      <trkpt lat="42.449606" lon="1.106795">
        <ele>957.399</ele>
        <time>2021-06-19T10:08:06Z</time>
      </trkpt>
      <trkpt lat="42.449643" lon="1.106878">
        <ele>957.413</ele>
        <time>2021-06-19T10:08:07Z</time>
      </trkpt>
      <trkpt lat="42.449680" lon="1.106960">
        <ele>957.647</ele>
        <time>2021-06-19T10:08:08Z</time>
      </trkpt>
      <trkpt lat="42.449773" lon="1.107219">
        <ele>957.967</ele>
        <time>2021-06-19T10:08:11Z</time>
      </trkpt>
      <trkpt lat="42.449790" lon="1.107312">
        <ele>957.670</ele>
        <time>2021-06-19T10:08:12Z</time>
      </trkpt>
      <trkpt lat="42.449771" lon="1.107695">
        <ele>957.737</ele>
        <time>2021-06-19T10:08:16Z</time>
      </trkpt>
      <trkpt lat="42.449722" lon="1.108079">
        <ele>957.884</ele>
        <time>2021-06-19T10:08:19Z</time>
      </trkpt>
      <trkpt lat="42.449722" lon="1.108079">
        <ele>957.807</ele>
        <time>2021-06-19T10:08:20Z</time>
      </trkpt>
      <trkpt lat="42.449699" lon="1.108173">
        <ele>957.917</ele>
        <time>2021-06-19T10:08:21Z</time>
      </trkpt>
      <trkpt lat="42.449664" lon="1.108260">
        <ele>958.208</ele>
        <time>2021-06-19T10:08:22Z</time>
      </trkpt>
      <trkpt lat="42.449565" lon="1.108409">
        <ele>958.385</ele>
        <time>2021-06-19T10:08:24Z</time>
      </trkpt>
      <trkpt lat="42.449506" lon="1.108475">
        <ele>957.884</ele>
        <time>2021-06-19T10:08:25Z</time>
      </trkpt>
      <trkpt lat="42.449323" lon="1.108676">
        <ele>957.810</ele>
        <time>2021-06-19T10:08:28Z</time>
      </trkpt>
      <trkpt lat="42.449214" lon="1.108836">
        <ele>956.624</ele>
        <time>2021-06-19T10:08:29Z</time>
      </trkpt>
      <trkpt lat="42.449214" lon="1.108836">
        <ele>956.628</ele>
        <time>2021-06-19T10:08:30Z</time>
      </trkpt>
      <trkpt lat="42.449068" lon="1.109112">
        <ele>956.518</ele>
        <time>2021-06-19T10:08:33Z</time>
      </trkpt>
      <trkpt lat="42.448934" lon="1.109419">
        <ele>954.351</ele>
        <time>2021-06-19T10:08:36Z</time>
      </trkpt>
      <trkpt lat="42.448888" lon="1.109526">
        <ele>953.648</ele>
        <time>2021-06-19T10:08:37Z</time>
      </trkpt>
      <trkpt lat="42.448705" lon="1.109965">
        <ele>952.751</ele>
        <time>2021-06-19T10:08:41Z</time>
      </trkpt>
      <trkpt lat="42.448532" lon="1.110424">
        <ele>949.601</ele>
        <time>2021-06-19T10:08:45Z</time>
      </trkpt>
      <trkpt lat="42.448377" lon="1.110905">
        <ele>948.211</ele>
        <time>2021-06-19T10:08:49Z</time>
      </trkpt>
      <trkpt lat="42.448279" lon="1.111133">
        <ele>946.708</ele>
        <time>2021-06-19T10:08:51Z</time>
      </trkpt>
      <trkpt lat="42.448142" lon="1.111312">
        <ele>946.022</ele>
        <time>2021-06-19T10:08:53Z</time>
      </trkpt>
      <trkpt lat="42.448061" lon="1.111374">
        <ele>945.531</ele>
        <time>2021-06-19T10:08:54Z</time>
      </trkpt>
      <trkpt lat="42.447892" lon="1.111477">
        <ele>945.987</ele>
        <time>2021-06-19T10:08:55Z</time>
      </trkpt>
      <trkpt lat="42.447812" lon="1.111539">
        <ele>945.911</ele>
        <time>2021-06-19T10:08:57Z</time>
      </trkpt>
      <trkpt lat="42.447740" lon="1.111615">
        <ele>945.795</ele>
        <time>2021-06-19T10:08:58Z</time>
      </trkpt>
      <trkpt lat="42.447677" lon="1.111706">
        <ele>945.645</ele>
        <time>2021-06-19T10:08:59Z</time>
      </trkpt>
      <trkpt lat="42.447542" lon="1.112032">
        <ele>944.838</ele>
        <time>2021-06-19T10:09:02Z</time>
      </trkpt>
      <trkpt lat="42.447472" lon="1.112266">
        <ele>944.615</ele>
        <time>2021-06-19T10:09:03Z</time>
      </trkpt>
      <trkpt lat="42.447387" lon="1.112490">
        <ele>944.047</ele>
        <time>2021-06-19T10:09:06Z</time>
      </trkpt>
      <trkpt lat="42.447257" lon="1.112663">
        <ele>943.229</ele>
        <time>2021-06-19T10:09:07Z</time>
      </trkpt>
      <trkpt lat="42.447178" lon="1.112722">
        <ele>943.121</ele>
        <time>2021-06-19T10:09:09Z</time>
      </trkpt>
      <trkpt lat="42.447012" lon="1.112823">
        <ele>942.908</ele>
        <time>2021-06-19T10:09:10Z</time>
      </trkpt>
      <trkpt lat="42.446928" lon="1.112874">
        <ele>942.871</ele>
        <time>2021-06-19T10:09:12Z</time>
      </trkpt>
      <trkpt lat="42.446770" lon="1.112994">
        <ele>941.690</ele>
        <time>2021-06-19T10:09:13Z</time>
      </trkpt>
      <trkpt lat="42.446700" lon="1.113070">
        <ele>940.486</ele>
        <time>2021-06-19T10:09:15Z</time>
      </trkpt>
      <trkpt lat="42.446637" lon="1.113159">
        <ele>939.680</ele>
        <time>2021-06-19T10:09:16Z</time>
      </trkpt>
      <trkpt lat="42.446496" lon="1.113612">
        <ele>938.584</ele>
        <time>2021-06-19T10:09:19Z</time>
      </trkpt>
      <trkpt lat="42.446496" lon="1.113612">
        <ele>938.514</ele>
        <time>2021-06-19T10:09:20Z</time>
      </trkpt>
      <trkpt lat="42.446439" lon="1.114116">
        <ele>938.197</ele>
        <time>2021-06-19T10:09:23Z</time>
      </trkpt>
      <trkpt lat="42.446407" lon="1.114238">
        <ele>938.274</ele>
        <time>2021-06-19T10:09:25Z</time>
      </trkpt>
      <trkpt lat="42.446320" lon="1.114453">
        <ele>937.638</ele>
        <time>2021-06-19T10:09:27Z</time>
      </trkpt>
      <trkpt lat="42.446259" lon="1.114542">
        <ele>937.470</ele>
        <time>2021-06-19T10:09:28Z</time>
      </trkpt>
      <trkpt lat="42.446048" lon="1.114740">
        <ele>937.217</ele>
        <time>2021-06-19T10:09:31Z</time>
      </trkpt>
      <trkpt lat="42.445974" lon="1.114798">
        <ele>937.708</ele>
        <time>2021-06-19T10:09:32Z</time>
      </trkpt>
      <trkpt lat="42.445671" lon="1.115020">
        <ele>936.730</ele>
        <time>2021-06-19T10:09:35Z</time>
      </trkpt>
      <trkpt lat="42.445592" lon="1.115064">
        <ele>936.539</ele>
        <time>2021-06-19T10:09:37Z</time>
      </trkpt>
      <trkpt lat="42.445510" lon="1.115091">
        <ele>935.535</ele>
        <time>2021-06-19T10:09:38Z</time>
      </trkpt>
      <trkpt lat="42.445340" lon="1.115085">
        <ele>933.719</ele>
        <time>2021-06-19T10:09:40Z</time>
      </trkpt>
      <trkpt lat="42.445256" lon="1.115057">
        <ele>934.033</ele>
        <time>2021-06-19T10:09:41Z</time>
      </trkpt>
      <trkpt lat="42.445017" lon="1.114931">
        <ele>935.363</ele>
        <time>2021-06-19T10:09:44Z</time>
      </trkpt>
      <trkpt lat="42.444858" lon="1.114858">
        <ele>936.626</ele>
        <time>2021-06-19T10:09:45Z</time>
      </trkpt>
      <trkpt lat="42.444775" lon="1.114839">
        <ele>936.363</ele>
        <time>2021-06-19T10:09:47Z</time>
      </trkpt>
      <trkpt lat="42.444614" lon="1.114870">
        <ele>935.948</ele>
        <time>2021-06-19T10:09:48Z</time>
      </trkpt>
      <trkpt lat="42.444542" lon="1.114921">
        <ele>935.261</ele>
        <time>2021-06-19T10:09:50Z</time>
      </trkpt>
      <trkpt lat="42.444433" lon="1.115079">
        <ele>933.617</ele>
        <time>2021-06-19T10:09:52Z</time>
      </trkpt>
      <trkpt lat="42.444381" lon="1.115287">
        <ele>934.208</ele>
        <time>2021-06-19T10:09:53Z</time>
      </trkpt>
      <trkpt lat="42.444372" lon="1.115398">
        <ele>934.251</ele>
        <time>2021-06-19T10:09:55Z</time>
      </trkpt>
      <trkpt lat="42.444307" lon="1.116075">
        <ele>934.310</ele>
        <time>2021-06-19T10:09:59Z</time>
      </trkpt>
      <trkpt lat="42.444307" lon="1.116075">
        <ele>934.316</ele>
        <time>2021-06-19T10:10:01Z</time>
      </trkpt>
      <trkpt lat="42.444275" lon="1.116180">
        <ele>934.380</ele>
        <time>2021-06-19T10:10:02Z</time>
      </trkpt>
      <trkpt lat="42.444144" lon="1.116471">
        <ele>934.454</ele>
        <time>2021-06-19T10:10:05Z</time>
      </trkpt>
      <trkpt lat="42.443905" lon="1.117019">
        <ele>932.954</ele>
        <time>2021-06-19T10:10:11Z</time>
      </trkpt>
      <trkpt lat="42.443822" lon="1.117299">
        <ele>932.057</ele>
        <time>2021-06-19T10:10:12Z</time>
      </trkpt>
      <trkpt lat="42.443742" lon="1.117576">
        <ele>931.764</ele>
        <time>2021-06-19T10:10:16Z</time>
      </trkpt>
      <trkpt lat="42.443589" lon="1.118019">
        <ele>930.941</ele>
        <time>2021-06-19T10:10:21Z</time>
      </trkpt>
      <trkpt lat="42.443589" lon="1.118019">
        <ele>930.981</ele>
        <time>2021-06-19T10:10:22Z</time>
      </trkpt>
      <trkpt lat="42.443515" lon="1.118186">
        <ele>931.509</ele>
        <time>2021-06-19T10:10:24Z</time>
      </trkpt>
      <trkpt lat="42.443360" lon="1.118623">
        <ele>931.108</ele>
        <time>2021-06-19T10:10:29Z</time>
      </trkpt>
      <trkpt lat="42.443355" lon="1.118825">
        <ele>930.611</ele>
        <time>2021-06-19T10:10:30Z</time>
      </trkpt>
      <trkpt lat="42.443372" lon="1.118927">
        <ele>929.660</ele>
        <time>2021-06-19T10:10:32Z</time>
      </trkpt>
      <trkpt lat="42.443500" lon="1.119215">
        <ele>926.756</ele>
        <time>2021-06-19T10:10:35Z</time>
      </trkpt>
      <trkpt lat="42.443644" lon="1.119362">
        <ele>926.060</ele>
        <time>2021-06-19T10:10:36Z</time>
      </trkpt>
      <trkpt lat="42.443726" lon="1.119420">
        <ele>925.044</ele>
        <time>2021-06-19T10:10:38Z</time>
      </trkpt>
      <trkpt lat="42.443992" lon="1.119592">
        <ele>922.424</ele>
        <time>2021-06-19T10:10:40Z</time>
      </trkpt>
      <trkpt lat="42.444077" lon="1.119668">
        <ele>921.147</ele>
        <time>2021-06-19T10:10:42Z</time>
      </trkpt>
      <trkpt lat="42.444270" lon="1.119949">
        <ele>918.564</ele>
        <time>2021-06-19T10:10:45Z</time>
      </trkpt>
      <trkpt lat="42.444303" lon="1.120067">
        <ele>918.041</ele>
        <time>2021-06-19T10:10:46Z</time>
      </trkpt>
      <trkpt lat="42.444293" lon="1.120333">
        <ele>917.181</ele>
        <time>2021-06-19T10:10:47Z</time>
      </trkpt>
      <trkpt lat="42.444265" lon="1.120467">
        <ele>916.509</ele>
        <time>2021-06-19T10:10:49Z</time>
      </trkpt>
      <trkpt lat="42.444114" lon="1.120862">
        <ele>916.508</ele>
        <time>2021-06-19T10:10:51Z</time>
      </trkpt>
      <trkpt lat="42.444114" lon="1.120862">
        <ele>916.541</ele>
        <time>2021-06-19T10:10:52Z</time>
      </trkpt>
      <trkpt lat="42.443921" lon="1.121370">
        <ele>913.310</ele>
        <time>2021-06-19T10:10:56Z</time>
      </trkpt>
      <trkpt lat="42.443885" lon="1.121500">
        <ele>913.316</ele>
        <time>2021-06-19T10:10:57Z</time>
      </trkpt>
      <trkpt lat="42.443840" lon="1.121763">
        <ele>912.450</ele>
        <time>2021-06-19T10:10:58Z</time>
      </trkpt>
      <trkpt lat="42.443821" lon="1.121895">
        <ele>912.264</ele>
        <time>2021-06-19T10:11:00Z</time>
      </trkpt>
      <trkpt lat="42.443768" lon="1.122290">
        <ele>911.514</ele>
        <time>2021-06-19T10:11:02Z</time>
      </trkpt>
      <trkpt lat="42.443762" lon="1.122809">
        <ele>907.627</ele>
        <time>2021-06-19T10:11:06Z</time>
      </trkpt>
      <trkpt lat="42.443762" lon="1.122809">
        <ele>907.614</ele>
        <time>2021-06-19T10:11:07Z</time>
      </trkpt>
      <trkpt lat="42.443781" lon="1.123061">
        <ele>908.026</ele>
        <time>2021-06-19T10:11:09Z</time>
      </trkpt>
      <trkpt lat="42.443779" lon="1.123309">
        <ele>907.647</ele>
        <time>2021-06-19T10:11:10Z</time>
      </trkpt>
      <trkpt lat="42.443779" lon="1.123309">
        <ele>907.611</ele>
        <time>2021-06-19T10:11:11Z</time>
      </trkpt>
      <trkpt lat="42.443765" lon="1.123429">
        <ele>906.908</ele>
        <time>2021-06-19T10:11:12Z</time>
      </trkpt>
      <trkpt lat="42.443711" lon="1.123661">
        <ele>906.139</ele>
        <time>2021-06-19T10:11:14Z</time>
      </trkpt>
      <trkpt lat="42.443675" lon="1.123774">
        <ele>906.088</ele>
        <time>2021-06-19T10:11:15Z</time>
      </trkpt>
      <trkpt lat="42.443483" lon="1.124203">
        <ele>904.454</ele>
        <time>2021-06-19T10:11:19Z</time>
      </trkpt>
      <trkpt lat="42.443422" lon="1.124300">
        <ele>903.748</ele>
        <time>2021-06-19T10:11:20Z</time>
      </trkpt>
      <trkpt lat="42.443216" lon="1.124570">
        <ele>903.542</ele>
        <time>2021-06-19T10:11:23Z</time>
      </trkpt>
      <trkpt lat="42.442937" lon="1.124926">
        <ele>902.662</ele>
        <time>2021-06-19T10:11:26Z</time>
      </trkpt>
      <trkpt lat="42.442693" lon="1.125332">
        <ele>899.925</ele>
        <time>2021-06-19T10:11:31Z</time>
      </trkpt>
      <trkpt lat="42.442577" lon="1.125545">
        <ele>897.912</ele>
        <time>2021-06-19T10:11:33Z</time>
      </trkpt>
      <trkpt lat="42.442520" lon="1.125649">
        <ele>897.558</ele>
        <time>2021-06-19T10:11:34Z</time>
      </trkpt>
      <trkpt lat="42.442332" lon="1.125943">
        <ele>897.052</ele>
        <time>2021-06-19T10:11:37Z</time>
      </trkpt>
      <trkpt lat="42.442192" lon="1.126127">
        <ele>896.117</ele>
        <time>2021-06-19T10:11:39Z</time>
      </trkpt>
      <trkpt lat="42.442047" lon="1.126310">
        <ele>894.608</ele>
        <time>2021-06-19T10:11:41Z</time>
      </trkpt>
      <trkpt lat="42.441743" lon="1.126692">
        <ele>892.562</ele>
        <time>2021-06-19T10:11:45Z</time>
      </trkpt>
      <trkpt lat="42.441589" lon="1.126892">
        <ele>892.891</ele>
        <time>2021-06-19T10:11:47Z</time>
      </trkpt>
      <trkpt lat="42.441434" lon="1.127096">
        <ele>891.677</ele>
        <time>2021-06-19T10:11:49Z</time>
      </trkpt>
      <trkpt lat="42.441106" lon="1.127508">
        <ele>887.041</ele>
        <time>2021-06-19T10:11:53Z</time>
      </trkpt>
      <trkpt lat="42.440919" lon="1.127695">
        <ele>885.615</ele>
        <time>2021-06-19T10:11:55Z</time>
      </trkpt>
      <trkpt lat="42.440707" lon="1.127850">
        <ele>881.225</ele>
        <time>2021-06-19T10:11:57Z</time>
      </trkpt>
      <trkpt lat="42.440476" lon="1.127977">
        <ele>878.078</ele>
        <time>2021-06-19T10:11:59Z</time>
      </trkpt>
      <trkpt lat="42.440356" lon="1.128040">
        <ele>876.345</ele>
        <time>2021-06-19T10:12:00Z</time>
      </trkpt>
      <trkpt lat="42.439858" lon="1.128289">
        <ele>869.628</ele>
        <time>2021-06-19T10:12:04Z</time>
      </trkpt>
      <trkpt lat="42.439615" lon="1.128399">
        <ele>867.389</ele>
        <time>2021-06-19T10:12:06Z</time>
      </trkpt>
      <trkpt lat="42.439500" lon="1.128444">
        <ele>866.717</ele>
        <time>2021-06-19T10:12:07Z</time>
      </trkpt>
      <trkpt lat="42.439194" lon="1.128510">
        <ele>864.408</ele>
        <time>2021-06-19T10:12:10Z</time>
      </trkpt>
      <trkpt lat="42.438974" lon="1.128516">
        <ele>862.079</ele>
        <time>2021-06-19T10:12:13Z</time>
      </trkpt>
      <trkpt lat="42.438897" lon="1.128585">
        <ele>859.768</ele>
        <time>2021-06-19T10:12:16Z</time>
      </trkpt>
      <trkpt lat="42.438941" lon="1.128616">
        <ele>859.374</ele>
        <time>2021-06-19T10:12:19Z</time>
      </trkpt>
      <trkpt lat="42.438953" lon="1.128621">
        <ele>859.298</ele>
        <time>2021-06-19T10:12:20Z</time>
      </trkpt>
      <trkpt lat="42.438998" lon="1.128658">
        <ele>858.042</ele>
        <time>2021-06-19T10:12:24Z</time>
      </trkpt>
      <trkpt lat="42.439083" lon="1.128687">
        <ele>858.092</ele>
        <time>2021-06-19T10:12:28Z</time>
      </trkpt>
      <trkpt lat="42.439246" lon="1.128777">
        <ele>857.145</ele>
        <time>2021-06-19T10:12:32Z</time>
      </trkpt>
      <trkpt lat="42.439303" lon="1.128809">
        <ele>856.772</ele>
        <time>2021-06-19T10:12:33Z</time>
      </trkpt>
      <trkpt lat="42.439519" lon="1.128901">
        <ele>855.386</ele>
        <time>2021-06-19T10:12:36Z</time>
      </trkpt>
      <trkpt lat="42.439971" lon="1.129055">
        <ele>849.760</ele>
        <time>2021-06-19T10:12:41Z</time>
      </trkpt>
      <trkpt lat="42.440332" lon="1.129151">
        <ele>848.726</ele>
        <time>2021-06-19T10:12:45Z</time>
      </trkpt>
      <trkpt lat="42.440420" lon="1.129140">
        <ele>847.908</ele>
        <time>2021-06-19T10:12:46Z</time>
      </trkpt>
      <trkpt lat="42.440595" lon="1.129084">
        <ele>847.375</ele>
        <time>2021-06-19T10:12:48Z</time>
      </trkpt>
      <trkpt lat="42.440778" lon="1.129049">
        <ele>846.044</ele>
        <time>2021-06-19T10:12:50Z</time>
      </trkpt>
      <trkpt lat="42.440963" lon="1.129085">
        <ele>844.450</ele>
        <time>2021-06-19T10:12:51Z</time>
      </trkpt>
      <trkpt lat="42.441255" lon="1.129177">
        <ele>841.094</ele>
        <time>2021-06-19T10:12:54Z</time>
      </trkpt>
      <trkpt lat="42.441359" lon="1.129184">
        <ele>840.488</ele>
        <time>2021-06-19T10:12:56Z</time>
      </trkpt>
      <trkpt lat="42.441563" lon="1.129160">
        <ele>838.748</ele>
        <time>2021-06-19T10:12:57Z</time>
      </trkpt>
      <trkpt lat="42.441664" lon="1.129131">
        <ele>838.121</ele>
        <time>2021-06-19T10:12:59Z</time>
      </trkpt>
      <trkpt lat="42.441864" lon="1.129028">
        <ele>836.098</ele>
        <time>2021-06-19T10:13:00Z</time>
      </trkpt>
      <trkpt lat="42.441864" lon="1.129028">
        <ele>836.076</ele>
        <time>2021-06-19T10:13:01Z</time>
      </trkpt>
      <trkpt lat="42.441959" lon="1.128954">
        <ele>835.190</ele>
        <time>2021-06-19T10:13:02Z</time>
      </trkpt>
      <trkpt lat="42.442241" lon="1.128720">
        <ele>832.219</ele>
        <time>2021-06-19T10:13:04Z</time>
      </trkpt>
      <trkpt lat="42.442404" lon="1.128583">
        <ele>830.208</ele>
        <time>2021-06-19T10:13:07Z</time>
      </trkpt>
      <trkpt lat="42.442473" lon="1.128509">
        <ele>829.384</ele>
        <time>2021-06-19T10:13:08Z</time>
      </trkpt>
      <trkpt lat="42.442524" lon="1.128418">
        <ele>828.893</ele>
        <time>2021-06-19T10:13:09Z</time>
      </trkpt>
      <trkpt lat="42.442562" lon="1.128312">
        <ele>828.819</ele>
        <time>2021-06-19T10:13:10Z</time>
      </trkpt>
      <trkpt lat="42.442599" lon="1.128202">
        <ele>828.563</ele>
        <time>2021-06-19T10:13:11Z</time>
      </trkpt>
      <trkpt lat="42.442669" lon="1.127983">
        <ele>828.227</ele>
        <time>2021-06-19T10:13:13Z</time>
      </trkpt>
      <trkpt lat="42.442770" lon="1.127815">
        <ele>826.537</ele>
        <time>2021-06-19T10:13:14Z</time>
      </trkpt>
      <trkpt lat="42.442770" lon="1.127815">
        <ele>826.550</ele>
        <time>2021-06-19T10:13:15Z</time>
      </trkpt>
      <trkpt lat="42.442846" lon="1.127770">
        <ele>825.657</ele>
        <time>2021-06-19T10:13:16Z</time>
      </trkpt>
      <trkpt lat="42.442931" lon="1.127746">
        <ele>824.338</ele>
        <time>2021-06-19T10:13:17Z</time>
      </trkpt>
      <trkpt lat="42.443087" lon="1.127667">
        <ele>822.370</ele>
        <time>2021-06-19T10:13:19Z</time>
      </trkpt>
      <trkpt lat="42.443153" lon="1.127594">
        <ele>821.917</ele>
        <time>2021-06-19T10:13:20Z</time>
      </trkpt>
      <trkpt lat="42.443276" lon="1.127417">
        <ele>821.308</ele>
        <time>2021-06-19T10:13:22Z</time>
      </trkpt>
      <trkpt lat="42.443390" lon="1.127226">
        <ele>820.760</ele>
        <time>2021-06-19T10:13:23Z</time>
      </trkpt>
      <trkpt lat="42.443452" lon="1.127133">
        <ele>820.769</ele>
        <time>2021-06-19T10:13:25Z</time>
      </trkpt>
      <trkpt lat="42.443590" lon="1.126958">
        <ele>819.635</ele>
        <time>2021-06-19T10:13:27Z</time>
      </trkpt>
      <trkpt lat="42.443804" lon="1.126709">
        <ele>819.759</ele>
        <time>2021-06-19T10:13:30Z</time>
      </trkpt>
      <trkpt lat="42.443977" lon="1.126531">
        <ele>818.793</ele>
        <time>2021-06-19T10:13:32Z</time>
      </trkpt>
      <trkpt lat="42.443977" lon="1.126531">
        <ele>818.753</ele>
        <time>2021-06-19T10:13:33Z</time>
      </trkpt>
      <trkpt lat="42.444023" lon="1.126531">
        <ele>817.326</ele>
        <time>2021-06-19T10:13:34Z</time>
      </trkpt>
      <trkpt lat="42.444052" lon="1.126563">
        <ele>815.673</ele>
        <time>2021-06-19T10:13:35Z</time>
      </trkpt>
      <trkpt lat="42.443988" lon="1.126732">
        <ele>812.534</ele>
        <time>2021-06-19T10:13:37Z</time>
      </trkpt>
      <trkpt lat="42.443988" lon="1.126732">
        <ele>812.555</ele>
        <time>2021-06-19T10:13:38Z</time>
      </trkpt>
      <trkpt lat="42.443782" lon="1.126998">
        <ele>812.910</ele>
        <time>2021-06-19T10:13:42Z</time>
      </trkpt>
      <trkpt lat="42.443598" lon="1.127258">
        <ele>811.508</ele>
        <time>2021-06-19T10:13:44Z</time>
      </trkpt>
      <trkpt lat="42.443498" lon="1.127476">
        <ele>809.950</ele>
        <time>2021-06-19T10:13:46Z</time>
      </trkpt>
      <trkpt lat="42.443452" lon="1.127590">
        <ele>809.389</ele>
        <time>2021-06-19T10:13:48Z</time>
      </trkpt>
      <trkpt lat="42.443401" lon="1.127698">
        <ele>808.745</ele>
        <time>2021-06-19T10:13:49Z</time>
      </trkpt>
      <trkpt lat="42.443284" lon="1.127885">
        <ele>806.949</ele>
        <time>2021-06-19T10:13:50Z</time>
      </trkpt>
      <trkpt lat="42.443143" lon="1.128012">
        <ele>806.473</ele>
        <time>2021-06-19T10:13:52Z</time>
      </trkpt>
      <trkpt lat="42.443077" lon="1.128069">
        <ele>806.043</ele>
        <time>2021-06-19T10:13:54Z</time>
      </trkpt>
      <trkpt lat="42.443007" lon="1.128230">
        <ele>804.786</ele>
        <time>2021-06-19T10:13:56Z</time>
      </trkpt>
      <trkpt lat="42.443000" lon="1.128438">
        <ele>801.433</ele>
        <time>2021-06-19T10:13:57Z</time>
      </trkpt>
      <trkpt lat="42.443000" lon="1.128438">
        <ele>801.484</ele>
        <time>2021-06-19T10:13:58Z</time>
      </trkpt>
      <trkpt lat="42.442999" lon="1.128550">
        <ele>800.407</ele>
        <time>2021-06-19T10:13:59Z</time>
      </trkpt>
      <trkpt lat="42.442985" lon="1.128666">
        <ele>799.717</ele>
        <time>2021-06-19T10:14:00Z</time>
      </trkpt>
      <trkpt lat="42.442922" lon="1.129032">
        <ele>796.708</ele>
        <time>2021-06-19T10:14:03Z</time>
      </trkpt>
      <trkpt lat="42.442870" lon="1.129425">
        <ele>792.965</ele>
        <time>2021-06-19T10:14:06Z</time>
      </trkpt>
      <trkpt lat="42.442882" lon="1.129558">
        <ele>792.674</ele>
        <time>2021-06-19T10:14:07Z</time>
      </trkpt>
      <trkpt lat="42.442929" lon="1.129815">
        <ele>791.380</ele>
        <time>2021-06-19T10:14:09Z</time>
      </trkpt>
      <trkpt lat="42.442991" lon="1.130198">
        <ele>788.294</ele>
        <time>2021-06-19T10:14:12Z</time>
      </trkpt>
      <trkpt lat="42.443019" lon="1.130324">
        <ele>786.838</ele>
        <time>2021-06-19T10:14:13Z</time>
      </trkpt>
      <trkpt lat="42.443091" lon="1.130695">
        <ele>785.088</ele>
        <time>2021-06-19T10:14:16Z</time>
      </trkpt>
      <trkpt lat="42.443107" lon="1.130823">
        <ele>784.351</ele>
        <time>2021-06-19T10:14:17Z</time>
      </trkpt>
      <trkpt lat="42.443131" lon="1.131089">
        <ele>782.178</ele>
        <time>2021-06-19T10:14:19Z</time>
      </trkpt>
      <trkpt lat="42.443120" lon="1.131465">
        <ele>779.196</ele>
        <time>2021-06-19T10:14:21Z</time>
      </trkpt>
      <trkpt lat="42.443120" lon="1.131465">
        <ele>779.131</ele>
        <time>2021-06-19T10:14:22Z</time>
      </trkpt>
      <trkpt lat="42.443080" lon="1.131566">
        <ele>779.124</ele>
        <time>2021-06-19T10:14:23Z</time>
      </trkpt>
      <trkpt lat="42.443023" lon="1.131656">
        <ele>778.908</ele>
        <time>2021-06-19T10:14:24Z</time>
      </trkpt>
      <trkpt lat="42.442955" lon="1.131742">
        <ele>777.756</ele>
        <time>2021-06-19T10:14:25Z</time>
      </trkpt>
      <trkpt lat="42.442723" lon="1.131991">
        <ele>774.975</ele>
        <time>2021-06-19T10:14:28Z</time>
      </trkpt>
      <trkpt lat="42.442640" lon="1.132076">
        <ele>774.051</ele>
        <time>2021-06-19T10:14:29Z</time>
      </trkpt>
      <trkpt lat="42.442474" lon="1.132208">
        <ele>771.475</ele>
        <time>2021-06-19T10:14:30Z</time>
      </trkpt>
      <trkpt lat="42.442474" lon="1.132208">
        <ele>771.499</ele>
        <time>2021-06-19T10:14:31Z</time>
      </trkpt>
      <trkpt lat="42.442380" lon="1.132244">
        <ele>769.329</ele>
        <time>2021-06-19T10:14:32Z</time>
      </trkpt>
      <trkpt lat="42.442198" lon="1.132212">
        <ele>768.362</ele>
        <time>2021-06-19T10:14:34Z</time>
      </trkpt>
      <trkpt lat="42.442116" lon="1.132147">
        <ele>766.489</ele>
        <time>2021-06-19T10:14:35Z</time>
      </trkpt>
      <trkpt lat="42.441979" lon="1.131951">
        <ele>763.625</ele>
        <time>2021-06-19T10:14:36Z</time>
      </trkpt>
      <trkpt lat="42.441979" lon="1.131951">
        <ele>763.626</ele>
        <time>2021-06-19T10:14:37Z</time>
      </trkpt>
      <trkpt lat="42.441796" lon="1.131598">
        <ele>761.508</ele>
        <time>2021-06-19T10:14:40Z</time>
      </trkpt>
      <trkpt lat="42.441517" lon="1.131116">
        <ele>757.908</ele>
        <time>2021-06-19T10:14:43Z</time>
      </trkpt>
      <trkpt lat="42.441359" lon="1.130900">
        <ele>756.419</ele>
        <time>2021-06-19T10:14:46Z</time>
      </trkpt>
      <trkpt lat="42.441232" lon="1.130725">
        <ele>758.668</ele>
        <time>2021-06-19T10:14:48Z</time>
      </trkpt>
      <trkpt lat="42.441175" lon="1.130673">
        <ele>759.154</ele>
        <time>2021-06-19T10:14:49Z</time>
      </trkpt>
      <trkpt lat="42.441123" lon="1.130659">
        <ele>758.238</ele>
        <time>2021-06-19T10:14:50Z</time>
      </trkpt>
      <trkpt lat="42.441075" lon="1.130743">
        <ele>754.072</ele>
        <time>2021-06-19T10:14:52Z</time>
      </trkpt>
      <trkpt lat="42.441133" lon="1.130859">
        <ele>750.782</ele>
        <time>2021-06-19T10:14:54Z</time>
      </trkpt>
      <trkpt lat="42.441182" lon="1.130909">
        <ele>750.565</ele>
        <time>2021-06-19T10:14:55Z</time>
      </trkpt>
      <trkpt lat="42.441362" lon="1.131229">
        <ele>748.362</ele>
        <time>2021-06-19T10:14:58Z</time>
      </trkpt>
      <trkpt lat="42.441362" lon="1.131229">
        <ele>748.356</ele>
        <time>2021-06-19T10:14:59Z</time>
      </trkpt>
      <trkpt lat="42.441472" lon="1.131585">
        <ele>744.959</ele>
        <time>2021-06-19T10:15:00Z</time>
      </trkpt>
      <trkpt lat="42.441514" lon="1.131710">
        <ele>743.814</ele>
        <time>2021-06-19T10:15:03Z</time>
      </trkpt>
      <trkpt lat="42.441596" lon="1.131963">
        <ele>741.308</ele>
        <time>2021-06-19T10:15:04Z</time>
      </trkpt>
      <trkpt lat="42.441670" lon="1.132304">
        <ele>740.012</ele>
        <time>2021-06-19T10:15:07Z</time>
      </trkpt>
      <trkpt lat="42.441670" lon="1.132304">
        <ele>740.021</ele>
        <time>2021-06-19T10:15:08Z</time>
      </trkpt>
      <trkpt lat="42.441687" lon="1.132409">
        <ele>739.427</ele>
        <time>2021-06-19T10:15:09Z</time>
      </trkpt>
      <trkpt lat="42.441796" lon="1.132715">
        <ele>735.811</ele>
        <time>2021-06-19T10:15:11Z</time>
      </trkpt>
      <trkpt lat="42.441847" lon="1.132816">
        <ele>734.785</ele>
        <time>2021-06-19T10:15:13Z</time>
      </trkpt>
      <trkpt lat="42.441909" lon="1.132911">
        <ele>734.145</ele>
        <time>2021-06-19T10:15:14Z</time>
      </trkpt>
      <trkpt lat="42.441976" lon="1.133001">
        <ele>733.028</ele>
        <time>2021-06-19T10:15:15Z</time>
      </trkpt>
      <trkpt lat="42.442109" lon="1.133169">
        <ele>730.255</ele>
        <time>2021-06-19T10:15:17Z</time>
      </trkpt>
      <trkpt lat="42.442176" lon="1.133243">
        <ele>729.296</ele>
        <time>2021-06-19T10:15:18Z</time>
      </trkpt>
      <trkpt lat="42.442319" lon="1.133331">
        <ele>726.131</ele>
        <time>2021-06-19T10:15:19Z</time>
      </trkpt>
      <trkpt lat="42.442319" lon="1.133331">
        <ele>726.124</ele>
        <time>2021-06-19T10:15:20Z</time>
      </trkpt>
      <trkpt lat="42.442397" lon="1.133340">
        <ele>724.908</ele>
        <time>2021-06-19T10:15:21Z</time>
      </trkpt>
      <trkpt lat="42.442554" lon="1.133286">
        <ele>724.986</ele>
        <time>2021-06-19T10:15:23Z</time>
      </trkpt>
      <trkpt lat="42.442622" lon="1.133234">
        <ele>725.515</ele>
        <time>2021-06-19T10:15:24Z</time>
      </trkpt>
      <trkpt lat="42.442740" lon="1.133156">
        <ele>725.211</ele>
        <time>2021-06-19T10:15:26Z</time>
      </trkpt>
      <trkpt lat="42.442786" lon="1.133143">
        <ele>724.365</ele>
        <time>2021-06-19T10:15:27Z</time>
      </trkpt>
      <trkpt lat="42.442861" lon="1.133171">
        <ele>721.839</ele>
        <time>2021-06-19T10:15:29Z</time>
      </trkpt>
      <trkpt lat="42.442918" lon="1.133249">
        <ele>719.289</ele>
        <time>2021-06-19T10:15:30Z</time>
      </trkpt>
      <trkpt lat="42.442918" lon="1.133249">
        <ele>719.262</ele>
        <time>2021-06-19T10:15:31Z</time>
      </trkpt>
      <trkpt lat="42.442970" lon="1.133374">
        <ele>717.839</ele>
        <time>2021-06-19T10:15:34Z</time>
      </trkpt>
      <trkpt lat="42.442930" lon="1.133506">
        <ele>717.945</ele>
        <time>2021-06-19T10:15:37Z</time>
      </trkpt>
      <trkpt lat="42.442900" lon="1.133545">
        <ele>717.847</ele>
        <time>2021-06-19T10:15:38Z</time>
      </trkpt>
      <trkpt lat="42.442830" lon="1.133624">
        <ele>717.411</ele>
        <time>2021-06-19T10:15:40Z</time>
      </trkpt>
      <trkpt lat="42.442792" lon="1.133663">
        <ele>717.308</ele>
        <time>2021-06-19T10:15:41Z</time>
      </trkpt>
      <trkpt lat="42.442753" lon="1.133702">
        <ele>717.111</ele>
        <time>2021-06-19T10:15:42Z</time>
      </trkpt>
      <trkpt lat="42.442714" lon="1.133738">
        <ele>716.930</ele>
        <time>2021-06-19T10:15:43Z</time>
      </trkpt>
      <trkpt lat="42.442599" lon="1.133848">
        <ele>716.566</ele>
        <time>2021-06-19T10:15:46Z</time>
      </trkpt>
      <trkpt lat="42.442409" lon="1.134021">
        <ele>715.840</ele>
        <time>2021-06-19T10:15:50Z</time>
      </trkpt>
      <trkpt lat="42.442374" lon="1.134060">
        <ele>715.814</ele>
        <time>2021-06-19T10:15:52Z</time>
      </trkpt>
      <trkpt lat="42.442341" lon="1.134100">
        <ele>715.954</ele>
        <time>2021-06-19T10:15:53Z</time>
      </trkpt>
      <trkpt lat="42.442311" lon="1.134143">
        <ele>716.157</ele>
        <time>2021-06-19T10:15:54Z</time>
      </trkpt>
      <trkpt lat="42.442259" lon="1.134270">
        <ele>716.554</ele>
        <time>2021-06-19T10:15:56Z</time>
      </trkpt>
      <trkpt lat="42.442259" lon="1.134270">
        <ele>716.592</ele>
        <time>2021-06-19T10:15:57Z</time>
      </trkpt>
      <trkpt lat="42.442251" lon="1.134296">
        <ele>716.573</ele>
        <time>2021-06-19T10:15:58Z</time>
      </trkpt>
      <trkpt lat="42.442243" lon="1.134319">
        <ele>716.620</ele>
        <time>2021-06-19T10:15:59Z</time>
      </trkpt>
      <trkpt lat="42.442239" lon="1.134350">
        <ele>716.708</ele>
        <time>2021-06-19T10:16:00Z</time>
      </trkpt>
      <trkpt lat="42.442249" lon="1.134387">
        <ele>716.826</ele>
        <time>2021-06-19T10:16:01Z</time>
      </trkpt>
      <trkpt lat="42.442270" lon="1.134419">
        <ele>716.915</ele>
        <time>2021-06-19T10:16:02Z</time>
      </trkpt>
      <trkpt lat="42.442371" lon="1.134488">
        <ele>716.881</ele>
        <time>2021-06-19T10:16:04Z</time>
      </trkpt>
      <trkpt lat="42.442371" lon="1.134488">
        <ele>716.835</ele>
        <time>2021-06-19T10:16:05Z</time>
      </trkpt>
      <trkpt lat="42.442448" lon="1.134538">
        <ele>716.699</ele>
        <time>2021-06-19T10:16:07Z</time>
      </trkpt>
      <trkpt lat="42.442488" lon="1.134563">
        <ele>716.689</ele>
        <time>2021-06-19T10:16:08Z</time>
      </trkpt>
      <trkpt lat="42.442528" lon="1.134591">
        <ele>716.542</ele>
        <time>2021-06-19T10:16:09Z</time>
      </trkpt>
      <trkpt lat="42.442567" lon="1.134623">
        <ele>716.519</ele>
        <time>2021-06-19T10:16:10Z</time>
      </trkpt>
      <trkpt lat="42.442607" lon="1.134655">
        <ele>716.586</ele>
        <time>2021-06-19T10:16:11Z</time>
      </trkpt>
      <trkpt lat="42.442649" lon="1.134685">
        <ele>716.660</ele>
        <time>2021-06-19T10:16:12Z</time>
      </trkpt>
      <trkpt lat="42.442690" lon="1.134713">
        <ele>716.726</ele>
        <time>2021-06-19T10:16:13Z</time>
      </trkpt>
      <trkpt lat="42.442734" lon="1.134741">
        <ele>716.808</ele>
        <time>2021-06-19T10:16:14Z</time>
      </trkpt>
      <trkpt lat="42.442827" lon="1.134791">
        <ele>716.815</ele>
        <time>2021-06-19T10:16:15Z</time>
      </trkpt>
      <trkpt lat="42.442874" lon="1.134815">
        <ele>716.864</ele>
        <time>2021-06-19T10:16:17Z</time>
      </trkpt>
      <trkpt lat="42.443011" lon="1.134904">
        <ele>716.980</ele>
        <time>2021-06-19T10:16:19Z</time>
      </trkpt>
      <trkpt lat="42.443149" lon="1.134998">
        <ele>717.014</ele>
        <time>2021-06-19T10:16:23Z</time>
      </trkpt>
      <trkpt lat="42.443294" lon="1.135076">
        <ele>717.098</ele>
        <time>2021-06-19T10:16:25Z</time>
      </trkpt>
      <trkpt lat="42.443294" lon="1.135076">
        <ele>717.028</ele>
        <time>2021-06-19T10:16:26Z</time>
      </trkpt>
      <trkpt lat="42.443341" lon="1.135103">
        <ele>717.041</ele>
        <time>2021-06-19T10:16:27Z</time>
      </trkpt>
      <trkpt lat="42.443387" lon="1.135132">
        <ele>717.168</ele>
        <time>2021-06-19T10:16:28Z</time>
      </trkpt>
      <trkpt lat="42.443478" lon="1.135194">
        <ele>717.285</ele>
        <time>2021-06-19T10:16:29Z</time>
      </trkpt>
      <trkpt lat="42.443478" lon="1.135194">
        <ele>717.289</ele>
        <time>2021-06-19T10:16:30Z</time>
      </trkpt>
      <trkpt lat="42.443524" lon="1.135224">
        <ele>717.117</ele>
        <time>2021-06-19T10:16:31Z</time>
      </trkpt>
      <trkpt lat="42.443569" lon="1.135254">
        <ele>717.108</ele>
        <time>2021-06-19T10:16:32Z</time>
      </trkpt>
      <trkpt lat="42.443613" lon="1.135285">
        <ele>717.035</ele>
        <time>2021-06-19T10:16:33Z</time>
      </trkpt>
      <trkpt lat="42.443656" lon="1.135317">
        <ele>717.054</ele>
        <time>2021-06-19T10:16:34Z</time>
      </trkpt>
      <trkpt lat="42.443743" lon="1.135371">
        <ele>717.180</ele>
        <time>2021-06-19T10:16:35Z</time>
      </trkpt>
      <trkpt lat="42.443743" lon="1.135371">
        <ele>717.164</ele>
        <time>2021-06-19T10:16:36Z</time>
      </trkpt>
      <trkpt lat="42.443785" lon="1.135396">
        <ele>717.298</ele>
        <time>2021-06-19T10:16:37Z</time>
      </trkpt>
      <trkpt lat="42.443827" lon="1.135417">
        <ele>717.328</ele>
        <time>2021-06-19T10:16:38Z</time>
      </trkpt>
      <trkpt lat="42.443917" lon="1.135440">
        <ele>717.481</ele>
        <time>2021-06-19T10:16:39Z</time>
      </trkpt>
      <trkpt lat="42.443964" lon="1.135448">
        <ele>717.448</ele>
        <time>2021-06-19T10:16:41Z</time>
      </trkpt>
      <trkpt lat="42.444059" lon="1.135456">
        <ele>717.441</ele>
        <time>2021-06-19T10:16:42Z</time>
      </trkpt>
      <trkpt lat="42.444059" lon="1.135456">
        <ele>717.481</ele>
        <time>2021-06-19T10:16:43Z</time>
      </trkpt>
      <trkpt lat="42.444109" lon="1.135455">
        <ele>717.409</ele>
        <time>2021-06-19T10:16:44Z</time>
      </trkpt>
      <trkpt lat="42.444157" lon="1.135453">
        <ele>717.408</ele>
        <time>2021-06-19T10:16:45Z</time>
      </trkpt>
      <trkpt lat="42.444253" lon="1.135450">
        <ele>717.631</ele>
        <time>2021-06-19T10:16:46Z</time>
      </trkpt>
      <trkpt lat="42.444253" lon="1.135450">
        <ele>717.690</ele>
        <time>2021-06-19T10:16:47Z</time>
      </trkpt>
      <trkpt lat="42.444295" lon="1.135453">
        <ele>717.726</ele>
        <time>2021-06-19T10:16:48Z</time>
      </trkpt>
      <trkpt lat="42.444324" lon="1.135464">
        <ele>717.710</ele>
        <time>2021-06-19T10:16:49Z</time>
      </trkpt>
      <trkpt lat="42.444343" lon="1.135474">
        <ele>717.734</ele>
        <time>2021-06-19T10:16:50Z</time>
      </trkpt>
      <trkpt lat="42.444353" lon="1.135480">
        <ele>717.694</ele>
        <time>2021-06-19T10:16:51Z</time>
      </trkpt>
      <trkpt lat="42.444356" lon="1.135481">
        <ele>717.687</ele>
        <time>2021-06-19T10:16:52Z</time>
      </trkpt>
      <trkpt lat="42.444356" lon="1.135481">
        <ele>717.614</ele>
        <time>2021-06-19T10:16:53Z</time>
      </trkpt>
      <trkpt lat="42.444272" lon="1.135612">
        <ele>716.938</ele>
        <time>2021-06-19T10:17:10Z</time>
      </trkpt>
      <trkpt lat="42.444266" lon="1.135596">
        <ele>716.970</ele>
        <time>2021-06-19T10:17:11Z</time>
      </trkpt>
      <trkpt lat="42.444284" lon="1.135562">
        <ele>717.017</ele>
        <time>2021-06-19T10:17:12Z</time>
      </trkpt>
      <trkpt lat="42.444284" lon="1.135562">
        <ele>717.008</ele>
        <time>2021-06-19T10:17:13Z</time>
      </trkpt>
      <trkpt lat="42.444299" lon="1.135547">
        <ele>717.110</ele>
        <time>2021-06-19T10:17:14Z</time>
      </trkpt>
      <trkpt lat="42.444320" lon="1.135519">
        <ele>717.389</ele>
        <time>2021-06-19T10:17:15Z</time>
      </trkpt>
      <trkpt lat="42.444320" lon="1.135519">
        <ele>717.355</ele>
        <time>2021-06-19T10:17:16Z</time>
      </trkpt>
      <trkpt lat="42.444334" lon="1.135506">
        <ele>717.499</ele>
        <time>2021-06-19T10:17:17Z</time>
      </trkpt>
      <trkpt lat="42.444345" lon="1.135492">
        <ele>717.553</ele>
        <time>2021-06-19T10:17:18Z</time>
      </trkpt>
      <trkpt lat="42.444354" lon="1.135478">
        <ele>717.793</ele>
        <time>2021-06-19T10:17:19Z</time>
      </trkpt>
      <trkpt lat="42.444367" lon="1.135470">
        <ele>717.826</ele>
        <time>2021-06-19T10:17:20Z</time>
      </trkpt>
      <trkpt lat="42.444386" lon="1.135469">
        <ele>717.833</ele>
        <time>2021-06-19T10:17:21Z</time>
      </trkpt>
      <trkpt lat="42.444426" lon="1.135487">
        <ele>717.757</ele>
        <time>2021-06-19T10:17:23Z</time>
      </trkpt>
      <trkpt lat="42.444447" lon="1.135502">
        <ele>717.600</ele>
        <time>2021-06-19T10:17:24Z</time>
      </trkpt>
      <trkpt lat="42.444486" lon="1.135535">
        <ele>717.220</ele>
        <time>2021-06-19T10:17:26Z</time>
      </trkpt>
      <trkpt lat="42.444545" lon="1.135586">
        <ele>716.908</ele>
        <time>2021-06-19T10:17:30Z</time>
      </trkpt>
      <trkpt lat="42.444560" lon="1.135595">
        <ele>716.962</ele>
        <time>2021-06-19T10:17:31Z</time>
      </trkpt>
      <trkpt lat="42.444596" lon="1.135611">
        <ele>716.861</ele>
        <time>2021-06-19T10:17:35Z</time>
      </trkpt>
      <trkpt lat="42.444549" lon="1.135581">
        <ele>716.997</ele>
        <time>2021-06-19T10:17:38Z</time>
      </trkpt>
      <trkpt lat="42.444527" lon="1.135571">
        <ele>716.951</ele>
        <time>2021-06-19T10:17:39Z</time>
      </trkpt>
      <trkpt lat="42.444427" lon="1.135511">
        <ele>717.535</ele>
        <time>2021-06-19T10:17:44Z</time>
      </trkpt>
      <trkpt lat="42.444371" lon="1.135485">
        <ele>717.635</ele>
        <time>2021-06-19T10:17:48Z</time>
      </trkpt>
      <trkpt lat="42.444363" lon="1.135500">
        <ele>717.578</ele>
        <time>2021-06-19T10:17:49Z</time>
      </trkpt>
      <trkpt lat="42.444339" lon="1.135540">
        <ele>717.115</ele>
        <time>2021-06-19T10:17:51Z</time>
      </trkpt>
      <trkpt lat="42.444327" lon="1.135599">
        <ele>716.958</ele>
        <time>2021-06-19T10:17:53Z</time>
      </trkpt>
      <trkpt lat="42.444318" lon="1.135629">
        <ele>716.952</ele>
        <time>2021-06-19T10:17:54Z</time>
      </trkpt>
      <trkpt lat="42.444288" lon="1.135762">
        <ele>716.717</ele>
        <time>2021-06-19T10:17:58Z</time>
      </trkpt>
      <trkpt lat="42.444251" lon="1.135913">
        <ele>716.108</ele>
        <time>2021-06-19T10:18:02Z</time>
      </trkpt>
      <trkpt lat="42.444147" lon="1.136140">
        <ele>715.012</ele>
        <time>2021-06-19T10:18:07Z</time>
      </trkpt>
      <trkpt lat="42.444107" lon="1.136229">
        <ele>714.881</ele>
        <time>2021-06-19T10:18:09Z</time>
      </trkpt>
      <trkpt lat="42.444070" lon="1.136316">
        <ele>714.617</ele>
        <time>2021-06-19T10:18:12Z</time>
      </trkpt>
      <trkpt lat="42.444058" lon="1.136339">
        <ele>714.681</ele>
        <time>2021-06-19T10:18:13Z</time>
      </trkpt>
      <trkpt lat="42.444020" lon="1.136458">
        <ele>714.135</ele>
        <time>2021-06-19T10:18:17Z</time>
      </trkpt>
      <trkpt lat="42.444005" lon="1.136523">
        <ele>713.895</ele>
        <time>2021-06-19T10:18:19Z</time>
      </trkpt>
      <trkpt lat="42.443978" lon="1.136615">
        <ele>713.348</ele>
        <time>2021-06-19T10:18:22Z</time>
      </trkpt>
      <trkpt lat="42.443952" lon="1.136712">
        <ele>712.775</ele>
        <time>2021-06-19T10:18:25Z</time>
      </trkpt>
      <trkpt lat="42.443944" lon="1.136766">
        <ele>712.451</ele>
        <time>2021-06-19T10:18:28Z</time>
      </trkpt>
      <trkpt lat="42.443949" lon="1.136784">
        <ele>712.201</ele>
        <time>2021-06-19T10:18:30Z</time>
      </trkpt>
      <trkpt lat="42.443968" lon="1.136786">
        <ele>712.311</ele>
        <time>2021-06-19T10:18:32Z</time>
      </trkpt>
      <trkpt lat="42.443991" lon="1.136798">
        <ele>712.208</ele>
        <time>2021-06-19T10:18:34Z</time>
      </trkpt>
      <trkpt lat="42.444022" lon="1.136807">
        <ele>712.242</ele>
        <time>2021-06-19T10:18:36Z</time>
      </trkpt>
      <trkpt lat="42.444066" lon="1.136834">
        <ele>712.291</ele>
        <time>2021-06-19T10:18:39Z</time>
      </trkpt>
      <trkpt lat="42.444117" lon="1.136865">
        <ele>712.237</ele>
        <time>2021-06-19T10:18:42Z</time>
      </trkpt>
      <trkpt lat="42.444178" lon="1.136900">
        <ele>712.221</ele>
        <time>2021-06-19T10:18:46Z</time>
      </trkpt>
      <trkpt lat="42.444207" lon="1.136909">
        <ele>712.375</ele>
        <time>2021-06-19T10:18:48Z</time>
      </trkpt>
      <trkpt lat="42.444283" lon="1.136936">
        <ele>712.475</ele>
        <time>2021-06-19T10:18:52Z</time>
      </trkpt>
      <trkpt lat="42.444334" lon="1.136961">
        <ele>712.528</ele>
        <time>2021-06-19T10:18:54Z</time>
      </trkpt>
      <trkpt lat="42.444463" lon="1.137028">
        <ele>712.485</ele>
        <time>2021-06-19T10:18:59Z</time>
      </trkpt>
      <trkpt lat="42.444486" lon="1.137034">
        <ele>712.418</ele>
        <time>2021-06-19T10:19:00Z</time>
      </trkpt>
      <trkpt lat="42.444644" lon="1.137119">
        <ele>712.298</ele>
        <time>2021-06-19T10:19:07Z</time>
      </trkpt>
      <trkpt lat="42.444666" lon="1.137124">
        <ele>712.217</ele>
        <time>2021-06-19T10:19:08Z</time>
      </trkpt>
      <trkpt lat="42.444722" lon="1.137136">
        <ele>712.308</ele>
        <time>2021-06-19T10:19:11Z</time>
      </trkpt>
      <trkpt lat="42.444753" lon="1.137159">
        <ele>712.388</ele>
        <time>2021-06-19T10:19:13Z</time>
      </trkpt>
      <trkpt lat="42.444791" lon="1.137177">
        <ele>712.427</ele>
        <time>2021-06-19T10:19:15Z</time>
      </trkpt>
      <trkpt lat="42.444863" lon="1.137217">
        <ele>712.563</ele>
        <time>2021-06-19T10:19:19Z</time>
      </trkpt>
      <trkpt lat="42.444901" lon="1.137238">
        <ele>712.517</ele>
        <time>2021-06-19T10:19:21Z</time>
      </trkpt>
      <trkpt lat="42.444972" lon="1.137266">
        <ele>712.611</ele>
        <time>2021-06-19T10:19:26Z</time>
      </trkpt>
      <trkpt lat="42.445021" lon="1.137280">
        <ele>712.721</ele>
        <time>2021-06-19T10:19:29Z</time>
      </trkpt>
      <trkpt lat="42.445061" lon="1.137294">
        <ele>712.764</ele>
        <time>2021-06-19T10:19:31Z</time>
      </trkpt>
      <trkpt lat="42.445133" lon="1.137323">
        <ele>712.811</ele>
        <time>2021-06-19T10:19:35Z</time>
      </trkpt>
      <trkpt lat="42.445203" lon="1.137336">
        <ele>712.994</ele>
        <time>2021-06-19T10:19:39Z</time>
      </trkpt>
      <trkpt lat="42.445268" lon="1.137352">
        <ele>713.057</ele>
        <time>2021-06-19T10:19:44Z</time>
      </trkpt>
      <trkpt lat="42.445276" lon="1.137352">
        <ele>713.122</ele>
        <time>2021-06-19T10:19:45Z</time>
      </trkpt>
      <trkpt lat="42.445350" lon="1.137381">
        <ele>713.108</ele>
        <time>2021-06-19T10:19:51Z</time>
      </trkpt>
      <trkpt lat="42.445376" lon="1.137393">
        <ele>713.146</ele>
        <time>2021-06-19T10:19:53Z</time>
      </trkpt>
      <trkpt lat="42.445378" lon="1.137356">
        <ele>713.435</ele>
        <time>2021-06-19T10:19:58Z</time>
      </trkpt>
      <trkpt lat="42.445360" lon="1.137349">
        <ele>713.441</ele>
        <time>2021-06-19T10:20:00Z</time>
      </trkpt>
      <trkpt lat="42.445340" lon="1.137328">
        <ele>713.535</ele>
        <time>2021-06-19T10:20:03Z</time>
      </trkpt>
      <trkpt lat="42.445333" lon="1.137307">
        <ele>713.629</ele>
        <time>2021-06-19T10:20:06Z</time>
      </trkpt>
      <trkpt lat="42.445333" lon="1.137303">
        <ele>713.699</ele>
        <time>2021-06-19T10:20:07Z</time>
      </trkpt>
      <trkpt lat="42.445339" lon="1.137286">
        <ele>713.862</ele>
        <time>2021-06-19T10:20:09Z</time>
      </trkpt>
      <trkpt lat="42.445353" lon="1.137264">
        <ele>714.099</ele>
        <time>2021-06-19T10:20:11Z</time>
      </trkpt>
      <trkpt lat="42.445358" lon="1.137228">
        <ele>714.253</ele>
        <time>2021-06-19T10:20:15Z</time>
      </trkpt>
      <trkpt lat="42.446056" lon="1.138824">
        <ele>720.204</ele>
        <time>2021-06-19T10:31:49Z</time>
      </trkpt>
      <trkpt lat="42.446094" lon="1.138835">
        <ele>719.514</ele>
        <time>2021-06-19T10:31:52Z</time>
      </trkpt>
      <trkpt lat="42.446144" lon="1.138917">
        <ele>720.108</ele>
        <time>2021-06-19T10:31:56Z</time>
      </trkpt>
      <trkpt lat="42.446144" lon="1.138917">
        <ele>720.182</ele>
        <time>2021-06-19T10:31:57Z</time>
      </trkpt>
      <trkpt lat="42.446232" lon="1.139044">
        <ele>720.581</ele>
        <time>2021-06-19T10:32:04Z</time>
      </trkpt>
      <trkpt lat="42.446255" lon="1.139060">
        <ele>720.187</ele>
        <time>2021-06-19T10:32:05Z</time>
      </trkpt>
      <trkpt lat="42.446322" lon="1.139112">
        <ele>718.851</ele>
        <time>2021-06-19T10:32:09Z</time>
      </trkpt>
      <trkpt lat="42.446395" lon="1.139206">
        <ele>719.295</ele>
        <time>2021-06-19T10:32:15Z</time>
      </trkpt>
      <trkpt lat="42.446417" lon="1.139235">
        <ele>720.625</ele>
        <time>2021-06-19T10:32:17Z</time>
      </trkpt>
      <trkpt lat="42.446464" lon="1.139292">
        <ele>722.688</ele>
        <time>2021-06-19T10:32:22Z</time>
      </trkpt>
      <trkpt lat="42.446473" lon="1.139300">
        <ele>722.845</ele>
        <time>2021-06-19T10:32:23Z</time>
      </trkpt>
      <trkpt lat="42.446525" lon="1.139364">
        <ele>724.066</ele>
        <time>2021-06-19T10:32:28Z</time>
      </trkpt>
      <trkpt lat="42.446538" lon="1.139374">
        <ele>724.029</ele>
        <time>2021-06-19T10:32:29Z</time>
      </trkpt>
      <trkpt lat="42.446578" lon="1.139398">
        <ele>723.421</ele>
        <time>2021-06-19T10:32:32Z</time>
      </trkpt>
      <trkpt lat="42.446613" lon="1.139419">
        <ele>722.708</ele>
        <time>2021-06-19T10:32:34Z</time>
      </trkpt>
      <trkpt lat="42.446710" lon="1.139466">
        <ele>721.273</ele>
        <time>2021-06-19T10:32:40Z</time>
      </trkpt>
      <trkpt lat="42.446795" lon="1.139495">
        <ele>720.832</ele>
        <time>2021-06-19T10:32:46Z</time>
      </trkpt>
      <trkpt lat="42.446897" lon="1.139567">
        <ele>720.858</ele>
        <time>2021-06-19T10:32:52Z</time>
      </trkpt>
      <trkpt lat="42.446977" lon="1.139642">
        <ele>720.632</ele>
        <time>2021-06-19T10:32:55Z</time>
      </trkpt>
      <trkpt lat="42.447053" lon="1.139722">
        <ele>720.386</ele>
        <time>2021-06-19T10:32:58Z</time>
      </trkpt>
      <trkpt lat="42.447068" lon="1.139760">
        <ele>720.556</ele>
        <time>2021-06-19T10:32:59Z</time>
      </trkpt>
      <trkpt lat="42.447066" lon="1.139845">
        <ele>721.989</ele>
        <time>2021-06-19T10:33:01Z</time>
      </trkpt>
      <trkpt lat="42.447073" lon="1.139947">
        <ele>723.246</ele>
        <time>2021-06-19T10:33:03Z</time>
      </trkpt>
      <trkpt lat="42.447090" lon="1.140051">
        <ele>722.959</ele>
        <time>2021-06-19T10:33:05Z</time>
      </trkpt>
      <trkpt lat="42.447076" lon="1.140178">
        <ele>722.903</ele>
        <time>2021-06-19T10:33:09Z</time>
      </trkpt>
      <trkpt lat="42.447078" lon="1.140195">
        <ele>722.723</ele>
        <time>2021-06-19T10:33:12Z</time>
      </trkpt>
      <trkpt lat="42.447053" lon="1.140371">
        <ele>722.808</ele>
        <time>2021-06-19T10:33:27Z</time>
      </trkpt>
      <trkpt lat="42.447032" lon="1.140506">
        <ele>722.882</ele>
        <time>2021-06-19T10:33:32Z</time>
      </trkpt>
      <trkpt lat="42.447032" lon="1.140524">
        <ele>722.741</ele>
        <time>2021-06-19T10:33:34Z</time>
      </trkpt>
      <trkpt lat="42.446915" lon="1.141125">
        <ele>721.437</ele>
        <time>2021-06-19T10:35:04Z</time>
      </trkpt>
      <trkpt lat="42.446895" lon="1.141186">
        <ele>722.441</ele>
        <time>2021-06-19T10:35:05Z</time>
      </trkpt>
      <trkpt lat="42.446866" lon="1.141307">
        <ele>723.285</ele>
        <time>2021-06-19T10:35:13Z</time>
      </trkpt>
      <trkpt lat="42.446847" lon="1.141435">
        <ele>723.155</ele>
        <time>2021-06-19T10:35:19Z</time>
      </trkpt>
      <trkpt lat="42.446849" lon="1.141456">
        <ele>722.948</ele>
        <time>2021-06-19T10:35:20Z</time>
      </trkpt>
      <trkpt lat="42.446846" lon="1.141489">
        <ele>723.025</ele>
        <time>2021-06-19T10:35:22Z</time>
      </trkpt>
      <trkpt lat="42.446836" lon="1.141524">
        <ele>723.566</ele>
        <time>2021-06-19T10:35:24Z</time>
      </trkpt>
      <trkpt lat="42.446822" lon="1.141622">
        <ele>724.129</ele>
        <time>2021-06-19T10:35:30Z</time>
      </trkpt>
      <trkpt lat="42.446817" lon="1.141628">
        <ele>724.421</ele>
        <time>2021-06-19T10:35:31Z</time>
      </trkpt>
      <trkpt lat="42.446818" lon="1.143183">
        <ele>723.908</ele>
        <time>2021-06-19T10:41:46Z</time>
      </trkpt>
      <trkpt lat="42.446840" lon="1.143214">
        <ele>722.973</ele>
        <time>2021-06-19T10:41:48Z</time>
      </trkpt>
      <trkpt lat="42.446854" lon="1.143260">
        <ele>722.582</ele>
        <time>2021-06-19T10:41:51Z</time>
      </trkpt>
      <trkpt lat="42.446877" lon="1.143292">
        <ele>721.398</ele>
        <time>2021-06-19T10:41:52Z</time>
      </trkpt>
      <trkpt lat="42.446880" lon="1.143311">
        <ele>721.282</ele>
        <time>2021-06-19T10:41:54Z</time>
      </trkpt>
      <trkpt lat="42.446893" lon="1.143393">
        <ele>721.826</ele>
        <time>2021-06-19T10:41:57Z</time>
      </trkpt>
      <trkpt lat="42.446898" lon="1.143409">
        <ele>721.956</ele>
        <time>2021-06-19T10:41:58Z</time>
      </trkpt>
      <trkpt lat="42.446907" lon="1.143425">
        <ele>721.639</ele>
        <time>2021-06-19T10:41:59Z</time>
      </trkpt>
      <trkpt lat="42.446933" lon="1.143460">
        <ele>720.516</ele>
        <time>2021-06-19T10:42:01Z</time>
      </trkpt>
      <trkpt lat="42.446998" lon="1.143596">
        <ele>721.671</ele>
        <time>2021-06-19T10:42:06Z</time>
      </trkpt>
      <trkpt lat="42.447012" lon="1.143619">
        <ele>721.741</ele>
        <time>2021-06-19T10:42:11Z</time>
      </trkpt>
      <trkpt lat="42.447282" lon="1.144168">
        <ele>720.415</ele>
        <time>2021-06-19T10:44:11Z</time>
      </trkpt>
      <trkpt lat="42.447289" lon="1.144183">
        <ele>720.808</ele>
        <time>2021-06-19T10:44:12Z</time>
      </trkpt>
      <trkpt lat="42.447313" lon="1.144233">
        <ele>721.924</ele>
        <time>2021-06-19T10:44:17Z</time>
      </trkpt>
      <trkpt lat="42.447322" lon="1.144243">
        <ele>722.023</ele>
        <time>2021-06-19T10:44:20Z</time>
      </trkpt>
      <trkpt lat="42.447343" lon="1.144284">
        <ele>722.549</ele>
        <time>2021-06-19T10:44:29Z</time>
      </trkpt>
      <trkpt lat="42.447354" lon="1.144299">
        <ele>722.643</ele>
        <time>2021-06-19T10:44:30Z</time>
      </trkpt>
      <trkpt lat="42.447362" lon="1.144312">
        <ele>722.637</ele>
        <time>2021-06-19T10:44:31Z</time>
      </trkpt>
      <trkpt lat="42.447430" lon="1.144402">
        <ele>721.757</ele>
        <time>2021-06-19T10:44:37Z</time>
      </trkpt>
      <trkpt lat="42.447490" lon="1.144487">
        <ele>720.630</ele>
        <time>2021-06-19T10:44:41Z</time>
      </trkpt>
      <trkpt lat="42.447490" lon="1.144487">
        <ele>720.627</ele>
        <time>2021-06-19T10:44:42Z</time>
      </trkpt>
      <trkpt lat="42.447527" lon="1.144568">
        <ele>721.872</ele>
        <time>2021-06-19T10:44:48Z</time>
      </trkpt>
      <trkpt lat="42.447528" lon="1.144571">
        <ele>721.913</ele>
        <time>2021-06-19T10:44:49Z</time>
      </trkpt>
      <trkpt lat="42.447622" lon="1.144695">
        <ele>722.914</ele>
        <time>2021-06-19T10:45:07Z</time>
      </trkpt>
      <trkpt lat="42.447627" lon="1.144711">
        <ele>723.108</ele>
        <time>2021-06-19T10:45:08Z</time>
      </trkpt>
      <trkpt lat="42.447641" lon="1.144744">
        <ele>723.484</ele>
        <time>2021-06-19T10:45:10Z</time>
      </trkpt>
      <trkpt lat="42.447664" lon="1.144823">
        <ele>724.343</ele>
        <time>2021-06-19T10:45:16Z</time>
      </trkpt>
      <trkpt lat="42.447664" lon="1.144835">
        <ele>724.549</ele>
        <time>2021-06-19T10:45:18Z</time>
      </trkpt>
      <trkpt lat="42.447763" lon="1.145053">
        <ele>724.423</ele>
        <time>2021-06-19T10:46:02Z</time>
      </trkpt>
      <trkpt lat="42.447778" lon="1.145064">
        <ele>723.947</ele>
        <time>2021-06-19T10:46:03Z</time>
      </trkpt>
      <trkpt lat="42.447792" lon="1.145075">
        <ele>724.047</ele>
        <time>2021-06-19T10:46:04Z</time>
      </trkpt>
      <trkpt lat="42.447805" lon="1.145090">
        <ele>724.290</ele>
        <time>2021-06-19T10:46:05Z</time>
      </trkpt>
      <trkpt lat="42.447816" lon="1.145100">
        <ele>724.317</ele>
        <time>2021-06-19T10:46:06Z</time>
      </trkpt>
      <trkpt lat="42.447852" lon="1.145114">
        <ele>724.375</ele>
        <time>2021-06-19T10:46:09Z</time>
      </trkpt>
      <trkpt lat="42.447900" lon="1.145140">
        <ele>724.428</ele>
        <time>2021-06-19T10:46:15Z</time>
      </trkpt>
      <trkpt lat="42.447900" lon="1.145155">
        <ele>724.520</ele>
        <time>2021-06-19T10:46:16Z</time>
      </trkpt>
      <trkpt lat="42.447871" lon="1.145172">
        <ele>724.908</ele>
        <time>2021-06-19T10:46:19Z</time>
      </trkpt>
      <trkpt lat="42.447750" lon="1.145072">
        <ele>725.234</ele>
        <time>2021-06-19T10:46:28Z</time>
      </trkpt>
      <trkpt lat="42.447708" lon="1.145019">
        <ele>726.123</ele>
        <time>2021-06-19T10:46:34Z</time>
      </trkpt>
      <trkpt lat="42.447878" lon="1.145123">
        <ele>724.379</ele>
        <time>2021-06-19T10:48:07Z</time>
      </trkpt>
      <trkpt lat="42.447964" lon="1.145174">
        <ele>724.453</ele>
        <time>2021-06-19T10:48:14Z</time>
      </trkpt>
      <trkpt lat="42.448114" lon="1.145241">
        <ele>724.487</ele>
        <time>2021-06-19T10:48:21Z</time>
      </trkpt>
      <trkpt lat="42.448208" lon="1.145262">
        <ele>724.377</ele>
        <time>2021-06-19T10:48:25Z</time>
      </trkpt>
      <trkpt lat="42.448279" lon="1.145267">
        <ele>724.190</ele>
        <time>2021-06-19T10:48:28Z</time>
      </trkpt>
      <trkpt lat="42.448439" lon="1.145285">
        <ele>724.167</ele>
        <time>2021-06-19T10:48:35Z</time>
      </trkpt>
      <trkpt lat="42.448485" lon="1.145292">
        <ele>724.283</ele>
        <time>2021-06-19T10:48:37Z</time>
      </trkpt>
      <trkpt lat="42.448695" lon="1.145311">
        <ele>724.025</ele>
        <time>2021-06-19T10:48:46Z</time>
      </trkpt>
      <trkpt lat="42.448836" lon="1.145364">
        <ele>723.717</ele>
        <time>2021-06-19T10:48:51Z</time>
      </trkpt>
      <trkpt lat="42.448924" lon="1.145519">
        <ele>724.708</ele>
        <time>2021-06-19T10:48:57Z</time>
      </trkpt>
      <trkpt lat="42.448967" lon="1.145668">
        <ele>725.015</ele>
        <time>2021-06-19T10:49:02Z</time>
      </trkpt>
      <trkpt lat="42.449031" lon="1.145905">
        <ele>724.994</ele>
        <time>2021-06-19T10:49:07Z</time>
      </trkpt>
      <trkpt lat="42.449073" lon="1.146138">
        <ele>725.150</ele>
        <time>2021-06-19T10:49:12Z</time>
      </trkpt>
      <trkpt lat="42.449116" lon="1.146502">
        <ele>724.594</ele>
        <time>2021-06-19T10:49:18Z</time>
      </trkpt>
      <trkpt lat="42.449116" lon="1.146569">
        <ele>724.858</ele>
        <time>2021-06-19T10:49:19Z</time>
      </trkpt>
      <trkpt lat="42.449115" lon="1.146768">
        <ele>725.228</ele>
        <time>2021-06-19T10:49:22Z</time>
      </trkpt>
      <trkpt lat="42.449118" lon="1.146888">
        <ele>725.131</ele>
        <time>2021-06-19T10:49:24Z</time>
      </trkpt>
      <trkpt lat="42.449092" lon="1.147033">
        <ele>726.728</ele>
        <time>2021-06-19T10:49:27Z</time>
      </trkpt>
      <trkpt lat="42.449070" lon="1.147191">
        <ele>728.336</ele>
        <time>2021-06-19T10:49:33Z</time>
      </trkpt>
      <trkpt lat="42.449050" lon="1.147369">
        <ele>729.517</ele>
        <time>2021-06-19T10:49:41Z</time>
      </trkpt>
      <trkpt lat="42.448996" lon="1.147541">
        <ele>730.418</ele>
        <time>2021-06-19T10:49:49Z</time>
      </trkpt>
      <trkpt lat="42.448922" lon="1.147704">
        <ele>730.908</ele>
        <time>2021-06-19T10:49:57Z</time>
      </trkpt>
      <trkpt lat="42.448876" lon="1.147780">
        <ele>731.120</ele>
        <time>2021-06-19T10:50:01Z</time>
      </trkpt>
      <trkpt lat="42.448862" lon="1.147845">
        <ele>731.759</ele>
        <time>2021-06-19T10:50:04Z</time>
      </trkpt>
      <trkpt lat="42.448863" lon="1.148028">
        <ele>732.775</ele>
        <time>2021-06-19T10:50:12Z</time>
      </trkpt>
      <trkpt lat="42.448863" lon="1.148049">
        <ele>732.849</ele>
        <time>2021-06-19T10:50:13Z</time>
      </trkpt>
      <trkpt lat="42.448851" lon="1.148227">
        <ele>732.913</ele>
        <time>2021-06-19T10:50:20Z</time>
      </trkpt>
      <trkpt lat="42.448836" lon="1.148341">
        <ele>733.493</ele>
        <time>2021-06-19T10:50:24Z</time>
      </trkpt>
      <trkpt lat="42.448837" lon="1.148365">
        <ele>733.296</ele>
        <time>2021-06-19T10:50:25Z</time>
      </trkpt>
      <trkpt lat="42.448824" lon="1.148459">
        <ele>733.163</ele>
        <time>2021-06-19T10:50:30Z</time>
      </trkpt>
      <trkpt lat="42.448811" lon="1.148580">
        <ele>732.923</ele>
        <time>2021-06-19T10:50:35Z</time>
      </trkpt>
      <trkpt lat="42.448791" lon="1.148693">
        <ele>732.983</ele>
        <time>2021-06-19T10:50:40Z</time>
      </trkpt>
      <trkpt lat="42.448784" lon="1.148718">
        <ele>733.011</ele>
        <time>2021-06-19T10:50:41Z</time>
      </trkpt>
      <trkpt lat="42.448769" lon="1.148819">
        <ele>732.808</ele>
        <time>2021-06-19T10:50:45Z</time>
      </trkpt>
      <trkpt lat="42.448733" lon="1.149039">
        <ele>733.229</ele>
        <time>2021-06-19T10:50:53Z</time>
      </trkpt>
      <trkpt lat="42.448719" lon="1.149254">
        <ele>733.778</ele>
        <time>2021-06-19T10:51:00Z</time>
      </trkpt>
      <trkpt lat="42.448726" lon="1.149528">
        <ele>735.014</ele>
        <time>2021-06-19T10:51:09Z</time>
      </trkpt>
      <trkpt lat="42.448720" lon="1.149729">
        <ele>737.728</ele>
        <time>2021-06-19T10:51:16Z</time>
      </trkpt>
      <trkpt lat="42.448720" lon="1.149738">
        <ele>737.962</ele>
        <time>2021-06-19T10:51:17Z</time>
      </trkpt>
      <trkpt lat="42.448755" lon="1.149914">
        <ele>740.252</ele>
        <time>2021-06-19T10:52:23Z</time>
      </trkpt>
      <trkpt lat="42.448778" lon="1.149962">
        <ele>739.975</ele>
        <time>2021-06-19T10:52:25Z</time>
      </trkpt>
      <trkpt lat="42.448854" lon="1.150057">
        <ele>736.792</ele>
        <time>2021-06-19T10:52:31Z</time>
      </trkpt>
      <trkpt lat="42.448898" lon="1.150191">
        <ele>735.024</ele>
        <time>2021-06-19T10:52:35Z</time>
      </trkpt>
      <trkpt lat="42.448869" lon="1.150377">
        <ele>736.904</ele>
        <time>2021-06-19T10:52:39Z</time>
      </trkpt>
      <trkpt lat="42.448874" lon="1.150475">
        <ele>735.814</ele>
        <time>2021-06-19T10:52:41Z</time>
      </trkpt>
      <trkpt lat="42.448892" lon="1.150575">
        <ele>734.208</ele>
        <time>2021-06-19T10:52:43Z</time>
      </trkpt>
      <trkpt lat="42.448898" lon="1.150632">
        <ele>734.739</ele>
        <time>2021-06-19T10:52:44Z</time>
      </trkpt>
      <trkpt lat="42.448928" lon="1.150745">
        <ele>734.938</ele>
        <time>2021-06-19T10:52:46Z</time>
      </trkpt>
      <trkpt lat="42.448984" lon="1.150903">
        <ele>735.664</ele>
        <time>2021-06-19T10:52:49Z</time>
      </trkpt>
      <trkpt lat="42.449074" lon="1.151036">
        <ele>736.568</ele>
        <time>2021-06-19T10:52:53Z</time>
      </trkpt>
      <trkpt lat="42.449120" lon="1.151060">
        <ele>735.642</ele>
        <time>2021-06-19T10:52:55Z</time>
      </trkpt>
      <trkpt lat="42.449177" lon="1.151090">
        <ele>734.892</ele>
        <time>2021-06-19T10:52:57Z</time>
      </trkpt>
      <trkpt lat="42.449348" lon="1.151147">
        <ele>733.875</ele>
        <time>2021-06-19T10:53:02Z</time>
      </trkpt>
      <trkpt lat="42.449536" lon="1.151290">
        <ele>737.252</ele>
        <time>2021-06-19T10:53:08Z</time>
      </trkpt>
      <trkpt lat="42.449582" lon="1.151324">
        <ele>737.382</ele>
        <time>2021-06-19T10:53:11Z</time>
      </trkpt>
      <trkpt lat="42.449586" lon="1.151327">
        <ele>737.343</ele>
        <time>2021-06-19T10:53:12Z</time>
      </trkpt>
      <trkpt lat="42.449629" lon="1.151350">
        <ele>736.617</ele>
        <time>2021-06-19T10:53:19Z</time>
      </trkpt>
      <trkpt lat="42.449663" lon="1.151375">
        <ele>736.208</ele>
        <time>2021-06-19T10:53:21Z</time>
      </trkpt>
      <trkpt lat="42.449777" lon="1.151433">
        <ele>735.725</ele>
        <time>2021-06-19T10:53:26Z</time>
      </trkpt>
      <trkpt lat="42.449958" lon="1.151525">
        <ele>737.674</ele>
        <time>2021-06-19T10:53:33Z</time>
      </trkpt>
      <trkpt lat="42.450146" lon="1.151578">
        <ele>737.790</ele>
        <time>2021-06-19T10:53:40Z</time>
      </trkpt>
      <trkpt lat="42.450306" lon="1.151629">
        <ele>737.794</ele>
        <time>2021-06-19T10:53:47Z</time>
      </trkpt>
      <trkpt lat="42.450430" lon="1.151662">
        <ele>737.828</ele>
        <time>2021-06-19T10:53:53Z</time>
      </trkpt>
      <trkpt lat="42.450459" lon="1.151666">
        <ele>737.718</ele>
        <time>2021-06-19T10:53:57Z</time>
      </trkpt>
      <trkpt lat="42.450498" lon="1.151724">
        <ele>738.211</ele>
        <time>2021-06-19T10:54:20Z</time>
      </trkpt>
      <trkpt lat="42.450516" lon="1.151797">
        <ele>738.828</ele>
        <time>2021-06-19T10:54:23Z</time>
      </trkpt>
      <trkpt lat="42.450549" lon="1.151904">
        <ele>738.923</ele>
        <time>2021-06-19T10:54:27Z</time>
      </trkpt>
      <trkpt lat="42.450593" lon="1.152015">
        <ele>739.483</ele>
        <time>2021-06-19T10:54:31Z</time>
      </trkpt>
      <trkpt lat="42.450644" lon="1.152130">
        <ele>740.011</ele>
        <time>2021-06-19T10:54:35Z</time>
      </trkpt>
      <trkpt lat="42.450704" lon="1.152240">
        <ele>740.608</ele>
        <time>2021-06-19T10:54:39Z</time>
      </trkpt>
      <trkpt lat="42.450766" lon="1.152344">
        <ele>740.999</ele>
        <time>2021-06-19T10:54:43Z</time>
      </trkpt>
      <trkpt lat="42.450778" lon="1.152373">
        <ele>741.048</ele>
        <time>2021-06-19T10:54:44Z</time>
      </trkpt>
      <trkpt lat="42.450802" lon="1.152430">
        <ele>741.114</ele>
        <time>2021-06-19T10:54:46Z</time>
      </trkpt>
      <trkpt lat="42.450872" lon="1.152564">
        <ele>741.828</ele>
        <time>2021-06-19T10:54:51Z</time>
      </trkpt>
      <trkpt lat="42.450898" lon="1.152618">
        <ele>742.592</ele>
        <time>2021-06-19T10:54:53Z</time>
      </trkpt>
      <trkpt lat="42.450912" lon="1.152674">
        <ele>743.272</ele>
        <time>2021-06-19T10:54:55Z</time>
      </trkpt>
      <trkpt lat="42.450903" lon="1.152694">
        <ele>743.565</ele>
        <time>2021-06-19T10:54:56Z</time>
      </trkpt>
      <trkpt lat="42.450888" lon="1.152705">
        <ele>743.862</ele>
        <time>2021-06-19T10:54:57Z</time>
      </trkpt>
      <trkpt lat="42.450842" lon="1.152704">
        <ele>743.997</ele>
        <time>2021-06-19T10:55:00Z</time>
      </trkpt>
      <trkpt lat="42.450828" lon="1.152700">
        <ele>744.123</ele>
        <time>2021-06-19T10:55:01Z</time>
      </trkpt>
      <trkpt lat="42.450800" lon="1.152689">
        <ele>745.325</ele>
        <time>2021-06-19T10:55:03Z</time>
      </trkpt>
      <trkpt lat="42.450757" lon="1.152671">
        <ele>746.808</ele>
        <time>2021-06-19T10:55:06Z</time>
      </trkpt>
      <trkpt lat="42.450747" lon="1.152660">
        <ele>747.056</ele>
        <time>2021-06-19T10:55:07Z</time>
      </trkpt>
      <trkpt lat="42.450738" lon="1.152646">
        <ele>747.065</ele>
        <time>2021-06-19T10:55:08Z</time>
      </trkpt>
      <trkpt lat="42.450728" lon="1.152630">
        <ele>746.911</ele>
        <time>2021-06-19T10:55:09Z</time>
      </trkpt>
      <trkpt lat="42.450678" lon="1.152591">
        <ele>747.565</ele>
        <time>2021-06-19T10:55:13Z</time>
      </trkpt>
      <trkpt lat="42.450665" lon="1.152582">
        <ele>747.639</ele>
        <time>2021-06-19T10:55:14Z</time>
      </trkpt>
      <trkpt lat="42.450638" lon="1.152566">
        <ele>747.859</ele>
        <time>2021-06-19T10:55:16Z</time>
      </trkpt>
      <trkpt lat="42.450626" lon="1.152557">
        <ele>747.812</ele>
        <time>2021-06-19T10:55:17Z</time>
      </trkpt>
      <trkpt lat="42.450593" lon="1.152519">
        <ele>747.189</ele>
        <time>2021-06-19T10:55:20Z</time>
      </trkpt>
      <trkpt lat="42.450553" lon="1.152493">
        <ele>747.015</ele>
        <time>2021-06-19T10:55:23Z</time>
      </trkpt>
      <trkpt lat="42.450543" lon="1.152480">
        <ele>747.265</ele>
        <time>2021-06-19T10:55:24Z</time>
      </trkpt>
      <trkpt lat="42.450509" lon="1.152448">
        <ele>748.011</ele>
        <time>2021-06-19T10:55:27Z</time>
      </trkpt>
      <trkpt lat="42.450476" lon="1.152410">
        <ele>748.408</ele>
        <time>2021-06-19T10:55:30Z</time>
      </trkpt>
      <trkpt lat="42.450438" lon="1.152377">
        <ele>749.148</ele>
        <time>2021-06-19T10:55:33Z</time>
      </trkpt>
      <trkpt lat="42.450412" lon="1.152346">
        <ele>749.317</ele>
        <time>2021-06-19T10:55:36Z</time>
      </trkpt>
      <trkpt lat="42.450409" lon="1.152343">
        <ele>749.333</ele>
        <time>2021-06-19T10:55:37Z</time>
      </trkpt>
      <trkpt lat="42.450409" lon="1.152342">
        <ele>749.337</ele>
        <time>2021-06-19T10:55:38Z</time>
      </trkpt>
      <trkpt lat="42.450277" lon="1.152245">
        <ele>750.811</ele>
        <time>2021-06-19T11:25:46Z</time>
      </trkpt>
      <trkpt lat="42.450248" lon="1.152221">
        <ele>750.631</ele>
        <time>2021-06-19T11:25:48Z</time>
      </trkpt>
      <trkpt lat="42.450152" lon="1.152173">
        <ele>752.454</ele>
        <time>2021-06-19T11:25:53Z</time>
      </trkpt>
      <trkpt lat="42.450115" lon="1.152148">
        <ele>752.941</ele>
        <time>2021-06-19T11:25:55Z</time>
      </trkpt>
      <trkpt lat="42.450076" lon="1.152125">
        <ele>753.374</ele>
        <time>2021-06-19T11:25:57Z</time>
      </trkpt>
      <trkpt lat="42.449996" lon="1.152090">
        <ele>754.256</ele>
        <time>2021-06-19T11:26:01Z</time>
      </trkpt>
      <trkpt lat="42.449955" lon="1.152071">
        <ele>755.021</ele>
        <time>2021-06-19T11:26:03Z</time>
      </trkpt>
      <trkpt lat="42.449935" lon="1.152062">
        <ele>755.308</ele>
        <time>2021-06-19T11:26:04Z</time>
      </trkpt>
      <trkpt lat="42.449897" lon="1.152045">
        <ele>755.914</ele>
        <time>2021-06-19T11:26:06Z</time>
      </trkpt>
      <trkpt lat="42.449821" lon="1.152018">
        <ele>756.873</ele>
        <time>2021-06-19T11:26:10Z</time>
      </trkpt>
      <trkpt lat="42.449802" lon="1.152009">
        <ele>756.949</ele>
        <time>2021-06-19T11:26:11Z</time>
      </trkpt>
      <trkpt lat="42.449749" lon="1.151990">
        <ele>757.393</ele>
        <time>2021-06-19T11:26:14Z</time>
      </trkpt>
      <trkpt lat="42.449697" lon="1.151965">
        <ele>757.477</ele>
        <time>2021-06-19T11:26:17Z</time>
      </trkpt>
      <trkpt lat="42.449659" lon="1.151954">
        <ele>757.897</ele>
        <time>2021-06-19T11:26:19Z</time>
      </trkpt>
      <trkpt lat="42.449620" lon="1.151941">
        <ele>758.180</ele>
        <time>2021-06-19T11:26:21Z</time>
      </trkpt>
      <trkpt lat="42.449564" lon="1.151916">
        <ele>758.787</ele>
        <time>2021-06-19T11:26:24Z</time>
      </trkpt>
      <trkpt lat="42.449486" lon="1.151889">
        <ele>759.712</ele>
        <time>2021-06-19T11:26:28Z</time>
      </trkpt>
      <trkpt lat="42.449407" lon="1.151867">
        <ele>760.932</ele>
        <time>2021-06-19T11:26:32Z</time>
      </trkpt>
      <trkpt lat="42.449370" lon="1.151852">
        <ele>761.405</ele>
        <time>2021-06-19T11:26:34Z</time>
      </trkpt>
      <trkpt lat="42.449313" lon="1.151835">
        <ele>762.208</ele>
        <time>2021-06-19T11:26:37Z</time>
      </trkpt>
      <trkpt lat="42.449275" lon="1.151821">
        <ele>762.698</ele>
        <time>2021-06-19T11:26:39Z</time>
      </trkpt>
      <trkpt lat="42.449257" lon="1.151815">
        <ele>762.897</ele>
        <time>2021-06-19T11:26:40Z</time>
      </trkpt>
      <trkpt lat="42.449196" lon="1.151803">
        <ele>763.813</ele>
        <time>2021-06-19T11:26:43Z</time>
      </trkpt>
      <trkpt lat="42.449115" lon="1.151779">
        <ele>764.547</ele>
        <time>2021-06-19T11:26:47Z</time>
      </trkpt>
      <trkpt lat="42.449095" lon="1.151772">
        <ele>764.651</ele>
        <time>2021-06-19T11:26:48Z</time>
      </trkpt>
      <trkpt lat="42.449034" lon="1.151756">
        <ele>764.981</ele>
        <time>2021-06-19T11:26:51Z</time>
      </trkpt>
      <trkpt lat="42.448975" lon="1.151747">
        <ele>765.554</ele>
        <time>2021-06-19T11:26:54Z</time>
      </trkpt>
      <trkpt lat="42.448913" lon="1.151746">
        <ele>766.421</ele>
        <time>2021-06-19T11:26:57Z</time>
      </trkpt>
      <trkpt lat="42.448893" lon="1.151741">
        <ele>766.491</ele>
        <time>2021-06-19T11:26:58Z</time>
      </trkpt>
      <trkpt lat="42.448831" lon="1.151725">
        <ele>767.281</ele>
        <time>2021-06-19T11:27:01Z</time>
      </trkpt>
      <trkpt lat="42.448768" lon="1.151712">
        <ele>768.219</ele>
        <time>2021-06-19T11:27:04Z</time>
      </trkpt>
      <trkpt lat="42.448712" lon="1.151686">
        <ele>768.408</ele>
        <time>2021-06-19T11:27:07Z</time>
      </trkpt>
      <trkpt lat="42.448678" lon="1.151657">
        <ele>768.246</ele>
        <time>2021-06-19T11:27:09Z</time>
      </trkpt>
      <trkpt lat="42.448635" lon="1.151596">
        <ele>768.715</ele>
        <time>2021-06-19T11:27:12Z</time>
      </trkpt>
      <trkpt lat="42.448603" lon="1.151525">
        <ele>769.591</ele>
        <time>2021-06-19T11:27:15Z</time>
      </trkpt>
      <trkpt lat="42.448595" lon="1.151497">
        <ele>769.815</ele>
        <time>2021-06-19T11:27:16Z</time>
      </trkpt>
      <trkpt lat="42.448574" lon="1.151420">
        <ele>770.749</ele>
        <time>2021-06-19T11:27:19Z</time>
      </trkpt>
      <trkpt lat="42.448559" lon="1.151338">
        <ele>771.139</ele>
        <time>2021-06-19T11:27:22Z</time>
      </trkpt>
      <trkpt lat="42.448547" lon="1.151284">
        <ele>771.462</ele>
        <time>2021-06-19T11:27:24Z</time>
      </trkpt>
      <trkpt lat="42.448539" lon="1.151258">
        <ele>771.869</ele>
        <time>2021-06-19T11:27:25Z</time>
      </trkpt>
      <trkpt lat="42.448519" lon="1.151174">
        <ele>772.564</ele>
        <time>2021-06-19T11:27:28Z</time>
      </trkpt>
      <trkpt lat="42.448499" lon="1.151089">
        <ele>773.106</ele>
        <time>2021-06-19T11:27:31Z</time>
      </trkpt>
      <trkpt lat="42.448491" lon="1.151062">
        <ele>773.216</ele>
        <time>2021-06-19T11:27:32Z</time>
      </trkpt>
      <trkpt lat="42.448449" lon="1.150929">
        <ele>773.908</ele>
        <time>2021-06-19T11:27:37Z</time>
      </trkpt>
      <trkpt lat="42.448426" lon="1.150820">
        <ele>773.663</ele>
        <time>2021-06-19T11:27:41Z</time>
      </trkpt>
      <trkpt lat="42.448399" lon="1.150714">
        <ele>774.892</ele>
        <time>2021-06-19T11:27:45Z</time>
      </trkpt>
      <trkpt lat="42.448373" lon="1.150575">
        <ele>776.078</ele>
        <time>2021-06-19T11:27:50Z</time>
      </trkpt>
      <trkpt lat="42.448367" lon="1.150521">
        <ele>776.232</ele>
        <time>2021-06-19T11:27:52Z</time>
      </trkpt>
      <trkpt lat="42.448356" lon="1.150471">
        <ele>777.036</ele>
        <time>2021-06-19T11:27:54Z</time>
      </trkpt>
      <trkpt lat="42.448340" lon="1.150393">
        <ele>777.976</ele>
        <time>2021-06-19T11:27:57Z</time>
      </trkpt>
      <trkpt lat="42.448311" lon="1.150262">
        <ele>779.259</ele>
        <time>2021-06-19T11:28:02Z</time>
      </trkpt>
      <trkpt lat="42.448294" lon="1.150212">
        <ele>779.226</ele>
        <time>2021-06-19T11:28:04Z</time>
      </trkpt>
      <trkpt lat="42.448282" lon="1.150190">
        <ele>779.544</ele>
        <time>2021-06-19T11:28:05Z</time>
      </trkpt>
      <trkpt lat="42.448242" lon="1.150130">
        <ele>780.305</ele>
        <time>2021-06-19T11:28:08Z</time>
      </trkpt>
      <trkpt lat="42.448197" lon="1.150077">
        <ele>781.415</ele>
        <time>2021-06-19T11:28:11Z</time>
      </trkpt>
      <trkpt lat="42.448170" lon="1.150038">
        <ele>781.508</ele>
        <time>2021-06-19T11:28:13Z</time>
      </trkpt>
      <trkpt lat="42.448146" lon="1.149996">
        <ele>781.361</ele>
        <time>2021-06-19T11:28:15Z</time>
      </trkpt>
      <trkpt lat="42.448097" lon="1.149912">
        <ele>782.070</ele>
        <time>2021-06-19T11:28:19Z</time>
      </trkpt>
      <trkpt lat="42.448047" lon="1.149832">
        <ele>783.666</ele>
        <time>2021-06-19T11:28:23Z</time>
      </trkpt>
      <trkpt lat="42.447995" lon="1.149718">
        <ele>785.110</ele>
        <time>2021-06-19T11:28:28Z</time>
      </trkpt>
      <trkpt lat="42.447980" lon="1.149643">
        <ele>784.814</ele>
        <time>2021-06-19T11:28:31Z</time>
      </trkpt>
      <trkpt lat="42.447965" lon="1.149594">
        <ele>784.954</ele>
        <time>2021-06-19T11:28:33Z</time>
      </trkpt>
      <trkpt lat="42.447949" lon="1.149549">
        <ele>785.197</ele>
        <time>2021-06-19T11:28:35Z</time>
      </trkpt>
      <trkpt lat="42.447914" lon="1.149457">
        <ele>785.434</ele>
        <time>2021-06-19T11:28:39Z</time>
      </trkpt>
      <trkpt lat="42.447903" lon="1.149436">
        <ele>785.777</ele>
        <time>2021-06-19T11:28:40Z</time>
      </trkpt>
      <trkpt lat="42.447875" lon="1.149366">
        <ele>786.561</ele>
        <time>2021-06-19T11:28:43Z</time>
      </trkpt>
      <trkpt lat="42.447845" lon="1.149301">
        <ele>787.527</ele>
        <time>2021-06-19T11:28:46Z</time>
      </trkpt>
      <trkpt lat="42.447826" lon="1.149257">
        <ele>788.108</ele>
        <time>2021-06-19T11:28:48Z</time>
      </trkpt>
      <trkpt lat="42.447810" lon="1.149209">
        <ele>788.554</ele>
        <time>2021-06-19T11:28:50Z</time>
      </trkpt>
      <trkpt lat="42.447793" lon="1.149162">
        <ele>789.023</ele>
        <time>2021-06-19T11:28:52Z</time>
      </trkpt>
      <trkpt lat="42.447753" lon="1.149072">
        <ele>789.979</ele>
        <time>2021-06-19T11:28:56Z</time>
      </trkpt>
      <trkpt lat="42.447713" lon="1.149017">
        <ele>790.413</ele>
        <time>2021-06-19T11:28:59Z</time>
      </trkpt>
      <trkpt lat="42.447662" lon="1.148978">
        <ele>791.367</ele>
        <time>2021-06-19T11:29:02Z</time>
      </trkpt>
      <trkpt lat="42.447644" lon="1.148964">
        <ele>791.577</ele>
        <time>2021-06-19T11:29:03Z</time>
      </trkpt>
      <trkpt lat="42.447610" lon="1.148934">
        <ele>791.710</ele>
        <time>2021-06-19T11:29:05Z</time>
      </trkpt>
      <trkpt lat="42.447536" lon="1.148892">
        <ele>792.367</ele>
        <time>2021-06-19T11:29:09Z</time>
      </trkpt>
      <trkpt lat="42.447478" lon="1.148868">
        <ele>792.957</ele>
        <time>2021-06-19T11:29:12Z</time>
      </trkpt>
      <trkpt lat="42.447459" lon="1.148861">
        <ele>793.100</ele>
        <time>2021-06-19T11:29:13Z</time>
      </trkpt>
      <trkpt lat="42.447381" lon="1.148838">
        <ele>794.120</ele>
        <time>2021-06-19T11:29:17Z</time>
      </trkpt>
      <trkpt lat="42.447322" lon="1.148827">
        <ele>794.908</ele>
        <time>2021-06-19T11:29:20Z</time>
      </trkpt>
      <trkpt lat="42.447264" lon="1.148807">
        <ele>795.322</ele>
        <time>2021-06-19T11:29:23Z</time>
      </trkpt>
      <trkpt lat="42.447244" lon="1.148802">
        <ele>795.511</ele>
        <time>2021-06-19T11:29:24Z</time>
      </trkpt>
      <trkpt lat="42.447163" lon="1.148792">
        <ele>796.487</ele>
        <time>2021-06-19T11:29:28Z</time>
      </trkpt>
      <trkpt lat="42.447104" lon="1.148780">
        <ele>796.861</ele>
        <time>2021-06-19T11:29:31Z</time>
      </trkpt>
      <trkpt lat="42.447084" lon="1.148778">
        <ele>797.055</ele>
        <time>2021-06-19T11:29:32Z</time>
      </trkpt>
      <trkpt lat="42.447002" lon="1.148778">
        <ele>798.255</ele>
        <time>2021-06-19T11:29:36Z</time>
      </trkpt>
      <trkpt lat="42.446944" lon="1.148758">
        <ele>798.348</ele>
        <time>2021-06-19T11:29:39Z</time>
      </trkpt>
      <trkpt lat="42.446925" lon="1.148751">
        <ele>798.355</ele>
        <time>2021-06-19T11:29:40Z</time>
      </trkpt>
      <trkpt lat="42.446847" lon="1.148732">
        <ele>798.817</ele>
        <time>2021-06-19T11:29:44Z</time>
      </trkpt>
      <trkpt lat="42.446787" lon="1.148723">
        <ele>799.487</ele>
        <time>2021-06-19T11:29:47Z</time>
      </trkpt>
      <trkpt lat="42.446768" lon="1.148718">
        <ele>799.515</ele>
        <time>2021-06-19T11:29:48Z</time>
      </trkpt>
      <trkpt lat="42.446728" lon="1.148713">
        <ele>800.008</ele>
        <time>2021-06-19T11:29:50Z</time>
      </trkpt>
      <trkpt lat="42.446708" lon="1.148709">
        <ele>800.238</ele>
        <time>2021-06-19T11:29:51Z</time>
      </trkpt>
      <trkpt lat="42.446650" lon="1.148691">
        <ele>800.527</ele>
        <time>2021-06-19T11:29:54Z</time>
      </trkpt>
      <trkpt lat="42.446610" lon="1.148681">
        <ele>800.643</ele>
        <time>2021-06-19T11:29:56Z</time>
      </trkpt>
      <trkpt lat="42.446570" lon="1.148672">
        <ele>800.867</ele>
        <time>2021-06-19T11:29:58Z</time>
      </trkpt>
      <trkpt lat="42.446494" lon="1.148641">
        <ele>801.121</ele>
        <time>2021-06-19T11:30:02Z</time>
      </trkpt>
      <trkpt lat="42.446440" lon="1.148611">
        <ele>801.321</ele>
        <time>2021-06-19T11:30:05Z</time>
      </trkpt>
      <trkpt lat="42.446422" lon="1.148600">
        <ele>801.384</ele>
        <time>2021-06-19T11:30:06Z</time>
      </trkpt>
      <trkpt lat="42.446352" lon="1.148567">
        <ele>801.871</ele>
        <time>2021-06-19T11:30:10Z</time>
      </trkpt>
      <trkpt lat="42.446298" lon="1.148542">
        <ele>802.541</ele>
        <time>2021-06-19T11:30:13Z</time>
      </trkpt>
      <trkpt lat="42.446279" lon="1.148536">
        <ele>802.881</ele>
        <time>2021-06-19T11:30:14Z</time>
      </trkpt>
      <trkpt lat="42.446242" lon="1.148524">
        <ele>803.409</ele>
        <time>2021-06-19T11:30:16Z</time>
      </trkpt>
      <trkpt lat="42.446164" lon="1.148510">
        <ele>804.908</ele>
        <time>2021-06-19T11:30:20Z</time>
      </trkpt>
      <trkpt lat="42.446108" lon="1.148519">
        <ele>806.161</ele>
        <time>2021-06-19T11:30:23Z</time>
      </trkpt>
      <trkpt lat="42.446090" lon="1.148527">
        <ele>806.790</ele>
        <time>2021-06-19T11:30:24Z</time>
      </trkpt>
      <trkpt lat="42.446054" lon="1.148550">
        <ele>807.936</ele>
        <time>2021-06-19T11:30:26Z</time>
      </trkpt>
      <trkpt lat="42.446023" lon="1.148583">
        <ele>808.910</ele>
        <time>2021-06-19T11:30:28Z</time>
      </trkpt>
      <trkpt lat="42.446008" lon="1.148600">
        <ele>809.464</ele>
        <time>2021-06-19T11:30:29Z</time>
      </trkpt>
      <trkpt lat="42.445982" lon="1.148642">
        <ele>810.464</ele>
        <time>2021-06-19T11:30:31Z</time>
      </trkpt>
      <trkpt lat="42.445962" lon="1.148743">
        <ele>811.797</ele>
        <time>2021-06-19T11:30:35Z</time>
      </trkpt>
      <trkpt lat="42.445961" lon="1.148770">
        <ele>812.064</ele>
        <time>2021-06-19T11:30:36Z</time>
      </trkpt>
      <trkpt lat="42.445963" lon="1.148820">
        <ele>812.339</ele>
        <time>2021-06-19T11:30:38Z</time>
      </trkpt>
      <trkpt lat="42.445986" lon="1.148917">
        <ele>812.701</ele>
        <time>2021-06-19T11:30:42Z</time>
      </trkpt>
      <trkpt lat="42.445995" lon="1.148940">
        <ele>813.021</ele>
        <time>2021-06-19T11:30:43Z</time>
      </trkpt>
      <trkpt lat="42.446036" lon="1.149001">
        <ele>813.608</ele>
        <time>2021-06-19T11:30:46Z</time>
      </trkpt>
      <trkpt lat="42.446086" lon="1.149044">
        <ele>813.870</ele>
        <time>2021-06-19T11:30:49Z</time>
      </trkpt>
      <trkpt lat="42.446152" lon="1.149068">
        <ele>813.999</ele>
        <time>2021-06-19T11:30:53Z</time>
      </trkpt>
      <trkpt lat="42.446207" lon="1.149089">
        <ele>814.255</ele>
        <time>2021-06-19T11:30:56Z</time>
      </trkpt>
      <trkpt lat="42.446240" lon="1.149101">
        <ele>814.489</ele>
        <time>2021-06-19T11:30:58Z</time>
      </trkpt>
      <trkpt lat="42.446307" lon="1.149129">
        <ele>815.093</ele>
        <time>2021-06-19T11:31:02Z</time>
      </trkpt>
      <trkpt lat="42.446327" lon="1.149134">
        <ele>815.173</ele>
        <time>2021-06-19T11:31:03Z</time>
      </trkpt>
      <trkpt lat="42.446389" lon="1.149158">
        <ele>815.766</ele>
        <time>2021-06-19T11:31:06Z</time>
      </trkpt>
      <trkpt lat="42.446444" lon="1.149190">
        <ele>817.023</ele>
        <time>2021-06-19T11:31:09Z</time>
      </trkpt>
      <trkpt lat="42.446525" lon="1.149224">
        <ele>818.173</ele>
        <time>2021-06-19T11:31:13Z</time>
      </trkpt>
      <trkpt lat="42.446592" lon="1.149253">
        <ele>818.885</ele>
        <time>2021-06-19T11:31:17Z</time>
      </trkpt>
      <trkpt lat="42.446652" lon="1.149279">
        <ele>819.213</ele>
        <time>2021-06-19T11:31:20Z</time>
      </trkpt>
      <trkpt lat="42.446758" lon="1.149333">
        <ele>819.908</ele>
        <time>2021-06-19T11:31:25Z</time>
      </trkpt>
      <trkpt lat="42.446777" lon="1.149342">
        <ele>820.024</ele>
        <time>2021-06-19T11:31:26Z</time>
      </trkpt>
      <trkpt lat="42.446842" lon="1.149366">
        <ele>820.073</ele>
        <time>2021-06-19T11:31:29Z</time>
      </trkpt>
      <trkpt lat="42.446922" lon="1.149409">
        <ele>820.349</ele>
        <time>2021-06-19T11:31:33Z</time>
      </trkpt>
      <trkpt lat="42.446998" lon="1.149473">
        <ele>821.583</ele>
        <time>2021-06-19T11:31:37Z</time>
      </trkpt>
      <trkpt lat="42.447069" lon="1.149537">
        <ele>823.157</ele>
        <time>2021-06-19T11:31:41Z</time>
      </trkpt>
      <trkpt lat="42.447119" lon="1.149594">
        <ele>824.577</ele>
        <time>2021-06-19T11:31:44Z</time>
      </trkpt>
      <trkpt lat="42.447186" lon="1.149658">
        <ele>825.570</ele>
        <time>2021-06-19T11:31:48Z</time>
      </trkpt>
      <trkpt lat="42.447218" lon="1.149692">
        <ele>826.077</ele>
        <time>2021-06-19T11:31:50Z</time>
      </trkpt>
      <trkpt lat="42.447250" lon="1.149726">
        <ele>826.151</ele>
        <time>2021-06-19T11:31:52Z</time>
      </trkpt>
      <trkpt lat="42.447310" lon="1.149794">
        <ele>826.301</ele>
        <time>2021-06-19T11:31:56Z</time>
      </trkpt>
      <trkpt lat="42.447355" lon="1.149861">
        <ele>827.011</ele>
        <time>2021-06-19T11:32:00Z</time>
      </trkpt>
      <trkpt lat="42.447401" lon="1.149934">
        <ele>827.708</ele>
        <time>2021-06-19T11:32:04Z</time>
      </trkpt>
      <trkpt lat="42.447428" lon="1.149997">
        <ele>828.862</ele>
        <time>2021-06-19T11:32:07Z</time>
      </trkpt>
      <trkpt lat="42.447447" lon="1.150036">
        <ele>828.981</ele>
        <time>2021-06-19T11:32:09Z</time>
      </trkpt>
      <trkpt lat="42.447466" lon="1.150075">
        <ele>828.997</ele>
        <time>2021-06-19T11:32:11Z</time>
      </trkpt>
      <trkpt lat="42.447502" lon="1.150157">
        <ele>829.361</ele>
        <time>2021-06-19T11:32:15Z</time>
      </trkpt>
      <trkpt lat="42.447522" lon="1.150243">
        <ele>830.065</ele>
        <time>2021-06-19T11:32:19Z</time>
      </trkpt>
      <trkpt lat="42.447549" lon="1.150330">
        <ele>830.215</ele>
        <time>2021-06-19T11:32:23Z</time>
      </trkpt>
      <trkpt lat="42.447585" lon="1.150440">
        <ele>830.738</ele>
        <time>2021-06-19T11:32:28Z</time>
      </trkpt>
      <trkpt lat="42.447610" lon="1.150527">
        <ele>831.625</ele>
        <time>2021-06-19T11:32:32Z</time>
      </trkpt>
      <trkpt lat="42.447637" lon="1.150638">
        <ele>832.378</ele>
        <time>2021-06-19T11:32:37Z</time>
      </trkpt>
      <trkpt lat="42.447647" lon="1.150682">
        <ele>832.533</ele>
        <time>2021-06-19T11:32:39Z</time>
      </trkpt>
      <trkpt lat="42.447656" lon="1.150749">
        <ele>833.026</ele>
        <time>2021-06-19T11:32:42Z</time>
      </trkpt>
      <trkpt lat="42.447667" lon="1.150842">
        <ele>833.808</ele>
        <time>2021-06-19T11:32:46Z</time>
      </trkpt>
      <trkpt lat="42.447672" lon="1.150914">
        <ele>834.034</ele>
        <time>2021-06-19T11:32:49Z</time>
      </trkpt>
      <trkpt lat="42.447672" lon="1.150940">
        <ele>834.243</ele>
        <time>2021-06-19T11:32:50Z</time>
      </trkpt>
      <trkpt lat="42.447656" lon="1.151036">
        <ele>835.429</ele>
        <time>2021-06-19T11:32:54Z</time>
      </trkpt>
      <trkpt lat="42.447640" lon="1.151105">
        <ele>836.473</ele>
        <time>2021-06-19T11:32:57Z</time>
      </trkpt>
      <trkpt lat="42.447633" lon="1.151127">
        <ele>836.417</ele>
        <time>2021-06-19T11:32:58Z</time>
      </trkpt>
      <trkpt lat="42.447605" lon="1.151186">
        <ele>836.537</ele>
        <time>2021-06-19T11:33:01Z</time>
      </trkpt>
      <trkpt lat="42.447563" lon="1.151263">
        <ele>836.910</ele>
        <time>2021-06-19T11:33:05Z</time>
      </trkpt>
      <trkpt lat="42.447552" lon="1.151282">
        <ele>837.197</ele>
        <time>2021-06-19T11:33:06Z</time>
      </trkpt>
      <trkpt lat="42.447506" lon="1.151357">
        <ele>838.232</ele>
        <time>2021-06-19T11:33:10Z</time>
      </trkpt>
      <trkpt lat="42.447470" lon="1.151410">
        <ele>839.592</ele>
        <time>2021-06-19T11:33:13Z</time>
      </trkpt>
      <trkpt lat="42.447448" lon="1.151448">
        <ele>840.311</ele>
        <time>2021-06-19T11:33:15Z</time>
      </trkpt>
      <trkpt lat="42.447426" lon="1.151485">
        <ele>841.008</ele>
        <time>2021-06-19T11:33:17Z</time>
      </trkpt>
      <trkpt lat="42.447372" lon="1.151581">
        <ele>842.460</ele>
        <time>2021-06-19T11:33:22Z</time>
      </trkpt>
      <trkpt lat="42.447351" lon="1.151621">
        <ele>842.939</ele>
        <time>2021-06-19T11:33:24Z</time>
      </trkpt>
      <trkpt lat="42.447332" lon="1.151661">
        <ele>843.235</ele>
        <time>2021-06-19T11:33:26Z</time>
      </trkpt>
      <trkpt lat="42.447282" lon="1.151731">
        <ele>844.659</ele>
        <time>2021-06-19T11:33:30Z</time>
      </trkpt>
      <trkpt lat="42.447250" lon="1.151791">
        <ele>845.373</ele>
        <time>2021-06-19T11:33:33Z</time>
      </trkpt>
      <trkpt lat="42.447242" lon="1.151811">
        <ele>845.333</ele>
        <time>2021-06-19T11:33:34Z</time>
      </trkpt>
      <trkpt lat="42.447188" lon="1.151903">
        <ele>847.086</ele>
        <time>2021-06-19T11:33:39Z</time>
      </trkpt>
      <trkpt lat="42.447178" lon="1.151923">
        <ele>847.313</ele>
        <time>2021-06-19T11:33:40Z</time>
      </trkpt>
      <trkpt lat="42.447148" lon="1.151984">
        <ele>848.896</ele>
        <time>2021-06-19T11:33:43Z</time>
      </trkpt>
      <trkpt lat="42.447121" lon="1.152067">
        <ele>850.031</ele>
        <time>2021-06-19T11:33:47Z</time>
      </trkpt>
      <trkpt lat="42.447120" lon="1.152090">
        <ele>849.924</ele>
        <time>2021-06-19T11:33:48Z</time>
      </trkpt>
      <trkpt lat="42.447119" lon="1.152159">
        <ele>849.608</ele>
        <time>2021-06-19T11:33:51Z</time>
      </trkpt>
      <trkpt lat="42.447130" lon="1.152200">
        <ele>849.196</ele>
        <time>2021-06-19T11:33:53Z</time>
      </trkpt>
      <trkpt lat="42.447142" lon="1.152218">
        <ele>848.685</ele>
        <time>2021-06-19T11:33:54Z</time>
      </trkpt>
      <trkpt lat="42.447155" lon="1.152234">
        <ele>848.641</ele>
        <time>2021-06-19T11:33:55Z</time>
      </trkpt>
      <trkpt lat="42.447211" lon="1.152302">
        <ele>849.565</ele>
        <time>2021-06-19T11:33:59Z</time>
      </trkpt>
      <trkpt lat="42.447284" lon="1.152344">
        <ele>849.759</ele>
        <time>2021-06-19T11:34:03Z</time>
      </trkpt>
      <trkpt lat="42.447374" lon="1.152398">
        <ele>850.259</ele>
        <time>2021-06-19T11:34:08Z</time>
      </trkpt>
      <trkpt lat="42.447394" lon="1.152407">
        <ele>850.252</ele>
        <time>2021-06-19T11:34:09Z</time>
      </trkpt>
      <trkpt lat="42.447440" lon="1.152418">
        <ele>849.889</ele>
        <time>2021-06-19T11:34:12Z</time>
      </trkpt>
      <trkpt lat="42.447508" lon="1.152459">
        <ele>850.331</ele>
        <time>2021-06-19T11:34:16Z</time>
      </trkpt>
      <trkpt lat="42.447526" lon="1.152467">
        <ele>850.561</ele>
        <time>2021-06-19T11:34:17Z</time>
      </trkpt>
      <trkpt lat="42.447580" lon="1.152494">
        <ele>851.207</ele>
        <time>2021-06-19T11:34:20Z</time>
      </trkpt>
      <trkpt lat="42.447635" lon="1.152524">
        <ele>852.608</ele>
        <time>2021-06-19T11:34:23Z</time>
      </trkpt>
      <trkpt lat="42.447651" lon="1.152534">
        <ele>853.080</ele>
        <time>2021-06-19T11:34:24Z</time>
      </trkpt>
      <trkpt lat="42.447703" lon="1.152562">
        <ele>854.059</ele>
        <time>2021-06-19T11:34:27Z</time>
      </trkpt>
      <trkpt lat="42.447769" lon="1.152598">
        <ele>854.815</ele>
        <time>2021-06-19T11:34:31Z</time>
      </trkpt>
      <trkpt lat="42.447847" lon="1.152656">
        <ele>855.249</ele>
        <time>2021-06-19T11:34:36Z</time>
      </trkpt>
      <trkpt lat="42.447911" lon="1.152712">
        <ele>855.763</ele>
        <time>2021-06-19T11:34:40Z</time>
      </trkpt>
      <trkpt lat="42.447975" lon="1.152771">
        <ele>856.383</ele>
        <time>2021-06-19T11:34:44Z</time>
      </trkpt>
      <trkpt lat="42.448051" lon="1.152836">
        <ele>856.946</ele>
        <time>2021-06-19T11:34:49Z</time>
      </trkpt>
      <trkpt lat="42.448067" lon="1.152849">
        <ele>857.053</ele>
        <time>2021-06-19T11:34:50Z</time>
      </trkpt>
      <trkpt lat="42.448125" lon="1.152908">
        <ele>858.174</ele>
        <time>2021-06-19T11:34:54Z</time>
      </trkpt>
      <trkpt lat="42.448199" lon="1.152979">
        <ele>859.156</ele>
        <time>2021-06-19T11:34:59Z</time>
      </trkpt>
      <trkpt lat="42.448214" lon="1.152993">
        <ele>859.221</ele>
        <time>2021-06-19T11:35:00Z</time>
      </trkpt>
      <trkpt lat="42.448260" lon="1.153037">
        <ele>859.608</ele>
        <time>2021-06-19T11:35:03Z</time>
      </trkpt>
      <trkpt lat="42.448333" lon="1.153112">
        <ele>860.734</ele>
        <time>2021-06-19T11:35:08Z</time>
      </trkpt>
      <trkpt lat="42.448347" lon="1.153127">
        <ele>861.063</ele>
        <time>2021-06-19T11:35:09Z</time>
      </trkpt>
      <trkpt lat="42.448408" lon="1.153179">
        <ele>861.829</ele>
        <time>2021-06-19T11:35:13Z</time>
      </trkpt>
      <trkpt lat="42.448472" lon="1.153220">
        <ele>861.863</ele>
        <time>2021-06-19T11:35:17Z</time>
      </trkpt>
      <trkpt lat="42.448534" lon="1.153267">
        <ele>861.977</ele>
        <time>2021-06-19T11:35:21Z</time>
      </trkpt>
      <trkpt lat="42.448610" lon="1.153329">
        <ele>861.927</ele>
        <time>2021-06-19T11:35:26Z</time>
      </trkpt>
      <trkpt lat="42.448684" lon="1.153403">
        <ele>863.480</ele>
        <time>2021-06-19T11:35:31Z</time>
      </trkpt>
      <trkpt lat="42.448742" lon="1.153466">
        <ele>864.557</ele>
        <time>2021-06-19T11:35:35Z</time>
      </trkpt>
      <trkpt lat="42.448800" lon="1.153532">
        <ele>865.321</ele>
        <time>2021-06-19T11:35:39Z</time>
      </trkpt>
      <trkpt lat="42.448868" lon="1.153619">
        <ele>865.941</ele>
        <time>2021-06-19T11:35:44Z</time>
      </trkpt>
      <trkpt lat="42.448899" lon="1.153687">
        <ele>866.105</ele>
        <time>2021-06-19T11:35:47Z</time>
      </trkpt>
      <trkpt lat="42.448921" lon="1.153736">
        <ele>866.108</ele>
        <time>2021-06-19T11:35:49Z</time>
      </trkpt>
      <trkpt lat="42.448978" lon="1.153864">
        <ele>866.239</ele>
        <time>2021-06-19T11:35:54Z</time>
      </trkpt>
      <trkpt lat="42.448988" lon="1.153890">
        <ele>866.418</ele>
        <time>2021-06-19T11:35:55Z</time>
      </trkpt>
      <trkpt lat="42.449030" lon="1.153991">
        <ele>867.014</ele>
        <time>2021-06-19T11:35:59Z</time>
      </trkpt>
      <trkpt lat="42.449085" lon="1.154115">
        <ele>868.248</ele>
        <time>2021-06-19T11:36:04Z</time>
      </trkpt>
      <trkpt lat="42.449117" lon="1.154189">
        <ele>869.152</ele>
        <time>2021-06-19T11:36:07Z</time>
      </trkpt>
      <trkpt lat="42.449149" lon="1.154264">
        <ele>869.742</ele>
        <time>2021-06-19T11:36:10Z</time>
      </trkpt>
      <trkpt lat="42.449197" lon="1.154361">
        <ele>870.335</ele>
        <time>2021-06-19T11:36:14Z</time>
      </trkpt>
      <trkpt lat="42.449246" lon="1.154460">
        <ele>871.092</ele>
        <time>2021-06-19T11:36:18Z</time>
      </trkpt>
      <trkpt lat="42.449258" lon="1.154484">
        <ele>871.113</ele>
        <time>2021-06-19T11:36:19Z</time>
      </trkpt>
      <trkpt lat="42.449305" lon="1.154614">
        <ele>871.843</ele>
        <time>2021-06-19T11:36:24Z</time>
      </trkpt>
      <trkpt lat="42.449324" lon="1.154699">
        <ele>872.407</ele>
        <time>2021-06-19T11:36:27Z</time>
      </trkpt>
      <trkpt lat="42.449333" lon="1.154726">
        <ele>872.508</ele>
        <time>2021-06-19T11:36:28Z</time>
      </trkpt>
      <trkpt lat="42.449364" lon="1.154835">
        <ele>873.038</ele>
        <time>2021-06-19T11:36:32Z</time>
      </trkpt>
      <trkpt lat="42.449386" lon="1.154917">
        <ele>873.427</ele>
        <time>2021-06-19T11:36:35Z</time>
      </trkpt>
      <trkpt lat="42.449402" lon="1.154972">
        <ele>873.693</ele>
        <time>2021-06-19T11:36:37Z</time>
      </trkpt>
      <trkpt lat="42.449441" lon="1.155142">
        <ele>874.747</ele>
        <time>2021-06-19T11:36:43Z</time>
      </trkpt>
      <trkpt lat="42.449459" lon="1.155196">
        <ele>874.931</ele>
        <time>2021-06-19T11:36:45Z</time>
      </trkpt>
      <trkpt lat="42.449482" lon="1.155280">
        <ele>875.491</ele>
        <time>2021-06-19T11:36:48Z</time>
      </trkpt>
      <trkpt lat="42.449508" lon="1.155419">
        <ele>876.794</ele>
        <time>2021-06-19T11:36:53Z</time>
      </trkpt>
      <trkpt lat="42.449519" lon="1.155452">
        <ele>876.731</ele>
        <time>2021-06-19T11:36:54Z</time>
      </trkpt>
      <trkpt lat="42.449545" lon="1.155566">
        <ele>877.579</ele>
        <time>2021-06-19T11:36:58Z</time>
      </trkpt>
      <trkpt lat="42.449568" lon="1.155650">
        <ele>878.305</ele>
        <time>2021-06-19T11:37:01Z</time>
      </trkpt>
      <trkpt lat="42.449580" lon="1.155705">
        <ele>878.925</ele>
        <time>2021-06-19T11:37:03Z</time>
      </trkpt>
      <trkpt lat="42.449612" lon="1.155819">
        <ele>879.708</ele>
        <time>2021-06-19T11:37:07Z</time>
      </trkpt>
      <trkpt lat="42.449644" lon="1.155928">
        <ele>880.344</ele>
        <time>2021-06-19T11:37:11Z</time>
      </trkpt>
      <trkpt lat="42.449651" lon="1.155956">
        <ele>880.593</ele>
        <time>2021-06-19T11:37:12Z</time>
      </trkpt>
      <trkpt lat="42.449683" lon="1.156068">
        <ele>881.249</ele>
        <time>2021-06-19T11:37:16Z</time>
      </trkpt>
      <trkpt lat="42.449725" lon="1.156204">
        <ele>881.963</ele>
        <time>2021-06-19T11:37:21Z</time>
      </trkpt>
      <trkpt lat="42.449742" lon="1.156258">
        <ele>882.197</ele>
        <time>2021-06-19T11:37:23Z</time>
      </trkpt>
      <trkpt lat="42.449757" lon="1.156315">
        <ele>882.657</ele>
        <time>2021-06-19T11:37:25Z</time>
      </trkpt>
      <trkpt lat="42.449779" lon="1.156429">
        <ele>883.160</ele>
        <time>2021-06-19T11:37:29Z</time>
      </trkpt>
      <trkpt lat="42.449789" lon="1.156516">
        <ele>883.047</ele>
        <time>2021-06-19T11:37:32Z</time>
      </trkpt>
      <trkpt lat="42.449793" lon="1.156574">
        <ele>883.096</ele>
        <time>2021-06-19T11:37:34Z</time>
      </trkpt>
      <trkpt lat="42.449790" lon="1.156693">
        <ele>883.731</ele>
        <time>2021-06-19T11:37:38Z</time>
      </trkpt>
      <trkpt lat="42.449789" lon="1.156751">
        <ele>884.024</ele>
        <time>2021-06-19T11:37:40Z</time>
      </trkpt>
      <trkpt lat="42.449781" lon="1.156836">
        <ele>884.808</ele>
        <time>2021-06-19T11:37:43Z</time>
      </trkpt>
      <trkpt lat="42.449760" lon="1.156973">
        <ele>886.676</ele>
        <time>2021-06-19T11:37:48Z</time>
      </trkpt>
      <trkpt lat="42.449758" lon="1.157000">
        <ele>887.065</ele>
        <time>2021-06-19T11:37:49Z</time>
      </trkpt>
      <trkpt lat="42.449761" lon="1.157110">
        <ele>888.121</ele>
        <time>2021-06-19T11:37:53Z</time>
      </trkpt>
      <trkpt lat="42.449779" lon="1.157223">
        <ele>888.865</ele>
        <time>2021-06-19T11:37:57Z</time>
      </trkpt>
      <trkpt lat="42.449817" lon="1.157359">
        <ele>889.979</ele>
        <time>2021-06-19T11:38:02Z</time>
      </trkpt>
      <trkpt lat="42.449830" lon="1.157414">
        <ele>890.399</ele>
        <time>2021-06-19T11:38:04Z</time>
      </trkpt>
      <trkpt lat="42.449844" lon="1.157467">
        <ele>890.792</ele>
        <time>2021-06-19T11:38:06Z</time>
      </trkpt>
      <trkpt lat="42.449865" lon="1.157515">
        <ele>890.769</ele>
        <time>2021-06-19T11:38:08Z</time>
      </trkpt>
      <trkpt lat="42.449921" lon="1.157609">
        <ele>890.793</ele>
        <time>2021-06-19T11:38:12Z</time>
      </trkpt>
      <trkpt lat="42.449963" lon="1.157677">
        <ele>890.765</ele>
        <time>2021-06-19T11:38:15Z</time>
      </trkpt>
      <trkpt lat="42.449995" lon="1.157717">
        <ele>890.521</ele>
        <time>2021-06-19T11:38:17Z</time>
      </trkpt>
      <trkpt lat="42.450054" lon="1.157805">
        <ele>892.008</ele>
        <time>2021-06-19T11:38:21Z</time>
      </trkpt>
      <trkpt lat="42.450114" lon="1.157893">
        <ele>893.656</ele>
        <time>2021-06-19T11:38:25Z</time>
      </trkpt>
      <trkpt lat="42.450166" lon="1.157989">
        <ele>894.795</ele>
        <time>2021-06-19T11:38:29Z</time>
      </trkpt>
      <trkpt lat="42.450204" lon="1.158061">
        <ele>894.981</ele>
        <time>2021-06-19T11:38:32Z</time>
      </trkpt>
      <trkpt lat="42.450233" lon="1.158107">
        <ele>894.875</ele>
        <time>2021-06-19T11:38:34Z</time>
      </trkpt>
      <trkpt lat="42.450277" lon="1.158175">
        <ele>894.589</ele>
        <time>2021-06-19T11:38:37Z</time>
      </trkpt>
      <trkpt lat="42.450335" lon="1.158260">
        <ele>895.519</ele>
        <time>2021-06-19T11:38:41Z</time>
      </trkpt>
      <trkpt lat="42.450387" lon="1.158316">
        <ele>896.452</ele>
        <time>2021-06-19T11:38:44Z</time>
      </trkpt>
      <trkpt lat="42.450406" lon="1.158330">
        <ele>896.639</ele>
        <time>2021-06-19T11:38:45Z</time>
      </trkpt>
      <trkpt lat="42.450457" lon="1.158379">
        <ele>897.924</ele>
        <time>2021-06-19T11:38:48Z</time>
      </trkpt>
      <trkpt lat="42.450526" lon="1.158440">
        <ele>898.704</ele>
        <time>2021-06-19T11:38:52Z</time>
      </trkpt>
      <trkpt lat="42.450544" lon="1.158455">
        <ele>898.714</ele>
        <time>2021-06-19T11:38:53Z</time>
      </trkpt>
      <trkpt lat="42.450595" lon="1.158511">
        <ele>899.108</ele>
        <time>2021-06-19T11:38:56Z</time>
      </trkpt>
      <trkpt lat="42.450639" lon="1.158576">
        <ele>900.079</ele>
        <time>2021-06-19T11:38:59Z</time>
      </trkpt>
      <trkpt lat="42.450667" lon="1.158622">
        <ele>900.798</ele>
        <time>2021-06-19T11:39:01Z</time>
      </trkpt>
      <trkpt lat="42.450694" lon="1.158668">
        <ele>901.344</ele>
        <time>2021-06-19T11:39:03Z</time>
      </trkpt>
      <trkpt lat="42.450747" lon="1.158758">
        <ele>901.888</ele>
        <time>2021-06-19T11:39:07Z</time>
      </trkpt>
      <trkpt lat="42.450781" lon="1.158831">
        <ele>902.232</ele>
        <time>2021-06-19T11:39:10Z</time>
      </trkpt>
      <trkpt lat="42.450800" lon="1.158881">
        <ele>902.542</ele>
        <time>2021-06-19T11:39:12Z</time>
      </trkpt>
      <trkpt lat="42.450809" lon="1.158906">
        <ele>902.795</ele>
        <time>2021-06-19T11:39:13Z</time>
      </trkpt>
      <trkpt lat="42.450842" lon="1.158978">
        <ele>903.222</ele>
        <time>2021-06-19T11:39:16Z</time>
      </trkpt>
      <trkpt lat="42.450883" lon="1.159038">
        <ele>903.265</ele>
        <time>2021-06-19T11:39:19Z</time>
      </trkpt>
      <trkpt lat="42.450908" lon="1.159081">
        <ele>903.468</ele>
        <time>2021-06-19T11:39:21Z</time>
      </trkpt>
      <trkpt lat="42.450945" lon="1.159180">
        <ele>905.014</ele>
        <time>2021-06-19T11:39:25Z</time>
      </trkpt>
      <trkpt lat="42.450956" lon="1.159202">
        <ele>905.208</ele>
        <time>2021-06-19T11:39:26Z</time>
      </trkpt>
      <trkpt lat="42.450988" lon="1.159308">
        <ele>906.933</ele>
        <time>2021-06-19T11:39:30Z</time>
      </trkpt>
      <trkpt lat="42.451016" lon="1.159384">
        <ele>907.842</ele>
        <time>2021-06-19T11:39:33Z</time>
      </trkpt>
      <trkpt lat="42.451026" lon="1.159409">
        <ele>908.098</ele>
        <time>2021-06-19T11:39:34Z</time>
      </trkpt>
      <trkpt lat="42.451068" lon="1.159507">
        <ele>908.812</ele>
        <time>2021-06-19T11:39:38Z</time>
      </trkpt>
      <trkpt lat="42.451109" lon="1.159607">
        <ele>909.886</ele>
        <time>2021-06-19T11:39:42Z</time>
      </trkpt>
      <trkpt lat="42.451146" lon="1.159707">
        <ele>911.226</ele>
        <time>2021-06-19T11:39:46Z</time>
      </trkpt>
      <trkpt lat="42.451185" lon="1.159804">
        <ele>912.199</ele>
        <time>2021-06-19T11:39:50Z</time>
      </trkpt>
      <trkpt lat="42.451195" lon="1.159829">
        <ele>912.426</ele>
        <time>2021-06-19T11:39:51Z</time>
      </trkpt>
      <trkpt lat="42.451214" lon="1.159908">
        <ele>913.655</ele>
        <time>2021-06-19T11:39:54Z</time>
      </trkpt>
      <trkpt lat="42.451249" lon="1.160009">
        <ele>914.707</ele>
        <time>2021-06-19T11:39:58Z</time>
      </trkpt>
      <trkpt lat="42.451285" lon="1.160112">
        <ele>915.117</ele>
        <time>2021-06-19T11:40:02Z</time>
      </trkpt>
      <trkpt lat="42.451296" lon="1.160136">
        <ele>915.108</ele>
        <time>2021-06-19T11:40:03Z</time>
      </trkpt>
      <trkpt lat="42.451328" lon="1.160209">
        <ele>915.272</ele>
        <time>2021-06-19T11:40:06Z</time>
      </trkpt>
      <trkpt lat="42.451338" lon="1.160232">
        <ele>915.231</ele>
        <time>2021-06-19T11:40:07Z</time>
      </trkpt>
      <trkpt lat="42.451364" lon="1.160308">
        <ele>916.047</ele>
        <time>2021-06-19T11:40:10Z</time>
      </trkpt>
      <trkpt lat="42.451408" lon="1.160399">
        <ele>917.251</ele>
        <time>2021-06-19T11:40:14Z</time>
      </trkpt>
      <trkpt lat="42.451422" lon="1.160420">
        <ele>917.455</ele>
        <time>2021-06-19T11:40:15Z</time>
      </trkpt>
      <trkpt lat="42.451467" lon="1.160482">
        <ele>917.735</ele>
        <time>2021-06-19T11:40:18Z</time>
      </trkpt>
      <trkpt lat="42.451496" lon="1.160524">
        <ele>918.148</ele>
        <time>2021-06-19T11:40:20Z</time>
      </trkpt>
      <trkpt lat="42.451558" lon="1.160601">
        <ele>918.885</ele>
        <time>2021-06-19T11:40:24Z</time>
      </trkpt>
      <trkpt lat="42.451602" lon="1.160662">
        <ele>919.674</ele>
        <time>2021-06-19T11:40:27Z</time>
      </trkpt>
      <trkpt lat="42.451615" lon="1.160681">
        <ele>919.956</ele>
        <time>2021-06-19T11:40:28Z</time>
      </trkpt>
      <trkpt lat="42.451673" lon="1.160758">
        <ele>920.821</ele>
        <time>2021-06-19T11:40:32Z</time>
      </trkpt>
      <trkpt lat="42.451707" lon="1.160791">
        <ele>921.008</ele>
        <time>2021-06-19T11:40:34Z</time>
      </trkpt>
      <trkpt lat="42.451750" lon="1.160852">
        <ele>922.014</ele>
        <time>2021-06-19T11:40:37Z</time>
      </trkpt>
      <trkpt lat="42.451808" lon="1.160931">
        <ele>922.613</ele>
        <time>2021-06-19T11:40:41Z</time>
      </trkpt>
      <trkpt lat="42.451861" lon="1.161019">
        <ele>923.279</ele>
        <time>2021-06-19T11:40:45Z</time>
      </trkpt>
      <trkpt lat="42.451901" lon="1.161087">
        <ele>923.493</ele>
        <time>2021-06-19T11:40:48Z</time>
      </trkpt>
      <trkpt lat="42.451954" lon="1.161208">
        <ele>923.797</ele>
        <time>2021-06-19T11:40:53Z</time>
      </trkpt>
      <trkpt lat="42.451988" lon="1.161278">
        <ele>924.157</ele>
        <time>2021-06-19T11:40:56Z</time>
      </trkpt>
      <trkpt lat="42.451997" lon="1.161304">
        <ele>924.330</ele>
        <time>2021-06-19T11:40:57Z</time>
      </trkpt>
      <trkpt lat="42.452034" lon="1.161406">
        <ele>925.587</ele>
        <time>2021-06-19T11:41:01Z</time>
      </trkpt>
      <trkpt lat="42.452061" lon="1.161511">
        <ele>926.943</ele>
        <time>2021-06-19T11:41:05Z</time>
      </trkpt>
      <trkpt lat="42.452070" lon="1.161535">
        <ele>927.164</ele>
        <time>2021-06-19T11:41:06Z</time>
      </trkpt>
      <trkpt lat="42.452093" lon="1.161608">
        <ele>927.910</ele>
        <time>2021-06-19T11:41:09Z</time>
      </trkpt>
      <trkpt lat="42.452119" lon="1.161710">
        <ele>928.608</ele>
        <time>2021-06-19T11:41:13Z</time>
      </trkpt>
      <trkpt lat="42.452125" lon="1.161735">
        <ele>928.621</ele>
        <time>2021-06-19T11:41:14Z</time>
      </trkpt>
      <trkpt lat="42.452148" lon="1.161810">
        <ele>928.550</ele>
        <time>2021-06-19T11:41:17Z</time>
      </trkpt>
      <trkpt lat="42.452160" lon="1.161914">
        <ele>929.196</ele>
        <time>2021-06-19T11:41:21Z</time>
      </trkpt>
      <trkpt lat="42.452167" lon="1.162022">
        <ele>929.620</ele>
        <time>2021-06-19T11:41:25Z</time>
      </trkpt>
      <trkpt lat="42.452157" lon="1.162131">
        <ele>930.484</ele>
        <time>2021-06-19T11:41:29Z</time>
      </trkpt>
      <trkpt lat="42.452152" lon="1.162155">
        <ele>930.674</ele>
        <time>2021-06-19T11:41:30Z</time>
      </trkpt>
      <trkpt lat="42.452136" lon="1.162197">
        <ele>931.137</ele>
        <time>2021-06-19T11:41:32Z</time>
      </trkpt>
      <trkpt lat="42.452103" lon="1.162250">
        <ele>932.354</ele>
        <time>2021-06-19T11:41:35Z</time>
      </trkpt>
      <trkpt lat="42.452070" lon="1.162268">
        <ele>933.246</ele>
        <time>2021-06-19T11:41:37Z</time>
      </trkpt>
      <trkpt lat="42.452034" lon="1.162279">
        <ele>934.288</ele>
        <time>2021-06-19T11:41:39Z</time>
      </trkpt>
      <trkpt lat="42.451969" lon="1.162250">
        <ele>934.516</ele>
        <time>2021-06-19T11:41:43Z</time>
      </trkpt>
      <trkpt lat="42.451908" lon="1.162165">
        <ele>936.108</ele>
        <time>2021-06-19T11:41:48Z</time>
      </trkpt>
      <trkpt lat="42.451893" lon="1.162120">
        <ele>936.921</ele>
        <time>2021-06-19T11:41:50Z</time>
      </trkpt>
      <trkpt lat="42.451884" lon="1.162072">
        <ele>937.360</ele>
        <time>2021-06-19T11:41:52Z</time>
      </trkpt>
      <trkpt lat="42.451857" lon="1.161954">
        <ele>938.466</ele>
        <time>2021-06-19T11:41:57Z</time>
      </trkpt>
      <trkpt lat="42.451827" lon="1.161810">
        <ele>939.130</ele>
        <time>2021-06-19T11:42:03Z</time>
      </trkpt>
      <trkpt lat="42.451818" lon="1.161786">
        <ele>939.354</ele>
        <time>2021-06-19T11:42:04Z</time>
      </trkpt>
      <trkpt lat="42.451806" lon="1.161737">
        <ele>939.594</ele>
        <time>2021-06-19T11:42:06Z</time>
      </trkpt>
      <trkpt lat="42.451779" lon="1.161645">
        <ele>939.557</ele>
        <time>2021-06-19T11:42:10Z</time>
      </trkpt>
      <trkpt lat="42.451733" lon="1.161570">
        <ele>939.874</ele>
        <time>2021-06-19T11:42:14Z</time>
      </trkpt>
      <trkpt lat="42.451658" lon="1.161430">
        <ele>939.981</ele>
        <time>2021-06-19T11:42:21Z</time>
      </trkpt>
      <trkpt lat="42.451608" lon="1.161357">
        <ele>939.861</ele>
        <time>2021-06-19T11:42:25Z</time>
      </trkpt>
      <trkpt lat="42.451528" lon="1.161252">
        <ele>940.317</ele>
        <time>2021-06-19T11:42:31Z</time>
      </trkpt>
      <trkpt lat="42.451502" lon="1.161218">
        <ele>940.508</ele>
        <time>2021-06-19T11:42:33Z</time>
      </trkpt>
      <trkpt lat="42.451476" lon="1.161185">
        <ele>940.715</ele>
        <time>2021-06-19T11:42:35Z</time>
      </trkpt>
      <trkpt lat="42.451429" lon="1.161146">
        <ele>941.434</ele>
        <time>2021-06-19T11:42:38Z</time>
      </trkpt>
      <trkpt lat="42.451366" lon="1.161090">
        <ele>941.920</ele>
        <time>2021-06-19T11:42:42Z</time>
      </trkpt>
      <trkpt lat="42.451275" lon="1.161061">
        <ele>943.024</ele>
        <time>2021-06-19T11:42:47Z</time>
      </trkpt>
      <trkpt lat="42.451257" lon="1.161066">
        <ele>943.568</ele>
        <time>2021-06-19T11:42:48Z</time>
      </trkpt>
      <trkpt lat="42.451188" lon="1.161103">
        <ele>945.548</ele>
        <time>2021-06-19T11:42:52Z</time>
      </trkpt>
      <trkpt lat="42.451135" lon="1.161174">
        <ele>947.281</ele>
        <time>2021-06-19T11:42:56Z</time>
      </trkpt>
      <trkpt lat="42.451120" lon="1.161219">
        <ele>948.068</ele>
        <time>2021-06-19T11:42:58Z</time>
      </trkpt>
      <trkpt lat="42.451109" lon="1.161312">
        <ele>949.358</ele>
        <time>2021-06-19T11:43:02Z</time>
      </trkpt>
      <trkpt lat="42.451138" lon="1.161405">
        <ele>949.952</ele>
        <time>2021-06-19T11:43:06Z</time>
      </trkpt>
      <trkpt lat="42.451158" lon="1.161448">
        <ele>950.617</ele>
        <time>2021-06-19T11:43:08Z</time>
      </trkpt>
      <trkpt lat="42.451170" lon="1.161466">
        <ele>950.808</ele>
        <time>2021-06-19T11:43:09Z</time>
      </trkpt>
      <trkpt lat="42.451210" lon="1.161520">
        <ele>951.252</ele>
        <time>2021-06-19T11:43:12Z</time>
      </trkpt>
      <trkpt lat="42.451260" lon="1.161594">
        <ele>951.711</ele>
        <time>2021-06-19T11:43:16Z</time>
      </trkpt>
      <trkpt lat="42.451290" lon="1.161656">
        <ele>952.387</ele>
        <time>2021-06-19T11:43:19Z</time>
      </trkpt>
      <trkpt lat="42.451302" lon="1.161675">
        <ele>952.411</ele>
        <time>2021-06-19T11:43:20Z</time>
      </trkpt>
      <trkpt lat="42.451349" lon="1.161748">
        <ele>952.415</ele>
        <time>2021-06-19T11:43:24Z</time>
      </trkpt>
      <trkpt lat="42.451404" lon="1.161844">
        <ele>952.225</ele>
        <time>2021-06-19T11:43:29Z</time>
      </trkpt>
      <trkpt lat="42.451414" lon="1.161865">
        <ele>952.388</ele>
        <time>2021-06-19T11:43:30Z</time>
      </trkpt>
      <trkpt lat="42.451455" lon="1.161943">
        <ele>952.615</ele>
        <time>2021-06-19T11:43:34Z</time>
      </trkpt>
      <trkpt lat="42.451478" lon="1.162008">
        <ele>953.243</ele>
        <time>2021-06-19T11:43:37Z</time>
      </trkpt>
      <trkpt lat="42.451488" lon="1.162076">
        <ele>954.264</ele>
        <time>2021-06-19T11:43:40Z</time>
      </trkpt>
      <trkpt lat="42.451466" lon="1.162113">
        <ele>955.510</ele>
        <time>2021-06-19T11:43:42Z</time>
      </trkpt>
      <trkpt lat="42.451404" lon="1.162068">
        <ele>956.308</ele>
        <time>2021-06-19T11:43:46Z</time>
      </trkpt>
      <trkpt lat="42.451324" lon="1.161939">
        <ele>956.941</ele>
        <time>2021-06-19T11:43:52Z</time>
      </trkpt>
      <trkpt lat="42.451291" lon="1.161902">
        <ele>957.670</ele>
        <time>2021-06-19T11:43:54Z</time>
      </trkpt>
      <trkpt lat="42.451203" lon="1.161775">
        <ele>957.866</ele>
        <time>2021-06-19T11:44:00Z</time>
      </trkpt>
      <trkpt lat="42.451140" lon="1.161688">
        <ele>957.080</ele>
        <time>2021-06-19T11:44:04Z</time>
      </trkpt>
      <trkpt lat="42.451054" lon="1.161594">
        <ele>958.864</ele>
        <time>2021-06-19T11:44:09Z</time>
      </trkpt>
      <trkpt lat="42.450972" lon="1.161458">
        <ele>960.034</ele>
        <time>2021-06-19T11:44:15Z</time>
      </trkpt>
      <trkpt lat="42.450951" lon="1.161407">
        <ele>959.847</ele>
        <time>2021-06-19T11:44:17Z</time>
      </trkpt>
      <trkpt lat="42.450933" lon="1.161355">
        <ele>959.754</ele>
        <time>2021-06-19T11:44:19Z</time>
      </trkpt>
      <trkpt lat="42.450897" lon="1.161250">
        <ele>960.112</ele>
        <time>2021-06-19T11:44:23Z</time>
      </trkpt>
      <trkpt lat="42.450877" lon="1.161198">
        <ele>960.332</ele>
        <time>2021-06-19T11:44:25Z</time>
      </trkpt>
      <trkpt lat="42.450832" lon="1.161098">
        <ele>960.805</ele>
        <time>2021-06-19T11:44:29Z</time>
      </trkpt>
      <trkpt lat="42.450765" lon="1.160980">
        <ele>962.108</ele>
        <time>2021-06-19T11:44:34Z</time>
      </trkpt>
      <trkpt lat="42.450736" lon="1.160936">
        <ele>962.888</ele>
        <time>2021-06-19T11:44:36Z</time>
      </trkpt>
      <trkpt lat="42.450712" lon="1.160891">
        <ele>963.247</ele>
        <time>2021-06-19T11:44:38Z</time>
      </trkpt>
      <trkpt lat="42.450658" lon="1.160808">
        <ele>964.443</ele>
        <time>2021-06-19T11:44:42Z</time>
      </trkpt>
      <trkpt lat="42.450632" lon="1.160764">
        <ele>964.667</ele>
        <time>2021-06-19T11:44:44Z</time>
      </trkpt>
      <trkpt lat="42.450588" lon="1.160703">
        <ele>965.481</ele>
        <time>2021-06-19T11:44:47Z</time>
      </trkpt>
      <trkpt lat="42.450524" lon="1.160585">
        <ele>966.071</ele>
        <time>2021-06-19T11:44:52Z</time>
      </trkpt>
      <trkpt lat="42.450511" lon="1.160562">
        <ele>966.264</ele>
        <time>2021-06-19T11:44:53Z</time>
      </trkpt>
      <trkpt lat="42.450476" lon="1.160488">
        <ele>966.631</ele>
        <time>2021-06-19T11:44:56Z</time>
      </trkpt>
      <trkpt lat="42.450417" lon="1.160408">
        <ele>968.064</ele>
        <time>2021-06-19T11:45:00Z</time>
      </trkpt>
      <trkpt lat="42.450401" lon="1.160388">
        <ele>968.306</ele>
        <time>2021-06-19T11:45:01Z</time>
      </trkpt>
      <trkpt lat="42.450338" lon="1.160313">
        <ele>969.216</ele>
        <time>2021-06-19T11:45:05Z</time>
      </trkpt>
      <trkpt lat="42.450255" lon="1.160233">
        <ele>970.908</ele>
        <time>2021-06-19T11:45:10Z</time>
      </trkpt>
      <trkpt lat="42.450198" lon="1.160171">
        <ele>972.463</ele>
        <time>2021-06-19T11:45:14Z</time>
      </trkpt>
      <trkpt lat="42.450151" lon="1.160096">
        <ele>972.582</ele>
        <time>2021-06-19T11:45:18Z</time>
      </trkpt>
      <trkpt lat="42.450139" lon="1.160079">
        <ele>972.618</ele>
        <time>2021-06-19T11:45:19Z</time>
      </trkpt>
      <trkpt lat="42.450099" lon="1.160028">
        <ele>973.142</ele>
        <time>2021-06-19T11:45:22Z</time>
      </trkpt>
      <trkpt lat="42.450040" lon="1.159968">
        <ele>974.466</ele>
        <time>2021-06-19T11:45:26Z</time>
      </trkpt>
      <trkpt lat="42.449997" lon="1.159923">
        <ele>975.426</ele>
        <time>2021-06-19T11:45:29Z</time>
      </trkpt>
      <trkpt lat="42.449976" lon="1.159884">
        <ele>974.819</ele>
        <time>2021-06-19T11:45:31Z</time>
      </trkpt>
      <trkpt lat="42.449944" lon="1.159825">
        <ele>973.986</ele>
        <time>2021-06-19T11:45:34Z</time>
      </trkpt>
      <trkpt lat="42.449890" lon="1.159759">
        <ele>973.467</ele>
        <time>2021-06-19T11:45:38Z</time>
      </trkpt>
      <trkpt lat="42.449828" lon="1.159715">
        <ele>973.981</ele>
        <time>2021-06-19T11:45:42Z</time>
      </trkpt>
      <trkpt lat="42.449758" lon="1.159707">
        <ele>976.019</ele>
        <time>2021-06-19T11:45:46Z</time>
      </trkpt>
      <trkpt lat="42.449685" lon="1.159711">
        <ele>978.408</ele>
        <time>2021-06-19T11:45:50Z</time>
      </trkpt>
      <trkpt lat="42.449632" lon="1.159716">
        <ele>980.073</ele>
        <time>2021-06-19T11:45:53Z</time>
      </trkpt>
      <trkpt lat="42.449580" lon="1.159716">
        <ele>981.342</ele>
        <time>2021-06-19T11:45:56Z</time>
      </trkpt>
      <trkpt lat="42.449545" lon="1.159718">
        <ele>982.398</ele>
        <time>2021-06-19T11:45:58Z</time>
      </trkpt>
      <trkpt lat="42.449480" lon="1.159703">
        <ele>983.492</ele>
        <time>2021-06-19T11:46:02Z</time>
      </trkpt>
      <trkpt lat="42.449436" lon="1.159680">
        <ele>984.076</ele>
        <time>2021-06-19T11:46:05Z</time>
      </trkpt>
      <trkpt lat="42.449426" lon="1.159670">
        <ele>984.256</ele>
        <time>2021-06-19T11:46:06Z</time>
      </trkpt>
      <trkpt lat="42.449370" lon="1.159554">
        <ele>982.949</ele>
        <time>2021-06-19T11:46:11Z</time>
      </trkpt>
      <trkpt lat="42.449355" lon="1.159508">
        <ele>981.966</ele>
        <time>2021-06-19T11:46:13Z</time>
      </trkpt>
      <trkpt lat="42.449304" lon="1.159429">
        <ele>981.668</ele>
        <time>2021-06-19T11:46:17Z</time>
      </trkpt>
      <trkpt lat="42.449270" lon="1.159403">
        <ele>982.442</ele>
        <time>2021-06-19T11:46:19Z</time>
      </trkpt>
      <trkpt lat="42.449250" lon="1.159396">
        <ele>983.126</ele>
        <time>2021-06-19T11:46:20Z</time>
      </trkpt>
      <trkpt lat="42.449161" lon="1.159338">
        <ele>984.908</ele>
        <time>2021-06-19T11:46:26Z</time>
      </trkpt>
      <trkpt lat="42.449073" lon="1.159329">
        <ele>985.833</ele>
        <time>2021-06-19T11:46:31Z</time>
      </trkpt>
      <trkpt lat="42.448982" lon="1.159341">
        <ele>987.672</ele>
        <time>2021-06-19T11:46:36Z</time>
      </trkpt>
      <trkpt lat="42.448874" lon="1.159357">
        <ele>989.918</ele>
        <time>2021-06-19T11:46:42Z</time>
      </trkpt>
      <trkpt lat="42.448848" lon="1.159360">
        <ele>990.742</ele>
        <time>2021-06-19T11:46:44Z</time>
      </trkpt>
      <trkpt lat="42.448817" lon="1.159334">
        <ele>990.836</ele>
        <time>2021-06-19T11:46:47Z</time>
      </trkpt>
      <trkpt lat="42.448815" lon="1.159313">
        <ele>990.276</ele>
        <time>2021-06-19T11:46:48Z</time>
      </trkpt>
      <trkpt lat="42.448817" lon="1.159294">
        <ele>989.689</ele>
        <time>2021-06-19T11:46:49Z</time>
      </trkpt>
      <trkpt lat="42.448821" lon="1.159237">
        <ele>987.826</ele>
        <time>2021-06-19T11:46:51Z</time>
      </trkpt>
      <trkpt lat="42.448846" lon="1.159089">
        <ele>984.325</ele>
        <time>2021-06-19T11:46:56Z</time>
      </trkpt>
      <trkpt lat="42.448848" lon="1.159059">
        <ele>984.226</ele>
        <time>2021-06-19T11:46:57Z</time>
      </trkpt>
      <trkpt lat="42.448828" lon="1.158913">
        <ele>985.308</ele>
        <time>2021-06-19T11:47:02Z</time>
      </trkpt>
      <trkpt lat="42.448742" lon="1.158776">
        <ele>987.408</ele>
        <time>2021-06-19T11:47:08Z</time>
      </trkpt>
      <trkpt lat="42.448633" lon="1.158768">
        <ele>991.499</ele>
        <time>2021-06-19T11:47:13Z</time>
      </trkpt>
      <trkpt lat="42.448510" lon="1.158774">
        <ele>994.938</ele>
        <time>2021-06-19T11:47:19Z</time>
      </trkpt>
      <trkpt lat="42.448495" lon="1.158761">
        <ele>994.874</ele>
        <time>2021-06-19T11:47:20Z</time>
      </trkpt>
      <trkpt lat="42.448476" lon="1.158700">
        <ele>993.118</ele>
        <time>2021-06-19T11:47:23Z</time>
      </trkpt>
      <trkpt lat="42.448483" lon="1.158640">
        <ele>990.772</ele>
        <time>2021-06-19T11:47:25Z</time>
      </trkpt>
      <trkpt lat="42.448489" lon="1.158611">
        <ele>989.542</ele>
        <time>2021-06-19T11:47:26Z</time>
      </trkpt>
      <trkpt lat="42.448529" lon="1.158501">
        <ele>988.975</ele>
        <time>2021-06-19T11:47:30Z</time>
      </trkpt>
      <trkpt lat="42.448541" lon="1.158475">
        <ele>988.532</ele>
        <time>2021-06-19T11:47:31Z</time>
      </trkpt>
      <trkpt lat="42.448550" lon="1.158318">
        <ele>988.554</ele>
        <time>2021-06-19T11:47:36Z</time>
      </trkpt>
      <trkpt lat="42.448485" lon="1.158175">
        <ele>991.256</ele>
        <time>2021-06-19T11:47:41Z</time>
      </trkpt>
      <trkpt lat="42.448467" lon="1.158155">
        <ele>992.011</ele>
        <time>2021-06-19T11:47:42Z</time>
      </trkpt>
      <trkpt lat="42.448417" lon="1.158097">
        <ele>993.808</ele>
        <time>2021-06-19T11:47:45Z</time>
      </trkpt>
      <trkpt lat="42.448398" lon="1.158074">
        <ele>994.492</ele>
        <time>2021-06-19T11:47:46Z</time>
      </trkpt>
      <trkpt lat="42.448323" lon="1.157995">
        <ele>995.941</ele>
        <time>2021-06-19T11:47:50Z</time>
      </trkpt>
      <trkpt lat="42.448289" lon="1.157951">
        <ele>996.217</ele>
        <time>2021-06-19T11:47:52Z</time>
      </trkpt>
      <trkpt lat="42.448217" lon="1.157842">
        <ele>996.921</ele>
        <time>2021-06-19T11:47:57Z</time>
      </trkpt>
      <trkpt lat="42.448189" lon="1.157801">
        <ele>997.315</ele>
        <time>2021-06-19T11:47:59Z</time>
      </trkpt>
      <trkpt lat="42.448135" lon="1.157700">
        <ele>997.345</ele>
        <time>2021-06-19T11:48:03Z</time>
      </trkpt>
      <trkpt lat="42.448061" lon="1.157584">
        <ele>997.978</ele>
        <time>2021-06-19T11:48:08Z</time>
      </trkpt>
      <trkpt lat="42.448028" lon="1.157543">
        <ele>998.655</ele>
        <time>2021-06-19T11:48:10Z</time>
      </trkpt>
      <trkpt lat="42.447973" lon="1.157494">
        <ele>1000.614</ele>
        <time>2021-06-19T11:48:13Z</time>
      </trkpt>
      <trkpt lat="42.447907" lon="1.157407">
        <ele>1002.254</ele>
        <time>2021-06-19T11:48:18Z</time>
      </trkpt>
      <trkpt lat="42.447897" lon="1.157383">
        <ele>1002.209</ele>
        <time>2021-06-19T11:48:19Z</time>
      </trkpt>
      <trkpt lat="42.447844" lon="1.157240">
        <ele>1001.608</ele>
        <time>2021-06-19T11:48:25Z</time>
      </trkpt>
      <trkpt lat="42.447838" lon="1.157216">
        <ele>1001.418</ele>
        <time>2021-06-19T11:48:26Z</time>
      </trkpt>
      <trkpt lat="42.447795" lon="1.157123">
        <ele>1001.597</ele>
        <time>2021-06-19T11:48:30Z</time>
      </trkpt>
      <trkpt lat="42.447749" lon="1.157061">
        <ele>1002.093</ele>
        <time>2021-06-19T11:48:33Z</time>
      </trkpt>
      <trkpt lat="42.447698" lon="1.157009">
        <ele>1002.467</ele>
        <time>2021-06-19T11:48:36Z</time>
      </trkpt>
      <trkpt lat="42.447617" lon="1.156964">
        <ele>1003.861</ele>
        <time>2021-06-19T11:48:40Z</time>
      </trkpt>
      <trkpt lat="42.447595" lon="1.156954">
        <ele>1004.231</ele>
        <time>2021-06-19T11:48:41Z</time>
      </trkpt>
      <trkpt lat="42.447509" lon="1.156929">
        <ele>1006.154</ele>
        <time>2021-06-19T11:48:45Z</time>
      </trkpt>
      <trkpt lat="42.447445" lon="1.156903">
        <ele>1007.221</ele>
        <time>2021-06-19T11:48:48Z</time>
      </trkpt>
      <trkpt lat="42.447407" lon="1.156881">
        <ele>1007.668</ele>
        <time>2021-06-19T11:48:50Z</time>
      </trkpt>
      <trkpt lat="42.447333" lon="1.156842">
        <ele>1008.642</ele>
        <time>2021-06-19T11:48:54Z</time>
      </trkpt>
      <trkpt lat="42.447296" lon="1.156820">
        <ele>1009.026</ele>
        <time>2021-06-19T11:48:56Z</time>
      </trkpt>
      <trkpt lat="42.447259" lon="1.156803">
        <ele>1009.608</ele>
        <time>2021-06-19T11:48:58Z</time>
      </trkpt>
      <trkpt lat="42.447177" lon="1.156726">
        <ele>1010.053</ele>
        <time>2021-06-19T11:49:03Z</time>
      </trkpt>
      <trkpt lat="42.447169" lon="1.156712">
        <ele>1009.922</ele>
        <time>2021-06-19T11:49:04Z</time>
      </trkpt>
      <trkpt lat="42.447131" lon="1.156615">
        <ele>1009.288</ele>
        <time>2021-06-19T11:49:08Z</time>
      </trkpt>
      <trkpt lat="42.447123" lon="1.156589">
        <ele>1009.192</ele>
        <time>2021-06-19T11:49:09Z</time>
      </trkpt>
      <trkpt lat="42.447086" lon="1.156481">
        <ele>1008.716</ele>
        <time>2021-06-19T11:49:13Z</time>
      </trkpt>
      <trkpt lat="42.447064" lon="1.156424">
        <ele>1008.766</ele>
        <time>2021-06-19T11:49:15Z</time>
      </trkpt>
      <trkpt lat="42.447007" lon="1.156332">
        <ele>1009.879</ele>
        <time>2021-06-19T11:49:19Z</time>
      </trkpt>
      <trkpt lat="42.446949" lon="1.156255">
        <ele>1011.496</ele>
        <time>2021-06-19T11:49:23Z</time>
      </trkpt>
      <trkpt lat="42.446937" lon="1.156232">
        <ele>1011.513</ele>
        <time>2021-06-19T11:49:24Z</time>
      </trkpt>
      <trkpt lat="42.446886" lon="1.156134">
        <ele>1011.943</ele>
        <time>2021-06-19T11:49:28Z</time>
      </trkpt>
      <trkpt lat="42.446863" lon="1.156073">
        <ele>1011.707</ele>
        <time>2021-06-19T11:49:30Z</time>
      </trkpt>
      <trkpt lat="42.446822" lon="1.156007">
        <ele>1012.008</ele>
        <time>2021-06-19T11:49:33Z</time>
      </trkpt>
      <trkpt lat="42.446762" lon="1.155918">
        <ele>1012.788</ele>
        <time>2021-06-19T11:49:37Z</time>
      </trkpt>
      <trkpt lat="42.446680" lon="1.155918">
        <ele>1016.377</ele>
        <time>2021-06-19T11:49:41Z</time>
      </trkpt>
      <trkpt lat="42.446665" lon="1.155985">
        <ele>1018.373</ele>
        <time>2021-06-19T11:49:44Z</time>
      </trkpt>
      <trkpt lat="42.446670" lon="1.156006">
        <ele>1018.677</ele>
        <time>2021-06-19T11:49:45Z</time>
      </trkpt>
      <trkpt lat="42.446689" lon="1.156048">
        <ele>1018.771</ele>
        <time>2021-06-19T11:49:47Z</time>
      </trkpt>
      <trkpt lat="42.446700" lon="1.156067">
        <ele>1018.631</ele>
        <time>2021-06-19T11:49:48Z</time>
      </trkpt>
      <trkpt lat="42.446744" lon="1.156146">
        <ele>1018.394</ele>
        <time>2021-06-19T11:49:52Z</time>
      </trkpt>
      <trkpt lat="42.446756" lon="1.156168">
        <ele>1018.241</ele>
        <time>2021-06-19T11:49:53Z</time>
      </trkpt>
      <trkpt lat="42.446791" lon="1.156233">
        <ele>1017.838</ele>
        <time>2021-06-19T11:49:56Z</time>
      </trkpt>
      <trkpt lat="42.446843" lon="1.156385">
        <ele>1018.370</ele>
        <time>2021-06-19T11:50:02Z</time>
      </trkpt>
      <trkpt lat="42.446877" lon="1.156494">
        <ele>1018.617</ele>
        <time>2021-06-19T11:50:06Z</time>
      </trkpt>
      <trkpt lat="42.446904" lon="1.156631">
        <ele>1019.908</ele>
        <time>2021-06-19T11:50:11Z</time>
      </trkpt>
      <trkpt lat="42.446954" lon="1.156754">
        <ele>1019.990</ele>
        <time>2021-06-19T11:50:16Z</time>
      </trkpt>
      <trkpt lat="42.447004" lon="1.156887">
        <ele>1020.439</ele>
        <time>2021-06-19T11:50:21Z</time>
      </trkpt>
      <trkpt lat="42.447016" lon="1.156915">
        <ele>1020.635</ele>
        <time>2021-06-19T11:50:22Z</time>
      </trkpt>
      <trkpt lat="42.447089" lon="1.157099">
        <ele>1021.389</ele>
        <time>2021-06-19T11:50:28Z</time>
      </trkpt>
      <trkpt lat="42.447147" lon="1.157205">
        <ele>1021.863</ele>
        <time>2021-06-19T11:50:32Z</time>
      </trkpt>
      <trkpt lat="42.447240" lon="1.157320">
        <ele>1022.223</ele>
        <time>2021-06-19T11:50:37Z</time>
      </trkpt>
      <trkpt lat="42.447400" lon="1.157501">
        <ele>1022.546</ele>
        <time>2021-06-19T11:50:45Z</time>
      </trkpt>
      <trkpt lat="42.447418" lon="1.157526">
        <ele>1022.693</ele>
        <time>2021-06-19T11:50:46Z</time>
      </trkpt>
      <trkpt lat="42.447514" lon="1.157721">
        <ele>1023.732</ele>
        <time>2021-06-19T11:50:53Z</time>
      </trkpt>
      <trkpt lat="42.447522" lon="1.157752">
        <ele>1023.892</ele>
        <time>2021-06-19T11:50:54Z</time>
      </trkpt>
      <trkpt lat="42.447545" lon="1.157883">
        <ele>1024.211</ele>
        <time>2021-06-19T11:50:58Z</time>
      </trkpt>
      <trkpt lat="42.447556" lon="1.158018">
        <ele>1024.908</ele>
        <time>2021-06-19T11:51:02Z</time>
      </trkpt>
      <trkpt lat="42.447563" lon="1.158086">
        <ele>1025.290</ele>
        <time>2021-06-19T11:51:04Z</time>
      </trkpt>
      <trkpt lat="42.447591" lon="1.158285">
        <ele>1026.069</ele>
        <time>2021-06-19T11:51:10Z</time>
      </trkpt>
      <trkpt lat="42.447601" lon="1.158349">
        <ele>1026.325</ele>
        <time>2021-06-19T11:51:12Z</time>
      </trkpt>
      <trkpt lat="42.447621" lon="1.158444">
        <ele>1026.969</ele>
        <time>2021-06-19T11:51:15Z</time>
      </trkpt>
      <trkpt lat="42.447674" lon="1.158598">
        <ele>1027.223</ele>
        <time>2021-06-19T11:51:20Z</time>
      </trkpt>
      <trkpt lat="42.447683" lon="1.158628">
        <ele>1027.313</ele>
        <time>2021-06-19T11:51:21Z</time>
      </trkpt>
      <trkpt lat="42.447720" lon="1.158785">
        <ele>1027.556</ele>
        <time>2021-06-19T11:51:26Z</time>
      </trkpt>
      <trkpt lat="42.447718" lon="1.158873">
        <ele>1028.563</ele>
        <time>2021-06-19T11:51:29Z</time>
      </trkpt>
      <trkpt lat="42.447715" lon="1.158901">
        <ele>1028.991</ele>
        <time>2021-06-19T11:51:30Z</time>
      </trkpt>
      <trkpt lat="42.447662" lon="1.159047">
        <ele>1032.681</ele>
        <time>2021-06-19T11:51:35Z</time>
      </trkpt>
      <trkpt lat="42.447604" lon="1.159212">
        <ele>1037.219</ele>
        <time>2021-06-19T11:51:41Z</time>
      </trkpt>
      <trkpt lat="42.447606" lon="1.159259">
        <ele>1037.408</ele>
        <time>2021-06-19T11:51:43Z</time>
      </trkpt>
      <trkpt lat="42.447631" lon="1.159317">
        <ele>1036.766</ele>
        <time>2021-06-19T11:51:46Z</time>
      </trkpt>
      <trkpt lat="42.447658" lon="1.159350">
        <ele>1036.175</ele>
        <time>2021-06-19T11:51:48Z</time>
      </trkpt>
      <trkpt lat="42.447694" lon="1.159369">
        <ele>1035.241</ele>
        <time>2021-06-19T11:51:50Z</time>
      </trkpt>
      <trkpt lat="42.447716" lon="1.159381">
        <ele>1034.785</ele>
        <time>2021-06-19T11:51:51Z</time>
      </trkpt>
      <trkpt lat="42.447786" lon="1.159420">
        <ele>1033.929</ele>
        <time>2021-06-19T11:51:54Z</time>
      </trkpt>
      <trkpt lat="42.447797" lon="1.159442">
        <ele>1034.479</ele>
        <time>2021-06-19T11:51:55Z</time>
      </trkpt>
      <trkpt lat="42.447813" lon="1.159493">
        <ele>1035.562</ele>
        <time>2021-06-19T11:51:57Z</time>
      </trkpt>
      <trkpt lat="42.447820" lon="1.159552">
        <ele>1037.119</ele>
        <time>2021-06-19T11:51:59Z</time>
      </trkpt>
      <trkpt lat="42.447818" lon="1.159613">
        <ele>1039.131</ele>
        <time>2021-06-19T11:52:01Z</time>
      </trkpt>
      <trkpt lat="42.447824" lon="1.159753">
        <ele>1042.761</ele>
        <time>2021-06-19T11:52:06Z</time>
      </trkpt>
      <trkpt lat="42.447856" lon="1.159905">
        <ele>1043.407</ele>
        <time>2021-06-19T11:52:11Z</time>
      </trkpt>
      <trkpt lat="42.447861" lon="1.159929">
        <ele>1043.608</ele>
        <time>2021-06-19T11:52:12Z</time>
      </trkpt>
      <trkpt lat="42.447937" lon="1.160032">
        <ele>1041.950</ele>
        <time>2021-06-19T11:52:16Z</time>
      </trkpt>
      <trkpt lat="42.447964" lon="1.160056">
        <ele>1041.399</ele>
        <time>2021-06-19T11:52:17Z</time>
      </trkpt>
      <trkpt lat="42.448107" lon="1.160160">
        <ele>1039.375</ele>
        <time>2021-06-19T11:52:22Z</time>
      </trkpt>
      <trkpt lat="42.448165" lon="1.160213">
        <ele>1039.529</ele>
        <time>2021-06-19T11:52:24Z</time>
      </trkpt>
      <trkpt lat="42.448206" lon="1.160266">
        <ele>1040.223</ele>
        <time>2021-06-19T11:52:26Z</time>
      </trkpt>
      <trkpt lat="42.448297" lon="1.160429">
        <ele>1043.283</ele>
        <time>2021-06-19T11:52:31Z</time>
      </trkpt>
      <trkpt lat="42.448313" lon="1.160462">
        <ele>1043.776</ele>
        <time>2021-06-19T11:52:32Z</time>
      </trkpt>
      <trkpt lat="42.448381" lon="1.160622">
        <ele>1045.683</ele>
        <time>2021-06-19T11:52:37Z</time>
      </trkpt>
      <trkpt lat="42.448394" lon="1.160685">
        <ele>1046.839</ele>
        <time>2021-06-19T11:52:39Z</time>
      </trkpt>
      <trkpt lat="42.448435" lon="1.160804">
        <ele>1047.901</ele>
        <time>2021-06-19T11:52:43Z</time>
      </trkpt>
      <trkpt lat="42.448465" lon="1.160876">
        <ele>1047.921</ele>
        <time>2021-06-19T11:52:46Z</time>
      </trkpt>
      <trkpt lat="42.448482" lon="1.160922">
        <ele>1047.808</ele>
        <time>2021-06-19T11:52:48Z</time>
      </trkpt>
      <trkpt lat="42.448515" lon="1.161036">
        <ele>1048.320</ele>
        <time>2021-06-19T11:52:53Z</time>
      </trkpt>
      <trkpt lat="42.448525" lon="1.161078">
        <ele>1048.659</ele>
        <time>2021-06-19T11:52:55Z</time>
      </trkpt>
      <trkpt lat="42.448532" lon="1.161124">
        <ele>1049.095</ele>
        <time>2021-06-19T11:52:57Z</time>
      </trkpt>
      <trkpt lat="42.448535" lon="1.161199">
        <ele>1049.919</ele>
        <time>2021-06-19T11:53:01Z</time>
      </trkpt>
      <trkpt lat="42.448534" lon="1.161214">
        <ele>1050.273</ele>
        <time>2021-06-19T11:53:02Z</time>
      </trkpt>
      <trkpt lat="42.448541" lon="1.161271">
        <ele>1050.623</ele>
        <time>2021-06-19T11:53:05Z</time>
      </trkpt>
      <trkpt lat="42.448545" lon="1.161290">
        <ele>1050.736</ele>
        <time>2021-06-19T11:53:06Z</time>
      </trkpt>
      <trkpt lat="42.448558" lon="1.161312">
        <ele>1050.313</ele>
        <time>2021-06-19T11:53:07Z</time>
      </trkpt>
      <trkpt lat="42.448613" lon="1.161393">
        <ele>1049.023</ele>
        <time>2021-06-19T11:53:11Z</time>
      </trkpt>
      <trkpt lat="42.448705" lon="1.161494">
        <ele>1049.383</ele>
        <time>2021-06-19T11:53:16Z</time>
      </trkpt>
      <trkpt lat="42.448724" lon="1.161512">
        <ele>1049.411</ele>
        <time>2021-06-19T11:53:17Z</time>
      </trkpt>
      <trkpt lat="42.448796" lon="1.161559">
        <ele>1049.208</ele>
        <time>2021-06-19T11:53:21Z</time>
      </trkpt>
      <trkpt lat="42.448836" lon="1.161583">
        <ele>1049.129</ele>
        <time>2021-06-19T11:53:23Z</time>
      </trkpt>
      <trkpt lat="42.448895" lon="1.161625">
        <ele>1049.348</ele>
        <time>2021-06-19T11:53:27Z</time>
      </trkpt>
      <trkpt lat="42.448954" lon="1.161671">
        <ele>1049.634</ele>
        <time>2021-06-19T11:53:30Z</time>
      </trkpt>
      <trkpt lat="42.448995" lon="1.161702">
        <ele>1050.098</ele>
        <time>2021-06-19T11:53:32Z</time>
      </trkpt>
      <trkpt lat="42.449092" lon="1.161781">
        <ele>1051.412</ele>
        <time>2021-06-19T11:53:37Z</time>
      </trkpt>
      <trkpt lat="42.449112" lon="1.161794">
        <ele>1051.662</ele>
        <time>2021-06-19T11:53:38Z</time>
      </trkpt>
      <trkpt lat="42.449228" lon="1.161882">
        <ele>1052.755</ele>
        <time>2021-06-19T11:53:44Z</time>
      </trkpt>
      <trkpt lat="42.449246" lon="1.161897">
        <ele>1052.852</ele>
        <time>2021-06-19T11:53:45Z</time>
      </trkpt>
      <trkpt lat="42.449329" lon="1.161956">
        <ele>1052.675</ele>
        <time>2021-06-19T11:53:49Z</time>
      </trkpt>
      <trkpt lat="42.449422" lon="1.162059">
        <ele>1053.328</ele>
        <time>2021-06-19T11:53:54Z</time>
      </trkpt>
      <trkpt lat="42.449473" lon="1.162123">
        <ele>1054.120</ele>
        <time>2021-06-19T11:53:57Z</time>
      </trkpt>
      <trkpt lat="42.449563" lon="1.162264">
        <ele>1056.108</ele>
        <time>2021-06-19T11:54:03Z</time>
      </trkpt>
      <trkpt lat="42.449627" lon="1.162376">
        <ele>1056.494</ele>
        <time>2021-06-19T11:54:08Z</time>
      </trkpt>
      <trkpt lat="42.449651" lon="1.162412">
        <ele>1056.493</ele>
        <time>2021-06-19T11:54:10Z</time>
      </trkpt>
      <trkpt lat="42.449691" lon="1.162500">
        <ele>1057.029</ele>
        <time>2021-06-19T11:54:14Z</time>
      </trkpt>
      <trkpt lat="42.449733" lon="1.162589">
        <ele>1057.423</ele>
        <time>2021-06-19T11:54:18Z</time>
      </trkpt>
      <trkpt lat="42.449743" lon="1.162612">
        <ele>1057.687</ele>
        <time>2021-06-19T11:54:19Z</time>
      </trkpt>
      <trkpt lat="42.449768" lon="1.162682">
        <ele>1058.217</ele>
        <time>2021-06-19T11:54:22Z</time>
      </trkpt>
      <trkpt lat="42.449816" lon="1.162791">
        <ele>1058.890</ele>
        <time>2021-06-19T11:54:27Z</time>
      </trkpt>
      <trkpt lat="42.449836" lon="1.162860">
        <ele>1059.377</ele>
        <time>2021-06-19T11:54:30Z</time>
      </trkpt>
      <trkpt lat="42.449851" lon="1.162903">
        <ele>1059.652</ele>
        <time>2021-06-19T11:54:32Z</time>
      </trkpt>
      <trkpt lat="42.449858" lon="1.162925">
        <ele>1059.753</ele>
        <time>2021-06-19T11:54:33Z</time>
      </trkpt>
      <trkpt lat="42.449878" lon="1.163014">
        <ele>1060.508</ele>
        <time>2021-06-19T11:54:37Z</time>
      </trkpt>
      <trkpt lat="42.449880" lon="1.163037">
        <ele>1060.808</ele>
        <time>2021-06-19T11:54:38Z</time>
      </trkpt>
      <trkpt lat="42.449856" lon="1.163126">
        <ele>1064.182</ele>
        <time>2021-06-19T11:54:42Z</time>
      </trkpt>
      <trkpt lat="42.449827" lon="1.163156">
        <ele>1065.991</ele>
        <time>2021-06-19T11:54:44Z</time>
      </trkpt>
      <trkpt lat="42.449809" lon="1.163164">
        <ele>1066.767</ele>
        <time>2021-06-19T11:54:45Z</time>
      </trkpt>
      <trkpt lat="42.449791" lon="1.163165">
        <ele>1067.351</ele>
        <time>2021-06-19T11:54:46Z</time>
      </trkpt>
      <trkpt lat="42.449743" lon="1.163139">
        <ele>1067.775</ele>
        <time>2021-06-19T11:54:49Z</time>
      </trkpt>
      <trkpt lat="42.449688" lon="1.163063">
        <ele>1066.885</ele>
        <time>2021-06-19T11:54:54Z</time>
      </trkpt>
      <trkpt lat="42.449682" lon="1.163037">
        <ele>1066.438</ele>
        <time>2021-06-19T11:54:55Z</time>
      </trkpt>
      <trkpt lat="42.449671" lon="1.163013">
        <ele>1066.535</ele>
        <time>2021-06-19T11:54:56Z</time>
      </trkpt>
      <trkpt lat="42.449620" lon="1.162945">
        <ele>1067.461</ele>
        <time>2021-06-19T11:55:00Z</time>
      </trkpt>
      <trkpt lat="42.449607" lon="1.162928">
        <ele>1067.621</ele>
        <time>2021-06-19T11:55:01Z</time>
      </trkpt>
      <trkpt lat="42.449557" lon="1.162860">
        <ele>1068.113</ele>
        <time>2021-06-19T11:55:05Z</time>
      </trkpt>
      <trkpt lat="42.449499" lon="1.162802">
        <ele>1068.808</ele>
        <time>2021-06-19T11:55:09Z</time>
      </trkpt>
      <trkpt lat="42.449483" lon="1.162788">
        <ele>1069.073</ele>
        <time>2021-06-19T11:55:10Z</time>
      </trkpt>
      <trkpt lat="42.449437" lon="1.162710">
        <ele>1069.062</ele>
        <time>2021-06-19T11:55:14Z</time>
      </trkpt>
      <trkpt lat="42.449411" lon="1.162674">
        <ele>1069.138</ele>
        <time>2021-06-19T11:55:16Z</time>
      </trkpt>
      <trkpt lat="42.449359" lon="1.162603">
        <ele>1069.532</ele>
        <time>2021-06-19T11:55:20Z</time>
      </trkpt>
      <trkpt lat="42.449287" lon="1.162518">
        <ele>1070.456</ele>
        <time>2021-06-19T11:55:25Z</time>
      </trkpt>
      <trkpt lat="42.449242" lon="1.162470">
        <ele>1070.976</ele>
        <time>2021-06-19T11:55:28Z</time>
      </trkpt>
      <trkpt lat="42.449195" lon="1.162425">
        <ele>1071.549</ele>
        <time>2021-06-19T11:55:31Z</time>
      </trkpt>
      <trkpt lat="42.449087" lon="1.162355">
        <ele>1072.066</ele>
        <time>2021-06-19T11:55:37Z</time>
      </trkpt>
      <trkpt lat="42.449053" lon="1.162334">
        <ele>1072.155</ele>
        <time>2021-06-19T11:55:39Z</time>
      </trkpt>
      <trkpt lat="42.448990" lon="1.162279">
        <ele>1072.107</ele>
        <time>2021-06-19T11:55:43Z</time>
      </trkpt>
      <trkpt lat="42.448938" lon="1.162252">
        <ele>1072.617</ele>
        <time>2021-06-19T11:55:46Z</time>
      </trkpt>
      <trkpt lat="42.448872" lon="1.162211">
        <ele>1072.608</ele>
        <time>2021-06-19T11:55:50Z</time>
      </trkpt>
      <trkpt lat="42.448856" lon="1.162219">
        <ele>1072.932</ele>
        <time>2021-06-19T11:55:51Z</time>
      </trkpt>
      <trkpt lat="42.448842" lon="1.162234">
        <ele>1073.211</ele>
        <time>2021-06-19T11:55:52Z</time>
      </trkpt>
      <trkpt lat="42.448817" lon="1.162301">
        <ele>1074.417</ele>
        <time>2021-06-19T11:55:56Z</time>
      </trkpt>
      <trkpt lat="42.448821" lon="1.162321">
        <ele>1074.791</ele>
        <time>2021-06-19T11:55:57Z</time>
      </trkpt>
      <trkpt lat="42.448847" lon="1.162400">
        <ele>1075.815</ele>
        <time>2021-06-19T11:56:01Z</time>
      </trkpt>
      <trkpt lat="42.448890" lon="1.162471">
        <ele>1076.625</ele>
        <time>2021-06-19T11:56:05Z</time>
      </trkpt>
      <trkpt lat="42.448926" lon="1.162524">
        <ele>1077.068</ele>
        <time>2021-06-19T11:56:08Z</time>
      </trkpt>
      <trkpt lat="42.448935" lon="1.162545">
        <ele>1077.375</ele>
        <time>2021-06-19T11:56:09Z</time>
      </trkpt>
      <trkpt lat="42.448976" lon="1.162647">
        <ele>1078.586</ele>
        <time>2021-06-19T11:56:14Z</time>
      </trkpt>
      <trkpt lat="42.449004" lon="1.162734">
        <ele>1079.660</ele>
        <time>2021-06-19T11:56:18Z</time>
      </trkpt>
      <trkpt lat="42.449013" lon="1.162755">
        <ele>1079.826</ele>
        <time>2021-06-19T11:56:19Z</time>
      </trkpt>
      <trkpt lat="42.449063" lon="1.162856">
        <ele>1080.708</ele>
        <time>2021-06-19T11:56:24Z</time>
      </trkpt>
      <trkpt lat="42.449113" lon="1.162956">
        <ele>1081.565</ele>
        <time>2021-06-19T11:56:29Z</time>
      </trkpt>
      <trkpt lat="42.449172" lon="1.163041">
        <ele>1081.784</ele>
        <time>2021-06-19T11:56:34Z</time>
      </trkpt>
      <trkpt lat="42.449186" lon="1.163084">
        <ele>1082.230</ele>
        <time>2021-06-19T11:56:36Z</time>
      </trkpt>
      <trkpt lat="42.449227" lon="1.163166">
        <ele>1082.844</ele>
        <time>2021-06-19T11:56:40Z</time>
      </trkpt>
      <trkpt lat="42.449264" lon="1.163252">
        <ele>1083.548</ele>
        <time>2021-06-19T11:56:44Z</time>
      </trkpt>
      <trkpt lat="42.449315" lon="1.163356">
        <ele>1084.148</ele>
        <time>2021-06-19T11:56:49Z</time>
      </trkpt>
      <trkpt lat="42.449339" lon="1.163423">
        <ele>1084.441</ele>
        <time>2021-06-19T11:56:52Z</time>
      </trkpt>
      <trkpt lat="42.449365" lon="1.163488">
        <ele>1084.888</ele>
        <time>2021-06-19T11:56:55Z</time>
      </trkpt>
      <trkpt lat="42.449403" lon="1.163628">
        <ele>1085.965</ele>
        <time>2021-06-19T11:57:01Z</time>
      </trkpt>
      <trkpt lat="42.449438" lon="1.163774">
        <ele>1086.968</ele>
        <time>2021-06-19T11:57:07Z</time>
      </trkpt>
      <trkpt lat="42.449450" lon="1.163847">
        <ele>1087.414</ele>
        <time>2021-06-19T11:57:10Z</time>
      </trkpt>
      <trkpt lat="42.449464" lon="1.163920">
        <ele>1087.808</ele>
        <time>2021-06-19T11:57:13Z</time>
      </trkpt>
      <trkpt lat="42.449481" lon="1.164017">
        <ele>1088.413</ele>
        <time>2021-06-19T11:57:17Z</time>
      </trkpt>
      <trkpt lat="42.449501" lon="1.164082">
        <ele>1088.532</ele>
        <time>2021-06-19T11:57:20Z</time>
      </trkpt>
      <trkpt lat="42.449528" lon="1.164193">
        <ele>1089.028</ele>
        <time>2021-06-19T11:57:25Z</time>
      </trkpt>
      <trkpt lat="42.449512" lon="1.164282">
        <ele>1091.172</ele>
        <time>2021-06-19T11:57:29Z</time>
      </trkpt>
      <trkpt lat="42.449493" lon="1.164316">
        <ele>1092.586</ele>
        <time>2021-06-19T11:57:31Z</time>
      </trkpt>
      <trkpt lat="42.449460" lon="1.164328">
        <ele>1093.986</ele>
        <time>2021-06-19T11:57:33Z</time>
      </trkpt>
      <trkpt lat="42.449411" lon="1.164327">
        <ele>1095.459</ele>
        <time>2021-06-19T11:57:36Z</time>
      </trkpt>
      <trkpt lat="42.449366" lon="1.164301">
        <ele>1096.016</ele>
        <time>2021-06-19T11:57:39Z</time>
      </trkpt>
      <trkpt lat="42.449307" lon="1.164255">
        <ele>1096.558</ele>
        <time>2021-06-19T11:57:43Z</time>
      </trkpt>
      <trkpt lat="42.449294" lon="1.164241">
        <ele>1096.552</ele>
        <time>2021-06-19T11:57:44Z</time>
      </trkpt>
      <trkpt lat="42.449246" lon="1.164166">
        <ele>1096.017</ele>
        <time>2021-06-19T11:57:48Z</time>
      </trkpt>
      <trkpt lat="42.449214" lon="1.164109">
        <ele>1096.008</ele>
        <time>2021-06-19T11:57:51Z</time>
      </trkpt>
      <trkpt lat="42.449191" lon="1.164070">
        <ele>1096.062</ele>
        <time>2021-06-19T11:57:53Z</time>
      </trkpt>
      <trkpt lat="42.449132" lon="1.163949">
        <ele>1095.881</ele>
        <time>2021-06-19T11:57:59Z</time>
      </trkpt>
      <trkpt lat="42.449112" lon="1.163911">
        <ele>1095.747</ele>
        <time>2021-06-19T11:58:01Z</time>
      </trkpt>
      <trkpt lat="42.449030" lon="1.163815">
        <ele>1096.241</ele>
        <time>2021-06-19T11:58:07Z</time>
      </trkpt>
      <trkpt lat="42.449015" lon="1.163800">
        <ele>1096.425</ele>
        <time>2021-06-19T11:58:08Z</time>
      </trkpt>
      <trkpt lat="42.448904" lon="1.163714">
        <ele>1097.595</ele>
        <time>2021-06-19T11:58:15Z</time>
      </trkpt>
      <trkpt lat="42.448867" lon="1.163692">
        <ele>1097.988</ele>
        <time>2021-06-19T11:58:17Z</time>
      </trkpt>
      <trkpt lat="42.448792" lon="1.163656">
        <ele>1098.865</ele>
        <time>2021-06-19T11:58:21Z</time>
      </trkpt>
      <trkpt lat="42.448684" lon="1.163607">
        <ele>1099.624</ele>
        <time>2021-06-19T11:58:27Z</time>
      </trkpt>
      <trkpt lat="42.448666" lon="1.163599">
        <ele>1099.704</ele>
        <time>2021-06-19T11:58:28Z</time>
      </trkpt>
      <trkpt lat="42.448542" lon="1.163549">
        <ele>1101.514</ele>
        <time>2021-06-19T11:58:35Z</time>
      </trkpt>
      <trkpt lat="42.448525" lon="1.163540">
        <ele>1101.808</ele>
        <time>2021-06-19T11:58:36Z</time>
      </trkpt>
      <trkpt lat="42.448406" lon="1.163487">
        <ele>1103.539</ele>
        <time>2021-06-19T11:58:43Z</time>
      </trkpt>
      <trkpt lat="42.448311" lon="1.163422">
        <ele>1103.998</ele>
        <time>2021-06-19T11:58:49Z</time>
      </trkpt>
      <trkpt lat="42.448279" lon="1.163397">
        <ele>1103.994</ele>
        <time>2021-06-19T11:58:51Z</time>
      </trkpt>
      <trkpt lat="42.448232" lon="1.163355">
        <ele>1103.738</ele>
        <time>2021-06-19T11:58:54Z</time>
      </trkpt>
      <trkpt lat="42.448155" lon="1.163289">
        <ele>1104.232</ele>
        <time>2021-06-19T11:58:59Z</time>
      </trkpt>
      <trkpt lat="42.448140" lon="1.163277">
        <ele>1104.492</ele>
        <time>2021-06-19T11:59:00Z</time>
      </trkpt>
      <trkpt lat="42.448068" lon="1.163221">
        <ele>1105.295</ele>
        <time>2021-06-19T11:59:05Z</time>
      </trkpt>
      <trkpt lat="42.448027" lon="1.163188">
        <ele>1105.722</ele>
        <time>2021-06-19T11:59:08Z</time>
      </trkpt>
      <trkpt lat="42.447983" lon="1.163150">
        <ele>1106.298</ele>
        <time>2021-06-19T11:59:11Z</time>
      </trkpt>
      <trkpt lat="42.447942" lon="1.163127">
        <ele>1106.915</ele>
        <time>2021-06-19T11:59:14Z</time>
      </trkpt>
      <trkpt lat="42.447915" lon="1.163104">
        <ele>1107.226</ele>
        <time>2021-06-19T11:59:16Z</time>
      </trkpt>
      <trkpt lat="42.447833" lon="1.163024">
        <ele>1107.708</ele>
        <time>2021-06-19T11:59:22Z</time>
      </trkpt>
      <trkpt lat="42.447818" lon="1.163000">
        <ele>1107.656</ele>
        <time>2021-06-19T11:59:23Z</time>
      </trkpt>
      <trkpt lat="42.447724" lon="1.162878">
        <ele>1108.215</ele>
        <time>2021-06-19T11:59:30Z</time>
      </trkpt>
      <trkpt lat="42.447664" lon="1.162777">
        <ele>1108.511</ele>
        <time>2021-06-19T11:59:35Z</time>
      </trkpt>
      <trkpt lat="42.447625" lon="1.162719">
        <ele>1108.745</ele>
        <time>2021-06-19T11:59:38Z</time>
      </trkpt>
      <trkpt lat="42.447556" lon="1.162633">
        <ele>1109.559</ele>
        <time>2021-06-19T11:59:43Z</time>
      </trkpt>
      <trkpt lat="42.447498" lon="1.162571">
        <ele>1110.639</ele>
        <time>2021-06-19T11:59:47Z</time>
      </trkpt>
      <trkpt lat="42.447482" lon="1.162557">
        <ele>1110.722</ele>
        <time>2021-06-19T11:59:48Z</time>
      </trkpt>
      <trkpt lat="42.447397" lon="1.162494">
        <ele>1111.459</ele>
        <time>2021-06-19T11:59:53Z</time>
      </trkpt>
      <trkpt lat="42.447364" lon="1.162469">
        <ele>1111.592</ele>
        <time>2021-06-19T11:59:55Z</time>
      </trkpt>
      <trkpt lat="42.447298" lon="1.162422">
        <ele>1112.073</ele>
        <time>2021-06-19T11:59:59Z</time>
      </trkpt>
      <trkpt lat="42.447214" lon="1.162375">
        <ele>1113.120</ele>
        <time>2021-06-19T12:00:04Z</time>
      </trkpt>
      <trkpt lat="42.447198" lon="1.162368">
        <ele>1113.508</ele>
        <time>2021-06-19T12:00:05Z</time>
      </trkpt>
      <trkpt lat="42.447101" lon="1.162345">
        <ele>1116.586</ele>
        <time>2021-06-19T12:00:11Z</time>
      </trkpt>
      <trkpt lat="42.447075" lon="1.162325">
        <ele>1117.095</ele>
        <time>2021-06-19T12:00:13Z</time>
      </trkpt>
      <trkpt lat="42.447038" lon="1.162273">
        <ele>1117.391</ele>
        <time>2021-06-19T12:00:17Z</time>
      </trkpt>
      <trkpt lat="42.447033" lon="1.162256">
        <ele>1117.295</ele>
        <time>2021-06-19T12:00:18Z</time>
      </trkpt>
      <trkpt lat="42.447017" lon="1.162191">
        <ele>1116.559</ele>
        <time>2021-06-19T12:00:21Z</time>
      </trkpt>
      <trkpt lat="42.447000" lon="1.162145">
        <ele>1116.479</ele>
        <time>2021-06-19T12:00:23Z</time>
      </trkpt>
      <trkpt lat="42.446972" lon="1.162081">
        <ele>1116.312</ele>
        <time>2021-06-19T12:00:26Z</time>
      </trkpt>
      <trkpt lat="42.446964" lon="1.162060">
        <ele>1116.329</ele>
        <time>2021-06-19T12:00:27Z</time>
      </trkpt>
      <trkpt lat="42.446907" lon="1.161960">
        <ele>1116.577</ele>
        <time>2021-06-19T12:00:32Z</time>
      </trkpt>
      <trkpt lat="42.446882" lon="1.161922">
        <ele>1116.761</ele>
        <time>2021-06-19T12:00:34Z</time>
      </trkpt>
      <trkpt lat="42.446812" lon="1.161813">
        <ele>1117.427</ele>
        <time>2021-06-19T12:00:40Z</time>
      </trkpt>
      <trkpt lat="42.446745" lon="1.161700">
        <ele>1118.308</ele>
        <time>2021-06-19T12:00:46Z</time>
      </trkpt>
      <trkpt lat="42.446705" lon="1.161648">
        <ele>1119.174</ele>
        <time>2021-06-19T12:00:49Z</time>
      </trkpt>
      <trkpt lat="42.446692" lon="1.161632">
        <ele>1119.493</ele>
        <time>2021-06-19T12:00:50Z</time>
      </trkpt>
      <trkpt lat="42.446630" lon="1.161549">
        <ele>1120.179</ele>
        <time>2021-06-19T12:00:55Z</time>
      </trkpt>
      <trkpt lat="42.446594" lon="1.161494">
        <ele>1120.483</ele>
        <time>2021-06-19T12:00:58Z</time>
      </trkpt>
      <trkpt lat="42.446554" lon="1.161441">
        <ele>1120.967</ele>
        <time>2021-06-19T12:01:01Z</time>
      </trkpt>
      <trkpt lat="42.446479" lon="1.161335">
        <ele>1121.657</ele>
        <time>2021-06-19T12:01:07Z</time>
      </trkpt>
      <trkpt lat="42.446452" lon="1.161299">
        <ele>1121.820</ele>
        <time>2021-06-19T12:01:09Z</time>
      </trkpt>
      <trkpt lat="42.446373" lon="1.161226">
        <ele>1123.097</ele>
        <time>2021-06-19T12:01:14Z</time>
      </trkpt>
      <trkpt lat="42.446328" lon="1.161181">
        <ele>1123.613</ele>
        <time>2021-06-19T12:01:17Z</time>
      </trkpt>
      <trkpt lat="42.446284" lon="1.161135">
        <ele>1124.343</ele>
        <time>2021-06-19T12:01:20Z</time>
      </trkpt>
      <trkpt lat="42.446194" lon="1.161019">
        <ele>1124.707</ele>
        <time>2021-06-19T12:01:27Z</time>
      </trkpt>
      <trkpt lat="42.446121" lon="1.160909">
        <ele>1125.208</ele>
        <time>2021-06-19T12:01:33Z</time>
      </trkpt>
      <trkpt lat="42.446084" lon="1.160858">
        <ele>1125.198</ele>
        <time>2021-06-19T12:01:36Z</time>
      </trkpt>
      <trkpt lat="42.446034" lon="1.160824">
        <ele>1125.477</ele>
        <time>2021-06-19T12:01:39Z</time>
      </trkpt>
      <trkpt lat="42.445941" lon="1.160805">
        <ele>1127.043</ele>
        <time>2021-06-19T12:01:44Z</time>
      </trkpt>
      <trkpt lat="42.445855" lon="1.160829">
        <ele>1129.457</ele>
        <time>2021-06-19T12:01:49Z</time>
      </trkpt>
      <trkpt lat="42.445820" lon="1.160831">
        <ele>1130.421</ele>
        <time>2021-06-19T12:01:51Z</time>
      </trkpt>
      <trkpt lat="42.445759" lon="1.160795">
        <ele>1131.981</ele>
        <time>2021-06-19T12:01:55Z</time>
      </trkpt>
      <trkpt lat="42.445753" lon="1.160779">
        <ele>1131.944</ele>
        <time>2021-06-19T12:01:56Z</time>
      </trkpt>
      <trkpt lat="42.445752" lon="1.160762">
        <ele>1131.731</ele>
        <time>2021-06-19T12:01:57Z</time>
      </trkpt>
      <trkpt lat="42.445754" lon="1.160735">
        <ele>1131.231</ele>
        <time>2021-06-19T12:01:58Z</time>
      </trkpt>
      <trkpt lat="42.445766" lon="1.160653">
        <ele>1129.661</ele>
        <time>2021-06-19T12:02:01Z</time>
      </trkpt>
      <trkpt lat="42.445772" lon="1.160627">
        <ele>1128.907</ele>
        <time>2021-06-19T12:02:02Z</time>
      </trkpt>
      <trkpt lat="42.445775" lon="1.160464">
        <ele>1127.308</ele>
        <time>2021-06-19T12:02:08Z</time>
      </trkpt>
      <trkpt lat="42.445768" lon="1.160411">
        <ele>1127.460</ele>
        <time>2021-06-19T12:02:10Z</time>
      </trkpt>
      <trkpt lat="42.445728" lon="1.160276">
        <ele>1128.599</ele>
        <time>2021-06-19T12:02:15Z</time>
      </trkpt>
      <trkpt lat="42.445701" lon="1.160198">
        <ele>1128.725</ele>
        <time>2021-06-19T12:02:18Z</time>
      </trkpt>
      <trkpt lat="42.445645" lon="1.160118">
        <ele>1130.249</ele>
        <time>2021-06-19T12:02:22Z</time>
      </trkpt>
      <trkpt lat="42.445628" lon="1.160095">
        <ele>1130.733</ele>
        <time>2021-06-19T12:02:24Z</time>
      </trkpt>
      <trkpt lat="42.445626" lon="1.160094">
        <ele>1130.813</ele>
        <time>2021-06-19T12:02:25Z</time>
      </trkpt>
      <trkpt lat="42.445597" lon="1.160057">
        <ele>1131.796</ele>
        <time>2021-06-19T12:02:35Z</time>
      </trkpt>
      <trkpt lat="42.445567" lon="1.160027">
        <ele>1132.863</ele>
        <time>2021-06-19T12:02:37Z</time>
      </trkpt>
      <trkpt lat="42.445457" lon="1.159899">
        <ele>1135.183</ele>
        <time>2021-06-19T12:02:45Z</time>
      </trkpt>
      <trkpt lat="42.445412" lon="1.159853">
        <ele>1136.025</ele>
        <time>2021-06-19T12:02:48Z</time>
      </trkpt>
      <trkpt lat="42.445341" lon="1.159781">
        <ele>1137.517</ele>
        <time>2021-06-19T12:02:53Z</time>
      </trkpt>
      <trkpt lat="42.445329" lon="1.159763">
        <ele>1137.708</ele>
        <time>2021-06-19T12:02:54Z</time>
      </trkpt>
      <trkpt lat="42.445292" lon="1.159701">
        <ele>1138.135</ele>
        <time>2021-06-19T12:02:58Z</time>
      </trkpt>
      <trkpt lat="42.445281" lon="1.159683">
        <ele>1138.424</ele>
        <time>2021-06-19T12:02:59Z</time>
      </trkpt>
      <trkpt lat="42.445259" lon="1.159573">
        <ele>1138.240</ele>
        <time>2021-06-19T12:03:04Z</time>
      </trkpt>
      <trkpt lat="42.445258" lon="1.159552">
        <ele>1138.044</ele>
        <time>2021-06-19T12:03:05Z</time>
      </trkpt>
      <trkpt lat="42.445255" lon="1.159507">
        <ele>1137.768</ele>
        <time>2021-06-19T12:03:07Z</time>
      </trkpt>
      <trkpt lat="42.445214" lon="1.159395">
        <ele>1138.148</ele>
        <time>2021-06-19T12:03:12Z</time>
      </trkpt>
      <trkpt lat="42.445204" lon="1.159376">
        <ele>1138.311</ele>
        <time>2021-06-19T12:03:13Z</time>
      </trkpt>
      <trkpt lat="42.445139" lon="1.159282">
        <ele>1139.768</ele>
        <time>2021-06-19T12:03:18Z</time>
      </trkpt>
      <trkpt lat="42.445113" lon="1.159247">
        <ele>1140.184</ele>
        <time>2021-06-19T12:03:20Z</time>
      </trkpt>
      <trkpt lat="42.445045" lon="1.159177">
        <ele>1141.607</ele>
        <time>2021-06-19T12:03:25Z</time>
      </trkpt>
      <trkpt lat="42.445020" lon="1.159143">
        <ele>1141.717</ele>
        <time>2021-06-19T12:03:27Z</time>
      </trkpt>
      <trkpt lat="42.444956" lon="1.159047">
        <ele>1141.808</ele>
        <time>2021-06-19T12:03:32Z</time>
      </trkpt>
      <trkpt lat="42.444925" lon="1.159020">
        <ele>1142.485</ele>
        <time>2021-06-19T12:03:34Z</time>
      </trkpt>
      <trkpt lat="42.444861" lon="1.158989">
        <ele>1144.284</ele>
        <time>2021-06-19T12:03:38Z</time>
      </trkpt>
      <trkpt lat="42.444814" lon="1.158964">
        <ele>1145.460</ele>
        <time>2021-06-19T12:03:41Z</time>
      </trkpt>
      <trkpt lat="42.444764" lon="1.158927">
        <ele>1146.424</ele>
        <time>2021-06-19T12:03:45Z</time>
      </trkpt>
      <trkpt lat="42.444724" lon="1.158888">
        <ele>1146.998</ele>
        <time>2021-06-19T12:03:48Z</time>
      </trkpt>
      <trkpt lat="42.444687" lon="1.158845">
        <ele>1147.518</ele>
        <time>2021-06-19T12:03:51Z</time>
      </trkpt>
      <trkpt lat="42.444606" lon="1.158766">
        <ele>1149.141</ele>
        <time>2021-06-19T12:03:57Z</time>
      </trkpt>
      <trkpt lat="42.444594" lon="1.158754">
        <ele>1149.468</ele>
        <time>2021-06-19T12:03:58Z</time>
      </trkpt>
      <trkpt lat="42.444497" lon="1.158628">
        <ele>1150.131</ele>
        <time>2021-06-19T12:04:05Z</time>
      </trkpt>
      <trkpt lat="42.444424" lon="1.158502">
        <ele>1149.861</ele>
        <time>2021-06-19T12:04:11Z</time>
      </trkpt>
      <trkpt lat="42.444415" lon="1.158482">
        <ele>1149.607</ele>
        <time>2021-06-19T12:04:12Z</time>
      </trkpt>
      <trkpt lat="42.444355" lon="1.158325">
        <ele>1147.308</ele>
        <time>2021-06-19T12:04:18Z</time>
      </trkpt>
      <trkpt lat="42.444266" lon="1.158222">
        <ele>1148.670</ele>
        <time>2021-06-19T12:04:24Z</time>
      </trkpt>
      <trkpt lat="42.444231" lon="1.158225">
        <ele>1150.249</ele>
        <time>2021-06-19T12:04:26Z</time>
      </trkpt>
      <trkpt lat="42.444218" lon="1.158235">
        <ele>1151.095</ele>
        <time>2021-06-19T12:04:27Z</time>
      </trkpt>
      <trkpt lat="42.444200" lon="1.158270">
        <ele>1152.549</ele>
        <time>2021-06-19T12:04:29Z</time>
      </trkpt>
      <trkpt lat="42.444193" lon="1.158334">
        <ele>1154.093</ele>
        <time>2021-06-19T12:04:32Z</time>
      </trkpt>
      <trkpt lat="42.444193" lon="1.158350">
        <ele>1154.553</ele>
        <time>2021-06-19T12:04:33Z</time>
      </trkpt>
      <trkpt lat="42.444202" lon="1.158378">
        <ele>1155.266</ele>
        <time>2021-06-19T12:04:35Z</time>
      </trkpt>
      <trkpt lat="42.444210" lon="1.158389">
        <ele>1155.253</ele>
        <time>2021-06-19T12:04:36Z</time>
      </trkpt>
      <trkpt lat="42.444272" lon="1.158479">
        <ele>1155.775</ele>
        <time>2021-06-19T12:04:42Z</time>
      </trkpt>
      <trkpt lat="42.444303" lon="1.158528">
        <ele>1155.928</ele>
        <time>2021-06-19T12:04:45Z</time>
      </trkpt>
      <trkpt lat="42.444330" lon="1.158557">
        <ele>1155.620</ele>
        <time>2021-06-19T12:04:47Z</time>
      </trkpt>
      <trkpt lat="42.444373" lon="1.158626">
        <ele>1155.808</ele>
        <time>2021-06-19T12:04:51Z</time>
      </trkpt>
      <trkpt lat="42.444436" lon="1.158716">
        <ele>1155.874</ele>
        <time>2021-06-19T12:04:56Z</time>
      </trkpt>
      <trkpt lat="42.444459" lon="1.158757">
        <ele>1156.063</ele>
        <time>2021-06-19T12:04:58Z</time>
      </trkpt>
      <trkpt lat="42.444521" lon="1.158853">
        <ele>1156.089</ele>
        <time>2021-06-19T12:05:03Z</time>
      </trkpt>
      <trkpt lat="42.444547" lon="1.158890">
        <ele>1155.963</ele>
        <time>2021-06-19T12:05:05Z</time>
      </trkpt>
      <trkpt lat="42.444606" lon="1.158987">
        <ele>1155.257</ele>
        <time>2021-06-19T12:05:10Z</time>
      </trkpt>
      <trkpt lat="42.444630" lon="1.159020">
        <ele>1155.067</ele>
        <time>2021-06-19T12:05:12Z</time>
      </trkpt>
      <trkpt lat="42.444664" lon="1.159106">
        <ele>1155.720</ele>
        <time>2021-06-19T12:05:16Z</time>
      </trkpt>
      <trkpt lat="42.444700" lon="1.159215">
        <ele>1156.657</ele>
        <time>2021-06-19T12:05:21Z</time>
      </trkpt>
      <trkpt lat="42.444707" lon="1.159263">
        <ele>1157.014</ele>
        <time>2021-06-19T12:05:23Z</time>
      </trkpt>
      <trkpt lat="42.444721" lon="1.159403">
        <ele>1158.554</ele>
        <time>2021-06-19T12:05:29Z</time>
      </trkpt>
      <trkpt lat="42.444722" lon="1.159426">
        <ele>1158.709</ele>
        <time>2021-06-19T12:05:30Z</time>
      </trkpt>
      <trkpt lat="42.444735" lon="1.159538">
        <ele>1160.208</ele>
        <time>2021-06-19T12:05:35Z</time>
      </trkpt>
      <trkpt lat="42.444739" lon="1.159560">
        <ele>1160.498</ele>
        <time>2021-06-19T12:05:36Z</time>
      </trkpt>
      <trkpt lat="42.444758" lon="1.159642">
        <ele>1161.017</ele>
        <time>2021-06-19T12:05:40Z</time>
      </trkpt>
      <trkpt lat="42.444757" lon="1.159717">
        <ele>1162.423</ele>
        <time>2021-06-19T12:05:44Z</time>
      </trkpt>
      <trkpt lat="42.444759" lon="1.159759">
        <ele>1163.117</ele>
        <time>2021-06-19T12:05:46Z</time>
      </trkpt>
      <trkpt lat="42.444776" lon="1.159852">
        <ele>1164.061</ele>
        <time>2021-06-19T12:05:50Z</time>
      </trkpt>
      <trkpt lat="42.444785" lon="1.159873">
        <ele>1164.031</ele>
        <time>2021-06-19T12:05:51Z</time>
      </trkpt>
      <trkpt lat="42.444808" lon="1.159944">
        <ele>1164.334</ele>
        <time>2021-06-19T12:05:55Z</time>
      </trkpt>
      <trkpt lat="42.444809" lon="1.159960">
        <ele>1164.521</ele>
        <time>2021-06-19T12:05:56Z</time>
      </trkpt>
      <trkpt lat="42.444821" lon="1.160062">
        <ele>1165.595</ele>
        <time>2021-06-19T12:06:01Z</time>
      </trkpt>
      <trkpt lat="42.444825" lon="1.160082">
        <ele>1165.649</ele>
        <time>2021-06-19T12:06:02Z</time>
      </trkpt>
      <trkpt lat="42.444846" lon="1.160149">
        <ele>1165.623</ele>
        <time>2021-06-19T12:06:05Z</time>
      </trkpt>
      <trkpt lat="42.444845" lon="1.160196">
        <ele>1166.208</ele>
        <time>2021-06-19T12:06:07Z</time>
      </trkpt>
      <trkpt lat="42.444841" lon="1.160217">
        <ele>1166.716</ele>
        <time>2021-06-19T12:06:08Z</time>
      </trkpt>
      <trkpt lat="42.444836" lon="1.160253">
        <ele>1167.445</ele>
        <time>2021-06-19T12:06:10Z</time>
      </trkpt>
      <trkpt lat="42.444822" lon="1.160273">
        <ele>1168.381</ele>
        <time>2021-06-19T12:06:12Z</time>
      </trkpt>
      <trkpt lat="42.444775" lon="1.160288">
        <ele>1170.795</ele>
        <time>2021-06-19T12:06:15Z</time>
      </trkpt>
      <trkpt lat="42.444761" lon="1.160288">
        <ele>1171.439</ele>
        <time>2021-06-19T12:06:16Z</time>
      </trkpt>
      <trkpt lat="42.444731" lon="1.160278">
        <ele>1172.659</ele>
        <time>2021-06-19T12:06:19Z</time>
      </trkpt>
      <trkpt lat="42.444713" lon="1.160247">
        <ele>1173.042</ele>
        <time>2021-06-19T12:06:22Z</time>
      </trkpt>
      <trkpt lat="42.444713" lon="1.160167">
        <ele>1171.839</ele>
        <time>2021-06-19T12:06:26Z</time>
      </trkpt>
      <trkpt lat="42.444714" lon="1.160139">
        <ele>1171.469</ele>
        <time>2021-06-19T12:06:27Z</time>
      </trkpt>
      <trkpt lat="42.444696" lon="1.160042">
        <ele>1170.804</ele>
        <time>2021-06-19T12:06:31Z</time>
      </trkpt>
      <trkpt lat="42.444670" lon="1.159947">
        <ele>1170.524</ele>
        <time>2021-06-19T12:06:35Z</time>
      </trkpt>
      <trkpt lat="42.444664" lon="1.159903">
        <ele>1170.108</ele>
        <time>2021-06-19T12:06:37Z</time>
      </trkpt>
      <trkpt lat="42.444643" lon="1.159829">
        <ele>1169.893</ele>
        <time>2021-06-19T12:06:41Z</time>
      </trkpt>
      <trkpt lat="42.444617" lon="1.159774">
        <ele>1170.232</ele>
        <time>2021-06-19T12:06:44Z</time>
      </trkpt>
      <trkpt lat="42.444568" lon="1.159708">
        <ele>1171.518</ele>
        <time>2021-06-19T12:06:48Z</time>
      </trkpt>
      <trkpt lat="42.444530" lon="1.159665">
        <ele>1172.572</ele>
        <time>2021-06-19T12:06:51Z</time>
      </trkpt>
      <trkpt lat="42.444458" lon="1.159593">
        <ele>1174.576</ele>
        <time>2021-06-19T12:06:56Z</time>
      </trkpt>
      <trkpt lat="42.444361" lon="1.159509">
        <ele>1176.336</ele>
        <time>2021-06-19T12:07:02Z</time>
      </trkpt>
      <trkpt lat="42.444345" lon="1.159495">
        <ele>1176.539</ele>
        <time>2021-06-19T12:07:03Z</time>
      </trkpt>
      <trkpt lat="42.444286" lon="1.159437">
        <ele>1177.546</ele>
        <time>2021-06-19T12:07:07Z</time>
      </trkpt>
      <trkpt lat="42.444216" lon="1.159357">
        <ele>1178.377</ele>
        <time>2021-06-19T12:07:12Z</time>
      </trkpt>
      <trkpt lat="42.444202" lon="1.159341">
        <ele>1178.561</ele>
        <time>2021-06-19T12:07:13Z</time>
      </trkpt>
      <trkpt lat="42.444141" lon="1.159248">
        <ele>1178.827</ele>
        <time>2021-06-19T12:07:18Z</time>
      </trkpt>
      <trkpt lat="42.444117" lon="1.159211">
        <ele>1179.008</ele>
        <time>2021-06-19T12:07:20Z</time>
      </trkpt>
      <trkpt lat="42.444081" lon="1.159155">
        <ele>1179.584</ele>
        <time>2021-06-19T12:07:23Z</time>
      </trkpt>
      <trkpt lat="42.444030" lon="1.159094">
        <ele>1180.233</ele>
        <time>2021-06-19T12:07:27Z</time>
      </trkpt>
      <trkpt lat="42.444016" lon="1.159082">
        <ele>1180.559</ele>
        <time>2021-06-19T12:07:28Z</time>
      </trkpt>
      <trkpt lat="42.443973" lon="1.159036">
        <ele>1181.073</ele>
        <time>2021-06-19T12:07:32Z</time>
      </trkpt>
      <trkpt lat="42.443971" lon="1.159031">
        <ele>1181.017</ele>
        <time>2021-06-19T12:07:33Z</time>
      </trkpt>
      <trkpt lat="42.443916" lon="1.158908">
        <ele>1179.797</ele>
        <time>2021-06-19T12:11:46Z</time>
      </trkpt>
      <trkpt lat="42.443878" lon="1.158870">
        <ele>1180.090</ele>
        <time>2021-06-19T12:11:49Z</time>
      </trkpt>
      <trkpt lat="42.443794" lon="1.158786">
        <ele>1182.147</ele>
        <time>2021-06-19T12:11:56Z</time>
      </trkpt>
      <trkpt lat="42.443772" lon="1.158727">
        <ele>1181.992</ele>
        <time>2021-06-19T12:11:59Z</time>
      </trkpt>
      <trkpt lat="42.443740" lon="1.158673">
        <ele>1182.473</ele>
        <time>2021-06-19T12:12:02Z</time>
      </trkpt>
      <trkpt lat="42.443688" lon="1.158568">
        <ele>1182.620</ele>
        <time>2021-06-19T12:12:08Z</time>
      </trkpt>
      <trkpt lat="42.443677" lon="1.158556">
        <ele>1182.808</ele>
        <time>2021-06-19T12:12:09Z</time>
      </trkpt>
      <trkpt lat="42.443618" lon="1.158482">
        <ele>1183.556</ele>
        <time>2021-06-19T12:12:14Z</time>
      </trkpt>
      <trkpt lat="42.443606" lon="1.158470">
        <ele>1183.685</ele>
        <time>2021-06-19T12:12:15Z</time>
      </trkpt>
      <trkpt lat="42.443539" lon="1.158385">
        <ele>1183.231</ele>
        <time>2021-06-19T12:12:21Z</time>
      </trkpt>
      <trkpt lat="42.443461" lon="1.158335">
        <ele>1184.535</ele>
        <time>2021-06-19T12:12:26Z</time>
      </trkpt>
      <trkpt lat="42.443445" lon="1.158321">
        <ele>1184.799</ele>
        <time>2021-06-19T12:12:27Z</time>
      </trkpt>
      <trkpt lat="42.443345" lon="1.158274">
        <ele>1187.199</ele>
        <time>2021-06-19T12:12:33Z</time>
      </trkpt>
      <trkpt lat="42.443329" lon="1.158275">
        <ele>1187.762</ele>
        <time>2021-06-19T12:12:34Z</time>
      </trkpt>
      <trkpt lat="42.443262" lon="1.158258">
        <ele>1189.249</ele>
        <time>2021-06-19T12:12:38Z</time>
      </trkpt>
      <trkpt lat="42.443195" lon="1.158235">
        <ele>1190.546</ele>
        <time>2021-06-19T12:12:42Z</time>
      </trkpt>
      <trkpt lat="42.443127" lon="1.158216">
        <ele>1191.888</ele>
        <time>2021-06-19T12:12:46Z</time>
      </trkpt>
      <trkpt lat="42.443043" lon="1.158188">
        <ele>1192.916</ele>
        <time>2021-06-19T12:12:51Z</time>
      </trkpt>
      <trkpt lat="42.442930" lon="1.158136">
        <ele>1192.408</ele>
        <time>2021-06-19T12:12:58Z</time>
      </trkpt>
      <trkpt lat="42.442914" lon="1.158128">
        <ele>1192.421</ele>
        <time>2021-06-19T12:12:59Z</time>
      </trkpt>
      <trkpt lat="42.442845" lon="1.158124">
        <ele>1193.160</ele>
        <time>2021-06-19T12:13:03Z</time>
      </trkpt>
      <trkpt lat="42.442799" lon="1.158133">
        <ele>1194.096</ele>
        <time>2021-06-19T12:13:06Z</time>
      </trkpt>
      <trkpt lat="42.442756" lon="1.158157">
        <ele>1194.860</ele>
        <time>2021-06-19T12:13:09Z</time>
      </trkpt>
      <trkpt lat="42.442683" lon="1.158201">
        <ele>1195.924</ele>
        <time>2021-06-19T12:13:14Z</time>
      </trkpt>
      <trkpt lat="42.442590" lon="1.158237">
        <ele>1196.844</ele>
        <time>2021-06-19T12:13:20Z</time>
      </trkpt>
      <trkpt lat="42.442534" lon="1.158265">
        <ele>1197.647</ele>
        <time>2021-06-19T12:13:24Z</time>
      </trkpt>
      <trkpt lat="42.442505" lon="1.158281">
        <ele>1198.114</ele>
        <time>2021-06-19T12:13:26Z</time>
      </trkpt>
      <trkpt lat="42.442438" lon="1.158318">
        <ele>1199.552</ele>
        <time>2021-06-19T12:13:30Z</time>
      </trkpt>
      <trkpt lat="42.442422" lon="1.158322">
        <ele>1199.653</ele>
        <time>2021-06-19T12:13:31Z</time>
      </trkpt>
      <trkpt lat="42.442307" lon="1.158379">
        <ele>1200.808</ele>
        <time>2021-06-19T12:13:38Z</time>
      </trkpt>
      <trkpt lat="42.442261" lon="1.158406">
        <ele>1201.308</ele>
        <time>2021-06-19T12:13:41Z</time>
      </trkpt>
      <trkpt lat="42.442213" lon="1.158439">
        <ele>1202.032</ele>
        <time>2021-06-19T12:13:44Z</time>
      </trkpt>
      <trkpt lat="42.442151" lon="1.158451">
        <ele>1203.251</ele>
        <time>2021-06-19T12:13:48Z</time>
      </trkpt>
      <trkpt lat="42.442119" lon="1.158447">
        <ele>1203.697</ele>
        <time>2021-06-19T12:13:50Z</time>
      </trkpt>
      <trkpt lat="42.442056" lon="1.158435">
        <ele>1204.331</ele>
        <time>2021-06-19T12:13:54Z</time>
      </trkpt>
      <trkpt lat="42.441994" lon="1.158420">
        <ele>1204.855</ele>
        <time>2021-06-19T12:13:58Z</time>
      </trkpt>
      <trkpt lat="42.441979" lon="1.158416">
        <ele>1204.965</ele>
        <time>2021-06-19T12:13:59Z</time>
      </trkpt>
      <trkpt lat="42.441921" lon="1.158391">
        <ele>1205.138</ele>
        <time>2021-06-19T12:14:03Z</time>
      </trkpt>
      <trkpt lat="42.441891" lon="1.158384">
        <ele>1205.555</ele>
        <time>2021-06-19T12:14:05Z</time>
      </trkpt>
      <trkpt lat="42.441865" lon="1.158376">
        <ele>1205.791</ele>
        <time>2021-06-19T12:14:07Z</time>
      </trkpt>
      <trkpt lat="42.441852" lon="1.158370">
        <ele>1205.881</ele>
        <time>2021-06-19T12:14:08Z</time>
      </trkpt>
      <trkpt lat="42.441806" lon="1.158364">
        <ele>1206.519</ele>
        <time>2021-06-19T12:14:11Z</time>
      </trkpt>
      <trkpt lat="42.441742" lon="1.158364">
        <ele>1207.708</ele>
        <time>2021-06-19T12:14:15Z</time>
      </trkpt>
      <trkpt lat="42.441665" lon="1.158349">
        <ele>1208.636</ele>
        <time>2021-06-19T12:14:20Z</time>
      </trkpt>
      <trkpt lat="42.441650" lon="1.158346">
        <ele>1208.845</ele>
        <time>2021-06-19T12:14:21Z</time>
      </trkpt>
      <trkpt lat="42.441606" lon="1.158333">
        <ele>1209.361</ele>
        <time>2021-06-19T12:14:24Z</time>
      </trkpt>
      <trkpt lat="42.441546" lon="1.158306">
        <ele>1209.925</ele>
        <time>2021-06-19T12:14:28Z</time>
      </trkpt>
      <trkpt lat="42.441532" lon="1.158299">
        <ele>1210.019</ele>
        <time>2021-06-19T12:14:29Z</time>
      </trkpt>
      <trkpt lat="42.441460" lon="1.158251">
        <ele>1210.479</ele>
        <time>2021-06-19T12:14:34Z</time>
      </trkpt>
      <trkpt lat="42.441415" lon="1.158226">
        <ele>1210.772</ele>
        <time>2021-06-19T12:14:37Z</time>
      </trkpt>
      <trkpt lat="42.441386" lon="1.158212">
        <ele>1211.059</ele>
        <time>2021-06-19T12:14:39Z</time>
      </trkpt>
      <trkpt lat="42.441304" lon="1.158169">
        <ele>1211.832</ele>
        <time>2021-06-19T12:14:45Z</time>
      </trkpt>
      <trkpt lat="42.441203" lon="1.158133">
        <ele>1213.292</ele>
        <time>2021-06-19T12:14:51Z</time>
      </trkpt>
      <trkpt lat="42.441188" lon="1.158135">
        <ele>1213.511</ele>
        <time>2021-06-19T12:14:52Z</time>
      </trkpt>
      <trkpt lat="42.441108" lon="1.158160">
        <ele>1216.008</ele>
        <time>2021-06-19T12:14:57Z</time>
      </trkpt>
      <trkpt lat="42.441091" lon="1.158164">
        <ele>1216.320</ele>
        <time>2021-06-19T12:14:58Z</time>
      </trkpt>
      <trkpt lat="42.441028" lon="1.158196">
        <ele>1217.969</ele>
        <time>2021-06-19T12:15:03Z</time>
      </trkpt>
      <trkpt lat="42.441002" lon="1.158204">
        <ele>1218.595</ele>
        <time>2021-06-19T12:15:05Z</time>
      </trkpt>
      <trkpt lat="42.440991" lon="1.158207">
        <ele>1218.789</ele>
        <time>2021-06-19T12:15:07Z</time>
      </trkpt>
      <trkpt lat="42.440989" lon="1.158208">
        <ele>1218.843</ele>
        <time>2021-06-19T12:15:08Z</time>
      </trkpt>
      <trkpt lat="42.440927" lon="1.158211">
        <ele>1219.653</ele>
        <time>2021-06-19T12:19:10Z</time>
      </trkpt>
      <trkpt lat="42.440908" lon="1.158215">
        <ele>1220.026</ele>
        <time>2021-06-19T12:19:11Z</time>
      </trkpt>
      <trkpt lat="42.440823" lon="1.158219">
        <ele>1221.243</ele>
        <time>2021-06-19T12:19:16Z</time>
      </trkpt>
      <trkpt lat="42.440750" lon="1.158202">
        <ele>1221.587</ele>
        <time>2021-06-19T12:19:20Z</time>
      </trkpt>
      <trkpt lat="42.440717" lon="1.158186">
        <ele>1221.342</ele>
        <time>2021-06-19T12:19:22Z</time>
      </trkpt>
      <trkpt lat="42.440644" lon="1.158180">
        <ele>1222.026</ele>
        <time>2021-06-19T12:19:26Z</time>
      </trkpt>
      <trkpt lat="42.440624" lon="1.158177">
        <ele>1222.208</ele>
        <time>2021-06-19T12:19:27Z</time>
      </trkpt>
      <trkpt lat="42.440562" lon="1.158178">
        <ele>1223.155</ele>
        <time>2021-06-19T12:19:30Z</time>
      </trkpt>
      <trkpt lat="42.440541" lon="1.158179">
        <ele>1223.554</ele>
        <time>2021-06-19T12:19:31Z</time>
      </trkpt>
      <trkpt lat="42.440502" lon="1.158177">
        <ele>1224.090</ele>
        <time>2021-06-19T12:19:33Z</time>
      </trkpt>
      <trkpt lat="42.440490" lon="1.158175">
        <ele>1224.184</ele>
        <time>2021-06-19T12:19:34Z</time>
      </trkpt>
      <trkpt lat="42.440435" lon="1.158170">
        <ele>1224.748</ele>
        <time>2021-06-19T12:19:37Z</time>
      </trkpt>
      <trkpt lat="42.440405" lon="1.158179">
        <ele>1225.648</ele>
        <time>2021-06-19T12:19:39Z</time>
      </trkpt>
      <trkpt lat="42.440353" lon="1.158197">
        <ele>1227.471</ele>
        <time>2021-06-19T12:19:42Z</time>
      </trkpt>
      <trkpt lat="42.440335" lon="1.158191">
        <ele>1227.488</ele>
        <time>2021-06-19T12:19:43Z</time>
      </trkpt>
      <trkpt lat="42.440317" lon="1.158174">
        <ele>1226.846</ele>
        <time>2021-06-19T12:19:44Z</time>
      </trkpt>
      <trkpt lat="42.440298" lon="1.158182">
        <ele>1227.588</ele>
        <time>2021-06-19T12:19:46Z</time>
      </trkpt>
      <trkpt lat="42.440232" lon="1.158137">
        <ele>1226.616</ele>
        <time>2021-06-19T12:19:50Z</time>
      </trkpt>
      <trkpt lat="42.440218" lon="1.158122">
        <ele>1226.108</ele>
        <time>2021-06-19T12:19:51Z</time>
      </trkpt>
      <trkpt lat="42.440208" lon="1.158102">
        <ele>1225.371</ele>
        <time>2021-06-19T12:19:52Z</time>
      </trkpt>
      <trkpt lat="42.440196" lon="1.158024">
        <ele>1223.020</ele>
        <time>2021-06-19T12:19:55Z</time>
      </trkpt>
      <trkpt lat="42.440199" lon="1.158001">
        <ele>1222.896</ele>
        <time>2021-06-19T12:19:56Z</time>
      </trkpt>
      <trkpt lat="42.440238" lon="1.157929">
        <ele>1220.920</ele>
        <time>2021-06-19T12:20:00Z</time>
      </trkpt>
      <trkpt lat="42.440249" lon="1.157913">
        <ele>1220.374</ele>
        <time>2021-06-19T12:20:01Z</time>
      </trkpt>
      <trkpt lat="42.440260" lon="1.157896">
        <ele>1219.674</ele>
        <time>2021-06-19T12:20:02Z</time>
      </trkpt>
      <trkpt lat="42.440270" lon="1.157880">
        <ele>1218.977</ele>
        <time>2021-06-19T12:20:03Z</time>
      </trkpt>
      <trkpt lat="42.440287" lon="1.157777">
        <ele>1216.674</ele>
        <time>2021-06-19T12:20:08Z</time>
      </trkpt>
      <trkpt lat="42.440289" lon="1.157738">
        <ele>1217.183</ele>
        <time>2021-06-19T12:20:09Z</time>
      </trkpt>
      <trkpt lat="42.440277" lon="1.157643">
        <ele>1219.025</ele>
        <time>2021-06-19T12:20:13Z</time>
      </trkpt>
      <trkpt lat="42.440278" lon="1.157566">
        <ele>1220.017</ele>
        <time>2021-06-19T12:20:16Z</time>
      </trkpt>
      <trkpt lat="42.440280" lon="1.157523">
        <ele>1220.508</ele>
        <time>2021-06-19T12:20:18Z</time>
      </trkpt>
      <trkpt lat="42.440265" lon="1.157420">
        <ele>1222.625</ele>
        <time>2021-06-19T12:20:23Z</time>
      </trkpt>
      <trkpt lat="42.440252" lon="1.157305">
        <ele>1224.534</ele>
        <time>2021-06-19T12:20:28Z</time>
      </trkpt>
      <trkpt lat="42.440251" lon="1.157260">
        <ele>1225.070</ele>
        <time>2021-06-19T12:20:30Z</time>
      </trkpt>
      <trkpt lat="42.440265" lon="1.157152">
        <ele>1225.984</ele>
        <time>2021-06-19T12:20:35Z</time>
      </trkpt>
      <trkpt lat="42.440274" lon="1.157110">
        <ele>1226.298</ele>
        <time>2021-06-19T12:20:37Z</time>
      </trkpt>
      <trkpt lat="42.440296" lon="1.157013">
        <ele>1226.728</ele>
        <time>2021-06-19T12:20:42Z</time>
      </trkpt>
      <trkpt lat="42.440300" lon="1.156972">
        <ele>1227.291</ele>
        <time>2021-06-19T12:20:44Z</time>
      </trkpt>
      <trkpt lat="42.440304" lon="1.156904">
        <ele>1227.738</ele>
        <time>2021-06-19T12:20:47Z</time>
      </trkpt>
      <trkpt lat="42.440290" lon="1.156819">
        <ele>1228.874</ele>
        <time>2021-06-19T12:20:51Z</time>
      </trkpt>
      <trkpt lat="42.440284" lon="1.156797">
        <ele>1229.256</ele>
        <time>2021-06-19T12:20:52Z</time>
      </trkpt>
      <trkpt lat="42.440244" lon="1.156683">
        <ele>1231.021</ele>
        <time>2021-06-19T12:20:57Z</time>
      </trkpt>
      <trkpt lat="42.440230" lon="1.156638">
        <ele>1231.508</ele>
        <time>2021-06-19T12:20:59Z</time>
      </trkpt>
      <trkpt lat="42.440162" lon="1.156508">
        <ele>1233.814</ele>
        <time>2021-06-19T12:21:06Z</time>
      </trkpt>
      <trkpt lat="42.440117" lon="1.156412">
        <ele>1235.223</ele>
        <time>2021-06-19T12:21:12Z</time>
      </trkpt>
      <trkpt lat="42.440106" lon="1.156393">
        <ele>1235.639</ele>
        <time>2021-06-19T12:21:13Z</time>
      </trkpt>
      <trkpt lat="42.440072" lon="1.156309">
        <ele>1235.953</ele>
        <time>2021-06-19T12:21:18Z</time>
      </trkpt>
      <trkpt lat="42.440067" lon="1.156291">
        <ele>1236.037</ele>
        <time>2021-06-19T12:21:19Z</time>
      </trkpt>
      <trkpt lat="42.440047" lon="1.156237">
        <ele>1236.277</ele>
        <time>2021-06-19T12:21:22Z</time>
      </trkpt>
      <trkpt lat="42.440040" lon="1.156207">
        <ele>1236.250</ele>
        <time>2021-06-19T12:21:24Z</time>
      </trkpt>
      <trkpt lat="42.440025" lon="1.156181">
        <ele>1236.627</ele>
        <time>2021-06-19T12:21:26Z</time>
      </trkpt>
      <trkpt lat="42.440015" lon="1.156158">
        <ele>1236.815</ele>
        <time>2021-06-19T12:21:28Z</time>
      </trkpt>
      <trkpt lat="42.439994" lon="1.156130">
        <ele>1237.465</ele>
        <time>2021-06-19T12:21:30Z</time>
      </trkpt>
      <trkpt lat="42.439970" lon="1.156103">
        <ele>1238.111</ele>
        <time>2021-06-19T12:21:32Z</time>
      </trkpt>
      <trkpt lat="42.439939" lon="1.156052">
        <ele>1238.808</ele>
        <time>2021-06-19T12:21:35Z</time>
      </trkpt>
      <trkpt lat="42.439900" lon="1.156009">
        <ele>1239.928</ele>
        <time>2021-06-19T12:21:38Z</time>
      </trkpt>
      <trkpt lat="42.439883" lon="1.155981">
        <ele>1240.227</ele>
        <time>2021-06-19T12:21:40Z</time>
      </trkpt>
      <trkpt lat="42.439843" lon="1.155897">
        <ele>1240.913</ele>
        <time>2021-06-19T12:21:45Z</time>
      </trkpt>
      <trkpt lat="42.439833" lon="1.155880">
        <ele>1241.177</ele>
        <time>2021-06-19T12:21:46Z</time>
      </trkpt>
      <trkpt lat="42.439777" lon="1.155810">
        <ele>1242.541</ele>
        <time>2021-06-19T12:21:51Z</time>
      </trkpt>
      <trkpt lat="42.439756" lon="1.155768">
        <ele>1242.711</ele>
        <time>2021-06-19T12:21:53Z</time>
      </trkpt>
      <trkpt lat="42.439740" lon="1.155740">
        <ele>1243.064</ele>
        <time>2021-06-19T12:21:55Z</time>
      </trkpt>
      <trkpt lat="42.439722" lon="1.155713">
        <ele>1243.341</ele>
        <time>2021-06-19T12:21:57Z</time>
      </trkpt>
      <trkpt lat="42.439709" lon="1.155701">
        <ele>1243.518</ele>
        <time>2021-06-19T12:21:58Z</time>
      </trkpt>
      <trkpt lat="42.439663" lon="1.155661">
        <ele>1244.098</ele>
        <time>2021-06-19T12:22:01Z</time>
      </trkpt>
      <trkpt lat="42.439619" lon="1.155652">
        <ele>1245.017</ele>
        <time>2021-06-19T12:22:03Z</time>
      </trkpt>
      <trkpt lat="42.439601" lon="1.155648">
        <ele>1245.408</ele>
        <time>2021-06-19T12:22:04Z</time>
      </trkpt>
      <trkpt lat="42.439552" lon="1.155646">
        <ele>1246.698</ele>
        <time>2021-06-19T12:22:07Z</time>
      </trkpt>
      <trkpt lat="42.439503" lon="1.155655">
        <ele>1248.067</ele>
        <time>2021-06-19T12:22:10Z</time>
      </trkpt>
      <trkpt lat="42.439479" lon="1.155645">
        <ele>1248.423</ele>
        <time>2021-06-19T12:22:12Z</time>
      </trkpt>
      <trkpt lat="42.439450" lon="1.155641">
        <ele>1249.037</ele>
        <time>2021-06-19T12:22:14Z</time>
      </trkpt>
      <trkpt lat="42.439391" lon="1.155622">
        <ele>1249.511</ele>
        <time>2021-06-19T12:22:18Z</time>
      </trkpt>
      <trkpt lat="42.439346" lon="1.155600">
        <ele>1249.621</ele>
        <time>2021-06-19T12:22:21Z</time>
      </trkpt>
      <trkpt lat="42.439313" lon="1.155591">
        <ele>1249.894</ele>
        <time>2021-06-19T12:22:23Z</time>
      </trkpt>
      <trkpt lat="42.439267" lon="1.155591">
        <ele>1250.591</ele>
        <time>2021-06-19T12:22:26Z</time>
      </trkpt>
      <trkpt lat="42.439241" lon="1.155611">
        <ele>1251.581</ele>
        <time>2021-06-19T12:22:28Z</time>
      </trkpt>
      <trkpt lat="42.439225" lon="1.155657">
        <ele>1253.061</ele>
        <time>2021-06-19T12:22:31Z</time>
      </trkpt>
      <trkpt lat="42.439220" lon="1.155693">
        <ele>1254.117</ele>
        <time>2021-06-19T12:22:33Z</time>
      </trkpt>
      <trkpt lat="42.439219" lon="1.155711">
        <ele>1254.608</ele>
        <time>2021-06-19T12:22:34Z</time>
      </trkpt>
      <trkpt lat="42.439220" lon="1.155765">
        <ele>1256.195</ele>
        <time>2021-06-19T12:22:37Z</time>
      </trkpt>
      <trkpt lat="42.439259" lon="1.155808">
        <ele>1256.654</ele>
        <time>2021-06-19T12:22:41Z</time>
      </trkpt>
      <trkpt lat="42.439268" lon="1.155820">
        <ele>1256.820</ele>
        <time>2021-06-19T12:22:42Z</time>
      </trkpt>
      <trkpt lat="42.439318" lon="1.155851">
        <ele>1256.854</ele>
        <time>2021-06-19T12:22:46Z</time>
      </trkpt>
      <trkpt lat="42.439332" lon="1.155857">
        <ele>1256.718</ele>
        <time>2021-06-19T12:22:47Z</time>
      </trkpt>
      <trkpt lat="42.439376" lon="1.155872">
        <ele>1256.288</ele>
        <time>2021-06-19T12:22:50Z</time>
      </trkpt>
      <trkpt lat="42.439421" lon="1.155888">
        <ele>1255.711</ele>
        <time>2021-06-19T12:22:53Z</time>
      </trkpt>
      <trkpt lat="42.439453" lon="1.155894">
        <ele>1255.038</ele>
        <time>2021-06-19T12:22:55Z</time>
      </trkpt>
      <trkpt lat="42.439488" lon="1.155931">
        <ele>1254.583</ele>
        <time>2021-06-19T12:22:58Z</time>
      </trkpt>
      <trkpt lat="42.439496" lon="1.155950">
        <ele>1254.625</ele>
        <time>2021-06-19T12:22:59Z</time>
      </trkpt>
      <trkpt lat="42.439512" lon="1.156009">
        <ele>1255.117</ele>
        <time>2021-06-19T12:23:02Z</time>
      </trkpt>
      <trkpt lat="42.439520" lon="1.156054">
        <ele>1255.708</ele>
        <time>2021-06-19T12:23:04Z</time>
      </trkpt>
      <trkpt lat="42.439520" lon="1.156097">
        <ele>1256.545</ele>
        <time>2021-06-19T12:23:06Z</time>
      </trkpt>
      <trkpt lat="42.439519" lon="1.156141">
        <ele>1257.154</ele>
        <time>2021-06-19T12:23:08Z</time>
      </trkpt>
      <trkpt lat="42.439524" lon="1.156173">
        <ele>1257.290</ele>
        <time>2021-06-19T12:23:10Z</time>
      </trkpt>
      <trkpt lat="42.439537" lon="1.156249">
        <ele>1257.324</ele>
        <time>2021-06-19T12:23:14Z</time>
      </trkpt>
      <trkpt lat="42.439542" lon="1.156309">
        <ele>1257.718</ele>
        <time>2021-06-19T12:23:17Z</time>
      </trkpt>
      <trkpt lat="42.439552" lon="1.156349">
        <ele>1257.688</ele>
        <time>2021-06-19T12:23:19Z</time>
      </trkpt>
      <trkpt lat="42.439561" lon="1.156415">
        <ele>1257.691</ele>
        <time>2021-06-19T12:23:22Z</time>
      </trkpt>
      <trkpt lat="42.439562" lon="1.156436">
        <ele>1257.668</ele>
        <time>2021-06-19T12:23:23Z</time>
      </trkpt>
      <trkpt lat="42.439568" lon="1.156479">
        <ele>1257.495</ele>
        <time>2021-06-19T12:23:25Z</time>
      </trkpt>
      <trkpt lat="42.439570" lon="1.156522">
        <ele>1257.449</ele>
        <time>2021-06-19T12:23:27Z</time>
      </trkpt>
      <trkpt lat="42.439561" lon="1.156606">
        <ele>1258.023</ele>
        <time>2021-06-19T12:23:31Z</time>
      </trkpt>
      <trkpt lat="42.439553" lon="1.156672">
        <ele>1258.508</ele>
        <time>2021-06-19T12:23:35Z</time>
      </trkpt>
      <trkpt lat="42.439548" lon="1.156688">
        <ele>1258.726</ele>
        <time>2021-06-19T12:23:36Z</time>
      </trkpt>
      <trkpt lat="42.439541" lon="1.156749">
        <ele>1258.685</ele>
        <time>2021-06-19T12:23:40Z</time>
      </trkpt>
      <trkpt lat="42.439546" lon="1.156770">
        <ele>1258.311</ele>
        <time>2021-06-19T12:23:42Z</time>
      </trkpt>
      <trkpt lat="42.439540" lon="1.156787">
        <ele>1258.515</ele>
        <time>2021-06-19T12:23:43Z</time>
      </trkpt>
      <trkpt lat="42.439529" lon="1.156811">
        <ele>1258.959</ele>
        <time>2021-06-19T12:23:45Z</time>
      </trkpt>
      <trkpt lat="42.439521" lon="1.156827">
        <ele>1259.159</ele>
        <time>2021-06-19T12:23:46Z</time>
      </trkpt>
      <trkpt lat="42.439486" lon="1.156906">
        <ele>1260.392</ele>
        <time>2021-06-19T12:23:51Z</time>
      </trkpt>
      <trkpt lat="42.439466" lon="1.156961">
        <ele>1260.949</ele>
        <time>2021-06-19T12:23:56Z</time>
      </trkpt>
      <trkpt lat="42.439451" lon="1.157006">
        <ele>1261.286</ele>
        <time>2021-06-19T12:23:58Z</time>
      </trkpt>
      <trkpt lat="42.439437" lon="1.157098">
        <ele>1261.260</ele>
        <time>2021-06-19T12:24:02Z</time>
      </trkpt>
      <trkpt lat="42.439434" lon="1.157150">
        <ele>1261.026</ele>
        <time>2021-06-19T12:24:05Z</time>
      </trkpt>
      <trkpt lat="42.439429" lon="1.157218">
        <ele>1260.708</ele>
        <time>2021-06-19T12:24:09Z</time>
      </trkpt>
      <trkpt lat="42.439418" lon="1.157257">
        <ele>1261.465</ele>
        <time>2021-06-19T12:24:11Z</time>
      </trkpt>
      <trkpt lat="42.439390" lon="1.157293">
        <ele>1262.974</ele>
        <time>2021-06-19T12:24:13Z</time>
      </trkpt>
      <trkpt lat="42.439330" lon="1.157326">
        <ele>1265.830</ele>
        <time>2021-06-19T12:24:17Z</time>
      </trkpt>
      <trkpt lat="42.439313" lon="1.157329">
        <ele>1266.684</ele>
        <time>2021-06-19T12:24:18Z</time>
      </trkpt>
      <trkpt lat="42.439301" lon="1.157331">
        <ele>1267.298</ele>
        <time>2021-06-19T12:24:19Z</time>
      </trkpt>
      <trkpt lat="42.439248" lon="1.157312">
        <ele>1269.428</ele>
        <time>2021-06-19T12:24:23Z</time>
      </trkpt>
      <trkpt lat="42.439226" lon="1.157240">
        <ele>1269.611</ele>
        <time>2021-06-19T12:24:27Z</time>
      </trkpt>
      <trkpt lat="42.439227" lon="1.157220">
        <ele>1269.488</ele>
        <time>2021-06-19T12:24:28Z</time>
      </trkpt>
      <trkpt lat="42.439228" lon="1.157183">
        <ele>1269.538</ele>
        <time>2021-06-19T12:24:30Z</time>
      </trkpt>
      <trkpt lat="42.439235" lon="1.157102">
        <ele>1269.670</ele>
        <time>2021-06-19T12:24:34Z</time>
      </trkpt>
      <trkpt lat="42.439237" lon="1.157081">
        <ele>1269.617</ele>
        <time>2021-06-19T12:24:35Z</time>
      </trkpt>
      <trkpt lat="42.439234" lon="1.157035">
        <ele>1269.908</ele>
        <time>2021-06-19T12:24:37Z</time>
      </trkpt>
      <trkpt lat="42.439233" lon="1.156906">
        <ele>1270.450</ele>
        <time>2021-06-19T12:24:42Z</time>
      </trkpt>
      <trkpt lat="42.439233" lon="1.156883">
        <ele>1270.579</ele>
        <time>2021-06-19T12:24:43Z</time>
      </trkpt>
      <trkpt lat="42.439218" lon="1.156737">
        <ele>1271.295</ele>
        <time>2021-06-19T12:24:49Z</time>
      </trkpt>
      <trkpt lat="42.439205" lon="1.156654">
        <ele>1271.829</ele>
        <time>2021-06-19T12:24:53Z</time>
      </trkpt>
      <trkpt lat="42.439194" lon="1.156605">
        <ele>1272.323</ele>
        <time>2021-06-19T12:24:56Z</time>
      </trkpt>
      <trkpt lat="42.439160" lon="1.156496">
        <ele>1273.883</ele>
        <time>2021-06-19T12:25:01Z</time>
      </trkpt>
      <trkpt lat="42.439126" lon="1.156436">
        <ele>1274.926</ele>
        <time>2021-06-19T12:25:04Z</time>
      </trkpt>
      <trkpt lat="42.439102" lon="1.156401">
        <ele>1275.683</ele>
        <time>2021-06-19T12:25:06Z</time>
      </trkpt>
      <trkpt lat="42.439078" lon="1.156373">
        <ele>1275.965</ele>
        <time>2021-06-19T12:25:08Z</time>
      </trkpt>
      <trkpt lat="42.439045" lon="1.156362">
        <ele>1276.568</ele>
        <time>2021-06-19T12:25:10Z</time>
      </trkpt>
      <trkpt lat="42.439011" lon="1.156361">
        <ele>1277.414</ele>
        <time>2021-06-19T12:25:12Z</time>
      </trkpt>
      <trkpt lat="42.438950" lon="1.156401">
        <ele>1279.508</ele>
        <time>2021-06-19T12:25:16Z</time>
      </trkpt>
      <trkpt lat="42.438938" lon="1.156419">
        <ele>1279.883</ele>
        <time>2021-06-19T12:25:17Z</time>
      </trkpt>
      <trkpt lat="42.438895" lon="1.156490">
        <ele>1281.232</ele>
        <time>2021-06-19T12:25:21Z</time>
      </trkpt>
      <trkpt lat="42.438889" lon="1.156513">
        <ele>1281.498</ele>
        <time>2021-06-19T12:25:22Z</time>
      </trkpt>
      <trkpt lat="42.438888" lon="1.156534">
        <ele>1281.512</ele>
        <time>2021-06-19T12:25:23Z</time>
      </trkpt>
      <trkpt lat="42.438888" lon="1.156596">
        <ele>1281.886</ele>
        <time>2021-06-19T12:25:26Z</time>
      </trkpt>
      <trkpt lat="42.438889" lon="1.156619">
        <ele>1281.826</ele>
        <time>2021-06-19T12:25:27Z</time>
      </trkpt>
      <trkpt lat="42.438891" lon="1.156666">
        <ele>1281.939</ele>
        <time>2021-06-19T12:25:29Z</time>
      </trkpt>
      <trkpt lat="42.438889" lon="1.156708">
        <ele>1282.056</ele>
        <time>2021-06-19T12:25:31Z</time>
      </trkpt>
      <trkpt lat="42.438888" lon="1.156746">
        <ele>1282.089</ele>
        <time>2021-06-19T12:25:33Z</time>
      </trkpt>
      <trkpt lat="42.438891" lon="1.156788">
        <ele>1281.906</ele>
        <time>2021-06-19T12:25:35Z</time>
      </trkpt>
      <trkpt lat="42.438895" lon="1.156850">
        <ele>1281.826</ele>
        <time>2021-06-19T12:25:38Z</time>
      </trkpt>
      <trkpt lat="42.438898" lon="1.156891">
        <ele>1281.708</ele>
        <time>2021-06-19T12:25:40Z</time>
      </trkpt>
      <trkpt lat="42.438904" lon="1.156965">
        <ele>1281.535</ele>
        <time>2021-06-19T12:25:44Z</time>
      </trkpt>
      <trkpt lat="42.438902" lon="1.156976">
        <ele>1281.694</ele>
        <time>2021-06-19T12:25:45Z</time>
      </trkpt>
      <trkpt lat="42.438881" lon="1.157023">
        <ele>1282.240</ele>
        <time>2021-06-19T12:25:49Z</time>
      </trkpt>
      <trkpt lat="42.438866" lon="1.157087">
        <ele>1282.614</ele>
        <time>2021-06-19T12:25:53Z</time>
      </trkpt>
      <trkpt lat="42.438855" lon="1.157111">
        <ele>1282.918</ele>
        <time>2021-06-19T12:25:54Z</time>
      </trkpt>
      <trkpt lat="42.438834" lon="1.157174">
        <ele>1283.498</ele>
        <time>2021-06-19T12:25:57Z</time>
      </trkpt>
      <trkpt lat="42.438828" lon="1.157237">
        <ele>1283.681</ele>
        <time>2021-06-19T12:26:00Z</time>
      </trkpt>
      <trkpt lat="42.438826" lon="1.157281">
        <ele>1284.068</ele>
        <time>2021-06-19T12:26:02Z</time>
      </trkpt>
      <trkpt lat="42.438836" lon="1.157372">
        <ele>1284.349</ele>
        <time>2021-06-19T12:26:06Z</time>
      </trkpt>
      <trkpt lat="42.438837" lon="1.157394">
        <ele>1284.402</ele>
        <time>2021-06-19T12:26:07Z</time>
      </trkpt>
      <trkpt lat="42.438849" lon="1.157503">
        <ele>1284.922</ele>
        <time>2021-06-19T12:26:12Z</time>
      </trkpt>
      <trkpt lat="42.438849" lon="1.157526">
        <ele>1285.108</ele>
        <time>2021-06-19T12:26:13Z</time>
      </trkpt>
      <trkpt lat="42.438846" lon="1.157608">
        <ele>1286.091</ele>
        <time>2021-06-19T12:26:17Z</time>
      </trkpt>
      <trkpt lat="42.438841" lon="1.157628">
        <ele>1286.390</ele>
        <time>2021-06-19T12:26:18Z</time>
      </trkpt>
      <trkpt lat="42.438829" lon="1.157653">
        <ele>1286.826</ele>
        <time>2021-06-19T12:26:19Z</time>
      </trkpt>
      <trkpt lat="42.438766" lon="1.157730">
        <ele>1288.890</ele>
        <time>2021-06-19T12:26:23Z</time>
      </trkpt>
      <trkpt lat="42.438733" lon="1.157741">
        <ele>1289.534</ele>
        <time>2021-06-19T12:26:25Z</time>
      </trkpt>
      <trkpt lat="42.438691" lon="1.157741">
        <ele>1290.364</ele>
        <time>2021-06-19T12:26:28Z</time>
      </trkpt>
      <trkpt lat="42.438670" lon="1.157740">
        <ele>1290.677</ele>
        <time>2021-06-19T12:26:31Z</time>
      </trkpt>
      <trkpt lat="42.438665" lon="1.157735">
        <ele>1290.754</ele>
        <time>2021-06-19T12:26:32Z</time>
      </trkpt>
      <trkpt lat="42.438646" lon="1.157694">
        <ele>1290.732</ele>
        <time>2021-06-19T12:26:35Z</time>
      </trkpt>
      <trkpt lat="42.438631" lon="1.157640">
        <ele>1290.692</ele>
        <time>2021-06-19T12:26:38Z</time>
      </trkpt>
      <trkpt lat="42.438626" lon="1.157626">
        <ele>1290.611</ele>
        <time>2021-06-19T12:26:39Z</time>
      </trkpt>
      <trkpt lat="42.438608" lon="1.157581">
        <ele>1290.708</ele>
        <time>2021-06-19T12:26:42Z</time>
      </trkpt>
      <trkpt lat="42.438587" lon="1.157509">
        <ele>1290.870</ele>
        <time>2021-06-19T12:26:46Z</time>
      </trkpt>
      <trkpt lat="42.438557" lon="1.157418">
        <ele>1291.399</ele>
        <time>2021-06-19T12:26:50Z</time>
      </trkpt>
      <trkpt lat="42.438522" lon="1.157354">
        <ele>1292.055</ele>
        <time>2021-06-19T12:26:53Z</time>
      </trkpt>
      <trkpt lat="42.438498" lon="1.157252">
        <ele>1292.429</ele>
        <time>2021-06-19T12:26:57Z</time>
      </trkpt>
      <trkpt lat="42.438489" lon="1.157231">
        <ele>1292.573</ele>
        <time>2021-06-19T12:26:58Z</time>
      </trkpt>
      <trkpt lat="42.438482" lon="1.157207">
        <ele>1292.783</ele>
        <time>2021-06-19T12:26:59Z</time>
      </trkpt>
      <trkpt lat="42.438446" lon="1.157071">
        <ele>1294.036</ele>
        <time>2021-06-19T12:27:05Z</time>
      </trkpt>
      <trkpt lat="42.438440" lon="1.157054">
        <ele>1294.283</ele>
        <time>2021-06-19T12:27:06Z</time>
      </trkpt>
      <trkpt lat="42.438403" lon="1.156951">
        <ele>1295.297</ele>
        <time>2021-06-19T12:27:11Z</time>
      </trkpt>
      <trkpt lat="42.438392" lon="1.156927">
        <ele>1295.423</ele>
        <time>2021-06-19T12:27:12Z</time>
      </trkpt>
      <trkpt lat="42.438315" lon="1.156840">
        <ele>1296.825</ele>
        <time>2021-06-19T12:27:17Z</time>
      </trkpt>
      <trkpt lat="42.438298" lon="1.156827">
        <ele>1297.208</ele>
        <time>2021-06-19T12:27:18Z</time>
      </trkpt>
      <trkpt lat="42.438214" lon="1.156769">
        <ele>1299.126</ele>
        <time>2021-06-19T12:27:23Z</time>
      </trkpt>
      <trkpt lat="42.438168" lon="1.156740">
        <ele>1300.015</ele>
        <time>2021-06-19T12:27:26Z</time>
      </trkpt>
      <trkpt lat="42.438117" lon="1.156706">
        <ele>1301.091</ele>
        <time>2021-06-19T12:27:29Z</time>
      </trkpt>
      <trkpt lat="42.438049" lon="1.156664">
        <ele>1302.155</ele>
        <time>2021-06-19T12:27:33Z</time>
      </trkpt>
      <trkpt lat="42.437972" lon="1.156634">
        <ele>1303.239</ele>
        <time>2021-06-19T12:27:37Z</time>
      </trkpt>
      <trkpt lat="42.437874" lon="1.156596">
        <ele>1304.579</ele>
        <time>2021-06-19T12:27:42Z</time>
      </trkpt>
      <trkpt lat="42.437814" lon="1.156574">
        <ele>1305.352</ele>
        <time>2021-06-19T12:27:46Z</time>
      </trkpt>
      <trkpt lat="42.437764" lon="1.156538">
        <ele>1305.279</ele>
        <time>2021-06-19T12:27:49Z</time>
      </trkpt>
      <trkpt lat="42.437684" lon="1.156490">
        <ele>1305.579</ele>
        <time>2021-06-19T12:27:54Z</time>
      </trkpt>
      <trkpt lat="42.437667" lon="1.156482">
        <ele>1305.605</ele>
        <time>2021-06-19T12:27:55Z</time>
      </trkpt>
      <trkpt lat="42.437600" lon="1.156449">
        <ele>1306.225</ele>
        <time>2021-06-19T12:28:00Z</time>
      </trkpt>
      <trkpt lat="42.437587" lon="1.156440">
        <ele>1306.308</ele>
        <time>2021-06-19T12:28:01Z</time>
      </trkpt>
      <trkpt lat="42.437525" lon="1.156418">
        <ele>1307.234</ele>
        <time>2021-06-19T12:28:05Z</time>
      </trkpt>
      <trkpt lat="42.437498" lon="1.156395">
        <ele>1307.213</ele>
        <time>2021-06-19T12:28:07Z</time>
      </trkpt>
      <trkpt lat="42.437441" lon="1.156359">
        <ele>1307.419</ele>
        <time>2021-06-19T12:28:11Z</time>
      </trkpt>
      <trkpt lat="42.437394" lon="1.156324">
        <ele>1307.523</ele>
        <time>2021-06-19T12:28:14Z</time>
      </trkpt>
      <trkpt lat="42.437342" lon="1.156276">
        <ele>1307.477</ele>
        <time>2021-06-19T12:28:17Z</time>
      </trkpt>
      <trkpt lat="42.437283" lon="1.156193">
        <ele>1306.657</ele>
        <time>2021-06-19T12:28:21Z</time>
      </trkpt>
      <trkpt lat="42.437245" lon="1.156151">
        <ele>1306.470</ele>
        <time>2021-06-19T12:28:23Z</time>
      </trkpt>
      <trkpt lat="42.437202" lon="1.156005">
        <ele>1305.337</ele>
        <time>2021-06-19T12:28:28Z</time>
      </trkpt>
      <trkpt lat="42.437199" lon="1.155979">
        <ele>1305.147</ele>
        <time>2021-06-19T12:28:29Z</time>
      </trkpt>
      <trkpt lat="42.437202" lon="1.155950">
        <ele>1304.729</ele>
        <time>2021-06-19T12:28:30Z</time>
      </trkpt>
      <trkpt lat="42.437225" lon="1.155849">
        <ele>1303.121</ele>
        <time>2021-06-19T12:28:33Z</time>
      </trkpt>
      <trkpt lat="42.437261" lon="1.155680">
        <ele>1303.908</ele>
        <time>2021-06-19T12:28:38Z</time>
      </trkpt>
      <trkpt lat="42.437273" lon="1.155462">
        <ele>1305.171</ele>
        <time>2021-06-19T12:28:45Z</time>
      </trkpt>
      <trkpt lat="42.437260" lon="1.155373">
        <ele>1305.370</ele>
        <time>2021-06-19T12:28:48Z</time>
      </trkpt>
      <trkpt lat="42.437238" lon="1.155272">
        <ele>1305.746</ele>
        <time>2021-06-19T12:28:51Z</time>
      </trkpt>
      <trkpt lat="42.437204" lon="1.155096">
        <ele>1306.590</ele>
        <time>2021-06-19T12:28:56Z</time>
      </trkpt>
      <trkpt lat="42.437162" lon="1.154997">
        <ele>1307.544</ele>
        <time>2021-06-19T12:29:00Z</time>
      </trkpt>
      <trkpt lat="42.437146" lon="1.154947">
        <ele>1307.734</ele>
        <time>2021-06-19T12:29:02Z</time>
      </trkpt>
      <trkpt lat="42.437070" lon="1.154811">
        <ele>1309.247</ele>
        <time>2021-06-19T12:29:08Z</time>
      </trkpt>
      <trkpt lat="42.437061" lon="1.154777">
        <ele>1309.364</ele>
        <time>2021-06-19T12:29:09Z</time>
      </trkpt>
      <trkpt lat="42.437016" lon="1.154677">
        <ele>1309.959</ele>
        <time>2021-06-19T12:29:13Z</time>
      </trkpt>
      <trkpt lat="42.437004" lon="1.154652">
        <ele>1310.003</ele>
        <time>2021-06-19T12:29:14Z</time>
      </trkpt>
      <trkpt lat="42.436944" lon="1.154560">
        <ele>1310.823</ele>
        <time>2021-06-19T12:29:19Z</time>
      </trkpt>
      <trkpt lat="42.436853" lon="1.154470">
        <ele>1312.208</ele>
        <time>2021-06-19T12:29:25Z</time>
      </trkpt>
      <trkpt lat="42.436816" lon="1.154448">
        <ele>1312.882</ele>
        <time>2021-06-19T12:29:27Z</time>
      </trkpt>
      <trkpt lat="42.436798" lon="1.154432">
        <ele>1313.071</ele>
        <time>2021-06-19T12:29:28Z</time>
      </trkpt>
      <trkpt lat="42.436773" lon="1.154398">
        <ele>1313.287</ele>
        <time>2021-06-19T12:29:30Z</time>
      </trkpt>
      <trkpt lat="42.436730" lon="1.154355">
        <ele>1313.731</ele>
        <time>2021-06-19T12:29:33Z</time>
      </trkpt>
      <trkpt lat="42.436700" lon="1.154327">
        <ele>1314.015</ele>
        <time>2021-06-19T12:29:35Z</time>
      </trkpt>
      <trkpt lat="42.436688" lon="1.154317">
        <ele>1314.245</ele>
        <time>2021-06-19T12:29:36Z</time>
      </trkpt>
      <trkpt lat="42.436633" lon="1.154260">
        <ele>1314.558</ele>
        <time>2021-06-19T12:29:41Z</time>
      </trkpt>
      <trkpt lat="42.436619" lon="1.154246">
        <ele>1314.575</ele>
        <time>2021-06-19T12:29:42Z</time>
      </trkpt>
      <trkpt lat="42.436595" lon="1.154222">
        <ele>1314.668</ele>
        <time>2021-06-19T12:29:44Z</time>
      </trkpt>
      <trkpt lat="42.436574" lon="1.154214">
        <ele>1314.842</ele>
        <time>2021-06-19T12:29:46Z</time>
      </trkpt>
      <trkpt lat="42.436538" lon="1.154192">
        <ele>1315.126</ele>
        <time>2021-06-19T12:29:49Z</time>
      </trkpt>
      <trkpt lat="42.436519" lon="1.154174">
        <ele>1315.208</ele>
        <time>2021-06-19T12:29:50Z</time>
      </trkpt>
      <trkpt lat="42.436456" lon="1.154108">
        <ele>1315.683</ele>
        <time>2021-06-19T12:29:55Z</time>
      </trkpt>
      <trkpt lat="42.436441" lon="1.154084">
        <ele>1315.792</ele>
        <time>2021-06-19T12:29:56Z</time>
      </trkpt>
      <trkpt lat="42.436377" lon="1.154003">
        <ele>1316.028</ele>
        <time>2021-06-19T12:30:00Z</time>
      </trkpt>
      <trkpt lat="42.436318" lon="1.153917">
        <ele>1316.582</ele>
        <time>2021-06-19T12:30:04Z</time>
      </trkpt>
      <trkpt lat="42.436291" lon="1.153867">
        <ele>1316.786</ele>
        <time>2021-06-19T12:30:06Z</time>
      </trkpt>
      <trkpt lat="42.436238" lon="1.153764">
        <ele>1317.356</ele>
        <time>2021-06-19T12:30:10Z</time>
      </trkpt>
      <trkpt lat="42.436218" lon="1.153711">
        <ele>1317.439</ele>
        <time>2021-06-19T12:30:12Z</time>
      </trkpt>
      <trkpt lat="42.436179" lon="1.153632">
        <ele>1317.996</ele>
        <time>2021-06-19T12:30:16Z</time>
      </trkpt>
      <trkpt lat="42.436173" lon="1.153609">
        <ele>1317.976</ele>
        <time>2021-06-19T12:30:17Z</time>
      </trkpt>
      <trkpt lat="42.436170" lon="1.153446">
        <ele>1318.490</ele>
        <time>2021-06-19T12:30:22Z</time>
      </trkpt>
      <trkpt lat="42.436164" lon="1.153388">
        <ele>1318.719</ele>
        <time>2021-06-19T12:30:24Z</time>
      </trkpt>
      <trkpt lat="42.436159" lon="1.153258">
        <ele>1319.308</ele>
        <time>2021-06-19T12:30:28Z</time>
      </trkpt>
      <trkpt lat="42.436165" lon="1.153199">
        <ele>1319.434</ele>
        <time>2021-06-19T12:30:30Z</time>
      </trkpt>
      <trkpt lat="42.436190" lon="1.153096">
        <ele>1319.433</ele>
        <time>2021-06-19T12:30:34Z</time>
      </trkpt>
      <trkpt lat="42.436188" lon="1.153039">
        <ele>1319.799</ele>
        <time>2021-06-19T12:30:37Z</time>
      </trkpt>
      <trkpt lat="42.436169" lon="1.152984">
        <ele>1320.473</ele>
        <time>2021-06-19T12:30:40Z</time>
      </trkpt>
      <trkpt lat="42.436149" lon="1.152948">
        <ele>1321.017</ele>
        <time>2021-06-19T12:30:42Z</time>
      </trkpt>
      <trkpt lat="42.436131" lon="1.152902">
        <ele>1321.787</ele>
        <time>2021-06-19T12:30:44Z</time>
      </trkpt>
      <trkpt lat="42.436097" lon="1.152850">
        <ele>1322.850</ele>
        <time>2021-06-19T12:30:47Z</time>
      </trkpt>
      <trkpt lat="42.436084" lon="1.152840">
        <ele>1323.277</ele>
        <time>2021-06-19T12:30:49Z</time>
      </trkpt>
      <trkpt lat="42.436061" lon="1.152862">
        <ele>1323.649</ele>
        <time>2021-06-19T12:30:52Z</time>
      </trkpt>
      <trkpt lat="42.436046" lon="1.152878">
        <ele>1323.802</ele>
        <time>2021-06-19T12:30:54Z</time>
      </trkpt>
      <trkpt lat="42.436029" lon="1.152904">
        <ele>1324.022</ele>
        <time>2021-06-19T12:30:56Z</time>
      </trkpt>
      <trkpt lat="42.436025" lon="1.152923">
        <ele>1324.008</ele>
        <time>2021-06-19T12:30:57Z</time>
      </trkpt>
      <trkpt lat="42.436014" lon="1.152964">
        <ele>1323.961</ele>
        <time>2021-06-19T12:30:59Z</time>
      </trkpt>
      <trkpt lat="42.435974" lon="1.153011">
        <ele>1324.460</ele>
        <time>2021-06-19T12:31:02Z</time>
      </trkpt>
      <trkpt lat="42.435907" lon="1.153068">
        <ele>1325.326</ele>
        <time>2021-06-19T12:31:07Z</time>
      </trkpt>
      <trkpt lat="42.435893" lon="1.153081">
        <ele>1325.520</ele>
        <time>2021-06-19T12:31:08Z</time>
      </trkpt>
      <trkpt lat="42.435883" lon="1.153101">
        <ele>1325.654</ele>
        <time>2021-06-19T12:31:09Z</time>
      </trkpt>
      <trkpt lat="42.435856" lon="1.153154">
        <ele>1325.884</ele>
        <time>2021-06-19T12:31:12Z</time>
      </trkpt>
      <trkpt lat="42.435845" lon="1.153167">
        <ele>1326.037</ele>
        <time>2021-06-19T12:31:13Z</time>
      </trkpt>
      <trkpt lat="42.435804" lon="1.153230">
        <ele>1326.644</ele>
        <time>2021-06-19T12:31:18Z</time>
      </trkpt>
      <trkpt lat="42.435759" lon="1.153357">
        <ele>1327.171</ele>
        <time>2021-06-19T12:31:26Z</time>
      </trkpt>
      <trkpt lat="42.435734" lon="1.153484">
        <ele>1327.541</ele>
        <time>2021-06-19T12:31:32Z</time>
      </trkpt>
      <trkpt lat="42.435733" lon="1.153507">
        <ele>1327.515</ele>
        <time>2021-06-19T12:31:33Z</time>
      </trkpt>
      <trkpt lat="42.435725" lon="1.153637">
        <ele>1327.708</ele>
        <time>2021-06-19T12:31:39Z</time>
      </trkpt>
      <trkpt lat="42.435724" lon="1.153658">
        <ele>1327.944</ele>
        <time>2021-06-19T12:31:40Z</time>
      </trkpt>
      <trkpt lat="42.435728" lon="1.153676">
        <ele>1328.093</ele>
        <time>2021-06-19T12:31:41Z</time>
      </trkpt>
      <trkpt lat="42.435733" lon="1.153763">
        <ele>1328.529</ele>
        <time>2021-06-19T12:31:45Z</time>
      </trkpt>
      <trkpt lat="42.435735" lon="1.153779">
        <ele>1328.673</ele>
        <time>2021-06-19T12:31:46Z</time>
      </trkpt>
      <trkpt lat="42.435746" lon="1.153876">
        <ele>1329.027</ele>
        <time>2021-06-19T12:31:51Z</time>
      </trkpt>
      <trkpt lat="42.435748" lon="1.153897">
        <ele>1329.167</ele>
        <time>2021-06-19T12:31:52Z</time>
      </trkpt>
      <trkpt lat="42.435751" lon="1.153923">
        <ele>1329.210</ele>
        <time>2021-06-19T12:31:53Z</time>
      </trkpt>
      <trkpt lat="42.435755" lon="1.154006">
        <ele>1329.857</ele>
        <time>2021-06-19T12:31:57Z</time>
      </trkpt>
      <trkpt lat="42.435757" lon="1.154060">
        <ele>1330.192</ele>
        <time>2021-06-19T12:31:59Z</time>
      </trkpt>
      <trkpt lat="42.435762" lon="1.154166">
        <ele>1330.873</ele>
        <time>2021-06-19T12:32:03Z</time>
      </trkpt>
      <trkpt lat="42.435762" lon="1.154244">
        <ele>1331.920</ele>
        <time>2021-06-19T12:32:06Z</time>
      </trkpt>
      <trkpt lat="42.435764" lon="1.154286">
        <ele>1332.508</ele>
        <time>2021-06-19T12:32:08Z</time>
      </trkpt>
      <trkpt lat="42.435770" lon="1.154358">
        <ele>1333.366</ele>
        <time>2021-06-19T12:32:11Z</time>
      </trkpt>
      <trkpt lat="42.435772" lon="1.154377">
        <ele>1333.515</ele>
        <time>2021-06-19T12:32:12Z</time>
      </trkpt>
      <trkpt lat="42.435773" lon="1.154418">
        <ele>1334.061</ele>
        <time>2021-06-19T12:32:14Z</time>
      </trkpt>
      <trkpt lat="42.435770" lon="1.154466">
        <ele>1334.765</ele>
        <time>2021-06-19T12:32:16Z</time>
      </trkpt>
      <trkpt lat="42.435770" lon="1.154487">
        <ele>1335.019</ele>
        <time>2021-06-19T12:32:17Z</time>
      </trkpt>
      <trkpt lat="42.435769" lon="1.154536">
        <ele>1335.529</ele>
        <time>2021-06-19T12:32:19Z</time>
      </trkpt>
      <trkpt lat="42.435763" lon="1.154643">
        <ele>1336.982</ele>
        <time>2021-06-19T12:32:23Z</time>
      </trkpt>
      <trkpt lat="42.435764" lon="1.154667">
        <ele>1337.149</ele>
        <time>2021-06-19T12:32:24Z</time>
      </trkpt>
      <trkpt lat="42.435773" lon="1.154734">
        <ele>1337.541</ele>
        <time>2021-06-19T12:32:27Z</time>
      </trkpt>
      <trkpt lat="42.435776" lon="1.154780">
        <ele>1338.181</ele>
        <time>2021-06-19T12:32:29Z</time>
      </trkpt>
      <trkpt lat="42.435780" lon="1.154883">
        <ele>1339.309</ele>
        <time>2021-06-19T12:32:33Z</time>
      </trkpt>
      <trkpt lat="42.435782" lon="1.154934">
        <ele>1339.908</ele>
        <time>2021-06-19T12:32:35Z</time>
      </trkpt>
      <trkpt lat="42.435775" lon="1.155005">
        <ele>1341.251</ele>
        <time>2021-06-19T12:32:38Z</time>
      </trkpt>
      <trkpt lat="42.435791" lon="1.155078">
        <ele>1341.420</ele>
        <time>2021-06-19T12:32:41Z</time>
      </trkpt>
      <trkpt lat="42.435795" lon="1.155119">
        <ele>1341.776</ele>
        <time>2021-06-19T12:32:43Z</time>
      </trkpt>
      <trkpt lat="42.435798" lon="1.155141">
        <ele>1341.890</ele>
        <time>2021-06-19T12:32:44Z</time>
      </trkpt>
      <trkpt lat="42.435804" lon="1.155159">
        <ele>1341.844</ele>
        <time>2021-06-19T12:32:45Z</time>
      </trkpt>
      <trkpt lat="42.435829" lon="1.155243">
        <ele>1341.894</ele>
        <time>2021-06-19T12:32:50Z</time>
      </trkpt>
      <trkpt lat="42.435829" lon="1.155272">
        <ele>1342.167</ele>
        <time>2021-06-19T12:32:51Z</time>
      </trkpt>
      <trkpt lat="42.435834" lon="1.155387">
        <ele>1343.614</ele>
        <time>2021-06-19T12:32:55Z</time>
      </trkpt>
      <trkpt lat="42.435839" lon="1.155414">
        <ele>1343.868</ele>
        <time>2021-06-19T12:32:56Z</time>
      </trkpt>
      <trkpt lat="42.435838" lon="1.155445">
        <ele>1344.342</ele>
        <time>2021-06-19T12:32:57Z</time>
      </trkpt>
      <trkpt lat="42.435844" lon="1.155491">
        <ele>1344.726</ele>
        <time>2021-06-19T12:32:59Z</time>
      </trkpt>
      <trkpt lat="42.435851" lon="1.155515">
        <ele>1344.808</ele>
        <time>2021-06-19T12:33:00Z</time>
      </trkpt>
      <trkpt lat="42.435855" lon="1.155541">
        <ele>1345.023</ele>
        <time>2021-06-19T12:33:01Z</time>
      </trkpt>
      <trkpt lat="42.435861" lon="1.155565">
        <ele>1345.292</ele>
        <time>2021-06-19T12:33:02Z</time>
      </trkpt>
      <trkpt lat="42.435889" lon="1.155668">
        <ele>1345.898</ele>
        <time>2021-06-19T12:33:07Z</time>
      </trkpt>
      <trkpt lat="42.435917" lon="1.155735">
        <ele>1345.622</ele>
        <time>2021-06-19T12:33:10Z</time>
      </trkpt>
      <trkpt lat="42.435927" lon="1.155757">
        <ele>1345.556</ele>
        <time>2021-06-19T12:33:11Z</time>
      </trkpt>
      <trkpt lat="42.435960" lon="1.155845">
        <ele>1345.186</ele>
        <time>2021-06-19T12:33:15Z</time>
      </trkpt>
      <trkpt lat="42.435973" lon="1.155886">
        <ele>1344.699</ele>
        <time>2021-06-19T12:33:17Z</time>
      </trkpt>
      <trkpt lat="42.435975" lon="1.155975">
        <ele>1344.626</ele>
        <time>2021-06-19T12:33:21Z</time>
      </trkpt>
      <trkpt lat="42.435985" lon="1.156001">
        <ele>1344.118</ele>
        <time>2021-06-19T12:33:23Z</time>
      </trkpt>
      <trkpt lat="42.435990" lon="1.156041">
        <ele>1343.998</ele>
        <time>2021-06-19T12:33:25Z</time>
      </trkpt>
      <trkpt lat="42.435984" lon="1.156093">
        <ele>1344.317</ele>
        <time>2021-06-19T12:33:27Z</time>
      </trkpt>
      <trkpt lat="42.435982" lon="1.156143">
        <ele>1344.208</ele>
        <time>2021-06-19T12:33:29Z</time>
      </trkpt>
      <trkpt lat="42.435958" lon="1.156241">
        <ele>1344.698</ele>
        <time>2021-06-19T12:33:34Z</time>
      </trkpt>
      <trkpt lat="42.435937" lon="1.156275">
        <ele>1345.367</ele>
        <time>2021-06-19T12:33:36Z</time>
      </trkpt>
      <trkpt lat="42.435929" lon="1.156296">
        <ele>1345.523</ele>
        <time>2021-06-19T12:33:37Z</time>
      </trkpt>
      <trkpt lat="42.435884" lon="1.156391">
        <ele>1346.747</ele>
        <time>2021-06-19T12:33:42Z</time>
      </trkpt>
      <trkpt lat="42.435876" lon="1.156441">
        <ele>1347.911</ele>
        <time>2021-06-19T12:33:45Z</time>
      </trkpt>
      <trkpt lat="42.435873" lon="1.156511">
        <ele>1349.341</ele>
        <time>2021-06-19T12:33:48Z</time>
      </trkpt>
      <trkpt lat="42.435881" lon="1.156588">
        <ele>1350.414</ele>
        <time>2021-06-19T12:33:51Z</time>
      </trkpt>
      <trkpt lat="42.435885" lon="1.156611">
        <ele>1350.761</ele>
        <time>2021-06-19T12:33:52Z</time>
      </trkpt>
      <trkpt lat="42.435911" lon="1.156656">
        <ele>1350.889</ele>
        <time>2021-06-19T12:33:55Z</time>
      </trkpt>
      <trkpt lat="42.435923" lon="1.156661">
        <ele>1350.606</ele>
        <time>2021-06-19T12:33:56Z</time>
      </trkpt>
      <trkpt lat="42.435957" lon="1.156686">
        <ele>1350.826</ele>
        <time>2021-06-19T12:33:59Z</time>
      </trkpt>
      <trkpt lat="42.435978" lon="1.156705">
        <ele>1351.208</ele>
        <time>2021-06-19T12:34:01Z</time>
      </trkpt>
      <trkpt lat="42.435997" lon="1.156731">
        <ele>1352.095</ele>
        <time>2021-06-19T12:34:03Z</time>
      </trkpt>
      <trkpt lat="42.436029" lon="1.156768">
        <ele>1352.974</ele>
        <time>2021-06-19T12:34:06Z</time>
      </trkpt>
      <trkpt lat="42.436040" lon="1.156780">
        <ele>1353.230</ele>
        <time>2021-06-19T12:34:07Z</time>
      </trkpt>
      <trkpt lat="42.436072" lon="1.156815">
        <ele>1354.034</ele>
        <time>2021-06-19T12:34:10Z</time>
      </trkpt>
      <trkpt lat="42.436114" lon="1.156887">
        <ele>1356.238</ele>
        <time>2021-06-19T12:34:15Z</time>
      </trkpt>
      <trkpt lat="42.436128" lon="1.156924">
        <ele>1357.468</ele>
        <time>2021-06-19T12:34:17Z</time>
      </trkpt>
      <trkpt lat="42.436160" lon="1.156972">
        <ele>1357.881</ele>
        <time>2021-06-19T12:34:20Z</time>
      </trkpt>
      <trkpt lat="42.436181" lon="1.157007">
        <ele>1357.918</ele>
        <time>2021-06-19T12:34:22Z</time>
      </trkpt>
      <trkpt lat="42.436221" lon="1.157112">
        <ele>1359.376</ele>
        <time>2021-06-19T12:34:27Z</time>
      </trkpt>
      <trkpt lat="42.436239" lon="1.157151">
        <ele>1359.890</ele>
        <time>2021-06-19T12:34:29Z</time>
      </trkpt>
      <trkpt lat="42.436247" lon="1.157172">
        <ele>1360.219</ele>
        <time>2021-06-19T12:34:30Z</time>
      </trkpt>
      <trkpt lat="42.436251" lon="1.157195">
        <ele>1360.708</ele>
        <time>2021-06-19T12:34:31Z</time>
      </trkpt>
      <trkpt lat="42.436255" lon="1.157219">
        <ele>1361.234</ele>
        <time>2021-06-19T12:34:32Z</time>
      </trkpt>
      <trkpt lat="42.436274" lon="1.157282">
        <ele>1362.153</ele>
        <time>2021-06-19T12:34:35Z</time>
      </trkpt>
      <trkpt lat="42.436283" lon="1.157325">
        <ele>1362.779</ele>
        <time>2021-06-19T12:34:37Z</time>
      </trkpt>
      <trkpt lat="42.436292" lon="1.157341">
        <ele>1362.833</ele>
        <time>2021-06-19T12:34:38Z</time>
      </trkpt>
      <trkpt lat="42.436306" lon="1.157379">
        <ele>1363.387</ele>
        <time>2021-06-19T12:34:40Z</time>
      </trkpt>
      <trkpt lat="42.436321" lon="1.157413">
        <ele>1363.757</ele>
        <time>2021-06-19T12:34:42Z</time>
      </trkpt>
      <trkpt lat="42.436382" lon="1.157487">
        <ele>1363.860</ele>
        <time>2021-06-19T12:34:47Z</time>
      </trkpt>
      <trkpt lat="42.436389" lon="1.157504">
        <ele>1364.127</ele>
        <time>2021-06-19T12:34:48Z</time>
      </trkpt>
      <trkpt lat="42.436411" lon="1.157567">
        <ele>1364.654</ele>
        <time>2021-06-19T12:34:52Z</time>
      </trkpt>
      <trkpt lat="42.436428" lon="1.157599">
        <ele>1364.856</ele>
        <time>2021-06-19T12:34:54Z</time>
      </trkpt>
      <trkpt lat="42.436473" lon="1.157709">
        <ele>1365.611</ele>
        <time>2021-06-19T12:34:59Z</time>
      </trkpt>
      <trkpt lat="42.436494" lon="1.157747">
        <ele>1365.808</ele>
        <time>2021-06-19T12:35:01Z</time>
      </trkpt>
      <trkpt lat="42.436554" lon="1.157866">
        <ele>1367.092</ele>
        <time>2021-06-19T12:35:07Z</time>
      </trkpt>
      <trkpt lat="42.436561" lon="1.157886">
        <ele>1367.311</ele>
        <time>2021-06-19T12:35:08Z</time>
      </trkpt>
      <trkpt lat="42.436572" lon="1.157928">
        <ele>1368.097</ele>
        <time>2021-06-19T12:35:10Z</time>
      </trkpt>
      <trkpt lat="42.436596" lon="1.158014">
        <ele>1369.391</ele>
        <time>2021-06-19T12:35:14Z</time>
      </trkpt>
      <trkpt lat="42.436643" lon="1.158100">
        <ele>1369.995</ele>
        <time>2021-06-19T12:35:19Z</time>
      </trkpt>
      <trkpt lat="42.436650" lon="1.158119">
        <ele>1370.165</ele>
        <time>2021-06-19T12:35:20Z</time>
      </trkpt>
      <trkpt lat="42.436673" lon="1.158152">
        <ele>1370.238</ele>
        <time>2021-06-19T12:35:22Z</time>
      </trkpt>
      <trkpt lat="42.436709" lon="1.158197">
        <ele>1370.115</ele>
        <time>2021-06-19T12:35:25Z</time>
      </trkpt>
      <trkpt lat="42.436720" lon="1.158216">
        <ele>1370.288</ele>
        <time>2021-06-19T12:35:26Z</time>
      </trkpt>
      <trkpt lat="42.436728" lon="1.158236">
        <ele>1370.424</ele>
        <time>2021-06-19T12:35:27Z</time>
      </trkpt>
      <trkpt lat="42.436776" lon="1.158327">
        <ele>1370.926</ele>
        <time>2021-06-19T12:35:32Z</time>
      </trkpt>
      <trkpt lat="42.436785" lon="1.158345">
        <ele>1371.008</ele>
        <time>2021-06-19T12:35:33Z</time>
      </trkpt>
      <trkpt lat="42.436816" lon="1.158413">
        <ele>1371.075</ele>
        <time>2021-06-19T12:35:37Z</time>
      </trkpt>
      <trkpt lat="42.436831" lon="1.158459">
        <ele>1371.354</ele>
        <time>2021-06-19T12:35:39Z</time>
      </trkpt>
      <trkpt lat="42.436839" lon="1.158480">
        <ele>1371.380</ele>
        <time>2021-06-19T12:35:40Z</time>
      </trkpt>
      <trkpt lat="42.436870" lon="1.158573">
        <ele>1371.644</ele>
        <time>2021-06-19T12:35:44Z</time>
      </trkpt>
      <trkpt lat="42.436885" lon="1.158610">
        <ele>1371.588</ele>
        <time>2021-06-19T12:35:46Z</time>
      </trkpt>
      <trkpt lat="42.436911" lon="1.158745">
        <ele>1372.838</ele>
        <time>2021-06-19T12:35:52Z</time>
      </trkpt>
      <trkpt lat="42.436912" lon="1.158767">
        <ele>1373.181</ele>
        <time>2021-06-19T12:35:53Z</time>
      </trkpt>
      <trkpt lat="42.436920" lon="1.158887">
        <ele>1374.998</ele>
        <time>2021-06-19T12:35:59Z</time>
      </trkpt>
      <trkpt lat="42.436922" lon="1.158907">
        <ele>1375.223</ele>
        <time>2021-06-19T12:36:00Z</time>
      </trkpt>
      <trkpt lat="42.436930" lon="1.158947">
        <ele>1375.683</ele>
        <time>2021-06-19T12:36:02Z</time>
      </trkpt>
      <trkpt lat="42.436942" lon="1.158989">
        <ele>1375.911</ele>
        <time>2021-06-19T12:36:04Z</time>
      </trkpt>
      <trkpt lat="42.436949" lon="1.159027">
        <ele>1376.208</ele>
        <time>2021-06-19T12:36:06Z</time>
      </trkpt>
      <trkpt lat="42.436964" lon="1.159098">
        <ele>1376.749</ele>
        <time>2021-06-19T12:36:10Z</time>
      </trkpt>
      <trkpt lat="42.436983" lon="1.159111">
        <ele>1375.928</ele>
        <time>2021-06-19T12:36:11Z</time>
      </trkpt>
      <trkpt lat="42.437026" lon="1.159158">
        <ele>1374.434</ele>
        <time>2021-06-19T12:36:15Z</time>
      </trkpt>
      <trkpt lat="42.437027" lon="1.159169">
        <ele>1374.658</ele>
        <time>2021-06-19T12:36:16Z</time>
      </trkpt>
      <trkpt lat="42.437040" lon="1.159239">
        <ele>1374.692</ele>
        <time>2021-06-19T12:36:21Z</time>
      </trkpt>
      <trkpt lat="42.437050" lon="1.159307">
        <ele>1374.832</ele>
        <time>2021-06-19T12:36:24Z</time>
      </trkpt>
      <trkpt lat="42.437055" lon="1.159325">
        <ele>1374.775</ele>
        <time>2021-06-19T12:36:25Z</time>
      </trkpt>
      <trkpt lat="42.437067" lon="1.159489">
        <ele>1376.052</ele>
        <time>2021-06-19T12:36:32Z</time>
      </trkpt>
      <trkpt lat="42.437075" lon="1.159534">
        <ele>1376.165</ele>
        <time>2021-06-19T12:36:34Z</time>
      </trkpt>
      <trkpt lat="42.437079" lon="1.159593">
        <ele>1376.668</ele>
        <time>2021-06-19T12:36:36Z</time>
      </trkpt>
      <trkpt lat="42.437082" lon="1.159649">
        <ele>1377.214</ele>
        <time>2021-06-19T12:36:38Z</time>
      </trkpt>
      <trkpt lat="42.437083" lon="1.159725">
        <ele>1378.108</ele>
        <time>2021-06-19T12:36:41Z</time>
      </trkpt>
      <trkpt lat="42.437086" lon="1.159831">
        <ele>1379.693</ele>
        <time>2021-06-19T12:36:45Z</time>
      </trkpt>
      <trkpt lat="42.437107" lon="1.159891">
        <ele>1379.422</ele>
        <time>2021-06-19T12:36:48Z</time>
      </trkpt>
      <trkpt lat="42.437109" lon="1.159911">
        <ele>1379.648</ele>
        <time>2021-06-19T12:36:49Z</time>
      </trkpt>
      <trkpt lat="42.437111" lon="1.159929">
        <ele>1379.812</ele>
        <time>2021-06-19T12:36:50Z</time>
      </trkpt>
      <trkpt lat="42.437131" lon="1.160030">
        <ele>1380.496</ele>
        <time>2021-06-19T12:36:54Z</time>
      </trkpt>
      <trkpt lat="42.437137" lon="1.160076">
        <ele>1380.846</ele>
        <time>2021-06-19T12:36:56Z</time>
      </trkpt>
      <trkpt lat="42.437140" lon="1.160092">
        <ele>1380.989</ele>
        <time>2021-06-19T12:36:57Z</time>
      </trkpt>
      <trkpt lat="42.437143" lon="1.160138">
        <ele>1381.456</ele>
        <time>2021-06-19T12:37:00Z</time>
      </trkpt>
      <trkpt lat="42.437153" lon="1.160185">
        <ele>1381.662</ele>
        <time>2021-06-19T12:37:03Z</time>
      </trkpt>
      <trkpt lat="42.437157" lon="1.160253">
        <ele>1382.483</ele>
        <time>2021-06-19T12:37:06Z</time>
      </trkpt>
      <trkpt lat="42.437158" lon="1.160279">
        <ele>1382.711</ele>
        <time>2021-06-19T12:37:07Z</time>
      </trkpt>
      <trkpt lat="42.437161" lon="1.160306">
        <ele>1383.508</ele>
        <time>2021-06-19T12:37:08Z</time>
      </trkpt>
      <trkpt lat="42.437174" lon="1.160364">
        <ele>1384.823</ele>
        <time>2021-06-19T12:37:10Z</time>
      </trkpt>
      <trkpt lat="42.437235" lon="1.160457">
        <ele>1385.972</ele>
        <time>2021-06-19T12:37:15Z</time>
      </trkpt>
      <trkpt lat="42.437264" lon="1.160472">
        <ele>1385.968</ele>
        <time>2021-06-19T12:37:17Z</time>
      </trkpt>
      <trkpt lat="42.437342" lon="1.160519">
        <ele>1386.392</ele>
        <time>2021-06-19T12:37:22Z</time>
      </trkpt>
      <trkpt lat="42.437387" lon="1.160579">
        <ele>1387.996</ele>
        <time>2021-06-19T12:37:26Z</time>
      </trkpt>
      <trkpt lat="42.437422" lon="1.160624">
        <ele>1389.056</ele>
        <time>2021-06-19T12:37:29Z</time>
      </trkpt>
      <trkpt lat="42.437452" lon="1.160677">
        <ele>1390.449</ele>
        <time>2021-06-19T12:37:32Z</time>
      </trkpt>
      <trkpt lat="42.437483" lon="1.160726">
        <ele>1391.526</ele>
        <time>2021-06-19T12:37:35Z</time>
      </trkpt>
      <trkpt lat="42.437512" lon="1.160776">
        <ele>1392.556</ele>
        <time>2021-06-19T12:37:38Z</time>
      </trkpt>
      <trkpt lat="42.437565" lon="1.160848">
        <ele>1393.459</ele>
        <time>2021-06-19T12:37:43Z</time>
      </trkpt>
      <trkpt lat="42.437632" lon="1.160916">
        <ele>1393.414</ele>
        <time>2021-06-19T12:37:48Z</time>
      </trkpt>
      <trkpt lat="42.437698" lon="1.161002">
        <ele>1394.008</ele>
        <time>2021-06-19T12:37:54Z</time>
      </trkpt>
      <trkpt lat="42.437714" lon="1.161037">
        <ele>1394.712</ele>
        <time>2021-06-19T12:37:56Z</time>
      </trkpt>
      <trkpt lat="42.437738" lon="1.161094">
        <ele>1395.791</ele>
        <time>2021-06-19T12:37:59Z</time>
      </trkpt>
      <trkpt lat="42.437748" lon="1.161113">
        <ele>1396.047</ele>
        <time>2021-06-19T12:38:00Z</time>
      </trkpt>
      <trkpt lat="42.437785" lon="1.161168">
        <ele>1396.621</ele>
        <time>2021-06-19T12:38:03Z</time>
      </trkpt>
      <trkpt lat="42.437829" lon="1.161242">
        <ele>1397.725</ele>
        <time>2021-06-19T12:38:07Z</time>
      </trkpt>
      <trkpt lat="42.437848" lon="1.161269">
        <ele>1398.065</ele>
        <time>2021-06-19T12:38:09Z</time>
      </trkpt>
      <trkpt lat="42.437896" lon="1.161332">
        <ele>1398.498</ele>
        <time>2021-06-19T12:38:13Z</time>
      </trkpt>
      <trkpt lat="42.437924" lon="1.161356">
        <ele>1398.345</ele>
        <time>2021-06-19T12:38:15Z</time>
      </trkpt>
      <trkpt lat="42.437960" lon="1.161434">
        <ele>1399.565</ele>
        <time>2021-06-19T12:38:19Z</time>
      </trkpt>
      <trkpt lat="42.437998" lon="1.161505">
        <ele>1400.368</ele>
        <time>2021-06-19T12:38:23Z</time>
      </trkpt>
      <trkpt lat="42.438003" lon="1.161525">
        <ele>1400.714</ele>
        <time>2021-06-19T12:38:24Z</time>
      </trkpt>
      <trkpt lat="42.438009" lon="1.161545">
        <ele>1401.108</ele>
        <time>2021-06-19T12:38:25Z</time>
      </trkpt>
      <trkpt lat="42.438047" lon="1.161621">
        <ele>1402.073</ele>
        <time>2021-06-19T12:38:29Z</time>
      </trkpt>
      <trkpt lat="42.438064" lon="1.161659">
        <ele>1402.552</ele>
        <time>2021-06-19T12:38:31Z</time>
      </trkpt>
      <trkpt lat="42.438083" lon="1.161694">
        <ele>1402.778</ele>
        <time>2021-06-19T12:38:33Z</time>
      </trkpt>
      <trkpt lat="42.438092" lon="1.161711">
        <ele>1402.882</ele>
        <time>2021-06-19T12:38:34Z</time>
      </trkpt>
      <trkpt lat="42.438110" lon="1.161749">
        <ele>1403.126</ele>
        <time>2021-06-19T12:38:36Z</time>
      </trkpt>
      <trkpt lat="42.438139" lon="1.161810">
        <ele>1403.686</ele>
        <time>2021-06-19T12:38:39Z</time>
      </trkpt>
      <trkpt lat="42.438165" lon="1.161846">
        <ele>1403.669</ele>
        <time>2021-06-19T12:38:41Z</time>
      </trkpt>
      <trkpt lat="42.438233" lon="1.161946">
        <ele>1403.736</ele>
        <time>2021-06-19T12:38:46Z</time>
      </trkpt>
      <trkpt lat="42.438257" lon="1.161995">
        <ele>1404.132</ele>
        <time>2021-06-19T12:38:48Z</time>
      </trkpt>
      <trkpt lat="42.438269" lon="1.162023">
        <ele>1404.492</ele>
        <time>2021-06-19T12:38:49Z</time>
      </trkpt>
      <trkpt lat="42.438314" lon="1.162092">
        <ele>1404.511</ele>
        <time>2021-06-19T12:38:52Z</time>
      </trkpt>
      <trkpt lat="42.438389" lon="1.162182">
        <ele>1404.208</ele>
        <time>2021-06-19T12:38:57Z</time>
      </trkpt>
      <trkpt lat="42.438487" lon="1.162314">
        <ele>1404.590</ele>
        <time>2021-06-19T12:39:03Z</time>
      </trkpt>
      <trkpt lat="42.438526" lon="1.162366">
        <ele>1404.579</ele>
        <time>2021-06-19T12:39:05Z</time>
      </trkpt>
      <trkpt lat="42.438597" lon="1.162451">
        <ele>1404.345</ele>
        <time>2021-06-19T12:39:08Z</time>
      </trkpt>
      <trkpt lat="42.438696" lon="1.162587">
        <ele>1404.659</ele>
        <time>2021-06-19T12:39:13Z</time>
      </trkpt>
      <trkpt lat="42.438813" lon="1.162786">
        <ele>1405.363</ele>
        <time>2021-06-19T12:39:20Z</time>
      </trkpt>
      <trkpt lat="42.438887" lon="1.162927">
        <ele>1405.293</ele>
        <time>2021-06-19T12:39:24Z</time>
      </trkpt>
      <trkpt lat="42.438910" lon="1.162964">
        <ele>1404.956</ele>
        <time>2021-06-19T12:39:25Z</time>
      </trkpt>
      <trkpt lat="42.439027" lon="1.163130">
        <ele>1404.053</ele>
        <time>2021-06-19T12:39:30Z</time>
      </trkpt>
      <trkpt lat="42.439150" lon="1.163298">
        <ele>1404.541</ele>
        <time>2021-06-19T12:39:35Z</time>
      </trkpt>
      <trkpt lat="42.439403" lon="1.163577">
        <ele>1402.581</ele>
        <time>2021-06-19T12:39:43Z</time>
      </trkpt>
      <trkpt lat="42.439521" lon="1.163771">
        <ele>1402.509</ele>
        <time>2021-06-19T12:39:48Z</time>
      </trkpt>
      <trkpt lat="42.439622" lon="1.163950">
        <ele>1402.108</ele>
        <time>2021-06-19T12:39:52Z</time>
      </trkpt>
      <trkpt lat="42.439755" lon="1.164175">
        <ele>1401.151</ele>
        <time>2021-06-19T12:39:57Z</time>
      </trkpt>
      <trkpt lat="42.439850" lon="1.164349">
        <ele>1401.510</ele>
        <time>2021-06-19T12:40:01Z</time>
      </trkpt>
      <trkpt lat="42.440004" lon="1.164571">
        <ele>1400.156</ele>
        <time>2021-06-19T12:40:07Z</time>
      </trkpt>
      <trkpt lat="42.440197" lon="1.164869">
        <ele>1398.570</ele>
        <time>2021-06-19T12:40:14Z</time>
      </trkpt>
      <trkpt lat="42.440328" lon="1.165132">
        <ele>1398.524</ele>
        <time>2021-06-19T12:40:20Z</time>
      </trkpt>
      <trkpt lat="42.440398" lon="1.165336">
        <ele>1399.124</ele>
        <time>2021-06-19T12:40:24Z</time>
      </trkpt>
      <trkpt lat="42.440439" lon="1.165441">
        <ele>1398.847</ele>
        <time>2021-06-19T12:40:26Z</time>
      </trkpt>
      <trkpt lat="42.440480" lon="1.165554">
        <ele>1398.414</ele>
        <time>2021-06-19T12:40:28Z</time>
      </trkpt>
      <trkpt lat="42.440540" lon="1.165706">
        <ele>1398.114</ele>
        <time>2021-06-19T12:40:31Z</time>
      </trkpt>
      <trkpt lat="42.440574" lon="1.165885">
        <ele>1398.454</ele>
        <time>2021-06-19T12:40:35Z</time>
      </trkpt>
      <trkpt lat="42.440553" lon="1.166046">
        <ele>1399.109</ele>
        <time>2021-06-19T12:40:40Z</time>
      </trkpt>
      <trkpt lat="42.440463" lon="1.166298">
        <ele>1400.408</ele>
        <time>2021-06-19T12:40:46Z</time>
      </trkpt>
      <trkpt lat="42.440460" lon="1.166335">
        <ele>1400.238</ele>
        <time>2021-06-19T12:40:47Z</time>
      </trkpt>
      <trkpt lat="42.440440" lon="1.166416">
        <ele>1400.287</ele>
        <time>2021-06-19T12:40:50Z</time>
      </trkpt>
      <trkpt lat="42.440343" lon="1.166506">
        <ele>1402.673</ele>
        <time>2021-06-19T12:40:56Z</time>
      </trkpt>
      <trkpt lat="42.440329" lon="1.166507">
        <ele>1403.067</ele>
        <time>2021-06-19T12:40:57Z</time>
      </trkpt>
      <trkpt lat="42.440322" lon="1.166511">
        <ele>1403.211</ele>
        <time>2021-06-19T12:40:59Z</time>
      </trkpt>
      <trkpt lat="42.440292" lon="1.166460">
        <ele>1404.361</ele>
        <time>2021-06-19T12:41:50Z</time>
      </trkpt>
      <trkpt lat="42.440298" lon="1.166359">
        <ele>1404.794</ele>
        <time>2021-06-19T12:41:56Z</time>
      </trkpt>
      <trkpt lat="42.440319" lon="1.166252">
        <ele>1405.271</ele>
        <time>2021-06-19T12:42:02Z</time>
      </trkpt>
      <trkpt lat="42.440321" lon="1.166233">
        <ele>1405.418</ele>
        <time>2021-06-19T12:42:03Z</time>
      </trkpt>
      <trkpt lat="42.440332" lon="1.166150">
        <ele>1405.998</ele>
        <time>2021-06-19T12:42:08Z</time>
      </trkpt>
      <trkpt lat="42.440333" lon="1.166116">
        <ele>1406.217</ele>
        <time>2021-06-19T12:42:10Z</time>
      </trkpt>
      <trkpt lat="42.440335" lon="1.166044">
        <ele>1406.008</ele>
        <time>2021-06-19T12:42:15Z</time>
      </trkpt>
      <trkpt lat="42.440307" lon="1.165955">
        <ele>1406.578</ele>
        <time>2021-06-19T12:42:21Z</time>
      </trkpt>
      <trkpt lat="42.440300" lon="1.165942">
        <ele>1406.727</ele>
        <time>2021-06-19T12:42:22Z</time>
      </trkpt>
      <trkpt lat="42.440238" lon="1.165856">
        <ele>1408.293</ele>
        <time>2021-06-19T12:42:28Z</time>
      </trkpt>
      <trkpt lat="42.440158" lon="1.165803">
        <ele>1410.317</ele>
        <time>2021-06-19T12:42:34Z</time>
      </trkpt>
      <trkpt lat="42.440102" lon="1.165717">
        <ele>1411.531</ele>
        <time>2021-06-19T12:42:40Z</time>
      </trkpt>
      <trkpt lat="42.440099" lon="1.165695">
        <ele>1411.561</ele>
        <time>2021-06-19T12:42:41Z</time>
      </trkpt>
      <trkpt lat="42.440062" lon="1.165600">
        <ele>1412.254</ele>
        <time>2021-06-19T12:42:47Z</time>
      </trkpt>
      <trkpt lat="42.440008" lon="1.165506">
        <ele>1413.471</ele>
        <time>2021-06-19T12:42:53Z</time>
      </trkpt>
      <trkpt lat="42.439983" lon="1.165442">
        <ele>1413.734</ele>
        <time>2021-06-19T12:42:58Z</time>
      </trkpt>
      <trkpt lat="42.439971" lon="1.165410">
        <ele>1413.955</ele>
        <time>2021-06-19T12:43:00Z</time>
      </trkpt>
      <trkpt lat="42.439944" lon="1.165360">
        <ele>1414.410</ele>
        <time>2021-06-19T12:43:03Z</time>
      </trkpt>
      <trkpt lat="42.439921" lon="1.165330">
        <ele>1414.908</ele>
        <time>2021-06-19T12:43:05Z</time>
      </trkpt>
      <trkpt lat="42.439897" lon="1.165295">
        <ele>1415.570</ele>
        <time>2021-06-19T12:43:08Z</time>
      </trkpt>
      <trkpt lat="42.439882" lon="1.165265">
        <ele>1415.739</ele>
        <time>2021-06-19T12:43:10Z</time>
      </trkpt>
      <trkpt lat="42.439872" lon="1.165255">
        <ele>1415.995</ele>
        <time>2021-06-19T12:43:11Z</time>
      </trkpt>
      <trkpt lat="42.439844" lon="1.165214">
        <ele>1416.419</ele>
        <time>2021-06-19T12:43:14Z</time>
      </trkpt>
      <trkpt lat="42.439794" lon="1.165129">
        <ele>1417.363</ele>
        <time>2021-06-19T12:43:19Z</time>
      </trkpt>
      <trkpt lat="42.439771" lon="1.165082">
        <ele>1417.863</ele>
        <time>2021-06-19T12:43:22Z</time>
      </trkpt>
      <trkpt lat="42.439712" lon="1.165011">
        <ele>1419.496</ele>
        <time>2021-06-19T12:43:27Z</time>
      </trkpt>
      <trkpt lat="42.439692" lon="1.164982">
        <ele>1419.843</ele>
        <time>2021-06-19T12:43:29Z</time>
      </trkpt>
      <trkpt lat="42.439657" lon="1.164940">
        <ele>1420.337</ele>
        <time>2021-06-19T12:43:33Z</time>
      </trkpt>
      <trkpt lat="42.439607" lon="1.164888">
        <ele>1421.149</ele>
        <time>2021-06-19T12:43:37Z</time>
      </trkpt>
      <trkpt lat="42.439584" lon="1.164859">
        <ele>1421.413</ele>
        <time>2021-06-19T12:43:39Z</time>
      </trkpt>
      <trkpt lat="42.439560" lon="1.164821">
        <ele>1421.608</ele>
        <time>2021-06-19T12:43:42Z</time>
      </trkpt>
      <trkpt lat="42.439553" lon="1.164806">
        <ele>1421.630</ele>
        <time>2021-06-19T12:43:43Z</time>
      </trkpt>
      <trkpt lat="42.439537" lon="1.164776">
        <ele>1421.639</ele>
        <time>2021-06-19T12:43:45Z</time>
      </trkpt>
      <trkpt lat="42.439484" lon="1.164715">
        <ele>1422.435</ele>
        <time>2021-06-19T12:43:50Z</time>
      </trkpt>
      <trkpt lat="42.439451" lon="1.164686">
        <ele>1423.029</ele>
        <time>2021-06-19T12:43:53Z</time>
      </trkpt>
      <trkpt lat="42.439442" lon="1.164680">
        <ele>1423.243</ele>
        <time>2021-06-19T12:43:55Z</time>
      </trkpt>
      <trkpt lat="42.439400" lon="1.164658">
        <ele>1424.543</ele>
        <time>2021-06-19T12:45:15Z</time>
      </trkpt>
      <trkpt lat="42.439386" lon="1.164642">
        <ele>1424.736</ele>
        <time>2021-06-19T12:45:16Z</time>
      </trkpt>
      <trkpt lat="42.439346" lon="1.164598">
        <ele>1425.463</ele>
        <time>2021-06-19T12:45:19Z</time>
      </trkpt>
      <trkpt lat="42.439302" lon="1.164559">
        <ele>1426.328</ele>
        <time>2021-06-19T12:45:22Z</time>
      </trkpt>
      <trkpt lat="42.439228" lon="1.164506">
        <ele>1428.189</ele>
        <time>2021-06-19T12:45:28Z</time>
      </trkpt>
      <trkpt lat="42.439170" lon="1.164465">
        <ele>1429.417</ele>
        <time>2021-06-19T12:45:33Z</time>
      </trkpt>
      <trkpt lat="42.439158" lon="1.164452">
        <ele>1429.508</ele>
        <time>2021-06-19T12:45:34Z</time>
      </trkpt>
      <trkpt lat="42.439087" lon="1.164401">
        <ele>1430.519</ele>
        <time>2021-06-19T12:45:39Z</time>
      </trkpt>
      <trkpt lat="42.439075" lon="1.164395">
        <ele>1430.778</ele>
        <time>2021-06-19T12:45:40Z</time>
      </trkpt>
      <trkpt lat="42.439016" lon="1.164369">
        <ele>1432.024</ele>
        <time>2021-06-19T12:45:44Z</time>
      </trkpt>
      <trkpt lat="42.438974" lon="1.164355">
        <ele>1433.048</ele>
        <time>2021-06-19T12:45:47Z</time>
      </trkpt>
      <trkpt lat="42.438930" lon="1.164319">
        <ele>1433.562</ele>
        <time>2021-06-19T12:45:51Z</time>
      </trkpt>
      <trkpt lat="42.438919" lon="1.164310">
        <ele>1433.612</ele>
        <time>2021-06-19T12:45:52Z</time>
      </trkpt>
      <trkpt lat="42.438857" lon="1.164251">
        <ele>1434.075</ele>
        <time>2021-06-19T12:45:57Z</time>
      </trkpt>
      <trkpt lat="42.438844" lon="1.164238">
        <ele>1434.032</ele>
        <time>2021-06-19T12:45:58Z</time>
      </trkpt>
      <trkpt lat="42.438796" lon="1.164159">
        <ele>1433.595</ele>
        <time>2021-06-19T12:46:03Z</time>
      </trkpt>
      <trkpt lat="42.438788" lon="1.164147">
        <ele>1433.649</ele>
        <time>2021-06-19T12:46:04Z</time>
      </trkpt>
      <trkpt lat="42.438740" lon="1.164084">
        <ele>1434.423</ele>
        <time>2021-06-19T12:46:09Z</time>
      </trkpt>
      <trkpt lat="42.438728" lon="1.164068">
        <ele>1434.608</ele>
        <time>2021-06-19T12:46:10Z</time>
      </trkpt>
      <trkpt lat="42.438657" lon="1.163990">
        <ele>1436.086</ele>
        <time>2021-06-19T12:46:16Z</time>
      </trkpt>
      <trkpt lat="42.438647" lon="1.163977">
        <ele>1436.225</ele>
        <time>2021-06-19T12:46:17Z</time>
      </trkpt>
      <trkpt lat="42.438577" lon="1.163921">
        <ele>1437.851</ele>
        <time>2021-06-19T12:46:22Z</time>
      </trkpt>
      <trkpt lat="42.438512" lon="1.163859">
        <ele>1438.985</ele>
        <time>2021-06-19T12:46:28Z</time>
      </trkpt>
      <trkpt lat="42.438456" lon="1.163780">
        <ele>1439.129</ele>
        <time>2021-06-19T12:46:34Z</time>
      </trkpt>
      <trkpt lat="42.438443" lon="1.163768">
        <ele>1439.399</ele>
        <time>2021-06-19T12:46:35Z</time>
      </trkpt>
      <trkpt lat="42.438392" lon="1.163712">
        <ele>1439.992</ele>
        <time>2021-06-19T12:46:39Z</time>
      </trkpt>
      <trkpt lat="42.438355" lon="1.163676">
        <ele>1440.629</ele>
        <time>2021-06-19T12:46:42Z</time>
      </trkpt>
      <trkpt lat="42.438305" lon="1.163626">
        <ele>1441.477</ele>
        <time>2021-06-19T12:46:46Z</time>
      </trkpt>
      <trkpt lat="42.438291" lon="1.163613">
        <ele>1441.761</ele>
        <time>2021-06-19T12:46:48Z</time>
      </trkpt>
      <trkpt lat="42.438289" lon="1.163609">
        <ele>1441.727</ele>
        <time>2021-06-19T12:46:49Z</time>
      </trkpt>
      <trkpt lat="42.438238" lon="1.163564">
        <ele>1442.808</ele>
        <time>2021-06-19T12:49:23Z</time>
      </trkpt>
      <trkpt lat="42.438228" lon="1.163552">
        <ele>1443.094</ele>
        <time>2021-06-19T12:49:24Z</time>
      </trkpt>
      <trkpt lat="42.438221" lon="1.163540">
        <ele>1443.033</ele>
        <time>2021-06-19T12:49:25Z</time>
      </trkpt>
      <trkpt lat="42.438188" lon="1.163487">
        <ele>1443.359</ele>
        <time>2021-06-19T12:49:29Z</time>
      </trkpt>
      <trkpt lat="42.438126" lon="1.163388">
        <ele>1444.073</ele>
        <time>2021-06-19T12:49:36Z</time>
      </trkpt>
      <trkpt lat="42.438080" lon="1.163320">
        <ele>1444.757</ele>
        <time>2021-06-19T12:49:41Z</time>
      </trkpt>
      <trkpt lat="42.438048" lon="1.163278">
        <ele>1445.337</ele>
        <time>2021-06-19T12:49:44Z</time>
      </trkpt>
      <trkpt lat="42.437995" lon="1.163205">
        <ele>1446.310</ele>
        <time>2021-06-19T12:49:49Z</time>
      </trkpt>
      <trkpt lat="42.437970" lon="1.163178">
        <ele>1446.917</ele>
        <time>2021-06-19T12:49:51Z</time>
      </trkpt>
      <trkpt lat="42.437942" lon="1.163130">
        <ele>1447.282</ele>
        <time>2021-06-19T12:49:54Z</time>
      </trkpt>
      <trkpt lat="42.437931" lon="1.163112">
        <ele>1447.443</ele>
        <time>2021-06-19T12:49:55Z</time>
      </trkpt>
      <trkpt lat="42.437826" lon="1.163031">
        <ele>1450.117</ele>
        <time>2021-06-19T12:50:02Z</time>
      </trkpt>
      <trkpt lat="42.437746" lon="1.162957">
        <ele>1450.908</ele>
        <time>2021-06-19T12:50:08Z</time>
      </trkpt>
      <trkpt lat="42.437718" lon="1.162938">
        <ele>1451.245</ele>
        <time>2021-06-19T12:50:10Z</time>
      </trkpt>
      <trkpt lat="42.437704" lon="1.162927">
        <ele>1451.364</ele>
        <time>2021-06-19T12:50:11Z</time>
      </trkpt>
      <trkpt lat="42.437674" lon="1.162913">
        <ele>1451.910</ele>
        <time>2021-06-19T12:50:13Z</time>
      </trkpt>
      <trkpt lat="42.437623" lon="1.162892">
        <ele>1453.034</ele>
        <time>2021-06-19T12:50:17Z</time>
      </trkpt>
      <trkpt lat="42.437610" lon="1.162886">
        <ele>1453.378</ele>
        <time>2021-06-19T12:50:18Z</time>
      </trkpt>
      <trkpt lat="42.437556" lon="1.162854">
        <ele>1454.228</ele>
        <time>2021-06-19T12:50:23Z</time>
      </trkpt>
      <trkpt lat="42.437526" lon="1.162831">
        <ele>1454.661</ele>
        <time>2021-06-19T12:50:26Z</time>
      </trkpt>
      <trkpt lat="42.437506" lon="1.162814">
        <ele>1454.858</ele>
        <time>2021-06-19T12:50:28Z</time>
      </trkpt>
      <trkpt lat="42.437482" lon="1.162800">
        <ele>1455.252</ele>
        <time>2021-06-19T12:50:30Z</time>
      </trkpt>
      <trkpt lat="42.437469" lon="1.162795">
        <ele>1455.553</ele>
        <time>2021-06-19T12:50:31Z</time>
      </trkpt>
      <trkpt lat="42.437451" lon="1.162797">
        <ele>1456.108</ele>
        <time>2021-06-19T12:50:33Z</time>
      </trkpt>
      <trkpt lat="42.437395" lon="1.162761">
        <ele>1456.908</ele>
        <time>2021-06-19T12:50:38Z</time>
      </trkpt>
      <trkpt lat="42.437367" lon="1.162745">
        <ele>1457.392</ele>
        <time>2021-06-19T12:50:40Z</time>
      </trkpt>
      <trkpt lat="42.437318" lon="1.162702">
        <ele>1457.631</ele>
        <time>2021-06-19T12:50:44Z</time>
      </trkpt>
      <trkpt lat="42.437283" lon="1.162671">
        <ele>1457.967</ele>
        <time>2021-06-19T12:50:46Z</time>
      </trkpt>
      <trkpt lat="42.437184" lon="1.162570">
        <ele>1458.451</ele>
        <time>2021-06-19T12:50:53Z</time>
      </trkpt>
      <trkpt lat="42.437170" lon="1.162562">
        <ele>1458.655</ele>
        <time>2021-06-19T12:50:54Z</time>
      </trkpt>
      <trkpt lat="42.437122" lon="1.162523">
        <ele>1459.275</ele>
        <time>2021-06-19T12:50:58Z</time>
      </trkpt>
      <trkpt lat="42.437070" lon="1.162472">
        <ele>1459.718</ele>
        <time>2021-06-19T12:51:02Z</time>
      </trkpt>
      <trkpt lat="42.437024" lon="1.162450">
        <ele>1460.755</ele>
        <time>2021-06-19T12:51:05Z</time>
      </trkpt>
      <trkpt lat="42.437009" lon="1.162450">
        <ele>1461.232</ele>
        <time>2021-06-19T12:51:06Z</time>
      </trkpt>
      <trkpt lat="42.436911" lon="1.162389">
        <ele>1462.792</ele>
        <time>2021-06-19T12:51:12Z</time>
      </trkpt>
      <trkpt lat="42.436894" lon="1.162379">
        <ele>1462.911</ele>
        <time>2021-06-19T12:51:13Z</time>
      </trkpt>
      <trkpt lat="42.436878" lon="1.162371">
        <ele>1463.108</ele>
        <time>2021-06-19T12:51:14Z</time>
      </trkpt>
      <trkpt lat="42.436807" lon="1.162324">
        <ele>1463.790</ele>
        <time>2021-06-19T12:51:19Z</time>
      </trkpt>
      <trkpt lat="42.436794" lon="1.162316">
        <ele>1463.929</ele>
        <time>2021-06-19T12:51:20Z</time>
      </trkpt>
      <trkpt lat="42.436700" lon="1.162250">
        <ele>1464.845</ele>
        <time>2021-06-19T12:51:26Z</time>
      </trkpt>
      <trkpt lat="42.436662" lon="1.162232">
        <ele>1465.359</ele>
        <time>2021-06-19T12:51:29Z</time>
      </trkpt>
      <trkpt lat="42.436617" lon="1.162241">
        <ele>1466.213</ele>
        <time>2021-06-19T12:51:32Z</time>
      </trkpt>
      <trkpt lat="42.436600" lon="1.162262">
        <ele>1467.183</ele>
        <time>2021-06-19T12:51:34Z</time>
      </trkpt>
      <trkpt lat="42.436610" lon="1.162306">
        <ele>1468.136</ele>
        <time>2021-06-19T12:51:37Z</time>
      </trkpt>
      <trkpt lat="42.436614" lon="1.162321">
        <ele>1468.533</ele>
        <time>2021-06-19T12:51:38Z</time>
      </trkpt>
      <trkpt lat="42.436655" lon="1.162382">
        <ele>1469.348</ele>
        <time>2021-06-19T12:51:43Z</time>
      </trkpt>
      <trkpt lat="42.436666" lon="1.162392">
        <ele>1469.361</ele>
        <time>2021-06-19T12:51:44Z</time>
      </trkpt>
      <trkpt lat="42.436732" lon="1.162463">
        <ele>1469.417</ele>
        <time>2021-06-19T12:51:51Z</time>
      </trkpt>
      <trkpt lat="42.436770" lon="1.162532">
        <ele>1470.308</ele>
        <time>2021-06-19T12:51:56Z</time>
      </trkpt>
      <trkpt lat="42.436805" lon="1.162585">
        <ele>1470.841</ele>
        <time>2021-06-19T12:52:00Z</time>
      </trkpt>
      <trkpt lat="42.436810" lon="1.162598">
        <ele>1471.050</ele>
        <time>2021-06-19T12:52:01Z</time>
      </trkpt>
      <trkpt lat="42.436814" lon="1.162611">
        <ele>1471.376</ele>
        <time>2021-06-19T12:52:04Z</time>
      </trkpt>
      <trkpt lat="42.436752" lon="1.162553">
        <ele>1471.360</ele>
        <time>2021-06-19T12:52:47Z</time>
      </trkpt>
      <trkpt lat="42.436698" lon="1.162481">
        <ele>1470.734</ele>
        <time>2021-06-19T12:52:52Z</time>
      </trkpt>
      <trkpt lat="42.436651" lon="1.162423">
        <ele>1470.424</ele>
        <time>2021-06-19T12:52:55Z</time>
      </trkpt>
      <trkpt lat="42.436599" lon="1.162365">
        <ele>1469.967</ele>
        <time>2021-06-19T12:52:57Z</time>
      </trkpt>
      <trkpt lat="42.436539" lon="1.162333">
        <ele>1470.224</ele>
        <time>2021-06-19T12:53:00Z</time>
      </trkpt>
      <trkpt lat="42.436525" lon="1.162331">
        <ele>1470.451</ele>
        <time>2021-06-19T12:53:01Z</time>
      </trkpt>
      <trkpt lat="42.436484" lon="1.162314">
        <ele>1470.601</ele>
        <time>2021-06-19T12:53:06Z</time>
      </trkpt>
      <trkpt lat="42.436251" lon="1.162249">
        <ele>1472.111</ele>
        <time>2021-06-19T12:54:38Z</time>
      </trkpt>
      <trkpt lat="42.436237" lon="1.162249">
        <ele>1472.308</ele>
        <time>2021-06-19T12:54:39Z</time>
      </trkpt>
      <trkpt lat="42.436160" lon="1.162253">
        <ele>1473.772</ele>
        <time>2021-06-19T12:54:45Z</time>
      </trkpt>
      <trkpt lat="42.436146" lon="1.162250">
        <ele>1473.891</ele>
        <time>2021-06-19T12:54:46Z</time>
      </trkpt>
      <trkpt lat="42.436103" lon="1.162261">
        <ele>1474.987</ele>
        <time>2021-06-19T12:54:50Z</time>
      </trkpt>
      <trkpt lat="42.436091" lon="1.162267">
        <ele>1475.391</ele>
        <time>2021-06-19T12:54:51Z</time>
      </trkpt>
      <trkpt lat="42.436079" lon="1.162271">
        <ele>1475.685</ele>
        <time>2021-06-19T12:54:52Z</time>
      </trkpt>
      <trkpt lat="42.436001" lon="1.162286">
        <ele>1477.055</ele>
        <time>2021-06-19T12:54:57Z</time>
      </trkpt>
      <trkpt lat="42.435985" lon="1.162285">
        <ele>1477.118</ele>
        <time>2021-06-19T12:54:58Z</time>
      </trkpt>
      <trkpt lat="42.435932" lon="1.162288">
        <ele>1477.795</ele>
        <time>2021-06-19T12:55:02Z</time>
      </trkpt>
      <trkpt lat="42.435922" lon="1.162278">
        <ele>1477.236</ele>
        <time>2021-06-19T12:55:04Z</time>
      </trkpt>
      <trkpt lat="42.435632" lon="1.161741">
        <ele>1479.417</ele>
        <time>2021-06-19T13:04:51Z</time>
      </trkpt>
      <trkpt lat="42.435615" lon="1.161695">
        <ele>1480.518</ele>
        <time>2021-06-19T13:04:54Z</time>
      </trkpt>
      <trkpt lat="42.435591" lon="1.161648">
        <ele>1481.508</ele>
        <time>2021-06-19T13:04:57Z</time>
      </trkpt>
      <trkpt lat="42.435573" lon="1.161616">
        <ele>1481.760</ele>
        <time>2021-06-19T13:04:59Z</time>
      </trkpt>
      <trkpt lat="42.435556" lon="1.161586">
        <ele>1481.859</ele>
        <time>2021-06-19T13:05:01Z</time>
      </trkpt>
      <trkpt lat="42.435536" lon="1.161570">
        <ele>1482.235</ele>
        <time>2021-06-19T13:05:03Z</time>
      </trkpt>
      <trkpt lat="42.435515" lon="1.161567">
        <ele>1482.849</ele>
        <time>2021-06-19T13:05:05Z</time>
      </trkpt>
      <trkpt lat="42.435460" lon="1.161529">
        <ele>1483.913</ele>
        <time>2021-06-19T13:05:10Z</time>
      </trkpt>
      <trkpt lat="42.435447" lon="1.161518">
        <ele>1484.243</ele>
        <time>2021-06-19T13:05:11Z</time>
      </trkpt>
      <trkpt lat="42.435407" lon="1.161495">
        <ele>1485.056</ele>
        <time>2021-06-19T13:05:14Z</time>
      </trkpt>
      <trkpt lat="42.435357" lon="1.161482">
        <ele>1486.373</ele>
        <time>2021-06-19T13:05:18Z</time>
      </trkpt>
      <trkpt lat="42.435303" lon="1.161464">
        <ele>1487.696</ele>
        <time>2021-06-19T13:05:22Z</time>
      </trkpt>
      <trkpt lat="42.435253" lon="1.161447">
        <ele>1488.831</ele>
        <time>2021-06-19T13:05:26Z</time>
      </trkpt>
      <trkpt lat="42.435206" lon="1.161407">
        <ele>1489.424</ele>
        <time>2021-06-19T13:05:30Z</time>
      </trkpt>
      <trkpt lat="42.435193" lon="1.161396">
        <ele>1489.608</ele>
        <time>2021-06-19T13:05:31Z</time>
      </trkpt>
      <trkpt lat="42.435146" lon="1.161357">
        <ele>1490.156</ele>
        <time>2021-06-19T13:05:35Z</time>
      </trkpt>
      <trkpt lat="42.435136" lon="1.161353">
        <ele>1490.335</ele>
        <time>2021-06-19T13:05:36Z</time>
      </trkpt>
      <trkpt lat="42.435127" lon="1.161344">
        <ele>1490.471</ele>
        <time>2021-06-19T13:05:37Z</time>
      </trkpt>
      <trkpt lat="42.435095" lon="1.161326">
        <ele>1490.945</ele>
        <time>2021-06-19T13:05:42Z</time>
      </trkpt>
      <trkpt lat="42.435081" lon="1.161320">
        <ele>1491.269</ele>
        <time>2021-06-19T13:05:44Z</time>
      </trkpt>
      <trkpt lat="42.435025" lon="1.161278">
        <ele>1491.979</ele>
        <time>2021-06-19T13:05:49Z</time>
      </trkpt>
      <trkpt lat="42.435005" lon="1.161258">
        <ele>1492.042</ele>
        <time>2021-06-19T13:05:52Z</time>
      </trkpt>
      <trkpt lat="42.434955" lon="1.161249">
        <ele>1493.039</ele>
        <time>2021-06-19T13:05:57Z</time>
      </trkpt>
      <trkpt lat="42.434915" lon="1.161243">
        <ele>1493.742</ele>
        <time>2021-06-19T13:06:01Z</time>
      </trkpt>
      <trkpt lat="42.434881" lon="1.161240">
        <ele>1494.422</ele>
        <time>2021-06-19T13:06:05Z</time>
      </trkpt>
      <trkpt lat="42.434799" lon="1.161221">
        <ele>1495.714</ele>
        <time>2021-06-19T13:06:12Z</time>
      </trkpt>
      <trkpt lat="42.434745" lon="1.161200">
        <ele>1496.408</ele>
        <time>2021-06-19T13:06:17Z</time>
      </trkpt>
      <trkpt lat="42.434658" lon="1.161115">
        <ele>1496.721</ele>
        <time>2021-06-19T13:06:24Z</time>
      </trkpt>
      <trkpt lat="42.434650" lon="1.161111">
        <ele>1496.810</ele>
        <time>2021-06-19T13:06:25Z</time>
      </trkpt>
      <trkpt lat="42.434577" lon="1.161073">
        <ele>1497.876</ele>
        <time>2021-06-19T13:06:31Z</time>
      </trkpt>
      <trkpt lat="42.434539" lon="1.161052">
        <ele>1498.360</ele>
        <time>2021-06-19T13:06:34Z</time>
      </trkpt>
      <trkpt lat="42.434495" lon="1.161044">
        <ele>1499.114</ele>
        <time>2021-06-19T13:06:38Z</time>
      </trkpt>
      <trkpt lat="42.434441" lon="1.161057">
        <ele>1500.754</ele>
        <time>2021-06-19T13:06:44Z</time>
      </trkpt>
      <trkpt lat="42.434420" lon="1.161038">
        <ele>1500.737</ele>
        <time>2021-06-19T13:06:46Z</time>
      </trkpt>
      <trkpt lat="42.434323" lon="1.160985">
        <ele>1501.444</ele>
        <time>2021-06-19T13:06:54Z</time>
      </trkpt>
      <trkpt lat="42.434283" lon="1.160978">
        <ele>1502.184</ele>
        <time>2021-06-19T13:06:56Z</time>
      </trkpt>
      <trkpt lat="42.434180" lon="1.160944">
        <ele>1503.507</ele>
        <time>2021-06-19T13:07:04Z</time>
      </trkpt>
      <trkpt lat="42.434172" lon="1.160940">
        <ele>1503.617</ele>
        <time>2021-06-19T13:07:05Z</time>
      </trkpt>
      <trkpt lat="42.434068" lon="1.160889">
        <ele>1505.008</ele>
        <time>2021-06-19T13:07:12Z</time>
      </trkpt>
      <trkpt lat="42.434036" lon="1.160863">
        <ele>1505.175</ele>
        <time>2021-06-19T13:07:14Z</time>
      </trkpt>
      <trkpt lat="42.433960" lon="1.160800">
        <ele>1505.444</ele>
        <time>2021-06-19T13:07:20Z</time>
      </trkpt>
      <trkpt lat="42.433904" lon="1.160761">
        <ele>1505.830</ele>
        <time>2021-06-19T13:07:24Z</time>
      </trkpt>
      <trkpt lat="42.433873" lon="1.160747">
        <ele>1506.334</ele>
        <time>2021-06-19T13:07:27Z</time>
      </trkpt>
      <trkpt lat="42.433795" lon="1.160724">
        <ele>1507.878</ele>
        <time>2021-06-19T13:07:34Z</time>
      </trkpt>
      <trkpt lat="42.433783" lon="1.160720">
        <ele>1508.088</ele>
        <time>2021-06-19T13:07:35Z</time>
      </trkpt>
      <trkpt lat="42.433718" lon="1.160691">
        <ele>1509.031</ele>
        <time>2021-06-19T13:07:41Z</time>
      </trkpt>
      <trkpt lat="42.433665" lon="1.160658">
        <ele>1509.568</ele>
        <time>2021-06-19T13:07:46Z</time>
      </trkpt>
      <trkpt lat="42.433637" lon="1.160653">
        <ele>1510.145</ele>
        <time>2021-06-19T13:07:49Z</time>
      </trkpt>
      <trkpt lat="42.433556" lon="1.160616">
        <ele>1511.347</ele>
        <time>2021-06-19T13:07:56Z</time>
      </trkpt>
      <trkpt lat="42.433415" lon="1.160543">
        <ele>1513.311</ele>
        <time>2021-06-19T13:08:05Z</time>
      </trkpt>
      <trkpt lat="42.433407" lon="1.160535">
        <ele>1513.308</ele>
        <time>2021-06-19T13:08:06Z</time>
      </trkpt>
      <trkpt lat="42.433377" lon="1.160529">
        <ele>1514.021</ele>
        <time>2021-06-19T13:08:08Z</time>
      </trkpt>
      <trkpt lat="42.433334" lon="1.160504">
        <ele>1514.590</ele>
        <time>2021-06-19T13:08:11Z</time>
      </trkpt>
      <trkpt lat="42.433277" lon="1.160486">
        <ele>1515.676</ele>
        <time>2021-06-19T13:08:15Z</time>
      </trkpt>
      <trkpt lat="42.433238" lon="1.160469">
        <ele>1516.120</ele>
        <time>2021-06-19T13:08:18Z</time>
      </trkpt>
      <trkpt lat="42.433146" lon="1.160415">
        <ele>1517.034</ele>
        <time>2021-06-19T13:08:23Z</time>
      </trkpt>
      <trkpt lat="42.433069" lon="1.160395">
        <ele>1518.474</ele>
        <time>2021-06-19T13:08:29Z</time>
      </trkpt>
      <trkpt lat="42.433054" lon="1.160396">
        <ele>1518.997</ele>
        <time>2021-06-19T13:08:30Z</time>
      </trkpt>
      <trkpt lat="42.432981" lon="1.160392">
        <ele>1519.854</ele>
        <time>2021-06-19T13:08:35Z</time>
      </trkpt>
      <trkpt lat="42.432890" lon="1.160405">
        <ele>1521.516</ele>
        <time>2021-06-19T13:08:42Z</time>
      </trkpt>
      <trkpt lat="42.432882" lon="1.160400">
        <ele>1521.576</ele>
        <time>2021-06-19T13:08:43Z</time>
      </trkpt>
      <trkpt lat="42.432843" lon="1.160348">
        <ele>1520.313</ele>
        <time>2021-06-19T13:08:47Z</time>
      </trkpt>
      <trkpt lat="42.432828" lon="1.160306">
        <ele>1519.208</ele>
        <time>2021-06-19T13:08:50Z</time>
      </trkpt>
      <trkpt lat="42.432823" lon="1.160292">
        <ele>1518.818</ele>
        <time>2021-06-19T13:08:51Z</time>
      </trkpt>
      <trkpt lat="42.432779" lon="1.160232">
        <ele>1518.327</ele>
        <time>2021-06-19T13:08:56Z</time>
      </trkpt>
      <trkpt lat="42.432751" lon="1.160205">
        <ele>1518.963</ele>
        <time>2021-06-19T13:08:59Z</time>
      </trkpt>
      <trkpt lat="42.432718" lon="1.160193">
        <ele>1519.857</ele>
        <time>2021-06-19T13:09:02Z</time>
      </trkpt>
      <trkpt lat="42.432651" lon="1.160163">
        <ele>1521.581</ele>
        <time>2021-06-19T13:09:08Z</time>
      </trkpt>
      <trkpt lat="42.432638" lon="1.160160">
        <ele>1521.951</ele>
        <time>2021-06-19T13:09:09Z</time>
      </trkpt>
      <trkpt lat="42.432624" lon="1.160160">
        <ele>1522.474</ele>
        <time>2021-06-19T13:09:10Z</time>
      </trkpt>
      <trkpt lat="42.432557" lon="1.160140">
        <ele>1524.271</ele>
        <time>2021-06-19T13:09:15Z</time>
      </trkpt>
      <trkpt lat="42.432518" lon="1.160138">
        <ele>1525.439</ele>
        <time>2021-06-19T13:09:18Z</time>
      </trkpt>
      <trkpt lat="42.432464" lon="1.160128">
        <ele>1526.401</ele>
        <time>2021-06-19T13:09:23Z</time>
      </trkpt>
      <trkpt lat="42.432431" lon="1.160104">
        <ele>1526.521</ele>
        <time>2021-06-19T13:09:27Z</time>
      </trkpt>
      <trkpt lat="42.432403" lon="1.160087">
        <ele>1526.608</ele>
        <time>2021-06-19T13:09:29Z</time>
      </trkpt>
      <trkpt lat="42.432330" lon="1.160047">
        <ele>1527.110</ele>
        <time>2021-06-19T13:09:35Z</time>
      </trkpt>
      <trkpt lat="42.432320" lon="1.160041">
        <ele>1527.149</ele>
        <time>2021-06-19T13:09:36Z</time>
      </trkpt>
      <trkpt lat="42.432277" lon="1.159995">
        <ele>1526.945</ele>
        <time>2021-06-19T13:09:40Z</time>
      </trkpt>
      <trkpt lat="42.432247" lon="1.159952">
        <ele>1526.739</ele>
        <time>2021-06-19T13:09:43Z</time>
      </trkpt>
      <trkpt lat="42.432238" lon="1.159935">
        <ele>1526.513</ele>
        <time>2021-06-19T13:09:44Z</time>
      </trkpt>
      <trkpt lat="42.432174" lon="1.159848">
        <ele>1527.093</ele>
        <time>2021-06-19T13:09:50Z</time>
      </trkpt>
      <trkpt lat="42.432164" lon="1.159831">
        <ele>1527.196</ele>
        <time>2021-06-19T13:09:51Z</time>
      </trkpt>
      <trkpt lat="42.432105" lon="1.159751">
        <ele>1528.163</ele>
        <time>2021-06-19T13:09:57Z</time>
      </trkpt>
      <trkpt lat="42.432073" lon="1.159706">
        <ele>1528.686</ele>
        <time>2021-06-19T13:10:00Z</time>
      </trkpt>
      <trkpt lat="42.432042" lon="1.159680">
        <ele>1529.460</ele>
        <time>2021-06-19T13:10:04Z</time>
      </trkpt>
      <trkpt lat="42.432024" lon="1.159660">
        <ele>1529.826</ele>
        <time>2021-06-19T13:10:07Z</time>
      </trkpt>
      <trkpt lat="42.432013" lon="1.159650">
        <ele>1530.008</ele>
        <time>2021-06-19T13:10:09Z</time>
      </trkpt>
      <trkpt lat="42.431684" lon="1.159561">
        <ele>1538.635</ele>
        <time>2021-06-19T13:10:55Z</time>
      </trkpt>
      <trkpt lat="42.431702" lon="1.159587">
        <ele>1538.544</ele>
        <time>2021-06-19T13:10:57Z</time>
      </trkpt>
      <trkpt lat="42.431737" lon="1.159645">
        <ele>1538.630</ele>
        <time>2021-06-19T13:11:01Z</time>
      </trkpt>
      <trkpt lat="42.431746" lon="1.159665">
        <ele>1538.764</ele>
        <time>2021-06-19T13:11:02Z</time>
      </trkpt>
      <trkpt lat="42.431753" lon="1.159683">
        <ele>1538.838</ele>
        <time>2021-06-19T13:11:03Z</time>
      </trkpt>
      <trkpt lat="42.431777" lon="1.159757">
        <ele>1539.238</ele>
        <time>2021-06-19T13:11:08Z</time>
      </trkpt>
      <trkpt lat="42.431776" lon="1.159788">
        <ele>1539.651</ele>
        <time>2021-06-19T13:11:10Z</time>
      </trkpt>
      <trkpt lat="42.431769" lon="1.159840">
        <ele>1540.318</ele>
        <time>2021-06-19T13:11:13Z</time>
      </trkpt>
      <trkpt lat="42.431784" lon="1.159930">
        <ele>1540.918</ele>
        <time>2021-06-19T13:11:19Z</time>
      </trkpt>
      <trkpt lat="42.431788" lon="1.159981">
        <ele>1541.398</ele>
        <time>2021-06-19T13:11:22Z</time>
      </trkpt>
      <trkpt lat="42.431777" lon="1.160043">
        <ele>1542.117</ele>
        <time>2021-06-19T13:11:25Z</time>
      </trkpt>
      <trkpt lat="42.431771" lon="1.160104">
        <ele>1542.708</ele>
        <time>2021-06-19T13:11:29Z</time>
      </trkpt>
      <trkpt lat="42.431769" lon="1.160120">
        <ele>1542.918</ele>
        <time>2021-06-19T13:11:30Z</time>
      </trkpt>
      <trkpt lat="42.431769" lon="1.160133">
        <ele>1543.027</ele>
        <time>2021-06-19T13:11:31Z</time>
      </trkpt>
      <trkpt lat="42.431770" lon="1.160210">
        <ele>1543.593</ele>
        <time>2021-06-19T13:11:36Z</time>
      </trkpt>
      <trkpt lat="42.431765" lon="1.160251">
        <ele>1544.067</ele>
        <time>2021-06-19T13:11:38Z</time>
      </trkpt>
      <trkpt lat="42.431762" lon="1.160355">
        <ele>1545.051</ele>
        <time>2021-06-19T13:11:44Z</time>
      </trkpt>
      <trkpt lat="42.431764" lon="1.160374">
        <ele>1545.151</ele>
        <time>2021-06-19T13:11:45Z</time>
      </trkpt>
      <trkpt lat="42.431762" lon="1.160457">
        <ele>1546.044</ele>
        <time>2021-06-19T13:11:50Z</time>
      </trkpt>
      <trkpt lat="42.431762" lon="1.160514">
        <ele>1546.571</ele>
        <time>2021-06-19T13:11:53Z</time>
      </trkpt>
      <trkpt lat="42.431768" lon="1.160586">
        <ele>1547.117</ele>
        <time>2021-06-19T13:11:57Z</time>
      </trkpt>
      <trkpt lat="42.431788" lon="1.160661">
        <ele>1547.587</ele>
        <time>2021-06-19T13:12:02Z</time>
      </trkpt>
      <trkpt lat="42.431803" lon="1.160783">
        <ele>1548.515</ele>
        <time>2021-06-19T13:12:10Z</time>
      </trkpt>
      <trkpt lat="42.431805" lon="1.160795">
        <ele>1548.608</ele>
        <time>2021-06-19T13:12:11Z</time>
      </trkpt>
      <trkpt lat="42.431818" lon="1.160873">
        <ele>1549.438</ele>
        <time>2021-06-19T13:12:16Z</time>
      </trkpt>
      <trkpt lat="42.431832" lon="1.160928">
        <ele>1549.927</ele>
        <time>2021-06-19T13:12:20Z</time>
      </trkpt>
      <trkpt lat="42.431837" lon="1.160953">
        <ele>1550.293</ele>
        <time>2021-06-19T13:12:22Z</time>
      </trkpt>
      <trkpt lat="42.431876" lon="1.161048">
        <ele>1550.847</ele>
        <time>2021-06-19T13:12:28Z</time>
      </trkpt>
      <trkpt lat="42.431908" lon="1.161219">
        <ele>1552.521</ele>
        <time>2021-06-19T13:12:38Z</time>
      </trkpt>
      <trkpt lat="42.431913" lon="1.161240">
        <ele>1552.691</ele>
        <time>2021-06-19T13:12:39Z</time>
      </trkpt>
      <trkpt lat="42.431948" lon="1.161343">
        <ele>1553.344</ele>
        <time>2021-06-19T13:12:45Z</time>
      </trkpt>
      <trkpt lat="42.431956" lon="1.161373">
        <ele>1553.581</ele>
        <time>2021-06-19T13:12:47Z</time>
      </trkpt>
      <trkpt lat="42.431961" lon="1.161423">
        <ele>1554.032</ele>
        <time>2021-06-19T13:12:50Z</time>
      </trkpt>
      <trkpt lat="42.431967" lon="1.161464">
        <ele>1554.392</ele>
        <time>2021-06-19T13:12:53Z</time>
      </trkpt>
      <trkpt lat="42.431995" lon="1.161585">
        <ele>1555.211</ele>
        <time>2021-06-19T13:13:00Z</time>
      </trkpt>
      <trkpt lat="42.432000" lon="1.161616">
        <ele>1555.408</ele>
        <time>2021-06-19T13:13:02Z</time>
      </trkpt>
      <trkpt lat="42.432017" lon="1.161746">
        <ele>1556.610</ele>
        <time>2021-06-19T13:13:11Z</time>
      </trkpt>
      <trkpt lat="42.432024" lon="1.161788">
        <ele>1557.069</ele>
        <time>2021-06-19T13:13:13Z</time>
      </trkpt>
      <trkpt lat="42.432035" lon="1.161842">
        <ele>1557.595</ele>
        <time>2021-06-19T13:13:16Z</time>
      </trkpt>
      <trkpt lat="42.432044" lon="1.161936">
        <ele>1558.549</ele>
        <time>2021-06-19T13:13:22Z</time>
      </trkpt>
      <trkpt lat="42.432054" lon="1.162086">
        <ele>1560.063</ele>
        <time>2021-06-19T13:13:30Z</time>
      </trkpt>
      <trkpt lat="42.432054" lon="1.162143">
        <ele>1560.693</ele>
        <time>2021-06-19T13:13:33Z</time>
      </trkpt>
      <trkpt lat="42.432070" lon="1.162210">
        <ele>1561.136</ele>
        <time>2021-06-19T13:13:37Z</time>
      </trkpt>
      <trkpt lat="42.432085" lon="1.162309">
        <ele>1561.893</ele>
        <time>2021-06-19T13:13:42Z</time>
      </trkpt>
      <trkpt lat="42.432089" lon="1.162343">
        <ele>1562.072</ele>
        <time>2021-06-19T13:13:44Z</time>
      </trkpt>
      <trkpt lat="42.432089" lon="1.162365">
        <ele>1562.213</ele>
        <time>2021-06-19T13:13:45Z</time>
      </trkpt>
      <trkpt lat="42.432091" lon="1.162421">
        <ele>1562.714</ele>
        <time>2021-06-19T13:13:48Z</time>
      </trkpt>
      <trkpt lat="42.432094" lon="1.162495">
        <ele>1563.308</ele>
        <time>2021-06-19T13:13:53Z</time>
      </trkpt>
      <trkpt lat="42.432090" lon="1.162508">
        <ele>1563.514</ele>
        <time>2021-06-19T13:13:54Z</time>
      </trkpt>
      <trkpt lat="42.432080" lon="1.162543">
        <ele>1564.023</ele>
        <time>2021-06-19T13:13:56Z</time>
      </trkpt>
      <trkpt lat="42.432090" lon="1.162648">
        <ele>1565.089</ele>
        <time>2021-06-19T13:14:01Z</time>
      </trkpt>
      <trkpt lat="42.432095" lon="1.162674">
        <ele>1565.293</ele>
        <time>2021-06-19T13:14:03Z</time>
      </trkpt>
      <trkpt lat="42.432100" lon="1.162730">
        <ele>1565.757</ele>
        <time>2021-06-19T13:14:06Z</time>
      </trkpt>
      <trkpt lat="42.432106" lon="1.162825">
        <ele>1566.567</ele>
        <time>2021-06-19T13:14:11Z</time>
      </trkpt>
      <trkpt lat="42.432106" lon="1.162842">
        <ele>1566.750</ele>
        <time>2021-06-19T13:14:12Z</time>
      </trkpt>
      <trkpt lat="42.432100" lon="1.162878">
        <ele>1567.127</ele>
        <time>2021-06-19T13:14:14Z</time>
      </trkpt>
      <trkpt lat="42.432093" lon="1.162934">
        <ele>1567.895</ele>
        <time>2021-06-19T13:14:17Z</time>
      </trkpt>
      <trkpt lat="42.432090" lon="1.163029">
        <ele>1568.749</ele>
        <time>2021-06-19T13:14:22Z</time>
      </trkpt>
      <trkpt lat="42.432091" lon="1.163051">
        <ele>1568.823</ele>
        <time>2021-06-19T13:14:23Z</time>
      </trkpt>
      <trkpt lat="42.432099" lon="1.163132">
        <ele>1569.408</ele>
        <time>2021-06-19T13:14:28Z</time>
      </trkpt>
      <trkpt lat="42.432097" lon="1.163188">
        <ele>1570.036</ele>
        <time>2021-06-19T13:14:31Z</time>
      </trkpt>
      <trkpt lat="42.432124" lon="1.163279">
        <ele>1570.375</ele>
        <time>2021-06-19T13:14:37Z</time>
      </trkpt>
      <trkpt lat="42.432132" lon="1.163293">
        <ele>1570.381</ele>
        <time>2021-06-19T13:14:38Z</time>
      </trkpt>
      <trkpt lat="42.432176" lon="1.163451">
        <ele>1571.155</ele>
        <time>2021-06-19T13:14:47Z</time>
      </trkpt>
      <trkpt lat="42.432178" lon="1.163486">
        <ele>1571.479</ele>
        <time>2021-06-19T13:14:49Z</time>
      </trkpt>
      <trkpt lat="42.432205" lon="1.163663">
        <ele>1572.719</ele>
        <time>2021-06-19T13:14:57Z</time>
      </trkpt>
      <trkpt lat="42.432211" lon="1.163676">
        <ele>1572.792</ele>
        <time>2021-06-19T13:14:58Z</time>
      </trkpt>
      <trkpt lat="42.432239" lon="1.163833">
        <ele>1573.489</ele>
        <time>2021-06-19T13:15:06Z</time>
      </trkpt>
      <trkpt lat="42.432241" lon="1.163853">
        <ele>1573.585</ele>
        <time>2021-06-19T13:15:07Z</time>
      </trkpt>
      <trkpt lat="42.432256" lon="1.163925">
        <ele>1573.989</ele>
        <time>2021-06-19T13:15:11Z</time>
      </trkpt>
      <trkpt lat="42.432263" lon="1.163945">
        <ele>1574.017</ele>
        <time>2021-06-19T13:15:12Z</time>
      </trkpt>
      <trkpt lat="42.432269" lon="1.163968">
        <ele>1574.108</ele>
        <time>2021-06-19T13:15:13Z</time>
      </trkpt>
      <trkpt lat="42.432301" lon="1.164075">
        <ele>1574.775</ele>
        <time>2021-06-19T13:15:19Z</time>
      </trkpt>
      <trkpt lat="42.432312" lon="1.164115">
        <ele>1574.984</ele>
        <time>2021-06-19T13:15:21Z</time>
      </trkpt>
      <trkpt lat="42.432366" lon="1.164284">
        <ele>1575.750</ele>
        <time>2021-06-19T13:15:29Z</time>
      </trkpt>
      <trkpt lat="42.432376" lon="1.164445">
        <ele>1577.214</ele>
        <time>2021-06-19T13:15:37Z</time>
      </trkpt>
      <trkpt lat="42.432380" lon="1.164469">
        <ele>1577.358</ele>
        <time>2021-06-19T13:15:38Z</time>
      </trkpt>
      <trkpt lat="42.432405" lon="1.164559">
        <ele>1577.568</ele>
        <time>2021-06-19T13:15:42Z</time>
      </trkpt>
      <trkpt lat="42.432425" lon="1.164649">
        <ele>1577.891</ele>
        <time>2021-06-19T13:15:46Z</time>
      </trkpt>
      <trkpt lat="42.432436" lon="1.164690">
        <ele>1577.968</ele>
        <time>2021-06-19T13:15:48Z</time>
      </trkpt>
      <trkpt lat="42.432441" lon="1.164714">
        <ele>1578.087</ele>
        <time>2021-06-19T13:15:49Z</time>
      </trkpt>
      <trkpt lat="42.432438" lon="1.164756">
        <ele>1578.442</ele>
        <time>2021-06-19T13:15:51Z</time>
      </trkpt>
      <trkpt lat="42.432450" lon="1.164808">
        <ele>1578.626</ele>
        <time>2021-06-19T13:15:54Z</time>
      </trkpt>
      <trkpt lat="42.432458" lon="1.164904">
        <ele>1579.208</ele>
        <time>2021-06-19T13:15:59Z</time>
      </trkpt>
      <trkpt lat="42.432483" lon="1.164999">
        <ele>1579.445</ele>
        <time>2021-06-19T13:16:04Z</time>
      </trkpt>
      <trkpt lat="42.432487" lon="1.165017">
        <ele>1579.494</ele>
        <time>2021-06-19T13:16:05Z</time>
      </trkpt>
      <trkpt lat="42.432495" lon="1.165114">
        <ele>1579.930</ele>
        <time>2021-06-19T13:16:10Z</time>
      </trkpt>
      <trkpt lat="42.432503" lon="1.165196">
        <ele>1580.484</ele>
        <time>2021-06-19T13:16:14Z</time>
      </trkpt>
      <trkpt lat="42.432504" lon="1.165216">
        <ele>1580.568</ele>
        <time>2021-06-19T13:16:15Z</time>
      </trkpt>
      <trkpt lat="42.432526" lon="1.165382">
        <ele>1581.448</ele>
        <time>2021-06-19T13:16:23Z</time>
      </trkpt>
      <trkpt lat="42.432550" lon="1.165572">
        <ele>1582.451</ele>
        <time>2021-06-19T13:16:32Z</time>
      </trkpt>
      <trkpt lat="42.432564" lon="1.165703">
        <ele>1583.068</ele>
        <time>2021-06-19T13:16:38Z</time>
      </trkpt>
      <trkpt lat="42.432579" lon="1.165752">
        <ele>1583.158</ele>
        <time>2021-06-19T13:16:41Z</time>
      </trkpt>
      <trkpt lat="42.432595" lon="1.165934">
        <ele>1584.352</ele>
        <time>2021-06-19T13:16:50Z</time>
      </trkpt>
      <trkpt lat="42.432592" lon="1.166103">
        <ele>1585.917</ele>
        <time>2021-06-19T13:16:59Z</time>
      </trkpt>
      <trkpt lat="42.432579" lon="1.166217">
        <ele>1587.108</ele>
        <time>2021-06-19T13:17:05Z</time>
      </trkpt>
      <trkpt lat="42.432576" lon="1.166251">
        <ele>1587.452</ele>
        <time>2021-06-19T13:17:07Z</time>
      </trkpt>
      <trkpt lat="42.432576" lon="1.166327">
        <ele>1587.941</ele>
        <time>2021-06-19T13:17:11Z</time>
      </trkpt>
      <trkpt lat="42.432566" lon="1.166393">
        <ele>1588.657</ele>
        <time>2021-06-19T13:17:14Z</time>
      </trkpt>
      <trkpt lat="42.432566" lon="1.166414">
        <ele>1588.911</ele>
        <time>2021-06-19T13:17:15Z</time>
      </trkpt>
      <trkpt lat="42.432574" lon="1.166487">
        <ele>1589.675</ele>
        <time>2021-06-19T13:17:19Z</time>
      </trkpt>
      <trkpt lat="42.432578" lon="1.166508">
        <ele>1589.755</ele>
        <time>2021-06-19T13:17:20Z</time>
      </trkpt>
      <trkpt lat="42.432592" lon="1.166615">
        <ele>1590.798</ele>
        <time>2021-06-19T13:17:26Z</time>
      </trkpt>
      <trkpt lat="42.432592" lon="1.166634">
        <ele>1591.045</ele>
        <time>2021-06-19T13:17:27Z</time>
      </trkpt>
      <trkpt lat="42.432595" lon="1.166651">
        <ele>1591.175</ele>
        <time>2021-06-19T13:17:28Z</time>
      </trkpt>
      <trkpt lat="42.432603" lon="1.166702">
        <ele>1591.628</ele>
        <time>2021-06-19T13:17:31Z</time>
      </trkpt>
      <trkpt lat="42.432611" lon="1.166731">
        <ele>1591.820</ele>
        <time>2021-06-19T13:17:33Z</time>
      </trkpt>
      <trkpt lat="42.432645" lon="1.166821">
        <ele>1592.308</ele>
        <time>2021-06-19T13:17:39Z</time>
      </trkpt>
      <trkpt lat="42.432657" lon="1.166866">
        <ele>1592.634</ele>
        <time>2021-06-19T13:17:41Z</time>
      </trkpt>
      <trkpt lat="42.432675" lon="1.166978">
        <ele>1593.723</ele>
        <time>2021-06-19T13:17:47Z</time>
      </trkpt>
      <trkpt lat="42.432682" lon="1.167008">
        <ele>1593.939</ele>
        <time>2021-06-19T13:17:49Z</time>
      </trkpt>
      <trkpt lat="42.432693" lon="1.167063">
        <ele>1594.473</ele>
        <time>2021-06-19T13:17:53Z</time>
      </trkpt>
      <trkpt lat="42.432700" lon="1.167163">
        <ele>1595.687</ele>
        <time>2021-06-19T13:17:58Z</time>
      </trkpt>
      <trkpt lat="42.432702" lon="1.167202">
        <ele>1596.147</ele>
        <time>2021-06-19T13:18:00Z</time>
      </trkpt>
      <trkpt lat="42.432700" lon="1.167239">
        <ele>1596.640</ele>
        <time>2021-06-19T13:18:02Z</time>
      </trkpt>
      <trkpt lat="42.432699" lon="1.167312">
        <ele>1597.357</ele>
        <time>2021-06-19T13:18:06Z</time>
      </trkpt>
      <trkpt lat="42.432701" lon="1.167345">
        <ele>1597.652</ele>
        <time>2021-06-19T13:18:08Z</time>
      </trkpt>
      <trkpt lat="42.432705" lon="1.167408">
        <ele>1598.153</ele>
        <time>2021-06-19T13:18:12Z</time>
      </trkpt>
      <trkpt lat="42.432709" lon="1.167458">
        <ele>1598.608</ele>
        <time>2021-06-19T13:18:15Z</time>
      </trkpt>
      <trkpt lat="42.432707" lon="1.167475">
        <ele>1598.808</ele>
        <time>2021-06-19T13:18:16Z</time>
      </trkpt>
      <trkpt lat="42.432700" lon="1.167580">
        <ele>1599.882</ele>
        <time>2021-06-19T13:18:22Z</time>
      </trkpt>
      <trkpt lat="42.432697" lon="1.167596">
        <ele>1600.071</ele>
        <time>2021-06-19T13:18:23Z</time>
      </trkpt>
      <trkpt lat="42.432697" lon="1.167611">
        <ele>1600.147</ele>
        <time>2021-06-19T13:18:24Z</time>
      </trkpt>
      <trkpt lat="42.432688" lon="1.167659">
        <ele>1600.681</ele>
        <time>2021-06-19T13:18:27Z</time>
      </trkpt>
      <trkpt lat="42.432689" lon="1.167677">
        <ele>1600.815</ele>
        <time>2021-06-19T13:18:28Z</time>
      </trkpt>
      <trkpt lat="42.432693" lon="1.167728">
        <ele>1601.125</ele>
        <time>2021-06-19T13:18:31Z</time>
      </trkpt>
      <trkpt lat="42.432686" lon="1.167779">
        <ele>1601.758</ele>
        <time>2021-06-19T13:18:34Z</time>
      </trkpt>
      <trkpt lat="42.432681" lon="1.167809">
        <ele>1601.975</ele>
        <time>2021-06-19T13:18:36Z</time>
      </trkpt>
      <trkpt lat="42.432669" lon="1.167898">
        <ele>1602.727</ele>
        <time>2021-06-19T13:18:41Z</time>
      </trkpt>
      <trkpt lat="42.432664" lon="1.167930">
        <ele>1602.968</ele>
        <time>2021-06-19T13:18:43Z</time>
      </trkpt>
      <trkpt lat="42.432654" lon="1.167991">
        <ele>1603.414</ele>
        <time>2021-06-19T13:18:47Z</time>
      </trkpt>
      <trkpt lat="42.432646" lon="1.168021">
        <ele>1603.708</ele>
        <time>2021-06-19T13:18:49Z</time>
      </trkpt>
      <trkpt lat="42.432644" lon="1.168035">
        <ele>1603.819</ele>
        <time>2021-06-19T13:18:50Z</time>
      </trkpt>
      <trkpt lat="42.432615" lon="1.168132">
        <ele>1604.618</ele>
        <time>2021-06-19T13:18:56Z</time>
      </trkpt>
      <trkpt lat="42.432600" lon="1.168155">
        <ele>1604.934</ele>
        <time>2021-06-19T13:18:58Z</time>
      </trkpt>
      <trkpt lat="42.432580" lon="1.168240">
        <ele>1605.558</ele>
        <time>2021-06-19T13:19:03Z</time>
      </trkpt>
      <trkpt lat="42.432572" lon="1.168272">
        <ele>1605.792</ele>
        <time>2021-06-19T13:19:05Z</time>
      </trkpt>
      <trkpt lat="42.432561" lon="1.168325">
        <ele>1606.152</ele>
        <time>2021-06-19T13:19:08Z</time>
      </trkpt>
      <trkpt lat="42.432558" lon="1.168399">
        <ele>1606.445</ele>
        <time>2021-06-19T13:19:12Z</time>
      </trkpt>
      <trkpt lat="42.432558" lon="1.168435">
        <ele>1606.562</ele>
        <time>2021-06-19T13:19:14Z</time>
      </trkpt>
      <trkpt lat="42.432550" lon="1.168531">
        <ele>1607.031</ele>
        <time>2021-06-19T13:19:19Z</time>
      </trkpt>
      <trkpt lat="42.432537" lon="1.168599">
        <ele>1607.461</ele>
        <time>2021-06-19T13:19:23Z</time>
      </trkpt>
      <trkpt lat="42.432531" lon="1.168654">
        <ele>1607.707</ele>
        <time>2021-06-19T13:19:26Z</time>
      </trkpt>
      <trkpt lat="42.432514" lon="1.168741">
        <ele>1608.208</ele>
        <time>2021-06-19T13:19:32Z</time>
      </trkpt>
      <trkpt lat="42.432509" lon="1.168769">
        <ele>1608.480</ele>
        <time>2021-06-19T13:19:34Z</time>
      </trkpt>
      <trkpt lat="42.432477" lon="1.168890">
        <ele>1609.449</ele>
        <time>2021-06-19T13:19:41Z</time>
      </trkpt>
      <trkpt lat="42.432465" lon="1.168942">
        <ele>1609.785</ele>
        <time>2021-06-19T13:19:44Z</time>
      </trkpt>
      <trkpt lat="42.432451" lon="1.169048">
        <ele>1610.079</ele>
        <time>2021-06-19T13:19:50Z</time>
      </trkpt>
      <trkpt lat="42.432444" lon="1.169133">
        <ele>1610.213</ele>
        <time>2021-06-19T13:19:55Z</time>
      </trkpt>
      <trkpt lat="42.432435" lon="1.169189">
        <ele>1610.453</ele>
        <time>2021-06-19T13:19:58Z</time>
      </trkpt>
      <trkpt lat="42.432404" lon="1.169356">
        <ele>1611.186</ele>
        <time>2021-06-19T13:20:08Z</time>
      </trkpt>
      <trkpt lat="42.432395" lon="1.169391">
        <ele>1611.323</ele>
        <time>2021-06-19T13:20:10Z</time>
      </trkpt>
      <trkpt lat="42.432400" lon="1.169528">
        <ele>1611.251</ele>
        <time>2021-06-19T13:20:18Z</time>
      </trkpt>
      <trkpt lat="42.432436" lon="1.169746">
        <ele>1610.901</ele>
        <time>2021-06-19T13:20:26Z</time>
      </trkpt>
      <trkpt lat="42.432472" lon="1.169888">
        <ele>1610.511</ele>
        <time>2021-06-19T13:20:30Z</time>
      </trkpt>
      <trkpt lat="42.432481" lon="1.169927">
        <ele>1610.308</ele>
        <time>2021-06-19T13:20:31Z</time>
      </trkpt>
      <trkpt lat="42.432498" lon="1.170157">
        <ele>1610.612</ele>
        <time>2021-06-19T13:20:37Z</time>
      </trkpt>
      <trkpt lat="42.432527" lon="1.170322">
        <ele>1610.591</ele>
        <time>2021-06-19T13:20:42Z</time>
      </trkpt>
      <trkpt lat="42.432539" lon="1.170355">
        <ele>1610.357</ele>
        <time>2021-06-19T13:20:43Z</time>
      </trkpt>
      <trkpt lat="42.432546" lon="1.170561">
        <ele>1610.731</ele>
        <time>2021-06-19T13:20:49Z</time>
      </trkpt>
      <trkpt lat="42.432538" lon="1.170731">
        <ele>1611.525</ele>
        <time>2021-06-19T13:20:54Z</time>
      </trkpt>
      <trkpt lat="42.432532" lon="1.170774">
        <ele>1611.915</ele>
        <time>2021-06-19T13:20:55Z</time>
      </trkpt>
      <trkpt lat="42.432503" lon="1.170879">
        <ele>1612.878</ele>
        <time>2021-06-19T13:20:59Z</time>
      </trkpt>
      <trkpt lat="42.432402" lon="1.171037">
        <ele>1613.465</ele>
        <time>2021-06-19T13:21:05Z</time>
      </trkpt>
      <trkpt lat="42.432309" lon="1.171288">
        <ele>1612.817</ele>
        <time>2021-06-19T13:21:10Z</time>
      </trkpt>
      <trkpt lat="42.432282" lon="1.171444">
        <ele>1611.987</ele>
        <time>2021-06-19T13:21:14Z</time>
      </trkpt>
      <trkpt lat="42.432272" lon="1.171484">
        <ele>1611.715</ele>
        <time>2021-06-19T13:21:15Z</time>
      </trkpt>
      <trkpt lat="42.432245" lon="1.171677">
        <ele>1610.708</ele>
        <time>2021-06-19T13:21:21Z</time>
      </trkpt>
      <trkpt lat="42.432246" lon="1.171838">
        <ele>1610.698</ele>
        <time>2021-06-19T13:21:27Z</time>
      </trkpt>
      <trkpt lat="42.432247" lon="1.171941">
        <ele>1610.677</ele>
        <time>2021-06-19T13:21:33Z</time>
      </trkpt>
      <trkpt lat="42.432256" lon="1.172056">
        <ele>1610.493</ele>
        <time>2021-06-19T13:21:38Z</time>
      </trkpt>
      <trkpt lat="42.432263" lon="1.172099">
        <ele>1610.317</ele>
        <time>2021-06-19T13:21:40Z</time>
      </trkpt>
      <trkpt lat="42.432262" lon="1.172186">
        <ele>1610.441</ele>
        <time>2021-06-19T13:21:43Z</time>
      </trkpt>
      <trkpt lat="42.432264" lon="1.172206">
        <ele>1610.451</ele>
        <time>2021-06-19T13:21:44Z</time>
      </trkpt>
      <trkpt lat="42.432255" lon="1.172368">
        <ele>1611.544</ele>
        <time>2021-06-19T13:21:50Z</time>
      </trkpt>
      <trkpt lat="42.432298" lon="1.172581">
        <ele>1611.741</ele>
        <time>2021-06-19T13:21:57Z</time>
      </trkpt>
      <trkpt lat="42.432314" lon="1.172822">
        <ele>1612.262</ele>
        <time>2021-06-19T13:22:03Z</time>
      </trkpt>
      <trkpt lat="42.432330" lon="1.172961">
        <ele>1612.583</ele>
        <time>2021-06-19T13:22:07Z</time>
      </trkpt>
      <trkpt lat="42.432341" lon="1.172990">
        <ele>1612.311</ele>
        <time>2021-06-19T13:22:08Z</time>
      </trkpt>
      <trkpt lat="42.432374" lon="1.173192">
        <ele>1612.208</ele>
        <time>2021-06-19T13:22:14Z</time>
      </trkpt>
      <trkpt lat="42.432376" lon="1.173383">
        <ele>1613.223</ele>
        <time>2021-06-19T13:22:20Z</time>
      </trkpt>
      <trkpt lat="42.432375" lon="1.173406">
        <ele>1613.542</ele>
        <time>2021-06-19T13:22:21Z</time>
      </trkpt>
      <trkpt lat="42.432387" lon="1.173560">
        <ele>1614.968</ele>
        <time>2021-06-19T13:22:28Z</time>
      </trkpt>
      <trkpt lat="42.432390" lon="1.173611">
        <ele>1615.492</ele>
        <time>2021-06-19T13:22:30Z</time>
      </trkpt>
      <trkpt lat="42.432394" lon="1.173726">
        <ele>1615.956</ele>
        <time>2021-06-19T13:22:35Z</time>
      </trkpt>
      <trkpt lat="42.432406" lon="1.173885">
        <ele>1616.366</ele>
        <time>2021-06-19T13:22:41Z</time>
      </trkpt>
      <trkpt lat="42.432409" lon="1.173965">
        <ele>1616.799</ele>
        <time>2021-06-19T13:22:44Z</time>
      </trkpt>
      <trkpt lat="42.432412" lon="1.174059">
        <ele>1617.226</ele>
        <time>2021-06-19T13:22:48Z</time>
      </trkpt>
      <trkpt lat="42.432414" lon="1.174150">
        <ele>1617.731</ele>
        <time>2021-06-19T13:22:52Z</time>
      </trkpt>
      <trkpt lat="42.432412" lon="1.174200">
        <ele>1618.061</ele>
        <time>2021-06-19T13:22:54Z</time>
      </trkpt>
      <trkpt lat="42.432409" lon="1.174223">
        <ele>1618.207</ele>
        <time>2021-06-19T13:22:55Z</time>
      </trkpt>
      <trkpt lat="42.432409" lon="1.174277">
        <ele>1618.508</ele>
        <time>2021-06-19T13:22:57Z</time>
      </trkpt>
      <trkpt lat="42.432417" lon="1.174419">
        <ele>1618.950</ele>
        <time>2021-06-19T13:23:02Z</time>
      </trkpt>
      <trkpt lat="42.432408" lon="1.174468">
        <ele>1619.519</ele>
        <time>2021-06-19T13:23:04Z</time>
      </trkpt>
      <trkpt lat="42.432404" lon="1.174487">
        <ele>1619.785</ele>
        <time>2021-06-19T13:23:05Z</time>
      </trkpt>
      <trkpt lat="42.432391" lon="1.174571">
        <ele>1620.729</ele>
        <time>2021-06-19T13:23:09Z</time>
      </trkpt>
      <trkpt lat="42.432388" lon="1.174617">
        <ele>1621.243</ele>
        <time>2021-06-19T13:23:11Z</time>
      </trkpt>
      <trkpt lat="42.432386" lon="1.174661">
        <ele>1621.553</ele>
        <time>2021-06-19T13:23:13Z</time>
      </trkpt>
      <trkpt lat="42.432386" lon="1.174775">
        <ele>1622.586</ele>
        <time>2021-06-19T13:23:18Z</time>
      </trkpt>
      <trkpt lat="42.432392" lon="1.174816">
        <ele>1622.673</ele>
        <time>2021-06-19T13:23:20Z</time>
      </trkpt>
      <trkpt lat="42.432389" lon="1.174836">
        <ele>1622.936</ele>
        <time>2021-06-19T13:23:21Z</time>
      </trkpt>
      <trkpt lat="42.432398" lon="1.174922">
        <ele>1623.417</ele>
        <time>2021-06-19T13:23:25Z</time>
      </trkpt>
      <trkpt lat="42.432395" lon="1.174964">
        <ele>1623.918</ele>
        <time>2021-06-19T13:23:27Z</time>
      </trkpt>
      <trkpt lat="42.432385" lon="1.175068">
        <ele>1625.108</ele>
        <time>2021-06-19T13:23:32Z</time>
      </trkpt>
      <trkpt lat="42.432386" lon="1.175090">
        <ele>1625.220</ele>
        <time>2021-06-19T13:23:33Z</time>
      </trkpt>
      <trkpt lat="42.432395" lon="1.175128">
        <ele>1624.979</ele>
        <time>2021-06-19T13:23:36Z</time>
      </trkpt>
      <trkpt lat="42.432393" lon="1.175175">
        <ele>1625.385</ele>
        <time>2021-06-19T13:23:39Z</time>
      </trkpt>
      <trkpt lat="42.432388" lon="1.175191">
        <ele>1625.619</ele>
        <time>2021-06-19T13:23:40Z</time>
      </trkpt>
      <trkpt lat="42.432383" lon="1.175205">
        <ele>1625.923</ele>
        <time>2021-06-19T13:23:41Z</time>
      </trkpt>
      <trkpt lat="42.432365" lon="1.175297">
        <ele>1627.263</ele>
        <time>2021-06-19T13:23:46Z</time>
      </trkpt>
      <trkpt lat="42.432365" lon="1.175315">
        <ele>1627.046</ele>
        <time>2021-06-19T13:23:47Z</time>
      </trkpt>
      <trkpt lat="42.432357" lon="1.175344">
        <ele>1627.263</ele>
        <time>2021-06-19T13:23:49Z</time>
      </trkpt>
      <trkpt lat="42.432331" lon="1.175417">
        <ele>1628.182</ele>
        <time>2021-06-19T13:23:53Z</time>
      </trkpt>
      <trkpt lat="42.432324" lon="1.175437">
        <ele>1628.443</ele>
        <time>2021-06-19T13:23:54Z</time>
      </trkpt>
      <trkpt lat="42.432306" lon="1.175500">
        <ele>1628.917</ele>
        <time>2021-06-19T13:23:58Z</time>
      </trkpt>
      <trkpt lat="42.432300" lon="1.175514">
        <ele>1629.108</ele>
        <time>2021-06-19T13:23:59Z</time>
      </trkpt>
      <trkpt lat="42.432287" lon="1.175541">
        <ele>1629.675</ele>
        <time>2021-06-19T13:24:01Z</time>
      </trkpt>
      <trkpt lat="42.432253" lon="1.175591">
        <ele>1630.824</ele>
        <time>2021-06-19T13:24:05Z</time>
      </trkpt>
      <trkpt lat="42.432211" lon="1.175630">
        <ele>1632.120</ele>
        <time>2021-06-19T13:24:09Z</time>
      </trkpt>
      <trkpt lat="42.432179" lon="1.175660">
        <ele>1632.944</ele>
        <time>2021-06-19T13:24:12Z</time>
      </trkpt>
      <trkpt lat="42.432158" lon="1.175681">
        <ele>1633.498</ele>
        <time>2021-06-19T13:24:14Z</time>
      </trkpt>
      <trkpt lat="42.432128" lon="1.175709">
        <ele>1634.168</ele>
        <time>2021-06-19T13:24:17Z</time>
      </trkpt>
      <trkpt lat="42.432107" lon="1.175729">
        <ele>1634.671</ele>
        <time>2021-06-19T13:24:19Z</time>
      </trkpt>
      <trkpt lat="42.432060" lon="1.175780">
        <ele>1635.598</ele>
        <time>2021-06-19T13:24:23Z</time>
      </trkpt>
      <trkpt lat="42.432036" lon="1.175810">
        <ele>1635.934</ele>
        <time>2021-06-19T13:24:25Z</time>
      </trkpt>
      <trkpt lat="42.431985" lon="1.175869">
        <ele>1637.155</ele>
        <time>2021-06-19T13:24:29Z</time>
      </trkpt>
      <trkpt lat="42.431942" lon="1.175908">
        <ele>1638.310</ele>
        <time>2021-06-19T13:24:33Z</time>
      </trkpt>
      <trkpt lat="42.431931" lon="1.175929">
        <ele>1638.408</ele>
        <time>2021-06-19T13:24:35Z</time>
      </trkpt>
      <trkpt lat="42.431896" lon="1.175965">
        <ele>1639.150</ele>
        <time>2021-06-19T13:24:39Z</time>
      </trkpt>
      <trkpt lat="42.431869" lon="1.176045">
        <ele>1638.759</ele>
        <time>2021-06-19T13:24:44Z</time>
      </trkpt>
      <trkpt lat="42.431855" lon="1.176100">
        <ele>1638.165</ele>
        <time>2021-06-19T13:24:47Z</time>
      </trkpt>
      <trkpt lat="42.431851" lon="1.176122">
        <ele>1638.139</ele>
        <time>2021-06-19T13:24:48Z</time>
      </trkpt>
      <trkpt lat="42.431842" lon="1.176185">
        <ele>1638.563</ele>
        <time>2021-06-19T13:24:51Z</time>
      </trkpt>
      <trkpt lat="42.431840" lon="1.176230">
        <ele>1638.833</ele>
        <time>2021-06-19T13:24:53Z</time>
      </trkpt>
      <trkpt lat="42.431836" lon="1.176247">
        <ele>1638.996</ele>
        <time>2021-06-19T13:24:54Z</time>
      </trkpt>
      <trkpt lat="42.431830" lon="1.176289">
        <ele>1639.233</ele>
        <time>2021-06-19T13:24:56Z</time>
      </trkpt>
      <trkpt lat="42.431824" lon="1.176434">
        <ele>1639.862</ele>
        <time>2021-06-19T13:25:03Z</time>
      </trkpt>
      <trkpt lat="42.431823" lon="1.176452">
        <ele>1639.883</ele>
        <time>2021-06-19T13:25:04Z</time>
      </trkpt>
      <trkpt lat="42.431799" lon="1.176549">
        <ele>1640.411</ele>
        <time>2021-06-19T13:25:10Z</time>
      </trkpt>
      <trkpt lat="42.431794" lon="1.176565">
        <ele>1640.508</ele>
        <time>2021-06-19T13:25:11Z</time>
      </trkpt>
      <trkpt lat="42.431763" lon="1.176667">
        <ele>1641.323</ele>
        <time>2021-06-19T13:25:18Z</time>
      </trkpt>
      <trkpt lat="42.431335" lon="1.177812">
        <ele>1661.612</ele>
        <time>2021-06-19T13:32:35Z</time>
      </trkpt>
      <trkpt lat="42.431340" lon="1.177878">
        <ele>1662.048</ele>
        <time>2021-06-19T13:32:39Z</time>
      </trkpt>
      <trkpt lat="42.431345" lon="1.177914">
        <ele>1662.132</ele>
        <time>2021-06-19T13:32:41Z</time>
      </trkpt>
      <trkpt lat="42.431351" lon="1.177932">
        <ele>1662.176</ele>
        <time>2021-06-19T13:32:42Z</time>
      </trkpt>
      <trkpt lat="42.431358" lon="1.178002">
        <ele>1662.486</ele>
        <time>2021-06-19T13:32:46Z</time>
      </trkpt>
      <trkpt lat="42.431360" lon="1.178022">
        <ele>1662.539</ele>
        <time>2021-06-19T13:32:47Z</time>
      </trkpt>
      <trkpt lat="42.431355" lon="1.178102">
        <ele>1663.086</ele>
        <time>2021-06-19T13:32:52Z</time>
      </trkpt>
      <trkpt lat="42.431352" lon="1.178126">
        <ele>1663.243</ele>
        <time>2021-06-19T13:32:54Z</time>
      </trkpt>
      <trkpt lat="42.431349" lon="1.178241">
        <ele>1663.664</ele>
        <time>2021-06-19T13:33:02Z</time>
      </trkpt>
      <trkpt lat="42.431347" lon="1.178253">
        <ele>1663.710</ele>
        <time>2021-06-19T13:33:03Z</time>
      </trkpt>
      <trkpt lat="42.431317" lon="1.178345">
        <ele>1664.608</ele>
        <time>2021-06-19T13:33:11Z</time>
      </trkpt>
      <trkpt lat="42.431315" lon="1.178355">
        <ele>1664.721</ele>
        <time>2021-06-19T13:33:12Z</time>
      </trkpt>
      <trkpt lat="42.431294" lon="1.178454">
        <ele>1665.850</ele>
        <time>2021-06-19T13:33:19Z</time>
      </trkpt>
      <trkpt lat="42.431286" lon="1.178495">
        <ele>1666.296</ele>
        <time>2021-06-19T13:33:22Z</time>
      </trkpt>
      <trkpt lat="42.431276" lon="1.178526">
        <ele>1666.510</ele>
        <time>2021-06-19T13:33:24Z</time>
      </trkpt>
      <trkpt lat="42.431221" lon="1.178652">
        <ele>1668.214</ele>
        <time>2021-06-19T13:33:31Z</time>
      </trkpt>
      <trkpt lat="42.431214" lon="1.178663">
        <ele>1668.374</ele>
        <time>2021-06-19T13:33:32Z</time>
      </trkpt>
      <trkpt lat="42.431199" lon="1.178681">
        <ele>1668.757</ele>
        <time>2021-06-19T13:33:34Z</time>
      </trkpt>
      <trkpt lat="42.431145" lon="1.178705">
        <ele>1669.724</ele>
        <time>2021-06-19T13:33:38Z</time>
      </trkpt>
      <trkpt lat="42.431130" lon="1.178704">
        <ele>1670.054</ele>
        <time>2021-06-19T13:33:39Z</time>
      </trkpt>
      <trkpt lat="42.431074" lon="1.178703">
        <ele>1671.056</ele>
        <time>2021-06-19T13:33:45Z</time>
      </trkpt>
      <trkpt lat="42.431050" lon="1.178711">
        <ele>1671.511</ele>
        <time>2021-06-19T13:33:48Z</time>
      </trkpt>
      <trkpt lat="42.431021" lon="1.178689">
        <ele>1671.908</ele>
        <time>2021-06-19T13:33:53Z</time>
      </trkpt>
      <trkpt lat="42.431007" lon="1.178675">
        <ele>1672.132</ele>
        <time>2021-06-19T13:33:55Z</time>
      </trkpt>
      <trkpt lat="42.430975" lon="1.178622">
        <ele>1672.561</ele>
        <time>2021-06-19T13:34:00Z</time>
      </trkpt>
      <trkpt lat="42.430955" lon="1.178579">
        <ele>1672.927</ele>
        <time>2021-06-19T13:34:04Z</time>
      </trkpt>
      <trkpt lat="42.430931" lon="1.178520">
        <ele>1673.611</ele>
        <time>2021-06-19T13:34:08Z</time>
      </trkpt>
      <trkpt lat="42.430930" lon="1.178458">
        <ele>1673.885</ele>
        <time>2021-06-19T13:34:13Z</time>
      </trkpt>
      <trkpt lat="42.430934" lon="1.178441">
        <ele>1673.775</ele>
        <time>2021-06-19T13:34:15Z</time>
      </trkpt>
      <trkpt lat="42.430942" lon="1.178393">
        <ele>1673.738</ele>
        <time>2021-06-19T13:34:18Z</time>
      </trkpt>
      <trkpt lat="42.430944" lon="1.178346">
        <ele>1673.815</ele>
        <time>2021-06-19T13:34:21Z</time>
      </trkpt>
      <trkpt lat="42.430943" lon="1.178328">
        <ele>1673.828</ele>
        <time>2021-06-19T13:34:22Z</time>
      </trkpt>
      <trkpt lat="42.430921" lon="1.178240">
        <ele>1674.589</ele>
        <time>2021-06-19T13:34:29Z</time>
      </trkpt>
      <trkpt lat="42.430566" lon="1.177984">
        <ele>1683.017</ele>
        <time>2021-06-19T13:35:08Z</time>
      </trkpt>
      <trkpt lat="42.430554" lon="1.177993">
        <ele>1683.408</ele>
        <time>2021-06-19T13:35:09Z</time>
      </trkpt>
      <trkpt lat="42.430521" lon="1.178059">
        <ele>1684.789</ele>
        <time>2021-06-19T13:35:15Z</time>
      </trkpt>
      <trkpt lat="42.430520" lon="1.178073">
        <ele>1684.838</ele>
        <time>2021-06-19T13:35:16Z</time>
      </trkpt>
      <trkpt lat="42.430520" lon="1.178082">
        <ele>1684.854</ele>
        <time>2021-06-19T13:35:17Z</time>
      </trkpt>
      <trkpt lat="42.430517" lon="1.178114">
        <ele>1684.968</ele>
        <time>2021-06-19T13:35:20Z</time>
      </trkpt>
      <trkpt lat="42.430516" lon="1.178127">
        <ele>1684.962</ele>
        <time>2021-06-19T13:35:21Z</time>
      </trkpt>
      <trkpt lat="42.430516" lon="1.178169">
        <ele>1684.972</ele>
        <time>2021-06-19T13:35:24Z</time>
      </trkpt>
      <trkpt lat="42.430519" lon="1.178182">
        <ele>1684.835</ele>
        <time>2021-06-19T13:35:25Z</time>
      </trkpt>
      <trkpt lat="42.430523" lon="1.178218">
        <ele>1684.812</ele>
        <time>2021-06-19T13:35:28Z</time>
      </trkpt>
      <trkpt lat="42.430510" lon="1.178265">
        <ele>1685.163</ele>
        <time>2021-06-19T13:35:32Z</time>
      </trkpt>
      <trkpt lat="42.430502" lon="1.178289">
        <ele>1685.344</ele>
        <time>2021-06-19T13:35:34Z</time>
      </trkpt>
      <trkpt lat="42.430491" lon="1.178373">
        <ele>1685.818</ele>
        <time>2021-06-19T13:35:40Z</time>
      </trkpt>
      <trkpt lat="42.430489" lon="1.178386">
        <ele>1685.908</ele>
        <time>2021-06-19T13:35:41Z</time>
      </trkpt>
      <trkpt lat="42.430476" lon="1.178486">
        <ele>1686.773</ele>
        <time>2021-06-19T13:35:47Z</time>
      </trkpt>
      <trkpt lat="42.430476" lon="1.178530">
        <ele>1686.912</ele>
        <time>2021-06-19T13:35:49Z</time>
      </trkpt>
      <trkpt lat="42.430465" lon="1.178664">
        <ele>1687.818</ele>
        <time>2021-06-19T13:35:56Z</time>
      </trkpt>
      <trkpt lat="42.430462" lon="1.178683">
        <ele>1688.022</ele>
        <time>2021-06-19T13:35:57Z</time>
      </trkpt>
      <trkpt lat="42.430463" lon="1.178701">
        <ele>1688.096</ele>
        <time>2021-06-19T13:35:58Z</time>
      </trkpt>
      <trkpt lat="42.430465" lon="1.178841">
        <ele>1688.426</ele>
        <time>2021-06-19T13:36:05Z</time>
      </trkpt>
      <trkpt lat="42.430458" lon="1.178935">
        <ele>1689.369</ele>
        <time>2021-06-19T13:36:10Z</time>
      </trkpt>
      <trkpt lat="42.430466" lon="1.178952">
        <ele>1689.146</ele>
        <time>2021-06-19T13:36:11Z</time>
      </trkpt>
      <trkpt lat="42.430480" lon="1.178996">
        <ele>1688.933</ele>
        <time>2021-06-19T13:36:14Z</time>
      </trkpt>
      <trkpt lat="42.430483" lon="1.179048">
        <ele>1689.223</ele>
        <time>2021-06-19T13:36:18Z</time>
      </trkpt>
      <trkpt lat="42.430492" lon="1.179098">
        <ele>1689.215</ele>
        <time>2021-06-19T13:36:21Z</time>
      </trkpt>
      <trkpt lat="42.430494" lon="1.179136">
        <ele>1689.408</ele>
        <time>2021-06-19T13:36:23Z</time>
      </trkpt>
      <trkpt lat="42.430501" lon="1.179213">
        <ele>1689.740</ele>
        <time>2021-06-19T13:36:27Z</time>
      </trkpt>
      <trkpt lat="42.430506" lon="1.179228">
        <ele>1689.649</ele>
        <time>2021-06-19T13:36:28Z</time>
      </trkpt>
      <trkpt lat="42.430509" lon="1.179264">
        <ele>1689.755</ele>
        <time>2021-06-19T13:36:30Z</time>
      </trkpt>
      <trkpt lat="42.430493" lon="1.179352">
        <ele>1691.059</ele>
        <time>2021-06-19T13:36:35Z</time>
      </trkpt>
      <trkpt lat="42.430497" lon="1.179371">
        <ele>1691.083</ele>
        <time>2021-06-19T13:36:36Z</time>
      </trkpt>
      <trkpt lat="42.430491" lon="1.179485">
        <ele>1692.393</ele>
        <time>2021-06-19T13:36:42Z</time>
      </trkpt>
      <trkpt lat="42.430506" lon="1.179568">
        <ele>1692.856</ele>
        <time>2021-06-19T13:36:46Z</time>
      </trkpt>
      <trkpt lat="42.430516" lon="1.179605">
        <ele>1692.943</ele>
        <time>2021-06-19T13:36:48Z</time>
      </trkpt>
      <trkpt lat="42.430520" lon="1.179724">
        <ele>1694.462</ele>
        <time>2021-06-19T13:36:55Z</time>
      </trkpt>
      <trkpt lat="42.430521" lon="1.179747">
        <ele>1694.883</ele>
        <time>2021-06-19T13:36:56Z</time>
      </trkpt>
      <trkpt lat="42.430521" lon="1.179821">
        <ele>1696.111</ele>
        <time>2021-06-19T13:37:01Z</time>
      </trkpt>
      <trkpt lat="42.430537" lon="1.179869">
        <ele>1696.308</ele>
        <time>2021-06-19T13:37:04Z</time>
      </trkpt>
      <trkpt lat="42.430539" lon="1.179887">
        <ele>1696.643</ele>
        <time>2021-06-19T13:37:05Z</time>
      </trkpt>
      <trkpt lat="42.430552" lon="1.179949">
        <ele>1697.262</ele>
        <time>2021-06-19T13:37:08Z</time>
      </trkpt>
      <trkpt lat="42.430554" lon="1.179968">
        <ele>1697.548</ele>
        <time>2021-06-19T13:37:09Z</time>
      </trkpt>
      <trkpt lat="42.430558" lon="1.180021">
        <ele>1698.112</ele>
        <time>2021-06-19T13:37:12Z</time>
      </trkpt>
      <trkpt lat="42.430569" lon="1.180061">
        <ele>1698.276</ele>
        <time>2021-06-19T13:37:14Z</time>
      </trkpt>
      <trkpt lat="42.430575" lon="1.180076">
        <ele>1698.256</ele>
        <time>2021-06-19T13:37:15Z</time>
      </trkpt>
      <trkpt lat="42.430591" lon="1.180127">
        <ele>1698.389</ele>
        <time>2021-06-19T13:37:18Z</time>
      </trkpt>
      <trkpt lat="42.430594" lon="1.180148">
        <ele>1698.436</ele>
        <time>2021-06-19T13:37:19Z</time>
      </trkpt>
      <trkpt lat="42.430600" lon="1.180169">
        <ele>1698.554</ele>
        <time>2021-06-19T13:37:20Z</time>
      </trkpt>
      <trkpt lat="42.430609" lon="1.180211">
        <ele>1698.756</ele>
        <time>2021-06-19T13:37:22Z</time>
      </trkpt>
      <trkpt lat="42.430641" lon="1.180300">
        <ele>1699.011</ele>
        <time>2021-06-19T13:37:26Z</time>
      </trkpt>
      <trkpt lat="42.430662" lon="1.180344">
        <ele>1699.508</ele>
        <time>2021-06-19T13:37:28Z</time>
      </trkpt>
      <trkpt lat="42.430702" lon="1.180391">
        <ele>1699.462</ele>
        <time>2021-06-19T13:37:32Z</time>
      </trkpt>
      <trkpt lat="42.430735" lon="1.180429">
        <ele>1699.551</ele>
        <time>2021-06-19T13:37:35Z</time>
      </trkpt>
      <trkpt lat="42.430772" lon="1.180493">
        <ele>1700.017</ele>
        <time>2021-06-19T13:37:39Z</time>
      </trkpt>
      <trkpt lat="42.430791" lon="1.180530">
        <ele>1700.411</ele>
        <time>2021-06-19T13:37:41Z</time>
      </trkpt>
      <trkpt lat="42.430841" lon="1.180631">
        <ele>1701.365</ele>
        <time>2021-06-19T13:37:48Z</time>
      </trkpt>
      <trkpt lat="42.430883" lon="1.180780">
        <ele>1702.795</ele>
        <time>2021-06-19T13:37:56Z</time>
      </trkpt>
      <trkpt lat="42.430930" lon="1.180911">
        <ele>1703.558</ele>
        <time>2021-06-19T13:38:03Z</time>
      </trkpt>
      <trkpt lat="42.430934" lon="1.180926">
        <ele>1703.795</ele>
        <time>2021-06-19T13:38:04Z</time>
      </trkpt>
      <trkpt lat="42.430965" lon="1.181031">
        <ele>1704.987</ele>
        <time>2021-06-19T13:38:10Z</time>
      </trkpt>
      <trkpt lat="42.430969" lon="1.181050">
        <ele>1705.242</ele>
        <time>2021-06-19T13:38:11Z</time>
      </trkpt>
      <trkpt lat="42.431008" lon="1.181139">
        <ele>1705.826</ele>
        <time>2021-06-19T13:38:16Z</time>
      </trkpt>
      <trkpt lat="42.431013" lon="1.181153">
        <ele>1705.808</ele>
        <time>2021-06-19T13:38:17Z</time>
      </trkpt>
      <trkpt lat="42.431037" lon="1.181233">
        <ele>1706.475</ele>
        <time>2021-06-19T13:38:22Z</time>
      </trkpt>
      <trkpt lat="42.431062" lon="1.181332">
        <ele>1707.374</ele>
        <time>2021-06-19T13:38:27Z</time>
      </trkpt>
      <trkpt lat="42.431069" lon="1.181353">
        <ele>1707.560</ele>
        <time>2021-06-19T13:38:28Z</time>
      </trkpt>
      <trkpt lat="42.431088" lon="1.181431">
        <ele>1708.074</ele>
        <time>2021-06-19T13:38:32Z</time>
      </trkpt>
      <trkpt lat="42.431099" lon="1.181467">
        <ele>1708.168</ele>
        <time>2021-06-19T13:38:34Z</time>
      </trkpt>
      <trkpt lat="42.431105" lon="1.181509">
        <ele>1708.418</ele>
        <time>2021-06-19T13:38:36Z</time>
      </trkpt>
      <trkpt lat="42.431113" lon="1.181560">
        <ele>1708.881</ele>
        <time>2021-06-19T13:38:39Z</time>
      </trkpt>
      <trkpt lat="42.431129" lon="1.181631">
        <ele>1709.268</ele>
        <time>2021-06-19T13:38:43Z</time>
      </trkpt>
      <trkpt lat="42.431122" lon="1.181716">
        <ele>1710.334</ele>
        <time>2021-06-19T13:38:48Z</time>
      </trkpt>
      <trkpt lat="42.431130" lon="1.181754">
        <ele>1710.655</ele>
        <time>2021-06-19T13:38:50Z</time>
      </trkpt>
      <trkpt lat="42.431153" lon="1.181838">
        <ele>1711.010</ele>
        <time>2021-06-19T13:38:56Z</time>
      </trkpt>
      <trkpt lat="42.431168" lon="1.181861">
        <ele>1711.008</ele>
        <time>2021-06-19T13:38:58Z</time>
      </trkpt>
      <trkpt lat="42.431194" lon="1.181908">
        <ele>1711.160</ele>
        <time>2021-06-19T13:39:02Z</time>
      </trkpt>
      <trkpt lat="42.431204" lon="1.181923">
        <ele>1711.129</ele>
        <time>2021-06-19T13:39:03Z</time>
      </trkpt>
      <trkpt lat="42.431227" lon="1.181979">
        <ele>1711.745</ele>
        <time>2021-06-19T13:39:07Z</time>
      </trkpt>
      <trkpt lat="42.431235" lon="1.181993">
        <ele>1711.939</ele>
        <time>2021-06-19T13:39:08Z</time>
      </trkpt>
      <trkpt lat="42.431242" lon="1.182008">
        <ele>1712.133</ele>
        <time>2021-06-19T13:39:09Z</time>
      </trkpt>
      <trkpt lat="42.431293" lon="1.182093">
        <ele>1713.323</ele>
        <time>2021-06-19T13:39:16Z</time>
      </trkpt>
      <trkpt lat="42.431301" lon="1.182105">
        <ele>1713.466</ele>
        <time>2021-06-19T13:39:17Z</time>
      </trkpt>
      <trkpt lat="42.431313" lon="1.182120">
        <ele>1713.633</ele>
        <time>2021-06-19T13:39:18Z</time>
      </trkpt>
      <trkpt lat="42.431336" lon="1.182185">
        <ele>1714.899</ele>
        <time>2021-06-19T13:39:24Z</time>
      </trkpt>
      <trkpt lat="42.431349" lon="1.182215">
        <ele>1715.407</ele>
        <time>2021-06-19T13:39:26Z</time>
      </trkpt>
      <trkpt lat="42.431399" lon="1.182287">
        <ele>1716.227</ele>
        <time>2021-06-19T13:39:33Z</time>
      </trkpt>
      <trkpt lat="42.431589" lon="1.183095">
        <ele>1723.908</ele>
        <time>2021-06-19T13:43:58Z</time>
      </trkpt>
      <trkpt lat="42.431616" lon="1.183141">
        <ele>1724.286</ele>
        <time>2021-06-19T13:44:01Z</time>
      </trkpt>
      <trkpt lat="42.431661" lon="1.183215">
        <ele>1724.735</ele>
        <time>2021-06-19T13:44:06Z</time>
      </trkpt>
      <trkpt lat="42.431697" lon="1.183284">
        <ele>1725.311</ele>
        <time>2021-06-19T13:44:10Z</time>
      </trkpt>
      <trkpt lat="42.431725" lon="1.183313">
        <ele>1725.515</ele>
        <time>2021-06-19T13:44:13Z</time>
      </trkpt>
      <trkpt lat="42.431751" lon="1.183335">
        <ele>1725.739</ele>
        <time>2021-06-19T13:44:16Z</time>
      </trkpt>
      <trkpt lat="42.431759" lon="1.183347">
        <ele>1725.889</ele>
        <time>2021-06-19T13:44:17Z</time>
      </trkpt>
      <trkpt lat="42.431776" lon="1.183372">
        <ele>1726.062</ele>
        <time>2021-06-19T13:44:20Z</time>
      </trkpt>
      <trkpt lat="42.432581" lon="1.184123">
        <ele>1737.319</ele>
        <time>2021-06-19T13:45:32Z</time>
      </trkpt>
      <trkpt lat="42.432624" lon="1.184185">
        <ele>1737.985</ele>
        <time>2021-06-19T13:45:36Z</time>
      </trkpt>
      <trkpt lat="42.432652" lon="1.184229">
        <ele>1738.189</ele>
        <time>2021-06-19T13:45:39Z</time>
      </trkpt>
      <trkpt lat="42.432688" lon="1.184304">
        <ele>1738.617</ele>
        <time>2021-06-19T13:45:44Z</time>
      </trkpt>
      <trkpt lat="42.432697" lon="1.184322">
        <ele>1738.708</ele>
        <time>2021-06-19T13:45:45Z</time>
      </trkpt>
      <trkpt lat="42.432750" lon="1.184429">
        <ele>1739.215</ele>
        <time>2021-06-19T13:45:51Z</time>
      </trkpt>
      <trkpt lat="42.432759" lon="1.184482">
        <ele>1739.554</ele>
        <time>2021-06-19T13:45:54Z</time>
      </trkpt>
      <trkpt lat="42.432782" lon="1.184569">
        <ele>1739.810</ele>
        <time>2021-06-19T13:45:58Z</time>
      </trkpt>
      <trkpt lat="42.432804" lon="1.184660">
        <ele>1740.044</ele>
        <time>2021-06-19T13:46:03Z</time>
      </trkpt>
      <trkpt lat="42.432807" lon="1.184672">
        <ele>1740.038</ele>
        <time>2021-06-19T13:46:04Z</time>
      </trkpt>
      <trkpt lat="42.432807" lon="1.184685">
        <ele>1740.158</ele>
        <time>2021-06-19T13:46:05Z</time>
      </trkpt>
      <trkpt lat="42.432778" lon="1.184773">
        <ele>1741.711</ele>
        <time>2021-06-19T13:46:11Z</time>
      </trkpt>
      <trkpt lat="42.432767" lon="1.184786">
        <ele>1742.128</ele>
        <time>2021-06-19T13:46:12Z</time>
      </trkpt>
      <trkpt lat="42.432699" lon="1.184828">
        <ele>1743.713</ele>
        <time>2021-06-19T13:46:18Z</time>
      </trkpt>
      <trkpt lat="42.432681" lon="1.184829">
        <ele>1743.943</ele>
        <time>2021-06-19T13:46:20Z</time>
      </trkpt>
      <trkpt lat="42.432669" lon="1.184833">
        <ele>1744.207</ele>
        <time>2021-06-19T13:46:21Z</time>
      </trkpt>
      <trkpt lat="42.432648" lon="1.184817">
        <ele>1744.208</ele>
        <time>2021-06-19T13:46:24Z</time>
      </trkpt>
      <trkpt lat="42.432594" lon="1.184778">
        <ele>1744.518</ele>
        <time>2021-06-19T13:46:30Z</time>
      </trkpt>
      <trkpt lat="42.432582" lon="1.184768">
        <ele>1744.547</ele>
        <time>2021-06-19T13:46:31Z</time>
      </trkpt>
      <trkpt lat="42.432529" lon="1.184743">
        <ele>1744.963</ele>
        <time>2021-06-19T13:46:36Z</time>
      </trkpt>
      <trkpt lat="42.432463" lon="1.184747">
        <ele>1745.537</ele>
        <time>2021-06-19T13:46:43Z</time>
      </trkpt>
      <trkpt lat="42.432452" lon="1.184755">
        <ele>1745.621</ele>
        <time>2021-06-19T13:46:44Z</time>
      </trkpt>
      <trkpt lat="42.432396" lon="1.184843">
        <ele>1747.141</ele>
        <time>2021-06-19T13:46:50Z</time>
      </trkpt>
      <trkpt lat="42.432399" lon="1.184901">
        <ele>1747.924</ele>
        <time>2021-06-19T13:46:53Z</time>
      </trkpt>
      <trkpt lat="42.432424" lon="1.184954">
        <ele>1748.641</ele>
        <time>2021-06-19T13:46:57Z</time>
      </trkpt>
      <trkpt lat="42.432433" lon="1.184963">
        <ele>1748.715</ele>
        <time>2021-06-19T13:46:58Z</time>
      </trkpt>
      <trkpt lat="42.432490" lon="1.185032">
        <ele>1749.865</ele>
        <time>2021-06-19T13:47:04Z</time>
      </trkpt>
      <trkpt lat="42.432502" lon="1.185040">
        <ele>1750.011</ele>
        <time>2021-06-19T13:47:05Z</time>
      </trkpt>
      <trkpt lat="42.432551" lon="1.185090">
        <ele>1750.508</ele>
        <time>2021-06-19T13:47:11Z</time>
      </trkpt>
      <trkpt lat="42.432570" lon="1.185099">
        <ele>1750.588</ele>
        <time>2021-06-19T13:47:13Z</time>
      </trkpt>
      <trkpt lat="42.432607" lon="1.185131">
        <ele>1750.817</ele>
        <time>2021-06-19T13:47:17Z</time>
      </trkpt>
      <trkpt lat="42.432637" lon="1.185164">
        <ele>1751.283</ele>
        <time>2021-06-19T13:47:20Z</time>
      </trkpt>
      <trkpt lat="42.432680" lon="1.185214">
        <ele>1751.847</ele>
        <time>2021-06-19T13:47:25Z</time>
      </trkpt>
      <trkpt lat="42.432699" lon="1.185245">
        <ele>1752.321</ele>
        <time>2021-06-19T13:47:28Z</time>
      </trkpt>
      <trkpt lat="42.432712" lon="1.185270">
        <ele>1752.891</ele>
        <time>2021-06-19T13:47:30Z</time>
      </trkpt>
      <trkpt lat="42.432737" lon="1.185324">
        <ele>1753.614</ele>
        <time>2021-06-19T13:47:33Z</time>
      </trkpt>
      <trkpt lat="42.432742" lon="1.185339">
        <ele>1753.841</ele>
        <time>2021-06-19T13:47:34Z</time>
      </trkpt>
      <trkpt lat="42.432769" lon="1.185404">
        <ele>1754.939</ele>
        <time>2021-06-19T13:47:38Z</time>
      </trkpt>
      <trkpt lat="42.432811" lon="1.185468">
        <ele>1754.801</ele>
        <time>2021-06-19T13:47:42Z</time>
      </trkpt>
      <trkpt lat="42.432857" lon="1.185564">
        <ele>1755.021</ele>
        <time>2021-06-19T13:47:48Z</time>
      </trkpt>
      <trkpt lat="42.432874" lon="1.185591">
        <ele>1754.908</ele>
        <time>2021-06-19T13:47:50Z</time>
      </trkpt>
      <trkpt lat="42.432877" lon="1.185607">
        <ele>1755.190</ele>
        <time>2021-06-19T13:47:51Z</time>
      </trkpt>
      <trkpt lat="42.432903" lon="1.185680">
        <ele>1755.529</ele>
        <time>2021-06-19T13:47:55Z</time>
      </trkpt>
      <trkpt lat="42.432918" lon="1.185716">
        <ele>1755.695</ele>
        <time>2021-06-19T13:47:57Z</time>
      </trkpt>
      <trkpt lat="42.432954" lon="1.185824">
        <ele>1756.229</ele>
        <time>2021-06-19T13:48:03Z</time>
      </trkpt>
      <trkpt lat="42.432965" lon="1.185856">
        <ele>1756.393</ele>
        <time>2021-06-19T13:48:05Z</time>
      </trkpt>
      <trkpt lat="42.432996" lon="1.185932">
        <ele>1756.373</ele>
        <time>2021-06-19T13:48:10Z</time>
      </trkpt>
      <trkpt lat="42.433000" lon="1.185973">
        <ele>1756.996</ele>
        <time>2021-06-19T13:48:12Z</time>
      </trkpt>
      <trkpt lat="42.433040" lon="1.186076">
        <ele>1757.013</ele>
        <time>2021-06-19T13:48:18Z</time>
      </trkpt>
      <trkpt lat="42.433065" lon="1.186142">
        <ele>1757.441</ele>
        <time>2021-06-19T13:48:22Z</time>
      </trkpt>
      <trkpt lat="42.433082" lon="1.186209">
        <ele>1758.581</ele>
        <time>2021-06-19T13:48:26Z</time>
      </trkpt>
      <trkpt lat="42.433091" lon="1.186256">
        <ele>1759.409</ele>
        <time>2021-06-19T13:48:29Z</time>
      </trkpt>
      <trkpt lat="42.433121" lon="1.186332">
        <ele>1760.108</ele>
        <time>2021-06-19T13:48:34Z</time>
      </trkpt>
      <trkpt lat="42.433133" lon="1.186363">
        <ele>1760.451</ele>
        <time>2021-06-19T13:48:36Z</time>
      </trkpt>
      <trkpt lat="42.433165" lon="1.186435">
        <ele>1760.930</ele>
        <time>2021-06-19T13:48:41Z</time>
      </trkpt>
      <trkpt lat="42.433170" lon="1.186451">
        <ele>1761.246</ele>
        <time>2021-06-19T13:48:42Z</time>
      </trkpt>
      <trkpt lat="42.433192" lon="1.186515">
        <ele>1762.040</ele>
        <time>2021-06-19T13:48:46Z</time>
      </trkpt>
      <trkpt lat="42.433207" lon="1.186556">
        <ele>1762.594</ele>
        <time>2021-06-19T13:48:49Z</time>
      </trkpt>
      <trkpt lat="42.433230" lon="1.186603">
        <ele>1762.734</ele>
        <time>2021-06-19T13:48:52Z</time>
      </trkpt>
      <trkpt lat="42.433242" lon="1.186651">
        <ele>1763.597</ele>
        <time>2021-06-19T13:48:55Z</time>
      </trkpt>
      <trkpt lat="42.433247" lon="1.186689">
        <ele>1764.264</ele>
        <time>2021-06-19T13:48:58Z</time>
      </trkpt>
      <trkpt lat="42.433262" lon="1.186718">
        <ele>1764.151</ele>
        <time>2021-06-19T13:49:00Z</time>
      </trkpt>
      <trkpt lat="42.433276" lon="1.186750">
        <ele>1764.001</ele>
        <time>2021-06-19T13:49:02Z</time>
      </trkpt>
      <trkpt lat="42.433282" lon="1.186767">
        <ele>1764.111</ele>
        <time>2021-06-19T13:49:03Z</time>
      </trkpt>
      <trkpt lat="42.433306" lon="1.186871">
        <ele>1765.008</ele>
        <time>2021-06-19T13:49:08Z</time>
      </trkpt>
      <trkpt lat="42.433325" lon="1.186967">
        <ele>1766.212</ele>
        <time>2021-06-19T13:49:14Z</time>
      </trkpt>
      <trkpt lat="42.433335" lon="1.187018">
        <ele>1767.081</ele>
        <time>2021-06-19T13:49:17Z</time>
      </trkpt>
      <trkpt lat="42.433343" lon="1.187077">
        <ele>1768.337</ele>
        <time>2021-06-19T13:49:20Z</time>
      </trkpt>
      <trkpt lat="42.433355" lon="1.187135">
        <ele>1769.211</ele>
        <time>2021-06-19T13:49:23Z</time>
      </trkpt>
      <trkpt lat="42.433374" lon="1.187216">
        <ele>1770.245</ele>
        <time>2021-06-19T13:49:27Z</time>
      </trkpt>
      <trkpt lat="42.433406" lon="1.187306">
        <ele>1770.735</ele>
        <time>2021-06-19T13:49:32Z</time>
      </trkpt>
      <trkpt lat="42.433431" lon="1.187355">
        <ele>1770.538</ele>
        <time>2021-06-19T13:49:35Z</time>
      </trkpt>
      <trkpt lat="42.433480" lon="1.187474">
        <ele>1770.765</ele>
        <time>2021-06-19T13:49:41Z</time>
      </trkpt>
      <trkpt lat="42.433508" lon="1.187533">
        <ele>1770.497</ele>
        <time>2021-06-19T13:49:44Z</time>
      </trkpt>
      <trkpt lat="42.433531" lon="1.187588">
        <ele>1770.123</ele>
        <time>2021-06-19T13:49:47Z</time>
      </trkpt>
      <trkpt lat="42.433542" lon="1.187631">
        <ele>1770.425</ele>
        <time>2021-06-19T13:49:49Z</time>
      </trkpt>
      <trkpt lat="42.433547" lon="1.187656">
        <ele>1770.708</ele>
        <time>2021-06-19T13:49:50Z</time>
      </trkpt>
      <trkpt lat="42.433589" lon="1.187752">
        <ele>1770.676</ele>
        <time>2021-06-19T13:49:55Z</time>
      </trkpt>
      <trkpt lat="42.433607" lon="1.187801">
        <ele>1770.615</ele>
        <time>2021-06-19T13:49:59Z</time>
      </trkpt>
      <trkpt lat="42.433607" lon="1.187817">
        <ele>1770.861</ele>
        <time>2021-06-19T13:50:00Z</time>
      </trkpt>
      <trkpt lat="42.433603" lon="1.187845">
        <ele>1771.475</ele>
        <time>2021-06-19T13:50:02Z</time>
      </trkpt>
      <trkpt lat="42.433602" lon="1.187935">
        <ele>1772.729</ele>
        <time>2021-06-19T13:50:07Z</time>
      </trkpt>
      <trkpt lat="42.433603" lon="1.187982">
        <ele>1773.459</ele>
        <time>2021-06-19T13:50:09Z</time>
      </trkpt>
      <trkpt lat="42.433619" lon="1.188114">
        <ele>1774.732</ele>
        <time>2021-06-19T13:50:15Z</time>
      </trkpt>
      <trkpt lat="42.433629" lon="1.188182">
        <ele>1775.529</ele>
        <time>2021-06-19T13:50:18Z</time>
      </trkpt>
      <trkpt lat="42.433656" lon="1.188262">
        <ele>1775.732</ele>
        <time>2021-06-19T13:50:22Z</time>
      </trkpt>
      <trkpt lat="42.433662" lon="1.188281">
        <ele>1775.892</ele>
        <time>2021-06-19T13:50:23Z</time>
      </trkpt>
      <trkpt lat="42.433689" lon="1.188382">
        <ele>1776.611</ele>
        <time>2021-06-19T13:50:28Z</time>
      </trkpt>
      <trkpt lat="42.433704" lon="1.188423">
        <ele>1776.708</ele>
        <time>2021-06-19T13:50:30Z</time>
      </trkpt>
      <trkpt lat="42.433738" lon="1.188534">
        <ele>1777.240</ele>
        <time>2021-06-19T13:50:36Z</time>
      </trkpt>
      <trkpt lat="42.433738" lon="1.188544">
        <ele>1777.459</ele>
        <time>2021-06-19T13:50:38Z</time>
      </trkpt>
      <trkpt lat="42.433755" lon="1.188598">
        <ele>1777.585</ele>
        <time>2021-06-19T13:50:52Z</time>
      </trkpt>
      <trkpt lat="42.433760" lon="1.188612">
        <ele>1777.579</ele>
        <time>2021-06-19T13:50:53Z</time>
      </trkpt>
      <trkpt lat="42.433769" lon="1.188636">
        <ele>1777.743</ele>
        <time>2021-06-19T13:50:55Z</time>
      </trkpt>
      <trkpt lat="42.433795" lon="1.188691">
        <ele>1777.893</ele>
        <time>2021-06-19T13:50:59Z</time>
      </trkpt>
      <trkpt lat="42.433812" lon="1.188732">
        <ele>1778.126</ele>
        <time>2021-06-19T13:51:02Z</time>
      </trkpt>
      <trkpt lat="42.433823" lon="1.188762">
        <ele>1778.443</ele>
        <time>2021-06-19T13:51:04Z</time>
      </trkpt>
      <trkpt lat="42.433860" lon="1.188869">
        <ele>1779.765</ele>
        <time>2021-06-19T13:51:10Z</time>
      </trkpt>
      <trkpt lat="42.433867" lon="1.188887">
        <ele>1779.968</ele>
        <time>2021-06-19T13:51:11Z</time>
      </trkpt>
      <trkpt lat="42.433906" lon="1.188957">
        <ele>1780.314</ele>
        <time>2021-06-19T13:51:16Z</time>
      </trkpt>
      <trkpt lat="42.433914" lon="1.188967">
        <ele>1780.308</ele>
        <time>2021-06-19T13:51:17Z</time>
      </trkpt>
      <trkpt lat="42.433917" lon="1.188980">
        <ele>1780.543</ele>
        <time>2021-06-19T13:51:18Z</time>
      </trkpt>
      <trkpt lat="42.433964" lon="1.189075">
        <ele>1781.632</ele>
        <time>2021-06-19T13:51:24Z</time>
      </trkpt>
      <trkpt lat="42.433970" lon="1.189092">
        <ele>1781.958</ele>
        <time>2021-06-19T13:51:25Z</time>
      </trkpt>
      <trkpt lat="42.433973" lon="1.189198">
        <ele>1784.652</ele>
        <time>2021-06-19T13:51:31Z</time>
      </trkpt>
      <trkpt lat="42.433982" lon="1.189226">
        <ele>1784.986</ele>
        <time>2021-06-19T13:51:33Z</time>
      </trkpt>
      <trkpt lat="42.434002" lon="1.189277">
        <ele>1785.226</ele>
        <time>2021-06-19T13:51:37Z</time>
      </trkpt>
      <trkpt lat="42.434035" lon="1.189370">
        <ele>1786.239</ele>
        <time>2021-06-19T13:51:43Z</time>
      </trkpt>
      <trkpt lat="42.434042" lon="1.189387">
        <ele>1786.376</ele>
        <time>2021-06-19T13:51:44Z</time>
      </trkpt>
      <trkpt lat="42.434073" lon="1.189512">
        <ele>1788.026</ele>
        <time>2021-06-19T13:51:51Z</time>
      </trkpt>
      <trkpt lat="42.434074" lon="1.189528">
        <ele>1788.347</ele>
        <time>2021-06-19T13:51:52Z</time>
      </trkpt>
      <trkpt lat="42.434084" lon="1.189561">
        <ele>1788.611</ele>
        <time>2021-06-19T13:51:54Z</time>
      </trkpt>
      <trkpt lat="42.434123" lon="1.189611">
        <ele>1788.308</ele>
        <time>2021-06-19T13:51:58Z</time>
      </trkpt>
      <trkpt lat="42.434139" lon="1.189640">
        <ele>1788.449</ele>
        <time>2021-06-19T13:52:00Z</time>
      </trkpt>
      <trkpt lat="42.434153" lon="1.189666">
        <ele>1788.478</ele>
        <time>2021-06-19T13:52:02Z</time>
      </trkpt>
      <trkpt lat="42.434160" lon="1.189683">
        <ele>1788.594</ele>
        <time>2021-06-19T13:52:03Z</time>
      </trkpt>
      <trkpt lat="42.434221" lon="1.189785">
        <ele>1789.278</ele>
        <time>2021-06-19T13:52:10Z</time>
      </trkpt>
      <trkpt lat="42.434234" lon="1.189800">
        <ele>1789.212</ele>
        <time>2021-06-19T13:52:11Z</time>
      </trkpt>
      <trkpt lat="42.434287" lon="1.189865">
        <ele>1789.422</ele>
        <time>2021-06-19T13:52:16Z</time>
      </trkpt>
      <trkpt lat="42.434308" lon="1.189911">
        <ele>1790.085</ele>
        <time>2021-06-19T13:52:19Z</time>
      </trkpt>
      <trkpt lat="42.434325" lon="1.189942">
        <ele>1790.352</ele>
        <time>2021-06-19T13:52:21Z</time>
      </trkpt>
      <trkpt lat="42.434346" lon="1.189993">
        <ele>1791.087</ele>
        <time>2021-06-19T13:52:24Z</time>
      </trkpt>
      <trkpt lat="42.434379" lon="1.190073">
        <ele>1791.742</ele>
        <time>2021-06-19T13:52:29Z</time>
      </trkpt>
      <trkpt lat="42.434387" lon="1.190093">
        <ele>1791.926</ele>
        <time>2021-06-19T13:52:30Z</time>
      </trkpt>
      <trkpt lat="42.434415" lon="1.190165">
        <ele>1792.508</ele>
        <time>2021-06-19T13:52:34Z</time>
      </trkpt>
      <trkpt lat="42.434453" lon="1.190220">
        <ele>1792.575</ele>
        <time>2021-06-19T13:52:38Z</time>
      </trkpt>
      <trkpt lat="42.434465" lon="1.190250">
        <ele>1792.914</ele>
        <time>2021-06-19T13:52:40Z</time>
      </trkpt>
      <trkpt lat="42.434477" lon="1.190319">
        <ele>1793.940</ele>
        <time>2021-06-19T13:52:44Z</time>
      </trkpt>
      <trkpt lat="42.434474" lon="1.190339">
        <ele>1794.424</ele>
        <time>2021-06-19T13:52:45Z</time>
      </trkpt>
      <trkpt lat="42.434484" lon="1.190393">
        <ele>1795.178</ele>
        <time>2021-06-19T13:52:48Z</time>
      </trkpt>
      <trkpt lat="42.434491" lon="1.190409">
        <ele>1795.298</ele>
        <time>2021-06-19T13:52:49Z</time>
      </trkpt>
      <trkpt lat="42.434506" lon="1.190473">
        <ele>1796.081</ele>
        <time>2021-06-19T13:52:53Z</time>
      </trkpt>
      <trkpt lat="42.434510" lon="1.190511">
        <ele>1796.598</ele>
        <time>2021-06-19T13:52:55Z</time>
      </trkpt>
      <trkpt lat="42.434522" lon="1.190546">
        <ele>1796.944</ele>
        <time>2021-06-19T13:52:57Z</time>
      </trkpt>
      <trkpt lat="42.434527" lon="1.190575">
        <ele>1797.105</ele>
        <time>2021-06-19T13:53:00Z</time>
      </trkpt>
      <trkpt lat="42.434528" lon="1.190576">
        <ele>1797.115</ele>
        <time>2021-06-19T13:53:01Z</time>
      </trkpt>
      <trkpt lat="42.434561" lon="1.190675">
        <ele>1797.108</ele>
        <time>2021-06-19T13:53:09Z</time>
      </trkpt>
      <trkpt lat="42.434574" lon="1.190711">
        <ele>1797.131</ele>
        <time>2021-06-19T13:53:11Z</time>
      </trkpt>
      <trkpt lat="42.434602" lon="1.190872">
        <ele>1798.130</ele>
        <time>2021-06-19T13:53:19Z</time>
      </trkpt>
      <trkpt lat="42.434624" lon="1.190968">
        <ele>1798.726</ele>
        <time>2021-06-19T13:53:25Z</time>
      </trkpt>
      <trkpt lat="42.434629" lon="1.190982">
        <ele>1798.860</ele>
        <time>2021-06-19T13:53:26Z</time>
      </trkpt>
      <trkpt lat="42.434630" lon="1.190998">
        <ele>1799.094</ele>
        <time>2021-06-19T13:53:27Z</time>
      </trkpt>
      <trkpt lat="42.434638" lon="1.191063">
        <ele>1799.554</ele>
        <time>2021-06-19T13:53:31Z</time>
      </trkpt>
      <trkpt lat="42.434649" lon="1.191112">
        <ele>1799.947</ele>
        <time>2021-06-19T13:53:34Z</time>
      </trkpt>
      <trkpt lat="42.434652" lon="1.191124">
        <ele>1800.024</ele>
        <time>2021-06-19T13:53:35Z</time>
      </trkpt>
      <trkpt lat="42.434660" lon="1.191151">
        <ele>1800.318</ele>
        <time>2021-06-19T13:53:37Z</time>
      </trkpt>
      <trkpt lat="42.434674" lon="1.191219">
        <ele>1801.198</ele>
        <time>2021-06-19T13:53:42Z</time>
      </trkpt>
      <trkpt lat="42.434675" lon="1.191251">
        <ele>1801.617</ele>
        <time>2021-06-19T13:53:44Z</time>
      </trkpt>
      <trkpt lat="42.434693" lon="1.191333">
        <ele>1802.608</ele>
        <time>2021-06-19T13:53:49Z</time>
      </trkpt>
      <trkpt lat="42.434697" lon="1.191351">
        <ele>1802.978</ele>
        <time>2021-06-19T13:53:50Z</time>
      </trkpt>
      <trkpt lat="42.434720" lon="1.191457">
        <ele>1803.867</ele>
        <time>2021-06-19T13:53:56Z</time>
      </trkpt>
      <trkpt lat="42.434726" lon="1.191474">
        <ele>1803.813</ele>
        <time>2021-06-19T13:53:57Z</time>
      </trkpt>
      <trkpt lat="42.434739" lon="1.191566">
        <ele>1804.587</ele>
        <time>2021-06-19T13:54:02Z</time>
      </trkpt>
      <trkpt lat="42.434742" lon="1.191635">
        <ele>1805.241</ele>
        <time>2021-06-19T13:54:06Z</time>
      </trkpt>
      <trkpt lat="42.434738" lon="1.191696">
        <ele>1805.781</ele>
        <time>2021-06-19T13:54:11Z</time>
      </trkpt>
      <trkpt lat="42.434738" lon="1.191710">
        <ele>1805.824</ele>
        <time>2021-06-19T13:54:12Z</time>
      </trkpt>
      <trkpt lat="42.434735" lon="1.191723">
        <ele>1805.971</ele>
        <time>2021-06-19T13:54:13Z</time>
      </trkpt>
      <trkpt lat="42.434713" lon="1.191792">
        <ele>1806.763</ele>
        <time>2021-06-19T13:54:19Z</time>
      </trkpt>
      <trkpt lat="42.434701" lon="1.191819">
        <ele>1807.044</ele>
        <time>2021-06-19T13:54:21Z</time>
      </trkpt>
      <trkpt lat="42.434673" lon="1.191875">
        <ele>1807.918</ele>
        <time>2021-06-19T13:54:26Z</time>
      </trkpt>
      <trkpt lat="42.434664" lon="1.191890">
        <ele>1808.108</ele>
        <time>2021-06-19T13:54:27Z</time>
      </trkpt>
      <trkpt lat="42.434652" lon="1.191917">
        <ele>1808.473</ele>
        <time>2021-06-19T13:54:29Z</time>
      </trkpt>
      <trkpt lat="42.434616" lon="1.192022">
        <ele>1808.722</ele>
        <time>2021-06-19T13:54:35Z</time>
      </trkpt>
      <trkpt lat="42.434536" lon="1.192157">
        <ele>1809.558</ele>
        <time>2021-06-19T13:54:43Z</time>
      </trkpt>
      <trkpt lat="42.434527" lon="1.192170">
        <ele>1809.682</ele>
        <time>2021-06-19T13:54:44Z</time>
      </trkpt>
      <trkpt lat="42.434503" lon="1.192220">
        <ele>1809.866</ele>
        <time>2021-06-19T13:54:48Z</time>
      </trkpt>
      <trkpt lat="42.434503" lon="1.192224">
        <ele>1809.716</ele>
        <time>2021-06-19T13:54:49Z</time>
      </trkpt>
      <trkpt lat="42.434414" lon="1.192369">
        <ele>1810.139</ele>
        <time>2021-06-19T13:57:31Z</time>
      </trkpt>
      <trkpt lat="42.434397" lon="1.192410">
        <ele>1810.046</ele>
        <time>2021-06-19T13:57:33Z</time>
      </trkpt>
      <trkpt lat="42.434390" lon="1.192438">
        <ele>1809.866</ele>
        <time>2021-06-19T13:57:36Z</time>
      </trkpt>
      <trkpt lat="42.434313" lon="1.192560">
        <ele>1809.729</ele>
        <time>2021-06-19T14:02:46Z</time>
      </trkpt>
      <trkpt lat="42.434295" lon="1.192593">
        <ele>1809.621</ele>
        <time>2021-06-19T14:02:48Z</time>
      </trkpt>
      <trkpt lat="42.434243" lon="1.192631">
        <ele>1810.208</ele>
        <time>2021-06-19T14:02:52Z</time>
      </trkpt>
      <trkpt lat="42.434113" lon="1.192727">
        <ele>1812.253</ele>
        <time>2021-06-19T14:03:00Z</time>
      </trkpt>
      <trkpt lat="42.434025" lon="1.192858">
        <ele>1812.972</ele>
        <time>2021-06-19T14:03:07Z</time>
      </trkpt>
      <trkpt lat="42.433987" lon="1.192917">
        <ele>1813.258</ele>
        <time>2021-06-19T14:03:10Z</time>
      </trkpt>
      <trkpt lat="42.433930" lon="1.193032">
        <ele>1813.262</ele>
        <time>2021-06-19T14:03:15Z</time>
      </trkpt>
      <trkpt lat="42.433891" lon="1.193102">
        <ele>1813.396</ele>
        <time>2021-06-19T14:03:18Z</time>
      </trkpt>
      <trkpt lat="42.433817" lon="1.193215">
        <ele>1814.636</ele>
        <time>2021-06-19T14:03:23Z</time>
      </trkpt>
      <trkpt lat="42.433803" lon="1.193237">
        <ele>1814.859</ele>
        <time>2021-06-19T14:03:24Z</time>
      </trkpt>
      <trkpt lat="42.433694" lon="1.193418">
        <ele>1816.336</ele>
        <time>2021-06-19T14:03:32Z</time>
      </trkpt>
      <trkpt lat="42.433670" lon="1.193466">
        <ele>1816.657</ele>
        <time>2021-06-19T14:03:34Z</time>
      </trkpt>
      <trkpt lat="42.433601" lon="1.193614">
        <ele>1817.500</ele>
        <time>2021-06-19T14:03:40Z</time>
      </trkpt>
      <trkpt lat="42.433579" lon="1.193663">
        <ele>1818.020</ele>
        <time>2021-06-19T14:03:42Z</time>
      </trkpt>
      <trkpt lat="42.433535" lon="1.193762">
        <ele>1819.108</ele>
        <time>2021-06-19T14:03:46Z</time>
      </trkpt>
      <trkpt lat="42.433467" lon="1.193911">
        <ele>1820.432</ele>
        <time>2021-06-19T14:03:52Z</time>
      </trkpt>
      <trkpt lat="42.433390" lon="1.194086">
        <ele>1820.961</ele>
        <time>2021-06-19T14:03:59Z</time>
      </trkpt>
      <trkpt lat="42.433337" lon="1.194180">
        <ele>1821.717</ele>
        <time>2021-06-19T14:04:03Z</time>
      </trkpt>
      <trkpt lat="42.433199" lon="1.194370">
        <ele>1822.751</ele>
        <time>2021-06-19T14:04:12Z</time>
      </trkpt>
      <trkpt lat="42.433150" lon="1.194435">
        <ele>1822.595</ele>
        <time>2021-06-19T14:04:15Z</time>
      </trkpt>
      <trkpt lat="42.433032" lon="1.194580">
        <ele>1823.145</ele>
        <time>2021-06-19T14:04:22Z</time>
      </trkpt>
      <trkpt lat="42.432997" lon="1.194620">
        <ele>1823.528</ele>
        <time>2021-06-19T14:04:24Z</time>
      </trkpt>
      <trkpt lat="42.432844" lon="1.194804">
        <ele>1824.615</ele>
        <time>2021-06-19T14:04:33Z</time>
      </trkpt>
      <trkpt lat="42.432811" lon="1.194845">
        <ele>1824.963</ele>
        <time>2021-06-19T14:04:35Z</time>
      </trkpt>
      <trkpt lat="42.432732" lon="1.194950">
        <ele>1826.144</ele>
        <time>2021-06-19T14:04:40Z</time>
      </trkpt>
      <trkpt lat="42.432674" lon="1.195038">
        <ele>1827.018</ele>
        <time>2021-06-19T14:04:44Z</time>
      </trkpt>
      <trkpt lat="42.432643" lon="1.195076">
        <ele>1827.608</ele>
        <time>2021-06-19T14:04:46Z</time>
      </trkpt>
      <trkpt lat="42.432573" lon="1.195180">
        <ele>1828.493</ele>
        <time>2021-06-19T14:04:51Z</time>
      </trkpt>
      <trkpt lat="42.432546" lon="1.195223">
        <ele>1828.672</ele>
        <time>2021-06-19T14:04:53Z</time>
      </trkpt>
      <trkpt lat="42.432507" lon="1.195291">
        <ele>1828.898</ele>
        <time>2021-06-19T14:04:56Z</time>
      </trkpt>
      <trkpt lat="42.432460" lon="1.195382">
        <ele>1830.092</ele>
        <time>2021-06-19T14:05:00Z</time>
      </trkpt>
      <trkpt lat="42.432437" lon="1.195431">
        <ele>1830.556</ele>
        <time>2021-06-19T14:05:02Z</time>
      </trkpt>
      <trkpt lat="42.432376" lon="1.195541">
        <ele>1831.796</ele>
        <time>2021-06-19T14:05:07Z</time>
      </trkpt>
      <trkpt lat="42.432354" lon="1.195589">
        <ele>1831.939</ele>
        <time>2021-06-19T14:05:09Z</time>
      </trkpt>
      <trkpt lat="42.432305" lon="1.195677">
        <ele>1832.416</ele>
        <time>2021-06-19T14:05:13Z</time>
      </trkpt>
      <trkpt lat="42.432255" lon="1.195765">
        <ele>1832.929</ele>
        <time>2021-06-19T14:05:17Z</time>
      </trkpt>
      <trkpt lat="42.432242" lon="1.195787">
        <ele>1833.000</ele>
        <time>2021-06-19T14:05:18Z</time>
      </trkpt>
      <trkpt lat="42.432201" lon="1.195851">
        <ele>1833.620</ele>
        <time>2021-06-19T14:05:21Z</time>
      </trkpt>
      <trkpt lat="42.432136" lon="1.195960">
        <ele>1834.708</ele>
        <time>2021-06-19T14:05:26Z</time>
      </trkpt>
      <trkpt lat="42.432053" lon="1.196087">
        <ele>1836.149</ele>
        <time>2021-06-19T14:05:32Z</time>
      </trkpt>
      <trkpt lat="42.431995" lon="1.196169">
        <ele>1836.838</ele>
        <time>2021-06-19T14:05:36Z</time>
      </trkpt>
      <trkpt lat="42.431954" lon="1.196233">
        <ele>1837.444</ele>
        <time>2021-06-19T14:05:39Z</time>
      </trkpt>
      <trkpt lat="42.431901" lon="1.196316">
        <ele>1838.248</ele>
        <time>2021-06-19T14:05:43Z</time>
      </trkpt>
      <trkpt lat="42.431886" lon="1.196333">
        <ele>1838.542</ele>
        <time>2021-06-19T14:05:44Z</time>
      </trkpt>
      <trkpt lat="42.431806" lon="1.196448">
        <ele>1839.692</ele>
        <time>2021-06-19T14:05:50Z</time>
      </trkpt>
      <trkpt lat="42.431779" lon="1.196508">
        <ele>1839.885</ele>
        <time>2021-06-19T14:05:53Z</time>
      </trkpt>
      <trkpt lat="42.431742" lon="1.196557">
        <ele>1840.782</ele>
        <time>2021-06-19T14:05:56Z</time>
      </trkpt>
      <trkpt lat="42.431692" lon="1.196655">
        <ele>1841.925</ele>
        <time>2021-06-19T14:06:01Z</time>
      </trkpt>
      <trkpt lat="42.431683" lon="1.196675">
        <ele>1842.126</ele>
        <time>2021-06-19T14:06:02Z</time>
      </trkpt>
      <trkpt lat="42.431606" lon="1.196837">
        <ele>1843.608</ele>
        <time>2021-06-19T14:06:10Z</time>
      </trkpt>
      <trkpt lat="42.431586" lon="1.196876">
        <ele>1844.108</ele>
        <time>2021-06-19T14:06:12Z</time>
      </trkpt>
      <trkpt lat="42.431560" lon="1.196938">
        <ele>1844.739</ele>
        <time>2021-06-19T14:06:15Z</time>
      </trkpt>
      <trkpt lat="42.431493" lon="1.197047">
        <ele>1845.528</ele>
        <time>2021-06-19T14:06:21Z</time>
      </trkpt>
      <trkpt lat="42.431483" lon="1.197066">
        <ele>1845.674</ele>
        <time>2021-06-19T14:06:22Z</time>
      </trkpt>
      <trkpt lat="42.431427" lon="1.197158">
        <ele>1846.448</ele>
        <time>2021-06-19T14:06:27Z</time>
      </trkpt>
      <trkpt lat="42.431383" lon="1.197232">
        <ele>1847.122</ele>
        <time>2021-06-19T14:06:31Z</time>
      </trkpt>
      <trkpt lat="42.431371" lon="1.197251">
        <ele>1847.212</ele>
        <time>2021-06-19T14:06:32Z</time>
      </trkpt>
      <trkpt lat="42.431279" lon="1.197365">
        <ele>1849.145</ele>
        <time>2021-06-19T14:06:39Z</time>
      </trkpt>
      <trkpt lat="42.431253" lon="1.197398">
        <ele>1849.672</ele>
        <time>2021-06-19T14:06:41Z</time>
      </trkpt>
      <trkpt lat="42.431217" lon="1.197452">
        <ele>1850.112</ele>
        <time>2021-06-19T14:06:44Z</time>
      </trkpt>
      <trkpt lat="42.431164" lon="1.197547">
        <ele>1850.932</ele>
        <time>2021-06-19T14:06:49Z</time>
      </trkpt>
      <trkpt lat="42.431153" lon="1.197567">
        <ele>1851.105</ele>
        <time>2021-06-19T14:06:50Z</time>
      </trkpt>
      <trkpt lat="42.431110" lon="1.197668">
        <ele>1851.708</ele>
        <time>2021-06-19T14:06:55Z</time>
      </trkpt>
      <trkpt lat="42.431086" lon="1.197734">
        <ele>1852.278</ele>
        <time>2021-06-19T14:06:58Z</time>
      </trkpt>
      <trkpt lat="42.431065" lon="1.197802">
        <ele>1852.977</ele>
        <time>2021-06-19T14:07:01Z</time>
      </trkpt>
      <trkpt lat="42.431037" lon="1.197917">
        <ele>1854.373</ele>
        <time>2021-06-19T14:07:06Z</time>
      </trkpt>
      <trkpt lat="42.431032" lon="1.197940">
        <ele>1854.517</ele>
        <time>2021-06-19T14:07:07Z</time>
      </trkpt>
      <trkpt lat="42.431023" lon="1.197988">
        <ele>1855.081</ele>
        <time>2021-06-19T14:07:09Z</time>
      </trkpt>
      <trkpt lat="42.430994" lon="1.198127">
        <ele>1856.251</ele>
        <time>2021-06-19T14:07:15Z</time>
      </trkpt>
      <trkpt lat="42.430977" lon="1.198197">
        <ele>1856.954</ele>
        <time>2021-06-19T14:07:18Z</time>
      </trkpt>
      <trkpt lat="42.430965" lon="1.198243">
        <ele>1857.431</ele>
        <time>2021-06-19T14:07:20Z</time>
      </trkpt>
      <trkpt lat="42.430929" lon="1.198374">
        <ele>1858.651</ele>
        <time>2021-06-19T14:07:26Z</time>
      </trkpt>
      <trkpt lat="42.430924" lon="1.198397">
        <ele>1858.601</ele>
        <time>2021-06-19T14:07:27Z</time>
      </trkpt>
      <trkpt lat="42.430896" lon="1.198485">
        <ele>1858.911</ele>
        <time>2021-06-19T14:07:31Z</time>
      </trkpt>
      <trkpt lat="42.430863" lon="1.198569">
        <ele>1859.308</ele>
        <time>2021-06-19T14:07:35Z</time>
      </trkpt>
      <trkpt lat="42.430855" lon="1.198589">
        <ele>1859.452</ele>
        <time>2021-06-19T14:07:36Z</time>
      </trkpt>
      <trkpt lat="42.430818" lon="1.198667">
        <ele>1860.361</ele>
        <time>2021-06-19T14:07:40Z</time>
      </trkpt>
      <trkpt lat="42.430772" lon="1.198765">
        <ele>1861.777</ele>
        <time>2021-06-19T14:07:45Z</time>
      </trkpt>
      <trkpt lat="42.430761" lon="1.198783">
        <ele>1862.011</ele>
        <time>2021-06-19T14:07:46Z</time>
      </trkpt>
      <trkpt lat="42.430690" lon="1.198884">
        <ele>1863.855</ele>
        <time>2021-06-19T14:07:52Z</time>
      </trkpt>
      <trkpt lat="42.430658" lon="1.198941">
        <ele>1864.635</ele>
        <time>2021-06-19T14:07:55Z</time>
      </trkpt>
      <trkpt lat="42.430637" lon="1.198978">
        <ele>1865.118</ele>
        <time>2021-06-19T14:07:57Z</time>
      </trkpt>
      <trkpt lat="42.430583" lon="1.199092">
        <ele>1865.915</ele>
        <time>2021-06-19T14:08:03Z</time>
      </trkpt>
      <trkpt lat="42.430574" lon="1.199111">
        <ele>1866.077</ele>
        <time>2021-06-19T14:08:04Z</time>
      </trkpt>
      <trkpt lat="42.430545" lon="1.199192">
        <ele>1866.561</ele>
        <time>2021-06-19T14:08:08Z</time>
      </trkpt>
      <trkpt lat="42.430514" lon="1.199291">
        <ele>1867.527</ele>
        <time>2021-06-19T14:08:13Z</time>
      </trkpt>
      <trkpt lat="42.430482" lon="1.199366">
        <ele>1868.708</ele>
        <time>2021-06-19T14:08:17Z</time>
      </trkpt>
      <trkpt lat="42.430473" lon="1.199409">
        <ele>1868.874</ele>
        <time>2021-06-19T14:08:19Z</time>
      </trkpt>
      <trkpt lat="42.430461" lon="1.199451">
        <ele>1869.153</ele>
        <time>2021-06-19T14:08:21Z</time>
      </trkpt>
      <trkpt lat="42.430441" lon="1.199535">
        <ele>1870.149</ele>
        <time>2021-06-19T14:08:25Z</time>
      </trkpt>
      <trkpt lat="42.430429" lon="1.199598">
        <ele>1870.643</ele>
        <time>2021-06-19T14:08:28Z</time>
      </trkpt>
      <trkpt lat="42.430426" lon="1.199618">
        <ele>1870.777</ele>
        <time>2021-06-19T14:08:29Z</time>
      </trkpt>
      <trkpt lat="42.430407" lon="1.199679">
        <ele>1871.557</ele>
        <time>2021-06-19T14:08:32Z</time>
      </trkpt>
      <trkpt lat="42.430387" lon="1.199761">
        <ele>1872.470</ele>
        <time>2021-06-19T14:08:36Z</time>
      </trkpt>
      <trkpt lat="42.430383" lon="1.199781">
        <ele>1872.667</ele>
        <time>2021-06-19T14:08:37Z</time>
      </trkpt>
      <trkpt lat="42.430377" lon="1.199845">
        <ele>1873.094</ele>
        <time>2021-06-19T14:08:40Z</time>
      </trkpt>
      <trkpt lat="42.430366" lon="1.199928">
        <ele>1873.757</ele>
        <time>2021-06-19T14:08:44Z</time>
      </trkpt>
      <trkpt lat="42.430353" lon="1.199990">
        <ele>1874.522</ele>
        <time>2021-06-19T14:08:47Z</time>
      </trkpt>
      <trkpt lat="42.430350" lon="1.200033">
        <ele>1874.808</ele>
        <time>2021-06-19T14:08:49Z</time>
      </trkpt>
      <trkpt lat="42.430340" lon="1.200116">
        <ele>1875.676</ele>
        <time>2021-06-19T14:08:53Z</time>
      </trkpt>
      <trkpt lat="42.430338" lon="1.200155">
        <ele>1875.935</ele>
        <time>2021-06-19T14:08:55Z</time>
      </trkpt>
      <trkpt lat="42.430331" lon="1.200197">
        <ele>1876.581</ele>
        <time>2021-06-19T14:08:57Z</time>
      </trkpt>
      <trkpt lat="42.430309" lon="1.200273">
        <ele>1878.255</ele>
        <time>2021-06-19T14:09:01Z</time>
      </trkpt>
      <trkpt lat="42.430305" lon="1.200314">
        <ele>1878.369</ele>
        <time>2021-06-19T14:09:03Z</time>
      </trkpt>
      <trkpt lat="42.430295" lon="1.200379">
        <ele>1878.659</ele>
        <time>2021-06-19T14:09:06Z</time>
      </trkpt>
      <trkpt lat="42.430270" lon="1.200482">
        <ele>1879.742</ele>
        <time>2021-06-19T14:09:11Z</time>
      </trkpt>
      <trkpt lat="42.430237" lon="1.200582">
        <ele>1881.229</ele>
        <time>2021-06-19T14:09:16Z</time>
      </trkpt>
      <trkpt lat="42.430217" lon="1.200642">
        <ele>1881.985</ele>
        <time>2021-06-19T14:09:19Z</time>
      </trkpt>
      <trkpt lat="42.430193" lon="1.200699">
        <ele>1882.889</ele>
        <time>2021-06-19T14:09:22Z</time>
      </trkpt>
      <trkpt lat="42.430160" lon="1.200795">
        <ele>1884.117</ele>
        <time>2021-06-19T14:09:27Z</time>
      </trkpt>
      <trkpt lat="42.430128" lon="1.200936">
        <ele>1885.308</ele>
        <time>2021-06-19T14:09:34Z</time>
      </trkpt>
      <trkpt lat="42.430122" lon="1.200953">
        <ele>1885.615</ele>
        <time>2021-06-19T14:09:35Z</time>
      </trkpt>
      <trkpt lat="42.430111" lon="1.201055">
        <ele>1886.044</ele>
        <time>2021-06-19T14:09:40Z</time>
      </trkpt>
      <trkpt lat="42.430101" lon="1.201152">
        <ele>1886.250</ele>
        <time>2021-06-19T14:09:45Z</time>
      </trkpt>
      <trkpt lat="42.430092" lon="1.201191">
        <ele>1886.694</ele>
        <time>2021-06-19T14:09:47Z</time>
      </trkpt>
      <trkpt lat="42.430072" lon="1.201248">
        <ele>1887.698</ele>
        <time>2021-06-19T14:09:50Z</time>
      </trkpt>
      <trkpt lat="42.430050" lon="1.201329">
        <ele>1888.768</ele>
        <time>2021-06-19T14:09:54Z</time>
      </trkpt>
      <trkpt lat="42.430049" lon="1.201351">
        <ele>1888.731</ele>
        <time>2021-06-19T14:09:55Z</time>
      </trkpt>
      <trkpt lat="42.430039" lon="1.201413">
        <ele>1888.958</ele>
        <time>2021-06-19T14:09:58Z</time>
      </trkpt>
      <trkpt lat="42.430019" lon="1.201445">
        <ele>1890.055</ele>
        <time>2021-06-19T14:10:00Z</time>
      </trkpt>
      <trkpt lat="42.429989" lon="1.201569">
        <ele>1890.807</ele>
        <time>2021-06-19T14:10:06Z</time>
      </trkpt>
      <trkpt lat="42.429985" lon="1.201589">
        <ele>1890.817</ele>
        <time>2021-06-19T14:10:07Z</time>
      </trkpt>
      <trkpt lat="42.429936" lon="1.201701">
        <ele>1892.108</ele>
        <time>2021-06-19T14:10:13Z</time>
      </trkpt>
      <trkpt lat="42.429927" lon="1.201719">
        <ele>1892.152</ele>
        <time>2021-06-19T14:10:14Z</time>
      </trkpt>
      <trkpt lat="42.429879" lon="1.201807">
        <ele>1892.971</ele>
        <time>2021-06-19T14:10:19Z</time>
      </trkpt>
      <trkpt lat="42.429835" lon="1.201898">
        <ele>1893.397</ele>
        <time>2021-06-19T14:10:24Z</time>
      </trkpt>
      <trkpt lat="42.429825" lon="1.201915">
        <ele>1893.541</ele>
        <time>2021-06-19T14:10:25Z</time>
      </trkpt>
      <trkpt lat="42.429769" lon="1.201990">
        <ele>1894.935</ele>
        <time>2021-06-19T14:10:30Z</time>
      </trkpt>
      <trkpt lat="42.429759" lon="1.202007">
        <ele>1895.125</ele>
        <time>2021-06-19T14:10:31Z</time>
      </trkpt>
      <trkpt lat="42.429697" lon="1.202081">
        <ele>1896.398</ele>
        <time>2021-06-19T14:10:36Z</time>
      </trkpt>
      <trkpt lat="42.429653" lon="1.202115">
        <ele>1896.675</ele>
        <time>2021-06-19T14:10:39Z</time>
      </trkpt>
      <trkpt lat="42.429606" lon="1.202142">
        <ele>1897.287</ele>
        <time>2021-06-19T14:10:42Z</time>
      </trkpt>
      <trkpt lat="42.429526" lon="1.202158">
        <ele>1898.942</ele>
        <time>2021-06-19T14:10:47Z</time>
      </trkpt>
      <trkpt lat="42.429491" lon="1.202158">
        <ele>1899.826</ele>
        <time>2021-06-19T14:10:49Z</time>
      </trkpt>
      <trkpt lat="42.429392" lon="1.202166">
        <ele>1901.508</ele>
        <time>2021-06-19T14:10:55Z</time>
      </trkpt>
      <trkpt lat="42.429376" lon="1.202175">
        <ele>1901.455</ele>
        <time>2021-06-19T14:10:56Z</time>
      </trkpt>
      <trkpt lat="42.429266" lon="1.202247">
        <ele>1901.564</ele>
        <time>2021-06-19T14:11:03Z</time>
      </trkpt>
      <trkpt lat="42.429241" lon="1.202279">
        <ele>1902.090</ele>
        <time>2021-06-19T14:11:05Z</time>
      </trkpt>
      <trkpt lat="42.429204" lon="1.202386">
        <ele>1903.474</ele>
        <time>2021-06-19T14:11:10Z</time>
      </trkpt>
      <trkpt lat="42.429189" lon="1.202522">
        <ele>1905.398</ele>
        <time>2021-06-19T14:11:16Z</time>
      </trkpt>
      <trkpt lat="42.429187" lon="1.202545">
        <ele>1905.848</ele>
        <time>2021-06-19T14:11:17Z</time>
      </trkpt>
      <trkpt lat="42.429188" lon="1.202591">
        <ele>1906.661</ele>
        <time>2021-06-19T14:11:19Z</time>
      </trkpt>
      <trkpt lat="42.429209" lon="1.202724">
        <ele>1908.168</ele>
        <time>2021-06-19T14:11:25Z</time>
      </trkpt>
      <trkpt lat="42.429248" lon="1.202903">
        <ele>1909.532</ele>
        <time>2021-06-19T14:11:33Z</time>
      </trkpt>
      <trkpt lat="42.429254" lon="1.202924">
        <ele>1909.592</ele>
        <time>2021-06-19T14:11:34Z</time>
      </trkpt>
      <trkpt lat="42.429297" lon="1.203076">
        <ele>1909.611</ele>
        <time>2021-06-19T14:11:41Z</time>
      </trkpt>
      <trkpt lat="42.429299" lon="1.203099">
        <ele>1909.708</ele>
        <time>2021-06-19T14:11:42Z</time>
      </trkpt>
      <trkpt lat="42.429305" lon="1.203218">
        <ele>1910.240</ele>
        <time>2021-06-19T14:11:47Z</time>
      </trkpt>
      <trkpt lat="42.429311" lon="1.203335">
        <ele>1910.769</ele>
        <time>2021-06-19T14:11:52Z</time>
      </trkpt>
      <trkpt lat="42.429301" lon="1.203429">
        <ele>1911.865</ele>
        <time>2021-06-19T14:11:56Z</time>
      </trkpt>
      <trkpt lat="42.429293" lon="1.203569">
        <ele>1913.059</ele>
        <time>2021-06-19T14:12:02Z</time>
      </trkpt>
      <trkpt lat="42.429285" lon="1.203639">
        <ele>1913.723</ele>
        <time>2021-06-19T14:12:05Z</time>
      </trkpt>
      <trkpt lat="42.429277" lon="1.203758">
        <ele>1913.793</ele>
        <time>2021-06-19T14:12:10Z</time>
      </trkpt>
      <trkpt lat="42.429256" lon="1.203825">
        <ele>1914.836</ele>
        <time>2021-06-19T14:12:13Z</time>
      </trkpt>
      <trkpt lat="42.429229" lon="1.203917">
        <ele>1915.693</ele>
        <time>2021-06-19T14:12:17Z</time>
      </trkpt>
      <trkpt lat="42.429194" lon="1.204002">
        <ele>1916.031</ele>
        <time>2021-06-19T14:12:21Z</time>
      </trkpt>
      <trkpt lat="42.429167" lon="1.204064">
        <ele>1916.261</ele>
        <time>2021-06-19T14:12:24Z</time>
      </trkpt>
      <trkpt lat="42.429097" lon="1.204174">
        <ele>1917.307</ele>
        <time>2021-06-19T14:12:30Z</time>
      </trkpt>
      <trkpt lat="42.429072" lon="1.204208">
        <ele>1917.608</ele>
        <time>2021-06-19T14:12:32Z</time>
      </trkpt>
      <trkpt lat="42.428986" lon="1.204319">
        <ele>1918.640</ele>
        <time>2021-06-19T14:12:39Z</time>
      </trkpt>
      <trkpt lat="42.428974" lon="1.204336">
        <ele>1918.699</ele>
        <time>2021-06-19T14:12:40Z</time>
      </trkpt>
      <trkpt lat="42.428883" lon="1.204450">
        <ele>1919.135</ele>
        <time>2021-06-19T14:12:47Z</time>
      </trkpt>
      <trkpt lat="42.428822" lon="1.204496">
        <ele>1920.529</ele>
        <time>2021-06-19T14:12:51Z</time>
      </trkpt>
      <trkpt lat="42.428780" lon="1.204538">
        <ele>1921.263</ele>
        <time>2021-06-19T14:12:54Z</time>
      </trkpt>
      <trkpt lat="42.428711" lon="1.204611">
        <ele>1922.113</ele>
        <time>2021-06-19T14:12:59Z</time>
      </trkpt>
      <trkpt lat="42.428611" lon="1.204708">
        <ele>1923.456</ele>
        <time>2021-06-19T14:13:06Z</time>
      </trkpt>
      <trkpt lat="42.428582" lon="1.204735">
        <ele>1923.743</ele>
        <time>2021-06-19T14:13:08Z</time>
      </trkpt>
      <trkpt lat="42.428534" lon="1.204766">
        <ele>1924.623</ele>
        <time>2021-06-19T14:13:11Z</time>
      </trkpt>
      <trkpt lat="42.428460" lon="1.204830">
        <ele>1925.583</ele>
        <time>2021-06-19T14:13:16Z</time>
      </trkpt>
      <trkpt lat="42.428430" lon="1.204853">
        <ele>1925.911</ele>
        <time>2021-06-19T14:13:18Z</time>
      </trkpt>
      <trkpt lat="42.428355" lon="1.204916">
        <ele>1926.908</ele>
        <time>2021-06-19T14:13:23Z</time>
      </trkpt>
      <trkpt lat="42.428278" lon="1.205014">
        <ele>1926.659</ele>
        <time>2021-06-19T14:13:29Z</time>
      </trkpt>
      <trkpt lat="42.428253" lon="1.205081">
        <ele>1927.398</ele>
        <time>2021-06-19T14:13:35Z</time>
      </trkpt>
      <trkpt lat="42.428256" lon="1.205156">
        <ele>1927.284</ele>
        <time>2021-06-19T14:14:23Z</time>
      </trkpt>
      <trkpt lat="42.428256" lon="1.205202">
        <ele>1927.148</ele>
        <time>2021-06-19T14:14:25Z</time>
      </trkpt>
      <trkpt lat="42.428309" lon="1.205417">
        <ele>1930.572</ele>
        <time>2021-06-19T14:14:35Z</time>
      </trkpt>
      <trkpt lat="42.428320" lon="1.205436">
        <ele>1930.892</ele>
        <time>2021-06-19T14:14:36Z</time>
      </trkpt>
      <trkpt lat="42.428395" lon="1.205534">
        <ele>1932.795</ele>
        <time>2021-06-19T14:14:42Z</time>
      </trkpt>
      <trkpt lat="42.428440" lon="1.205573">
        <ele>1933.372</ele>
        <time>2021-06-19T14:14:45Z</time>
      </trkpt>
      <trkpt lat="42.428502" lon="1.205619">
        <ele>1933.857</ele>
        <time>2021-06-19T14:14:49Z</time>
      </trkpt>
      <trkpt lat="42.428599" lon="1.205671">
        <ele>1934.000</ele>
        <time>2021-06-19T14:14:55Z</time>
      </trkpt>
      <trkpt lat="42.428631" lon="1.205691">
        <ele>1934.220</ele>
        <time>2021-06-19T14:14:57Z</time>
      </trkpt>
      <trkpt lat="42.428704" lon="1.205758">
        <ele>1935.208</ele>
        <time>2021-06-19T14:15:02Z</time>
      </trkpt>
      <trkpt lat="42.428712" lon="1.205778">
        <ele>1935.662</ele>
        <time>2021-06-19T14:15:03Z</time>
      </trkpt>
      <trkpt lat="42.428721" lon="1.205799">
        <ele>1936.061</ele>
        <time>2021-06-19T14:15:04Z</time>
      </trkpt>
      <trkpt lat="42.428772" lon="1.205864">
        <ele>1936.697</ele>
        <time>2021-06-19T14:15:08Z</time>
      </trkpt>
      <trkpt lat="42.428784" lon="1.205882">
        <ele>1936.771</ele>
        <time>2021-06-19T14:15:09Z</time>
      </trkpt>
      <trkpt lat="42.428829" lon="1.206010">
        <ele>1937.755</ele>
        <time>2021-06-19T14:15:15Z</time>
      </trkpt>
      <trkpt lat="42.428844" lon="1.206077">
        <ele>1938.355</ele>
        <time>2021-06-19T14:15:18Z</time>
      </trkpt>
      <trkpt lat="42.428854" lon="1.206169">
        <ele>1939.038</ele>
        <time>2021-06-19T14:15:22Z</time>
      </trkpt>
      <trkpt lat="42.428850" lon="1.206263">
        <ele>1939.855</ele>
        <time>2021-06-19T14:15:26Z</time>
      </trkpt>
      <trkpt lat="42.428848" lon="1.206312">
        <ele>1940.296</ele>
        <time>2021-06-19T14:15:28Z</time>
      </trkpt>
      <trkpt lat="42.428838" lon="1.206455">
        <ele>1941.531</ele>
        <time>2021-06-19T14:15:34Z</time>
      </trkpt>
      <trkpt lat="42.428836" lon="1.206479">
        <ele>1941.724</ele>
        <time>2021-06-19T14:15:35Z</time>
      </trkpt>
      <trkpt lat="42.428814" lon="1.206594">
        <ele>1942.908</ele>
        <time>2021-06-19T14:15:40Z</time>
      </trkpt>
      <trkpt lat="42.428788" lon="1.206708">
        <ele>1943.636</ele>
        <time>2021-06-19T14:15:45Z</time>
      </trkpt>
      <trkpt lat="42.428782" lon="1.206731">
        <ele>1943.515</ele>
        <time>2021-06-19T14:15:46Z</time>
      </trkpt>
      <trkpt lat="42.428714" lon="1.206899">
        <ele>1944.071</ele>
        <time>2021-06-19T14:15:54Z</time>
      </trkpt>
      <trkpt lat="42.428670" lon="1.207029">
        <ele>1944.115</ele>
        <time>2021-06-19T14:16:00Z</time>
      </trkpt>
      <trkpt lat="42.428647" lon="1.207092">
        <ele>1944.229</ele>
        <time>2021-06-19T14:16:03Z</time>
      </trkpt>
      <trkpt lat="42.428607" lon="1.207198">
        <ele>1944.319</ele>
        <time>2021-06-19T14:16:08Z</time>
      </trkpt>
      <trkpt lat="42.428549" lon="1.207311">
        <ele>1945.182</ele>
        <time>2021-06-19T14:16:14Z</time>
      </trkpt>
      <trkpt lat="42.428510" lon="1.207414">
        <ele>1945.439</ele>
        <time>2021-06-19T14:16:19Z</time>
      </trkpt>
      <trkpt lat="42.428458" lon="1.207506">
        <ele>1945.878</ele>
        <time>2021-06-19T14:16:24Z</time>
      </trkpt>
      <trkpt lat="42.428432" lon="1.207566">
        <ele>1946.233</ele>
        <time>2021-06-19T14:16:27Z</time>
      </trkpt>
      <trkpt lat="42.428371" lon="1.207679">
        <ele>1947.326</ele>
        <time>2021-06-19T14:16:33Z</time>
      </trkpt>
      <trkpt lat="42.428361" lon="1.207698">
        <ele>1947.508</ele>
        <time>2021-06-19T14:16:34Z</time>
      </trkpt>
      <trkpt lat="42.428273" lon="1.207844">
        <ele>1949.694</ele>
        <time>2021-06-19T14:16:42Z</time>
      </trkpt>
      <trkpt lat="42.428241" lon="1.207899">
        <ele>1950.443</ele>
        <time>2021-06-19T14:16:45Z</time>
      </trkpt>
      <trkpt lat="42.428189" lon="1.207994">
        <ele>1951.339</ele>
        <time>2021-06-19T14:16:50Z</time>
      </trkpt>
      <trkpt lat="42.428170" lon="1.208034">
        <ele>1951.633</ele>
        <time>2021-06-19T14:16:52Z</time>
      </trkpt>
      <trkpt lat="42.428136" lon="1.208114">
        <ele>1952.157</ele>
        <time>2021-06-19T14:16:56Z</time>
      </trkpt>
      <trkpt lat="42.428130" lon="1.208135">
        <ele>1952.277</ele>
        <time>2021-06-19T14:16:57Z</time>
      </trkpt>
      <trkpt lat="42.428093" lon="1.208240">
        <ele>1953.090</ele>
        <time>2021-06-19T14:17:02Z</time>
      </trkpt>
      <trkpt lat="42.428077" lon="1.208282">
        <ele>1953.467</ele>
        <time>2021-06-19T14:17:04Z</time>
      </trkpt>
      <trkpt lat="42.428055" lon="1.208347">
        <ele>1954.087</ele>
        <time>2021-06-19T14:17:07Z</time>
      </trkpt>
      <trkpt lat="42.428021" lon="1.208429">
        <ele>1955.142</ele>
        <time>2021-06-19T14:17:11Z</time>
      </trkpt>
      <trkpt lat="42.427985" lon="1.208534">
        <ele>1956.026</ele>
        <time>2021-06-19T14:17:16Z</time>
      </trkpt>
      <trkpt lat="42.427932" lon="1.208684">
        <ele>1957.008</ele>
        <time>2021-06-19T14:17:23Z</time>
      </trkpt>
      <trkpt lat="42.427912" lon="1.208750">
        <ele>1957.215</ele>
        <time>2021-06-19T14:17:26Z</time>
      </trkpt>
      <trkpt lat="42.427888" lon="1.208810">
        <ele>1957.514</ele>
        <time>2021-06-19T14:17:29Z</time>
      </trkpt>
      <trkpt lat="42.427827" lon="1.208947">
        <ele>1958.070</ele>
        <time>2021-06-19T14:17:36Z</time>
      </trkpt>
      <trkpt lat="42.427817" lon="1.208965">
        <ele>1958.274</ele>
        <time>2021-06-19T14:17:37Z</time>
      </trkpt>
      <trkpt lat="42.427773" lon="1.209062">
        <ele>1958.998</ele>
        <time>2021-06-19T14:17:42Z</time>
      </trkpt>
      <trkpt lat="42.427755" lon="1.209101">
        <ele>1959.118</ele>
        <time>2021-06-19T14:17:44Z</time>
      </trkpt>
      <trkpt lat="42.427697" lon="1.209185">
        <ele>1959.761</ele>
        <time>2021-06-19T14:17:49Z</time>
      </trkpt>
      <trkpt lat="42.427673" lon="1.209218">
        <ele>1959.668</ele>
        <time>2021-06-19T14:17:51Z</time>
      </trkpt>
      <trkpt lat="42.427629" lon="1.209290">
        <ele>1959.642</ele>
        <time>2021-06-19T14:17:55Z</time>
      </trkpt>
      <trkpt lat="42.427609" lon="1.209327">
        <ele>1959.622</ele>
        <time>2021-06-19T14:17:57Z</time>
      </trkpt>
      <trkpt lat="42.427599" lon="1.209344">
        <ele>1959.714</ele>
        <time>2021-06-19T14:17:58Z</time>
      </trkpt>
      <trkpt lat="42.427530" lon="1.209452">
        <ele>1960.708</ele>
        <time>2021-06-19T14:18:04Z</time>
      </trkpt>
      <trkpt lat="42.427458" lon="1.209554">
        <ele>1962.111</ele>
        <time>2021-06-19T14:18:10Z</time>
      </trkpt>
      <trkpt lat="42.427448" lon="1.209573">
        <ele>1962.220</ele>
        <time>2021-06-19T14:18:11Z</time>
      </trkpt>
      <trkpt lat="42.427400" lon="1.209670">
        <ele>1962.726</ele>
        <time>2021-06-19T14:18:16Z</time>
      </trkpt>
      <trkpt lat="42.427337" lon="1.209787">
        <ele>1963.590</ele>
        <time>2021-06-19T14:18:22Z</time>
      </trkpt>
      <trkpt lat="42.427327" lon="1.209807">
        <ele>1963.684</ele>
        <time>2021-06-19T14:18:23Z</time>
      </trkpt>
      <trkpt lat="42.427285" lon="1.209888">
        <ele>1964.354</ele>
        <time>2021-06-19T14:18:27Z</time>
      </trkpt>
      <trkpt lat="42.427236" lon="1.209992">
        <ele>1965.437</ele>
        <time>2021-06-19T14:18:32Z</time>
      </trkpt>
      <trkpt lat="42.427206" lon="1.210057">
        <ele>1965.744</ele>
        <time>2021-06-19T14:18:35Z</time>
      </trkpt>
      <trkpt lat="42.427141" lon="1.210200">
        <ele>1965.957</ele>
        <time>2021-06-19T14:18:41Z</time>
      </trkpt>
      <trkpt lat="42.427117" lon="1.210249">
        <ele>1966.100</ele>
        <time>2021-06-19T14:18:43Z</time>
      </trkpt>
      <trkpt lat="42.426995" lon="1.210545">
        <ele>1966.420</ele>
        <time>2021-06-19T14:18:54Z</time>
      </trkpt>
      <trkpt lat="42.426932" lon="1.210824">
        <ele>1965.708</ele>
        <time>2021-06-19T14:19:03Z</time>
      </trkpt>
      <trkpt lat="42.426937" lon="1.211038">
        <ele>1967.592</ele>
        <time>2021-06-19T14:19:10Z</time>
      </trkpt>
      <trkpt lat="42.426979" lon="1.211075">
        <ele>1967.681</ele>
        <time>2021-06-19T14:19:12Z</time>
      </trkpt>
      <trkpt lat="42.427058" lon="1.211102">
        <ele>1967.927</ele>
        <time>2021-06-19T14:19:15Z</time>
      </trkpt>
      <trkpt lat="42.427217" lon="1.211059">
        <ele>1966.921</ele>
        <time>2021-06-19T14:19:21Z</time>
      </trkpt>
      <trkpt lat="42.427416" lon="1.210989">
        <ele>1968.475</ele>
        <time>2021-06-19T14:19:29Z</time>
      </trkpt>
      <trkpt lat="42.427468" lon="1.210973">
        <ele>1969.055</ele>
        <time>2021-06-19T14:19:31Z</time>
      </trkpt>
      <trkpt lat="42.427569" lon="1.210926">
        <ele>1969.898</ele>
        <time>2021-06-19T14:19:35Z</time>
      </trkpt>
      <trkpt lat="42.427761" lon="1.210839">
        <ele>1970.025</ele>
        <time>2021-06-19T14:19:42Z</time>
      </trkpt>
      <trkpt lat="42.427791" lon="1.210828">
        <ele>1969.944</ele>
        <time>2021-06-19T14:19:43Z</time>
      </trkpt>
      <trkpt lat="42.428013" lon="1.210792">
        <ele>1969.705</ele>
        <time>2021-06-19T14:19:50Z</time>
      </trkpt>
      <trkpt lat="42.428172" lon="1.210897">
        <ele>1970.215</ele>
        <time>2021-06-19T14:19:55Z</time>
      </trkpt>
      <trkpt lat="42.428307" lon="1.211036">
        <ele>1969.908</ele>
        <time>2021-06-19T14:20:00Z</time>
      </trkpt>
      <trkpt lat="42.428391" lon="1.211126">
        <ele>1969.331</ele>
        <time>2021-06-19T14:20:03Z</time>
      </trkpt>
      <trkpt lat="42.428625" lon="1.211354">
        <ele>1969.070</ele>
        <time>2021-06-19T14:20:11Z</time>
      </trkpt>
      <trkpt lat="42.428776" lon="1.211449">
        <ele>1966.486</ele>
        <time>2021-06-19T14:20:17Z</time>
      </trkpt>
      <trkpt lat="42.428809" lon="1.211464">
        <ele>1965.930</ele>
        <time>2021-06-19T14:20:21Z</time>
      </trkpt>
      <trkpt lat="42.428820" lon="1.211480">
        <ele>1966.054</ele>
        <time>2021-06-19T14:23:30Z</time>
      </trkpt>
      <trkpt lat="42.428822" lon="1.211514">
        <ele>1966.684</ele>
        <time>2021-06-19T14:23:32Z</time>
      </trkpt>
      <trkpt lat="42.428811" lon="1.211580">
        <ele>1968.347</ele>
        <time>2021-06-19T14:23:37Z</time>
      </trkpt>
      <trkpt lat="42.428816" lon="1.211596">
        <ele>1968.514</ele>
        <time>2021-06-19T14:23:38Z</time>
      </trkpt>
      <trkpt lat="42.428824" lon="1.211673">
        <ele>1969.972</ele>
        <time>2021-06-19T14:23:41Z</time>
      </trkpt>
      <trkpt lat="42.428823" lon="1.211759">
        <ele>1970.113</ele>
        <time>2021-06-19T14:23:44Z</time>
      </trkpt>
      <trkpt lat="42.428802" lon="1.212033">
        <ele>1970.114</ele>
        <time>2021-06-19T14:23:53Z</time>
      </trkpt>
      <trkpt lat="42.428720" lon="1.212229">
        <ele>1970.008</ele>
        <time>2021-06-19T14:24:00Z</time>
      </trkpt>
      <trkpt lat="42.428625" lon="1.212405">
        <ele>1970.524</ele>
        <time>2021-06-19T14:24:07Z</time>
      </trkpt>
      <trkpt lat="42.428473" lon="1.212517">
        <ele>1971.893</ele>
        <time>2021-06-19T14:24:15Z</time>
      </trkpt>
      <trkpt lat="42.428453" lon="1.212526">
        <ele>1972.049</ele>
        <time>2021-06-19T14:24:16Z</time>
      </trkpt>
      <trkpt lat="42.428366" lon="1.212531">
        <ele>1973.253</ele>
        <time>2021-06-19T14:24:21Z</time>
      </trkpt>
      <trkpt lat="42.428357" lon="1.212525">
        <ele>1973.487</ele>
        <time>2021-06-19T14:24:23Z</time>
      </trkpt>
      <trkpt lat="42.428326" lon="1.212522">
        <ele>1973.827</ele>
        <time>2021-06-19T14:27:16Z</time>
      </trkpt>
      <trkpt lat="42.428316" lon="1.212512">
        <ele>1974.140</ele>
        <time>2021-06-19T14:27:17Z</time>
      </trkpt>
      <trkpt lat="42.428218" lon="1.212430">
        <ele>1975.817</ele>
        <time>2021-06-19T14:27:25Z</time>
      </trkpt>
      <trkpt lat="42.428109" lon="1.212398">
        <ele>1977.267</ele>
        <time>2021-06-19T14:27:32Z</time>
      </trkpt>
      <trkpt lat="42.428094" lon="1.212394">
        <ele>1977.381</ele>
        <time>2021-06-19T14:27:33Z</time>
      </trkpt>
      <trkpt lat="42.427963" lon="1.212359">
        <ele>1978.019</ele>
        <time>2021-06-19T14:27:41Z</time>
      </trkpt>
      <trkpt lat="42.427880" lon="1.212263">
        <ele>1978.708</ele>
        <time>2021-06-19T14:27:46Z</time>
      </trkpt>
      <trkpt lat="42.427869" lon="1.212244">
        <ele>1978.813</ele>
        <time>2021-06-19T14:27:47Z</time>
      </trkpt>
      <trkpt lat="42.427824" lon="1.212120">
        <ele>1979.472</ele>
        <time>2021-06-19T14:27:54Z</time>
      </trkpt>
      <trkpt lat="42.427820" lon="1.212101">
        <ele>1979.438</ele>
        <time>2021-06-19T14:27:55Z</time>
      </trkpt>
      <trkpt lat="42.427756" lon="1.211986">
        <ele>1980.112</ele>
        <time>2021-06-19T14:28:02Z</time>
      </trkpt>
      <trkpt lat="42.427667" lon="1.211880">
        <ele>1981.296</ele>
        <time>2021-06-19T14:28:10Z</time>
      </trkpt>
      <trkpt lat="42.427640" lon="1.211863">
        <ele>1981.576</ele>
        <time>2021-06-19T14:28:12Z</time>
      </trkpt>
      <trkpt lat="42.427558" lon="1.211863">
        <ele>1982.269</ele>
        <time>2021-06-19T14:28:18Z</time>
      </trkpt>
      <trkpt lat="42.427521" lon="1.211895">
        <ele>1982.626</ele>
        <time>2021-06-19T14:28:21Z</time>
      </trkpt>
      <trkpt lat="42.427476" lon="1.211960">
        <ele>1983.089</ele>
        <time>2021-06-19T14:28:25Z</time>
      </trkpt>
      <trkpt lat="42.427445" lon="1.212012">
        <ele>1983.006</ele>
        <time>2021-06-19T14:28:28Z</time>
      </trkpt>
      <trkpt lat="42.427421" lon="1.212077">
        <ele>1982.926</ele>
        <time>2021-06-19T14:28:31Z</time>
      </trkpt>
      <trkpt lat="42.427354" lon="1.212254">
        <ele>1982.908</ele>
        <time>2021-06-19T14:28:39Z</time>
      </trkpt>
      <trkpt lat="42.427266" lon="1.212466">
        <ele>1982.865</ele>
        <time>2021-06-19T14:28:47Z</time>
      </trkpt>
      <trkpt lat="42.427178" lon="1.212693">
        <ele>1982.684</ele>
        <time>2021-06-19T14:28:53Z</time>
      </trkpt>
      <trkpt lat="42.427105" lon="1.212831">
        <ele>1983.050</ele>
        <time>2021-06-19T14:28:58Z</time>
      </trkpt>
      <trkpt lat="42.427092" lon="1.212855">
        <ele>1983.234</ele>
        <time>2021-06-19T14:28:59Z</time>
      </trkpt>
      <trkpt lat="42.427032" lon="1.213039">
        <ele>1984.388</ele>
        <time>2021-06-19T14:29:07Z</time>
      </trkpt>
      <trkpt lat="42.427009" lon="1.213098">
        <ele>1984.858</ele>
        <time>2021-06-19T14:29:10Z</time>
      </trkpt>
      <trkpt lat="42.426949" lon="1.213213">
        <ele>1986.141</ele>
        <time>2021-06-19T14:29:17Z</time>
      </trkpt>
      <trkpt lat="42.426943" lon="1.213228">
        <ele>1986.248</ele>
        <time>2021-06-19T14:29:18Z</time>
      </trkpt>
      <trkpt lat="42.426923" lon="1.213276">
        <ele>1986.516</ele>
        <time>2021-06-19T14:29:21Z</time>
      </trkpt>
      <trkpt lat="42.426909" lon="1.213307">
        <ele>1986.876</ele>
        <time>2021-06-19T14:29:23Z</time>
      </trkpt>
      <trkpt lat="42.426888" lon="1.213394">
        <ele>1987.513</ele>
        <time>2021-06-19T14:29:28Z</time>
      </trkpt>
      <trkpt lat="42.426878" lon="1.213427">
        <ele>1987.808</ele>
        <time>2021-06-19T14:29:30Z</time>
      </trkpt>
      <trkpt lat="42.426860" lon="1.213480">
        <ele>1988.428</ele>
        <time>2021-06-19T14:29:33Z</time>
      </trkpt>
      <trkpt lat="42.426831" lon="1.213567">
        <ele>1989.487</ele>
        <time>2021-06-19T14:29:38Z</time>
      </trkpt>
      <trkpt lat="42.426827" lon="1.213586">
        <ele>1989.683</ele>
        <time>2021-06-19T14:29:39Z</time>
      </trkpt>
      <trkpt lat="42.426791" lon="1.213715">
        <ele>1990.717</ele>
        <time>2021-06-19T14:29:46Z</time>
      </trkpt>
      <trkpt lat="42.426757" lon="1.213792">
        <ele>1991.421</ele>
        <time>2021-06-19T14:29:51Z</time>
      </trkpt>
      <trkpt lat="42.426744" lon="1.213828">
        <ele>1991.871</ele>
        <time>2021-06-19T14:29:53Z</time>
      </trkpt>
      <trkpt lat="42.426693" lon="1.213922">
        <ele>1992.944</ele>
        <time>2021-06-19T14:29:59Z</time>
      </trkpt>
      <trkpt lat="42.426670" lon="1.213940">
        <ele>1993.341</ele>
        <time>2021-06-19T14:30:01Z</time>
      </trkpt>
      <trkpt lat="42.426617" lon="1.213995">
        <ele>1994.017</ele>
        <time>2021-06-19T14:30:06Z</time>
      </trkpt>
      <trkpt lat="42.426594" lon="1.214016">
        <ele>1994.387</ele>
        <time>2021-06-19T14:30:08Z</time>
      </trkpt>
      <trkpt lat="42.426512" lon="1.214080">
        <ele>1995.315</ele>
        <time>2021-06-19T14:30:15Z</time>
      </trkpt>
      <trkpt lat="42.426501" lon="1.214091">
        <ele>1995.508</ele>
        <time>2021-06-19T14:30:16Z</time>
      </trkpt>
      <trkpt lat="42.426423" lon="1.214172">
        <ele>1996.898</ele>
        <time>2021-06-19T14:30:23Z</time>
      </trkpt>
      <trkpt lat="42.426400" lon="1.214192">
        <ele>1997.387</ele>
        <time>2021-06-19T14:30:25Z</time>
      </trkpt>
      <trkpt lat="42.426367" lon="1.214226">
        <ele>1998.053</ele>
        <time>2021-06-19T14:30:28Z</time>
      </trkpt>
      <trkpt lat="42.426325" lon="1.214274">
        <ele>1998.927</ele>
        <time>2021-06-19T14:30:32Z</time>
      </trkpt>
      <trkpt lat="42.426314" lon="1.214284">
        <ele>1999.151</ele>
        <time>2021-06-19T14:30:33Z</time>
      </trkpt>
      <trkpt lat="42.426252" lon="1.214311">
        <ele>1999.841</ele>
        <time>2021-06-19T14:30:38Z</time>
      </trkpt>
      <trkpt lat="42.426239" lon="1.214317">
        <ele>2000.074</ele>
        <time>2021-06-19T14:30:39Z</time>
      </trkpt>
      <trkpt lat="42.426155" lon="1.214340">
        <ele>2000.761</ele>
        <time>2021-06-19T14:30:45Z</time>
      </trkpt>
      <trkpt lat="42.426123" lon="1.214341">
        <ele>2000.887</ele>
        <time>2021-06-19T14:30:47Z</time>
      </trkpt>
      <trkpt lat="42.426058" lon="1.214357">
        <ele>2001.242</ele>
        <time>2021-06-19T14:30:51Z</time>
      </trkpt>
      <trkpt lat="42.426011" lon="1.214377">
        <ele>2001.626</ele>
        <time>2021-06-19T14:30:54Z</time>
      </trkpt>
      <trkpt lat="42.425895" lon="1.214401">
        <ele>2002.308</ele>
        <time>2021-06-19T14:31:01Z</time>
      </trkpt>
      <trkpt lat="42.425828" lon="1.214432">
        <ele>2002.975</ele>
        <time>2021-06-19T14:31:05Z</time>
      </trkpt>
      <trkpt lat="42.425784" lon="1.214463">
        <ele>2003.684</ele>
        <time>2021-06-19T14:31:08Z</time>
      </trkpt>
      <trkpt lat="42.425705" lon="1.214524">
        <ele>2005.270</ele>
        <time>2021-06-19T14:31:14Z</time>
      </trkpt>
      <trkpt lat="42.425691" lon="1.214529">
        <ele>2005.374</ele>
        <time>2021-06-19T14:31:15Z</time>
      </trkpt>
      <trkpt lat="42.425677" lon="1.214529">
        <ele>2005.478</ele>
        <time>2021-06-19T14:31:16Z</time>
      </trkpt>
      <trkpt lat="42.425612" lon="1.214524">
        <ele>2005.348</ele>
        <time>2021-06-19T14:31:20Z</time>
      </trkpt>
      <trkpt lat="42.425599" lon="1.214531">
        <ele>2005.541</ele>
        <time>2021-06-19T14:31:21Z</time>
      </trkpt>
      <trkpt lat="42.425557" lon="1.214551">
        <ele>2005.968</ele>
        <time>2021-06-19T14:31:24Z</time>
      </trkpt>
      <trkpt lat="42.425517" lon="1.214553">
        <ele>2006.579</ele>
        <time>2021-06-19T14:31:27Z</time>
      </trkpt>
      <trkpt lat="42.425503" lon="1.214552">
        <ele>2006.705</ele>
        <time>2021-06-19T14:31:28Z</time>
      </trkpt>
      <trkpt lat="42.425424" lon="1.214572">
        <ele>2008.225</ele>
        <time>2021-06-19T14:31:34Z</time>
      </trkpt>
      <trkpt lat="42.425399" lon="1.214577">
        <ele>2008.708</ele>
        <time>2021-06-19T14:31:36Z</time>
      </trkpt>
      <trkpt lat="42.425349" lon="1.214590">
        <ele>2009.634</ele>
        <time>2021-06-19T14:31:40Z</time>
      </trkpt>
      <trkpt lat="42.425293" lon="1.214600">
        <ele>2010.513</ele>
        <time>2021-06-19T14:31:44Z</time>
      </trkpt>
      <trkpt lat="42.425225" lon="1.214613">
        <ele>2011.549</ele>
        <time>2021-06-19T14:31:49Z</time>
      </trkpt>
      <trkpt lat="42.425211" lon="1.214617">
        <ele>2011.763</ele>
        <time>2021-06-19T14:31:50Z</time>
      </trkpt>
      <trkpt lat="42.425199" lon="1.214615">
        <ele>2011.847</ele>
        <time>2021-06-19T14:31:51Z</time>
      </trkpt>
      <trkpt lat="42.425162" lon="1.214610">
        <ele>2012.277</ele>
        <time>2021-06-19T14:31:54Z</time>
      </trkpt>
      <trkpt lat="42.425149" lon="1.214613">
        <ele>2012.470</ele>
        <time>2021-06-19T14:31:55Z</time>
      </trkpt>
      <trkpt lat="42.425098" lon="1.214622">
        <ele>2013.187</ele>
        <time>2021-06-19T14:31:59Z</time>
      </trkpt>
      <trkpt lat="42.425025" lon="1.214643">
        <ele>2014.159</ele>
        <time>2021-06-19T14:32:05Z</time>
      </trkpt>
      <trkpt lat="42.424985" lon="1.214652">
        <ele>2014.603</ele>
        <time>2021-06-19T14:32:08Z</time>
      </trkpt>
      <trkpt lat="42.424942" lon="1.214657">
        <ele>2014.823</ele>
        <time>2021-06-19T14:32:11Z</time>
      </trkpt>
      <trkpt lat="42.424871" lon="1.214685">
        <ele>2015.508</ele>
        <time>2021-06-19T14:32:16Z</time>
      </trkpt>
      <trkpt lat="42.424857" lon="1.214691">
        <ele>2015.732</ele>
        <time>2021-06-19T14:32:17Z</time>
      </trkpt>
      <trkpt lat="42.424741" lon="1.214733">
        <ele>2017.061</ele>
        <time>2021-06-19T14:32:25Z</time>
      </trkpt>
      <trkpt lat="42.424731" lon="1.214746">
        <ele>2017.257</ele>
        <time>2021-06-19T14:32:26Z</time>
      </trkpt>
      <trkpt lat="42.424735" lon="1.214802">
        <ele>2017.871</ele>
        <time>2021-06-19T14:32:29Z</time>
      </trkpt>
      <trkpt lat="42.424777" lon="1.214835">
        <ele>2017.955</ele>
        <time>2021-06-19T14:32:32Z</time>
      </trkpt>
      <trkpt lat="42.424808" lon="1.214857">
        <ele>2018.035</ele>
        <time>2021-06-19T14:32:34Z</time>
      </trkpt>
      <trkpt lat="42.424857" lon="1.214892">
        <ele>2018.258</ele>
        <time>2021-06-19T14:32:37Z</time>
      </trkpt>
      <trkpt lat="42.424952" lon="1.214962">
        <ele>2018.615</ele>
        <time>2021-06-19T14:32:43Z</time>
      </trkpt>
      <trkpt lat="42.425069" lon="1.215000">
        <ele>2019.592</ele>
        <time>2021-06-19T14:32:50Z</time>
      </trkpt>
      <trkpt lat="42.425102" lon="1.214994">
        <ele>2019.673</ele>
        <time>2021-06-19T14:32:52Z</time>
      </trkpt>
      <trkpt lat="42.425181" lon="1.214996">
        <ele>2020.220</ele>
        <time>2021-06-19T14:32:57Z</time>
      </trkpt>
      <trkpt lat="42.425210" lon="1.214995">
        <ele>2020.408</ele>
        <time>2021-06-19T14:32:59Z</time>
      </trkpt>
      <trkpt lat="42.425307" lon="1.214997">
        <ele>2020.756</ele>
        <time>2021-06-19T14:33:05Z</time>
      </trkpt>
      <trkpt lat="42.425434" lon="1.215039">
        <ele>2021.325</ele>
        <time>2021-06-19T14:33:13Z</time>
      </trkpt>
      <trkpt lat="42.425451" lon="1.215047">
        <ele>2021.471</ele>
        <time>2021-06-19T14:33:14Z</time>
      </trkpt>
      <trkpt lat="42.425565" lon="1.215076">
        <ele>2021.785</ele>
        <time>2021-06-19T14:33:20Z</time>
      </trkpt>
      <trkpt lat="42.425598" lon="1.215076">
        <ele>2021.619</ele>
        <time>2021-06-19T14:33:22Z</time>
      </trkpt>
      <trkpt lat="42.425673" lon="1.215096">
        <ele>2022.249</ele>
        <time>2021-06-19T14:33:27Z</time>
      </trkpt>
      <trkpt lat="42.425721" lon="1.215114">
        <ele>2022.892</ele>
        <time>2021-06-19T14:33:30Z</time>
      </trkpt>
      <trkpt lat="42.425831" lon="1.215159">
        <ele>2024.369</ele>
        <time>2021-06-19T14:33:37Z</time>
      </trkpt>
      <trkpt lat="42.425846" lon="1.215164">
        <ele>2024.459</ele>
        <time>2021-06-19T14:33:38Z</time>
      </trkpt>
      <trkpt lat="42.425929" lon="1.215194">
        <ele>2025.103</ele>
        <time>2021-06-19T14:33:44Z</time>
      </trkpt>
      <trkpt lat="42.425973" lon="1.215211">
        <ele>2025.523</ele>
        <time>2021-06-19T14:33:47Z</time>
      </trkpt>
      <trkpt lat="42.426046" lon="1.215242">
        <ele>2026.208</ele>
        <time>2021-06-19T14:33:52Z</time>
      </trkpt>
      <trkpt lat="42.426061" lon="1.215252">
        <ele>2026.482</ele>
        <time>2021-06-19T14:33:53Z</time>
      </trkpt>
      <trkpt lat="42.426158" lon="1.215281">
        <ele>2026.651</ele>
        <time>2021-06-19T14:33:59Z</time>
      </trkpt>
      <trkpt lat="42.426174" lon="1.215286">
        <ele>2026.657</ele>
        <time>2021-06-19T14:34:00Z</time>
      </trkpt>
      <trkpt lat="42.426274" lon="1.215336">
        <ele>2027.391</ele>
        <time>2021-06-19T14:34:07Z</time>
      </trkpt>
      <trkpt lat="42.426288" lon="1.215341">
        <ele>2027.315</ele>
        <time>2021-06-19T14:34:08Z</time>
      </trkpt>
      <trkpt lat="42.426362" lon="1.215402">
        <ele>2028.455</ele>
        <time>2021-06-19T14:34:14Z</time>
      </trkpt>
      <trkpt lat="42.426387" lon="1.215426">
        <ele>2028.848</ele>
        <time>2021-06-19T14:34:16Z</time>
      </trkpt>
      <trkpt lat="42.426465" lon="1.215503">
        <ele>2029.275</ele>
        <time>2021-06-19T14:34:22Z</time>
      </trkpt>
      <trkpt lat="42.426479" lon="1.215516">
        <ele>2029.246</ele>
        <time>2021-06-19T14:34:23Z</time>
      </trkpt>
      <trkpt lat="42.426546" lon="1.215615">
        <ele>2029.588</ele>
        <time>2021-06-19T14:34:30Z</time>
      </trkpt>
      <trkpt lat="42.426573" lon="1.215657">
        <ele>2029.416</ele>
        <time>2021-06-19T14:34:34Z</time>
      </trkpt>
      <trkpt lat="42.426592" lon="1.215697">
        <ele>2029.508</ele>
        <time>2021-06-19T14:34:37Z</time>
      </trkpt>
      <trkpt lat="42.426639" lon="1.215850">
        <ele>2029.921</ele>
        <time>2021-06-19T14:34:43Z</time>
      </trkpt>
      <trkpt lat="42.426634" lon="1.216093">
        <ele>2029.250</ele>
        <time>2021-06-19T14:34:49Z</time>
      </trkpt>
      <trkpt lat="42.426613" lon="1.216357">
        <ele>2028.726</ele>
        <time>2021-06-19T14:34:54Z</time>
      </trkpt>
      <trkpt lat="42.426616" lon="1.216382">
        <ele>2028.550</ele>
        <time>2021-06-19T14:34:55Z</time>
      </trkpt>
      <trkpt lat="42.426625" lon="1.216406">
        <ele>2028.494</ele>
        <time>2021-06-19T14:34:56Z</time>
      </trkpt>
      <trkpt lat="42.426673" lon="1.216492">
        <ele>2028.024</ele>
        <time>2021-06-19T14:34:59Z</time>
      </trkpt>
      <trkpt lat="42.426692" lon="1.216527">
        <ele>2027.947</ele>
        <time>2021-06-19T14:35:00Z</time>
      </trkpt>
      <trkpt lat="42.426802" lon="1.216738">
        <ele>2027.714</ele>
        <time>2021-06-19T14:35:05Z</time>
      </trkpt>
      <trkpt lat="42.426863" lon="1.216856">
        <ele>2028.094</ele>
        <time>2021-06-19T14:35:09Z</time>
      </trkpt>
      <trkpt lat="42.426864" lon="1.216859">
        <ele>2028.057</ele>
        <time>2021-06-19T14:35:11Z</time>
      </trkpt>
      <trkpt lat="42.426893" lon="1.216902">
        <ele>2027.822</ele>
        <time>2021-06-19T14:36:13Z</time>
      </trkpt>
      <trkpt lat="42.426904" lon="1.216913">
        <ele>2027.708</ele>
        <time>2021-06-19T14:36:14Z</time>
      </trkpt>
      <trkpt lat="42.426990" lon="1.216910">
        <ele>2026.366</ele>
        <time>2021-06-19T14:36:18Z</time>
      </trkpt>
      <trkpt lat="42.427092" lon="1.216885">
        <ele>2025.365</ele>
        <time>2021-06-19T14:36:22Z</time>
      </trkpt>
      <trkpt lat="42.427183" lon="1.216877">
        <ele>2024.551</ele>
        <time>2021-06-19T14:36:25Z</time>
      </trkpt>
      <trkpt lat="42.427392" lon="1.216874">
        <ele>2023.935</ele>
        <time>2021-06-19T14:36:30Z</time>
      </trkpt>
      <trkpt lat="42.427492" lon="1.216858">
        <ele>2023.279</ele>
        <time>2021-06-19T14:36:32Z</time>
      </trkpt>
      <trkpt lat="42.427545" lon="1.216840">
        <ele>2022.829</ele>
        <time>2021-06-19T14:36:33Z</time>
      </trkpt>
      <trkpt lat="42.427600" lon="1.216816">
        <ele>2022.372</ele>
        <time>2021-06-19T14:36:34Z</time>
      </trkpt>
      <trkpt lat="42.427696" lon="1.216764">
        <ele>2021.559</ele>
        <time>2021-06-19T14:36:36Z</time>
      </trkpt>
      <trkpt lat="42.427741" lon="1.216744">
        <ele>2021.415</ele>
        <time>2021-06-19T14:36:37Z</time>
      </trkpt>
      <trkpt lat="42.427791" lon="1.216724">
        <ele>2021.265</ele>
        <time>2021-06-19T14:36:38Z</time>
      </trkpt>
      <trkpt lat="42.427844" lon="1.216714">
        <ele>2020.611</ele>
        <time>2021-06-19T14:36:39Z</time>
      </trkpt>
      <trkpt lat="42.427961" lon="1.216746">
        <ele>2020.308</ele>
        <time>2021-06-19T14:36:41Z</time>
      </trkpt>
      <trkpt lat="42.428011" lon="1.216781">
        <ele>2020.268</ele>
        <time>2021-06-19T14:36:42Z</time>
      </trkpt>
      <trkpt lat="42.428088" lon="1.216874">
        <ele>2019.687</ele>
        <time>2021-06-19T14:36:44Z</time>
      </trkpt>
      <trkpt lat="42.428145" lon="1.217001">
        <ele>2018.633</ele>
        <time>2021-06-19T14:36:46Z</time>
      </trkpt>
      <trkpt lat="42.428172" lon="1.217067">
        <ele>2018.097</ele>
        <time>2021-06-19T14:36:47Z</time>
      </trkpt>
      <trkpt lat="42.428192" lon="1.217131">
        <ele>2017.461</ele>
        <time>2021-06-19T14:36:48Z</time>
      </trkpt>
      <trkpt lat="42.428244" lon="1.217262">
        <ele>2016.111</ele>
        <time>2021-06-19T14:36:50Z</time>
      </trkpt>
      <trkpt lat="42.428322" lon="1.217408">
        <ele>2014.544</ele>
        <time>2021-06-19T14:36:52Z</time>
      </trkpt>
      <trkpt lat="42.428373" lon="1.217485">
        <ele>2012.771</ele>
        <time>2021-06-19T14:36:53Z</time>
      </trkpt>
      <trkpt lat="42.428486" lon="1.217648">
        <ele>2010.016</ele>
        <time>2021-06-19T14:36:55Z</time>
      </trkpt>
      <trkpt lat="42.428540" lon="1.217733">
        <ele>2009.376</ele>
        <time>2021-06-19T14:36:56Z</time>
      </trkpt>
      <trkpt lat="42.428653" lon="1.217898">
        <ele>2008.513</ele>
        <time>2021-06-19T14:36:58Z</time>
      </trkpt>
      <trkpt lat="42.428763" lon="1.218033">
        <ele>2008.008</ele>
        <time>2021-06-19T14:37:00Z</time>
      </trkpt>
      <trkpt lat="42.428818" lon="1.218085">
        <ele>2007.668</ele>
        <time>2021-06-19T14:37:01Z</time>
      </trkpt>
      <trkpt lat="42.428871" lon="1.218125">
        <ele>2007.297</ele>
        <time>2021-06-19T14:37:02Z</time>
      </trkpt>
      <trkpt lat="42.428934" lon="1.218150">
        <ele>2006.673</ele>
        <time>2021-06-19T14:37:03Z</time>
      </trkpt>
      <trkpt lat="42.428996" lon="1.218163">
        <ele>2005.957</ele>
        <time>2021-06-19T14:37:04Z</time>
      </trkpt>
      <trkpt lat="42.429064" lon="1.218170">
        <ele>2004.891</ele>
        <time>2021-06-19T14:37:05Z</time>
      </trkpt>
      <trkpt lat="42.429133" lon="1.218184">
        <ele>2003.941</ele>
        <time>2021-06-19T14:37:06Z</time>
      </trkpt>
      <trkpt lat="42.429249" lon="1.218248">
        <ele>2002.974</ele>
        <time>2021-06-19T14:37:08Z</time>
      </trkpt>
      <trkpt lat="42.429299" lon="1.218279">
        <ele>2002.611</ele>
        <time>2021-06-19T14:37:09Z</time>
      </trkpt>
      <trkpt lat="42.429466" lon="1.218339">
        <ele>2001.012</ele>
        <time>2021-06-19T14:37:12Z</time>
      </trkpt>
      <trkpt lat="42.429538" lon="1.218351">
        <ele>2000.632</ele>
        <time>2021-06-19T14:37:13Z</time>
      </trkpt>
      <trkpt lat="42.429679" lon="1.218347">
        <ele>1999.005</ele>
        <time>2021-06-19T14:37:15Z</time>
      </trkpt>
      <trkpt lat="42.429745" lon="1.218341">
        <ele>1998.108</ele>
        <time>2021-06-19T14:37:16Z</time>
      </trkpt>
      <trkpt lat="42.429816" lon="1.218344">
        <ele>1997.768</ele>
        <time>2021-06-19T14:37:17Z</time>
      </trkpt>
      <trkpt lat="42.429884" lon="1.218352">
        <ele>1997.497</ele>
        <time>2021-06-19T14:37:18Z</time>
      </trkpt>
      <trkpt lat="42.429950" lon="1.218367">
        <ele>1997.433</ele>
        <time>2021-06-19T14:37:19Z</time>
      </trkpt>
      <trkpt lat="42.430011" lon="1.218392">
        <ele>1997.597</ele>
        <time>2021-06-19T14:37:20Z</time>
      </trkpt>
      <trkpt lat="42.430131" lon="1.218452">
        <ele>1996.691</ele>
        <time>2021-06-19T14:37:22Z</time>
      </trkpt>
      <trkpt lat="42.430380" lon="1.218562">
        <ele>1994.321</ele>
        <time>2021-06-19T14:37:26Z</time>
      </trkpt>
      <trkpt lat="42.430449" lon="1.218575">
        <ele>1993.274</ele>
        <time>2021-06-19T14:37:27Z</time>
      </trkpt>
      <trkpt lat="42.430733" lon="1.218606">
        <ele>1989.371</ele>
        <time>2021-06-19T14:37:31Z</time>
      </trkpt>
      <trkpt lat="42.430803" lon="1.218621">
        <ele>1988.786</ele>
        <time>2021-06-19T14:37:32Z</time>
      </trkpt>
      <trkpt lat="42.430874" lon="1.218642">
        <ele>1987.760</ele>
        <time>2021-06-19T14:37:33Z</time>
      </trkpt>
      <trkpt lat="42.430942" lon="1.218673">
        <ele>1986.726</ele>
        <time>2021-06-19T14:37:34Z</time>
      </trkpt>
      <trkpt lat="42.431059" lon="1.218765">
        <ele>1985.708</ele>
        <time>2021-06-19T14:37:36Z</time>
      </trkpt>
      <trkpt lat="42.431101" lon="1.218827">
        <ele>1985.975</ele>
        <time>2021-06-19T14:37:37Z</time>
      </trkpt>
      <trkpt lat="42.431142" lon="1.218897">
        <ele>1986.014</ele>
        <time>2021-06-19T14:37:38Z</time>
      </trkpt>
      <trkpt lat="42.431192" lon="1.218961">
        <ele>1985.660</ele>
        <time>2021-06-19T14:37:39Z</time>
      </trkpt>
      <trkpt lat="42.431250" lon="1.219011">
        <ele>1984.924</ele>
        <time>2021-06-19T14:37:40Z</time>
      </trkpt>
      <trkpt lat="42.431316" lon="1.219050">
        <ele>1983.848</ele>
        <time>2021-06-19T14:37:41Z</time>
      </trkpt>
      <trkpt lat="42.431384" lon="1.219077">
        <ele>1982.618</ele>
        <time>2021-06-19T14:37:42Z</time>
      </trkpt>
      <trkpt lat="42.431578" lon="1.219169">
        <ele>1979.081</ele>
        <time>2021-06-19T14:37:45Z</time>
      </trkpt>
      <trkpt lat="42.431638" lon="1.219203">
        <ele>1978.458</ele>
        <time>2021-06-19T14:37:46Z</time>
      </trkpt>
      <trkpt lat="42.431699" lon="1.219242">
        <ele>1977.736</ele>
        <time>2021-06-19T14:37:47Z</time>
      </trkpt>
      <trkpt lat="42.431822" lon="1.219329">
        <ele>1976.617</ele>
        <time>2021-06-19T14:37:49Z</time>
      </trkpt>
      <trkpt lat="42.431945" lon="1.219419">
        <ele>1975.918</ele>
        <time>2021-06-19T14:37:51Z</time>
      </trkpt>
      <trkpt lat="42.432067" lon="1.219499">
        <ele>1974.208</ele>
        <time>2021-06-19T14:37:53Z</time>
      </trkpt>
      <trkpt lat="42.432125" lon="1.219534">
        <ele>1973.380</ele>
        <time>2021-06-19T14:37:54Z</time>
      </trkpt>
      <trkpt lat="42.432240" lon="1.219613">
        <ele>1972.159</ele>
        <time>2021-06-19T14:37:56Z</time>
      </trkpt>
      <trkpt lat="42.432359" lon="1.219693">
        <ele>1971.025</ele>
        <time>2021-06-19T14:37:58Z</time>
      </trkpt>
      <trkpt lat="42.432420" lon="1.219739">
        <ele>1970.449</ele>
        <time>2021-06-19T14:37:59Z</time>
      </trkpt>
      <trkpt lat="42.432476" lon="1.219788">
        <ele>1970.073</ele>
        <time>2021-06-19T14:38:00Z</time>
      </trkpt>
      <trkpt lat="42.432592" lon="1.219908">
        <ele>1969.453</ele>
        <time>2021-06-19T14:38:02Z</time>
      </trkpt>
      <trkpt lat="42.432711" lon="1.220037">
        <ele>1968.546</ele>
        <time>2021-06-19T14:38:04Z</time>
      </trkpt>
      <trkpt lat="42.432881" lon="1.220253">
        <ele>1966.413</ele>
        <time>2021-06-19T14:38:07Z</time>
      </trkpt>
      <trkpt lat="42.432980" lon="1.220412">
        <ele>1965.134</ele>
        <time>2021-06-19T14:38:09Z</time>
      </trkpt>
      <trkpt lat="42.433081" lon="1.220570">
        <ele>1963.455</ele>
        <time>2021-06-19T14:38:11Z</time>
      </trkpt>
      <trkpt lat="42.433188" lon="1.220717">
        <ele>1962.410</ele>
        <time>2021-06-19T14:38:13Z</time>
      </trkpt>
      <trkpt lat="42.433288" lon="1.220861">
        <ele>1961.208</ele>
        <time>2021-06-19T14:38:15Z</time>
      </trkpt>
      <trkpt lat="42.433366" lon="1.221001">
        <ele>1959.990</ele>
        <time>2021-06-19T14:38:17Z</time>
      </trkpt>
      <trkpt lat="42.433425" lon="1.221154">
        <ele>1958.929</ele>
        <time>2021-06-19T14:38:19Z</time>
      </trkpt>
      <trkpt lat="42.433492" lon="1.221361">
        <ele>1957.045</ele>
        <time>2021-06-19T14:38:22Z</time>
      </trkpt>
      <trkpt lat="42.433542" lon="1.221495">
        <ele>1955.989</ele>
        <time>2021-06-19T14:38:24Z</time>
      </trkpt>
      <trkpt lat="42.433591" lon="1.221651">
        <ele>1954.913</ele>
        <time>2021-06-19T14:38:26Z</time>
      </trkpt>
      <trkpt lat="42.433636" lon="1.221824">
        <ele>1953.343</ele>
        <time>2021-06-19T14:38:28Z</time>
      </trkpt>
      <trkpt lat="42.433656" lon="1.221915">
        <ele>1952.636</ele>
        <time>2021-06-19T14:38:29Z</time>
      </trkpt>
      <trkpt lat="42.433679" lon="1.222007">
        <ele>1951.953</ele>
        <time>2021-06-19T14:38:30Z</time>
      </trkpt>
      <trkpt lat="42.433738" lon="1.222195">
        <ele>1949.989</ele>
        <time>2021-06-19T14:38:32Z</time>
      </trkpt>
      <trkpt lat="42.433769" lon="1.222293">
        <ele>1949.106</ele>
        <time>2021-06-19T14:38:33Z</time>
      </trkpt>
      <trkpt lat="42.433797" lon="1.222386">
        <ele>1948.526</ele>
        <time>2021-06-19T14:38:34Z</time>
      </trkpt>
      <trkpt lat="42.433850" lon="1.222564">
        <ele>1947.008</ele>
        <time>2021-06-19T14:38:36Z</time>
      </trkpt>
      <trkpt lat="42.433868" lon="1.222655">
        <ele>1946.555</ele>
        <time>2021-06-19T14:38:37Z</time>
      </trkpt>
      <trkpt lat="42.433884" lon="1.222747">
        <ele>1946.114</ele>
        <time>2021-06-19T14:38:38Z</time>
      </trkpt>
      <trkpt lat="42.433905" lon="1.222842">
        <ele>1945.460</ele>
        <time>2021-06-19T14:38:39Z</time>
      </trkpt>
      <trkpt lat="42.433928" lon="1.222941">
        <ele>1944.684</ele>
        <time>2021-06-19T14:38:40Z</time>
      </trkpt>
      <trkpt lat="42.433951" lon="1.223044">
        <ele>1943.848</ele>
        <time>2021-06-19T14:38:41Z</time>
      </trkpt>
      <trkpt lat="42.433989" lon="1.223247">
        <ele>1942.668</ele>
        <time>2021-06-19T14:38:43Z</time>
      </trkpt>
      <trkpt lat="42.434022" lon="1.223450">
        <ele>1941.511</ele>
        <time>2021-06-19T14:38:45Z</time>
      </trkpt>
      <trkpt lat="42.434040" lon="1.223557">
        <ele>1940.818</ele>
        <time>2021-06-19T14:38:46Z</time>
      </trkpt>
      <trkpt lat="42.434057" lon="1.223665">
        <ele>1940.118</ele>
        <time>2021-06-19T14:38:47Z</time>
      </trkpt>
      <trkpt lat="42.434080" lon="1.223878">
        <ele>1938.898</ele>
        <time>2021-06-19T14:38:49Z</time>
      </trkpt>
      <trkpt lat="42.434084" lon="1.224091">
        <ele>1937.117</ele>
        <time>2021-06-19T14:38:51Z</time>
      </trkpt>
      <trkpt lat="42.434081" lon="1.224306">
        <ele>1935.708</ele>
        <time>2021-06-19T14:38:53Z</time>
      </trkpt>
      <trkpt lat="42.434074" lon="1.224521">
        <ele>1934.548</ele>
        <time>2021-06-19T14:38:55Z</time>
      </trkpt>
      <trkpt lat="42.434077" lon="1.224627">
        <ele>1933.877</ele>
        <time>2021-06-19T14:38:56Z</time>
      </trkpt>
      <trkpt lat="42.434086" lon="1.224841">
        <ele>1932.223</ele>
        <time>2021-06-19T14:38:58Z</time>
      </trkpt>
      <trkpt lat="42.434081" lon="1.225056">
        <ele>1931.257</ele>
        <time>2021-06-19T14:39:00Z</time>
      </trkpt>
      <trkpt lat="42.434077" lon="1.225154">
        <ele>1930.631</ele>
        <time>2021-06-19T14:39:01Z</time>
      </trkpt>
      <trkpt lat="42.434074" lon="1.225254">
        <ele>1929.951</ele>
        <time>2021-06-19T14:39:02Z</time>
      </trkpt>
      <trkpt lat="42.434073" lon="1.225449">
        <ele>1928.574</ele>
        <time>2021-06-19T14:39:04Z</time>
      </trkpt>
      <trkpt lat="42.434050" lon="1.225640">
        <ele>1927.551</ele>
        <time>2021-06-19T14:39:06Z</time>
      </trkpt>
      <trkpt lat="42.434012" lon="1.225832">
        <ele>1926.741</ele>
        <time>2021-06-19T14:39:08Z</time>
      </trkpt>
      <trkpt lat="42.433962" lon="1.226015">
        <ele>1926.181</ele>
        <time>2021-06-19T14:39:10Z</time>
      </trkpt>
      <trkpt lat="42.433947" lon="1.226122">
        <ele>1925.209</ele>
        <time>2021-06-19T14:39:11Z</time>
      </trkpt>
      <trkpt lat="42.433944" lon="1.226235">
        <ele>1924.408</ele>
        <time>2021-06-19T14:39:12Z</time>
      </trkpt>
      <trkpt lat="42.433933" lon="1.226457">
        <ele>1922.671</ele>
        <time>2021-06-19T14:39:14Z</time>
      </trkpt>
      <trkpt lat="42.433913" lon="1.226560">
        <ele>1922.250</ele>
        <time>2021-06-19T14:39:15Z</time>
      </trkpt>
      <trkpt lat="42.433891" lon="1.226654">
        <ele>1922.176</ele>
        <time>2021-06-19T14:39:16Z</time>
      </trkpt>
      <trkpt lat="42.433842" lon="1.226853">
        <ele>1920.170</ele>
        <time>2021-06-19T14:39:18Z</time>
      </trkpt>
      <trkpt lat="42.433774" lon="1.227041">
        <ele>1918.814</ele>
        <time>2021-06-19T14:39:20Z</time>
      </trkpt>
      <trkpt lat="42.433741" lon="1.227128">
        <ele>1917.814</ele>
        <time>2021-06-19T14:39:21Z</time>
      </trkpt>
      <trkpt lat="42.433684" lon="1.227287">
        <ele>1917.347</ele>
        <time>2021-06-19T14:39:23Z</time>
      </trkpt>
      <trkpt lat="42.433712" lon="1.227421">
        <ele>1914.844</ele>
        <time>2021-06-19T14:39:25Z</time>
      </trkpt>
      <trkpt lat="42.433784" lon="1.227566">
        <ele>1911.128</ele>
        <time>2021-06-19T14:39:27Z</time>
      </trkpt>
      <trkpt lat="42.433819" lon="1.227651">
        <ele>1910.689</ele>
        <time>2021-06-19T14:39:28Z</time>
      </trkpt>
      <trkpt lat="42.433854" lon="1.227739">
        <ele>1910.217</ele>
        <time>2021-06-19T14:39:29Z</time>
      </trkpt>
      <trkpt lat="42.433890" lon="1.227830">
        <ele>1909.708</ele>
        <time>2021-06-19T14:39:30Z</time>
      </trkpt>
      <trkpt lat="42.433992" lon="1.228098">
        <ele>1908.349</ele>
        <time>2021-06-19T14:39:33Z</time>
      </trkpt>
      <trkpt lat="42.434058" lon="1.228267">
        <ele>1906.818</ele>
        <time>2021-06-19T14:39:35Z</time>
      </trkpt>
      <trkpt lat="42.434126" lon="1.228442">
        <ele>1905.214</ele>
        <time>2021-06-19T14:39:37Z</time>
      </trkpt>
      <trkpt lat="42.434188" lon="1.228619">
        <ele>1904.038</ele>
        <time>2021-06-19T14:39:39Z</time>
      </trkpt>
      <trkpt lat="42.434234" lon="1.228786">
        <ele>1902.472</ele>
        <time>2021-06-19T14:39:41Z</time>
      </trkpt>
      <trkpt lat="42.434268" lon="1.228943">
        <ele>1901.432</ele>
        <time>2021-06-19T14:39:43Z</time>
      </trkpt>
      <trkpt lat="42.434290" lon="1.229102">
        <ele>1900.785</ele>
        <time>2021-06-19T14:39:45Z</time>
      </trkpt>
      <trkpt lat="42.434317" lon="1.229278">
        <ele>1899.682</ele>
        <time>2021-06-19T14:39:47Z</time>
      </trkpt>
      <trkpt lat="42.434351" lon="1.229450">
        <ele>1897.796</ele>
        <time>2021-06-19T14:39:49Z</time>
      </trkpt>
      <trkpt lat="42.434372" lon="1.229606">
        <ele>1896.431</ele>
        <time>2021-06-19T14:39:51Z</time>
      </trkpt>
      <trkpt lat="42.434385" lon="1.229757">
        <ele>1895.524</ele>
        <time>2021-06-19T14:39:53Z</time>
      </trkpt>
      <trkpt lat="42.434382" lon="1.229911">
        <ele>1894.808</ele>
        <time>2021-06-19T14:39:55Z</time>
      </trkpt>
      <trkpt lat="42.434346" lon="1.230152">
        <ele>1893.926</ele>
        <time>2021-06-19T14:39:58Z</time>
      </trkpt>
      <trkpt lat="42.434320" lon="1.230231">
        <ele>1894.055</ele>
        <time>2021-06-19T14:39:59Z</time>
      </trkpt>
      <trkpt lat="42.434288" lon="1.230306">
        <ele>1894.131</ele>
        <time>2021-06-19T14:40:00Z</time>
      </trkpt>
      <trkpt lat="42.434223" lon="1.230452">
        <ele>1893.395</ele>
        <time>2021-06-19T14:40:02Z</time>
      </trkpt>
      <trkpt lat="42.434112" lon="1.230677">
        <ele>1891.659</ele>
        <time>2021-06-19T14:40:05Z</time>
      </trkpt>
      <trkpt lat="42.434041" lon="1.230820">
        <ele>1890.399</ele>
        <time>2021-06-19T14:40:07Z</time>
      </trkpt>
      <trkpt lat="42.433935" lon="1.230988">
        <ele>1888.862</ele>
        <time>2021-06-19T14:40:10Z</time>
      </trkpt>
      <trkpt lat="42.433860" lon="1.231091">
        <ele>1887.929</ele>
        <time>2021-06-19T14:40:12Z</time>
      </trkpt>
      <trkpt lat="42.433703" lon="1.231321">
        <ele>1885.027</ele>
        <time>2021-06-19T14:40:16Z</time>
      </trkpt>
      <trkpt lat="42.433626" lon="1.231426">
        <ele>1883.768</ele>
        <time>2021-06-19T14:40:18Z</time>
      </trkpt>
      <trkpt lat="42.433586" lon="1.231472">
        <ele>1882.714</ele>
        <time>2021-06-19T14:40:19Z</time>
      </trkpt>
      <trkpt lat="42.433538" lon="1.231520">
        <ele>1881.708</ele>
        <time>2021-06-19T14:40:20Z</time>
      </trkpt>
      <trkpt lat="42.433486" lon="1.231559">
        <ele>1881.279</ele>
        <time>2021-06-19T14:40:21Z</time>
      </trkpt>
      <trkpt lat="42.433387" lon="1.231608">
        <ele>1881.418</ele>
        <time>2021-06-19T14:40:23Z</time>
      </trkpt>
      <trkpt lat="42.433348" lon="1.231647">
        <ele>1880.684</ele>
        <time>2021-06-19T14:40:24Z</time>
      </trkpt>
      <trkpt lat="42.433319" lon="1.231757">
        <ele>1882.498</ele>
        <time>2021-06-19T14:40:26Z</time>
      </trkpt>
      <trkpt lat="42.433334" lon="1.231805">
        <ele>1882.582</ele>
        <time>2021-06-19T14:40:27Z</time>
      </trkpt>
      <trkpt lat="42.433389" lon="1.231884">
        <ele>1880.962</ele>
        <time>2021-06-19T14:40:29Z</time>
      </trkpt>
      <trkpt lat="42.433454" lon="1.231969">
        <ele>1878.475</ele>
        <time>2021-06-19T14:40:31Z</time>
      </trkpt>
      <trkpt lat="42.433489" lon="1.232025">
        <ele>1878.062</ele>
        <time>2021-06-19T14:40:32Z</time>
      </trkpt>
      <trkpt lat="42.433621" lon="1.232269">
        <ele>1877.538</ele>
        <time>2021-06-19T14:40:36Z</time>
      </trkpt>
      <trkpt lat="42.433699" lon="1.232419">
        <ele>1876.770</ele>
        <time>2021-06-19T14:40:38Z</time>
      </trkpt>
      <trkpt lat="42.433915" lon="1.232792">
        <ele>1875.117</ele>
        <time>2021-06-19T14:40:43Z</time>
      </trkpt>
      <trkpt lat="42.433958" lon="1.232864">
        <ele>1875.108</ele>
        <time>2021-06-19T14:40:44Z</time>
      </trkpt>
      <trkpt lat="42.434003" lon="1.232935">
        <ele>1874.940</ele>
        <time>2021-06-19T14:40:45Z</time>
      </trkpt>
      <trkpt lat="42.434104" lon="1.233066">
        <ele>1873.719</ele>
        <time>2021-06-19T14:40:47Z</time>
      </trkpt>
      <trkpt lat="42.434209" lon="1.233184">
        <ele>1872.835</ele>
        <time>2021-06-19T14:40:49Z</time>
      </trkpt>
      <trkpt lat="42.434316" lon="1.233299">
        <ele>1872.389</ele>
        <time>2021-06-19T14:40:51Z</time>
      </trkpt>
      <trkpt lat="42.434470" lon="1.233478">
        <ele>1871.593</ele>
        <time>2021-06-19T14:40:54Z</time>
      </trkpt>
      <trkpt lat="42.434515" lon="1.233541">
        <ele>1871.623</ele>
        <time>2021-06-19T14:40:55Z</time>
      </trkpt>
      <trkpt lat="42.434626" lon="1.233709">
        <ele>1871.616</ele>
        <time>2021-06-19T14:40:58Z</time>
      </trkpt>
      <trkpt lat="42.434691" lon="1.233797">
        <ele>1871.063</ele>
        <time>2021-06-19T14:41:00Z</time>
      </trkpt>
      <trkpt lat="42.434795" lon="1.233858">
        <ele>1868.351</ele>
        <time>2021-06-19T14:41:04Z</time>
      </trkpt>
      <trkpt lat="42.434903" lon="1.233916">
        <ele>1865.101</ele>
        <time>2021-06-19T14:41:10Z</time>
      </trkpt>
      <trkpt lat="42.434918" lon="1.233931">
        <ele>1864.611</ele>
        <time>2021-06-19T14:41:11Z</time>
      </trkpt>
      <trkpt lat="42.434931" lon="1.233991">
        <ele>1864.708</ele>
        <time>2021-06-19T14:41:14Z</time>
      </trkpt>
      <trkpt lat="42.434939" lon="1.234014">
        <ele>1864.542</ele>
        <time>2021-06-19T14:41:15Z</time>
      </trkpt>
      <trkpt lat="42.434965" lon="1.234187">
        <ele>1864.691</ele>
        <time>2021-06-19T14:41:20Z</time>
      </trkpt>
      <trkpt lat="42.434947" lon="1.234400">
        <ele>1864.517</ele>
        <time>2021-06-19T14:41:25Z</time>
      </trkpt>
      <trkpt lat="42.434915" lon="1.234565">
        <ele>1864.171</ele>
        <time>2021-06-19T14:41:29Z</time>
      </trkpt>
      <trkpt lat="42.434912" lon="1.234597">
        <ele>1863.865</ele>
        <time>2021-06-19T14:41:30Z</time>
      </trkpt>
      <trkpt lat="42.434901" lon="1.234670">
        <ele>1863.375</ele>
        <time>2021-06-19T14:41:33Z</time>
      </trkpt>
      <trkpt lat="42.434894" lon="1.234723">
        <ele>1863.058</ele>
        <time>2021-06-19T14:41:35Z</time>
      </trkpt>
      <trkpt lat="42.434882" lon="1.234816">
        <ele>1862.725</ele>
        <time>2021-06-19T14:41:38Z</time>
      </trkpt>
      <trkpt lat="42.434858" lon="1.234929">
        <ele>1862.867</ele>
        <time>2021-06-19T14:41:41Z</time>
      </trkpt>
      <trkpt lat="42.434814" lon="1.235141">
        <ele>1862.081</ele>
        <time>2021-06-19T14:41:46Z</time>
      </trkpt>
      <trkpt lat="42.434783" lon="1.235227">
        <ele>1862.119</ele>
        <time>2021-06-19T14:41:48Z</time>
      </trkpt>
      <trkpt lat="42.434714" lon="1.235431">
        <ele>1861.608</ele>
        <time>2021-06-19T14:41:52Z</time>
      </trkpt>
      <trkpt lat="42.434697" lon="1.235492">
        <ele>1861.133</ele>
        <time>2021-06-19T14:41:53Z</time>
      </trkpt>
      <trkpt lat="42.434675" lon="1.235559">
        <ele>1860.632</ele>
        <time>2021-06-19T14:41:54Z</time>
      </trkpt>
      <trkpt lat="42.434565" lon="1.235975">
        <ele>1858.268</ele>
        <time>2021-06-19T14:41:59Z</time>
      </trkpt>
      <trkpt lat="42.434553" lon="1.236068">
        <ele>1857.792</ele>
        <time>2021-06-19T14:42:00Z</time>
      </trkpt>
      <trkpt lat="42.434549" lon="1.236258">
        <ele>1857.046</ele>
        <time>2021-06-19T14:42:02Z</time>
      </trkpt>
      <trkpt lat="42.434559" lon="1.236444">
        <ele>1855.926</ele>
        <time>2021-06-19T14:42:04Z</time>
      </trkpt>
      <trkpt lat="42.434559" lon="1.236530">
        <ele>1855.589</ele>
        <time>2021-06-19T14:42:05Z</time>
      </trkpt>
      <trkpt lat="42.434550" lon="1.236705">
        <ele>1855.176</ele>
        <time>2021-06-19T14:42:07Z</time>
      </trkpt>
      <trkpt lat="42.434521" lon="1.236878">
        <ele>1854.651</ele>
        <time>2021-06-19T14:42:09Z</time>
      </trkpt>
      <trkpt lat="42.434501" lon="1.236959">
        <ele>1854.501</ele>
        <time>2021-06-19T14:42:10Z</time>
      </trkpt>
      <trkpt lat="42.434443" lon="1.237118">
        <ele>1853.311</ele>
        <time>2021-06-19T14:42:12Z</time>
      </trkpt>
      <trkpt lat="42.434389" lon="1.237274">
        <ele>1851.808</ele>
        <time>2021-06-19T14:42:14Z</time>
      </trkpt>
      <trkpt lat="42.434185" lon="1.237669">
        <ele>1849.382</ele>
        <time>2021-06-19T14:42:19Z</time>
      </trkpt>
      <trkpt lat="42.434086" lon="1.237810">
        <ele>1847.991</ele>
        <time>2021-06-19T14:42:21Z</time>
      </trkpt>
      <trkpt lat="42.433984" lon="1.237955">
        <ele>1846.587</ele>
        <time>2021-06-19T14:42:23Z</time>
      </trkpt>
      <trkpt lat="42.433926" lon="1.238016">
        <ele>1846.211</ele>
        <time>2021-06-19T14:42:24Z</time>
      </trkpt>
      <trkpt lat="42.433867" lon="1.238074">
        <ele>1845.965</ele>
        <time>2021-06-19T14:42:25Z</time>
      </trkpt>
      <trkpt lat="42.433665" lon="1.238235">
        <ele>1844.355</ele>
        <time>2021-06-19T14:42:28Z</time>
      </trkpt>
      <trkpt lat="42.433605" lon="1.238287">
        <ele>1843.658</ele>
        <time>2021-06-19T14:42:29Z</time>
      </trkpt>
      <trkpt lat="42.433482" lon="1.238362">
        <ele>1841.715</ele>
        <time>2021-06-19T14:42:31Z</time>
      </trkpt>
      <trkpt lat="42.433348" lon="1.238414">
        <ele>1840.446</ele>
        <time>2021-06-19T14:42:33Z</time>
      </trkpt>
      <trkpt lat="42.433276" lon="1.238431">
        <ele>1839.988</ele>
        <time>2021-06-19T14:42:34Z</time>
      </trkpt>
      <trkpt lat="42.433203" lon="1.238447">
        <ele>1839.516</ele>
        <time>2021-06-19T14:42:35Z</time>
      </trkpt>
      <trkpt lat="42.433054" lon="1.238475">
        <ele>1838.908</ele>
        <time>2021-06-19T14:42:37Z</time>
      </trkpt>
      <trkpt lat="42.432983" lon="1.238491">
        <ele>1839.451</ele>
        <time>2021-06-19T14:42:38Z</time>
      </trkpt>
      <trkpt lat="42.432927" lon="1.238523">
        <ele>1839.460</ele>
        <time>2021-06-19T14:42:39Z</time>
      </trkpt>
      <trkpt lat="42.432843" lon="1.238634">
        <ele>1838.326</ele>
        <time>2021-06-19T14:42:41Z</time>
      </trkpt>
      <trkpt lat="42.432823" lon="1.238689">
        <ele>1838.050</ele>
        <time>2021-06-19T14:42:42Z</time>
      </trkpt>
      <trkpt lat="42.432784" lon="1.238797">
        <ele>1837.894</ele>
        <time>2021-06-19T14:42:44Z</time>
      </trkpt>
      <trkpt lat="42.432749" lon="1.238872">
        <ele>1838.434</ele>
        <time>2021-06-19T14:42:46Z</time>
      </trkpt>
      <trkpt lat="42.432665" lon="1.239073">
        <ele>1840.397</ele>
        <time>2021-06-19T14:42:53Z</time>
      </trkpt>
      <trkpt lat="42.432619" lon="1.239169">
        <ele>1841.314</ele>
        <time>2021-06-19T14:42:56Z</time>
      </trkpt>
      <trkpt lat="42.432560" lon="1.239341">
        <ele>1841.998</ele>
        <time>2021-06-19T14:43:01Z</time>
      </trkpt>
      <trkpt lat="42.432517" lon="1.239443">
        <ele>1842.415</ele>
        <time>2021-06-19T14:43:04Z</time>
      </trkpt>
      <trkpt lat="42.432470" lon="1.239558">
        <ele>1842.826</ele>
        <time>2021-06-19T14:43:07Z</time>
      </trkpt>
      <trkpt lat="42.432437" lon="1.239636">
        <ele>1842.908</ele>
        <time>2021-06-19T14:43:09Z</time>
      </trkpt>
      <trkpt lat="42.432314" lon="1.239870">
        <ele>1841.836</ele>
        <time>2021-06-19T14:43:15Z</time>
      </trkpt>
      <trkpt lat="42.432152" lon="1.240084">
        <ele>1840.435</ele>
        <time>2021-06-19T14:43:20Z</time>
      </trkpt>
      <trkpt lat="42.431927" lon="1.240316">
        <ele>1839.391</ele>
        <time>2021-06-19T14:43:25Z</time>
      </trkpt>
      <trkpt lat="42.431772" lon="1.240434">
        <ele>1838.985</ele>
        <time>2021-06-19T14:43:29Z</time>
      </trkpt>
      <trkpt lat="42.431736" lon="1.240453">
        <ele>1839.099</ele>
        <time>2021-06-19T14:43:30Z</time>
      </trkpt>
      <trkpt lat="42.431582" lon="1.240513">
        <ele>1840.289</ele>
        <time>2021-06-19T14:43:35Z</time>
      </trkpt>
      <trkpt lat="42.431423" lon="1.240614">
        <ele>1840.572</ele>
        <time>2021-06-19T14:43:42Z</time>
      </trkpt>
      <trkpt lat="42.431248" lon="1.240743">
        <ele>1841.799</ele>
        <time>2021-06-19T14:43:49Z</time>
      </trkpt>
      <trkpt lat="42.431226" lon="1.240767">
        <ele>1841.696</ele>
        <time>2021-06-19T14:43:50Z</time>
      </trkpt>
      <trkpt lat="42.431110" lon="1.240968">
        <ele>1841.131</ele>
        <time>2021-06-19T14:43:56Z</time>
      </trkpt>
      <trkpt lat="42.431014" lon="1.241151">
        <ele>1842.324</ele>
        <time>2021-06-19T14:44:02Z</time>
      </trkpt>
      <trkpt lat="42.430965" lon="1.241235">
        <ele>1843.008</ele>
        <time>2021-06-19T14:44:05Z</time>
      </trkpt>
      <trkpt lat="42.430938" lon="1.241291">
        <ele>1843.336</ele>
        <time>2021-06-19T14:44:07Z</time>
      </trkpt>
      <trkpt lat="42.430867" lon="1.241468">
        <ele>1844.245</ele>
        <time>2021-06-19T14:44:14Z</time>
      </trkpt>
      <trkpt lat="42.430858" lon="1.241491">
        <ele>1844.411</ele>
        <time>2021-06-19T14:44:15Z</time>
      </trkpt>
      <trkpt lat="42.430814" lon="1.241626">
        <ele>1844.915</ele>
        <time>2021-06-19T14:44:21Z</time>
      </trkpt>
      <trkpt lat="42.430801" lon="1.241654">
        <ele>1845.119</ele>
        <time>2021-06-19T14:44:22Z</time>
      </trkpt>
      <trkpt lat="42.430737" lon="1.241790">
        <ele>1845.939</ele>
        <time>2021-06-19T14:44:26Z</time>
      </trkpt>
      <trkpt lat="42.430680" lon="1.241946">
        <ele>1845.862</ele>
        <time>2021-06-19T14:44:31Z</time>
      </trkpt>
      <trkpt lat="42.430535" lon="1.242155">
        <ele>1845.239</ele>
        <time>2021-06-19T14:44:38Z</time>
      </trkpt>
      <trkpt lat="42.430390" lon="1.242251">
        <ele>1842.923</ele>
        <time>2021-06-19T14:44:43Z</time>
      </trkpt>
      <trkpt lat="42.430280" lon="1.242218">
        <ele>1844.183</ele>
        <time>2021-06-19T14:44:46Z</time>
      </trkpt>
      <trkpt lat="42.430242" lon="1.242199">
        <ele>1843.311</ele>
        <time>2021-06-19T14:44:47Z</time>
      </trkpt>
      <trkpt lat="42.430166" lon="1.242148">
        <ele>1842.008</ele>
        <time>2021-06-19T14:44:49Z</time>
      </trkpt>
      <trkpt lat="42.430083" lon="1.242061">
        <ele>1841.559</ele>
        <time>2021-06-19T14:44:51Z</time>
      </trkpt>
      <trkpt lat="42.429942" lon="1.241918">
        <ele>1840.218</ele>
        <time>2021-06-19T14:44:54Z</time>
      </trkpt>
      <trkpt lat="42.429893" lon="1.241872">
        <ele>1839.514</ele>
        <time>2021-06-19T14:44:55Z</time>
      </trkpt>
      <trkpt lat="42.429844" lon="1.241819">
        <ele>1839.098</ele>
        <time>2021-06-19T14:44:56Z</time>
      </trkpt>
      <trkpt lat="42.429796" lon="1.241770">
        <ele>1838.362</ele>
        <time>2021-06-19T14:44:57Z</time>
      </trkpt>
      <trkpt lat="42.429695" lon="1.241662">
        <ele>1836.882</ele>
        <time>2021-06-19T14:44:59Z</time>
      </trkpt>
      <trkpt lat="42.429599" lon="1.241555">
        <ele>1836.375</ele>
        <time>2021-06-19T14:45:01Z</time>
      </trkpt>
      <trkpt lat="42.429556" lon="1.241500">
        <ele>1836.112</ele>
        <time>2021-06-19T14:45:02Z</time>
      </trkpt>
      <trkpt lat="42.429517" lon="1.241447">
        <ele>1836.084</ele>
        <time>2021-06-19T14:45:03Z</time>
      </trkpt>
      <trkpt lat="42.429428" lon="1.241341">
        <ele>1835.507</ele>
        <time>2021-06-19T14:45:05Z</time>
      </trkpt>
      <trkpt lat="42.429382" lon="1.241300">
        <ele>1835.717</ele>
        <time>2021-06-19T14:45:06Z</time>
      </trkpt>
      <trkpt lat="42.429332" lon="1.241266">
        <ele>1835.508</ele>
        <time>2021-06-19T14:45:07Z</time>
      </trkpt>
      <trkpt lat="42.429200" lon="1.241198">
        <ele>1833.725</ele>
        <time>2021-06-19T14:45:10Z</time>
      </trkpt>
      <trkpt lat="42.429114" lon="1.241220">
        <ele>1832.564</ele>
        <time>2021-06-19T14:45:12Z</time>
      </trkpt>
      <trkpt lat="42.429045" lon="1.241308">
        <ele>1831.140</ele>
        <time>2021-06-19T14:45:14Z</time>
      </trkpt>
      <trkpt lat="42.429024" lon="1.241355">
        <ele>1830.534</ele>
        <time>2021-06-19T14:45:15Z</time>
      </trkpt>
      <trkpt lat="42.428862" lon="1.241713">
        <ele>1829.538</ele>
        <time>2021-06-19T14:45:23Z</time>
      </trkpt>
      <trkpt lat="42.428740" lon="1.241881">
        <ele>1832.658</ele>
        <time>2021-06-19T14:45:28Z</time>
      </trkpt>
      <trkpt lat="42.428639" lon="1.242067">
        <ele>1833.571</ele>
        <time>2021-06-19T14:45:34Z</time>
      </trkpt>
      <trkpt lat="42.428532" lon="1.242222">
        <ele>1835.078</ele>
        <time>2021-06-19T14:45:41Z</time>
      </trkpt>
      <trkpt lat="42.428510" lon="1.242263">
        <ele>1835.159</ele>
        <time>2021-06-19T14:45:43Z</time>
      </trkpt>
      <trkpt lat="42.428459" lon="1.242331">
        <ele>1835.703</ele>
        <time>2021-06-19T14:45:47Z</time>
      </trkpt>
      <trkpt lat="42.428446" lon="1.242349">
        <ele>1835.823</ele>
        <time>2021-06-19T14:45:48Z</time>
      </trkpt>
      <trkpt lat="42.428409" lon="1.242399">
        <ele>1836.008</ele>
        <time>2021-06-19T14:45:51Z</time>
      </trkpt>
      <trkpt lat="42.428376" lon="1.242427">
        <ele>1836.652</ele>
        <time>2021-06-19T14:45:53Z</time>
      </trkpt>
      <trkpt lat="42.428340" lon="1.242455">
        <ele>1837.251</ele>
        <time>2021-06-19T14:45:55Z</time>
      </trkpt>
      <trkpt lat="42.428288" lon="1.242493">
        <ele>1837.217</ele>
        <time>2021-06-19T14:45:59Z</time>
      </trkpt>
      <trkpt lat="42.428255" lon="1.242518">
        <ele>1837.071</ele>
        <time>2021-06-19T14:46:01Z</time>
      </trkpt>
      <trkpt lat="42.428169" lon="1.242547">
        <ele>1837.775</ele>
        <time>2021-06-19T14:46:06Z</time>
      </trkpt>
      <trkpt lat="42.428132" lon="1.242561">
        <ele>1837.975</ele>
        <time>2021-06-19T14:46:08Z</time>
      </trkpt>
      <trkpt lat="42.428114" lon="1.242562">
        <ele>1838.378</ele>
        <time>2021-06-19T14:46:09Z</time>
      </trkpt>
      <trkpt lat="42.428033" lon="1.242574">
        <ele>1839.675</ele>
        <time>2021-06-19T14:46:14Z</time>
      </trkpt>
      <trkpt lat="42.427951" lon="1.242618">
        <ele>1839.811</ele>
        <time>2021-06-19T14:46:18Z</time>
      </trkpt>
      <trkpt lat="42.427898" lon="1.242639">
        <ele>1840.221</ele>
        <time>2021-06-19T14:46:21Z</time>
      </trkpt>
      <trkpt lat="42.427866" lon="1.242642">
        <ele>1840.803</ele>
        <time>2021-06-19T14:46:23Z</time>
      </trkpt>
      <trkpt lat="42.427848" lon="1.242644">
        <ele>1841.108</ele>
        <time>2021-06-19T14:46:24Z</time>
      </trkpt>
      <trkpt lat="42.427790" lon="1.242661">
        <ele>1841.858</ele>
        <time>2021-06-19T14:46:27Z</time>
      </trkpt>
      <trkpt lat="42.427770" lon="1.242668">
        <ele>1841.957</ele>
        <time>2021-06-19T14:46:28Z</time>
      </trkpt>
      <trkpt lat="42.427733" lon="1.242679">
        <ele>1842.213</ele>
        <time>2021-06-19T14:46:30Z</time>
      </trkpt>
      <trkpt lat="42.427677" lon="1.242722">
        <ele>1841.667</ele>
        <time>2021-06-19T14:46:32Z</time>
      </trkpt>
      <trkpt lat="42.427630" lon="1.242744">
        <ele>1841.781</ele>
        <time>2021-06-19T14:46:34Z</time>
      </trkpt>
      <trkpt lat="42.427524" lon="1.242772">
        <ele>1842.731</ele>
        <time>2021-06-19T14:46:39Z</time>
      </trkpt>
      <trkpt lat="42.427362" lon="1.242804">
        <ele>1843.364</ele>
        <time>2021-06-19T14:46:45Z</time>
      </trkpt>
      <trkpt lat="42.427156" lon="1.242903">
        <ele>1841.341</ele>
        <time>2021-06-19T14:46:50Z</time>
      </trkpt>
      <trkpt lat="42.427024" lon="1.242962">
        <ele>1840.299</ele>
        <time>2021-06-19T14:46:53Z</time>
      </trkpt>
      <trkpt lat="42.426924" lon="1.242980">
        <ele>1840.307</ele>
        <time>2021-06-19T14:46:55Z</time>
      </trkpt>
      <trkpt lat="42.426831" lon="1.242976">
        <ele>1840.427</ele>
        <time>2021-06-19T14:46:57Z</time>
      </trkpt>
      <trkpt lat="42.426793" lon="1.242989">
        <ele>1839.908</ele>
        <time>2021-06-19T14:46:58Z</time>
      </trkpt>
      <trkpt lat="42.426763" lon="1.243020">
        <ele>1838.596</ele>
        <time>2021-06-19T14:46:59Z</time>
      </trkpt>
      <trkpt lat="42.426723" lon="1.243176">
        <ele>1833.835</ele>
        <time>2021-06-19T14:47:02Z</time>
      </trkpt>
      <trkpt lat="42.426711" lon="1.243236">
        <ele>1832.461</ele>
        <time>2021-06-19T14:47:03Z</time>
      </trkpt>
      <trkpt lat="42.426691" lon="1.243309">
        <ele>1831.055</ele>
        <time>2021-06-19T14:47:04Z</time>
      </trkpt>
      <trkpt lat="42.426663" lon="1.243447">
        <ele>1830.029</ele>
        <time>2021-06-19T14:47:06Z</time>
      </trkpt>
      <trkpt lat="42.426660" lon="1.243519">
        <ele>1829.399</ele>
        <time>2021-06-19T14:47:07Z</time>
      </trkpt>
      <trkpt lat="42.426665" lon="1.243584">
        <ele>1828.422</ele>
        <time>2021-06-19T14:47:08Z</time>
      </trkpt>
      <trkpt lat="42.426690" lon="1.243662">
        <ele>1828.839</ele>
        <time>2021-06-19T14:47:10Z</time>
      </trkpt>
      <trkpt lat="42.426701" lon="1.243685">
        <ele>1829.286</ele>
        <time>2021-06-19T14:47:11Z</time>
      </trkpt>
      <trkpt lat="42.426755" lon="1.243802">
        <ele>1831.060</ele>
        <time>2021-06-19T14:47:15Z</time>
      </trkpt>
      <trkpt lat="42.426759" lon="1.243829">
        <ele>1831.726</ele>
        <time>2021-06-19T14:47:16Z</time>
      </trkpt>
      <trkpt lat="42.426808" lon="1.243926">
        <ele>1833.208</ele>
        <time>2021-06-19T14:47:21Z</time>
      </trkpt>
      <trkpt lat="42.426822" lon="1.243943">
        <ele>1833.295</ele>
        <time>2021-06-19T14:47:22Z</time>
      </trkpt>
      <trkpt lat="42.426917" lon="1.244072">
        <ele>1834.024</ele>
        <time>2021-06-19T14:47:30Z</time>
      </trkpt>
      <trkpt lat="42.426995" lon="1.244177">
        <ele>1834.720</ele>
        <time>2021-06-19T14:47:37Z</time>
      </trkpt>
      <trkpt lat="42.427016" lon="1.244203">
        <ele>1835.024</ele>
        <time>2021-06-19T14:47:39Z</time>
      </trkpt>
      <trkpt lat="42.427054" lon="1.244281">
        <ele>1836.658</ele>
        <time>2021-06-19T14:47:44Z</time>
      </trkpt>
      <trkpt lat="42.427092" lon="1.244360">
        <ele>1838.298</ele>
        <time>2021-06-19T14:47:48Z</time>
      </trkpt>
      <trkpt lat="42.427132" lon="1.244450">
        <ele>1840.151</ele>
        <time>2021-06-19T14:47:52Z</time>
      </trkpt>
      <trkpt lat="42.427149" lon="1.244475">
        <ele>1840.548</ele>
        <time>2021-06-19T14:47:54Z</time>
      </trkpt>
      <trkpt lat="42.427167" lon="1.244520">
        <ele>1841.536</ele>
        <time>2021-06-19T14:47:57Z</time>
      </trkpt>
      <trkpt lat="42.427208" lon="1.244562">
        <ele>1841.717</ele>
        <time>2021-06-19T14:48:00Z</time>
      </trkpt>
      <trkpt lat="42.427245" lon="1.244601">
        <ele>1841.918</ele>
        <time>2021-06-19T14:48:03Z</time>
      </trkpt>
      <trkpt lat="42.427311" lon="1.244681">
        <ele>1842.608</ele>
        <time>2021-06-19T14:48:08Z</time>
      </trkpt>
      <trkpt lat="42.427362" lon="1.244735">
        <ele>1842.970</ele>
        <time>2021-06-19T14:48:11Z</time>
      </trkpt>
      <trkpt lat="42.427389" lon="1.244771">
        <ele>1843.329</ele>
        <time>2021-06-19T14:48:13Z</time>
      </trkpt>
      <trkpt lat="42.427473" lon="1.244849">
        <ele>1843.435</ele>
        <time>2021-06-19T14:48:18Z</time>
      </trkpt>
      <trkpt lat="42.427482" lon="1.244862">
        <ele>1843.669</ele>
        <time>2021-06-19T14:48:19Z</time>
      </trkpt>
      <trkpt lat="42.427547" lon="1.244956">
        <ele>1844.813</ele>
        <time>2021-06-19T14:48:24Z</time>
      </trkpt>
      <trkpt lat="42.427587" lon="1.245000">
        <ele>1844.943</ele>
        <time>2021-06-19T14:48:27Z</time>
      </trkpt>
      <trkpt lat="42.427591" lon="1.245012">
        <ele>1845.146</ele>
        <time>2021-06-19T14:48:28Z</time>
      </trkpt>
      <trkpt lat="42.427603" lon="1.245032">
        <ele>1845.353</ele>
        <time>2021-06-19T14:48:29Z</time>
      </trkpt>
      <trkpt lat="42.427649" lon="1.245100">
        <ele>1845.939</ele>
        <time>2021-06-19T14:48:34Z</time>
      </trkpt>
      <trkpt lat="42.427663" lon="1.245110">
        <ele>1845.701</ele>
        <time>2021-06-19T14:48:35Z</time>
      </trkpt>
      <trkpt lat="42.427684" lon="1.245120">
        <ele>1845.321</ele>
        <time>2021-06-19T14:48:36Z</time>
      </trkpt>
      <trkpt lat="42.427709" lon="1.245150">
        <ele>1845.308</ele>
        <time>2021-06-19T14:48:38Z</time>
      </trkpt>
      <trkpt lat="42.427762" lon="1.245227">
        <ele>1845.920</ele>
        <time>2021-06-19T14:48:42Z</time>
      </trkpt>
      <trkpt lat="42.427770" lon="1.245251">
        <ele>1846.419</ele>
        <time>2021-06-19T14:48:43Z</time>
      </trkpt>
      <trkpt lat="42.427797" lon="1.245314">
        <ele>1847.525</ele>
        <time>2021-06-19T14:48:46Z</time>
      </trkpt>
      <trkpt lat="42.427828" lon="1.245365">
        <ele>1848.049</ele>
        <time>2021-06-19T14:48:49Z</time>
      </trkpt>
      <trkpt lat="42.427871" lon="1.245420">
        <ele>1848.373</ele>
        <time>2021-06-19T14:48:52Z</time>
      </trkpt>
      <trkpt lat="42.427916" lon="1.245496">
        <ele>1849.153</ele>
        <time>2021-06-19T14:48:57Z</time>
      </trkpt>
      <trkpt lat="42.427933" lon="1.245525">
        <ele>1849.476</ele>
        <time>2021-06-19T14:48:59Z</time>
      </trkpt>
      <trkpt lat="42.427943" lon="1.245542">
        <ele>1849.613</ele>
        <time>2021-06-19T14:49:00Z</time>
      </trkpt>
      <trkpt lat="42.427972" lon="1.245591">
        <ele>1849.942</ele>
        <time>2021-06-19T14:49:03Z</time>
      </trkpt>
      <trkpt lat="42.428011" lon="1.245643">
        <ele>1849.822</ele>
        <time>2021-06-19T14:49:05Z</time>
      </trkpt>
      <trkpt lat="42.428083" lon="1.245760">
        <ele>1850.114</ele>
        <time>2021-06-19T14:49:11Z</time>
      </trkpt>
      <trkpt lat="42.428113" lon="1.245792">
        <ele>1849.708</ele>
        <time>2021-06-19T14:49:13Z</time>
      </trkpt>
      <trkpt lat="42.428196" lon="1.245909">
        <ele>1849.351</ele>
        <time>2021-06-19T14:49:20Z</time>
      </trkpt>
      <trkpt lat="42.428206" lon="1.245931">
        <ele>1849.550</ele>
        <time>2021-06-19T14:49:21Z</time>
      </trkpt>
      <trkpt lat="42.428228" lon="1.246026">
        <ele>1851.216</ele>
        <time>2021-06-19T14:49:26Z</time>
      </trkpt>
      <trkpt lat="42.428233" lon="1.246044">
        <ele>1851.520</ele>
        <time>2021-06-19T14:49:27Z</time>
      </trkpt>
      <trkpt lat="42.428243" lon="1.246068">
        <ele>1851.824</ele>
        <time>2021-06-19T14:49:28Z</time>
      </trkpt>
      <trkpt lat="42.428246" lon="1.246102">
        <ele>1852.694</ele>
        <time>2021-06-19T14:49:30Z</time>
      </trkpt>
      <trkpt lat="42.428272" lon="1.246164">
        <ele>1852.847</ele>
        <time>2021-06-19T14:49:33Z</time>
      </trkpt>
      <trkpt lat="42.428270" lon="1.246181">
        <ele>1853.234</ele>
        <time>2021-06-19T14:49:34Z</time>
      </trkpt>
      <trkpt lat="42.428279" lon="1.246219">
        <ele>1853.586</ele>
        <time>2021-06-19T14:49:36Z</time>
      </trkpt>
      <trkpt lat="42.428288" lon="1.246279">
        <ele>1854.160</ele>
        <time>2021-06-19T14:49:39Z</time>
      </trkpt>
      <trkpt lat="42.428302" lon="1.246307">
        <ele>1854.026</ele>
        <time>2021-06-19T14:49:40Z</time>
      </trkpt>
      <trkpt lat="42.428340" lon="1.246453">
        <ele>1854.908</ele>
        <time>2021-06-19T14:49:46Z</time>
      </trkpt>
      <trkpt lat="42.428340" lon="1.246499">
        <ele>1855.715</ele>
        <time>2021-06-19T14:49:48Z</time>
      </trkpt>
      <trkpt lat="42.428381" lon="1.246650">
        <ele>1856.514</ele>
        <time>2021-06-19T14:49:54Z</time>
      </trkpt>
      <trkpt lat="42.428382" lon="1.246740">
        <ele>1856.870</ele>
        <time>2021-06-19T14:49:58Z</time>
      </trkpt>
      <trkpt lat="42.428382" lon="1.246789">
        <ele>1856.944</ele>
        <time>2021-06-19T14:50:00Z</time>
      </trkpt>
      <trkpt lat="42.428358" lon="1.246975">
        <ele>1857.798</ele>
        <time>2021-06-19T14:50:07Z</time>
      </trkpt>
      <trkpt lat="42.428291" lon="1.247131">
        <ele>1858.318</ele>
        <time>2021-06-19T14:50:13Z</time>
      </trkpt>
      <trkpt lat="42.428188" lon="1.247297">
        <ele>1858.781</ele>
        <time>2021-06-19T14:50:20Z</time>
      </trkpt>
      <trkpt lat="42.428067" lon="1.247459">
        <ele>1858.658</ele>
        <time>2021-06-19T14:50:28Z</time>
      </trkpt>
      <trkpt lat="42.427948" lon="1.247624">
        <ele>1858.082</ele>
        <time>2021-06-19T14:50:35Z</time>
      </trkpt>
      <trkpt lat="42.427813" lon="1.247809">
        <ele>1857.043</ele>
        <time>2021-06-19T14:50:41Z</time>
      </trkpt>
      <trkpt lat="42.427618" lon="1.248033">
        <ele>1857.017</ele>
        <time>2021-06-19T14:50:48Z</time>
      </trkpt>
      <trkpt lat="42.427468" lon="1.248246">
        <ele>1856.908</ele>
        <time>2021-06-19T14:50:54Z</time>
      </trkpt>
      <trkpt lat="42.427347" lon="1.248431">
        <ele>1856.835</ele>
        <time>2021-06-19T14:50:59Z</time>
      </trkpt>
      <trkpt lat="42.427255" lon="1.248561">
        <ele>1857.074</ele>
        <time>2021-06-19T14:51:02Z</time>
      </trkpt>
      <trkpt lat="42.427166" lon="1.248699">
        <ele>1857.520</ele>
        <time>2021-06-19T14:51:05Z</time>
      </trkpt>
      <trkpt lat="42.427120" lon="1.248874">
        <ele>1855.184</ele>
        <time>2021-06-19T14:51:09Z</time>
      </trkpt>
      <trkpt lat="42.427129" lon="1.248899">
        <ele>1854.648</ele>
        <time>2021-06-19T14:51:10Z</time>
      </trkpt>
      <trkpt lat="42.427190" lon="1.248984">
        <ele>1854.958</ele>
        <time>2021-06-19T14:51:13Z</time>
      </trkpt>
      <trkpt lat="42.427330" lon="1.249147">
        <ele>1854.961</ele>
        <time>2021-06-19T14:51:20Z</time>
      </trkpt>
      <trkpt lat="42.427383" lon="1.249240">
        <ele>1855.928</ele>
        <time>2021-06-19T14:51:26Z</time>
      </trkpt>
      <trkpt lat="42.427404" lon="1.249274">
        <ele>1856.258</ele>
        <time>2021-06-19T14:51:28Z</time>
      </trkpt>
      <trkpt lat="42.427441" lon="1.249327">
        <ele>1856.552</ele>
        <time>2021-06-19T14:51:32Z</time>
      </trkpt>
      <trkpt lat="42.427470" lon="1.249371">
        <ele>1856.917</ele>
        <time>2021-06-19T14:51:35Z</time>
      </trkpt>
      <trkpt lat="42.427508" lon="1.249426">
        <ele>1857.208</ele>
        <time>2021-06-19T14:51:38Z</time>
      </trkpt>
      <trkpt lat="42.427567" lon="1.249543">
        <ele>1857.052</ele>
        <time>2021-06-19T14:51:43Z</time>
      </trkpt>
      <trkpt lat="42.427621" lon="1.249750">
        <ele>1858.211</ele>
        <time>2021-06-19T14:51:51Z</time>
      </trkpt>
      <trkpt lat="42.427642" lon="1.249877">
        <ele>1859.447</ele>
        <time>2021-06-19T14:51:56Z</time>
      </trkpt>
      <trkpt lat="42.427650" lon="1.249955">
        <ele>1860.341</ele>
        <time>2021-06-19T14:51:59Z</time>
      </trkpt>
      <trkpt lat="42.427694" lon="1.250069">
        <ele>1861.295</ele>
        <time>2021-06-19T14:52:04Z</time>
      </trkpt>
      <trkpt lat="42.427709" lon="1.250107">
        <ele>1861.625</ele>
        <time>2021-06-19T14:52:06Z</time>
      </trkpt>
      <trkpt lat="42.427797" lon="1.250229">
        <ele>1861.948</ele>
        <time>2021-06-19T14:52:12Z</time>
      </trkpt>
      <trkpt lat="42.427885" lon="1.250354">
        <ele>1861.925</ele>
        <time>2021-06-19T14:52:17Z</time>
      </trkpt>
      <trkpt lat="42.428024" lon="1.250564">
        <ele>1862.511</ele>
        <time>2021-06-19T14:52:25Z</time>
      </trkpt>
      <trkpt lat="42.428089" lon="1.250666">
        <ele>1863.021</ele>
        <time>2021-06-19T14:52:29Z</time>
      </trkpt>
      <trkpt lat="42.428132" lon="1.250738">
        <ele>1863.603</ele>
        <time>2021-06-19T14:52:32Z</time>
      </trkpt>
      <trkpt lat="42.428231" lon="1.250886">
        <ele>1864.408</ele>
        <time>2021-06-19T14:52:39Z</time>
      </trkpt>
      <trkpt lat="42.428298" lon="1.250974">
        <ele>1865.228</ele>
        <time>2021-06-19T14:52:45Z</time>
      </trkpt>
      <trkpt lat="42.428336" lon="1.251017">
        <ele>1865.557</ele>
        <time>2021-06-19T14:52:49Z</time>
      </trkpt>
      <trkpt lat="42.428345" lon="1.251044">
        <ele>1866.343</ele>
        <time>2021-06-19T14:52:51Z</time>
      </trkpt>
      <trkpt lat="42.428349" lon="1.251053">
        <ele>1866.537</ele>
        <time>2021-06-19T14:52:52Z</time>
      </trkpt>
      <trkpt lat="42.428401" lon="1.251102">
        <ele>1867.021</ele>
        <time>2021-06-19T14:52:56Z</time>
      </trkpt>
      <trkpt lat="42.428494" lon="1.251174">
        <ele>1867.011</ele>
        <time>2021-06-19T14:53:02Z</time>
      </trkpt>
      <trkpt lat="42.428513" lon="1.251190">
        <ele>1867.024</ele>
        <time>2021-06-19T14:53:03Z</time>
      </trkpt>
      <trkpt lat="42.428607" lon="1.251270">
        <ele>1867.381</ele>
        <time>2021-06-19T14:53:08Z</time>
      </trkpt>
      <trkpt lat="42.428689" lon="1.251312">
        <ele>1867.368</ele>
        <time>2021-06-19T14:53:13Z</time>
      </trkpt>
      <trkpt lat="42.428761" lon="1.251347">
        <ele>1867.442</ele>
        <time>2021-06-19T14:53:17Z</time>
      </trkpt>
      <trkpt lat="42.428809" lon="1.251366">
        <ele>1867.326</ele>
        <time>2021-06-19T14:53:20Z</time>
      </trkpt>
      <trkpt lat="42.428868" lon="1.251394">
        <ele>1867.508</ele>
        <time>2021-06-19T14:53:24Z</time>
      </trkpt>
      <trkpt lat="42.428895" lon="1.251418">
        <ele>1868.133</ele>
        <time>2021-06-19T14:53:26Z</time>
      </trkpt>
      <trkpt lat="42.428921" lon="1.251441">
        <ele>1868.752</ele>
        <time>2021-06-19T14:53:28Z</time>
      </trkpt>
      <trkpt lat="42.428975" lon="1.251493">
        <ele>1870.198</ele>
        <time>2021-06-19T14:53:32Z</time>
      </trkpt>
      <trkpt lat="42.429018" lon="1.251525">
        <ele>1870.832</ele>
        <time>2021-06-19T14:53:35Z</time>
      </trkpt>
      <trkpt lat="42.429051" lon="1.251545">
        <ele>1871.176</ele>
        <time>2021-06-19T14:53:37Z</time>
      </trkpt>
      <trkpt lat="42.429119" lon="1.251600">
        <ele>1872.236</ele>
        <time>2021-06-19T14:53:42Z</time>
      </trkpt>
      <trkpt lat="42.429133" lon="1.251615">
        <ele>1872.679</ele>
        <time>2021-06-19T14:53:43Z</time>
      </trkpt>
      <trkpt lat="42.429210" lon="1.251681">
        <ele>1873.956</ele>
        <time>2021-06-19T14:53:48Z</time>
      </trkpt>
      <trkpt lat="42.429236" lon="1.251702">
        <ele>1874.341</ele>
        <time>2021-06-19T14:53:50Z</time>
      </trkpt>
      <trkpt lat="42.429312" lon="1.251754">
        <ele>1875.281</ele>
        <time>2021-06-19T14:53:56Z</time>
      </trkpt>
      <trkpt lat="42.429392" lon="1.251771">
        <ele>1874.809</ele>
        <time>2021-06-19T14:54:02Z</time>
      </trkpt>
      <trkpt lat="42.429412" lon="1.251778">
        <ele>1874.808</ele>
        <time>2021-06-19T14:54:03Z</time>
      </trkpt>
      <trkpt lat="42.429559" lon="1.251824">
        <ele>1875.041</ele>
        <time>2021-06-19T14:54:11Z</time>
      </trkpt>
      <trkpt lat="42.429625" lon="1.251841">
        <ele>1875.050</ele>
        <time>2021-06-19T14:54:16Z</time>
      </trkpt>
      <trkpt lat="42.430295" lon="1.252170">
        <ele>1880.666</ele>
        <time>2021-06-19T15:07:26Z</time>
      </trkpt>
      <trkpt lat="42.430354" lon="1.252172">
        <ele>1880.070</ele>
        <time>2021-06-19T15:07:29Z</time>
      </trkpt>
      <trkpt lat="42.430498" lon="1.252194">
        <ele>1879.424</ele>
        <time>2021-06-19T15:07:34Z</time>
      </trkpt>
      <trkpt lat="42.430602" lon="1.252249">
        <ele>1880.864</ele>
        <time>2021-06-19T15:07:40Z</time>
      </trkpt>
      <trkpt lat="42.430691" lon="1.252291">
        <ele>1881.947</ele>
        <time>2021-06-19T15:07:44Z</time>
      </trkpt>
      <trkpt lat="42.430717" lon="1.252308">
        <ele>1882.414</ele>
        <time>2021-06-19T15:07:45Z</time>
      </trkpt>
      <trkpt lat="42.430743" lon="1.252314">
        <ele>1882.464</ele>
        <time>2021-06-19T15:07:46Z</time>
      </trkpt>
      <trkpt lat="42.430804" lon="1.252350">
        <ele>1883.306</ele>
        <time>2021-06-19T15:07:50Z</time>
      </trkpt>
      <trkpt lat="42.430845" lon="1.252371">
        <ele>1883.816</ele>
        <time>2021-06-19T15:07:52Z</time>
      </trkpt>
      <trkpt lat="42.430929" lon="1.252401">
        <ele>1884.708</ele>
        <time>2021-06-19T15:07:57Z</time>
      </trkpt>
      <trkpt lat="42.430941" lon="1.252401">
        <ele>1884.723</ele>
        <time>2021-06-19T15:07:58Z</time>
      </trkpt>
      <trkpt lat="42.431019" lon="1.252420">
        <ele>1885.292</ele>
        <time>2021-06-19T15:08:03Z</time>
      </trkpt>
      <trkpt lat="42.431036" lon="1.252428">
        <ele>1885.418</ele>
        <time>2021-06-19T15:08:04Z</time>
      </trkpt>
      <trkpt lat="42.431092" lon="1.252452">
        <ele>1886.262</ele>
        <time>2021-06-19T15:08:07Z</time>
      </trkpt>
      <trkpt lat="42.431204" lon="1.252460">
        <ele>1886.446</ele>
        <time>2021-06-19T15:08:12Z</time>
      </trkpt>
      <trkpt lat="42.431387" lon="1.252457">
        <ele>1886.366</ele>
        <time>2021-06-19T15:08:19Z</time>
      </trkpt>
      <trkpt lat="42.431516" lon="1.252453">
        <ele>1886.749</ele>
        <time>2021-06-19T15:08:25Z</time>
      </trkpt>
      <trkpt lat="42.431645" lon="1.252455">
        <ele>1887.366</ele>
        <time>2021-06-19T15:08:31Z</time>
      </trkpt>
      <trkpt lat="42.431752" lon="1.252472">
        <ele>1888.968</ele>
        <time>2021-06-19T15:08:36Z</time>
      </trkpt>
      <trkpt lat="42.431803" lon="1.252487">
        <ele>1890.042</ele>
        <time>2021-06-19T15:08:38Z</time>
      </trkpt>
      <trkpt lat="42.431903" lon="1.252479">
        <ele>1890.726</ele>
        <time>2021-06-19T15:08:43Z</time>
      </trkpt>
      <trkpt lat="42.431926" lon="1.252479">
        <ele>1891.008</ele>
        <time>2021-06-19T15:08:44Z</time>
      </trkpt>
      <trkpt lat="42.432019" lon="1.252483">
        <ele>1891.983</ele>
        <time>2021-06-19T15:08:49Z</time>
      </trkpt>
      <trkpt lat="42.432057" lon="1.252482">
        <ele>1892.162</ele>
        <time>2021-06-19T15:08:51Z</time>
      </trkpt>
      <trkpt lat="42.432127" lon="1.252483">
        <ele>1892.788</ele>
        <time>2021-06-19T15:08:55Z</time>
      </trkpt>
      <trkpt lat="42.432167" lon="1.252485">
        <ele>1893.162</ele>
        <time>2021-06-19T15:08:57Z</time>
      </trkpt>
      <trkpt lat="42.432224" lon="1.252493">
        <ele>1893.776</ele>
        <time>2021-06-19T15:09:00Z</time>
      </trkpt>
      <trkpt lat="42.432279" lon="1.252514">
        <ele>1894.446</ele>
        <time>2021-06-19T15:09:04Z</time>
      </trkpt>
      <trkpt lat="42.432351" lon="1.252556">
        <ele>1895.529</ele>
        <time>2021-06-19T15:09:09Z</time>
      </trkpt>
      <trkpt lat="42.432393" lon="1.252581">
        <ele>1896.156</ele>
        <time>2021-06-19T15:09:11Z</time>
      </trkpt>
      <trkpt lat="42.432499" lon="1.252669">
        <ele>1897.746</ele>
        <time>2021-06-19T15:09:17Z</time>
      </trkpt>
      <trkpt lat="42.432514" lon="1.252681">
        <ele>1897.788</ele>
        <time>2021-06-19T15:09:18Z</time>
      </trkpt>
      <trkpt lat="42.432562" lon="1.252735">
        <ele>1898.216</ele>
        <time>2021-06-19T15:09:22Z</time>
      </trkpt>
      <trkpt lat="42.432592" lon="1.252777">
        <ele>1898.708</ele>
        <time>2021-06-19T15:09:25Z</time>
      </trkpt>
      <trkpt lat="42.432613" lon="1.252832">
        <ele>1899.341</ele>
        <time>2021-06-19T15:09:28Z</time>
      </trkpt>
      <trkpt lat="42.432668" lon="1.252913">
        <ele>1900.030</ele>
        <time>2021-06-19T15:09:32Z</time>
      </trkpt>
      <trkpt lat="42.432899" lon="1.253099">
        <ele>1899.186</ele>
        <time>2021-06-19T15:09:38Z</time>
      </trkpt>
      <trkpt lat="42.432997" lon="1.253244">
        <ele>1899.520</ele>
        <time>2021-06-19T15:09:41Z</time>
      </trkpt>
      <trkpt lat="42.433014" lon="1.253284">
        <ele>1899.954</ele>
        <time>2021-06-19T15:09:42Z</time>
      </trkpt>
      <trkpt lat="42.433079" lon="1.253484">
        <ele>1901.144</ele>
        <time>2021-06-19T15:09:48Z</time>
      </trkpt>
      <trkpt lat="42.433089" lon="1.253588">
        <ele>1902.097</ele>
        <time>2021-06-19T15:09:52Z</time>
      </trkpt>
      <trkpt lat="42.433092" lon="1.253803">
        <ele>1902.984</ele>
        <time>2021-06-19T15:09:59Z</time>
      </trkpt>
      <trkpt lat="42.433086" lon="1.253837">
        <ele>1903.215</ele>
        <time>2021-06-19T15:10:00Z</time>
      </trkpt>
      <trkpt lat="42.433101" lon="1.253998">
        <ele>1903.065</ele>
        <time>2021-06-19T15:10:06Z</time>
      </trkpt>
      <trkpt lat="42.433095" lon="1.254047">
        <ele>1903.111</ele>
        <time>2021-06-19T15:10:08Z</time>
      </trkpt>
      <trkpt lat="42.433041" lon="1.254149">
        <ele>1904.308</ele>
        <time>2021-06-19T15:10:12Z</time>
      </trkpt>
      <trkpt lat="42.432958" lon="1.254330">
        <ele>1904.628</ele>
        <time>2021-06-19T15:10:19Z</time>
      </trkpt>
      <trkpt lat="42.432931" lon="1.254367">
        <ele>1904.897</ele>
        <time>2021-06-19T15:10:21Z</time>
      </trkpt>
      <trkpt lat="42.432865" lon="1.254481">
        <ele>1905.123</ele>
        <time>2021-06-19T15:10:26Z</time>
      </trkpt>
      <trkpt lat="42.432847" lon="1.254503">
        <ele>1905.387</ele>
        <time>2021-06-19T15:10:27Z</time>
      </trkpt>
      <trkpt lat="42.432814" lon="1.254548">
        <ele>1905.611</ele>
        <time>2021-06-19T15:10:29Z</time>
      </trkpt>
      <trkpt lat="42.432712" lon="1.254678">
        <ele>1906.721</ele>
        <time>2021-06-19T15:10:35Z</time>
      </trkpt>
      <trkpt lat="42.432660" lon="1.254734">
        <ele>1907.464</ele>
        <time>2021-06-19T15:10:38Z</time>
      </trkpt>
      <trkpt lat="42.432623" lon="1.254798">
        <ele>1907.451</ele>
        <time>2021-06-19T15:10:41Z</time>
      </trkpt>
      <trkpt lat="42.432558" lon="1.254875">
        <ele>1907.744</ele>
        <time>2021-06-19T15:10:45Z</time>
      </trkpt>
      <trkpt lat="42.432539" lon="1.254897">
        <ele>1907.705</ele>
        <time>2021-06-19T15:10:46Z</time>
      </trkpt>
      <trkpt lat="42.432458" lon="1.255003">
        <ele>1908.015</ele>
        <time>2021-06-19T15:10:51Z</time>
      </trkpt>
      <trkpt lat="42.432367" lon="1.255118">
        <ele>1909.108</ele>
        <time>2021-06-19T15:10:56Z</time>
      </trkpt>
      <trkpt lat="42.432333" lon="1.255159">
        <ele>1909.411</ele>
        <time>2021-06-19T15:10:58Z</time>
      </trkpt>
      <trkpt lat="42.432261" lon="1.255255">
        <ele>1909.630</ele>
        <time>2021-06-19T15:11:02Z</time>
      </trkpt>
      <trkpt lat="42.432227" lon="1.255308">
        <ele>1909.556</ele>
        <time>2021-06-19T15:11:04Z</time>
      </trkpt>
      <trkpt lat="42.432161" lon="1.255392">
        <ele>1909.860</ele>
        <time>2021-06-19T15:11:08Z</time>
      </trkpt>
      <trkpt lat="42.432031" lon="1.255539">
        <ele>1910.474</ele>
        <time>2021-06-19T15:11:15Z</time>
      </trkpt>
      <trkpt lat="42.432020" lon="1.255556">
        <ele>1910.474</ele>
        <time>2021-06-19T15:11:16Z</time>
      </trkpt>
      <trkpt lat="42.431961" lon="1.255653">
        <ele>1910.677</ele>
        <time>2021-06-19T15:11:20Z</time>
      </trkpt>
      <trkpt lat="42.431941" lon="1.255672">
        <ele>1910.874</ele>
        <time>2021-06-19T15:11:21Z</time>
      </trkpt>
      <trkpt lat="42.431838" lon="1.255801">
        <ele>1912.151</ele>
        <time>2021-06-19T15:11:27Z</time>
      </trkpt>
      <trkpt lat="42.431771" lon="1.255897">
        <ele>1912.801</ele>
        <time>2021-06-19T15:11:31Z</time>
      </trkpt>
      <trkpt lat="42.431757" lon="1.255922">
        <ele>1912.911</ele>
        <time>2021-06-19T15:11:32Z</time>
      </trkpt>
      <trkpt lat="42.431701" lon="1.256048">
        <ele>1912.908</ele>
        <time>2021-06-19T15:11:36Z</time>
      </trkpt>
      <trkpt lat="42.431649" lon="1.256139">
        <ele>1913.282</ele>
        <time>2021-06-19T15:11:40Z</time>
      </trkpt>
      <trkpt lat="42.431579" lon="1.256278">
        <ele>1913.841</ele>
        <time>2021-06-19T15:11:45Z</time>
      </trkpt>
      <trkpt lat="42.431563" lon="1.256298">
        <ele>1914.027</ele>
        <time>2021-06-19T15:11:46Z</time>
      </trkpt>
      <trkpt lat="42.431481" lon="1.256410">
        <ele>1914.751</ele>
        <time>2021-06-19T15:11:50Z</time>
      </trkpt>
      <trkpt lat="42.431343" lon="1.256626">
        <ele>1914.765</ele>
        <time>2021-06-19T15:11:57Z</time>
      </trkpt>
      <trkpt lat="42.431202" lon="1.256836">
        <ele>1914.985</ele>
        <time>2021-06-19T15:12:04Z</time>
      </trkpt>
      <trkpt lat="42.431124" lon="1.256952">
        <ele>1914.688</ele>
        <time>2021-06-19T15:12:08Z</time>
      </trkpt>
      <trkpt lat="42.431101" lon="1.256977">
        <ele>1914.835</ele>
        <time>2021-06-19T15:12:09Z</time>
      </trkpt>
      <trkpt lat="42.431006" lon="1.257118">
        <ele>1914.849</ele>
        <time>2021-06-19T15:12:14Z</time>
      </trkpt>
      <trkpt lat="42.430902" lon="1.257255">
        <ele>1915.002</ele>
        <time>2021-06-19T15:12:19Z</time>
      </trkpt>
      <trkpt lat="42.430824" lon="1.257360">
        <ele>1914.722</ele>
        <time>2021-06-19T15:12:23Z</time>
      </trkpt>
      <trkpt lat="42.430700" lon="1.257487">
        <ele>1915.108</ele>
        <time>2021-06-19T15:12:28Z</time>
      </trkpt>
      <trkpt lat="42.430634" lon="1.257553">
        <ele>1915.551</ele>
        <time>2021-06-19T15:12:31Z</time>
      </trkpt>
      <trkpt lat="42.430546" lon="1.257641">
        <ele>1916.250</ele>
        <time>2021-06-19T15:12:35Z</time>
      </trkpt>
      <trkpt lat="42.430432" lon="1.257752">
        <ele>1916.616</ele>
        <time>2021-06-19T15:12:40Z</time>
      </trkpt>
      <trkpt lat="42.430390" lon="1.257787">
        <ele>1916.810</ele>
        <time>2021-06-19T15:12:42Z</time>
      </trkpt>
      <trkpt lat="42.430322" lon="1.257880">
        <ele>1916.494</ele>
        <time>2021-06-19T15:12:46Z</time>
      </trkpt>
      <trkpt lat="42.430303" lon="1.257903">
        <ele>1916.364</ele>
        <time>2021-06-19T15:12:47Z</time>
      </trkpt>
      <trkpt lat="42.430185" lon="1.258006">
        <ele>1916.677</ele>
        <time>2021-06-19T15:12:52Z</time>
      </trkpt>
      <trkpt lat="42.430070" lon="1.258122">
        <ele>1916.744</ele>
        <time>2021-06-19T15:12:57Z</time>
      </trkpt>
      <trkpt lat="42.429950" lon="1.258245">
        <ele>1917.378</ele>
        <time>2021-06-19T15:13:02Z</time>
      </trkpt>
      <trkpt lat="42.429805" lon="1.258342">
        <ele>1918.333</ele>
        <time>2021-06-19T15:13:08Z</time>
      </trkpt>
      <trkpt lat="42.429788" lon="1.258355">
        <ele>1918.326</ele>
        <time>2021-06-19T15:13:09Z</time>
      </trkpt>
      <trkpt lat="42.429670" lon="1.258422">
        <ele>1918.608</ele>
        <time>2021-06-19T15:13:14Z</time>
      </trkpt>
      <trkpt lat="42.429527" lon="1.258528">
        <ele>1918.144</ele>
        <time>2021-06-19T15:13:20Z</time>
      </trkpt>
      <trkpt lat="42.429450" lon="1.258590">
        <ele>1917.543</ele>
        <time>2021-06-19T15:13:23Z</time>
      </trkpt>
      <trkpt lat="42.429405" lon="1.258618">
        <ele>1917.519</ele>
        <time>2021-06-19T15:13:25Z</time>
      </trkpt>
      <trkpt lat="42.429393" lon="1.258629">
        <ele>1917.533</ele>
        <time>2021-06-19T15:13:26Z</time>
      </trkpt>
      <trkpt lat="42.429302" lon="1.258645">
        <ele>1918.677</ele>
        <time>2021-06-19T15:13:30Z</time>
      </trkpt>
      <trkpt lat="42.429120" lon="1.258680">
        <ele>1920.797</ele>
        <time>2021-06-19T15:13:35Z</time>
      </trkpt>
      <trkpt lat="42.428997" lon="1.258683">
        <ele>1922.590</ele>
        <time>2021-06-19T15:13:39Z</time>
      </trkpt>
      <trkpt lat="42.428962" lon="1.258696">
        <ele>1922.677</ele>
        <time>2021-06-19T15:13:40Z</time>
      </trkpt>
      <trkpt lat="42.428844" lon="1.258679">
        <ele>1924.496</ele>
        <time>2021-06-19T15:13:44Z</time>
      </trkpt>
      <trkpt lat="42.428805" lon="1.258660">
        <ele>1925.131</ele>
        <time>2021-06-19T15:13:46Z</time>
      </trkpt>
      <trkpt lat="42.428760" lon="1.258641">
        <ele>1925.924</ele>
        <time>2021-06-19T15:13:48Z</time>
      </trkpt>
      <trkpt lat="42.428733" lon="1.258633">
        <ele>1926.208</ele>
        <time>2021-06-19T15:13:49Z</time>
      </trkpt>
      <trkpt lat="42.428667" lon="1.258629">
        <ele>1926.376</ele>
        <time>2021-06-19T15:13:51Z</time>
      </trkpt>
      <trkpt lat="42.428644" lon="1.258622">
        <ele>1926.685</ele>
        <time>2021-06-19T15:13:52Z</time>
      </trkpt>
      <trkpt lat="42.428554" lon="1.258648">
        <ele>1925.521</ele>
        <time>2021-06-19T15:13:55Z</time>
      </trkpt>
      <trkpt lat="42.428459" lon="1.258661">
        <ele>1924.875</ele>
        <time>2021-06-19T15:13:59Z</time>
      </trkpt>
      <trkpt lat="42.428423" lon="1.258676">
        <ele>1924.149</ele>
        <time>2021-06-19T15:14:01Z</time>
      </trkpt>
      <trkpt lat="42.428346" lon="1.258667">
        <ele>1924.249</ele>
        <time>2021-06-19T15:14:06Z</time>
      </trkpt>
      <trkpt lat="42.428333" lon="1.258654">
        <ele>1924.632</ele>
        <time>2021-06-19T15:14:07Z</time>
      </trkpt>
      <trkpt lat="42.428323" lon="1.258647">
        <ele>1924.789</ele>
        <time>2021-06-19T15:14:08Z</time>
      </trkpt>
      <trkpt lat="42.428272" lon="1.258638">
        <ele>1924.561</ele>
        <time>2021-06-19T15:14:11Z</time>
      </trkpt>
      <trkpt lat="42.428198" lon="1.258596">
        <ele>1925.021</ele>
        <time>2021-06-19T15:14:14Z</time>
      </trkpt>
      <trkpt lat="42.428168" lon="1.258571">
        <ele>1925.413</ele>
        <time>2021-06-19T15:14:16Z</time>
      </trkpt>
      <trkpt lat="42.428019" lon="1.258547">
        <ele>1924.308</ele>
        <time>2021-06-19T15:14:21Z</time>
      </trkpt>
      <trkpt lat="42.427887" lon="1.258514">
        <ele>1923.453</ele>
        <time>2021-06-19T15:14:24Z</time>
      </trkpt>
      <trkpt lat="42.427807" lon="1.258488">
        <ele>1923.082</ele>
        <time>2021-06-19T15:14:26Z</time>
      </trkpt>
      <trkpt lat="42.427777" lon="1.258481">
        <ele>1922.768</ele>
        <time>2021-06-19T15:14:27Z</time>
      </trkpt>
      <trkpt lat="42.427614" lon="1.258414">
        <ele>1923.272</ele>
        <time>2021-06-19T15:14:33Z</time>
      </trkpt>
      <trkpt lat="42.427404" lon="1.258323">
        <ele>1924.026</ele>
        <time>2021-06-19T15:14:39Z</time>
      </trkpt>
      <trkpt lat="42.426999" lon="1.258157">
        <ele>1924.366</ele>
        <time>2021-06-19T15:14:47Z</time>
      </trkpt>
      <trkpt lat="42.426959" lon="1.258142">
        <ele>1924.519</ele>
        <time>2021-06-19T15:14:48Z</time>
      </trkpt>
      <trkpt lat="42.426783" lon="1.258112">
        <ele>1924.486</ele>
        <time>2021-06-19T15:14:53Z</time>
      </trkpt>
      <trkpt lat="42.426547" lon="1.258129">
        <ele>1923.189</ele>
        <time>2021-06-19T15:15:00Z</time>
      </trkpt>
      <trkpt lat="42.426410" lon="1.258147">
        <ele>1922.706</ele>
        <time>2021-06-19T15:15:03Z</time>
      </trkpt>
      <trkpt lat="42.426255" lon="1.258141">
        <ele>1923.826</ele>
        <time>2021-06-19T15:15:06Z</time>
      </trkpt>
      <trkpt lat="42.426208" lon="1.258141">
        <ele>1924.108</ele>
        <time>2021-06-19T15:15:07Z</time>
      </trkpt>
      <trkpt lat="42.426022" lon="1.258161">
        <ele>1925.015</ele>
        <time>2021-06-19T15:15:11Z</time>
      </trkpt>
      <trkpt lat="42.425946" lon="1.258186">
        <ele>1924.834</ele>
        <time>2021-06-19T15:15:13Z</time>
      </trkpt>
      <trkpt lat="42.425885" lon="1.258231">
        <ele>1923.460</ele>
        <time>2021-06-19T15:15:15Z</time>
      </trkpt>
      <trkpt lat="42.425744" lon="1.258323">
        <ele>1922.194</ele>
        <time>2021-06-19T15:15:20Z</time>
      </trkpt>
      <trkpt lat="42.425652" lon="1.258385">
        <ele>1922.458</ele>
        <time>2021-06-19T15:15:24Z</time>
      </trkpt>
      <trkpt lat="42.425596" lon="1.258410">
        <ele>1923.118</ele>
        <time>2021-06-19T15:15:26Z</time>
      </trkpt>
      <trkpt lat="42.425577" lon="1.258418">
        <ele>1923.431</ele>
        <time>2021-06-19T15:15:27Z</time>
      </trkpt>
      <trkpt lat="42.425515" lon="1.258457">
        <ele>1923.388</ele>
        <time>2021-06-19T15:15:30Z</time>
      </trkpt>
      <trkpt lat="42.425409" lon="1.258515">
        <ele>1922.995</ele>
        <time>2021-06-19T15:15:34Z</time>
      </trkpt>
      <trkpt lat="42.425375" lon="1.258528">
        <ele>1923.049</ele>
        <time>2021-06-19T15:15:35Z</time>
      </trkpt>
      <trkpt lat="42.425341" lon="1.258546">
        <ele>1922.823</ele>
        <time>2021-06-19T15:15:36Z</time>
      </trkpt>
      <trkpt lat="42.425176" lon="1.258643">
        <ele>1923.008</ele>
        <time>2021-06-19T15:15:41Z</time>
      </trkpt>
      <trkpt lat="42.425080" lon="1.258707">
        <ele>1923.856</ele>
        <time>2021-06-19T15:15:45Z</time>
      </trkpt>
      <trkpt lat="42.424935" lon="1.258818">
        <ele>1924.155</ele>
        <time>2021-06-19T15:15:50Z</time>
      </trkpt>
      <trkpt lat="42.424895" lon="1.258873">
        <ele>1923.561</ele>
        <time>2021-06-19T15:15:52Z</time>
      </trkpt>
      <trkpt lat="42.424850" lon="1.258914">
        <ele>1923.635</ele>
        <time>2021-06-19T15:15:54Z</time>
      </trkpt>
      <trkpt lat="42.424818" lon="1.258934">
        <ele>1924.079</ele>
        <time>2021-06-19T15:15:55Z</time>
      </trkpt>
      <trkpt lat="42.424755" lon="1.259013">
        <ele>1923.529</ele>
        <time>2021-06-19T15:15:58Z</time>
      </trkpt>
      <trkpt lat="42.424712" lon="1.259044">
        <ele>1923.722</ele>
        <time>2021-06-19T15:16:00Z</time>
      </trkpt>
      <trkpt lat="42.424639" lon="1.259082">
        <ele>1924.019</ele>
        <time>2021-06-19T15:16:03Z</time>
      </trkpt>
      <trkpt lat="42.424554" lon="1.259118">
        <ele>1924.594</ele>
        <time>2021-06-19T15:16:06Z</time>
      </trkpt>
      <trkpt lat="42.424425" lon="1.259175">
        <ele>1925.257</ele>
        <time>2021-06-19T15:16:10Z</time>
      </trkpt>
      <trkpt lat="42.424323" lon="1.259218">
        <ele>1926.122</ele>
        <time>2021-06-19T15:16:14Z</time>
      </trkpt>
      <trkpt lat="42.424301" lon="1.259221">
        <ele>1926.408</ele>
        <time>2021-06-19T15:16:15Z</time>
      </trkpt>
      <trkpt lat="42.424244" lon="1.259234">
        <ele>1927.216</ele>
        <time>2021-06-19T15:16:18Z</time>
      </trkpt>
      <trkpt lat="42.424234" lon="1.259236">
        <ele>1927.465</ele>
        <time>2021-06-19T15:16:19Z</time>
      </trkpt>
      <trkpt lat="42.424228" lon="1.259237">
        <ele>1927.531</ele>
        <time>2021-06-19T15:16:20Z</time>
      </trkpt>
      <trkpt lat="42.424146" lon="1.259239">
        <ele>1928.945</ele>
        <time>2021-06-19T15:19:12Z</time>
      </trkpt>
      <trkpt lat="42.424106" lon="1.259281">
        <ele>1928.129</ele>
        <time>2021-06-19T15:19:14Z</time>
      </trkpt>
      <trkpt lat="42.423986" lon="1.259380">
        <ele>1926.259</ele>
        <time>2021-06-19T15:19:19Z</time>
      </trkpt>
      <trkpt lat="42.423951" lon="1.259399">
        <ele>1925.992</ele>
        <time>2021-06-19T15:19:20Z</time>
      </trkpt>
      <trkpt lat="42.423913" lon="1.259420">
        <ele>1925.669</ele>
        <time>2021-06-19T15:19:21Z</time>
      </trkpt>
      <trkpt lat="42.423813" lon="1.259456">
        <ele>1925.147</ele>
        <time>2021-06-19T15:19:23Z</time>
      </trkpt>
      <trkpt lat="42.423722" lon="1.259468">
        <ele>1925.329</ele>
        <time>2021-06-19T15:19:25Z</time>
      </trkpt>
      <trkpt lat="42.423607" lon="1.259499">
        <ele>1924.921</ele>
        <time>2021-06-19T15:19:27Z</time>
      </trkpt>
      <trkpt lat="42.423541" lon="1.259522">
        <ele>1924.408</ele>
        <time>2021-06-19T15:19:28Z</time>
      </trkpt>
      <trkpt lat="42.423473" lon="1.259556">
        <ele>1923.611</ele>
        <time>2021-06-19T15:19:29Z</time>
      </trkpt>
      <trkpt lat="42.423406" lon="1.259574">
        <ele>1923.320</ele>
        <time>2021-06-19T15:19:30Z</time>
      </trkpt>
      <trkpt lat="42.423272" lon="1.259611">
        <ele>1922.136</ele>
        <time>2021-06-19T15:19:32Z</time>
      </trkpt>
      <trkpt lat="42.423207" lon="1.259618">
        <ele>1921.670</ele>
        <time>2021-06-19T15:19:33Z</time>
      </trkpt>
      <trkpt lat="42.423131" lon="1.259629">
        <ele>1920.744</ele>
        <time>2021-06-19T15:19:34Z</time>
      </trkpt>
      <trkpt lat="42.422989" lon="1.259660">
        <ele>1919.154</ele>
        <time>2021-06-19T15:19:36Z</time>
      </trkpt>
      <trkpt lat="42.422929" lon="1.259688">
        <ele>1918.067</ele>
        <time>2021-06-19T15:19:37Z</time>
      </trkpt>
      <trkpt lat="42.422867" lon="1.259723">
        <ele>1916.624</ele>
        <time>2021-06-19T15:19:38Z</time>
      </trkpt>
      <trkpt lat="42.422743" lon="1.259804">
        <ele>1913.961</ele>
        <time>2021-06-19T15:19:40Z</time>
      </trkpt>
      <trkpt lat="42.422681" lon="1.259850">
        <ele>1912.821</ele>
        <time>2021-06-19T15:19:41Z</time>
      </trkpt>
      <trkpt lat="42.422616" lon="1.259895">
        <ele>1912.013</ele>
        <time>2021-06-19T15:19:42Z</time>
      </trkpt>
      <trkpt lat="42.422496" lon="1.259998">
        <ele>1910.108</ele>
        <time>2021-06-19T15:19:44Z</time>
      </trkpt>
      <trkpt lat="42.422386" lon="1.260113">
        <ele>1909.573</ele>
        <time>2021-06-19T15:19:46Z</time>
      </trkpt>
      <trkpt lat="42.422341" lon="1.260164">
        <ele>1909.452</ele>
        <time>2021-06-19T15:19:47Z</time>
      </trkpt>
      <trkpt lat="42.422302" lon="1.260211">
        <ele>1909.348</ele>
        <time>2021-06-19T15:19:48Z</time>
      </trkpt>
      <trkpt lat="42.422240" lon="1.260297">
        <ele>1909.212</ele>
        <time>2021-06-19T15:19:50Z</time>
      </trkpt>
      <trkpt lat="42.422185" lon="1.260371">
        <ele>1909.266</ele>
        <time>2021-06-19T15:19:52Z</time>
      </trkpt>
      <trkpt lat="42.422055" lon="1.260533">
        <ele>1909.696</ele>
        <time>2021-06-19T15:19:58Z</time>
      </trkpt>
      <trkpt lat="42.422030" lon="1.260577">
        <ele>1909.539</ele>
        <time>2021-06-19T15:19:59Z</time>
      </trkpt>
      <trkpt lat="42.421941" lon="1.260739">
        <ele>1909.466</ele>
        <time>2021-06-19T15:20:02Z</time>
      </trkpt>
      <trkpt lat="42.421883" lon="1.260855">
        <ele>1909.232</ele>
        <time>2021-06-19T15:20:04Z</time>
      </trkpt>
      <trkpt lat="42.421812" lon="1.260970">
        <ele>1908.992</ele>
        <time>2021-06-19T15:20:06Z</time>
      </trkpt>
      <trkpt lat="42.421741" lon="1.261073">
        <ele>1908.811</ele>
        <time>2021-06-19T15:20:08Z</time>
      </trkpt>
      <trkpt lat="42.421708" lon="1.261126">
        <ele>1908.708</ele>
        <time>2021-06-19T15:20:09Z</time>
      </trkpt>
      <trkpt lat="42.421677" lon="1.261187">
        <ele>1908.620</ele>
        <time>2021-06-19T15:20:10Z</time>
      </trkpt>
      <trkpt lat="42.421645" lon="1.261250">
        <ele>1908.579</ele>
        <time>2021-06-19T15:20:11Z</time>
      </trkpt>
      <trkpt lat="42.421609" lon="1.261307">
        <ele>1908.595</ele>
        <time>2021-06-19T15:20:12Z</time>
      </trkpt>
      <trkpt lat="42.421395" lon="1.261624">
        <ele>1907.659</ele>
        <time>2021-06-19T15:20:17Z</time>
      </trkpt>
      <trkpt lat="42.421346" lon="1.261701">
        <ele>1907.253</ele>
        <time>2021-06-19T15:20:18Z</time>
      </trkpt>
      <trkpt lat="42.421297" lon="1.261787">
        <ele>1906.593</ele>
        <time>2021-06-19T15:20:19Z</time>
      </trkpt>
      <trkpt lat="42.421184" lon="1.262035">
        <ele>1904.126</ele>
        <time>2021-06-19T15:20:22Z</time>
      </trkpt>
      <trkpt lat="42.421151" lon="1.262153">
        <ele>1902.553</ele>
        <time>2021-06-19T15:20:24Z</time>
      </trkpt>
      <trkpt lat="42.421143" lon="1.262205">
        <ele>1901.729</ele>
        <time>2021-06-19T15:20:25Z</time>
      </trkpt>
      <trkpt lat="42.421130" lon="1.262251">
        <ele>1901.400</ele>
        <time>2021-06-19T15:20:26Z</time>
      </trkpt>
      <trkpt lat="42.421094" lon="1.262351">
        <ele>1901.520</ele>
        <time>2021-06-19T15:20:28Z</time>
      </trkpt>
      <trkpt lat="42.421048" lon="1.262474">
        <ele>1901.808</ele>
        <time>2021-06-19T15:20:30Z</time>
      </trkpt>
      <trkpt lat="42.421027" lon="1.262539">
        <ele>1901.769</ele>
        <time>2021-06-19T15:20:31Z</time>
      </trkpt>
      <trkpt lat="42.420959" lon="1.262709">
        <ele>1901.618</ele>
        <time>2021-06-19T15:20:34Z</time>
      </trkpt>
      <trkpt lat="42.420920" lon="1.262815">
        <ele>1901.474</ele>
        <time>2021-06-19T15:20:36Z</time>
      </trkpt>
      <trkpt lat="42.420903" lon="1.262875">
        <ele>1901.258</ele>
        <time>2021-06-19T15:20:37Z</time>
      </trkpt>
      <trkpt lat="42.420889" lon="1.262953">
        <ele>1900.772</ele>
        <time>2021-06-19T15:20:38Z</time>
      </trkpt>
      <trkpt lat="42.420844" lon="1.263235">
        <ele>1898.862</ele>
        <time>2021-06-19T15:20:41Z</time>
      </trkpt>
      <trkpt lat="42.420798" lon="1.263432">
        <ele>1897.895</ele>
        <time>2021-06-19T15:20:43Z</time>
      </trkpt>
      <trkpt lat="42.420691" lon="1.263823">
        <ele>1895.182</ele>
        <time>2021-06-19T15:20:47Z</time>
      </trkpt>
      <trkpt lat="42.420658" lon="1.263930">
        <ele>1894.181</ele>
        <time>2021-06-19T15:20:48Z</time>
      </trkpt>
      <trkpt lat="42.420580" lon="1.264146">
        <ele>1892.761</ele>
        <time>2021-06-19T15:20:50Z</time>
      </trkpt>
      <trkpt lat="42.420534" lon="1.264248">
        <ele>1892.317</ele>
        <time>2021-06-19T15:20:51Z</time>
      </trkpt>
      <trkpt lat="42.420492" lon="1.264347">
        <ele>1891.908</ele>
        <time>2021-06-19T15:20:52Z</time>
      </trkpt>
      <trkpt lat="42.420451" lon="1.264448">
        <ele>1891.685</ele>
        <time>2021-06-19T15:20:53Z</time>
      </trkpt>
      <trkpt lat="42.420414" lon="1.264543">
        <ele>1891.394</ele>
        <time>2021-06-19T15:20:54Z</time>
      </trkpt>
      <trkpt lat="42.420378" lon="1.264634">
        <ele>1891.090</ele>
        <time>2021-06-19T15:20:55Z</time>
      </trkpt>
      <trkpt lat="42.420347" lon="1.264726">
        <ele>1890.544</ele>
        <time>2021-06-19T15:20:56Z</time>
      </trkpt>
      <trkpt lat="42.420313" lon="1.264809">
        <ele>1890.368</ele>
        <time>2021-06-19T15:20:57Z</time>
      </trkpt>
      <trkpt lat="42.420276" lon="1.264865">
        <ele>1890.548</ele>
        <time>2021-06-19T15:20:58Z</time>
      </trkpt>
      <trkpt lat="42.420180" lon="1.265044">
        <ele>1891.021</ele>
        <time>2021-06-19T15:21:01Z</time>
      </trkpt>
      <trkpt lat="42.420132" lon="1.265162">
        <ele>1890.918</ele>
        <time>2021-06-19T15:21:03Z</time>
      </trkpt>
      <trkpt lat="42.420081" lon="1.265289">
        <ele>1890.893</ele>
        <time>2021-06-19T15:21:05Z</time>
      </trkpt>
      <trkpt lat="42.420038" lon="1.265423">
        <ele>1890.065</ele>
        <time>2021-06-19T15:21:07Z</time>
      </trkpt>
      <trkpt lat="42.420040" lon="1.265542">
        <ele>1888.321</ele>
        <time>2021-06-19T15:21:09Z</time>
      </trkpt>
      <trkpt lat="42.420096" lon="1.265626">
        <ele>1887.908</ele>
        <time>2021-06-19T15:21:12Z</time>
      </trkpt>
      <trkpt lat="42.420161" lon="1.265683">
        <ele>1887.126</ele>
        <time>2021-06-19T15:21:14Z</time>
      </trkpt>
      <trkpt lat="42.420249" lon="1.265791">
        <ele>1886.345</ele>
        <time>2021-06-19T15:21:16Z</time>
      </trkpt>
      <trkpt lat="42.420286" lon="1.265840">
        <ele>1885.961</ele>
        <time>2021-06-19T15:21:17Z</time>
      </trkpt>
      <trkpt lat="42.420322" lon="1.265899">
        <ele>1886.035</ele>
        <time>2021-06-19T15:21:18Z</time>
      </trkpt>
      <trkpt lat="42.420403" lon="1.266012">
        <ele>1885.999</ele>
        <time>2021-06-19T15:21:20Z</time>
      </trkpt>
      <trkpt lat="42.420503" lon="1.266085">
        <ele>1884.869</ele>
        <time>2021-06-19T15:21:22Z</time>
      </trkpt>
      <trkpt lat="42.420620" lon="1.266158">
        <ele>1883.132</ele>
        <time>2021-06-19T15:21:24Z</time>
      </trkpt>
      <trkpt lat="42.420848" lon="1.266286">
        <ele>1879.749</ele>
        <time>2021-06-19T15:21:28Z</time>
      </trkpt>
      <trkpt lat="42.420900" lon="1.266331">
        <ele>1879.762</ele>
        <time>2021-06-19T15:21:29Z</time>
      </trkpt>
      <trkpt lat="42.420948" lon="1.266393">
        <ele>1880.283</ele>
        <time>2021-06-19T15:21:30Z</time>
      </trkpt>
      <trkpt lat="42.420962" lon="1.266477">
        <ele>1880.411</ele>
        <time>2021-06-19T15:21:31Z</time>
      </trkpt>
      <trkpt lat="42.420966" lon="1.266562">
        <ele>1880.708</ele>
        <time>2021-06-19T15:21:32Z</time>
      </trkpt>
      <trkpt lat="42.420961" lon="1.266651">
        <ele>1881.193</ele>
        <time>2021-06-19T15:21:33Z</time>
      </trkpt>
      <trkpt lat="42.420964" lon="1.266827">
        <ele>1880.532</ele>
        <time>2021-06-19T15:21:35Z</time>
      </trkpt>
      <trkpt lat="42.420915" lon="1.267021">
        <ele>1880.568</ele>
        <time>2021-06-19T15:21:38Z</time>
      </trkpt>
      <trkpt lat="42.420895" lon="1.267071">
        <ele>1880.612</ele>
        <time>2021-06-19T15:21:39Z</time>
      </trkpt>
      <trkpt lat="42.420832" lon="1.267211">
        <ele>1881.126</ele>
        <time>2021-06-19T15:21:42Z</time>
      </trkpt>
      <trkpt lat="42.420792" lon="1.267305">
        <ele>1881.066</ele>
        <time>2021-06-19T15:21:44Z</time>
      </trkpt>
      <trkpt lat="42.420733" lon="1.267465">
        <ele>1880.259</ele>
        <time>2021-06-19T15:21:47Z</time>
      </trkpt>
      <trkpt lat="42.420701" lon="1.267525">
        <ele>1880.186</ele>
        <time>2021-06-19T15:21:48Z</time>
      </trkpt>
      <trkpt lat="42.420613" lon="1.267692">
        <ele>1879.588</ele>
        <time>2021-06-19T15:21:50Z</time>
      </trkpt>
      <trkpt lat="42.420561" lon="1.267769">
        <ele>1879.124</ele>
        <time>2021-06-19T15:21:51Z</time>
      </trkpt>
      <trkpt lat="42.420436" lon="1.267916">
        <ele>1878.926</ele>
        <time>2021-06-19T15:21:53Z</time>
      </trkpt>
      <trkpt lat="42.420305" lon="1.268072">
        <ele>1878.308</ele>
        <time>2021-06-19T15:21:55Z</time>
      </trkpt>
      <trkpt lat="42.420239" lon="1.268154">
        <ele>1877.675</ele>
        <time>2021-06-19T15:21:56Z</time>
      </trkpt>
      <trkpt lat="42.420174" lon="1.268238">
        <ele>1876.974</ele>
        <time>2021-06-19T15:21:57Z</time>
      </trkpt>
      <trkpt lat="42.420060" lon="1.268429">
        <ele>1874.670</ele>
        <time>2021-06-19T15:21:59Z</time>
      </trkpt>
      <trkpt lat="42.419943" lon="1.268579">
        <ele>1872.874</ele>
        <time>2021-06-19T15:22:01Z</time>
      </trkpt>
      <trkpt lat="42.419837" lon="1.268734">
        <ele>1871.368</ele>
        <time>2021-06-19T15:22:03Z</time>
      </trkpt>
      <trkpt lat="42.419795" lon="1.268808">
        <ele>1870.468</ele>
        <time>2021-06-19T15:22:04Z</time>
      </trkpt>
      <trkpt lat="42.419748" lon="1.268874">
        <ele>1869.981</ele>
        <time>2021-06-19T15:22:05Z</time>
      </trkpt>
      <trkpt lat="42.419705" lon="1.268945">
        <ele>1868.828</ele>
        <time>2021-06-19T15:22:06Z</time>
      </trkpt>
      <trkpt lat="42.419618" lon="1.269087">
        <ele>1866.556</ele>
        <time>2021-06-19T15:22:08Z</time>
      </trkpt>
      <trkpt lat="42.419541" lon="1.269232">
        <ele>1864.059</ele>
        <time>2021-06-19T15:22:10Z</time>
      </trkpt>
      <trkpt lat="42.419465" lon="1.269378">
        <ele>1861.414</ele>
        <time>2021-06-19T15:22:12Z</time>
      </trkpt>
      <trkpt lat="42.419429" lon="1.269447">
        <ele>1860.208</ele>
        <time>2021-06-19T15:22:13Z</time>
      </trkpt>
      <trkpt lat="42.419314" lon="1.269642">
        <ele>1857.732</ele>
        <time>2021-06-19T15:22:16Z</time>
      </trkpt>
      <trkpt lat="42.419267" lon="1.269711">
        <ele>1856.831</ele>
        <time>2021-06-19T15:22:17Z</time>
      </trkpt>
      <trkpt lat="42.419222" lon="1.269783">
        <ele>1855.957</ele>
        <time>2021-06-19T15:22:18Z</time>
      </trkpt>
      <trkpt lat="42.419183" lon="1.269850">
        <ele>1855.031</ele>
        <time>2021-06-19T15:22:19Z</time>
      </trkpt>
      <trkpt lat="42.419103" lon="1.269971">
        <ele>1853.355</ele>
        <time>2021-06-19T15:22:21Z</time>
      </trkpt>
      <trkpt lat="42.419062" lon="1.270024">
        <ele>1852.615</ele>
        <time>2021-06-19T15:22:22Z</time>
      </trkpt>
      <trkpt lat="42.419025" lon="1.270080">
        <ele>1851.898</ele>
        <time>2021-06-19T15:22:23Z</time>
      </trkpt>
      <trkpt lat="42.418987" lon="1.270117">
        <ele>1851.495</ele>
        <time>2021-06-19T15:22:24Z</time>
      </trkpt>
      <trkpt lat="42.418936" lon="1.270136">
        <ele>1851.628</ele>
        <time>2021-06-19T15:22:25Z</time>
      </trkpt>
      <trkpt lat="42.418893" lon="1.270164">
        <ele>1851.489</ele>
        <time>2021-06-19T15:22:26Z</time>
      </trkpt>
      <trkpt lat="42.418859" lon="1.270191">
        <ele>1851.017</ele>
        <time>2021-06-19T15:22:27Z</time>
      </trkpt>
      <trkpt lat="42.418827" lon="1.270212">
        <ele>1850.708</ele>
        <time>2021-06-19T15:22:29Z</time>
      </trkpt>
      <trkpt lat="42.418819" lon="1.270216">
        <ele>1850.799</ele>
        <time>2021-06-19T15:22:30Z</time>
      </trkpt>
      <trkpt lat="42.418714" lon="1.270293">
        <ele>1849.268</ele>
        <time>2021-06-19T15:23:08Z</time>
      </trkpt>
      <trkpt lat="42.418657" lon="1.270332">
        <ele>1848.584</ele>
        <time>2021-06-19T15:23:10Z</time>
      </trkpt>
      <trkpt lat="42.418503" lon="1.270369">
        <ele>1847.248</ele>
        <time>2021-06-19T15:23:13Z</time>
      </trkpt>
      <trkpt lat="42.418352" lon="1.270450">
        <ele>1844.132</ele>
        <time>2021-06-19T15:23:16Z</time>
      </trkpt>
      <trkpt lat="42.418274" lon="1.270559">
        <ele>1842.272</ele>
        <time>2021-06-19T15:23:18Z</time>
      </trkpt>
      <trkpt lat="42.418191" lon="1.270688">
        <ele>1840.745</ele>
        <time>2021-06-19T15:23:20Z</time>
      </trkpt>
      <trkpt lat="42.418108" lon="1.270804">
        <ele>1840.232</ele>
        <time>2021-06-19T15:23:22Z</time>
      </trkpt>
      <trkpt lat="42.418061" lon="1.270858">
        <ele>1840.393</ele>
        <time>2021-06-19T15:23:23Z</time>
      </trkpt>
      <trkpt lat="42.418015" lon="1.270910">
        <ele>1840.165</ele>
        <time>2021-06-19T15:23:24Z</time>
      </trkpt>
      <trkpt lat="42.417963" lon="1.270962">
        <ele>1839.921</ele>
        <time>2021-06-19T15:23:25Z</time>
      </trkpt>
      <trkpt lat="42.417909" lon="1.271011">
        <ele>1839.808</ele>
        <time>2021-06-19T15:23:26Z</time>
      </trkpt>
      <trkpt lat="42.417681" lon="1.271269">
        <ele>1838.326</ele>
        <time>2021-06-19T15:23:30Z</time>
      </trkpt>
      <trkpt lat="42.417501" lon="1.271425">
        <ele>1838.565</ele>
        <time>2021-06-19T15:23:33Z</time>
      </trkpt>
      <trkpt lat="42.417441" lon="1.271466">
        <ele>1838.791</ele>
        <time>2021-06-19T15:23:34Z</time>
      </trkpt>
      <trkpt lat="42.417278" lon="1.271583">
        <ele>1839.445</ele>
        <time>2021-06-19T15:23:37Z</time>
      </trkpt>
      <trkpt lat="42.417187" lon="1.271677">
        <ele>1839.339</ele>
        <time>2021-06-19T15:23:39Z</time>
      </trkpt>
      <trkpt lat="42.417144" lon="1.271732">
        <ele>1839.019</ele>
        <time>2021-06-19T15:23:40Z</time>
      </trkpt>
      <trkpt lat="42.416945" lon="1.271947">
        <ele>1837.932</ele>
        <time>2021-06-19T15:23:44Z</time>
      </trkpt>
      <trkpt lat="42.416786" lon="1.272084">
        <ele>1837.839</ele>
        <time>2021-06-19T15:23:47Z</time>
      </trkpt>
      <trkpt lat="42.416693" lon="1.272178">
        <ele>1837.447</ele>
        <time>2021-06-19T15:23:49Z</time>
      </trkpt>
      <trkpt lat="42.416413" lon="1.272453">
        <ele>1837.429</ele>
        <time>2021-06-19T15:23:54Z</time>
      </trkpt>
      <trkpt lat="42.416164" lon="1.272702">
        <ele>1836.721</ele>
        <time>2021-06-19T15:23:58Z</time>
      </trkpt>
      <trkpt lat="42.416089" lon="1.272750">
        <ele>1837.008</ele>
        <time>2021-06-19T15:23:59Z</time>
      </trkpt>
      <trkpt lat="42.415878" lon="1.272960">
        <ele>1835.771</ele>
        <time>2021-06-19T15:24:03Z</time>
      </trkpt>
      <trkpt lat="42.415848" lon="1.273037">
        <ele>1834.310</ele>
        <time>2021-06-19T15:24:04Z</time>
      </trkpt>
      <trkpt lat="42.415794" lon="1.273188">
        <ele>1832.266</ele>
        <time>2021-06-19T15:24:06Z</time>
      </trkpt>
      <trkpt lat="42.415756" lon="1.273345">
        <ele>1829.940</ele>
        <time>2021-06-19T15:24:08Z</time>
      </trkpt>
      <trkpt lat="42.415740" lon="1.273423">
        <ele>1828.744</ele>
        <time>2021-06-19T15:24:09Z</time>
      </trkpt>
      <trkpt lat="42.415703" lon="1.273562">
        <ele>1826.834</ele>
        <time>2021-06-19T15:24:11Z</time>
      </trkpt>
      <trkpt lat="42.415668" lon="1.273634">
        <ele>1826.057</ele>
        <time>2021-06-19T15:24:12Z</time>
      </trkpt>
      <trkpt lat="42.415634" lon="1.273715">
        <ele>1825.134</ele>
        <time>2021-06-19T15:24:13Z</time>
      </trkpt>
      <trkpt lat="42.415597" lon="1.273796">
        <ele>1824.234</ele>
        <time>2021-06-19T15:24:14Z</time>
      </trkpt>
      <trkpt lat="42.415527" lon="1.273956">
        <ele>1822.455</ele>
        <time>2021-06-19T15:24:16Z</time>
      </trkpt>
      <trkpt lat="42.415486" lon="1.274034">
        <ele>1821.810</ele>
        <time>2021-06-19T15:24:17Z</time>
      </trkpt>
      <trkpt lat="42.415455" lon="1.274109">
        <ele>1821.008</ele>
        <time>2021-06-19T15:24:18Z</time>
      </trkpt>
      <trkpt lat="42.415428" lon="1.274196">
        <ele>1819.890</ele>
        <time>2021-06-19T15:24:19Z</time>
      </trkpt>
      <trkpt lat="42.415394" lon="1.274290">
        <ele>1818.579</ele>
        <time>2021-06-19T15:24:20Z</time>
      </trkpt>
      <trkpt lat="42.415350" lon="1.274369">
        <ele>1817.695</ele>
        <time>2021-06-19T15:24:21Z</time>
      </trkpt>
      <trkpt lat="42.415309" lon="1.274442">
        <ele>1816.739</ele>
        <time>2021-06-19T15:24:22Z</time>
      </trkpt>
      <trkpt lat="42.415273" lon="1.274507">
        <ele>1815.983</ele>
        <time>2021-06-19T15:24:23Z</time>
      </trkpt>
      <trkpt lat="42.415184" lon="1.274623">
        <ele>1814.873</ele>
        <time>2021-06-19T15:24:25Z</time>
      </trkpt>
      <trkpt lat="42.415096" lon="1.274769">
        <ele>1813.216</ele>
        <time>2021-06-19T15:24:27Z</time>
      </trkpt>
      <trkpt lat="42.415043" lon="1.274846">
        <ele>1812.763</ele>
        <time>2021-06-19T15:24:28Z</time>
      </trkpt>
      <trkpt lat="42.414990" lon="1.274925">
        <ele>1812.223</ele>
        <time>2021-06-19T15:24:29Z</time>
      </trkpt>
      <trkpt lat="42.414937" lon="1.274995">
        <ele>1811.883</ele>
        <time>2021-06-19T15:24:30Z</time>
      </trkpt>
      <trkpt lat="42.414816" lon="1.275146">
        <ele>1810.411</ele>
        <time>2021-06-19T15:24:32Z</time>
      </trkpt>
      <trkpt lat="42.414758" lon="1.275216">
        <ele>1809.708</ele>
        <time>2021-06-19T15:24:33Z</time>
      </trkpt>
      <trkpt lat="42.414704" lon="1.275289">
        <ele>1809.159</ele>
        <time>2021-06-19T15:24:34Z</time>
      </trkpt>
      <trkpt lat="42.414579" lon="1.275423">
        <ele>1809.078</ele>
        <time>2021-06-19T15:24:36Z</time>
      </trkpt>
      <trkpt lat="42.414516" lon="1.275479">
        <ele>1809.174</ele>
        <time>2021-06-19T15:24:37Z</time>
      </trkpt>
      <trkpt lat="42.414455" lon="1.275534">
        <ele>1809.268</ele>
        <time>2021-06-19T15:24:38Z</time>
      </trkpt>
      <trkpt lat="42.414278" lon="1.275721">
        <ele>1807.822</ele>
        <time>2021-06-19T15:24:41Z</time>
      </trkpt>
      <trkpt lat="42.414219" lon="1.275792">
        <ele>1807.292</ele>
        <time>2021-06-19T15:24:42Z</time>
      </trkpt>
      <trkpt lat="42.414100" lon="1.275933">
        <ele>1806.355</ele>
        <time>2021-06-19T15:24:44Z</time>
      </trkpt>
      <trkpt lat="42.413990" lon="1.276046">
        <ele>1805.842</ele>
        <time>2021-06-19T15:24:46Z</time>
      </trkpt>
      <trkpt lat="42.413954" lon="1.276131">
        <ele>1805.092</ele>
        <time>2021-06-19T15:24:47Z</time>
      </trkpt>
      <trkpt lat="42.413869" lon="1.276314">
        <ele>1803.373</ele>
        <time>2021-06-19T15:24:49Z</time>
      </trkpt>
      <trkpt lat="42.413783" lon="1.276511">
        <ele>1802.020</ele>
        <time>2021-06-19T15:24:51Z</time>
      </trkpt>
      <trkpt lat="42.413644" lon="1.276911">
        <ele>1800.808</ele>
        <time>2021-06-19T15:24:55Z</time>
      </trkpt>
      <trkpt lat="42.413614" lon="1.277022">
        <ele>1800.716</ele>
        <time>2021-06-19T15:24:56Z</time>
      </trkpt>
      <trkpt lat="42.413581" lon="1.277122">
        <ele>1800.965</ele>
        <time>2021-06-19T15:24:57Z</time>
      </trkpt>
      <trkpt lat="42.413525" lon="1.277314">
        <ele>1801.381</ele>
        <time>2021-06-19T15:24:59Z</time>
      </trkpt>
      <trkpt lat="42.413413" lon="1.277856">
        <ele>1801.715</ele>
        <time>2021-06-19T15:25:05Z</time>
      </trkpt>
      <trkpt lat="42.413301" lon="1.278319">
        <ele>1800.779</ele>
        <time>2021-06-19T15:25:10Z</time>
      </trkpt>
      <trkpt lat="42.413238" lon="1.278507">
        <ele>1800.379</ele>
        <time>2021-06-19T15:25:12Z</time>
      </trkpt>
      <trkpt lat="42.413127" lon="1.278762">
        <ele>1799.392</ele>
        <time>2021-06-19T15:25:15Z</time>
      </trkpt>
      <trkpt lat="42.413043" lon="1.278936">
        <ele>1798.639</ele>
        <time>2021-06-19T15:25:18Z</time>
      </trkpt>
      <trkpt lat="42.413039" lon="1.279044">
        <ele>1797.485</ele>
        <time>2021-06-19T15:25:21Z</time>
      </trkpt>
      <trkpt lat="42.413051" lon="1.279098">
        <ele>1796.889</ele>
        <time>2021-06-19T15:25:22Z</time>
      </trkpt>
      <trkpt lat="42.413070" lon="1.279286">
        <ele>1794.117</ele>
        <time>2021-06-19T15:25:25Z</time>
      </trkpt>
      <trkpt lat="42.413075" lon="1.279331">
        <ele>1793.508</ele>
        <time>2021-06-19T15:25:26Z</time>
      </trkpt>
      <trkpt lat="42.413085" lon="1.279393">
        <ele>1792.555</ele>
        <time>2021-06-19T15:25:27Z</time>
      </trkpt>
      <trkpt lat="42.413110" lon="1.279515">
        <ele>1790.654</ele>
        <time>2021-06-19T15:25:29Z</time>
      </trkpt>
      <trkpt lat="42.413126" lon="1.279582">
        <ele>1789.510</ele>
        <time>2021-06-19T15:25:30Z</time>
      </trkpt>
      <trkpt lat="42.413148" lon="1.279652">
        <ele>1788.394</ele>
        <time>2021-06-19T15:25:31Z</time>
      </trkpt>
      <trkpt lat="42.413172" lon="1.279726">
        <ele>1787.128</ele>
        <time>2021-06-19T15:25:32Z</time>
      </trkpt>
      <trkpt lat="42.413224" lon="1.279865">
        <ele>1785.058</ele>
        <time>2021-06-19T15:25:34Z</time>
      </trkpt>
      <trkpt lat="42.413276" lon="1.279996">
        <ele>1783.391</ele>
        <time>2021-06-19T15:25:36Z</time>
      </trkpt>
      <trkpt lat="42.413325" lon="1.280146">
        <ele>1781.548</ele>
        <time>2021-06-19T15:25:38Z</time>
      </trkpt>
      <trkpt lat="42.413352" lon="1.280229">
        <ele>1780.416</ele>
        <time>2021-06-19T15:25:39Z</time>
      </trkpt>
      <trkpt lat="42.413375" lon="1.280309">
        <ele>1779.776</ele>
        <time>2021-06-19T15:25:40Z</time>
      </trkpt>
      <trkpt lat="42.413398" lon="1.280391">
        <ele>1779.413</ele>
        <time>2021-06-19T15:25:41Z</time>
      </trkpt>
      <trkpt lat="42.413424" lon="1.280469">
        <ele>1779.008</ele>
        <time>2021-06-19T15:25:42Z</time>
      </trkpt>
      <trkpt lat="42.413473" lon="1.280633">
        <ele>1778.288</ele>
        <time>2021-06-19T15:25:44Z</time>
      </trkpt>
      <trkpt lat="42.413518" lon="1.280812">
        <ele>1777.757</ele>
        <time>2021-06-19T15:25:46Z</time>
      </trkpt>
      <trkpt lat="42.413561" lon="1.280988">
        <ele>1776.773</ele>
        <time>2021-06-19T15:25:48Z</time>
      </trkpt>
      <trkpt lat="42.413579" lon="1.281168">
        <ele>1775.547</ele>
        <time>2021-06-19T15:25:50Z</time>
      </trkpt>
      <trkpt lat="42.413581" lon="1.281251">
        <ele>1774.811</ele>
        <time>2021-06-19T15:25:51Z</time>
      </trkpt>
      <trkpt lat="42.413566" lon="1.281421">
        <ele>1773.351</ele>
        <time>2021-06-19T15:25:53Z</time>
      </trkpt>
      <trkpt lat="42.413565" lon="1.281514">
        <ele>1772.364</ele>
        <time>2021-06-19T15:25:54Z</time>
      </trkpt>
      <trkpt lat="42.413570" lon="1.281605">
        <ele>1771.471</ele>
        <time>2021-06-19T15:25:55Z</time>
      </trkpt>
      <trkpt lat="42.413584" lon="1.281804">
        <ele>1768.839</ele>
        <time>2021-06-19T15:25:57Z</time>
      </trkpt>
      <trkpt lat="42.413600" lon="1.281902">
        <ele>1767.501</ele>
        <time>2021-06-19T15:25:58Z</time>
      </trkpt>
      <trkpt lat="42.413618" lon="1.281988">
        <ele>1766.621</ele>
        <time>2021-06-19T15:25:59Z</time>
      </trkpt>
      <trkpt lat="42.413638" lon="1.282065">
        <ele>1765.908</ele>
        <time>2021-06-19T15:26:00Z</time>
      </trkpt>
      <trkpt lat="42.413691" lon="1.282202">
        <ele>1764.870</ele>
        <time>2021-06-19T15:26:02Z</time>
      </trkpt>
      <trkpt lat="42.413723" lon="1.282269">
        <ele>1764.439</ele>
        <time>2021-06-19T15:26:03Z</time>
      </trkpt>
      <trkpt lat="42.413753" lon="1.282346">
        <ele>1763.985</ele>
        <time>2021-06-19T15:26:04Z</time>
      </trkpt>
      <trkpt lat="42.413783" lon="1.282424">
        <ele>1763.599</ele>
        <time>2021-06-19T15:26:05Z</time>
      </trkpt>
      <trkpt lat="42.413847" lon="1.282591">
        <ele>1762.943</ele>
        <time>2021-06-19T15:26:07Z</time>
      </trkpt>
      <trkpt lat="42.413912" lon="1.282768">
        <ele>1762.173</ele>
        <time>2021-06-19T15:26:09Z</time>
      </trkpt>
      <trkpt lat="42.413945" lon="1.282855">
        <ele>1761.716</ele>
        <time>2021-06-19T15:26:10Z</time>
      </trkpt>
      <trkpt lat="42.414004" lon="1.283031">
        <ele>1761.153</ele>
        <time>2021-06-19T15:26:12Z</time>
      </trkpt>
      <trkpt lat="42.414020" lon="1.283105">
        <ele>1760.971</ele>
        <time>2021-06-19T15:26:13Z</time>
      </trkpt>
      <trkpt lat="42.414038" lon="1.283188">
        <ele>1760.741</ele>
        <time>2021-06-19T15:26:14Z</time>
      </trkpt>
      <trkpt lat="42.414118" lon="1.283477">
        <ele>1760.115</ele>
        <time>2021-06-19T15:26:18Z</time>
      </trkpt>
      <trkpt lat="42.414142" lon="1.283536">
        <ele>1760.008</ele>
        <time>2021-06-19T15:26:19Z</time>
      </trkpt>
      <trkpt lat="42.414150" lon="1.283578">
        <ele>1760.024</ele>
        <time>2021-06-19T15:26:20Z</time>
      </trkpt>
      <trkpt lat="42.414206" lon="1.283783">
        <ele>1759.933</ele>
        <time>2021-06-19T15:26:24Z</time>
      </trkpt>
      <trkpt lat="42.414220" lon="1.283847">
        <ele>1760.039</ele>
        <time>2021-06-19T15:26:25Z</time>
      </trkpt>
      <trkpt lat="42.414292" lon="1.284134">
        <ele>1760.033</ele>
        <time>2021-06-19T15:26:29Z</time>
      </trkpt>
      <trkpt lat="42.414382" lon="1.284364">
        <ele>1759.357</ele>
        <time>2021-06-19T15:26:32Z</time>
      </trkpt>
      <trkpt lat="42.414452" lon="1.284496">
        <ele>1758.777</ele>
        <time>2021-06-19T15:26:34Z</time>
      </trkpt>
      <trkpt lat="42.414652" lon="1.284745">
        <ele>1757.430</ele>
        <time>2021-06-19T15:26:38Z</time>
      </trkpt>
      <trkpt lat="42.414802" lon="1.284921">
        <ele>1755.477</ele>
        <time>2021-06-19T15:26:41Z</time>
      </trkpt>
      <trkpt lat="42.414900" lon="1.285038">
        <ele>1754.088</ele>
        <time>2021-06-19T15:26:43Z</time>
      </trkpt>
      <trkpt lat="42.414957" lon="1.285104">
        <ele>1753.024</ele>
        <time>2021-06-19T15:26:44Z</time>
      </trkpt>
      <trkpt lat="42.415074" lon="1.285228">
        <ele>1751.226</ele>
        <time>2021-06-19T15:26:46Z</time>
      </trkpt>
      <trkpt lat="42.415190" lon="1.285351">
        <ele>1749.408</ele>
        <time>2021-06-19T15:26:48Z</time>
      </trkpt>
      <trkpt lat="42.415246" lon="1.285406">
        <ele>1748.625</ele>
        <time>2021-06-19T15:26:49Z</time>
      </trkpt>
      <trkpt lat="42.415307" lon="1.285456">
        <ele>1747.894</ele>
        <time>2021-06-19T15:26:50Z</time>
      </trkpt>
      <trkpt lat="42.415430" lon="1.285558">
        <ele>1746.090</ele>
        <time>2021-06-19T15:26:52Z</time>
      </trkpt>
      <trkpt lat="42.415552" lon="1.285656">
        <ele>1744.614</ele>
        <time>2021-06-19T15:26:54Z</time>
      </trkpt>
      <trkpt lat="42.415656" lon="1.285754">
        <ele>1743.198</ele>
        <time>2021-06-19T15:26:56Z</time>
      </trkpt>
      <trkpt lat="42.415766" lon="1.285861">
        <ele>1741.728</ele>
        <time>2021-06-19T15:26:58Z</time>
      </trkpt>
      <trkpt lat="42.415818" lon="1.285919">
        <ele>1741.121</ele>
        <time>2021-06-19T15:26:59Z</time>
      </trkpt>
      <trkpt lat="42.415869" lon="1.285981">
        <ele>1740.248</ele>
        <time>2021-06-19T15:27:00Z</time>
      </trkpt>
      <trkpt lat="42.416048" lon="1.286193">
        <ele>1736.663</ele>
        <time>2021-06-19T15:27:03Z</time>
      </trkpt>
      <trkpt lat="42.416101" lon="1.286265">
        <ele>1735.444</ele>
        <time>2021-06-19T15:27:04Z</time>
      </trkpt>
      <trkpt lat="42.416143" lon="1.286337">
        <ele>1734.318</ele>
        <time>2021-06-19T15:27:05Z</time>
      </trkpt>
      <trkpt lat="42.416212" lon="1.286469">
        <ele>1732.708</ele>
        <time>2021-06-19T15:27:07Z</time>
      </trkpt>
      <trkpt lat="42.416237" lon="1.286541">
        <ele>1732.013</ele>
        <time>2021-06-19T15:27:08Z</time>
      </trkpt>
      <trkpt lat="42.416269" lon="1.286614">
        <ele>1731.242</ele>
        <time>2021-06-19T15:27:09Z</time>
      </trkpt>
      <trkpt lat="42.416301" lon="1.286685">
        <ele>1730.568</ele>
        <time>2021-06-19T15:27:10Z</time>
      </trkpt>
      <trkpt lat="42.416357" lon="1.286814">
        <ele>1729.252</ele>
        <time>2021-06-19T15:27:12Z</time>
      </trkpt>
      <trkpt lat="42.416424" lon="1.286951">
        <ele>1727.766</ele>
        <time>2021-06-19T15:27:15Z</time>
      </trkpt>
      <trkpt lat="42.416434" lon="1.286992">
        <ele>1727.486</ele>
        <time>2021-06-19T15:27:16Z</time>
      </trkpt>
      <trkpt lat="42.416442" lon="1.287040">
        <ele>1727.039</ele>
        <time>2021-06-19T15:27:17Z</time>
      </trkpt>
      <trkpt lat="42.416456" lon="1.287147">
        <ele>1726.256</ele>
        <time>2021-06-19T15:27:19Z</time>
      </trkpt>
      <trkpt lat="42.416444" lon="1.287205">
        <ele>1725.943</ele>
        <time>2021-06-19T15:27:21Z</time>
      </trkpt>
      <trkpt lat="42.416375" lon="1.287301">
        <ele>1725.564</ele>
        <time>2021-06-19T15:27:26Z</time>
      </trkpt>
      <trkpt lat="42.416376" lon="1.287311">
        <ele>1725.410</ele>
        <time>2021-06-19T15:27:27Z</time>
      </trkpt>
      <trkpt lat="42.416445" lon="1.287332">
        <ele>1725.008</ele>
        <time>2021-06-19T15:27:40Z</time>
      </trkpt>
      <trkpt lat="42.416466" lon="1.287291">
        <ele>1725.281</ele>
        <time>2021-06-19T15:27:42Z</time>
      </trkpt>
      <trkpt lat="42.416501" lon="1.287240">
        <ele>1725.570</ele>
        <time>2021-06-19T15:27:46Z</time>
      </trkpt>
      <trkpt lat="42.416505" lon="1.287239">
        <ele>1725.516</ele>
        <time>2021-06-19T15:27:47Z</time>
      </trkpt>
      <trkpt lat="42.416585" lon="1.287206">
        <ele>1725.460</ele>
        <time>2021-06-19T15:27:54Z</time>
      </trkpt>
      <trkpt lat="42.416624" lon="1.287194">
        <ele>1725.324</ele>
        <time>2021-06-19T15:27:56Z</time>
      </trkpt>
      <trkpt lat="42.416651" lon="1.287187">
        <ele>1725.234</ele>
        <time>2021-06-19T15:28:00Z</time>
      </trkpt>
      <trkpt lat="42.416707" lon="1.287199">
        <ele>1724.867</ele>
        <time>2021-06-19T15:28:14Z</time>
      </trkpt>
      <trkpt lat="42.416907" lon="1.287192">
        <ele>1723.474</ele>
        <time>2021-06-19T15:28:21Z</time>
      </trkpt>
      <trkpt lat="42.417142" lon="1.287201">
        <ele>1721.664</ele>
        <time>2021-06-19T15:28:27Z</time>
      </trkpt>
      <trkpt lat="42.417306" lon="1.287187">
        <ele>1720.706</ele>
        <time>2021-06-19T15:28:31Z</time>
      </trkpt>
      <trkpt lat="42.417368" lon="1.287129">
        <ele>1720.516</ele>
        <time>2021-06-19T15:28:33Z</time>
      </trkpt>
      <trkpt lat="42.417384" lon="1.287095">
        <ele>1720.408</ele>
        <time>2021-06-19T15:28:34Z</time>
      </trkpt>
      <trkpt lat="42.417420" lon="1.287078">
        <ele>1720.313</ele>
        <time>2021-06-19T15:28:36Z</time>
      </trkpt>
      <trkpt lat="42.417475" lon="1.287119">
        <ele>1720.112</ele>
        <time>2021-06-19T15:28:39Z</time>
      </trkpt>
      <trkpt lat="42.417499" lon="1.287124">
        <ele>1720.078</ele>
        <time>2021-06-19T15:28:40Z</time>
      </trkpt>
      <trkpt lat="42.417606" lon="1.287165">
        <ele>1719.912</ele>
        <time>2021-06-19T15:28:45Z</time>
      </trkpt>
      <trkpt lat="42.417631" lon="1.287224">
        <ele>1720.026</ele>
        <time>2021-06-19T15:28:48Z</time>
      </trkpt>
      <trkpt lat="42.417652" lon="1.287299">
        <ele>1720.076</ele>
        <time>2021-06-19T15:28:51Z</time>
      </trkpt>
      <trkpt lat="42.417704" lon="1.287496">
        <ele>1720.099</ele>
        <time>2021-06-19T15:28:59Z</time>
      </trkpt>
      <trkpt lat="42.417747" lon="1.287661">
        <ele>1720.596</ele>
        <time>2021-06-19T15:29:04Z</time>
      </trkpt>
      <trkpt lat="42.417722" lon="1.287848">
        <ele>1720.815</ele>
        <time>2021-06-19T15:29:10Z</time>
      </trkpt>
      <trkpt lat="42.417737" lon="1.287890">
        <ele>1720.965</ele>
        <time>2021-06-19T15:29:13Z</time>
      </trkpt>
      <trkpt lat="42.417756" lon="1.287888">
        <ele>1720.911</ele>
        <time>2021-06-19T15:29:14Z</time>
      </trkpt>
      <trkpt lat="42.417783" lon="1.287831">
        <ele>1721.008</ele>
        <time>2021-06-19T15:29:18Z</time>
      </trkpt>
      <trkpt lat="42.417785" lon="1.287813">
        <ele>1721.058</ele>
        <time>2021-06-19T15:29:19Z</time>
      </trkpt>
      <trkpt lat="42.417757" lon="1.287684">
        <ele>1720.687</ele>
        <time>2021-06-19T15:29:24Z</time>
      </trkpt>
      <trkpt lat="42.417691" lon="1.287468">
        <ele>1720.053</ele>
        <time>2021-06-19T15:29:31Z</time>
      </trkpt>
      <trkpt lat="42.417640" lon="1.287279">
        <ele>1720.027</ele>
        <time>2021-06-19T15:29:37Z</time>
      </trkpt>
      <trkpt lat="42.417535" lon="1.287130">
        <ele>1720.091</ele>
        <time>2021-06-19T15:29:43Z</time>
      </trkpt>
      <trkpt lat="42.417527" lon="1.287121">
        <ele>1720.091</ele>
        <time>2021-06-19T15:29:46Z</time>
      </trkpt>
      <trkpt lat="42.417516" lon="1.287148">
        <ele>1720.064</ele>
        <time>2021-06-19T15:30:13Z</time>
      </trkpt>
      <trkpt lat="42.417580" lon="1.287188">
        <ele>1720.021</ele>
        <time>2021-06-19T15:30:17Z</time>
      </trkpt>
      <trkpt lat="42.417598" lon="1.287189">
        <ele>1720.054</ele>
        <time>2021-06-19T15:30:18Z</time>
      </trkpt>
      <trkpt lat="42.417625" lon="1.287177">
        <ele>1719.956</ele>
        <time>2021-06-19T15:30:20Z</time>
      </trkpt>
      <trkpt lat="42.417636" lon="1.287141">
        <ele>1719.911</ele>
        <time>2021-06-19T15:30:22Z</time>
      </trkpt>
      <trkpt lat="42.417637" lon="1.287129">
        <ele>1719.808</ele>
        <time>2021-06-19T15:30:25Z</time>
      </trkpt>
      <trkpt lat="42.417563" lon="1.287100">
        <ele>1719.982</ele>
        <time>2021-06-19T16:09:15Z</time>
      </trkpt>
      <trkpt lat="42.417433" lon="1.287090">
        <ele>1720.211</ele>
        <time>2021-06-19T16:09:21Z</time>
      </trkpt>
      <trkpt lat="42.417292" lon="1.287075">
        <ele>1720.777</ele>
        <time>2021-06-19T16:09:26Z</time>
      </trkpt>
      <trkpt lat="42.417170" lon="1.287157">
        <ele>1721.461</ele>
        <time>2021-06-19T16:09:31Z</time>
      </trkpt>
      <trkpt lat="42.417027" lon="1.287203">
        <ele>1722.565</ele>
        <time>2021-06-19T16:09:36Z</time>
      </trkpt>
      <trkpt lat="42.416865" lon="1.287223">
        <ele>1723.645</ele>
        <time>2021-06-19T16:09:42Z</time>
      </trkpt>
      <trkpt lat="42.416844" lon="1.287218">
        <ele>1723.738</ele>
        <time>2021-06-19T16:09:43Z</time>
      </trkpt>
      <trkpt lat="42.416745" lon="1.287208">
        <ele>1724.515</ele>
        <time>2021-06-19T16:09:48Z</time>
      </trkpt>
      <trkpt lat="42.416730" lon="1.287203">
        <ele>1724.635</ele>
        <time>2021-06-19T16:09:49Z</time>
      </trkpt>
      <trkpt lat="42.416684" lon="1.287207">
        <ele>1724.986</ele>
        <time>2021-06-19T16:09:53Z</time>
      </trkpt>
      <trkpt lat="42.416669" lon="1.287219">
        <ele>1725.014</ele>
        <time>2021-06-19T16:09:54Z</time>
      </trkpt>
      <trkpt lat="42.416600" lon="1.287280">
        <ele>1724.808</ele>
        <time>2021-06-19T16:09:58Z</time>
      </trkpt>
      <trkpt lat="42.416558" lon="1.287329">
        <ele>1724.680</ele>
        <time>2021-06-19T16:10:00Z</time>
      </trkpt>
      <trkpt lat="42.416460" lon="1.287413">
        <ele>1724.489</ele>
        <time>2021-06-19T16:10:04Z</time>
      </trkpt>
      <trkpt lat="42.416394" lon="1.287439">
        <ele>1724.415</ele>
        <time>2021-06-19T16:10:06Z</time>
      </trkpt>
      <trkpt lat="42.416248" lon="1.287507">
        <ele>1723.939</ele>
        <time>2021-06-19T16:10:10Z</time>
      </trkpt>
      <trkpt lat="42.416205" lon="1.287522">
        <ele>1723.883</ele>
        <time>2021-06-19T16:10:11Z</time>
      </trkpt>
      <trkpt lat="42.415992" lon="1.287558">
        <ele>1723.313</ele>
        <time>2021-06-19T16:10:16Z</time>
      </trkpt>
      <trkpt lat="42.415905" lon="1.287556">
        <ele>1723.246</ele>
        <time>2021-06-19T16:10:18Z</time>
      </trkpt>
      <trkpt lat="42.415744" lon="1.287551">
        <ele>1723.333</ele>
        <time>2021-06-19T16:10:22Z</time>
      </trkpt>
      <trkpt lat="42.415580" lon="1.287542">
        <ele>1723.468</ele>
        <time>2021-06-19T16:10:26Z</time>
      </trkpt>
      <trkpt lat="42.415369" lon="1.287503">
        <ele>1724.042</ele>
        <time>2021-06-19T16:10:31Z</time>
      </trkpt>
      <trkpt lat="42.415142" lon="1.287440">
        <ele>1724.326</ele>
        <time>2021-06-19T16:10:36Z</time>
      </trkpt>
      <trkpt lat="42.415107" lon="1.287441">
        <ele>1724.208</ele>
        <time>2021-06-19T16:10:37Z</time>
      </trkpt>
      <trkpt lat="42.415006" lon="1.287441">
        <ele>1723.913</ele>
        <time>2021-06-19T16:10:41Z</time>
      </trkpt>
      <trkpt lat="42.414984" lon="1.287431">
        <ele>1723.942</ele>
        <time>2021-06-19T16:10:42Z</time>
      </trkpt>
      <trkpt lat="42.414963" lon="1.287423">
        <ele>1723.878</ele>
        <time>2021-06-19T16:10:43Z</time>
      </trkpt>
      <trkpt lat="42.414832" lon="1.287373">
        <ele>1723.382</ele>
        <time>2021-06-19T16:10:49Z</time>
      </trkpt>
      <trkpt lat="42.414722" lon="1.287309">
        <ele>1723.146</ele>
        <time>2021-06-19T16:10:52Z</time>
      </trkpt>
      <trkpt lat="42.414683" lon="1.287282">
        <ele>1723.176</ele>
        <time>2021-06-19T16:10:53Z</time>
      </trkpt>
      <trkpt lat="42.414641" lon="1.287250">
        <ele>1723.139</ele>
        <time>2021-06-19T16:10:54Z</time>
      </trkpt>
      <trkpt lat="42.414551" lon="1.287185">
        <ele>1723.376</ele>
        <time>2021-06-19T16:10:56Z</time>
      </trkpt>
      <trkpt lat="42.414376" lon="1.287038">
        <ele>1723.884</ele>
        <time>2021-06-19T16:11:00Z</time>
      </trkpt>
      <trkpt lat="42.414253" lon="1.286916">
        <ele>1723.707</ele>
        <time>2021-06-19T16:11:03Z</time>
      </trkpt>
      <trkpt lat="42.414121" lon="1.286827">
        <ele>1723.617</ele>
        <time>2021-06-19T16:11:06Z</time>
      </trkpt>
      <trkpt lat="42.414027" lon="1.286772">
        <ele>1723.308</ele>
        <time>2021-06-19T16:11:08Z</time>
      </trkpt>
      <trkpt lat="42.413890" lon="1.286654">
        <ele>1723.225</ele>
        <time>2021-06-19T16:11:11Z</time>
      </trkpt>
      <trkpt lat="42.413608" lon="1.286381">
        <ele>1722.194</ele>
        <time>2021-06-19T16:11:17Z</time>
      </trkpt>
      <trkpt lat="42.413547" lon="1.286350">
        <ele>1721.840</ele>
        <time>2021-06-19T16:11:18Z</time>
      </trkpt>
      <trkpt lat="42.413368" lon="1.286251">
        <ele>1721.044</ele>
        <time>2021-06-19T16:11:21Z</time>
      </trkpt>
      <trkpt lat="42.413301" lon="1.286208">
        <ele>1720.848</ele>
        <time>2021-06-19T16:11:22Z</time>
      </trkpt>
      <trkpt lat="42.412994" lon="1.285949">
        <ele>1720.298</ele>
        <time>2021-06-19T16:11:27Z</time>
      </trkpt>
      <trkpt lat="42.412822" lon="1.285781">
        <ele>1719.621</ele>
        <time>2021-06-19T16:11:30Z</time>
      </trkpt>
      <trkpt lat="42.412704" lon="1.285638">
        <ele>1719.298</ele>
        <time>2021-06-19T16:11:32Z</time>
      </trkpt>
      <trkpt lat="42.412400" lon="1.285258">
        <ele>1717.833</ele>
        <time>2021-06-19T16:11:37Z</time>
      </trkpt>
      <trkpt lat="42.412348" lon="1.285183">
        <ele>1717.923</ele>
        <time>2021-06-19T16:11:38Z</time>
      </trkpt>
      <trkpt lat="42.412136" lon="1.284818">
        <ele>1718.115</ele>
        <time>2021-06-19T16:11:43Z</time>
      </trkpt>
      <trkpt lat="42.412078" lon="1.284665">
        <ele>1718.508</ele>
        <time>2021-06-19T16:11:45Z</time>
      </trkpt>
      <trkpt lat="42.412052" lon="1.284581">
        <ele>1718.630</ele>
        <time>2021-06-19T16:11:46Z</time>
      </trkpt>
      <trkpt lat="42.412024" lon="1.284499">
        <ele>1718.749</ele>
        <time>2021-06-19T16:11:47Z</time>
      </trkpt>
      <trkpt lat="42.412005" lon="1.284420">
        <ele>1718.975</ele>
        <time>2021-06-19T16:11:48Z</time>
      </trkpt>
      <trkpt lat="42.411986" lon="1.284260">
        <ele>1719.089</ele>
        <time>2021-06-19T16:11:50Z</time>
      </trkpt>
      <trkpt lat="42.411973" lon="1.284179">
        <ele>1718.993</ele>
        <time>2021-06-19T16:11:51Z</time>
      </trkpt>
      <trkpt lat="42.411964" lon="1.283899">
        <ele>1719.673</ele>
        <time>2021-06-19T16:11:55Z</time>
      </trkpt>
      <trkpt lat="42.411993" lon="1.283664">
        <ele>1720.676</ele>
        <time>2021-06-19T16:11:59Z</time>
      </trkpt>
      <trkpt lat="42.412003" lon="1.283520">
        <ele>1721.043</ele>
        <time>2021-06-19T16:12:02Z</time>
      </trkpt>
      <trkpt lat="42.412054" lon="1.283262">
        <ele>1722.495</ele>
        <time>2021-06-19T16:12:08Z</time>
      </trkpt>
      <trkpt lat="42.412112" lon="1.283052">
        <ele>1723.249</ele>
        <time>2021-06-19T16:12:12Z</time>
      </trkpt>
      <trkpt lat="42.412122" lon="1.282984">
        <ele>1723.023</ele>
        <time>2021-06-19T16:12:13Z</time>
      </trkpt>
      <trkpt lat="42.412106" lon="1.282770">
        <ele>1720.508</ele>
        <time>2021-06-19T16:12:16Z</time>
      </trkpt>
      <trkpt lat="42.411993" lon="1.282590">
        <ele>1718.446</ele>
        <time>2021-06-19T16:12:19Z</time>
      </trkpt>
      <trkpt lat="42.411858" lon="1.282562">
        <ele>1717.585</ele>
        <time>2021-06-19T16:12:22Z</time>
      </trkpt>
      <trkpt lat="42.411732" lon="1.282655">
        <ele>1716.031</ele>
        <time>2021-06-19T16:12:25Z</time>
      </trkpt>
      <trkpt lat="42.411653" lon="1.282698">
        <ele>1715.365</ele>
        <time>2021-06-19T16:12:27Z</time>
      </trkpt>
      <trkpt lat="42.411571" lon="1.282720">
        <ele>1716.299</ele>
        <time>2021-06-19T16:12:29Z</time>
      </trkpt>
      <trkpt lat="42.411429" lon="1.282789">
        <ele>1717.069</ele>
        <time>2021-06-19T16:12:32Z</time>
      </trkpt>
      <trkpt lat="42.411376" lon="1.282830">
        <ele>1716.992</ele>
        <time>2021-06-19T16:12:33Z</time>
      </trkpt>
      <trkpt lat="42.411208" lon="1.282958">
        <ele>1716.779</ele>
        <time>2021-06-19T16:12:36Z</time>
      </trkpt>
      <trkpt lat="42.411149" lon="1.282995">
        <ele>1716.817</ele>
        <time>2021-06-19T16:12:37Z</time>
      </trkpt>
      <trkpt lat="42.411102" lon="1.283013">
        <ele>1717.287</ele>
        <time>2021-06-19T16:12:38Z</time>
      </trkpt>
      <trkpt lat="42.411002" lon="1.283056">
        <ele>1717.615</ele>
        <time>2021-06-19T16:12:40Z</time>
      </trkpt>
      <trkpt lat="42.410907" lon="1.283062">
        <ele>1718.808</ele>
        <time>2021-06-19T16:12:42Z</time>
      </trkpt>
      <trkpt lat="42.410858" lon="1.283060">
        <ele>1719.588</ele>
        <time>2021-06-19T16:12:43Z</time>
      </trkpt>
      <trkpt lat="42.410794" lon="1.283051">
        <ele>1719.997</ele>
        <time>2021-06-19T16:12:44Z</time>
      </trkpt>
      <trkpt lat="42.410733" lon="1.283037">
        <ele>1720.073</ele>
        <time>2021-06-19T16:12:45Z</time>
      </trkpt>
      <trkpt lat="42.410480" lon="1.282940">
        <ele>1720.767</ele>
        <time>2021-06-19T16:12:49Z</time>
      </trkpt>
      <trkpt lat="42.410413" lon="1.282912">
        <ele>1720.811</ele>
        <time>2021-06-19T16:12:50Z</time>
      </trkpt>
      <trkpt lat="42.410152" lon="1.282791">
        <ele>1720.451</ele>
        <time>2021-06-19T16:12:54Z</time>
      </trkpt>
      <trkpt lat="42.410062" lon="1.282706">
        <ele>1721.074</ele>
        <time>2021-06-19T16:12:56Z</time>
      </trkpt>
      <trkpt lat="42.410005" lon="1.282625">
        <ele>1721.891</ele>
        <time>2021-06-19T16:12:58Z</time>
      </trkpt>
      <trkpt lat="42.409925" lon="1.282416">
        <ele>1722.425</ele>
        <time>2021-06-19T16:13:03Z</time>
      </trkpt>
      <trkpt lat="42.409881" lon="1.282200">
        <ele>1723.626</ele>
        <time>2021-06-19T16:13:07Z</time>
      </trkpt>
      <trkpt lat="42.409866" lon="1.282066">
        <ele>1724.708</ele>
        <time>2021-06-19T16:13:09Z</time>
      </trkpt>
      <trkpt lat="42.409838" lon="1.281941">
        <ele>1724.908</ele>
        <time>2021-06-19T16:13:11Z</time>
      </trkpt>
      <trkpt lat="42.409764" lon="1.281819">
        <ele>1722.999</ele>
        <time>2021-06-19T16:13:13Z</time>
      </trkpt>
      <trkpt lat="42.409552" lon="1.281645">
        <ele>1717.648</ele>
        <time>2021-06-19T16:13:17Z</time>
      </trkpt>
      <trkpt lat="42.409390" lon="1.281573">
        <ele>1716.284</ele>
        <time>2021-06-19T16:13:20Z</time>
      </trkpt>
      <trkpt lat="42.409337" lon="1.281579">
        <ele>1715.868</ele>
        <time>2021-06-19T16:13:21Z</time>
      </trkpt>
      <trkpt lat="42.409158" lon="1.281694">
        <ele>1711.232</ele>
        <time>2021-06-19T16:13:25Z</time>
      </trkpt>
      <trkpt lat="42.409118" lon="1.281727">
        <ele>1711.112</ele>
        <time>2021-06-19T16:13:26Z</time>
      </trkpt>
      <trkpt lat="42.409073" lon="1.281754">
        <ele>1711.255</ele>
        <time>2021-06-19T16:13:27Z</time>
      </trkpt>
      <trkpt lat="42.408962" lon="1.281760">
        <ele>1713.842</ele>
        <time>2021-06-19T16:13:29Z</time>
      </trkpt>
      <trkpt lat="42.408790" lon="1.281713">
        <ele>1717.846</ele>
        <time>2021-06-19T16:13:32Z</time>
      </trkpt>
      <trkpt lat="42.408737" lon="1.281693">
        <ele>1718.788</ele>
        <time>2021-06-19T16:13:33Z</time>
      </trkpt>
      <trkpt lat="42.408543" lon="1.281571">
        <ele>1721.716</ele>
        <time>2021-06-19T16:13:37Z</time>
      </trkpt>
      <trkpt lat="42.408509" lon="1.281531">
        <ele>1722.308</ele>
        <time>2021-06-19T16:13:38Z</time>
      </trkpt>
      <trkpt lat="42.408365" lon="1.281415">
        <ele>1723.781</ele>
        <time>2021-06-19T16:13:43Z</time>
      </trkpt>
      <trkpt lat="42.408254" lon="1.281423">
        <ele>1723.330</ele>
        <time>2021-06-19T16:13:48Z</time>
      </trkpt>
      <trkpt lat="42.408121" lon="1.281429">
        <ele>1723.416</ele>
        <time>2021-06-19T16:13:54Z</time>
      </trkpt>
      <trkpt lat="42.408097" lon="1.281420">
        <ele>1723.840</ele>
        <time>2021-06-19T16:13:55Z</time>
      </trkpt>
      <trkpt lat="42.408002" lon="1.281418">
        <ele>1724.444</ele>
        <time>2021-06-19T16:13:59Z</time>
      </trkpt>
      <trkpt lat="42.407959" lon="1.281421">
        <ele>1724.664</ele>
        <time>2021-06-19T16:14:01Z</time>
      </trkpt>
      <trkpt lat="42.407866" lon="1.281433">
        <ele>1725.037</ele>
        <time>2021-06-19T16:14:06Z</time>
      </trkpt>
      <trkpt lat="42.407779" lon="1.281433">
        <ele>1725.724</ele>
        <time>2021-06-19T16:14:11Z</time>
      </trkpt>
      <trkpt lat="42.407636" lon="1.281395">
        <ele>1726.882</ele>
        <time>2021-06-19T16:14:18Z</time>
      </trkpt>
      <trkpt lat="42.407537" lon="1.281357">
        <ele>1727.943</ele>
        <time>2021-06-19T16:14:23Z</time>
      </trkpt>
      <trkpt lat="42.407362" lon="1.281334">
        <ele>1729.017</ele>
        <time>2021-06-19T16:14:30Z</time>
      </trkpt>
      <trkpt lat="42.407258" lon="1.281319">
        <ele>1729.708</ele>
        <time>2021-06-19T16:14:34Z</time>
      </trkpt>
      <trkpt lat="42.407230" lon="1.281318">
        <ele>1729.875</ele>
        <time>2021-06-19T16:14:36Z</time>
      </trkpt>
      <trkpt lat="42.407160" lon="1.281296">
        <ele>1730.384</ele>
        <time>2021-06-19T16:14:39Z</time>
      </trkpt>
      <trkpt lat="42.407105" lon="1.281282">
        <ele>1730.520</ele>
        <time>2021-06-19T16:14:41Z</time>
      </trkpt>
      <trkpt lat="42.406873" lon="1.281221">
        <ele>1731.754</ele>
        <time>2021-06-19T16:14:49Z</time>
      </trkpt>
      <trkpt lat="42.406822" lon="1.281202">
        <ele>1732.298</ele>
        <time>2021-06-19T16:14:51Z</time>
      </trkpt>
      <trkpt lat="42.406758" lon="1.281197">
        <ele>1732.478</ele>
        <time>2021-06-19T16:14:53Z</time>
      </trkpt>
      <trkpt lat="42.406649" lon="1.281183">
        <ele>1732.781</ele>
        <time>2021-06-19T16:14:57Z</time>
      </trkpt>
      <trkpt lat="42.406557" lon="1.281194">
        <ele>1732.678</ele>
        <time>2021-06-19T16:15:02Z</time>
      </trkpt>
      <trkpt lat="42.406440" lon="1.281158">
        <ele>1733.318</ele>
        <time>2021-06-19T16:15:07Z</time>
      </trkpt>
      <trkpt lat="42.406263" lon="1.281054">
        <ele>1734.598</ele>
        <time>2021-06-19T16:15:13Z</time>
      </trkpt>
      <trkpt lat="42.406056" lon="1.280916">
        <ele>1735.417</ele>
        <time>2021-06-19T16:15:21Z</time>
      </trkpt>
      <trkpt lat="42.406031" lon="1.280899">
        <ele>1735.508</ele>
        <time>2021-06-19T16:15:22Z</time>
      </trkpt>
      <trkpt lat="42.405936" lon="1.280828">
        <ele>1735.888</ele>
        <time>2021-06-19T16:15:26Z</time>
      </trkpt>
      <trkpt lat="42.405777" lon="1.280746">
        <ele>1736.447</ele>
        <time>2021-06-19T16:15:32Z</time>
      </trkpt>
      <trkpt lat="42.405593" lon="1.280618">
        <ele>1738.063</ele>
        <time>2021-06-19T16:15:40Z</time>
      </trkpt>
      <trkpt lat="42.405525" lon="1.280559">
        <ele>1738.637</ele>
        <time>2021-06-19T16:15:44Z</time>
      </trkpt>
      <trkpt lat="42.405482" lon="1.280511">
        <ele>1739.041</ele>
        <time>2021-06-19T16:15:46Z</time>
      </trkpt>
      <trkpt lat="42.405352" lon="1.280371">
        <ele>1740.121</ele>
        <time>2021-06-19T16:15:53Z</time>
      </trkpt>
      <trkpt lat="42.405227" lon="1.280252">
        <ele>1741.074</ele>
        <time>2021-06-19T16:15:59Z</time>
      </trkpt>
      <trkpt lat="42.405099" lon="1.280148">
        <ele>1742.261</ele>
        <time>2021-06-19T16:16:06Z</time>
      </trkpt>
      <trkpt lat="42.404924" lon="1.280097">
        <ele>1741.532</ele>
        <time>2021-06-19T16:16:12Z</time>
      </trkpt>
      <trkpt lat="42.404747" lon="1.280096">
        <ele>1739.292</ele>
        <time>2021-06-19T16:16:17Z</time>
      </trkpt>
      <trkpt lat="42.404572" lon="1.280172">
        <ele>1737.211</ele>
        <time>2021-06-19T16:16:22Z</time>
      </trkpt>
      <trkpt lat="42.404471" lon="1.280183">
        <ele>1737.508</ele>
        <time>2021-06-19T16:16:27Z</time>
      </trkpt>
      <trkpt lat="42.404347" lon="1.280169">
        <ele>1738.290</ele>
        <time>2021-06-19T16:16:33Z</time>
      </trkpt>
      <trkpt lat="42.404297" lon="1.280112">
        <ele>1739.259</ele>
        <time>2021-06-19T16:16:38Z</time>
      </trkpt>
      <trkpt lat="42.404283" lon="1.280078">
        <ele>1739.835</ele>
        <time>2021-06-19T16:16:40Z</time>
      </trkpt>
      <trkpt lat="42.404257" lon="1.279939">
        <ele>1741.499</ele>
        <time>2021-06-19T16:16:47Z</time>
      </trkpt>
      <trkpt lat="42.404281" lon="1.279824">
        <ele>1742.283</ele>
        <time>2021-06-19T16:16:54Z</time>
      </trkpt>
      <trkpt lat="42.404308" lon="1.279785">
        <ele>1742.643</ele>
        <time>2021-06-19T16:17:05Z</time>
      </trkpt>
      <trkpt lat="42.404328" lon="1.279752">
        <ele>1742.986</ele>
        <time>2021-06-19T16:17:07Z</time>
      </trkpt>
      <trkpt lat="42.404385" lon="1.279669">
        <ele>1743.983</ele>
        <time>2021-06-19T16:17:12Z</time>
      </trkpt>
      <trkpt lat="42.404394" lon="1.279651">
        <ele>1744.131</ele>
        <time>2021-06-19T16:17:13Z</time>
      </trkpt>
      <trkpt lat="42.404483" lon="1.279556">
        <ele>1745.561</ele>
        <time>2021-06-19T16:17:20Z</time>
      </trkpt>
      <trkpt lat="42.404542" lon="1.279480">
        <ele>1746.407</ele>
        <time>2021-06-19T16:17:25Z</time>
      </trkpt>
      <trkpt lat="42.404568" lon="1.279451">
        <ele>1746.808</ele>
        <time>2021-06-19T16:17:27Z</time>
      </trkpt>
      <trkpt lat="42.404673" lon="1.279354">
        <ele>1748.560</ele>
        <time>2021-06-19T16:17:35Z</time>
      </trkpt>
      <trkpt lat="42.404753" lon="1.279240">
        <ele>1750.539</ele>
        <time>2021-06-19T16:17:42Z</time>
      </trkpt>
      <trkpt lat="42.404763" lon="1.279224">
        <ele>1750.815</ele>
        <time>2021-06-19T16:17:43Z</time>
      </trkpt>
      <trkpt lat="42.404795" lon="1.279152">
        <ele>1751.829</ele>
        <time>2021-06-19T16:17:47Z</time>
      </trkpt>
      <trkpt lat="42.404804" lon="1.279116">
        <ele>1752.183</ele>
        <time>2021-06-19T16:17:49Z</time>
      </trkpt>
      <trkpt lat="42.404815" lon="1.279042">
        <ele>1752.523</ele>
        <time>2021-06-19T16:17:53Z</time>
      </trkpt>
      <trkpt lat="42.404822" lon="1.279008">
        <ele>1752.696</ele>
        <time>2021-06-19T16:17:55Z</time>
      </trkpt>
      <trkpt lat="42.404848" lon="1.278920">
        <ele>1753.273</ele>
        <time>2021-06-19T16:18:00Z</time>
      </trkpt>
      <trkpt lat="42.404864" lon="1.278852">
        <ele>1753.751</ele>
        <time>2021-06-19T16:18:07Z</time>
      </trkpt>
      <trkpt lat="42.404909" lon="1.278728">
        <ele>1754.801</ele>
        <time>2021-06-19T16:23:56Z</time>
      </trkpt>
      <trkpt lat="42.404999" lon="1.278665">
        <ele>1756.611</ele>
        <time>2021-06-19T16:24:03Z</time>
      </trkpt>
      <trkpt lat="42.405011" lon="1.278664">
        <ele>1756.808</ele>
        <time>2021-06-19T16:24:04Z</time>
      </trkpt>
      <trkpt lat="42.405076" lon="1.278679">
        <ele>1757.682</ele>
        <time>2021-06-19T16:24:09Z</time>
      </trkpt>
      <trkpt lat="42.405135" lon="1.278708">
        <ele>1758.241</ele>
        <time>2021-06-19T16:24:14Z</time>
      </trkpt>
      <trkpt lat="42.405278" lon="1.278761">
        <ele>1759.977</ele>
        <time>2021-06-19T16:24:22Z</time>
      </trkpt>
      <trkpt lat="42.405456" lon="1.278805">
        <ele>1761.521</ele>
        <time>2021-06-19T16:24:31Z</time>
      </trkpt>
      <trkpt lat="42.405585" lon="1.278835">
        <ele>1762.715</ele>
        <time>2021-06-19T16:24:38Z</time>
      </trkpt>
      <trkpt lat="42.405622" lon="1.278834">
        <ele>1763.145</ele>
        <time>2021-06-19T16:24:40Z</time>
      </trkpt>
      <trkpt lat="42.405708" lon="1.278816">
        <ele>1764.218</ele>
        <time>2021-06-19T16:24:45Z</time>
      </trkpt>
      <trkpt lat="42.405743" lon="1.278810">
        <ele>1764.665</ele>
        <time>2021-06-19T16:24:47Z</time>
      </trkpt>
      <trkpt lat="42.405781" lon="1.278825">
        <ele>1764.911</ele>
        <time>2021-06-19T16:24:50Z</time>
      </trkpt>
      <trkpt lat="42.405834" lon="1.278783">
        <ele>1765.821</ele>
        <time>2021-06-19T16:24:55Z</time>
      </trkpt>
      <trkpt lat="42.405896" lon="1.278691">
        <ele>1767.103</ele>
        <time>2021-06-19T16:25:02Z</time>
      </trkpt>
      <trkpt lat="42.405943" lon="1.278633">
        <ele>1768.008</ele>
        <time>2021-06-19T16:25:07Z</time>
      </trkpt>
      <trkpt lat="42.405971" lon="1.278590">
        <ele>1768.738</ele>
        <time>2021-06-19T16:25:10Z</time>
      </trkpt>
      <trkpt lat="42.406022" lon="1.278518">
        <ele>1769.937</ele>
        <time>2021-06-19T16:25:16Z</time>
      </trkpt>
      <trkpt lat="42.406107" lon="1.278425">
        <ele>1772.073</ele>
        <time>2021-06-19T16:25:25Z</time>
      </trkpt>
      <trkpt lat="42.406191" lon="1.278327">
        <ele>1773.677</ele>
        <time>2021-06-19T16:25:34Z</time>
      </trkpt>
      <trkpt lat="42.406263" lon="1.278240">
        <ele>1775.171</ele>
        <time>2021-06-19T16:25:42Z</time>
      </trkpt>
      <trkpt lat="42.406363" lon="1.278143">
        <ele>1776.921</ele>
        <time>2021-06-19T16:25:52Z</time>
      </trkpt>
      <trkpt lat="42.406482" lon="1.278067">
        <ele>1778.614</ele>
        <time>2021-06-19T16:26:02Z</time>
      </trkpt>
      <trkpt lat="42.406582" lon="1.278023">
        <ele>1779.781</ele>
        <time>2021-06-19T16:26:10Z</time>
      </trkpt>
      <trkpt lat="42.406605" lon="1.278020">
        <ele>1779.949</ele>
        <time>2021-06-19T16:26:12Z</time>
      </trkpt>
      <trkpt lat="42.406654" lon="1.277992">
        <ele>1780.602</ele>
        <time>2021-06-19T16:26:16Z</time>
      </trkpt>
      <trkpt lat="42.406732" lon="1.277892">
        <ele>1782.322</ele>
        <time>2021-06-19T16:26:24Z</time>
      </trkpt>
      <trkpt lat="42.406838" lon="1.277782">
        <ele>1784.208</ele>
        <time>2021-06-19T16:26:34Z</time>
      </trkpt>
      <trkpt lat="42.406970" lon="1.277697">
        <ele>1785.861</ele>
        <time>2021-06-19T16:26:45Z</time>
      </trkpt>
      <trkpt lat="42.407110" lon="1.277645">
        <ele>1787.120</ele>
        <time>2021-06-19T16:26:55Z</time>
      </trkpt>
      <trkpt lat="42.407226" lon="1.277615">
        <ele>1788.236</ele>
        <time>2021-06-19T16:27:03Z</time>
      </trkpt>
      <trkpt lat="42.407301" lon="1.277607">
        <ele>1788.880</ele>
        <time>2021-06-19T16:27:10Z</time>
      </trkpt>
      <trkpt lat="42.407385" lon="1.277585">
        <ele>1789.674</ele>
        <time>2021-06-19T16:27:20Z</time>
      </trkpt>
      <trkpt lat="42.407525" lon="1.277564">
        <ele>1790.794</ele>
        <time>2021-06-19T16:27:31Z</time>
      </trkpt>
      <trkpt lat="42.407609" lon="1.277558">
        <ele>1791.137</ele>
        <time>2021-06-19T16:27:36Z</time>
      </trkpt>
      <trkpt lat="42.407634" lon="1.277559">
        <ele>1791.224</ele>
        <time>2021-06-19T16:27:38Z</time>
      </trkpt>
      <trkpt lat="42.407725" lon="1.277561">
        <ele>1791.577</ele>
        <time>2021-06-19T16:27:44Z</time>
      </trkpt>
      <trkpt lat="42.407827" lon="1.277552">
        <ele>1792.261</ele>
        <time>2021-06-19T16:27:52Z</time>
      </trkpt>
      <trkpt lat="42.407856" lon="1.277535">
        <ele>1792.527</ele>
        <time>2021-06-19T16:27:54Z</time>
      </trkpt>
      <trkpt lat="42.407870" lon="1.277526">
        <ele>1792.608</ele>
        <time>2021-06-19T16:27:55Z</time>
      </trkpt>
      <trkpt lat="42.407997" lon="1.277485">
        <ele>1793.644</ele>
        <time>2021-06-19T16:28:01Z</time>
      </trkpt>
      <trkpt lat="42.408060" lon="1.277461">
        <ele>1794.213</ele>
        <time>2021-06-19T16:28:06Z</time>
      </trkpt>
      <trkpt lat="42.408071" lon="1.277457">
        <ele>1794.339</ele>
        <time>2021-06-19T16:28:07Z</time>
      </trkpt>
      <trkpt lat="42.408181" lon="1.277436">
        <ele>1795.513</ele>
        <time>2021-06-19T16:28:15Z</time>
      </trkpt>
      <trkpt lat="42.408231" lon="1.277423">
        <ele>1796.057</ele>
        <time>2021-06-19T16:28:18Z</time>
      </trkpt>
      <trkpt lat="42.408295" lon="1.277406">
        <ele>1796.677</ele>
        <time>2021-06-19T16:28:22Z</time>
      </trkpt>
      <trkpt lat="42.408319" lon="1.277407">
        <ele>1796.930</ele>
        <time>2021-06-19T16:28:24Z</time>
      </trkpt>
      <trkpt lat="42.408466" lon="1.277391">
        <ele>1798.977</ele>
        <time>2021-06-19T16:28:32Z</time>
      </trkpt>
      <trkpt lat="42.408484" lon="1.277392">
        <ele>1799.255</ele>
        <time>2021-06-19T16:28:33Z</time>
      </trkpt>
      <trkpt lat="42.408622" lon="1.277381">
        <ele>1801.207</ele>
        <time>2021-06-19T16:28:40Z</time>
      </trkpt>
      <trkpt lat="42.408720" lon="1.277339">
        <ele>1802.617</ele>
        <time>2021-06-19T16:28:46Z</time>
      </trkpt>
      <trkpt lat="42.408739" lon="1.277332">
        <ele>1802.808</ele>
        <time>2021-06-19T16:28:47Z</time>
      </trkpt>
      <trkpt lat="42.408802" lon="1.277270">
        <ele>1803.762</ele>
        <time>2021-06-19T16:28:53Z</time>
      </trkpt>
      <trkpt lat="42.408825" lon="1.277260">
        <ele>1804.121</ele>
        <time>2021-06-19T16:28:55Z</time>
      </trkpt>
      <trkpt lat="42.408882" lon="1.277219">
        <ele>1804.967</ele>
        <time>2021-06-19T16:29:00Z</time>
      </trkpt>
      <trkpt lat="42.408957" lon="1.277171">
        <ele>1806.031</ele>
        <time>2021-06-19T16:29:06Z</time>
      </trkpt>
      <trkpt lat="42.409020" lon="1.277146">
        <ele>1807.125</ele>
        <time>2021-06-19T16:29:12Z</time>
      </trkpt>
      <trkpt lat="42.409102" lon="1.277107">
        <ele>1808.435</ele>
        <time>2021-06-19T16:29:19Z</time>
      </trkpt>
      <trkpt lat="42.409156" lon="1.277077">
        <ele>1809.368</ele>
        <time>2021-06-19T16:29:24Z</time>
      </trkpt>
      <trkpt lat="42.409184" lon="1.277049">
        <ele>1809.745</ele>
        <time>2021-06-19T16:29:26Z</time>
      </trkpt>
      <trkpt lat="42.409193" lon="1.277039">
        <ele>1809.868</ele>
        <time>2021-06-19T16:29:27Z</time>
      </trkpt>
      <trkpt lat="42.409272" lon="1.276970">
        <ele>1811.042</ele>
        <time>2021-06-19T16:29:35Z</time>
      </trkpt>
      <trkpt lat="42.409302" lon="1.276940">
        <ele>1811.426</ele>
        <time>2021-06-19T16:29:38Z</time>
      </trkpt>
      <trkpt lat="42.409378" lon="1.276891">
        <ele>1812.408</ele>
        <time>2021-06-19T16:29:44Z</time>
      </trkpt>
      <trkpt lat="42.409443" lon="1.276827">
        <ele>1813.163</ele>
        <time>2021-06-19T16:29:50Z</time>
      </trkpt>
      <trkpt lat="42.409454" lon="1.276818">
        <ele>1813.372</ele>
        <time>2021-06-19T16:29:51Z</time>
      </trkpt>
      <trkpt lat="42.409467" lon="1.276808">
        <ele>1813.438</ele>
        <time>2021-06-19T16:29:53Z</time>
      </trkpt>
      <trkpt lat="42.410326" lon="1.276342">
        <ele>1826.452</ele>
        <time>2021-06-19T16:33:20Z</time>
      </trkpt>
      <trkpt lat="42.410355" lon="1.276324">
        <ele>1826.756</ele>
        <time>2021-06-19T16:33:22Z</time>
      </trkpt>
      <trkpt lat="42.410435" lon="1.276271">
        <ele>1827.796</ele>
        <time>2021-06-19T16:33:28Z</time>
      </trkpt>
      <trkpt lat="42.410464" lon="1.276247">
        <ele>1828.099</ele>
        <time>2021-06-19T16:33:31Z</time>
      </trkpt>
      <trkpt lat="42.410476" lon="1.276237">
        <ele>1828.236</ele>
        <time>2021-06-19T16:33:32Z</time>
      </trkpt>
      <trkpt lat="42.410504" lon="1.276212">
        <ele>1828.573</ele>
        <time>2021-06-19T16:33:34Z</time>
      </trkpt>
      <trkpt lat="42.410565" lon="1.276144">
        <ele>1829.385</ele>
        <time>2021-06-19T16:33:40Z</time>
      </trkpt>
      <trkpt lat="42.410658" lon="1.276096">
        <ele>1830.413</ele>
        <time>2021-06-19T16:33:46Z</time>
      </trkpt>
      <trkpt lat="42.410725" lon="1.276024">
        <ele>1830.808</ele>
        <time>2021-06-19T16:33:52Z</time>
      </trkpt>
      <trkpt lat="42.410822" lon="1.275940">
        <ele>1831.634</ele>
        <time>2021-06-19T16:33:59Z</time>
      </trkpt>
      <trkpt lat="42.410840" lon="1.275930">
        <ele>1831.853</ele>
        <time>2021-06-19T16:34:00Z</time>
      </trkpt>
      <trkpt lat="42.410929" lon="1.275855">
        <ele>1832.299</ele>
        <time>2021-06-19T16:34:06Z</time>
      </trkpt>
      <trkpt lat="42.410971" lon="1.275803">
        <ele>1832.443</ele>
        <time>2021-06-19T16:34:09Z</time>
      </trkpt>
      <trkpt lat="42.411014" lon="1.275752">
        <ele>1832.887</ele>
        <time>2021-06-19T16:34:12Z</time>
      </trkpt>
      <trkpt lat="42.411117" lon="1.275643">
        <ele>1834.177</ele>
        <time>2021-06-19T16:34:19Z</time>
      </trkpt>
      <trkpt lat="42.411133" lon="1.275629">
        <ele>1834.260</ele>
        <time>2021-06-19T16:34:20Z</time>
      </trkpt>
      <trkpt lat="42.411236" lon="1.275560">
        <ele>1835.377</ele>
        <time>2021-06-19T16:34:26Z</time>
      </trkpt>
      <trkpt lat="42.411282" lon="1.275517">
        <ele>1835.856</ele>
        <time>2021-06-19T16:34:29Z</time>
      </trkpt>
      <trkpt lat="42.411299" lon="1.275504">
        <ele>1836.059</ele>
        <time>2021-06-19T16:34:30Z</time>
      </trkpt>
      <trkpt lat="42.411331" lon="1.275483">
        <ele>1836.314</ele>
        <time>2021-06-19T16:34:32Z</time>
      </trkpt>
      <trkpt lat="42.411365" lon="1.275466">
        <ele>1836.708</ele>
        <time>2021-06-19T16:34:34Z</time>
      </trkpt>
      <trkpt lat="42.411415" lon="1.275434">
        <ele>1837.122</ele>
        <time>2021-06-19T16:34:38Z</time>
      </trkpt>
      <trkpt lat="42.411437" lon="1.275411">
        <ele>1837.321</ele>
        <time>2021-06-19T16:34:40Z</time>
      </trkpt>
      <trkpt lat="42.411483" lon="1.275339">
        <ele>1837.687</ele>
        <time>2021-06-19T16:34:45Z</time>
      </trkpt>
      <trkpt lat="42.411531" lon="1.275264">
        <ele>1838.181</ele>
        <time>2021-06-19T16:34:50Z</time>
      </trkpt>
      <trkpt lat="42.411592" lon="1.275178">
        <ele>1839.235</ele>
        <time>2021-06-19T16:34:55Z</time>
      </trkpt>
      <trkpt lat="42.411606" lon="1.275148">
        <ele>1839.535</ele>
        <time>2021-06-19T16:34:57Z</time>
      </trkpt>
      <trkpt lat="42.411636" lon="1.275071">
        <ele>1840.338</ele>
        <time>2021-06-19T16:35:01Z</time>
      </trkpt>
      <trkpt lat="42.411643" lon="1.275053">
        <ele>1840.415</ele>
        <time>2021-06-19T16:35:02Z</time>
      </trkpt>
      <trkpt lat="42.411701" lon="1.274923">
        <ele>1841.866</ele>
        <time>2021-06-19T16:35:09Z</time>
      </trkpt>
      <trkpt lat="42.411708" lon="1.274901">
        <ele>1842.029</ele>
        <time>2021-06-19T16:35:10Z</time>
      </trkpt>
      <trkpt lat="42.411715" lon="1.274880">
        <ele>1842.221</ele>
        <time>2021-06-19T16:35:11Z</time>
      </trkpt>
      <trkpt lat="42.411750" lon="1.274784">
        <ele>1843.208</ele>
        <time>2021-06-19T16:35:16Z</time>
      </trkpt>
      <trkpt lat="42.411796" lon="1.274696">
        <ele>1844.143</ele>
        <time>2021-06-19T16:35:21Z</time>
      </trkpt>
      <trkpt lat="42.411817" lon="1.274672">
        <ele>1844.472</ele>
        <time>2021-06-19T16:35:23Z</time>
      </trkpt>
      <trkpt lat="42.411824" lon="1.274656">
        <ele>1844.558</ele>
        <time>2021-06-19T16:35:24Z</time>
      </trkpt>
      <trkpt lat="42.411850" lon="1.274591">
        <ele>1845.112</ele>
        <time>2021-06-19T16:35:28Z</time>
      </trkpt>
      <trkpt lat="42.411872" lon="1.274530">
        <ele>1845.796</ele>
        <time>2021-06-19T16:35:32Z</time>
      </trkpt>
      <trkpt lat="42.411885" lon="1.274495">
        <ele>1846.036</ele>
        <time>2021-06-19T16:35:34Z</time>
      </trkpt>
      <trkpt lat="42.411889" lon="1.274476">
        <ele>1846.229</ele>
        <time>2021-06-19T16:35:35Z</time>
      </trkpt>
      <trkpt lat="42.411929" lon="1.274326">
        <ele>1847.266</ele>
        <time>2021-06-19T16:35:42Z</time>
      </trkpt>
      <trkpt lat="42.412005" lon="1.274147">
        <ele>1848.275</ele>
        <time>2021-06-19T16:35:50Z</time>
      </trkpt>
      <trkpt lat="42.412073" lon="1.274051">
        <ele>1848.428</ele>
        <time>2021-06-19T16:35:55Z</time>
      </trkpt>
      <trkpt lat="42.412110" lon="1.273987">
        <ele>1848.720</ele>
        <time>2021-06-19T16:35:58Z</time>
      </trkpt>
      <trkpt lat="42.412200" lon="1.273814">
        <ele>1849.508</ele>
        <time>2021-06-19T16:36:06Z</time>
      </trkpt>
      <trkpt lat="42.412304" lon="1.273668">
        <ele>1850.074</ele>
        <time>2021-06-19T16:36:13Z</time>
      </trkpt>
      <trkpt lat="42.412321" lon="1.273649">
        <ele>1850.173</ele>
        <time>2021-06-19T16:36:14Z</time>
      </trkpt>
      <trkpt lat="42.412418" lon="1.273541">
        <ele>1850.889</ele>
        <time>2021-06-19T16:36:20Z</time>
      </trkpt>
      <trkpt lat="42.412600" lon="1.273364">
        <ele>1851.893</ele>
        <time>2021-06-19T16:36:31Z</time>
      </trkpt>
      <trkpt lat="42.412716" lon="1.273304">
        <ele>1852.447</ele>
        <time>2021-06-19T16:36:37Z</time>
      </trkpt>
      <trkpt lat="42.412854" lon="1.273155">
        <ele>1853.387</ele>
        <time>2021-06-19T16:36:46Z</time>
      </trkpt>
      <trkpt lat="42.412973" lon="1.273013">
        <ele>1854.610</ele>
        <time>2021-06-19T16:36:54Z</time>
      </trkpt>
      <trkpt lat="42.412988" lon="1.272995">
        <ele>1854.837</ele>
        <time>2021-06-19T16:36:55Z</time>
      </trkpt>
      <trkpt lat="42.413160" lon="1.272814">
        <ele>1855.948</ele>
        <time>2021-06-19T16:37:06Z</time>
      </trkpt>
      <trkpt lat="42.413349" lon="1.272694">
        <ele>1856.861</ele>
        <time>2021-06-19T16:37:16Z</time>
      </trkpt>
      <trkpt lat="42.413482" lon="1.272573">
        <ele>1857.217</ele>
        <time>2021-06-19T16:37:23Z</time>
      </trkpt>
      <trkpt lat="42.413578" lon="1.272430">
        <ele>1857.708</ele>
        <time>2021-06-19T16:37:30Z</time>
      </trkpt>
      <trkpt lat="42.413706" lon="1.272240">
        <ele>1859.061</ele>
        <time>2021-06-19T16:37:39Z</time>
      </trkpt>
      <trkpt lat="42.413719" lon="1.272218">
        <ele>1859.230</ele>
        <time>2021-06-19T16:37:40Z</time>
      </trkpt>
      <trkpt lat="42.413814" lon="1.272071">
        <ele>1860.096</ele>
        <time>2021-06-19T16:37:47Z</time>
      </trkpt>
      <trkpt lat="42.413907" lon="1.271956">
        <ele>1861.110</ele>
        <time>2021-06-19T16:37:54Z</time>
      </trkpt>
      <trkpt lat="42.413986" lon="1.271855">
        <ele>1861.594</ele>
        <time>2021-06-19T16:38:00Z</time>
      </trkpt>
      <trkpt lat="42.414028" lon="1.271761">
        <ele>1861.774</ele>
        <time>2021-06-19T16:38:04Z</time>
      </trkpt>
      <trkpt lat="42.414052" lon="1.271709">
        <ele>1861.867</ele>
        <time>2021-06-19T16:38:06Z</time>
      </trkpt>
      <trkpt lat="42.414148" lon="1.271544">
        <ele>1862.384</ele>
        <time>2021-06-19T16:38:13Z</time>
      </trkpt>
      <trkpt lat="42.414213" lon="1.271409">
        <ele>1862.795</ele>
        <time>2021-06-19T16:38:18Z</time>
      </trkpt>
      <trkpt lat="42.414265" lon="1.271323">
        <ele>1863.049</ele>
        <time>2021-06-19T16:38:22Z</time>
      </trkpt>
      <trkpt lat="42.414309" lon="1.271262">
        <ele>1863.423</ele>
        <time>2021-06-19T16:38:25Z</time>
      </trkpt>
      <trkpt lat="42.414374" lon="1.271164">
        <ele>1864.008</ele>
        <time>2021-06-19T16:38:31Z</time>
      </trkpt>
      <trkpt lat="42.414380" lon="1.271148">
        <ele>1864.076</ele>
        <time>2021-06-19T16:38:32Z</time>
      </trkpt>
      <trkpt lat="42.414409" lon="1.271100">
        <ele>1864.445</ele>
        <time>2021-06-19T16:38:35Z</time>
      </trkpt>
      <trkpt lat="42.414422" lon="1.271081">
        <ele>1864.631</ele>
        <time>2021-06-19T16:38:36Z</time>
      </trkpt>
      <trkpt lat="42.414443" lon="1.271018">
        <ele>1865.015</ele>
        <time>2021-06-19T16:38:39Z</time>
      </trkpt>
      <trkpt lat="42.414464" lon="1.270964">
        <ele>1865.349</ele>
        <time>2021-06-19T16:38:42Z</time>
      </trkpt>
      <trkpt lat="42.414525" lon="1.270895">
        <ele>1866.469</ele>
        <time>2021-06-19T16:38:47Z</time>
      </trkpt>
      <trkpt lat="42.414535" lon="1.270880">
        <ele>1866.622</ele>
        <time>2021-06-19T16:38:48Z</time>
      </trkpt>
      <trkpt lat="42.414611" lon="1.270719">
        <ele>1868.239</ele>
        <time>2021-06-19T16:38:57Z</time>
      </trkpt>
      <trkpt lat="42.414615" lon="1.270681">
        <ele>1868.431</ele>
        <time>2021-06-19T16:38:59Z</time>
      </trkpt>
      <trkpt lat="42.414629" lon="1.270604">
        <ele>1868.961</ele>
        <time>2021-06-19T16:39:03Z</time>
      </trkpt>
      <trkpt lat="42.414642" lon="1.270565">
        <ele>1869.207</ele>
        <time>2021-06-19T16:39:05Z</time>
      </trkpt>
      <trkpt lat="42.414683" lon="1.270451">
        <ele>1870.508</ele>
        <time>2021-06-19T16:39:11Z</time>
      </trkpt>
      <trkpt lat="42.414701" lon="1.270395">
        <ele>1871.190</ele>
        <time>2021-06-19T16:39:14Z</time>
      </trkpt>
      <trkpt lat="42.414746" lon="1.270288">
        <ele>1872.249</ele>
        <time>2021-06-19T16:39:20Z</time>
      </trkpt>
      <trkpt lat="42.414794" lon="1.270161">
        <ele>1872.985</ele>
        <time>2021-06-19T16:39:27Z</time>
      </trkpt>
      <trkpt lat="42.414861" lon="1.270027">
        <ele>1874.059</ele>
        <time>2021-06-19T16:39:35Z</time>
      </trkpt>
      <trkpt lat="42.414911" lon="1.269914">
        <ele>1875.013</ele>
        <time>2021-06-19T16:39:42Z</time>
      </trkpt>
      <trkpt lat="42.414928" lon="1.269884">
        <ele>1875.453</ele>
        <time>2021-06-19T16:39:44Z</time>
      </trkpt>
      <trkpt lat="42.414999" lon="1.269761">
        <ele>1876.886</ele>
        <time>2021-06-19T16:39:52Z</time>
      </trkpt>
      <trkpt lat="42.415023" lon="1.269700">
        <ele>1877.573</ele>
        <time>2021-06-19T16:39:56Z</time>
      </trkpt>
      <trkpt lat="42.415059" lon="1.269603">
        <ele>1878.734</ele>
        <time>2021-06-19T16:40:02Z</time>
      </trkpt>
      <trkpt lat="42.415115" lon="1.269520">
        <ele>1880.155</ele>
        <time>2021-06-19T16:40:09Z</time>
      </trkpt>
      <trkpt lat="42.415125" lon="1.269508">
        <ele>1880.310</ele>
        <time>2021-06-19T16:40:10Z</time>
      </trkpt>
      <trkpt lat="42.415160" lon="1.269438">
        <ele>1881.308</ele>
        <time>2021-06-19T16:40:15Z</time>
      </trkpt>
      <trkpt lat="42.415186" lon="1.269344">
        <ele>1882.320</ele>
        <time>2021-06-19T16:40:20Z</time>
      </trkpt>
      <trkpt lat="42.415189" lon="1.269330">
        <ele>1882.479</ele>
        <time>2021-06-19T16:40:21Z</time>
      </trkpt>
      <trkpt lat="42.415194" lon="1.269314">
        <ele>1882.655</ele>
        <time>2021-06-19T16:40:22Z</time>
      </trkpt>
      <trkpt lat="42.415236" lon="1.269180">
        <ele>1884.269</ele>
        <time>2021-06-19T16:40:30Z</time>
      </trkpt>
      <trkpt lat="42.415259" lon="1.269093">
        <ele>1885.283</ele>
        <time>2021-06-19T16:40:35Z</time>
      </trkpt>
      <trkpt lat="42.415268" lon="1.269061">
        <ele>1885.643</ele>
        <time>2021-06-19T16:40:37Z</time>
      </trkpt>
      <trkpt lat="42.415288" lon="1.268943">
        <ele>1886.876</ele>
        <time>2021-06-19T16:40:44Z</time>
      </trkpt>
      <trkpt lat="42.415298" lon="1.268895">
        <ele>1887.363</ele>
        <time>2021-06-19T16:40:47Z</time>
      </trkpt>
      <trkpt lat="42.415305" lon="1.268849">
        <ele>1887.848</ele>
        <time>2021-06-19T16:40:50Z</time>
      </trkpt>
      <trkpt lat="42.415351" lon="1.268733">
        <ele>1889.361</ele>
        <time>2021-06-19T16:40:58Z</time>
      </trkpt>
      <trkpt lat="42.415357" lon="1.268716">
        <ele>1889.517</ele>
        <time>2021-06-19T16:40:59Z</time>
      </trkpt>
      <trkpt lat="42.415361" lon="1.268697">
        <ele>1889.708</ele>
        <time>2021-06-19T16:41:00Z</time>
      </trkpt>
      <trkpt lat="42.415409" lon="1.268570">
        <ele>1891.061</ele>
        <time>2021-06-19T16:41:08Z</time>
      </trkpt>
      <trkpt lat="42.415443" lon="1.268494">
        <ele>1891.880</ele>
        <time>2021-06-19T16:41:13Z</time>
      </trkpt>
      <trkpt lat="42.415469" lon="1.268453">
        <ele>1892.396</ele>
        <time>2021-06-19T16:41:16Z</time>
      </trkpt>
      <trkpt lat="42.415479" lon="1.268344">
        <ele>1892.940</ele>
        <time>2021-06-19T16:41:22Z</time>
      </trkpt>
      <trkpt lat="42.415492" lon="1.268311">
        <ele>1893.214</ele>
        <time>2021-06-19T16:41:24Z</time>
      </trkpt>
      <trkpt lat="42.415498" lon="1.268293">
        <ele>1893.484</ele>
        <time>2021-06-19T16:41:25Z</time>
      </trkpt>
      <trkpt lat="42.415526" lon="1.268235">
        <ele>1894.287</ele>
        <time>2021-06-19T16:41:29Z</time>
      </trkpt>
      <trkpt lat="42.415538" lon="1.268169">
        <ele>1894.974</ele>
        <time>2021-06-19T16:41:33Z</time>
      </trkpt>
      <trkpt lat="42.415551" lon="1.268122">
        <ele>1895.483</ele>
        <time>2021-06-19T16:41:36Z</time>
      </trkpt>
      <trkpt lat="42.415584" lon="1.268001">
        <ele>1896.625</ele>
        <time>2021-06-19T16:41:43Z</time>
      </trkpt>
      <trkpt lat="42.415585" lon="1.267983">
        <ele>1896.717</ele>
        <time>2021-06-19T16:41:44Z</time>
      </trkpt>
      <trkpt lat="42.415599" lon="1.267838">
        <ele>1897.508</ele>
        <time>2021-06-19T16:41:52Z</time>
      </trkpt>
      <trkpt lat="42.415599" lon="1.267801">
        <ele>1897.755</ele>
        <time>2021-06-19T16:41:54Z</time>
      </trkpt>
      <trkpt lat="42.415596" lon="1.267697">
        <ele>1898.624</ele>
        <time>2021-06-19T16:42:00Z</time>
      </trkpt>
      <trkpt lat="42.415597" lon="1.267625">
        <ele>1899.330</ele>
        <time>2021-06-19T16:42:04Z</time>
      </trkpt>
      <trkpt lat="42.415610" lon="1.267529">
        <ele>1900.514</ele>
        <time>2021-06-19T16:42:10Z</time>
      </trkpt>
      <trkpt lat="42.415613" lon="1.267515">
        <ele>1900.778</ele>
        <time>2021-06-19T16:42:11Z</time>
      </trkpt>
      <trkpt lat="42.415618" lon="1.267483">
        <ele>1901.088</ele>
        <time>2021-06-19T16:42:13Z</time>
      </trkpt>
      <trkpt lat="42.415632" lon="1.267421">
        <ele>1901.771</ele>
        <time>2021-06-19T16:42:17Z</time>
      </trkpt>
      <trkpt lat="42.415641" lon="1.267369">
        <ele>1902.288</ele>
        <time>2021-06-19T16:42:20Z</time>
      </trkpt>
      <trkpt lat="42.415657" lon="1.267286">
        <ele>1903.051</ele>
        <time>2021-06-19T16:42:25Z</time>
      </trkpt>
      <trkpt lat="42.415658" lon="1.267255">
        <ele>1903.201</ele>
        <time>2021-06-19T16:42:27Z</time>
      </trkpt>
      <trkpt lat="42.415664" lon="1.267224">
        <ele>1903.511</ele>
        <time>2021-06-19T16:42:29Z</time>
      </trkpt>
      <trkpt lat="42.415666" lon="1.267208">
        <ele>1903.708</ele>
        <time>2021-06-19T16:42:30Z</time>
      </trkpt>
      <trkpt lat="42.415681" lon="1.267152">
        <ele>1904.272</ele>
        <time>2021-06-19T16:42:34Z</time>
      </trkpt>
      <trkpt lat="42.415699" lon="1.267070">
        <ele>1904.981</ele>
        <time>2021-06-19T16:42:39Z</time>
      </trkpt>
      <trkpt lat="42.415706" lon="1.267033">
        <ele>1905.257</ele>
        <time>2021-06-19T16:42:41Z</time>
      </trkpt>
      <trkpt lat="42.415731" lon="1.266938">
        <ele>1906.211</ele>
        <time>2021-06-19T16:42:47Z</time>
      </trkpt>
      <trkpt lat="42.415742" lon="1.266905">
        <ele>1906.625</ele>
        <time>2021-06-19T16:42:49Z</time>
      </trkpt>
      <trkpt lat="42.415773" lon="1.266785">
        <ele>1907.955</ele>
        <time>2021-06-19T16:42:56Z</time>
      </trkpt>
      <trkpt lat="42.415779" lon="1.266767">
        <ele>1908.238</ele>
        <time>2021-06-19T16:42:57Z</time>
      </trkpt>
      <trkpt lat="42.415822" lon="1.266672">
        <ele>1909.735</ele>
        <time>2021-06-19T16:43:04Z</time>
      </trkpt>
      <trkpt lat="42.415824" lon="1.266657">
        <ele>1909.835</ele>
        <time>2021-06-19T16:43:05Z</time>
      </trkpt>
      <trkpt lat="42.415846" lon="1.266574">
        <ele>1910.286</ele>
        <time>2021-06-19T16:43:10Z</time>
      </trkpt>
      <trkpt lat="42.415860" lon="1.266539">
        <ele>1910.414</ele>
        <time>2021-06-19T16:43:12Z</time>
      </trkpt>
      <trkpt lat="42.415873" lon="1.266503">
        <ele>1910.708</ele>
        <time>2021-06-19T16:43:14Z</time>
      </trkpt>
      <trkpt lat="42.415912" lon="1.266392">
        <ele>1911.420</ele>
        <time>2021-06-19T16:43:20Z</time>
      </trkpt>
      <trkpt lat="42.415940" lon="1.266341">
        <ele>1911.949</ele>
        <time>2021-06-19T16:43:23Z</time>
      </trkpt>
      <trkpt lat="42.415972" lon="1.266258">
        <ele>1912.565</ele>
        <time>2021-06-19T16:43:28Z</time>
      </trkpt>
      <trkpt lat="42.416000" lon="1.266169">
        <ele>1913.029</ele>
        <time>2021-06-19T16:43:33Z</time>
      </trkpt>
      <trkpt lat="42.416023" lon="1.266116">
        <ele>1913.473</ele>
        <time>2021-06-19T16:43:36Z</time>
      </trkpt>
      <trkpt lat="42.416032" lon="1.266082">
        <ele>1913.583</ele>
        <time>2021-06-19T16:43:38Z</time>
      </trkpt>
      <trkpt lat="42.416054" lon="1.266026">
        <ele>1913.936</ele>
        <time>2021-06-19T16:43:41Z</time>
      </trkpt>
      <trkpt lat="42.416068" lon="1.265985">
        <ele>1914.223</ele>
        <time>2021-06-19T16:43:43Z</time>
      </trkpt>
      <trkpt lat="42.416111" lon="1.265872">
        <ele>1915.033</ele>
        <time>2021-06-19T16:43:49Z</time>
      </trkpt>
      <trkpt lat="42.416121" lon="1.265817">
        <ele>1915.223</ele>
        <time>2021-06-19T16:43:52Z</time>
      </trkpt>
      <trkpt lat="42.416168" lon="1.265679">
        <ele>1915.715</ele>
        <time>2021-06-19T16:43:59Z</time>
      </trkpt>
      <trkpt lat="42.416178" lon="1.265659">
        <ele>1915.808</ele>
        <time>2021-06-19T16:44:00Z</time>
      </trkpt>
      <trkpt lat="42.416190" lon="1.265625">
        <ele>1916.010</ele>
        <time>2021-06-19T16:44:02Z</time>
      </trkpt>
      <trkpt lat="42.416212" lon="1.265566">
        <ele>1916.249</ele>
        <time>2021-06-19T16:44:05Z</time>
      </trkpt>
      <trkpt lat="42.416232" lon="1.265524">
        <ele>1916.495</ele>
        <time>2021-06-19T16:44:07Z</time>
      </trkpt>
      <trkpt lat="42.416247" lon="1.265511">
        <ele>1916.789</ele>
        <time>2021-06-19T16:44:08Z</time>
      </trkpt>
      <trkpt lat="42.416301" lon="1.265485">
        <ele>1917.723</ele>
        <time>2021-06-19T16:44:11Z</time>
      </trkpt>
      <trkpt lat="42.416333" lon="1.265432">
        <ele>1918.083</ele>
        <time>2021-06-19T16:44:14Z</time>
      </trkpt>
      <trkpt lat="42.416340" lon="1.265412">
        <ele>1918.076</ele>
        <time>2021-06-19T16:44:15Z</time>
      </trkpt>
      <trkpt lat="42.416348" lon="1.265391">
        <ele>1918.053</ele>
        <time>2021-06-19T16:44:16Z</time>
      </trkpt>
      <trkpt lat="42.416413" lon="1.265267">
        <ele>1918.471</ele>
        <time>2021-06-19T16:44:22Z</time>
      </trkpt>
      <trkpt lat="42.416467" lon="1.265171">
        <ele>1919.041</ele>
        <time>2021-06-19T16:44:27Z</time>
      </trkpt>
      <trkpt lat="42.416513" lon="1.265095">
        <ele>1919.615</ele>
        <time>2021-06-19T16:44:31Z</time>
      </trkpt>
      <trkpt lat="42.416551" lon="1.264989">
        <ele>1919.908</ele>
        <time>2021-06-19T16:44:36Z</time>
      </trkpt>
      <trkpt lat="42.416600" lon="1.264901">
        <ele>1920.484</ele>
        <time>2021-06-19T16:44:41Z</time>
      </trkpt>
      <trkpt lat="42.416618" lon="1.264863">
        <ele>1920.523</ele>
        <time>2021-06-19T16:44:43Z</time>
      </trkpt>
      <trkpt lat="42.416700" lon="1.264725">
        <ele>1921.559</ele>
        <time>2021-06-19T16:44:51Z</time>
      </trkpt>
      <trkpt lat="42.416714" lon="1.264709">
        <ele>1921.633</ele>
        <time>2021-06-19T16:44:52Z</time>
      </trkpt>
      <trkpt lat="42.416793" lon="1.264608">
        <ele>1922.247</ele>
        <time>2021-06-19T16:44:58Z</time>
      </trkpt>
      <trkpt lat="42.416847" lon="1.264515">
        <ele>1922.677</ele>
        <time>2021-06-19T16:45:03Z</time>
      </trkpt>
      <trkpt lat="42.416914" lon="1.264375">
        <ele>1922.910</ele>
        <time>2021-06-19T16:45:09Z</time>
      </trkpt>
      <trkpt lat="42.416941" lon="1.264334">
        <ele>1923.117</ele>
        <time>2021-06-19T16:45:11Z</time>
      </trkpt>
      <trkpt lat="42.417013" lon="1.264235">
        <ele>1923.519</ele>
        <time>2021-06-19T16:45:16Z</time>
      </trkpt>
      <trkpt lat="42.417044" lon="1.264196">
        <ele>1923.609</ele>
        <time>2021-06-19T16:45:18Z</time>
      </trkpt>
      <trkpt lat="42.417164" lon="1.264055">
        <ele>1924.219</ele>
        <time>2021-06-19T16:45:26Z</time>
      </trkpt>
      <trkpt lat="42.417283" lon="1.263954">
        <ele>1925.108</ele>
        <time>2021-06-19T16:45:33Z</time>
      </trkpt>
      <trkpt lat="42.417312" lon="1.263926">
        <ele>1925.238</ele>
        <time>2021-06-19T16:45:35Z</time>
      </trkpt>
      <trkpt lat="42.417356" lon="1.263868">
        <ele>1925.257</ele>
        <time>2021-06-19T16:45:38Z</time>
      </trkpt>
      <trkpt lat="42.417401" lon="1.263824">
        <ele>1925.153</ele>
        <time>2021-06-19T16:45:41Z</time>
      </trkpt>
      <trkpt lat="42.417415" lon="1.263817">
        <ele>1925.237</ele>
        <time>2021-06-19T16:45:42Z</time>
      </trkpt>
      <trkpt lat="42.417420" lon="1.263811">
        <ele>1925.241</ele>
        <time>2021-06-19T16:45:44Z</time>
      </trkpt>
      <trkpt lat="42.417632" lon="1.263676">
        <ele>1925.791</ele>
        <time>2021-06-19T16:49:19Z</time>
      </trkpt>
      <trkpt lat="42.417650" lon="1.263664">
        <ele>1925.744</ele>
        <time>2021-06-19T16:49:20Z</time>
      </trkpt>
      <trkpt lat="42.417706" lon="1.263619">
        <ele>1925.631</ele>
        <time>2021-06-19T16:49:23Z</time>
      </trkpt>
      <trkpt lat="42.417748" lon="1.263581">
        <ele>1925.453</ele>
        <time>2021-06-19T16:49:25Z</time>
      </trkpt>
      <trkpt lat="42.417852" lon="1.263446">
        <ele>1925.204</ele>
        <time>2021-06-19T16:49:30Z</time>
      </trkpt>
      <trkpt lat="42.418023" lon="1.263274">
        <ele>1925.714</ele>
        <time>2021-06-19T16:49:36Z</time>
      </trkpt>
      <trkpt lat="42.418146" lon="1.263117">
        <ele>1924.808</ele>
        <time>2021-06-19T16:49:40Z</time>
      </trkpt>
      <trkpt lat="42.418218" lon="1.263057">
        <ele>1924.832</ele>
        <time>2021-06-19T16:49:42Z</time>
      </trkpt>
      <trkpt lat="42.418464" lon="1.262907">
        <ele>1925.181</ele>
        <time>2021-06-19T16:49:49Z</time>
      </trkpt>
      <trkpt lat="42.418685" lon="1.262751">
        <ele>1925.067</ele>
        <time>2021-06-19T16:49:56Z</time>
      </trkpt>
      <trkpt lat="42.418715" lon="1.262733">
        <ele>1925.081</ele>
        <time>2021-06-19T16:49:57Z</time>
      </trkpt>
      <trkpt lat="42.418881" lon="1.262666">
        <ele>1925.245</ele>
        <time>2021-06-19T16:50:02Z</time>
      </trkpt>
      <trkpt lat="42.418999" lon="1.262580">
        <ele>1925.075</ele>
        <time>2021-06-19T16:50:06Z</time>
      </trkpt>
      <trkpt lat="42.419023" lon="1.262560">
        <ele>1924.948</ele>
        <time>2021-06-19T16:50:07Z</time>
      </trkpt>
      <trkpt lat="42.419144" lon="1.262446">
        <ele>1924.915</ele>
        <time>2021-06-19T16:50:12Z</time>
      </trkpt>
      <trkpt lat="42.419206" lon="1.262385">
        <ele>1925.148</ele>
        <time>2021-06-19T16:50:15Z</time>
      </trkpt>
      <trkpt lat="42.419226" lon="1.262365">
        <ele>1925.261</ele>
        <time>2021-06-19T16:50:17Z</time>
      </trkpt>
      <trkpt lat="42.419228" lon="1.262364">
        <ele>1925.217</ele>
        <time>2021-06-19T16:50:18Z</time>
      </trkpt>
      <trkpt lat="42.419281" lon="1.262322">
        <ele>1925.408</ele>
        <time>2021-06-19T16:51:21Z</time>
      </trkpt>
      <trkpt lat="42.419317" lon="1.262288">
        <ele>1925.511</ele>
        <time>2021-06-19T16:51:23Z</time>
      </trkpt>
      <trkpt lat="42.419440" lon="1.262123">
        <ele>1926.090</ele>
        <time>2021-06-19T16:51:29Z</time>
      </trkpt>
      <trkpt lat="42.419592" lon="1.261931">
        <ele>1926.196</ele>
        <time>2021-06-19T16:51:36Z</time>
      </trkpt>
      <trkpt lat="42.419665" lon="1.261806">
        <ele>1926.980</ele>
        <time>2021-06-19T16:51:41Z</time>
      </trkpt>
      <trkpt lat="42.419713" lon="1.261691">
        <ele>1927.874</ele>
        <time>2021-06-19T16:51:47Z</time>
      </trkpt>
      <trkpt lat="42.419732" lon="1.261644">
        <ele>1928.364</ele>
        <time>2021-06-19T16:51:52Z</time>
      </trkpt>
      <trkpt lat="42.419733" lon="1.261584">
        <ele>1929.267</ele>
        <time>2021-06-19T16:52:00Z</time>
      </trkpt>
      <trkpt lat="42.419716" lon="1.261543">
        <ele>1929.854</ele>
        <time>2021-06-19T16:52:05Z</time>
      </trkpt>
      <trkpt lat="42.419569" lon="1.261313">
        <ele>1932.761</ele>
        <time>2021-06-19T16:53:32Z</time>
      </trkpt>
      <trkpt lat="42.419547" lon="1.261273">
        <ele>1933.221</ele>
        <time>2021-06-19T16:53:35Z</time>
      </trkpt>
      <trkpt lat="42.419504" lon="1.261174">
        <ele>1934.513</ele>
        <time>2021-06-19T16:53:42Z</time>
      </trkpt>
      <trkpt lat="42.419454" lon="1.261092">
        <ele>1935.408</ele>
        <time>2021-06-19T16:53:48Z</time>
      </trkpt>
      <trkpt lat="42.419448" lon="1.261077">
        <ele>1935.683</ele>
        <time>2021-06-19T16:53:49Z</time>
      </trkpt>
      <trkpt lat="42.419419" lon="1.260977">
        <ele>1937.082</ele>
        <time>2021-06-19T16:53:56Z</time>
      </trkpt>
      <trkpt lat="42.419411" lon="1.260969">
        <ele>1937.118</ele>
        <time>2021-06-19T16:53:57Z</time>
      </trkpt>
      <trkpt lat="42.419385" lon="1.260939">
        <ele>1937.222</ele>
        <time>2021-06-19T16:54:00Z</time>
      </trkpt>
      <trkpt lat="42.419372" lon="1.260909">
        <ele>1937.616</ele>
        <time>2021-06-19T16:54:02Z</time>
      </trkpt>
      <trkpt lat="42.419335" lon="1.260831">
        <ele>1938.536</ele>
        <time>2021-06-19T16:54:09Z</time>
      </trkpt>
      <trkpt lat="42.419320" lon="1.260814">
        <ele>1938.639</ele>
        <time>2021-06-19T16:54:11Z</time>
      </trkpt>
      <trkpt lat="42.419314" lon="1.260799">
        <ele>1938.756</ele>
        <time>2021-06-19T16:54:12Z</time>
      </trkpt>
      <trkpt lat="42.419294" lon="1.260756">
        <ele>1939.265</ele>
        <time>2021-06-19T16:54:15Z</time>
      </trkpt>
      <trkpt lat="42.419288" lon="1.260740">
        <ele>1939.468</ele>
        <time>2021-06-19T16:54:16Z</time>
      </trkpt>
      <trkpt lat="42.419248" lon="1.260643">
        <ele>1940.614</ele>
        <time>2021-06-19T16:54:22Z</time>
      </trkpt>
      <trkpt lat="42.419228" lon="1.260587">
        <ele>1941.308</ele>
        <time>2021-06-19T16:54:26Z</time>
      </trkpt>
      <trkpt lat="42.419201" lon="1.260546">
        <ele>1941.723</ele>
        <time>2021-06-19T16:54:29Z</time>
      </trkpt>
      <trkpt lat="42.419192" lon="1.260530">
        <ele>1941.892</ele>
        <time>2021-06-19T16:54:30Z</time>
      </trkpt>
      <trkpt lat="42.419150" lon="1.260458">
        <ele>1942.558</ele>
        <time>2021-06-19T16:54:36Z</time>
      </trkpt>
      <trkpt lat="42.419143" lon="1.260447">
        <ele>1942.612</ele>
        <time>2021-06-19T16:54:37Z</time>
      </trkpt>
      <trkpt lat="42.419115" lon="1.260384">
        <ele>1943.356</ele>
        <time>2021-06-19T16:54:42Z</time>
      </trkpt>
      <trkpt lat="42.419101" lon="1.260349">
        <ele>1943.786</ele>
        <time>2021-06-19T16:54:44Z</time>
      </trkpt>
      <trkpt lat="42.419083" lon="1.260301">
        <ele>1944.489</ele>
        <time>2021-06-19T16:54:49Z</time>
      </trkpt>
      <trkpt lat="42.418593" lon="1.259181">
        <ele>1959.336</ele>
        <time>2021-06-19T16:56:25Z</time>
      </trkpt>
      <trkpt lat="42.418560" lon="1.259062">
        <ele>1960.544</ele>
        <time>2021-06-19T16:56:32Z</time>
      </trkpt>
      <trkpt lat="42.418555" lon="1.259028">
        <ele>1960.905</ele>
        <time>2021-06-19T16:56:34Z</time>
      </trkpt>
      <trkpt lat="42.418542" lon="1.258953">
        <ele>1961.715</ele>
        <time>2021-06-19T16:56:39Z</time>
      </trkpt>
      <trkpt lat="42.418545" lon="1.258905">
        <ele>1962.608</ele>
        <time>2021-06-19T16:56:43Z</time>
      </trkpt>
      <trkpt lat="42.418539" lon="1.258876">
        <ele>1962.861</ele>
        <time>2021-06-19T16:56:45Z</time>
      </trkpt>
      <trkpt lat="42.418527" lon="1.258805">
        <ele>1963.470</ele>
        <time>2021-06-19T16:56:50Z</time>
      </trkpt>
      <trkpt lat="42.418523" lon="1.258773">
        <ele>1963.786</ele>
        <time>2021-06-19T16:56:52Z</time>
      </trkpt>
      <trkpt lat="42.418523" lon="1.258740">
        <ele>1964.160</ele>
        <time>2021-06-19T16:56:54Z</time>
      </trkpt>
      <trkpt lat="42.418514" lon="1.258689">
        <ele>1964.564</ele>
        <time>2021-06-19T16:56:58Z</time>
      </trkpt>
      <trkpt lat="42.418514" lon="1.258676">
        <ele>1964.734</ele>
        <time>2021-06-19T16:56:59Z</time>
      </trkpt>
      <trkpt lat="42.418527" lon="1.258611">
        <ele>1966.077</ele>
        <time>2021-06-19T16:57:04Z</time>
      </trkpt>
      <trkpt lat="42.418532" lon="1.258601">
        <ele>1966.264</ele>
        <time>2021-06-19T16:57:05Z</time>
      </trkpt>
      <trkpt lat="42.418539" lon="1.258594">
        <ele>1966.676</ele>
        <time>2021-06-19T16:57:06Z</time>
      </trkpt>
      <trkpt lat="42.418559" lon="1.258583">
        <ele>1967.490</ele>
        <time>2021-06-19T16:57:10Z</time>
      </trkpt>
      <trkpt lat="42.418541" lon="1.258516">
        <ele>1967.319</ele>
        <time>2021-06-19T16:59:56Z</time>
      </trkpt>
      <trkpt lat="42.418534" lon="1.258498">
        <ele>1967.208</ele>
        <time>2021-06-19T16:59:57Z</time>
      </trkpt>
      <trkpt lat="42.418527" lon="1.258396">
        <ele>1967.774</ele>
        <time>2021-06-19T17:00:02Z</time>
      </trkpt>
      <trkpt lat="42.418528" lon="1.258376">
        <ele>1967.973</ele>
        <time>2021-06-19T17:00:03Z</time>
      </trkpt>
      <trkpt lat="42.418558" lon="1.258219">
        <ele>1970.869</ele>
        <time>2021-06-19T17:00:10Z</time>
      </trkpt>
      <trkpt lat="42.418561" lon="1.258197">
        <ele>1971.233</ele>
        <time>2021-06-19T17:00:11Z</time>
      </trkpt>
      <trkpt lat="42.418564" lon="1.258061">
        <ele>1972.487</ele>
        <time>2021-06-19T17:00:17Z</time>
      </trkpt>
      <trkpt lat="42.418510" lon="1.257933">
        <ele>1972.817</ele>
        <time>2021-06-19T17:00:23Z</time>
      </trkpt>
      <trkpt lat="42.418496" lon="1.257917">
        <ele>1972.670</ele>
        <time>2021-06-19T17:00:24Z</time>
      </trkpt>
      <trkpt lat="42.418397" lon="1.257766">
        <ele>1972.957</ele>
        <time>2021-06-19T17:00:32Z</time>
      </trkpt>
      <trkpt lat="42.418382" lon="1.257750">
        <ele>1972.968</ele>
        <time>2021-06-19T17:00:33Z</time>
      </trkpt>
      <trkpt lat="42.418304" lon="1.257637">
        <ele>1974.142</ele>
        <time>2021-06-19T17:00:39Z</time>
      </trkpt>
      <trkpt lat="42.418208" lon="1.257570">
        <ele>1973.326</ele>
        <time>2021-06-19T17:00:45Z</time>
      </trkpt>
      <trkpt lat="42.418125" lon="1.257502">
        <ele>1973.208</ele>
        <time>2021-06-19T17:00:50Z</time>
      </trkpt>
      <trkpt lat="42.418008" lon="1.257375">
        <ele>1974.323</ele>
        <time>2021-06-19T17:00:57Z</time>
      </trkpt>
      <trkpt lat="42.417893" lon="1.257274">
        <ele>1975.072</ele>
        <time>2021-06-19T17:01:03Z</time>
      </trkpt>
      <trkpt lat="42.417797" lon="1.257192">
        <ele>1975.518</ele>
        <time>2021-06-19T17:01:09Z</time>
      </trkpt>
      <trkpt lat="42.417780" lon="1.257183">
        <ele>1975.332</ele>
        <time>2021-06-19T17:01:10Z</time>
      </trkpt>
      <trkpt lat="42.417733" lon="1.257140">
        <ele>1975.466</ele>
        <time>2021-06-19T17:01:13Z</time>
      </trkpt>
      <trkpt lat="42.417725" lon="1.257121">
        <ele>1975.856</ele>
        <time>2021-06-19T17:01:14Z</time>
      </trkpt>
      <trkpt lat="42.417693" lon="1.257072">
        <ele>1976.449</ele>
        <time>2021-06-19T17:01:17Z</time>
      </trkpt>
      <trkpt lat="42.417678" lon="1.257062">
        <ele>1976.386</ele>
        <time>2021-06-19T17:01:18Z</time>
      </trkpt>
      <trkpt lat="42.417664" lon="1.257050">
        <ele>1976.357</ele>
        <time>2021-06-19T17:01:19Z</time>
      </trkpt>
      <trkpt lat="42.417624" lon="1.257017">
        <ele>1976.200</ele>
        <time>2021-06-19T17:01:22Z</time>
      </trkpt>
      <trkpt lat="42.417608" lon="1.256969">
        <ele>1977.320</ele>
        <time>2021-06-19T17:01:24Z</time>
      </trkpt>
      <trkpt lat="42.417580" lon="1.256922">
        <ele>1977.908</ele>
        <time>2021-06-19T17:01:26Z</time>
      </trkpt>
      <trkpt lat="42.417554" lon="1.256871">
        <ele>1978.522</ele>
        <time>2021-06-19T17:01:28Z</time>
      </trkpt>
      <trkpt lat="42.417450" lon="1.256702">
        <ele>1979.511</ele>
        <time>2021-06-19T17:01:35Z</time>
      </trkpt>
      <trkpt lat="42.417398" lon="1.256605">
        <ele>1980.297</ele>
        <time>2021-06-19T17:01:39Z</time>
      </trkpt>
      <trkpt lat="42.417368" lon="1.256568">
        <ele>1980.211</ele>
        <time>2021-06-19T17:01:41Z</time>
      </trkpt>
      <trkpt lat="42.417288" lon="1.256418">
        <ele>1981.455</ele>
        <time>2021-06-19T17:01:47Z</time>
      </trkpt>
      <trkpt lat="42.417249" lon="1.256340">
        <ele>1981.945</ele>
        <time>2021-06-19T17:01:50Z</time>
      </trkpt>
      <trkpt lat="42.417191" lon="1.256218">
        <ele>1982.618</ele>
        <time>2021-06-19T17:01:55Z</time>
      </trkpt>
      <trkpt lat="42.417162" lon="1.256136">
        <ele>1983.355</ele>
        <time>2021-06-19T17:01:59Z</time>
      </trkpt>
      <trkpt lat="42.417152" lon="1.256107">
        <ele>1983.668</ele>
        <time>2021-06-19T17:02:00Z</time>
      </trkpt>
      <trkpt lat="42.417133" lon="1.256081">
        <ele>1983.442</ele>
        <time>2021-06-19T17:02:01Z</time>
      </trkpt>
      <trkpt lat="42.417082" lon="1.256011">
        <ele>1983.126</ele>
        <time>2021-06-19T17:02:04Z</time>
      </trkpt>
      <trkpt lat="42.417005" lon="1.255885">
        <ele>1983.108</ele>
        <time>2021-06-19T17:02:10Z</time>
      </trkpt>
      <trkpt lat="42.416995" lon="1.255861">
        <ele>1983.213</ele>
        <time>2021-06-19T17:02:11Z</time>
      </trkpt>
      <trkpt lat="42.416915" lon="1.255698">
        <ele>1984.352</ele>
        <time>2021-06-19T17:02:18Z</time>
      </trkpt>
      <trkpt lat="42.416906" lon="1.255672">
        <ele>1984.628</ele>
        <time>2021-06-19T17:02:19Z</time>
      </trkpt>
      <trkpt lat="42.416831" lon="1.255497">
        <ele>1985.832</ele>
        <time>2021-06-19T17:02:26Z</time>
      </trkpt>
      <trkpt lat="42.416811" lon="1.255446">
        <ele>1986.176</ele>
        <time>2021-06-19T17:02:28Z</time>
      </trkpt>
      <trkpt lat="42.416754" lon="1.255285">
        <ele>1987.336</ele>
        <time>2021-06-19T17:02:34Z</time>
      </trkpt>
      <trkpt lat="42.416710" lon="1.255156">
        <ele>1988.089</ele>
        <time>2021-06-19T17:02:39Z</time>
      </trkpt>
      <trkpt lat="42.416666" lon="1.255032">
        <ele>1988.456</ele>
        <time>2021-06-19T17:02:44Z</time>
      </trkpt>
      <trkpt lat="42.416611" lon="1.254870">
        <ele>1989.122</ele>
        <time>2021-06-19T17:02:51Z</time>
      </trkpt>
      <trkpt lat="42.416585" lon="1.254777">
        <ele>1989.862</ele>
        <time>2021-06-19T17:02:54Z</time>
      </trkpt>
      <trkpt lat="42.416527" lon="1.254546">
        <ele>1990.508</ele>
        <time>2021-06-19T17:03:01Z</time>
      </trkpt>
      <trkpt lat="42.416455" lon="1.254257">
        <ele>1990.408</ele>
        <time>2021-06-19T17:03:08Z</time>
      </trkpt>
      <trkpt lat="42.416434" lon="1.254169">
        <ele>1990.219</ele>
        <time>2021-06-19T17:03:10Z</time>
      </trkpt>
      <trkpt lat="42.416378" lon="1.253840">
        <ele>1989.738</ele>
        <time>2021-06-19T17:03:17Z</time>
      </trkpt>
      <trkpt lat="42.416359" lon="1.253452">
        <ele>1990.954</ele>
        <time>2021-06-19T17:03:24Z</time>
      </trkpt>
      <trkpt lat="42.416355" lon="1.253394">
        <ele>1990.948</ele>
        <time>2021-06-19T17:03:25Z</time>
      </trkpt>
      <trkpt lat="42.416314" lon="1.253195">
        <ele>1990.692</ele>
        <time>2021-06-19T17:03:29Z</time>
      </trkpt>
      <trkpt lat="42.416296" lon="1.253088">
        <ele>1990.932</ele>
        <time>2021-06-19T17:03:32Z</time>
      </trkpt>
      <trkpt lat="42.416282" lon="1.253032">
        <ele>1991.295</ele>
        <time>2021-06-19T17:03:34Z</time>
      </trkpt>
      <trkpt lat="42.416209" lon="1.252838">
        <ele>1992.632</ele>
        <time>2021-06-19T17:03:42Z</time>
      </trkpt>
      <trkpt lat="42.416166" lon="1.252782">
        <ele>1992.389</ele>
        <time>2021-06-19T17:03:45Z</time>
      </trkpt>
      <trkpt lat="42.416106" lon="1.252667">
        <ele>1992.606</ele>
        <time>2021-06-19T17:03:50Z</time>
      </trkpt>
      <trkpt lat="42.416062" lon="1.252607">
        <ele>1992.626</ele>
        <time>2021-06-19T17:03:53Z</time>
      </trkpt>
      <trkpt lat="42.416033" lon="1.252570">
        <ele>1992.608</ele>
        <time>2021-06-19T17:03:55Z</time>
      </trkpt>
      <trkpt lat="42.415919" lon="1.252400">
        <ele>1993.735</ele>
        <time>2021-06-19T17:04:03Z</time>
      </trkpt>
      <trkpt lat="42.415907" lon="1.252380">
        <ele>1993.824</ele>
        <time>2021-06-19T17:04:04Z</time>
      </trkpt>
      <trkpt lat="42.415841" lon="1.252287">
        <ele>1994.420</ele>
        <time>2021-06-19T17:04:10Z</time>
      </trkpt>
      <trkpt lat="42.415739" lon="1.252145">
        <ele>1995.574</ele>
        <time>2021-06-19T17:04:20Z</time>
      </trkpt>
      <trkpt lat="42.415701" lon="1.252073">
        <ele>1996.548</ele>
        <time>2021-06-19T17:04:24Z</time>
      </trkpt>
      <trkpt lat="42.415649" lon="1.251970">
        <ele>1998.038</ele>
        <time>2021-06-19T17:04:30Z</time>
      </trkpt>
      <trkpt lat="42.415633" lon="1.251941">
        <ele>1998.381</ele>
        <time>2021-06-19T17:04:32Z</time>
      </trkpt>
      <trkpt lat="42.415610" lon="1.251889">
        <ele>1998.838</ele>
        <time>2021-06-19T17:04:36Z</time>
      </trkpt>
      <trkpt lat="42.415581" lon="1.251788">
        <ele>2000.175</ele>
        <time>2021-06-19T17:04:41Z</time>
      </trkpt>
      <trkpt lat="42.415562" lon="1.251720">
        <ele>2001.028</ele>
        <time>2021-06-19T17:04:44Z</time>
      </trkpt>
      <trkpt lat="42.415557" lon="1.251698">
        <ele>2001.420</ele>
        <time>2021-06-19T17:04:45Z</time>
      </trkpt>
      <trkpt lat="42.415535" lon="1.251599">
        <ele>2002.308</ele>
        <time>2021-06-19T17:04:50Z</time>
      </trkpt>
      <trkpt lat="42.415510" lon="1.251410">
        <ele>2004.124</ele>
        <time>2021-06-19T17:04:59Z</time>
      </trkpt>
      <trkpt lat="42.415509" lon="1.251394">
        <ele>2004.373</ele>
        <time>2021-06-19T17:05:00Z</time>
      </trkpt>
      <trkpt lat="42.415495" lon="1.251299">
        <ele>2005.059</ele>
        <time>2021-06-19T17:05:05Z</time>
      </trkpt>
      <trkpt lat="42.415493" lon="1.251154">
        <ele>2006.813</ele>
        <time>2021-06-19T17:05:12Z</time>
      </trkpt>
      <trkpt lat="42.415502" lon="1.251007">
        <ele>2007.817</ele>
        <time>2021-06-19T17:05:20Z</time>
      </trkpt>
      <trkpt lat="42.415504" lon="1.250886">
        <ele>2007.997</ele>
        <time>2021-06-19T17:05:26Z</time>
      </trkpt>
      <trkpt lat="42.415530" lon="1.250657">
        <ele>2008.490</ele>
        <time>2021-06-19T17:05:32Z</time>
      </trkpt>
      <trkpt lat="42.415539" lon="1.250464">
        <ele>2008.767</ele>
        <time>2021-06-19T17:05:37Z</time>
      </trkpt>
      <trkpt lat="42.415525" lon="1.250292">
        <ele>2008.813</ele>
        <time>2021-06-19T17:05:42Z</time>
      </trkpt>
      <trkpt lat="42.415483" lon="1.250119">
        <ele>2009.843</ele>
        <time>2021-06-19T17:05:47Z</time>
      </trkpt>
      <trkpt lat="42.415456" lon="1.250042">
        <ele>2010.107</ele>
        <time>2021-06-19T17:05:50Z</time>
      </trkpt>
      <trkpt lat="42.415370" lon="1.249874">
        <ele>2010.708</ele>
        <time>2021-06-19T17:05:58Z</time>
      </trkpt>
      <trkpt lat="42.415333" lon="1.249794">
        <ele>2011.568</ele>
        <time>2021-06-19T17:06:02Z</time>
      </trkpt>
      <trkpt lat="42.415304" lon="1.249743">
        <ele>2012.187</ele>
        <time>2021-06-19T17:06:05Z</time>
      </trkpt>
      <trkpt lat="42.415250" lon="1.249631">
        <ele>2012.543</ele>
        <time>2021-06-19T17:06:11Z</time>
      </trkpt>
      <trkpt lat="42.415239" lon="1.249614">
        <ele>2012.577</ele>
        <time>2021-06-19T17:06:12Z</time>
      </trkpt>
      <trkpt lat="42.415211" lon="1.249563">
        <ele>2012.761</ele>
        <time>2021-06-19T17:06:15Z</time>
      </trkpt>
      <trkpt lat="42.415179" lon="1.249511">
        <ele>2012.971</ele>
        <time>2021-06-19T17:06:18Z</time>
      </trkpt>
      <trkpt lat="42.415158" lon="1.249468">
        <ele>2013.474</ele>
        <time>2021-06-19T17:06:20Z</time>
      </trkpt>
      <trkpt lat="42.415110" lon="1.249334">
        <ele>2015.161</ele>
        <time>2021-06-19T17:06:26Z</time>
      </trkpt>
      <trkpt lat="42.415045" lon="1.249186">
        <ele>2017.149</ele>
        <time>2021-06-19T17:06:34Z</time>
      </trkpt>
      <trkpt lat="42.414988" lon="1.249095">
        <ele>2018.102</ele>
        <time>2021-06-19T17:06:40Z</time>
      </trkpt>
      <trkpt lat="42.414925" lon="1.249001">
        <ele>2020.122</ele>
        <time>2021-06-19T17:06:47Z</time>
      </trkpt>
      <trkpt lat="42.414859" lon="1.248886">
        <ele>2022.608</ele>
        <time>2021-06-19T17:06:55Z</time>
      </trkpt>
      <trkpt lat="42.414838" lon="1.248861">
        <ele>2023.231</ele>
        <time>2021-06-19T17:06:57Z</time>
      </trkpt>
      <trkpt lat="42.414821" lon="1.248832">
        <ele>2023.760</ele>
        <time>2021-06-19T17:06:59Z</time>
      </trkpt>
      <trkpt lat="42.414784" lon="1.248801">
        <ele>2024.396</ele>
        <time>2021-06-19T17:07:02Z</time>
      </trkpt>
      <trkpt lat="42.414706" lon="1.248748">
        <ele>2024.920</ele>
        <time>2021-06-19T17:07:08Z</time>
      </trkpt>
      <trkpt lat="42.414678" lon="1.248730">
        <ele>2024.874</ele>
        <time>2021-06-19T17:07:10Z</time>
      </trkpt>
      <trkpt lat="42.414556" lon="1.248664">
        <ele>2024.494</ele>
        <time>2021-06-19T17:07:18Z</time>
      </trkpt>
      <trkpt lat="42.414399" lon="1.248596">
        <ele>2024.097</ele>
        <time>2021-06-19T17:07:23Z</time>
      </trkpt>
      <trkpt lat="42.414314" lon="1.248579">
        <ele>2023.744</ele>
        <time>2021-06-19T17:07:25Z</time>
      </trkpt>
      <trkpt lat="42.414178" lon="1.248590">
        <ele>2022.586</ele>
        <time>2021-06-19T17:07:28Z</time>
      </trkpt>
      <trkpt lat="42.414135" lon="1.248595">
        <ele>2022.260</ele>
        <time>2021-06-19T17:07:29Z</time>
      </trkpt>
      <trkpt lat="42.414020" lon="1.248587">
        <ele>2022.026</ele>
        <time>2021-06-19T17:07:32Z</time>
      </trkpt>
      <trkpt lat="42.413844" lon="1.248545">
        <ele>2022.508</ele>
        <time>2021-06-19T17:07:37Z</time>
      </trkpt>
      <trkpt lat="42.413804" lon="1.248540">
        <ele>2022.835</ele>
        <time>2021-06-19T17:07:38Z</time>
      </trkpt>
      <trkpt lat="42.413584" lon="1.248522">
        <ele>2024.494</ele>
        <time>2021-06-19T17:07:45Z</time>
      </trkpt>
      <trkpt lat="42.413451" lon="1.248544">
        <ele>2026.250</ele>
        <time>2021-06-19T17:07:52Z</time>
      </trkpt>
      <trkpt lat="42.413349" lon="1.248608">
        <ele>2025.884</ele>
        <time>2021-06-19T17:07:59Z</time>
      </trkpt>
      <trkpt lat="42.413212" lon="1.248665">
        <ele>2026.788</ele>
        <time>2021-06-19T17:08:08Z</time>
      </trkpt>
      <trkpt lat="42.413111" lon="1.248686">
        <ele>2028.158</ele>
        <time>2021-06-19T17:08:15Z</time>
      </trkpt>
      <trkpt lat="42.412957" lon="1.248688">
        <ele>2029.761</ele>
        <time>2021-06-19T17:08:25Z</time>
      </trkpt>
      <trkpt lat="42.412831" lon="1.248681">
        <ele>2030.588</ele>
        <time>2021-06-19T17:08:33Z</time>
      </trkpt>
      <trkpt lat="42.412721" lon="1.248673">
        <ele>2031.223</ele>
        <time>2021-06-19T17:08:41Z</time>
      </trkpt>
      <trkpt lat="42.412618" lon="1.248639">
        <ele>2032.683</ele>
        <time>2021-06-19T17:08:48Z</time>
      </trkpt>
      <trkpt lat="42.412496" lon="1.248614">
        <ele>2033.911</ele>
        <time>2021-06-19T17:08:56Z</time>
      </trkpt>
      <trkpt lat="42.412351" lon="1.248567">
        <ele>2034.908</ele>
        <time>2021-06-19T17:09:05Z</time>
      </trkpt>
      <trkpt lat="42.412334" lon="1.248563">
        <ele>2035.059</ele>
        <time>2021-06-19T17:09:06Z</time>
      </trkpt>
      <trkpt lat="42.412283" lon="1.248547">
        <ele>2035.338</ele>
        <time>2021-06-19T17:09:09Z</time>
      </trkpt>
      <trkpt lat="42.412249" lon="1.248533">
        <ele>2035.674</ele>
        <time>2021-06-19T17:09:11Z</time>
      </trkpt>
      <trkpt lat="42.412172" lon="1.248478">
        <ele>2037.368</ele>
        <time>2021-06-19T17:09:17Z</time>
      </trkpt>
      <trkpt lat="42.412122" lon="1.248423">
        <ele>2039.172</ele>
        <time>2021-06-19T17:09:22Z</time>
      </trkpt>
      <trkpt lat="42.412111" lon="1.248418">
        <ele>2039.342</ele>
        <time>2021-06-19T17:09:23Z</time>
      </trkpt>
      <trkpt lat="42.412083" lon="1.248413">
        <ele>2039.475</ele>
        <time>2021-06-19T17:09:25Z</time>
      </trkpt>
      <trkpt lat="42.412044" lon="1.248402">
        <ele>2039.822</ele>
        <time>2021-06-19T17:09:28Z</time>
      </trkpt>
      <trkpt lat="42.411993" lon="1.248401">
        <ele>2039.876</ele>
        <time>2021-06-19T17:09:32Z</time>
      </trkpt>
      <trkpt lat="42.411978" lon="1.248398">
        <ele>2039.990</ele>
        <time>2021-06-19T17:09:33Z</time>
      </trkpt>
      <trkpt lat="42.411928" lon="1.248388">
        <ele>2040.219</ele>
        <time>2021-06-19T17:09:36Z</time>
      </trkpt>
      <trkpt lat="42.411911" lon="1.248386">
        <ele>2040.208</ele>
        <time>2021-06-19T17:09:37Z</time>
      </trkpt>
      <trkpt lat="42.411824" lon="1.248351">
        <ele>2041.064</ele>
        <time>2021-06-19T17:09:42Z</time>
      </trkpt>
      <trkpt lat="42.411790" lon="1.248332">
        <ele>2041.573</ele>
        <time>2021-06-19T17:09:44Z</time>
      </trkpt>
      <trkpt lat="42.411744" lon="1.248304">
        <ele>2042.029</ele>
        <time>2021-06-19T17:09:47Z</time>
      </trkpt>
      <trkpt lat="42.411728" lon="1.248298">
        <ele>2042.123</ele>
        <time>2021-06-19T17:09:48Z</time>
      </trkpt>
      <trkpt lat="42.411679" lon="1.248271">
        <ele>2042.627</ele>
        <time>2021-06-19T17:09:51Z</time>
      </trkpt>
      <trkpt lat="42.411625" lon="1.248249">
        <ele>2042.887</ele>
        <time>2021-06-19T17:09:54Z</time>
      </trkpt>
      <trkpt lat="42.411571" lon="1.248200">
        <ele>2043.540</ele>
        <time>2021-06-19T17:09:58Z</time>
      </trkpt>
      <trkpt lat="42.411558" lon="1.248197">
        <ele>2043.587</ele>
        <time>2021-06-19T17:09:59Z</time>
      </trkpt>
      <trkpt lat="42.411542" lon="1.248199">
        <ele>2043.328</ele>
        <time>2021-06-19T17:10:00Z</time>
      </trkpt>
      <trkpt lat="42.411465" lon="1.248176">
        <ele>2043.189</ele>
        <time>2021-06-19T17:10:04Z</time>
      </trkpt>
      <trkpt lat="42.411375" lon="1.248131">
        <ele>2043.317</ele>
        <time>2021-06-19T17:10:09Z</time>
      </trkpt>
      <trkpt lat="42.411358" lon="1.248126">
        <ele>2043.308</ele>
        <time>2021-06-19T17:10:10Z</time>
      </trkpt>
      <trkpt lat="42.411295" lon="1.248119">
        <ele>2043.099</ele>
        <time>2021-06-19T17:10:13Z</time>
      </trkpt>
      <trkpt lat="42.411236" lon="1.248125">
        <ele>2042.488</ele>
        <time>2021-06-19T17:10:16Z</time>
      </trkpt>
      <trkpt lat="42.411228" lon="1.248123">
        <ele>2042.444</ele>
        <time>2021-06-19T17:10:18Z</time>
      </trkpt>
      <trkpt lat="42.411077" lon="1.248002">
        <ele>2043.228</ele>
        <time>2021-06-19T17:11:35Z</time>
      </trkpt>
      <trkpt lat="42.411064" lon="1.247990">
        <ele>2043.252</ele>
        <time>2021-06-19T17:11:36Z</time>
      </trkpt>
      <trkpt lat="42.410953" lon="1.247897">
        <ele>2043.092</ele>
        <time>2021-06-19T17:11:42Z</time>
      </trkpt>
      <trkpt lat="42.410756" lon="1.247735">
        <ele>2042.445</ele>
        <time>2021-06-19T17:11:49Z</time>
      </trkpt>
      <trkpt lat="42.410595" lon="1.247615">
        <ele>2041.822</ele>
        <time>2021-06-19T17:11:53Z</time>
      </trkpt>
      <trkpt lat="42.410551" lon="1.247574">
        <ele>2041.975</ele>
        <time>2021-06-19T17:11:54Z</time>
      </trkpt>
      <trkpt lat="42.410314" lon="1.247283">
        <ele>2040.228</ele>
        <time>2021-06-19T17:11:59Z</time>
      </trkpt>
      <trkpt lat="42.410193" lon="1.247067">
        <ele>2039.820</ele>
        <time>2021-06-19T17:12:02Z</time>
      </trkpt>
      <trkpt lat="42.410149" lon="1.247001">
        <ele>2039.608</ele>
        <time>2021-06-19T17:12:03Z</time>
      </trkpt>
      <trkpt lat="42.410095" lon="1.246954">
        <ele>2039.394</ele>
        <time>2021-06-19T17:12:04Z</time>
      </trkpt>
      <trkpt lat="42.409934" lon="1.246871">
        <ele>2038.523</ele>
        <time>2021-06-19T17:12:07Z</time>
      </trkpt>
      <trkpt lat="42.409878" lon="1.246862">
        <ele>2038.229</ele>
        <time>2021-06-19T17:12:08Z</time>
      </trkpt>
      <trkpt lat="42.409758" lon="1.246843">
        <ele>2037.443</ele>
        <time>2021-06-19T17:12:10Z</time>
      </trkpt>
      <trkpt lat="42.409562" lon="1.246756">
        <ele>2035.927</ele>
        <time>2021-06-19T17:12:13Z</time>
      </trkpt>
      <trkpt lat="42.409494" lon="1.246712">
        <ele>2035.477</ele>
        <time>2021-06-19T17:12:14Z</time>
      </trkpt>
      <trkpt lat="42.409424" lon="1.246665">
        <ele>2034.820</ele>
        <time>2021-06-19T17:12:15Z</time>
      </trkpt>
      <trkpt lat="42.409216" lon="1.246497">
        <ele>2033.367</ele>
        <time>2021-06-19T17:12:18Z</time>
      </trkpt>
      <trkpt lat="42.409093" lon="1.246379">
        <ele>2032.288</ele>
        <time>2021-06-19T17:12:20Z</time>
      </trkpt>
      <trkpt lat="42.408925" lon="1.246218">
        <ele>2030.524</ele>
        <time>2021-06-19T17:12:23Z</time>
      </trkpt>
      <trkpt lat="42.408816" lon="1.246114">
        <ele>2029.526</ele>
        <time>2021-06-19T17:12:25Z</time>
      </trkpt>
      <trkpt lat="42.408703" lon="1.246029">
        <ele>2028.808</ele>
        <time>2021-06-19T17:12:27Z</time>
      </trkpt>
      <trkpt lat="42.408644" lon="1.245994">
        <ele>2028.315</ele>
        <time>2021-06-19T17:12:28Z</time>
      </trkpt>
      <trkpt lat="42.408583" lon="1.245965">
        <ele>2027.714</ele>
        <time>2021-06-19T17:12:29Z</time>
      </trkpt>
      <trkpt lat="42.408522" lon="1.245941">
        <ele>2027.030</ele>
        <time>2021-06-19T17:12:30Z</time>
      </trkpt>
      <trkpt lat="42.408399" lon="1.245907">
        <ele>2025.714</ele>
        <time>2021-06-19T17:12:32Z</time>
      </trkpt>
      <trkpt lat="42.408335" lon="1.245897">
        <ele>2025.098</ele>
        <time>2021-06-19T17:12:33Z</time>
      </trkpt>
      <trkpt lat="42.408269" lon="1.245889">
        <ele>2024.598</ele>
        <time>2021-06-19T17:12:34Z</time>
      </trkpt>
      <trkpt lat="42.408201" lon="1.245885">
        <ele>2024.031</ele>
        <time>2021-06-19T17:12:35Z</time>
      </trkpt>
      <trkpt lat="42.407986" lon="1.245892">
        <ele>2022.358</ele>
        <time>2021-06-19T17:12:38Z</time>
      </trkpt>
      <trkpt lat="42.407779" lon="1.245872">
        <ele>2021.047</ele>
        <time>2021-06-19T17:12:41Z</time>
      </trkpt>
      <trkpt lat="42.407662" lon="1.245833">
        <ele>2020.229</ele>
        <time>2021-06-19T17:12:43Z</time>
      </trkpt>
      <trkpt lat="42.407615" lon="1.245804">
        <ele>2019.721</ele>
        <time>2021-06-19T17:12:44Z</time>
      </trkpt>
      <trkpt lat="42.407551" lon="1.245699">
        <ele>2018.908</ele>
        <time>2021-06-19T17:12:46Z</time>
      </trkpt>
      <trkpt lat="42.407562" lon="1.245508">
        <ele>2017.821</ele>
        <time>2021-06-19T17:12:49Z</time>
      </trkpt>
      <trkpt lat="42.407640" lon="1.245397">
        <ele>2016.750</ele>
        <time>2021-06-19T17:12:51Z</time>
      </trkpt>
      <trkpt lat="42.407729" lon="1.245282">
        <ele>2015.716</ele>
        <time>2021-06-19T17:12:53Z</time>
      </trkpt>
      <trkpt lat="42.407975" lon="1.244904">
        <ele>2012.630</ele>
        <time>2021-06-19T17:12:59Z</time>
      </trkpt>
      <trkpt lat="42.408169" lon="1.244548">
        <ele>2009.534</ele>
        <time>2021-06-19T17:13:04Z</time>
      </trkpt>
      <trkpt lat="42.408287" lon="1.244308">
        <ele>2006.854</ele>
        <time>2021-06-19T17:13:07Z</time>
      </trkpt>
      <trkpt lat="42.408381" lon="1.244070">
        <ele>2004.117</ele>
        <time>2021-06-19T17:13:10Z</time>
      </trkpt>
      <trkpt lat="42.408478" lon="1.243844">
        <ele>2001.294</ele>
        <time>2021-06-19T17:13:13Z</time>
      </trkpt>
      <trkpt lat="42.408554" lon="1.243697">
        <ele>1999.685</ele>
        <time>2021-06-19T17:13:15Z</time>
      </trkpt>
      <trkpt lat="42.408796" lon="1.243260">
        <ele>1995.389</ele>
        <time>2021-06-19T17:13:21Z</time>
      </trkpt>
      <trkpt lat="42.409002" lon="1.242953">
        <ele>1992.417</ele>
        <time>2021-06-19T17:13:26Z</time>
      </trkpt>
      <trkpt lat="42.409043" lon="1.242895">
        <ele>1991.808</ele>
        <time>2021-06-19T17:13:27Z</time>
      </trkpt>
      <trkpt lat="42.409169" lon="1.242699">
        <ele>1989.685</ele>
        <time>2021-06-19T17:13:30Z</time>
      </trkpt>
      <trkpt lat="42.409218" lon="1.242641">
        <ele>1989.294</ele>
        <time>2021-06-19T17:13:31Z</time>
      </trkpt>
      <trkpt lat="42.409273" lon="1.242568">
        <ele>1988.560</ele>
        <time>2021-06-19T17:13:32Z</time>
      </trkpt>
      <trkpt lat="42.409466" lon="1.242286">
        <ele>1985.524</ele>
        <time>2021-06-19T17:13:36Z</time>
      </trkpt>
      <trkpt lat="42.409601" lon="1.242080">
        <ele>1984.338</ele>
        <time>2021-06-19T17:13:39Z</time>
      </trkpt>
      <trkpt lat="42.409710" lon="1.241873">
        <ele>1982.568</ele>
        <time>2021-06-19T17:13:42Z</time>
      </trkpt>
      <trkpt lat="42.409783" lon="1.241740">
        <ele>1981.451</ele>
        <time>2021-06-19T17:13:44Z</time>
      </trkpt>
      <trkpt lat="42.409850" lon="1.241607">
        <ele>1980.728</ele>
        <time>2021-06-19T17:13:46Z</time>
      </trkpt>
      <trkpt lat="42.409876" lon="1.241525">
        <ele>1980.262</ele>
        <time>2021-06-19T17:13:47Z</time>
      </trkpt>
      <trkpt lat="42.409898" lon="1.241256">
        <ele>1978.283</ele>
        <time>2021-06-19T17:13:50Z</time>
      </trkpt>
      <trkpt lat="42.409893" lon="1.241174">
        <ele>1977.511</ele>
        <time>2021-06-19T17:13:51Z</time>
      </trkpt>
      <trkpt lat="42.409879" lon="1.241018">
        <ele>1976.308</ele>
        <time>2021-06-19T17:13:53Z</time>
      </trkpt>
      <trkpt lat="42.409861" lon="1.240858">
        <ele>1975.133</ele>
        <time>2021-06-19T17:13:55Z</time>
      </trkpt>
      <trkpt lat="42.409852" lon="1.240712">
        <ele>1974.232</ele>
        <time>2021-06-19T17:13:57Z</time>
      </trkpt>
      <trkpt lat="42.409840" lon="1.240648">
        <ele>1973.718</ele>
        <time>2021-06-19T17:13:58Z</time>
      </trkpt>
      <trkpt lat="42.409822" lon="1.240589">
        <ele>1973.252</ele>
        <time>2021-06-19T17:13:59Z</time>
      </trkpt>
      <trkpt lat="42.409764" lon="1.240456">
        <ele>1972.096</ele>
        <time>2021-06-19T17:14:02Z</time>
      </trkpt>
      <trkpt lat="42.409725" lon="1.240417">
        <ele>1971.526</ele>
        <time>2021-06-19T17:14:03Z</time>
      </trkpt>
      <trkpt lat="42.409449" lon="1.240200">
        <ele>1967.349</ele>
        <time>2021-06-19T17:14:09Z</time>
      </trkpt>
      <trkpt lat="42.409398" lon="1.240175">
        <ele>1967.616</ele>
        <time>2021-06-19T17:14:10Z</time>
      </trkpt>
      <trkpt lat="42.409290" lon="1.240177">
        <ele>1968.082</ele>
        <time>2021-06-19T17:14:12Z</time>
      </trkpt>
      <trkpt lat="42.409199" lon="1.240243">
        <ele>1967.543</ele>
        <time>2021-06-19T17:14:14Z</time>
      </trkpt>
      <trkpt lat="42.409115" lon="1.240319">
        <ele>1967.017</ele>
        <time>2021-06-19T17:14:16Z</time>
      </trkpt>
      <trkpt lat="42.408815" lon="1.240653">
        <ele>1965.908</ele>
        <time>2021-06-19T17:14:23Z</time>
      </trkpt>
      <trkpt lat="42.408763" lon="1.240703">
        <ele>1965.825</ele>
        <time>2021-06-19T17:14:24Z</time>
      </trkpt>
      <trkpt lat="42.408487" lon="1.240953">
        <ele>1964.564</ele>
        <time>2021-06-19T17:14:29Z</time>
      </trkpt>
      <trkpt lat="42.408310" lon="1.241086">
        <ele>1962.690</ele>
        <time>2021-06-19T17:14:32Z</time>
      </trkpt>
      <trkpt lat="42.408248" lon="1.241120">
        <ele>1962.214</ele>
        <time>2021-06-19T17:14:33Z</time>
      </trkpt>
      <trkpt lat="42.408182" lon="1.241149">
        <ele>1962.278</ele>
        <time>2021-06-19T17:14:34Z</time>
      </trkpt>
      <trkpt lat="42.408052" lon="1.241217">
        <ele>1961.978</ele>
        <time>2021-06-19T17:14:36Z</time>
      </trkpt>
      <trkpt lat="42.407880" lon="1.241376">
        <ele>1960.241</ele>
        <time>2021-06-19T17:14:39Z</time>
      </trkpt>
      <trkpt lat="42.407642" lon="1.241720">
        <ele>1959.098</ele>
        <time>2021-06-19T17:14:44Z</time>
      </trkpt>
      <trkpt lat="42.407595" lon="1.241790">
        <ele>1958.574</ele>
        <time>2021-06-19T17:14:45Z</time>
      </trkpt>
      <trkpt lat="42.407491" lon="1.241920">
        <ele>1957.356</ele>
        <time>2021-06-19T17:14:47Z</time>
      </trkpt>
      <trkpt lat="42.407374" lon="1.242027">
        <ele>1956.621</ele>
        <time>2021-06-19T17:14:49Z</time>
      </trkpt>
      <trkpt lat="42.407020" lon="1.242242">
        <ele>1954.208</ele>
        <time>2021-06-19T17:14:55Z</time>
      </trkpt>
      <trkpt lat="42.406904" lon="1.242304">
        <ele>1953.684</ele>
        <time>2021-06-19T17:14:58Z</time>
      </trkpt>
      <trkpt lat="42.406896" lon="1.242309">
        <ele>1953.533</ele>
        <time>2021-06-19T17:15:00Z</time>
      </trkpt>
      <trkpt lat="42.406877" lon="1.242315">
        <ele>1953.449</ele>
        <time>2021-06-19T17:15:45Z</time>
      </trkpt>
      <trkpt lat="42.406740" lon="1.242371">
        <ele>1952.793</ele>
        <time>2021-06-19T17:15:49Z</time>
      </trkpt>
      <trkpt lat="42.406518" lon="1.242453">
        <ele>1951.687</ele>
        <time>2021-06-19T17:15:53Z</time>
      </trkpt>
      <trkpt lat="42.406270" lon="1.242591">
        <ele>1950.437</ele>
        <time>2021-06-19T17:15:57Z</time>
      </trkpt>
      <trkpt lat="42.406208" lon="1.242637">
        <ele>1950.010</ele>
        <time>2021-06-19T17:15:58Z</time>
      </trkpt>
      <trkpt lat="42.406032" lon="1.242814">
        <ele>1948.947</ele>
        <time>2021-06-19T17:16:01Z</time>
      </trkpt>
      <trkpt lat="42.405741" lon="1.243076">
        <ele>1948.071</ele>
        <time>2021-06-19T17:16:06Z</time>
      </trkpt>
      <trkpt lat="42.405680" lon="1.243113">
        <ele>1948.441</ele>
        <time>2021-06-19T17:16:07Z</time>
      </trkpt>
      <trkpt lat="42.405546" lon="1.243151">
        <ele>1948.315</ele>
        <time>2021-06-19T17:16:09Z</time>
      </trkpt>
      <trkpt lat="42.405405" lon="1.243153">
        <ele>1947.708</ele>
        <time>2021-06-19T17:16:11Z</time>
      </trkpt>
      <trkpt lat="42.405264" lon="1.243164">
        <ele>1947.174</ele>
        <time>2021-06-19T17:16:13Z</time>
      </trkpt>
      <trkpt lat="42.404901" lon="1.243199">
        <ele>1946.253</ele>
        <time>2021-06-19T17:16:18Z</time>
      </trkpt>
      <trkpt lat="42.404754" lon="1.243209">
        <ele>1945.879</ele>
        <time>2021-06-19T17:16:20Z</time>
      </trkpt>
      <trkpt lat="42.404610" lon="1.243203">
        <ele>1945.483</ele>
        <time>2021-06-19T17:16:22Z</time>
      </trkpt>
      <trkpt lat="42.404387" lon="1.243216">
        <ele>1945.117</ele>
        <time>2021-06-19T17:16:25Z</time>
      </trkpt>
      <trkpt lat="42.404236" lon="1.243236">
        <ele>1944.857</ele>
        <time>2021-06-19T17:16:27Z</time>
      </trkpt>
      <trkpt lat="42.404084" lon="1.243261">
        <ele>1944.750</ele>
        <time>2021-06-19T17:16:29Z</time>
      </trkpt>
      <trkpt lat="42.404006" lon="1.243258">
        <ele>1944.327</ele>
        <time>2021-06-19T17:16:30Z</time>
      </trkpt>
      <trkpt lat="42.403704" lon="1.243244">
        <ele>1943.026</ele>
        <time>2021-06-19T17:16:34Z</time>
      </trkpt>
      <trkpt lat="42.403561" lon="1.243281">
        <ele>1942.647</ele>
        <time>2021-06-19T17:16:36Z</time>
      </trkpt>
      <trkpt lat="42.403437" lon="1.243372">
        <ele>1942.611</ele>
        <time>2021-06-19T17:16:38Z</time>
      </trkpt>
      <trkpt lat="42.403373" lon="1.243410">
        <ele>1943.008</ele>
        <time>2021-06-19T17:16:39Z</time>
      </trkpt>
      <trkpt lat="42.403157" lon="1.243386">
        <ele>1942.289</ele>
        <time>2021-06-19T17:16:42Z</time>
      </trkpt>
      <trkpt lat="42.403026" lon="1.243276">
        <ele>1940.078</ele>
        <time>2021-06-19T17:16:44Z</time>
      </trkpt>
      <trkpt lat="42.402957" lon="1.243226">
        <ele>1939.394</ele>
        <time>2021-06-19T17:16:45Z</time>
      </trkpt>
      <trkpt lat="42.402884" lon="1.243183">
        <ele>1939.068</ele>
        <time>2021-06-19T17:16:46Z</time>
      </trkpt>
      <trkpt lat="42.402564" lon="1.243110">
        <ele>1937.352</ele>
        <time>2021-06-19T17:16:50Z</time>
      </trkpt>
      <trkpt lat="42.402481" lon="1.243112">
        <ele>1936.962</ele>
        <time>2021-06-19T17:16:51Z</time>
      </trkpt>
      <trkpt lat="42.402401" lon="1.243109">
        <ele>1936.355</ele>
        <time>2021-06-19T17:16:52Z</time>
      </trkpt>
      <trkpt lat="42.402157" lon="1.243073">
        <ele>1933.992</ele>
        <time>2021-06-19T17:16:55Z</time>
      </trkpt>
      <trkpt lat="42.401831" lon="1.243015">
        <ele>1930.731</ele>
        <time>2021-06-19T17:16:59Z</time>
      </trkpt>
      <trkpt lat="42.401752" lon="1.243018">
        <ele>1930.161</ele>
        <time>2021-06-19T17:17:00Z</time>
      </trkpt>
      <trkpt lat="42.401423" lon="1.242963">
        <ele>1926.907</ele>
        <time>2021-06-19T17:17:04Z</time>
      </trkpt>
      <trkpt lat="42.401255" lon="1.242921">
        <ele>1925.808</ele>
        <time>2021-06-19T17:17:06Z</time>
      </trkpt>
      <trkpt lat="42.401172" lon="1.242917">
        <ele>1925.630</ele>
        <time>2021-06-19T17:17:07Z</time>
      </trkpt>
      <trkpt lat="42.401095" lon="1.242908">
        <ele>1925.399</ele>
        <time>2021-06-19T17:17:08Z</time>
      </trkpt>
      <trkpt lat="42.400965" lon="1.242857">
        <ele>1924.125</ele>
        <time>2021-06-19T17:17:10Z</time>
      </trkpt>
      <trkpt lat="42.400864" lon="1.242773">
        <ele>1922.229</ele>
        <time>2021-06-19T17:17:12Z</time>
      </trkpt>
      <trkpt lat="42.400765" lon="1.242678">
        <ele>1920.843</ele>
        <time>2021-06-19T17:17:14Z</time>
      </trkpt>
      <trkpt lat="42.400601" lon="1.242547">
        <ele>1918.323</ele>
        <time>2021-06-19T17:17:17Z</time>
      </trkpt>
      <trkpt lat="42.400493" lon="1.242492">
        <ele>1917.286</ele>
        <time>2021-06-19T17:17:19Z</time>
      </trkpt>
      <trkpt lat="42.400400" lon="1.242454">
        <ele>1917.163</ele>
        <time>2021-06-19T17:17:21Z</time>
      </trkpt>
      <trkpt lat="42.400276" lon="1.242355">
        <ele>1915.472</ele>
        <time>2021-06-19T17:17:24Z</time>
      </trkpt>
      <trkpt lat="42.400218" lon="1.242255">
        <ele>1913.613</ele>
        <time>2021-06-19T17:17:26Z</time>
      </trkpt>
      <trkpt lat="42.400149" lon="1.242155">
        <ele>1912.914</ele>
        <time>2021-06-19T17:17:28Z</time>
      </trkpt>
      <trkpt lat="42.400097" lon="1.242120">
        <ele>1912.708</ele>
        <time>2021-06-19T17:17:29Z</time>
      </trkpt>
      <trkpt lat="42.399927" lon="1.242019">
        <ele>1910.784</ele>
        <time>2021-06-19T17:17:32Z</time>
      </trkpt>
      <trkpt lat="42.399869" lon="1.241977">
        <ele>1909.573</ele>
        <time>2021-06-19T17:17:33Z</time>
      </trkpt>
      <trkpt lat="42.399807" lon="1.241947">
        <ele>1908.319</ele>
        <time>2021-06-19T17:17:34Z</time>
      </trkpt>
      <trkpt lat="42.399600" lon="1.241884">
        <ele>1907.513</ele>
        <time>2021-06-19T17:17:37Z</time>
      </trkpt>
      <trkpt lat="42.399530" lon="1.241857">
        <ele>1907.137</ele>
        <time>2021-06-19T17:17:38Z</time>
      </trkpt>
      <trkpt lat="42.399330" lon="1.241752">
        <ele>1907.377</ele>
        <time>2021-06-19T17:17:41Z</time>
      </trkpt>
      <trkpt lat="42.399125" lon="1.241780">
        <ele>1904.450</ele>
        <time>2021-06-19T17:17:44Z</time>
      </trkpt>
      <trkpt lat="42.398912" lon="1.241732">
        <ele>1901.417</ele>
        <time>2021-06-19T17:17:47Z</time>
      </trkpt>
      <trkpt lat="42.398844" lon="1.241695">
        <ele>1900.281</ele>
        <time>2021-06-19T17:17:48Z</time>
      </trkpt>
      <trkpt lat="42.398500" lon="1.241509">
        <ele>1896.461</ele>
        <time>2021-06-19T17:17:53Z</time>
      </trkpt>
      <trkpt lat="42.398443" lon="1.241470">
        <ele>1895.417</ele>
        <time>2021-06-19T17:17:54Z</time>
      </trkpt>
      <trkpt lat="42.398287" lon="1.241313">
        <ele>1892.108</ele>
        <time>2021-06-19T17:17:57Z</time>
      </trkpt>
      <trkpt lat="42.398163" lon="1.241133">
        <ele>1890.495</ele>
        <time>2021-06-19T17:18:00Z</time>
      </trkpt>
      <trkpt lat="42.398084" lon="1.241011">
        <ele>1889.074</ele>
        <time>2021-06-19T17:18:02Z</time>
      </trkpt>
      <trkpt lat="42.397830" lon="1.240743">
        <ele>1884.860</ele>
        <time>2021-06-19T17:18:07Z</time>
      </trkpt>
      <trkpt lat="42.397795" lon="1.240669">
        <ele>1884.184</ele>
        <time>2021-06-19T17:18:08Z</time>
      </trkpt>
      <trkpt lat="42.397754" lon="1.240500">
        <ele>1883.578</ele>
        <time>2021-06-19T17:18:10Z</time>
      </trkpt>
      <trkpt lat="42.397735" lon="1.240419">
        <ele>1883.218</ele>
        <time>2021-06-19T17:18:11Z</time>
      </trkpt>
      <trkpt lat="42.397669" lon="1.240283">
        <ele>1882.411</ele>
        <time>2021-06-19T17:18:13Z</time>
      </trkpt>
      <trkpt lat="42.397500" lon="1.240182">
        <ele>1880.738</ele>
        <time>2021-06-19T17:18:16Z</time>
      </trkpt>
      <trkpt lat="42.397384" lon="1.240093">
        <ele>1879.988</ele>
        <time>2021-06-19T17:18:18Z</time>
      </trkpt>
      <trkpt lat="42.397266" lon="1.240004">
        <ele>1879.424</ele>
        <time>2021-06-19T17:18:20Z</time>
      </trkpt>
      <trkpt lat="42.397133" lon="1.239977">
        <ele>1878.726</ele>
        <time>2021-06-19T17:18:22Z</time>
      </trkpt>
      <trkpt lat="42.396994" lon="1.239955">
        <ele>1877.608</ele>
        <time>2021-06-19T17:18:24Z</time>
      </trkpt>
      <trkpt lat="42.396924" lon="1.239931">
        <ele>1877.295</ele>
        <time>2021-06-19T17:18:25Z</time>
      </trkpt>
      <trkpt lat="42.396714" lon="1.239837">
        <ele>1875.274</ele>
        <time>2021-06-19T17:18:28Z</time>
      </trkpt>
      <trkpt lat="42.396457" lon="1.239729">
        <ele>1872.270</ele>
        <time>2021-06-19T17:18:32Z</time>
      </trkpt>
      <trkpt lat="42.396396" lon="1.239705">
        <ele>1871.614</ele>
        <time>2021-06-19T17:18:33Z</time>
      </trkpt>
      <trkpt lat="42.396113" lon="1.239611">
        <ele>1869.288</ele>
        <time>2021-06-19T17:18:37Z</time>
      </trkpt>
      <trkpt lat="42.396040" lon="1.239581">
        <ele>1868.568</ele>
        <time>2021-06-19T17:18:38Z</time>
      </trkpt>
      <trkpt lat="42.395972" lon="1.239546">
        <ele>1867.871</ele>
        <time>2021-06-19T17:18:39Z</time>
      </trkpt>
      <trkpt lat="42.395752" lon="1.239436">
        <ele>1865.228</ele>
        <time>2021-06-19T17:18:43Z</time>
      </trkpt>
      <trkpt lat="42.395657" lon="1.239390">
        <ele>1864.733</ele>
        <time>2021-06-19T17:18:45Z</time>
      </trkpt>
      <trkpt lat="42.395486" lon="1.239315">
        <ele>1863.123</ele>
        <time>2021-06-19T17:18:48Z</time>
      </trkpt>
      <trkpt lat="42.395311" lon="1.239227">
        <ele>1861.215</ele>
        <time>2021-06-19T17:18:51Z</time>
      </trkpt>
      <trkpt lat="42.395138" lon="1.239173">
        <ele>1860.008</ele>
        <time>2021-06-19T17:18:54Z</time>
      </trkpt>
      <trkpt lat="42.394793" lon="1.239125">
        <ele>1857.850</ele>
        <time>2021-06-19T17:18:59Z</time>
      </trkpt>
      <trkpt lat="42.394352" lon="1.239020">
        <ele>1855.139</ele>
        <time>2021-06-19T17:19:05Z</time>
      </trkpt>
      <trkpt lat="42.394282" lon="1.239005">
        <ele>1854.965</ele>
        <time>2021-06-19T17:19:06Z</time>
      </trkpt>
      <trkpt lat="42.394032" lon="1.238926">
        <ele>1854.499</ele>
        <time>2021-06-19T17:19:10Z</time>
      </trkpt>
      <trkpt lat="42.393991" lon="1.238906">
        <ele>1854.433</ele>
        <time>2021-06-19T17:19:11Z</time>
      </trkpt>
      <trkpt lat="42.393878" lon="1.238830">
        <ele>1854.363</ele>
        <time>2021-06-19T17:19:15Z</time>
      </trkpt>
      <trkpt lat="42.393818" lon="1.238772">
        <ele>1853.356</ele>
        <time>2021-06-19T17:19:17Z</time>
      </trkpt>
      <trkpt lat="42.393751" lon="1.238682">
        <ele>1852.653</ele>
        <time>2021-06-19T17:19:19Z</time>
      </trkpt>
      <trkpt lat="42.393619" lon="1.238531">
        <ele>1851.372</ele>
        <time>2021-06-19T17:19:22Z</time>
      </trkpt>
      <trkpt lat="42.393508" lon="1.238440">
        <ele>1850.013</ele>
        <time>2021-06-19T17:19:24Z</time>
      </trkpt>
      <trkpt lat="42.393189" lon="1.238129">
        <ele>1847.214</ele>
        <time>2021-06-19T17:19:30Z</time>
      </trkpt>
      <trkpt lat="42.393139" lon="1.238074">
        <ele>1846.708</ele>
        <time>2021-06-19T17:19:31Z</time>
      </trkpt>
      <trkpt lat="42.393030" lon="1.237985">
        <ele>1845.994</ele>
        <time>2021-06-19T17:19:33Z</time>
      </trkpt>
      <trkpt lat="42.392899" lon="1.237916">
        <ele>1845.043</ele>
        <time>2021-06-19T17:19:35Z</time>
      </trkpt>
      <trkpt lat="42.392760" lon="1.237886">
        <ele>1843.019</ele>
        <time>2021-06-19T17:19:37Z</time>
      </trkpt>
      <trkpt lat="42.392686" lon="1.237865">
        <ele>1842.283</ele>
        <time>2021-06-19T17:19:38Z</time>
      </trkpt>
      <trkpt lat="42.392612" lon="1.237837">
        <ele>1841.387</ele>
        <time>2021-06-19T17:19:39Z</time>
      </trkpt>
      <trkpt lat="42.392257" lon="1.237673">
        <ele>1838.377</ele>
        <time>2021-06-19T17:19:43Z</time>
      </trkpt>
      <trkpt lat="42.392130" lon="1.237597">
        <ele>1836.650</ele>
        <time>2021-06-19T17:19:46Z</time>
      </trkpt>
      <trkpt lat="42.391923" lon="1.237489">
        <ele>1833.947</ele>
        <time>2021-06-19T17:19:50Z</time>
      </trkpt>
      <trkpt lat="42.391809" lon="1.237436">
        <ele>1833.087</ele>
        <time>2021-06-19T17:19:52Z</time>
      </trkpt>
      <trkpt lat="42.391630" lon="1.237347">
        <ele>1831.342</ele>
        <time>2021-06-19T17:19:55Z</time>
      </trkpt>
      <trkpt lat="42.391508" lon="1.237287">
        <ele>1830.726</ele>
        <time>2021-06-19T17:19:57Z</time>
      </trkpt>
      <trkpt lat="42.391443" lon="1.237260">
        <ele>1830.208</ele>
        <time>2021-06-19T17:19:58Z</time>
      </trkpt>
      <trkpt lat="42.391306" lon="1.237225">
        <ele>1829.145</ele>
        <time>2021-06-19T17:20:00Z</time>
      </trkpt>
      <trkpt lat="42.390971" lon="1.237168">
        <ele>1825.824</ele>
        <time>2021-06-19T17:20:05Z</time>
      </trkpt>
      <trkpt lat="42.390681" lon="1.237005">
        <ele>1824.210</ele>
        <time>2021-06-19T17:20:09Z</time>
      </trkpt>
      <trkpt lat="42.390611" lon="1.236962">
        <ele>1823.254</ele>
        <time>2021-06-19T17:20:10Z</time>
      </trkpt>
      <trkpt lat="42.390397" lon="1.236848">
        <ele>1822.428</ele>
        <time>2021-06-19T17:20:14Z</time>
      </trkpt>
      <trkpt lat="42.390118" lon="1.236690">
        <ele>1819.598</ele>
        <time>2021-06-19T17:20:19Z</time>
      </trkpt>
      <trkpt lat="42.389894" lon="1.236487">
        <ele>1818.231</ele>
        <time>2021-06-19T17:20:23Z</time>
      </trkpt>
      <trkpt lat="42.389845" lon="1.236428">
        <ele>1817.818</ele>
        <time>2021-06-19T17:20:24Z</time>
      </trkpt>
      <trkpt lat="42.389795" lon="1.236358">
        <ele>1817.275</ele>
        <time>2021-06-19T17:20:25Z</time>
      </trkpt>
      <trkpt lat="42.389596" lon="1.236062">
        <ele>1815.428</ele>
        <time>2021-06-19T17:20:29Z</time>
      </trkpt>
      <trkpt lat="42.389542" lon="1.235998">
        <ele>1814.720</ele>
        <time>2021-06-19T17:20:30Z</time>
      </trkpt>
      <trkpt lat="42.389300" lon="1.235718">
        <ele>1812.208</ele>
        <time>2021-06-19T17:20:35Z</time>
      </trkpt>
      <trkpt lat="42.389259" lon="1.235678">
        <ele>1811.644</ele>
        <time>2021-06-19T17:20:36Z</time>
      </trkpt>
      <trkpt lat="42.389117" lon="1.235588">
        <ele>1808.653</ele>
        <time>2021-06-19T17:20:39Z</time>
      </trkpt>
      <trkpt lat="42.389032" lon="1.235506">
        <ele>1807.779</ele>
        <time>2021-06-19T17:20:41Z</time>
      </trkpt>
      <trkpt lat="42.388905" lon="1.235333">
        <ele>1806.123</ele>
        <time>2021-06-19T17:20:44Z</time>
      </trkpt>
      <trkpt lat="42.388824" lon="1.235212">
        <ele>1804.667</ele>
        <time>2021-06-19T17:20:46Z</time>
      </trkpt>
      <trkpt lat="42.388726" lon="1.235035">
        <ele>1802.877</ele>
        <time>2021-06-19T17:20:49Z</time>
      </trkpt>
      <trkpt lat="42.388618" lon="1.234861">
        <ele>1800.290</ele>
        <time>2021-06-19T17:20:52Z</time>
      </trkpt>
      <trkpt lat="42.388573" lon="1.234800">
        <ele>1799.477</ele>
        <time>2021-06-19T17:20:53Z</time>
      </trkpt>
      <trkpt lat="42.388441" lon="1.234589">
        <ele>1796.894</ele>
        <time>2021-06-19T17:20:56Z</time>
      </trkpt>
      <trkpt lat="42.388380" lon="1.234448">
        <ele>1795.557</ele>
        <time>2021-06-19T17:20:58Z</time>
      </trkpt>
      <trkpt lat="42.388356" lon="1.234377">
        <ele>1794.822</ele>
        <time>2021-06-19T17:20:59Z</time>
      </trkpt>
      <trkpt lat="42.388332" lon="1.234306">
        <ele>1794.008</ele>
        <time>2021-06-19T17:21:00Z</time>
      </trkpt>
      <trkpt lat="42.388251" lon="1.234110">
        <ele>1792.276</ele>
        <time>2021-06-19T17:21:03Z</time>
      </trkpt>
      <trkpt lat="42.388198" lon="1.233977">
        <ele>1791.095</ele>
        <time>2021-06-19T17:21:05Z</time>
      </trkpt>
      <trkpt lat="42.388147" lon="1.233838">
        <ele>1789.121</ele>
        <time>2021-06-19T17:21:07Z</time>
      </trkpt>
      <trkpt lat="42.388111" lon="1.233703">
        <ele>1787.835</ele>
        <time>2021-06-19T17:21:09Z</time>
      </trkpt>
      <trkpt lat="42.388090" lon="1.233565">
        <ele>1786.629</ele>
        <time>2021-06-19T17:21:11Z</time>
      </trkpt>
      <trkpt lat="42.388088" lon="1.233497">
        <ele>1786.159</ele>
        <time>2021-06-19T17:21:12Z</time>
      </trkpt>
      <trkpt lat="42.388059" lon="1.233269">
        <ele>1783.522</ele>
        <time>2021-06-19T17:21:15Z</time>
      </trkpt>
      <trkpt lat="42.388033" lon="1.233179">
        <ele>1783.839</ele>
        <time>2021-06-19T17:21:16Z</time>
      </trkpt>
      <trkpt lat="42.387894" lon="1.232868">
        <ele>1783.039</ele>
        <time>2021-06-19T17:21:20Z</time>
      </trkpt>
      <trkpt lat="42.387866" lon="1.232787">
        <ele>1781.901</ele>
        <time>2021-06-19T17:21:21Z</time>
      </trkpt>
      <trkpt lat="42.387824" lon="1.232634">
        <ele>1779.721</ele>
        <time>2021-06-19T17:21:23Z</time>
      </trkpt>
      <trkpt lat="42.387790" lon="1.232488">
        <ele>1777.508</ele>
        <time>2021-06-19T17:21:25Z</time>
      </trkpt>
      <trkpt lat="42.387781" lon="1.232418">
        <ele>1777.230</ele>
        <time>2021-06-19T17:21:26Z</time>
      </trkpt>
      <trkpt lat="42.387765" lon="1.232346">
        <ele>1777.519</ele>
        <time>2021-06-19T17:21:27Z</time>
      </trkpt>
      <trkpt lat="42.387701" lon="1.232197">
        <ele>1778.555</ele>
        <time>2021-06-19T17:21:29Z</time>
      </trkpt>
      <trkpt lat="42.387657" lon="1.232129">
        <ele>1778.729</ele>
        <time>2021-06-19T17:21:30Z</time>
      </trkpt>
      <trkpt lat="42.387607" lon="1.232084">
        <ele>1777.913</ele>
        <time>2021-06-19T17:21:31Z</time>
      </trkpt>
      <trkpt lat="42.387565" lon="1.232045">
        <ele>1776.373</ele>
        <time>2021-06-19T17:21:32Z</time>
      </trkpt>
      <trkpt lat="42.387480" lon="1.231953">
        <ele>1771.886</ele>
        <time>2021-06-19T17:21:34Z</time>
      </trkpt>
      <trkpt lat="42.387412" lon="1.231855">
        <ele>1772.983</ele>
        <time>2021-06-19T17:21:36Z</time>
      </trkpt>
      <trkpt lat="42.387376" lon="1.231808">
        <ele>1772.622</ele>
        <time>2021-06-19T17:21:37Z</time>
      </trkpt>
      <trkpt lat="42.387336" lon="1.231764">
        <ele>1771.762</ele>
        <time>2021-06-19T17:21:38Z</time>
      </trkpt>
      <trkpt lat="42.387292" lon="1.231715">
        <ele>1769.708</ele>
        <time>2021-06-19T17:21:39Z</time>
      </trkpt>
      <trkpt lat="42.387245" lon="1.231677">
        <ele>1767.208</ele>
        <time>2021-06-19T17:21:40Z</time>
      </trkpt>
      <trkpt lat="42.387097" lon="1.231551">
        <ele>1767.749</ele>
        <time>2021-06-19T17:21:43Z</time>
      </trkpt>
      <trkpt lat="42.387051" lon="1.231502">
        <ele>1766.818</ele>
        <time>2021-06-19T17:21:44Z</time>
      </trkpt>
      <trkpt lat="42.386969" lon="1.231393">
        <ele>1762.244</ele>
        <time>2021-06-19T17:21:46Z</time>
      </trkpt>
      <trkpt lat="42.386898" lon="1.231273">
        <ele>1762.978</ele>
        <time>2021-06-19T17:21:48Z</time>
      </trkpt>
      <trkpt lat="42.386803" lon="1.231128">
        <ele>1761.682</ele>
        <time>2021-06-19T17:21:51Z</time>
      </trkpt>
      <trkpt lat="42.386771" lon="1.231023">
        <ele>1760.122</ele>
        <time>2021-06-19T17:21:53Z</time>
      </trkpt>
      <trkpt lat="42.386739" lon="1.230885">
        <ele>1757.835</ele>
        <time>2021-06-19T17:21:55Z</time>
      </trkpt>
      <trkpt lat="42.386687" lon="1.230752">
        <ele>1755.592</ele>
        <time>2021-06-19T17:21:57Z</time>
      </trkpt>
      <trkpt lat="42.386625" lon="1.230640">
        <ele>1754.948</ele>
        <time>2021-06-19T17:21:59Z</time>
      </trkpt>
      <trkpt lat="42.386521" lon="1.230481">
        <ele>1753.561</ele>
        <time>2021-06-19T17:22:02Z</time>
      </trkpt>
      <trkpt lat="42.386484" lon="1.230427">
        <ele>1753.017</ele>
        <time>2021-06-19T17:22:03Z</time>
      </trkpt>
      <trkpt lat="42.386439" lon="1.230376">
        <ele>1752.108</ele>
        <time>2021-06-19T17:22:04Z</time>
      </trkpt>
      <trkpt lat="42.386332" lon="1.230276">
        <ele>1750.211</ele>
        <time>2021-06-19T17:22:06Z</time>
      </trkpt>
      <trkpt lat="42.386278" lon="1.230234">
        <ele>1750.410</ele>
        <time>2021-06-19T17:22:07Z</time>
      </trkpt>
      <trkpt lat="42.386224" lon="1.230194">
        <ele>1750.316</ele>
        <time>2021-06-19T17:22:08Z</time>
      </trkpt>
      <trkpt lat="42.386169" lon="1.230167">
        <ele>1749.510</ele>
        <time>2021-06-19T17:22:09Z</time>
      </trkpt>
      <trkpt lat="42.386050" lon="1.230139">
        <ele>1747.664</ele>
        <time>2021-06-19T17:22:11Z</time>
      </trkpt>
      <trkpt lat="42.385994" lon="1.230116">
        <ele>1747.034</ele>
        <time>2021-06-19T17:22:12Z</time>
      </trkpt>
      <trkpt lat="42.385870" lon="1.230031">
        <ele>1745.587</ele>
        <time>2021-06-19T17:22:14Z</time>
      </trkpt>
      <trkpt lat="42.385811" lon="1.229975">
        <ele>1745.014</ele>
        <time>2021-06-19T17:22:15Z</time>
      </trkpt>
      <trkpt lat="42.385663" lon="1.229793">
        <ele>1743.286</ele>
        <time>2021-06-19T17:22:18Z</time>
      </trkpt>
      <trkpt lat="42.385611" lon="1.229735">
        <ele>1741.860</ele>
        <time>2021-06-19T17:22:19Z</time>
      </trkpt>
      <trkpt lat="42.385553" lon="1.229685">
        <ele>1740.526</ele>
        <time>2021-06-19T17:22:20Z</time>
      </trkpt>
      <trkpt lat="42.385344" lon="1.229535">
        <ele>1738.908</ele>
        <time>2021-06-19T17:22:24Z</time>
      </trkpt>
      <trkpt lat="42.385301" lon="1.229499">
        <ele>1738.335</ele>
        <time>2021-06-19T17:22:25Z</time>
      </trkpt>
      <trkpt lat="42.385128" lon="1.229373">
        <ele>1736.824</ele>
        <time>2021-06-19T17:22:30Z</time>
      </trkpt>
      <trkpt lat="42.385031" lon="1.229325">
        <ele>1735.590</ele>
        <time>2021-06-19T17:22:32Z</time>
      </trkpt>
      <trkpt lat="42.384940" lon="1.229243">
        <ele>1735.094</ele>
        <time>2021-06-19T17:22:34Z</time>
      </trkpt>
      <trkpt lat="42.384810" lon="1.229157">
        <ele>1732.978</ele>
        <time>2021-06-19T17:22:38Z</time>
      </trkpt>
      <trkpt lat="42.384726" lon="1.229207">
        <ele>1732.228</ele>
        <time>2021-06-19T17:22:41Z</time>
      </trkpt>
      <trkpt lat="42.384688" lon="1.229226">
        <ele>1732.591</ele>
        <time>2021-06-19T17:22:42Z</time>
      </trkpt>
      <trkpt lat="42.384595" lon="1.229262">
        <ele>1733.338</ele>
        <time>2021-06-19T17:22:44Z</time>
      </trkpt>
      <trkpt lat="42.384490" lon="1.229255">
        <ele>1732.647</ele>
        <time>2021-06-19T17:22:46Z</time>
      </trkpt>
      <trkpt lat="42.384388" lon="1.229228">
        <ele>1730.829</ele>
        <time>2021-06-19T17:22:48Z</time>
      </trkpt>
      <trkpt lat="42.384176" lon="1.229184">
        <ele>1727.121</ele>
        <time>2021-06-19T17:22:52Z</time>
      </trkpt>
      <trkpt lat="42.383986" lon="1.229157">
        <ele>1726.508</ele>
        <time>2021-06-19T17:22:55Z</time>
      </trkpt>
      <trkpt lat="42.383865" lon="1.229136">
        <ele>1727.131</ele>
        <time>2021-06-19T17:22:57Z</time>
      </trkpt>
      <trkpt lat="42.383684" lon="1.229001">
        <ele>1727.420</ele>
        <time>2021-06-19T17:23:01Z</time>
      </trkpt>
      <trkpt lat="42.383539" lon="1.228845">
        <ele>1725.866</ele>
        <time>2021-06-19T17:23:05Z</time>
      </trkpt>
      <trkpt lat="42.383459" lon="1.228765">
        <ele>1726.260</ele>
        <time>2021-06-19T17:23:07Z</time>
      </trkpt>
      <trkpt lat="42.383232" lon="1.228530">
        <ele>1724.664</ele>
        <time>2021-06-19T17:23:13Z</time>
      </trkpt>
      <trkpt lat="42.383192" lon="1.228494">
        <ele>1724.734</ele>
        <time>2021-06-19T17:23:14Z</time>
      </trkpt>
      <trkpt lat="42.383024" lon="1.228366">
        <ele>1725.217</ele>
        <time>2021-06-19T17:23:18Z</time>
      </trkpt>
      <trkpt lat="42.382987" lon="1.228345">
        <ele>1725.574</ele>
        <time>2021-06-19T17:23:19Z</time>
      </trkpt>
      <trkpt lat="42.382876" lon="1.228274">
        <ele>1725.717</ele>
        <time>2021-06-19T17:23:22Z</time>
      </trkpt>
      <trkpt lat="42.382760" lon="1.228205">
        <ele>1726.387</ele>
        <time>2021-06-19T17:23:25Z</time>
      </trkpt>
      <trkpt lat="42.382649" lon="1.228144">
        <ele>1726.415</ele>
        <time>2021-06-19T17:23:28Z</time>
      </trkpt>
      <trkpt lat="42.382549" lon="1.228091">
        <ele>1726.508</ele>
        <time>2021-06-19T17:23:31Z</time>
      </trkpt>
      <trkpt lat="42.382394" lon="1.228000">
        <ele>1726.288</ele>
        <time>2021-06-19T17:23:36Z</time>
      </trkpt>
      <trkpt lat="42.382361" lon="1.227989">
        <ele>1726.617</ele>
        <time>2021-06-19T17:23:37Z</time>
      </trkpt>
      <trkpt lat="42.382232" lon="1.227914">
        <ele>1727.693</ele>
        <time>2021-06-19T17:23:41Z</time>
      </trkpt>
      <trkpt lat="42.382166" lon="1.227872">
        <ele>1727.527</ele>
        <time>2021-06-19T17:23:43Z</time>
      </trkpt>
      <trkpt lat="42.382131" lon="1.227843">
        <ele>1727.281</ele>
        <time>2021-06-19T17:23:44Z</time>
      </trkpt>
      <trkpt lat="42.382016" lon="1.227736">
        <ele>1726.221</ele>
        <time>2021-06-19T17:23:47Z</time>
      </trkpt>
      <trkpt lat="42.381931" lon="1.227655">
        <ele>1726.144</ele>
        <time>2021-06-19T17:23:49Z</time>
      </trkpt>
      <trkpt lat="42.381708" lon="1.227430">
        <ele>1723.511</ele>
        <time>2021-06-19T17:23:54Z</time>
      </trkpt>
      <trkpt lat="42.381664" lon="1.227387">
        <ele>1723.094</ele>
        <time>2021-06-19T17:23:55Z</time>
      </trkpt>
      <trkpt lat="42.381454" lon="1.227202">
        <ele>1719.857</ele>
        <time>2021-06-19T17:24:00Z</time>
      </trkpt>
      <trkpt lat="42.381409" lon="1.227174">
        <ele>1719.322</ele>
        <time>2021-06-19T17:24:01Z</time>
      </trkpt>
      <trkpt lat="42.381361" lon="1.227148">
        <ele>1718.808</ele>
        <time>2021-06-19T17:24:02Z</time>
      </trkpt>
      <trkpt lat="42.381194" lon="1.227126">
        <ele>1719.186</ele>
        <time>2021-06-19T17:24:05Z</time>
      </trkpt>
      <trkpt lat="42.381084" lon="1.227100">
        <ele>1718.955</ele>
        <time>2021-06-19T17:24:07Z</time>
      </trkpt>
      <trkpt lat="42.380986" lon="1.227064">
        <ele>1718.771</ele>
        <time>2021-06-19T17:24:09Z</time>
      </trkpt>
      <trkpt lat="42.380943" lon="1.227032">
        <ele>1717.875</ele>
        <time>2021-06-19T17:24:10Z</time>
      </trkpt>
      <trkpt lat="42.380856" lon="1.226977">
        <ele>1716.379</ele>
        <time>2021-06-19T17:24:12Z</time>
      </trkpt>
      <trkpt lat="42.380810" lon="1.226959">
        <ele>1715.899</ele>
        <time>2021-06-19T17:24:13Z</time>
      </trkpt>
      <trkpt lat="42.380715" lon="1.226937">
        <ele>1714.772</ele>
        <time>2021-06-19T17:24:15Z</time>
      </trkpt>
      <trkpt lat="42.380458" lon="1.226970">
        <ele>1715.879</ele>
        <time>2021-06-19T17:24:20Z</time>
      </trkpt>
      <trkpt lat="42.380319" lon="1.226959">
        <ele>1714.777</ele>
        <time>2021-06-19T17:24:23Z</time>
      </trkpt>
      <trkpt lat="42.380204" lon="1.226763">
        <ele>1713.161</ele>
        <time>2021-06-19T17:24:27Z</time>
      </trkpt>
      <trkpt lat="42.380083" lon="1.226498">
        <ele>1709.227</ele>
        <time>2021-06-19T17:24:31Z</time>
      </trkpt>
      <trkpt lat="42.379946" lon="1.226365">
        <ele>1708.408</ele>
        <time>2021-06-19T17:24:34Z</time>
      </trkpt>
      <trkpt lat="42.379903" lon="1.226319">
        <ele>1707.524</ele>
        <time>2021-06-19T17:24:35Z</time>
      </trkpt>
      <trkpt lat="42.379808" lon="1.226228">
        <ele>1706.083</ele>
        <time>2021-06-19T17:24:37Z</time>
      </trkpt>
      <trkpt lat="42.379688" lon="1.226145">
        <ele>1705.589</ele>
        <time>2021-06-19T17:24:39Z</time>
      </trkpt>
      <trkpt lat="42.379622" lon="1.226107">
        <ele>1705.313</ele>
        <time>2021-06-19T17:24:40Z</time>
      </trkpt>
      <trkpt lat="42.379488" lon="1.226025">
        <ele>1704.097</ele>
        <time>2021-06-19T17:24:42Z</time>
      </trkpt>
      <trkpt lat="42.379300" lon="1.225936">
        <ele>1702.347</ele>
        <time>2021-06-19T17:24:45Z</time>
      </trkpt>
      <trkpt lat="42.379237" lon="1.225917">
        <ele>1702.320</ele>
        <time>2021-06-19T17:24:46Z</time>
      </trkpt>
      <trkpt lat="42.379038" lon="1.225864">
        <ele>1701.437</ele>
        <time>2021-06-19T17:24:49Z</time>
      </trkpt>
      <trkpt lat="42.378821" lon="1.225832">
        <ele>1700.597</ele>
        <time>2021-06-19T17:24:52Z</time>
      </trkpt>
      <trkpt lat="42.378761" lon="1.225841">
        <ele>1700.323</ele>
        <time>2021-06-19T17:24:53Z</time>
      </trkpt>
      <trkpt lat="42.378709" lon="1.225861">
        <ele>1700.325</ele>
        <time>2021-06-19T17:24:54Z</time>
      </trkpt>
      <trkpt lat="42.378668" lon="1.225907">
        <ele>1700.908</ele>
        <time>2021-06-19T17:24:55Z</time>
      </trkpt>
      <trkpt lat="42.378622" lon="1.226108">
        <ele>1703.336</ele>
        <time>2021-06-19T17:24:58Z</time>
      </trkpt>
      <trkpt lat="42.378547" lon="1.226272">
        <ele>1704.725</ele>
        <time>2021-06-19T17:25:01Z</time>
      </trkpt>
      <trkpt lat="42.378517" lon="1.226311">
        <ele>1704.721</ele>
        <time>2021-06-19T17:25:02Z</time>
      </trkpt>
      <trkpt lat="42.378459" lon="1.226380">
        <ele>1704.885</ele>
        <time>2021-06-19T17:25:04Z</time>
      </trkpt>
      <trkpt lat="42.378387" lon="1.226424">
        <ele>1704.239</ele>
        <time>2021-06-19T17:25:06Z</time>
      </trkpt>
      <trkpt lat="42.378248" lon="1.226468">
        <ele>1702.959</ele>
        <time>2021-06-19T17:25:10Z</time>
      </trkpt>
      <trkpt lat="42.378218" lon="1.226480">
        <ele>1702.932</ele>
        <time>2021-06-19T17:25:11Z</time>
      </trkpt>
      <trkpt lat="42.378026" lon="1.226580">
        <ele>1704.139</ele>
        <time>2021-06-19T17:25:17Z</time>
      </trkpt>
      <trkpt lat="42.377995" lon="1.226581">
        <ele>1704.023</ele>
        <time>2021-06-19T17:25:18Z</time>
      </trkpt>
      <trkpt lat="42.377765" lon="1.226581">
        <ele>1703.083</ele>
        <time>2021-06-19T17:25:25Z</time>
      </trkpt>
      <trkpt lat="42.377485" lon="1.226617">
        <ele>1704.611</ele>
        <time>2021-06-19T17:25:33Z</time>
      </trkpt>
      <trkpt lat="42.377449" lon="1.226628">
        <ele>1704.908</ele>
        <time>2021-06-19T17:25:34Z</time>
      </trkpt>
      <trkpt lat="42.377346" lon="1.226618">
        <ele>1703.879</ele>
        <time>2021-06-19T17:25:37Z</time>
      </trkpt>
      <trkpt lat="42.377244" lon="1.226620">
        <ele>1703.328</ele>
        <time>2021-06-19T17:25:40Z</time>
      </trkpt>
      <trkpt lat="42.377179" lon="1.226656">
        <ele>1703.474</ele>
        <time>2021-06-19T17:25:42Z</time>
      </trkpt>
      <trkpt lat="42.377045" lon="1.226806">
        <ele>1705.278</ele>
        <time>2021-06-19T17:25:47Z</time>
      </trkpt>
      <trkpt lat="42.376994" lon="1.226870">
        <ele>1706.362</ele>
        <time>2021-06-19T17:25:49Z</time>
      </trkpt>
      <trkpt lat="42.376806" lon="1.226970">
        <ele>1706.832</ele>
        <time>2021-06-19T17:25:55Z</time>
      </trkpt>
      <trkpt lat="42.376702" lon="1.226997">
        <ele>1706.165</ele>
        <time>2021-06-19T17:25:58Z</time>
      </trkpt>
      <trkpt lat="42.376597" lon="1.227017">
        <ele>1705.842</ele>
        <time>2021-06-19T17:26:01Z</time>
      </trkpt>
      <trkpt lat="42.376428" lon="1.227044">
        <ele>1705.343</ele>
        <time>2021-06-19T17:26:06Z</time>
      </trkpt>
      <trkpt lat="42.376396" lon="1.227053">
        <ele>1705.264</ele>
        <time>2021-06-19T17:26:07Z</time>
      </trkpt>
      <trkpt lat="42.376251" lon="1.227172">
        <ele>1705.310</ele>
        <time>2021-06-19T17:26:12Z</time>
      </trkpt>
      <trkpt lat="42.376190" lon="1.227318">
        <ele>1706.608</ele>
        <time>2021-06-19T17:26:16Z</time>
      </trkpt>
      <trkpt lat="42.376175" lon="1.227352">
        <ele>1706.741</ele>
        <time>2021-06-19T17:26:17Z</time>
      </trkpt>
      <trkpt lat="42.376117" lon="1.227487">
        <ele>1707.060</ele>
        <time>2021-06-19T17:26:21Z</time>
      </trkpt>
      <trkpt lat="42.376081" lon="1.227544">
        <ele>1707.136</ele>
        <time>2021-06-19T17:26:23Z</time>
      </trkpt>
      <trkpt lat="42.376035" lon="1.227596">
        <ele>1706.910</ele>
        <time>2021-06-19T17:26:25Z</time>
      </trkpt>
      <trkpt lat="42.375946" lon="1.227723">
        <ele>1707.654</ele>
        <time>2021-06-19T17:26:29Z</time>
      </trkpt>
      <trkpt lat="42.375833" lon="1.227817">
        <ele>1707.724</ele>
        <time>2021-06-19T17:26:33Z</time>
      </trkpt>
      <trkpt lat="42.375780" lon="1.227829">
        <ele>1708.057</ele>
        <time>2021-06-19T17:26:35Z</time>
      </trkpt>
      <trkpt lat="42.375705" lon="1.227839">
        <ele>1708.194</ele>
        <time>2021-06-19T17:26:38Z</time>
      </trkpt>
      <trkpt lat="42.375593" lon="1.227845">
        <ele>1707.848</ele>
        <time>2021-06-19T17:26:42Z</time>
      </trkpt>
      <trkpt lat="42.375533" lon="1.227850">
        <ele>1707.561</ele>
        <time>2021-06-19T17:26:44Z</time>
      </trkpt>
      <trkpt lat="42.375417" lon="1.227892">
        <ele>1707.117</ele>
        <time>2021-06-19T17:26:48Z</time>
      </trkpt>
      <trkpt lat="42.375299" lon="1.228026">
        <ele>1709.508</ele>
        <time>2021-06-19T17:26:53Z</time>
      </trkpt>
      <trkpt lat="42.375279" lon="1.228056">
        <ele>1710.061</ele>
        <time>2021-06-19T17:26:54Z</time>
      </trkpt>
      <trkpt lat="42.375186" lon="1.228228">
        <ele>1711.190</ele>
        <time>2021-06-19T17:26:59Z</time>
      </trkpt>
      <trkpt lat="42.375158" lon="1.228304">
        <ele>1712.086</ele>
        <time>2021-06-19T17:27:01Z</time>
      </trkpt>
      <trkpt lat="42.375093" lon="1.228457">
        <ele>1711.630</ele>
        <time>2021-06-19T17:27:06Z</time>
      </trkpt>
      <trkpt lat="42.375072" lon="1.228522">
        <ele>1711.744</ele>
        <time>2021-06-19T17:27:08Z</time>
      </trkpt>
      <trkpt lat="42.375007" lon="1.228712">
        <ele>1711.764</ele>
        <time>2021-06-19T17:27:14Z</time>
      </trkpt>
      <trkpt lat="42.374981" lon="1.228771">
        <ele>1711.527</ele>
        <time>2021-06-19T17:27:16Z</time>
      </trkpt>
      <trkpt lat="42.374940" lon="1.228870">
        <ele>1711.424</ele>
        <time>2021-06-19T17:27:19Z</time>
      </trkpt>
      <trkpt lat="42.374868" lon="1.229067">
        <ele>1711.374</ele>
        <time>2021-06-19T17:27:25Z</time>
      </trkpt>
      <trkpt lat="42.374843" lon="1.229135">
        <ele>1711.356</ele>
        <time>2021-06-19T17:27:27Z</time>
      </trkpt>
      <trkpt lat="42.374780" lon="1.229292">
        <ele>1711.821</ele>
        <time>2021-06-19T17:27:32Z</time>
      </trkpt>
      <trkpt lat="42.374687" lon="1.229526">
        <ele>1712.908</ele>
        <time>2021-06-19T17:27:39Z</time>
      </trkpt>
      <trkpt lat="42.374636" lon="1.229667">
        <ele>1713.344</ele>
        <time>2021-06-19T17:27:43Z</time>
      </trkpt>
      <trkpt lat="42.374595" lon="1.229752">
        <ele>1713.063</ele>
        <time>2021-06-19T17:27:46Z</time>
      </trkpt>
      <trkpt lat="42.374528" lon="1.229954">
        <ele>1714.169</ele>
        <time>2021-06-19T17:27:52Z</time>
      </trkpt>
      <trkpt lat="42.374489" lon="1.230044">
        <ele>1714.453</ele>
        <time>2021-06-19T17:27:55Z</time>
      </trkpt>
      <trkpt lat="42.374445" lon="1.230158">
        <ele>1714.927</ele>
        <time>2021-06-19T17:27:59Z</time>
      </trkpt>
      <trkpt lat="42.374404" lon="1.230239">
        <ele>1714.427</ele>
        <time>2021-06-19T17:28:03Z</time>
      </trkpt>
      <trkpt lat="42.374354" lon="1.230350">
        <ele>1713.920</ele>
        <time>2021-06-19T17:28:07Z</time>
      </trkpt>
      <trkpt lat="42.374346" lon="1.230384">
        <ele>1714.197</ele>
        <time>2021-06-19T17:28:08Z</time>
      </trkpt>
      <trkpt lat="42.374309" lon="1.230646">
        <ele>1716.631</ele>
        <time>2021-06-19T17:28:15Z</time>
      </trkpt>
      <trkpt lat="42.374264" lon="1.230916">
        <ele>1718.761</ele>
        <time>2021-06-19T17:28:22Z</time>
      </trkpt>
      <trkpt lat="42.374240" lon="1.231191">
        <ele>1721.107</ele>
        <time>2021-06-19T17:28:29Z</time>
      </trkpt>
      <trkpt lat="42.374218" lon="1.231320">
        <ele>1721.808</ele>
        <time>2021-06-19T17:28:33Z</time>
      </trkpt>
      <trkpt lat="42.374204" lon="1.231392">
        <ele>1722.180</ele>
        <time>2021-06-19T17:28:35Z</time>
      </trkpt>
      <trkpt lat="42.374171" lon="1.231599">
        <ele>1723.349</ele>
        <time>2021-06-19T17:28:41Z</time>
      </trkpt>
      <trkpt lat="42.374081" lon="1.231826">
        <ele>1722.455</ele>
        <time>2021-06-19T17:28:47Z</time>
      </trkpt>
      <trkpt lat="42.374028" lon="1.231948">
        <ele>1722.149</ele>
        <time>2021-06-19T17:28:52Z</time>
      </trkpt>
      <trkpt lat="42.373973" lon="1.232138">
        <ele>1723.223</ele>
        <time>2021-06-19T17:28:58Z</time>
      </trkpt>
      <trkpt lat="42.373914" lon="1.232255">
        <ele>1722.823</ele>
        <time>2021-06-19T17:29:02Z</time>
      </trkpt>
      <trkpt lat="42.373862" lon="1.232382">
        <ele>1722.856</ele>
        <time>2021-06-19T17:29:06Z</time>
      </trkpt>
      <trkpt lat="42.373746" lon="1.232559">
        <ele>1722.143</ele>
        <time>2021-06-19T17:29:13Z</time>
      </trkpt>
      <trkpt lat="42.373683" lon="1.232656">
        <ele>1722.079</ele>
        <time>2021-06-19T17:29:17Z</time>
      </trkpt>
      <trkpt lat="42.373667" lon="1.232676">
        <ele>1721.805</ele>
        <time>2021-06-19T17:29:18Z</time>
      </trkpt>
      <trkpt lat="42.373590" lon="1.232807">
        <ele>1722.025</ele>
        <time>2021-06-19T17:29:23Z</time>
      </trkpt>
      <trkpt lat="42.373479" lon="1.233027">
        <ele>1724.008</ele>
        <time>2021-06-19T17:29:30Z</time>
      </trkpt>
      <trkpt lat="42.373467" lon="1.233058">
        <ele>1724.444</ele>
        <time>2021-06-19T17:29:31Z</time>
      </trkpt>
      <trkpt lat="42.373364" lon="1.233212">
        <ele>1725.243</ele>
        <time>2021-06-19T17:29:37Z</time>
      </trkpt>
      <trkpt lat="42.373237" lon="1.233384">
        <ele>1725.829</ele>
        <time>2021-06-19T17:29:43Z</time>
      </trkpt>
      <trkpt lat="42.373194" lon="1.233436">
        <ele>1726.133</ele>
        <time>2021-06-19T17:29:45Z</time>
      </trkpt>
      <trkpt lat="42.372998" lon="1.233675">
        <ele>1727.077</ele>
        <time>2021-06-19T17:29:54Z</time>
      </trkpt>
      <trkpt lat="42.372910" lon="1.233782">
        <ele>1727.487</ele>
        <time>2021-06-19T17:29:58Z</time>
      </trkpt>
      <trkpt lat="42.372822" lon="1.233883">
        <ele>1727.950</ele>
        <time>2021-06-19T17:30:02Z</time>
      </trkpt>
      <trkpt lat="42.372669" lon="1.234020">
        <ele>1728.677</ele>
        <time>2021-06-19T17:30:08Z</time>
      </trkpt>
      <trkpt lat="42.372485" lon="1.234112">
        <ele>1727.453</ele>
        <time>2021-06-19T17:30:15Z</time>
      </trkpt>
      <trkpt lat="42.372460" lon="1.234133">
        <ele>1727.504</ele>
        <time>2021-06-19T17:30:16Z</time>
      </trkpt>
      <trkpt lat="42.372331" lon="1.234269">
        <ele>1729.314</ele>
        <time>2021-06-19T17:30:22Z</time>
      </trkpt>
      <trkpt lat="42.372166" lon="1.234397">
        <ele>1729.908</ele>
        <time>2021-06-19T17:30:29Z</time>
      </trkpt>
      <trkpt lat="42.372142" lon="1.234401">
        <ele>1729.682</ele>
        <time>2021-06-19T17:30:30Z</time>
      </trkpt>
      <trkpt lat="42.372028" lon="1.234432">
        <ele>1728.381</ele>
        <time>2021-06-19T17:30:35Z</time>
      </trkpt>
      <trkpt lat="42.372014" lon="1.234458">
        <ele>1728.617</ele>
        <time>2021-06-19T17:30:36Z</time>
      </trkpt>
      <trkpt lat="42.371986" lon="1.234548">
        <ele>1730.021</ele>
        <time>2021-06-19T17:30:39Z</time>
      </trkpt>
      <trkpt lat="42.371974" lon="1.234574">
        <ele>1730.415</ele>
        <time>2021-06-19T17:30:40Z</time>
      </trkpt>
      <trkpt lat="42.371918" lon="1.234649">
        <ele>1731.275</ele>
        <time>2021-06-19T17:30:44Z</time>
      </trkpt>
      <trkpt lat="42.371904" lon="1.234663">
        <ele>1731.478</ele>
        <time>2021-06-19T17:30:45Z</time>
      </trkpt>
      <trkpt lat="42.371804" lon="1.234758">
        <ele>1732.695</ele>
        <time>2021-06-19T17:30:52Z</time>
      </trkpt>
      <trkpt lat="42.371729" lon="1.234702">
        <ele>1731.018</ele>
        <time>2021-06-19T17:30:58Z</time>
      </trkpt>
      <trkpt lat="42.371617" lon="1.234656">
        <ele>1729.298</ele>
        <time>2021-06-19T17:31:05Z</time>
      </trkpt>
      <trkpt lat="42.371554" lon="1.234695">
        <ele>1729.617</ele>
        <time>2021-06-19T17:31:09Z</time>
      </trkpt>
      <trkpt lat="42.371521" lon="1.234729">
        <ele>1730.108</ele>
        <time>2021-06-19T17:31:11Z</time>
      </trkpt>
      <trkpt lat="42.371417" lon="1.234830">
        <ele>1730.868</ele>
        <time>2021-06-19T17:31:18Z</time>
      </trkpt>
      <trkpt lat="42.371356" lon="1.234881">
        <ele>1731.267</ele>
        <time>2021-06-19T17:31:22Z</time>
      </trkpt>
      <trkpt lat="42.371305" lon="1.234922">
        <ele>1731.613</ele>
        <time>2021-06-19T17:31:25Z</time>
      </trkpt>
      <trkpt lat="42.371202" lon="1.234993">
        <ele>1732.247</ele>
        <time>2021-06-19T17:31:31Z</time>
      </trkpt>
      <trkpt lat="42.371188" lon="1.235010">
        <ele>1732.351</ele>
        <time>2021-06-19T17:31:32Z</time>
      </trkpt>
      <trkpt lat="42.371102" lon="1.235197">
        <ele>1731.851</ele>
        <time>2021-06-19T17:31:40Z</time>
      </trkpt>
      <trkpt lat="42.371090" lon="1.235297">
        <ele>1731.594</ele>
        <time>2021-06-19T17:31:43Z</time>
      </trkpt>
      <trkpt lat="42.371096" lon="1.235427">
        <ele>1731.671</ele>
        <time>2021-06-19T17:31:46Z</time>
      </trkpt>
      <trkpt lat="42.371087" lon="1.235712">
        <ele>1731.415</ele>
        <time>2021-06-19T17:31:52Z</time>
      </trkpt>
      <trkpt lat="42.371068" lon="1.235798">
        <ele>1730.965</ele>
        <time>2021-06-19T17:31:54Z</time>
      </trkpt>
      <trkpt lat="42.371037" lon="1.235966">
        <ele>1730.411</ele>
        <time>2021-06-19T17:31:58Z</time>
      </trkpt>
      <trkpt lat="42.370980" lon="1.236115">
        <ele>1729.608</ele>
        <time>2021-06-19T17:32:01Z</time>
      </trkpt>
      <trkpt lat="42.370945" lon="1.236229">
        <ele>1729.028</ele>
        <time>2021-06-19T17:32:03Z</time>
      </trkpt>
      <trkpt lat="42.370880" lon="1.236395">
        <ele>1727.877</ele>
        <time>2021-06-19T17:32:06Z</time>
      </trkpt>
      <trkpt lat="42.370794" lon="1.236530">
        <ele>1726.423</ele>
        <time>2021-06-19T17:32:09Z</time>
      </trkpt>
      <trkpt lat="42.370765" lon="1.236575">
        <ele>1726.057</ele>
        <time>2021-06-19T17:32:10Z</time>
      </trkpt>
      <trkpt lat="42.370732" lon="1.236619">
        <ele>1725.541</ele>
        <time>2021-06-19T17:32:11Z</time>
      </trkpt>
      <trkpt lat="42.370600" lon="1.236718">
        <ele>1723.851</ele>
        <time>2021-06-19T17:32:14Z</time>
      </trkpt>
      <trkpt lat="42.370460" lon="1.236738">
        <ele>1722.424</ele>
        <time>2021-06-19T17:32:17Z</time>
      </trkpt>
      <trkpt lat="42.370418" lon="1.236737">
        <ele>1722.081</ele>
        <time>2021-06-19T17:32:18Z</time>
      </trkpt>
      <trkpt lat="42.370379" lon="1.236734">
        <ele>1721.714</ele>
        <time>2021-06-19T17:32:19Z</time>
      </trkpt>
      <trkpt lat="42.370295" lon="1.236667">
        <ele>1721.154</ele>
        <time>2021-06-19T17:32:22Z</time>
      </trkpt>
      <trkpt lat="42.370196" lon="1.236541">
        <ele>1720.709</ele>
        <time>2021-06-19T17:32:27Z</time>
      </trkpt>
      <trkpt lat="42.370176" lon="1.236528">
        <ele>1720.608</ele>
        <time>2021-06-19T17:32:28Z</time>
      </trkpt>
      <trkpt lat="42.370048" lon="1.236470">
        <ele>1720.248</ele>
        <time>2021-06-19T17:32:33Z</time>
      </trkpt>
      <trkpt lat="42.370007" lon="1.236461">
        <ele>1720.057</ele>
        <time>2021-06-19T17:32:34Z</time>
      </trkpt>
      <trkpt lat="42.369859" lon="1.236468">
        <ele>1718.893</ele>
        <time>2021-06-19T17:32:37Z</time>
      </trkpt>
      <trkpt lat="42.369746" lon="1.236464">
        <ele>1717.967</ele>
        <time>2021-06-19T17:32:39Z</time>
      </trkpt>
      <trkpt lat="42.369645" lon="1.236406">
        <ele>1718.591</ele>
        <time>2021-06-19T17:32:41Z</time>
      </trkpt>
      <trkpt lat="42.369563" lon="1.236246">
        <ele>1719.421</ele>
        <time>2021-06-19T17:32:44Z</time>
      </trkpt>
      <trkpt lat="42.369549" lon="1.236194">
        <ele>1719.714</ele>
        <time>2021-06-19T17:32:45Z</time>
      </trkpt>
      <trkpt lat="42.369536" lon="1.236146">
        <ele>1719.991</ele>
        <time>2021-06-19T17:32:46Z</time>
      </trkpt>
      <trkpt lat="42.369477" lon="1.235901">
        <ele>1719.959</ele>
        <time>2021-06-19T17:32:51Z</time>
      </trkpt>
      <trkpt lat="42.369422" lon="1.235702">
        <ele>1720.303</ele>
        <time>2021-06-19T17:32:55Z</time>
      </trkpt>
      <trkpt lat="42.369341" lon="1.235472">
        <ele>1722.023</ele>
        <time>2021-06-19T17:33:00Z</time>
      </trkpt>
      <trkpt lat="42.369258" lon="1.235244">
        <ele>1722.808</ele>
        <time>2021-06-19T17:33:05Z</time>
      </trkpt>
      <trkpt lat="42.369201" lon="1.235060">
        <ele>1722.762</ele>
        <time>2021-06-19T17:33:09Z</time>
      </trkpt>
      <trkpt lat="42.369113" lon="1.234799">
        <ele>1723.751</ele>
        <time>2021-06-19T17:33:16Z</time>
      </trkpt>
      <trkpt lat="42.369088" lon="1.234735">
        <ele>1724.057</ele>
        <time>2021-06-19T17:33:18Z</time>
      </trkpt>
      <trkpt lat="42.369024" lon="1.234504">
        <ele>1725.621</ele>
        <time>2021-06-19T17:33:25Z</time>
      </trkpt>
      <trkpt lat="42.368943" lon="1.234173">
        <ele>1725.335</ele>
        <time>2021-06-19T17:33:34Z</time>
      </trkpt>
      <trkpt lat="42.368850" lon="1.233907">
        <ele>1725.015</ele>
        <time>2021-06-19T17:33:41Z</time>
      </trkpt>
      <trkpt lat="42.368822" lon="1.233835">
        <ele>1725.138</ele>
        <time>2021-06-19T17:33:43Z</time>
      </trkpt>
      <trkpt lat="42.368780" lon="1.233726">
        <ele>1725.225</ele>
        <time>2021-06-19T17:33:46Z</time>
      </trkpt>
      <trkpt lat="42.368711" lon="1.233537">
        <ele>1725.622</ele>
        <time>2021-06-19T17:33:51Z</time>
      </trkpt>
      <trkpt lat="42.368544" lon="1.233215">
        <ele>1726.762</ele>
        <time>2021-06-19T17:34:00Z</time>
      </trkpt>
      <trkpt lat="42.368519" lon="1.233182">
        <ele>1726.808</ele>
        <time>2021-06-19T17:34:01Z</time>
      </trkpt>
      <trkpt lat="42.368332" lon="1.233006">
        <ele>1727.608</ele>
        <time>2021-06-19T17:34:08Z</time>
      </trkpt>
      <trkpt lat="42.368219" lon="1.232944">
        <ele>1727.679</ele>
        <time>2021-06-19T17:34:12Z</time>
      </trkpt>
      <trkpt lat="42.368131" lon="1.232902">
        <ele>1727.698</ele>
        <time>2021-06-19T17:34:15Z</time>
      </trkpt>
      <trkpt lat="42.367895" lon="1.232791">
        <ele>1727.184</ele>
        <time>2021-06-19T17:34:23Z</time>
      </trkpt>
      <trkpt lat="42.367844" lon="1.232756">
        <ele>1727.038</ele>
        <time>2021-06-19T17:34:25Z</time>
      </trkpt>
      <trkpt lat="42.367727" lon="1.232647">
        <ele>1726.662</ele>
        <time>2021-06-19T17:34:29Z</time>
      </trkpt>
      <trkpt lat="42.367620" lon="1.232568">
        <ele>1725.642</ele>
        <time>2021-06-19T17:34:32Z</time>
      </trkpt>
      <trkpt lat="42.367535" lon="1.232539">
        <ele>1724.615</ele>
        <time>2021-06-19T17:34:34Z</time>
      </trkpt>
      <trkpt lat="42.367489" lon="1.232519">
        <ele>1724.052</ele>
        <time>2021-06-19T17:34:35Z</time>
      </trkpt>
      <trkpt lat="42.367353" lon="1.232471">
        <ele>1722.424</ele>
        <time>2021-06-19T17:34:38Z</time>
      </trkpt>
      <trkpt lat="42.367329" lon="1.232463">
        <ele>1722.104</ele>
        <time>2021-06-19T17:34:39Z</time>
      </trkpt>
      <trkpt lat="42.367319" lon="1.232451">
        <ele>1721.914</ele>
        <time>2021-06-19T17:34:42Z</time>
      </trkpt>
      <trkpt lat="42.367288" lon="1.232489">
        <ele>1721.708</ele>
        <time>2021-06-19T17:37:13Z</time>
      </trkpt>
      <trkpt lat="42.367166" lon="1.232508">
        <ele>1720.729</ele>
        <time>2021-06-19T17:37:17Z</time>
      </trkpt>
      <trkpt lat="42.366893" lon="1.232471">
        <ele>1718.588</ele>
        <time>2021-06-19T17:37:22Z</time>
      </trkpt>
      <trkpt lat="42.366828" lon="1.232444">
        <ele>1718.014</ele>
        <time>2021-06-19T17:37:23Z</time>
      </trkpt>
      <trkpt lat="42.366548" lon="1.232290">
        <ele>1715.848</ele>
        <time>2021-06-19T17:37:27Z</time>
      </trkpt>
      <trkpt lat="42.366290" lon="1.231987">
        <ele>1713.322</ele>
        <time>2021-06-19T17:37:31Z</time>
      </trkpt>
      <trkpt lat="42.366231" lon="1.231895">
        <ele>1712.642</ele>
        <time>2021-06-19T17:37:32Z</time>
      </trkpt>
      <trkpt lat="42.366053" lon="1.231599">
        <ele>1710.725</ele>
        <time>2021-06-19T17:37:35Z</time>
      </trkpt>
      <trkpt lat="42.365948" lon="1.231388">
        <ele>1708.822</ele>
        <time>2021-06-19T17:37:37Z</time>
      </trkpt>
      <trkpt lat="42.365641" lon="1.230699">
        <ele>1703.785</ele>
        <time>2021-06-19T17:37:43Z</time>
      </trkpt>
      <trkpt lat="42.365589" lon="1.230585">
        <ele>1702.289</ele>
        <time>2021-06-19T17:37:44Z</time>
      </trkpt>
      <trkpt lat="42.365327" lon="1.230076">
        <ele>1699.017</ele>
        <time>2021-06-19T17:37:49Z</time>
      </trkpt>
      <trkpt lat="42.365134" lon="1.229806">
        <ele>1695.508</ele>
        <time>2021-06-19T17:37:52Z</time>
      </trkpt>
      <trkpt lat="42.365059" lon="1.229731">
        <ele>1694.075</ele>
        <time>2021-06-19T17:37:53Z</time>
      </trkpt>
      <trkpt lat="42.364658" lon="1.229364">
        <ele>1690.684</ele>
        <time>2021-06-19T17:37:58Z</time>
      </trkpt>
      <trkpt lat="42.364579" lon="1.229286">
        <ele>1690.020</ele>
        <time>2021-06-19T17:37:59Z</time>
      </trkpt>
      <trkpt lat="42.364344" lon="1.229066">
        <ele>1688.174</ele>
        <time>2021-06-19T17:38:02Z</time>
      </trkpt>
      <trkpt lat="42.363844" lon="1.228657">
        <ele>1683.738</ele>
        <time>2021-06-19T17:38:08Z</time>
      </trkpt>
      <trkpt lat="42.363583" lon="1.228491">
        <ele>1682.678</ele>
        <time>2021-06-19T17:38:11Z</time>
      </trkpt>
      <trkpt lat="42.363413" lon="1.228397">
        <ele>1681.111</ele>
        <time>2021-06-19T17:38:13Z</time>
      </trkpt>
      <trkpt lat="42.363185" lon="1.228293">
        <ele>1678.598</ele>
        <time>2021-06-19T17:38:16Z</time>
      </trkpt>
      <trkpt lat="42.363106" lon="1.228261">
        <ele>1677.912</ele>
        <time>2021-06-19T17:38:17Z</time>
      </trkpt>
      <trkpt lat="42.362952" lon="1.228182">
        <ele>1676.432</ele>
        <time>2021-06-19T17:38:19Z</time>
      </trkpt>
      <trkpt lat="42.362713" lon="1.228040">
        <ele>1672.505</ele>
        <time>2021-06-19T17:38:22Z</time>
      </trkpt>
      <trkpt lat="42.362329" lon="1.227694">
        <ele>1668.308</ele>
        <time>2021-06-19T17:38:27Z</time>
      </trkpt>
      <trkpt lat="42.362192" lon="1.227546">
        <ele>1665.318</ele>
        <time>2021-06-19T17:38:29Z</time>
      </trkpt>
      <trkpt lat="42.361975" lon="1.227338">
        <ele>1663.047</ele>
        <time>2021-06-19T17:38:32Z</time>
      </trkpt>
      <trkpt lat="42.361895" lon="1.227278">
        <ele>1661.343</ele>
        <time>2021-06-19T17:38:33Z</time>
      </trkpt>
      <trkpt lat="42.361738" lon="1.227162">
        <ele>1660.157</ele>
        <time>2021-06-19T17:38:35Z</time>
      </trkpt>
      <trkpt lat="42.361513" lon="1.226984">
        <ele>1657.931</ele>
        <time>2021-06-19T17:38:38Z</time>
      </trkpt>
      <trkpt lat="42.361445" lon="1.226912">
        <ele>1656.361</ele>
        <time>2021-06-19T17:38:39Z</time>
      </trkpt>
      <trkpt lat="42.361321" lon="1.226754">
        <ele>1655.124</ele>
        <time>2021-06-19T17:38:41Z</time>
      </trkpt>
      <trkpt lat="42.361271" lon="1.226664">
        <ele>1654.311</ele>
        <time>2021-06-19T17:38:42Z</time>
      </trkpt>
      <trkpt lat="42.361219" lon="1.226571">
        <ele>1653.636</ele>
        <time>2021-06-19T17:38:43Z</time>
      </trkpt>
      <trkpt lat="42.360983" lon="1.226212">
        <ele>1648.817</ele>
        <time>2021-06-19T17:38:47Z</time>
      </trkpt>
      <trkpt lat="42.360917" lon="1.226123">
        <ele>1646.918</ele>
        <time>2021-06-19T17:38:48Z</time>
      </trkpt>
      <trkpt lat="42.360721" lon="1.225864">
        <ele>1643.608</ele>
        <time>2021-06-19T17:38:51Z</time>
      </trkpt>
      <trkpt lat="42.360651" lon="1.225788">
        <ele>1642.830</ele>
        <time>2021-06-19T17:38:52Z</time>
      </trkpt>
      <trkpt lat="42.360582" lon="1.225715">
        <ele>1641.619</ele>
        <time>2021-06-19T17:38:53Z</time>
      </trkpt>
      <trkpt lat="42.360227" lon="1.225419">
        <ele>1637.655</ele>
        <time>2021-06-19T17:38:58Z</time>
      </trkpt>
      <trkpt lat="42.359855" lon="1.225285">
        <ele>1631.589</ele>
        <time>2021-06-19T17:39:03Z</time>
      </trkpt>
      <trkpt lat="42.359780" lon="1.225273">
        <ele>1630.213</ele>
        <time>2021-06-19T17:39:04Z</time>
      </trkpt>
      <trkpt lat="42.359704" lon="1.225273">
        <ele>1629.133</ele>
        <time>2021-06-19T17:39:05Z</time>
      </trkpt>
      <trkpt lat="42.359551" lon="1.225316">
        <ele>1628.386</ele>
        <time>2021-06-19T17:39:07Z</time>
      </trkpt>
      <trkpt lat="42.359404" lon="1.225414">
        <ele>1626.513</ele>
        <time>2021-06-19T17:39:09Z</time>
      </trkpt>
      <trkpt lat="42.359336" lon="1.225475">
        <ele>1625.617</ele>
        <time>2021-06-19T17:39:10Z</time>
      </trkpt>
      <trkpt lat="42.359271" lon="1.225542">
        <ele>1624.687</ele>
        <time>2021-06-19T17:39:11Z</time>
      </trkpt>
      <trkpt lat="42.359083" lon="1.225777">
        <ele>1622.215</ele>
        <time>2021-06-19T17:39:14Z</time>
      </trkpt>
      <trkpt lat="42.359020" lon="1.225860">
        <ele>1621.508</ele>
        <time>2021-06-19T17:39:15Z</time>
      </trkpt>
      <trkpt lat="42.358825" lon="1.226088">
        <ele>1619.828</ele>
        <time>2021-06-19T17:39:18Z</time>
      </trkpt>
      <trkpt lat="42.358767" lon="1.226161">
        <ele>1620.417</ele>
        <time>2021-06-19T17:39:19Z</time>
      </trkpt>
      <trkpt lat="42.358530" lon="1.226497">
        <ele>1617.433</ele>
        <time>2021-06-19T17:39:23Z</time>
      </trkpt>
      <trkpt lat="42.358473" lon="1.226598">
        <ele>1616.697</ele>
        <time>2021-06-19T17:39:24Z</time>
      </trkpt>
      <trkpt lat="42.358198" lon="1.226996">
        <ele>1611.851</ele>
        <time>2021-06-19T17:39:28Z</time>
      </trkpt>
      <trkpt lat="42.358118" lon="1.227094">
        <ele>1610.641</ele>
        <time>2021-06-19T17:39:29Z</time>
      </trkpt>
      <trkpt lat="42.357760" lon="1.227452">
        <ele>1604.174</ele>
        <time>2021-06-19T17:39:33Z</time>
      </trkpt>
      <trkpt lat="42.357579" lon="1.227605">
        <ele>1604.941</ele>
        <time>2021-06-19T17:39:35Z</time>
      </trkpt>
      <trkpt lat="42.357344" lon="1.227823">
        <ele>1604.431</ele>
        <time>2021-06-19T17:39:38Z</time>
      </trkpt>
      <trkpt lat="42.357269" lon="1.227885">
        <ele>1604.361</ele>
        <time>2021-06-19T17:39:39Z</time>
      </trkpt>
      <trkpt lat="42.356983" lon="1.228088">
        <ele>1604.207</ele>
        <time>2021-06-19T17:39:43Z</time>
      </trkpt>
      <trkpt lat="42.356916" lon="1.228141">
        <ele>1604.108</ele>
        <time>2021-06-19T17:39:44Z</time>
      </trkpt>
      <trkpt lat="42.356656" lon="1.228383">
        <ele>1601.390</ele>
        <time>2021-06-19T17:39:48Z</time>
      </trkpt>
      <trkpt lat="42.356586" lon="1.228442">
        <ele>1600.029</ele>
        <time>2021-06-19T17:39:49Z</time>
      </trkpt>
      <trkpt lat="42.356267" lon="1.228653">
        <ele>1595.395</ele>
        <time>2021-06-19T17:39:53Z</time>
      </trkpt>
      <trkpt lat="42.356087" lon="1.228738">
        <ele>1593.499</ele>
        <time>2021-06-19T17:39:55Z</time>
      </trkpt>
      <trkpt lat="42.355849" lon="1.228822">
        <ele>1590.443</ele>
        <time>2021-06-19T17:39:58Z</time>
      </trkpt>
      <trkpt lat="42.355777" lon="1.228848">
        <ele>1589.453</ele>
        <time>2021-06-19T17:39:59Z</time>
      </trkpt>
      <trkpt lat="42.355700" lon="1.228877">
        <ele>1588.466</ele>
        <time>2021-06-19T17:40:00Z</time>
      </trkpt>
      <trkpt lat="42.355533" lon="1.228948">
        <ele>1585.923</ele>
        <time>2021-06-19T17:40:02Z</time>
      </trkpt>
      <trkpt lat="42.355446" lon="1.228986">
        <ele>1584.978</ele>
        <time>2021-06-19T17:40:03Z</time>
      </trkpt>
      <trkpt lat="42.355360" lon="1.229034">
        <ele>1583.933</ele>
        <time>2021-06-19T17:40:04Z</time>
      </trkpt>
      <trkpt lat="42.355102" lon="1.229203">
        <ele>1581.326</ele>
        <time>2021-06-19T17:40:07Z</time>
      </trkpt>
      <trkpt lat="42.354828" lon="1.229350">
        <ele>1578.308</ele>
        <time>2021-06-19T17:40:10Z</time>
      </trkpt>
      <trkpt lat="42.354639" lon="1.229404">
        <ele>1577.544</ele>
        <time>2021-06-19T17:40:12Z</time>
      </trkpt>
      <trkpt lat="42.354465" lon="1.229456">
        <ele>1576.583</ele>
        <time>2021-06-19T17:40:14Z</time>
      </trkpt>
      <trkpt lat="42.354216" lon="1.229497">
        <ele>1574.139</ele>
        <time>2021-06-19T17:40:17Z</time>
      </trkpt>
      <trkpt lat="42.354134" lon="1.229493">
        <ele>1573.393</ele>
        <time>2021-06-19T17:40:18Z</time>
      </trkpt>
      <trkpt lat="42.353899" lon="1.229411">
        <ele>1570.227</ele>
        <time>2021-06-19T17:40:21Z</time>
      </trkpt>
      <trkpt lat="42.353824" lon="1.229365">
        <ele>1569.037</ele>
        <time>2021-06-19T17:40:22Z</time>
      </trkpt>
      <trkpt lat="42.353681" lon="1.229256">
        <ele>1566.970</ele>
        <time>2021-06-19T17:40:24Z</time>
      </trkpt>
      <trkpt lat="42.353615" lon="1.229188">
        <ele>1566.527</ele>
        <time>2021-06-19T17:40:25Z</time>
      </trkpt>
      <trkpt lat="42.353556" lon="1.229111">
        <ele>1565.312</ele>
        <time>2021-06-19T17:40:26Z</time>
      </trkpt>
      <trkpt lat="42.353406" lon="1.228880">
        <ele>1563.132</ele>
        <time>2021-06-19T17:40:29Z</time>
      </trkpt>
      <trkpt lat="42.353349" lon="1.228829">
        <ele>1561.905</ele>
        <time>2021-06-19T17:40:30Z</time>
      </trkpt>
      <trkpt lat="42.353216" lon="1.228826">
        <ele>1563.908</ele>
        <time>2021-06-19T17:40:32Z</time>
      </trkpt>
      <trkpt lat="42.353055" lon="1.228992">
        <ele>1562.428</ele>
        <time>2021-06-19T17:40:35Z</time>
      </trkpt>
      <trkpt lat="42.353015" lon="1.229055">
        <ele>1562.917</ele>
        <time>2021-06-19T17:40:36Z</time>
      </trkpt>
      <trkpt lat="42.352950" lon="1.229187">
        <ele>1562.823</ele>
        <time>2021-06-19T17:40:38Z</time>
      </trkpt>
      <trkpt lat="42.352921" lon="1.229251">
        <ele>1562.877</ele>
        <time>2021-06-19T17:40:39Z</time>
      </trkpt>
      <trkpt lat="42.352893" lon="1.229312">
        <ele>1562.821</ele>
        <time>2021-06-19T17:40:40Z</time>
      </trkpt>
      <trkpt lat="42.352868" lon="1.229372">
        <ele>1562.861</ele>
        <time>2021-06-19T17:40:41Z</time>
      </trkpt>
      <trkpt lat="42.352794" lon="1.229542">
        <ele>1563.394</ele>
        <time>2021-06-19T17:40:44Z</time>
      </trkpt>
      <trkpt lat="42.352775" lon="1.229602">
        <ele>1563.361</ele>
        <time>2021-06-19T17:40:45Z</time>
      </trkpt>
      <trkpt lat="42.352673" lon="1.229938">
        <ele>1560.638</ele>
        <time>2021-06-19T17:40:50Z</time>
      </trkpt>
      <trkpt lat="42.352638" lon="1.230013">
        <ele>1560.270</ele>
        <time>2021-06-19T17:40:51Z</time>
      </trkpt>
      <trkpt lat="42.352498" lon="1.230224">
        <ele>1560.417</ele>
        <time>2021-06-19T17:40:54Z</time>
      </trkpt>
      <trkpt lat="42.352439" lon="1.230289">
        <ele>1559.708</ele>
        <time>2021-06-19T17:40:55Z</time>
      </trkpt>
      <trkpt lat="42.352375" lon="1.230346">
        <ele>1559.280</ele>
        <time>2021-06-19T17:40:56Z</time>
      </trkpt>
      <trkpt lat="42.352239" lon="1.230429">
        <ele>1559.339</ele>
        <time>2021-06-19T17:40:58Z</time>
      </trkpt>
      <trkpt lat="42.352099" lon="1.230486">
        <ele>1558.755</ele>
        <time>2021-06-19T17:41:00Z</time>
      </trkpt>
      <trkpt lat="42.352028" lon="1.230504">
        <ele>1558.469</ele>
        <time>2021-06-19T17:41:01Z</time>
      </trkpt>
      <trkpt lat="42.351815" lon="1.230512">
        <ele>1558.693</ele>
        <time>2021-06-19T17:41:04Z</time>
      </trkpt>
      <trkpt lat="42.351745" lon="1.230505">
        <ele>1558.863</ele>
        <time>2021-06-19T17:41:05Z</time>
      </trkpt>
      <trkpt lat="42.351463" lon="1.230452">
        <ele>1558.586</ele>
        <time>2021-06-19T17:41:09Z</time>
      </trkpt>
      <trkpt lat="42.351315" lon="1.230422">
        <ele>1557.943</ele>
        <time>2021-06-19T17:41:11Z</time>
      </trkpt>
      <trkpt lat="42.351160" lon="1.230384">
        <ele>1557.413</ele>
        <time>2021-06-19T17:41:13Z</time>
      </trkpt>
      <trkpt lat="42.350866" lon="1.230260">
        <ele>1557.343</ele>
        <time>2021-06-19T17:41:17Z</time>
      </trkpt>
      <trkpt lat="42.350735" lon="1.230165">
        <ele>1557.307</ele>
        <time>2021-06-19T17:41:19Z</time>
      </trkpt>
      <trkpt lat="42.350544" lon="1.230028">
        <ele>1556.808</ele>
        <time>2021-06-19T17:41:22Z</time>
      </trkpt>
      <trkpt lat="42.350473" lon="1.229999">
        <ele>1557.548</ele>
        <time>2021-06-19T17:41:23Z</time>
      </trkpt>
      <trkpt lat="42.350397" lon="1.229992">
        <ele>1557.287</ele>
        <time>2021-06-19T17:41:24Z</time>
      </trkpt>
      <trkpt lat="42.350242" lon="1.230040">
        <ele>1555.143</ele>
        <time>2021-06-19T17:41:26Z</time>
      </trkpt>
      <trkpt lat="42.350094" lon="1.230127">
        <ele>1554.687</ele>
        <time>2021-06-19T17:41:28Z</time>
      </trkpt>
      <trkpt lat="42.350021" lon="1.230173">
        <ele>1554.361</ele>
        <time>2021-06-19T17:41:29Z</time>
      </trkpt>
      <trkpt lat="42.349822" lon="1.230284">
        <ele>1552.031</ele>
        <time>2021-06-19T17:41:32Z</time>
      </trkpt>
      <trkpt lat="42.349695" lon="1.230300">
        <ele>1552.294</ele>
        <time>2021-06-19T17:41:34Z</time>
      </trkpt>
      <trkpt lat="42.349560" lon="1.230317">
        <ele>1552.021</ele>
        <time>2021-06-19T17:41:36Z</time>
      </trkpt>
      <trkpt lat="42.349340" lon="1.230347">
        <ele>1551.334</ele>
        <time>2021-06-19T17:41:39Z</time>
      </trkpt>
      <trkpt lat="42.349042" lon="1.230355">
        <ele>1550.055</ele>
        <time>2021-06-19T17:41:43Z</time>
      </trkpt>
      <trkpt lat="42.348899" lon="1.230326">
        <ele>1549.710</ele>
        <time>2021-06-19T17:41:45Z</time>
      </trkpt>
      <trkpt lat="42.348768" lon="1.230261">
        <ele>1550.108</ele>
        <time>2021-06-19T17:41:47Z</time>
      </trkpt>
      <trkpt lat="42.348708" lon="1.230219">
        <ele>1550.330</ele>
        <time>2021-06-19T17:41:48Z</time>
      </trkpt>
      <trkpt lat="42.348619" lon="1.230141">
        <ele>1550.679</ele>
        <time>2021-06-19T17:41:50Z</time>
      </trkpt>
      <trkpt lat="42.348584" lon="1.230111">
        <ele>1550.345</ele>
        <time>2021-06-19T17:41:51Z</time>
      </trkpt>
      <trkpt lat="42.348520" lon="1.230071">
        <ele>1549.379</ele>
        <time>2021-06-19T17:41:53Z</time>
      </trkpt>
      <trkpt lat="42.348469" lon="1.230017">
        <ele>1548.713</ele>
        <time>2021-06-19T17:41:55Z</time>
      </trkpt>
      <trkpt lat="42.348450" lon="1.229982">
        <ele>1548.713</ele>
        <time>2021-06-19T17:41:56Z</time>
      </trkpt>
      <trkpt lat="42.348378" lon="1.229858">
        <ele>1548.866</ele>
        <time>2021-06-19T17:41:59Z</time>
      </trkpt>
      <trkpt lat="42.348317" lon="1.229768">
        <ele>1548.883</ele>
        <time>2021-06-19T17:42:01Z</time>
      </trkpt>
      <trkpt lat="42.348253" lon="1.229680">
        <ele>1548.856</ele>
        <time>2021-06-19T17:42:04Z</time>
      </trkpt>
      <trkpt lat="42.348241" lon="1.229664">
        <ele>1548.859</ele>
        <time>2021-06-19T17:42:05Z</time>
      </trkpt>
      <trkpt lat="42.348174" lon="1.229577">
        <ele>1548.914</ele>
        <time>2021-06-19T17:42:09Z</time>
      </trkpt>
      <trkpt lat="42.348130" lon="1.229515">
        <ele>1549.208</ele>
        <time>2021-06-19T17:42:11Z</time>
      </trkpt>
      <trkpt lat="42.348068" lon="1.229416">
        <ele>1549.632</ele>
        <time>2021-06-19T17:42:14Z</time>
      </trkpt>
      <trkpt lat="42.348031" lon="1.229265">
        <ele>1550.951</ele>
        <time>2021-06-19T17:42:18Z</time>
      </trkpt>
      <trkpt lat="42.348025" lon="1.229232">
        <ele>1551.347</ele>
        <time>2021-06-19T17:42:19Z</time>
      </trkpt>
      <trkpt lat="42.347985" lon="1.229163">
        <ele>1552.091</ele>
        <time>2021-06-19T17:42:22Z</time>
      </trkpt>
      <trkpt lat="42.347972" lon="1.229141">
        <ele>1552.175</ele>
        <time>2021-06-19T17:42:23Z</time>
      </trkpt>
      <trkpt lat="42.347927" lon="1.229025">
        <ele>1552.135</ele>
        <time>2021-06-19T17:42:27Z</time>
      </trkpt>
      <trkpt lat="42.347904" lon="1.228950">
        <ele>1551.928</ele>
        <time>2021-06-19T17:42:29Z</time>
      </trkpt>
      <trkpt lat="42.347885" lon="1.228799">
        <ele>1551.935</ele>
        <time>2021-06-19T17:42:32Z</time>
      </trkpt>
      <trkpt lat="42.347852" lon="1.228714">
        <ele>1551.659</ele>
        <time>2021-06-19T17:42:34Z</time>
      </trkpt>
      <trkpt lat="42.347766" lon="1.228585">
        <ele>1549.903</ele>
        <time>2021-06-19T17:42:37Z</time>
      </trkpt>
      <trkpt lat="42.347732" lon="1.228540">
        <ele>1549.423</ele>
        <time>2021-06-19T17:42:38Z</time>
      </trkpt>
      <trkpt lat="42.347645" lon="1.228414">
        <ele>1548.008</ele>
        <time>2021-06-19T17:42:41Z</time>
      </trkpt>
      <trkpt lat="42.347592" lon="1.228307">
        <ele>1547.222</ele>
        <time>2021-06-19T17:42:43Z</time>
      </trkpt>
      <trkpt lat="42.347479" lon="1.228061">
        <ele>1546.441</ele>
        <time>2021-06-19T17:42:47Z</time>
      </trkpt>
      <trkpt lat="42.347414" lon="1.227933">
        <ele>1546.257</ele>
        <time>2021-06-19T17:42:49Z</time>
      </trkpt>
      <trkpt lat="42.347349" lon="1.227799">
        <ele>1546.061</ele>
        <time>2021-06-19T17:42:51Z</time>
      </trkpt>
      <trkpt lat="42.347248" lon="1.227601">
        <ele>1545.595</ele>
        <time>2021-06-19T17:42:54Z</time>
      </trkpt>
      <trkpt lat="42.347158" lon="1.227505">
        <ele>1546.215</ele>
        <time>2021-06-19T17:42:56Z</time>
      </trkpt>
      <trkpt lat="42.347111" lon="1.227486">
        <ele>1546.538</ele>
        <time>2021-06-19T17:42:57Z</time>
      </trkpt>
      <trkpt lat="42.347039" lon="1.227519">
        <ele>1546.595</ele>
        <time>2021-06-19T17:42:59Z</time>
      </trkpt>
      <trkpt lat="42.346979" lon="1.227618">
        <ele>1546.031</ele>
        <time>2021-06-19T17:43:02Z</time>
      </trkpt>
      <trkpt lat="42.346969" lon="1.227661">
        <ele>1545.761</ele>
        <time>2021-06-19T17:43:03Z</time>
      </trkpt>
      <trkpt lat="42.346970" lon="1.227761">
        <ele>1544.907</ele>
        <time>2021-06-19T17:43:05Z</time>
      </trkpt>
      <trkpt lat="42.346971" lon="1.227859">
        <ele>1544.708</ele>
        <time>2021-06-19T17:43:07Z</time>
      </trkpt>
      <trkpt lat="42.346972" lon="1.227958">
        <ele>1544.610</ele>
        <time>2021-06-19T17:43:09Z</time>
      </trkpt>
      <trkpt lat="42.346972" lon="1.228109">
        <ele>1544.489</ele>
        <time>2021-06-19T17:43:12Z</time>
      </trkpt>
      <trkpt lat="42.346974" lon="1.228299">
        <ele>1544.265</ele>
        <time>2021-06-19T17:43:16Z</time>
      </trkpt>
      <trkpt lat="42.346970" lon="1.228389">
        <ele>1544.269</ele>
        <time>2021-06-19T17:43:18Z</time>
      </trkpt>
      <trkpt lat="42.346954" lon="1.228540">
        <ele>1544.743</ele>
        <time>2021-06-19T17:43:22Z</time>
      </trkpt>
      <trkpt lat="42.346946" lon="1.228638">
        <ele>1544.843</ele>
        <time>2021-06-19T17:43:25Z</time>
      </trkpt>
      <trkpt lat="42.346932" lon="1.228786">
        <ele>1545.176</ele>
        <time>2021-06-19T17:43:29Z</time>
      </trkpt>
      <trkpt lat="42.346923" lon="1.228822">
        <ele>1545.413</ele>
        <time>2021-06-19T17:43:30Z</time>
      </trkpt>
      <trkpt lat="42.346868" lon="1.229076">
        <ele>1544.613</ele>
        <time>2021-06-19T17:43:37Z</time>
      </trkpt>
      <trkpt lat="42.346804" lon="1.229211">
        <ele>1543.943</ele>
        <time>2021-06-19T17:43:42Z</time>
      </trkpt>
      <trkpt lat="42.346783" lon="1.229233">
        <ele>1544.007</ele>
        <time>2021-06-19T17:43:43Z</time>
      </trkpt>
      <trkpt lat="42.346655" lon="1.229317">
        <ele>1546.908</ele>
        <time>2021-06-19T17:43:49Z</time>
      </trkpt>
      <trkpt lat="42.346532" lon="1.229354">
        <ele>1549.468</ele>
        <time>2021-06-19T17:43:55Z</time>
      </trkpt>
      <trkpt lat="42.346435" lon="1.229437">
        <ele>1549.617</ele>
        <time>2021-06-19T17:44:01Z</time>
      </trkpt>
      <trkpt lat="42.346405" lon="1.229467">
        <ele>1549.643</ele>
        <time>2021-06-19T17:44:03Z</time>
      </trkpt>
      <trkpt lat="42.346339" lon="1.229537">
        <ele>1548.987</ele>
        <time>2021-06-19T17:44:07Z</time>
      </trkpt>
      <trkpt lat="42.346235" lon="1.229647">
        <ele>1548.581</ele>
        <time>2021-06-19T17:44:13Z</time>
      </trkpt>
      <trkpt lat="42.346108" lon="1.229703">
        <ele>1551.391</ele>
        <time>2021-06-19T17:44:18Z</time>
      </trkpt>
      <trkpt lat="42.346072" lon="1.229705">
        <ele>1550.964</ele>
        <time>2021-06-19T17:44:19Z</time>
      </trkpt>
      <trkpt lat="42.345992" lon="1.229689">
        <ele>1550.371</ele>
        <time>2021-06-19T17:44:21Z</time>
      </trkpt>
      <trkpt lat="42.345949" lon="1.229666">
        <ele>1550.113</ele>
        <time>2021-06-19T17:44:22Z</time>
      </trkpt>
      <trkpt lat="42.345824" lon="1.229541">
        <ele>1550.543</ele>
        <time>2021-06-19T17:44:25Z</time>
      </trkpt>
      <trkpt lat="42.345780" lon="1.229495">
        <ele>1550.707</ele>
        <time>2021-06-19T17:44:26Z</time>
      </trkpt>
      <trkpt lat="42.345622" lon="1.229429">
        <ele>1549.908</ele>
        <time>2021-06-19T17:44:29Z</time>
      </trkpt>
      <trkpt lat="42.345566" lon="1.229438">
        <ele>1549.278</ele>
        <time>2021-06-19T17:44:30Z</time>
      </trkpt>
      <trkpt lat="42.345460" lon="1.229487">
        <ele>1549.347</ele>
        <time>2021-06-19T17:44:32Z</time>
      </trkpt>
      <trkpt lat="42.345410" lon="1.229520">
        <ele>1549.293</ele>
        <time>2021-06-19T17:44:33Z</time>
      </trkpt>
      <trkpt lat="42.345273" lon="1.229644">
        <ele>1547.837</ele>
        <time>2021-06-19T17:44:36Z</time>
      </trkpt>
      <trkpt lat="42.345233" lon="1.229691">
        <ele>1547.811</ele>
        <time>2021-06-19T17:44:37Z</time>
      </trkpt>
      <trkpt lat="42.345158" lon="1.229791">
        <ele>1547.641</ele>
        <time>2021-06-19T17:44:39Z</time>
      </trkpt>
      <trkpt lat="42.345056" lon="1.229952">
        <ele>1547.324</ele>
        <time>2021-06-19T17:44:42Z</time>
      </trkpt>
      <trkpt lat="42.344889" lon="1.230202">
        <ele>1546.431</ele>
        <time>2021-06-19T17:44:47Z</time>
      </trkpt>
      <trkpt lat="42.344860" lon="1.230256">
        <ele>1546.023</ele>
        <time>2021-06-19T17:44:48Z</time>
      </trkpt>
      <trkpt lat="42.344718" lon="1.230464">
        <ele>1546.183</ele>
        <time>2021-06-19T17:44:52Z</time>
      </trkpt>
      <trkpt lat="42.344593" lon="1.230639">
        <ele>1546.111</ele>
        <time>2021-06-19T17:44:55Z</time>
      </trkpt>
      <trkpt lat="42.344557" lon="1.230713">
        <ele>1545.408</ele>
        <time>2021-06-19T17:44:56Z</time>
      </trkpt>
      <trkpt lat="42.344525" lon="1.230793">
        <ele>1544.469</ele>
        <time>2021-06-19T17:44:57Z</time>
      </trkpt>
      <trkpt lat="42.344438" lon="1.231042">
        <ele>1542.538</ele>
        <time>2021-06-19T17:45:00Z</time>
      </trkpt>
      <trkpt lat="42.344373" lon="1.231204">
        <ele>1541.964</ele>
        <time>2021-06-19T17:45:02Z</time>
      </trkpt>
      <trkpt lat="42.344198" lon="1.231672">
        <ele>1541.638</ele>
        <time>2021-06-19T17:45:08Z</time>
      </trkpt>
      <trkpt lat="42.344142" lon="1.231817">
        <ele>1541.292</ele>
        <time>2021-06-19T17:45:10Z</time>
      </trkpt>
      <trkpt lat="42.344058" lon="1.231990">
        <ele>1541.452</ele>
        <time>2021-06-19T17:45:13Z</time>
      </trkpt>
      <trkpt lat="42.344004" lon="1.232084">
        <ele>1541.655</ele>
        <time>2021-06-19T17:45:17Z</time>
      </trkpt>
      <trkpt lat="42.343925" lon="1.232265">
        <ele>1541.092</ele>
        <time>2021-06-19T17:45:22Z</time>
      </trkpt>
      <trkpt lat="42.343903" lon="1.232311">
        <ele>1540.971</ele>
        <time>2021-06-19T17:45:23Z</time>
      </trkpt>
      <trkpt lat="42.343884" lon="1.232361">
        <ele>1540.741</ele>
        <time>2021-06-19T17:45:24Z</time>
      </trkpt>
      <trkpt lat="42.343843" lon="1.232528">
        <ele>1539.515</ele>
        <time>2021-06-19T17:45:27Z</time>
      </trkpt>
      <trkpt lat="42.343810" lon="1.232659">
        <ele>1539.208</ele>
        <time>2021-06-19T17:45:29Z</time>
      </trkpt>
      <trkpt lat="42.343760" lon="1.232954">
        <ele>1538.124</ele>
        <time>2021-06-19T17:45:33Z</time>
      </trkpt>
      <trkpt lat="42.343719" lon="1.233193">
        <ele>1537.013</ele>
        <time>2021-06-19T17:45:36Z</time>
      </trkpt>
      <trkpt lat="42.343644" lon="1.233465">
        <ele>1536.149</ele>
        <time>2021-06-19T17:45:39Z</time>
      </trkpt>
      <trkpt lat="42.343487" lon="1.233823">
        <ele>1533.643</ele>
        <time>2021-06-19T17:45:43Z</time>
      </trkpt>
      <trkpt lat="42.343432" lon="1.233897">
        <ele>1533.257</ele>
        <time>2021-06-19T17:45:44Z</time>
      </trkpt>
      <trkpt lat="42.343235" lon="1.234037">
        <ele>1532.267</ele>
        <time>2021-06-19T17:45:47Z</time>
      </trkpt>
      <trkpt lat="42.343162" lon="1.234070">
        <ele>1532.220</ele>
        <time>2021-06-19T17:45:48Z</time>
      </trkpt>
      <trkpt lat="42.343013" lon="1.234123">
        <ele>1532.257</ele>
        <time>2021-06-19T17:45:50Z</time>
      </trkpt>
      <trkpt lat="42.342778" lon="1.234194">
        <ele>1532.238</ele>
        <time>2021-06-19T17:45:53Z</time>
      </trkpt>
      <trkpt lat="42.342615" lon="1.234230">
        <ele>1530.970</ele>
        <time>2021-06-19T17:45:55Z</time>
      </trkpt>
      <trkpt lat="42.342357" lon="1.234279">
        <ele>1529.317</ele>
        <time>2021-06-19T17:45:58Z</time>
      </trkpt>
      <trkpt lat="42.342270" lon="1.234278">
        <ele>1529.108</ele>
        <time>2021-06-19T17:45:59Z</time>
      </trkpt>
      <trkpt lat="42.342099" lon="1.234251">
        <ele>1528.030</ele>
        <time>2021-06-19T17:46:01Z</time>
      </trkpt>
      <trkpt lat="42.341945" lon="1.234185">
        <ele>1526.899</ele>
        <time>2021-06-19T17:46:03Z</time>
      </trkpt>
      <trkpt lat="42.341753" lon="1.234000">
        <ele>1526.615</ele>
        <time>2021-06-19T17:46:06Z</time>
      </trkpt>
      <trkpt lat="42.341697" lon="1.233929">
        <ele>1526.379</ele>
        <time>2021-06-19T17:46:07Z</time>
      </trkpt>
      <trkpt lat="42.341440" lon="1.233531">
        <ele>1526.223</ele>
        <time>2021-06-19T17:46:12Z</time>
      </trkpt>
      <trkpt lat="42.341224" lon="1.233044">
        <ele>1525.283</ele>
        <time>2021-06-19T17:46:17Z</time>
      </trkpt>
      <trkpt lat="42.341170" lon="1.232824">
        <ele>1525.116</ele>
        <time>2021-06-19T17:46:19Z</time>
      </trkpt>
      <trkpt lat="42.341071" lon="1.232389">
        <ele>1525.293</ele>
        <time>2021-06-19T17:46:23Z</time>
      </trkpt>
      <trkpt lat="42.341051" lon="1.232279">
        <ele>1525.291</ele>
        <time>2021-06-19T17:46:24Z</time>
      </trkpt>
      <trkpt lat="42.341002" lon="1.231843">
        <ele>1524.981</ele>
        <time>2021-06-19T17:46:28Z</time>
      </trkpt>
      <trkpt lat="42.340985" lon="1.231633">
        <ele>1525.019</ele>
        <time>2021-06-19T17:46:30Z</time>
      </trkpt>
      <trkpt lat="42.340964" lon="1.231529">
        <ele>1525.708</ele>
        <time>2021-06-19T17:46:31Z</time>
      </trkpt>
      <trkpt lat="42.340927" lon="1.231437">
        <ele>1525.646</ele>
        <time>2021-06-19T17:46:32Z</time>
      </trkpt>
      <trkpt lat="42.340756" lon="1.231238">
        <ele>1524.425</ele>
        <time>2021-06-19T17:46:35Z</time>
      </trkpt>
      <trkpt lat="42.340594" lon="1.231010">
        <ele>1523.761</ele>
        <time>2021-06-19T17:46:38Z</time>
      </trkpt>
      <trkpt lat="42.340550" lon="1.230919">
        <ele>1523.635</ele>
        <time>2021-06-19T17:46:39Z</time>
      </trkpt>
      <trkpt lat="42.340444" lon="1.230512">
        <ele>1523.389</ele>
        <time>2021-06-19T17:46:43Z</time>
      </trkpt>
      <trkpt lat="42.340433" lon="1.230404">
        <ele>1522.839</ele>
        <time>2021-06-19T17:46:44Z</time>
      </trkpt>
      <trkpt lat="42.340430" lon="1.230295">
        <ele>1522.572</ele>
        <time>2021-06-19T17:46:45Z</time>
      </trkpt>
      <trkpt lat="42.340454" lon="1.230082">
        <ele>1521.739</ele>
        <time>2021-06-19T17:46:47Z</time>
      </trkpt>
      <trkpt lat="42.340584" lon="1.229491">
        <ele>1520.176</ele>
        <time>2021-06-19T17:46:53Z</time>
      </trkpt>
      <trkpt lat="42.340598" lon="1.229393">
        <ele>1519.790</ele>
        <time>2021-06-19T17:46:54Z</time>
      </trkpt>
      <trkpt lat="42.340636" lon="1.229108">
        <ele>1520.419</ele>
        <time>2021-06-19T17:46:57Z</time>
      </trkpt>
      <trkpt lat="42.340621" lon="1.229019">
        <ele>1520.808</ele>
        <time>2021-06-19T17:46:58Z</time>
      </trkpt>
      <trkpt lat="42.340582" lon="1.228944">
        <ele>1520.254</ele>
        <time>2021-06-19T17:46:59Z</time>
      </trkpt>
      <trkpt lat="42.340461" lon="1.228837">
        <ele>1518.973</ele>
        <time>2021-06-19T17:47:01Z</time>
      </trkpt>
      <trkpt lat="42.340393" lon="1.228790">
        <ele>1518.319</ele>
        <time>2021-06-19T17:47:02Z</time>
      </trkpt>
      <trkpt lat="42.340127" lon="1.228540">
        <ele>1516.553</ele>
        <time>2021-06-19T17:47:06Z</time>
      </trkpt>
      <trkpt lat="42.340024" lon="1.228380">
        <ele>1516.047</ele>
        <time>2021-06-19T17:47:08Z</time>
      </trkpt>
      <trkpt lat="42.339948" lon="1.228202">
        <ele>1514.937</ele>
        <time>2021-06-19T17:47:10Z</time>
      </trkpt>
      <trkpt lat="42.339910" lon="1.227901">
        <ele>1513.080</ele>
        <time>2021-06-19T17:47:13Z</time>
      </trkpt>
      <trkpt lat="42.339943" lon="1.227705">
        <ele>1512.617</ele>
        <time>2021-06-19T17:47:15Z</time>
      </trkpt>
      <trkpt lat="42.339987" lon="1.227515">
        <ele>1511.696</ele>
        <time>2021-06-19T17:47:17Z</time>
      </trkpt>
      <trkpt lat="42.340010" lon="1.227420">
        <ele>1511.431</ele>
        <time>2021-06-19T17:47:18Z</time>
      </trkpt>
      <trkpt lat="42.340049" lon="1.227224">
        <ele>1510.824</ele>
        <time>2021-06-19T17:47:20Z</time>
      </trkpt>
      <trkpt lat="42.340068" lon="1.227026">
        <ele>1509.808</ele>
        <time>2021-06-19T17:47:22Z</time>
      </trkpt>
      <trkpt lat="42.340094" lon="1.226657">
        <ele>1507.346</ele>
        <time>2021-06-19T17:47:26Z</time>
      </trkpt>
      <trkpt lat="42.340106" lon="1.226568">
        <ele>1506.945</ele>
        <time>2021-06-19T17:47:27Z</time>
      </trkpt>
      <trkpt lat="42.340214" lon="1.226020">
        <ele>1503.751</ele>
        <time>2021-06-19T17:47:33Z</time>
      </trkpt>
      <trkpt lat="42.340267" lon="1.225818">
        <ele>1502.265</ele>
        <time>2021-06-19T17:47:35Z</time>
      </trkpt>
      <trkpt lat="42.340341" lon="1.225492">
        <ele>1500.859</ele>
        <time>2021-06-19T17:47:38Z</time>
      </trkpt>
      <trkpt lat="42.340346" lon="1.225376">
        <ele>1500.729</ele>
        <time>2021-06-19T17:47:39Z</time>
      </trkpt>
      <trkpt lat="42.340307" lon="1.225085">
        <ele>1500.832</ele>
        <time>2021-06-19T17:47:42Z</time>
      </trkpt>
      <trkpt lat="42.340179" lon="1.224977">
        <ele>1500.679</ele>
        <time>2021-06-19T17:47:45Z</time>
      </trkpt>
      <trkpt lat="42.340116" lon="1.224973">
        <ele>1499.882</ele>
        <time>2021-06-19T17:47:46Z</time>
      </trkpt>
      <trkpt lat="42.340041" lon="1.224971">
        <ele>1498.743</ele>
        <time>2021-06-19T17:47:47Z</time>
      </trkpt>
      <trkpt lat="42.339960" lon="1.224968">
        <ele>1497.717</ele>
        <time>2021-06-19T17:47:48Z</time>
      </trkpt>
      <trkpt lat="42.339521" lon="1.225012">
        <ele>1492.808</ele>
        <time>2021-06-19T17:47:53Z</time>
      </trkpt>
      <trkpt lat="42.339261" lon="1.225071">
        <ele>1490.855</ele>
        <time>2021-06-19T17:47:56Z</time>
      </trkpt>
      <trkpt lat="42.339175" lon="1.225070">
        <ele>1491.064</ele>
        <time>2021-06-19T17:47:57Z</time>
      </trkpt>
      <trkpt lat="42.339093" lon="1.225057">
        <ele>1490.610</ele>
        <time>2021-06-19T17:47:58Z</time>
      </trkpt>
      <trkpt lat="42.338935" lon="1.225006">
        <ele>1490.314</ele>
        <time>2021-06-19T17:48:00Z</time>
      </trkpt>
      <trkpt lat="42.338710" lon="1.224900">
        <ele>1490.148</ele>
        <time>2021-06-19T17:48:03Z</time>
      </trkpt>
      <trkpt lat="42.338415" lon="1.224732">
        <ele>1489.938</ele>
        <time>2021-06-19T17:48:08Z</time>
      </trkpt>
      <trkpt lat="42.338077" lon="1.224497">
        <ele>1489.071</ele>
        <time>2021-06-19T17:48:14Z</time>
      </trkpt>
      <trkpt lat="42.337955" lon="1.224408">
        <ele>1489.068</ele>
        <time>2021-06-19T17:48:16Z</time>
      </trkpt>
      <trkpt lat="42.337632" lon="1.224189">
        <ele>1488.217</ele>
        <time>2021-06-19T17:48:21Z</time>
      </trkpt>
      <trkpt lat="42.337144" lon="1.223845">
        <ele>1487.587</ele>
        <time>2021-06-19T17:48:28Z</time>
      </trkpt>
      <trkpt lat="42.337072" lon="1.223799">
        <ele>1487.215</ele>
        <time>2021-06-19T17:48:29Z</time>
      </trkpt>
      <trkpt lat="42.336729" lon="1.223535">
        <ele>1485.708</ele>
        <time>2021-06-19T17:48:34Z</time>
      </trkpt>
      <trkpt lat="42.336692" lon="1.223458">
        <ele>1485.658</ele>
        <time>2021-06-19T17:48:35Z</time>
      </trkpt>
      <trkpt lat="42.336671" lon="1.223288">
        <ele>1485.467</ele>
        <time>2021-06-19T17:48:37Z</time>
      </trkpt>
      <trkpt lat="42.336689" lon="1.223207">
        <ele>1484.753</ele>
        <time>2021-06-19T17:48:38Z</time>
      </trkpt>
      <trkpt lat="42.336763" lon="1.223067">
        <ele>1484.697</ele>
        <time>2021-06-19T17:48:40Z</time>
      </trkpt>
      <trkpt lat="42.336804" lon="1.222998">
        <ele>1484.481</ele>
        <time>2021-06-19T17:48:41Z</time>
      </trkpt>
      <trkpt lat="42.336928" lon="1.222772">
        <ele>1483.531</ele>
        <time>2021-06-19T17:48:44Z</time>
      </trkpt>
      <trkpt lat="42.337027" lon="1.222620">
        <ele>1483.224</ele>
        <time>2021-06-19T17:48:46Z</time>
      </trkpt>
      <trkpt lat="42.337435" lon="1.222100">
        <ele>1482.341</ele>
        <time>2021-06-19T17:48:53Z</time>
      </trkpt>
      <trkpt lat="42.337498" lon="1.222031">
        <ele>1482.162</ele>
        <time>2021-06-19T17:48:54Z</time>
      </trkpt>
      <trkpt lat="42.337914" lon="1.221547">
        <ele>1481.183</ele>
        <time>2021-06-19T17:49:01Z</time>
      </trkpt>
      <trkpt lat="42.337962" lon="1.221480">
        <ele>1480.811</ele>
        <time>2021-06-19T17:49:02Z</time>
      </trkpt>
      <trkpt lat="42.338013" lon="1.221422">
        <ele>1480.708</ele>
        <time>2021-06-19T17:49:03Z</time>
      </trkpt>
      <trkpt lat="42.338072" lon="1.221378">
        <ele>1480.933</ele>
        <time>2021-06-19T17:49:04Z</time>
      </trkpt>
      <trkpt lat="42.338132" lon="1.221344">
        <ele>1480.732</ele>
        <time>2021-06-19T17:49:05Z</time>
      </trkpt>
      <trkpt lat="42.338443" lon="1.221167">
        <ele>1480.288</ele>
        <time>2021-06-19T17:49:10Z</time>
      </trkpt>
      <trkpt lat="42.338501" lon="1.221115">
        <ele>1480.052</ele>
        <time>2021-06-19T17:49:11Z</time>
      </trkpt>
      <trkpt lat="42.338829" lon="1.220870">
        <ele>1479.056</ele>
        <time>2021-06-19T17:49:16Z</time>
      </trkpt>
      <trkpt lat="42.339026" lon="1.220706">
        <ele>1477.976</ele>
        <time>2021-06-19T17:49:19Z</time>
      </trkpt>
      <trkpt lat="42.339225" lon="1.220558">
        <ele>1476.139</ele>
        <time>2021-06-19T17:49:22Z</time>
      </trkpt>
      <trkpt lat="42.339577" lon="1.220388">
        <ele>1475.056</ele>
        <time>2021-06-19T17:49:27Z</time>
      </trkpt>
      <trkpt lat="42.339712" lon="1.220305">
        <ele>1474.125</ele>
        <time>2021-06-19T17:49:29Z</time>
      </trkpt>
      <trkpt lat="42.339899" lon="1.220212">
        <ele>1476.726</ele>
        <time>2021-06-19T17:49:32Z</time>
      </trkpt>
      <trkpt lat="42.339938" lon="1.220102">
        <ele>1478.108</ele>
        <time>2021-06-19T17:49:34Z</time>
      </trkpt>
      <trkpt lat="42.339863" lon="1.219954">
        <ele>1475.208</ele>
        <time>2021-06-19T17:49:37Z</time>
      </trkpt>
      <trkpt lat="42.339834" lon="1.219904">
        <ele>1474.749</ele>
        <time>2021-06-19T17:49:38Z</time>
      </trkpt>
      <trkpt lat="42.339781" lon="1.219788">
        <ele>1474.128</ele>
        <time>2021-06-19T17:49:40Z</time>
      </trkpt>
      <trkpt lat="42.339727" lon="1.219666">
        <ele>1473.574</ele>
        <time>2021-06-19T17:49:42Z</time>
      </trkpt>
      <trkpt lat="42.339694" lon="1.219608">
        <ele>1473.158</ele>
        <time>2021-06-19T17:49:43Z</time>
      </trkpt>
      <trkpt lat="42.339550" lon="1.219370">
        <ele>1471.932</ele>
        <time>2021-06-19T17:49:47Z</time>
      </trkpt>
      <trkpt lat="42.339338" lon="1.218971">
        <ele>1471.622</ele>
        <time>2021-06-19T17:49:53Z</time>
      </trkpt>
      <trkpt lat="42.339274" lon="1.218826">
        <ele>1471.385</ele>
        <time>2021-06-19T17:49:55Z</time>
      </trkpt>
      <trkpt lat="42.339248" lon="1.218747">
        <ele>1471.262</ele>
        <time>2021-06-19T17:49:56Z</time>
      </trkpt>
      <trkpt lat="42.339137" lon="1.218339">
        <ele>1470.262</ele>
        <time>2021-06-19T17:50:01Z</time>
      </trkpt>
      <trkpt lat="42.338988" lon="1.217626">
        <ele>1469.383</ele>
        <time>2021-06-19T17:50:09Z</time>
      </trkpt>
      <trkpt lat="42.338999" lon="1.217531">
        <ele>1469.211</ele>
        <time>2021-06-19T17:50:10Z</time>
      </trkpt>
      <trkpt lat="42.339061" lon="1.217357">
        <ele>1468.408</ele>
        <time>2021-06-19T17:50:12Z</time>
      </trkpt>
      <trkpt lat="42.339100" lon="1.217277">
        <ele>1468.213</ele>
        <time>2021-06-19T17:50:13Z</time>
      </trkpt>
      <trkpt lat="42.339182" lon="1.217120">
        <ele>1467.952</ele>
        <time>2021-06-19T17:50:15Z</time>
      </trkpt>
      <trkpt lat="42.339324" lon="1.216909">
        <ele>1468.138</ele>
        <time>2021-06-19T17:50:18Z</time>
      </trkpt>
      <trkpt lat="42.339420" lon="1.216767">
        <ele>1467.532</ele>
        <time>2021-06-19T17:50:20Z</time>
      </trkpt>
      <trkpt lat="42.339684" lon="1.216373">
        <ele>1467.696</ele>
        <time>2021-06-19T17:50:26Z</time>
      </trkpt>
      <trkpt lat="42.339701" lon="1.216304">
        <ele>1469.456</ele>
        <time>2021-06-19T17:50:27Z</time>
      </trkpt>
      <trkpt lat="42.339677" lon="1.216193">
        <ele>1470.269</ele>
        <time>2021-06-19T17:50:29Z</time>
      </trkpt>
      <trkpt lat="42.339513" lon="1.216067">
        <ele>1468.076</ele>
        <time>2021-06-19T17:50:33Z</time>
      </trkpt>
      <trkpt lat="42.339211" lon="1.215904">
        <ele>1464.971</ele>
        <time>2021-06-19T17:50:38Z</time>
      </trkpt>
      <trkpt lat="42.339154" lon="1.215853">
        <ele>1465.041</ele>
        <time>2021-06-19T17:50:39Z</time>
      </trkpt>
      <trkpt lat="42.339038" lon="1.215747">
        <ele>1466.215</ele>
        <time>2021-06-19T17:50:41Z</time>
      </trkpt>
      <trkpt lat="42.338901" lon="1.215704">
        <ele>1464.408</ele>
        <time>2021-06-19T17:50:43Z</time>
      </trkpt>
      <trkpt lat="42.338757" lon="1.215734">
        <ele>1462.824</ele>
        <time>2021-06-19T17:50:45Z</time>
      </trkpt>
      <trkpt lat="42.338525" lon="1.215803">
        <ele>1460.253</ele>
        <time>2021-06-19T17:50:48Z</time>
      </trkpt>
      <trkpt lat="42.338080" lon="1.215928">
        <ele>1455.339</ele>
        <time>2021-06-19T17:50:54Z</time>
      </trkpt>
      <trkpt lat="42.337950" lon="1.215836">
        <ele>1454.973</ele>
        <time>2021-06-19T17:50:57Z</time>
      </trkpt>
      <trkpt lat="42.337939" lon="1.215766">
        <ele>1453.717</ele>
        <time>2021-06-19T17:50:58Z</time>
      </trkpt>
      <trkpt lat="42.337973" lon="1.215618">
        <ele>1452.977</ele>
        <time>2021-06-19T17:51:00Z</time>
      </trkpt>
      <trkpt lat="42.338001" lon="1.215542">
        <ele>1453.160</ele>
        <time>2021-06-19T17:51:01Z</time>
      </trkpt>
      <trkpt lat="42.338058" lon="1.215375">
        <ele>1452.227</ele>
        <time>2021-06-19T17:51:03Z</time>
      </trkpt>
      <trkpt lat="42.338145" lon="1.215128">
        <ele>1450.947</ele>
        <time>2021-06-19T17:51:06Z</time>
      </trkpt>
      <trkpt lat="42.338173" lon="1.215051">
        <ele>1450.829</ele>
        <time>2021-06-19T17:51:07Z</time>
      </trkpt>
      <trkpt lat="42.338210" lon="1.214797">
        <ele>1450.521</ele>
        <time>2021-06-19T17:51:10Z</time>
      </trkpt>
      <trkpt lat="42.338201" lon="1.214621">
        <ele>1450.008</ele>
        <time>2021-06-19T17:51:12Z</time>
      </trkpt>
      <trkpt lat="42.338163" lon="1.214469">
        <ele>1448.421</ele>
        <time>2021-06-19T17:51:14Z</time>
      </trkpt>
      <trkpt lat="42.338104" lon="1.214264">
        <ele>1446.350</ele>
        <time>2021-06-19T17:51:17Z</time>
      </trkpt>
      <trkpt lat="42.338089" lon="1.214190">
        <ele>1445.976</ele>
        <time>2021-06-19T17:51:18Z</time>
      </trkpt>
      <trkpt lat="42.338072" lon="1.214044">
        <ele>1445.980</ele>
        <time>2021-06-19T17:51:20Z</time>
      </trkpt>
      <trkpt lat="42.338064" lon="1.213971">
        <ele>1445.924</ele>
        <time>2021-06-19T17:51:21Z</time>
      </trkpt>
      <trkpt lat="42.338008" lon="1.213682">
        <ele>1444.544</ele>
        <time>2021-06-19T17:51:25Z</time>
      </trkpt>
      <trkpt lat="42.337983" lon="1.213608">
        <ele>1443.627</ele>
        <time>2021-06-19T17:51:26Z</time>
      </trkpt>
      <trkpt lat="42.337953" lon="1.213535">
        <ele>1442.924</ele>
        <time>2021-06-19T17:51:27Z</time>
      </trkpt>
      <trkpt lat="42.337803" lon="1.213165">
        <ele>1439.817</ele>
        <time>2021-06-19T17:51:32Z</time>
      </trkpt>
      <trkpt lat="42.337753" lon="1.213016">
        <ele>1438.587</ele>
        <time>2021-06-19T17:51:34Z</time>
      </trkpt>
      <trkpt lat="42.337740" lon="1.212937">
        <ele>1437.615</ele>
        <time>2021-06-19T17:51:35Z</time>
      </trkpt>
      <trkpt lat="42.337730" lon="1.212856">
        <ele>1436.908</ele>
        <time>2021-06-19T17:51:36Z</time>
      </trkpt>
      <trkpt lat="42.337769" lon="1.212550">
        <ele>1434.538</ele>
        <time>2021-06-19T17:51:40Z</time>
      </trkpt>
      <trkpt lat="42.337796" lon="1.212483">
        <ele>1434.267</ele>
        <time>2021-06-19T17:51:41Z</time>
      </trkpt>
      <trkpt lat="42.337824" lon="1.212420">
        <ele>1433.593</ele>
        <time>2021-06-19T17:51:42Z</time>
      </trkpt>
      <trkpt lat="42.337875" lon="1.212293">
        <ele>1431.997</ele>
        <time>2021-06-19T17:51:44Z</time>
      </trkpt>
      <trkpt lat="42.337988" lon="1.212091">
        <ele>1429.751</ele>
        <time>2021-06-19T17:51:47Z</time>
      </trkpt>
      <trkpt lat="42.338036" lon="1.212025">
        <ele>1429.261</ele>
        <time>2021-06-19T17:51:48Z</time>
      </trkpt>
      <trkpt lat="42.338192" lon="1.211791">
        <ele>1432.174</ele>
        <time>2021-06-19T17:51:52Z</time>
      </trkpt>
      <trkpt lat="42.338185" lon="1.211724">
        <ele>1431.681</ele>
        <time>2021-06-19T17:51:53Z</time>
      </trkpt>
      <trkpt lat="42.338159" lon="1.211659">
        <ele>1430.154</ele>
        <time>2021-06-19T17:51:54Z</time>
      </trkpt>
      <trkpt lat="42.338071" lon="1.211463">
        <ele>1430.056</ele>
        <time>2021-06-19T17:51:57Z</time>
      </trkpt>
      <trkpt lat="42.338039" lon="1.211396">
        <ele>1430.011</ele>
        <time>2021-06-19T17:51:58Z</time>
      </trkpt>
      <trkpt lat="42.338000" lon="1.211328">
        <ele>1429.808</ele>
        <time>2021-06-19T17:51:59Z</time>
      </trkpt>
      <trkpt lat="42.337839" lon="1.211150">
        <ele>1427.412</ele>
        <time>2021-06-19T17:52:02Z</time>
      </trkpt>
      <trkpt lat="42.337783" lon="1.211088">
        <ele>1426.681</ele>
        <time>2021-06-19T17:52:03Z</time>
      </trkpt>
      <trkpt lat="42.337734" lon="1.211015">
        <ele>1425.447</ele>
        <time>2021-06-19T17:52:04Z</time>
      </trkpt>
      <trkpt lat="42.337677" lon="1.210844">
        <ele>1424.871</ele>
        <time>2021-06-19T17:52:06Z</time>
      </trkpt>
      <trkpt lat="42.337657" lon="1.210663">
        <ele>1424.275</ele>
        <time>2021-06-19T17:52:08Z</time>
      </trkpt>
      <trkpt lat="42.337639" lon="1.210497">
        <ele>1422.925</ele>
        <time>2021-06-19T17:52:10Z</time>
      </trkpt>
      <trkpt lat="42.337637" lon="1.210428">
        <ele>1422.058</ele>
        <time>2021-06-19T17:52:11Z</time>
      </trkpt>
      <trkpt lat="42.337664" lon="1.210312">
        <ele>1421.965</ele>
        <time>2021-06-19T17:52:13Z</time>
      </trkpt>
      <trkpt lat="42.337706" lon="1.210197">
        <ele>1421.247</ele>
        <time>2021-06-19T17:52:15Z</time>
      </trkpt>
      <trkpt lat="42.337812" lon="1.210030">
        <ele>1421.729</ele>
        <time>2021-06-19T17:52:18Z</time>
      </trkpt>
      <trkpt lat="42.337902" lon="1.209925">
        <ele>1421.021</ele>
        <time>2021-06-19T17:52:20Z</time>
      </trkpt>
      <trkpt lat="42.337950" lon="1.209871">
        <ele>1420.508</ele>
        <time>2021-06-19T17:52:21Z</time>
      </trkpt>
      <trkpt lat="42.338111" lon="1.209716">
        <ele>1419.461</ele>
        <time>2021-06-19T17:52:24Z</time>
      </trkpt>
      <trkpt lat="42.338171" lon="1.209665">
        <ele>1419.370</ele>
        <time>2021-06-19T17:52:25Z</time>
      </trkpt>
      <trkpt lat="42.338540" lon="1.209338">
        <ele>1416.536</ele>
        <time>2021-06-19T17:52:31Z</time>
      </trkpt>
      <trkpt lat="42.338807" lon="1.209146">
        <ele>1415.110</ele>
        <time>2021-06-19T17:52:35Z</time>
      </trkpt>
      <trkpt lat="42.338868" lon="1.209110">
        <ele>1415.734</ele>
        <time>2021-06-19T17:52:36Z</time>
      </trkpt>
      <trkpt lat="42.338925" lon="1.209080">
        <ele>1416.694</ele>
        <time>2021-06-19T17:52:37Z</time>
      </trkpt>
      <trkpt lat="42.339013" lon="1.208960">
        <ele>1417.987</ele>
        <time>2021-06-19T17:52:40Z</time>
      </trkpt>
      <trkpt lat="42.338953" lon="1.208840">
        <ele>1417.174</ele>
        <time>2021-06-19T17:52:43Z</time>
      </trkpt>
      <trkpt lat="42.338919" lon="1.208814">
        <ele>1416.814</ele>
        <time>2021-06-19T17:52:44Z</time>
      </trkpt>
      <trkpt lat="42.338882" lon="1.208791">
        <ele>1416.354</ele>
        <time>2021-06-19T17:52:45Z</time>
      </trkpt>
      <trkpt lat="42.338761" lon="1.208701">
        <ele>1415.009</ele>
        <time>2021-06-19T17:52:48Z</time>
      </trkpt>
      <trkpt lat="42.338528" lon="1.208520">
        <ele>1411.708</ele>
        <time>2021-06-19T17:52:53Z</time>
      </trkpt>
      <trkpt lat="42.338477" lon="1.208480">
        <ele>1410.948</ele>
        <time>2021-06-19T17:52:54Z</time>
      </trkpt>
      <trkpt lat="42.338425" lon="1.208434">
        <ele>1410.417</ele>
        <time>2021-06-19T17:52:55Z</time>
      </trkpt>
      <trkpt lat="42.338282" lon="1.208251">
        <ele>1409.353</ele>
        <time>2021-06-19T17:52:58Z</time>
      </trkpt>
      <trkpt lat="42.338248" lon="1.208175">
        <ele>1408.947</ele>
        <time>2021-06-19T17:52:59Z</time>
      </trkpt>
      <trkpt lat="42.338230" lon="1.208008">
        <ele>1409.041</ele>
        <time>2021-06-19T17:53:01Z</time>
      </trkpt>
      <trkpt lat="42.338261" lon="1.207845">
        <ele>1408.111</ele>
        <time>2021-06-19T17:53:03Z</time>
      </trkpt>
      <trkpt lat="42.338285" lon="1.207770">
        <ele>1408.224</ele>
        <time>2021-06-19T17:53:04Z</time>
      </trkpt>
      <trkpt lat="42.338311" lon="1.207697">
        <ele>1408.081</ele>
        <time>2021-06-19T17:53:05Z</time>
      </trkpt>
      <trkpt lat="42.338388" lon="1.207484">
        <ele>1407.462</ele>
        <time>2021-06-19T17:53:08Z</time>
      </trkpt>
      <trkpt lat="42.338498" lon="1.207171">
        <ele>1404.983</ele>
        <time>2021-06-19T17:53:12Z</time>
      </trkpt>
      <trkpt lat="42.338532" lon="1.207084">
        <ele>1404.411</ele>
        <time>2021-06-19T17:53:13Z</time>
      </trkpt>
      <trkpt lat="42.338694" lon="1.206709">
        <ele>1402.408</ele>
        <time>2021-06-19T17:53:18Z</time>
      </trkpt>
      <trkpt lat="42.338712" lon="1.206667">
        <ele>1402.143</ele>
        <time>2021-06-19T17:53:19Z</time>
      </trkpt>
      <trkpt lat="42.338737" lon="1.206529">
        <ele>1402.342</ele>
        <time>2021-06-19T17:53:22Z</time>
      </trkpt>
      <trkpt lat="42.338733" lon="1.206398">
        <ele>1401.148</ele>
        <time>2021-06-19T17:53:24Z</time>
      </trkpt>
      <trkpt lat="42.338704" lon="1.206262">
        <ele>1401.522</ele>
        <time>2021-06-19T17:53:26Z</time>
      </trkpt>
      <trkpt lat="42.338676" lon="1.206193">
        <ele>1401.136</ele>
        <time>2021-06-19T17:53:27Z</time>
      </trkpt>
      <trkpt lat="42.338600" lon="1.206056">
        <ele>1399.456</ele>
        <time>2021-06-19T17:53:29Z</time>
      </trkpt>
      <trkpt lat="42.338557" lon="1.205990">
        <ele>1398.429</ele>
        <time>2021-06-19T17:53:30Z</time>
      </trkpt>
      <trkpt lat="42.338516" lon="1.205922">
        <ele>1397.446</ele>
        <time>2021-06-19T17:53:31Z</time>
      </trkpt>
      <trkpt lat="42.338427" lon="1.205699">
        <ele>1395.764</ele>
        <time>2021-06-19T17:53:34Z</time>
      </trkpt>
      <trkpt lat="42.338366" lon="1.205566">
        <ele>1394.406</ele>
        <time>2021-06-19T17:53:36Z</time>
      </trkpt>
      <trkpt lat="42.338330" lon="1.205444">
        <ele>1391.616</ele>
        <time>2021-06-19T17:53:38Z</time>
      </trkpt>
      <trkpt lat="42.338333" lon="1.205312">
        <ele>1390.308</ele>
        <time>2021-06-19T17:53:40Z</time>
      </trkpt>
      <trkpt lat="42.338350" lon="1.205242">
        <ele>1389.683</ele>
        <time>2021-06-19T17:53:41Z</time>
      </trkpt>
      <trkpt lat="42.338374" lon="1.205171">
        <ele>1388.552</ele>
        <time>2021-06-19T17:53:42Z</time>
      </trkpt>
      <trkpt lat="42.338428" lon="1.205033">
        <ele>1386.888</ele>
        <time>2021-06-19T17:53:44Z</time>
      </trkpt>
      <trkpt lat="42.338460" lon="1.204969">
        <ele>1386.092</ele>
        <time>2021-06-19T17:53:45Z</time>
      </trkpt>
      <trkpt lat="42.338542" lon="1.204868">
        <ele>1385.816</ele>
        <time>2021-06-19T17:53:47Z</time>
      </trkpt>
      <trkpt lat="42.338588" lon="1.204820">
        <ele>1386.196</ele>
        <time>2021-06-19T17:53:48Z</time>
      </trkpt>
      <trkpt lat="42.338673" lon="1.204711">
        <ele>1385.829</ele>
        <time>2021-06-19T17:53:50Z</time>
      </trkpt>
      <trkpt lat="42.338749" lon="1.204595">
        <ele>1386.786</ele>
        <time>2021-06-19T17:53:52Z</time>
      </trkpt>
      <trkpt lat="42.338812" lon="1.204377">
        <ele>1386.077</ele>
        <time>2021-06-19T17:53:55Z</time>
      </trkpt>
      <trkpt lat="42.338816" lon="1.204300">
        <ele>1385.261</ele>
        <time>2021-06-19T17:53:56Z</time>
      </trkpt>
      <trkpt lat="42.338865" lon="1.204028">
        <ele>1381.627</ele>
        <time>2021-06-19T17:54:00Z</time>
      </trkpt>
      <trkpt lat="42.338984" lon="1.203875">
        <ele>1379.008</ele>
        <time>2021-06-19T17:54:03Z</time>
      </trkpt>
      <trkpt lat="42.339041" lon="1.203847">
        <ele>1378.634</ele>
        <time>2021-06-19T17:54:04Z</time>
      </trkpt>
      <trkpt lat="42.339164" lon="1.203801">
        <ele>1378.583</ele>
        <time>2021-06-19T17:54:06Z</time>
      </trkpt>
      <trkpt lat="42.339227" lon="1.203770">
        <ele>1377.939</ele>
        <time>2021-06-19T17:54:07Z</time>
      </trkpt>
      <trkpt lat="42.339290" lon="1.203736">
        <ele>1377.043</ele>
        <time>2021-06-19T17:54:08Z</time>
      </trkpt>
      <trkpt lat="42.339475" lon="1.203645">
        <ele>1374.257</ele>
        <time>2021-06-19T17:54:11Z</time>
      </trkpt>
      <trkpt lat="42.339600" lon="1.203611">
        <ele>1373.137</ele>
        <time>2021-06-19T17:54:13Z</time>
      </trkpt>
      <trkpt lat="42.339659" lon="1.203603">
        <ele>1373.160</ele>
        <time>2021-06-19T17:54:14Z</time>
      </trkpt>
      <trkpt lat="42.339765" lon="1.203587">
        <ele>1372.987</ele>
        <time>2021-06-19T17:54:16Z</time>
      </trkpt>
      <trkpt lat="42.339905" lon="1.203563">
        <ele>1372.168</ele>
        <time>2021-06-19T17:54:19Z</time>
      </trkpt>
      <trkpt lat="42.339952" lon="1.203555">
        <ele>1371.842</ele>
        <time>2021-06-19T17:54:20Z</time>
      </trkpt>
      <trkpt lat="42.340171" lon="1.203532">
        <ele>1370.926</ele>
        <time>2021-06-19T17:54:24Z</time>
      </trkpt>
      <trkpt lat="42.340232" lon="1.203519">
        <ele>1370.308</ele>
        <time>2021-06-19T17:54:25Z</time>
      </trkpt>
      <trkpt lat="42.340359" lon="1.203494">
        <ele>1370.093</ele>
        <time>2021-06-19T17:54:27Z</time>
      </trkpt>
      <trkpt lat="42.340422" lon="1.203474">
        <ele>1369.682</ele>
        <time>2021-06-19T17:54:28Z</time>
      </trkpt>
      <trkpt lat="42.340546" lon="1.203419">
        <ele>1368.238</ele>
        <time>2021-06-19T17:54:30Z</time>
      </trkpt>
      <trkpt lat="42.340723" lon="1.203349">
        <ele>1367.212</ele>
        <time>2021-06-19T17:54:33Z</time>
      </trkpt>
      <trkpt lat="42.340890" lon="1.203291">
        <ele>1366.556</ele>
        <time>2021-06-19T17:54:36Z</time>
      </trkpt>
      <trkpt lat="42.341112" lon="1.203195">
        <ele>1364.016</ele>
        <time>2021-06-19T17:54:41Z</time>
      </trkpt>
      <trkpt lat="42.341185" lon="1.203163">
        <ele>1363.239</ele>
        <time>2021-06-19T17:54:43Z</time>
      </trkpt>
      <trkpt lat="42.341225" lon="1.203155">
        <ele>1363.286</ele>
        <time>2021-06-19T17:54:44Z</time>
      </trkpt>
      <trkpt lat="42.341303" lon="1.203149">
        <ele>1363.848</ele>
        <time>2021-06-19T17:54:46Z</time>
      </trkpt>
      <trkpt lat="42.341394" lon="1.203119">
        <ele>1363.661</ele>
        <time>2021-06-19T17:54:49Z</time>
      </trkpt>
      <trkpt lat="42.341419" lon="1.203108">
        <ele>1363.717</ele>
        <time>2021-06-19T17:54:50Z</time>
      </trkpt>
      <trkpt lat="42.341468" lon="1.203065">
        <ele>1363.108</ele>
        <time>2021-06-19T17:54:52Z</time>
      </trkpt>
      <trkpt lat="42.341490" lon="1.203034">
        <ele>1362.521</ele>
        <time>2021-06-19T17:54:53Z</time>
      </trkpt>
      <trkpt lat="42.341540" lon="1.202958">
        <ele>1361.340</ele>
        <time>2021-06-19T17:54:55Z</time>
      </trkpt>
      <trkpt lat="42.341605" lon="1.202869">
        <ele>1360.176</ele>
        <time>2021-06-19T17:54:57Z</time>
      </trkpt>
      <trkpt lat="42.341727" lon="1.202711">
        <ele>1358.010</ele>
        <time>2021-06-19T17:55:00Z</time>
      </trkpt>
      <trkpt lat="42.341810" lon="1.202602">
        <ele>1356.644</ele>
        <time>2021-06-19T17:55:02Z</time>
      </trkpt>
      <trkpt lat="42.341916" lon="1.202439">
        <ele>1355.574</ele>
        <time>2021-06-19T17:55:05Z</time>
      </trkpt>
      <trkpt lat="42.341935" lon="1.202384">
        <ele>1355.587</ele>
        <time>2021-06-19T17:55:06Z</time>
      </trkpt>
      <trkpt lat="42.341951" lon="1.202330">
        <ele>1355.554</ele>
        <time>2021-06-19T17:55:07Z</time>
      </trkpt>
      <trkpt lat="42.341959" lon="1.202273">
        <ele>1355.441</ele>
        <time>2021-06-19T17:55:08Z</time>
      </trkpt>
      <trkpt lat="42.341951" lon="1.202163">
        <ele>1355.281</ele>
        <time>2021-06-19T17:55:10Z</time>
      </trkpt>
      <trkpt lat="42.341943" lon="1.202113">
        <ele>1355.009</ele>
        <time>2021-06-19T17:55:11Z</time>
      </trkpt>
      <trkpt lat="42.341895" lon="1.201980">
        <ele>1355.108</ele>
        <time>2021-06-19T17:55:15Z</time>
      </trkpt>
      <trkpt lat="42.341868" lon="1.201967">
        <ele>1355.241</ele>
        <time>2021-06-19T17:55:16Z</time>
      </trkpt>
      <trkpt lat="42.341818" lon="1.201933">
        <ele>1355.640</ele>
        <time>2021-06-19T17:55:19Z</time>
      </trkpt>
      <trkpt lat="42.341808" lon="1.201921">
        <ele>1355.966</ele>
        <time>2021-06-19T17:55:20Z</time>
      </trkpt>
      <trkpt lat="42.341798" lon="1.201912">
        <ele>1356.190</ele>
        <time>2021-06-19T17:55:21Z</time>
      </trkpt>
      <trkpt lat="42.341758" lon="1.201887">
        <ele>1357.094</ele>
        <time>2021-06-19T17:55:26Z</time>
      </trkpt>
      <trkpt lat="42.341751" lon="1.201886">
        <ele>1357.124</ele>
        <time>2021-06-19T17:55:27Z</time>
      </trkpt>
      <trkpt lat="42.341700" lon="1.201877">
        <ele>1357.827</ele>
        <time>2021-06-19T17:55:32Z</time>
      </trkpt>
      <trkpt lat="42.341655" lon="1.201884">
        <ele>1358.344</ele>
        <time>2021-06-19T17:55:36Z</time>
      </trkpt>
      <trkpt lat="42.341628" lon="1.201890">
        <ele>1358.797</ele>
        <time>2021-06-19T17:55:38Z</time>
      </trkpt>
      <trkpt lat="42.341592" lon="1.201904">
        <ele>1359.123</ele>
        <time>2021-06-19T17:55:41Z</time>
      </trkpt>
      <trkpt lat="42.341581" lon="1.201905">
        <ele>1359.325</ele>
        <time>2021-06-19T17:55:42Z</time>
      </trkpt>
      <trkpt lat="42.341572" lon="1.201911">
        <ele>1359.308</ele>
        <time>2021-06-19T17:55:43Z</time>
      </trkpt>
      <trkpt lat="42.341534" lon="1.201938">
        <ele>1359.166</ele>
        <time>2021-06-19T17:55:48Z</time>
      </trkpt>
      <trkpt lat="42.341464" lon="1.201954">
        <ele>1360.175</ele>
        <time>2021-06-19T17:55:54Z</time>
      </trkpt>
      <trkpt lat="42.341454" lon="1.201953">
        <ele>1360.331</ele>
        <time>2021-06-19T17:55:55Z</time>
      </trkpt>
      <trkpt lat="42.341382" lon="1.201967">
        <ele>1361.375</ele>
        <time>2021-06-19T17:56:01Z</time>
      </trkpt>
      <trkpt lat="42.341316" lon="1.201975">
        <ele>1362.479</ele>
        <time>2021-06-19T17:56:07Z</time>
      </trkpt>
      <trkpt lat="42.341297" lon="1.201963">
        <ele>1363.299</ele>
        <time>2021-06-19T17:56:09Z</time>
      </trkpt>
      <trkpt lat="42.341229" lon="1.201971">
        <ele>1364.312</ele>
        <time>2021-06-19T17:56:14Z</time>
      </trkpt>
      <trkpt lat="42.341205" lon="1.201970">
        <ele>1364.859</ele>
        <time>2021-06-19T17:56:16Z</time>
      </trkpt>
      <trkpt lat="42.341199" lon="1.201970">
        <ele>1364.985</ele>
        <time>2021-06-19T17:56:18Z</time>
      </trkpt>
      <trkpt lat="42.341074" lon="1.201975">
        <ele>1367.089</ele>
        <time>2021-06-19T17:57:46Z</time>
      </trkpt>
      <trkpt lat="42.341060" lon="1.201976">
        <ele>1367.117</ele>
        <time>2021-06-19T17:57:47Z</time>
      </trkpt>
      <trkpt lat="42.340985" lon="1.201978">
        <ele>1368.108</ele>
        <time>2021-06-19T17:57:52Z</time>
      </trkpt>
      <trkpt lat="42.340935" lon="1.201977">
        <ele>1368.935</ele>
        <time>2021-06-19T17:57:55Z</time>
      </trkpt>
      <trkpt lat="42.340923" lon="1.201973">
        <ele>1369.324</ele>
        <time>2021-06-19T17:57:56Z</time>
      </trkpt>
      <trkpt lat="42.340911" lon="1.201968">
        <ele>1369.770</ele>
        <time>2021-06-19T17:57:57Z</time>
      </trkpt>
      <trkpt lat="42.340898" lon="1.201968">
        <ele>1369.984</ele>
        <time>2021-06-19T17:57:58Z</time>
      </trkpt>
      <trkpt lat="42.340872" lon="1.201969">
        <ele>1370.298</ele>
        <time>2021-06-19T17:58:00Z</time>
      </trkpt>
      <trkpt lat="42.340843" lon="1.201974">
        <ele>1370.418</ele>
        <time>2021-06-19T17:58:02Z</time>
      </trkpt>
      <trkpt lat="42.340802" lon="1.202002">
        <ele>1369.641</ele>
        <time>2021-06-19T17:58:06Z</time>
      </trkpt>
      <trkpt lat="42.340759" lon="1.202000">
        <ele>1370.328</ele>
        <time>2021-06-19T17:58:09Z</time>
      </trkpt>
      <trkpt lat="42.340698" lon="1.202002">
        <ele>1371.161</ele>
        <time>2021-06-19T17:58:13Z</time>
      </trkpt>
      <trkpt lat="42.340648" lon="1.202016">
        <ele>1371.221</ele>
        <time>2021-06-19T17:58:17Z</time>
      </trkpt>
      <trkpt lat="42.340627" lon="1.202021">
        <ele>1371.313</ele>
        <time>2021-06-19T17:58:19Z</time>
      </trkpt>
      <trkpt lat="42.340567" lon="1.202021">
        <ele>1372.208</ele>
        <time>2021-06-19T17:58:24Z</time>
      </trkpt>
      <trkpt lat="42.340541" lon="1.202017">
        <ele>1372.883</ele>
        <time>2021-06-19T17:58:26Z</time>
      </trkpt>
      <trkpt lat="42.340528" lon="1.202018">
        <ele>1372.952</ele>
        <time>2021-06-19T17:58:27Z</time>
      </trkpt>
      <trkpt lat="42.340475" lon="1.202034">
        <ele>1372.968</ele>
        <time>2021-06-19T17:58:31Z</time>
      </trkpt>
      <trkpt lat="42.340462" lon="1.202039">
        <ele>1372.882</ele>
        <time>2021-06-19T17:58:32Z</time>
      </trkpt>
      <trkpt lat="42.340434" lon="1.202043">
        <ele>1373.076</ele>
        <time>2021-06-19T17:58:34Z</time>
      </trkpt>
      <trkpt lat="42.340367" lon="1.202046">
        <ele>1373.776</ele>
        <time>2021-06-19T17:58:39Z</time>
      </trkpt>
      <trkpt lat="42.340325" lon="1.202038">
        <ele>1374.729</ele>
        <time>2021-06-19T17:58:42Z</time>
      </trkpt>
      <trkpt lat="42.340240" lon="1.202012">
        <ele>1376.996</ele>
        <time>2021-06-19T17:58:48Z</time>
      </trkpt>
      <trkpt lat="42.340190" lon="1.201990">
        <ele>1378.362</ele>
        <time>2021-06-19T17:58:52Z</time>
      </trkpt>
      <trkpt lat="42.340178" lon="1.201986">
        <ele>1378.683</ele>
        <time>2021-06-19T17:58:53Z</time>
      </trkpt>
      <trkpt lat="42.340151" lon="1.201988">
        <ele>1378.711</ele>
        <time>2021-06-19T17:58:55Z</time>
      </trkpt>
      <trkpt lat="42.340112" lon="1.201986">
        <ele>1379.108</ele>
        <time>2021-06-19T17:58:58Z</time>
      </trkpt>
      <trkpt lat="42.340056" lon="1.201981">
        <ele>1379.813</ele>
        <time>2021-06-19T17:59:02Z</time>
      </trkpt>
      <trkpt lat="42.340027" lon="1.201981">
        <ele>1380.072</ele>
        <time>2021-06-19T17:59:04Z</time>
      </trkpt>
      <trkpt lat="42.339957" lon="1.201982">
        <ele>1380.468</ele>
        <time>2021-06-19T17:59:09Z</time>
      </trkpt>
      <trkpt lat="42.339885" lon="1.201991">
        <ele>1380.512</ele>
        <time>2021-06-19T17:59:14Z</time>
      </trkpt>
      <trkpt lat="42.339858" lon="1.201998">
        <ele>1380.376</ele>
        <time>2021-06-19T17:59:16Z</time>
      </trkpt>
      <trkpt lat="42.339770" lon="1.201991">
        <ele>1381.396</ele>
        <time>2021-06-19T17:59:23Z</time>
      </trkpt>
      <trkpt lat="42.339759" lon="1.201988">
        <ele>1381.569</ele>
        <time>2021-06-19T17:59:24Z</time>
      </trkpt>
      <trkpt lat="42.339680" lon="1.201989">
        <ele>1382.066</ele>
        <time>2021-06-19T17:59:30Z</time>
      </trkpt>
      <trkpt lat="42.339614" lon="1.201990">
        <ele>1382.465</ele>
        <time>2021-06-19T17:59:34Z</time>
      </trkpt>
      <trkpt lat="42.339597" lon="1.201990">
        <ele>1382.568</ele>
        <time>2021-06-19T17:59:35Z</time>
      </trkpt>
      <trkpt lat="42.339440" lon="1.202002">
        <ele>1382.914</ele>
        <time>2021-06-19T17:59:42Z</time>
      </trkpt>
      <trkpt lat="42.339382" lon="1.202012">
        <ele>1382.708</ele>
        <time>2021-06-19T17:59:44Z</time>
      </trkpt>
      <trkpt lat="42.339185" lon="1.202028">
        <ele>1383.353</ele>
        <time>2021-06-19T17:59:50Z</time>
      </trkpt>
      <trkpt lat="42.339057" lon="1.202041">
        <ele>1383.472</ele>
        <time>2021-06-19T17:59:54Z</time>
      </trkpt>
      <trkpt lat="42.338976" lon="1.202059">
        <ele>1383.028</ele>
        <time>2021-06-19T17:59:57Z</time>
      </trkpt>
      <trkpt lat="42.338807" lon="1.202109">
        <ele>1381.962</ele>
        <time>2021-06-19T18:00:03Z</time>
      </trkpt>
      <trkpt lat="42.338727" lon="1.202109">
        <ele>1382.376</ele>
        <time>2021-06-19T18:00:06Z</time>
      </trkpt>
      <trkpt lat="42.338604" lon="1.202077">
        <ele>1384.386</ele>
        <time>2021-06-19T18:00:11Z</time>
      </trkpt>
      <trkpt lat="42.338462" lon="1.202045">
        <ele>1385.819</ele>
        <time>2021-06-19T18:00:17Z</time>
      </trkpt>
      <trkpt lat="42.338442" lon="1.202036">
        <ele>1386.236</ele>
        <time>2021-06-19T18:00:18Z</time>
      </trkpt>
      <trkpt lat="42.338273" lon="1.201950">
        <ele>1388.745</ele>
        <time>2021-06-19T18:00:26Z</time>
      </trkpt>
      <trkpt lat="42.338252" lon="1.201937">
        <ele>1388.847</ele>
        <time>2021-06-19T18:00:27Z</time>
      </trkpt>
      <trkpt lat="42.338098" lon="1.201804">
        <ele>1391.011</ele>
        <time>2021-06-19T18:00:35Z</time>
      </trkpt>
      <trkpt lat="42.338059" lon="1.201766">
        <ele>1391.508</ele>
        <time>2021-06-19T18:00:37Z</time>
      </trkpt>
      <trkpt lat="42.337880" lon="1.201599">
        <ele>1392.381</ele>
        <time>2021-06-19T18:00:46Z</time>
      </trkpt>
      <trkpt lat="42.337840" lon="1.201568">
        <ele>1392.530</ele>
        <time>2021-06-19T18:00:48Z</time>
      </trkpt>
      <trkpt lat="42.337738" lon="1.201499">
        <ele>1393.156</ele>
        <time>2021-06-19T18:00:53Z</time>
      </trkpt>
      <trkpt lat="42.337656" lon="1.201450">
        <ele>1393.920</ele>
        <time>2021-06-19T18:00:57Z</time>
      </trkpt>
      <trkpt lat="42.337556" lon="1.201398">
        <ele>1394.694</ele>
        <time>2021-06-19T18:01:02Z</time>
      </trkpt>
      <trkpt lat="42.337476" lon="1.201360">
        <ele>1394.964</ele>
        <time>2021-06-19T18:01:06Z</time>
      </trkpt>
      <trkpt lat="42.337354" lon="1.201297">
        <ele>1395.547</ele>
        <time>2021-06-19T18:01:12Z</time>
      </trkpt>
      <trkpt lat="42.337296" lon="1.201260">
        <ele>1396.014</ele>
        <time>2021-06-19T18:01:15Z</time>
      </trkpt>
      <trkpt lat="42.337174" lon="1.201159">
        <ele>1397.419</ele>
        <time>2021-06-19T18:01:22Z</time>
      </trkpt>
      <trkpt lat="42.337030" lon="1.200999">
        <ele>1399.209</ele>
        <time>2021-06-19T18:01:31Z</time>
      </trkpt>
      <trkpt lat="42.337000" lon="1.200961">
        <ele>1399.519</ele>
        <time>2021-06-19T18:01:33Z</time>
      </trkpt>
      <trkpt lat="42.336893" lon="1.200823">
        <ele>1400.708</ele>
        <time>2021-06-19T18:01:40Z</time>
      </trkpt>
      <trkpt lat="42.336879" lon="1.200803">
        <ele>1400.978</ele>
        <time>2021-06-19T18:01:41Z</time>
      </trkpt>
      <trkpt lat="42.336741" lon="1.200664">
        <ele>1401.367</ele>
        <time>2021-06-19T18:01:49Z</time>
      </trkpt>
      <trkpt lat="42.336722" lon="1.200647">
        <ele>1401.413</ele>
        <time>2021-06-19T18:01:50Z</time>
      </trkpt>
      <trkpt lat="42.336554" lon="1.200525">
        <ele>1402.347</ele>
        <time>2021-06-19T18:01:58Z</time>
      </trkpt>
      <trkpt lat="42.336511" lon="1.200512">
        <ele>1402.051</ele>
        <time>2021-06-19T18:02:00Z</time>
      </trkpt>
      <trkpt lat="42.336429" lon="1.200475">
        <ele>1401.971</ele>
        <time>2021-06-19T18:02:04Z</time>
      </trkpt>
      <trkpt lat="42.336325" lon="1.200408">
        <ele>1402.114</ele>
        <time>2021-06-19T18:02:09Z</time>
      </trkpt>
      <trkpt lat="42.336203" lon="1.200337">
        <ele>1402.331</ele>
        <time>2021-06-19T18:02:14Z</time>
      </trkpt>
      <trkpt lat="42.336084" lon="1.200257">
        <ele>1402.974</ele>
        <time>2021-06-19T18:02:19Z</time>
      </trkpt>
      <trkpt lat="42.335948" lon="1.200160">
        <ele>1402.856</ele>
        <time>2021-06-19T18:02:25Z</time>
      </trkpt>
      <trkpt lat="42.335881" lon="1.200120">
        <ele>1402.721</ele>
        <time>2021-06-19T18:02:28Z</time>
      </trkpt>
      <trkpt lat="42.335795" lon="1.200083">
        <ele>1402.108</ele>
        <time>2021-06-19T18:02:33Z</time>
      </trkpt>
      <trkpt lat="42.335773" lon="1.200068">
        <ele>1402.284</ele>
        <time>2021-06-19T18:02:37Z</time>
      </trkpt>
      <trkpt lat="42.335984" lon="1.199979">
        <ele>1409.053</ele>
        <time>2021-06-19T18:13:07Z</time>
      </trkpt>
      <trkpt lat="42.335904" lon="1.199901">
        <ele>1408.599</ele>
        <time>2021-06-19T18:13:12Z</time>
      </trkpt>
      <trkpt lat="42.335865" lon="1.199868">
        <ele>1408.153</ele>
        <time>2021-06-19T18:13:14Z</time>
      </trkpt>
      <trkpt lat="42.335827" lon="1.199886">
        <ele>1407.157</ele>
        <time>2021-06-19T18:13:16Z</time>
      </trkpt>
      <trkpt lat="42.335833" lon="1.199996">
        <ele>1406.017</ele>
        <time>2021-06-19T18:13:20Z</time>
      </trkpt>
      <trkpt lat="42.335828" lon="1.200102">
        <ele>1402.280</ele>
        <time>2021-06-19T18:13:25Z</time>
      </trkpt>
      <trkpt lat="42.335771" lon="1.200078">
        <ele>1401.817</ele>
        <time>2021-06-19T18:13:28Z</time>
      </trkpt>
      <trkpt lat="42.335761" lon="1.200071">
        <ele>1401.863</ele>
        <time>2021-06-19T18:13:29Z</time>
      </trkpt>
      <trkpt lat="42.335756" lon="1.200068">
        <ele>1401.844</ele>
        <time>2021-06-19T18:13:31Z</time>
      </trkpt>
      <trkpt lat="42.335726" lon="1.200042">
        <ele>1402.118</ele>
        <time>2021-06-19T18:13:38Z</time>
      </trkpt>
      <trkpt lat="42.335702" lon="1.200018">
        <ele>1402.508</ele>
        <time>2021-06-19T18:13:39Z</time>
      </trkpt>
      <trkpt lat="42.335617" lon="1.199865">
        <ele>1402.093</ele>
        <time>2021-06-19T18:13:43Z</time>
      </trkpt>
      <trkpt lat="42.335599" lon="1.199815">
        <ele>1401.872</ele>
        <time>2021-06-19T18:13:44Z</time>
      </trkpt>
      <trkpt lat="42.335580" lon="1.199766">
        <ele>1401.518</ele>
        <time>2021-06-19T18:13:45Z</time>
      </trkpt>
      <trkpt lat="42.335496" lon="1.199661">
        <ele>1400.162</ele>
        <time>2021-06-19T18:13:48Z</time>
      </trkpt>
      <trkpt lat="42.335410" lon="1.199628">
        <ele>1398.286</ele>
        <time>2021-06-19T18:13:50Z</time>
      </trkpt>
      <trkpt lat="42.335355" lon="1.199617">
        <ele>1396.816</ele>
        <time>2021-06-19T18:13:51Z</time>
      </trkpt>
      <trkpt lat="42.335235" lon="1.199582">
        <ele>1394.219</ele>
        <time>2021-06-19T18:13:53Z</time>
      </trkpt>
      <trkpt lat="42.335110" lon="1.199518">
        <ele>1392.916</ele>
        <time>2021-06-19T18:13:55Z</time>
      </trkpt>
      <trkpt lat="42.334934" lon="1.199376">
        <ele>1392.536</ele>
        <time>2021-06-19T18:13:58Z</time>
      </trkpt>
      <trkpt lat="42.334825" lon="1.199243">
        <ele>1391.717</ele>
        <time>2021-06-19T18:14:00Z</time>
      </trkpt>
      <trkpt lat="42.334731" lon="1.199048">
        <ele>1392.018</ele>
        <time>2021-06-19T18:14:03Z</time>
      </trkpt>
      <trkpt lat="42.334681" lon="1.198937">
        <ele>1392.608</ele>
        <time>2021-06-19T18:14:05Z</time>
      </trkpt>
      <trkpt lat="42.334605" lon="1.198751">
        <ele>1392.780</ele>
        <time>2021-06-19T18:14:08Z</time>
      </trkpt>
      <trkpt lat="42.334511" lon="1.198529">
        <ele>1390.369</ele>
        <time>2021-06-19T18:14:13Z</time>
      </trkpt>
      <trkpt lat="42.334460" lon="1.198495">
        <ele>1387.735</ele>
        <time>2021-06-19T18:14:16Z</time>
      </trkpt>
      <trkpt lat="42.334430" lon="1.198510">
        <ele>1386.999</ele>
        <time>2021-06-19T18:14:18Z</time>
      </trkpt>
      <trkpt lat="42.334372" lon="1.198605">
        <ele>1386.653</ele>
        <time>2021-06-19T18:14:21Z</time>
      </trkpt>
      <trkpt lat="42.334356" lon="1.198642">
        <ele>1386.643</ele>
        <time>2021-06-19T18:14:22Z</time>
      </trkpt>
      <trkpt lat="42.334342" lon="1.198825">
        <ele>1386.316</ele>
        <time>2021-06-19T18:14:27Z</time>
      </trkpt>
      <trkpt lat="42.334349" lon="1.199008">
        <ele>1386.513</ele>
        <time>2021-06-19T18:14:33Z</time>
      </trkpt>
      <trkpt lat="42.334315" lon="1.199158">
        <ele>1388.185</ele>
        <time>2021-06-19T18:14:40Z</time>
      </trkpt>
      <trkpt lat="42.334291" lon="1.199268">
        <ele>1389.989</ele>
        <time>2021-06-19T18:14:45Z</time>
      </trkpt>
      <trkpt lat="42.334293" lon="1.199293">
        <ele>1390.017</ele>
        <time>2021-06-19T18:14:46Z</time>
      </trkpt>
      <trkpt lat="42.334303" lon="1.199365">
        <ele>1390.108</ele>
        <time>2021-06-19T18:14:49Z</time>
      </trkpt>
      <trkpt lat="42.334308" lon="1.199433">
        <ele>1390.365</ele>
        <time>2021-06-19T18:14:52Z</time>
      </trkpt>
      <trkpt lat="42.334335" lon="1.199593">
        <ele>1391.994</ele>
        <time>2021-06-19T18:14:59Z</time>
      </trkpt>
      <trkpt lat="42.334377" lon="1.199661">
        <ele>1390.850</ele>
        <time>2021-06-19T18:15:03Z</time>
      </trkpt>
      <trkpt lat="42.334386" lon="1.199680">
        <ele>1390.744</ele>
        <time>2021-06-19T18:15:04Z</time>
      </trkpt>
      <trkpt lat="42.334427" lon="1.199854">
        <ele>1392.428</ele>
        <time>2021-06-19T18:15:12Z</time>
      </trkpt>
      <trkpt lat="42.334452" lon="1.199976">
        <ele>1394.078</ele>
        <time>2021-06-19T18:15:18Z</time>
      </trkpt>
      <trkpt lat="42.334490" lon="1.200118">
        <ele>1395.771</ele>
        <time>2021-06-19T18:15:26Z</time>
      </trkpt>
      <trkpt lat="42.334533" lon="1.200235">
        <ele>1396.578</ele>
        <time>2021-06-19T18:15:33Z</time>
      </trkpt>
      <trkpt lat="42.334593" lon="1.200362">
        <ele>1396.596</ele>
        <time>2021-06-19T18:15:40Z</time>
      </trkpt>
      <trkpt lat="42.334651" lon="1.200494">
        <ele>1397.231</ele>
        <time>2021-06-19T18:15:47Z</time>
      </trkpt>
      <trkpt lat="42.334713" lon="1.200647">
        <ele>1398.324</ele>
        <time>2021-06-19T18:15:55Z</time>
      </trkpt>
      <trkpt lat="42.334761" lon="1.200837">
        <ele>1399.808</ele>
        <time>2021-06-19T18:16:04Z</time>
      </trkpt>
      <trkpt lat="42.334777" lon="1.201040">
        <ele>1401.886</ele>
        <time>2021-06-19T18:16:13Z</time>
      </trkpt>
      <trkpt lat="42.334762" lon="1.201221">
        <ele>1404.415</ele>
        <time>2021-06-19T18:16:21Z</time>
      </trkpt>
      <trkpt lat="42.334788" lon="1.201425">
        <ele>1405.991</ele>
        <time>2021-06-19T18:16:30Z</time>
      </trkpt>
      <trkpt lat="42.334840" lon="1.201615">
        <ele>1407.115</ele>
        <time>2021-06-19T18:16:39Z</time>
      </trkpt>
      <trkpt lat="42.334844" lon="1.201773">
        <ele>1408.749</ele>
        <time>2021-06-19T18:16:46Z</time>
      </trkpt>
      <trkpt lat="42.334825" lon="1.201977">
        <ele>1411.819</ele>
        <time>2021-06-19T18:16:55Z</time>
      </trkpt>
      <trkpt lat="42.334846" lon="1.202011">
        <ele>1412.092</ele>
        <time>2021-06-19T18:16:57Z</time>
      </trkpt>
      <trkpt lat="42.334889" lon="1.202061">
        <ele>1412.039</ele>
        <time>2021-06-19T18:17:01Z</time>
      </trkpt>
      <trkpt lat="42.334980" lon="1.202176">
        <ele>1412.426</ele>
        <time>2021-06-19T18:17:09Z</time>
      </trkpt>
      <trkpt lat="42.335035" lon="1.202340">
        <ele>1413.147</ele>
        <time>2021-06-19T18:17:17Z</time>
      </trkpt>
      <trkpt lat="42.335047" lon="1.202544">
        <ele>1414.411</ele>
        <time>2021-06-19T18:17:26Z</time>
      </trkpt>
      <trkpt lat="42.335020" lon="1.202725">
        <ele>1415.208</ele>
        <time>2021-06-19T18:17:35Z</time>
      </trkpt>
      <trkpt lat="42.334960" lon="1.202851">
        <ele>1416.539</ele>
        <time>2021-06-19T18:17:42Z</time>
      </trkpt>
      <trkpt lat="42.334883" lon="1.202987">
        <ele>1417.858</ele>
        <time>2021-06-19T18:17:50Z</time>
      </trkpt>
      <trkpt lat="42.334856" lon="1.203151">
        <ele>1419.614</ele>
        <time>2021-06-19T18:17:58Z</time>
      </trkpt>
      <trkpt lat="42.334878" lon="1.203297">
        <ele>1420.998</ele>
        <time>2021-06-19T18:18:05Z</time>
      </trkpt>
      <trkpt lat="42.334887" lon="1.203518">
        <ele>1421.232</ele>
        <time>2021-06-19T18:18:15Z</time>
      </trkpt>
      <trkpt lat="42.334861" lon="1.203628">
        <ele>1422.362</ele>
        <time>2021-06-19T18:18:20Z</time>
      </trkpt>
      <trkpt lat="42.334847" lon="1.203667">
        <ele>1422.655</ele>
        <time>2021-06-19T18:18:22Z</time>
      </trkpt>
      <trkpt lat="42.334806" lon="1.203757">
        <ele>1423.762</ele>
        <time>2021-06-19T18:18:27Z</time>
      </trkpt>
      <trkpt lat="42.334790" lon="1.203790">
        <ele>1424.281</ele>
        <time>2021-06-19T18:18:29Z</time>
      </trkpt>
      <trkpt lat="42.334780" lon="1.203821">
        <ele>1424.561</ele>
        <time>2021-06-19T18:18:31Z</time>
      </trkpt>
      <trkpt lat="42.334765" lon="1.203875">
        <ele>1424.817</ele>
        <time>2021-06-19T18:18:35Z</time>
      </trkpt>
      <trkpt lat="42.334756" lon="1.203887">
        <ele>1425.208</ele>
        <time>2021-06-19T18:18:36Z</time>
      </trkpt>
      <trkpt lat="42.334726" lon="1.203935">
        <ele>1426.375</ele>
        <time>2021-06-19T18:18:40Z</time>
      </trkpt>
      <trkpt lat="42.334687" lon="1.204022">
        <ele>1427.244</ele>
        <time>2021-06-19T18:18:48Z</time>
      </trkpt>
      <trkpt lat="42.334632" lon="1.204154">
        <ele>1428.420</ele>
        <time>2021-06-19T18:18:57Z</time>
      </trkpt>
      <trkpt lat="42.334596" lon="1.204358">
        <ele>1427.874</ele>
        <time>2021-06-19T18:19:08Z</time>
      </trkpt>
      <trkpt lat="42.334581" lon="1.204427">
        <ele>1427.848</ele>
        <time>2021-06-19T18:19:10Z</time>
      </trkpt>
      <trkpt lat="42.334558" lon="1.204518">
        <ele>1428.338</ele>
        <time>2021-06-19T18:19:13Z</time>
      </trkpt>
      <trkpt lat="42.334549" lon="1.204549">
        <ele>1428.551</ele>
        <time>2021-06-19T18:19:14Z</time>
      </trkpt>
      <trkpt lat="42.334475" lon="1.204746">
        <ele>1430.668</ele>
        <time>2021-06-19T18:19:22Z</time>
      </trkpt>
      <trkpt lat="42.334418" lon="1.204831">
        <ele>1432.466</ele>
        <time>2021-06-19T18:19:26Z</time>
      </trkpt>
      <trkpt lat="42.334405" lon="1.204852">
        <ele>1432.829</ele>
        <time>2021-06-19T18:19:27Z</time>
      </trkpt>
      <trkpt lat="42.334314" lon="1.205011">
        <ele>1435.321</ele>
        <time>2021-06-19T18:19:35Z</time>
      </trkpt>
      <trkpt lat="42.334324" lon="1.205175">
        <ele>1437.808</ele>
        <time>2021-06-19T18:19:42Z</time>
      </trkpt>
      <trkpt lat="42.334331" lon="1.205218">
        <ele>1438.473</ele>
        <time>2021-06-19T18:19:44Z</time>
      </trkpt>
      <trkpt lat="42.334381" lon="1.205281">
        <ele>1438.492</ele>
        <time>2021-06-19T18:19:48Z</time>
      </trkpt>
      <trkpt lat="42.334473" lon="1.205397">
        <ele>1438.258</ele>
        <time>2021-06-19T18:19:55Z</time>
      </trkpt>
      <trkpt lat="42.334517" lon="1.205551">
        <ele>1439.412</ele>
        <time>2021-06-19T18:20:02Z</time>
      </trkpt>
      <trkpt lat="42.334521" lon="1.205724">
        <ele>1440.856</ele>
        <time>2021-06-19T18:20:09Z</time>
      </trkpt>
      <trkpt lat="42.334528" lon="1.205897">
        <ele>1442.146</ele>
        <time>2021-06-19T18:20:17Z</time>
      </trkpt>
      <trkpt lat="42.334532" lon="1.206011">
        <ele>1442.879</ele>
        <time>2021-06-19T18:20:23Z</time>
      </trkpt>
      <trkpt lat="42.334525" lon="1.206181">
        <ele>1443.956</ele>
        <time>2021-06-19T18:20:30Z</time>
      </trkpt>
      <trkpt lat="42.334523" lon="1.206205">
        <ele>1444.173</ele>
        <time>2021-06-19T18:20:31Z</time>
      </trkpt>
      <trkpt lat="42.334491" lon="1.206373">
        <ele>1445.685</ele>
        <time>2021-06-19T18:20:38Z</time>
      </trkpt>
      <trkpt lat="42.334390" lon="1.206550">
        <ele>1447.213</ele>
        <time>2021-06-19T18:20:47Z</time>
      </trkpt>
      <trkpt lat="42.334306" lon="1.206567">
        <ele>1448.208</ele>
        <time>2021-06-19T18:20:52Z</time>
      </trkpt>
      <trkpt lat="42.334273" lon="1.206559">
        <ele>1448.784</ele>
        <time>2021-06-19T18:20:54Z</time>
      </trkpt>
      <trkpt lat="42.334199" lon="1.206471">
        <ele>1450.673</ele>
        <time>2021-06-19T18:21:00Z</time>
      </trkpt>
      <trkpt lat="42.334120" lon="1.206388">
        <ele>1452.229</ele>
        <time>2021-06-19T18:21:06Z</time>
      </trkpt>
      <trkpt lat="42.333966" lon="1.206298">
        <ele>1454.013</ele>
        <time>2021-06-19T18:21:16Z</time>
      </trkpt>
      <trkpt lat="42.333849" lon="1.206301">
        <ele>1455.037</ele>
        <time>2021-06-19T18:21:23Z</time>
      </trkpt>
      <trkpt lat="42.333702" lon="1.206342">
        <ele>1455.727</ele>
        <time>2021-06-19T18:21:32Z</time>
      </trkpt>
      <trkpt lat="42.333570" lon="1.206329">
        <ele>1457.550</ele>
        <time>2021-06-19T18:21:40Z</time>
      </trkpt>
      <trkpt lat="42.333514" lon="1.206197">
        <ele>1461.397</ele>
        <time>2021-06-19T18:21:47Z</time>
      </trkpt>
      <trkpt lat="42.333545" lon="1.206074">
        <ele>1462.813</ele>
        <time>2021-06-19T18:21:53Z</time>
      </trkpt>
      <trkpt lat="42.333623" lon="1.205993">
        <ele>1462.043</ele>
        <time>2021-06-19T18:21:59Z</time>
      </trkpt>
      <trkpt lat="42.333704" lon="1.205889">
        <ele>1462.307</ele>
        <time>2021-06-19T18:22:06Z</time>
      </trkpt>
      <trkpt lat="42.333699" lon="1.205685">
        <ele>1462.608</ele>
        <time>2021-06-19T18:22:15Z</time>
      </trkpt>
      <trkpt lat="42.333700" lon="1.205649">
        <ele>1462.498</ele>
        <time>2021-06-19T18:22:17Z</time>
      </trkpt>
      <trkpt lat="42.333686" lon="1.205591">
        <ele>1462.737</ele>
        <time>2021-06-19T18:22:20Z</time>
      </trkpt>
      <trkpt lat="42.333656" lon="1.205454">
        <ele>1464.143</ele>
        <time>2021-06-19T18:22:27Z</time>
      </trkpt>
      <trkpt lat="42.333631" lon="1.205308">
        <ele>1465.957</ele>
        <time>2021-06-19T18:22:34Z</time>
      </trkpt>
      <trkpt lat="42.333616" lon="1.205183">
        <ele>1466.811</ele>
        <time>2021-06-19T18:22:40Z</time>
      </trkpt>
      <trkpt lat="42.333577" lon="1.205037">
        <ele>1468.181</ele>
        <time>2021-06-19T18:22:47Z</time>
      </trkpt>
      <trkpt lat="42.333543" lon="1.204884">
        <ele>1469.954</ele>
        <time>2021-06-19T18:22:54Z</time>
      </trkpt>
      <trkpt lat="42.333557" lon="1.204745">
        <ele>1470.491</ele>
        <time>2021-06-19T18:23:00Z</time>
      </trkpt>
      <trkpt lat="42.333538" lon="1.204593">
        <ele>1471.789</ele>
        <time>2021-06-19T18:23:07Z</time>
      </trkpt>
      <trkpt lat="42.333516" lon="1.204452">
        <ele>1473.006</ele>
        <time>2021-06-19T18:23:14Z</time>
      </trkpt>
      <trkpt lat="42.333512" lon="1.204435">
        <ele>1473.226</ele>
        <time>2021-06-19T18:23:15Z</time>
      </trkpt>
      <trkpt lat="42.333495" lon="1.204341">
        <ele>1473.308</ele>
        <time>2021-06-19T18:23:20Z</time>
      </trkpt>
      <trkpt lat="42.333485" lon="1.204322">
        <ele>1473.665</ele>
        <time>2021-06-19T18:23:21Z</time>
      </trkpt>
      <trkpt lat="42.333429" lon="1.204171">
        <ele>1475.284</ele>
        <time>2021-06-19T18:23:28Z</time>
      </trkpt>
      <trkpt lat="42.333374" lon="1.203997">
        <ele>1476.290</ele>
        <time>2021-06-19T18:23:36Z</time>
      </trkpt>
      <trkpt lat="42.333343" lon="1.203938">
        <ele>1477.094</ele>
        <time>2021-06-19T18:23:39Z</time>
      </trkpt>
      <trkpt lat="42.333325" lon="1.203878">
        <ele>1477.218</ele>
        <time>2021-06-19T18:23:42Z</time>
      </trkpt>
      <trkpt lat="42.333278" lon="1.203804">
        <ele>1478.278</ele>
        <time>2021-06-19T18:23:47Z</time>
      </trkpt>
      <trkpt lat="42.333269" lon="1.203790">
        <ele>1478.481</ele>
        <time>2021-06-19T18:23:48Z</time>
      </trkpt>
      <trkpt lat="42.333229" lon="1.203712">
        <ele>1479.328</ele>
        <time>2021-06-19T18:23:52Z</time>
      </trkpt>
      <trkpt lat="42.333223" lon="1.203663">
        <ele>1479.257</ele>
        <time>2021-06-19T18:23:54Z</time>
      </trkpt>
      <trkpt lat="42.333241" lon="1.203493">
        <ele>1479.100</ele>
        <time>2021-06-19T18:24:01Z</time>
      </trkpt>
      <trkpt lat="42.333244" lon="1.203447">
        <ele>1479.420</ele>
        <time>2021-06-19T18:24:03Z</time>
      </trkpt>
      <trkpt lat="42.333255" lon="1.203352">
        <ele>1479.908</ele>
        <time>2021-06-19T18:24:07Z</time>
      </trkpt>
      <trkpt lat="42.333271" lon="1.203188">
        <ele>1480.082</ele>
        <time>2021-06-19T18:24:14Z</time>
      </trkpt>
      <trkpt lat="42.333272" lon="1.203081">
        <ele>1480.341</ele>
        <time>2021-06-19T18:24:21Z</time>
      </trkpt>
      <trkpt lat="42.333272" lon="1.203079">
        <ele>1480.357</ele>
        <time>2021-06-19T18:24:22Z</time>
      </trkpt>
      <trkpt lat="42.333146" lon="1.203145">
        <ele>1485.121</ele>
        <time>2021-06-19T18:25:56Z</time>
      </trkpt>
      <trkpt lat="42.333154" lon="1.203191">
        <ele>1484.695</ele>
        <time>2021-06-19T18:25:58Z</time>
      </trkpt>
      <trkpt lat="42.333128" lon="1.203369">
        <ele>1484.815</ele>
        <time>2021-06-19T18:26:05Z</time>
      </trkpt>
      <trkpt lat="42.333083" lon="1.203504">
        <ele>1485.638</ele>
        <time>2021-06-19T18:26:11Z</time>
      </trkpt>
      <trkpt lat="42.333053" lon="1.203656">
        <ele>1486.315</ele>
        <time>2021-06-19T18:26:16Z</time>
      </trkpt>
      <trkpt lat="42.333055" lon="1.203838">
        <ele>1486.893</ele>
        <time>2021-06-19T18:26:22Z</time>
      </trkpt>
      <trkpt lat="42.333034" lon="1.204019">
        <ele>1488.365</ele>
        <time>2021-06-19T18:26:29Z</time>
      </trkpt>
      <trkpt lat="42.333033" lon="1.204069">
        <ele>1488.521</ele>
        <time>2021-06-19T18:26:31Z</time>
      </trkpt>
      <trkpt lat="42.333029" lon="1.204189">
        <ele>1489.008</ele>
        <time>2021-06-19T18:26:36Z</time>
      </trkpt>
      <trkpt lat="42.333026" lon="1.204209">
        <ele>1489.246</ele>
        <time>2021-06-19T18:26:37Z</time>
      </trkpt>
      <trkpt lat="42.333004" lon="1.204297">
        <ele>1490.155</ele>
        <time>2021-06-19T18:26:41Z</time>
      </trkpt>
      <trkpt lat="42.332997" lon="1.204344">
        <ele>1490.351</ele>
        <time>2021-06-19T18:26:43Z</time>
      </trkpt>
      <trkpt lat="42.332958" lon="1.204445">
        <ele>1491.535</ele>
        <time>2021-06-19T18:26:48Z</time>
      </trkpt>
      <trkpt lat="42.332913" lon="1.204508">
        <ele>1492.459</ele>
        <time>2021-06-19T18:26:53Z</time>
      </trkpt>
      <trkpt lat="42.332901" lon="1.204514">
        <ele>1492.629</ele>
        <time>2021-06-19T18:26:54Z</time>
      </trkpt>
      <trkpt lat="42.332847" lon="1.204579">
        <ele>1493.822</ele>
        <time>2021-06-19T18:26:58Z</time>
      </trkpt>
      <trkpt lat="42.332837" lon="1.204599">
        <ele>1494.059</ele>
        <time>2021-06-19T18:26:59Z</time>
      </trkpt>
      <trkpt lat="42.332815" lon="1.204661">
        <ele>1494.388</ele>
        <time>2021-06-19T18:27:02Z</time>
      </trkpt>
      <trkpt lat="42.332800" lon="1.204722">
        <ele>1494.424</ele>
        <time>2021-06-19T18:27:05Z</time>
      </trkpt>
      <trkpt lat="42.332782" lon="1.204814">
        <ele>1495.226</ele>
        <time>2021-06-19T18:27:09Z</time>
      </trkpt>
      <trkpt lat="42.332780" lon="1.204837">
        <ele>1495.408</ele>
        <time>2021-06-19T18:27:10Z</time>
      </trkpt>
      <trkpt lat="42.332784" lon="1.204913">
        <ele>1495.515</ele>
        <time>2021-06-19T18:27:13Z</time>
      </trkpt>
      <trkpt lat="42.332802" lon="1.205007">
        <ele>1495.314</ele>
        <time>2021-06-19T18:27:17Z</time>
      </trkpt>
      <trkpt lat="42.332822" lon="1.205152">
        <ele>1496.190</ele>
        <time>2021-06-19T18:27:23Z</time>
      </trkpt>
      <trkpt lat="42.332788" lon="1.205391">
        <ele>1498.624</ele>
        <time>2021-06-19T18:27:33Z</time>
      </trkpt>
      <trkpt lat="42.332714" lon="1.205517">
        <ele>1500.458</ele>
        <time>2021-06-19T18:27:40Z</time>
      </trkpt>
      <trkpt lat="42.332683" lon="1.205533">
        <ele>1501.118</ele>
        <time>2021-06-19T18:27:42Z</time>
      </trkpt>
      <trkpt lat="42.332622" lon="1.205516">
        <ele>1502.451</ele>
        <time>2021-06-19T18:27:46Z</time>
      </trkpt>
      <trkpt lat="42.332583" lon="1.205405">
        <ele>1503.638</ele>
        <time>2021-06-19T18:27:52Z</time>
      </trkpt>
      <trkpt lat="42.332592" lon="1.205256">
        <ele>1503.638</ele>
        <time>2021-06-19T18:27:59Z</time>
      </trkpt>
      <trkpt lat="42.332543" lon="1.205087">
        <ele>1504.070</ele>
        <time>2021-06-19T18:28:07Z</time>
      </trkpt>
      <trkpt lat="42.332482" lon="1.204999">
        <ele>1505.517</ele>
        <time>2021-06-19T18:28:13Z</time>
      </trkpt>
      <trkpt lat="42.332411" lon="1.204889">
        <ele>1506.608</ele>
        <time>2021-06-19T18:28:20Z</time>
      </trkpt>
      <trkpt lat="42.332405" lon="1.204869">
        <ele>1506.640</ele>
        <time>2021-06-19T18:28:21Z</time>
      </trkpt>
      <trkpt lat="42.332347" lon="1.204766">
        <ele>1507.899</ele>
        <time>2021-06-19T18:28:27Z</time>
      </trkpt>
      <trkpt lat="42.332285" lon="1.204670">
        <ele>1509.665</ele>
        <time>2021-06-19T18:28:33Z</time>
      </trkpt>
      <trkpt lat="42.332251" lon="1.204623">
        <ele>1510.779</ele>
        <time>2021-06-19T18:28:36Z</time>
      </trkpt>
      <trkpt lat="42.332232" lon="1.204561">
        <ele>1511.193</ele>
        <time>2021-06-19T18:28:39Z</time>
      </trkpt>
      <trkpt lat="42.332260" lon="1.204440">
        <ele>1510.013</ele>
        <time>2021-06-19T18:28:45Z</time>
      </trkpt>
      <trkpt lat="42.332274" lon="1.204403">
        <ele>1510.376</ele>
        <time>2021-06-19T18:28:47Z</time>
      </trkpt>
      <trkpt lat="42.332287" lon="1.204345">
        <ele>1511.173</ele>
        <time>2021-06-19T18:28:50Z</time>
      </trkpt>
      <trkpt lat="42.332337" lon="1.204207">
        <ele>1512.118</ele>
        <time>2021-06-19T18:28:57Z</time>
      </trkpt>
      <trkpt lat="42.332381" lon="1.204078">
        <ele>1512.598</ele>
        <time>2021-06-19T18:29:03Z</time>
      </trkpt>
      <trkpt lat="42.332409" lon="1.203948">
        <ele>1513.217</ele>
        <time>2021-06-19T18:29:09Z</time>
      </trkpt>
      <trkpt lat="42.332422" lon="1.203852">
        <ele>1513.608</ele>
        <time>2021-06-19T18:29:13Z</time>
      </trkpt>
      <trkpt lat="42.332421" lon="1.203802">
        <ele>1513.998</ele>
        <time>2021-06-19T18:29:15Z</time>
      </trkpt>
      <trkpt lat="42.332410" lon="1.203635">
        <ele>1515.167</ele>
        <time>2021-06-19T18:29:22Z</time>
      </trkpt>
      <trkpt lat="42.332388" lon="1.203526">
        <ele>1515.863</ele>
        <time>2021-06-19T18:29:27Z</time>
      </trkpt>
      <trkpt lat="42.332380" lon="1.203505">
        <ele>1516.047</ele>
        <time>2021-06-19T18:29:28Z</time>
      </trkpt>
      <trkpt lat="42.332372" lon="1.203484">
        <ele>1516.291</ele>
        <time>2021-06-19T18:29:29Z</time>
      </trkpt>
      <trkpt lat="42.332321" lon="1.203398">
        <ele>1517.591</ele>
        <time>2021-06-19T18:29:34Z</time>
      </trkpt>
      <trkpt lat="42.332269" lon="1.203337">
        <ele>1518.714</ele>
        <time>2021-06-19T18:29:39Z</time>
      </trkpt>
      <trkpt lat="42.332258" lon="1.203327">
        <ele>1518.931</ele>
        <time>2021-06-19T18:29:40Z</time>
      </trkpt>
      <trkpt lat="42.332220" lon="1.203286">
        <ele>1519.746</ele>
        <time>2021-06-19T18:29:43Z</time>
      </trkpt>
      <trkpt lat="42.332193" lon="1.203257">
        <ele>1520.288</ele>
        <time>2021-06-19T18:29:45Z</time>
      </trkpt>
      <trkpt lat="42.332154" lon="1.203218">
        <ele>1520.816</ele>
        <time>2021-06-19T18:29:48Z</time>
      </trkpt>
      <trkpt lat="42.332110" lon="1.203175">
        <ele>1521.508</ele>
        <time>2021-06-19T18:29:51Z</time>
      </trkpt>
      <trkpt lat="42.332014" lon="1.203099">
        <ele>1522.931</ele>
        <time>2021-06-19T18:29:58Z</time>
      </trkpt>
      <trkpt lat="42.331946" lon="1.202997">
        <ele>1523.590</ele>
        <time>2021-06-19T18:30:04Z</time>
      </trkpt>
      <trkpt lat="42.331900" lon="1.202917">
        <ele>1524.246</ele>
        <time>2021-06-19T18:30:09Z</time>
      </trkpt>
      <trkpt lat="42.331883" lon="1.202882">
        <ele>1524.450</ele>
        <time>2021-06-19T18:30:11Z</time>
      </trkpt>
      <trkpt lat="42.331834" lon="1.202773">
        <ele>1525.264</ele>
        <time>2021-06-19T18:30:17Z</time>
      </trkpt>
      <trkpt lat="42.331791" lon="1.202642">
        <ele>1526.444</ele>
        <time>2021-06-19T18:30:24Z</time>
      </trkpt>
      <trkpt lat="42.331750" lon="1.202517">
        <ele>1527.267</ele>
        <time>2021-06-19T18:30:30Z</time>
      </trkpt>
      <trkpt lat="42.331750" lon="1.202495">
        <ele>1527.224</ele>
        <time>2021-06-19T18:30:31Z</time>
      </trkpt>
      <trkpt lat="42.331726" lon="1.202404">
        <ele>1528.123</ele>
        <time>2021-06-19T18:30:36Z</time>
      </trkpt>
      <trkpt lat="42.331718" lon="1.202383">
        <ele>1528.383</ele>
        <time>2021-06-19T18:30:37Z</time>
      </trkpt>
      <trkpt lat="42.331682" lon="1.202295">
        <ele>1529.411</ele>
        <time>2021-06-19T18:30:42Z</time>
      </trkpt>
      <trkpt lat="42.331672" lon="1.202276">
        <ele>1529.708</ele>
        <time>2021-06-19T18:30:43Z</time>
      </trkpt>
      <trkpt lat="42.331619" lon="1.202180">
        <ele>1530.989</ele>
        <time>2021-06-19T18:30:48Z</time>
      </trkpt>
      <trkpt lat="42.331608" lon="1.202162">
        <ele>1531.138</ele>
        <time>2021-06-19T18:30:49Z</time>
      </trkpt>
      <trkpt lat="42.331531" lon="1.202054">
        <ele>1532.414</ele>
        <time>2021-06-19T18:30:56Z</time>
      </trkpt>
      <trkpt lat="42.331435" lon="1.201960">
        <ele>1534.238</ele>
        <time>2021-06-19T18:31:03Z</time>
      </trkpt>
      <trkpt lat="42.331422" lon="1.201946">
        <ele>1534.432</ele>
        <time>2021-06-19T18:31:04Z</time>
      </trkpt>
      <trkpt lat="42.331394" lon="1.201915">
        <ele>1534.852</ele>
        <time>2021-06-19T18:31:06Z</time>
      </trkpt>
      <trkpt lat="42.331348" lon="1.201858">
        <ele>1535.365</ele>
        <time>2021-06-19T18:31:09Z</time>
      </trkpt>
      <trkpt lat="42.331318" lon="1.201825">
        <ele>1535.652</ele>
        <time>2021-06-19T18:31:11Z</time>
      </trkpt>
      <trkpt lat="42.331214" lon="1.201702">
        <ele>1536.619</ele>
        <time>2021-06-19T18:31:18Z</time>
      </trkpt>
      <trkpt lat="42.331150" lon="1.201608">
        <ele>1537.409</ele>
        <time>2021-06-19T18:31:24Z</time>
      </trkpt>
      <trkpt lat="42.331145" lon="1.201586">
        <ele>1537.519</ele>
        <time>2021-06-19T18:31:25Z</time>
      </trkpt>
      <trkpt lat="42.331111" lon="1.201464">
        <ele>1538.008</ele>
        <time>2021-06-19T18:31:31Z</time>
      </trkpt>
      <trkpt lat="42.331059" lon="1.201306">
        <ele>1539.348</ele>
        <time>2021-06-19T18:31:38Z</time>
      </trkpt>
      <trkpt lat="42.331030" lon="1.201225">
        <ele>1540.027</ele>
        <time>2021-06-19T18:31:42Z</time>
      </trkpt>
      <trkpt lat="42.331009" lon="1.201193">
        <ele>1540.663</ele>
        <time>2021-06-19T18:31:44Z</time>
      </trkpt>
      <trkpt lat="42.330998" lon="1.201175">
        <ele>1540.857</ele>
        <time>2021-06-19T18:31:45Z</time>
      </trkpt>
      <trkpt lat="42.330944" lon="1.201048">
        <ele>1541.981</ele>
        <time>2021-06-19T18:31:52Z</time>
      </trkpt>
      <trkpt lat="42.330902" lon="1.200984">
        <ele>1542.631</ele>
        <time>2021-06-19T18:31:56Z</time>
      </trkpt>
      <trkpt lat="42.330890" lon="1.200969">
        <ele>1542.854</ele>
        <time>2021-06-19T18:31:57Z</time>
      </trkpt>
      <trkpt lat="42.330845" lon="1.200907">
        <ele>1543.381</ele>
        <time>2021-06-19T18:32:01Z</time>
      </trkpt>
      <trkpt lat="42.330819" lon="1.200880">
        <ele>1543.796</ele>
        <time>2021-06-19T18:32:03Z</time>
      </trkpt>
      <trkpt lat="42.330704" lon="1.200772">
        <ele>1545.231</ele>
        <time>2021-06-19T18:32:11Z</time>
      </trkpt>
      <trkpt lat="42.330673" lon="1.200755">
        <ele>1545.724</ele>
        <time>2021-06-19T18:32:13Z</time>
      </trkpt>
      <trkpt lat="42.330577" lon="1.200711">
        <ele>1547.208</ele>
        <time>2021-06-19T18:32:19Z</time>
      </trkpt>
      <trkpt lat="42.330493" lon="1.200655">
        <ele>1548.496</ele>
        <time>2021-06-19T18:32:25Z</time>
      </trkpt>
      <trkpt lat="42.330412" lon="1.200583">
        <ele>1549.465</ele>
        <time>2021-06-19T18:32:31Z</time>
      </trkpt>
      <trkpt lat="42.330356" lon="1.200487">
        <ele>1549.581</ele>
        <time>2021-06-19T18:32:37Z</time>
      </trkpt>
      <trkpt lat="42.330343" lon="1.200473">
        <ele>1549.565</ele>
        <time>2021-06-19T18:32:38Z</time>
      </trkpt>
      <trkpt lat="42.330219" lon="1.200420">
        <ele>1550.899</ele>
        <time>2021-06-19T18:32:46Z</time>
      </trkpt>
      <trkpt lat="42.330095" lon="1.200422">
        <ele>1552.469</ele>
        <time>2021-06-19T18:32:54Z</time>
      </trkpt>
      <trkpt lat="42.330044" lon="1.200446">
        <ele>1553.662</ele>
        <time>2021-06-19T18:32:58Z</time>
      </trkpt>
      <trkpt lat="42.330001" lon="1.200453">
        <ele>1554.489</ele>
        <time>2021-06-19T18:33:01Z</time>
      </trkpt>
      <trkpt lat="42.329962" lon="1.200439">
        <ele>1555.288</ele>
        <time>2021-06-19T18:33:04Z</time>
      </trkpt>
      <trkpt lat="42.329934" lon="1.200429">
        <ele>1555.824</ele>
        <time>2021-06-19T18:33:06Z</time>
      </trkpt>
      <trkpt lat="42.329877" lon="1.200401">
        <ele>1556.926</ele>
        <time>2021-06-19T18:33:10Z</time>
      </trkpt>
      <trkpt lat="42.329851" lon="1.200374">
        <ele>1557.208</ele>
        <time>2021-06-19T18:33:12Z</time>
      </trkpt>
      <trkpt lat="42.329802" lon="1.200312">
        <ele>1557.745</ele>
        <time>2021-06-19T18:33:16Z</time>
      </trkpt>
      <trkpt lat="42.329763" lon="1.200219">
        <ele>1557.954</ele>
        <time>2021-06-19T18:33:20Z</time>
      </trkpt>
      <trkpt lat="42.329723" lon="1.200085">
        <ele>1557.940</ele>
        <time>2021-06-19T18:33:26Z</time>
      </trkpt>
      <trkpt lat="42.329719" lon="1.200063">
        <ele>1557.984</ele>
        <time>2021-06-19T18:33:27Z</time>
      </trkpt>
      <trkpt lat="42.329712" lon="1.200022">
        <ele>1557.878</ele>
        <time>2021-06-19T18:33:29Z</time>
      </trkpt>
      <trkpt lat="42.329704" lon="1.199957">
        <ele>1558.628</ele>
        <time>2021-06-19T18:33:32Z</time>
      </trkpt>
      <trkpt lat="42.329709" lon="1.199842">
        <ele>1559.921</ele>
        <time>2021-06-19T18:33:37Z</time>
      </trkpt>
      <trkpt lat="42.329717" lon="1.199799">
        <ele>1560.178</ele>
        <time>2021-06-19T18:33:39Z</time>
      </trkpt>
      <trkpt lat="42.329764" lon="1.199667">
        <ele>1560.244</ele>
        <time>2021-06-19T18:33:46Z</time>
      </trkpt>
      <trkpt lat="42.329757" lon="1.199441">
        <ele>1562.705</ele>
        <time>2021-06-19T18:33:56Z</time>
      </trkpt>
      <trkpt lat="42.329702" lon="1.199271">
        <ele>1563.215</ele>
        <time>2021-06-19T18:34:04Z</time>
      </trkpt>
      <trkpt lat="42.329601" lon="1.199165">
        <ele>1564.608</ele>
        <time>2021-06-19T18:34:12Z</time>
      </trkpt>
      <trkpt lat="42.329489" lon="1.199140">
        <ele>1566.451</ele>
        <time>2021-06-19T18:34:19Z</time>
      </trkpt>
      <trkpt lat="42.329334" lon="1.199143">
        <ele>1568.830</ele>
        <time>2021-06-19T18:34:28Z</time>
      </trkpt>
      <trkpt lat="42.329255" lon="1.199139">
        <ele>1569.786</ele>
        <time>2021-06-19T18:34:33Z</time>
      </trkpt>
      <trkpt lat="42.329220" lon="1.199104">
        <ele>1569.620</ele>
        <time>2021-06-19T18:34:35Z</time>
      </trkpt>
      <trkpt lat="42.329208" lon="1.199084">
        <ele>1569.544</ele>
        <time>2021-06-19T18:34:36Z</time>
      </trkpt>
      <trkpt lat="42.329189" lon="1.199044">
        <ele>1569.354</ele>
        <time>2021-06-19T18:34:38Z</time>
      </trkpt>
      <trkpt lat="42.329162" lon="1.198988">
        <ele>1569.297</ele>
        <time>2021-06-19T18:34:41Z</time>
      </trkpt>
      <trkpt lat="42.329072" lon="1.198849">
        <ele>1570.264</ele>
        <time>2021-06-19T18:34:49Z</time>
      </trkpt>
      <trkpt lat="42.329034" lon="1.198805">
        <ele>1570.887</ele>
        <time>2021-06-19T18:34:52Z</time>
      </trkpt>
      <trkpt lat="42.328970" lon="1.198738">
        <ele>1571.742</ele>
        <time>2021-06-19T18:34:57Z</time>
      </trkpt>
      <trkpt lat="42.328877" lon="1.198652">
        <ele>1572.926</ele>
        <time>2021-06-19T18:35:04Z</time>
      </trkpt>
      <trkpt lat="42.328800" lon="1.198581">
        <ele>1573.608</ele>
        <time>2021-06-19T18:35:10Z</time>
      </trkpt>
      <trkpt lat="42.328716" lon="1.198533">
        <ele>1574.715</ele>
        <time>2021-06-19T18:35:16Z</time>
      </trkpt>
      <trkpt lat="42.328618" lon="1.198475">
        <ele>1575.984</ele>
        <time>2021-06-19T18:35:23Z</time>
      </trkpt>
      <trkpt lat="42.328545" lon="1.198423">
        <ele>1577.130</ele>
        <time>2021-06-19T18:35:28Z</time>
      </trkpt>
      <trkpt lat="42.328469" lon="1.198369">
        <ele>1578.444</ele>
        <time>2021-06-19T18:35:34Z</time>
      </trkpt>
      <trkpt lat="42.328468" lon="1.198370">
        <ele>1578.438</ele>
        <time>2021-06-19T18:35:35Z</time>
      </trkpt>
      <trkpt lat="42.328440" lon="1.198326">
        <ele>1578.388</ele>
        <time>2021-06-19T18:37:41Z</time>
      </trkpt>
      <trkpt lat="42.328421" lon="1.198309">
        <ele>1578.581</ele>
        <time>2021-06-19T18:37:43Z</time>
      </trkpt>
      <trkpt lat="42.328361" lon="1.198243">
        <ele>1578.838</ele>
        <time>2021-06-19T18:37:49Z</time>
      </trkpt>
      <trkpt lat="42.328283" lon="1.198134">
        <ele>1579.061</ele>
        <time>2021-06-19T18:37:57Z</time>
      </trkpt>
      <trkpt lat="42.328200" lon="1.198064">
        <ele>1580.921</ele>
        <time>2021-06-19T18:38:03Z</time>
      </trkpt>
      <trkpt lat="42.328121" lon="1.197950">
        <ele>1582.113</ele>
        <time>2021-06-19T18:38:11Z</time>
      </trkpt>
      <trkpt lat="42.328092" lon="1.197913">
        <ele>1582.708</ele>
        <time>2021-06-19T18:38:14Z</time>
      </trkpt>
      <trkpt lat="42.328049" lon="1.197879">
        <ele>1584.033</ele>
        <time>2021-06-19T18:38:18Z</time>
      </trkpt>
      <trkpt lat="42.328033" lon="1.197855">
        <ele>1584.152</ele>
        <time>2021-06-19T18:38:20Z</time>
      </trkpt>
      <trkpt lat="42.327981" lon="1.197805">
        <ele>1584.938</ele>
        <time>2021-06-19T18:38:25Z</time>
      </trkpt>
      <trkpt lat="42.327969" lon="1.197796">
        <ele>1585.112</ele>
        <time>2021-06-19T18:38:26Z</time>
      </trkpt>
      <trkpt lat="42.327919" lon="1.197765">
        <ele>1586.156</ele>
        <time>2021-06-19T18:38:30Z</time>
      </trkpt>
      <trkpt lat="42.327864" lon="1.197720">
        <ele>1586.836</ele>
        <time>2021-06-19T18:38:35Z</time>
      </trkpt>
      <trkpt lat="42.327801" lon="1.197642">
        <ele>1587.269</ele>
        <time>2021-06-19T18:38:42Z</time>
      </trkpt>
      <trkpt lat="42.327724" lon="1.197585">
        <ele>1588.366</ele>
        <time>2021-06-19T18:38:49Z</time>
      </trkpt>
      <trkpt lat="42.327643" lon="1.197540">
        <ele>1590.047</ele>
        <time>2021-06-19T18:38:56Z</time>
      </trkpt>
      <trkpt lat="42.327595" lon="1.197519">
        <ele>1591.229</ele>
        <time>2021-06-19T18:39:00Z</time>
      </trkpt>
      <trkpt lat="42.327559" lon="1.197517">
        <ele>1592.321</ele>
        <time>2021-06-19T18:39:03Z</time>
      </trkpt>
      <trkpt lat="42.327478" lon="1.197519">
        <ele>1594.408</ele>
        <time>2021-06-19T18:39:10Z</time>
      </trkpt>
      <trkpt lat="42.327440" lon="1.197529">
        <ele>1594.931</ele>
        <time>2021-06-19T18:39:13Z</time>
      </trkpt>
      <trkpt lat="42.327350" lon="1.197537">
        <ele>1596.020</ele>
        <time>2021-06-19T18:39:19Z</time>
      </trkpt>
      <trkpt lat="42.327234" lon="1.197535">
        <ele>1597.496</ele>
        <time>2021-06-19T18:39:26Z</time>
      </trkpt>
      <trkpt lat="42.327223" lon="1.197538">
        <ele>1597.570</ele>
        <time>2021-06-19T18:39:27Z</time>
      </trkpt>
      <trkpt lat="42.327204" lon="1.197534">
        <ele>1597.984</ele>
        <time>2021-06-19T18:39:29Z</time>
      </trkpt>
      <trkpt lat="42.327172" lon="1.197526">
        <ele>1598.554</ele>
        <time>2021-06-19T18:39:32Z</time>
      </trkpt>
      <trkpt lat="42.327123" lon="1.197513">
        <ele>1599.427</ele>
        <time>2021-06-19T18:39:36Z</time>
      </trkpt>
      <trkpt lat="42.327086" lon="1.197496">
        <ele>1599.984</ele>
        <time>2021-06-19T18:39:39Z</time>
      </trkpt>
      <trkpt lat="42.327014" lon="1.197411">
        <ele>1599.478</ele>
        <time>2021-06-19T18:39:45Z</time>
      </trkpt>
      <trkpt lat="42.326983" lon="1.197395">
        <ele>1599.633</ele>
        <time>2021-06-19T18:39:47Z</time>
      </trkpt>
      <trkpt lat="42.326893" lon="1.197323">
        <ele>1600.726</ele>
        <time>2021-06-19T18:39:54Z</time>
      </trkpt>
      <trkpt lat="42.326866" lon="1.197306">
        <ele>1601.408</ele>
        <time>2021-06-19T18:39:56Z</time>
      </trkpt>
      <trkpt lat="42.326798" lon="1.197270">
        <ele>1603.234</ele>
        <time>2021-06-19T18:40:01Z</time>
      </trkpt>
      <trkpt lat="42.326765" lon="1.197252">
        <ele>1604.013</ele>
        <time>2021-06-19T18:40:04Z</time>
      </trkpt>
      <trkpt lat="42.326745" lon="1.197248">
        <ele>1604.789</ele>
        <time>2021-06-19T18:40:06Z</time>
      </trkpt>
      <trkpt lat="42.326730" lon="1.197244">
        <ele>1605.263</ele>
        <time>2021-06-19T18:40:07Z</time>
      </trkpt>
      <trkpt lat="42.326718" lon="1.197237">
        <ele>1605.457</ele>
        <time>2021-06-19T18:40:08Z</time>
      </trkpt>
      <trkpt lat="42.326653" lon="1.197178">
        <ele>1606.147</ele>
        <time>2021-06-19T18:40:13Z</time>
      </trkpt>
      <trkpt lat="42.326633" lon="1.197152">
        <ele>1606.070</ele>
        <time>2021-06-19T18:40:15Z</time>
      </trkpt>
      <trkpt lat="42.326619" lon="1.197139">
        <ele>1606.027</ele>
        <time>2021-06-19T18:40:18Z</time>
      </trkpt>
      <trkpt lat="42.326578" lon="1.197129">
        <ele>1607.271</ele>
        <time>2021-06-19T18:40:54Z</time>
      </trkpt>
      <trkpt lat="42.326449" lon="1.197023">
        <ele>1607.541</ele>
        <time>2021-06-19T18:41:01Z</time>
      </trkpt>
      <trkpt lat="42.326387" lon="1.196918">
        <ele>1606.315</ele>
        <time>2021-06-19T18:41:05Z</time>
      </trkpt>
      <trkpt lat="42.326382" lon="1.196847">
        <ele>1606.908</ele>
        <time>2021-06-19T18:41:07Z</time>
      </trkpt>
      <trkpt lat="42.326412" lon="1.196770">
        <ele>1606.844</ele>
        <time>2021-06-19T18:41:10Z</time>
      </trkpt>
      <trkpt lat="42.326422" lon="1.196755">
        <ele>1606.783</ele>
        <time>2021-06-19T18:41:11Z</time>
      </trkpt>
      <trkpt lat="42.326490" lon="1.196700">
        <ele>1606.179</ele>
        <time>2021-06-19T18:41:17Z</time>
      </trkpt>
      <trkpt lat="42.326558" lon="1.196623">
        <ele>1606.923</ele>
        <time>2021-06-19T18:41:23Z</time>
      </trkpt>
      <trkpt lat="42.326569" lon="1.196608">
        <ele>1607.217</ele>
        <time>2021-06-19T18:41:24Z</time>
      </trkpt>
      <trkpt lat="42.326623" lon="1.196545">
        <ele>1608.497</ele>
        <time>2021-06-19T18:41:29Z</time>
      </trkpt>
      <trkpt lat="42.326647" lon="1.196522">
        <ele>1608.910</ele>
        <time>2021-06-19T18:41:31Z</time>
      </trkpt>
      <trkpt lat="42.326695" lon="1.196490">
        <ele>1609.647</ele>
        <time>2021-06-19T18:41:35Z</time>
      </trkpt>
      <trkpt lat="42.326704" lon="1.196478">
        <ele>1610.026</ele>
        <time>2021-06-19T18:41:36Z</time>
      </trkpt>
      <trkpt lat="42.326728" lon="1.196452">
        <ele>1610.847</ele>
        <time>2021-06-19T18:41:39Z</time>
      </trkpt>
      <trkpt lat="42.326736" lon="1.196444">
        <ele>1611.111</ele>
        <time>2021-06-19T18:41:40Z</time>
      </trkpt>
      <trkpt lat="42.326751" lon="1.196436">
        <ele>1611.308</ele>
        <time>2021-06-19T18:41:42Z</time>
      </trkpt>
      <trkpt lat="42.326824" lon="1.196435">
        <ele>1611.269</ele>
        <time>2021-06-19T18:41:48Z</time>
      </trkpt>
      <trkpt lat="42.326878" lon="1.196424">
        <ele>1611.668</ele>
        <time>2021-06-19T18:41:52Z</time>
      </trkpt>
      <trkpt lat="42.326910" lon="1.196410">
        <ele>1612.144</ele>
        <time>2021-06-19T18:41:55Z</time>
      </trkpt>
      <trkpt lat="42.326972" lon="1.196384">
        <ele>1613.098</ele>
        <time>2021-06-19T18:42:00Z</time>
      </trkpt>
      <trkpt lat="42.326985" lon="1.196378">
        <ele>1613.232</ele>
        <time>2021-06-19T18:42:01Z</time>
      </trkpt>
      <trkpt lat="42.327081" lon="1.196353">
        <ele>1613.882</ele>
        <time>2021-06-19T18:42:08Z</time>
      </trkpt>
      <trkpt lat="42.327132" lon="1.196326">
        <ele>1614.775</ele>
        <time>2021-06-19T18:42:12Z</time>
      </trkpt>
      <trkpt lat="42.327187" lon="1.196288">
        <ele>1616.352</ele>
        <time>2021-06-19T18:42:16Z</time>
      </trkpt>
      <trkpt lat="42.327252" lon="1.196252">
        <ele>1617.875</ele>
        <time>2021-06-19T18:42:21Z</time>
      </trkpt>
      <trkpt lat="42.327265" lon="1.196247">
        <ele>1618.028</ele>
        <time>2021-06-19T18:42:22Z</time>
      </trkpt>
      <trkpt lat="42.327350" lon="1.196215">
        <ele>1619.320</ele>
        <time>2021-06-19T18:42:29Z</time>
      </trkpt>
      <trkpt lat="42.327410" lon="1.196204">
        <ele>1619.608</ele>
        <time>2021-06-19T18:42:34Z</time>
      </trkpt>
      <trkpt lat="42.327456" lon="1.196184">
        <ele>1620.514</ele>
        <time>2021-06-19T18:42:38Z</time>
      </trkpt>
      <trkpt lat="42.327483" lon="1.196182">
        <ele>1620.563</ele>
        <time>2021-06-19T18:42:40Z</time>
      </trkpt>
      <trkpt lat="42.327506" lon="1.196176">
        <ele>1620.729</ele>
        <time>2021-06-19T18:42:43Z</time>
      </trkpt>
      <trkpt lat="42.327570" lon="1.196143">
        <ele>1621.723</ele>
        <time>2021-06-19T18:42:48Z</time>
      </trkpt>
      <trkpt lat="42.327645" lon="1.196083">
        <ele>1623.077</ele>
        <time>2021-06-19T18:42:54Z</time>
      </trkpt>
      <trkpt lat="42.327697" lon="1.196049">
        <ele>1623.247</ele>
        <time>2021-06-19T18:42:58Z</time>
      </trkpt>
      <trkpt lat="42.327740" lon="1.196010">
        <ele>1623.690</ele>
        <time>2021-06-19T18:43:01Z</time>
      </trkpt>
      <trkpt lat="42.327832" lon="1.195957">
        <ele>1623.817</ele>
        <time>2021-06-19T18:43:07Z</time>
      </trkpt>
      <trkpt lat="42.327841" lon="1.195950">
        <ele>1623.875</ele>
        <time>2021-06-19T18:43:08Z</time>
      </trkpt>
      <trkpt lat="42.327913" lon="1.195895">
        <ele>1624.528</ele>
        <time>2021-06-19T18:43:13Z</time>
      </trkpt>
      <trkpt lat="42.327935" lon="1.195882">
        <ele>1624.620</ele>
        <time>2021-06-19T18:43:15Z</time>
      </trkpt>
      <trkpt lat="42.328000" lon="1.195831">
        <ele>1625.408</ele>
        <time>2021-06-19T18:43:19Z</time>
      </trkpt>
      <trkpt lat="42.328071" lon="1.195777">
        <ele>1625.884</ele>
        <time>2021-06-19T18:43:23Z</time>
      </trkpt>
      <trkpt lat="42.328124" lon="1.195725">
        <ele>1626.053</ele>
        <time>2021-06-19T18:43:26Z</time>
      </trkpt>
      <trkpt lat="42.328197" lon="1.195623">
        <ele>1626.739</ele>
        <time>2021-06-19T18:43:31Z</time>
      </trkpt>
      <trkpt lat="42.328265" lon="1.195542">
        <ele>1627.153</ele>
        <time>2021-06-19T18:43:34Z</time>
      </trkpt>
      <trkpt lat="42.328306" lon="1.195481">
        <ele>1627.257</ele>
        <time>2021-06-19T18:43:36Z</time>
      </trkpt>
      <trkpt lat="42.328388" lon="1.195278">
        <ele>1627.417</ele>
        <time>2021-06-19T18:43:42Z</time>
      </trkpt>
      <trkpt lat="42.328457" lon="1.195079">
        <ele>1627.350</ele>
        <time>2021-06-19T18:43:48Z</time>
      </trkpt>
      <trkpt lat="42.328464" lon="1.195059">
        <ele>1627.267</ele>
        <time>2021-06-19T18:43:49Z</time>
      </trkpt>
      <trkpt lat="42.328493" lon="1.194980">
        <ele>1627.129</ele>
        <time>2021-06-19T18:43:52Z</time>
      </trkpt>
      <trkpt lat="42.328529" lon="1.194841">
        <ele>1627.500</ele>
        <time>2021-06-19T18:43:57Z</time>
      </trkpt>
      <trkpt lat="42.328553" lon="1.194738">
        <ele>1627.920</ele>
        <time>2021-06-19T18:44:01Z</time>
      </trkpt>
      <trkpt lat="42.328563" lon="1.194679">
        <ele>1628.308</ele>
        <time>2021-06-19T18:44:03Z</time>
      </trkpt>
      <trkpt lat="42.328610" lon="1.194525">
        <ele>1628.919</ele>
        <time>2021-06-19T18:44:09Z</time>
      </trkpt>
      <trkpt lat="42.328644" lon="1.194419">
        <ele>1629.118</ele>
        <time>2021-06-19T18:44:13Z</time>
      </trkpt>
      <trkpt lat="42.328654" lon="1.194368">
        <ele>1629.324</ele>
        <time>2021-06-19T18:44:15Z</time>
      </trkpt>
      <trkpt lat="42.328724" lon="1.194192">
        <ele>1629.068</ele>
        <time>2021-06-19T18:44:22Z</time>
      </trkpt>
      <trkpt lat="42.328760" lon="1.194050">
        <ele>1629.432</ele>
        <time>2021-06-19T18:44:27Z</time>
      </trkpt>
      <trkpt lat="42.328767" lon="1.193994">
        <ele>1629.832</ele>
        <time>2021-06-19T18:44:29Z</time>
      </trkpt>
      <trkpt lat="42.328818" lon="1.193868">
        <ele>1629.675</ele>
        <time>2021-06-19T18:44:34Z</time>
      </trkpt>
      <trkpt lat="42.328878" lon="1.193653">
        <ele>1630.712</ele>
        <time>2021-06-19T18:44:41Z</time>
      </trkpt>
      <trkpt lat="42.328940" lon="1.193476">
        <ele>1630.872</ele>
        <time>2021-06-19T18:44:47Z</time>
      </trkpt>
      <trkpt lat="42.328995" lon="1.193263">
        <ele>1631.113</ele>
        <time>2021-06-19T18:44:54Z</time>
      </trkpt>
      <trkpt lat="42.329016" lon="1.193097">
        <ele>1631.614</ele>
        <time>2021-06-19T18:44:58Z</time>
      </trkpt>
      <trkpt lat="42.329039" lon="1.193012">
        <ele>1631.408</ele>
        <time>2021-06-19T18:45:00Z</time>
      </trkpt>
      <trkpt lat="42.329108" lon="1.192760">
        <ele>1631.354</ele>
        <time>2021-06-19T18:45:05Z</time>
      </trkpt>
      <trkpt lat="42.329191" lon="1.192460">
        <ele>1630.973</ele>
        <time>2021-06-19T18:45:11Z</time>
      </trkpt>
      <trkpt lat="42.329218" lon="1.192289">
        <ele>1632.099</ele>
        <time>2021-06-19T18:45:16Z</time>
      </trkpt>
      <trkpt lat="42.329223" lon="1.192259">
        <ele>1632.213</ele>
        <time>2021-06-19T18:45:17Z</time>
      </trkpt>
      <trkpt lat="42.329242" lon="1.192128">
        <ele>1632.577</ele>
        <time>2021-06-19T18:45:21Z</time>
      </trkpt>
      <trkpt lat="42.329272" lon="1.191907">
        <ele>1632.987</ele>
        <time>2021-06-19T18:45:28Z</time>
      </trkpt>
      <trkpt lat="42.329267" lon="1.191802">
        <ele>1633.330</ele>
        <time>2021-06-19T18:45:31Z</time>
      </trkpt>
      <trkpt lat="42.329268" lon="1.191661">
        <ele>1633.847</ele>
        <time>2021-06-19T18:45:35Z</time>
      </trkpt>
      <trkpt lat="42.329267" lon="1.191395">
        <ele>1634.545</ele>
        <time>2021-06-19T18:45:43Z</time>
      </trkpt>
      <trkpt lat="42.329277" lon="1.191226">
        <ele>1634.847</ele>
        <time>2021-06-19T18:45:48Z</time>
      </trkpt>
      <trkpt lat="42.329278" lon="1.191115">
        <ele>1635.211</ele>
        <time>2021-06-19T18:45:51Z</time>
      </trkpt>
      <trkpt lat="42.329277" lon="1.191053">
        <ele>1635.408</ele>
        <time>2021-06-19T18:45:53Z</time>
      </trkpt>
      <trkpt lat="42.329269" lon="1.191026">
        <ele>1635.721</ele>
        <time>2021-06-19T18:45:54Z</time>
      </trkpt>
      <trkpt lat="42.329267" lon="1.190924">
        <ele>1636.160</ele>
        <time>2021-06-19T18:45:57Z</time>
      </trkpt>
      <trkpt lat="42.329270" lon="1.190745">
        <ele>1636.486</ele>
        <time>2021-06-19T18:46:02Z</time>
      </trkpt>
      <trkpt lat="42.329229" lon="1.190505">
        <ele>1637.280</ele>
        <time>2021-06-19T18:46:08Z</time>
      </trkpt>
      <trkpt lat="42.329179" lon="1.190221">
        <ele>1637.524</ele>
        <time>2021-06-19T18:46:14Z</time>
      </trkpt>
      <trkpt lat="42.329149" lon="1.190031">
        <ele>1637.664</ele>
        <time>2021-06-19T18:46:19Z</time>
      </trkpt>
      <trkpt lat="42.329125" lon="1.189840">
        <ele>1637.517</ele>
        <time>2021-06-19T18:46:25Z</time>
      </trkpt>
      <trkpt lat="42.329078" lon="1.189606">
        <ele>1637.514</ele>
        <time>2021-06-19T18:46:32Z</time>
      </trkpt>
      <trkpt lat="42.329012" lon="1.189444">
        <ele>1638.593</ele>
        <time>2021-06-19T18:46:38Z</time>
      </trkpt>
      <trkpt lat="42.328964" lon="1.189320">
        <ele>1639.165</ele>
        <time>2021-06-19T18:46:44Z</time>
      </trkpt>
      <trkpt lat="42.328916" lon="1.189238">
        <ele>1639.821</ele>
        <time>2021-06-19T18:46:50Z</time>
      </trkpt>
      <trkpt lat="42.328872" lon="1.189137">
        <ele>1640.408</ele>
        <time>2021-06-19T18:46:55Z</time>
      </trkpt>
      <trkpt lat="42.328868" lon="1.189119">
        <ele>1640.516</ele>
        <time>2021-06-19T18:46:56Z</time>
      </trkpt>
      <trkpt lat="42.328812" lon="1.189007">
        <ele>1641.895</ele>
        <time>2021-06-19T18:47:03Z</time>
      </trkpt>
      <trkpt lat="42.328776" lon="1.188937">
        <ele>1642.551</ele>
        <time>2021-06-19T18:47:07Z</time>
      </trkpt>
      <trkpt lat="42.328769" lon="1.188922">
        <ele>1642.625</ele>
        <time>2021-06-19T18:47:08Z</time>
      </trkpt>
      <trkpt lat="42.328732" lon="1.188812">
        <ele>1643.139</ele>
        <time>2021-06-19T18:47:14Z</time>
      </trkpt>
      <trkpt lat="42.328689" lon="1.188702">
        <ele>1643.999</ele>
        <time>2021-06-19T18:47:20Z</time>
      </trkpt>
      <trkpt lat="42.328679" lon="1.188682">
        <ele>1644.192</ele>
        <time>2021-06-19T18:47:21Z</time>
      </trkpt>
      <trkpt lat="42.328642" lon="1.188597">
        <ele>1644.999</ele>
        <time>2021-06-19T18:47:26Z</time>
      </trkpt>
      <trkpt lat="42.328575" lon="1.188502">
        <ele>1646.188</ele>
        <time>2021-06-19T18:47:33Z</time>
      </trkpt>
      <trkpt lat="42.328533" lon="1.188449">
        <ele>1646.824</ele>
        <time>2021-06-19T18:47:37Z</time>
      </trkpt>
      <trkpt lat="42.328509" lon="1.188418">
        <ele>1647.226</ele>
        <time>2021-06-19T18:47:39Z</time>
      </trkpt>
      <trkpt lat="42.328501" lon="1.188401">
        <ele>1647.308</ele>
        <time>2021-06-19T18:47:40Z</time>
      </trkpt>
      <trkpt lat="42.328456" lon="1.188347">
        <ele>1648.045</ele>
        <time>2021-06-19T18:47:44Z</time>
      </trkpt>
      <trkpt lat="42.328403" lon="1.188240">
        <ele>1648.514</ele>
        <time>2021-06-19T18:47:51Z</time>
      </trkpt>
      <trkpt lat="42.328372" lon="1.188145">
        <ele>1648.630</ele>
        <time>2021-06-19T18:47:56Z</time>
      </trkpt>
      <trkpt lat="42.328363" lon="1.188129">
        <ele>1648.764</ele>
        <time>2021-06-19T18:47:57Z</time>
      </trkpt>
      <trkpt lat="42.328308" lon="1.188026">
        <ele>1649.468</ele>
        <time>2021-06-19T18:48:03Z</time>
      </trkpt>
      <trkpt lat="42.328259" lon="1.187956">
        <ele>1650.198</ele>
        <time>2021-06-19T18:48:07Z</time>
      </trkpt>
      <trkpt lat="42.328243" lon="1.187928">
        <ele>1650.291</ele>
        <time>2021-06-19T18:48:09Z</time>
      </trkpt>
      <trkpt lat="42.328211" lon="1.187873">
        <ele>1650.628</ele>
        <time>2021-06-19T18:48:13Z</time>
      </trkpt>
      <trkpt lat="42.328201" lon="1.187860">
        <ele>1650.773</ele>
        <time>2021-06-19T18:48:14Z</time>
      </trkpt>
      <trkpt lat="42.328139" lon="1.187785">
        <ele>1651.785</ele>
        <time>2021-06-19T18:48:20Z</time>
      </trkpt>
      <trkpt lat="42.328045" lon="1.187704">
        <ele>1653.213</ele>
        <time>2021-06-19T18:48:27Z</time>
      </trkpt>
      <trkpt lat="42.328032" lon="1.187694">
        <ele>1653.408</ele>
        <time>2021-06-19T18:48:28Z</time>
      </trkpt>
      <trkpt lat="42.327989" lon="1.187659">
        <ele>1654.194</ele>
        <time>2021-06-19T18:48:32Z</time>
      </trkpt>
      <trkpt lat="42.327903" lon="1.187606">
        <ele>1655.643</ele>
        <time>2021-06-19T18:48:38Z</time>
      </trkpt>
      <trkpt lat="42.327872" lon="1.187589">
        <ele>1656.149</ele>
        <time>2021-06-19T18:48:40Z</time>
      </trkpt>
      <trkpt lat="42.327806" lon="1.187582">
        <ele>1657.793</ele>
        <time>2021-06-19T18:48:44Z</time>
      </trkpt>
      <trkpt lat="42.327729" lon="1.187583">
        <ele>1658.927</ele>
        <time>2021-06-19T18:48:50Z</time>
      </trkpt>
      <trkpt lat="42.327702" lon="1.187589">
        <ele>1659.257</ele>
        <time>2021-06-19T18:48:52Z</time>
      </trkpt>
      <trkpt lat="42.327653" lon="1.187604">
        <ele>1659.920</ele>
        <time>2021-06-19T18:48:56Z</time>
      </trkpt>
      <trkpt lat="42.327640" lon="1.187604">
        <ele>1660.057</ele>
        <time>2021-06-19T18:48:57Z</time>
      </trkpt>
      <trkpt lat="42.327548" lon="1.187609">
        <ele>1660.992</ele>
        <time>2021-06-19T18:49:04Z</time>
      </trkpt>
      <trkpt lat="42.327429" lon="1.187604">
        <ele>1662.273</ele>
        <time>2021-06-19T18:49:11Z</time>
      </trkpt>
      <trkpt lat="42.327318" lon="1.187578">
        <ele>1663.120</ele>
        <time>2021-06-19T18:49:18Z</time>
      </trkpt>
      <trkpt lat="42.327239" lon="1.187552">
        <ele>1663.708</ele>
        <time>2021-06-19T18:49:23Z</time>
      </trkpt>
      <trkpt lat="42.327196" lon="1.187526">
        <ele>1664.136</ele>
        <time>2021-06-19T18:49:26Z</time>
      </trkpt>
      <trkpt lat="42.327111" lon="1.187424">
        <ele>1664.425</ele>
        <time>2021-06-19T18:49:34Z</time>
      </trkpt>
      <trkpt lat="42.327103" lon="1.187416">
        <ele>1664.571</ele>
        <time>2021-06-19T18:49:35Z</time>
      </trkpt>
      <trkpt lat="42.327061" lon="1.187377">
        <ele>1664.835</ele>
        <time>2021-06-19T18:49:39Z</time>
      </trkpt>
      <trkpt lat="42.327047" lon="1.187368">
        <ele>1665.069</ele>
        <time>2021-06-19T18:49:40Z</time>
      </trkpt>
      <trkpt lat="42.326979" lon="1.187313">
        <ele>1665.879</ele>
        <time>2021-06-19T18:49:46Z</time>
      </trkpt>
      <trkpt lat="42.326938" lon="1.187287">
        <ele>1666.352</ele>
        <time>2021-06-19T18:49:49Z</time>
      </trkpt>
      <trkpt lat="42.326887" lon="1.187246">
        <ele>1666.929</ele>
        <time>2021-06-19T18:49:53Z</time>
      </trkpt>
      <trkpt lat="42.326759" lon="1.187193">
        <ele>1669.185</ele>
        <time>2021-06-19T18:50:01Z</time>
      </trkpt>
      <trkpt lat="42.326704" lon="1.187212">
        <ele>1670.989</ele>
        <time>2021-06-19T18:50:05Z</time>
      </trkpt>
      <trkpt lat="42.326674" lon="1.187250">
        <ele>1672.317</ele>
        <time>2021-06-19T18:50:08Z</time>
      </trkpt>
      <trkpt lat="42.326664" lon="1.187306">
        <ele>1673.608</ele>
        <time>2021-06-19T18:50:11Z</time>
      </trkpt>
      <trkpt lat="42.326679" lon="1.187384">
        <ele>1674.635</ele>
        <time>2021-06-19T18:50:15Z</time>
      </trkpt>
      <trkpt lat="42.326709" lon="1.187423">
        <ele>1674.564</ele>
        <time>2021-06-19T18:50:18Z</time>
      </trkpt>
      <trkpt lat="42.326750" lon="1.187455">
        <ele>1674.120</ele>
        <time>2021-06-19T18:50:21Z</time>
      </trkpt>
      <trkpt lat="42.326816" lon="1.187573">
        <ele>1674.464</ele>
        <time>2021-06-19T18:50:28Z</time>
      </trkpt>
      <trkpt lat="42.326864" lon="1.187679">
        <ele>1675.138</ele>
        <time>2021-06-19T18:50:34Z</time>
      </trkpt>
      <trkpt lat="42.326884" lon="1.187730">
        <ele>1675.568</ele>
        <time>2021-06-19T18:50:37Z</time>
      </trkpt>
      <trkpt lat="42.326902" lon="1.187771">
        <ele>1675.841</ele>
        <time>2021-06-19T18:50:40Z</time>
      </trkpt>
      <trkpt lat="42.326964" lon="1.187877">
        <ele>1676.078</ele>
        <time>2021-06-19T18:50:47Z</time>
      </trkpt>
      <trkpt lat="42.327008" lon="1.187968">
        <ele>1676.575</ele>
        <time>2021-06-19T18:50:52Z</time>
      </trkpt>
      <trkpt lat="42.327026" lon="1.188004">
        <ele>1676.728</ele>
        <time>2021-06-19T18:50:54Z</time>
      </trkpt>
      <trkpt lat="42.327078" lon="1.188161">
        <ele>1678.520</ele>
        <time>2021-06-19T18:51:02Z</time>
      </trkpt>
      <trkpt lat="42.327083" lon="1.188180">
        <ele>1678.708</ele>
        <time>2021-06-19T18:51:03Z</time>
      </trkpt>
      <trkpt lat="42.327094" lon="1.188197">
        <ele>1678.924</ele>
        <time>2021-06-19T18:51:04Z</time>
      </trkpt>
      <trkpt lat="42.327125" lon="1.188245">
        <ele>1679.243</ele>
        <time>2021-06-19T18:51:07Z</time>
      </trkpt>
      <trkpt lat="42.327168" lon="1.188320">
        <ele>1679.759</ele>
        <time>2021-06-19T18:51:12Z</time>
      </trkpt>
      <trkpt lat="42.327211" lon="1.188392">
        <ele>1680.383</ele>
        <time>2021-06-19T18:51:17Z</time>
      </trkpt>
      <trkpt lat="42.327220" lon="1.188407">
        <ele>1680.477</ele>
        <time>2021-06-19T18:51:18Z</time>
      </trkpt>
      <trkpt lat="42.327264" lon="1.188496">
        <ele>1681.157</ele>
        <time>2021-06-19T18:51:23Z</time>
      </trkpt>
      <trkpt lat="42.327296" lon="1.188625">
        <ele>1682.530</ele>
        <time>2021-06-19T18:51:30Z</time>
      </trkpt>
      <trkpt lat="42.327302" lon="1.188643">
        <ele>1682.677</ele>
        <time>2021-06-19T18:51:31Z</time>
      </trkpt>
      <trkpt lat="42.327309" lon="1.188659">
        <ele>1682.542</ele>
        <time>2021-06-19T18:51:32Z</time>
      </trkpt>
      <trkpt lat="42.327316" lon="1.188698">
        <ele>1682.722</ele>
        <time>2021-06-19T18:51:34Z</time>
      </trkpt>
      <trkpt lat="42.327333" lon="1.188808">
        <ele>1683.214</ele>
        <time>2021-06-19T18:51:40Z</time>
      </trkpt>
      <trkpt lat="42.327336" lon="1.188877">
        <ele>1683.608</ele>
        <time>2021-06-19T18:51:43Z</time>
      </trkpt>
      <trkpt lat="42.327342" lon="1.188942">
        <ele>1684.211</ele>
        <time>2021-06-19T18:51:46Z</time>
      </trkpt>
      <trkpt lat="42.327359" lon="1.189116">
        <ele>1685.530</ele>
        <time>2021-06-19T18:51:54Z</time>
      </trkpt>
      <trkpt lat="42.327358" lon="1.189137">
        <ele>1685.836</ele>
        <time>2021-06-19T18:51:55Z</time>
      </trkpt>
      <trkpt lat="42.327377" lon="1.189249">
        <ele>1686.180</ele>
        <time>2021-06-19T18:52:01Z</time>
      </trkpt>
      <trkpt lat="42.327378" lon="1.189271">
        <ele>1686.244</ele>
        <time>2021-06-19T18:52:02Z</time>
      </trkpt>
      <trkpt lat="42.327380" lon="1.189374">
        <ele>1686.924</ele>
        <time>2021-06-19T18:52:06Z</time>
      </trkpt>
      <trkpt lat="42.327381" lon="1.189397">
        <ele>1687.117</ele>
        <time>2021-06-19T18:52:07Z</time>
      </trkpt>
      <trkpt lat="42.327383" lon="1.189521">
        <ele>1687.944</ele>
        <time>2021-06-19T18:52:13Z</time>
      </trkpt>
      <trkpt lat="42.327381" lon="1.189605">
        <ele>1688.644</ele>
        <time>2021-06-19T18:52:17Z</time>
      </trkpt>
      <trkpt lat="42.327372" lon="1.189622">
        <ele>1689.005</ele>
        <time>2021-06-19T18:52:18Z</time>
      </trkpt>
      <trkpt lat="42.327364" lon="1.189645">
        <ele>1689.415</ele>
        <time>2021-06-19T18:52:19Z</time>
      </trkpt>
      <trkpt lat="42.327357" lon="1.189771">
        <ele>1690.308</ele>
        <time>2021-06-19T18:52:25Z</time>
      </trkpt>
      <trkpt lat="42.327365" lon="1.189808">
        <ele>1690.281</ele>
        <time>2021-06-19T18:52:27Z</time>
      </trkpt>
      <trkpt lat="42.327365" lon="1.189842">
        <ele>1690.370</ele>
        <time>2021-06-19T18:52:29Z</time>
      </trkpt>
      <trkpt lat="42.327362" lon="1.189873">
        <ele>1690.536</ele>
        <time>2021-06-19T18:52:31Z</time>
      </trkpt>
      <trkpt lat="42.327362" lon="1.190027">
        <ele>1691.060</ele>
        <time>2021-06-19T18:52:39Z</time>
      </trkpt>
      <trkpt lat="42.327355" lon="1.190124">
        <ele>1691.234</ele>
        <time>2021-06-19T18:52:43Z</time>
      </trkpt>
      <trkpt lat="42.327345" lon="1.190164">
        <ele>1691.584</ele>
        <time>2021-06-19T18:52:45Z</time>
      </trkpt>
      <trkpt lat="42.327306" lon="1.190309">
        <ele>1692.517</ele>
        <time>2021-06-19T18:52:52Z</time>
      </trkpt>
      <trkpt lat="42.327280" lon="1.190384">
        <ele>1693.084</ele>
        <time>2021-06-19T18:52:56Z</time>
      </trkpt>
      <trkpt lat="42.327267" lon="1.190426">
        <ele>1693.341</ele>
        <time>2021-06-19T18:52:58Z</time>
      </trkpt>
      <trkpt lat="42.327202" lon="1.190570">
        <ele>1694.381</ele>
        <time>2021-06-19T18:53:06Z</time>
      </trkpt>
      <trkpt lat="42.327192" lon="1.190585">
        <ele>1694.409</ele>
        <time>2021-06-19T18:53:07Z</time>
      </trkpt>
      <trkpt lat="42.327137" lon="1.190669">
        <ele>1694.808</ele>
        <time>2021-06-19T18:53:13Z</time>
      </trkpt>
      <trkpt lat="42.327132" lon="1.190682">
        <ele>1694.851</ele>
        <time>2021-06-19T18:53:15Z</time>
      </trkpt>
      <trkpt lat="42.327036" lon="1.190779">
        <ele>1695.780</ele>
        <time>2021-06-19T18:53:41Z</time>
      </trkpt>
      <trkpt lat="42.327004" lon="1.190795">
        <ele>1696.256</ele>
        <time>2021-06-19T18:53:43Z</time>
      </trkpt>
      <trkpt lat="42.326912" lon="1.190848">
        <ele>1697.510</ele>
        <time>2021-06-19T18:53:49Z</time>
      </trkpt>
      <trkpt lat="42.326815" lon="1.190901">
        <ele>1698.934</ele>
        <time>2021-06-19T18:53:57Z</time>
      </trkpt>
      <trkpt lat="42.326769" lon="1.190948">
        <ele>1699.474</ele>
        <time>2021-06-19T18:54:01Z</time>
      </trkpt>
      <trkpt lat="42.326731" lon="1.190993">
        <ele>1699.877</ele>
        <time>2021-06-19T18:54:04Z</time>
      </trkpt>
      <trkpt lat="42.326648" lon="1.191077">
        <ele>1700.894</ele>
        <time>2021-06-19T18:54:11Z</time>
      </trkpt>
      <trkpt lat="42.326634" lon="1.191092">
        <ele>1700.914</ele>
        <time>2021-06-19T18:54:12Z</time>
      </trkpt>
      <trkpt lat="42.326554" lon="1.191164">
        <ele>1701.654</ele>
        <time>2021-06-19T18:54:17Z</time>
      </trkpt>
      <trkpt lat="42.326516" lon="1.191202">
        <ele>1701.809</ele>
        <time>2021-06-19T18:54:20Z</time>
      </trkpt>
      <trkpt lat="42.326491" lon="1.191235">
        <ele>1701.808</ele>
        <time>2021-06-19T18:54:23Z</time>
      </trkpt>
      <trkpt lat="42.326456" lon="1.191272">
        <ele>1702.148</ele>
        <time>2021-06-19T18:54:26Z</time>
      </trkpt>
      <trkpt lat="42.326448" lon="1.191280">
        <ele>1702.217</ele>
        <time>2021-06-19T18:54:27Z</time>
      </trkpt>
      <trkpt lat="42.326429" lon="1.191295">
        <ele>1702.483</ele>
        <time>2021-06-19T18:54:29Z</time>
      </trkpt>
      <trkpt lat="42.326390" lon="1.191351">
        <ele>1702.557</ele>
        <time>2021-06-19T18:54:33Z</time>
      </trkpt>
      <trkpt lat="42.326308" lon="1.191466">
        <ele>1704.031</ele>
        <time>2021-06-19T18:54:40Z</time>
      </trkpt>
      <trkpt lat="42.326298" lon="1.191486">
        <ele>1704.251</ele>
        <time>2021-06-19T18:54:41Z</time>
      </trkpt>
      <trkpt lat="42.326249" lon="1.191574">
        <ele>1705.294</ele>
        <time>2021-06-19T18:54:46Z</time>
      </trkpt>
      <trkpt lat="42.326172" lon="1.191702">
        <ele>1706.861</ele>
        <time>2021-06-19T18:54:52Z</time>
      </trkpt>
      <trkpt lat="42.326160" lon="1.191720">
        <ele>1707.296</ele>
        <time>2021-06-19T18:54:53Z</time>
      </trkpt>
      <trkpt lat="42.326152" lon="1.191740">
        <ele>1707.431</ele>
        <time>2021-06-19T18:54:54Z</time>
      </trkpt>
      <trkpt lat="42.326101" lon="1.191849">
        <ele>1708.824</ele>
        <time>2021-06-19T18:55:00Z</time>
      </trkpt>
      <trkpt lat="42.326059" lon="1.191939">
        <ele>1709.708</ele>
        <time>2021-06-19T18:55:05Z</time>
      </trkpt>
      <trkpt lat="42.326048" lon="1.191954">
        <ele>1709.956</ele>
        <time>2021-06-19T18:55:06Z</time>
      </trkpt>
      <trkpt lat="42.326017" lon="1.192006">
        <ele>1710.365</ele>
        <time>2021-06-19T18:55:09Z</time>
      </trkpt>
      <trkpt lat="42.325995" lon="1.192035">
        <ele>1710.571</ele>
        <time>2021-06-19T18:55:11Z</time>
      </trkpt>
      <trkpt lat="42.325943" lon="1.192094">
        <ele>1711.165</ele>
        <time>2021-06-19T18:55:15Z</time>
      </trkpt>
      <trkpt lat="42.325931" lon="1.192110">
        <ele>1711.259</ele>
        <time>2021-06-19T18:55:16Z</time>
      </trkpt>
      <trkpt lat="42.325919" lon="1.192126">
        <ele>1711.389</ele>
        <time>2021-06-19T18:55:17Z</time>
      </trkpt>
      <trkpt lat="42.325905" lon="1.192138">
        <ele>1711.522</ele>
        <time>2021-06-19T18:55:18Z</time>
      </trkpt>
      <trkpt lat="42.325869" lon="1.192174">
        <ele>1711.899</ele>
        <time>2021-06-19T18:55:21Z</time>
      </trkpt>
      <trkpt lat="42.325810" lon="1.192193">
        <ele>1712.427</ele>
        <time>2021-06-19T18:55:25Z</time>
      </trkpt>
      <trkpt lat="42.325796" lon="1.192202">
        <ele>1712.568</ele>
        <time>2021-06-19T18:55:26Z</time>
      </trkpt>
      <trkpt lat="42.325708" lon="1.192240">
        <ele>1713.314</ele>
        <time>2021-06-19T18:55:32Z</time>
      </trkpt>
      <trkpt lat="42.325697" lon="1.192244">
        <ele>1713.408</ele>
        <time>2021-06-19T18:55:33Z</time>
      </trkpt>
      <trkpt lat="42.325609" lon="1.192261">
        <ele>1714.339</ele>
        <time>2021-06-19T18:55:39Z</time>
      </trkpt>
      <trkpt lat="42.325517" lon="1.192294">
        <ele>1715.278</ele>
        <time>2021-06-19T18:55:45Z</time>
      </trkpt>
      <trkpt lat="42.325430" lon="1.192339">
        <ele>1716.074</ele>
        <time>2021-06-19T18:55:51Z</time>
      </trkpt>
      <trkpt lat="42.325418" lon="1.192339">
        <ele>1716.148</ele>
        <time>2021-06-19T18:55:52Z</time>
      </trkpt>
      <trkpt lat="42.325342" lon="1.192371">
        <ele>1716.712</ele>
        <time>2021-06-19T18:55:57Z</time>
      </trkpt>
      <trkpt lat="42.325273" lon="1.192388">
        <ele>1717.362</ele>
        <time>2021-06-19T18:56:01Z</time>
      </trkpt>
      <trkpt lat="42.325197" lon="1.192402">
        <ele>1718.195</ele>
        <time>2021-06-19T18:56:04Z</time>
      </trkpt>
      <trkpt lat="42.325164" lon="1.192377">
        <ele>1718.882</ele>
        <time>2021-06-19T18:56:06Z</time>
      </trkpt>
      <trkpt lat="42.325145" lon="1.192325">
        <ele>1719.545</ele>
        <time>2021-06-19T18:56:09Z</time>
      </trkpt>
      <trkpt lat="42.325158" lon="1.192269">
        <ele>1719.947</ele>
        <time>2021-06-19T18:56:12Z</time>
      </trkpt>
      <trkpt lat="42.325165" lon="1.192252">
        <ele>1719.911</ele>
        <time>2021-06-19T18:56:13Z</time>
      </trkpt>
      <trkpt lat="42.325189" lon="1.192196">
        <ele>1720.108</ele>
        <time>2021-06-19T18:56:16Z</time>
      </trkpt>
      <trkpt lat="42.325210" lon="1.192012">
        <ele>1720.971</ele>
        <time>2021-06-19T18:56:24Z</time>
      </trkpt>
      <trkpt lat="42.325237" lon="1.191787">
        <ele>1721.980</ele>
        <time>2021-06-19T18:56:34Z</time>
      </trkpt>
      <trkpt lat="42.325239" lon="1.191766">
        <ele>1722.016</ele>
        <time>2021-06-19T18:56:35Z</time>
      </trkpt>
      <trkpt lat="42.325257" lon="1.191658">
        <ele>1722.550</ele>
        <time>2021-06-19T18:56:40Z</time>
      </trkpt>
      <trkpt lat="42.325258" lon="1.191640">
        <ele>1722.744</ele>
        <time>2021-06-19T18:56:41Z</time>
      </trkpt>
      <trkpt lat="42.325267" lon="1.191542">
        <ele>1723.684</ele>
        <time>2021-06-19T18:56:47Z</time>
      </trkpt>
      <trkpt lat="42.325275" lon="1.191462">
        <ele>1724.337</ele>
        <time>2021-06-19T18:56:51Z</time>
      </trkpt>
      <trkpt lat="42.325280" lon="1.191398">
        <ele>1724.994</ele>
        <time>2021-06-19T18:56:54Z</time>
      </trkpt>
      <trkpt lat="42.325286" lon="1.191359">
        <ele>1725.052</ele>
        <time>2021-06-19T18:56:56Z</time>
      </trkpt>
      <trkpt lat="42.325286" lon="1.191297">
        <ele>1725.553</ele>
        <time>2021-06-19T18:56:59Z</time>
      </trkpt>
      <trkpt lat="42.325284" lon="1.191150">
        <ele>1726.608</ele>
        <time>2021-06-19T18:57:06Z</time>
      </trkpt>
      <trkpt lat="42.325283" lon="1.191129">
        <ele>1726.808</ele>
        <time>2021-06-19T18:57:07Z</time>
      </trkpt>
      <trkpt lat="42.325264" lon="1.191006">
        <ele>1728.072</ele>
        <time>2021-06-19T18:57:13Z</time>
      </trkpt>
      <trkpt lat="42.325259" lon="1.190966">
        <ele>1728.441</ele>
        <time>2021-06-19T18:57:15Z</time>
      </trkpt>
      <trkpt lat="42.325246" lon="1.190863">
        <ele>1729.457</ele>
        <time>2021-06-19T18:57:20Z</time>
      </trkpt>
      <trkpt lat="42.325244" lon="1.190840">
        <ele>1729.641</ele>
        <time>2021-06-19T18:57:21Z</time>
      </trkpt>
      <trkpt lat="42.325223" lon="1.190713">
        <ele>1730.565</ele>
        <time>2021-06-19T18:57:27Z</time>
      </trkpt>
      <trkpt lat="42.325199" lon="1.190593">
        <ele>1731.545</ele>
        <time>2021-06-19T18:57:33Z</time>
      </trkpt>
      <trkpt lat="42.325195" lon="1.190571">
        <ele>1731.738</ele>
        <time>2021-06-19T18:57:34Z</time>
      </trkpt>
      <trkpt lat="42.325151" lon="1.190378">
        <ele>1733.185</ele>
        <time>2021-06-19T18:57:43Z</time>
      </trkpt>
      <trkpt lat="42.325112" lon="1.190256">
        <ele>1734.013</ele>
        <time>2021-06-19T18:57:49Z</time>
      </trkpt>
      <trkpt lat="42.325071" lon="1.190119">
        <ele>1734.943</ele>
        <time>2021-06-19T18:57:56Z</time>
      </trkpt>
      <trkpt lat="42.325065" lon="1.190101">
        <ele>1735.007</ele>
        <time>2021-06-19T18:57:57Z</time>
      </trkpt>
      <trkpt lat="42.325006" lon="1.189989">
        <ele>1735.908</ele>
        <time>2021-06-19T18:58:03Z</time>
      </trkpt>
      <trkpt lat="42.324918" lon="1.189834">
        <ele>1737.658</ele>
        <time>2021-06-19T18:58:12Z</time>
      </trkpt>
      <trkpt lat="42.324845" lon="1.189745">
        <ele>1738.867</ele>
        <time>2021-06-19T18:58:18Z</time>
      </trkpt>
      <trkpt lat="42.324759" lon="1.189650">
        <ele>1739.813</ele>
        <time>2021-06-19T18:58:25Z</time>
      </trkpt>
      <trkpt lat="42.324746" lon="1.189639">
        <ele>1740.097</ele>
        <time>2021-06-19T18:58:26Z</time>
      </trkpt>
      <trkpt lat="42.324731" lon="1.189628">
        <ele>1740.291</ele>
        <time>2021-06-19T18:58:27Z</time>
      </trkpt>
      <trkpt lat="42.324588" lon="1.189496">
        <ele>1741.341</ele>
        <time>2021-06-19T18:58:37Z</time>
      </trkpt>
      <trkpt lat="42.324558" lon="1.189471">
        <ele>1741.634</ele>
        <time>2021-06-19T18:58:39Z</time>
      </trkpt>
      <trkpt lat="42.324419" lon="1.189363">
        <ele>1742.881</ele>
        <time>2021-06-19T18:58:48Z</time>
      </trkpt>
      <trkpt lat="42.324404" lon="1.189352">
        <ele>1743.017</ele>
        <time>2021-06-19T18:58:49Z</time>
      </trkpt>
      <trkpt lat="42.324261" lon="1.189256">
        <ele>1744.587</ele>
        <time>2021-06-19T18:58:58Z</time>
      </trkpt>
      <trkpt lat="42.324247" lon="1.189246">
        <ele>1744.615</ele>
        <time>2021-06-19T18:58:59Z</time>
      </trkpt>
      <trkpt lat="42.324170" lon="1.189219">
        <ele>1745.508</ele>
        <time>2021-06-19T18:59:04Z</time>
      </trkpt>
      <trkpt lat="42.324125" lon="1.189199">
        <ele>1745.948</ele>
        <time>2021-06-19T18:59:07Z</time>
      </trkpt>
      <trkpt lat="42.324050" lon="1.189157">
        <ele>1746.647</ele>
        <time>2021-06-19T18:59:12Z</time>
      </trkpt>
      <trkpt lat="42.323970" lon="1.189155">
        <ele>1747.763</ele>
        <time>2021-06-19T18:59:17Z</time>
      </trkpt>
      <trkpt lat="42.323954" lon="1.189155">
        <ele>1747.927</ele>
        <time>2021-06-19T18:59:18Z</time>
      </trkpt>
      <trkpt lat="42.323931" lon="1.189149">
        <ele>1748.171</ele>
        <time>2021-06-19T18:59:22Z</time>
      </trkpt>
      <trkpt lat="42.323889" lon="1.189134">
        <ele>1748.531</ele>
        <time>2021-06-19T19:01:06Z</time>
      </trkpt>
      <trkpt lat="42.323794" lon="1.189106">
        <ele>1749.584</ele>
        <time>2021-06-19T19:01:13Z</time>
      </trkpt>
      <trkpt lat="42.323636" lon="1.189074">
        <ele>1751.391</ele>
        <time>2021-06-19T19:01:23Z</time>
      </trkpt>
      <trkpt lat="42.323519" lon="1.189043">
        <ele>1752.498</ele>
        <time>2021-06-19T19:01:31Z</time>
      </trkpt>
      <trkpt lat="42.323478" lon="1.189037">
        <ele>1752.815</ele>
        <time>2021-06-19T19:01:34Z</time>
      </trkpt>
      <trkpt lat="42.323433" lon="1.189043">
        <ele>1753.526</ele>
        <time>2021-06-19T19:01:37Z</time>
      </trkpt>
      <trkpt lat="42.323308" lon="1.189007">
        <ele>1754.508</ele>
        <time>2021-06-19T19:01:45Z</time>
      </trkpt>
      <trkpt lat="42.323267" lon="1.188985">
        <ele>1754.766</ele>
        <time>2021-06-19T19:01:48Z</time>
      </trkpt>
      <trkpt lat="42.323251" lon="1.188983">
        <ele>1754.965</ele>
        <time>2021-06-19T19:01:49Z</time>
      </trkpt>
      <trkpt lat="42.323187" lon="1.188980">
        <ele>1755.791</ele>
        <time>2021-06-19T19:01:53Z</time>
      </trkpt>
      <trkpt lat="42.323085" lon="1.188964">
        <ele>1756.995</ele>
        <time>2021-06-19T19:02:00Z</time>
      </trkpt>
      <trkpt lat="42.323054" lon="1.188962">
        <ele>1757.349</ele>
        <time>2021-06-19T19:02:02Z</time>
      </trkpt>
      <trkpt lat="42.322924" lon="1.188931">
        <ele>1758.719</ele>
        <time>2021-06-19T19:02:11Z</time>
      </trkpt>
      <trkpt lat="42.322896" lon="1.188924">
        <ele>1758.932</ele>
        <time>2021-06-19T19:02:13Z</time>
      </trkpt>
      <trkpt lat="42.322816" lon="1.188884">
        <ele>1759.399</ele>
        <time>2021-06-19T19:02:19Z</time>
      </trkpt>
      <trkpt lat="42.322733" lon="1.188885">
        <ele>1760.646</ele>
        <time>2021-06-19T19:02:25Z</time>
      </trkpt>
      <trkpt lat="42.322719" lon="1.188885">
        <ele>1760.888</ele>
        <time>2021-06-19T19:02:26Z</time>
      </trkpt>
      <trkpt lat="42.322613" lon="1.188846">
        <ele>1761.416</ele>
        <time>2021-06-19T19:02:33Z</time>
      </trkpt>
      <trkpt lat="42.322567" lon="1.188814">
        <ele>1761.408</ele>
        <time>2021-06-19T19:02:36Z</time>
      </trkpt>
      <trkpt lat="42.322526" lon="1.188813">
        <ele>1762.031</ele>
        <time>2021-06-19T19:02:39Z</time>
      </trkpt>
      <trkpt lat="42.322418" lon="1.188784">
        <ele>1762.930</ele>
        <time>2021-06-19T19:02:47Z</time>
      </trkpt>
      <trkpt lat="42.322404" lon="1.188779">
        <ele>1763.066</ele>
        <time>2021-06-19T19:02:48Z</time>
      </trkpt>
      <trkpt lat="42.322296" lon="1.188744">
        <ele>1763.880</ele>
        <time>2021-06-19T19:02:56Z</time>
      </trkpt>
      <trkpt lat="42.322266" lon="1.188736">
        <ele>1764.184</ele>
        <time>2021-06-19T19:02:58Z</time>
      </trkpt>
      <trkpt lat="42.322143" lon="1.188698">
        <ele>1765.084</ele>
        <time>2021-06-19T19:03:06Z</time>
      </trkpt>
      <trkpt lat="42.322082" lon="1.188682">
        <ele>1765.577</ele>
        <time>2021-06-19T19:03:10Z</time>
      </trkpt>
      <trkpt lat="42.321989" lon="1.188662">
        <ele>1766.514</ele>
        <time>2021-06-19T19:03:16Z</time>
      </trkpt>
      <trkpt lat="42.321931" lon="1.188648">
        <ele>1767.014</ele>
        <time>2021-06-19T19:03:20Z</time>
      </trkpt>
      <trkpt lat="42.321900" lon="1.188639">
        <ele>1767.454</ele>
        <time>2021-06-19T19:03:23Z</time>
      </trkpt>
      <trkpt lat="42.321813" lon="1.188610">
        <ele>1768.309</ele>
        <time>2021-06-19T19:03:29Z</time>
      </trkpt>
      <trkpt lat="42.321774" lon="1.188590">
        <ele>1768.608</ele>
        <time>2021-06-19T19:03:33Z</time>
      </trkpt>
      <trkpt lat="42.321741" lon="1.188579">
        <ele>1768.948</ele>
        <time>2021-06-19T19:03:36Z</time>
      </trkpt>
      <trkpt lat="42.321659" lon="1.188545">
        <ele>1769.797</ele>
        <time>2021-06-19T19:03:42Z</time>
      </trkpt>
      <trkpt lat="42.321572" lon="1.188504">
        <ele>1770.453</ele>
        <time>2021-06-19T19:03:48Z</time>
      </trkpt>
      <trkpt lat="42.321542" lon="1.188503">
        <ele>1770.987</ele>
        <time>2021-06-19T19:03:50Z</time>
      </trkpt>
      <trkpt lat="42.321431" lon="1.188452">
        <ele>1771.821</ele>
        <time>2021-06-19T19:03:58Z</time>
      </trkpt>
      <trkpt lat="42.321339" lon="1.188406">
        <ele>1772.671</ele>
        <time>2021-06-19T19:04:05Z</time>
      </trkpt>
      <trkpt lat="42.321260" lon="1.188350">
        <ele>1773.134</ele>
        <time>2021-06-19T19:04:11Z</time>
      </trkpt>
      <trkpt lat="42.321229" lon="1.188331">
        <ele>1773.461</ele>
        <time>2021-06-19T19:04:13Z</time>
      </trkpt>
      <trkpt lat="42.321181" lon="1.188268">
        <ele>1773.432</ele>
        <time>2021-06-19T19:04:17Z</time>
      </trkpt>
      <trkpt lat="42.321143" lon="1.188232">
        <ele>1773.592</ele>
        <time>2021-06-19T19:04:20Z</time>
      </trkpt>
      <trkpt lat="42.321101" lon="1.188242">
        <ele>1774.611</ele>
        <time>2021-06-19T19:04:23Z</time>
      </trkpt>
      <trkpt lat="42.321080" lon="1.188265">
        <ele>1775.408</ele>
        <time>2021-06-19T19:04:25Z</time>
      </trkpt>
      <trkpt lat="42.321076" lon="1.188302">
        <ele>1776.250</ele>
        <time>2021-06-19T19:04:27Z</time>
      </trkpt>
      <trkpt lat="42.321078" lon="1.188320">
        <ele>1776.559</ele>
        <time>2021-06-19T19:04:28Z</time>
      </trkpt>
      <trkpt lat="42.321079" lon="1.188405">
        <ele>1778.285</ele>
        <time>2021-06-19T19:04:33Z</time>
      </trkpt>
      <trkpt lat="42.321149" lon="1.188508">
        <ele>1779.039</ele>
        <time>2021-06-19T19:04:40Z</time>
      </trkpt>
      <trkpt lat="42.321258" lon="1.188595">
        <ele>1778.563</ele>
        <time>2021-06-19T19:04:48Z</time>
      </trkpt>
      <trkpt lat="42.321279" lon="1.188621">
        <ele>1778.673</ele>
        <time>2021-06-19T19:04:50Z</time>
      </trkpt>
      <trkpt lat="42.321342" lon="1.188696">
        <ele>1778.886</ele>
        <time>2021-06-19T19:04:56Z</time>
      </trkpt>
      <trkpt lat="42.321391" lon="1.188753">
        <ele>1779.073</ele>
        <time>2021-06-19T19:05:00Z</time>
      </trkpt>
      <trkpt lat="42.321439" lon="1.188817">
        <ele>1779.541</ele>
        <time>2021-06-19T19:05:04Z</time>
      </trkpt>
      <trkpt lat="42.321500" lon="1.188914">
        <ele>1780.581</ele>
        <time>2021-06-19T19:05:10Z</time>
      </trkpt>
      <trkpt lat="42.321522" lon="1.188946">
        <ele>1780.809</ele>
        <time>2021-06-19T19:05:12Z</time>
      </trkpt>
      <trkpt lat="42.321592" lon="1.189044">
        <ele>1781.708</ele>
        <time>2021-06-19T19:05:19Z</time>
      </trkpt>
      <trkpt lat="42.321632" lon="1.189109">
        <ele>1782.451</ele>
        <time>2021-06-19T19:05:24Z</time>
      </trkpt>
      <trkpt lat="42.321688" lon="1.189183">
        <ele>1782.980</ele>
        <time>2021-06-19T19:05:29Z</time>
      </trkpt>
      <trkpt lat="42.321728" lon="1.189244">
        <ele>1783.366</ele>
        <time>2021-06-19T19:05:33Z</time>
      </trkpt>
      <trkpt lat="42.321787" lon="1.189326">
        <ele>1783.730</ele>
        <time>2021-06-19T19:05:38Z</time>
      </trkpt>
      <trkpt lat="42.321797" lon="1.189341">
        <ele>1783.864</ele>
        <time>2021-06-19T19:05:39Z</time>
      </trkpt>
      <trkpt lat="42.321870" lon="1.189438">
        <ele>1784.214</ele>
        <time>2021-06-19T19:05:46Z</time>
      </trkpt>
      <trkpt lat="42.321900" lon="1.189496">
        <ele>1784.727</ele>
        <time>2021-06-19T19:05:49Z</time>
      </trkpt>
      <trkpt lat="42.321952" lon="1.189590">
        <ele>1785.534</ele>
        <time>2021-06-19T19:05:54Z</time>
      </trkpt>
      <trkpt lat="42.321970" lon="1.189628">
        <ele>1785.968</ele>
        <time>2021-06-19T19:05:56Z</time>
      </trkpt>
      <trkpt lat="42.322029" lon="1.189800">
        <ele>1787.342</ele>
        <time>2021-06-19T19:06:05Z</time>
      </trkpt>
      <trkpt lat="42.322064" lon="1.189917">
        <ele>1788.026</ele>
        <time>2021-06-19T19:06:11Z</time>
      </trkpt>
      <trkpt lat="42.322075" lon="1.189982">
        <ele>1788.508</ele>
        <time>2021-06-19T19:06:14Z</time>
      </trkpt>
      <trkpt lat="42.322077" lon="1.190087">
        <ele>1789.223</ele>
        <time>2021-06-19T19:06:19Z</time>
      </trkpt>
      <trkpt lat="42.322092" lon="1.190170">
        <ele>1789.682</ele>
        <time>2021-06-19T19:06:23Z</time>
      </trkpt>
      <trkpt lat="42.322096" lon="1.190211">
        <ele>1789.838</ele>
        <time>2021-06-19T19:06:25Z</time>
      </trkpt>
      <trkpt lat="42.322097" lon="1.190304">
        <ele>1790.322</ele>
        <time>2021-06-19T19:06:29Z</time>
      </trkpt>
      <trkpt lat="42.322078" lon="1.190390">
        <ele>1790.816</ele>
        <time>2021-06-19T19:06:33Z</time>
      </trkpt>
      <trkpt lat="42.322034" lon="1.190502">
        <ele>1791.656</ele>
        <time>2021-06-19T19:06:39Z</time>
      </trkpt>
      <trkpt lat="42.321977" lon="1.190629">
        <ele>1792.539</ele>
        <time>2021-06-19T19:06:46Z</time>
      </trkpt>
      <trkpt lat="42.321924" lon="1.190728">
        <ele>1793.396</ele>
        <time>2021-06-19T19:06:52Z</time>
      </trkpt>
      <trkpt lat="42.321911" lon="1.190747">
        <ele>1793.585</ele>
        <time>2021-06-19T19:06:53Z</time>
      </trkpt>
      <trkpt lat="42.321834" lon="1.190832">
        <ele>1794.689</ele>
        <time>2021-06-19T19:06:59Z</time>
      </trkpt>
      <trkpt lat="42.321765" lon="1.190895">
        <ele>1794.917</ele>
        <time>2021-06-19T19:07:04Z</time>
      </trkpt>
      <trkpt lat="42.321732" lon="1.190908">
        <ele>1795.308</ele>
        <time>2021-06-19T19:07:06Z</time>
      </trkpt>
      <trkpt lat="42.321649" lon="1.190930">
        <ele>1796.265</ele>
        <time>2021-06-19T19:07:12Z</time>
      </trkpt>
      <trkpt lat="42.321622" lon="1.190927">
        <ele>1796.614</ele>
        <time>2021-06-19T19:07:14Z</time>
      </trkpt>
      <trkpt lat="42.321553" lon="1.190907">
        <ele>1797.780</ele>
        <time>2021-06-19T19:07:19Z</time>
      </trkpt>
      <trkpt lat="42.321516" lon="1.190870">
        <ele>1798.774</ele>
        <time>2021-06-19T19:07:23Z</time>
      </trkpt>
      <trkpt lat="42.321502" lon="1.190843">
        <ele>1799.268</ele>
        <time>2021-06-19T19:07:25Z</time>
      </trkpt>
      <trkpt lat="42.321487" lon="1.190709">
        <ele>1800.068</ele>
        <time>2021-06-19T19:07:32Z</time>
      </trkpt>
      <trkpt lat="42.321479" lon="1.190668">
        <ele>1800.311</ele>
        <time>2021-06-19T19:07:34Z</time>
      </trkpt>
      <trkpt lat="42.321444" lon="1.190526">
        <ele>1801.188</ele>
        <time>2021-06-19T19:07:41Z</time>
      </trkpt>
      <trkpt lat="42.321414" lon="1.190477">
        <ele>1801.422</ele>
        <time>2021-06-19T19:07:44Z</time>
      </trkpt>
      <trkpt lat="42.321352" lon="1.190428">
        <ele>1802.162</ele>
        <time>2021-06-19T19:07:49Z</time>
      </trkpt>
      <trkpt lat="42.321347" lon="1.190423">
        <ele>1802.108</ele>
        <time>2021-06-19T19:07:51Z</time>
      </trkpt>
      <trkpt lat="42.321306" lon="1.190385">
        <ele>1802.608</ele>
        <time>2021-06-19T19:09:51Z</time>
      </trkpt>
      <trkpt lat="42.321268" lon="1.190349">
        <ele>1803.029</ele>
        <time>2021-06-19T19:09:54Z</time>
      </trkpt>
      <trkpt lat="42.321168" lon="1.190248">
        <ele>1804.198</ele>
        <time>2021-06-19T19:10:02Z</time>
      </trkpt>
      <trkpt lat="42.321080" lon="1.190177">
        <ele>1805.244</ele>
        <time>2021-06-19T19:10:10Z</time>
      </trkpt>
      <trkpt lat="42.321069" lon="1.190167">
        <ele>1805.368</ele>
        <time>2021-06-19T19:10:11Z</time>
      </trkpt>
      <trkpt lat="42.320963" lon="1.190092">
        <ele>1806.612</ele>
        <time>2021-06-19T19:10:19Z</time>
      </trkpt>
      <trkpt lat="42.320941" lon="1.190079">
        <ele>1806.942</ele>
        <time>2021-06-19T19:10:21Z</time>
      </trkpt>
      <trkpt lat="42.320920" lon="1.190058">
        <ele>1807.125</ele>
        <time>2021-06-19T19:10:23Z</time>
      </trkpt>
      <trkpt lat="42.320897" lon="1.190049">
        <ele>1807.462</ele>
        <time>2021-06-19T19:10:25Z</time>
      </trkpt>
      <trkpt lat="42.320878" lon="1.190037">
        <ele>1807.695</ele>
        <time>2021-06-19T19:10:27Z</time>
      </trkpt>
      <trkpt lat="42.320871" lon="1.190032">
        <ele>1807.749</ele>
        <time>2021-06-19T19:10:28Z</time>
      </trkpt>
      <trkpt lat="42.320868" lon="1.190027">
        <ele>1807.723</ele>
        <time>2021-06-19T19:10:30Z</time>
      </trkpt>
      <trkpt lat="42.320804" lon="1.189977">
        <ele>1808.408</ele>
        <time>2021-06-19T19:10:47Z</time>
      </trkpt>
      <trkpt lat="42.320692" lon="1.189921">
        <ele>1810.016</ele>
        <time>2021-06-19T19:10:56Z</time>
      </trkpt>
      <trkpt lat="42.320666" lon="1.189909">
        <ele>1810.415</ele>
        <time>2021-06-19T19:10:58Z</time>
      </trkpt>
      <trkpt lat="42.320586" lon="1.189869">
        <ele>1811.511</ele>
        <time>2021-06-19T19:11:04Z</time>
      </trkpt>
      <trkpt lat="42.320517" lon="1.189835">
        <ele>1812.515</ele>
        <time>2021-06-19T19:11:09Z</time>
      </trkpt>
      <trkpt lat="42.320450" lon="1.189801">
        <ele>1813.539</ele>
        <time>2021-06-19T19:11:14Z</time>
      </trkpt>
      <trkpt lat="42.320382" lon="1.189758">
        <ele>1814.479</ele>
        <time>2021-06-19T19:11:19Z</time>
      </trkpt>
      <trkpt lat="42.320332" lon="1.189721">
        <ele>1815.012</ele>
        <time>2021-06-19T19:11:23Z</time>
      </trkpt>
      <trkpt lat="42.320256" lon="1.189661">
        <ele>1815.519</ele>
        <time>2021-06-19T19:11:29Z</time>
      </trkpt>
      <trkpt lat="42.320228" lon="1.189647">
        <ele>1815.842</ele>
        <time>2021-06-19T19:11:31Z</time>
      </trkpt>
      <trkpt lat="42.320108" lon="1.189584">
        <ele>1817.122</ele>
        <time>2021-06-19T19:11:40Z</time>
      </trkpt>
      <trkpt lat="42.319998" lon="1.189511">
        <ele>1818.014</ele>
        <time>2021-06-19T19:11:49Z</time>
      </trkpt>
      <trkpt lat="42.319985" lon="1.189502">
        <ele>1818.108</ele>
        <time>2021-06-19T19:11:50Z</time>
      </trkpt>
      <trkpt lat="42.319918" lon="1.189457">
        <ele>1818.911</ele>
        <time>2021-06-19T19:11:56Z</time>
      </trkpt>
      <trkpt lat="42.319875" lon="1.189420">
        <ele>1819.460</ele>
        <time>2021-06-19T19:12:00Z</time>
      </trkpt>
      <trkpt lat="42.319825" lon="1.189386">
        <ele>1820.166</ele>
        <time>2021-06-19T19:12:04Z</time>
      </trkpt>
      <trkpt lat="42.319763" lon="1.189339">
        <ele>1821.080</ele>
        <time>2021-06-19T19:12:09Z</time>
      </trkpt>
      <trkpt lat="42.319713" lon="1.189296">
        <ele>1821.654</ele>
        <time>2021-06-19T19:12:13Z</time>
      </trkpt>
      <trkpt lat="42.319660" lon="1.189236">
        <ele>1822.134</ele>
        <time>2021-06-19T19:12:18Z</time>
      </trkpt>
      <trkpt lat="42.319620" lon="1.189217">
        <ele>1822.877</ele>
        <time>2021-06-19T19:12:21Z</time>
      </trkpt>
      <trkpt lat="42.319535" lon="1.189159">
        <ele>1824.014</ele>
        <time>2021-06-19T19:12:28Z</time>
      </trkpt>
      <trkpt lat="42.319523" lon="1.189150">
        <ele>1824.135</ele>
        <time>2021-06-19T19:12:29Z</time>
      </trkpt>
      <trkpt lat="42.319455" lon="1.189069">
        <ele>1824.786</ele>
        <time>2021-06-19T19:12:36Z</time>
      </trkpt>
      <trkpt lat="42.319426" lon="1.189035">
        <ele>1825.114</ele>
        <time>2021-06-19T19:12:39Z</time>
      </trkpt>
      <trkpt lat="42.319396" lon="1.188998">
        <ele>1825.508</ele>
        <time>2021-06-19T19:12:42Z</time>
      </trkpt>
      <trkpt lat="42.319326" lon="1.188940">
        <ele>1826.610</ele>
        <time>2021-06-19T19:12:49Z</time>
      </trkpt>
      <trkpt lat="42.319314" lon="1.188930">
        <ele>1826.849</ele>
        <time>2021-06-19T19:12:50Z</time>
      </trkpt>
      <trkpt lat="42.319235" lon="1.188854">
        <ele>1827.955</ele>
        <time>2021-06-19T19:12:57Z</time>
      </trkpt>
      <trkpt lat="42.319201" lon="1.188819">
        <ele>1828.429</ele>
        <time>2021-06-19T19:13:00Z</time>
      </trkpt>
      <trkpt lat="42.319152" lon="1.188758">
        <ele>1829.043</ele>
        <time>2021-06-19T19:13:05Z</time>
      </trkpt>
      <trkpt lat="42.319113" lon="1.188702">
        <ele>1829.473</ele>
        <time>2021-06-19T19:13:09Z</time>
      </trkpt>
      <trkpt lat="42.319072" lon="1.188674">
        <ele>1830.196</ele>
        <time>2021-06-19T19:13:12Z</time>
      </trkpt>
      <trkpt lat="42.319017" lon="1.188600">
        <ele>1830.793</ele>
        <time>2021-06-19T19:13:17Z</time>
      </trkpt>
      <trkpt lat="42.318985" lon="1.188558">
        <ele>1831.064</ele>
        <time>2021-06-19T19:13:20Z</time>
      </trkpt>
      <trkpt lat="42.318914" lon="1.188469">
        <ele>1831.806</ele>
        <time>2021-06-19T19:13:26Z</time>
      </trkpt>
      <trkpt lat="42.318886" lon="1.188442">
        <ele>1832.216</ele>
        <time>2021-06-19T19:13:28Z</time>
      </trkpt>
      <trkpt lat="42.318814" lon="1.188361">
        <ele>1833.208</ele>
        <time>2021-06-19T19:13:34Z</time>
      </trkpt>
      <trkpt lat="42.318779" lon="1.188329">
        <ele>1833.783</ele>
        <time>2021-06-19T19:13:37Z</time>
      </trkpt>
      <trkpt lat="42.318766" lon="1.188322">
        <ele>1834.032</ele>
        <time>2021-06-19T19:13:38Z</time>
      </trkpt>
      <trkpt lat="42.318725" lon="1.188277">
        <ele>1834.518</ele>
        <time>2021-06-19T19:13:42Z</time>
      </trkpt>
      <trkpt lat="42.318681" lon="1.188241">
        <ele>1835.212</ele>
        <time>2021-06-19T19:13:46Z</time>
      </trkpt>
      <trkpt lat="42.318648" lon="1.188211">
        <ele>1835.726</ele>
        <time>2021-06-19T19:13:49Z</time>
      </trkpt>
      <trkpt lat="42.318602" lon="1.188174">
        <ele>1836.526</ele>
        <time>2021-06-19T19:13:53Z</time>
      </trkpt>
      <trkpt lat="42.318545" lon="1.188106">
        <ele>1837.049</ele>
        <time>2021-06-19T19:13:59Z</time>
      </trkpt>
      <trkpt lat="42.318485" lon="1.188050">
        <ele>1837.716</ele>
        <time>2021-06-19T19:14:05Z</time>
      </trkpt>
      <trkpt lat="42.318445" lon="1.188005">
        <ele>1838.017</ele>
        <time>2021-06-19T19:14:09Z</time>
      </trkpt>
      <trkpt lat="42.318405" lon="1.187951">
        <ele>1838.387</ele>
        <time>2021-06-19T19:14:13Z</time>
      </trkpt>
      <trkpt lat="42.318350" lon="1.187885">
        <ele>1838.815</ele>
        <time>2021-06-19T19:14:17Z</time>
      </trkpt>
      <trkpt lat="42.318292" lon="1.187798">
        <ele>1839.308</ele>
        <time>2021-06-19T19:14:22Z</time>
      </trkpt>
      <trkpt lat="42.318247" lon="1.187732">
        <ele>1839.858</ele>
        <time>2021-06-19T19:14:26Z</time>
      </trkpt>
      <trkpt lat="42.318203" lon="1.187665">
        <ele>1840.367</ele>
        <time>2021-06-19T19:14:30Z</time>
      </trkpt>
      <trkpt lat="42.318147" lon="1.187593">
        <ele>1840.983</ele>
        <time>2021-06-19T19:14:35Z</time>
      </trkpt>
      <trkpt lat="42.318135" lon="1.187578">
        <ele>1841.027</ele>
        <time>2021-06-19T19:14:36Z</time>
      </trkpt>
      <trkpt lat="42.318072" lon="1.187470">
        <ele>1841.551</ele>
        <time>2021-06-19T19:14:43Z</time>
      </trkpt>
      <trkpt lat="42.318062" lon="1.187450">
        <ele>1841.751</ele>
        <time>2021-06-19T19:14:44Z</time>
      </trkpt>
      <trkpt lat="42.318014" lon="1.187364">
        <ele>1842.524</ele>
        <time>2021-06-19T19:14:49Z</time>
      </trkpt>
      <trkpt lat="42.317971" lon="1.187282">
        <ele>1843.141</ele>
        <time>2021-06-19T19:14:54Z</time>
      </trkpt>
      <trkpt lat="42.317934" lon="1.187210">
        <ele>1843.666</ele>
        <time>2021-06-19T19:14:58Z</time>
      </trkpt>
      <trkpt lat="42.317913" lon="1.187178">
        <ele>1843.929</ele>
        <time>2021-06-19T19:15:00Z</time>
      </trkpt>
      <trkpt lat="42.317856" lon="1.187059">
        <ele>1844.721</ele>
        <time>2021-06-19T19:15:07Z</time>
      </trkpt>
      <trkpt lat="42.317826" lon="1.187009">
        <ele>1845.208</ele>
        <time>2021-06-19T19:15:10Z</time>
      </trkpt>
      <trkpt lat="42.317805" lon="1.186976">
        <ele>1845.513</ele>
        <time>2021-06-19T19:15:12Z</time>
      </trkpt>
      <trkpt lat="42.317747" lon="1.186878">
        <ele>1846.232</ele>
        <time>2021-06-19T19:15:18Z</time>
      </trkpt>
      <trkpt lat="42.317711" lon="1.186811">
        <ele>1846.668</ele>
        <time>2021-06-19T19:15:22Z</time>
      </trkpt>
      <trkpt lat="42.317664" lon="1.186730">
        <ele>1847.212</ele>
        <time>2021-06-19T19:15:27Z</time>
      </trkpt>
      <trkpt lat="42.317635" lon="1.186685">
        <ele>1847.756</ele>
        <time>2021-06-19T19:15:30Z</time>
      </trkpt>
      <trkpt lat="42.317583" lon="1.186594">
        <ele>1848.746</ele>
        <time>2021-06-19T19:15:36Z</time>
      </trkpt>
      <trkpt lat="42.317495" lon="1.186445">
        <ele>1850.359</ele>
        <time>2021-06-19T19:15:45Z</time>
      </trkpt>
      <trkpt lat="42.317485" lon="1.186428">
        <ele>1850.436</ele>
        <time>2021-06-19T19:15:46Z</time>
      </trkpt>
      <trkpt lat="42.317416" lon="1.186308">
        <ele>1851.268</ele>
        <time>2021-06-19T19:15:53Z</time>
      </trkpt>
      <trkpt lat="42.317406" lon="1.186292">
        <ele>1851.342</ele>
        <time>2021-06-19T19:15:54Z</time>
      </trkpt>
      <trkpt lat="42.317318" lon="1.186145">
        <ele>1852.426</ele>
        <time>2021-06-19T19:16:03Z</time>
      </trkpt>
      <trkpt lat="42.317239" lon="1.186029">
        <ele>1853.408</ele>
        <time>2021-06-19T19:16:11Z</time>
      </trkpt>
      <trkpt lat="42.317229" lon="1.186012">
        <ele>1853.543</ele>
        <time>2021-06-19T19:16:12Z</time>
      </trkpt>
      <trkpt lat="42.317180" lon="1.185907">
        <ele>1854.082</ele>
        <time>2021-06-19T19:16:18Z</time>
      </trkpt>
      <trkpt lat="42.317148" lon="1.185814">
        <ele>1854.438</ele>
        <time>2021-06-19T19:16:23Z</time>
      </trkpt>
      <trkpt lat="42.317122" lon="1.185763">
        <ele>1855.082</ele>
        <time>2021-06-19T19:16:26Z</time>
      </trkpt>
      <trkpt lat="42.317073" lon="1.185664">
        <ele>1856.026</ele>
        <time>2021-06-19T19:16:32Z</time>
      </trkpt>
      <trkpt lat="42.317042" lon="1.185620">
        <ele>1856.516</ele>
        <time>2021-06-19T19:16:35Z</time>
      </trkpt>
      <trkpt lat="42.317031" lon="1.185609">
        <ele>1856.789</ele>
        <time>2021-06-19T19:16:36Z</time>
      </trkpt>
      <trkpt lat="42.316980" lon="1.185587">
        <ele>1857.566</ele>
        <time>2021-06-19T19:16:40Z</time>
      </trkpt>
      <trkpt lat="42.316966" lon="1.185586">
        <ele>1857.798</ele>
        <time>2021-06-19T19:16:41Z</time>
      </trkpt>
      <trkpt lat="42.316921" lon="1.185563">
        <ele>1857.915</ele>
        <time>2021-06-19T19:16:46Z</time>
      </trkpt>
      <trkpt lat="42.316920" lon="1.185562">
        <ele>1857.926</ele>
        <time>2021-06-19T19:16:47Z</time>
      </trkpt>
      <trkpt lat="42.316898" lon="1.185627">
        <ele>1857.908</ele>
        <time>2021-06-19T19:17:02Z</time>
      </trkpt>
      <trkpt lat="42.316888" lon="1.185678">
        <ele>1858.096</ele>
        <time>2021-06-19T19:17:05Z</time>
      </trkpt>
      <trkpt lat="42.316870" lon="1.185779">
        <ele>1858.225</ele>
        <time>2021-06-19T19:17:11Z</time>
      </trkpt>
      <trkpt lat="42.316867" lon="1.185819">
        <ele>1858.271</ele>
        <time>2021-06-19T19:17:13Z</time>
      </trkpt>
      <trkpt lat="42.316887" lon="1.186010">
        <ele>1859.045</ele>
        <time>2021-06-19T19:17:21Z</time>
      </trkpt>
      <trkpt lat="42.316895" lon="1.186058">
        <ele>1859.129</ele>
        <time>2021-06-19T19:17:23Z</time>
      </trkpt>
      <trkpt lat="42.316902" lon="1.186104">
        <ele>1859.389</ele>
        <time>2021-06-19T19:17:25Z</time>
      </trkpt>
      <trkpt lat="42.316921" lon="1.186171">
        <ele>1859.462</ele>
        <time>2021-06-19T19:17:28Z</time>
      </trkpt>
      <trkpt lat="42.316941" lon="1.186266">
        <ele>1859.649</ele>
        <time>2021-06-19T19:17:32Z</time>
      </trkpt>
      <trkpt lat="42.316970" lon="1.186381">
        <ele>1859.584</ele>
        <time>2021-06-19T19:17:37Z</time>
      </trkpt>
      <trkpt lat="42.316992" lon="1.186450">
        <ele>1859.607</ele>
        <time>2021-06-19T19:17:40Z</time>
      </trkpt>
      <trkpt lat="42.317037" lon="1.186617">
        <ele>1860.017</ele>
        <time>2021-06-19T19:17:47Z</time>
      </trkpt>
      <trkpt lat="42.317047" lon="1.186667">
        <ele>1860.208</ele>
        <time>2021-06-19T19:17:49Z</time>
      </trkpt>
      <trkpt lat="42.317083" lon="1.186772">
        <ele>1860.575</ele>
        <time>2021-06-19T19:17:54Z</time>
      </trkpt>
      <trkpt lat="42.317095" lon="1.186819">
        <ele>1860.684</ele>
        <time>2021-06-19T19:17:56Z</time>
      </trkpt>
      <trkpt lat="42.317146" lon="1.187002">
        <ele>1861.190</ele>
        <time>2021-06-19T19:18:04Z</time>
      </trkpt>
      <trkpt lat="42.317213" lon="1.187227">
        <ele>1861.394</ele>
        <time>2021-06-19T19:18:13Z</time>
      </trkpt>
      <trkpt lat="42.317276" lon="1.187435">
        <ele>1861.828</ele>
        <time>2021-06-19T19:18:21Z</time>
      </trkpt>
      <trkpt lat="42.317283" lon="1.187463">
        <ele>1861.958</ele>
        <time>2021-06-19T19:18:22Z</time>
      </trkpt>
      <trkpt lat="42.317354" lon="1.187680">
        <ele>1862.191</ele>
        <time>2021-06-19T19:18:30Z</time>
      </trkpt>
      <trkpt lat="42.317373" lon="1.187738">
        <ele>1862.268</ele>
        <time>2021-06-19T19:18:32Z</time>
      </trkpt>
      <trkpt lat="42.317466" lon="1.187971">
        <ele>1862.834</ele>
        <time>2021-06-19T19:18:40Z</time>
      </trkpt>
      <trkpt lat="42.317498" lon="1.188051">
        <ele>1863.055</ele>
        <time>2021-06-19T19:18:43Z</time>
      </trkpt>
      <trkpt lat="42.317558" lon="1.188212">
        <ele>1863.610</ele>
        <time>2021-06-19T19:18:49Z</time>
      </trkpt>
      <trkpt lat="42.317624" lon="1.188339">
        <ele>1863.508</ele>
        <time>2021-06-19T19:18:54Z</time>
      </trkpt>
      <trkpt lat="42.317665" lon="1.188421">
        <ele>1863.750</ele>
        <time>2021-06-19T19:18:57Z</time>
      </trkpt>
      <trkpt lat="42.317717" lon="1.188562">
        <ele>1864.729</ele>
        <time>2021-06-19T19:19:02Z</time>
      </trkpt>
      <trkpt lat="42.317738" lon="1.188612">
        <ele>1865.035</ele>
        <time>2021-06-19T19:19:04Z</time>
      </trkpt>
      <trkpt lat="42.317817" lon="1.188754">
        <ele>1865.179</ele>
        <time>2021-06-19T19:19:10Z</time>
      </trkpt>
      <trkpt lat="42.317917" lon="1.188972">
        <ele>1865.473</ele>
        <time>2021-06-19T19:19:18Z</time>
      </trkpt>
      <trkpt lat="42.317943" lon="1.189035">
        <ele>1865.463</ele>
        <time>2021-06-19T19:19:20Z</time>
      </trkpt>
      <trkpt lat="42.318028" lon="1.189245">
        <ele>1865.696</ele>
        <time>2021-06-19T19:19:26Z</time>
      </trkpt>
      <trkpt lat="42.318041" lon="1.189278">
        <ele>1865.693</ele>
        <time>2021-06-19T19:19:27Z</time>
      </trkpt>
      <trkpt lat="42.318127" lon="1.189491">
        <ele>1865.346</ele>
        <time>2021-06-19T19:19:34Z</time>
      </trkpt>
      <trkpt lat="42.318167" lon="1.189627">
        <ele>1865.188</ele>
        <time>2021-06-19T19:19:38Z</time>
      </trkpt>
      <trkpt lat="42.318184" lon="1.189704">
        <ele>1865.216</ele>
        <time>2021-06-19T19:19:40Z</time>
      </trkpt>
      <trkpt lat="42.318218" lon="1.190027">
        <ele>1865.308</ele>
        <time>2021-06-19T19:19:47Z</time>
      </trkpt>
      <trkpt lat="42.318214" lon="1.190180">
        <ele>1865.221</ele>
        <time>2021-06-19T19:19:50Z</time>
      </trkpt>
      <trkpt lat="42.318206" lon="1.190321">
        <ele>1865.030</ele>
        <time>2021-06-19T19:19:53Z</time>
      </trkpt>
      <trkpt lat="42.318154" lon="1.190545">
        <ele>1864.936</ele>
        <time>2021-06-19T19:19:58Z</time>
      </trkpt>
      <trkpt lat="42.318134" lon="1.190588">
        <ele>1865.050</ele>
        <time>2021-06-19T19:19:59Z</time>
      </trkpt>
      <trkpt lat="42.318032" lon="1.190808">
        <ele>1864.864</ele>
        <time>2021-06-19T19:20:04Z</time>
      </trkpt>
      <trkpt lat="42.317936" lon="1.190974">
        <ele>1864.694</ele>
        <time>2021-06-19T19:20:08Z</time>
      </trkpt>
      <trkpt lat="42.317911" lon="1.191017">
        <ele>1864.527</ele>
        <time>2021-06-19T19:20:09Z</time>
      </trkpt>
      <trkpt lat="42.317805" lon="1.191172">
        <ele>1864.564</ele>
        <time>2021-06-19T19:20:13Z</time>
      </trkpt>
      <trkpt lat="42.317666" lon="1.191362">
        <ele>1864.496</ele>
        <time>2021-06-19T19:20:18Z</time>
      </trkpt>
      <trkpt lat="42.317492" lon="1.191594">
        <ele>1864.231</ele>
        <time>2021-06-19T19:20:24Z</time>
      </trkpt>
      <trkpt lat="42.317372" lon="1.191743">
        <ele>1864.524</ele>
        <time>2021-06-19T19:20:28Z</time>
      </trkpt>
      <trkpt lat="42.317266" lon="1.191949">
        <ele>1864.208</ele>
        <time>2021-06-19T19:20:33Z</time>
      </trkpt>
      <trkpt lat="42.317251" lon="1.191993">
        <ele>1864.326</ele>
        <time>2021-06-19T19:20:34Z</time>
      </trkpt>
      <trkpt lat="42.317154" lon="1.192321">
        <ele>1864.555</ele>
        <time>2021-06-19T19:20:41Z</time>
      </trkpt>
      <trkpt lat="42.317144" lon="1.192420">
        <ele>1864.011</ele>
        <time>2021-06-19T19:20:43Z</time>
      </trkpt>
      <trkpt lat="42.317135" lon="1.192619">
        <ele>1863.695</ele>
        <time>2021-06-19T19:20:47Z</time>
      </trkpt>
      <trkpt lat="42.317127" lon="1.192848">
        <ele>1864.169</ele>
        <time>2021-06-19T19:20:53Z</time>
      </trkpt>
      <trkpt lat="42.317122" lon="1.192911">
        <ele>1864.629</ele>
        <time>2021-06-19T19:20:55Z</time>
      </trkpt>
      <trkpt lat="42.317137" lon="1.193104">
        <ele>1865.572</ele>
        <time>2021-06-19T19:21:01Z</time>
      </trkpt>
      <trkpt lat="42.317143" lon="1.193170">
        <ele>1865.719</ele>
        <time>2021-06-19T19:21:03Z</time>
      </trkpt>
      <trkpt lat="42.317154" lon="1.193374">
        <ele>1866.317</ele>
        <time>2021-06-19T19:21:09Z</time>
      </trkpt>
      <trkpt lat="42.317155" lon="1.193441">
        <ele>1866.387</ele>
        <time>2021-06-19T19:21:11Z</time>
      </trkpt>
      <trkpt lat="42.317158" lon="1.193669">
        <ele>1866.615</ele>
        <time>2021-06-19T19:21:18Z</time>
      </trkpt>
      <trkpt lat="42.317165" lon="1.193734">
        <ele>1866.708</ele>
        <time>2021-06-19T19:21:20Z</time>
      </trkpt>
      <trkpt lat="42.317153" lon="1.193973">
        <ele>1867.558</ele>
        <time>2021-06-19T19:21:27Z</time>
      </trkpt>
      <trkpt lat="42.317144" lon="1.194108">
        <ele>1867.737</ele>
        <time>2021-06-19T19:21:31Z</time>
      </trkpt>
      <trkpt lat="42.317130" lon="1.194241">
        <ele>1867.893</ele>
        <time>2021-06-19T19:21:35Z</time>
      </trkpt>
      <trkpt lat="42.317115" lon="1.194451">
        <ele>1867.777</ele>
        <time>2021-06-19T19:21:41Z</time>
      </trkpt>
      <trkpt lat="42.317101" lon="1.194561">
        <ele>1867.951</ele>
        <time>2021-06-19T19:21:44Z</time>
      </trkpt>
      <trkpt lat="42.317072" lon="1.194806">
        <ele>1867.931</ele>
        <time>2021-06-19T19:21:50Z</time>
      </trkpt>
      <trkpt lat="42.317065" lon="1.194846">
        <ele>1868.034</ele>
        <time>2021-06-19T19:21:51Z</time>
      </trkpt>
      <trkpt lat="42.317022" lon="1.195064">
        <ele>1868.281</ele>
        <time>2021-06-19T19:21:57Z</time>
      </trkpt>
      <trkpt lat="42.316948" lon="1.195394">
        <ele>1868.923</ele>
        <time>2021-06-19T19:22:06Z</time>
      </trkpt>
      <trkpt lat="42.316942" lon="1.195432">
        <ele>1869.083</ele>
        <time>2021-06-19T19:22:07Z</time>
      </trkpt>
      <trkpt lat="42.316896" lon="1.195654">
        <ele>1869.311</ele>
        <time>2021-06-19T19:22:13Z</time>
      </trkpt>
      <trkpt lat="42.316861" lon="1.195772">
        <ele>1869.408</ele>
        <time>2021-06-19T19:22:16Z</time>
      </trkpt>
      <trkpt lat="42.316831" lon="1.195890">
        <ele>1869.719</ele>
        <time>2021-06-19T19:22:19Z</time>
      </trkpt>
      <trkpt lat="42.316784" lon="1.196050">
        <ele>1870.368</ele>
        <time>2021-06-19T19:22:24Z</time>
      </trkpt>
      <trkpt lat="42.316778" lon="1.196101">
        <ele>1870.214</ele>
        <time>2021-06-19T19:22:26Z</time>
      </trkpt>
      <trkpt lat="42.316774" lon="1.196172">
        <ele>1870.488</ele>
        <time>2021-06-19T19:22:29Z</time>
      </trkpt>
      <trkpt lat="42.316749" lon="1.196273">
        <ele>1871.132</ele>
        <time>2021-06-19T19:22:33Z</time>
      </trkpt>
      <trkpt lat="42.316743" lon="1.196336">
        <ele>1871.332</ele>
        <time>2021-06-19T19:22:35Z</time>
      </trkpt>
      <trkpt lat="42.316739" lon="1.196368">
        <ele>1871.425</ele>
        <time>2021-06-19T19:22:36Z</time>
      </trkpt>
      <trkpt lat="42.316730" lon="1.196577">
        <ele>1872.212</ele>
        <time>2021-06-19T19:22:43Z</time>
      </trkpt>
      <trkpt lat="42.316736" lon="1.196666">
        <ele>1872.398</ele>
        <time>2021-06-19T19:22:46Z</time>
      </trkpt>
      <trkpt lat="42.316747" lon="1.196778">
        <ele>1872.415</ele>
        <time>2021-06-19T19:22:50Z</time>
      </trkpt>
      <trkpt lat="42.316742" lon="1.196942">
        <ele>1873.126</ele>
        <time>2021-06-19T19:22:56Z</time>
      </trkpt>
      <trkpt lat="42.316741" lon="1.196998">
        <ele>1873.308</ele>
        <time>2021-06-19T19:22:58Z</time>
      </trkpt>
      <trkpt lat="42.316741" lon="1.197232">
        <ele>1874.166</ele>
        <time>2021-06-19T19:23:06Z</time>
      </trkpt>
      <trkpt lat="42.316741" lon="1.197262">
        <ele>1874.175</ele>
        <time>2021-06-19T19:23:07Z</time>
      </trkpt>
      <trkpt lat="42.316719" lon="1.197543">
        <ele>1874.731</ele>
        <time>2021-06-19T19:23:16Z</time>
      </trkpt>
      <trkpt lat="42.316706" lon="1.197805">
        <ele>1875.055</ele>
        <time>2021-06-19T19:23:23Z</time>
      </trkpt>
      <trkpt lat="42.316699" lon="1.197887">
        <ele>1875.239</ele>
        <time>2021-06-19T19:23:25Z</time>
      </trkpt>
      <trkpt lat="42.316676" lon="1.198117">
        <ele>1875.529</ele>
        <time>2021-06-19T19:23:31Z</time>
      </trkpt>
      <trkpt lat="42.316639" lon="1.198316">
        <ele>1875.822</ele>
        <time>2021-06-19T19:23:36Z</time>
      </trkpt>
      <trkpt lat="42.316608" lon="1.198463">
        <ele>1876.019</ele>
        <time>2021-06-19T19:23:40Z</time>
      </trkpt>
      <trkpt lat="42.316570" lon="1.198626">
        <ele>1876.436</ele>
        <time>2021-06-19T19:23:45Z</time>
      </trkpt>
      <trkpt lat="42.316505" lon="1.198852">
        <ele>1877.617</ele>
        <time>2021-06-19T19:23:53Z</time>
      </trkpt>
      <trkpt lat="42.316478" lon="1.198936">
        <ele>1877.918</ele>
        <time>2021-06-19T19:23:56Z</time>
      </trkpt>
      <trkpt lat="42.316391" lon="1.199181">
        <ele>1878.908</ele>
        <time>2021-06-19T19:24:05Z</time>
      </trkpt>
      <trkpt lat="42.316370" lon="1.199234">
        <ele>1879.150</ele>
        <time>2021-06-19T19:24:07Z</time>
      </trkpt>
      <trkpt lat="42.316277" lon="1.199509">
        <ele>1879.819</ele>
        <time>2021-06-19T19:24:17Z</time>
      </trkpt>
      <trkpt lat="42.316215" lon="1.199702">
        <ele>1880.265</ele>
        <time>2021-06-19T19:24:24Z</time>
      </trkpt>
      <trkpt lat="42.316187" lon="1.199802">
        <ele>1880.389</ele>
        <time>2021-06-19T19:24:27Z</time>
      </trkpt>
      <trkpt lat="42.316135" lon="1.200001">
        <ele>1880.613</ele>
        <time>2021-06-19T19:24:32Z</time>
      </trkpt>
      <trkpt lat="42.316078" lon="1.200233">
        <ele>1880.883</ele>
        <time>2021-06-19T19:24:38Z</time>
      </trkpt>
      <trkpt lat="42.316046" lon="1.200345">
        <ele>1880.966</ele>
        <time>2021-06-19T19:24:41Z</time>
      </trkpt>
      <trkpt lat="42.315962" lon="1.200636">
        <ele>1881.593</ele>
        <time>2021-06-19T19:24:49Z</time>
      </trkpt>
      <trkpt lat="42.315898" lon="1.200845">
        <ele>1882.061</ele>
        <time>2021-06-19T19:24:56Z</time>
      </trkpt>
      <trkpt lat="42.315862" lon="1.200955">
        <ele>1882.221</ele>
        <time>2021-06-19T19:25:00Z</time>
      </trkpt>
      <trkpt lat="42.315811" lon="1.201096">
        <ele>1882.513</ele>
        <time>2021-06-19T19:25:05Z</time>
      </trkpt>
      <trkpt lat="42.315749" lon="1.201230">
        <ele>1883.008</ele>
        <time>2021-06-19T19:25:10Z</time>
      </trkpt>
      <trkpt lat="42.315680" lon="1.201364">
        <ele>1883.313</ele>
        <time>2021-06-19T19:25:15Z</time>
      </trkpt>
      <trkpt lat="42.315587" lon="1.201520">
        <ele>1883.772</ele>
        <time>2021-06-19T19:25:21Z</time>
      </trkpt>
      <trkpt lat="42.315515" lon="1.201630">
        <ele>1883.738</ele>
        <time>2021-06-19T19:25:25Z</time>
      </trkpt>
      <trkpt lat="42.315374" lon="1.201862">
        <ele>1883.632</ele>
        <time>2021-06-19T19:25:32Z</time>
      </trkpt>
      <trkpt lat="42.315253" lon="1.202068">
        <ele>1884.226</ele>
        <time>2021-06-19T19:25:39Z</time>
      </trkpt>
      <trkpt lat="42.315204" lon="1.202154">
        <ele>1884.676</ele>
        <time>2021-06-19T19:25:42Z</time>
      </trkpt>
      <trkpt lat="42.315146" lon="1.202235">
        <ele>1884.929</ele>
        <time>2021-06-19T19:25:45Z</time>
      </trkpt>
      <trkpt lat="42.315012" lon="1.202436">
        <ele>1885.156</ele>
        <time>2021-06-19T19:25:52Z</time>
      </trkpt>
      <trkpt lat="42.314838" lon="1.202736">
        <ele>1884.594</ele>
        <time>2021-06-19T19:26:01Z</time>
      </trkpt>
      <trkpt lat="42.314818" lon="1.202775">
        <ele>1884.357</ele>
        <time>2021-06-19T19:26:02Z</time>
      </trkpt>
      <trkpt lat="42.314650" lon="1.203049">
        <ele>1884.322</ele>
        <time>2021-06-19T19:26:09Z</time>
      </trkpt>
      <trkpt lat="42.314562" lon="1.203184">
        <ele>1883.908</ele>
        <time>2021-06-19T19:26:13Z</time>
      </trkpt>
      <trkpt lat="42.314512" lon="1.203258">
        <ele>1883.956</ele>
        <time>2021-06-19T19:26:15Z</time>
      </trkpt>
      <trkpt lat="42.314300" lon="1.203505">
        <ele>1882.525</ele>
        <time>2021-06-19T19:26:22Z</time>
      </trkpt>
      <trkpt lat="42.314200" lon="1.203611">
        <ele>1881.941</ele>
        <time>2021-06-19T19:26:25Z</time>
      </trkpt>
      <trkpt lat="42.314072" lon="1.203772">
        <ele>1881.535</ele>
        <time>2021-06-19T19:26:29Z</time>
      </trkpt>
      <trkpt lat="42.314044" lon="1.203816">
        <ele>1881.499</ele>
        <time>2021-06-19T19:26:30Z</time>
      </trkpt>
      <trkpt lat="42.313900" lon="1.204044">
        <ele>1880.869</ele>
        <time>2021-06-19T19:26:35Z</time>
      </trkpt>
      <trkpt lat="42.313749" lon="1.204291">
        <ele>1880.182</ele>
        <time>2021-06-19T19:26:40Z</time>
      </trkpt>
      <trkpt lat="42.313649" lon="1.204445">
        <ele>1879.799</ele>
        <time>2021-06-19T19:26:43Z</time>
      </trkpt>
      <trkpt lat="42.313485" lon="1.204724">
        <ele>1877.934</ele>
        <time>2021-06-19T19:26:48Z</time>
      </trkpt>
      <trkpt lat="42.313460" lon="1.204791">
        <ele>1877.955</ele>
        <time>2021-06-19T19:26:49Z</time>
      </trkpt>
      <trkpt lat="42.313447" lon="1.205089">
        <ele>1877.410</ele>
        <time>2021-06-19T19:26:53Z</time>
      </trkpt>
      <trkpt lat="42.313458" lon="1.205157">
        <ele>1877.208</ele>
        <time>2021-06-19T19:26:54Z</time>
      </trkpt>
      <trkpt lat="42.313533" lon="1.205487">
        <ele>1876.350</ele>
        <time>2021-06-19T19:26:59Z</time>
      </trkpt>
      <trkpt lat="42.313636" lon="1.205941">
        <ele>1873.799</ele>
        <time>2021-06-19T19:27:05Z</time>
      </trkpt>
      <trkpt lat="42.313652" lon="1.206125">
        <ele>1872.245</ele>
        <time>2021-06-19T19:27:07Z</time>
      </trkpt>
      <trkpt lat="42.313656" lon="1.206322">
        <ele>1871.459</ele>
        <time>2021-06-19T19:27:09Z</time>
      </trkpt>
      <trkpt lat="42.313635" lon="1.206619">
        <ele>1870.053</ele>
        <time>2021-06-19T19:27:12Z</time>
      </trkpt>
      <trkpt lat="42.313602" lon="1.206796">
        <ele>1868.883</ele>
        <time>2021-06-19T19:27:14Z</time>
      </trkpt>
      <trkpt lat="42.313481" lon="1.207182">
        <ele>1865.536</ele>
        <time>2021-06-19T19:27:19Z</time>
      </trkpt>
      <trkpt lat="42.313442" lon="1.207255">
        <ele>1865.193</ele>
        <time>2021-06-19T19:27:20Z</time>
      </trkpt>
      <trkpt lat="42.313355" lon="1.207393">
        <ele>1864.598</ele>
        <time>2021-06-19T19:27:22Z</time>
      </trkpt>
      <trkpt lat="42.313205" lon="1.207577">
        <ele>1863.415</ele>
        <time>2021-06-19T19:27:25Z</time>
      </trkpt>
      <trkpt lat="42.312945" lon="1.207937">
        <ele>1862.926</ele>
        <time>2021-06-19T19:27:31Z</time>
      </trkpt>
      <trkpt lat="42.312766" lon="1.208367">
        <ele>1862.008</ele>
        <time>2021-06-19T19:27:37Z</time>
      </trkpt>
      <trkpt lat="42.312701" lon="1.208586">
        <ele>1861.656</ele>
        <time>2021-06-19T19:27:40Z</time>
      </trkpt>
      <trkpt lat="42.312591" lon="1.209044">
        <ele>1860.145</ele>
        <time>2021-06-19T19:27:46Z</time>
      </trkpt>
      <trkpt lat="42.312534" lon="1.209529">
        <ele>1856.711</ele>
        <time>2021-06-19T19:27:51Z</time>
      </trkpt>
      <trkpt lat="42.312439" lon="1.210290">
        <ele>1853.895</ele>
        <time>2021-06-19T19:27:58Z</time>
      </trkpt>
      <trkpt lat="42.312467" lon="1.210776">
        <ele>1853.799</ele>
        <time>2021-06-19T19:28:03Z</time>
      </trkpt>
      <trkpt lat="42.312534" lon="1.211125">
        <ele>1853.299</ele>
        <time>2021-06-19T19:28:07Z</time>
      </trkpt>
      <trkpt lat="42.312564" lon="1.211202">
        <ele>1852.912</ele>
        <time>2021-06-19T19:28:08Z</time>
      </trkpt>
      <trkpt lat="42.312629" lon="1.211347">
        <ele>1852.499</ele>
        <time>2021-06-19T19:28:10Z</time>
      </trkpt>
      <trkpt lat="42.312800" lon="1.211611">
        <ele>1851.274</ele>
        <time>2021-06-19T19:28:14Z</time>
      </trkpt>
      <trkpt lat="42.313166" lon="1.212053">
        <ele>1849.656</ele>
        <time>2021-06-19T19:28:22Z</time>
      </trkpt>
      <trkpt lat="42.313444" lon="1.212451">
        <ele>1846.721</ele>
        <time>2021-06-19T19:28:28Z</time>
      </trkpt>
      <trkpt lat="42.313529" lon="1.212606">
        <ele>1845.808</ele>
        <time>2021-06-19T19:28:30Z</time>
      </trkpt>
      <trkpt lat="42.313642" lon="1.212861">
        <ele>1844.834</ele>
        <time>2021-06-19T19:28:33Z</time>
      </trkpt>
      <trkpt lat="42.313702" lon="1.213037">
        <ele>1844.783</ele>
        <time>2021-06-19T19:28:35Z</time>
      </trkpt>
      <trkpt lat="42.313755" lon="1.213307">
        <ele>1843.639</ele>
        <time>2021-06-19T19:28:38Z</time>
      </trkpt>
      <trkpt lat="42.313763" lon="1.213400">
        <ele>1843.213</ele>
        <time>2021-06-19T19:28:39Z</time>
      </trkpt>
      <trkpt lat="42.313755" lon="1.213684">
        <ele>1842.127</ele>
        <time>2021-06-19T19:28:42Z</time>
      </trkpt>
      <trkpt lat="42.313729" lon="1.213964">
        <ele>1840.517</ele>
        <time>2021-06-19T19:28:46Z</time>
      </trkpt>
      <trkpt lat="42.313687" lon="1.214222">
        <ele>1838.720</ele>
        <time>2021-06-19T19:28:51Z</time>
      </trkpt>
      <trkpt lat="42.313674" lon="1.214284">
        <ele>1838.317</ele>
        <time>2021-06-19T19:28:52Z</time>
      </trkpt>
      <trkpt lat="42.313603" lon="1.214547">
        <ele>1836.631</ele>
        <time>2021-06-19T19:28:56Z</time>
      </trkpt>
      <trkpt lat="42.313493" lon="1.214722">
        <ele>1835.261</ele>
        <time>2021-06-19T19:29:00Z</time>
      </trkpt>
      <trkpt lat="42.313483" lon="1.214732">
        <ele>1835.007</ele>
        <time>2021-06-19T19:29:03Z</time>
      </trkpt>
      <trkpt lat="42.313469" lon="1.214749">
        <ele>1834.808</ele>
        <time>2021-06-19T19:29:56Z</time>
      </trkpt>
      <trkpt lat="42.313458" lon="1.214771">
        <ele>1834.620</ele>
        <time>2021-06-19T19:29:59Z</time>
      </trkpt>
      <trkpt lat="42.313440" lon="1.214788">
        <ele>1834.489</ele>
        <time>2021-06-19T19:31:31Z</time>
      </trkpt>
      <trkpt lat="42.313336" lon="1.214878">
        <ele>1833.535</ele>
        <time>2021-06-19T19:31:35Z</time>
      </trkpt>
      <trkpt lat="42.313146" lon="1.215038">
        <ele>1830.139</ele>
        <time>2021-06-19T19:31:39Z</time>
      </trkpt>
      <trkpt lat="42.312896" lon="1.215243">
        <ele>1826.353</ele>
        <time>2021-06-19T19:31:44Z</time>
      </trkpt>
      <trkpt lat="42.312868" lon="1.215271">
        <ele>1826.053</ele>
        <time>2021-06-19T19:31:47Z</time>
      </trkpt>
      <trkpt lat="42.312837" lon="1.215290">
        <ele>1825.686</ele>
        <time>2021-06-19T19:32:32Z</time>
      </trkpt>
      <trkpt lat="42.312787" lon="1.215326">
        <ele>1825.173</ele>
        <time>2021-06-19T19:32:34Z</time>
      </trkpt>
      <trkpt lat="42.312592" lon="1.215460">
        <ele>1822.885</ele>
        <time>2021-06-19T19:32:39Z</time>
      </trkpt>
      <trkpt lat="42.312303" lon="1.215611">
        <ele>1819.489</ele>
        <time>2021-06-19T19:32:45Z</time>
      </trkpt>
      <trkpt lat="42.312092" lon="1.215766">
        <ele>1816.817</ele>
        <time>2021-06-19T19:32:50Z</time>
      </trkpt>
      <trkpt lat="42.312047" lon="1.215809">
        <ele>1816.308</ele>
        <time>2021-06-19T19:32:51Z</time>
      </trkpt>
      <trkpt lat="42.311801" lon="1.216040">
        <ele>1813.555</ele>
        <time>2021-06-19T19:32:56Z</time>
      </trkpt>
      <trkpt lat="42.311488" lon="1.216440">
        <ele>1809.944</ele>
        <time>2021-06-19T19:33:03Z</time>
      </trkpt>
      <trkpt lat="42.311426" lon="1.216553">
        <ele>1809.220</ele>
        <time>2021-06-19T19:33:05Z</time>
      </trkpt>
      <trkpt lat="42.311404" lon="1.216608">
        <ele>1809.034</ele>
        <time>2021-06-19T19:33:06Z</time>
      </trkpt>
      <trkpt lat="42.311380" lon="1.216662">
        <ele>1808.848</ele>
        <time>2021-06-19T19:33:07Z</time>
      </trkpt>
      <trkpt lat="42.311330" lon="1.216771">
        <ele>1807.488</ele>
        <time>2021-06-19T19:33:09Z</time>
      </trkpt>
      <trkpt lat="42.311264" lon="1.216989">
        <ele>1805.371</ele>
        <time>2021-06-19T19:33:13Z</time>
      </trkpt>
      <trkpt lat="42.311253" lon="1.217096">
        <ele>1804.258</ele>
        <time>2021-06-19T19:33:15Z</time>
      </trkpt>
      <trkpt lat="42.311261" lon="1.217223">
        <ele>1803.122</ele>
        <time>2021-06-19T19:33:17Z</time>
      </trkpt>
      <trkpt lat="42.311284" lon="1.217366">
        <ele>1801.562</ele>
        <time>2021-06-19T19:33:19Z</time>
      </trkpt>
      <trkpt lat="42.311344" lon="1.217591">
        <ele>1800.208</ele>
        <time>2021-06-19T19:33:22Z</time>
      </trkpt>
      <trkpt lat="42.311367" lon="1.217936">
        <ele>1798.308</ele>
        <time>2021-06-19T19:33:26Z</time>
      </trkpt>
      <trkpt lat="42.311314" lon="1.218350">
        <ele>1796.079</ele>
        <time>2021-06-19T19:33:31Z</time>
      </trkpt>
      <trkpt lat="42.311289" lon="1.218422">
        <ele>1795.198</ele>
        <time>2021-06-19T19:33:32Z</time>
      </trkpt>
      <trkpt lat="42.311164" lon="1.218581">
        <ele>1792.654</ele>
        <time>2021-06-19T19:33:35Z</time>
      </trkpt>
      <trkpt lat="42.311054" lon="1.218668">
        <ele>1791.018</ele>
        <time>2021-06-19T19:33:37Z</time>
      </trkpt>
      <trkpt lat="42.310891" lon="1.218801">
        <ele>1788.882</ele>
        <time>2021-06-19T19:33:40Z</time>
      </trkpt>
      <trkpt lat="42.310783" lon="1.218893">
        <ele>1787.442</ele>
        <time>2021-06-19T19:33:42Z</time>
      </trkpt>
      <trkpt lat="42.310526" lon="1.219142">
        <ele>1783.825</ele>
        <time>2021-06-19T19:33:47Z</time>
      </trkpt>
      <trkpt lat="42.310375" lon="1.219299">
        <ele>1781.722</ele>
        <time>2021-06-19T19:33:50Z</time>
      </trkpt>
      <trkpt lat="42.310313" lon="1.219340">
        <ele>1781.281</ele>
        <time>2021-06-19T19:33:51Z</time>
      </trkpt>
      <trkpt lat="42.310190" lon="1.219370">
        <ele>1780.261</ele>
        <time>2021-06-19T19:33:53Z</time>
      </trkpt>
      <trkpt lat="42.310128" lon="1.219369">
        <ele>1779.617</ele>
        <time>2021-06-19T19:33:54Z</time>
      </trkpt>
      <trkpt lat="42.309828" lon="1.219341">
        <ele>1776.808</ele>
        <time>2021-06-19T19:33:59Z</time>
      </trkpt>
      <trkpt lat="42.309728" lon="1.219334">
        <ele>1775.955</ele>
        <time>2021-06-19T19:34:01Z</time>
      </trkpt>
      <trkpt lat="42.309570" lon="1.219345">
        <ele>1774.164</ele>
        <time>2021-06-19T19:34:04Z</time>
      </trkpt>
      <trkpt lat="42.309515" lon="1.219363">
        <ele>1773.780</ele>
        <time>2021-06-19T19:34:05Z</time>
      </trkpt>
      <trkpt lat="42.309460" lon="1.219381">
        <ele>1773.384</ele>
        <time>2021-06-19T19:34:06Z</time>
      </trkpt>
      <trkpt lat="42.309284" lon="1.219444">
        <ele>1771.198</ele>
        <time>2021-06-19T19:34:09Z</time>
      </trkpt>
      <trkpt lat="42.309223" lon="1.219474">
        <ele>1770.538</ele>
        <time>2021-06-19T19:34:10Z</time>
      </trkpt>
      <trkpt lat="42.309044" lon="1.219554">
        <ele>1768.191</ele>
        <time>2021-06-19T19:34:13Z</time>
      </trkpt>
      <trkpt lat="42.308985" lon="1.219589">
        <ele>1767.438</ele>
        <time>2021-06-19T19:34:14Z</time>
      </trkpt>
      <trkpt lat="42.308871" lon="1.219671">
        <ele>1766.361</ele>
        <time>2021-06-19T19:34:16Z</time>
      </trkpt>
      <trkpt lat="42.308767" lon="1.219770">
        <ele>1764.721</ele>
        <time>2021-06-19T19:34:18Z</time>
      </trkpt>
      <trkpt lat="42.308684" lon="1.219891">
        <ele>1763.313</ele>
        <time>2021-06-19T19:34:20Z</time>
      </trkpt>
      <trkpt lat="42.308624" lon="1.220094">
        <ele>1761.508</ele>
        <time>2021-06-19T19:34:23Z</time>
      </trkpt>
      <trkpt lat="42.308677" lon="1.220363">
        <ele>1760.423</ele>
        <time>2021-06-19T19:34:27Z</time>
      </trkpt>
      <trkpt lat="42.308732" lon="1.220542">
        <ele>1759.832</ele>
        <time>2021-06-19T19:34:30Z</time>
      </trkpt>
      <trkpt lat="42.308749" lon="1.220665">
        <ele>1760.288</ele>
        <time>2021-06-19T19:34:32Z</time>
      </trkpt>
      <trkpt lat="42.308743" lon="1.220758">
        <ele>1759.732</ele>
        <time>2021-06-19T19:34:34Z</time>
      </trkpt>
      <trkpt lat="42.308738" lon="1.220784">
        <ele>1759.426</ele>
        <time>2021-06-19T19:34:35Z</time>
      </trkpt>
      <trkpt lat="42.308737" lon="1.220798">
        <ele>1759.396</ele>
        <time>2021-06-19T19:34:37Z</time>
      </trkpt>
      <trkpt lat="42.308744" lon="1.220830">
        <ele>1759.719</ele>
        <time>2021-06-19T19:35:20Z</time>
      </trkpt>
      <trkpt lat="42.308748" lon="1.220858">
        <ele>1760.066</ele>
        <time>2021-06-19T19:35:21Z</time>
      </trkpt>
      <trkpt lat="42.308722" lon="1.221052">
        <ele>1759.634</ele>
        <time>2021-06-19T19:35:25Z</time>
      </trkpt>
      <trkpt lat="42.308713" lon="1.221105">
        <ele>1759.555</ele>
        <time>2021-06-19T19:35:26Z</time>
      </trkpt>
      <trkpt lat="42.308672" lon="1.221326">
        <ele>1758.810</ele>
        <time>2021-06-19T19:35:30Z</time>
      </trkpt>
      <trkpt lat="42.308665" lon="1.221438">
        <ele>1758.808</ele>
        <time>2021-06-19T19:35:32Z</time>
      </trkpt>
      <trkpt lat="42.308662" lon="1.221556">
        <ele>1758.520</ele>
        <time>2021-06-19T19:35:34Z</time>
      </trkpt>
      <trkpt lat="42.308598" lon="1.221708">
        <ele>1757.419</ele>
        <time>2021-06-19T19:35:37Z</time>
      </trkpt>
      <trkpt lat="42.308506" lon="1.221732">
        <ele>1756.575</ele>
        <time>2021-06-19T19:35:39Z</time>
      </trkpt>
      <trkpt lat="42.308460" lon="1.221728">
        <ele>1755.579</ele>
        <time>2021-06-19T19:35:40Z</time>
      </trkpt>
      <trkpt lat="42.308266" lon="1.221764">
        <ele>1752.323</ele>
        <time>2021-06-19T19:35:44Z</time>
      </trkpt>
      <trkpt lat="42.308215" lon="1.221790">
        <ele>1751.613</ele>
        <time>2021-06-19T19:35:45Z</time>
      </trkpt>
      <trkpt lat="42.308162" lon="1.221824">
        <ele>1751.186</ele>
        <time>2021-06-19T19:35:46Z</time>
      </trkpt>
      <trkpt lat="42.307997" lon="1.221959">
        <ele>1749.213</ele>
        <time>2021-06-19T19:35:49Z</time>
      </trkpt>
      <trkpt lat="42.307642" lon="1.222358">
        <ele>1745.122</ele>
        <time>2021-06-19T19:35:56Z</time>
      </trkpt>
      <trkpt lat="42.307555" lon="1.222500">
        <ele>1744.462</ele>
        <time>2021-06-19T19:35:58Z</time>
      </trkpt>
      <trkpt lat="42.307437" lon="1.222736">
        <ele>1742.908</ele>
        <time>2021-06-19T19:36:01Z</time>
      </trkpt>
      <trkpt lat="42.307230" lon="1.223279">
        <ele>1738.908</ele>
        <time>2021-06-19T19:36:07Z</time>
      </trkpt>
      <trkpt lat="42.307126" lon="1.223546">
        <ele>1737.599</ele>
        <time>2021-06-19T19:36:10Z</time>
      </trkpt>
      <trkpt lat="42.307106" lon="1.223634">
        <ele>1737.118</ele>
        <time>2021-06-19T19:36:11Z</time>
      </trkpt>
      <trkpt lat="42.307094" lon="1.223722">
        <ele>1736.034</ele>
        <time>2021-06-19T19:36:12Z</time>
      </trkpt>
      <trkpt lat="42.307059" lon="1.224055">
        <ele>1735.088</ele>
        <time>2021-06-19T19:36:16Z</time>
      </trkpt>
      <trkpt lat="42.306923" lon="1.224220">
        <ele>1733.922</ele>
        <time>2021-06-19T19:36:19Z</time>
      </trkpt>
      <trkpt lat="42.306862" lon="1.224256">
        <ele>1733.682</ele>
        <time>2021-06-19T19:36:20Z</time>
      </trkpt>
      <trkpt lat="42.306603" lon="1.224391">
        <ele>1732.045</ele>
        <time>2021-06-19T19:36:24Z</time>
      </trkpt>
      <trkpt lat="42.306155" lon="1.224573">
        <ele>1729.392</ele>
        <time>2021-06-19T19:36:30Z</time>
      </trkpt>
      <trkpt lat="42.305628" lon="1.224646">
        <ele>1727.268</ele>
        <time>2021-06-19T19:36:37Z</time>
      </trkpt>
      <trkpt lat="42.305370" lon="1.224767">
        <ele>1726.842</ele>
        <time>2021-06-19T19:36:41Z</time>
      </trkpt>
      <trkpt lat="42.305312" lon="1.224807">
        <ele>1726.826</ele>
        <time>2021-06-19T19:36:42Z</time>
      </trkpt>
      <trkpt lat="42.305013" lon="1.225132">
        <ele>1725.308</ele>
        <time>2021-06-19T19:36:48Z</time>
      </trkpt>
      <trkpt lat="42.304875" lon="1.225335">
        <ele>1723.893</ele>
        <time>2021-06-19T19:36:51Z</time>
      </trkpt>
      <trkpt lat="42.304740" lon="1.225553">
        <ele>1722.752</ele>
        <time>2021-06-19T19:36:54Z</time>
      </trkpt>
      <trkpt lat="42.304463" lon="1.225946">
        <ele>1720.688</ele>
        <time>2021-06-19T19:37:00Z</time>
      </trkpt>
      <trkpt lat="42.304232" lon="1.226216">
        <ele>1718.252</ele>
        <time>2021-06-19T19:37:05Z</time>
      </trkpt>
      <trkpt lat="42.304188" lon="1.226272">
        <ele>1717.936</ele>
        <time>2021-06-19T19:37:06Z</time>
      </trkpt>
      <trkpt lat="42.303963" lon="1.226535">
        <ele>1715.476</ele>
        <time>2021-06-19T19:37:11Z</time>
      </trkpt>
      <trkpt lat="42.303770" lon="1.226868">
        <ele>1712.549</ele>
        <time>2021-06-19T19:37:16Z</time>
      </trkpt>
      <trkpt lat="42.303743" lon="1.226948">
        <ele>1712.236</ele>
        <time>2021-06-19T19:37:17Z</time>
      </trkpt>
      <trkpt lat="42.303723" lon="1.227193">
        <ele>1710.785</ele>
        <time>2021-06-19T19:37:20Z</time>
      </trkpt>
      <trkpt lat="42.303731" lon="1.227275">
        <ele>1710.189</ele>
        <time>2021-06-19T19:37:21Z</time>
      </trkpt>
      <trkpt lat="42.303744" lon="1.227358">
        <ele>1709.517</ele>
        <time>2021-06-19T19:37:22Z</time>
      </trkpt>
      <trkpt lat="42.303775" lon="1.227524">
        <ele>1709.108</ele>
        <time>2021-06-19T19:37:24Z</time>
      </trkpt>
      <trkpt lat="42.303780" lon="1.227602">
        <ele>1709.635</ele>
        <time>2021-06-19T19:37:25Z</time>
      </trkpt>
      <trkpt lat="42.303770" lon="1.227922">
        <ele>1709.264</ele>
        <time>2021-06-19T19:37:30Z</time>
      </trkpt>
      <trkpt lat="42.303754" lon="1.228015">
        <ele>1708.270</ele>
        <time>2021-06-19T19:37:34Z</time>
      </trkpt>
      <trkpt lat="42.303754" lon="1.228015">
        <ele>1708.234</ele>
        <time>2021-06-19T19:37:35Z</time>
      </trkpt>
      <trkpt lat="42.303757" lon="1.228063">
        <ele>1708.418</ele>
        <time>2021-06-19T19:38:23Z</time>
      </trkpt>
      <trkpt lat="42.303754" lon="1.228104">
        <ele>1708.198</ele>
        <time>2021-06-19T19:38:24Z</time>
      </trkpt>
      <trkpt lat="42.303760" lon="1.228365">
        <ele>1707.791</ele>
        <time>2021-06-19T19:38:28Z</time>
      </trkpt>
      <trkpt lat="42.303813" lon="1.228609">
        <ele>1707.548</ele>
        <time>2021-06-19T19:38:32Z</time>
      </trkpt>
      <trkpt lat="42.303908" lon="1.228820">
        <ele>1705.071</ele>
        <time>2021-06-19T19:38:36Z</time>
      </trkpt>
      <trkpt lat="42.303943" lon="1.228872">
        <ele>1704.741</ele>
        <time>2021-06-19T19:38:37Z</time>
      </trkpt>
      <trkpt lat="42.303982" lon="1.228926">
        <ele>1704.515</ele>
        <time>2021-06-19T19:38:38Z</time>
      </trkpt>
      <trkpt lat="42.304122" lon="1.229099">
        <ele>1704.408</ele>
        <time>2021-06-19T19:38:41Z</time>
      </trkpt>
      <trkpt lat="42.304158" lon="1.229163">
        <ele>1703.814</ele>
        <time>2021-06-19T19:38:42Z</time>
      </trkpt>
      <trkpt lat="42.304169" lon="1.229376">
        <ele>1704.163</ele>
        <time>2021-06-19T19:38:45Z</time>
      </trkpt>
      <trkpt lat="42.304050" lon="1.229561">
        <ele>1702.229</ele>
        <time>2021-06-19T19:38:48Z</time>
      </trkpt>
      <trkpt lat="42.303997" lon="1.229612">
        <ele>1701.643</ele>
        <time>2021-06-19T19:38:49Z</time>
      </trkpt>
      <trkpt lat="42.303942" lon="1.229665">
        <ele>1701.227</ele>
        <time>2021-06-19T19:38:50Z</time>
      </trkpt>
      <trkpt lat="42.303667" lon="1.229908">
        <ele>1700.067</ele>
        <time>2021-06-19T19:38:55Z</time>
      </trkpt>
      <trkpt lat="42.303427" lon="1.230067">
        <ele>1698.530</ele>
        <time>2021-06-19T19:38:59Z</time>
      </trkpt>
      <trkpt lat="42.303296" lon="1.230134">
        <ele>1696.977</ele>
        <time>2021-06-19T19:39:01Z</time>
      </trkpt>
      <trkpt lat="42.303155" lon="1.230197">
        <ele>1695.618</ele>
        <time>2021-06-19T19:39:03Z</time>
      </trkpt>
      <trkpt lat="42.303006" lon="1.230218">
        <ele>1694.198</ele>
        <time>2021-06-19T19:39:05Z</time>
      </trkpt>
      <trkpt lat="42.302851" lon="1.230148">
        <ele>1693.217</ele>
        <time>2021-06-19T19:39:08Z</time>
      </trkpt>
      <trkpt lat="42.302778" lon="1.230041">
        <ele>1693.008</ele>
        <time>2021-06-19T19:39:10Z</time>
      </trkpt>
      <trkpt lat="42.302740" lon="1.229986">
        <ele>1693.138</ele>
        <time>2021-06-19T19:39:11Z</time>
      </trkpt>
      <trkpt lat="42.302620" lon="1.229812">
        <ele>1691.817</ele>
        <time>2021-06-19T19:39:14Z</time>
      </trkpt>
      <trkpt lat="42.302534" lon="1.229699">
        <ele>1691.653</ele>
        <time>2021-06-19T19:39:16Z</time>
      </trkpt>
      <trkpt lat="42.302393" lon="1.229520">
        <ele>1689.347</ele>
        <time>2021-06-19T19:39:19Z</time>
      </trkpt>
      <trkpt lat="42.302288" lon="1.229395">
        <ele>1688.211</ele>
        <time>2021-06-19T19:39:21Z</time>
      </trkpt>
      <trkpt lat="42.302050" lon="1.229157">
        <ele>1686.281</ele>
        <time>2021-06-19T19:39:25Z</time>
      </trkpt>
      <trkpt lat="42.301738" lon="1.228871">
        <ele>1683.934</ele>
        <time>2021-06-19T19:39:30Z</time>
      </trkpt>
      <trkpt lat="42.301609" lon="1.228763">
        <ele>1682.531</ele>
        <time>2021-06-19T19:39:32Z</time>
      </trkpt>
      <trkpt lat="42.301279" lon="1.228595">
        <ele>1679.497</ele>
        <time>2021-06-19T19:39:37Z</time>
      </trkpt>
      <trkpt lat="42.301144" lon="1.228577">
        <ele>1678.923</ele>
        <time>2021-06-19T19:39:39Z</time>
      </trkpt>
      <trkpt lat="42.301007" lon="1.228602">
        <ele>1677.825</ele>
        <time>2021-06-19T19:39:41Z</time>
      </trkpt>
      <trkpt lat="42.300872" lon="1.228665">
        <ele>1677.308</ele>
        <time>2021-06-19T19:39:43Z</time>
      </trkpt>
      <trkpt lat="42.300670" lon="1.228775">
        <ele>1675.626</ele>
        <time>2021-06-19T19:39:46Z</time>
      </trkpt>
      <trkpt lat="42.300526" lon="1.228843">
        <ele>1674.065</ele>
        <time>2021-06-19T19:39:48Z</time>
      </trkpt>
      <trkpt lat="42.300318" lon="1.228946">
        <ele>1672.381</ele>
        <time>2021-06-19T19:39:51Z</time>
      </trkpt>
      <trkpt lat="42.299922" lon="1.229122">
        <ele>1669.555</ele>
        <time>2021-06-19T19:39:57Z</time>
      </trkpt>
      <trkpt lat="42.299852" lon="1.229152">
        <ele>1669.059</ele>
        <time>2021-06-19T19:39:58Z</time>
      </trkpt>
      <trkpt lat="42.299440" lon="1.229280">
        <ele>1664.079</ele>
        <time>2021-06-19T19:40:04Z</time>
      </trkpt>
      <trkpt lat="42.299173" lon="1.229353">
        <ele>1661.132</ele>
        <time>2021-06-19T19:40:08Z</time>
      </trkpt>
      <trkpt lat="42.299060" lon="1.229385">
        <ele>1659.759</ele>
        <time>2021-06-19T19:40:10Z</time>
      </trkpt>
      <trkpt lat="42.298832" lon="1.229469">
        <ele>1657.172</ele>
        <time>2021-06-19T19:40:14Z</time>
      </trkpt>
      <trkpt lat="42.298774" lon="1.229486">
        <ele>1656.113</ele>
        <time>2021-06-19T19:40:15Z</time>
      </trkpt>
      <trkpt lat="42.298370" lon="1.229613">
        <ele>1649.814</ele>
        <time>2021-06-19T19:40:22Z</time>
      </trkpt>
      <trkpt lat="42.298248" lon="1.229640">
        <ele>1648.008</ele>
        <time>2021-06-19T19:40:24Z</time>
      </trkpt>
      <trkpt lat="42.297980" lon="1.229672">
        <ele>1644.084</ele>
        <time>2021-06-19T19:40:28Z</time>
      </trkpt>
      <trkpt lat="42.297798" lon="1.229691">
        <ele>1642.123</ele>
        <time>2021-06-19T19:40:32Z</time>
      </trkpt>
      <trkpt lat="42.297759" lon="1.229684">
        <ele>1641.829</ele>
        <time>2021-06-19T19:40:33Z</time>
      </trkpt>
      <trkpt lat="42.297718" lon="1.229685">
        <ele>1641.663</ele>
        <time>2021-06-19T19:40:34Z</time>
      </trkpt>
      <trkpt lat="42.297583" lon="1.229701">
        <ele>1641.297</ele>
        <time>2021-06-19T19:40:37Z</time>
      </trkpt>
      <trkpt lat="42.297488" lon="1.229712">
        <ele>1640.997</ele>
        <time>2021-06-19T19:40:39Z</time>
      </trkpt>
      <trkpt lat="42.297443" lon="1.229723">
        <ele>1641.020</ele>
        <time>2021-06-19T19:40:40Z</time>
      </trkpt>
      <trkpt lat="42.297372" lon="1.229745">
        <ele>1640.537</ele>
        <time>2021-06-19T19:40:42Z</time>
      </trkpt>
      <trkpt lat="42.297284" lon="1.229758">
        <ele>1640.229</ele>
        <time>2021-06-19T19:40:46Z</time>
      </trkpt>
      <trkpt lat="42.297151" lon="1.229747">
        <ele>1640.000</ele>
        <time>2021-06-19T19:40:50Z</time>
      </trkpt>
      <trkpt lat="42.297130" lon="1.229746">
        <ele>1639.820</ele>
        <time>2021-06-19T19:40:51Z</time>
      </trkpt>
      <trkpt lat="42.297100" lon="1.229742">
        <ele>1639.708</ele>
        <time>2021-06-19T19:40:55Z</time>
      </trkpt>
      <trkpt lat="42.297094" lon="1.229741">
        <ele>1639.779</ele>
        <time>2021-06-19T19:40:57Z</time>
      </trkpt>
      <trkpt lat="42.297076" lon="1.229730">
        <ele>1639.868</ele>
        <time>2021-06-19T19:42:21Z</time>
      </trkpt>
      <trkpt lat="42.297057" lon="1.229723">
        <ele>1639.874</ele>
        <time>2021-06-19T19:42:22Z</time>
      </trkpt>
      <trkpt lat="42.296927" lon="1.229682">
        <ele>1638.718</ele>
        <time>2021-06-19T19:42:26Z</time>
      </trkpt>
      <trkpt lat="42.296846" lon="1.229663">
        <ele>1638.092</ele>
        <time>2021-06-19T19:42:28Z</time>
      </trkpt>
      <trkpt lat="42.296718" lon="1.229624">
        <ele>1637.132</ele>
        <time>2021-06-19T19:42:31Z</time>
      </trkpt>
      <trkpt lat="42.296672" lon="1.229610">
        <ele>1636.825</ele>
        <time>2021-06-19T19:42:32Z</time>
      </trkpt>
      <trkpt lat="42.296325" lon="1.229515">
        <ele>1635.712</ele>
        <time>2021-06-19T19:42:39Z</time>
      </trkpt>
      <trkpt lat="42.296020" lon="1.229411">
        <ele>1633.144</ele>
        <time>2021-06-19T19:42:44Z</time>
      </trkpt>
      <trkpt lat="42.295895" lon="1.229345">
        <ele>1631.605</ele>
        <time>2021-06-19T19:42:46Z</time>
      </trkpt>
      <trkpt lat="42.295711" lon="1.229249">
        <ele>1630.215</ele>
        <time>2021-06-19T19:42:49Z</time>
      </trkpt>
      <trkpt lat="42.295646" lon="1.229226">
        <ele>1629.708</ele>
        <time>2021-06-19T19:42:50Z</time>
      </trkpt>
      <trkpt lat="42.295516" lon="1.229196">
        <ele>1628.581</ele>
        <time>2021-06-19T19:42:52Z</time>
      </trkpt>
      <trkpt lat="42.295388" lon="1.229216">
        <ele>1626.160</ele>
        <time>2021-06-19T19:42:54Z</time>
      </trkpt>
      <trkpt lat="42.295258" lon="1.229247">
        <ele>1623.526</ele>
        <time>2021-06-19T19:42:56Z</time>
      </trkpt>
      <trkpt lat="42.294982" lon="1.229267">
        <ele>1620.060</ele>
        <time>2021-06-19T19:43:00Z</time>
      </trkpt>
      <trkpt lat="42.294840" lon="1.229275">
        <ele>1618.284</ele>
        <time>2021-06-19T19:43:02Z</time>
      </trkpt>
      <trkpt lat="42.294638" lon="1.229279">
        <ele>1615.934</ele>
        <time>2021-06-19T19:43:05Z</time>
      </trkpt>
      <trkpt lat="42.294503" lon="1.229279">
        <ele>1614.417</ele>
        <time>2021-06-19T19:43:07Z</time>
      </trkpt>
      <trkpt lat="42.294258" lon="1.229170">
        <ele>1612.324</ele>
        <time>2021-06-19T19:43:11Z</time>
      </trkpt>
      <trkpt lat="42.294021" lon="1.229011">
        <ele>1608.238</ele>
        <time>2021-06-19T19:43:15Z</time>
      </trkpt>
      <trkpt lat="42.293953" lon="1.228973">
        <ele>1607.770</ele>
        <time>2021-06-19T19:43:16Z</time>
      </trkpt>
      <trkpt lat="42.293814" lon="1.228907">
        <ele>1608.317</ele>
        <time>2021-06-19T19:43:18Z</time>
      </trkpt>
      <trkpt lat="42.293680" lon="1.228886">
        <ele>1609.508</ele>
        <time>2021-06-19T19:43:20Z</time>
      </trkpt>
      <trkpt lat="42.293416" lon="1.228887">
        <ele>1610.090</ele>
        <time>2021-06-19T19:43:25Z</time>
      </trkpt>
      <trkpt lat="42.293310" lon="1.228893">
        <ele>1610.019</ele>
        <time>2021-06-19T19:43:27Z</time>
      </trkpt>
      <trkpt lat="42.293252" lon="1.228905">
        <ele>1609.915</ele>
        <time>2021-06-19T19:43:28Z</time>
      </trkpt>
      <trkpt lat="42.293128" lon="1.228938">
        <ele>1609.559</ele>
        <time>2021-06-19T19:43:30Z</time>
      </trkpt>
      <trkpt lat="42.292896" lon="1.229016">
        <ele>1607.573</ele>
        <time>2021-06-19T19:43:34Z</time>
      </trkpt>
      <trkpt lat="42.292838" lon="1.229029">
        <ele>1607.133</ele>
        <time>2021-06-19T19:43:35Z</time>
      </trkpt>
      <trkpt lat="42.292780" lon="1.229033">
        <ele>1606.946</ele>
        <time>2021-06-19T19:43:36Z</time>
      </trkpt>
      <trkpt lat="42.292619" lon="1.228978">
        <ele>1604.673</ele>
        <time>2021-06-19T19:43:39Z</time>
      </trkpt>
      <trkpt lat="42.292567" lon="1.228946">
        <ele>1604.253</ele>
        <time>2021-06-19T19:43:40Z</time>
      </trkpt>
      <trkpt lat="42.292407" lon="1.228819">
        <ele>1601.904</ele>
        <time>2021-06-19T19:43:43Z</time>
      </trkpt>
      <trkpt lat="42.292352" lon="1.228758">
        <ele>1601.214</ele>
        <time>2021-06-19T19:43:44Z</time>
      </trkpt>
      <trkpt lat="42.292298" lon="1.228696">
        <ele>1600.708</ele>
        <time>2021-06-19T19:43:45Z</time>
      </trkpt>
      <trkpt lat="42.292056" lon="1.228389">
        <ele>1599.982</ele>
        <time>2021-06-19T19:43:50Z</time>
      </trkpt>
      <trkpt lat="42.292011" lon="1.228331">
        <ele>1599.751</ele>
        <time>2021-06-19T19:43:51Z</time>
      </trkpt>
      <trkpt lat="42.291820" lon="1.228090">
        <ele>1599.947</ele>
        <time>2021-06-19T19:43:56Z</time>
      </trkpt>
      <trkpt lat="42.291743" lon="1.228017">
        <ele>1600.131</ele>
        <time>2021-06-19T19:43:58Z</time>
      </trkpt>
      <trkpt lat="42.291662" lon="1.227954">
        <ele>1600.245</ele>
        <time>2021-06-19T19:44:00Z</time>
      </trkpt>
      <trkpt lat="42.291620" lon="1.227931">
        <ele>1600.615</ele>
        <time>2021-06-19T19:44:01Z</time>
      </trkpt>
      <trkpt lat="42.291536" lon="1.227896">
        <ele>1601.028</ele>
        <time>2021-06-19T19:44:03Z</time>
      </trkpt>
      <trkpt lat="42.291406" lon="1.227890">
        <ele>1600.165</ele>
        <time>2021-06-19T19:44:06Z</time>
      </trkpt>
      <trkpt lat="42.291361" lon="1.227898">
        <ele>1600.081</ele>
        <time>2021-06-19T19:44:07Z</time>
      </trkpt>
      <trkpt lat="42.291133" lon="1.227976">
        <ele>1599.961</ele>
        <time>2021-06-19T19:44:12Z</time>
      </trkpt>
      <trkpt lat="42.291036" lon="1.228016">
        <ele>1599.817</ele>
        <time>2021-06-19T19:44:14Z</time>
      </trkpt>
      <trkpt lat="42.290888" lon="1.228134">
        <ele>1598.108</ele>
        <time>2021-06-19T19:44:17Z</time>
      </trkpt>
      <trkpt lat="42.290692" lon="1.228337">
        <ele>1596.035</ele>
        <time>2021-06-19T19:44:21Z</time>
      </trkpt>
      <trkpt lat="42.290605" lon="1.228432">
        <ele>1595.684</ele>
        <time>2021-06-19T19:44:23Z</time>
      </trkpt>
      <trkpt lat="42.290374" lon="1.228727">
        <ele>1593.930</ele>
        <time>2021-06-19T19:44:29Z</time>
      </trkpt>
      <trkpt lat="42.290335" lon="1.228774">
        <ele>1593.744</ele>
        <time>2021-06-19T19:44:30Z</time>
      </trkpt>
      <trkpt lat="42.290125" lon="1.229003">
        <ele>1593.738</ele>
        <time>2021-06-19T19:44:36Z</time>
      </trkpt>
      <trkpt lat="42.290063" lon="1.229082">
        <ele>1593.858</ele>
        <time>2021-06-19T19:44:38Z</time>
      </trkpt>
      <trkpt lat="42.289963" lon="1.229267">
        <ele>1593.331</ele>
        <time>2021-06-19T19:44:42Z</time>
      </trkpt>
      <trkpt lat="42.289939" lon="1.229313">
        <ele>1593.358</ele>
        <time>2021-06-19T19:44:43Z</time>
      </trkpt>
      <trkpt lat="42.289913" lon="1.229358">
        <ele>1593.319</ele>
        <time>2021-06-19T19:44:44Z</time>
      </trkpt>
      <trkpt lat="42.289781" lon="1.229549">
        <ele>1594.009</ele>
        <time>2021-06-19T19:44:49Z</time>
      </trkpt>
      <trkpt lat="42.289731" lon="1.229637">
        <ele>1593.819</ele>
        <time>2021-06-19T19:44:51Z</time>
      </trkpt>
      <trkpt lat="42.289640" lon="1.229794">
        <ele>1592.908</ele>
        <time>2021-06-19T19:44:54Z</time>
      </trkpt>
      <trkpt lat="42.289543" lon="1.229958">
        <ele>1591.588</ele>
        <time>2021-06-19T19:44:57Z</time>
      </trkpt>
      <trkpt lat="42.289441" lon="1.230131">
        <ele>1589.977</ele>
        <time>2021-06-19T19:45:00Z</time>
      </trkpt>
      <trkpt lat="42.289254" lon="1.230554">
        <ele>1585.923</ele>
        <time>2021-06-19T19:45:06Z</time>
      </trkpt>
      <trkpt lat="42.289226" lon="1.230630">
        <ele>1584.927</ele>
        <time>2021-06-19T19:45:07Z</time>
      </trkpt>
      <trkpt lat="42.289194" lon="1.230704">
        <ele>1584.211</ele>
        <time>2021-06-19T19:45:08Z</time>
      </trkpt>
      <trkpt lat="42.289119" lon="1.230843">
        <ele>1582.491</ele>
        <time>2021-06-19T19:45:10Z</time>
      </trkpt>
      <trkpt lat="42.289033" lon="1.230952">
        <ele>1580.914</ele>
        <time>2021-06-19T19:45:12Z</time>
      </trkpt>
      <trkpt lat="42.288937" lon="1.231033">
        <ele>1580.751</ele>
        <time>2021-06-19T19:45:14Z</time>
      </trkpt>
      <trkpt lat="42.288780" lon="1.231130">
        <ele>1580.813</ele>
        <time>2021-06-19T19:45:17Z</time>
      </trkpt>
      <trkpt lat="42.288530" lon="1.231290">
        <ele>1581.643</ele>
        <time>2021-06-19T19:45:22Z</time>
      </trkpt>
      <trkpt lat="42.288492" lon="1.231327">
        <ele>1581.607</ele>
        <time>2021-06-19T19:45:23Z</time>
      </trkpt>
      <trkpt lat="42.288420" lon="1.231418">
        <ele>1581.308</ele>
        <time>2021-06-19T19:45:25Z</time>
      </trkpt>
      <trkpt lat="42.288308" lon="1.231594">
        <ele>1580.328</ele>
        <time>2021-06-19T19:45:28Z</time>
      </trkpt>
      <trkpt lat="42.288273" lon="1.231650">
        <ele>1579.997</ele>
        <time>2021-06-19T19:45:29Z</time>
      </trkpt>
      <trkpt lat="42.288234" lon="1.231701">
        <ele>1579.623</ele>
        <time>2021-06-19T19:45:30Z</time>
      </trkpt>
      <trkpt lat="42.288137" lon="1.231763">
        <ele>1579.477</ele>
        <time>2021-06-19T19:45:32Z</time>
      </trkpt>
      <trkpt lat="42.287906" lon="1.231793">
        <ele>1579.141</ele>
        <time>2021-06-19T19:45:36Z</time>
      </trkpt>
      <trkpt lat="42.287789" lon="1.231842">
        <ele>1577.121</ele>
        <time>2021-06-19T19:45:38Z</time>
      </trkpt>
      <trkpt lat="42.287737" lon="1.231866">
        <ele>1576.544</ele>
        <time>2021-06-19T19:45:39Z</time>
      </trkpt>
      <trkpt lat="42.287648" lon="1.231914">
        <ele>1575.691</ele>
        <time>2021-06-19T19:45:41Z</time>
      </trkpt>
      <trkpt lat="42.287604" lon="1.231946">
        <ele>1574.868</ele>
        <time>2021-06-19T19:45:42Z</time>
      </trkpt>
      <trkpt lat="42.287468" lon="1.232083">
        <ele>1571.742</ele>
        <time>2021-06-19T19:45:45Z</time>
      </trkpt>
      <trkpt lat="42.287423" lon="1.232136">
        <ele>1571.026</ele>
        <time>2021-06-19T19:45:46Z</time>
      </trkpt>
      <trkpt lat="42.287212" lon="1.232442">
        <ele>1568.708</ele>
        <time>2021-06-19T19:45:51Z</time>
      </trkpt>
      <trkpt lat="42.287131" lon="1.232572">
        <ele>1567.993</ele>
        <time>2021-06-19T19:45:53Z</time>
      </trkpt>
      <trkpt lat="42.287015" lon="1.232761">
        <ele>1567.122</ele>
        <time>2021-06-19T19:45:56Z</time>
      </trkpt>
      <trkpt lat="42.286848" lon="1.232993">
        <ele>1564.818</ele>
        <time>2021-06-19T19:46:00Z</time>
      </trkpt>
      <trkpt lat="42.286807" lon="1.233050">
        <ele>1564.122</ele>
        <time>2021-06-19T19:46:01Z</time>
      </trkpt>
      <trkpt lat="42.286620" lon="1.233319">
        <ele>1561.716</ele>
        <time>2021-06-19T19:46:06Z</time>
      </trkpt>
      <trkpt lat="42.286598" lon="1.233369">
        <ele>1561.486</ele>
        <time>2021-06-19T19:46:07Z</time>
      </trkpt>
      <trkpt lat="42.286579" lon="1.233426">
        <ele>1561.119</ele>
        <time>2021-06-19T19:46:09Z</time>
      </trkpt>
      <trkpt lat="42.286575" lon="1.233443">
        <ele>1560.926</ele>
        <time>2021-06-19T19:46:10Z</time>
      </trkpt>
      <trkpt lat="42.286574" lon="1.233456">
        <ele>1560.823</ele>
        <time>2021-06-19T19:46:13Z</time>
      </trkpt>
      <trkpt lat="42.286557" lon="1.233518">
        <ele>1560.283</ele>
        <time>2021-06-19T19:46:42Z</time>
      </trkpt>
      <trkpt lat="42.286515" lon="1.233646">
        <ele>1559.311</ele>
        <time>2021-06-19T19:46:46Z</time>
      </trkpt>
      <trkpt lat="42.286458" lon="1.233866">
        <ele>1558.008</ele>
        <time>2021-06-19T19:46:51Z</time>
      </trkpt>
      <trkpt lat="42.286446" lon="1.233920">
        <ele>1557.879</ele>
        <time>2021-06-19T19:46:52Z</time>
      </trkpt>
      <trkpt lat="42.286425" lon="1.233970">
        <ele>1557.968</ele>
        <time>2021-06-19T19:46:53Z</time>
      </trkpt>
      <trkpt lat="42.286371" lon="1.234056">
        <ele>1558.564</ele>
        <time>2021-06-19T19:46:55Z</time>
      </trkpt>
      <trkpt lat="42.286306" lon="1.234150">
        <ele>1558.438</ele>
        <time>2021-06-19T19:46:57Z</time>
      </trkpt>
      <trkpt lat="42.286181" lon="1.234256">
        <ele>1560.222</ele>
        <time>2021-06-19T19:47:00Z</time>
      </trkpt>
      <trkpt lat="42.286106" lon="1.234288">
        <ele>1561.492</ele>
        <time>2021-06-19T19:47:02Z</time>
      </trkpt>
      <trkpt lat="42.285998" lon="1.234331">
        <ele>1561.535</ele>
        <time>2021-06-19T19:47:05Z</time>
      </trkpt>
      <trkpt lat="42.285896" lon="1.234361">
        <ele>1561.432</ele>
        <time>2021-06-19T19:47:08Z</time>
      </trkpt>
      <trkpt lat="42.285803" lon="1.234416">
        <ele>1560.582</ele>
        <time>2021-06-19T19:47:11Z</time>
      </trkpt>
      <trkpt lat="42.285727" lon="1.234539">
        <ele>1559.843</ele>
        <time>2021-06-19T19:47:14Z</time>
      </trkpt>
      <trkpt lat="42.285696" lon="1.234581">
        <ele>1559.517</ele>
        <time>2021-06-19T19:47:15Z</time>
      </trkpt>
      <trkpt lat="42.285661" lon="1.234627">
        <ele>1559.108</ele>
        <time>2021-06-19T19:47:16Z</time>
      </trkpt>
      <trkpt lat="42.285439" lon="1.234898">
        <ele>1557.165</ele>
        <time>2021-06-19T19:47:21Z</time>
      </trkpt>
      <trkpt lat="42.285281" lon="1.235092">
        <ele>1556.424</ele>
        <time>2021-06-19T19:47:24Z</time>
      </trkpt>
      <trkpt lat="42.285184" lon="1.235259">
        <ele>1556.790</ele>
        <time>2021-06-19T19:47:26Z</time>
      </trkpt>
      <trkpt lat="42.284978" lon="1.235742">
        <ele>1553.614</ele>
        <time>2021-06-19T19:47:31Z</time>
      </trkpt>
      <trkpt lat="42.284881" lon="1.235928">
        <ele>1553.388</ele>
        <time>2021-06-19T19:47:33Z</time>
      </trkpt>
      <trkpt lat="42.284843" lon="1.236027">
        <ele>1553.448</ele>
        <time>2021-06-19T19:47:34Z</time>
      </trkpt>
      <trkpt lat="42.284789" lon="1.236225">
        <ele>1554.011</ele>
        <time>2021-06-19T19:47:36Z</time>
      </trkpt>
      <trkpt lat="42.284764" lon="1.236309">
        <ele>1553.968</ele>
        <time>2021-06-19T19:47:37Z</time>
      </trkpt>
      <trkpt lat="42.284692" lon="1.236421">
        <ele>1552.816</ele>
        <time>2021-06-19T19:47:39Z</time>
      </trkpt>
      <trkpt lat="42.284565" lon="1.236398">
        <ele>1549.276</ele>
        <time>2021-06-19T19:47:42Z</time>
      </trkpt>
      <trkpt lat="42.284550" lon="1.236276">
        <ele>1547.213</ele>
        <time>2021-06-19T19:47:44Z</time>
      </trkpt>
      <trkpt lat="42.284573" lon="1.236209">
        <ele>1546.908</ele>
        <time>2021-06-19T19:47:45Z</time>
      </trkpt>
      <trkpt lat="42.284646" lon="1.236078">
        <ele>1547.378</ele>
        <time>2021-06-19T19:47:47Z</time>
      </trkpt>
      <trkpt lat="42.284833" lon="1.235694">
        <ele>1547.577</ele>
        <time>2021-06-19T19:47:52Z</time>
      </trkpt>
      <trkpt lat="42.284968" lon="1.235202">
        <ele>1543.783</ele>
        <time>2021-06-19T19:47:57Z</time>
      </trkpt>
      <trkpt lat="42.285052" lon="1.234877">
        <ele>1542.227</ele>
        <time>2021-06-19T19:48:00Z</time>
      </trkpt>
      <trkpt lat="42.285116" lon="1.234558">
        <ele>1540.621</ele>
        <time>2021-06-19T19:48:03Z</time>
      </trkpt>
      <trkpt lat="42.285047" lon="1.234288">
        <ele>1540.051</ele>
        <time>2021-06-19T19:48:06Z</time>
      </trkpt>
      <trkpt lat="42.284923" lon="1.234156">
        <ele>1538.624</ele>
        <time>2021-06-19T19:48:08Z</time>
      </trkpt>
      <trkpt lat="42.284783" lon="1.234026">
        <ele>1537.731</ele>
        <time>2021-06-19T19:48:10Z</time>
      </trkpt>
      <trkpt lat="42.284420" lon="1.233651">
        <ele>1535.695</ele>
        <time>2021-06-19T19:48:15Z</time>
      </trkpt>
      <trkpt lat="42.284286" lon="1.233472">
        <ele>1534.249</ele>
        <time>2021-06-19T19:48:17Z</time>
      </trkpt>
      <trkpt lat="42.284121" lon="1.233343">
        <ele>1531.623</ele>
        <time>2021-06-19T19:48:19Z</time>
      </trkpt>
      <trkpt lat="42.283943" lon="1.233259">
        <ele>1529.308</ele>
        <time>2021-06-19T19:48:21Z</time>
      </trkpt>
      <trkpt lat="42.283788" lon="1.233140">
        <ele>1527.766</ele>
        <time>2021-06-19T19:48:23Z</time>
      </trkpt>
      <trkpt lat="42.283630" lon="1.232843">
        <ele>1526.975</ele>
        <time>2021-06-19T19:48:26Z</time>
      </trkpt>
      <trkpt lat="42.283589" lon="1.232725">
        <ele>1526.571</ele>
        <time>2021-06-19T19:48:27Z</time>
      </trkpt>
      <trkpt lat="42.283549" lon="1.232603">
        <ele>1525.995</ele>
        <time>2021-06-19T19:48:28Z</time>
      </trkpt>
      <trkpt lat="42.283409" lon="1.232114">
        <ele>1522.069</ele>
        <time>2021-06-19T19:48:32Z</time>
      </trkpt>
      <trkpt lat="42.283384" lon="1.231843">
        <ele>1519.899</ele>
        <time>2021-06-19T19:48:34Z</time>
      </trkpt>
      <trkpt lat="42.283387" lon="1.231704">
        <ele>1519.022</ele>
        <time>2021-06-19T19:48:35Z</time>
      </trkpt>
      <trkpt lat="42.283413" lon="1.231188">
        <ele>1517.179</ele>
        <time>2021-06-19T19:48:39Z</time>
      </trkpt>
      <trkpt lat="42.283401" lon="1.231068">
        <ele>1516.784</ele>
        <time>2021-06-19T19:48:40Z</time>
      </trkpt>
      <trkpt lat="42.283342" lon="1.230850">
        <ele>1516.207</ele>
        <time>2021-06-19T19:48:42Z</time>
      </trkpt>
      <trkpt lat="42.283167" lon="1.230636">
        <ele>1515.017</ele>
        <time>2021-06-19T19:48:45Z</time>
      </trkpt>
      <trkpt lat="42.282915" lon="1.230609">
        <ele>1512.808</ele>
        <time>2021-06-19T19:48:48Z</time>
      </trkpt>
      <trkpt lat="42.282824" lon="1.230607">
        <ele>1512.365</ele>
        <time>2021-06-19T19:48:49Z</time>
      </trkpt>
      <trkpt lat="42.282550" lon="1.230541">
        <ele>1510.524</ele>
        <time>2021-06-19T19:48:52Z</time>
      </trkpt>
      <trkpt lat="42.282372" lon="1.230454">
        <ele>1508.790</ele>
        <time>2021-06-19T19:48:54Z</time>
      </trkpt>
      <trkpt lat="42.282208" lon="1.230332">
        <ele>1506.714</ele>
        <time>2021-06-19T19:48:56Z</time>
      </trkpt>
      <trkpt lat="42.282029" lon="1.230105">
        <ele>1503.418</ele>
        <time>2021-06-19T19:48:59Z</time>
      </trkpt>
      <trkpt lat="42.281966" lon="1.229765">
        <ele>1502.018</ele>
        <time>2021-06-19T19:49:02Z</time>
      </trkpt>
      <trkpt lat="42.281961" lon="1.229635">
        <ele>1501.521</ele>
        <time>2021-06-19T19:49:03Z</time>
      </trkpt>
      <trkpt lat="42.281939" lon="1.229074">
        <ele>1497.758</ele>
        <time>2021-06-19T19:49:07Z</time>
      </trkpt>
      <trkpt lat="42.281927" lon="1.228926">
        <ele>1497.171</ele>
        <time>2021-06-19T19:49:08Z</time>
      </trkpt>
      <trkpt lat="42.281871" lon="1.228480">
        <ele>1493.841</ele>
        <time>2021-06-19T19:49:11Z</time>
      </trkpt>
      <trkpt lat="42.281813" lon="1.228034">
        <ele>1491.315</ele>
        <time>2021-06-19T19:49:14Z</time>
      </trkpt>
      <trkpt lat="42.281781" lon="1.227739">
        <ele>1488.208</ele>
        <time>2021-06-19T19:49:16Z</time>
      </trkpt>
      <trkpt lat="42.281705" lon="1.227205">
        <ele>1483.264</ele>
        <time>2021-06-19T19:49:20Z</time>
      </trkpt>
      <trkpt lat="42.281681" lon="1.227087">
        <ele>1482.413</ele>
        <time>2021-06-19T19:49:21Z</time>
      </trkpt>
      <trkpt lat="42.281619" lon="1.226768">
        <ele>1479.769</ele>
        <time>2021-06-19T19:49:24Z</time>
      </trkpt>
      <trkpt lat="42.281613" lon="1.226660">
        <ele>1479.093</ele>
        <time>2021-06-19T19:49:25Z</time>
      </trkpt>
      <trkpt lat="42.281668" lon="1.226321">
        <ele>1477.067</ele>
        <time>2021-06-19T19:49:28Z</time>
      </trkpt>
      <trkpt lat="42.281715" lon="1.226219">
        <ele>1475.847</ele>
        <time>2021-06-19T19:49:29Z</time>
      </trkpt>
      <trkpt lat="42.281848" lon="1.226066">
        <ele>1473.860</ele>
        <time>2021-06-19T19:49:31Z</time>
      </trkpt>
      <trkpt lat="42.282108" lon="1.225992">
        <ele>1471.067</ele>
        <time>2021-06-19T19:49:34Z</time>
      </trkpt>
      <trkpt lat="42.282192" lon="1.225994">
        <ele>1470.385</ele>
        <time>2021-06-19T19:49:35Z</time>
      </trkpt>
      <trkpt lat="42.282272" lon="1.225987">
        <ele>1470.289</ele>
        <time>2021-06-19T19:49:36Z</time>
      </trkpt>
      <trkpt lat="42.282412" lon="1.225909">
        <ele>1469.317</ele>
        <time>2021-06-19T19:49:38Z</time>
      </trkpt>
      <trkpt lat="42.282544" lon="1.225632">
        <ele>1467.408</ele>
        <time>2021-06-19T19:49:41Z</time>
      </trkpt>
      <trkpt lat="42.282586" lon="1.225397">
        <ele>1466.775</ele>
        <time>2021-06-19T19:49:43Z</time>
      </trkpt>
      <trkpt lat="42.282624" lon="1.225013">
        <ele>1465.994</ele>
        <time>2021-06-19T19:49:46Z</time>
      </trkpt>
      <trkpt lat="42.282615" lon="1.224879">
        <ele>1464.840</ele>
        <time>2021-06-19T19:49:47Z</time>
      </trkpt>
      <trkpt lat="42.282549" lon="1.224463">
        <ele>1461.984</ele>
        <time>2021-06-19T19:49:50Z</time>
      </trkpt>
      <trkpt lat="42.282489" lon="1.224183">
        <ele>1461.488</ele>
        <time>2021-06-19T19:49:52Z</time>
      </trkpt>
      <trkpt lat="42.282369" lon="1.223805">
        <ele>1458.368</ele>
        <time>2021-06-19T19:49:55Z</time>
      </trkpt>
      <trkpt lat="42.282280" lon="1.223594">
        <ele>1456.071</ele>
        <time>2021-06-19T19:49:57Z</time>
      </trkpt>
      <trkpt lat="42.282163" lon="1.223430">
        <ele>1453.098</ele>
        <time>2021-06-19T19:49:59Z</time>
      </trkpt>
      <trkpt lat="42.282002" lon="1.223209">
        <ele>1450.774</ele>
        <time>2021-06-19T19:50:02Z</time>
      </trkpt>
      <trkpt lat="42.281969" lon="1.223119">
        <ele>1450.356</ele>
        <time>2021-06-19T19:50:03Z</time>
      </trkpt>
      <trkpt lat="42.281973" lon="1.222835">
        <ele>1447.821</ele>
        <time>2021-06-19T19:50:06Z</time>
      </trkpt>
      <trkpt lat="42.282140" lon="1.222609">
        <ele>1445.208</ele>
        <time>2021-06-19T19:50:09Z</time>
      </trkpt>
      <trkpt lat="42.282215" lon="1.222544">
        <ele>1444.754</ele>
        <time>2021-06-19T19:50:10Z</time>
      </trkpt>
      <trkpt lat="42.282437" lon="1.222302">
        <ele>1441.963</ele>
        <time>2021-06-19T19:50:13Z</time>
      </trkpt>
      <trkpt lat="42.282512" lon="1.222211">
        <ele>1440.919</ele>
        <time>2021-06-19T19:50:14Z</time>
      </trkpt>
      <trkpt lat="42.282724" lon="1.221919">
        <ele>1439.073</ele>
        <time>2021-06-19T19:50:17Z</time>
      </trkpt>
      <trkpt lat="42.282775" lon="1.221802">
        <ele>1438.457</ele>
        <time>2021-06-19T19:50:18Z</time>
      </trkpt>
      <trkpt lat="42.282832" lon="1.221409">
        <ele>1435.787</ele>
        <time>2021-06-19T19:50:21Z</time>
      </trkpt>
      <trkpt lat="42.282830" lon="1.221278">
        <ele>1435.220</ele>
        <time>2021-06-19T19:50:22Z</time>
      </trkpt>
      <trkpt lat="42.282830" lon="1.221149">
        <ele>1434.777</ele>
        <time>2021-06-19T19:50:23Z</time>
      </trkpt>
      <trkpt lat="42.282839" lon="1.221023">
        <ele>1434.078</ele>
        <time>2021-06-19T19:50:24Z</time>
      </trkpt>
      <trkpt lat="42.282862" lon="1.220900">
        <ele>1433.433</ele>
        <time>2021-06-19T19:50:25Z</time>
      </trkpt>
      <trkpt lat="42.282953" lon="1.220673">
        <ele>1430.926</ele>
        <time>2021-06-19T19:50:27Z</time>
      </trkpt>
      <trkpt lat="42.283020" lon="1.220576">
        <ele>1429.308</ele>
        <time>2021-06-19T19:50:28Z</time>
      </trkpt>
      <trkpt lat="42.283295" lon="1.220362">
        <ele>1425.054</ele>
        <time>2021-06-19T19:50:31Z</time>
      </trkpt>
      <trkpt lat="42.283681" lon="1.220171">
        <ele>1420.133</ele>
        <time>2021-06-19T19:50:35Z</time>
      </trkpt>
      <trkpt lat="42.283839" lon="1.220105">
        <ele>1418.949</ele>
        <time>2021-06-19T19:50:38Z</time>
      </trkpt>
      <trkpt lat="42.283870" lon="1.220104">
        <ele>1418.963</ele>
        <time>2021-06-19T19:50:39Z</time>
      </trkpt>
      <trkpt lat="42.283921" lon="1.220094">
        <ele>1419.097</ele>
        <time>2021-06-19T19:50:41Z</time>
      </trkpt>
      <trkpt lat="42.283936" lon="1.220066">
        <ele>1418.797</ele>
        <time>2021-06-19T19:50:42Z</time>
      </trkpt>
      <trkpt lat="42.283919" lon="1.219972">
        <ele>1417.110</ele>
        <time>2021-06-19T19:50:45Z</time>
      </trkpt>
      <trkpt lat="42.283863" lon="1.220009">
        <ele>1417.267</ele>
        <time>2021-06-19T19:50:48Z</time>
      </trkpt>
      <trkpt lat="42.283791" lon="1.220081">
        <ele>1418.587</ele>
        <time>2021-06-19T19:50:52Z</time>
      </trkpt>
      <trkpt lat="42.283772" lon="1.220097">
        <ele>1418.742</ele>
        <time>2021-06-19T19:50:53Z</time>
      </trkpt>
      <trkpt lat="42.283711" lon="1.220120">
        <ele>1419.226</ele>
        <time>2021-06-19T19:50:56Z</time>
      </trkpt>
      <trkpt lat="42.283674" lon="1.220146">
        <ele>1419.608</ele>
        <time>2021-06-19T19:50:58Z</time>
      </trkpt>
      <trkpt lat="42.283654" lon="1.220158">
        <ele>1419.855</ele>
        <time>2021-06-19T19:50:59Z</time>
      </trkpt>
      <trkpt lat="42.283571" lon="1.220200">
        <ele>1420.734</ele>
        <time>2021-06-19T19:51:03Z</time>
      </trkpt>
      <trkpt lat="42.283491" lon="1.220247">
        <ele>1421.850</ele>
        <time>2021-06-19T19:51:07Z</time>
      </trkpt>
      <trkpt lat="42.283470" lon="1.220257">
        <ele>1422.194</ele>
        <time>2021-06-19T19:51:08Z</time>
      </trkpt>
      <trkpt lat="42.283407" lon="1.220292">
        <ele>1423.198</ele>
        <time>2021-06-19T19:51:11Z</time>
      </trkpt>
      <trkpt lat="42.283324" lon="1.220341">
        <ele>1424.638</ele>
        <time>2021-06-19T19:51:15Z</time>
      </trkpt>
      <trkpt lat="42.283281" lon="1.220365">
        <ele>1425.041</ele>
        <time>2021-06-19T19:51:17Z</time>
      </trkpt>
      <trkpt lat="42.283260" lon="1.220379">
        <ele>1425.368</ele>
        <time>2021-06-19T19:51:18Z</time>
      </trkpt>
      <trkpt lat="42.283193" lon="1.220411">
        <ele>1425.943</ele>
        <time>2021-06-19T19:51:21Z</time>
      </trkpt>
      <trkpt lat="42.283109" lon="1.220461">
        <ele>1426.864</ele>
        <time>2021-06-19T19:51:25Z</time>
      </trkpt>
      <trkpt lat="42.283090" lon="1.220475">
        <ele>1427.110</ele>
        <time>2021-06-19T19:51:26Z</time>
      </trkpt>
      <trkpt lat="42.283037" lon="1.220507">
        <ele>1427.708</ele>
        <time>2021-06-19T19:51:29Z</time>
      </trkpt>
      <trkpt lat="42.283001" lon="1.220509">
        <ele>1427.751</ele>
        <time>2021-06-19T19:51:32Z</time>
      </trkpt>
      <trkpt lat="42.282994" lon="1.220508">
        <ele>1427.650</ele>
        <time>2021-06-19T19:51:34Z</time>
      </trkpt>
      <trkpt lat="42.282957" lon="1.220502">
        <ele>1427.426</ele>
        <time>2021-06-19T19:51:43Z</time>
      </trkpt>
      <trkpt lat="42.282933" lon="1.220499">
        <ele>1427.250</ele>
        <time>2021-06-19T19:51:44Z</time>
      </trkpt>
      <trkpt lat="42.282808" lon="1.220479">
        <ele>1426.474</ele>
        <time>2021-06-19T19:51:47Z</time>
      </trkpt>
      <trkpt lat="42.282753" lon="1.220469">
        <ele>1426.034</ele>
        <time>2021-06-19T19:51:48Z</time>
      </trkpt>
      <trkpt lat="42.282446" lon="1.220471">
        <ele>1424.167</ele>
        <time>2021-06-19T19:51:53Z</time>
      </trkpt>
      <trkpt lat="42.282281" lon="1.220537">
        <ele>1424.124</ele>
        <time>2021-06-19T19:51:56Z</time>
      </trkpt>
      <trkpt lat="42.282126" lon="1.220636">
        <ele>1422.743</ele>
        <time>2021-06-19T19:51:59Z</time>
      </trkpt>
      <trkpt lat="42.281956" lon="1.220871">
        <ele>1421.464</ele>
        <time>2021-06-19T19:52:03Z</time>
      </trkpt>
      <trkpt lat="42.281926" lon="1.220954">
        <ele>1420.910</ele>
        <time>2021-06-19T19:52:04Z</time>
      </trkpt>
      <trkpt lat="42.281894" lon="1.221040">
        <ele>1420.408</ele>
        <time>2021-06-19T19:52:05Z</time>
      </trkpt>
      <trkpt lat="42.281856" lon="1.221125">
        <ele>1419.991</ele>
        <time>2021-06-19T19:52:06Z</time>
      </trkpt>
      <trkpt lat="42.281750" lon="1.221271">
        <ele>1419.360</ele>
        <time>2021-06-19T19:52:08Z</time>
      </trkpt>
      <trkpt lat="42.281549" lon="1.221348">
        <ele>1418.856</ele>
        <time>2021-06-19T19:52:11Z</time>
      </trkpt>
      <trkpt lat="42.281483" lon="1.221354">
        <ele>1418.790</ele>
        <time>2021-06-19T19:52:12Z</time>
      </trkpt>
      <trkpt lat="42.281210" lon="1.221367">
        <ele>1419.214</ele>
        <time>2021-06-19T19:52:17Z</time>
      </trkpt>
      <trkpt lat="42.281167" lon="1.221368">
        <ele>1419.424</ele>
        <time>2021-06-19T19:52:18Z</time>
      </trkpt>
      <trkpt lat="42.281011" lon="1.221363">
        <ele>1419.277</ele>
        <time>2021-06-19T19:52:22Z</time>
      </trkpt>
      <trkpt lat="42.280813" lon="1.221338">
        <ele>1418.074</ele>
        <time>2021-06-19T19:52:27Z</time>
      </trkpt>
      <trkpt lat="42.280769" lon="1.221344">
        <ele>1417.593</ele>
        <time>2021-06-19T19:52:28Z</time>
      </trkpt>
      <trkpt lat="42.280634" lon="1.221415">
        <ele>1416.465</ele>
        <time>2021-06-19T19:52:31Z</time>
      </trkpt>
      <trkpt lat="42.280589" lon="1.221449">
        <ele>1416.221</ele>
        <time>2021-06-19T19:52:32Z</time>
      </trkpt>
      <trkpt lat="42.280495" lon="1.221529">
        <ele>1415.208</ele>
        <time>2021-06-19T19:52:34Z</time>
      </trkpt>
      <trkpt lat="42.280345" lon="1.221678">
        <ele>1413.616</ele>
        <time>2021-06-19T19:52:37Z</time>
      </trkpt>
      <trkpt lat="42.280092" lon="1.221978">
        <ele>1412.425</ele>
        <time>2021-06-19T19:52:42Z</time>
      </trkpt>
      <trkpt lat="42.280040" lon="1.222034">
        <ele>1412.131</ele>
        <time>2021-06-19T19:52:43Z</time>
      </trkpt>
      <trkpt lat="42.279872" lon="1.222264">
        <ele>1411.725</ele>
        <time>2021-06-19T19:52:47Z</time>
      </trkpt>
      <trkpt lat="42.279840" lon="1.222321">
        <ele>1411.699</ele>
        <time>2021-06-19T19:52:48Z</time>
      </trkpt>
      <trkpt lat="42.279812" lon="1.222375">
        <ele>1411.619</ele>
        <time>2021-06-19T19:52:49Z</time>
      </trkpt>
      <trkpt lat="42.279711" lon="1.222577">
        <ele>1410.722</ele>
        <time>2021-06-19T19:52:53Z</time>
      </trkpt>
      <trkpt lat="42.279689" lon="1.222627">
        <ele>1410.189</ele>
        <time>2021-06-19T19:52:54Z</time>
      </trkpt>
      <trkpt lat="42.279663" lon="1.222742">
        <ele>1409.542</ele>
        <time>2021-06-19T19:52:56Z</time>
      </trkpt>
      <trkpt lat="42.279666" lon="1.222804">
        <ele>1409.122</ele>
        <time>2021-06-19T19:52:57Z</time>
      </trkpt>
      <trkpt lat="42.279742" lon="1.222987">
        <ele>1407.714</ele>
        <time>2021-06-19T19:53:00Z</time>
      </trkpt>
      <trkpt lat="42.279856" lon="1.223180">
        <ele>1406.208</ele>
        <time>2021-06-19T19:53:03Z</time>
      </trkpt>
      <trkpt lat="42.279975" lon="1.223406">
        <ele>1403.721</ele>
        <time>2021-06-19T19:53:06Z</time>
      </trkpt>
      <trkpt lat="42.280141" lon="1.223717">
        <ele>1400.170</ele>
        <time>2021-06-19T19:53:10Z</time>
      </trkpt>
      <trkpt lat="42.280246" lon="1.223921">
        <ele>1399.216</ele>
        <time>2021-06-19T19:53:13Z</time>
      </trkpt>
      <trkpt lat="42.280223" lon="1.224118">
        <ele>1399.220</ele>
        <time>2021-06-19T19:53:16Z</time>
      </trkpt>
      <trkpt lat="42.280139" lon="1.224166">
        <ele>1398.564</ele>
        <time>2021-06-19T19:53:18Z</time>
      </trkpt>
      <trkpt lat="42.280097" lon="1.224181">
        <ele>1398.514</ele>
        <time>2021-06-19T19:53:19Z</time>
      </trkpt>
      <trkpt lat="42.279891" lon="1.224237">
        <ele>1398.827</ele>
        <time>2021-06-19T19:53:25Z</time>
      </trkpt>
      <trkpt lat="42.279857" lon="1.224242">
        <ele>1398.884</ele>
        <time>2021-06-19T19:53:26Z</time>
      </trkpt>
      <trkpt lat="42.279593" lon="1.224284">
        <ele>1398.431</ele>
        <time>2021-06-19T19:53:33Z</time>
      </trkpt>
      <trkpt lat="42.279388" lon="1.224358">
        <ele>1398.561</ele>
        <time>2021-06-19T19:53:38Z</time>
      </trkpt>
      <trkpt lat="42.279344" lon="1.224371">
        <ele>1398.107</ele>
        <time>2021-06-19T19:53:39Z</time>
      </trkpt>
      <trkpt lat="42.279299" lon="1.224383">
        <ele>1397.608</ele>
        <time>2021-06-19T19:53:40Z</time>
      </trkpt>
      <trkpt lat="42.279159" lon="1.224429">
        <ele>1396.420</ele>
        <time>2021-06-19T19:53:43Z</time>
      </trkpt>
      <trkpt lat="42.279109" lon="1.224463">
        <ele>1395.829</ele>
        <time>2021-06-19T19:53:44Z</time>
      </trkpt>
      <trkpt lat="42.279001" lon="1.224556">
        <ele>1394.755</ele>
        <time>2021-06-19T19:53:46Z</time>
      </trkpt>
      <trkpt lat="42.278940" lon="1.224591">
        <ele>1394.219</ele>
        <time>2021-06-19T19:53:47Z</time>
      </trkpt>
      <trkpt lat="42.278880" lon="1.224609">
        <ele>1393.573</ele>
        <time>2021-06-19T19:53:48Z</time>
      </trkpt>
      <trkpt lat="42.278774" lon="1.224632">
        <ele>1392.753</ele>
        <time>2021-06-19T19:53:50Z</time>
      </trkpt>
      <trkpt lat="42.278681" lon="1.224655">
        <ele>1391.966</ele>
        <time>2021-06-19T19:53:52Z</time>
      </trkpt>
      <trkpt lat="42.278594" lon="1.224648">
        <ele>1390.743</ele>
        <time>2021-06-19T19:53:54Z</time>
      </trkpt>
      <trkpt lat="42.278564" lon="1.224612">
        <ele>1389.727</ele>
        <time>2021-06-19T19:53:55Z</time>
      </trkpt>
      <trkpt lat="42.278565" lon="1.224499">
        <ele>1388.068</ele>
        <time>2021-06-19T19:53:57Z</time>
      </trkpt>
      <trkpt lat="42.278596" lon="1.224454">
        <ele>1387.914</ele>
        <time>2021-06-19T19:53:58Z</time>
      </trkpt>
      <trkpt lat="42.278693" lon="1.224421">
        <ele>1388.008</ele>
        <time>2021-06-19T19:54:00Z</time>
      </trkpt>
      <trkpt lat="42.278844" lon="1.224379">
        <ele>1388.299</ele>
        <time>2021-06-19T19:54:03Z</time>
      </trkpt>
      <trkpt lat="42.278884" lon="1.224333">
        <ele>1387.668</ele>
        <time>2021-06-19T19:54:04Z</time>
      </trkpt>
      <trkpt lat="42.279014" lon="1.224118">
        <ele>1384.824</ele>
        <time>2021-06-19T19:54:08Z</time>
      </trkpt>
      <trkpt lat="42.279121" lon="1.224045">
        <ele>1385.048</ele>
        <time>2021-06-19T19:54:10Z</time>
      </trkpt>
      <trkpt lat="42.279177" lon="1.224008">
        <ele>1385.192</ele>
        <time>2021-06-19T19:54:11Z</time>
      </trkpt>
      <trkpt lat="42.279227" lon="1.223960">
        <ele>1384.492</ele>
        <time>2021-06-19T19:54:12Z</time>
      </trkpt>
      <trkpt lat="42.279281" lon="1.223748">
        <ele>1384.095</ele>
        <time>2021-06-19T19:54:15Z</time>
      </trkpt>
      <trkpt lat="42.279228" lon="1.223635">
        <ele>1384.062</ele>
        <time>2021-06-19T19:54:17Z</time>
      </trkpt>
      <trkpt lat="42.279196" lon="1.223597">
        <ele>1383.859</ele>
        <time>2021-06-19T19:54:18Z</time>
      </trkpt>
      <trkpt lat="42.279167" lon="1.223567">
        <ele>1384.003</ele>
        <time>2021-06-19T19:54:19Z</time>
      </trkpt>
      <trkpt lat="42.279115" lon="1.223521">
        <ele>1383.623</ele>
        <time>2021-06-19T19:54:21Z</time>
      </trkpt>
      <trkpt lat="42.279070" lon="1.223480">
        <ele>1383.208</ele>
        <time>2021-06-19T19:54:23Z</time>
      </trkpt>
      <trkpt lat="42.278955" lon="1.223318">
        <ele>1383.132</ele>
        <time>2021-06-19T19:54:27Z</time>
      </trkpt>
      <trkpt lat="42.278870" lon="1.223023">
        <ele>1382.361</ele>
        <time>2021-06-19T19:54:32Z</time>
      </trkpt>
      <trkpt lat="42.278868" lon="1.222954">
        <ele>1381.927</ele>
        <time>2021-06-19T19:54:33Z</time>
      </trkpt>
      <trkpt lat="42.278874" lon="1.222805">
        <ele>1381.631</ele>
        <time>2021-06-19T19:54:35Z</time>
      </trkpt>
      <trkpt lat="42.278883" lon="1.222644">
        <ele>1381.335</ele>
        <time>2021-06-19T19:54:37Z</time>
      </trkpt>
      <trkpt lat="42.278909" lon="1.222405">
        <ele>1380.885</ele>
        <time>2021-06-19T19:54:40Z</time>
      </trkpt>
      <trkpt lat="42.278954" lon="1.222085">
        <ele>1379.118</ele>
        <time>2021-06-19T19:54:44Z</time>
      </trkpt>
      <trkpt lat="42.278967" lon="1.222005">
        <ele>1378.745</ele>
        <time>2021-06-19T19:54:45Z</time>
      </trkpt>
      <trkpt lat="42.279060" lon="1.221537">
        <ele>1375.114</ele>
        <time>2021-06-19T19:54:51Z</time>
      </trkpt>
      <trkpt lat="42.279070" lon="1.221463">
        <ele>1374.554</ele>
        <time>2021-06-19T19:54:52Z</time>
      </trkpt>
      <trkpt lat="42.279099" lon="1.221025">
        <ele>1371.209</ele>
        <time>2021-06-19T19:54:58Z</time>
      </trkpt>
      <trkpt lat="42.279089" lon="1.220795">
        <ele>1370.608</ele>
        <time>2021-06-19T19:55:02Z</time>
      </trkpt>
      <trkpt lat="42.279065" lon="1.220699">
        <ele>1370.238</ele>
        <time>2021-06-19T19:55:04Z</time>
      </trkpt>
      <trkpt lat="42.278999" lon="1.220615">
        <ele>1368.427</ele>
        <time>2021-06-19T19:55:06Z</time>
      </trkpt>
      <trkpt lat="42.278898" lon="1.220586">
        <ele>1365.223</ele>
        <time>2021-06-19T19:55:08Z</time>
      </trkpt>
      <trkpt lat="42.278848" lon="1.220591">
        <ele>1365.327</ele>
        <time>2021-06-19T19:55:09Z</time>
      </trkpt>
      <trkpt lat="42.278729" lon="1.220657">
        <ele>1366.431</ele>
        <time>2021-06-19T19:55:12Z</time>
      </trkpt>
      <trkpt lat="42.278695" lon="1.220682">
        <ele>1366.671</ele>
        <time>2021-06-19T19:55:13Z</time>
      </trkpt>
      <trkpt lat="42.278636" lon="1.220743">
        <ele>1367.134</ele>
        <time>2021-06-19T19:55:15Z</time>
      </trkpt>
      <trkpt lat="42.278573" lon="1.220859">
        <ele>1368.811</ele>
        <time>2021-06-19T19:55:18Z</time>
      </trkpt>
      <trkpt lat="42.278531" lon="1.220941">
        <ele>1370.346</ele>
        <time>2021-06-19T19:55:21Z</time>
      </trkpt>
      <trkpt lat="42.278519" lon="1.220960">
        <ele>1370.788</ele>
        <time>2021-06-19T19:55:22Z</time>
      </trkpt>
      <trkpt lat="42.278475" lon="1.221064">
        <ele>1371.816</ele>
        <time>2021-06-19T19:55:28Z</time>
      </trkpt>
      <trkpt lat="42.278421" lon="1.221168">
        <ele>1372.408</ele>
        <time>2021-06-19T19:55:35Z</time>
      </trkpt>
      <trkpt lat="42.278412" lon="1.221181">
        <ele>1372.571</ele>
        <time>2021-06-19T19:55:36Z</time>
      </trkpt>
      <trkpt lat="42.278355" lon="1.221261">
        <ele>1372.680</ele>
        <time>2021-06-19T19:55:42Z</time>
      </trkpt>
      <trkpt lat="42.278332" lon="1.221283">
        <ele>1372.726</ele>
        <time>2021-06-19T19:55:44Z</time>
      </trkpt>
      <trkpt lat="42.278273" lon="1.221325">
        <ele>1374.740</ele>
        <time>2021-06-19T19:55:49Z</time>
      </trkpt>
      <trkpt lat="42.278245" lon="1.221363">
        <ele>1375.154</ele>
        <time>2021-06-19T19:55:52Z</time>
      </trkpt>
      <trkpt lat="42.278199" lon="1.221421">
        <ele>1376.114</ele>
        <time>2021-06-19T19:55:57Z</time>
      </trkpt>
      <trkpt lat="42.278184" lon="1.221450">
        <ele>1376.297</ele>
        <time>2021-06-19T19:55:59Z</time>
      </trkpt>
      <trkpt lat="42.278137" lon="1.221519">
        <ele>1376.764</ele>
        <time>2021-06-19T19:56:04Z</time>
      </trkpt>
      <trkpt lat="42.278108" lon="1.221563">
        <ele>1376.838</ele>
        <time>2021-06-19T19:56:07Z</time>
      </trkpt>
      <trkpt lat="42.278081" lon="1.221581">
        <ele>1377.470</ele>
        <time>2021-06-19T19:56:11Z</time>
      </trkpt>
      <trkpt lat="42.278032" lon="1.221650">
        <ele>1377.817</ele>
        <time>2021-06-19T19:56:17Z</time>
      </trkpt>
      <trkpt lat="42.278013" lon="1.221678">
        <ele>1378.008</ele>
        <time>2021-06-19T19:56:19Z</time>
      </trkpt>
      <trkpt lat="42.277959" lon="1.221782">
        <ele>1378.080</ele>
        <time>2021-06-19T19:56:25Z</time>
      </trkpt>
      <trkpt lat="42.277936" lon="1.221806">
        <ele>1378.549</ele>
        <time>2021-06-19T19:56:27Z</time>
      </trkpt>
      <trkpt lat="42.277871" lon="1.221881">
        <ele>1379.535</ele>
        <time>2021-06-19T19:56:33Z</time>
      </trkpt>
      <trkpt lat="42.277838" lon="1.221913">
        <ele>1380.219</ele>
        <time>2021-06-19T19:56:36Z</time>
      </trkpt>
      <trkpt lat="42.277787" lon="1.221971">
        <ele>1380.713</ele>
        <time>2021-06-19T19:56:41Z</time>
      </trkpt>
      <trkpt lat="42.277768" lon="1.221990">
        <ele>1381.053</ele>
        <time>2021-06-19T19:56:43Z</time>
      </trkpt>
      <trkpt lat="42.277710" lon="1.222061">
        <ele>1381.466</ele>
        <time>2021-06-19T19:56:49Z</time>
      </trkpt>
      <trkpt lat="42.277680" lon="1.222092">
        <ele>1381.833</ele>
        <time>2021-06-19T19:56:52Z</time>
      </trkpt>
      <trkpt lat="42.277632" lon="1.222132">
        <ele>1382.683</ele>
        <time>2021-06-19T19:56:56Z</time>
      </trkpt>
      <trkpt lat="42.277584" lon="1.222175">
        <ele>1383.125</ele>
        <time>2021-06-19T19:57:00Z</time>
      </trkpt>
      <trkpt lat="42.277521" lon="1.222219">
        <ele>1384.217</ele>
        <time>2021-06-19T19:57:05Z</time>
      </trkpt>
      <trkpt lat="42.277496" lon="1.222236">
        <ele>1384.708</ele>
        <time>2021-06-19T19:57:07Z</time>
      </trkpt>
      <trkpt lat="42.277395" lon="1.222318">
        <ele>1386.595</ele>
        <time>2021-06-19T19:57:15Z</time>
      </trkpt>
      <trkpt lat="42.277382" lon="1.222329">
        <ele>1386.794</ele>
        <time>2021-06-19T19:57:16Z</time>
      </trkpt>
      <trkpt lat="42.277307" lon="1.222398">
        <ele>1387.540</ele>
        <time>2021-06-19T19:57:23Z</time>
      </trkpt>
      <trkpt lat="42.277297" lon="1.222408">
        <ele>1387.544</ele>
        <time>2021-06-19T19:57:24Z</time>
      </trkpt>
      <trkpt lat="42.277238" lon="1.222436">
        <ele>1388.938</ele>
        <time>2021-06-19T19:57:30Z</time>
      </trkpt>
      <trkpt lat="42.277229" lon="1.222442">
        <ele>1389.028</ele>
        <time>2021-06-19T19:57:31Z</time>
      </trkpt>
      <trkpt lat="42.277219" lon="1.222449">
        <ele>1389.261</ele>
        <time>2021-06-19T19:57:32Z</time>
      </trkpt>
      <trkpt lat="42.277178" lon="1.222476">
        <ele>1389.968</ele>
        <time>2021-06-19T19:57:36Z</time>
      </trkpt>
      <trkpt lat="42.277114" lon="1.222516">
        <ele>1391.185</ele>
        <time>2021-06-19T19:57:41Z</time>
      </trkpt>
      <trkpt lat="42.277092" lon="1.222535">
        <ele>1391.489</ele>
        <time>2021-06-19T19:57:43Z</time>
      </trkpt>
      <trkpt lat="42.277016" lon="1.222606">
        <ele>1392.417</ele>
        <time>2021-06-19T19:57:50Z</time>
      </trkpt>
      <trkpt lat="42.277003" lon="1.222634">
        <ele>1392.008</ele>
        <time>2021-06-19T19:57:52Z</time>
      </trkpt>
      <trkpt lat="42.276994" lon="1.222645">
        <ele>1392.195</ele>
        <time>2021-06-19T19:57:53Z</time>
      </trkpt>
      <trkpt lat="42.276956" lon="1.222669">
        <ele>1393.014</ele>
        <time>2021-06-19T19:57:57Z</time>
      </trkpt>
      <trkpt lat="42.276925" lon="1.222685">
        <ele>1393.880</ele>
        <time>2021-06-19T19:58:00Z</time>
      </trkpt>
      <trkpt lat="42.276889" lon="1.222724">
        <ele>1394.154</ele>
        <time>2021-06-19T19:58:04Z</time>
      </trkpt>
      <trkpt lat="42.276880" lon="1.222734">
        <ele>1394.278</ele>
        <time>2021-06-19T19:58:05Z</time>
      </trkpt>
      <trkpt lat="42.276820" lon="1.222782">
        <ele>1395.278</ele>
        <time>2021-06-19T19:58:10Z</time>
      </trkpt>
      <trkpt lat="42.276777" lon="1.222829">
        <ele>1395.521</ele>
        <time>2021-06-19T19:58:14Z</time>
      </trkpt>
      <trkpt lat="42.276717" lon="1.222894">
        <ele>1396.018</ele>
        <time>2021-06-19T19:58:20Z</time>
      </trkpt>
      <trkpt lat="42.276685" lon="1.222914">
        <ele>1396.872</ele>
        <time>2021-06-19T19:58:23Z</time>
      </trkpt>
      <trkpt lat="42.276674" lon="1.222921">
        <ele>1397.013</ele>
        <time>2021-06-19T19:58:24Z</time>
      </trkpt>
      <trkpt lat="42.276611" lon="1.222976">
        <ele>1397.014</ele>
        <time>2021-06-19T19:58:30Z</time>
      </trkpt>
      <trkpt lat="42.276600" lon="1.222983">
        <ele>1397.108</ele>
        <time>2021-06-19T19:58:31Z</time>
      </trkpt>
      <trkpt lat="42.276589" lon="1.222988">
        <ele>1397.254</ele>
        <time>2021-06-19T19:58:32Z</time>
      </trkpt>
      <trkpt lat="42.276579" lon="1.222996">
        <ele>1397.283</ele>
        <time>2021-06-19T19:58:33Z</time>
      </trkpt>
      <trkpt lat="42.276519" lon="1.223050">
        <ele>1396.939</ele>
        <time>2021-06-19T19:58:39Z</time>
      </trkpt>
      <trkpt lat="42.276509" lon="1.223059">
        <ele>1396.973</ele>
        <time>2021-06-19T19:58:40Z</time>
      </trkpt>
      <trkpt lat="42.276424" lon="1.223079">
        <ele>1398.467</ele>
        <time>2021-06-19T19:58:47Z</time>
      </trkpt>
      <trkpt lat="42.276396" lon="1.223069">
        <ele>1399.497</ele>
        <time>2021-06-19T19:58:49Z</time>
      </trkpt>
      <trkpt lat="42.276283" lon="1.222982">
        <ele>1401.530</ele>
        <time>2021-06-19T19:58:57Z</time>
      </trkpt>
      <trkpt lat="42.276255" lon="1.222962">
        <ele>1401.987</ele>
        <time>2021-06-19T19:58:59Z</time>
      </trkpt>
      <trkpt lat="42.276194" lon="1.222924">
        <ele>1402.665</ele>
        <time>2021-06-19T19:59:04Z</time>
      </trkpt>
      <trkpt lat="42.276111" lon="1.222880">
        <ele>1403.368</ele>
        <time>2021-06-19T19:59:10Z</time>
      </trkpt>
      <trkpt lat="42.276083" lon="1.222871">
        <ele>1404.114</ele>
        <time>2021-06-19T19:59:12Z</time>
      </trkpt>
      <trkpt lat="42.275963" lon="1.222893">
        <ele>1405.408</ele>
        <time>2021-06-19T19:59:19Z</time>
      </trkpt>
      <trkpt lat="42.275930" lon="1.222948">
        <ele>1405.133</ele>
        <time>2021-06-19T19:59:22Z</time>
      </trkpt>
      <trkpt lat="42.275912" lon="1.223002">
        <ele>1404.962</ele>
        <time>2021-06-19T19:59:25Z</time>
      </trkpt>
      <trkpt lat="42.275892" lon="1.223159">
        <ele>1403.628</ele>
        <time>2021-06-19T19:59:32Z</time>
      </trkpt>
      <trkpt lat="42.275888" lon="1.223183">
        <ele>1403.572</ele>
        <time>2021-06-19T19:59:33Z</time>
      </trkpt>
      <trkpt lat="42.275838" lon="1.223341">
        <ele>1403.736</ele>
        <time>2021-06-19T19:59:40Z</time>
      </trkpt>
      <trkpt lat="42.275804" lon="1.223437">
        <ele>1403.586</ele>
        <time>2021-06-19T19:59:44Z</time>
      </trkpt>
      <trkpt lat="42.275759" lon="1.223514">
        <ele>1403.659</ele>
        <time>2021-06-19T19:59:48Z</time>
      </trkpt>
      <trkpt lat="42.275669" lon="1.223602">
        <ele>1404.326</ele>
        <time>2021-06-19T19:59:55Z</time>
      </trkpt>
      <trkpt lat="42.275498" lon="1.223677">
        <ele>1405.656</ele>
        <time>2021-06-19T20:00:04Z</time>
      </trkpt>
      <trkpt lat="42.275458" lon="1.223696">
        <ele>1405.659</ele>
        <time>2021-06-19T20:00:06Z</time>
      </trkpt>
      <trkpt lat="42.275311" lon="1.223749">
        <ele>1406.014</ele>
        <time>2021-06-19T20:00:13Z</time>
      </trkpt>
      <trkpt lat="42.275203" lon="1.223762">
        <ele>1406.408</ele>
        <time>2021-06-19T20:00:18Z</time>
      </trkpt>
      <trkpt lat="42.275096" lon="1.223760">
        <ele>1407.172</ele>
        <time>2021-06-19T20:00:23Z</time>
      </trkpt>
      <trkpt lat="42.274898" lon="1.223750">
        <ele>1408.031</ele>
        <time>2021-06-19T20:00:32Z</time>
      </trkpt>
      <trkpt lat="42.274875" lon="1.223748">
        <ele>1408.157</ele>
        <time>2021-06-19T20:00:33Z</time>
      </trkpt>
      <trkpt lat="42.274728" lon="1.223735">
        <ele>1408.641</ele>
        <time>2021-06-19T20:00:40Z</time>
      </trkpt>
      <trkpt lat="42.274624" lon="1.223709">
        <ele>1409.725</ele>
        <time>2021-06-19T20:00:45Z</time>
      </trkpt>
      <trkpt lat="42.274554" lon="1.223689">
        <ele>1410.465</ele>
        <time>2021-06-19T20:00:48Z</time>
      </trkpt>
      <trkpt lat="42.274391" lon="1.223677">
        <ele>1411.438</ele>
        <time>2021-06-19T20:00:55Z</time>
      </trkpt>
      <trkpt lat="42.274298" lon="1.223693">
        <ele>1412.395</ele>
        <time>2021-06-19T20:00:59Z</time>
      </trkpt>
      <trkpt lat="42.274248" lon="1.223698">
        <ele>1412.979</ele>
        <time>2021-06-19T20:01:01Z</time>
      </trkpt>
      <trkpt lat="42.274103" lon="1.223717">
        <ele>1414.205</ele>
        <time>2021-06-19T20:01:07Z</time>
      </trkpt>
      <trkpt lat="42.273881" lon="1.223782">
        <ele>1414.825</ele>
        <time>2021-06-19T20:01:17Z</time>
      </trkpt>
      <trkpt lat="42.273825" lon="1.223883">
        <ele>1413.508</ele>
        <time>2021-06-19T20:01:22Z</time>
      </trkpt>
      <trkpt lat="42.273827" lon="1.223909">
        <ele>1413.684</ele>
        <time>2021-06-19T20:01:23Z</time>
      </trkpt>
      <trkpt lat="42.273861" lon="1.223983">
        <ele>1413.673</ele>
        <time>2021-06-19T20:01:27Z</time>
      </trkpt>
      <trkpt lat="42.273866" lon="1.223993">
        <ele>1413.669</ele>
        <time>2021-06-19T20:01:28Z</time>
      </trkpt>
      <trkpt lat="42.273865" lon="1.224007">
        <ele>1413.873</ele>
        <time>2021-06-19T20:01:29Z</time>
      </trkpt>
      <trkpt lat="42.273868" lon="1.224063">
        <ele>1414.397</ele>
        <time>2021-06-19T20:01:32Z</time>
      </trkpt>
      <trkpt lat="42.273871" lon="1.224088">
        <ele>1414.537</ele>
        <time>2021-06-19T20:01:33Z</time>
      </trkpt>
      <trkpt lat="42.273875" lon="1.224111">
        <ele>1414.740</ele>
        <time>2021-06-19T20:01:34Z</time>
      </trkpt>
      <trkpt lat="42.273903" lon="1.224216">
        <ele>1415.287</ele>
        <time>2021-06-19T20:01:40Z</time>
      </trkpt>
      <trkpt lat="42.273942" lon="1.224340">
        <ele>1415.755</ele>
        <time>2021-06-19T20:01:46Z</time>
      </trkpt>
      <trkpt lat="42.273963" lon="1.224398">
        <ele>1415.907</ele>
        <time>2021-06-19T20:01:49Z</time>
      </trkpt>
      <trkpt lat="42.273995" lon="1.224474">
        <ele>1416.117</ele>
        <time>2021-06-19T20:01:53Z</time>
      </trkpt>
      <trkpt lat="42.274065" lon="1.224654">
        <ele>1417.208</ele>
        <time>2021-06-19T20:02:02Z</time>
      </trkpt>
      <trkpt lat="42.274104" lon="1.224802">
        <ele>1418.212</ele>
        <time>2021-06-19T20:02:09Z</time>
      </trkpt>
      <trkpt lat="42.274130" lon="1.224917">
        <ele>1418.981</ele>
        <time>2021-06-19T20:02:15Z</time>
      </trkpt>
      <trkpt lat="42.274165" lon="1.225058">
        <ele>1419.797</ele>
        <time>2021-06-19T20:02:22Z</time>
      </trkpt>
      <trkpt lat="42.274177" lon="1.225157">
        <ele>1420.541</ele>
        <time>2021-06-19T20:02:28Z</time>
      </trkpt>
      <trkpt lat="42.274179" lon="1.225204">
        <ele>1420.925</ele>
        <time>2021-06-19T20:02:30Z</time>
      </trkpt>
      <trkpt lat="42.274193" lon="1.225282">
        <ele>1421.425</ele>
        <time>2021-06-19T20:02:34Z</time>
      </trkpt>
      <trkpt lat="42.274207" lon="1.225408">
        <ele>1421.928</ele>
        <time>2021-06-19T20:02:40Z</time>
      </trkpt>
      <trkpt lat="42.274204" lon="1.225441">
        <ele>1422.215</ele>
        <time>2021-06-19T20:02:42Z</time>
      </trkpt>
      <trkpt lat="42.274201" lon="1.225459">
        <ele>1422.454</ele>
        <time>2021-06-19T20:02:44Z</time>
      </trkpt>
      <trkpt lat="42.274195" lon="1.225607">
        <ele>1423.556</ele>
        <time>2021-06-19T20:03:50Z</time>
      </trkpt>
      <trkpt lat="42.274195" lon="1.225628">
        <ele>1423.511</ele>
        <time>2021-06-19T20:03:51Z</time>
      </trkpt>
      <trkpt lat="42.274186" lon="1.225700">
        <ele>1424.008</ele>
        <time>2021-06-19T20:03:54Z</time>
      </trkpt>
      <trkpt lat="42.274173" lon="1.225764">
        <ele>1424.662</ele>
        <time>2021-06-19T20:03:57Z</time>
      </trkpt>
      <trkpt lat="42.274170" lon="1.225789">
        <ele>1424.731</ele>
        <time>2021-06-19T20:03:58Z</time>
      </trkpt>
      <trkpt lat="42.274162" lon="1.225836">
        <ele>1425.187</ele>
        <time>2021-06-19T20:04:00Z</time>
      </trkpt>
      <trkpt lat="42.274141" lon="1.226004">
        <ele>1425.631</ele>
        <time>2021-06-19T20:04:07Z</time>
      </trkpt>
      <trkpt lat="42.274136" lon="1.226203">
        <ele>1426.135</ele>
        <time>2021-06-19T20:04:15Z</time>
      </trkpt>
      <trkpt lat="42.274108" lon="1.226349">
        <ele>1427.255</ele>
        <time>2021-06-19T20:04:20Z</time>
      </trkpt>
      <trkpt lat="42.274098" lon="1.226371">
        <ele>1427.458</ele>
        <time>2021-06-19T20:04:21Z</time>
      </trkpt>
      <trkpt lat="42.274083" lon="1.226390">
        <ele>1427.895</ele>
        <time>2021-06-19T20:04:22Z</time>
      </trkpt>
      <trkpt lat="42.274006" lon="1.226380">
        <ele>1429.549</ele>
        <time>2021-06-19T20:04:27Z</time>
      </trkpt>
      <trkpt lat="42.273995" lon="1.226366">
        <ele>1429.702</ele>
        <time>2021-06-19T20:04:28Z</time>
      </trkpt>
      <trkpt lat="42.273978" lon="1.226248">
        <ele>1429.922</ele>
        <time>2021-06-19T20:04:34Z</time>
      </trkpt>
      <trkpt lat="42.273965" lon="1.226108">
        <ele>1430.108</ele>
        <time>2021-06-19T20:04:41Z</time>
      </trkpt>
      <trkpt lat="42.273958" lon="1.226089">
        <ele>1430.341</ele>
        <time>2021-06-19T20:04:42Z</time>
      </trkpt>
      <trkpt lat="42.273933" lon="1.225970">
        <ele>1430.910</ele>
        <time>2021-06-19T20:04:48Z</time>
      </trkpt>
      <trkpt lat="42.273873" lon="1.225812">
        <ele>1432.346</ele>
        <time>2021-06-19T20:04:56Z</time>
      </trkpt>
      <trkpt lat="42.273821" lon="1.225703">
        <ele>1433.170</ele>
        <time>2021-06-19T20:05:02Z</time>
      </trkpt>
      <trkpt lat="42.273786" lon="1.225654">
        <ele>1433.794</ele>
        <time>2021-06-19T20:05:05Z</time>
      </trkpt>
      <trkpt lat="42.273736" lon="1.225564">
        <ele>1434.354</ele>
        <time>2021-06-19T20:05:10Z</time>
      </trkpt>
      <trkpt lat="42.273702" lon="1.225512">
        <ele>1434.667</ele>
        <time>2021-06-19T20:05:13Z</time>
      </trkpt>
      <trkpt lat="42.273632" lon="1.225441">
        <ele>1435.334</ele>
        <time>2021-06-19T20:05:18Z</time>
      </trkpt>
      <trkpt lat="42.273543" lon="1.225328">
        <ele>1436.137</ele>
        <time>2021-06-19T20:05:26Z</time>
      </trkpt>
      <trkpt lat="42.273429" lon="1.225225">
        <ele>1437.549</ele>
        <time>2021-06-19T20:05:34Z</time>
      </trkpt>
      <trkpt lat="42.273389" lon="1.225183">
        <ele>1438.013</ele>
        <time>2021-06-19T20:05:37Z</time>
      </trkpt>
      <trkpt lat="42.273298" lon="1.225119">
        <ele>1439.608</ele>
        <time>2021-06-19T20:05:43Z</time>
      </trkpt>
      <trkpt lat="42.273165" lon="1.225038">
        <ele>1441.590</ele>
        <time>2021-06-19T20:05:52Z</time>
      </trkpt>
      <trkpt lat="42.273088" lon="1.224981">
        <ele>1442.229</ele>
        <time>2021-06-19T20:05:58Z</time>
      </trkpt>
      <trkpt lat="42.272995" lon="1.224918">
        <ele>1443.465</ele>
        <time>2021-06-19T20:06:05Z</time>
      </trkpt>
      <trkpt lat="42.272874" lon="1.224812">
        <ele>1444.919</ele>
        <time>2021-06-19T20:06:14Z</time>
      </trkpt>
      <trkpt lat="42.272783" lon="1.224701">
        <ele>1445.653</ele>
        <time>2021-06-19T20:06:22Z</time>
      </trkpt>
      <trkpt lat="42.272763" lon="1.224671">
        <ele>1445.533</ele>
        <time>2021-06-19T20:06:24Z</time>
      </trkpt>
      <trkpt lat="42.272713" lon="1.224617">
        <ele>1445.826</ele>
        <time>2021-06-19T20:06:28Z</time>
      </trkpt>
      <trkpt lat="42.272660" lon="1.224554">
        <ele>1446.283</ele>
        <time>2021-06-19T20:06:33Z</time>
      </trkpt>
      <trkpt lat="42.272629" lon="1.224524">
        <ele>1446.647</ele>
        <time>2021-06-19T20:06:36Z</time>
      </trkpt>
      <trkpt lat="42.272576" lon="1.224586">
        <ele>1448.429</ele>
        <time>2021-06-19T20:06:41Z</time>
      </trkpt>
      <trkpt lat="42.272563" lon="1.224663">
        <ele>1449.321</ele>
        <time>2021-06-19T20:06:45Z</time>
      </trkpt>
      <trkpt lat="42.272576" lon="1.224704">
        <ele>1449.508</ele>
        <time>2021-06-19T20:06:47Z</time>
      </trkpt>
      <trkpt lat="42.272622" lon="1.224801">
        <ele>1449.821</ele>
        <time>2021-06-19T20:06:53Z</time>
      </trkpt>
      <trkpt lat="42.272661" lon="1.224837">
        <ele>1449.520</ele>
        <time>2021-06-19T20:06:56Z</time>
      </trkpt>
      <trkpt lat="42.272720" lon="1.224935">
        <ele>1449.556</ele>
        <time>2021-06-19T20:07:02Z</time>
      </trkpt>
      <trkpt lat="42.272760" lon="1.225058">
        <ele>1450.070</ele>
        <time>2021-06-19T20:07:08Z</time>
      </trkpt>
      <trkpt lat="42.272795" lon="1.225171">
        <ele>1450.544</ele>
        <time>2021-06-19T20:07:14Z</time>
      </trkpt>
      <trkpt lat="42.272819" lon="1.225228">
        <ele>1450.774</ele>
        <time>2021-06-19T20:07:17Z</time>
      </trkpt>
      <trkpt lat="42.272831" lon="1.225282">
        <ele>1451.127</ele>
        <time>2021-06-19T20:07:20Z</time>
      </trkpt>
      <trkpt lat="42.272838" lon="1.225304">
        <ele>1451.274</ele>
        <time>2021-06-19T20:07:21Z</time>
      </trkpt>
      <trkpt lat="42.272857" lon="1.225367">
        <ele>1451.441</ele>
        <time>2021-06-19T20:07:24Z</time>
      </trkpt>
      <trkpt lat="42.272879" lon="1.225451">
        <ele>1451.881</ele>
        <time>2021-06-19T20:07:28Z</time>
      </trkpt>
      <trkpt lat="42.272912" lon="1.225622">
        <ele>1452.809</ele>
        <time>2021-06-19T20:07:36Z</time>
      </trkpt>
      <trkpt lat="42.272931" lon="1.225719">
        <ele>1453.508</ele>
        <time>2021-06-19T20:07:41Z</time>
      </trkpt>
      <trkpt lat="42.272943" lon="1.225758">
        <ele>1453.641</ele>
        <time>2021-06-19T20:07:43Z</time>
      </trkpt>
      <trkpt lat="42.272978" lon="1.225964">
        <ele>1454.680</ele>
        <time>2021-06-19T20:07:52Z</time>
      </trkpt>
      <trkpt lat="42.272989" lon="1.226084">
        <ele>1455.286</ele>
        <time>2021-06-19T20:07:57Z</time>
      </trkpt>
      <trkpt lat="42.272996" lon="1.226149">
        <ele>1455.510</ele>
        <time>2021-06-19T20:08:00Z</time>
      </trkpt>
      <trkpt lat="42.273002" lon="1.226270">
        <ele>1455.884</ele>
        <time>2021-06-19T20:08:06Z</time>
      </trkpt>
      <trkpt lat="42.272996" lon="1.226370">
        <ele>1456.414</ele>
        <time>2021-06-19T20:08:12Z</time>
      </trkpt>
      <trkpt lat="42.272972" lon="1.226432">
        <ele>1457.337</ele>
        <time>2021-06-19T20:08:15Z</time>
      </trkpt>
      <trkpt lat="42.272955" lon="1.226489">
        <ele>1457.974</ele>
        <time>2021-06-19T20:08:18Z</time>
      </trkpt>
      <trkpt lat="42.272954" lon="1.226521">
        <ele>1458.017</ele>
        <time>2021-06-19T20:08:20Z</time>
      </trkpt>
      <trkpt lat="42.272938" lon="1.226610">
        <ele>1458.887</ele>
        <time>2021-06-19T20:08:24Z</time>
      </trkpt>
      <trkpt lat="42.272912" lon="1.226756">
        <ele>1459.815</ele>
        <time>2021-06-19T20:08:31Z</time>
      </trkpt>
      <trkpt lat="42.272894" lon="1.226875">
        <ele>1460.508</ele>
        <time>2021-06-19T20:08:38Z</time>
      </trkpt>
      <trkpt lat="42.272870" lon="1.226946">
        <ele>1461.338</ele>
        <time>2021-06-19T20:08:42Z</time>
      </trkpt>
      <trkpt lat="42.272856" lon="1.226981">
        <ele>1461.747</ele>
        <time>2021-06-19T20:08:44Z</time>
      </trkpt>
      <trkpt lat="42.272816" lon="1.227080">
        <ele>1462.563</ele>
        <time>2021-06-19T20:08:50Z</time>
      </trkpt>
      <trkpt lat="42.272766" lon="1.227246">
        <ele>1463.347</ele>
        <time>2021-06-19T20:08:58Z</time>
      </trkpt>
      <trkpt lat="42.272715" lon="1.227360">
        <ele>1464.511</ele>
        <time>2021-06-19T20:09:04Z</time>
      </trkpt>
      <trkpt lat="42.272675" lon="1.227484">
        <ele>1465.291</ele>
        <time>2021-06-19T20:09:10Z</time>
      </trkpt>
      <trkpt lat="42.272667" lon="1.227503">
        <ele>1465.494</ele>
        <time>2021-06-19T20:09:11Z</time>
      </trkpt>
      <trkpt lat="42.272633" lon="1.227593">
        <ele>1465.541</ele>
        <time>2021-06-19T20:09:16Z</time>
      </trkpt>
      <trkpt lat="42.272627" lon="1.227614">
        <ele>1465.599</ele>
        <time>2021-06-19T20:09:17Z</time>
      </trkpt>
      <trkpt lat="42.272588" lon="1.227694">
        <ele>1466.007</ele>
        <time>2021-06-19T20:09:21Z</time>
      </trkpt>
      <trkpt lat="42.272542" lon="1.227768">
        <ele>1466.827</ele>
        <time>2021-06-19T20:09:25Z</time>
      </trkpt>
      <trkpt lat="42.272434" lon="1.227917">
        <ele>1467.508</ele>
        <time>2021-06-19T20:09:33Z</time>
      </trkpt>
      <trkpt lat="42.272359" lon="1.228008">
        <ele>1468.296</ele>
        <time>2021-06-19T20:09:39Z</time>
      </trkpt>
      <trkpt lat="42.272299" lon="1.228104">
        <ele>1468.665</ele>
        <time>2021-06-19T20:09:45Z</time>
      </trkpt>
      <trkpt lat="42.272236" lon="1.228221">
        <ele>1468.991</ele>
        <time>2021-06-19T20:09:50Z</time>
      </trkpt>
      <trkpt lat="42.272177" lon="1.228394">
        <ele>1469.045</ele>
        <time>2021-06-19T20:09:57Z</time>
      </trkpt>
      <trkpt lat="42.272135" lon="1.228554">
        <ele>1469.589</ele>
        <time>2021-06-19T20:10:03Z</time>
      </trkpt>
      <trkpt lat="42.272088" lon="1.228752">
        <ele>1470.199</ele>
        <time>2021-06-19T20:10:10Z</time>
      </trkpt>
      <trkpt lat="42.272066" lon="1.228840">
        <ele>1470.682</ele>
        <time>2021-06-19T20:10:14Z</time>
      </trkpt>
      <trkpt lat="42.272058" lon="1.228868">
        <ele>1470.829</ele>
        <time>2021-06-19T20:10:15Z</time>
      </trkpt>
      <trkpt lat="42.272027" lon="1.229060">
        <ele>1471.849</ele>
        <time>2021-06-19T20:10:22Z</time>
      </trkpt>
      <trkpt lat="42.271978" lon="1.229250">
        <ele>1473.202</ele>
        <time>2021-06-19T20:10:29Z</time>
      </trkpt>
      <trkpt lat="42.271947" lon="1.229353">
        <ele>1473.922</ele>
        <time>2021-06-19T20:10:35Z</time>
      </trkpt>
      <trkpt lat="42.271907" lon="1.229501">
        <ele>1474.908</ele>
        <time>2021-06-19T20:10:41Z</time>
      </trkpt>
      <trkpt lat="42.271864" lon="1.229730">
        <ele>1475.571</ele>
        <time>2021-06-19T20:10:49Z</time>
      </trkpt>
      <trkpt lat="42.271819" lon="1.229874">
        <ele>1476.670</ele>
        <time>2021-06-19T20:10:56Z</time>
      </trkpt>
      <trkpt lat="42.271783" lon="1.230030">
        <ele>1477.426</ele>
        <time>2021-06-19T20:11:03Z</time>
      </trkpt>
      <trkpt lat="42.271716" lon="1.230219">
        <ele>1478.680</ele>
        <time>2021-06-19T20:11:11Z</time>
      </trkpt>
      <trkpt lat="42.271628" lon="1.230325">
        <ele>1479.724</ele>
        <time>2021-06-19T20:11:18Z</time>
      </trkpt>
      <trkpt lat="42.271546" lon="1.230442">
        <ele>1480.964</ele>
        <time>2021-06-19T20:11:25Z</time>
      </trkpt>
      <trkpt lat="42.271486" lon="1.230576">
        <ele>1481.687</ele>
        <time>2021-06-19T20:11:32Z</time>
      </trkpt>
      <trkpt lat="42.271421" lon="1.230712">
        <ele>1482.814</ele>
        <time>2021-06-19T20:11:40Z</time>
      </trkpt>
      <trkpt lat="42.271371" lon="1.230907">
        <ele>1485.257</ele>
        <time>2021-06-19T20:11:49Z</time>
      </trkpt>
      <trkpt lat="42.271361" lon="1.230924">
        <ele>1485.600</ele>
        <time>2021-06-19T20:11:50Z</time>
      </trkpt>
      <trkpt lat="42.271341" lon="1.230977">
        <ele>1486.520</ele>
        <time>2021-06-19T20:11:53Z</time>
      </trkpt>
      <trkpt lat="42.271281" lon="1.231131">
        <ele>1489.008</ele>
        <time>2021-06-19T20:12:02Z</time>
      </trkpt>
      <trkpt lat="42.271249" lon="1.231223">
        <ele>1490.252</ele>
        <time>2021-06-19T20:12:07Z</time>
      </trkpt>
      <trkpt lat="42.271241" lon="1.231238">
        <ele>1490.411</ele>
        <time>2021-06-19T20:12:08Z</time>
      </trkpt>
      <trkpt lat="42.271175" lon="1.231372">
        <ele>1491.897</ele>
        <time>2021-06-19T20:12:16Z</time>
      </trkpt>
      <trkpt lat="42.271152" lon="1.231426">
        <ele>1492.341</ele>
        <time>2021-06-19T20:12:21Z</time>
      </trkpt>
      <trkpt lat="42.270805" lon="1.232429">
        <ele>1498.055</ele>
        <time>2021-06-19T20:14:58Z</time>
      </trkpt>
      <trkpt lat="42.270799" lon="1.232483">
        <ele>1498.075</ele>
        <time>2021-06-19T20:15:00Z</time>
      </trkpt>
      <trkpt lat="42.270796" lon="1.232543">
        <ele>1497.858</ele>
        <time>2021-06-19T20:15:02Z</time>
      </trkpt>
      <trkpt lat="42.270765" lon="1.232710">
        <ele>1497.145</ele>
        <time>2021-06-19T20:15:07Z</time>
      </trkpt>
      <trkpt lat="42.270661" lon="1.232900">
        <ele>1495.822</ele>
        <time>2021-06-19T20:15:13Z</time>
      </trkpt>
      <trkpt lat="42.270590" lon="1.233011">
        <ele>1495.262</ele>
        <time>2021-06-19T20:15:18Z</time>
      </trkpt>
      <trkpt lat="42.270578" lon="1.233026">
        <ele>1495.108</ele>
        <time>2021-06-19T20:15:19Z</time>
      </trkpt>
      <trkpt lat="42.270510" lon="1.233101">
        <ele>1495.008</ele>
        <time>2021-06-19T20:15:24Z</time>
      </trkpt>
      <trkpt lat="42.270440" lon="1.233259">
        <ele>1494.499</ele>
        <time>2021-06-19T20:15:30Z</time>
      </trkpt>
      <trkpt lat="42.270420" lon="1.233339">
        <ele>1493.978</ele>
        <time>2021-06-19T20:15:32Z</time>
      </trkpt>
      <trkpt lat="42.270424" lon="1.233448">
        <ele>1493.174</ele>
        <time>2021-06-19T20:15:34Z</time>
      </trkpt>
      <trkpt lat="42.270435" lon="1.233576">
        <ele>1492.148</ele>
        <time>2021-06-19T20:15:36Z</time>
      </trkpt>
      <trkpt lat="42.270460" lon="1.233719">
        <ele>1491.262</ele>
        <time>2021-06-19T20:15:38Z</time>
      </trkpt>
      <trkpt lat="42.270476" lon="1.233794">
        <ele>1490.622</ele>
        <time>2021-06-19T20:15:39Z</time>
      </trkpt>
      <trkpt lat="42.270521" lon="1.234124">
        <ele>1489.445</ele>
        <time>2021-06-19T20:15:43Z</time>
      </trkpt>
      <trkpt lat="42.270571" lon="1.234594">
        <ele>1488.312</ele>
        <time>2021-06-19T20:15:49Z</time>
      </trkpt>
      <trkpt lat="42.270568" lon="1.234666">
        <ele>1488.198</ele>
        <time>2021-06-19T20:15:50Z</time>
      </trkpt>
      <trkpt lat="42.270516" lon="1.234871">
        <ele>1487.715</ele>
        <time>2021-06-19T20:15:53Z</time>
      </trkpt>
      <trkpt lat="42.270458" lon="1.234988">
        <ele>1487.426</ele>
        <time>2021-06-19T20:15:55Z</time>
      </trkpt>
      <trkpt lat="42.270426" lon="1.235040">
        <ele>1487.308</ele>
        <time>2021-06-19T20:15:56Z</time>
      </trkpt>
      <trkpt lat="42.270334" lon="1.235173">
        <ele>1486.796</ele>
        <time>2021-06-19T20:15:59Z</time>
      </trkpt>
      <trkpt lat="42.270193" lon="1.235295">
        <ele>1485.135</ele>
        <time>2021-06-19T20:16:03Z</time>
      </trkpt>
      <trkpt lat="42.270152" lon="1.235307">
        <ele>1484.721</ele>
        <time>2021-06-19T20:16:04Z</time>
      </trkpt>
      <trkpt lat="42.270026" lon="1.235294">
        <ele>1484.055</ele>
        <time>2021-06-19T20:16:08Z</time>
      </trkpt>
      <trkpt lat="42.269856" lon="1.235213">
        <ele>1483.389</ele>
        <time>2021-06-19T20:16:13Z</time>
      </trkpt>
      <trkpt lat="42.269698" lon="1.235149">
        <ele>1482.539</ele>
        <time>2021-06-19T20:16:17Z</time>
      </trkpt>
      <trkpt lat="42.269460" lon="1.235067">
        <ele>1480.772</ele>
        <time>2021-06-19T20:16:23Z</time>
      </trkpt>
      <trkpt lat="42.269418" lon="1.235044">
        <ele>1480.229</ele>
        <time>2021-06-19T20:16:24Z</time>
      </trkpt>
      <trkpt lat="42.269376" lon="1.235017">
        <ele>1479.426</ele>
        <time>2021-06-19T20:16:25Z</time>
      </trkpt>
      <trkpt lat="42.269266" lon="1.234883">
        <ele>1479.447</ele>
        <time>2021-06-19T20:16:28Z</time>
      </trkpt>
      <trkpt lat="42.269112" lon="1.234701">
        <ele>1480.511</ele>
        <time>2021-06-19T20:16:32Z</time>
      </trkpt>
      <trkpt lat="42.269068" lon="1.234672">
        <ele>1480.408</ele>
        <time>2021-06-19T20:16:33Z</time>
      </trkpt>
      <trkpt lat="42.268947" lon="1.234571">
        <ele>1480.039</ele>
        <time>2021-06-19T20:16:37Z</time>
      </trkpt>
      <trkpt lat="42.268859" lon="1.234401">
        <ele>1480.898</ele>
        <time>2021-06-19T20:16:43Z</time>
      </trkpt>
      <trkpt lat="42.268717" lon="1.234144">
        <ele>1480.884</ele>
        <time>2021-06-19T20:16:51Z</time>
      </trkpt>
      <trkpt lat="42.268547" lon="1.233871">
        <ele>1481.778</ele>
        <time>2021-06-19T20:17:01Z</time>
      </trkpt>
      <trkpt lat="42.268443" lon="1.233757">
        <ele>1481.412</ele>
        <time>2021-06-19T20:17:07Z</time>
      </trkpt>
      <trkpt lat="42.268314" lon="1.233668">
        <ele>1480.572</ele>
        <time>2021-06-19T20:17:12Z</time>
      </trkpt>
      <trkpt lat="42.268128" lon="1.233603">
        <ele>1479.295</ele>
        <time>2021-06-19T20:17:17Z</time>
      </trkpt>
      <trkpt lat="42.267993" lon="1.233566">
        <ele>1478.392</ele>
        <time>2021-06-19T20:17:20Z</time>
      </trkpt>
      <trkpt lat="42.267860" lon="1.233543">
        <ele>1477.461</ele>
        <time>2021-06-19T20:17:23Z</time>
      </trkpt>
      <trkpt lat="42.267622" lon="1.233475">
        <ele>1476.321</ele>
        <time>2021-06-19T20:17:28Z</time>
      </trkpt>
      <trkpt lat="42.267574" lon="1.233458">
        <ele>1476.113</ele>
        <time>2021-06-19T20:17:29Z</time>
      </trkpt>
      <trkpt lat="42.267425" lon="1.233403">
        <ele>1475.408</ele>
        <time>2021-06-19T20:17:32Z</time>
      </trkpt>
      <trkpt lat="42.267220" lon="1.233316">
        <ele>1474.483</ele>
        <time>2021-06-19T20:17:36Z</time>
      </trkpt>
      <trkpt lat="42.266929" lon="1.233205">
        <ele>1472.552</ele>
        <time>2021-06-19T20:17:42Z</time>
      </trkpt>
      <trkpt lat="42.266835" lon="1.233170">
        <ele>1471.648</ele>
        <time>2021-06-19T20:17:44Z</time>
      </trkpt>
      <trkpt lat="42.266662" lon="1.233100">
        <ele>1470.042</ele>
        <time>2021-06-19T20:17:48Z</time>
      </trkpt>
      <trkpt lat="42.266444" lon="1.233006">
        <ele>1468.226</ele>
        <time>2021-06-19T20:17:53Z</time>
      </trkpt>
      <trkpt lat="42.266402" lon="1.232984">
        <ele>1468.026</ele>
        <time>2021-06-19T20:17:54Z</time>
      </trkpt>
      <trkpt lat="42.266236" lon="1.232903">
        <ele>1467.369</ele>
        <time>2021-06-19T20:17:58Z</time>
      </trkpt>
      <trkpt lat="42.266051" lon="1.232804">
        <ele>1466.176</ele>
        <time>2021-06-19T20:18:03Z</time>
      </trkpt>
      <trkpt lat="42.265936" lon="1.232732">
        <ele>1465.244</ele>
        <time>2021-06-19T20:18:06Z</time>
      </trkpt>
      <trkpt lat="42.265793" lon="1.232633">
        <ele>1464.205</ele>
        <time>2021-06-19T20:18:09Z</time>
      </trkpt>
      <trkpt lat="42.265739" lon="1.232597">
        <ele>1463.615</ele>
        <time>2021-06-19T20:18:10Z</time>
      </trkpt>
      <trkpt lat="42.265556" lon="1.232452">
        <ele>1461.908</ele>
        <time>2021-06-19T20:18:14Z</time>
      </trkpt>
      <trkpt lat="42.265506" lon="1.232420">
        <ele>1461.331</ele>
        <time>2021-06-19T20:18:15Z</time>
      </trkpt>
      <trkpt lat="42.265452" lon="1.232381">
        <ele>1460.720</ele>
        <time>2021-06-19T20:18:16Z</time>
      </trkpt>
      <trkpt lat="42.265301" lon="1.232235">
        <ele>1459.466</ele>
        <time>2021-06-19T20:18:19Z</time>
      </trkpt>
      <trkpt lat="42.265164" lon="1.232085">
        <ele>1458.650</ele>
        <time>2021-06-19T20:18:22Z</time>
      </trkpt>
      <trkpt lat="42.265097" lon="1.231988">
        <ele>1458.254</ele>
        <time>2021-06-19T20:18:24Z</time>
      </trkpt>
      <trkpt lat="42.264992" lon="1.231941">
        <ele>1456.284</ele>
        <time>2021-06-19T20:18:27Z</time>
      </trkpt>
      <trkpt lat="42.264951" lon="1.232017">
        <ele>1456.317</ele>
        <time>2021-06-19T20:18:30Z</time>
      </trkpt>
      <trkpt lat="42.264940" lon="1.232057">
        <ele>1456.364</ele>
        <time>2021-06-19T20:18:32Z</time>
      </trkpt>
      <trkpt lat="42.264935" lon="1.232158">
        <ele>1455.889</ele>
        <time>2021-06-19T20:18:36Z</time>
      </trkpt>
      <trkpt lat="42.264923" lon="1.232339">
        <ele>1454.906</ele>
        <time>2021-06-19T20:18:43Z</time>
      </trkpt>
      <trkpt lat="42.264897" lon="1.232506">
        <ele>1454.826</ele>
        <time>2021-06-19T20:18:48Z</time>
      </trkpt>
      <trkpt lat="42.264884" lon="1.232687">
        <ele>1455.308</ele>
        <time>2021-06-19T20:18:53Z</time>
      </trkpt>
      <trkpt lat="42.264887" lon="1.232750">
        <ele>1455.115</ele>
        <time>2021-06-19T20:18:55Z</time>
      </trkpt>
      <trkpt lat="42.264897" lon="1.232838">
        <ele>1454.444</ele>
        <time>2021-06-19T20:18:58Z</time>
      </trkpt>
      <trkpt lat="42.264919" lon="1.233054">
        <ele>1452.790</ele>
        <time>2021-06-19T20:19:03Z</time>
      </trkpt>
      <trkpt lat="42.264922" lon="1.233104">
        <ele>1452.584</ele>
        <time>2021-06-19T20:19:04Z</time>
      </trkpt>
      <trkpt lat="42.264915" lon="1.233360">
        <ele>1452.828</ele>
        <time>2021-06-19T20:19:09Z</time>
      </trkpt>
      <trkpt lat="42.264885" lon="1.233607">
        <ele>1453.438</ele>
        <time>2021-06-19T20:19:14Z</time>
      </trkpt>
      <trkpt lat="42.264789" lon="1.233892">
        <ele>1454.591</ele>
        <time>2021-06-19T20:19:20Z</time>
      </trkpt>
      <trkpt lat="42.264673" lon="1.234162">
        <ele>1452.988</ele>
        <time>2021-06-19T20:19:26Z</time>
      </trkpt>
      <trkpt lat="42.264621" lon="1.234281">
        <ele>1451.959</ele>
        <time>2021-06-19T20:19:29Z</time>
      </trkpt>
      <trkpt lat="42.264571" lon="1.234381">
        <ele>1451.003</ele>
        <time>2021-06-19T20:19:31Z</time>
      </trkpt>
      <trkpt lat="42.264391" lon="1.234769">
        <ele>1447.523</ele>
        <time>2021-06-19T20:19:38Z</time>
      </trkpt>
      <trkpt lat="42.264251" lon="1.235061">
        <ele>1444.408</ele>
        <time>2021-06-19T20:19:43Z</time>
      </trkpt>
      <trkpt lat="42.264223" lon="1.235108">
        <ele>1443.922</ele>
        <time>2021-06-19T20:19:44Z</time>
      </trkpt>
      <trkpt lat="42.264035" lon="1.235413">
        <ele>1440.511</ele>
        <time>2021-06-19T20:19:50Z</time>
      </trkpt>
      <trkpt lat="42.264004" lon="1.235463">
        <ele>1439.787</ele>
        <time>2021-06-19T20:19:51Z</time>
      </trkpt>
      <trkpt lat="42.263796" lon="1.235805">
        <ele>1436.241</ele>
        <time>2021-06-19T20:19:57Z</time>
      </trkpt>
      <trkpt lat="42.263758" lon="1.235869">
        <ele>1435.635</ele>
        <time>2021-06-19T20:19:58Z</time>
      </trkpt>
      <trkpt lat="42.263615" lon="1.236095">
        <ele>1433.335</ele>
        <time>2021-06-19T20:20:02Z</time>
      </trkpt>
      <trkpt lat="42.263494" lon="1.236273">
        <ele>1432.178</ele>
        <time>2021-06-19T20:20:05Z</time>
      </trkpt>
      <trkpt lat="42.263402" lon="1.236361">
        <ele>1431.715</ele>
        <time>2021-06-19T20:20:07Z</time>
      </trkpt>
      <trkpt lat="42.263344" lon="1.236440">
        <ele>1431.514</ele>
        <time>2021-06-19T20:20:09Z</time>
      </trkpt>
      <trkpt lat="42.263332" lon="1.236501">
        <ele>1431.254</ele>
        <time>2021-06-19T20:20:10Z</time>
      </trkpt>
      <trkpt lat="42.263372" lon="1.236610">
        <ele>1430.009</ele>
        <time>2021-06-19T20:20:13Z</time>
      </trkpt>
      <trkpt lat="42.263485" lon="1.236669">
        <ele>1428.408</ele>
        <time>2021-06-19T20:20:18Z</time>
      </trkpt>
      <trkpt lat="42.263513" lon="1.236679">
        <ele>1428.398</ele>
        <time>2021-06-19T20:20:19Z</time>
      </trkpt>
      <trkpt lat="42.263563" lon="1.236707">
        <ele>1428.277</ele>
        <time>2021-06-19T20:20:21Z</time>
      </trkpt>
      <trkpt lat="42.263603" lon="1.236729">
        <ele>1428.233</ele>
        <time>2021-06-19T20:20:23Z</time>
      </trkpt>
      <trkpt lat="42.263620" lon="1.236738">
        <ele>1428.297</ele>
        <time>2021-06-19T20:20:26Z</time>
      </trkpt>
      <trkpt lat="42.263677" lon="1.236767">
        <ele>1428.391</ele>
        <time>2021-06-19T20:20:41Z</time>
      </trkpt>
      <trkpt lat="42.263776" lon="1.236793">
        <ele>1428.161</ele>
        <time>2021-06-19T20:20:46Z</time>
      </trkpt>
      <trkpt lat="42.263831" lon="1.236799">
        <ele>1427.874</ele>
        <time>2021-06-19T20:20:48Z</time>
      </trkpt>
      <trkpt lat="42.263880" lon="1.236827">
        <ele>1428.071</ele>
        <time>2021-06-19T20:20:50Z</time>
      </trkpt>
      <trkpt lat="42.263888" lon="1.236883">
        <ele>1428.988</ele>
        <time>2021-06-19T20:20:53Z</time>
      </trkpt>
      <trkpt lat="42.263843" lon="1.236892">
        <ele>1429.424</ele>
        <time>2021-06-19T20:20:57Z</time>
      </trkpt>
      <trkpt lat="42.263831" lon="1.236890">
        <ele>1429.426</ele>
        <time>2021-06-19T20:20:58Z</time>
      </trkpt>
      <trkpt lat="42.263793" lon="1.236887">
        <ele>1429.708</ele>
        <time>2021-06-19T20:21:01Z</time>
      </trkpt>
      <trkpt lat="42.263756" lon="1.236881">
        <ele>1429.855</ele>
        <time>2021-06-19T20:21:04Z</time>
      </trkpt>
      <trkpt lat="42.263722" lon="1.236880">
        <ele>1430.094</ele>
        <time>2021-06-19T20:21:07Z</time>
      </trkpt>
      <trkpt lat="42.263661" lon="1.236891">
        <ele>1430.790</ele>
        <time>2021-06-19T20:21:12Z</time>
      </trkpt>
      <trkpt lat="42.263588" lon="1.236925">
        <ele>1431.944</ele>
        <time>2021-06-19T20:21:18Z</time>
      </trkpt>
      <trkpt lat="42.263573" lon="1.236930">
        <ele>1432.268</ele>
        <time>2021-06-19T20:21:19Z</time>
      </trkpt>
      <trkpt lat="42.263496" lon="1.236940">
        <ele>1433.268</ele>
        <time>2021-06-19T20:21:26Z</time>
      </trkpt>
      <trkpt lat="42.263497" lon="1.236941">
        <ele>1433.291</ele>
        <time>2021-06-19T20:21:27Z</time>
      </trkpt>
      <trkpt lat="42.263196" lon="1.236971">
        <ele>1437.638</ele>
        <time>2021-06-19T20:23:13Z</time>
      </trkpt>
      <trkpt lat="42.263157" lon="1.236968">
        <ele>1438.099</ele>
        <time>2021-06-19T20:23:16Z</time>
      </trkpt>
      <trkpt lat="42.263084" lon="1.236951">
        <ele>1438.707</ele>
        <time>2021-06-19T20:23:23Z</time>
      </trkpt>
      <trkpt lat="42.263046" lon="1.236952">
        <ele>1439.327</ele>
        <time>2021-06-19T20:23:26Z</time>
      </trkpt>
      <trkpt lat="42.263021" lon="1.236939">
        <ele>1439.408</ele>
        <time>2021-06-19T20:23:28Z</time>
      </trkpt>
      <trkpt lat="42.262956" lon="1.236923">
        <ele>1440.086</ele>
        <time>2021-06-19T20:23:33Z</time>
      </trkpt>
      <trkpt lat="42.262922" lon="1.236917">
        <ele>1440.315</ele>
        <time>2021-06-19T20:23:36Z</time>
      </trkpt>
      <trkpt lat="42.262909" lon="1.236919">
        <ele>1440.681</ele>
        <time>2021-06-19T20:23:37Z</time>
      </trkpt>
      <trkpt lat="42.262884" lon="1.236924">
        <ele>1441.025</ele>
        <time>2021-06-19T20:23:39Z</time>
      </trkpt>
      <trkpt lat="42.262824" lon="1.236921">
        <ele>1441.869</ele>
        <time>2021-06-19T20:23:44Z</time>
      </trkpt>
      <trkpt lat="42.262723" lon="1.236909">
        <ele>1442.829</ele>
        <time>2021-06-19T20:23:52Z</time>
      </trkpt>
      <trkpt lat="42.262653" lon="1.236904">
        <ele>1443.592</ele>
        <time>2021-06-19T20:23:58Z</time>
      </trkpt>
      <trkpt lat="42.262619" lon="1.236900">
        <ele>1443.849</ele>
        <time>2021-06-19T20:24:01Z</time>
      </trkpt>
      <trkpt lat="42.262531" lon="1.236886">
        <ele>1444.458</ele>
        <time>2021-06-19T20:24:09Z</time>
      </trkpt>
      <trkpt lat="42.262408" lon="1.236842">
        <ele>1445.152</ele>
        <time>2021-06-19T20:24:19Z</time>
      </trkpt>
      <trkpt lat="42.262361" lon="1.236820">
        <ele>1445.317</ele>
        <time>2021-06-19T20:24:23Z</time>
      </trkpt>
      <trkpt lat="42.262315" lon="1.236798">
        <ele>1445.508</ele>
        <time>2021-06-19T20:24:27Z</time>
      </trkpt>
      <trkpt lat="42.262224" lon="1.236789">
        <ele>1446.662</ele>
        <time>2021-06-19T20:24:35Z</time>
      </trkpt>
      <trkpt lat="42.262129" lon="1.236808">
        <ele>1448.171</ele>
        <time>2021-06-19T20:24:43Z</time>
      </trkpt>
      <trkpt lat="42.262116" lon="1.236812">
        <ele>1448.397</ele>
        <time>2021-06-19T20:24:44Z</time>
      </trkpt>
      <trkpt lat="42.262014" lon="1.236840">
        <ele>1449.841</ele>
        <time>2021-06-19T20:24:52Z</time>
      </trkpt>
      <trkpt lat="42.261997" lon="1.236846">
        <ele>1450.175</ele>
        <time>2021-06-19T20:24:55Z</time>
      </trkpt>
      <trkpt lat="42.261965" lon="1.236833">
        <ele>1450.235</ele>
        <time>2021-06-19T20:25:16Z</time>
      </trkpt>
      <trkpt lat="42.261952" lon="1.236823">
        <ele>1450.258</ele>
        <time>2021-06-19T20:25:17Z</time>
      </trkpt>
      <trkpt lat="42.261892" lon="1.236747">
        <ele>1450.265</ele>
        <time>2021-06-19T20:25:24Z</time>
      </trkpt>
      <trkpt lat="42.261790" lon="1.236652">
        <ele>1451.018</ele>
        <time>2021-06-19T20:25:33Z</time>
      </trkpt>
      <trkpt lat="42.261674" lon="1.236602">
        <ele>1453.698</ele>
        <time>2021-06-19T20:25:41Z</time>
      </trkpt>
      <trkpt lat="42.261660" lon="1.236596">
        <ele>1453.917</ele>
        <time>2021-06-19T20:25:44Z</time>
      </trkpt>
      <trkpt lat="42.260477" lon="1.235822">
        <ele>1470.708</ele>
        <time>2021-06-19T20:31:39Z</time>
      </trkpt>
      <trkpt lat="42.260378" lon="1.235757">
        <ele>1471.758</ele>
        <time>2021-06-19T20:31:47Z</time>
      </trkpt>
      <trkpt lat="42.260242" lon="1.235709">
        <ele>1472.497</ele>
        <time>2021-06-19T20:31:57Z</time>
      </trkpt>
      <trkpt lat="42.260119" lon="1.235632">
        <ele>1473.273</ele>
        <time>2021-06-19T20:32:06Z</time>
      </trkpt>
      <trkpt lat="42.260031" lon="1.235596">
        <ele>1473.477</ele>
        <time>2021-06-19T20:32:13Z</time>
      </trkpt>
      <trkpt lat="42.259937" lon="1.235547">
        <ele>1473.921</ele>
        <time>2021-06-19T20:32:21Z</time>
      </trkpt>
      <trkpt lat="42.259847" lon="1.235509">
        <ele>1475.381</ele>
        <time>2021-06-19T20:32:29Z</time>
      </trkpt>
      <trkpt lat="42.259741" lon="1.235444">
        <ele>1476.484</ele>
        <time>2021-06-19T20:32:38Z</time>
      </trkpt>
      <trkpt lat="42.259718" lon="1.235428">
        <ele>1476.651</ele>
        <time>2021-06-19T20:32:40Z</time>
      </trkpt>
      <trkpt lat="42.259629" lon="1.235366">
        <ele>1477.145</ele>
        <time>2021-06-19T20:32:47Z</time>
      </trkpt>
      <trkpt lat="42.259562" lon="1.235342">
        <ele>1477.547</ele>
        <time>2021-06-19T20:32:52Z</time>
      </trkpt>
      <trkpt lat="42.259533" lon="1.235340">
        <ele>1477.711</ele>
        <time>2021-06-19T20:32:54Z</time>
      </trkpt>
      <trkpt lat="42.259404" lon="1.235371">
        <ele>1479.008</ele>
        <time>2021-06-19T20:33:04Z</time>
      </trkpt>
      <trkpt lat="42.259391" lon="1.235376">
        <ele>1479.191</ele>
        <time>2021-06-19T20:33:05Z</time>
      </trkpt>
      <trkpt lat="42.259326" lon="1.235415">
        <ele>1479.810</ele>
        <time>2021-06-19T20:33:11Z</time>
      </trkpt>
      <trkpt lat="42.259299" lon="1.235452">
        <ele>1480.326</ele>
        <time>2021-06-19T20:33:16Z</time>
      </trkpt>
      <trkpt lat="42.259247" lon="1.235504">
        <ele>1481.030</ele>
        <time>2021-06-19T20:34:03Z</time>
      </trkpt>
      <trkpt lat="42.259187" lon="1.235567">
        <ele>1482.194</ele>
        <time>2021-06-19T20:34:10Z</time>
      </trkpt>
      <trkpt lat="42.259112" lon="1.235629">
        <ele>1483.614</ele>
        <time>2021-06-19T20:34:18Z</time>
      </trkpt>
      <trkpt lat="42.259030" lon="1.235687">
        <ele>1484.917</ele>
        <time>2021-06-19T20:34:26Z</time>
      </trkpt>
      <trkpt lat="42.258991" lon="1.235714">
        <ele>1485.444</ele>
        <time>2021-06-19T20:34:32Z</time>
      </trkpt>
      <trkpt lat="42.258242" lon="1.236192">
        <ele>1498.464</ele>
        <time>2021-06-19T20:37:07Z</time>
      </trkpt>
      <trkpt lat="42.258208" lon="1.236205">
        <ele>1498.906</ele>
        <time>2021-06-19T20:37:10Z</time>
      </trkpt>
      <trkpt lat="42.258124" lon="1.236244">
        <ele>1500.416</ele>
        <time>2021-06-19T20:37:18Z</time>
      </trkpt>
      <trkpt lat="42.258093" lon="1.236263">
        <ele>1501.008</ele>
        <time>2021-06-19T20:37:23Z</time>
      </trkpt>
      <trkpt lat="42.257959" lon="1.236303">
        <ele>1502.663</ele>
        <time>2021-06-19T20:38:25Z</time>
      </trkpt>
      <trkpt lat="42.257948" lon="1.236307">
        <ele>1502.762</ele>
        <time>2021-06-19T20:38:26Z</time>
      </trkpt>
      <trkpt lat="42.257873" lon="1.236324">
        <ele>1503.468</ele>
        <time>2021-06-19T20:38:33Z</time>
      </trkpt>
      <trkpt lat="42.257831" lon="1.236333">
        <ele>1503.822</ele>
        <time>2021-06-19T20:38:37Z</time>
      </trkpt>
      <trkpt lat="42.257802" lon="1.236343">
        <ele>1504.116</ele>
        <time>2021-06-19T20:38:40Z</time>
      </trkpt>
      <trkpt lat="42.257731" lon="1.236356">
        <ele>1505.196</ele>
        <time>2021-06-19T20:38:47Z</time>
      </trkpt>
      <trkpt lat="42.257718" lon="1.236356">
        <ele>1505.269</ele>
        <time>2021-06-19T20:38:48Z</time>
      </trkpt>
      <trkpt lat="42.257671" lon="1.236362">
        <ele>1506.086</ele>
        <time>2021-06-19T20:38:52Z</time>
      </trkpt>
      <trkpt lat="42.257660" lon="1.236363">
        <ele>1506.296</ele>
        <time>2021-06-19T20:38:53Z</time>
      </trkpt>
      <trkpt lat="42.257638" lon="1.236361">
        <ele>1506.531</ele>
        <time>2021-06-19T20:38:55Z</time>
      </trkpt>
      <trkpt lat="42.257625" lon="1.236358">
        <ele>1506.624</ele>
        <time>2021-06-19T20:38:56Z</time>
      </trkpt>
      <trkpt lat="42.257544" lon="1.236348">
        <ele>1507.508</ele>
        <time>2021-06-19T20:39:03Z</time>
      </trkpt>
      <trkpt lat="42.257455" lon="1.236337">
        <ele>1508.586</ele>
        <time>2021-06-19T20:39:11Z</time>
      </trkpt>
      <trkpt lat="42.257382" lon="1.236339">
        <ele>1509.655</ele>
        <time>2021-06-19T20:39:18Z</time>
      </trkpt>
      <trkpt lat="42.257335" lon="1.236334">
        <ele>1510.211</ele>
        <time>2021-06-19T20:39:22Z</time>
      </trkpt>
      <trkpt lat="42.257324" lon="1.236334">
        <ele>1510.375</ele>
        <time>2021-06-19T20:39:23Z</time>
      </trkpt>
      <trkpt lat="42.257303" lon="1.236338">
        <ele>1510.799</ele>
        <time>2021-06-19T20:39:25Z</time>
      </trkpt>
      <trkpt lat="42.257270" lon="1.236338">
        <ele>1511.259</ele>
        <time>2021-06-19T20:39:28Z</time>
      </trkpt>
      <trkpt lat="42.257201" lon="1.236334">
        <ele>1512.192</ele>
        <time>2021-06-19T20:39:34Z</time>
      </trkpt>
      <trkpt lat="42.257136" lon="1.236336">
        <ele>1513.239</ele>
        <time>2021-06-19T20:39:40Z</time>
      </trkpt>
      <trkpt lat="42.257093" lon="1.236334">
        <ele>1513.892</ele>
        <time>2021-06-19T20:39:44Z</time>
      </trkpt>
      <trkpt lat="42.257035" lon="1.236328">
        <ele>1514.573</ele>
        <time>2021-06-19T20:39:50Z</time>
      </trkpt>
      <trkpt lat="42.257000" lon="1.236318">
        <ele>1514.920</ele>
        <time>2021-06-19T20:39:55Z</time>
      </trkpt>
      <trkpt lat="42.256526" lon="1.236083">
        <ele>1521.508</ele>
        <time>2021-06-19T20:41:19Z</time>
      </trkpt>
      <trkpt lat="42.256480" lon="1.235969">
        <ele>1522.566</ele>
        <time>2021-06-19T20:41:27Z</time>
      </trkpt>
      <trkpt lat="42.256464" lon="1.235843">
        <ele>1522.845</ele>
        <time>2021-06-19T20:41:35Z</time>
      </trkpt>
      <trkpt lat="42.256466" lon="1.235734">
        <ele>1524.041</ele>
        <time>2021-06-19T20:41:43Z</time>
      </trkpt>
      <trkpt lat="42.256467" lon="1.235732">
        <ele>1523.925</ele>
        <time>2021-06-19T20:41:44Z</time>
      </trkpt>
      <trkpt lat="42.256069" lon="1.235534">
        <ele>1534.799</ele>
        <time>2021-06-19T20:43:46Z</time>
      </trkpt>
      <trkpt lat="42.256044" lon="1.235554">
        <ele>1534.789</ele>
        <time>2021-06-19T20:43:48Z</time>
      </trkpt>
      <trkpt lat="42.256003" lon="1.235609">
        <ele>1534.722</ele>
        <time>2021-06-19T20:43:52Z</time>
      </trkpt>
      <trkpt lat="42.255974" lon="1.235651">
        <ele>1534.699</ele>
        <time>2021-06-19T20:43:54Z</time>
      </trkpt>
      <trkpt lat="42.255865" lon="1.235807">
        <ele>1534.796</ele>
        <time>2021-06-19T20:44:01Z</time>
      </trkpt>
      <trkpt lat="42.255770" lon="1.235920">
        <ele>1535.031</ele>
        <time>2021-06-19T20:44:08Z</time>
      </trkpt>
      <trkpt lat="42.255665" lon="1.235935">
        <ele>1535.024</ele>
        <time>2021-06-19T20:44:14Z</time>
      </trkpt>
      <trkpt lat="42.255557" lon="1.235922">
        <ele>1535.008</ele>
        <time>2021-06-19T20:44:20Z</time>
      </trkpt>
      <trkpt lat="42.255431" lon="1.235911">
        <ele>1534.646</ele>
        <time>2021-06-19T20:44:25Z</time>
      </trkpt>
      <trkpt lat="42.255345" lon="1.235918">
        <ele>1534.215</ele>
        <time>2021-06-19T20:44:28Z</time>
      </trkpt>
      <trkpt lat="42.255172" lon="1.235972">
        <ele>1533.431</ele>
        <time>2021-06-19T20:44:34Z</time>
      </trkpt>
      <trkpt lat="42.255030" lon="1.236108">
        <ele>1532.275</ele>
        <time>2021-06-19T20:44:41Z</time>
      </trkpt>
      <trkpt lat="42.254997" lon="1.236186">
        <ele>1531.889</ele>
        <time>2021-06-19T20:44:46Z</time>
      </trkpt>
      <trkpt lat="42.254995" lon="1.236195">
        <ele>1531.789</ele>
        <time>2021-06-19T20:44:48Z</time>
      </trkpt>
      <trkpt lat="42.254968" lon="1.236287">
        <ele>1530.222</ele>
        <time>2021-06-19T20:45:37Z</time>
      </trkpt>
      <trkpt lat="42.254956" lon="1.236311">
        <ele>1529.599</ele>
        <time>2021-06-19T20:45:38Z</time>
      </trkpt>
      <trkpt lat="42.254884" lon="1.236491">
        <ele>1526.892</ele>
        <time>2021-06-19T20:45:45Z</time>
      </trkpt>
      <trkpt lat="42.254877" lon="1.236504">
        <ele>1526.673</ele>
        <time>2021-06-19T20:45:48Z</time>
      </trkpt>
      <trkpt lat="42.254866" lon="1.236556">
        <ele>1526.720</ele>
        <time>2021-06-19T20:47:24Z</time>
      </trkpt>
      <trkpt lat="42.254798" lon="1.236740">
        <ele>1525.708</ele>
        <time>2021-06-19T20:47:29Z</time>
      </trkpt>
      <trkpt lat="42.254707" lon="1.236992">
        <ele>1525.046</ele>
        <time>2021-06-19T20:47:36Z</time>
      </trkpt>
      <trkpt lat="42.254650" lon="1.237140">
        <ele>1524.325</ele>
        <time>2021-06-19T20:47:39Z</time>
      </trkpt>
      <trkpt lat="42.254622" lon="1.237234">
        <ele>1524.461</ele>
        <time>2021-06-19T20:47:41Z</time>
      </trkpt>
      <trkpt lat="42.254544" lon="1.237408">
        <ele>1522.815</ele>
        <time>2021-06-19T20:47:46Z</time>
      </trkpt>
      <trkpt lat="42.254425" lon="1.237650">
        <ele>1521.759</ele>
        <time>2021-06-19T20:47:52Z</time>
      </trkpt>
      <trkpt lat="42.254279" lon="1.237813">
        <ele>1518.959</ele>
        <time>2021-06-19T20:47:57Z</time>
      </trkpt>
      <trkpt lat="42.254084" lon="1.237983">
        <ele>1516.152</ele>
        <time>2021-06-19T20:48:02Z</time>
      </trkpt>
      <trkpt lat="42.253900" lon="1.238103">
        <ele>1513.469</ele>
        <time>2021-06-19T20:48:07Z</time>
      </trkpt>
      <trkpt lat="42.253645" lon="1.238300">
        <ele>1509.412</ele>
        <time>2021-06-19T20:48:13Z</time>
      </trkpt>
      <trkpt lat="42.253420" lon="1.238476">
        <ele>1506.432</ele>
        <time>2021-06-19T20:48:18Z</time>
      </trkpt>
      <trkpt lat="42.253300" lon="1.238596">
        <ele>1504.905</ele>
        <time>2021-06-19T20:48:21Z</time>
      </trkpt>
      <trkpt lat="42.253213" lon="1.238716">
        <ele>1504.308</ele>
        <time>2021-06-19T20:48:24Z</time>
      </trkpt>
      <trkpt lat="42.253153" lon="1.238785">
        <ele>1503.538</ele>
        <time>2021-06-19T20:48:26Z</time>
      </trkpt>
      <trkpt lat="42.253039" lon="1.238875">
        <ele>1500.747</ele>
        <time>2021-06-19T20:48:30Z</time>
      </trkpt>
      <trkpt lat="42.252867" lon="1.239030">
        <ele>1496.263</ele>
        <time>2021-06-19T20:48:36Z</time>
      </trkpt>
      <trkpt lat="42.252709" lon="1.239247">
        <ele>1493.617</ele>
        <time>2021-06-19T20:48:42Z</time>
      </trkpt>
      <trkpt lat="42.252656" lon="1.239335">
        <ele>1492.781</ele>
        <time>2021-06-19T20:48:44Z</time>
      </trkpt>
      <trkpt lat="42.252597" lon="1.239487">
        <ele>1491.931</ele>
        <time>2021-06-19T20:48:47Z</time>
      </trkpt>
      <trkpt lat="42.252555" lon="1.239758">
        <ele>1490.894</ele>
        <time>2021-06-19T20:48:52Z</time>
      </trkpt>
      <trkpt lat="42.252511" lon="1.240077">
        <ele>1487.521</ele>
        <time>2021-06-19T20:48:58Z</time>
      </trkpt>
      <trkpt lat="42.252493" lon="1.240213">
        <ele>1485.719</ele>
        <time>2021-06-19T20:49:01Z</time>
      </trkpt>
      <trkpt lat="42.252489" lon="1.240376">
        <ele>1484.509</ele>
        <time>2021-06-19T20:49:04Z</time>
      </trkpt>
      <trkpt lat="42.252469" lon="1.240834">
        <ele>1481.219</ele>
        <time>2021-06-19T20:49:11Z</time>
      </trkpt>
      <trkpt lat="42.252375" lon="1.241081">
        <ele>1480.708</ele>
        <time>2021-06-19T20:49:15Z</time>
      </trkpt>
      <trkpt lat="42.252348" lon="1.241119">
        <ele>1480.028</ele>
        <time>2021-06-19T20:49:16Z</time>
      </trkpt>
      <trkpt lat="42.252297" lon="1.241204">
        <ele>1479.077</ele>
        <time>2021-06-19T20:49:18Z</time>
      </trkpt>
      <trkpt lat="42.252225" lon="1.241351">
        <ele>1477.543</ele>
        <time>2021-06-19T20:49:21Z</time>
      </trkpt>
      <trkpt lat="42.252087" lon="1.241566">
        <ele>1472.927</ele>
        <time>2021-06-19T20:49:27Z</time>
      </trkpt>
      <trkpt lat="42.251941" lon="1.241767">
        <ele>1467.311</ele>
        <time>2021-06-19T20:49:33Z</time>
      </trkpt>
      <trkpt lat="42.251892" lon="1.241846">
        <ele>1465.951</ele>
        <time>2021-06-19T20:49:35Z</time>
      </trkpt>
      <trkpt lat="42.251871" lon="1.241894">
        <ele>1465.634</ele>
        <time>2021-06-19T20:49:36Z</time>
      </trkpt>
      <trkpt lat="42.251819" lon="1.242080">
        <ele>1464.461</ele>
        <time>2021-06-19T20:49:39Z</time>
      </trkpt>
      <trkpt lat="42.251805" lon="1.242147">
        <ele>1464.194</ele>
        <time>2021-06-19T20:49:40Z</time>
      </trkpt>
      <trkpt lat="42.251724" lon="1.242683">
        <ele>1461.257</ele>
        <time>2021-06-19T20:49:48Z</time>
      </trkpt>
      <trkpt lat="42.251677" lon="1.243211">
        <ele>1455.422</ele>
        <time>2021-06-19T20:49:56Z</time>
      </trkpt>
      <trkpt lat="42.251681" lon="1.243281">
        <ele>1454.508</ele>
        <time>2021-06-19T20:49:57Z</time>
      </trkpt>
      <trkpt lat="42.251728" lon="1.243484">
        <ele>1451.516</ele>
        <time>2021-06-19T20:50:00Z</time>
      </trkpt>
      <trkpt lat="42.251750" lon="1.243539">
        <ele>1450.735</ele>
        <time>2021-06-19T20:50:01Z</time>
      </trkpt>
      <trkpt lat="42.251839" lon="1.243668">
        <ele>1449.411</ele>
        <time>2021-06-19T20:50:04Z</time>
      </trkpt>
      <trkpt lat="42.251990" lon="1.243803">
        <ele>1449.825</ele>
        <time>2021-06-19T20:50:08Z</time>
      </trkpt>
      <trkpt lat="42.252071" lon="1.243968">
        <ele>1448.579</ele>
        <time>2021-06-19T20:50:11Z</time>
      </trkpt>
      <trkpt lat="42.252097" lon="1.244034">
        <ele>1448.439</ele>
        <time>2021-06-19T20:50:12Z</time>
      </trkpt>
      <trkpt lat="42.252120" lon="1.244109">
        <ele>1448.052</ele>
        <time>2021-06-19T20:50:13Z</time>
      </trkpt>
      <trkpt lat="42.252163" lon="1.244309">
        <ele>1447.339</ele>
        <time>2021-06-19T20:50:16Z</time>
      </trkpt>
      <trkpt lat="42.252136" lon="1.244577">
        <ele>1444.228</ele>
        <time>2021-06-19T20:50:20Z</time>
      </trkpt>
      <trkpt lat="42.252079" lon="1.244705">
        <ele>1441.789</ele>
        <time>2021-06-19T20:50:22Z</time>
      </trkpt>
      <trkpt lat="42.252049" lon="1.244755">
        <ele>1440.617</ele>
        <time>2021-06-19T20:50:23Z</time>
      </trkpt>
      <trkpt lat="42.252025" lon="1.244801">
        <ele>1439.908</ele>
        <time>2021-06-19T20:50:24Z</time>
      </trkpt>
      <trkpt lat="42.251913" lon="1.245093">
        <ele>1436.649</ele>
        <time>2021-06-19T20:50:30Z</time>
      </trkpt>
      <trkpt lat="42.251889" lon="1.245149">
        <ele>1436.168</ele>
        <time>2021-06-19T20:50:31Z</time>
      </trkpt>
      <trkpt lat="42.251775" lon="1.245353">
        <ele>1434.154</ele>
        <time>2021-06-19T20:50:35Z</time>
      </trkpt>
      <trkpt lat="42.251593" lon="1.245578">
        <ele>1430.558</ele>
        <time>2021-06-19T20:50:41Z</time>
      </trkpt>
      <trkpt lat="42.251563" lon="1.245610">
        <ele>1429.772</ele>
        <time>2021-06-19T20:50:42Z</time>
      </trkpt>
      <trkpt lat="42.251422" lon="1.245758">
        <ele>1425.842</ele>
        <time>2021-06-19T20:50:47Z</time>
      </trkpt>
      <trkpt lat="42.251391" lon="1.245797">
        <ele>1425.145</ele>
        <time>2021-06-19T20:50:48Z</time>
      </trkpt>
      <trkpt lat="42.251288" lon="1.245978">
        <ele>1423.352</ele>
        <time>2021-06-19T20:50:52Z</time>
      </trkpt>
      <trkpt lat="42.251232" lon="1.246079">
        <ele>1422.553</ele>
        <time>2021-06-19T20:50:54Z</time>
      </trkpt>
      <trkpt lat="42.251175" lon="1.246176">
        <ele>1421.504</ele>
        <time>2021-06-19T20:50:56Z</time>
      </trkpt>
      <trkpt lat="42.251112" lon="1.246273">
        <ele>1420.114</ele>
        <time>2021-06-19T20:50:58Z</time>
      </trkpt>
      <trkpt lat="42.250959" lon="1.246521">
        <ele>1416.608</ele>
        <time>2021-06-19T20:51:03Z</time>
      </trkpt>
      <trkpt lat="42.250934" lon="1.246578">
        <ele>1416.092</ele>
        <time>2021-06-19T20:51:04Z</time>
      </trkpt>
      <trkpt lat="42.250824" lon="1.246895">
        <ele>1412.171</ele>
        <time>2021-06-19T20:51:09Z</time>
      </trkpt>
      <trkpt lat="42.250809" lon="1.246972">
        <ele>1411.437</ele>
        <time>2021-06-19T20:51:10Z</time>
      </trkpt>
      <trkpt lat="42.250801" lon="1.247220">
        <ele>1410.141</ele>
        <time>2021-06-19T20:51:13Z</time>
      </trkpt>
      <trkpt lat="42.250813" lon="1.247381">
        <ele>1409.725</ele>
        <time>2021-06-19T20:51:15Z</time>
      </trkpt>
      <trkpt lat="42.250831" lon="1.247539">
        <ele>1409.345</ele>
        <time>2021-06-19T20:51:17Z</time>
      </trkpt>
      <trkpt lat="42.250876" lon="1.247849">
        <ele>1408.228</ele>
        <time>2021-06-19T20:51:21Z</time>
      </trkpt>
      <trkpt lat="42.250887" lon="1.248102">
        <ele>1405.975</ele>
        <time>2021-06-19T20:51:26Z</time>
      </trkpt>
      <trkpt lat="42.250880" lon="1.248295">
        <ele>1403.854</ele>
        <time>2021-06-19T20:51:30Z</time>
      </trkpt>
      <trkpt lat="42.250875" lon="1.248397">
        <ele>1402.456</ele>
        <time>2021-06-19T20:51:32Z</time>
      </trkpt>
      <trkpt lat="42.250857" lon="1.248576">
        <ele>1399.111</ele>
        <time>2021-06-19T20:51:37Z</time>
      </trkpt>
      <trkpt lat="42.250865" lon="1.248744">
        <ele>1397.008</ele>
        <time>2021-06-19T20:51:42Z</time>
      </trkpt>
      <trkpt lat="42.250873" lon="1.248780">
        <ele>1397.022</ele>
        <time>2021-06-19T20:51:43Z</time>
      </trkpt>
      <trkpt lat="42.250905" lon="1.248994">
        <ele>1396.821</ele>
        <time>2021-06-19T20:51:48Z</time>
      </trkpt>
      <trkpt lat="42.250847" lon="1.249243">
        <ele>1392.437</ele>
        <time>2021-06-19T20:51:53Z</time>
      </trkpt>
      <trkpt lat="42.250826" lon="1.249299">
        <ele>1391.951</ele>
        <time>2021-06-19T20:51:54Z</time>
      </trkpt>
      <trkpt lat="42.250779" lon="1.249414">
        <ele>1390.765</ele>
        <time>2021-06-19T20:51:56Z</time>
      </trkpt>
      <trkpt lat="42.250752" lon="1.249471">
        <ele>1390.175</ele>
        <time>2021-06-19T20:51:57Z</time>
      </trkpt>
      <trkpt lat="42.250646" lon="1.249680">
        <ele>1388.148</ele>
        <time>2021-06-19T20:52:01Z</time>
      </trkpt>
      <trkpt lat="42.250590" lon="1.249767">
        <ele>1386.875</ele>
        <time>2021-06-19T20:52:03Z</time>
      </trkpt>
      <trkpt lat="42.250556" lon="1.249805">
        <ele>1385.782</ele>
        <time>2021-06-19T20:52:04Z</time>
      </trkpt>
      <trkpt lat="42.250491" lon="1.249855">
        <ele>1383.843</ele>
        <time>2021-06-19T20:52:06Z</time>
      </trkpt>
      <trkpt lat="42.250360" lon="1.249972">
        <ele>1381.117</ele>
        <time>2021-06-19T20:52:12Z</time>
      </trkpt>
      <trkpt lat="42.250315" lon="1.250018">
        <ele>1380.608</ele>
        <time>2021-06-19T20:52:14Z</time>
      </trkpt>
      <trkpt lat="42.250201" lon="1.250110">
        <ele>1378.685</ele>
        <time>2021-06-19T20:52:18Z</time>
      </trkpt>
      <trkpt lat="42.250093" lon="1.250182">
        <ele>1376.384</ele>
        <time>2021-06-19T20:52:21Z</time>
      </trkpt>
      <trkpt lat="42.250059" lon="1.250217">
        <ele>1376.270</ele>
        <time>2021-06-19T20:52:22Z</time>
      </trkpt>
      <trkpt lat="42.249991" lon="1.250275">
        <ele>1375.574</ele>
        <time>2021-06-19T20:52:24Z</time>
      </trkpt>
      <trkpt lat="42.249932" lon="1.250337">
        <ele>1375.458</ele>
        <time>2021-06-19T20:52:26Z</time>
      </trkpt>
      <trkpt lat="42.249832" lon="1.250467">
        <ele>1375.788</ele>
        <time>2021-06-19T20:52:31Z</time>
      </trkpt>
      <trkpt lat="42.249814" lon="1.250500">
        <ele>1376.151</ele>
        <time>2021-06-19T20:52:32Z</time>
      </trkpt>
      <trkpt lat="42.249691" lon="1.250683">
        <ele>1376.068</ele>
        <time>2021-06-19T20:52:37Z</time>
      </trkpt>
      <trkpt lat="42.249547" lon="1.250874">
        <ele>1373.541</ele>
        <time>2021-06-19T20:52:42Z</time>
      </trkpt>
      <trkpt lat="42.249486" lon="1.250943">
        <ele>1371.781</ele>
        <time>2021-06-19T20:52:44Z</time>
      </trkpt>
      <trkpt lat="42.249294" lon="1.251185">
        <ele>1366.509</ele>
        <time>2021-06-19T20:52:51Z</time>
      </trkpt>
      <trkpt lat="42.249247" lon="1.251263">
        <ele>1365.408</ele>
        <time>2021-06-19T20:52:53Z</time>
      </trkpt>
      <trkpt lat="42.249151" lon="1.251442">
        <ele>1362.881</ele>
        <time>2021-06-19T20:52:57Z</time>
      </trkpt>
      <trkpt lat="42.249133" lon="1.251497">
        <ele>1362.540</ele>
        <time>2021-06-19T20:52:58Z</time>
      </trkpt>
      <trkpt lat="42.249034" lon="1.251863">
        <ele>1359.166</ele>
        <time>2021-06-19T20:53:05Z</time>
      </trkpt>
      <trkpt lat="42.249022" lon="1.251914">
        <ele>1358.510</ele>
        <time>2021-06-19T20:53:06Z</time>
      </trkpt>
      <trkpt lat="42.249004" lon="1.252019">
        <ele>1357.024</ele>
        <time>2021-06-19T20:53:08Z</time>
      </trkpt>
      <trkpt lat="42.248993" lon="1.252207">
        <ele>1355.234</ele>
        <time>2021-06-19T20:53:11Z</time>
      </trkpt>
      <trkpt lat="42.248985" lon="1.252326">
        <ele>1354.097</ele>
        <time>2021-06-19T20:53:13Z</time>
      </trkpt>
      <trkpt lat="42.248982" lon="1.252385">
        <ele>1353.494</ele>
        <time>2021-06-19T20:53:14Z</time>
      </trkpt>
      <trkpt lat="42.248985" lon="1.252581">
        <ele>1351.848</ele>
        <time>2021-06-19T20:53:17Z</time>
      </trkpt>
      <trkpt lat="42.248993" lon="1.252641">
        <ele>1351.661</ele>
        <time>2021-06-19T20:53:18Z</time>
      </trkpt>
      <trkpt lat="42.249005" lon="1.252694">
        <ele>1351.717</ele>
        <time>2021-06-19T20:53:19Z</time>
      </trkpt>
      <trkpt lat="42.249024" lon="1.252779">
        <ele>1351.708</ele>
        <time>2021-06-19T20:53:21Z</time>
      </trkpt>
      <trkpt lat="42.249057" lon="1.252886">
        <ele>1350.541</ele>
        <time>2021-06-19T20:53:25Z</time>
      </trkpt>
      <trkpt lat="42.249067" lon="1.252915">
        <ele>1350.130</ele>
        <time>2021-06-19T20:53:26Z</time>
      </trkpt>
      <trkpt lat="42.249165" lon="1.253085">
        <ele>1350.466</ele>
        <time>2021-06-19T20:53:31Z</time>
      </trkpt>
      <trkpt lat="42.249188" lon="1.253134">
        <ele>1351.070</ele>
        <time>2021-06-19T20:53:32Z</time>
      </trkpt>
      <trkpt lat="42.249209" lon="1.253316">
        <ele>1349.244</ele>
        <time>2021-06-19T20:53:35Z</time>
      </trkpt>
      <trkpt lat="42.249119" lon="1.253459">
        <ele>1347.724</ele>
        <time>2021-06-19T20:53:39Z</time>
      </trkpt>
      <trkpt lat="42.249080" lon="1.253478">
        <ele>1346.717</ele>
        <time>2021-06-19T20:53:40Z</time>
      </trkpt>
      <trkpt lat="42.249039" lon="1.253494">
        <ele>1345.664</ele>
        <time>2021-06-19T20:53:41Z</time>
      </trkpt>
      <trkpt lat="42.248927" lon="1.253569">
        <ele>1343.915</ele>
        <time>2021-06-19T20:53:44Z</time>
      </trkpt>
      <trkpt lat="42.248896" lon="1.253602">
        <ele>1343.965</ele>
        <time>2021-06-19T20:53:45Z</time>
      </trkpt>
      <trkpt lat="42.248868" lon="1.253635">
        <ele>1343.711</ele>
        <time>2021-06-19T20:53:46Z</time>
      </trkpt>
      <trkpt lat="42.248751" lon="1.253787">
        <ele>1342.408</ele>
        <time>2021-06-19T20:53:50Z</time>
      </trkpt>
      <trkpt lat="42.248617" lon="1.253951">
        <ele>1340.438</ele>
        <time>2021-06-19T20:53:54Z</time>
      </trkpt>
      <trkpt lat="42.248451" lon="1.254163">
        <ele>1337.117</ele>
        <time>2021-06-19T20:53:59Z</time>
      </trkpt>
      <trkpt lat="42.248396" lon="1.254262">
        <ele>1335.933</ele>
        <time>2021-06-19T20:54:01Z</time>
      </trkpt>
      <trkpt lat="42.248334" lon="1.254409">
        <ele>1335.347</ele>
        <time>2021-06-19T20:54:04Z</time>
      </trkpt>
      <trkpt lat="42.248236" lon="1.254700">
        <ele>1331.981</ele>
        <time>2021-06-19T20:54:10Z</time>
      </trkpt>
      <trkpt lat="42.248196" lon="1.254809">
        <ele>1331.321</ele>
        <time>2021-06-19T20:54:12Z</time>
      </trkpt>
      <trkpt lat="42.248093" lon="1.255019">
        <ele>1329.734</ele>
        <time>2021-06-19T20:54:16Z</time>
      </trkpt>
      <trkpt lat="42.248062" lon="1.255072">
        <ele>1329.421</ele>
        <time>2021-06-19T20:54:17Z</time>
      </trkpt>
      <trkpt lat="42.247952" lon="1.255247">
        <ele>1328.174</ele>
        <time>2021-06-19T20:54:21Z</time>
      </trkpt>
      <trkpt lat="42.247894" lon="1.255333">
        <ele>1326.956</ele>
        <time>2021-06-19T20:54:23Z</time>
      </trkpt>
      <trkpt lat="42.247792" lon="1.255491">
        <ele>1324.421</ele>
        <time>2021-06-19T20:54:27Z</time>
      </trkpt>
      <trkpt lat="42.247718" lon="1.255617">
        <ele>1323.208</ele>
        <time>2021-06-19T20:54:30Z</time>
      </trkpt>
      <trkpt lat="42.247634" lon="1.255798">
        <ele>1321.754</ele>
        <time>2021-06-19T20:54:34Z</time>
      </trkpt>
      <trkpt lat="42.247615" lon="1.255842">
        <ele>1321.323</ele>
        <time>2021-06-19T20:54:35Z</time>
      </trkpt>
      <trkpt lat="42.247550" lon="1.256063">
        <ele>1319.479</ele>
        <time>2021-06-19T20:54:40Z</time>
      </trkpt>
      <trkpt lat="42.247524" lon="1.256163">
        <ele>1318.223</ele>
        <time>2021-06-19T20:54:43Z</time>
      </trkpt>
      <trkpt lat="42.247508" lon="1.256185">
        <ele>1317.297</ele>
        <time>2021-06-19T20:54:44Z</time>
      </trkpt>
      <trkpt lat="42.247488" lon="1.256192">
        <ele>1316.057</ele>
        <time>2021-06-19T20:54:45Z</time>
      </trkpt>
      <trkpt lat="42.247451" lon="1.256170">
        <ele>1314.060</ele>
        <time>2021-06-19T20:54:47Z</time>
      </trkpt>
      <trkpt lat="42.247426" lon="1.256120">
        <ele>1312.987</ele>
        <time>2021-06-19T20:54:49Z</time>
      </trkpt>
      <trkpt lat="42.247416" lon="1.256092">
        <ele>1312.338</ele>
        <time>2021-06-19T20:54:50Z</time>
      </trkpt>
      <trkpt lat="42.247410" lon="1.256062">
        <ele>1311.870</ele>
        <time>2021-06-19T20:54:51Z</time>
      </trkpt>
      <trkpt lat="42.247422" lon="1.255976">
        <ele>1312.017</ele>
        <time>2021-06-19T20:54:54Z</time>
      </trkpt>
      <trkpt lat="42.247422" lon="1.255948">
        <ele>1311.808</ele>
        <time>2021-06-19T20:54:57Z</time>
      </trkpt>
      <trkpt lat="42.247417" lon="1.255906">
        <ele>1311.320</ele>
        <time>2021-06-19T20:56:28Z</time>
      </trkpt>
      <trkpt lat="42.247432" lon="1.255730">
        <ele>1310.559</ele>
        <time>2021-06-19T20:56:33Z</time>
      </trkpt>
      <trkpt lat="42.247441" lon="1.255637">
        <ele>1309.985</ele>
        <time>2021-06-19T20:56:35Z</time>
      </trkpt>
      <trkpt lat="42.247457" lon="1.255535">
        <ele>1309.429</ele>
        <time>2021-06-19T20:56:38Z</time>
      </trkpt>
      <trkpt lat="42.247457" lon="1.255528">
        <ele>1309.313</ele>
        <time>2021-06-19T20:56:40Z</time>
      </trkpt>
      <trkpt lat="42.247466" lon="1.255479">
        <ele>1308.793</ele>
        <time>2021-06-19T20:57:25Z</time>
      </trkpt>
      <trkpt lat="42.247473" lon="1.255442">
        <ele>1308.296</ele>
        <time>2021-06-19T20:57:26Z</time>
      </trkpt>
      <trkpt lat="42.247554" lon="1.255161">
        <ele>1305.563</ele>
        <time>2021-06-19T20:57:32Z</time>
      </trkpt>
      <trkpt lat="42.247576" lon="1.255106">
        <ele>1305.176</ele>
        <time>2021-06-19T20:57:33Z</time>
      </trkpt>
      <trkpt lat="42.247673" lon="1.254868">
        <ele>1303.090</ele>
        <time>2021-06-19T20:57:37Z</time>
      </trkpt>
      <trkpt lat="42.247773" lon="1.254531">
        <ele>1299.619</ele>
        <time>2021-06-19T20:57:42Z</time>
      </trkpt>
      <trkpt lat="42.247804" lon="1.254389">
        <ele>1298.908</ele>
        <time>2021-06-19T20:57:44Z</time>
      </trkpt>
      <trkpt lat="42.247857" lon="1.254108">
        <ele>1297.394</ele>
        <time>2021-06-19T20:57:48Z</time>
      </trkpt>
      <trkpt lat="42.247898" lon="1.253962">
        <ele>1296.643</ele>
        <time>2021-06-19T20:57:50Z</time>
      </trkpt>
      <trkpt lat="42.247972" lon="1.253751">
        <ele>1295.599</ele>
        <time>2021-06-19T20:57:53Z</time>
      </trkpt>
      <trkpt lat="42.248040" lon="1.253550">
        <ele>1294.043</ele>
        <time>2021-06-19T20:57:56Z</time>
      </trkpt>
      <trkpt lat="42.248084" lon="1.253426">
        <ele>1292.487</ele>
        <time>2021-06-19T20:57:58Z</time>
      </trkpt>
      <trkpt lat="42.248141" lon="1.253315">
        <ele>1291.457</ele>
        <time>2021-06-19T20:58:00Z</time>
      </trkpt>
      <trkpt lat="42.248174" lon="1.253270">
        <ele>1291.790</ele>
        <time>2021-06-19T20:58:01Z</time>
      </trkpt>
      <trkpt lat="42.248206" lon="1.253217">
        <ele>1292.087</ele>
        <time>2021-06-19T20:58:02Z</time>
      </trkpt>
      <trkpt lat="42.248250" lon="1.253012">
        <ele>1291.433</ele>
        <time>2021-06-19T20:58:05Z</time>
      </trkpt>
      <trkpt lat="42.248208" lon="1.252826">
        <ele>1291.323</ele>
        <time>2021-06-19T20:58:08Z</time>
      </trkpt>
      <trkpt lat="42.248191" lon="1.252773">
        <ele>1290.815</ele>
        <time>2021-06-19T20:58:09Z</time>
      </trkpt>
      <trkpt lat="42.248122" lon="1.252561">
        <ele>1288.208</ele>
        <time>2021-06-19T20:58:13Z</time>
      </trkpt>
      <trkpt lat="42.248101" lon="1.252514">
        <ele>1287.290</ele>
        <time>2021-06-19T20:58:14Z</time>
      </trkpt>
      <trkpt lat="42.248079" lon="1.252467">
        <ele>1286.329</ele>
        <time>2021-06-19T20:58:15Z</time>
      </trkpt>
      <trkpt lat="42.247951" lon="1.252289">
        <ele>1282.145</ele>
        <time>2021-06-19T20:58:20Z</time>
      </trkpt>
      <trkpt lat="42.247784" lon="1.252099">
        <ele>1277.029</ele>
        <time>2021-06-19T20:58:25Z</time>
      </trkpt>
      <trkpt lat="42.247634" lon="1.251856">
        <ele>1273.553</ele>
        <time>2021-06-19T20:58:29Z</time>
      </trkpt>
      <trkpt lat="42.247606" lon="1.251792">
        <ele>1272.913</ele>
        <time>2021-06-19T20:58:30Z</time>
      </trkpt>
      <trkpt lat="42.247564" lon="1.251664">
        <ele>1272.456</ele>
        <time>2021-06-19T20:58:32Z</time>
      </trkpt>
      <trkpt lat="42.247547" lon="1.251597">
        <ele>1271.373</ele>
        <time>2021-06-19T20:58:33Z</time>
      </trkpt>
      <trkpt lat="42.247521" lon="1.251458">
        <ele>1269.416</ele>
        <time>2021-06-19T20:58:35Z</time>
      </trkpt>
      <trkpt lat="42.247518" lon="1.251132">
        <ele>1268.176</ele>
        <time>2021-06-19T20:58:39Z</time>
      </trkpt>
      <trkpt lat="42.247523" lon="1.251058">
        <ele>1267.713</ele>
        <time>2021-06-19T20:58:40Z</time>
      </trkpt>
      <trkpt lat="42.247529" lon="1.250983">
        <ele>1267.208</ele>
        <time>2021-06-19T20:58:41Z</time>
      </trkpt>
      <trkpt lat="42.247554" lon="1.250636">
        <ele>1263.918</ele>
        <time>2021-06-19T20:58:46Z</time>
      </trkpt>
      <trkpt lat="42.247563" lon="1.250565">
        <ele>1263.387</ele>
        <time>2021-06-19T20:58:47Z</time>
      </trkpt>
      <trkpt lat="42.247575" lon="1.250493">
        <ele>1262.293</ele>
        <time>2021-06-19T20:58:48Z</time>
      </trkpt>
      <trkpt lat="42.247640" lon="1.250266">
        <ele>1259.727</ele>
        <time>2021-06-19T20:58:51Z</time>
      </trkpt>
      <trkpt lat="42.247727" lon="1.250049">
        <ele>1257.321</ele>
        <time>2021-06-19T20:58:54Z</time>
      </trkpt>
      <trkpt lat="42.247815" lon="1.249852">
        <ele>1254.521</ele>
        <time>2021-06-19T20:58:57Z</time>
      </trkpt>
      <trkpt lat="42.247915" lon="1.249664">
        <ele>1252.264</ele>
        <time>2021-06-19T20:59:00Z</time>
      </trkpt>
      <trkpt lat="42.247994" lon="1.249464">
        <ele>1249.761</ele>
        <time>2021-06-19T20:59:03Z</time>
      </trkpt>
      <trkpt lat="42.248041" lon="1.249321">
        <ele>1248.225</ele>
        <time>2021-06-19T20:59:05Z</time>
      </trkpt>
      <trkpt lat="42.248141" lon="1.248971">
        <ele>1243.426</ele>
        <time>2021-06-19T20:59:10Z</time>
      </trkpt>
      <trkpt lat="42.248276" lon="1.248770">
        <ele>1241.208</ele>
        <time>2021-06-19T20:59:14Z</time>
      </trkpt>
      <trkpt lat="42.248315" lon="1.248654">
        <ele>1238.808</ele>
        <time>2021-06-19T20:59:16Z</time>
      </trkpt>
      <trkpt lat="42.248335" lon="1.248519">
        <ele>1236.849</ele>
        <time>2021-06-19T20:59:18Z</time>
      </trkpt>
      <trkpt lat="42.248340" lon="1.248317">
        <ele>1234.388</ele>
        <time>2021-06-19T20:59:21Z</time>
      </trkpt>
      <trkpt lat="42.248340" lon="1.248251">
        <ele>1234.114</ele>
        <time>2021-06-19T20:59:22Z</time>
      </trkpt>
      <trkpt lat="42.248336" lon="1.248187">
        <ele>1233.628</ele>
        <time>2021-06-19T20:59:23Z</time>
      </trkpt>
      <trkpt lat="42.248327" lon="1.248123">
        <ele>1233.082</ele>
        <time>2021-06-19T20:59:24Z</time>
      </trkpt>
      <trkpt lat="42.248248" lon="1.247858">
        <ele>1231.372</ele>
        <time>2021-06-19T20:59:28Z</time>
      </trkpt>
      <trkpt lat="42.248217" lon="1.247799">
        <ele>1230.445</ele>
        <time>2021-06-19T20:59:29Z</time>
      </trkpt>
      <trkpt lat="42.248051" lon="1.247647">
        <ele>1226.062</ele>
        <time>2021-06-19T20:59:33Z</time>
      </trkpt>
      <trkpt lat="42.247904" lon="1.247453">
        <ele>1223.215</ele>
        <time>2021-06-19T20:59:37Z</time>
      </trkpt>
      <trkpt lat="42.247876" lon="1.247395">
        <ele>1222.765</ele>
        <time>2021-06-19T20:59:38Z</time>
      </trkpt>
      <trkpt lat="42.247848" lon="1.247335">
        <ele>1222.211</ele>
        <time>2021-06-19T20:59:39Z</time>
      </trkpt>
      <trkpt lat="42.247781" lon="1.247151">
        <ele>1221.008</ele>
        <time>2021-06-19T20:59:42Z</time>
      </trkpt>
      <trkpt lat="42.247763" lon="1.247091">
        <ele>1220.628</ele>
        <time>2021-06-19T20:59:43Z</time>
      </trkpt>
      <trkpt lat="42.247726" lon="1.246974">
        <ele>1219.777</ele>
        <time>2021-06-19T20:59:45Z</time>
      </trkpt>
      <trkpt lat="42.247678" lon="1.246760">
        <ele>1217.333</ele>
        <time>2021-06-19T20:59:48Z</time>
      </trkpt>
      <trkpt lat="42.247672" lon="1.246675">
        <ele>1217.037</ele>
        <time>2021-06-19T20:59:49Z</time>
      </trkpt>
      <trkpt lat="42.247695" lon="1.246529">
        <ele>1216.881</ele>
        <time>2021-06-19T20:59:51Z</time>
      </trkpt>
      <trkpt lat="42.247715" lon="1.246475">
        <ele>1217.111</ele>
        <time>2021-06-19T20:59:52Z</time>
      </trkpt>
      <trkpt lat="42.247778" lon="1.246347">
        <ele>1218.394</ele>
        <time>2021-06-19T20:59:56Z</time>
      </trkpt>
      <trkpt lat="42.247786" lon="1.246326">
        <ele>1218.391</ele>
        <time>2021-06-19T20:59:57Z</time>
      </trkpt>
      <trkpt lat="42.247828" lon="1.246236">
        <ele>1219.049</ele>
        <time>2021-06-19T21:00:02Z</time>
      </trkpt>
      <trkpt lat="42.247862" lon="1.246160">
        <ele>1219.502</ele>
        <time>2021-06-19T21:00:06Z</time>
      </trkpt>
      <trkpt lat="42.247894" lon="1.246092">
        <ele>1219.822</ele>
        <time>2021-06-19T21:00:09Z</time>
      </trkpt>
      <trkpt lat="42.247942" lon="1.245969">
        <ele>1219.408</ele>
        <time>2021-06-19T21:00:13Z</time>
      </trkpt>
      <trkpt lat="42.247972" lon="1.245874">
        <ele>1218.991</ele>
        <time>2021-06-19T21:00:15Z</time>
      </trkpt>
      <trkpt lat="42.248051" lon="1.245629">
        <ele>1217.650</ele>
        <time>2021-06-19T21:00:19Z</time>
      </trkpt>
      <trkpt lat="42.248069" lon="1.245564">
        <ele>1217.076</ele>
        <time>2021-06-19T21:00:20Z</time>
      </trkpt>
      <trkpt lat="42.248095" lon="1.245412">
        <ele>1217.160</ele>
        <time>2021-06-19T21:00:22Z</time>
      </trkpt>
      <trkpt lat="42.248115" lon="1.245185">
        <ele>1217.974</ele>
        <time>2021-06-19T21:00:25Z</time>
      </trkpt>
      <trkpt lat="42.248085" lon="1.244979">
        <ele>1217.974</ele>
        <time>2021-06-19T21:00:28Z</time>
      </trkpt>
      <trkpt lat="42.248071" lon="1.244926">
        <ele>1217.957</ele>
        <time>2021-06-19T21:00:29Z</time>
      </trkpt>
      <trkpt lat="42.247989" lon="1.244630">
        <ele>1218.884</ele>
        <time>2021-06-19T21:00:36Z</time>
      </trkpt>
      <trkpt lat="42.247922" lon="1.244504">
        <ele>1218.778</ele>
        <time>2021-06-19T21:00:41Z</time>
      </trkpt>
      <trkpt lat="42.247821" lon="1.244338">
        <ele>1217.233</ele>
        <time>2021-06-19T21:00:46Z</time>
      </trkpt>
      <trkpt lat="42.247785" lon="1.244244">
        <ele>1217.026</ele>
        <time>2021-06-19T21:00:48Z</time>
      </trkpt>
      <trkpt lat="42.247744" lon="1.243976">
        <ele>1216.108</ele>
        <time>2021-06-19T21:00:53Z</time>
      </trkpt>
      <trkpt lat="42.247696" lon="1.243526">
        <ele>1212.734</ele>
        <time>2021-06-19T21:01:00Z</time>
      </trkpt>
      <trkpt lat="42.247688" lon="1.243453">
        <ele>1211.953</ele>
        <time>2021-06-19T21:01:01Z</time>
      </trkpt>
      <trkpt lat="42.247691" lon="1.243127">
        <ele>1210.289</ele>
        <time>2021-06-19T21:01:05Z</time>
      </trkpt>
      <trkpt lat="42.247716" lon="1.242886">
        <ele>1210.083</ele>
        <time>2021-06-19T21:01:08Z</time>
      </trkpt>
      <trkpt lat="42.247728" lon="1.242745">
        <ele>1209.727</ele>
        <time>2021-06-19T21:01:10Z</time>
      </trkpt>
      <trkpt lat="42.247725" lon="1.242529">
        <ele>1208.087</ele>
        <time>2021-06-19T21:01:13Z</time>
      </trkpt>
      <trkpt lat="42.247722" lon="1.242301">
        <ele>1206.240</ele>
        <time>2021-06-19T21:01:16Z</time>
      </trkpt>
      <trkpt lat="42.247726" lon="1.242010">
        <ele>1203.527</ele>
        <time>2021-06-19T21:01:20Z</time>
      </trkpt>
      <trkpt lat="42.247728" lon="1.241952">
        <ele>1203.011</ele>
        <time>2021-06-19T21:01:21Z</time>
      </trkpt>
      <trkpt lat="42.247724" lon="1.241897">
        <ele>1202.521</ele>
        <time>2021-06-19T21:01:22Z</time>
      </trkpt>
      <trkpt lat="42.247708" lon="1.241621">
        <ele>1200.203</ele>
        <time>2021-06-19T21:01:26Z</time>
      </trkpt>
      <trkpt lat="42.247712" lon="1.241544">
        <ele>1199.908</ele>
        <time>2021-06-19T21:01:27Z</time>
      </trkpt>
      <trkpt lat="42.247733" lon="1.241212">
        <ele>1198.878</ele>
        <time>2021-06-19T21:01:32Z</time>
      </trkpt>
      <trkpt lat="42.247736" lon="1.241151">
        <ele>1198.677</ele>
        <time>2021-06-19T21:01:33Z</time>
      </trkpt>
      <trkpt lat="42.247744" lon="1.241090">
        <ele>1198.763</ele>
        <time>2021-06-19T21:01:34Z</time>
      </trkpt>
      <trkpt lat="42.247768" lon="1.240876">
        <ele>1198.737</ele>
        <time>2021-06-19T21:01:38Z</time>
      </trkpt>
      <trkpt lat="42.247754" lon="1.240838">
        <ele>1197.571</ele>
        <time>2021-06-19T21:01:39Z</time>
      </trkpt>
      <trkpt lat="42.247700" lon="1.240832">
        <ele>1194.031</ele>
        <time>2021-06-19T21:01:41Z</time>
      </trkpt>
      <trkpt lat="42.247652" lon="1.240942">
        <ele>1191.624</ele>
        <time>2021-06-19T21:01:44Z</time>
      </trkpt>
      <trkpt lat="42.247640" lon="1.241049">
        <ele>1191.621</ele>
        <time>2021-06-19T21:01:46Z</time>
      </trkpt>
      <trkpt lat="42.247603" lon="1.241263">
        <ele>1190.857</ele>
        <time>2021-06-19T21:01:50Z</time>
      </trkpt>
      <trkpt lat="42.247580" lon="1.241354">
        <ele>1189.900</ele>
        <time>2021-06-19T21:01:52Z</time>
      </trkpt>
      <trkpt lat="42.247523" lon="1.241504">
        <ele>1187.320</ele>
        <time>2021-06-19T21:01:56Z</time>
      </trkpt>
      <trkpt lat="42.247471" lon="1.241619">
        <ele>1184.708</ele>
        <time>2021-06-19T21:01:59Z</time>
      </trkpt>
      <trkpt lat="42.247441" lon="1.241702">
        <ele>1183.222</ele>
        <time>2021-06-19T21:02:01Z</time>
      </trkpt>
      <trkpt lat="42.247391" lon="1.241852">
        <ele>1181.121</ele>
        <time>2021-06-19T21:02:05Z</time>
      </trkpt>
      <trkpt lat="42.247366" lon="1.241950">
        <ele>1180.457</ele>
        <time>2021-06-19T21:02:07Z</time>
      </trkpt>
      <trkpt lat="42.247333" lon="1.242170">
        <ele>1180.611</ele>
        <time>2021-06-19T21:02:11Z</time>
      </trkpt>
      <trkpt lat="42.247328" lon="1.242215">
        <ele>1180.885</ele>
        <time>2021-06-19T21:02:12Z</time>
      </trkpt>
      <trkpt lat="42.247294" lon="1.242432">
        <ele>1179.635</ele>
        <time>2021-06-19T21:02:17Z</time>
      </trkpt>
      <trkpt lat="42.247280" lon="1.242479">
        <ele>1178.998</ele>
        <time>2021-06-19T21:02:18Z</time>
      </trkpt>
      <trkpt lat="42.247163" lon="1.242817">
        <ele>1174.335</ele>
        <time>2021-06-19T21:02:24Z</time>
      </trkpt>
      <trkpt lat="42.247132" lon="1.242957">
        <ele>1173.054</ele>
        <time>2021-06-19T21:02:26Z</time>
      </trkpt>
      <trkpt lat="42.247082" lon="1.243200">
        <ele>1171.556</ele>
        <time>2021-06-19T21:02:30Z</time>
      </trkpt>
      <trkpt lat="42.247055" lon="1.243322">
        <ele>1170.711</ele>
        <time>2021-06-19T21:02:32Z</time>
      </trkpt>
      <trkpt lat="42.246990" lon="1.243643">
        <ele>1169.008</ele>
        <time>2021-06-19T21:02:37Z</time>
      </trkpt>
      <trkpt lat="42.246981" lon="1.243705">
        <ele>1168.962</ele>
        <time>2021-06-19T21:02:38Z</time>
      </trkpt>
      <trkpt lat="42.246895" lon="1.244095">
        <ele>1164.661</ele>
        <time>2021-06-19T21:02:44Z</time>
      </trkpt>
      <trkpt lat="42.246885" lon="1.244159">
        <ele>1163.917</ele>
        <time>2021-06-19T21:02:45Z</time>
      </trkpt>
      <trkpt lat="42.246872" lon="1.244300">
        <ele>1162.351</ele>
        <time>2021-06-19T21:02:47Z</time>
      </trkpt>
      <trkpt lat="42.246876" lon="1.244434">
        <ele>1161.995</ele>
        <time>2021-06-19T21:02:49Z</time>
      </trkpt>
      <trkpt lat="42.246883" lon="1.244488">
        <ele>1161.565</ele>
        <time>2021-06-19T21:02:50Z</time>
      </trkpt>
      <trkpt lat="42.246911" lon="1.244729">
        <ele>1158.588</ele>
        <time>2021-06-19T21:02:55Z</time>
      </trkpt>
      <trkpt lat="42.246966" lon="1.244873">
        <ele>1158.455</ele>
        <time>2021-06-19T21:02:58Z</time>
      </trkpt>
      <trkpt lat="42.247003" lon="1.244965">
        <ele>1158.172</ele>
        <time>2021-06-19T21:03:00Z</time>
      </trkpt>
      <trkpt lat="42.246971" lon="1.245037">
        <ele>1154.913</ele>
        <time>2021-06-19T21:03:02Z</time>
      </trkpt>
      <trkpt lat="42.246906" lon="1.244993">
        <ele>1151.814</ele>
        <time>2021-06-19T21:03:05Z</time>
      </trkpt>
      <trkpt lat="42.246891" lon="1.244957">
        <ele>1151.808</ele>
        <time>2021-06-19T21:03:06Z</time>
      </trkpt>
      <trkpt lat="42.246839" lon="1.244817">
        <ele>1151.734</ele>
        <time>2021-06-19T21:03:09Z</time>
      </trkpt>
      <trkpt lat="42.246825" lon="1.244758">
        <ele>1152.043</ele>
        <time>2021-06-19T21:03:10Z</time>
      </trkpt>
      <trkpt lat="42.246777" lon="1.244590">
        <ele>1151.879</ele>
        <time>2021-06-19T21:03:13Z</time>
      </trkpt>
      <trkpt lat="42.246727" lon="1.244423">
        <ele>1150.813</ele>
        <time>2021-06-19T21:03:16Z</time>
      </trkpt>
      <trkpt lat="42.246712" lon="1.244366">
        <ele>1150.217</ele>
        <time>2021-06-19T21:03:17Z</time>
      </trkpt>
      <trkpt lat="42.246690" lon="1.244251">
        <ele>1149.787</ele>
        <time>2021-06-19T21:03:19Z</time>
      </trkpt>
      <trkpt lat="42.246675" lon="1.244082">
        <ele>1149.380</ele>
        <time>2021-06-19T21:03:22Z</time>
      </trkpt>
      <trkpt lat="42.246669" lon="1.243926">
        <ele>1148.357</ele>
        <time>2021-06-19T21:03:25Z</time>
      </trkpt>
      <trkpt lat="42.246663" lon="1.243761">
        <ele>1147.234</ele>
        <time>2021-06-19T21:03:28Z</time>
      </trkpt>
      <trkpt lat="42.246655" lon="1.243641">
        <ele>1146.155</ele>
        <time>2021-06-19T21:03:30Z</time>
      </trkpt>
      <trkpt lat="42.246635" lon="1.243367">
        <ele>1143.510</ele>
        <time>2021-06-19T21:03:35Z</time>
      </trkpt>
      <trkpt lat="42.246634" lon="1.243314">
        <ele>1143.008</ele>
        <time>2021-06-19T21:03:36Z</time>
      </trkpt>
      <trkpt lat="42.246641" lon="1.243065">
        <ele>1140.010</ele>
        <time>2021-06-19T21:03:41Z</time>
      </trkpt>
      <trkpt lat="42.246642" lon="1.243010">
        <ele>1139.259</ele>
        <time>2021-06-19T21:03:42Z</time>
      </trkpt>
      <trkpt lat="42.246649" lon="1.242653">
        <ele>1134.325</ele>
        <time>2021-06-19T21:03:48Z</time>
      </trkpt>
      <trkpt lat="42.246651" lon="1.242599">
        <ele>1133.969</ele>
        <time>2021-06-19T21:03:49Z</time>
      </trkpt>
      <trkpt lat="42.246642" lon="1.242384">
        <ele>1131.023</ele>
        <time>2021-06-19T21:03:53Z</time>
      </trkpt>
      <trkpt lat="42.246634" lon="1.242160">
        <ele>1128.013</ele>
        <time>2021-06-19T21:03:57Z</time>
      </trkpt>
      <trkpt lat="42.246633" lon="1.242109">
        <ele>1127.376</ele>
        <time>2021-06-19T21:03:58Z</time>
      </trkpt>
      <trkpt lat="42.246628" lon="1.241867">
        <ele>1124.323</ele>
        <time>2021-06-19T21:04:03Z</time>
      </trkpt>
      <trkpt lat="42.246606" lon="1.241698">
        <ele>1120.944</ele>
        <time>2021-06-19T21:04:07Z</time>
      </trkpt>
      <trkpt lat="42.246604" lon="1.241607">
        <ele>1119.905</ele>
        <time>2021-06-19T21:04:09Z</time>
      </trkpt>
      <trkpt lat="42.246602" lon="1.241495">
        <ele>1118.615</ele>
        <time>2021-06-19T21:04:12Z</time>
      </trkpt>
      <trkpt lat="42.246585" lon="1.241389">
        <ele>1116.408</ele>
        <time>2021-06-19T21:04:15Z</time>
      </trkpt>
      <trkpt lat="42.246573" lon="1.241308">
        <ele>1115.531</ele>
        <time>2021-06-19T21:04:17Z</time>
      </trkpt>
      <trkpt lat="42.246540" lon="1.241112">
        <ele>1112.980</ele>
        <time>2021-06-19T21:04:21Z</time>
      </trkpt>
      <trkpt lat="42.246531" lon="1.241049">
        <ele>1111.816</ele>
        <time>2021-06-19T21:04:22Z</time>
      </trkpt>
      <trkpt lat="42.246525" lon="1.240926">
        <ele>1110.580</ele>
        <time>2021-06-19T21:04:24Z</time>
      </trkpt>
      <trkpt lat="42.246529" lon="1.240812">
        <ele>1109.894</ele>
        <time>2021-06-19T21:04:26Z</time>
      </trkpt>
      <trkpt lat="42.246532" lon="1.240753">
        <ele>1109.344</ele>
        <time>2021-06-19T21:04:27Z</time>
      </trkpt>
      <trkpt lat="42.246546" lon="1.240513">
        <ele>1107.487</ele>
        <time>2021-06-19T21:04:31Z</time>
      </trkpt>
      <trkpt lat="42.246546" lon="1.240341">
        <ele>1105.674</ele>
        <time>2021-06-19T21:04:34Z</time>
      </trkpt>
      <trkpt lat="42.246549" lon="1.240283">
        <ele>1105.246</ele>
        <time>2021-06-19T21:04:35Z</time>
      </trkpt>
      <trkpt lat="42.246586" lon="1.240084">
        <ele>1104.688</ele>
        <time>2021-06-19T21:04:38Z</time>
      </trkpt>
      <trkpt lat="42.246601" lon="1.240005">
        <ele>1104.416</ele>
        <time>2021-06-19T21:04:39Z</time>
      </trkpt>
      <trkpt lat="42.246611" lon="1.239920">
        <ele>1104.608</ele>
        <time>2021-06-19T21:04:40Z</time>
      </trkpt>
      <trkpt lat="42.246608" lon="1.239654">
        <ele>1104.281</ele>
        <time>2021-06-19T21:04:43Z</time>
      </trkpt>
      <trkpt lat="42.246604" lon="1.239410">
        <ele>1105.470</ele>
        <time>2021-06-19T21:04:46Z</time>
      </trkpt>
      <trkpt lat="42.246610" lon="1.239356">
        <ele>1105.496</ele>
        <time>2021-06-19T21:04:47Z</time>
      </trkpt>
      <trkpt lat="42.246630" lon="1.239226">
        <ele>1105.680</ele>
        <time>2021-06-19T21:04:51Z</time>
      </trkpt>
      <trkpt lat="42.246634" lon="1.239203">
        <ele>1105.724</ele>
        <time>2021-06-19T21:04:52Z</time>
      </trkpt>
      <trkpt lat="42.246661" lon="1.239085">
        <ele>1105.814</ele>
        <time>2021-06-19T21:04:56Z</time>
      </trkpt>
      <trkpt lat="42.246668" lon="1.239052">
        <ele>1105.647</ele>
        <time>2021-06-19T21:04:57Z</time>
      </trkpt>
      <trkpt lat="42.246699" lon="1.238832">
        <ele>1104.034</ele>
        <time>2021-06-19T21:05:03Z</time>
      </trkpt>
      <trkpt lat="42.246710" lon="1.238681">
        <ele>1102.122</ele>
        <time>2021-06-19T21:05:08Z</time>
      </trkpt>
      <trkpt lat="42.246698" lon="1.238668">
        <ele>1100.862</ele>
        <time>2021-06-19T21:05:09Z</time>
      </trkpt>
      <trkpt lat="42.246649" lon="1.238721">
        <ele>1097.608</ele>
        <time>2021-06-19T21:05:13Z</time>
      </trkpt>
      <trkpt lat="42.246636" lon="1.238754">
        <ele>1097.308</ele>
        <time>2021-06-19T21:05:14Z</time>
      </trkpt>
      <trkpt lat="42.246556" lon="1.238958">
        <ele>1094.939</ele>
        <time>2021-06-19T21:05:19Z</time>
      </trkpt>
      <trkpt lat="42.246537" lon="1.239006">
        <ele>1094.318</ele>
        <time>2021-06-19T21:05:20Z</time>
      </trkpt>
      <trkpt lat="42.246461" lon="1.239244">
        <ele>1091.844</ele>
        <time>2021-06-19T21:05:25Z</time>
      </trkpt>
      <trkpt lat="42.246441" lon="1.239354">
        <ele>1091.328</ele>
        <time>2021-06-19T21:05:27Z</time>
      </trkpt>
      <trkpt lat="42.246431" lon="1.239413">
        <ele>1091.192</ele>
        <time>2021-06-19T21:05:28Z</time>
      </trkpt>
      <trkpt lat="42.246415" lon="1.239629">
        <ele>1089.412</ele>
        <time>2021-06-19T21:05:32Z</time>
      </trkpt>
      <trkpt lat="42.246412" lon="1.239677">
        <ele>1088.945</ele>
        <time>2021-06-19T21:05:33Z</time>
      </trkpt>
      <trkpt lat="42.246402" lon="1.239777">
        <ele>1088.462</ele>
        <time>2021-06-19T21:05:35Z</time>
      </trkpt>
      <trkpt lat="42.246373" lon="1.239923">
        <ele>1087.372</ele>
        <time>2021-06-19T21:05:38Z</time>
      </trkpt>
      <trkpt lat="42.246360" lon="1.239968">
        <ele>1086.713</ele>
        <time>2021-06-19T21:05:39Z</time>
      </trkpt>
      <trkpt lat="42.246298" lon="1.240141">
        <ele>1084.314</ele>
        <time>2021-06-19T21:05:43Z</time>
      </trkpt>
      <trkpt lat="42.246262" lon="1.240246">
        <ele>1083.008</ele>
        <time>2021-06-19T21:05:46Z</time>
      </trkpt>
      <trkpt lat="42.246252" lon="1.240273">
        <ele>1082.694</ele>
        <time>2021-06-19T21:05:47Z</time>
      </trkpt>
      <trkpt lat="42.246204" lon="1.240401">
        <ele>1080.183</ele>
        <time>2021-06-19T21:05:51Z</time>
      </trkpt>
      <trkpt lat="42.246158" lon="1.240520">
        <ele>1077.439</ele>
        <time>2021-06-19T21:05:54Z</time>
      </trkpt>
      <trkpt lat="42.246109" lon="1.240636">
        <ele>1074.773</ele>
        <time>2021-06-19T21:05:57Z</time>
      </trkpt>
      <trkpt lat="42.246078" lon="1.240728">
        <ele>1073.497</ele>
        <time>2021-06-19T21:05:59Z</time>
      </trkpt>
      <trkpt lat="42.246040" lon="1.240893">
        <ele>1072.097</ele>
        <time>2021-06-19T21:06:02Z</time>
      </trkpt>
      <trkpt lat="42.246014" lon="1.241049">
        <ele>1070.980</ele>
        <time>2021-06-19T21:06:05Z</time>
      </trkpt>
      <trkpt lat="42.246006" lon="1.241095">
        <ele>1070.617</ele>
        <time>2021-06-19T21:06:06Z</time>
      </trkpt>
      <trkpt lat="42.245983" lon="1.241240">
        <ele>1070.755</ele>
        <time>2021-06-19T21:06:09Z</time>
      </trkpt>
      <trkpt lat="42.245950" lon="1.241379">
        <ele>1070.107</ele>
        <time>2021-06-19T21:06:12Z</time>
      </trkpt>
      <trkpt lat="42.245918" lon="1.241470">
        <ele>1068.917</ele>
        <time>2021-06-19T21:06:14Z</time>
      </trkpt>
      <trkpt lat="42.245831" lon="1.241676">
        <ele>1065.908</ele>
        <time>2021-06-19T21:06:19Z</time>
      </trkpt>
      <trkpt lat="42.245784" lon="1.241824">
        <ele>1063.082</ele>
        <time>2021-06-19T21:06:22Z</time>
      </trkpt>
      <trkpt lat="42.245762" lon="1.241921">
        <ele>1061.861</ele>
        <time>2021-06-19T21:06:24Z</time>
      </trkpt>
      <trkpt lat="42.245752" lon="1.241963">
        <ele>1061.317</ele>
        <time>2021-06-19T21:06:25Z</time>
      </trkpt>
      <trkpt lat="42.245720" lon="1.242074">
        <ele>1059.831</ele>
        <time>2021-06-19T21:06:28Z</time>
      </trkpt>
      <trkpt lat="42.245687" lon="1.242181">
        <ele>1058.275</ele>
        <time>2021-06-19T21:06:31Z</time>
      </trkpt>
      <trkpt lat="42.245654" lon="1.242301">
        <ele>1056.475</ele>
        <time>2021-06-19T21:06:34Z</time>
      </trkpt>
      <trkpt lat="42.245633" lon="1.242456">
        <ele>1055.478</ele>
        <time>2021-06-19T21:06:38Z</time>
      </trkpt>
      <trkpt lat="42.245635" lon="1.242463">
        <ele>1055.675</ele>
        <time>2021-06-19T21:06:39Z</time>
      </trkpt>
      <trkpt lat="42.245634" lon="1.242465">
        <ele>1055.557</ele>
        <time>2021-06-19T21:06:40Z</time>
      </trkpt>
      <trkpt lat="42.245629" lon="1.242492">
        <ele>1055.300</ele>
        <time>2021-06-19T21:08:22Z</time>
      </trkpt>
      <trkpt lat="42.245629" lon="1.242536">
        <ele>1055.520</ele>
        <time>2021-06-19T21:08:24Z</time>
      </trkpt>
      <trkpt lat="42.245621" lon="1.242663">
        <ele>1055.408</ele>
        <time>2021-06-19T21:08:28Z</time>
      </trkpt>
      <trkpt lat="42.245616" lon="1.242706">
        <ele>1055.392</ele>
        <time>2021-06-19T21:08:29Z</time>
      </trkpt>
      <trkpt lat="42.245571" lon="1.242954">
        <ele>1053.411</ele>
        <time>2021-06-19T21:08:34Z</time>
      </trkpt>
      <trkpt lat="42.245549" lon="1.243075">
        <ele>1052.657</ele>
        <time>2021-06-19T21:08:36Z</time>
      </trkpt>
      <trkpt lat="42.245528" lon="1.243201">
        <ele>1051.651</ele>
        <time>2021-06-19T21:08:38Z</time>
      </trkpt>
      <trkpt lat="42.245507" lon="1.243321">
        <ele>1050.595</ele>
        <time>2021-06-19T21:08:40Z</time>
      </trkpt>
      <trkpt lat="42.245480" lon="1.243492">
        <ele>1049.135</ele>
        <time>2021-06-19T21:08:43Z</time>
      </trkpt>
      <trkpt lat="42.245439" lon="1.243758">
        <ele>1047.158</ele>
        <time>2021-06-19T21:08:48Z</time>
      </trkpt>
      <trkpt lat="42.245428" lon="1.243856">
        <ele>1046.715</ele>
        <time>2021-06-19T21:08:50Z</time>
      </trkpt>
      <trkpt lat="42.245401" lon="1.244006">
        <ele>1045.346</ele>
        <time>2021-06-19T21:08:53Z</time>
      </trkpt>
      <trkpt lat="42.245363" lon="1.244156">
        <ele>1043.588</ele>
        <time>2021-06-19T21:08:56Z</time>
      </trkpt>
      <trkpt lat="42.245348" lon="1.244245">
        <ele>1043.016</ele>
        <time>2021-06-19T21:08:58Z</time>
      </trkpt>
      <trkpt lat="42.245311" lon="1.244294">
        <ele>1041.008</ele>
        <time>2021-06-19T21:09:00Z</time>
      </trkpt>
      <trkpt lat="42.245268" lon="1.244251">
        <ele>1038.191</ele>
        <time>2021-06-19T21:09:02Z</time>
      </trkpt>
      <trkpt lat="42.245263" lon="1.244207">
        <ele>1037.510</ele>
        <time>2021-06-19T21:09:03Z</time>
      </trkpt>
      <trkpt lat="42.245268" lon="1.244109">
        <ele>1037.086</ele>
        <time>2021-06-19T21:09:05Z</time>
      </trkpt>
      <trkpt lat="42.245272" lon="1.244058">
        <ele>1036.930</ele>
        <time>2021-06-19T21:09:06Z</time>
      </trkpt>
      <trkpt lat="42.245274" lon="1.243945">
        <ele>1036.224</ele>
        <time>2021-06-19T21:09:08Z</time>
      </trkpt>
      <trkpt lat="42.245273" lon="1.243762">
        <ele>1035.234</ele>
        <time>2021-06-19T21:09:11Z</time>
      </trkpt>
      <trkpt lat="42.245274" lon="1.243703">
        <ele>1035.187</ele>
        <time>2021-06-19T21:09:12Z</time>
      </trkpt>
      <trkpt lat="42.245257" lon="1.243582">
        <ele>1033.584</ele>
        <time>2021-06-19T21:09:14Z</time>
      </trkpt>
      <trkpt lat="42.245236" lon="1.243456">
        <ele>1031.739</ele>
        <time>2021-06-19T21:09:16Z</time>
      </trkpt>
      <trkpt lat="42.245229" lon="1.243386">
        <ele>1031.001</ele>
        <time>2021-06-19T21:09:17Z</time>
      </trkpt>
      <trkpt lat="42.245216" lon="1.243235">
        <ele>1029.821</ele>
        <time>2021-06-19T21:09:19Z</time>
      </trkpt>
      <trkpt lat="42.245209" lon="1.243155">
        <ele>1029.208</ele>
        <time>2021-06-19T21:09:20Z</time>
      </trkpt>
      <trkpt lat="42.245199" lon="1.242996">
        <ele>1028.080</ele>
        <time>2021-06-19T21:09:22Z</time>
      </trkpt>
      <trkpt lat="42.245196" lon="1.242920">
        <ele>1027.379</ele>
        <time>2021-06-19T21:09:23Z</time>
      </trkpt>
      <trkpt lat="42.245203" lon="1.242784">
        <ele>1026.995</ele>
        <time>2021-06-19T21:09:25Z</time>
      </trkpt>
      <trkpt lat="42.245219" lon="1.242568">
        <ele>1026.369</ele>
        <time>2021-06-19T21:09:29Z</time>
      </trkpt>
      <trkpt lat="42.245187" lon="1.242544">
        <ele>1023.893</ele>
        <time>2021-06-19T21:09:30Z</time>
      </trkpt>
      <trkpt lat="42.245152" lon="1.242554">
        <ele>1021.413</ele>
        <time>2021-06-19T21:09:31Z</time>
      </trkpt>
      <trkpt lat="42.245089" lon="1.242691">
        <ele>1018.216</ele>
        <time>2021-06-19T21:09:34Z</time>
      </trkpt>
      <trkpt lat="42.245079" lon="1.242746">
        <ele>1018.113</ele>
        <time>2021-06-19T21:09:35Z</time>
      </trkpt>
      <trkpt lat="42.245066" lon="1.242850">
        <ele>1017.852</ele>
        <time>2021-06-19T21:09:37Z</time>
      </trkpt>
      <trkpt lat="42.245057" lon="1.242903">
        <ele>1017.453</ele>
        <time>2021-06-19T21:09:38Z</time>
      </trkpt>
      <trkpt lat="42.245042" lon="1.242958">
        <ele>1016.608</ele>
        <time>2021-06-19T21:09:39Z</time>
      </trkpt>
      <trkpt lat="42.244998" lon="1.243086">
        <ele>1014.108</ele>
        <time>2021-06-19T21:09:41Z</time>
      </trkpt>
      <trkpt lat="42.244979" lon="1.243155">
        <ele>1013.382</ele>
        <time>2021-06-19T21:09:42Z</time>
      </trkpt>
      <trkpt lat="42.244946" lon="1.243295">
        <ele>1012.171</ele>
        <time>2021-06-19T21:09:44Z</time>
      </trkpt>
      <trkpt lat="42.244921" lon="1.243437">
        <ele>1011.137</ele>
        <time>2021-06-19T21:09:46Z</time>
      </trkpt>
      <trkpt lat="42.244896" lon="1.243563">
        <ele>1010.041</ele>
        <time>2021-06-19T21:09:48Z</time>
      </trkpt>
      <trkpt lat="42.244876" lon="1.243620">
        <ele>1009.195</ele>
        <time>2021-06-19T21:09:49Z</time>
      </trkpt>
      <trkpt lat="42.244790" lon="1.243787">
        <ele>1006.135</ele>
        <time>2021-06-19T21:09:52Z</time>
      </trkpt>
      <trkpt lat="42.244722" lon="1.243917">
        <ele>1004.438</ele>
        <time>2021-06-19T21:09:54Z</time>
      </trkpt>
      <trkpt lat="42.244662" lon="1.244058">
        <ele>1003.265</ele>
        <time>2021-06-19T21:09:56Z</time>
      </trkpt>
      <trkpt lat="42.244635" lon="1.244130">
        <ele>1002.834</ele>
        <time>2021-06-19T21:09:57Z</time>
      </trkpt>
      <trkpt lat="42.244615" lon="1.244200">
        <ele>1002.455</ele>
        <time>2021-06-19T21:09:58Z</time>
      </trkpt>
      <trkpt lat="42.244602" lon="1.244275">
        <ele>1002.110</ele>
        <time>2021-06-19T21:09:59Z</time>
      </trkpt>
      <trkpt lat="42.244593" lon="1.244345">
        <ele>1002.008</ele>
        <time>2021-06-19T21:10:00Z</time>
      </trkpt>
      <trkpt lat="42.244580" lon="1.244403">
        <ele>1001.640</ele>
        <time>2021-06-19T21:10:01Z</time>
      </trkpt>
      <trkpt lat="42.244558" lon="1.244444">
        <ele>1000.789</ele>
        <time>2021-06-19T21:10:02Z</time>
      </trkpt>
      <trkpt lat="42.244523" lon="1.244463">
        <ele>999.395</ele>
        <time>2021-06-19T21:10:03Z</time>
      </trkpt>
      <trkpt lat="42.244493" lon="1.244450">
        <ele>997.529</ele>
        <time>2021-06-19T21:10:04Z</time>
      </trkpt>
      <trkpt lat="42.244475" lon="1.244409">
        <ele>996.383</ele>
        <time>2021-06-19T21:10:05Z</time>
      </trkpt>
      <trkpt lat="42.244470" lon="1.244355">
        <ele>995.743</ele>
        <time>2021-06-19T21:10:06Z</time>
      </trkpt>
      <trkpt lat="42.244472" lon="1.244293">
        <ele>995.476</ele>
        <time>2021-06-19T21:10:07Z</time>
      </trkpt>
      <trkpt lat="42.244477" lon="1.244220">
        <ele>995.193</ele>
        <time>2021-06-19T21:10:08Z</time>
      </trkpt>
      <trkpt lat="42.244484" lon="1.244137">
        <ele>994.789</ele>
        <time>2021-06-19T21:10:09Z</time>
      </trkpt>
      <trkpt lat="42.244497" lon="1.244046">
        <ele>994.106</ele>
        <time>2021-06-19T21:10:10Z</time>
      </trkpt>
      <trkpt lat="42.244515" lon="1.243954">
        <ele>993.726</ele>
        <time>2021-06-19T21:10:11Z</time>
      </trkpt>
      <trkpt lat="42.244532" lon="1.243861">
        <ele>993.308</ele>
        <time>2021-06-19T21:10:12Z</time>
      </trkpt>
      <trkpt lat="42.244551" lon="1.243768">
        <ele>992.845</ele>
        <time>2021-06-19T21:10:13Z</time>
      </trkpt>
      <trkpt lat="42.244568" lon="1.243678">
        <ele>992.394</ele>
        <time>2021-06-19T21:10:14Z</time>
      </trkpt>
      <trkpt lat="42.244584" lon="1.243594">
        <ele>991.850</ele>
        <time>2021-06-19T21:10:15Z</time>
      </trkpt>
      <trkpt lat="42.244597" lon="1.243514">
        <ele>991.744</ele>
        <time>2021-06-19T21:10:16Z</time>
      </trkpt>
      <trkpt lat="42.244604" lon="1.243436">
        <ele>991.268</ele>
        <time>2021-06-19T21:10:17Z</time>
      </trkpt>
      <trkpt lat="42.244606" lon="1.243357">
        <ele>990.568</ele>
        <time>2021-06-19T21:10:18Z</time>
      </trkpt>
      <trkpt lat="42.244604" lon="1.243278">
        <ele>989.821</ele>
        <time>2021-06-19T21:10:19Z</time>
      </trkpt>
      <trkpt lat="42.244599" lon="1.243200">
        <ele>989.048</ele>
        <time>2021-06-19T21:10:20Z</time>
      </trkpt>
      <trkpt lat="42.244594" lon="1.243120">
        <ele>988.158</ele>
        <time>2021-06-19T21:10:21Z</time>
      </trkpt>
      <trkpt lat="42.244591" lon="1.243041">
        <ele>987.452</ele>
        <time>2021-06-19T21:10:22Z</time>
      </trkpt>
      <trkpt lat="42.244591" lon="1.242963">
        <ele>986.817</ele>
        <time>2021-06-19T21:10:23Z</time>
      </trkpt>
      <trkpt lat="42.244595" lon="1.242880">
        <ele>986.508</ele>
        <time>2021-06-19T21:10:24Z</time>
      </trkpt>
      <trkpt lat="42.244595" lon="1.242795">
        <ele>985.982</ele>
        <time>2021-06-19T21:10:25Z</time>
      </trkpt>
      <trkpt lat="42.244578" lon="1.242650">
        <ele>984.441</ele>
        <time>2021-06-19T21:10:27Z</time>
      </trkpt>
      <trkpt lat="42.244553" lon="1.242497">
        <ele>982.697</ele>
        <time>2021-06-19T21:10:29Z</time>
      </trkpt>
      <trkpt lat="42.244523" lon="1.242333">
        <ele>979.921</ele>
        <time>2021-06-19T21:10:31Z</time>
      </trkpt>
      <trkpt lat="42.244519" lon="1.242249">
        <ele>979.285</ele>
        <time>2021-06-19T21:10:32Z</time>
      </trkpt>
      <trkpt lat="42.244521" lon="1.242168">
        <ele>978.675</ele>
        <time>2021-06-19T21:10:33Z</time>
      </trkpt>
      <trkpt lat="42.244537" lon="1.241963">
        <ele>977.518</ele>
        <time>2021-06-19T21:10:36Z</time>
      </trkpt>
      <trkpt lat="42.244481" lon="1.241799">
        <ele>973.715</ele>
        <time>2021-06-19T21:10:39Z</time>
      </trkpt>
      <trkpt lat="42.244383" lon="1.241814">
        <ele>968.927</ele>
        <time>2021-06-19T21:10:42Z</time>
      </trkpt>
      <trkpt lat="42.244363" lon="1.241950">
        <ele>968.368</ele>
        <time>2021-06-19T21:10:45Z</time>
      </trkpt>
      <trkpt lat="42.244335" lon="1.242240">
        <ele>967.914</ele>
        <time>2021-06-19T21:10:49Z</time>
      </trkpt>
      <trkpt lat="42.244304" lon="1.242509">
        <ele>966.408</ele>
        <time>2021-06-19T21:10:52Z</time>
      </trkpt>
      <trkpt lat="42.244250" lon="1.242766">
        <ele>964.049</ele>
        <time>2021-06-19T21:10:55Z</time>
      </trkpt>
      <trkpt lat="42.244186" lon="1.243001">
        <ele>962.598</ele>
        <time>2021-06-19T21:10:58Z</time>
      </trkpt>
      <trkpt lat="42.244116" lon="1.243122">
        <ele>961.054</ele>
        <time>2021-06-19T21:11:00Z</time>
      </trkpt>
      <trkpt lat="42.244026" lon="1.243231">
        <ele>958.988</ele>
        <time>2021-06-19T21:11:02Z</time>
      </trkpt>
      <trkpt lat="42.243951" lon="1.243358">
        <ele>957.472</ele>
        <time>2021-06-19T21:11:04Z</time>
      </trkpt>
      <trkpt lat="42.243847" lon="1.243611">
        <ele>954.732</ele>
        <time>2021-06-19T21:11:08Z</time>
      </trkpt>
      <trkpt lat="42.243778" lon="1.243800">
        <ele>953.125</ele>
        <time>2021-06-19T21:11:11Z</time>
      </trkpt>
      <trkpt lat="42.243701" lon="1.243985">
        <ele>950.982</ele>
        <time>2021-06-19T21:11:14Z</time>
      </trkpt>
      <trkpt lat="42.243654" lon="1.244115">
        <ele>949.879</ele>
        <time>2021-06-19T21:11:16Z</time>
      </trkpt>
      <trkpt lat="42.243636" lon="1.244235">
        <ele>949.605</ele>
        <time>2021-06-19T21:11:18Z</time>
      </trkpt>
      <trkpt lat="42.243613" lon="1.244409">
        <ele>949.025</ele>
        <time>2021-06-19T21:11:21Z</time>
      </trkpt>
      <trkpt lat="42.243593" lon="1.244447">
        <ele>948.008</ele>
        <time>2021-06-19T21:11:22Z</time>
      </trkpt>
      <trkpt lat="42.243509" lon="1.244471">
        <ele>943.074</ele>
        <time>2021-06-19T21:11:25Z</time>
      </trkpt>
      <trkpt lat="42.243442" lon="1.244364">
        <ele>939.843</ele>
        <time>2021-06-19T21:11:28Z</time>
      </trkpt>
      <trkpt lat="42.243399" lon="1.244184">
        <ele>937.329</ele>
        <time>2021-06-19T21:11:31Z</time>
      </trkpt>
      <trkpt lat="42.243393" lon="1.244123">
        <ele>936.493</ele>
        <time>2021-06-19T21:11:32Z</time>
      </trkpt>
      <trkpt lat="42.243390" lon="1.244062">
        <ele>935.467</ele>
        <time>2021-06-19T21:11:33Z</time>
      </trkpt>
      <trkpt lat="42.243390" lon="1.243997">
        <ele>934.577</ele>
        <time>2021-06-19T21:11:34Z</time>
      </trkpt>
      <trkpt lat="42.243393" lon="1.243934">
        <ele>933.860</ele>
        <time>2021-06-19T21:11:35Z</time>
      </trkpt>
      <trkpt lat="42.243408" lon="1.243751">
        <ele>932.967</ele>
        <time>2021-06-19T21:11:38Z</time>
      </trkpt>
      <trkpt lat="42.243392" lon="1.243544">
        <ele>930.317</ele>
        <time>2021-06-19T21:11:41Z</time>
      </trkpt>
      <trkpt lat="42.243392" lon="1.243401">
        <ele>928.887</ele>
        <time>2021-06-19T21:11:43Z</time>
      </trkpt>
      <trkpt lat="42.243407" lon="1.243260">
        <ele>927.915</ele>
        <time>2021-06-19T21:11:45Z</time>
      </trkpt>
      <trkpt lat="42.243422" lon="1.243113">
        <ele>926.408</ele>
        <time>2021-06-19T21:11:47Z</time>
      </trkpt>
      <trkpt lat="42.243439" lon="1.242953">
        <ele>924.058</ele>
        <time>2021-06-19T21:11:49Z</time>
      </trkpt>
      <trkpt lat="42.243521" lon="1.242642">
        <ele>921.797</ele>
        <time>2021-06-19T21:11:53Z</time>
      </trkpt>
      <trkpt lat="42.243542" lon="1.242479">
        <ele>920.743</ele>
        <time>2021-06-19T21:11:55Z</time>
      </trkpt>
      <trkpt lat="42.243540" lon="1.242319">
        <ele>920.247</ele>
        <time>2021-06-19T21:11:57Z</time>
      </trkpt>
      <trkpt lat="42.243533" lon="1.242251">
        <ele>919.661</ele>
        <time>2021-06-19T21:11:58Z</time>
      </trkpt>
      <trkpt lat="42.243522" lon="1.242189">
        <ele>919.161</ele>
        <time>2021-06-19T21:11:59Z</time>
      </trkpt>
      <trkpt lat="42.243506" lon="1.242126">
        <ele>918.534</ele>
        <time>2021-06-19T21:12:00Z</time>
      </trkpt>
      <trkpt lat="42.243486" lon="1.242057">
        <ele>917.751</ele>
        <time>2021-06-19T21:12:01Z</time>
      </trkpt>
      <trkpt lat="42.243466" lon="1.241985">
        <ele>916.981</ele>
        <time>2021-06-19T21:12:02Z</time>
      </trkpt>
      <trkpt lat="42.243457" lon="1.241770">
        <ele>916.261</ele>
        <time>2021-06-19T21:12:05Z</time>
      </trkpt>
      <trkpt lat="42.243464" lon="1.241700">
        <ele>916.517</ele>
        <time>2021-06-19T21:12:06Z</time>
      </trkpt>
      <trkpt lat="42.243469" lon="1.241632">
        <ele>916.708</ele>
        <time>2021-06-19T21:12:07Z</time>
      </trkpt>
      <trkpt lat="42.243475" lon="1.241441">
        <ele>916.815</ele>
        <time>2021-06-19T21:12:10Z</time>
      </trkpt>
      <trkpt lat="42.243432" lon="1.241241">
        <ele>912.284</ele>
        <time>2021-06-19T21:12:14Z</time>
      </trkpt>
      <trkpt lat="42.243358" lon="1.241313">
        <ele>907.940</ele>
        <time>2021-06-19T21:12:17Z</time>
      </trkpt>
      <trkpt lat="42.243306" lon="1.241465">
        <ele>905.274</ele>
        <time>2021-06-19T21:12:20Z</time>
      </trkpt>
      <trkpt lat="42.243290" lon="1.241516">
        <ele>904.248</ele>
        <time>2021-06-19T21:12:21Z</time>
      </trkpt>
      <trkpt lat="42.243274" lon="1.241566">
        <ele>903.498</ele>
        <time>2021-06-19T21:12:22Z</time>
      </trkpt>
      <trkpt lat="42.243257" lon="1.241616">
        <ele>902.591</ele>
        <time>2021-06-19T21:12:23Z</time>
      </trkpt>
      <trkpt lat="42.243179" lon="1.241813">
        <ele>899.578</ele>
        <time>2021-06-19T21:12:27Z</time>
      </trkpt>
      <trkpt lat="42.243160" lon="1.241866">
        <ele>898.915</ele>
        <time>2021-06-19T21:12:28Z</time>
      </trkpt>
      <trkpt lat="42.243081" lon="1.242138">
        <ele>895.965</ele>
        <time>2021-06-19T21:12:33Z</time>
      </trkpt>
      <trkpt lat="42.243047" lon="1.242318">
        <ele>895.311</ele>
        <time>2021-06-19T21:12:36Z</time>
      </trkpt>
      <trkpt lat="42.243026" lon="1.242377">
        <ele>895.008</ele>
        <time>2021-06-19T21:12:37Z</time>
      </trkpt>
      <trkpt lat="42.242942" lon="1.242520">
        <ele>893.358</ele>
        <time>2021-06-19T21:12:40Z</time>
      </trkpt>
      <trkpt lat="42.242913" lon="1.242570">
        <ele>893.227</ele>
        <time>2021-06-19T21:12:41Z</time>
      </trkpt>
      <trkpt lat="42.242886" lon="1.242623">
        <ele>893.213</ele>
        <time>2021-06-19T21:12:42Z</time>
      </trkpt>
      <trkpt lat="42.242757" lon="1.242906">
        <ele>892.027</ele>
        <time>2021-06-19T21:12:47Z</time>
      </trkpt>
      <trkpt lat="42.242732" lon="1.242970">
        <ele>892.011</ele>
        <time>2021-06-19T21:12:48Z</time>
      </trkpt>
      <trkpt lat="42.242635" lon="1.243243">
        <ele>891.011</ele>
        <time>2021-06-19T21:12:52Z</time>
      </trkpt>
      <trkpt lat="42.242560" lon="1.243433">
        <ele>888.824</ele>
        <time>2021-06-19T21:12:55Z</time>
      </trkpt>
      <trkpt lat="42.242520" lon="1.243560">
        <ele>887.011</ele>
        <time>2021-06-19T21:12:57Z</time>
      </trkpt>
      <trkpt lat="42.242495" lon="1.243756">
        <ele>885.731</ele>
        <time>2021-06-19T21:13:00Z</time>
      </trkpt>
      <trkpt lat="42.242483" lon="1.243823">
        <ele>885.161</ele>
        <time>2021-06-19T21:13:01Z</time>
      </trkpt>
      <trkpt lat="42.242452" lon="1.244013">
        <ele>883.607</ele>
        <time>2021-06-19T21:13:04Z</time>
      </trkpt>
      <trkpt lat="42.242411" lon="1.244089">
        <ele>881.408</ele>
        <time>2021-06-19T21:13:06Z</time>
      </trkpt>
      <trkpt lat="42.242366" lon="1.244093">
        <ele>878.750</ele>
        <time>2021-06-19T21:13:08Z</time>
      </trkpt>
      <trkpt lat="42.242349" lon="1.244078">
        <ele>877.619</ele>
        <time>2021-06-19T21:13:09Z</time>
      </trkpt>
      <trkpt lat="42.242318" lon="1.243975">
        <ele>875.665</ele>
        <time>2021-06-19T21:13:12Z</time>
      </trkpt>
      <trkpt lat="42.242315" lon="1.243932">
        <ele>875.459</ele>
        <time>2021-06-19T21:13:13Z</time>
      </trkpt>
      <trkpt lat="42.242311" lon="1.243847">
        <ele>875.423</ele>
        <time>2021-06-19T21:13:15Z</time>
      </trkpt>
      <trkpt lat="42.242304" lon="1.243809">
        <ele>875.323</ele>
        <time>2021-06-19T21:13:16Z</time>
      </trkpt>
      <trkpt lat="42.242267" lon="1.243708">
        <ele>874.216</ele>
        <time>2021-06-19T21:13:19Z</time>
      </trkpt>
      <trkpt lat="42.242185" lon="1.243587">
        <ele>871.073</ele>
        <time>2021-06-19T21:13:22Z</time>
      </trkpt>
      <trkpt lat="42.242159" lon="1.243541">
        <ele>869.744</ele>
        <time>2021-06-19T21:13:23Z</time>
      </trkpt>
      <trkpt lat="42.242056" lon="1.243255">
        <ele>865.405</ele>
        <time>2021-06-19T21:13:28Z</time>
      </trkpt>
      <trkpt lat="42.242007" lon="1.243140">
        <ele>863.815</ele>
        <time>2021-06-19T21:13:30Z</time>
      </trkpt>
      <trkpt lat="42.241906" lon="1.242879">
        <ele>859.308</ele>
        <time>2021-06-19T21:13:34Z</time>
      </trkpt>
      <trkpt lat="42.241887" lon="1.242808">
        <ele>858.121</ele>
        <time>2021-06-19T21:13:35Z</time>
      </trkpt>
      <trkpt lat="42.241877" lon="1.242738">
        <ele>857.210</ele>
        <time>2021-06-19T21:13:36Z</time>
      </trkpt>
      <trkpt lat="42.241907" lon="1.242536">
        <ele>856.226</ele>
        <time>2021-06-19T21:13:39Z</time>
      </trkpt>
      <trkpt lat="42.241934" lon="1.242480">
        <ele>856.250</ele>
        <time>2021-06-19T21:13:40Z</time>
      </trkpt>
      <trkpt lat="42.241959" lon="1.242343">
        <ele>853.974</ele>
        <time>2021-06-19T21:13:43Z</time>
      </trkpt>
      <trkpt lat="42.241892" lon="1.242321">
        <ele>851.484</ele>
        <time>2021-06-19T21:13:45Z</time>
      </trkpt>
      <trkpt lat="42.241853" lon="1.242339">
        <ele>850.627</ele>
        <time>2021-06-19T21:13:46Z</time>
      </trkpt>
      <trkpt lat="42.241774" lon="1.242402">
        <ele>849.494</ele>
        <time>2021-06-19T21:13:48Z</time>
      </trkpt>
      <trkpt lat="42.241732" lon="1.242431">
        <ele>848.623</ele>
        <time>2021-06-19T21:13:49Z</time>
      </trkpt>
      <trkpt lat="42.241651" lon="1.242480">
        <ele>847.083</ele>
        <time>2021-06-19T21:13:51Z</time>
      </trkpt>
      <trkpt lat="42.241533" lon="1.242566">
        <ele>843.911</ele>
        <time>2021-06-19T21:13:54Z</time>
      </trkpt>
      <trkpt lat="42.241436" lon="1.242660">
        <ele>841.808</ele>
        <time>2021-06-19T21:13:57Z</time>
      </trkpt>
      <trkpt lat="42.241407" lon="1.242689">
        <ele>841.399</ele>
        <time>2021-06-19T21:13:58Z</time>
      </trkpt>
      <trkpt lat="42.241269" lon="1.242826">
        <ele>838.238</ele>
        <time>2021-06-19T21:14:02Z</time>
      </trkpt>
      <trkpt lat="42.241232" lon="1.242860">
        <ele>837.174</ele>
        <time>2021-06-19T21:14:03Z</time>
      </trkpt>
      <trkpt lat="42.241106" lon="1.242982">
        <ele>833.628</ele>
        <time>2021-06-19T21:14:07Z</time>
      </trkpt>
      <trkpt lat="42.241077" lon="1.243007">
        <ele>833.022</ele>
        <time>2021-06-19T21:14:08Z</time>
      </trkpt>
      <trkpt lat="42.241012" lon="1.243042">
        <ele>831.512</ele>
        <time>2021-06-19T21:14:10Z</time>
      </trkpt>
      <trkpt lat="42.240911" lon="1.243057">
        <ele>828.985</ele>
        <time>2021-06-19T21:14:13Z</time>
      </trkpt>
      <trkpt lat="42.240846" lon="1.243064">
        <ele>827.232</ele>
        <time>2021-06-19T21:14:15Z</time>
      </trkpt>
      <trkpt lat="42.240759" lon="1.243080">
        <ele>825.333</ele>
        <time>2021-06-19T21:14:19Z</time>
      </trkpt>
      <trkpt lat="42.240622" lon="1.243142">
        <ele>822.023</ele>
        <time>2021-06-19T21:14:24Z</time>
      </trkpt>
      <trkpt lat="42.240490" lon="1.243220">
        <ele>818.515</ele>
        <time>2021-06-19T21:14:28Z</time>
      </trkpt>
      <trkpt lat="42.240382" lon="1.243287">
        <ele>816.408</ele>
        <time>2021-06-19T21:14:31Z</time>
      </trkpt>
      <trkpt lat="42.240344" lon="1.243311">
        <ele>815.890</ele>
        <time>2021-06-19T21:14:32Z</time>
      </trkpt>
      <trkpt lat="42.240189" lon="1.243417">
        <ele>812.529</ele>
        <time>2021-06-19T21:14:36Z</time>
      </trkpt>
      <trkpt lat="42.240023" lon="1.243537">
        <ele>809.785</ele>
        <time>2021-06-19T21:14:40Z</time>
      </trkpt>
      <trkpt lat="42.239981" lon="1.243566">
        <ele>809.049</ele>
        <time>2021-06-19T21:14:41Z</time>
      </trkpt>
      <trkpt lat="42.239859" lon="1.243653">
        <ele>806.343</ele>
        <time>2021-06-19T21:14:44Z</time>
      </trkpt>
      <trkpt lat="42.239700" lon="1.243794">
        <ele>803.473</ele>
        <time>2021-06-19T21:14:48Z</time>
      </trkpt>
      <trkpt lat="42.239545" lon="1.243943">
        <ele>800.226</ele>
        <time>2021-06-19T21:14:52Z</time>
      </trkpt>
      <trkpt lat="42.239422" lon="1.244045">
        <ele>798.043</ele>
        <time>2021-06-19T21:14:55Z</time>
      </trkpt>
      <trkpt lat="42.239379" lon="1.244075">
        <ele>797.068</ele>
        <time>2021-06-19T21:14:56Z</time>
      </trkpt>
      <trkpt lat="42.239253" lon="1.244142">
        <ele>794.542</ele>
        <time>2021-06-19T21:14:59Z</time>
      </trkpt>
      <trkpt lat="42.239209" lon="1.244148">
        <ele>793.826</ele>
        <time>2021-06-19T21:15:00Z</time>
      </trkpt>
      <trkpt lat="42.239166" lon="1.244136">
        <ele>793.308</ele>
        <time>2021-06-19T21:15:01Z</time>
      </trkpt>
      <trkpt lat="42.239094" lon="1.244055">
        <ele>790.893</ele>
        <time>2021-06-19T21:15:03Z</time>
      </trkpt>
      <trkpt lat="42.239067" lon="1.243992">
        <ele>790.212</ele>
        <time>2021-06-19T21:15:04Z</time>
      </trkpt>
      <trkpt lat="42.239019" lon="1.243848">
        <ele>789.398</ele>
        <time>2021-06-19T21:15:06Z</time>
      </trkpt>
      <trkpt lat="42.238976" lon="1.243708">
        <ele>788.452</ele>
        <time>2021-06-19T21:15:08Z</time>
      </trkpt>
      <trkpt lat="42.238965" lon="1.243641">
        <ele>788.566</ele>
        <time>2021-06-19T21:15:09Z</time>
      </trkpt>
      <trkpt lat="42.239001" lon="1.243438">
        <ele>788.076</ele>
        <time>2021-06-19T21:15:12Z</time>
      </trkpt>
      <trkpt lat="42.239010" lon="1.243378">
        <ele>787.769</ele>
        <time>2021-06-19T21:15:13Z</time>
      </trkpt>
      <trkpt lat="42.239005" lon="1.243322">
        <ele>787.126</ele>
        <time>2021-06-19T21:15:14Z</time>
      </trkpt>
      <trkpt lat="42.238988" lon="1.243267">
        <ele>786.547</ele>
        <time>2021-06-19T21:15:15Z</time>
      </trkpt>
      <trkpt lat="42.238946" lon="1.243162">
        <ele>785.129</ele>
        <time>2021-06-19T21:15:17Z</time>
      </trkpt>
      <trkpt lat="42.238926" lon="1.243107">
        <ele>784.421</ele>
        <time>2021-06-19T21:15:18Z</time>
      </trkpt>
      <trkpt lat="42.238889" lon="1.242978">
        <ele>783.308</ele>
        <time>2021-06-19T21:15:20Z</time>
      </trkpt>
      <trkpt lat="42.238870" lon="1.242907">
        <ele>782.231</ele>
        <time>2021-06-19T21:15:21Z</time>
      </trkpt>
      <trkpt lat="42.238813" lon="1.242703">
        <ele>777.780</ele>
        <time>2021-06-19T21:15:24Z</time>
      </trkpt>
      <trkpt lat="42.238812" lon="1.242638">
        <ele>776.626</ele>
        <time>2021-06-19T21:15:25Z</time>
      </trkpt>
      <trkpt lat="42.238887" lon="1.242486">
        <ele>776.530</ele>
        <time>2021-06-19T21:15:28Z</time>
      </trkpt>
      <trkpt lat="42.238930" lon="1.242451">
        <ele>776.274</ele>
        <time>2021-06-19T21:15:29Z</time>
      </trkpt>
      <trkpt lat="42.239111" lon="1.242290">
        <ele>774.264</ele>
        <time>2021-06-19T21:15:33Z</time>
      </trkpt>
      <trkpt lat="42.239153" lon="1.242247">
        <ele>773.687</ele>
        <time>2021-06-19T21:15:34Z</time>
      </trkpt>
      <trkpt lat="42.239198" lon="1.242101">
        <ele>769.544</ele>
        <time>2021-06-19T21:15:37Z</time>
      </trkpt>
      <trkpt lat="42.239172" lon="1.242068">
        <ele>767.655</ele>
        <time>2021-06-19T21:15:38Z</time>
      </trkpt>
      <trkpt lat="42.239108" lon="1.242064">
        <ele>766.407</ele>
        <time>2021-06-19T21:15:40Z</time>
      </trkpt>
      <trkpt lat="42.239074" lon="1.242080">
        <ele>766.417</ele>
        <time>2021-06-19T21:15:41Z</time>
      </trkpt>
      <trkpt lat="42.238941" lon="1.242126">
        <ele>765.808</ele>
        <time>2021-06-19T21:15:45Z</time>
      </trkpt>
      <trkpt lat="42.238789" lon="1.242173">
        <ele>764.462</ele>
        <time>2021-06-19T21:15:49Z</time>
      </trkpt>
      <trkpt lat="42.238745" lon="1.242176">
        <ele>763.681</ele>
        <time>2021-06-19T21:15:50Z</time>
      </trkpt>
      <trkpt lat="42.238698" lon="1.242183">
        <ele>762.887</ele>
        <time>2021-06-19T21:15:51Z</time>
      </trkpt>
      <trkpt lat="42.238649" lon="1.242194">
        <ele>762.181</ele>
        <time>2021-06-19T21:15:52Z</time>
      </trkpt>
      <trkpt lat="42.238602" lon="1.242209">
        <ele>761.435</ele>
        <time>2021-06-19T21:15:53Z</time>
      </trkpt>
      <trkpt lat="42.238556" lon="1.242232">
        <ele>760.495</ele>
        <time>2021-06-19T21:15:54Z</time>
      </trkpt>
      <trkpt lat="42.238517" lon="1.242263">
        <ele>759.448</ele>
        <time>2021-06-19T21:15:55Z</time>
      </trkpt>
      <trkpt lat="42.238464" lon="1.242347">
        <ele>758.015</ele>
        <time>2021-06-19T21:15:57Z</time>
      </trkpt>
      <trkpt lat="42.238439" lon="1.242446">
        <ele>757.343</ele>
        <time>2021-06-19T21:15:59Z</time>
      </trkpt>
      <trkpt lat="42.238440" lon="1.242592">
        <ele>756.564</ele>
        <time>2021-06-19T21:16:02Z</time>
      </trkpt>
      <trkpt lat="42.238446" lon="1.242630">
        <ele>756.510</ele>
        <time>2021-06-19T21:16:03Z</time>
      </trkpt>
      <trkpt lat="42.238449" lon="1.242673">
        <ele>756.208</ele>
        <time>2021-06-19T21:16:04Z</time>
      </trkpt>
      <trkpt lat="42.238451" lon="1.242798">
        <ele>755.221</ele>
        <time>2021-06-19T21:16:07Z</time>
      </trkpt>
      <trkpt lat="42.238438" lon="1.242871">
        <ele>754.370</ele>
        <time>2021-06-19T21:16:09Z</time>
      </trkpt>
      <trkpt lat="42.238404" lon="1.242929">
        <ele>752.226</ele>
        <time>2021-06-19T21:16:11Z</time>
      </trkpt>
      <trkpt lat="42.238347" lon="1.243045">
        <ele>748.840</ele>
        <time>2021-06-19T21:16:15Z</time>
      </trkpt>
      <trkpt lat="42.238294" lon="1.243179">
        <ele>747.574</ele>
        <time>2021-06-19T21:16:18Z</time>
      </trkpt>
      <trkpt lat="42.238279" lon="1.243236">
        <ele>747.384</ele>
        <time>2021-06-19T21:16:19Z</time>
      </trkpt>
      <trkpt lat="42.238241" lon="1.243431">
        <ele>746.857</ele>
        <time>2021-06-19T21:16:22Z</time>
      </trkpt>
      <trkpt lat="42.238211" lon="1.243583">
        <ele>746.064</ele>
        <time>2021-06-19T21:16:24Z</time>
      </trkpt>
      <trkpt lat="42.238201" lon="1.243669">
        <ele>745.458</ele>
        <time>2021-06-19T21:16:25Z</time>
      </trkpt>
      <trkpt lat="42.238193" lon="1.243757">
        <ele>744.752</ele>
        <time>2021-06-19T21:16:26Z</time>
      </trkpt>
      <trkpt lat="42.238154" lon="1.244221">
        <ele>741.517</ele>
        <time>2021-06-19T21:16:31Z</time>
      </trkpt>
      <trkpt lat="42.238152" lon="1.244312">
        <ele>741.308</ele>
        <time>2021-06-19T21:16:32Z</time>
      </trkpt>
      <trkpt lat="42.238138" lon="1.244678">
        <ele>739.472</ele>
        <time>2021-06-19T21:16:36Z</time>
      </trkpt>
      <trkpt lat="42.238139" lon="1.244766">
        <ele>739.031</ele>
        <time>2021-06-19T21:16:37Z</time>
      </trkpt>
      <trkpt lat="42.238129" lon="1.244950">
        <ele>737.617</ele>
        <time>2021-06-19T21:16:39Z</time>
      </trkpt>
      <trkpt lat="42.238088" lon="1.245138">
        <ele>734.561</ele>
        <time>2021-06-19T21:16:41Z</time>
      </trkpt>
      <trkpt lat="42.238061" lon="1.245228">
        <ele>732.765</ele>
        <time>2021-06-19T21:16:42Z</time>
      </trkpt>
      <trkpt lat="42.238006" lon="1.245394">
        <ele>732.325</ele>
        <time>2021-06-19T21:16:44Z</time>
      </trkpt>
      <trkpt lat="42.237982" lon="1.245472">
        <ele>732.788</ele>
        <time>2021-06-19T21:16:45Z</time>
      </trkpt>
      <trkpt lat="42.237912" lon="1.245687">
        <ele>734.545</ele>
        <time>2021-06-19T21:16:48Z</time>
      </trkpt>
      <trkpt lat="42.237880" lon="1.245744">
        <ele>735.146</ele>
        <time>2021-06-19T21:16:49Z</time>
      </trkpt>
      <trkpt lat="42.237841" lon="1.245786">
        <ele>735.688</ele>
        <time>2021-06-19T21:16:50Z</time>
      </trkpt>
      <trkpt lat="42.237758" lon="1.245862">
        <ele>735.716</ele>
        <time>2021-06-19T21:16:52Z</time>
      </trkpt>
      <trkpt lat="42.237557" lon="1.246058">
        <ele>733.608</ele>
        <time>2021-06-19T21:16:57Z</time>
      </trkpt>
      <trkpt lat="42.237524" lon="1.246098">
        <ele>733.111</ele>
        <time>2021-06-19T21:16:58Z</time>
      </trkpt>
      <trkpt lat="42.237498" lon="1.246139">
        <ele>733.360</ele>
        <time>2021-06-19T21:16:59Z</time>
      </trkpt>
      <trkpt lat="42.237471" lon="1.246257">
        <ele>734.536</ele>
        <time>2021-06-19T21:17:02Z</time>
      </trkpt>
      <trkpt lat="42.237474" lon="1.246293">
        <ele>734.930</ele>
        <time>2021-06-19T21:17:03Z</time>
      </trkpt>
      <trkpt lat="42.237478" lon="1.246329">
        <ele>735.374</ele>
        <time>2021-06-19T21:17:04Z</time>
      </trkpt>
      <trkpt lat="42.237517" lon="1.246422">
        <ele>736.314</ele>
        <time>2021-06-19T21:17:07Z</time>
      </trkpt>
      <trkpt lat="42.237536" lon="1.246446">
        <ele>736.557</ele>
        <time>2021-06-19T21:17:08Z</time>
      </trkpt>
      <trkpt lat="42.237595" lon="1.246520">
        <ele>737.094</ele>
        <time>2021-06-19T21:17:11Z</time>
      </trkpt>
      <trkpt lat="42.237660" lon="1.246634">
        <ele>737.961</ele>
        <time>2021-06-19T21:17:15Z</time>
      </trkpt>
      <trkpt lat="42.237693" lon="1.246685">
        <ele>738.121</ele>
        <time>2021-06-19T21:17:17Z</time>
      </trkpt>
      <trkpt lat="42.237731" lon="1.246772">
        <ele>738.313</ele>
        <time>2021-06-19T21:17:21Z</time>
      </trkpt>
      <trkpt lat="42.237737" lon="1.246787">
        <ele>738.408</ele>
        <time>2021-06-19T21:17:22Z</time>
      </trkpt>
      <trkpt lat="42.237737" lon="1.246845">
        <ele>738.873</ele>
        <time>2021-06-19T21:17:25Z</time>
      </trkpt>
      <trkpt lat="42.237727" lon="1.246856">
        <ele>739.042</ele>
        <time>2021-06-19T21:17:26Z</time>
      </trkpt>
      <trkpt lat="42.237723" lon="1.246861">
        <ele>739.148</ele>
        <time>2021-06-19T21:17:28Z</time>
      </trkpt>
      <trkpt lat="42.237761" lon="1.246926">
        <ele>739.192</ele>
        <time>2021-06-19T21:19:15Z</time>
      </trkpt>
      <trkpt lat="42.237778" lon="1.246967">
        <ele>739.156</ele>
        <time>2021-06-19T21:19:17Z</time>
      </trkpt>
      <trkpt lat="42.237786" lon="1.247067">
        <ele>739.316</ele>
        <time>2021-06-19T21:19:20Z</time>
      </trkpt>
      <trkpt lat="42.237786" lon="1.247110">
        <ele>739.489</ele>
        <time>2021-06-19T21:19:21Z</time>
      </trkpt>
      <trkpt lat="42.237795" lon="1.247375">
        <ele>739.066</ele>
        <time>2021-06-19T21:19:26Z</time>
      </trkpt>
      <trkpt lat="42.237797" lon="1.247435">
        <ele>738.843</ele>
        <time>2021-06-19T21:19:27Z</time>
      </trkpt>
      <trkpt lat="42.237822" lon="1.247756">
        <ele>737.064</ele>
        <time>2021-06-19T21:19:32Z</time>
      </trkpt>
      <trkpt lat="42.237833" lon="1.247896">
        <ele>736.610</ele>
        <time>2021-06-19T21:19:34Z</time>
      </trkpt>
      <trkpt lat="42.237848" lon="1.248104">
        <ele>736.508</ele>
        <time>2021-06-19T21:19:37Z</time>
      </trkpt>
      <trkpt lat="42.237859" lon="1.248168">
        <ele>736.691</ele>
        <time>2021-06-19T21:19:38Z</time>
      </trkpt>
      <trkpt lat="42.237893" lon="1.248335">
        <ele>736.970</ele>
        <time>2021-06-19T21:19:41Z</time>
      </trkpt>
      <trkpt lat="42.237906" lon="1.248435">
        <ele>737.176</ele>
        <time>2021-06-19T21:19:43Z</time>
      </trkpt>
      <trkpt lat="42.237957" lon="1.248688">
        <ele>737.160</ele>
        <time>2021-06-19T21:19:48Z</time>
      </trkpt>
      <trkpt lat="42.237987" lon="1.248808">
        <ele>736.964</ele>
        <time>2021-06-19T21:19:50Z</time>
      </trkpt>
      <trkpt lat="42.238059" lon="1.249090">
        <ele>736.634</ele>
        <time>2021-06-19T21:19:54Z</time>
      </trkpt>
      <trkpt lat="42.238102" lon="1.249249">
        <ele>735.127</ele>
        <time>2021-06-19T21:19:56Z</time>
      </trkpt>
      <trkpt lat="42.238188" lon="1.249684">
        <ele>733.594</ele>
        <time>2021-06-19T21:20:01Z</time>
      </trkpt>
      <trkpt lat="42.238166" lon="1.249950">
        <ele>734.474</ele>
        <time>2021-06-19T21:20:04Z</time>
      </trkpt>
      <trkpt lat="42.238119" lon="1.250115">
        <ele>734.756</ele>
        <time>2021-06-19T21:20:06Z</time>
      </trkpt>
      <trkpt lat="42.238095" lon="1.250197">
        <ele>734.721</ele>
        <time>2021-06-19T21:20:07Z</time>
      </trkpt>
      <trkpt lat="42.237978" lon="1.250599">
        <ele>733.308</ele>
        <time>2021-06-19T21:20:12Z</time>
      </trkpt>
      <trkpt lat="42.237957" lon="1.250680">
        <ele>733.144</ele>
        <time>2021-06-19T21:20:13Z</time>
      </trkpt>
      <trkpt lat="42.237896" lon="1.251088">
        <ele>732.923</ele>
        <time>2021-06-19T21:20:18Z</time>
      </trkpt>
      <trkpt lat="42.237886" lon="1.251168">
        <ele>733.189</ele>
        <time>2021-06-19T21:20:19Z</time>
      </trkpt>
      <trkpt lat="42.237813" lon="1.251699">
        <ele>734.353</ele>
        <time>2021-06-19T21:20:26Z</time>
      </trkpt>
      <trkpt lat="42.237793" lon="1.251766">
        <ele>734.477</ele>
        <time>2021-06-19T21:20:27Z</time>
      </trkpt>
      <trkpt lat="42.237637" lon="1.251961">
        <ele>733.917</ele>
        <time>2021-06-19T21:20:31Z</time>
      </trkpt>
      <trkpt lat="42.237468" lon="1.251971">
        <ele>733.520</ele>
        <time>2021-06-19T21:20:34Z</time>
      </trkpt>
      <trkpt lat="42.237412" lon="1.251941">
        <ele>733.477</ele>
        <time>2021-06-19T21:20:35Z</time>
      </trkpt>
      <trkpt lat="42.237357" lon="1.251904">
        <ele>733.644</ele>
        <time>2021-06-19T21:20:36Z</time>
      </trkpt>
      <trkpt lat="42.237241" lon="1.251846">
        <ele>733.905</ele>
        <time>2021-06-19T21:20:38Z</time>
      </trkpt>
      <trkpt lat="42.237120" lon="1.251866">
        <ele>733.915</ele>
        <time>2021-06-19T21:20:40Z</time>
      </trkpt>
      <trkpt lat="42.237072" lon="1.251912">
        <ele>733.808</ele>
        <time>2021-06-19T21:20:41Z</time>
      </trkpt>
      <trkpt lat="42.237039" lon="1.251971">
        <ele>734.261</ele>
        <time>2021-06-19T21:20:42Z</time>
      </trkpt>
      <trkpt lat="42.237021" lon="1.252036">
        <ele>734.950</ele>
        <time>2021-06-19T21:20:43Z</time>
      </trkpt>
      <trkpt lat="42.237015" lon="1.252107">
        <ele>735.776</ele>
        <time>2021-06-19T21:20:44Z</time>
      </trkpt>
      <trkpt lat="42.237021" lon="1.252173">
        <ele>736.180</ele>
        <time>2021-06-19T21:20:45Z</time>
      </trkpt>
      <trkpt lat="42.237030" lon="1.252234">
        <ele>736.344</ele>
        <time>2021-06-19T21:20:46Z</time>
      </trkpt>
      <trkpt lat="42.237039" lon="1.252292">
        <ele>736.494</ele>
        <time>2021-06-19T21:20:47Z</time>
      </trkpt>
      <trkpt lat="42.237047" lon="1.252349">
        <ele>736.447</ele>
        <time>2021-06-19T21:20:48Z</time>
      </trkpt>
      <trkpt lat="42.237055" lon="1.252405">
        <ele>736.524</ele>
        <time>2021-06-19T21:20:49Z</time>
      </trkpt>
      <trkpt lat="42.237063" lon="1.252460">
        <ele>736.562</ele>
        <time>2021-06-19T21:20:50Z</time>
      </trkpt>
      <trkpt lat="42.237072" lon="1.252516">
        <ele>736.583</ele>
        <time>2021-06-19T21:20:51Z</time>
      </trkpt>
      <trkpt lat="42.237081" lon="1.252572">
        <ele>736.311</ele>
        <time>2021-06-19T21:20:52Z</time>
      </trkpt>
      <trkpt lat="42.237088" lon="1.252629">
        <ele>736.308</ele>
        <time>2021-06-19T21:20:53Z</time>
      </trkpt>
      <trkpt lat="42.237093" lon="1.252687">
        <ele>736.493</ele>
        <time>2021-06-19T21:20:54Z</time>
      </trkpt>
      <trkpt lat="42.237093" lon="1.252748">
        <ele>736.672</ele>
        <time>2021-06-19T21:20:55Z</time>
      </trkpt>
      <trkpt lat="42.237091" lon="1.252812">
        <ele>736.798</ele>
        <time>2021-06-19T21:20:56Z</time>
      </trkpt>
      <trkpt lat="42.237086" lon="1.252878">
        <ele>736.652</ele>
        <time>2021-06-19T21:20:57Z</time>
      </trkpt>
      <trkpt lat="42.237082" lon="1.252947">
        <ele>736.486</ele>
        <time>2021-06-19T21:20:58Z</time>
      </trkpt>
      <trkpt lat="42.237076" lon="1.253018">
        <ele>736.336</ele>
        <time>2021-06-19T21:20:59Z</time>
      </trkpt>
      <trkpt lat="42.237070" lon="1.253091">
        <ele>736.259</ele>
        <time>2021-06-19T21:21:00Z</time>
      </trkpt>
      <trkpt lat="42.237062" lon="1.253167">
        <ele>736.136</ele>
        <time>2021-06-19T21:21:01Z</time>
      </trkpt>
      <trkpt lat="42.237055" lon="1.253244">
        <ele>735.978</ele>
        <time>2021-06-19T21:21:02Z</time>
      </trkpt>
      <trkpt lat="42.237047" lon="1.253325">
        <ele>735.833</ele>
        <time>2021-06-19T21:21:03Z</time>
      </trkpt>
      <trkpt lat="42.237039" lon="1.253407">
        <ele>735.626</ele>
        <time>2021-06-19T21:21:04Z</time>
      </trkpt>
      <trkpt lat="42.237031" lon="1.253492">
        <ele>735.308</ele>
        <time>2021-06-19T21:21:05Z</time>
      </trkpt>
      <trkpt lat="42.237023" lon="1.253578">
        <ele>735.064</ele>
        <time>2021-06-19T21:21:06Z</time>
      </trkpt>
      <trkpt lat="42.237016" lon="1.253667">
        <ele>734.823</ele>
        <time>2021-06-19T21:21:07Z</time>
      </trkpt>
      <trkpt lat="42.237009" lon="1.253756">
        <ele>734.579</ele>
        <time>2021-06-19T21:21:08Z</time>
      </trkpt>
      <trkpt lat="42.237002" lon="1.253847">
        <ele>734.333</ele>
        <time>2021-06-19T21:21:09Z</time>
      </trkpt>
      <trkpt lat="42.236981" lon="1.254034">
        <ele>734.057</ele>
        <time>2021-06-19T21:21:11Z</time>
      </trkpt>
      <trkpt lat="42.236930" lon="1.254719">
        <ele>733.457</ele>
        <time>2021-06-19T21:21:18Z</time>
      </trkpt>
      <trkpt lat="42.236960" lon="1.255536">
        <ele>731.240</ele>
        <time>2021-06-19T21:21:26Z</time>
      </trkpt>
      <trkpt lat="42.236971" lon="1.255729">
        <ele>732.357</ele>
        <time>2021-06-19T21:21:28Z</time>
      </trkpt>
      <trkpt lat="42.236991" lon="1.256444">
        <ele>731.471</ele>
        <time>2021-06-19T21:21:36Z</time>
      </trkpt>
      <trkpt lat="42.236894" lon="1.256743">
        <ele>730.841</ele>
        <time>2021-06-19T21:21:40Z</time>
      </trkpt>
      <trkpt lat="42.236855" lon="1.256805">
        <ele>730.715</ele>
        <time>2021-06-19T21:21:41Z</time>
      </trkpt>
      <trkpt lat="42.236781" lon="1.256928">
        <ele>731.108</ele>
        <time>2021-06-19T21:21:43Z</time>
      </trkpt>
      <trkpt lat="42.236753" lon="1.256993">
        <ele>731.734</ele>
        <time>2021-06-19T21:21:44Z</time>
      </trkpt>
      <trkpt lat="42.236735" lon="1.257065">
        <ele>732.243</ele>
        <time>2021-06-19T21:21:45Z</time>
      </trkpt>
      <trkpt lat="42.236673" lon="1.257572">
        <ele>733.759</ele>
        <time>2021-06-19T21:21:52Z</time>
      </trkpt>
      <trkpt lat="42.236666" lon="1.257710">
        <ele>734.083</ele>
        <time>2021-06-19T21:21:54Z</time>
      </trkpt>
      <trkpt lat="42.236681" lon="1.257917">
        <ele>734.287</ele>
        <time>2021-06-19T21:21:57Z</time>
      </trkpt>
      <trkpt lat="42.236730" lon="1.258466">
        <ele>734.597</ele>
        <time>2021-06-19T21:22:05Z</time>
      </trkpt>
      <trkpt lat="42.236670" lon="1.258751">
        <ele>734.480</ele>
        <time>2021-06-19T21:22:09Z</time>
      </trkpt>
      <trkpt lat="42.236613" lon="1.258886">
        <ele>733.237</ele>
        <time>2021-06-19T21:22:11Z</time>
      </trkpt>
      <trkpt lat="42.236478" lon="1.259219">
        <ele>734.692</ele>
        <time>2021-06-19T21:22:16Z</time>
      </trkpt>
      <trkpt lat="42.236387" lon="1.259680">
        <ele>736.273</ele>
        <time>2021-06-19T21:22:23Z</time>
      </trkpt>
      <trkpt lat="42.236326" lon="1.260059">
        <ele>736.720</ele>
        <time>2021-06-19T21:22:29Z</time>
      </trkpt>
      <trkpt lat="42.236277" lon="1.260376">
        <ele>736.908</ele>
        <time>2021-06-19T21:22:34Z</time>
      </trkpt>
      <trkpt lat="42.236154" lon="1.260796">
        <ele>736.826</ele>
        <time>2021-06-19T21:22:41Z</time>
      </trkpt>
      <trkpt lat="42.235898" lon="1.261268">
        <ele>736.435</ele>
        <time>2021-06-19T21:22:50Z</time>
      </trkpt>
      <trkpt lat="42.235836" lon="1.261383">
        <ele>736.061</ele>
        <time>2021-06-19T21:22:52Z</time>
      </trkpt>
      <trkpt lat="42.235752" lon="1.261580">
        <ele>735.595</ele>
        <time>2021-06-19T21:22:55Z</time>
      </trkpt>
      <trkpt lat="42.235727" lon="1.261731">
        <ele>735.789</ele>
        <time>2021-06-19T21:22:57Z</time>
      </trkpt>
      <trkpt lat="42.235731" lon="1.261946">
        <ele>737.589</ele>
        <time>2021-06-19T21:23:00Z</time>
      </trkpt>
      <trkpt lat="42.235740" lon="1.262079">
        <ele>737.772</ele>
        <time>2021-06-19T21:23:02Z</time>
      </trkpt>
      <trkpt lat="42.235715" lon="1.262505">
        <ele>737.719</ele>
        <time>2021-06-19T21:23:09Z</time>
      </trkpt>
      <trkpt lat="42.235633" lon="1.262955">
        <ele>736.576</ele>
        <time>2021-06-19T21:23:16Z</time>
      </trkpt>
      <trkpt lat="42.235610" lon="1.263019">
        <ele>736.590</ele>
        <time>2021-06-19T21:23:17Z</time>
      </trkpt>
      <trkpt lat="42.235431" lon="1.263380">
        <ele>736.119</ele>
        <time>2021-06-19T21:23:23Z</time>
      </trkpt>
      <trkpt lat="42.235214" lon="1.263709">
        <ele>735.308</ele>
        <time>2021-06-19T21:23:29Z</time>
      </trkpt>
      <trkpt lat="42.235122" lon="1.263793">
        <ele>735.074</ele>
        <time>2021-06-19T21:23:31Z</time>
      </trkpt>
      <trkpt lat="42.234956" lon="1.263870">
        <ele>735.333</ele>
        <time>2021-06-19T21:23:34Z</time>
      </trkpt>
      <trkpt lat="42.234839" lon="1.263902">
        <ele>735.299</ele>
        <time>2021-06-19T21:23:36Z</time>
      </trkpt>
      <trkpt lat="42.234554" lon="1.263987">
        <ele>734.133</ele>
        <time>2021-06-19T21:23:41Z</time>
      </trkpt>
      <trkpt lat="42.234466" lon="1.264075">
        <ele>733.727</ele>
        <time>2021-06-19T21:23:43Z</time>
      </trkpt>
      <trkpt lat="42.234466" lon="1.264305">
        <ele>733.327</ele>
        <time>2021-06-19T21:23:46Z</time>
      </trkpt>
      <trkpt lat="42.234492" lon="1.264386">
        <ele>732.690</ele>
        <time>2021-06-19T21:23:47Z</time>
      </trkpt>
      <trkpt lat="42.234624" lon="1.264741">
        <ele>729.567</ele>
        <time>2021-06-19T21:23:51Z</time>
      </trkpt>
      <trkpt lat="42.234830" lon="1.265212">
        <ele>727.637</ele>
        <time>2021-06-19T21:23:56Z</time>
      </trkpt>
      <trkpt lat="42.234849" lon="1.265318">
        <ele>727.449</ele>
        <time>2021-06-19T21:23:57Z</time>
      </trkpt>
      <trkpt lat="42.234803" lon="1.265650">
        <ele>725.513</ele>
        <time>2021-06-19T21:24:00Z</time>
      </trkpt>
      <trkpt lat="42.234725" lon="1.265975">
        <ele>724.408</ele>
        <time>2021-06-19T21:24:03Z</time>
      </trkpt>
      <trkpt lat="42.234714" lon="1.266188">
        <ele>723.720</ele>
        <time>2021-06-19T21:24:05Z</time>
      </trkpt>
      <trkpt lat="42.234847" lon="1.266468">
        <ele>721.949</ele>
        <time>2021-06-19T21:24:08Z</time>
      </trkpt>
      <trkpt lat="42.234911" lon="1.266550">
        <ele>720.995</ele>
        <time>2021-06-19T21:24:09Z</time>
      </trkpt>
      <trkpt lat="42.235089" lon="1.266813">
        <ele>718.769</ele>
        <time>2021-06-19T21:24:12Z</time>
      </trkpt>
      <trkpt lat="42.235127" lon="1.266913">
        <ele>718.523</ele>
        <time>2021-06-19T21:24:13Z</time>
      </trkpt>
      <trkpt lat="42.235149" lon="1.267250">
        <ele>717.463</ele>
        <time>2021-06-19T21:24:16Z</time>
      </trkpt>
      <trkpt lat="42.235021" lon="1.267539">
        <ele>715.176</ele>
        <time>2021-06-19T21:24:19Z</time>
      </trkpt>
      <trkpt lat="42.234904" lon="1.267766">
        <ele>713.953</ele>
        <time>2021-06-19T21:24:22Z</time>
      </trkpt>
      <trkpt lat="42.234916" lon="1.268007">
        <ele>715.273</ele>
        <time>2021-06-19T21:24:25Z</time>
      </trkpt>
      <trkpt lat="42.235036" lon="1.268144">
        <ele>714.885</ele>
        <time>2021-06-19T21:24:28Z</time>
      </trkpt>
      <trkpt lat="42.235076" lon="1.268184">
        <ele>714.813</ele>
        <time>2021-06-19T21:24:29Z</time>
      </trkpt>
      <trkpt lat="42.235114" lon="1.268227">
        <ele>714.708</ele>
        <time>2021-06-19T21:24:30Z</time>
      </trkpt>
      <trkpt lat="42.235235" lon="1.268457">
        <ele>714.164</ele>
        <time>2021-06-19T21:24:34Z</time>
      </trkpt>
      <trkpt lat="42.235271" lon="1.268829">
        <ele>714.173</ele>
        <time>2021-06-19T21:24:39Z</time>
      </trkpt>
      <trkpt lat="42.235196" lon="1.269207">
        <ele>714.129</ele>
        <time>2021-06-19T21:24:44Z</time>
      </trkpt>
      <trkpt lat="42.234967" lon="1.269810">
        <ele>716.093</ele>
        <time>2021-06-19T21:24:53Z</time>
      </trkpt>
      <trkpt lat="42.234868" lon="1.269992">
        <ele>716.097</ele>
        <time>2021-06-19T21:24:56Z</time>
      </trkpt>
      <trkpt lat="42.234780" lon="1.270092">
        <ele>715.447</ele>
        <time>2021-06-19T21:24:58Z</time>
      </trkpt>
      <trkpt lat="42.234508" lon="1.270250">
        <ele>714.990</ele>
        <time>2021-06-19T21:25:03Z</time>
      </trkpt>
      <trkpt lat="42.234174" lon="1.270402">
        <ele>714.647</ele>
        <time>2021-06-19T21:25:09Z</time>
      </trkpt>
      <trkpt lat="42.234130" lon="1.270441">
        <ele>714.767</ele>
        <time>2021-06-19T21:25:10Z</time>
      </trkpt>
      <trkpt lat="42.234066" lon="1.270609">
        <ele>715.081</ele>
        <time>2021-06-19T21:25:13Z</time>
      </trkpt>
      <trkpt lat="42.234078" lon="1.270734">
        <ele>715.219</ele>
        <time>2021-06-19T21:25:15Z</time>
      </trkpt>
      <trkpt lat="42.234091" lon="1.270912">
        <ele>715.908</ele>
        <time>2021-06-19T21:25:18Z</time>
      </trkpt>
      <trkpt lat="42.234109" lon="1.271076">
        <ele>716.613</ele>
        <time>2021-06-19T21:25:21Z</time>
      </trkpt>
      <trkpt lat="42.234122" lon="1.271315">
        <ele>716.052</ele>
        <time>2021-06-19T21:25:25Z</time>
      </trkpt>
      <trkpt lat="42.234190" lon="1.272012">
        <ele>716.498</ele>
        <time>2021-06-19T21:25:36Z</time>
      </trkpt>
      <trkpt lat="42.234264" lon="1.272486">
        <ele>714.932</ele>
        <time>2021-06-19T21:25:42Z</time>
      </trkpt>
      <trkpt lat="42.234270" lon="1.272878">
        <ele>713.476</ele>
        <time>2021-06-19T21:25:46Z</time>
      </trkpt>
      <trkpt lat="42.234256" lon="1.272980">
        <ele>713.136</ele>
        <time>2021-06-19T21:25:47Z</time>
      </trkpt>
      <trkpt lat="42.234092" lon="1.273571">
        <ele>712.059</ele>
        <time>2021-06-19T21:25:53Z</time>
      </trkpt>
      <trkpt lat="42.233834" lon="1.274234">
        <ele>710.926</ele>
        <time>2021-06-19T21:26:00Z</time>
      </trkpt>
      <trkpt lat="42.233755" lon="1.274420">
        <ele>710.122</ele>
        <time>2021-06-19T21:26:02Z</time>
      </trkpt>
      <trkpt lat="42.233424" lon="1.275037">
        <ele>708.062</ele>
        <time>2021-06-19T21:26:09Z</time>
      </trkpt>
      <trkpt lat="42.233159" lon="1.275499">
        <ele>704.408</ele>
        <time>2021-06-19T21:26:14Z</time>
      </trkpt>
      <trkpt lat="42.233118" lon="1.275609">
        <ele>703.908</ele>
        <time>2021-06-19T21:26:15Z</time>
      </trkpt>
      <trkpt lat="42.232966" lon="1.276065">
        <ele>701.489</ele>
        <time>2021-06-19T21:26:19Z</time>
      </trkpt>
      <trkpt lat="42.232916" lon="1.276160">
        <ele>701.068</ele>
        <time>2021-06-19T21:26:20Z</time>
      </trkpt>
      <trkpt lat="42.232850" lon="1.276229">
        <ele>700.764</ele>
        <time>2021-06-19T21:26:21Z</time>
      </trkpt>
      <trkpt lat="42.232684" lon="1.276254">
        <ele>700.318</ele>
        <time>2021-06-19T21:26:23Z</time>
      </trkpt>
      <trkpt lat="42.232523" lon="1.276194">
        <ele>700.342</ele>
        <time>2021-06-19T21:26:25Z</time>
      </trkpt>
      <trkpt lat="42.232445" lon="1.276169">
        <ele>700.672</ele>
        <time>2021-06-19T21:26:26Z</time>
      </trkpt>
      <trkpt lat="42.232368" lon="1.276158">
        <ele>700.525</ele>
        <time>2021-06-19T21:26:27Z</time>
      </trkpt>
      <trkpt lat="42.232144" lon="1.276202">
        <ele>699.632</ele>
        <time>2021-06-19T21:26:30Z</time>
      </trkpt>
      <trkpt lat="42.232074" lon="1.276227">
        <ele>699.439</ele>
        <time>2021-06-19T21:26:31Z</time>
      </trkpt>
      <trkpt lat="42.231657" lon="1.276391">
        <ele>698.001</ele>
        <time>2021-06-19T21:26:37Z</time>
      </trkpt>
      <trkpt lat="42.231515" lon="1.276460">
        <ele>697.621</ele>
        <time>2021-06-19T21:26:39Z</time>
      </trkpt>
      <trkpt lat="42.231413" lon="1.276581">
        <ele>695.808</ele>
        <time>2021-06-19T21:26:41Z</time>
      </trkpt>
      <trkpt lat="42.231400" lon="1.276857">
        <ele>696.660</ele>
        <time>2021-06-19T21:26:44Z</time>
      </trkpt>
      <trkpt lat="42.231505" lon="1.276961">
        <ele>697.389</ele>
        <time>2021-06-19T21:26:46Z</time>
      </trkpt>
      <trkpt lat="42.231564" lon="1.276991">
        <ele>697.645</ele>
        <time>2021-06-19T21:26:47Z</time>
      </trkpt>
      <trkpt lat="42.231816" lon="1.277167">
        <ele>697.379</ele>
        <time>2021-06-19T21:26:52Z</time>
      </trkpt>
      <trkpt lat="42.231860" lon="1.277213">
        <ele>697.243</ele>
        <time>2021-06-19T21:26:53Z</time>
      </trkpt>
      <trkpt lat="42.231961" lon="1.277388">
        <ele>697.733</ele>
        <time>2021-06-19T21:26:56Z</time>
      </trkpt>
      <trkpt lat="42.232001" lon="1.277665">
        <ele>698.926</ele>
        <time>2021-06-19T21:27:00Z</time>
      </trkpt>
      <trkpt lat="42.231941" lon="1.277864">
        <ele>697.513</ele>
        <time>2021-06-19T21:27:03Z</time>
      </trkpt>
      <trkpt lat="42.231919" lon="1.277931">
        <ele>696.952</ele>
        <time>2021-06-19T21:27:04Z</time>
      </trkpt>
      <trkpt lat="42.231886" lon="1.278078">
        <ele>695.153</ele>
        <time>2021-06-19T21:27:06Z</time>
      </trkpt>
      <trkpt lat="42.231882" lon="1.278233">
        <ele>695.208</ele>
        <time>2021-06-19T21:27:08Z</time>
      </trkpt>
      <trkpt lat="42.231976" lon="1.278490">
        <ele>697.108</ele>
        <time>2021-06-19T21:27:12Z</time>
      </trkpt>
      <trkpt lat="42.232007" lon="1.278539">
        <ele>697.372</ele>
        <time>2021-06-19T21:27:13Z</time>
      </trkpt>
      <trkpt lat="42.232134" lon="1.278685">
        <ele>697.461</ele>
        <time>2021-06-19T21:27:17Z</time>
      </trkpt>
      <trkpt lat="42.232321" lon="1.278974">
        <ele>699.567</ele>
        <time>2021-06-19T21:27:25Z</time>
      </trkpt>
      <trkpt lat="42.232500" lon="1.279345">
        <ele>700.931</ele>
        <time>2021-06-19T21:27:34Z</time>
      </trkpt>
      <trkpt lat="42.232578" lon="1.279672">
        <ele>701.175</ele>
        <time>2021-06-19T21:27:41Z</time>
      </trkpt>
      <trkpt lat="42.232570" lon="1.279776">
        <ele>701.255</ele>
        <time>2021-06-19T21:27:43Z</time>
      </trkpt>
      <trkpt lat="42.232523" lon="1.279916">
        <ele>701.838</ele>
        <time>2021-06-19T21:27:46Z</time>
      </trkpt>
      <trkpt lat="42.232309" lon="1.280281">
        <ele>703.125</ele>
        <time>2021-06-19T21:27:55Z</time>
      </trkpt>
      <trkpt lat="42.232076" lon="1.280661">
        <ele>703.561</ele>
        <time>2021-06-19T21:28:05Z</time>
      </trkpt>
      <trkpt lat="42.231809" lon="1.281099">
        <ele>704.521</ele>
        <time>2021-06-19T21:28:16Z</time>
      </trkpt>
      <trkpt lat="42.231563" lon="1.281505">
        <ele>706.213</ele>
        <time>2021-06-19T21:28:26Z</time>
      </trkpt>
      <trkpt lat="42.231242" lon="1.282023">
        <ele>707.608</ele>
        <time>2021-06-19T21:28:39Z</time>
      </trkpt>
      <trkpt lat="42.230973" lon="1.282461">
        <ele>707.313</ele>
        <time>2021-06-19T21:28:49Z</time>
      </trkpt>
      <trkpt lat="42.230648" lon="1.283005">
        <ele>706.742</ele>
        <time>2021-06-19T21:29:00Z</time>
      </trkpt>
      <trkpt lat="42.230533" lon="1.283211">
        <ele>706.748</ele>
        <time>2021-06-19T21:29:04Z</time>
      </trkpt>
      <trkpt lat="42.230278" lon="1.283604">
        <ele>708.092</ele>
        <time>2021-06-19T21:29:12Z</time>
      </trkpt>
      <trkpt lat="42.230239" lon="1.283647">
        <ele>707.986</ele>
        <time>2021-06-19T21:29:13Z</time>
      </trkpt>
      <trkpt lat="42.230094" lon="1.283717">
        <ele>707.466</ele>
        <time>2021-06-19T21:29:16Z</time>
      </trkpt>
      <trkpt lat="42.229921" lon="1.283668">
        <ele>706.279</ele>
        <time>2021-06-19T21:29:19Z</time>
      </trkpt>
      <trkpt lat="42.229861" lon="1.283640">
        <ele>705.666</ele>
        <time>2021-06-19T21:29:20Z</time>
      </trkpt>
      <trkpt lat="42.229389" lon="1.283443">
        <ele>702.286</ele>
        <time>2021-06-19T21:29:27Z</time>
      </trkpt>
      <trkpt lat="42.229241" lon="1.283379">
        <ele>701.660</ele>
        <time>2021-06-19T21:29:29Z</time>
      </trkpt>
      <trkpt lat="42.228779" lon="1.283193">
        <ele>700.026</ele>
        <time>2021-06-19T21:29:35Z</time>
      </trkpt>
      <trkpt lat="42.228232" lon="1.282965">
        <ele>698.108</ele>
        <time>2021-06-19T21:29:42Z</time>
      </trkpt>
      <trkpt lat="42.227992" lon="1.282876">
        <ele>696.635</ele>
        <time>2021-06-19T21:29:45Z</time>
      </trkpt>
      <trkpt lat="42.227573" lon="1.282870">
        <ele>694.974</ele>
        <time>2021-06-19T21:29:50Z</time>
      </trkpt>
      <trkpt lat="42.227404" lon="1.282856">
        <ele>694.490</ele>
        <time>2021-06-19T21:29:52Z</time>
      </trkpt>
      <trkpt lat="42.227157" lon="1.282795">
        <ele>694.034</ele>
        <time>2021-06-19T21:29:55Z</time>
      </trkpt>
      <trkpt lat="42.227078" lon="1.282787">
        <ele>693.368</ele>
        <time>2021-06-19T21:29:56Z</time>
      </trkpt>
      <trkpt lat="42.226942" lon="1.282856">
        <ele>691.588</ele>
        <time>2021-06-19T21:29:58Z</time>
      </trkpt>
      <trkpt lat="42.226842" lon="1.283116">
        <ele>694.311</ele>
        <time>2021-06-19T21:30:01Z</time>
      </trkpt>
      <trkpt lat="42.226740" lon="1.283764">
        <ele>691.718</ele>
        <time>2021-06-19T21:30:08Z</time>
      </trkpt>
      <trkpt lat="42.226726" lon="1.284231">
        <ele>691.679</ele>
        <time>2021-06-19T21:30:13Z</time>
      </trkpt>
      <trkpt lat="42.226759" lon="1.284416">
        <ele>690.105</ele>
        <time>2021-06-19T21:30:15Z</time>
      </trkpt>
      <trkpt lat="42.226808" lon="1.284599">
        <ele>689.225</ele>
        <time>2021-06-19T21:30:17Z</time>
      </trkpt>
      <trkpt lat="42.226953" lon="1.285045">
        <ele>690.208</ele>
        <time>2021-06-19T21:30:22Z</time>
      </trkpt>
      <trkpt lat="42.227134" lon="1.285661">
        <ele>689.254</ele>
        <time>2021-06-19T21:30:29Z</time>
      </trkpt>
      <trkpt lat="42.227165" lon="1.285742">
        <ele>689.093</ele>
        <time>2021-06-19T21:30:30Z</time>
      </trkpt>
      <trkpt lat="42.227293" lon="1.285937">
        <ele>690.099</ele>
        <time>2021-06-19T21:30:33Z</time>
      </trkpt>
      <trkpt lat="42.227450" lon="1.286040">
        <ele>690.993</ele>
        <time>2021-06-19T21:30:36Z</time>
      </trkpt>
      <trkpt lat="42.227503" lon="1.286067">
        <ele>690.817</ele>
        <time>2021-06-19T21:30:37Z</time>
      </trkpt>
      <trkpt lat="42.227888" lon="1.286327">
        <ele>689.517</ele>
        <time>2021-06-19T21:30:44Z</time>
      </trkpt>
      <trkpt lat="42.228017" lon="1.286560">
        <ele>688.480</ele>
        <time>2021-06-19T21:30:47Z</time>
      </trkpt>
      <trkpt lat="42.228075" lon="1.286851">
        <ele>687.187</ele>
        <time>2021-06-19T21:30:50Z</time>
      </trkpt>
      <trkpt lat="42.228086" lon="1.286950">
        <ele>686.754</ele>
        <time>2021-06-19T21:30:51Z</time>
      </trkpt>
      <trkpt lat="42.228124" lon="1.287344">
        <ele>686.056</ele>
        <time>2021-06-19T21:30:55Z</time>
      </trkpt>
      <trkpt lat="42.228111" lon="1.287534">
        <ele>686.111</ele>
        <time>2021-06-19T21:30:57Z</time>
      </trkpt>
      <trkpt lat="42.227979" lon="1.288276">
        <ele>685.308</ele>
        <time>2021-06-19T21:31:05Z</time>
      </trkpt>
      <trkpt lat="42.227956" lon="1.288642">
        <ele>685.262</ele>
        <time>2021-06-19T21:31:09Z</time>
      </trkpt>
      <trkpt lat="42.227963" lon="1.288733">
        <ele>685.461</ele>
        <time>2021-06-19T21:31:10Z</time>
      </trkpt>
      <trkpt lat="42.228066" lon="1.289367">
        <ele>685.027</ele>
        <time>2021-06-19T21:31:17Z</time>
      </trkpt>
      <trkpt lat="42.228084" lon="1.289959">
        <ele>683.741</ele>
        <time>2021-06-19T21:31:23Z</time>
      </trkpt>
      <trkpt lat="42.228045" lon="1.290723">
        <ele>683.615</ele>
        <time>2021-06-19T21:31:31Z</time>
      </trkpt>
      <trkpt lat="42.228032" lon="1.290817">
        <ele>683.565</ele>
        <time>2021-06-19T21:31:32Z</time>
      </trkpt>
      <trkpt lat="42.227930" lon="1.291542">
        <ele>683.858</ele>
        <time>2021-06-19T21:31:40Z</time>
      </trkpt>
      <trkpt lat="42.227826" lon="1.292108">
        <ele>681.535</ele>
        <time>2021-06-19T21:31:46Z</time>
      </trkpt>
      <trkpt lat="42.227798" lon="1.292634">
        <ele>681.613</ele>
        <time>2021-06-19T21:31:51Z</time>
      </trkpt>
      <trkpt lat="42.227812" lon="1.292916">
        <ele>681.843</ele>
        <time>2021-06-19T21:31:54Z</time>
      </trkpt>
      <trkpt lat="42.227797" lon="1.293094">
        <ele>681.507</ele>
        <time>2021-06-19T21:31:56Z</time>
      </trkpt>
      <trkpt lat="42.227765" lon="1.293264">
        <ele>681.408</ele>
        <time>2021-06-19T21:31:58Z</time>
      </trkpt>
      <trkpt lat="42.227669" lon="1.293509">
        <ele>680.718</ele>
        <time>2021-06-19T21:32:01Z</time>
      </trkpt>
      <trkpt lat="42.227626" lon="1.293591">
        <ele>680.477</ele>
        <time>2021-06-19T21:32:02Z</time>
      </trkpt>
      <trkpt lat="42.227405" lon="1.294037">
        <ele>677.673</ele>
        <time>2021-06-19T21:32:07Z</time>
      </trkpt>
      <trkpt lat="42.227357" lon="1.294122">
        <ele>677.297</ele>
        <time>2021-06-19T21:32:08Z</time>
      </trkpt>
      <trkpt lat="42.227224" lon="1.294237">
        <ele>678.221</ele>
        <time>2021-06-19T21:32:10Z</time>
      </trkpt>
      <trkpt lat="42.226979" lon="1.294281">
        <ele>676.331</ele>
        <time>2021-06-19T21:32:13Z</time>
      </trkpt>
      <trkpt lat="42.226517" lon="1.294315">
        <ele>671.854</ele>
        <time>2021-06-19T21:32:18Z</time>
      </trkpt>
      <trkpt lat="42.226126" lon="1.294437">
        <ele>668.221</ele>
        <time>2021-06-19T21:32:22Z</time>
      </trkpt>
      <trkpt lat="42.226024" lon="1.294449">
        <ele>667.654</ele>
        <time>2021-06-19T21:32:23Z</time>
      </trkpt>
      <trkpt lat="42.225516" lon="1.294469">
        <ele>665.356</ele>
        <time>2021-06-19T21:32:28Z</time>
      </trkpt>
      <trkpt lat="42.225341" lon="1.294488">
        <ele>663.811</ele>
        <time>2021-06-19T21:32:30Z</time>
      </trkpt>
      <trkpt lat="42.225268" lon="1.294528">
        <ele>663.008</ele>
        <time>2021-06-19T21:32:31Z</time>
      </trkpt>
      <trkpt lat="42.225211" lon="1.294599">
        <ele>663.152</ele>
        <time>2021-06-19T21:32:32Z</time>
      </trkpt>
      <trkpt lat="42.225174" lon="1.294686">
        <ele>663.081</ele>
        <time>2021-06-19T21:32:33Z</time>
      </trkpt>
      <trkpt lat="42.225135" lon="1.295035">
        <ele>661.697</ele>
        <time>2021-06-19T21:32:36Z</time>
      </trkpt>
      <trkpt lat="42.225094" lon="1.295818">
        <ele>660.321</ele>
        <time>2021-06-19T21:32:43Z</time>
      </trkpt>
      <trkpt lat="42.225103" lon="1.295925">
        <ele>660.425</ele>
        <time>2021-06-19T21:32:44Z</time>
      </trkpt>
      <trkpt lat="42.225122" lon="1.296029">
        <ele>660.345</ele>
        <time>2021-06-19T21:32:45Z</time>
      </trkpt>
      <trkpt lat="42.225186" lon="1.296221">
        <ele>659.458</ele>
        <time>2021-06-19T21:32:47Z</time>
      </trkpt>
      <trkpt lat="42.225418" lon="1.296835">
        <ele>659.685</ele>
        <time>2021-06-19T21:32:54Z</time>
      </trkpt>
      <trkpt lat="42.225610" lon="1.297339">
        <ele>660.716</ele>
        <time>2021-06-19T21:33:01Z</time>
      </trkpt>
      <trkpt lat="42.225810" lon="1.297904">
        <ele>661.376</ele>
        <time>2021-06-19T21:33:10Z</time>
      </trkpt>
      <trkpt lat="42.225941" lon="1.298588">
        <ele>662.413</ele>
        <time>2021-06-19T21:33:21Z</time>
      </trkpt>
      <trkpt lat="42.226044" lon="1.299159">
        <ele>662.208</ele>
        <time>2021-06-19T21:33:30Z</time>
      </trkpt>
      <trkpt lat="42.226069" lon="1.299283">
        <ele>662.448</ele>
        <time>2021-06-19T21:33:32Z</time>
      </trkpt>
      <trkpt lat="42.226102" lon="1.299465">
        <ele>663.187</ele>
        <time>2021-06-19T21:33:35Z</time>
      </trkpt>
      <trkpt lat="42.226095" lon="1.299587">
        <ele>663.123</ele>
        <time>2021-06-19T21:33:37Z</time>
      </trkpt>
      <trkpt lat="42.226000" lon="1.299730">
        <ele>662.917</ele>
        <time>2021-06-19T21:33:40Z</time>
      </trkpt>
      <trkpt lat="42.225796" lon="1.299749">
        <ele>662.721</ele>
        <time>2021-06-19T21:33:44Z</time>
      </trkpt>
      <trkpt lat="42.225432" lon="1.299702">
        <ele>662.771</ele>
        <time>2021-06-19T21:33:51Z</time>
      </trkpt>
      <trkpt lat="42.225126" lon="1.299628">
        <ele>663.064</ele>
        <time>2021-06-19T21:33:57Z</time>
      </trkpt>
      <trkpt lat="42.224871" lon="1.299558">
        <ele>663.551</ele>
        <time>2021-06-19T21:34:02Z</time>
      </trkpt>
      <trkpt lat="42.224776" lon="1.299504">
        <ele>663.786</ele>
        <time>2021-06-19T21:34:04Z</time>
      </trkpt>
      <trkpt lat="42.224683" lon="1.299430">
        <ele>663.560</ele>
        <time>2021-06-19T21:34:06Z</time>
      </trkpt>
      <trkpt lat="42.224556" lon="1.299274">
        <ele>662.826</ele>
        <time>2021-06-19T21:34:09Z</time>
      </trkpt>
      <trkpt lat="42.224436" lon="1.299102">
        <ele>663.008</ele>
        <time>2021-06-19T21:34:12Z</time>
      </trkpt>
      <trkpt lat="42.224292" lon="1.298983">
        <ele>662.785</ele>
        <time>2021-06-19T21:34:15Z</time>
      </trkpt>
      <trkpt lat="42.224068" lon="1.298964">
        <ele>660.674</ele>
        <time>2021-06-19T21:34:19Z</time>
      </trkpt>
      <trkpt lat="42.223873" lon="1.299090">
        <ele>660.810</ele>
        <time>2021-06-19T21:34:23Z</time>
      </trkpt>
      <trkpt lat="42.223775" lon="1.299334">
        <ele>663.934</ele>
        <time>2021-06-19T21:34:27Z</time>
      </trkpt>
      <trkpt lat="42.223764" lon="1.299404">
        <ele>664.168</ele>
        <time>2021-06-19T21:34:28Z</time>
      </trkpt>
      <trkpt lat="42.223750" lon="1.299473">
        <ele>664.588</ele>
        <time>2021-06-19T21:34:29Z</time>
      </trkpt>
      <trkpt lat="42.223687" lon="1.299825">
        <ele>664.921</ele>
        <time>2021-06-19T21:34:34Z</time>
      </trkpt>
      <trkpt lat="42.223596" lon="1.300473">
        <ele>664.278</ele>
        <time>2021-06-19T21:34:43Z</time>
      </trkpt>
      <trkpt lat="42.223495" lon="1.300929">
        <ele>663.666</ele>
        <time>2021-06-19T21:34:49Z</time>
      </trkpt>
      <trkpt lat="42.223360" lon="1.301462">
        <ele>661.329</ele>
        <time>2021-06-19T21:34:55Z</time>
      </trkpt>
      <trkpt lat="42.223189" lon="1.302219">
        <ele>660.121</ele>
        <time>2021-06-19T21:35:03Z</time>
      </trkpt>
      <trkpt lat="42.223145" lon="1.302587">
        <ele>662.008</ele>
        <time>2021-06-19T21:35:08Z</time>
      </trkpt>
      <trkpt lat="42.223086" lon="1.302991">
        <ele>662.593</ele>
        <time>2021-06-19T21:35:14Z</time>
      </trkpt>
      <trkpt lat="42.223086" lon="1.303129">
        <ele>662.742</ele>
        <time>2021-06-19T21:35:16Z</time>
      </trkpt>
      <trkpt lat="42.223103" lon="1.303268">
        <ele>662.978</ele>
        <time>2021-06-19T21:35:18Z</time>
      </trkpt>
      <trkpt lat="42.223128" lon="1.303627">
        <ele>662.932</ele>
        <time>2021-06-19T21:35:23Z</time>
      </trkpt>
      <trkpt lat="42.223086" lon="1.304075">
        <ele>662.586</ele>
        <time>2021-06-19T21:35:29Z</time>
      </trkpt>
      <trkpt lat="42.222916" lon="1.304832">
        <ele>661.676</ele>
        <time>2021-06-19T21:35:39Z</time>
      </trkpt>
      <trkpt lat="42.222885" lon="1.305040">
        <ele>661.449</ele>
        <time>2021-06-19T21:35:42Z</time>
      </trkpt>
      <trkpt lat="42.222864" lon="1.305240">
        <ele>661.526</ele>
        <time>2021-06-19T21:35:45Z</time>
      </trkpt>
      <trkpt lat="42.222797" lon="1.305718">
        <ele>660.827</ele>
        <time>2021-06-19T21:35:52Z</time>
      </trkpt>
      <trkpt lat="42.222780" lon="1.306277">
        <ele>659.968</ele>
        <time>2021-06-19T21:36:00Z</time>
      </trkpt>
      <trkpt lat="42.222851" lon="1.306696">
        <ele>658.514</ele>
        <time>2021-06-19T21:36:06Z</time>
      </trkpt>
      <trkpt lat="42.222874" lon="1.306763">
        <ele>658.008</ele>
        <time>2021-06-19T21:36:07Z</time>
      </trkpt>
      <trkpt lat="42.222996" lon="1.307022">
        <ele>656.439</ele>
        <time>2021-06-19T21:36:11Z</time>
      </trkpt>
      <trkpt lat="42.223075" lon="1.307258">
        <ele>655.028</ele>
        <time>2021-06-19T21:36:14Z</time>
      </trkpt>
      <trkpt lat="42.223090" lon="1.307351">
        <ele>654.394</ele>
        <time>2021-06-19T21:36:15Z</time>
      </trkpt>
      <trkpt lat="42.223072" lon="1.307658">
        <ele>653.648</ele>
        <time>2021-06-19T21:36:18Z</time>
      </trkpt>
      <trkpt lat="42.223049" lon="1.307764">
        <ele>653.272</ele>
        <time>2021-06-19T21:36:19Z</time>
      </trkpt>
      <trkpt lat="42.222913" lon="1.308437">
        <ele>650.142</ele>
        <time>2021-06-19T21:36:25Z</time>
      </trkpt>
      <trkpt lat="42.222906" lon="1.308558">
        <ele>648.585</ele>
        <time>2021-06-19T21:36:26Z</time>
      </trkpt>
      <trkpt lat="42.222929" lon="1.308806">
        <ele>645.722</ele>
        <time>2021-06-19T21:36:28Z</time>
      </trkpt>
      <trkpt lat="42.222955" lon="1.308929">
        <ele>644.451</ele>
        <time>2021-06-19T21:36:29Z</time>
      </trkpt>
      <trkpt lat="42.223001" lon="1.309187">
        <ele>644.201</ele>
        <time>2021-06-19T21:36:31Z</time>
      </trkpt>
      <trkpt lat="42.223008" lon="1.309323">
        <ele>643.911</ele>
        <time>2021-06-19T21:36:32Z</time>
      </trkpt>
      <trkpt lat="42.222961" lon="1.309882">
        <ele>642.608</ele>
        <time>2021-06-19T21:36:36Z</time>
      </trkpt>
      <trkpt lat="42.222900" lon="1.310446">
        <ele>638.942</ele>
        <time>2021-06-19T21:36:40Z</time>
      </trkpt>
      <trkpt lat="42.222826" lon="1.311083">
        <ele>636.641</ele>
        <time>2021-06-19T21:36:45Z</time>
      </trkpt>
      <trkpt lat="42.222796" lon="1.311248">
        <ele>636.457</ele>
        <time>2021-06-19T21:36:47Z</time>
      </trkpt>
      <trkpt lat="42.222761" lon="1.311372">
        <ele>636.391</ele>
        <time>2021-06-19T21:36:49Z</time>
      </trkpt>
      <trkpt lat="42.222727" lon="1.311477">
        <ele>635.735</ele>
        <time>2021-06-19T21:36:51Z</time>
      </trkpt>
      <trkpt lat="42.222616" lon="1.311833">
        <ele>634.165</ele>
        <time>2021-06-19T21:36:57Z</time>
      </trkpt>
      <trkpt lat="42.222464" lon="1.312225">
        <ele>633.298</ele>
        <time>2021-06-19T21:37:03Z</time>
      </trkpt>
      <trkpt lat="42.222442" lon="1.312264">
        <ele>633.015</ele>
        <time>2021-06-19T21:37:04Z</time>
      </trkpt>
      <trkpt lat="42.222387" lon="1.312353">
        <ele>632.476</ele>
        <time>2021-06-19T21:37:07Z</time>
      </trkpt>
      <trkpt lat="42.222244" lon="1.312502">
        <ele>631.890</ele>
        <time>2021-06-19T21:37:11Z</time>
      </trkpt>
      <trkpt lat="42.222006" lon="1.312566">
        <ele>629.019</ele>
        <time>2021-06-19T21:37:15Z</time>
      </trkpt>
      <trkpt lat="42.221849" lon="1.312575">
        <ele>627.708</ele>
        <time>2021-06-19T21:37:17Z</time>
      </trkpt>
      <trkpt lat="42.221610" lon="1.312575">
        <ele>626.154</ele>
        <time>2021-06-19T21:37:20Z</time>
      </trkpt>
      <trkpt lat="42.221053" lon="1.312606">
        <ele>623.343</ele>
        <time>2021-06-19T21:37:27Z</time>
      </trkpt>
      <trkpt lat="42.220808" lon="1.312620">
        <ele>622.689</ele>
        <time>2021-06-19T21:37:30Z</time>
      </trkpt>
      <trkpt lat="42.220310" lon="1.312650">
        <ele>619.613</ele>
        <time>2021-06-19T21:37:36Z</time>
      </trkpt>
      <trkpt lat="42.220233" lon="1.312688">
        <ele>619.347</ele>
        <time>2021-06-19T21:37:37Z</time>
      </trkpt>
      <trkpt lat="42.220017" lon="1.312905">
        <ele>617.677</ele>
        <time>2021-06-19T21:37:40Z</time>
      </trkpt>
      <trkpt lat="42.219947" lon="1.312996">
        <ele>617.190</ele>
        <time>2021-06-19T21:37:41Z</time>
      </trkpt>
      <trkpt lat="42.219797" lon="1.313175">
        <ele>615.227</ele>
        <time>2021-06-19T21:37:43Z</time>
      </trkpt>
      <trkpt lat="42.219709" lon="1.313244">
        <ele>613.958</ele>
        <time>2021-06-19T21:37:44Z</time>
      </trkpt>
      <trkpt lat="42.219321" lon="1.313436">
        <ele>610.252</ele>
        <time>2021-06-19T21:37:48Z</time>
      </trkpt>
      <trkpt lat="42.219223" lon="1.313483">
        <ele>609.217</ele>
        <time>2021-06-19T21:37:49Z</time>
      </trkpt>
      <trkpt lat="42.218722" lon="1.313688">
        <ele>607.308</ele>
        <time>2021-06-19T21:37:54Z</time>
      </trkpt>
      <trkpt lat="42.218614" lon="1.313699">
        <ele>607.162</ele>
        <time>2021-06-19T21:37:55Z</time>
      </trkpt>
      <trkpt lat="42.218396" lon="1.313657">
        <ele>604.061</ele>
        <time>2021-06-19T21:37:57Z</time>
      </trkpt>
      <trkpt lat="42.218292" lon="1.313609">
        <ele>602.397</ele>
        <time>2021-06-19T21:37:58Z</time>
      </trkpt>
      <trkpt lat="42.218194" lon="1.313561">
        <ele>600.971</ele>
        <time>2021-06-19T21:37:59Z</time>
      </trkpt>
      <trkpt lat="42.218096" lon="1.313525">
        <ele>598.795</ele>
        <time>2021-06-19T21:38:00Z</time>
      </trkpt>
      <trkpt lat="42.217900" lon="1.313505">
        <ele>596.415</ele>
        <time>2021-06-19T21:38:02Z</time>
      </trkpt>
      <trkpt lat="42.217650" lon="1.313624">
        <ele>595.288</ele>
        <time>2021-06-19T21:38:05Z</time>
      </trkpt>
      <trkpt lat="42.217559" lon="1.313841">
        <ele>593.345</ele>
        <time>2021-06-19T21:38:07Z</time>
      </trkpt>
      <trkpt lat="42.217526" lon="1.314082">
        <ele>593.459</ele>
        <time>2021-06-19T21:38:09Z</time>
      </trkpt>
      <trkpt lat="42.217503" lon="1.314288">
        <ele>593.503</ele>
        <time>2021-06-19T21:38:11Z</time>
      </trkpt>
      <trkpt lat="42.217486" lon="1.314495">
        <ele>592.723</ele>
        <time>2021-06-19T21:38:14Z</time>
      </trkpt>
      <trkpt lat="42.217480" lon="1.314553">
        <ele>592.208</ele>
        <time>2021-06-19T21:38:17Z</time>
      </trkpt>
      <trkpt lat="42.217480" lon="1.314552">
        <ele>592.282</ele>
        <time>2021-06-19T21:38:18Z</time>
      </trkpt>
      <trkpt lat="42.217482" lon="1.314605">
        <ele>591.641</ele>
        <time>2021-06-19T21:38:47Z</time>
      </trkpt>
      <trkpt lat="42.217477" lon="1.314686">
        <ele>590.827</ele>
        <time>2021-06-19T21:38:49Z</time>
      </trkpt>
      <trkpt lat="42.217469" lon="1.314935">
        <ele>590.711</ele>
        <time>2021-06-19T21:38:53Z</time>
      </trkpt>
      <trkpt lat="42.217464" lon="1.315073">
        <ele>590.365</ele>
        <time>2021-06-19T21:38:55Z</time>
      </trkpt>
      <trkpt lat="42.217449" lon="1.315300">
        <ele>588.915</ele>
        <time>2021-06-19T21:38:58Z</time>
      </trkpt>
      <trkpt lat="42.217416" lon="1.315626">
        <ele>587.568</ele>
        <time>2021-06-19T21:39:02Z</time>
      </trkpt>
      <trkpt lat="42.217398" lon="1.315937">
        <ele>588.595</ele>
        <time>2021-06-19T21:39:06Z</time>
      </trkpt>
      <trkpt lat="42.217388" lon="1.316136">
        <ele>589.919</ele>
        <time>2021-06-19T21:39:09Z</time>
      </trkpt>
      <trkpt lat="42.217355" lon="1.316569">
        <ele>589.509</ele>
        <time>2021-06-19T21:39:16Z</time>
      </trkpt>
      <trkpt lat="42.217344" lon="1.316639">
        <ele>589.119</ele>
        <time>2021-06-19T21:39:17Z</time>
      </trkpt>
      <trkpt lat="42.217235" lon="1.317112">
        <ele>588.108</ele>
        <time>2021-06-19T21:39:23Z</time>
      </trkpt>
      <trkpt lat="42.217210" lon="1.317357">
        <ele>587.778</ele>
        <time>2021-06-19T21:39:26Z</time>
      </trkpt>
      <trkpt lat="42.217222" lon="1.317434">
        <ele>587.277</ele>
        <time>2021-06-19T21:39:27Z</time>
      </trkpt>
      <trkpt lat="42.217323" lon="1.317588">
        <ele>589.153</ele>
        <time>2021-06-19T21:39:30Z</time>
      </trkpt>
      <trkpt lat="42.217460" lon="1.317638">
        <ele>590.517</ele>
        <time>2021-06-19T21:39:33Z</time>
      </trkpt>
      <trkpt lat="42.217551" lon="1.317659">
        <ele>590.931</ele>
        <time>2021-06-19T21:39:35Z</time>
      </trkpt>
      <trkpt lat="42.217940" lon="1.317736">
        <ele>589.871</ele>
        <time>2021-06-19T21:39:43Z</time>
      </trkpt>
      <trkpt lat="42.218098" lon="1.317899">
        <ele>589.244</ele>
        <time>2021-06-19T21:39:47Z</time>
      </trkpt>
      <trkpt lat="42.218147" lon="1.318102">
        <ele>590.061</ele>
        <time>2021-06-19T21:39:50Z</time>
      </trkpt>
      <trkpt lat="42.218159" lon="1.318173">
        <ele>590.462</ele>
        <time>2021-06-19T21:39:51Z</time>
      </trkpt>
      <trkpt lat="42.218241" lon="1.318582">
        <ele>590.583</ele>
        <time>2021-06-19T21:39:57Z</time>
      </trkpt>
      <trkpt lat="42.218253" lon="1.318647">
        <ele>590.611</ele>
        <time>2021-06-19T21:39:58Z</time>
      </trkpt>
      <trkpt lat="42.218307" lon="1.318952">
        <ele>592.808</ele>
        <time>2021-06-19T21:40:04Z</time>
      </trkpt>
      <trkpt lat="42.218270" lon="1.319179">
        <ele>593.943</ele>
        <time>2021-06-19T21:40:10Z</time>
      </trkpt>
      <trkpt lat="42.218166" lon="1.319478">
        <ele>594.362</ele>
        <time>2021-06-19T21:40:19Z</time>
      </trkpt>
      <trkpt lat="42.218147" lon="1.319509">
        <ele>594.428</ele>
        <time>2021-06-19T21:40:20Z</time>
      </trkpt>
      <trkpt lat="42.218085" lon="1.319610">
        <ele>594.542</ele>
        <time>2021-06-19T21:40:23Z</time>
      </trkpt>
      <trkpt lat="42.217989" lon="1.319747">
        <ele>594.616</ele>
        <time>2021-06-19T21:40:27Z</time>
      </trkpt>
      <trkpt lat="42.217938" lon="1.319825">
        <ele>594.796</ele>
        <time>2021-06-19T21:40:30Z</time>
      </trkpt>
      <trkpt lat="42.217935" lon="1.319831">
        <ele>594.769</ele>
        <time>2021-06-19T21:40:31Z</time>
      </trkpt>
      <trkpt lat="42.217935" lon="1.319831">
        <ele>594.746</ele>
        <time>2021-06-19T21:40:32Z</time>
      </trkpt>
      <trkpt lat="42.217924" lon="1.319863">
        <ele>594.686</ele>
        <time>2021-06-19T21:40:48Z</time>
      </trkpt>
      <trkpt lat="42.217915" lon="1.319883">
        <ele>594.760</ele>
        <time>2021-06-19T21:40:49Z</time>
      </trkpt>
      <trkpt lat="42.217903" lon="1.319903">
        <ele>594.726</ele>
        <time>2021-06-19T21:40:50Z</time>
      </trkpt>
      <trkpt lat="42.217845" lon="1.320031">
        <ele>594.908</ele>
        <time>2021-06-19T21:40:54Z</time>
      </trkpt>
      <trkpt lat="42.217830" lon="1.320071">
        <ele>594.865</ele>
        <time>2021-06-19T21:40:55Z</time>
      </trkpt>
      <trkpt lat="42.217707" lon="1.320344">
        <ele>594.384</ele>
        <time>2021-06-19T21:41:01Z</time>
      </trkpt>
      <trkpt lat="42.217683" lon="1.320392">
        <ele>594.210</ele>
        <time>2021-06-19T21:41:02Z</time>
      </trkpt>
      <trkpt lat="42.217657" lon="1.320440">
        <ele>594.194</ele>
        <time>2021-06-19T21:41:03Z</time>
      </trkpt>
      <trkpt lat="42.217543" lon="1.320621">
        <ele>594.328</ele>
        <time>2021-06-19T21:41:07Z</time>
      </trkpt>
      <trkpt lat="42.217425" lon="1.320794">
        <ele>594.758</ele>
        <time>2021-06-19T21:41:11Z</time>
      </trkpt>
      <trkpt lat="42.217334" lon="1.320919">
        <ele>594.931</ele>
        <time>2021-06-19T21:41:14Z</time>
      </trkpt>
      <trkpt lat="42.217101" lon="1.321204">
        <ele>595.288</ele>
        <time>2021-06-19T21:41:21Z</time>
      </trkpt>
      <trkpt lat="42.216773" lon="1.321603">
        <ele>595.219</ele>
        <time>2021-06-19T21:41:30Z</time>
      </trkpt>
      <trkpt lat="42.216696" lon="1.321690">
        <ele>595.509</ele>
        <time>2021-06-19T21:41:32Z</time>
      </trkpt>
      <trkpt lat="42.216278" lon="1.322208">
        <ele>594.919</ele>
        <time>2021-06-19T21:41:43Z</time>
      </trkpt>
      <trkpt lat="42.215900" lon="1.322764">
        <ele>594.608</ele>
        <time>2021-06-19T21:41:53Z</time>
      </trkpt>
      <trkpt lat="42.215863" lon="1.322818">
        <ele>594.438</ele>
        <time>2021-06-19T21:41:54Z</time>
      </trkpt>
      <trkpt lat="42.215622" lon="1.323163">
        <ele>592.827</ele>
        <time>2021-06-19T21:42:00Z</time>
      </trkpt>
      <trkpt lat="42.215162" lon="1.323658">
        <ele>590.773</ele>
        <time>2021-06-19T21:42:09Z</time>
      </trkpt>
      <trkpt lat="42.215101" lon="1.323695">
        <ele>590.477</ele>
        <time>2021-06-19T21:42:10Z</time>
      </trkpt>
      <trkpt lat="42.214818" lon="1.323748">
        <ele>589.081</ele>
        <time>2021-06-19T21:42:14Z</time>
      </trkpt>
      <trkpt lat="42.214664" lon="1.323735">
        <ele>588.691</ele>
        <time>2021-06-19T21:42:16Z</time>
      </trkpt>
      <trkpt lat="42.214584" lon="1.323739">
        <ele>588.424</ele>
        <time>2021-06-19T21:42:17Z</time>
      </trkpt>
      <trkpt lat="42.214505" lon="1.323758">
        <ele>588.011</ele>
        <time>2021-06-19T21:42:18Z</time>
      </trkpt>
      <trkpt lat="42.214271" lon="1.323864">
        <ele>586.928</ele>
        <time>2021-06-19T21:42:21Z</time>
      </trkpt>
      <trkpt lat="42.214129" lon="1.323965">
        <ele>586.289</ele>
        <time>2021-06-19T21:42:23Z</time>
      </trkpt>
      <trkpt lat="42.214066" lon="1.324025">
        <ele>585.717</ele>
        <time>2021-06-19T21:42:24Z</time>
      </trkpt>
      <trkpt lat="42.213910" lon="1.324229">
        <ele>584.508</ele>
        <time>2021-06-19T21:42:27Z</time>
      </trkpt>
      <trkpt lat="42.213666" lon="1.324663">
        <ele>582.819</ele>
        <time>2021-06-19T21:42:33Z</time>
      </trkpt>
      <trkpt lat="42.213469" lon="1.324963">
        <ele>581.698</ele>
        <time>2021-06-19T21:42:38Z</time>
      </trkpt>
      <trkpt lat="42.213377" lon="1.325087">
        <ele>581.254</ele>
        <time>2021-06-19T21:42:40Z</time>
      </trkpt>
      <trkpt lat="42.213235" lon="1.325309">
        <ele>580.268</ele>
        <time>2021-06-19T21:42:43Z</time>
      </trkpt>
      <trkpt lat="42.212925" lon="1.325725">
        <ele>576.822</ele>
        <time>2021-06-19T21:42:49Z</time>
      </trkpt>
      <trkpt lat="42.212774" lon="1.325934">
        <ele>575.012</ele>
        <time>2021-06-19T21:42:53Z</time>
      </trkpt>
      <trkpt lat="42.212674" lon="1.326056">
        <ele>574.365</ele>
        <time>2021-06-19T21:42:55Z</time>
      </trkpt>
      <trkpt lat="42.212366" lon="1.326390">
        <ele>570.532</ele>
        <time>2021-06-19T21:43:00Z</time>
      </trkpt>
      <trkpt lat="42.212152" lon="1.326589">
        <ele>569.033</ele>
        <time>2021-06-19T21:43:03Z</time>
      </trkpt>
      <trkpt lat="42.211949" lon="1.326790">
        <ele>567.123</ele>
        <time>2021-06-19T21:43:06Z</time>
      </trkpt>
      <trkpt lat="42.211737" lon="1.327034">
        <ele>564.915</ele>
        <time>2021-06-19T21:43:10Z</time>
      </trkpt>
      <trkpt lat="42.211668" lon="1.327171">
        <ele>564.208</ele>
        <time>2021-06-19T21:43:12Z</time>
      </trkpt>
      <trkpt lat="42.211587" lon="1.327317">
        <ele>563.180</ele>
        <time>2021-06-19T21:43:14Z</time>
      </trkpt>
      <trkpt lat="42.211545" lon="1.327395">
        <ele>562.589</ele>
        <time>2021-06-19T21:43:15Z</time>
      </trkpt>
      <trkpt lat="42.211504" lon="1.327470">
        <ele>561.955</ele>
        <time>2021-06-19T21:43:16Z</time>
      </trkpt>
      <trkpt lat="42.211467" lon="1.327543">
        <ele>561.469</ele>
        <time>2021-06-19T21:43:17Z</time>
      </trkpt>
      <trkpt lat="42.211435" lon="1.327610">
        <ele>560.933</ele>
        <time>2021-06-19T21:43:18Z</time>
      </trkpt>
      <trkpt lat="42.211410" lon="1.327670">
        <ele>560.573</ele>
        <time>2021-06-19T21:43:19Z</time>
      </trkpt>
      <trkpt lat="42.211388" lon="1.327716">
        <ele>560.236</ele>
        <time>2021-06-19T21:43:20Z</time>
      </trkpt>
      <trkpt lat="42.211352" lon="1.327752">
        <ele>559.813</ele>
        <time>2021-06-19T21:43:21Z</time>
      </trkpt>
      <trkpt lat="42.211322" lon="1.327786">
        <ele>559.541</ele>
        <time>2021-06-19T21:43:22Z</time>
      </trkpt>
      <trkpt lat="42.211314" lon="1.327808">
        <ele>559.481</ele>
        <time>2021-06-19T21:43:23Z</time>
      </trkpt>
      <trkpt lat="42.211306" lon="1.327817">
        <ele>559.309</ele>
        <time>2021-06-19T21:43:24Z</time>
      </trkpt>
      <trkpt lat="42.211302" lon="1.327819">
        <ele>559.308</ele>
        <time>2021-06-19T21:43:25Z</time>
      </trkpt>
      <trkpt lat="42.211320" lon="1.327887">
        <ele>559.331</ele>
        <time>2021-06-19T21:45:37Z</time>
      </trkpt>
      <trkpt lat="42.211351" lon="1.327921">
        <ele>559.480</ele>
        <time>2021-06-19T21:45:39Z</time>
      </trkpt>
      <trkpt lat="42.211395" lon="1.327984">
        <ele>559.316</ele>
        <time>2021-06-19T21:45:41Z</time>
      </trkpt>
      <trkpt lat="42.211454" lon="1.328061">
        <ele>559.230</ele>
        <time>2021-06-19T21:45:43Z</time>
      </trkpt>
      <trkpt lat="42.211545" lon="1.328289">
        <ele>559.164</ele>
        <time>2021-06-19T21:45:48Z</time>
      </trkpt>
      <trkpt lat="42.211523" lon="1.328452">
        <ele>558.654</ele>
        <time>2021-06-19T21:45:51Z</time>
      </trkpt>
      <trkpt lat="42.211488" lon="1.328630">
        <ele>558.047</ele>
        <time>2021-06-19T21:45:54Z</time>
      </trkpt>
      <trkpt lat="42.211424" lon="1.328949">
        <ele>556.874</ele>
        <time>2021-06-19T21:45:59Z</time>
      </trkpt>
      <trkpt lat="42.211414" lon="1.329007">
        <ele>556.477</ele>
        <time>2021-06-19T21:46:00Z</time>
      </trkpt>
      <trkpt lat="42.211382" lon="1.329193">
        <ele>554.761</ele>
        <time>2021-06-19T21:46:04Z</time>
      </trkpt>
      <trkpt lat="42.211377" lon="1.329220">
        <ele>554.327</ele>
        <time>2021-06-19T21:46:05Z</time>
      </trkpt>
      <trkpt lat="42.211380" lon="1.329297">
        <ele>553.508</ele>
        <time>2021-06-19T21:46:09Z</time>
      </trkpt>
      <trkpt lat="42.211384" lon="1.329305">
        <ele>553.434</ele>
        <time>2021-06-19T21:46:10Z</time>
      </trkpt>
      <trkpt lat="42.211384" lon="1.329306">
        <ele>553.493</ele>
        <time>2021-06-19T21:46:11Z</time>
      </trkpt>
      <trkpt lat="42.211380" lon="1.329193">
        <ele>554.699</ele>
        <time>2021-06-19T21:53:33Z</time>
      </trkpt>
      <trkpt lat="42.211420" lon="1.329145">
        <ele>555.543</ele>
        <time>2021-06-19T21:53:35Z</time>
      </trkpt>
      <trkpt lat="42.211461" lon="1.328989">
        <ele>556.977</ele>
        <time>2021-06-19T21:53:40Z</time>
      </trkpt>
      <trkpt lat="42.211480" lon="1.328784">
        <ele>557.867</ele>
        <time>2021-06-19T21:53:45Z</time>
      </trkpt>
      <trkpt lat="42.211539" lon="1.328485">
        <ele>558.510</ele>
        <time>2021-06-19T21:53:52Z</time>
      </trkpt>
      <trkpt lat="42.211613" lon="1.328214">
        <ele>559.327</ele>
        <time>2021-06-19T21:54:00Z</time>
      </trkpt>
      <trkpt lat="42.211617" lon="1.328211">
        <ele>559.465</ele>
        <time>2021-06-19T21:54:03Z</time>
      </trkpt>
      <trkpt lat="42.211598" lon="1.328157">
        <ele>559.568</ele>
        <time>2021-06-19T21:56:45Z</time>
      </trkpt>
      <trkpt lat="42.211487" lon="1.328032">
        <ele>559.414</ele>
        <time>2021-06-19T21:56:51Z</time>
      </trkpt>
      <trkpt lat="42.211344" lon="1.327876">
        <ele>559.408</ele>
        <time>2021-06-19T21:56:58Z</time>
      </trkpt>
      <trkpt lat="42.211203" lon="1.327732">
        <ele>558.753</ele>
        <time>2021-06-19T21:57:04Z</time>
      </trkpt>
      <trkpt lat="42.211046" lon="1.327557">
        <ele>557.872</ele>
        <time>2021-06-19T21:57:10Z</time>
      </trkpt>
      <trkpt lat="42.210979" lon="1.327485">
        <ele>557.678</ele>
        <time>2021-06-19T21:57:12Z</time>
      </trkpt>
      <trkpt lat="42.210845" lon="1.327320">
        <ele>557.152</ele>
        <time>2021-06-19T21:57:16Z</time>
      </trkpt>
      <trkpt lat="42.210621" lon="1.327084">
        <ele>556.576</ele>
        <time>2021-06-19T21:57:22Z</time>
      </trkpt>
      <trkpt lat="42.210508" lon="1.326957">
        <ele>555.576</ele>
        <time>2021-06-19T21:57:25Z</time>
      </trkpt>
      <trkpt lat="42.210439" lon="1.326858">
        <ele>554.769</ele>
        <time>2021-06-19T21:57:27Z</time>
      </trkpt>
      <trkpt lat="42.210376" lon="1.326761">
        <ele>554.356</ele>
        <time>2021-06-19T21:57:29Z</time>
      </trkpt>
      <trkpt lat="42.210254" lon="1.326564">
        <ele>552.941</ele>
        <time>2021-06-19T21:57:33Z</time>
      </trkpt>
      <trkpt lat="42.209983" lon="1.326272">
        <ele>551.081</ele>
        <time>2021-06-19T21:57:40Z</time>
      </trkpt>
      <trkpt lat="42.209808" lon="1.326181">
        <ele>553.909</ele>
        <time>2021-06-19T21:57:44Z</time>
      </trkpt>
      <trkpt lat="42.209717" lon="1.326150">
        <ele>555.008</ele>
        <time>2021-06-19T21:57:46Z</time>
      </trkpt>
      <trkpt lat="42.209591" lon="1.326089">
        <ele>556.281</ele>
        <time>2021-06-19T21:57:50Z</time>
      </trkpt>
      <trkpt lat="42.209620" lon="1.326059">
        <ele>556.610</ele>
        <time>2021-06-19T21:57:54Z</time>
      </trkpt>
      <trkpt lat="42.209661" lon="1.326050">
        <ele>556.836</ele>
        <time>2021-06-19T21:57:57Z</time>
      </trkpt>
      <trkpt lat="42.209663" lon="1.326045">
        <ele>556.980</ele>
        <time>2021-06-19T21:57:59Z</time>
      </trkpt>
      <trkpt lat="42.209668" lon="1.326073">
        <ele>556.594</ele>
        <time>2021-06-19T21:59:03Z</time>
      </trkpt>
      <trkpt lat="42.209622" lon="1.326088">
        <ele>556.334</ele>
        <time>2021-06-19T21:59:05Z</time>
      </trkpt>
      <trkpt lat="42.209462" lon="1.326073">
        <ele>556.337</ele>
        <time>2021-06-19T21:59:10Z</time>
      </trkpt>
      <trkpt lat="42.209419" lon="1.326076">
        <ele>556.474</ele>
        <time>2021-06-19T21:59:11Z</time>
      </trkpt>
      <trkpt lat="42.209375" lon="1.326085">
        <ele>556.543</ele>
        <time>2021-06-19T21:59:12Z</time>
      </trkpt>
      <trkpt lat="42.209334" lon="1.326095">
        <ele>556.564</ele>
        <time>2021-06-19T21:59:13Z</time>
      </trkpt>
      <trkpt lat="42.209222" lon="1.326131">
        <ele>556.710</ele>
        <time>2021-06-19T21:59:16Z</time>
      </trkpt>
      <trkpt lat="42.209011" lon="1.326227">
        <ele>557.908</ele>
        <time>2021-06-19T21:59:22Z</time>
      </trkpt>
      <trkpt lat="42.208973" lon="1.326247">
        <ele>557.981</ele>
        <time>2021-06-19T21:59:23Z</time>
      </trkpt>
      <trkpt lat="42.208837" lon="1.326339">
        <ele>557.240</ele>
        <time>2021-06-19T21:59:26Z</time>
      </trkpt>
      <trkpt lat="42.208552" lon="1.326526">
        <ele>556.666</ele>
        <time>2021-06-19T21:59:32Z</time>
      </trkpt>
      <trkpt lat="42.208504" lon="1.326557">
        <ele>556.350</ele>
        <time>2021-06-19T21:59:33Z</time>
      </trkpt>
      <trkpt lat="42.208205" lon="1.326767">
        <ele>554.084</ele>
        <time>2021-06-19T21:59:39Z</time>
      </trkpt>
      <trkpt lat="42.208090" lon="1.326831">
        <ele>553.054</ele>
        <time>2021-06-19T21:59:41Z</time>
      </trkpt>
      <trkpt lat="42.207961" lon="1.326875">
        <ele>552.167</ele>
        <time>2021-06-19T21:59:43Z</time>
      </trkpt>
      <trkpt lat="42.207893" lon="1.326890">
        <ele>551.774</ele>
        <time>2021-06-19T21:59:44Z</time>
      </trkpt>
      <trkpt lat="42.207683" lon="1.326899">
        <ele>550.657</ele>
        <time>2021-06-19T21:59:47Z</time>
      </trkpt>
      <trkpt lat="42.207541" lon="1.326887">
        <ele>550.000</ele>
        <time>2021-06-19T21:59:49Z</time>
      </trkpt>
      <trkpt lat="42.207324" lon="1.326885">
        <ele>550.020</ele>
        <time>2021-06-19T21:59:52Z</time>
      </trkpt>
      <trkpt lat="42.207111" lon="1.326939">
        <ele>549.108</ele>
        <time>2021-06-19T21:59:55Z</time>
      </trkpt>
      <trkpt lat="42.206833" lon="1.327089">
        <ele>547.312</ele>
        <time>2021-06-19T21:59:59Z</time>
      </trkpt>
      <trkpt lat="42.206766" lon="1.327140">
        <ele>546.871</ele>
        <time>2021-06-19T22:00:00Z</time>
      </trkpt>
      <trkpt lat="42.206291" lon="1.327566">
        <ele>543.927</ele>
        <time>2021-06-19T22:00:07Z</time>
      </trkpt>
      <trkpt lat="42.205898" lon="1.327793">
        <ele>542.111</ele>
        <time>2021-06-19T22:00:12Z</time>
      </trkpt>
      <trkpt lat="42.205644" lon="1.327820">
        <ele>540.945</ele>
        <time>2021-06-19T22:00:15Z</time>
      </trkpt>
      <trkpt lat="42.205562" lon="1.327817">
        <ele>540.675</ele>
        <time>2021-06-19T22:00:16Z</time>
      </trkpt>
      <trkpt lat="42.205024" lon="1.327741">
        <ele>539.328</ele>
        <time>2021-06-19T22:00:23Z</time>
      </trkpt>
      <trkpt lat="42.204870" lon="1.327712">
        <ele>539.095</ele>
        <time>2021-06-19T22:00:25Z</time>
      </trkpt>
      <trkpt lat="42.204268" lon="1.327623">
        <ele>536.698</ele>
        <time>2021-06-19T22:00:33Z</time>
      </trkpt>
      <trkpt lat="42.204158" lon="1.327593">
        <ele>536.615</ele>
        <time>2021-06-19T22:00:35Z</time>
      </trkpt>
      <trkpt lat="42.204119" lon="1.327584">
        <ele>536.426</ele>
        <time>2021-06-19T22:00:36Z</time>
      </trkpt>
      <trkpt lat="42.204058" lon="1.327571">
        <ele>536.108</ele>
        <time>2021-06-19T22:00:39Z</time>
      </trkpt>
      <trkpt lat="42.204057" lon="1.327570">
        <ele>536.126</ele>
        <time>2021-06-19T22:00:40Z</time>
      </trkpt>
      <trkpt lat="42.204024" lon="1.327582">
        <ele>535.795</ele>
        <time>2021-06-19T22:02:31Z</time>
      </trkpt>
      <trkpt lat="42.203978" lon="1.327578">
        <ele>535.421</ele>
        <time>2021-06-19T22:02:33Z</time>
      </trkpt>
      <trkpt lat="42.203783" lon="1.327547">
        <ele>535.435</ele>
        <time>2021-06-19T22:02:38Z</time>
      </trkpt>
      <trkpt lat="42.203737" lon="1.327546">
        <ele>535.799</ele>
        <time>2021-06-19T22:02:39Z</time>
      </trkpt>
      <trkpt lat="42.203492" lon="1.327513">
        <ele>536.589</ele>
        <time>2021-06-19T22:02:44Z</time>
      </trkpt>
      <trkpt lat="42.203080" lon="1.327449">
        <ele>536.482</ele>
        <time>2021-06-19T22:02:51Z</time>
      </trkpt>
      <trkpt lat="42.202472" lon="1.327373">
        <ele>535.769</ele>
        <time>2021-06-19T22:03:00Z</time>
      </trkpt>
      <trkpt lat="42.201890" lon="1.327316">
        <ele>532.745</ele>
        <time>2021-06-19T22:03:08Z</time>
      </trkpt>
      <trkpt lat="42.201669" lon="1.327296">
        <ele>531.547</ele>
        <time>2021-06-19T22:03:11Z</time>
      </trkpt>
      <trkpt lat="42.201077" lon="1.327251">
        <ele>532.511</ele>
        <time>2021-06-19T22:03:19Z</time>
      </trkpt>
      <trkpt lat="42.200855" lon="1.327235">
        <ele>531.908</ele>
        <time>2021-06-19T22:03:22Z</time>
      </trkpt>
      <trkpt lat="42.200488" lon="1.327214">
        <ele>530.261</ele>
        <time>2021-06-19T22:03:27Z</time>
      </trkpt>
      <trkpt lat="42.199890" lon="1.327196">
        <ele>530.140</ele>
        <time>2021-06-19T22:03:35Z</time>
      </trkpt>
      <trkpt lat="42.199741" lon="1.327196">
        <ele>530.176</ele>
        <time>2021-06-19T22:03:37Z</time>
      </trkpt>
      <trkpt lat="42.199518" lon="1.327202">
        <ele>529.210</ele>
        <time>2021-06-19T22:03:40Z</time>
      </trkpt>
      <trkpt lat="42.198927" lon="1.327255">
        <ele>527.644</ele>
        <time>2021-06-19T22:03:48Z</time>
      </trkpt>
      <trkpt lat="42.198337" lon="1.327362">
        <ele>530.514</ele>
        <time>2021-06-19T22:03:56Z</time>
      </trkpt>
      <trkpt lat="42.198192" lon="1.327398">
        <ele>530.017</ele>
        <time>2021-06-19T22:03:58Z</time>
      </trkpt>
      <trkpt lat="42.197628" lon="1.327570">
        <ele>527.714</ele>
        <time>2021-06-19T22:04:06Z</time>
      </trkpt>
      <trkpt lat="42.197493" lon="1.327620">
        <ele>527.747</ele>
        <time>2021-06-19T22:04:08Z</time>
      </trkpt>
      <trkpt lat="42.197010" lon="1.327830">
        <ele>524.229</ele>
        <time>2021-06-19T22:04:16Z</time>
      </trkpt>
      <trkpt lat="42.196574" lon="1.328052">
        <ele>526.321</ele>
        <time>2021-06-19T22:04:24Z</time>
      </trkpt>
      <trkpt lat="42.196420" lon="1.328144">
        <ele>526.508</ele>
        <time>2021-06-19T22:04:27Z</time>
      </trkpt>
      <trkpt lat="42.195933" lon="1.328454">
        <ele>527.891</ele>
        <time>2021-06-19T22:04:37Z</time>
      </trkpt>
      <trkpt lat="42.195842" lon="1.328516">
        <ele>528.330</ele>
        <time>2021-06-19T22:04:39Z</time>
      </trkpt>
      <trkpt lat="42.195398" lon="1.328816">
        <ele>530.446</ele>
        <time>2021-06-19T22:04:49Z</time>
      </trkpt>
      <trkpt lat="42.195224" lon="1.328930">
        <ele>530.730</ele>
        <time>2021-06-19T22:04:53Z</time>
      </trkpt>
      <trkpt lat="42.194966" lon="1.329105">
        <ele>531.364</ele>
        <time>2021-06-19T22:04:59Z</time>
      </trkpt>
      <trkpt lat="42.194604" lon="1.329373">
        <ele>530.514</ele>
        <time>2021-06-19T22:05:08Z</time>
      </trkpt>
      <trkpt lat="42.194440" lon="1.329483">
        <ele>529.567</ele>
        <time>2021-06-19T22:05:12Z</time>
      </trkpt>
      <trkpt lat="42.194174" lon="1.329669">
        <ele>530.054</ele>
        <time>2021-06-19T22:05:19Z</time>
      </trkpt>
      <trkpt lat="42.193714" lon="1.329986">
        <ele>533.747</ele>
        <time>2021-06-19T22:05:31Z</time>
      </trkpt>
      <trkpt lat="42.193399" lon="1.330191">
        <ele>534.329</ele>
        <time>2021-06-19T22:05:39Z</time>
      </trkpt>
      <trkpt lat="42.193359" lon="1.330217">
        <ele>534.621</ele>
        <time>2021-06-19T22:05:40Z</time>
      </trkpt>
      <trkpt lat="42.192864" lon="1.330510">
        <ele>535.308</ele>
        <time>2021-06-19T22:05:52Z</time>
      </trkpt>
      <trkpt lat="42.192778" lon="1.330546">
        <ele>535.121</ele>
        <time>2021-06-19T22:05:54Z</time>
      </trkpt>
      <trkpt lat="42.192432" lon="1.330614">
        <ele>535.930</ele>
        <time>2021-06-19T22:06:02Z</time>
      </trkpt>
      <trkpt lat="42.192308" lon="1.330609">
        <ele>535.966</ele>
        <time>2021-06-19T22:06:05Z</time>
      </trkpt>
      <trkpt lat="42.192067" lon="1.330541">
        <ele>536.160</ele>
        <time>2021-06-19T22:06:11Z</time>
      </trkpt>
      <trkpt lat="42.191749" lon="1.330354">
        <ele>536.794</ele>
        <time>2021-06-19T22:06:20Z</time>
      </trkpt>
      <trkpt lat="42.191377" lon="1.330075">
        <ele>538.144</ele>
        <time>2021-06-19T22:06:32Z</time>
      </trkpt>
      <trkpt lat="42.191043" lon="1.329871">
        <ele>539.477</ele>
        <time>2021-06-19T22:06:42Z</time>
      </trkpt>
      <trkpt lat="42.190740" lon="1.329792">
        <ele>538.994</ele>
        <time>2021-06-19T22:06:50Z</time>
      </trkpt>
      <trkpt lat="42.190469" lon="1.329810">
        <ele>540.917</ele>
        <time>2021-06-19T22:06:56Z</time>
      </trkpt>
      <trkpt lat="42.190127" lon="1.329953">
        <ele>540.387</ele>
        <time>2021-06-19T22:07:03Z</time>
      </trkpt>
      <trkpt lat="42.189825" lon="1.330215">
        <ele>538.215</ele>
        <time>2021-06-19T22:07:10Z</time>
      </trkpt>
      <trkpt lat="42.189566" lon="1.330520">
        <ele>534.008</ele>
        <time>2021-06-19T22:07:16Z</time>
      </trkpt>
      <trkpt lat="42.189103" lon="1.331025">
        <ele>532.518</ele>
        <time>2021-06-19T22:07:25Z</time>
      </trkpt>
      <trkpt lat="42.188783" lon="1.331235">
        <ele>532.177</ele>
        <time>2021-06-19T22:07:30Z</time>
      </trkpt>
      <trkpt lat="42.188442" lon="1.331307">
        <ele>531.233</ele>
        <time>2021-06-19T22:07:35Z</time>
      </trkpt>
      <trkpt lat="42.188254" lon="1.331284">
        <ele>531.477</ele>
        <time>2021-06-19T22:07:38Z</time>
      </trkpt>
      <trkpt lat="42.188142" lon="1.331255">
        <ele>531.611</ele>
        <time>2021-06-19T22:07:40Z</time>
      </trkpt>
      <trkpt lat="42.187795" lon="1.331128">
        <ele>530.941</ele>
        <time>2021-06-19T22:07:47Z</time>
      </trkpt>
      <trkpt lat="42.187334" lon="1.330940">
        <ele>532.254</ele>
        <time>2021-06-19T22:07:57Z</time>
      </trkpt>
      <trkpt lat="42.186932" lon="1.330779">
        <ele>534.331</ele>
        <time>2021-06-19T22:08:05Z</time>
      </trkpt>
      <trkpt lat="42.186582" lon="1.330584">
        <ele>531.157</ele>
        <time>2021-06-19T22:08:12Z</time>
      </trkpt>
      <trkpt lat="42.186224" lon="1.330306">
        <ele>529.900</ele>
        <time>2021-06-19T22:08:20Z</time>
      </trkpt>
      <trkpt lat="42.185914" lon="1.330020">
        <ele>529.320</ele>
        <time>2021-06-19T22:08:27Z</time>
      </trkpt>
      <trkpt lat="42.185619" lon="1.329739">
        <ele>530.008</ele>
        <time>2021-06-19T22:08:34Z</time>
      </trkpt>
      <trkpt lat="42.185222" lon="1.329323">
        <ele>526.972</ele>
        <time>2021-06-19T22:08:43Z</time>
      </trkpt>
      <trkpt lat="42.184795" lon="1.328818">
        <ele>528.451</ele>
        <time>2021-06-19T22:08:53Z</time>
      </trkpt>
      <trkpt lat="42.184627" lon="1.328623">
        <ele>527.277</ele>
        <time>2021-06-19T22:08:57Z</time>
      </trkpt>
      <trkpt lat="42.184278" lon="1.328239">
        <ele>527.371</ele>
        <time>2021-06-19T22:09:05Z</time>
      </trkpt>
      <trkpt lat="42.183824" lon="1.327790">
        <ele>528.865</ele>
        <time>2021-06-19T22:09:15Z</time>
      </trkpt>
      <trkpt lat="42.183635" lon="1.327629">
        <ele>528.515</ele>
        <time>2021-06-19T22:09:19Z</time>
      </trkpt>
      <trkpt lat="42.183143" lon="1.327208">
        <ele>529.188</ele>
        <time>2021-06-19T22:09:29Z</time>
      </trkpt>
      <trkpt lat="42.183040" lon="1.327119">
        <ele>529.055</ele>
        <time>2021-06-19T22:09:31Z</time>
      </trkpt>
      <trkpt lat="42.182572" lon="1.326716">
        <ele>528.834</ele>
        <time>2021-06-19T22:09:40Z</time>
      </trkpt>
      <trkpt lat="42.182416" lon="1.326572">
        <ele>528.455</ele>
        <time>2021-06-19T22:09:43Z</time>
      </trkpt>
      <trkpt lat="42.182126" lon="1.326230">
        <ele>527.610</ele>
        <time>2021-06-19T22:09:49Z</time>
      </trkpt>
      <trkpt lat="42.182084" lon="1.326167">
        <ele>527.608</ele>
        <time>2021-06-19T22:09:50Z</time>
      </trkpt>
      <trkpt lat="42.181753" lon="1.325573">
        <ele>525.910</ele>
        <time>2021-06-19T22:09:59Z</time>
      </trkpt>
      <trkpt lat="42.181444" lon="1.324952">
        <ele>526.279</ele>
        <time>2021-06-19T22:10:08Z</time>
      </trkpt>
      <trkpt lat="42.181345" lon="1.324736">
        <ele>525.245</ele>
        <time>2021-06-19T22:10:11Z</time>
      </trkpt>
      <trkpt lat="42.181165" lon="1.324196">
        <ele>526.059</ele>
        <time>2021-06-19T22:10:18Z</time>
      </trkpt>
      <trkpt lat="42.181007" lon="1.323451">
        <ele>524.953</ele>
        <time>2021-06-19T22:10:28Z</time>
      </trkpt>
      <trkpt lat="42.180861" lon="1.322718">
        <ele>526.983</ele>
        <time>2021-06-19T22:10:38Z</time>
      </trkpt>
      <trkpt lat="42.180845" lon="1.322645">
        <ele>526.876</ele>
        <time>2021-06-19T22:10:39Z</time>
      </trkpt>
      <trkpt lat="42.180699" lon="1.321934">
        <ele>528.743</ele>
        <time>2021-06-19T22:10:49Z</time>
      </trkpt>
      <trkpt lat="42.180671" lon="1.321794">
        <ele>529.092</ele>
        <time>2021-06-19T22:10:51Z</time>
      </trkpt>
      <trkpt lat="42.180654" lon="1.321725">
        <ele>528.973</ele>
        <time>2021-06-19T22:10:52Z</time>
      </trkpt>
      <trkpt lat="42.180476" lon="1.321025">
        <ele>530.720</ele>
        <time>2021-06-19T22:11:02Z</time>
      </trkpt>
      <trkpt lat="42.180263" lon="1.320343">
        <ele>527.508</ele>
        <time>2021-06-19T22:11:12Z</time>
      </trkpt>
      <trkpt lat="42.180241" lon="1.320276">
        <ele>527.186</ele>
        <time>2021-06-19T22:11:13Z</time>
      </trkpt>
      <trkpt lat="42.179989" lon="1.319618">
        <ele>527.685</ele>
        <time>2021-06-19T22:11:23Z</time>
      </trkpt>
      <trkpt lat="42.179756" lon="1.319041">
        <ele>530.821</ele>
        <time>2021-06-19T22:11:32Z</time>
      </trkpt>
      <trkpt lat="42.179504" lon="1.318427">
        <ele>531.715</ele>
        <time>2021-06-19T22:11:41Z</time>
      </trkpt>
      <trkpt lat="42.179254" lon="1.317811">
        <ele>530.049</ele>
        <time>2021-06-19T22:11:50Z</time>
      </trkpt>
      <trkpt lat="42.179019" lon="1.317260">
        <ele>522.099</ele>
        <time>2021-06-19T22:11:58Z</time>
      </trkpt>
      <trkpt lat="42.178986" lon="1.317194">
        <ele>521.842</ele>
        <time>2021-06-19T22:11:59Z</time>
      </trkpt>
      <trkpt lat="42.178824" lon="1.316964">
        <ele>521.459</ele>
        <time>2021-06-19T22:12:03Z</time>
      </trkpt>
      <trkpt lat="42.178530" lon="1.316730">
        <ele>526.294</ele>
        <time>2021-06-19T22:12:09Z</time>
      </trkpt>
      <trkpt lat="42.178136" lon="1.316556">
        <ele>530.857</ele>
        <time>2021-06-19T22:12:17Z</time>
      </trkpt>
      <trkpt lat="42.177809" lon="1.316531">
        <ele>530.922</ele>
        <time>2021-06-19T22:12:24Z</time>
      </trkpt>
      <trkpt lat="42.177673" lon="1.316559">
        <ele>531.408</ele>
        <time>2021-06-19T22:12:27Z</time>
      </trkpt>
      <trkpt lat="42.177535" lon="1.316614">
        <ele>530.236</ele>
        <time>2021-06-19T22:12:30Z</time>
      </trkpt>
      <trkpt lat="42.177154" lon="1.316788">
        <ele>531.025</ele>
        <time>2021-06-19T22:12:38Z</time>
      </trkpt>
      <trkpt lat="42.176688" lon="1.317020">
        <ele>531.851</ele>
        <time>2021-06-19T22:12:48Z</time>
      </trkpt>
      <trkpt lat="42.176164" lon="1.317330">
        <ele>530.245</ele>
        <time>2021-06-19T22:12:59Z</time>
      </trkpt>
      <trkpt lat="42.176068" lon="1.317394">
        <ele>529.279</ele>
        <time>2021-06-19T22:13:01Z</time>
      </trkpt>
      <trkpt lat="42.175769" lon="1.317693">
        <ele>528.949</ele>
        <time>2021-06-19T22:13:08Z</time>
      </trkpt>
      <trkpt lat="42.175591" lon="1.318065">
        <ele>533.122</ele>
        <time>2021-06-19T22:13:14Z</time>
      </trkpt>
      <trkpt lat="42.175476" lon="1.318577">
        <ele>536.619</ele>
        <time>2021-06-19T22:13:21Z</time>
      </trkpt>
      <trkpt lat="42.175414" lon="1.319072">
        <ele>536.533</ele>
        <time>2021-06-19T22:13:28Z</time>
      </trkpt>
      <trkpt lat="42.175337" lon="1.319532">
        <ele>533.223</ele>
        <time>2021-06-19T22:13:35Z</time>
      </trkpt>
      <trkpt lat="42.175320" lon="1.319599">
        <ele>532.315</ele>
        <time>2021-06-19T22:13:36Z</time>
      </trkpt>
      <trkpt lat="42.175215" lon="1.319853">
        <ele>529.808</ele>
        <time>2021-06-19T22:13:40Z</time>
      </trkpt>
      <trkpt lat="42.175023" lon="1.320107">
        <ele>528.850</ele>
        <time>2021-06-19T22:13:45Z</time>
      </trkpt>
      <trkpt lat="42.174715" lon="1.320307">
        <ele>527.949</ele>
        <time>2021-06-19T22:13:52Z</time>
      </trkpt>
      <trkpt lat="42.174599" lon="1.320348">
        <ele>528.415</ele>
        <time>2021-06-19T22:13:55Z</time>
      </trkpt>
      <trkpt lat="42.174435" lon="1.320390">
        <ele>528.839</ele>
        <time>2021-06-19T22:13:59Z</time>
      </trkpt>
      <trkpt lat="42.173979" lon="1.320512">
        <ele>528.293</ele>
        <time>2021-06-19T22:14:10Z</time>
      </trkpt>
      <trkpt lat="42.173611" lon="1.320588">
        <ele>528.823</ele>
        <time>2021-06-19T22:14:19Z</time>
      </trkpt>
      <trkpt lat="42.173184" lon="1.320647">
        <ele>529.736</ele>
        <time>2021-06-19T22:14:30Z</time>
      </trkpt>
      <trkpt lat="42.172978" lon="1.320625">
        <ele>530.343</ele>
        <time>2021-06-19T22:14:36Z</time>
      </trkpt>
      <trkpt lat="42.172771" lon="1.320548">
        <ele>531.146</ele>
        <time>2021-06-19T22:14:43Z</time>
      </trkpt>
      <trkpt lat="42.172601" lon="1.320479">
        <ele>531.488</ele>
        <time>2021-06-19T22:14:50Z</time>
      </trkpt>
      <trkpt lat="42.172433" lon="1.320400">
        <ele>531.716</ele>
        <time>2021-06-19T22:14:57Z</time>
      </trkpt>
      <trkpt lat="42.172434" lon="1.320363">
        <ele>531.808</ele>
        <time>2021-06-19T22:15:00Z</time>
      </trkpt>
      <trkpt lat="42.172436" lon="1.320361">
        <ele>531.841</ele>
        <time>2021-06-19T22:15:01Z</time>
      </trkpt>
      <trkpt lat="42.173968" lon="1.320600">
        <ele>525.618</ele>
        <time>2021-06-20T07:13:45Z</time>
      </trkpt>
      <trkpt lat="42.174358" lon="1.320504">
        <ele>524.698</ele>
        <time>2021-06-20T07:13:51Z</time>
      </trkpt>
      <trkpt lat="42.174559" lon="1.320450">
        <ele>524.417</ele>
        <time>2021-06-20T07:13:54Z</time>
      </trkpt>
      <trkpt lat="42.174944" lon="1.320291">
        <ele>523.208</ele>
        <time>2021-06-20T07:14:00Z</time>
      </trkpt>
      <trkpt lat="42.175004" lon="1.320250">
        <ele>523.278</ele>
        <time>2021-06-20T07:14:01Z</time>
      </trkpt>
      <trkpt lat="42.175260" lon="1.319971">
        <ele>522.897</ele>
        <time>2021-06-20T07:14:06Z</time>
      </trkpt>
      <trkpt lat="42.175418" lon="1.319618">
        <ele>522.424</ele>
        <time>2021-06-20T07:14:11Z</time>
      </trkpt>
      <trkpt lat="42.175441" lon="1.319537">
        <ele>522.036</ele>
        <time>2021-06-20T07:14:12Z</time>
      </trkpt>
      <trkpt lat="42.175513" lon="1.319114">
        <ele>521.890</ele>
        <time>2021-06-20T07:14:17Z</time>
      </trkpt>
      <trkpt lat="42.175605" lon="1.318417">
        <ele>522.431</ele>
        <time>2021-06-20T07:14:25Z</time>
      </trkpt>
      <trkpt lat="42.175644" lon="1.318249">
        <ele>522.431</ele>
        <time>2021-06-20T07:14:27Z</time>
      </trkpt>
      <trkpt lat="42.175762" lon="1.317936">
        <ele>522.649</ele>
        <time>2021-06-20T07:14:31Z</time>
      </trkpt>
      <trkpt lat="42.175885" lon="1.317729">
        <ele>522.686</ele>
        <time>2021-06-20T07:14:34Z</time>
      </trkpt>
      <trkpt lat="42.175986" lon="1.317616">
        <ele>522.660</ele>
        <time>2021-06-20T07:14:36Z</time>
      </trkpt>
      <trkpt lat="42.176330" lon="1.317371">
        <ele>522.826</ele>
        <time>2021-06-20T07:14:42Z</time>
      </trkpt>
      <trkpt lat="42.176561" lon="1.317236">
        <ele>523.008</ele>
        <time>2021-06-20T07:14:46Z</time>
      </trkpt>
      <trkpt lat="42.177022" lon="1.316993">
        <ele>523.255</ele>
        <time>2021-06-20T07:14:54Z</time>
      </trkpt>
      <trkpt lat="42.177586" lon="1.316743">
        <ele>523.094</ele>
        <time>2021-06-20T07:15:03Z</time>
      </trkpt>
      <trkpt lat="42.177849" lon="1.316658">
        <ele>522.811</ele>
        <time>2021-06-20T07:15:07Z</time>
      </trkpt>
      <trkpt lat="42.177986" lon="1.316656">
        <ele>522.413</ele>
        <time>2021-06-20T07:15:09Z</time>
      </trkpt>
      <trkpt lat="42.178400" lon="1.316762">
        <ele>521.847</ele>
        <time>2021-06-20T07:15:15Z</time>
      </trkpt>
      <trkpt lat="42.178466" lon="1.316793">
        <ele>521.628</ele>
        <time>2021-06-20T07:15:16Z</time>
      </trkpt>
      <trkpt lat="42.178775" lon="1.317008">
        <ele>521.058</ele>
        <time>2021-06-20T07:15:21Z</time>
      </trkpt>
      <trkpt lat="42.178931" lon="1.317188">
        <ele>520.846</ele>
        <time>2021-06-20T07:15:24Z</time>
      </trkpt>
      <trkpt lat="42.179012" lon="1.317328">
        <ele>520.681</ele>
        <time>2021-06-20T07:15:26Z</time>
      </trkpt>
      <trkpt lat="42.179076" lon="1.317474">
        <ele>520.661</ele>
        <time>2021-06-20T07:15:28Z</time>
      </trkpt>
      <trkpt lat="42.179187" lon="1.317756">
        <ele>520.617</ele>
        <time>2021-06-20T07:15:32Z</time>
      </trkpt>
      <trkpt lat="42.179440" lon="1.318401">
        <ele>521.408</ele>
        <time>2021-06-20T07:15:42Z</time>
      </trkpt>
      <trkpt lat="42.179589" lon="1.318773">
        <ele>522.285</ele>
        <time>2021-06-20T07:15:49Z</time>
      </trkpt>
      <trkpt lat="42.179627" lon="1.318867">
        <ele>522.654</ele>
        <time>2021-06-20T07:15:51Z</time>
      </trkpt>
      <trkpt lat="42.179719" lon="1.319110">
        <ele>523.431</ele>
        <time>2021-06-20T07:15:56Z</time>
      </trkpt>
      <trkpt lat="42.179739" lon="1.319162">
        <ele>523.683</ele>
        <time>2021-06-20T07:15:57Z</time>
      </trkpt>
      <trkpt lat="42.179891" lon="1.319529">
        <ele>524.047</ele>
        <time>2021-06-20T07:16:04Z</time>
      </trkpt>
      <trkpt lat="42.180050" lon="1.319932">
        <ele>524.258</ele>
        <time>2021-06-20T07:16:11Z</time>
      </trkpt>
      <trkpt lat="42.180206" lon="1.320370">
        <ele>523.838</ele>
        <time>2021-06-20T07:16:18Z</time>
      </trkpt>
      <trkpt lat="42.180338" lon="1.320772">
        <ele>523.656</ele>
        <time>2021-06-20T07:16:24Z</time>
      </trkpt>
      <trkpt lat="42.180423" lon="1.321048">
        <ele>523.488</ele>
        <time>2021-06-20T07:16:28Z</time>
      </trkpt>
      <trkpt lat="42.180591" lon="1.321669">
        <ele>523.424</ele>
        <time>2021-06-20T07:16:37Z</time>
      </trkpt>
      <trkpt lat="42.180750" lon="1.322368">
        <ele>522.426</ele>
        <time>2021-06-20T07:16:47Z</time>
      </trkpt>
      <trkpt lat="42.180778" lon="1.322510">
        <ele>522.208</ele>
        <time>2021-06-20T07:16:49Z</time>
      </trkpt>
      <trkpt lat="42.180897" lon="1.323067">
        <ele>521.855</ele>
        <time>2021-06-20T07:16:57Z</time>
      </trkpt>
      <trkpt lat="42.181051" lon="1.323812">
        <ele>522.074</ele>
        <time>2021-06-20T07:17:08Z</time>
      </trkpt>
      <trkpt lat="42.181065" lon="1.323881">
        <ele>522.021</ele>
        <time>2021-06-20T07:17:09Z</time>
      </trkpt>
      <trkpt lat="42.181212" lon="1.324497">
        <ele>522.073</ele>
        <time>2021-06-20T07:17:18Z</time>
      </trkpt>
      <trkpt lat="42.181435" lon="1.325048">
        <ele>522.217</ele>
        <time>2021-06-20T07:17:27Z</time>
      </trkpt>
      <trkpt lat="42.181488" lon="1.325164">
        <ele>522.238</ele>
        <time>2021-06-20T07:17:29Z</time>
      </trkpt>
      <trkpt lat="42.181759" lon="1.325694">
        <ele>522.638</ele>
        <time>2021-06-20T07:17:38Z</time>
      </trkpt>
      <trkpt lat="42.182112" lon="1.326312">
        <ele>523.046</ele>
        <time>2021-06-20T07:17:49Z</time>
      </trkpt>
      <trkpt lat="42.182380" lon="1.326635">
        <ele>523.228</ele>
        <time>2021-06-20T07:17:56Z</time>
      </trkpt>
      <trkpt lat="42.182461" lon="1.326716">
        <ele>523.289</ele>
        <time>2021-06-20T07:17:58Z</time>
      </trkpt>
      <trkpt lat="42.182789" lon="1.327008">
        <ele>523.217</ele>
        <time>2021-06-20T07:18:06Z</time>
      </trkpt>
      <trkpt lat="42.183251" lon="1.327392">
        <ele>523.808</ele>
        <time>2021-06-20T07:18:17Z</time>
      </trkpt>
      <trkpt lat="42.183293" lon="1.327428">
        <ele>523.849</ele>
        <time>2021-06-20T07:18:18Z</time>
      </trkpt>
      <trkpt lat="42.183762" lon="1.327832">
        <ele>524.228</ele>
        <time>2021-06-20T07:18:29Z</time>
      </trkpt>
      <trkpt lat="42.183804" lon="1.327871">
        <ele>524.295</ele>
        <time>2021-06-20T07:18:30Z</time>
      </trkpt>
      <trkpt lat="42.183846" lon="1.327910">
        <ele>524.247</ele>
        <time>2021-06-20T07:18:31Z</time>
      </trkpt>
      <trkpt lat="42.184303" lon="1.328355">
        <ele>524.661</ele>
        <time>2021-06-20T07:18:42Z</time>
      </trkpt>
      <trkpt lat="42.184344" lon="1.328397">
        <ele>524.632</ele>
        <time>2021-06-20T07:18:43Z</time>
      </trkpt>
      <trkpt lat="42.184699" lon="1.328792">
        <ele>524.892</ele>
        <time>2021-06-20T07:18:52Z</time>
      </trkpt>
      <trkpt lat="42.185115" lon="1.329273">
        <ele>524.810</ele>
        <time>2021-06-20T07:19:03Z</time>
      </trkpt>
      <trkpt lat="42.185192" lon="1.329362">
        <ele>524.885</ele>
        <time>2021-06-20T07:19:05Z</time>
      </trkpt>
      <trkpt lat="42.185522" lon="1.329713">
        <ele>524.689</ele>
        <time>2021-06-20T07:19:13Z</time>
      </trkpt>
      <trkpt lat="42.185932" lon="1.330117">
        <ele>524.617</ele>
        <time>2021-06-20T07:19:23Z</time>
      </trkpt>
      <trkpt lat="42.186122" lon="1.330311">
        <ele>525.008</ele>
        <time>2021-06-20T07:19:28Z</time>
      </trkpt>
      <trkpt lat="42.186353" lon="1.330529">
        <ele>525.835</ele>
        <time>2021-06-20T07:19:34Z</time>
      </trkpt>
      <trkpt lat="42.186431" lon="1.330596">
        <ele>526.084</ele>
        <time>2021-06-20T07:19:36Z</time>
      </trkpt>
      <trkpt lat="42.186718" lon="1.330792">
        <ele>527.021</ele>
        <time>2021-06-20T07:19:43Z</time>
      </trkpt>
      <trkpt lat="42.186885" lon="1.330886">
        <ele>527.073</ele>
        <time>2021-06-20T07:19:47Z</time>
      </trkpt>
      <trkpt lat="42.187115" lon="1.330985">
        <ele>527.247</ele>
        <time>2021-06-20T07:19:52Z</time>
      </trkpt>
      <trkpt lat="42.187626" lon="1.331150">
        <ele>527.218</ele>
        <time>2021-06-20T07:20:02Z</time>
      </trkpt>
      <trkpt lat="42.188037" lon="1.331314">
        <ele>526.858</ele>
        <time>2021-06-20T07:20:10Z</time>
      </trkpt>
      <trkpt lat="42.188513" lon="1.331414">
        <ele>525.876</ele>
        <time>2021-06-20T07:20:19Z</time>
      </trkpt>
      <trkpt lat="42.188564" lon="1.331414">
        <ele>525.842</ele>
        <time>2021-06-20T07:20:20Z</time>
      </trkpt>
      <trkpt lat="42.188846" lon="1.331350">
        <ele>525.822</ele>
        <time>2021-06-20T07:20:26Z</time>
      </trkpt>
      <trkpt lat="42.189052" lon="1.331236">
        <ele>526.414</ele>
        <time>2021-06-20T07:20:31Z</time>
      </trkpt>
      <trkpt lat="42.189127" lon="1.331176">
        <ele>526.808</ele>
        <time>2021-06-20T07:20:33Z</time>
      </trkpt>
      <trkpt lat="42.189164" lon="1.331147">
        <ele>527.031</ele>
        <time>2021-06-20T07:20:34Z</time>
      </trkpt>
      <trkpt lat="42.189366" lon="1.330951">
        <ele>527.840</ele>
        <time>2021-06-20T07:20:40Z</time>
      </trkpt>
      <trkpt lat="42.189430" lon="1.330881">
        <ele>528.297</ele>
        <time>2021-06-20T07:20:42Z</time>
      </trkpt>
      <trkpt lat="42.189580" lon="1.330702">
        <ele>529.499</ele>
        <time>2021-06-20T07:20:47Z</time>
      </trkpt>
      <trkpt lat="42.189609" lon="1.330667">
        <ele>529.443</ele>
        <time>2021-06-20T07:20:48Z</time>
      </trkpt>
      <trkpt lat="42.189796" lon="1.330445">
        <ele>530.644</ele>
        <time>2021-06-20T07:20:55Z</time>
      </trkpt>
      <trkpt lat="42.189821" lon="1.330415">
        <ele>530.694</ele>
        <time>2021-06-20T07:20:56Z</time>
      </trkpt>
      <trkpt lat="42.189949" lon="1.330277">
        <ele>531.692</ele>
        <time>2021-06-20T07:21:01Z</time>
      </trkpt>
      <trkpt lat="42.190050" lon="1.330170">
        <ele>532.052</ele>
        <time>2021-06-20T07:21:05Z</time>
      </trkpt>
      <trkpt lat="42.190187" lon="1.330059">
        <ele>532.653</ele>
        <time>2021-06-20T07:21:10Z</time>
      </trkpt>
      <trkpt lat="42.190308" lon="1.329988">
        <ele>533.008</ele>
        <time>2021-06-20T07:21:14Z</time>
      </trkpt>
      <trkpt lat="42.190578" lon="1.329897">
        <ele>533.608</ele>
        <time>2021-06-20T07:21:22Z</time>
      </trkpt>
      <trkpt lat="42.190892" lon="1.329910">
        <ele>534.422</ele>
        <time>2021-06-20T07:21:30Z</time>
      </trkpt>
      <trkpt lat="42.191216" lon="1.330049">
        <ele>534.661</ele>
        <time>2021-06-20T07:21:38Z</time>
      </trkpt>
      <trkpt lat="42.191573" lon="1.330302">
        <ele>534.098</ele>
        <time>2021-06-20T07:21:46Z</time>
      </trkpt>
      <trkpt lat="42.191988" lon="1.330577">
        <ele>532.610</ele>
        <time>2021-06-20T07:21:54Z</time>
      </trkpt>
      <trkpt lat="42.192165" lon="1.330657">
        <ele>532.224</ele>
        <time>2021-06-20T07:21:57Z</time>
      </trkpt>
      <trkpt lat="42.192348" lon="1.330700">
        <ele>531.645</ele>
        <time>2021-06-20T07:22:00Z</time>
      </trkpt>
      <trkpt lat="42.192475" lon="1.330710">
        <ele>531.295</ele>
        <time>2021-06-20T07:22:02Z</time>
      </trkpt>
      <trkpt lat="42.192735" lon="1.330683">
        <ele>530.673</ele>
        <time>2021-06-20T07:22:06Z</time>
      </trkpt>
      <trkpt lat="42.193110" lon="1.330524">
        <ele>530.295</ele>
        <time>2021-06-20T07:22:12Z</time>
      </trkpt>
      <trkpt lat="42.193597" lon="1.330208">
        <ele>529.049</ele>
        <time>2021-06-20T07:22:20Z</time>
      </trkpt>
      <trkpt lat="42.193658" lon="1.330167">
        <ele>528.823</ele>
        <time>2021-06-20T07:22:21Z</time>
      </trkpt>
      <trkpt lat="42.194025" lon="1.329913">
        <ele>527.808</ele>
        <time>2021-06-20T07:22:27Z</time>
      </trkpt>
      <trkpt lat="42.194274" lon="1.329744">
        <ele>527.496</ele>
        <time>2021-06-20T07:22:31Z</time>
      </trkpt>
      <trkpt lat="42.194695" lon="1.329449">
        <ele>526.835</ele>
        <time>2021-06-20T07:22:38Z</time>
      </trkpt>
      <trkpt lat="42.194875" lon="1.329326">
        <ele>526.242</ele>
        <time>2021-06-20T07:22:41Z</time>
      </trkpt>
      <trkpt lat="42.195241" lon="1.329075">
        <ele>525.644</ele>
        <time>2021-06-20T07:22:47Z</time>
      </trkpt>
      <trkpt lat="42.195538" lon="1.328868">
        <ele>524.678</ele>
        <time>2021-06-20T07:22:52Z</time>
      </trkpt>
      <trkpt lat="42.195653" lon="1.328788">
        <ele>524.439</ele>
        <time>2021-06-20T07:22:54Z</time>
      </trkpt>
      <trkpt lat="42.196155" lon="1.328458">
        <ele>523.669</ele>
        <time>2021-06-20T07:23:03Z</time>
      </trkpt>
      <trkpt lat="42.196316" lon="1.328353">
        <ele>523.297</ele>
        <time>2021-06-20T07:23:06Z</time>
      </trkpt>
      <trkpt lat="42.196664" lon="1.328145">
        <ele>522.843</ele>
        <time>2021-06-20T07:23:12Z</time>
      </trkpt>
      <trkpt lat="42.196925" lon="1.328004">
        <ele>522.264</ele>
        <time>2021-06-20T07:23:16Z</time>
      </trkpt>
      <trkpt lat="42.197261" lon="1.327838">
        <ele>521.810</ele>
        <time>2021-06-20T07:23:21Z</time>
      </trkpt>
      <trkpt lat="42.197692" lon="1.327669">
        <ele>521.608</ele>
        <time>2021-06-20T07:23:28Z</time>
      </trkpt>
      <trkpt lat="42.198243" lon="1.327501">
        <ele>521.611</ele>
        <time>2021-06-20T07:23:37Z</time>
      </trkpt>
      <trkpt lat="42.198303" lon="1.327485">
        <ele>521.680</ele>
        <time>2021-06-20T07:23:38Z</time>
      </trkpt>
      <trkpt lat="42.198812" lon="1.327381">
        <ele>522.627</ele>
        <time>2021-06-20T07:23:47Z</time>
      </trkpt>
      <trkpt lat="42.199171" lon="1.327337">
        <ele>523.239</ele>
        <time>2021-06-20T07:23:54Z</time>
      </trkpt>
      <trkpt lat="42.199365" lon="1.327322">
        <ele>523.693</ele>
        <time>2021-06-20T07:23:58Z</time>
      </trkpt>
      <trkpt lat="42.199599" lon="1.327310">
        <ele>524.274</ele>
        <time>2021-06-20T07:24:03Z</time>
      </trkpt>
      <trkpt lat="42.199691" lon="1.327308">
        <ele>524.644</ele>
        <time>2021-06-20T07:24:05Z</time>
      </trkpt>
      <trkpt lat="42.199829" lon="1.327307">
        <ele>524.832</ele>
        <time>2021-06-20T07:24:08Z</time>
      </trkpt>
      <trkpt lat="42.200012" lon="1.327310">
        <ele>525.215</ele>
        <time>2021-06-20T07:24:12Z</time>
      </trkpt>
      <trkpt lat="42.200422" lon="1.327323">
        <ele>526.265</ele>
        <time>2021-06-20T07:24:21Z</time>
      </trkpt>
      <trkpt lat="42.200468" lon="1.327325">
        <ele>526.211</ele>
        <time>2021-06-20T07:24:22Z</time>
      </trkpt>
      <trkpt lat="42.200888" lon="1.327345">
        <ele>527.008</ele>
        <time>2021-06-20T07:24:31Z</time>
      </trkpt>
      <trkpt lat="42.201028" lon="1.327357">
        <ele>527.448</ele>
        <time>2021-06-20T07:24:34Z</time>
      </trkpt>
      <trkpt lat="42.201453" lon="1.327386">
        <ele>528.457</ele>
        <time>2021-06-20T07:24:43Z</time>
      </trkpt>
      <trkpt lat="42.202019" lon="1.327431">
        <ele>529.464</ele>
        <time>2021-06-20T07:24:55Z</time>
      </trkpt>
      <trkpt lat="42.202533" lon="1.327481">
        <ele>530.476</ele>
        <time>2021-06-20T07:25:06Z</time>
      </trkpt>
      <trkpt lat="42.203016" lon="1.327538">
        <ele>531.270</ele>
        <time>2021-06-20T07:25:16Z</time>
      </trkpt>
      <trkpt lat="42.203204" lon="1.327564">
        <ele>531.641</ele>
        <time>2021-06-20T07:25:20Z</time>
      </trkpt>
      <trkpt lat="42.203530" lon="1.327611">
        <ele>532.231</ele>
        <time>2021-06-20T07:25:27Z</time>
      </trkpt>
      <trkpt lat="42.203625" lon="1.327622">
        <ele>532.429</ele>
        <time>2021-06-20T07:25:29Z</time>
      </trkpt>
      <trkpt lat="42.203952" lon="1.327668">
        <ele>533.278</ele>
        <time>2021-06-20T07:25:36Z</time>
      </trkpt>
      <trkpt lat="42.204092" lon="1.327695">
        <ele>533.433</ele>
        <time>2021-06-20T07:25:39Z</time>
      </trkpt>
      <trkpt lat="42.204379" lon="1.327742">
        <ele>533.826</ele>
        <time>2021-06-20T07:25:45Z</time>
      </trkpt>
      <trkpt lat="42.204706" lon="1.327793">
        <ele>534.408</ele>
        <time>2021-06-20T07:25:52Z</time>
      </trkpt>
      <trkpt lat="42.204844" lon="1.327813">
        <ele>535.084</ele>
        <time>2021-06-20T07:25:55Z</time>
      </trkpt>
      <trkpt lat="42.205151" lon="1.327860">
        <ele>535.643</ele>
        <time>2021-06-20T07:26:02Z</time>
      </trkpt>
      <trkpt lat="42.205274" lon="1.327876">
        <ele>536.280</ele>
        <time>2021-06-20T07:26:05Z</time>
      </trkpt>
      <trkpt lat="42.205436" lon="1.327897">
        <ele>536.842</ele>
        <time>2021-06-20T07:26:09Z</time>
      </trkpt>
      <trkpt lat="42.205682" lon="1.327923">
        <ele>537.676</ele>
        <time>2021-06-20T07:26:15Z</time>
      </trkpt>
      <trkpt lat="42.205723" lon="1.327923">
        <ele>537.877</ele>
        <time>2021-06-20T07:26:16Z</time>
      </trkpt>
      <trkpt lat="42.206004" lon="1.327878">
        <ele>538.697</ele>
        <time>2021-06-20T07:26:23Z</time>
      </trkpt>
      <trkpt lat="42.206081" lon="1.327848">
        <ele>539.015</ele>
        <time>2021-06-20T07:26:25Z</time>
      </trkpt>
      <trkpt lat="42.206292" lon="1.327723">
        <ele>539.616</ele>
        <time>2021-06-20T07:26:31Z</time>
      </trkpt>
      <trkpt lat="42.206386" lon="1.327646">
        <ele>540.276</ele>
        <time>2021-06-20T07:26:34Z</time>
      </trkpt>
      <trkpt lat="42.206538" lon="1.327497">
        <ele>541.013</ele>
        <time>2021-06-20T07:26:39Z</time>
      </trkpt>
      <trkpt lat="42.206599" lon="1.327437">
        <ele>541.208</ele>
        <time>2021-06-20T07:26:41Z</time>
      </trkpt>
      <trkpt lat="42.206868" lon="1.327196">
        <ele>542.418</ele>
        <time>2021-06-20T07:26:50Z</time>
      </trkpt>
      <trkpt lat="42.207054" lon="1.327082">
        <ele>543.467</ele>
        <time>2021-06-20T07:26:56Z</time>
      </trkpt>
      <trkpt lat="42.207151" lon="1.327037">
        <ele>544.014</ele>
        <time>2021-06-20T07:26:59Z</time>
      </trkpt>
      <trkpt lat="42.207250" lon="1.327006">
        <ele>544.666</ele>
        <time>2021-06-20T07:27:02Z</time>
      </trkpt>
      <trkpt lat="42.207383" lon="1.326987">
        <ele>545.080</ele>
        <time>2021-06-20T07:27:06Z</time>
      </trkpt>
      <trkpt lat="42.207512" lon="1.326983">
        <ele>545.621</ele>
        <time>2021-06-20T07:27:10Z</time>
      </trkpt>
      <trkpt lat="42.207692" lon="1.327002">
        <ele>546.491</ele>
        <time>2021-06-20T07:27:16Z</time>
      </trkpt>
      <trkpt lat="42.207752" lon="1.327006">
        <ele>546.899</ele>
        <time>2021-06-20T07:27:18Z</time>
      </trkpt>
      <trkpt lat="42.207960" lon="1.326999">
        <ele>548.035</ele>
        <time>2021-06-20T07:27:25Z</time>
      </trkpt>
      <trkpt lat="42.207989" lon="1.326992">
        <ele>548.086</ele>
        <time>2021-06-20T07:27:26Z</time>
      </trkpt>
      <trkpt lat="42.208185" lon="1.326912">
        <ele>549.014</ele>
        <time>2021-06-20T07:27:33Z</time>
      </trkpt>
      <trkpt lat="42.208212" lon="1.326898">
        <ele>549.008</ele>
        <time>2021-06-20T07:27:34Z</time>
      </trkpt>
      <trkpt lat="42.208422" lon="1.326761">
        <ele>550.260</ele>
        <time>2021-06-20T07:27:42Z</time>
      </trkpt>
      <trkpt lat="42.208630" lon="1.326618">
        <ele>551.239</ele>
        <time>2021-06-20T07:27:50Z</time>
      </trkpt>
      <trkpt lat="42.208681" lon="1.326581">
        <ele>551.676</ele>
        <time>2021-06-20T07:27:52Z</time>
      </trkpt>
      <trkpt lat="42.208820" lon="1.326485">
        <ele>552.238</ele>
        <time>2021-06-20T07:27:56Z</time>
      </trkpt>
      <trkpt lat="42.208939" lon="1.326404">
        <ele>552.692</ele>
        <time>2021-06-20T07:28:01Z</time>
      </trkpt>
      <trkpt lat="42.209174" lon="1.326277">
        <ele>553.093</ele>
        <time>2021-06-20T07:28:09Z</time>
      </trkpt>
      <trkpt lat="42.209476" lon="1.326176">
        <ele>553.273</ele>
        <time>2021-06-20T07:28:17Z</time>
      </trkpt>
      <trkpt lat="42.209792" lon="1.326208">
        <ele>552.821</ele>
        <time>2021-06-20T07:28:24Z</time>
      </trkpt>
      <trkpt lat="42.210004" lon="1.326327">
        <ele>552.451</ele>
        <time>2021-06-20T07:28:29Z</time>
      </trkpt>
      <trkpt lat="42.210041" lon="1.326365">
        <ele>552.201</ele>
        <time>2021-06-20T07:28:30Z</time>
      </trkpt>
      <trkpt lat="42.210267" lon="1.326669">
        <ele>552.211</ele>
        <time>2021-06-20T07:28:37Z</time>
      </trkpt>
      <trkpt lat="42.210445" lon="1.326911">
        <ele>552.208</ele>
        <time>2021-06-20T07:28:43Z</time>
      </trkpt>
      <trkpt lat="42.210531" lon="1.327060">
        <ele>552.222</ele>
        <time>2021-06-20T07:28:48Z</time>
      </trkpt>
      <trkpt lat="42.210548" lon="1.327070">
        <ele>552.631</ele>
        <time>2021-06-20T07:28:51Z</time>
      </trkpt>
      <trkpt lat="42.210710" lon="1.327025">
        <ele>556.038</ele>
        <time>2021-06-20T07:55:47Z</time>
      </trkpt>
      <trkpt lat="42.210717" lon="1.327040">
        <ele>556.060</ele>
        <time>2021-06-20T07:55:48Z</time>
      </trkpt>
      <trkpt lat="42.210746" lon="1.327089">
        <ele>556.254</ele>
        <time>2021-06-20T07:55:51Z</time>
      </trkpt>
      <trkpt lat="42.210776" lon="1.327136">
        <ele>556.445</ele>
        <time>2021-06-20T07:55:53Z</time>
      </trkpt>
      <trkpt lat="42.210821" lon="1.327182">
        <ele>556.495</ele>
        <time>2021-06-20T07:55:55Z</time>
      </trkpt>
      <trkpt lat="42.210910" lon="1.327284">
        <ele>556.643</ele>
        <time>2021-06-20T07:55:59Z</time>
      </trkpt>
      <trkpt lat="42.211087" lon="1.327507">
        <ele>556.898</ele>
        <time>2021-06-20T07:56:07Z</time>
      </trkpt>
      <trkpt lat="42.211153" lon="1.327592">
        <ele>557.015</ele>
        <time>2021-06-20T07:56:10Z</time>
      </trkpt>
      <trkpt lat="42.211235" lon="1.327695">
        <ele>557.626</ele>
        <time>2021-06-20T07:56:14Z</time>
      </trkpt>
      <trkpt lat="42.211280" lon="1.327760">
        <ele>558.208</ele>
        <time>2021-06-20T07:56:18Z</time>
      </trkpt>
      <trkpt lat="42.211299" lon="1.327777">
        <ele>558.476</ele>
        <time>2021-06-20T07:56:20Z</time>
      </trkpt>
      <trkpt lat="42.211321" lon="1.327773">
        <ele>559.075</ele>
        <time>2021-06-20T07:56:22Z</time>
      </trkpt>
      <trkpt lat="42.211339" lon="1.327748">
        <ele>559.282</ele>
        <time>2021-06-20T07:56:24Z</time>
      </trkpt>
      <trkpt lat="42.211400" lon="1.327635">
        <ele>559.654</ele>
        <time>2021-06-20T07:56:30Z</time>
      </trkpt>
      <trkpt lat="42.211482" lon="1.327509">
        <ele>560.418</ele>
        <time>2021-06-20T07:56:36Z</time>
      </trkpt>
      <trkpt lat="42.211543" lon="1.327395">
        <ele>561.419</ele>
        <time>2021-06-20T07:56:41Z</time>
      </trkpt>
      <trkpt lat="42.211568" lon="1.327342">
        <ele>562.049</ele>
        <time>2021-06-20T07:56:43Z</time>
      </trkpt>
      <trkpt lat="42.211628" lon="1.327256">
        <ele>562.437</ele>
        <time>2021-06-20T07:56:47Z</time>
      </trkpt>
      <trkpt lat="42.211656" lon="1.327208">
        <ele>563.055</ele>
        <time>2021-06-20T07:56:49Z</time>
      </trkpt>
      <trkpt lat="42.211707" lon="1.327112">
        <ele>563.607</ele>
        <time>2021-06-20T07:56:53Z</time>
      </trkpt>
      <trkpt lat="42.211776" lon="1.327016">
        <ele>564.617</ele>
        <time>2021-06-20T07:56:58Z</time>
      </trkpt>
      <trkpt lat="42.211788" lon="1.326995">
        <ele>564.608</ele>
        <time>2021-06-20T07:56:59Z</time>
      </trkpt>
      <trkpt lat="42.211857" lon="1.326930">
        <ele>565.252</ele>
        <time>2021-06-20T07:57:03Z</time>
      </trkpt>
      <trkpt lat="42.211896" lon="1.326896">
        <ele>565.691</ele>
        <time>2021-06-20T07:57:05Z</time>
      </trkpt>
      <trkpt lat="42.211925" lon="1.326846">
        <ele>566.038</ele>
        <time>2021-06-20T07:57:07Z</time>
      </trkpt>
      <trkpt lat="42.211998" lon="1.326757">
        <ele>566.420</ele>
        <time>2021-06-20T07:57:11Z</time>
      </trkpt>
      <trkpt lat="42.212017" lon="1.326736">
        <ele>566.674</ele>
        <time>2021-06-20T07:57:12Z</time>
      </trkpt>
      <trkpt lat="42.212037" lon="1.326721">
        <ele>566.885</ele>
        <time>2021-06-20T07:57:13Z</time>
      </trkpt>
      <trkpt lat="42.212120" lon="1.326653">
        <ele>567.625</ele>
        <time>2021-06-20T07:57:17Z</time>
      </trkpt>
      <trkpt lat="42.212142" lon="1.326634">
        <ele>568.053</ele>
        <time>2021-06-20T07:57:18Z</time>
      </trkpt>
      <trkpt lat="42.212275" lon="1.326522">
        <ele>569.067</ele>
        <time>2021-06-20T07:57:24Z</time>
      </trkpt>
      <trkpt lat="42.212408" lon="1.326389">
        <ele>570.081</ele>
        <time>2021-06-20T07:57:31Z</time>
      </trkpt>
      <trkpt lat="42.212423" lon="1.326376">
        <ele>570.219</ele>
        <time>2021-06-20T07:57:32Z</time>
      </trkpt>
      <trkpt lat="42.212491" lon="1.326310">
        <ele>570.808</ele>
        <time>2021-06-20T07:57:36Z</time>
      </trkpt>
      <trkpt lat="42.212549" lon="1.326251">
        <ele>571.293</ele>
        <time>2021-06-20T07:57:39Z</time>
      </trkpt>
      <trkpt lat="42.212639" lon="1.326150">
        <ele>572.242</ele>
        <time>2021-06-20T07:57:44Z</time>
      </trkpt>
      <trkpt lat="42.212657" lon="1.326130">
        <ele>572.469</ele>
        <time>2021-06-20T07:57:45Z</time>
      </trkpt>
      <trkpt lat="42.212723" lon="1.326050">
        <ele>573.411</ele>
        <time>2021-06-20T07:57:49Z</time>
      </trkpt>
      <trkpt lat="42.212792" lon="1.325966">
        <ele>574.235</ele>
        <time>2021-06-20T07:57:53Z</time>
      </trkpt>
      <trkpt lat="42.212822" lon="1.325918">
        <ele>574.496</ele>
        <time>2021-06-20T07:57:55Z</time>
      </trkpt>
      <trkpt lat="42.212884" lon="1.325841">
        <ele>575.296</ele>
        <time>2021-06-20T07:57:59Z</time>
      </trkpt>
      <trkpt lat="42.212911" lon="1.325805">
        <ele>575.674</ele>
        <time>2021-06-20T07:58:01Z</time>
      </trkpt>
      <trkpt lat="42.212999" lon="1.325695">
        <ele>576.664</ele>
        <time>2021-06-20T07:58:07Z</time>
      </trkpt>
      <trkpt lat="42.213014" lon="1.325675">
        <ele>576.606</ele>
        <time>2021-06-20T07:58:08Z</time>
      </trkpt>
      <trkpt lat="42.213135" lon="1.325540">
        <ele>577.616</ele>
        <time>2021-06-20T07:58:15Z</time>
      </trkpt>
      <trkpt lat="42.213246" lon="1.325381">
        <ele>579.008</ele>
        <time>2021-06-20T07:58:22Z</time>
      </trkpt>
      <trkpt lat="42.213291" lon="1.325312">
        <ele>579.263</ele>
        <time>2021-06-20T07:58:25Z</time>
      </trkpt>
      <trkpt lat="42.213366" lon="1.325195">
        <ele>580.082</ele>
        <time>2021-06-20T07:58:30Z</time>
      </trkpt>
      <trkpt lat="42.213431" lon="1.325108">
        <ele>580.679</ele>
        <time>2021-06-20T07:58:34Z</time>
      </trkpt>
      <trkpt lat="42.213491" lon="1.325020">
        <ele>581.221</ele>
        <time>2021-06-20T07:58:38Z</time>
      </trkpt>
      <trkpt lat="42.213567" lon="1.324909">
        <ele>582.235</ele>
        <time>2021-06-20T07:58:43Z</time>
      </trkpt>
      <trkpt lat="42.213681" lon="1.324714">
        <ele>583.256</ele>
        <time>2021-06-20T07:58:51Z</time>
      </trkpt>
      <trkpt lat="42.213707" lon="1.324660">
        <ele>583.466</ele>
        <time>2021-06-20T07:58:53Z</time>
      </trkpt>
      <trkpt lat="42.213767" lon="1.324553">
        <ele>583.674</ele>
        <time>2021-06-20T07:58:57Z</time>
      </trkpt>
      <trkpt lat="42.213858" lon="1.324397">
        <ele>584.456</ele>
        <time>2021-06-20T07:59:03Z</time>
      </trkpt>
      <trkpt lat="42.213872" lon="1.324370">
        <ele>584.459</ele>
        <time>2021-06-20T07:59:04Z</time>
      </trkpt>
      <trkpt lat="42.214016" lon="1.324150">
        <ele>585.614</ele>
        <time>2021-06-20T07:59:13Z</time>
      </trkpt>
      <trkpt lat="42.214123" lon="1.324016">
        <ele>586.208</ele>
        <time>2021-06-20T07:59:19Z</time>
      </trkpt>
      <trkpt lat="42.214208" lon="1.323939">
        <ele>586.662</ele>
        <time>2021-06-20T07:59:23Z</time>
      </trkpt>
      <trkpt lat="42.214311" lon="1.323877">
        <ele>587.011</ele>
        <time>2021-06-20T07:59:27Z</time>
      </trkpt>
      <trkpt lat="42.214596" lon="1.323766">
        <ele>587.888</ele>
        <time>2021-06-20T07:59:38Z</time>
      </trkpt>
      <trkpt lat="42.214774" lon="1.323765">
        <ele>588.440</ele>
        <time>2021-06-20T07:59:45Z</time>
      </trkpt>
      <trkpt lat="42.214821" lon="1.323765">
        <ele>588.854</ele>
        <time>2021-06-20T07:59:47Z</time>
      </trkpt>
      <trkpt lat="42.214940" lon="1.323752">
        <ele>589.625</ele>
        <time>2021-06-20T07:59:52Z</time>
      </trkpt>
      <trkpt lat="42.215013" lon="1.323742">
        <ele>590.055</ele>
        <time>2021-06-20T07:59:55Z</time>
      </trkpt>
      <trkpt lat="42.215157" lon="1.323699">
        <ele>591.063</ele>
        <time>2021-06-20T08:00:01Z</time>
      </trkpt>
      <trkpt lat="42.215322" lon="1.323569">
        <ele>591.886</ele>
        <time>2021-06-20T08:00:09Z</time>
      </trkpt>
      <trkpt lat="42.215358" lon="1.323523">
        <ele>592.060</ele>
        <time>2021-06-20T08:00:11Z</time>
      </trkpt>
      <trkpt lat="42.215492" lon="1.323369">
        <ele>592.626</ele>
        <time>2021-06-20T08:00:18Z</time>
      </trkpt>
      <trkpt lat="42.215597" lon="1.323255">
        <ele>593.008</ele>
        <time>2021-06-20T08:00:23Z</time>
      </trkpt>
      <trkpt lat="42.215617" lon="1.323230">
        <ele>593.025</ele>
        <time>2021-06-20T08:00:24Z</time>
      </trkpt>
      <trkpt lat="42.215694" lon="1.323134">
        <ele>593.214</ele>
        <time>2021-06-20T08:00:28Z</time>
      </trkpt>
      <trkpt lat="42.215806" lon="1.322959">
        <ele>593.841</ele>
        <time>2021-06-20T08:00:35Z</time>
      </trkpt>
      <trkpt lat="42.215792" lon="1.322866">
        <ele>594.043</ele>
        <time>2021-06-20T08:00:38Z</time>
      </trkpt>
      <trkpt lat="42.215765" lon="1.322790">
        <ele>594.437</ele>
        <time>2021-06-20T08:00:41Z</time>
      </trkpt>
      <trkpt lat="42.215746" lon="1.322761">
        <ele>595.098</ele>
        <time>2021-06-20T08:00:43Z</time>
      </trkpt>
      <trkpt lat="42.215745" lon="1.322754">
        <ele>595.288</ele>
        <time>2021-06-20T08:00:44Z</time>
      </trkpt>
      <trkpt lat="42.215745" lon="1.322754">
        <ele>595.216</ele>
        <time>2021-06-20T08:00:45Z</time>
      </trkpt>
      <trkpt lat="42.215710" lon="1.322708">
        <ele>596.664</ele>
        <time>2021-06-20T08:00:55Z</time>
      </trkpt>
      <trkpt lat="42.215682" lon="1.322675">
        <ele>596.606</ele>
        <time>2021-06-20T08:00:57Z</time>
      </trkpt>
      <trkpt lat="42.215561" lon="1.322533">
        <ele>597.016</ele>
        <time>2021-06-20T08:01:05Z</time>
      </trkpt>
      <trkpt lat="42.215467" lon="1.322430">
        <ele>597.808</ele>
        <time>2021-06-20T08:01:11Z</time>
      </trkpt>
      <trkpt lat="42.215435" lon="1.322392">
        <ele>598.223</ele>
        <time>2021-06-20T08:01:13Z</time>
      </trkpt>
      <trkpt lat="42.215342" lon="1.322277">
        <ele>599.092</ele>
        <time>2021-06-20T08:01:19Z</time>
      </trkpt>
      <trkpt lat="42.215294" lon="1.322185">
        <ele>599.459</ele>
        <time>2021-06-20T08:01:23Z</time>
      </trkpt>
      <trkpt lat="42.215238" lon="1.322031">
        <ele>600.011</ele>
        <time>2021-06-20T08:01:29Z</time>
      </trkpt>
      <trkpt lat="42.215216" lon="1.321951">
        <ele>600.875</ele>
        <time>2021-06-20T08:01:32Z</time>
      </trkpt>
      <trkpt lat="42.215206" lon="1.321896">
        <ele>601.096</ele>
        <time>2021-06-20T08:01:34Z</time>
      </trkpt>
      <trkpt lat="42.215190" lon="1.321756">
        <ele>601.866</ele>
        <time>2021-06-20T08:01:39Z</time>
      </trkpt>
      <trkpt lat="42.215187" lon="1.321700">
        <ele>602.284</ele>
        <time>2021-06-20T08:01:41Z</time>
      </trkpt>
      <trkpt lat="42.215210" lon="1.321541">
        <ele>603.224</ele>
        <time>2021-06-20T08:01:47Z</time>
      </trkpt>
      <trkpt lat="42.215251" lon="1.321353">
        <ele>604.404</ele>
        <time>2021-06-20T08:01:54Z</time>
      </trkpt>
      <trkpt lat="42.215256" lon="1.321324">
        <ele>604.614</ele>
        <time>2021-06-20T08:01:55Z</time>
      </trkpt>
      <trkpt lat="42.215284" lon="1.321185">
        <ele>605.808</ele>
        <time>2021-06-20T08:02:00Z</time>
      </trkpt>
      <trkpt lat="42.215304" lon="1.321072">
        <ele>606.419</ele>
        <time>2021-06-20T08:02:04Z</time>
      </trkpt>
      <trkpt lat="42.215324" lon="1.320961">
        <ele>606.828</ele>
        <time>2021-06-20T08:02:08Z</time>
      </trkpt>
      <trkpt lat="42.215363" lon="1.320764">
        <ele>607.635</ele>
        <time>2021-06-20T08:02:15Z</time>
      </trkpt>
      <trkpt lat="42.215384" lon="1.320653">
        <ele>608.047</ele>
        <time>2021-06-20T08:02:19Z</time>
      </trkpt>
      <trkpt lat="42.215391" lon="1.320596">
        <ele>608.021</ele>
        <time>2021-06-20T08:02:21Z</time>
      </trkpt>
      <trkpt lat="42.215419" lon="1.320371">
        <ele>609.072</ele>
        <time>2021-06-20T08:02:29Z</time>
      </trkpt>
      <trkpt lat="42.215421" lon="1.320316">
        <ele>609.262</ele>
        <time>2021-06-20T08:02:31Z</time>
      </trkpt>
      <trkpt lat="42.215425" lon="1.320178">
        <ele>610.070</ele>
        <time>2021-06-20T08:02:36Z</time>
      </trkpt>
      <trkpt lat="42.215423" lon="1.320126">
        <ele>610.479</ele>
        <time>2021-06-20T08:02:38Z</time>
      </trkpt>
      <trkpt lat="42.215408" lon="1.320012">
        <ele>611.205</ele>
        <time>2021-06-20T08:02:43Z</time>
      </trkpt>
      <trkpt lat="42.215385" lon="1.319923">
        <ele>612.025</ele>
        <time>2021-06-20T08:02:47Z</time>
      </trkpt>
      <trkpt lat="42.215381" lon="1.319901">
        <ele>612.208</ele>
        <time>2021-06-20T08:02:48Z</time>
      </trkpt>
      <trkpt lat="42.215351" lon="1.319765">
        <ele>613.444</ele>
        <time>2021-06-20T08:02:54Z</time>
      </trkpt>
      <trkpt lat="42.215349" lon="1.319717">
        <ele>614.253</ele>
        <time>2021-06-20T08:02:56Z</time>
      </trkpt>
      <trkpt lat="42.215348" lon="1.319693">
        <ele>614.480</ele>
        <time>2021-06-20T08:02:57Z</time>
      </trkpt>
      <trkpt lat="42.215348" lon="1.319596">
        <ele>615.482</ele>
        <time>2021-06-20T08:03:01Z</time>
      </trkpt>
      <trkpt lat="42.215366" lon="1.319455">
        <ele>616.246</ele>
        <time>2021-06-20T08:03:07Z</time>
      </trkpt>
      <trkpt lat="42.215367" lon="1.319407">
        <ele>616.647</ele>
        <time>2021-06-20T08:03:09Z</time>
      </trkpt>
      <trkpt lat="42.215374" lon="1.319241">
        <ele>617.887</ele>
        <time>2021-06-20T08:03:16Z</time>
      </trkpt>
      <trkpt lat="42.215378" lon="1.319219">
        <ele>617.885</ele>
        <time>2021-06-20T08:03:17Z</time>
      </trkpt>
      <trkpt lat="42.215392" lon="1.319081">
        <ele>618.857</ele>
        <time>2021-06-20T08:03:23Z</time>
      </trkpt>
      <trkpt lat="42.215396" lon="1.319034">
        <ele>619.200</ele>
        <time>2021-06-20T08:03:25Z</time>
      </trkpt>
      <trkpt lat="42.215407" lon="1.318938">
        <ele>619.820</ele>
        <time>2021-06-20T08:03:29Z</time>
      </trkpt>
      <trkpt lat="42.215435" lon="1.318775">
        <ele>620.808</ele>
        <time>2021-06-20T08:03:36Z</time>
      </trkpt>
      <trkpt lat="42.215439" lon="1.318753">
        <ele>621.062</ele>
        <time>2021-06-20T08:03:37Z</time>
      </trkpt>
      <trkpt lat="42.215473" lon="1.318562">
        <ele>622.011</ele>
        <time>2021-06-20T08:03:45Z</time>
      </trkpt>
      <trkpt lat="42.215478" lon="1.318538">
        <ele>622.018</ele>
        <time>2021-06-20T08:03:46Z</time>
      </trkpt>
      <trkpt lat="42.215501" lon="1.318366">
        <ele>623.010</ele>
        <time>2021-06-20T08:03:53Z</time>
      </trkpt>
      <trkpt lat="42.215513" lon="1.318293">
        <ele>623.424</ele>
        <time>2021-06-20T08:03:56Z</time>
      </trkpt>
      <trkpt lat="42.215528" lon="1.318093">
        <ele>624.025</ele>
        <time>2021-06-20T08:04:04Z</time>
      </trkpt>
      <trkpt lat="42.215525" lon="1.318016">
        <ele>624.425</ele>
        <time>2021-06-20T08:04:07Z</time>
      </trkpt>
      <trkpt lat="42.215513" lon="1.317891">
        <ele>625.263</ele>
        <time>2021-06-20T08:04:12Z</time>
      </trkpt>
      <trkpt lat="42.215491" lon="1.317720">
        <ele>626.471</ele>
        <time>2021-06-20T08:04:19Z</time>
      </trkpt>
      <trkpt lat="42.215489" lon="1.317696">
        <ele>626.641</ele>
        <time>2021-06-20T08:04:20Z</time>
      </trkpt>
      <trkpt lat="42.215479" lon="1.317503">
        <ele>627.415</ele>
        <time>2021-06-20T08:04:28Z</time>
      </trkpt>
      <trkpt lat="42.215475" lon="1.317480">
        <ele>627.608</ele>
        <time>2021-06-20T08:04:29Z</time>
      </trkpt>
      <trkpt lat="42.215454" lon="1.317313">
        <ele>628.874</ele>
        <time>2021-06-20T08:04:36Z</time>
      </trkpt>
      <trkpt lat="42.215453" lon="1.317265">
        <ele>629.073</ele>
        <time>2021-06-20T08:04:38Z</time>
      </trkpt>
      <trkpt lat="42.215445" lon="1.317169">
        <ele>629.810</ele>
        <time>2021-06-20T08:04:42Z</time>
      </trkpt>
      <trkpt lat="42.215444" lon="1.317048">
        <ele>630.832</ele>
        <time>2021-06-20T08:04:47Z</time>
      </trkpt>
      <trkpt lat="42.215445" lon="1.317024">
        <ele>631.086</ele>
        <time>2021-06-20T08:04:48Z</time>
      </trkpt>
      <trkpt lat="42.215446" lon="1.316901">
        <ele>632.077</ele>
        <time>2021-06-20T08:04:53Z</time>
      </trkpt>
      <trkpt lat="42.215444" lon="1.316806">
        <ele>632.877</ele>
        <time>2021-06-20T08:04:57Z</time>
      </trkpt>
      <trkpt lat="42.215444" lon="1.316782">
        <ele>633.035</ele>
        <time>2021-06-20T08:04:58Z</time>
      </trkpt>
      <trkpt lat="42.215440" lon="1.316643">
        <ele>634.225</ele>
        <time>2021-06-20T08:05:04Z</time>
      </trkpt>
      <trkpt lat="42.215431" lon="1.316598">
        <ele>634.626</ele>
        <time>2021-06-20T08:05:06Z</time>
      </trkpt>
      <trkpt lat="42.215416" lon="1.316483">
        <ele>635.408</ele>
        <time>2021-06-20T08:05:11Z</time>
      </trkpt>
      <trkpt lat="42.215412" lon="1.316390">
        <ele>636.208</ele>
        <time>2021-06-20T08:05:15Z</time>
      </trkpt>
      <trkpt lat="42.215405" lon="1.316344">
        <ele>636.639</ele>
        <time>2021-06-20T08:05:17Z</time>
      </trkpt>
      <trkpt lat="42.215401" lon="1.316321">
        <ele>636.688</ele>
        <time>2021-06-20T08:05:18Z</time>
      </trkpt>
      <trkpt lat="42.215382" lon="1.316184">
        <ele>637.655</ele>
        <time>2021-06-20T08:05:24Z</time>
      </trkpt>
      <trkpt lat="42.215374" lon="1.316045">
        <ele>638.877</ele>
        <time>2021-06-20T08:05:30Z</time>
      </trkpt>
      <trkpt lat="42.215368" lon="1.315976">
        <ele>639.461</ele>
        <time>2021-06-20T08:05:33Z</time>
      </trkpt>
      <trkpt lat="42.215362" lon="1.315905">
        <ele>639.872</ele>
        <time>2021-06-20T08:05:36Z</time>
      </trkpt>
      <trkpt lat="42.215340" lon="1.315770">
        <ele>641.492</ele>
        <time>2021-06-20T08:05:42Z</time>
      </trkpt>
      <trkpt lat="42.215326" lon="1.315656">
        <ele>642.410</ele>
        <time>2021-06-20T08:05:47Z</time>
      </trkpt>
      <trkpt lat="42.215307" lon="1.315515">
        <ele>643.651</ele>
        <time>2021-06-20T08:05:53Z</time>
      </trkpt>
      <trkpt lat="42.215304" lon="1.315492">
        <ele>643.801</ele>
        <time>2021-06-20T08:05:54Z</time>
      </trkpt>
      <trkpt lat="42.215293" lon="1.315351">
        <ele>644.611</ele>
        <time>2021-06-20T08:06:00Z</time>
      </trkpt>
      <trkpt lat="42.215293" lon="1.315210">
        <ele>645.608</ele>
        <time>2021-06-20T08:06:06Z</time>
      </trkpt>
      <trkpt lat="42.215292" lon="1.315186">
        <ele>645.892</ele>
        <time>2021-06-20T08:06:07Z</time>
      </trkpt>
      <trkpt lat="42.215298" lon="1.315047">
        <ele>646.821</ele>
        <time>2021-06-20T08:06:13Z</time>
      </trkpt>
      <trkpt lat="42.215300" lon="1.315024">
        <ele>647.088</ele>
        <time>2021-06-20T08:06:14Z</time>
      </trkpt>
      <trkpt lat="42.215320" lon="1.314891">
        <ele>648.090</ele>
        <time>2021-06-20T08:06:20Z</time>
      </trkpt>
      <trkpt lat="42.215326" lon="1.314826">
        <ele>648.674</ele>
        <time>2021-06-20T08:06:23Z</time>
      </trkpt>
      <trkpt lat="42.215338" lon="1.314765">
        <ele>649.255</ele>
        <time>2021-06-20T08:06:26Z</time>
      </trkpt>
      <trkpt lat="42.215356" lon="1.314657">
        <ele>650.285</ele>
        <time>2021-06-20T08:06:31Z</time>
      </trkpt>
      <trkpt lat="42.215386" lon="1.314523">
        <ele>651.413</ele>
        <time>2021-06-20T08:06:37Z</time>
      </trkpt>
      <trkpt lat="42.215405" lon="1.314438">
        <ele>652.226</ele>
        <time>2021-06-20T08:06:41Z</time>
      </trkpt>
      <trkpt lat="42.215414" lon="1.314395">
        <ele>652.447</ele>
        <time>2021-06-20T08:06:43Z</time>
      </trkpt>
      <trkpt lat="42.215418" lon="1.314306">
        <ele>653.611</ele>
        <time>2021-06-20T08:06:47Z</time>
      </trkpt>
      <trkpt lat="42.215420" lon="1.314237">
        <ele>654.008</ele>
        <time>2021-06-20T08:06:50Z</time>
      </trkpt>
      <trkpt lat="42.215428" lon="1.314149">
        <ele>654.669</ele>
        <time>2021-06-20T08:06:54Z</time>
      </trkpt>
      <trkpt lat="42.215421" lon="1.314036">
        <ele>655.618</ele>
        <time>2021-06-20T08:06:59Z</time>
      </trkpt>
      <trkpt lat="42.215428" lon="1.313992">
        <ele>656.035</ele>
        <time>2021-06-20T08:07:01Z</time>
      </trkpt>
      <trkpt lat="42.215430" lon="1.313878">
        <ele>656.657</ele>
        <time>2021-06-20T08:07:06Z</time>
      </trkpt>
      <trkpt lat="42.215433" lon="1.313834">
        <ele>657.281</ele>
        <time>2021-06-20T08:07:08Z</time>
      </trkpt>
      <trkpt lat="42.215430" lon="1.313811">
        <ele>657.452</ele>
        <time>2021-06-20T08:07:09Z</time>
      </trkpt>
      <trkpt lat="42.215426" lon="1.313767">
        <ele>657.812</ele>
        <time>2021-06-20T08:07:11Z</time>
      </trkpt>
      <trkpt lat="42.215432" lon="1.313723">
        <ele>658.220</ele>
        <time>2021-06-20T08:07:13Z</time>
      </trkpt>
      <trkpt lat="42.215437" lon="1.313613">
        <ele>659.258</ele>
        <time>2021-06-20T08:07:18Z</time>
      </trkpt>
      <trkpt lat="42.215436" lon="1.313590">
        <ele>659.452</ele>
        <time>2021-06-20T08:07:19Z</time>
      </trkpt>
      <trkpt lat="42.215454" lon="1.313455">
        <ele>660.417</ele>
        <time>2021-06-20T08:07:25Z</time>
      </trkpt>
      <trkpt lat="42.215462" lon="1.313408">
        <ele>660.808</ele>
        <time>2021-06-20T08:07:27Z</time>
      </trkpt>
      <trkpt lat="42.215474" lon="1.313289">
        <ele>661.412</ele>
        <time>2021-06-20T08:07:32Z</time>
      </trkpt>
      <trkpt lat="42.215482" lon="1.313193">
        <ele>662.221</ele>
        <time>2021-06-20T08:07:36Z</time>
      </trkpt>
      <trkpt lat="42.215497" lon="1.313076">
        <ele>662.838</ele>
        <time>2021-06-20T08:07:41Z</time>
      </trkpt>
      <trkpt lat="42.215515" lon="1.312961">
        <ele>663.420</ele>
        <time>2021-06-20T08:07:46Z</time>
      </trkpt>
      <trkpt lat="42.215522" lon="1.312889">
        <ele>663.814</ele>
        <time>2021-06-20T08:07:49Z</time>
      </trkpt>
      <trkpt lat="42.215531" lon="1.312695">
        <ele>664.895</ele>
        <time>2021-06-20T08:07:57Z</time>
      </trkpt>
      <trkpt lat="42.215535" lon="1.312646">
        <ele>665.085</ele>
        <time>2021-06-20T08:07:59Z</time>
      </trkpt>
      <trkpt lat="42.215537" lon="1.312523">
        <ele>666.263</ele>
        <time>2021-06-20T08:08:04Z</time>
      </trkpt>
      <trkpt lat="42.215541" lon="1.312347">
        <ele>666.868</ele>
        <time>2021-06-20T08:08:11Z</time>
      </trkpt>
      <trkpt lat="42.215539" lon="1.312274">
        <ele>667.242</ele>
        <time>2021-06-20T08:08:14Z</time>
      </trkpt>
      <trkpt lat="42.215543" lon="1.312128">
        <ele>667.826</ele>
        <time>2021-06-20T08:08:20Z</time>
      </trkpt>
      <trkpt lat="42.215545" lon="1.312080">
        <ele>668.208</ele>
        <time>2021-06-20T08:08:22Z</time>
      </trkpt>
      <trkpt lat="42.215550" lon="1.311906">
        <ele>669.073</ele>
        <time>2021-06-20T08:08:29Z</time>
      </trkpt>
      <trkpt lat="42.215550" lon="1.311853">
        <ele>669.272</ele>
        <time>2021-06-20T08:08:31Z</time>
      </trkpt>
      <trkpt lat="42.215558" lon="1.311677">
        <ele>670.099</ele>
        <time>2021-06-20T08:08:38Z</time>
      </trkpt>
      <trkpt lat="42.215561" lon="1.311625">
        <ele>670.291</ele>
        <time>2021-06-20T08:08:40Z</time>
      </trkpt>
      <trkpt lat="42.215570" lon="1.311476">
        <ele>671.045</ele>
        <time>2021-06-20T08:08:46Z</time>
      </trkpt>
      <trkpt lat="42.215577" lon="1.311399">
        <ele>671.226</ele>
        <time>2021-06-20T08:08:49Z</time>
      </trkpt>
      <trkpt lat="42.215596" lon="1.311226">
        <ele>672.056</ele>
        <time>2021-06-20T08:08:56Z</time>
      </trkpt>
      <trkpt lat="42.215607" lon="1.311153">
        <ele>672.434</ele>
        <time>2021-06-20T08:08:59Z</time>
      </trkpt>
      <trkpt lat="42.215657" lon="1.310938">
        <ele>673.487</ele>
        <time>2021-06-20T08:09:08Z</time>
      </trkpt>
      <trkpt lat="42.215665" lon="1.310915">
        <ele>673.442</ele>
        <time>2021-06-20T08:09:09Z</time>
      </trkpt>
      <trkpt lat="42.215751" lon="1.310694">
        <ele>674.226</ele>
        <time>2021-06-20T08:09:19Z</time>
      </trkpt>
      <trkpt lat="42.215771" lon="1.310650">
        <ele>674.408</ele>
        <time>2021-06-20T08:09:21Z</time>
      </trkpt>
      <trkpt lat="42.215855" lon="1.310479">
        <ele>675.075</ele>
        <time>2021-06-20T08:09:29Z</time>
      </trkpt>
      <trkpt lat="42.215903" lon="1.310400">
        <ele>675.614</ele>
        <time>2021-06-20T08:09:33Z</time>
      </trkpt>
      <trkpt lat="42.215976" lon="1.310331">
        <ele>676.021</ele>
        <time>2021-06-20T08:09:38Z</time>
      </trkpt>
      <trkpt lat="42.216096" lon="1.310270">
        <ele>676.613</ele>
        <time>2021-06-20T08:09:45Z</time>
      </trkpt>
      <trkpt lat="42.216195" lon="1.310130">
        <ele>677.647</ele>
        <time>2021-06-20T08:09:53Z</time>
      </trkpt>
      <trkpt lat="42.216200" lon="1.310106">
        <ele>677.828</ele>
        <time>2021-06-20T08:09:54Z</time>
      </trkpt>
      <trkpt lat="42.216206" lon="1.310058">
        <ele>678.218</ele>
        <time>2021-06-20T08:09:56Z</time>
      </trkpt>
      <trkpt lat="42.216196" lon="1.310008">
        <ele>679.036</ele>
        <time>2021-06-20T08:09:58Z</time>
      </trkpt>
      <trkpt lat="42.216185" lon="1.309957">
        <ele>679.499</ele>
        <time>2021-06-20T08:10:00Z</time>
      </trkpt>
      <trkpt lat="42.216135" lon="1.309845">
        <ele>680.207</ele>
        <time>2021-06-20T08:10:05Z</time>
      </trkpt>
      <trkpt lat="42.216123" lon="1.309823">
        <ele>680.227</ele>
        <time>2021-06-20T08:10:06Z</time>
      </trkpt>
      <trkpt lat="42.216008" lon="1.309691">
        <ele>681.008</ele>
        <time>2021-06-20T08:10:13Z</time>
      </trkpt>
      <trkpt lat="42.215991" lon="1.309671">
        <ele>681.236</ele>
        <time>2021-06-20T08:10:14Z</time>
      </trkpt>
      <trkpt lat="42.215869" lon="1.309597">
        <ele>681.665</ele>
        <time>2021-06-20T08:10:20Z</time>
      </trkpt>
      <trkpt lat="42.215756" lon="1.309664">
        <ele>682.022</ele>
        <time>2021-06-20T08:10:26Z</time>
      </trkpt>
      <trkpt lat="42.215701" lon="1.309734">
        <ele>682.224</ele>
        <time>2021-06-20T08:10:30Z</time>
      </trkpt>
      <trkpt lat="42.215663" lon="1.309790">
        <ele>682.638</ele>
        <time>2021-06-20T08:10:33Z</time>
      </trkpt>
      <trkpt lat="42.215621" lon="1.309842">
        <ele>683.489</ele>
        <time>2021-06-20T08:10:36Z</time>
      </trkpt>
      <trkpt lat="42.215570" lon="1.309920">
        <ele>683.829</ele>
        <time>2021-06-20T08:10:40Z</time>
      </trkpt>
      <trkpt lat="42.215514" lon="1.309990">
        <ele>684.437</ele>
        <time>2021-06-20T08:10:44Z</time>
      </trkpt>
      <trkpt lat="42.215385" lon="1.310139">
        <ele>685.649</ele>
        <time>2021-06-20T08:10:53Z</time>
      </trkpt>
      <trkpt lat="42.215373" lon="1.310157">
        <ele>685.602</ele>
        <time>2021-06-20T08:10:54Z</time>
      </trkpt>
      <trkpt lat="42.215291" lon="1.310291">
        <ele>686.622</ele>
        <time>2021-06-20T08:11:01Z</time>
      </trkpt>
      <trkpt lat="42.215244" lon="1.310370">
        <ele>687.008</ele>
        <time>2021-06-20T08:11:05Z</time>
      </trkpt>
      <trkpt lat="42.215199" lon="1.310484">
        <ele>687.851</ele>
        <time>2021-06-20T08:11:10Z</time>
      </trkpt>
      <trkpt lat="42.215182" lon="1.310530">
        <ele>688.040</ele>
        <time>2021-06-20T08:11:12Z</time>
      </trkpt>
      <trkpt lat="42.215115" lon="1.310735">
        <ele>689.037</ele>
        <time>2021-06-20T08:11:21Z</time>
      </trkpt>
      <trkpt lat="42.215039" lon="1.310930">
        <ele>690.219</ele>
        <time>2021-06-20T08:11:30Z</time>
      </trkpt>
      <trkpt lat="42.214982" lon="1.311087">
        <ele>691.053</ele>
        <time>2021-06-20T08:11:37Z</time>
      </trkpt>
      <trkpt lat="42.214973" lon="1.311108">
        <ele>691.264</ele>
        <time>2021-06-20T08:11:38Z</time>
      </trkpt>
      <trkpt lat="42.214935" lon="1.311218">
        <ele>691.884</ele>
        <time>2021-06-20T08:11:43Z</time>
      </trkpt>
      <trkpt lat="42.214911" lon="1.311286">
        <ele>692.252</ele>
        <time>2021-06-20T08:11:46Z</time>
      </trkpt>
      <trkpt lat="42.214869" lon="1.311393">
        <ele>692.888</ele>
        <time>2021-06-20T08:11:51Z</time>
      </trkpt>
      <trkpt lat="42.214836" lon="1.311480">
        <ele>693.424</ele>
        <time>2021-06-20T08:11:55Z</time>
      </trkpt>
      <trkpt lat="42.214792" lon="1.311609">
        <ele>694.026</ele>
        <time>2021-06-20T08:12:01Z</time>
      </trkpt>
      <trkpt lat="42.214747" lon="1.311682">
        <ele>694.408</ele>
        <time>2021-06-20T08:12:05Z</time>
      </trkpt>
      <trkpt lat="42.214687" lon="1.311732">
        <ele>695.015</ele>
        <time>2021-06-20T08:12:09Z</time>
      </trkpt>
      <trkpt lat="42.214609" lon="1.311791">
        <ele>695.454</ele>
        <time>2021-06-20T08:12:14Z</time>
      </trkpt>
      <trkpt lat="42.214557" lon="1.311811">
        <ele>695.821</ele>
        <time>2021-06-20T08:12:17Z</time>
      </trkpt>
      <trkpt lat="42.214470" lon="1.311836">
        <ele>696.453</ele>
        <time>2021-06-20T08:12:22Z</time>
      </trkpt>
      <trkpt lat="42.214417" lon="1.311857">
        <ele>696.827</ele>
        <time>2021-06-20T08:12:25Z</time>
      </trkpt>
      <trkpt lat="42.214342" lon="1.311882">
        <ele>697.298</ele>
        <time>2021-06-20T08:12:29Z</time>
      </trkpt>
      <trkpt lat="42.214229" lon="1.311918">
        <ele>697.898</ele>
        <time>2021-06-20T08:12:35Z</time>
      </trkpt>
      <trkpt lat="42.214189" lon="1.311922">
        <ele>698.016</ele>
        <time>2021-06-20T08:12:37Z</time>
      </trkpt>
      <trkpt lat="42.213983" lon="1.312008">
        <ele>698.899</ele>
        <time>2021-06-20T08:12:47Z</time>
      </trkpt>
      <trkpt lat="42.213962" lon="1.312012">
        <ele>698.807</ele>
        <time>2021-06-20T08:12:48Z</time>
      </trkpt>
      <trkpt lat="42.213778" lon="1.312033">
        <ele>699.427</ele>
        <time>2021-06-20T08:12:56Z</time>
      </trkpt>
      <trkpt lat="42.213521" lon="1.312088">
        <ele>699.808</ele>
        <time>2021-06-20T08:13:05Z</time>
      </trkpt>
      <trkpt lat="42.213252" lon="1.312136">
        <ele>699.856</ele>
        <time>2021-06-20T08:13:14Z</time>
      </trkpt>
      <trkpt lat="42.213223" lon="1.312145">
        <ele>699.845</ele>
        <time>2021-06-20T08:13:15Z</time>
      </trkpt>
      <trkpt lat="42.213018" lon="1.312190">
        <ele>700.272</ele>
        <time>2021-06-20T08:13:22Z</time>
      </trkpt>
      <trkpt lat="42.212830" lon="1.312237">
        <ele>701.024</ele>
        <time>2021-06-20T08:13:29Z</time>
      </trkpt>
      <trkpt lat="42.212642" lon="1.312275">
        <ele>701.498</ele>
        <time>2021-06-20T08:13:36Z</time>
      </trkpt>
      <trkpt lat="42.212474" lon="1.312302">
        <ele>702.059</ele>
        <time>2021-06-20T08:13:42Z</time>
      </trkpt>
      <trkpt lat="42.212301" lon="1.312320">
        <ele>702.279</ele>
        <time>2021-06-20T08:13:48Z</time>
      </trkpt>
      <trkpt lat="42.211943" lon="1.312330">
        <ele>702.877</ele>
        <time>2021-06-20T08:14:00Z</time>
      </trkpt>
      <trkpt lat="42.211771" lon="1.312291">
        <ele>703.033</ele>
        <time>2021-06-20T08:14:06Z</time>
      </trkpt>
      <trkpt lat="42.211744" lon="1.312281">
        <ele>703.023</ele>
        <time>2021-06-20T08:14:07Z</time>
      </trkpt>
      <trkpt lat="42.211549" lon="1.312149">
        <ele>703.815</ele>
        <time>2021-06-20T08:14:15Z</time>
      </trkpt>
      <trkpt lat="42.211520" lon="1.312130">
        <ele>704.208</ele>
        <time>2021-06-20T08:14:16Z</time>
      </trkpt>
      <trkpt lat="42.211372" lon="1.312019">
        <ele>705.480</ele>
        <time>2021-06-20T08:14:21Z</time>
      </trkpt>
      <trkpt lat="42.211205" lon="1.311892">
        <ele>706.649</ele>
        <time>2021-06-20T08:14:28Z</time>
      </trkpt>
      <trkpt lat="42.211075" lon="1.311793">
        <ele>707.676</ele>
        <time>2021-06-20T08:14:33Z</time>
      </trkpt>
      <trkpt lat="42.210927" lon="1.311706">
        <ele>708.248</ele>
        <time>2021-06-20T08:14:38Z</time>
      </trkpt>
      <trkpt lat="42.210648" lon="1.311623">
        <ele>708.692</ele>
        <time>2021-06-20T08:14:46Z</time>
      </trkpt>
      <trkpt lat="42.210467" lon="1.311621">
        <ele>708.613</ele>
        <time>2021-06-20T08:14:51Z</time>
      </trkpt>
      <trkpt lat="42.210324" lon="1.311652">
        <ele>708.813</ele>
        <time>2021-06-20T08:14:55Z</time>
      </trkpt>
      <trkpt lat="42.210021" lon="1.311735">
        <ele>709.271</ele>
        <time>2021-06-20T08:15:04Z</time>
      </trkpt>
      <trkpt lat="42.209919" lon="1.311777">
        <ele>709.629</ele>
        <time>2021-06-20T08:15:07Z</time>
      </trkpt>
      <trkpt lat="42.209708" lon="1.311873">
        <ele>710.200</ele>
        <time>2021-06-20T08:15:13Z</time>
      </trkpt>
      <trkpt lat="42.209472" lon="1.311971">
        <ele>710.420</ele>
        <time>2021-06-20T08:15:20Z</time>
      </trkpt>
      <trkpt lat="42.209302" lon="1.312043">
        <ele>710.808</ele>
        <time>2021-06-20T08:15:25Z</time>
      </trkpt>
      <trkpt lat="42.209041" lon="1.312144">
        <ele>711.499</ele>
        <time>2021-06-20T08:15:33Z</time>
      </trkpt>
      <trkpt lat="42.208944" lon="1.312160">
        <ele>711.858</ele>
        <time>2021-06-20T08:15:36Z</time>
      </trkpt>
      <trkpt lat="42.208781" lon="1.312086">
        <ele>712.085</ele>
        <time>2021-06-20T08:15:41Z</time>
      </trkpt>
      <trkpt lat="42.208622" lon="1.311887">
        <ele>712.437</ele>
        <time>2021-06-20T08:15:48Z</time>
      </trkpt>
      <trkpt lat="42.208584" lon="1.311827">
        <ele>712.641</ele>
        <time>2021-06-20T08:15:50Z</time>
      </trkpt>
      <trkpt lat="42.208454" lon="1.311654">
        <ele>713.242</ele>
        <time>2021-06-20T08:15:56Z</time>
      </trkpt>
      <trkpt lat="42.208380" lon="1.311574">
        <ele>713.632</ele>
        <time>2021-06-20T08:15:59Z</time>
      </trkpt>
      <trkpt lat="42.208223" lon="1.311456">
        <ele>714.220</ele>
        <time>2021-06-20T08:16:04Z</time>
      </trkpt>
      <trkpt lat="42.207953" lon="1.311347">
        <ele>714.424</ele>
        <time>2021-06-20T08:16:11Z</time>
      </trkpt>
      <trkpt lat="42.207650" lon="1.311237">
        <ele>714.404</ele>
        <time>2021-06-20T08:16:19Z</time>
      </trkpt>
      <trkpt lat="42.207579" lon="1.311209">
        <ele>714.614</ele>
        <time>2021-06-20T08:16:21Z</time>
      </trkpt>
      <trkpt lat="42.207376" lon="1.311120">
        <ele>715.208</ele>
        <time>2021-06-20T08:16:27Z</time>
      </trkpt>
      <trkpt lat="42.207257" lon="1.311050">
        <ele>715.819</ele>
        <time>2021-06-20T08:16:31Z</time>
      </trkpt>
      <trkpt lat="42.207159" lon="1.310962">
        <ele>716.258</ele>
        <time>2021-06-20T08:16:35Z</time>
      </trkpt>
      <trkpt lat="42.207041" lon="1.310834">
        <ele>716.845</ele>
        <time>2021-06-20T08:16:40Z</time>
      </trkpt>
      <trkpt lat="42.206930" lon="1.310668">
        <ele>717.667</ele>
        <time>2021-06-20T08:16:45Z</time>
      </trkpt>
      <trkpt lat="42.206801" lon="1.310380">
        <ele>717.671</ele>
        <time>2021-06-20T08:16:52Z</time>
      </trkpt>
      <trkpt lat="42.206721" lon="1.310056">
        <ele>717.882</ele>
        <time>2021-06-20T08:17:00Z</time>
      </trkpt>
      <trkpt lat="42.206582" lon="1.309849">
        <ele>719.072</ele>
        <time>2021-06-20T08:17:07Z</time>
      </trkpt>
      <trkpt lat="42.206392" lon="1.309709">
        <ele>719.830</ele>
        <time>2021-06-20T08:17:14Z</time>
      </trkpt>
      <trkpt lat="42.206336" lon="1.309674">
        <ele>720.016</ele>
        <time>2021-06-20T08:17:16Z</time>
      </trkpt>
      <trkpt lat="42.206179" lon="1.309595">
        <ele>720.276</ele>
        <time>2021-06-20T08:17:22Z</time>
      </trkpt>
      <trkpt lat="42.206094" lon="1.309558">
        <ele>720.813</ele>
        <time>2021-06-20T08:17:26Z</time>
      </trkpt>
      <trkpt lat="42.206011" lon="1.309523">
        <ele>721.808</ele>
        <time>2021-06-20T08:17:30Z</time>
      </trkpt>
      <trkpt lat="42.205989" lon="1.309514">
        <ele>722.028</ele>
        <time>2021-06-20T08:17:31Z</time>
      </trkpt>
      <trkpt lat="42.205883" lon="1.309467">
        <ele>723.077</ele>
        <time>2021-06-20T08:17:36Z</time>
      </trkpt>
      <trkpt lat="42.205860" lon="1.309466">
        <ele>723.294</ele>
        <time>2021-06-20T08:17:37Z</time>
      </trkpt>
      <trkpt lat="42.205793" lon="1.309475">
        <ele>724.066</ele>
        <time>2021-06-20T08:17:40Z</time>
      </trkpt>
      <trkpt lat="42.205667" lon="1.309533">
        <ele>725.020</ele>
        <time>2021-06-20T08:17:46Z</time>
      </trkpt>
      <trkpt lat="42.205572" lon="1.309596">
        <ele>726.421</ele>
        <time>2021-06-20T08:17:51Z</time>
      </trkpt>
      <trkpt lat="42.205532" lon="1.309611">
        <ele>726.671</ele>
        <time>2021-06-20T08:17:53Z</time>
      </trkpt>
      <trkpt lat="42.205460" lon="1.309637">
        <ele>727.639</ele>
        <time>2021-06-20T08:17:57Z</time>
      </trkpt>
      <trkpt lat="42.205366" lon="1.309656">
        <ele>728.068</ele>
        <time>2021-06-20T08:18:02Z</time>
      </trkpt>
      <trkpt lat="42.205328" lon="1.309661">
        <ele>728.642</ele>
        <time>2021-06-20T08:18:04Z</time>
      </trkpt>
      <trkpt lat="42.205195" lon="1.309661">
        <ele>729.626</ele>
        <time>2021-06-20T08:18:11Z</time>
      </trkpt>
      <trkpt lat="42.205084" lon="1.309681">
        <ele>730.608</ele>
        <time>2021-06-20T08:18:17Z</time>
      </trkpt>
      <trkpt lat="42.205028" lon="1.309692">
        <ele>731.023</ele>
        <time>2021-06-20T08:18:20Z</time>
      </trkpt>
      <trkpt lat="42.204973" lon="1.309711">
        <ele>731.682</ele>
        <time>2021-06-20T08:18:23Z</time>
      </trkpt>
      <trkpt lat="42.204859" lon="1.309744">
        <ele>732.839</ele>
        <time>2021-06-20T08:18:29Z</time>
      </trkpt>
      <trkpt lat="42.204822" lon="1.309761">
        <ele>733.211</ele>
        <time>2021-06-20T08:18:31Z</time>
      </trkpt>
      <trkpt lat="42.204647" lon="1.309783">
        <ele>734.025</ele>
        <time>2021-06-20T08:18:40Z</time>
      </trkpt>
      <trkpt lat="42.204535" lon="1.309659">
        <ele>734.226</ele>
        <time>2021-06-20T08:18:47Z</time>
      </trkpt>
      <trkpt lat="42.204467" lon="1.309480">
        <ele>734.066</ele>
        <time>2021-06-20T08:18:51Z</time>
      </trkpt>
      <trkpt lat="42.204359" lon="1.309106">
        <ele>733.244</ele>
        <time>2021-06-20T08:18:56Z</time>
      </trkpt>
      <trkpt lat="42.204331" lon="1.309020">
        <ele>732.851</ele>
        <time>2021-06-20T08:18:57Z</time>
      </trkpt>
      <trkpt lat="42.204272" lon="1.308841">
        <ele>731.601</ele>
        <time>2021-06-20T08:18:59Z</time>
      </trkpt>
      <trkpt lat="42.204236" lon="1.308752">
        <ele>731.011</ele>
        <time>2021-06-20T08:19:00Z</time>
      </trkpt>
      <trkpt lat="42.204194" lon="1.308667">
        <ele>730.208</ele>
        <time>2021-06-20T08:19:01Z</time>
      </trkpt>
      <trkpt lat="42.204147" lon="1.308586">
        <ele>729.632</ele>
        <time>2021-06-20T08:19:02Z</time>
      </trkpt>
      <trkpt lat="42.204098" lon="1.308510">
        <ele>728.891</ele>
        <time>2021-06-20T08:19:03Z</time>
      </trkpt>
      <trkpt lat="42.204011" lon="1.308354">
        <ele>727.468</ele>
        <time>2021-06-20T08:19:05Z</time>
      </trkpt>
      <trkpt lat="42.203947" lon="1.308194">
        <ele>726.270</ele>
        <time>2021-06-20T08:19:07Z</time>
      </trkpt>
      <trkpt lat="42.203901" lon="1.308039">
        <ele>725.694</ele>
        <time>2021-06-20T08:19:09Z</time>
      </trkpt>
      <trkpt lat="42.203835" lon="1.307841">
        <ele>725.495</ele>
        <time>2021-06-20T08:19:12Z</time>
      </trkpt>
      <trkpt lat="42.203701" lon="1.307562">
        <ele>725.625</ele>
        <time>2021-06-20T08:19:18Z</time>
      </trkpt>
      <trkpt lat="42.203640" lon="1.307312">
        <ele>727.293</ele>
        <time>2021-06-20T08:19:23Z</time>
      </trkpt>
      <trkpt lat="42.203629" lon="1.307260">
        <ele>727.497</ele>
        <time>2021-06-20T08:19:24Z</time>
      </trkpt>
      <trkpt lat="42.203529" lon="1.306707">
        <ele>728.023</ele>
        <time>2021-06-20T08:19:35Z</time>
      </trkpt>
      <trkpt lat="42.203496" lon="1.306512">
        <ele>728.225</ele>
        <time>2021-06-20T08:19:39Z</time>
      </trkpt>
      <trkpt lat="42.203434" lon="1.306175">
        <ele>728.808</ele>
        <time>2021-06-20T08:19:46Z</time>
      </trkpt>
      <trkpt lat="42.203439" lon="1.305831">
        <ele>728.866</ele>
        <time>2021-06-20T08:19:53Z</time>
      </trkpt>
      <trkpt lat="42.203484" lon="1.305598">
        <ele>728.845</ele>
        <time>2021-06-20T08:19:59Z</time>
      </trkpt>
      <trkpt lat="42.203499" lon="1.305521">
        <ele>729.032</ele>
        <time>2021-06-20T08:20:01Z</time>
      </trkpt>
      <trkpt lat="42.203524" lon="1.305382">
        <ele>729.654</ele>
        <time>2021-06-20T08:20:05Z</time>
      </trkpt>
      <trkpt lat="42.203557" lon="1.305114">
        <ele>730.048</ele>
        <time>2021-06-20T08:20:11Z</time>
      </trkpt>
      <trkpt lat="42.203533" lon="1.304644">
        <ele>730.099</ele>
        <time>2021-06-20T08:20:20Z</time>
      </trkpt>
      <trkpt lat="42.203440" lon="1.304270">
        <ele>730.089</ele>
        <time>2021-06-20T08:20:28Z</time>
      </trkpt>
      <trkpt lat="42.203428" lon="1.304224">
        <ele>730.087</ele>
        <time>2021-06-20T08:20:29Z</time>
      </trkpt>
      <trkpt lat="42.203308" lon="1.303939">
        <ele>730.476</ele>
        <time>2021-06-20T08:20:36Z</time>
      </trkpt>
      <trkpt lat="42.203137" lon="1.303868">
        <ele>731.090</ele>
        <time>2021-06-20T08:20:41Z</time>
      </trkpt>
      <trkpt lat="42.202922" lon="1.303786">
        <ele>732.019</ele>
        <time>2021-06-20T08:20:48Z</time>
      </trkpt>
      <trkpt lat="42.202896" lon="1.303754">
        <ele>732.208</ele>
        <time>2021-06-20T08:20:49Z</time>
      </trkpt>
      <trkpt lat="42.202830" lon="1.303580">
        <ele>732.464</ele>
        <time>2021-06-20T08:20:53Z</time>
      </trkpt>
      <trkpt lat="42.202746" lon="1.303124">
        <ele>732.053</ele>
        <time>2021-06-20T08:21:01Z</time>
      </trkpt>
      <trkpt lat="42.202698" lon="1.302679">
        <ele>731.670</ele>
        <time>2021-06-20T08:21:09Z</time>
      </trkpt>
      <trkpt lat="42.202742" lon="1.302405">
        <ele>731.662</ele>
        <time>2021-06-20T08:21:15Z</time>
      </trkpt>
      <trkpt lat="42.202821" lon="1.302155">
        <ele>732.636</ele>
        <time>2021-06-20T08:21:23Z</time>
      </trkpt>
      <trkpt lat="42.202844" lon="1.302061">
        <ele>733.297</ele>
        <time>2021-06-20T08:21:26Z</time>
      </trkpt>
      <trkpt lat="42.202845" lon="1.301932">
        <ele>734.097</ele>
        <time>2021-06-20T08:21:30Z</time>
      </trkpt>
      <trkpt lat="42.202837" lon="1.301869">
        <ele>734.455</ele>
        <time>2021-06-20T08:21:32Z</time>
      </trkpt>
      <trkpt lat="42.202804" lon="1.301724">
        <ele>735.066</ele>
        <time>2021-06-20T08:21:37Z</time>
      </trkpt>
      <trkpt lat="42.202788" lon="1.301671">
        <ele>735.429</ele>
        <time>2021-06-20T08:21:39Z</time>
      </trkpt>
      <trkpt lat="42.202753" lon="1.301534">
        <ele>736.421</ele>
        <time>2021-06-20T08:21:44Z</time>
      </trkpt>
      <trkpt lat="42.202748" lon="1.301476">
        <ele>736.808</ele>
        <time>2021-06-20T08:21:46Z</time>
      </trkpt>
      <trkpt lat="42.202736" lon="1.301270">
        <ele>737.643</ele>
        <time>2021-06-20T08:21:53Z</time>
      </trkpt>
      <trkpt lat="42.202729" lon="1.301152">
        <ele>738.232</ele>
        <time>2021-06-20T08:21:57Z</time>
      </trkpt>
      <trkpt lat="42.202727" lon="1.301034">
        <ele>738.629</ele>
        <time>2021-06-20T08:22:01Z</time>
      </trkpt>
      <trkpt lat="42.202743" lon="1.300918">
        <ele>739.031</ele>
        <time>2021-06-20T08:22:05Z</time>
      </trkpt>
      <trkpt lat="42.202820" lon="1.300743">
        <ele>739.835</ele>
        <time>2021-06-20T08:22:12Z</time>
      </trkpt>
      <trkpt lat="42.202838" lon="1.300726">
        <ele>739.836</ele>
        <time>2021-06-20T08:22:13Z</time>
      </trkpt>
      <trkpt lat="42.203000" lon="1.300636">
        <ele>740.826</ele>
        <time>2021-06-20T08:22:21Z</time>
      </trkpt>
      <trkpt lat="42.203021" lon="1.300627">
        <ele>741.094</ele>
        <time>2021-06-20T08:22:22Z</time>
      </trkpt>
      <trkpt lat="42.203128" lon="1.300576">
        <ele>741.663</ele>
        <time>2021-06-20T08:22:27Z</time>
      </trkpt>
      <trkpt lat="42.203185" lon="1.300543">
        <ele>742.044</ele>
        <time>2021-06-20T08:22:30Z</time>
      </trkpt>
      <trkpt lat="42.203267" lon="1.300502">
        <ele>742.418</ele>
        <time>2021-06-20T08:22:34Z</time>
      </trkpt>
      <trkpt lat="42.203359" lon="1.300416">
        <ele>743.408</ele>
        <time>2021-06-20T08:22:39Z</time>
      </trkpt>
      <trkpt lat="42.203425" lon="1.300237">
        <ele>744.473</ele>
        <time>2021-06-20T08:22:46Z</time>
      </trkpt>
      <trkpt lat="42.203391" lon="1.300064">
        <ele>745.632</ele>
        <time>2021-06-20T08:22:52Z</time>
      </trkpt>
      <trkpt lat="42.203281" lon="1.299793">
        <ele>746.449</ele>
        <time>2021-06-20T08:23:01Z</time>
      </trkpt>
      <trkpt lat="42.203270" lon="1.299762">
        <ele>746.441</ele>
        <time>2021-06-20T08:23:02Z</time>
      </trkpt>
      <trkpt lat="42.203256" lon="1.299605">
        <ele>746.815</ele>
        <time>2021-06-20T08:23:07Z</time>
      </trkpt>
      <trkpt lat="42.203343" lon="1.299436">
        <ele>747.696</ele>
        <time>2021-06-20T08:23:14Z</time>
      </trkpt>
      <trkpt lat="42.203475" lon="1.299276">
        <ele>748.466</ele>
        <time>2021-06-20T08:23:22Z</time>
      </trkpt>
      <trkpt lat="42.203509" lon="1.299240">
        <ele>748.874</ele>
        <time>2021-06-20T08:23:24Z</time>
      </trkpt>
      <trkpt lat="42.203597" lon="1.299169">
        <ele>749.663</ele>
        <time>2021-06-20T08:23:29Z</time>
      </trkpt>
      <trkpt lat="42.203647" lon="1.299128">
        <ele>750.244</ele>
        <time>2021-06-20T08:23:32Z</time>
      </trkpt>
      <trkpt lat="42.203697" lon="1.299089">
        <ele>750.818</ele>
        <time>2021-06-20T08:23:35Z</time>
      </trkpt>
      <trkpt lat="42.203787" lon="1.299015">
        <ele>751.608</ele>
        <time>2021-06-20T08:23:41Z</time>
      </trkpt>
      <trkpt lat="42.203803" lon="1.299001">
        <ele>752.083</ele>
        <time>2021-06-20T08:23:42Z</time>
      </trkpt>
      <trkpt lat="42.203892" lon="1.298925">
        <ele>752.492</ele>
        <time>2021-06-20T08:23:48Z</time>
      </trkpt>
      <trkpt lat="42.203916" lon="1.298891">
        <ele>752.899</ele>
        <time>2021-06-20T08:23:50Z</time>
      </trkpt>
      <trkpt lat="42.203954" lon="1.298807">
        <ele>753.441</ele>
        <time>2021-06-20T08:23:54Z</time>
      </trkpt>
      <trkpt lat="42.203959" lon="1.298757">
        <ele>753.895</ele>
        <time>2021-06-20T08:23:56Z</time>
      </trkpt>
      <trkpt lat="42.203959" lon="1.298627">
        <ele>754.616</ele>
        <time>2021-06-20T08:24:01Z</time>
      </trkpt>
      <trkpt lat="42.203944" lon="1.298576">
        <ele>755.026</ele>
        <time>2021-06-20T08:24:03Z</time>
      </trkpt>
      <trkpt lat="42.203924" lon="1.298453">
        <ele>755.844</ele>
        <time>2021-06-20T08:24:08Z</time>
      </trkpt>
      <trkpt lat="42.203927" lon="1.298381">
        <ele>756.221</ele>
        <time>2021-06-20T08:24:11Z</time>
      </trkpt>
      <trkpt lat="42.203940" lon="1.298313">
        <ele>756.441</ele>
        <time>2021-06-20T08:24:14Z</time>
      </trkpt>
      <trkpt lat="42.203966" lon="1.298226">
        <ele>757.005</ele>
        <time>2021-06-20T08:24:18Z</time>
      </trkpt>
      <trkpt lat="42.203989" lon="1.298160">
        <ele>757.408</ele>
        <time>2021-06-20T08:24:21Z</time>
      </trkpt>
      <trkpt lat="42.204018" lon="1.298067">
        <ele>758.049</ele>
        <time>2021-06-20T08:24:25Z</time>
      </trkpt>
      <trkpt lat="42.204050" lon="1.297971">
        <ele>758.618</ele>
        <time>2021-06-20T08:24:29Z</time>
      </trkpt>
      <trkpt lat="42.204064" lon="1.297889">
        <ele>759.245</ele>
        <time>2021-06-20T08:24:32Z</time>
      </trkpt>
      <trkpt lat="42.204069" lon="1.297833">
        <ele>759.427</ele>
        <time>2021-06-20T08:24:34Z</time>
      </trkpt>
      <trkpt lat="42.204058" lon="1.297700">
        <ele>759.811</ele>
        <time>2021-06-20T08:24:39Z</time>
      </trkpt>
      <trkpt lat="42.204048" lon="1.297679">
        <ele>759.872</ele>
        <time>2021-06-20T08:24:40Z</time>
      </trkpt>
      <trkpt lat="42.204021" lon="1.297613">
        <ele>760.022</ele>
        <time>2021-06-20T08:24:43Z</time>
      </trkpt>
      <trkpt lat="42.203970" lon="1.297540">
        <ele>760.650</ele>
        <time>2021-06-20T08:24:47Z</time>
      </trkpt>
      <trkpt lat="42.203930" lon="1.297486">
        <ele>761.293</ele>
        <time>2021-06-20T08:24:50Z</time>
      </trkpt>
      <trkpt lat="42.203866" lon="1.297428">
        <ele>761.665</ele>
        <time>2021-06-20T08:24:54Z</time>
      </trkpt>
      <trkpt lat="42.203821" lon="1.297381">
        <ele>762.221</ele>
        <time>2021-06-20T08:24:57Z</time>
      </trkpt>
      <trkpt lat="42.203728" lon="1.297303">
        <ele>763.008</ele>
        <time>2021-06-20T08:25:03Z</time>
      </trkpt>
      <trkpt lat="42.203629" lon="1.297162">
        <ele>764.226</ele>
        <time>2021-06-20T08:25:11Z</time>
      </trkpt>
      <trkpt lat="42.203620" lon="1.297141">
        <ele>764.415</ele>
        <time>2021-06-20T08:25:12Z</time>
      </trkpt>
      <trkpt lat="42.203601" lon="1.296971">
        <ele>765.092</ele>
        <time>2021-06-20T08:25:19Z</time>
      </trkpt>
      <trkpt lat="42.203631" lon="1.296771">
        <ele>766.274</ele>
        <time>2021-06-20T08:25:27Z</time>
      </trkpt>
      <trkpt lat="42.203634" lon="1.296745">
        <ele>766.298</ele>
        <time>2021-06-20T08:25:28Z</time>
      </trkpt>
      <trkpt lat="42.203648" lon="1.296665">
        <ele>767.289</ele>
        <time>2021-06-20T08:25:34Z</time>
      </trkpt>
      <trkpt lat="42.203650" lon="1.296611">
        <ele>768.099</ele>
        <time>2021-06-20T08:25:40Z</time>
      </trkpt>
      <trkpt lat="42.203642" lon="1.296563">
        <ele>768.017</ele>
        <time>2021-06-20T08:25:42Z</time>
      </trkpt>
      <trkpt lat="42.203639" lon="1.296496">
        <ele>768.281</ele>
        <time>2021-06-20T08:25:45Z</time>
      </trkpt>
      <trkpt lat="42.203647" lon="1.296448">
        <ele>768.261</ele>
        <time>2021-06-20T08:25:47Z</time>
      </trkpt>
      <trkpt lat="42.203688" lon="1.296263">
        <ele>769.017</ele>
        <time>2021-06-20T08:25:55Z</time>
      </trkpt>
      <trkpt lat="42.203711" lon="1.296195">
        <ele>769.208</ele>
        <time>2021-06-20T08:25:58Z</time>
      </trkpt>
      <trkpt lat="42.203755" lon="1.296028">
        <ele>769.875</ele>
        <time>2021-06-20T08:26:05Z</time>
      </trkpt>
      <trkpt lat="42.203771" lon="1.295927">
        <ele>770.284</ele>
        <time>2021-06-20T08:26:09Z</time>
      </trkpt>
      <trkpt lat="42.203776" lon="1.295823">
        <ele>770.691</ele>
        <time>2021-06-20T08:26:13Z</time>
      </trkpt>
      <trkpt lat="42.203768" lon="1.295693">
        <ele>771.243</ele>
        <time>2021-06-20T08:26:18Z</time>
      </trkpt>
      <trkpt lat="42.203747" lon="1.295565">
        <ele>771.817</ele>
        <time>2021-06-20T08:26:23Z</time>
      </trkpt>
      <trkpt lat="42.203738" lon="1.295514">
        <ele>772.468</ele>
        <time>2021-06-20T08:26:25Z</time>
      </trkpt>
      <trkpt lat="42.203675" lon="1.295333">
        <ele>773.228</ele>
        <time>2021-06-20T08:26:33Z</time>
      </trkpt>
      <trkpt lat="42.203647" lon="1.295301">
        <ele>773.276</ele>
        <time>2021-06-20T08:26:35Z</time>
      </trkpt>
      <trkpt lat="42.203587" lon="1.295254">
        <ele>773.838</ele>
        <time>2021-06-20T08:26:39Z</time>
      </trkpt>
      <trkpt lat="42.203528" lon="1.295215">
        <ele>774.270</ele>
        <time>2021-06-20T08:26:43Z</time>
      </trkpt>
      <trkpt lat="42.203469" lon="1.295175">
        <ele>774.817</ele>
        <time>2021-06-20T08:26:47Z</time>
      </trkpt>
      <trkpt lat="42.203403" lon="1.295115">
        <ele>775.408</ele>
        <time>2021-06-20T08:26:52Z</time>
      </trkpt>
      <trkpt lat="42.203374" lon="1.295100">
        <ele>775.830</ele>
        <time>2021-06-20T08:26:54Z</time>
      </trkpt>
      <trkpt lat="42.203328" lon="1.295086">
        <ele>776.439</ele>
        <time>2021-06-20T08:26:57Z</time>
      </trkpt>
      <trkpt lat="42.203292" lon="1.295085">
        <ele>776.696</ele>
        <time>2021-06-20T08:26:59Z</time>
      </trkpt>
      <trkpt lat="42.203273" lon="1.295080">
        <ele>776.648</ele>
        <time>2021-06-20T08:27:00Z</time>
      </trkpt>
      <trkpt lat="42.203107" lon="1.295030">
        <ele>777.862</ele>
        <time>2021-06-20T08:27:09Z</time>
      </trkpt>
      <trkpt lat="42.203072" lon="1.295010">
        <ele>778.073</ele>
        <time>2021-06-20T08:27:11Z</time>
      </trkpt>
      <trkpt lat="42.202966" lon="1.294924">
        <ele>778.823</ele>
        <time>2021-06-20T08:27:18Z</time>
      </trkpt>
      <trkpt lat="42.202939" lon="1.294888">
        <ele>779.011</ele>
        <time>2021-06-20T08:27:20Z</time>
      </trkpt>
      <trkpt lat="42.202878" lon="1.294733">
        <ele>779.883</ele>
        <time>2021-06-20T08:27:27Z</time>
      </trkpt>
      <trkpt lat="42.202874" lon="1.294710">
        <ele>780.025</ele>
        <time>2021-06-20T08:27:28Z</time>
      </trkpt>
      <trkpt lat="42.202881" lon="1.294579">
        <ele>780.617</ele>
        <time>2021-06-20T08:27:35Z</time>
      </trkpt>
      <trkpt lat="42.202890" lon="1.294539">
        <ele>780.808</ele>
        <time>2021-06-20T08:27:37Z</time>
      </trkpt>
      <trkpt lat="42.202946" lon="1.294422">
        <ele>781.455</ele>
        <time>2021-06-20T08:27:43Z</time>
      </trkpt>
      <trkpt lat="42.203017" lon="1.294292">
        <ele>782.024</ele>
        <time>2021-06-20T08:27:49Z</time>
      </trkpt>
      <trkpt lat="42.203054" lon="1.294225">
        <ele>782.481</ele>
        <time>2021-06-20T08:27:52Z</time>
      </trkpt>
      <trkpt lat="42.203143" lon="1.294076">
        <ele>783.073</ele>
        <time>2021-06-20T08:27:59Z</time>
      </trkpt>
      <trkpt lat="42.203173" lon="1.294002">
        <ele>783.487</ele>
        <time>2021-06-20T08:28:02Z</time>
      </trkpt>
      <trkpt lat="42.203212" lon="1.293815">
        <ele>784.028</ele>
        <time>2021-06-20T08:28:09Z</time>
      </trkpt>
      <trkpt lat="42.203212" lon="1.293786">
        <ele>784.278</ele>
        <time>2021-06-20T08:28:10Z</time>
      </trkpt>
      <trkpt lat="42.203194" lon="1.293587">
        <ele>784.866</ele>
        <time>2021-06-20T08:28:17Z</time>
      </trkpt>
      <trkpt lat="42.203189" lon="1.293559">
        <ele>785.024</ele>
        <time>2021-06-20T08:28:18Z</time>
      </trkpt>
      <trkpt lat="42.203145" lon="1.293345">
        <ele>786.204</ele>
        <time>2021-06-20T08:28:26Z</time>
      </trkpt>
      <trkpt lat="42.203140" lon="1.293319">
        <ele>786.414</ele>
        <time>2021-06-20T08:28:27Z</time>
      </trkpt>
      <trkpt lat="42.203125" lon="1.293185">
        <ele>787.208</ele>
        <time>2021-06-20T08:28:32Z</time>
      </trkpt>
      <trkpt lat="42.203122" lon="1.293140">
        <ele>787.659</ele>
        <time>2021-06-20T08:28:34Z</time>
      </trkpt>
      <trkpt lat="42.203115" lon="1.293119">
        <ele>788.298</ele>
        <time>2021-06-20T08:28:37Z</time>
      </trkpt>
      <trkpt lat="42.203181" lon="1.293123">
        <ele>790.435</ele>
        <time>2021-06-20T08:30:51Z</time>
      </trkpt>
      <trkpt lat="42.203271" lon="1.293133">
        <ele>790.467</ele>
        <time>2021-06-20T08:30:57Z</time>
      </trkpt>
      <trkpt lat="42.203358" lon="1.293237">
        <ele>791.031</ele>
        <time>2021-06-20T08:31:03Z</time>
      </trkpt>
      <trkpt lat="42.203377" lon="1.293348">
        <ele>791.212</ele>
        <time>2021-06-20T08:31:07Z</time>
      </trkpt>
      <trkpt lat="42.203382" lon="1.293498">
        <ele>792.282</ele>
        <time>2021-06-20T08:31:12Z</time>
      </trkpt>
      <trkpt lat="42.203381" lon="1.293525">
        <ele>792.440</ele>
        <time>2021-06-20T08:31:13Z</time>
      </trkpt>
      <trkpt lat="42.203387" lon="1.293754">
        <ele>793.074</ele>
        <time>2021-06-20T08:31:21Z</time>
      </trkpt>
      <trkpt lat="42.203394" lon="1.293844">
        <ele>793.456</ele>
        <time>2021-06-20T08:31:24Z</time>
      </trkpt>
      <trkpt lat="42.203390" lon="1.293993">
        <ele>794.021</ele>
        <time>2021-06-20T08:31:29Z</time>
      </trkpt>
      <trkpt lat="42.203379" lon="1.294111">
        <ele>794.408</ele>
        <time>2021-06-20T08:31:33Z</time>
      </trkpt>
      <trkpt lat="42.203363" lon="1.294229">
        <ele>795.264</ele>
        <time>2021-06-20T08:31:37Z</time>
      </trkpt>
      <trkpt lat="42.203358" lon="1.294291">
        <ele>795.453</ele>
        <time>2021-06-20T08:31:39Z</time>
      </trkpt>
      <trkpt lat="42.203376" lon="1.294477">
        <ele>796.240</ele>
        <time>2021-06-20T08:31:45Z</time>
      </trkpt>
      <trkpt lat="42.203416" lon="1.294558">
        <ele>796.462</ele>
        <time>2021-06-20T08:31:48Z</time>
      </trkpt>
      <trkpt lat="42.203473" lon="1.294624">
        <ele>796.866</ele>
        <time>2021-06-20T08:31:51Z</time>
      </trkpt>
      <trkpt lat="42.203662" lon="1.294698">
        <ele>797.487</ele>
        <time>2021-06-20T08:31:59Z</time>
      </trkpt>
      <trkpt lat="42.203687" lon="1.294700">
        <ele>797.887</ele>
        <time>2021-06-20T08:32:00Z</time>
      </trkpt>
      <trkpt lat="42.203882" lon="1.294692">
        <ele>798.675</ele>
        <time>2021-06-20T08:32:08Z</time>
      </trkpt>
      <trkpt lat="42.203906" lon="1.294693">
        <ele>798.873</ele>
        <time>2021-06-20T08:32:09Z</time>
      </trkpt>
      <trkpt lat="42.203954" lon="1.294700">
        <ele>799.085</ele>
        <time>2021-06-20T08:32:11Z</time>
      </trkpt>
      <trkpt lat="42.204050" lon="1.294710">
        <ele>799.613</ele>
        <time>2021-06-20T08:32:15Z</time>
      </trkpt>
      <trkpt lat="42.204075" lon="1.294712">
        <ele>800.008</ele>
        <time>2021-06-20T08:32:16Z</time>
      </trkpt>
      <trkpt lat="42.204222" lon="1.294727">
        <ele>800.864</ele>
        <time>2021-06-20T08:32:22Z</time>
      </trkpt>
      <trkpt lat="42.204318" lon="1.294755">
        <ele>801.813</ele>
        <time>2021-06-20T08:32:26Z</time>
      </trkpt>
      <trkpt lat="42.204341" lon="1.294765">
        <ele>801.880</ele>
        <time>2021-06-20T08:32:27Z</time>
      </trkpt>
      <trkpt lat="42.204465" lon="1.294878">
        <ele>802.432</ele>
        <time>2021-06-20T08:32:33Z</time>
      </trkpt>
      <trkpt lat="42.204496" lon="1.294932">
        <ele>802.826</ele>
        <time>2021-06-20T08:32:35Z</time>
      </trkpt>
      <trkpt lat="42.204567" lon="1.295119">
        <ele>803.847</ele>
        <time>2021-06-20T08:32:41Z</time>
      </trkpt>
      <trkpt lat="42.204599" lon="1.295289">
        <ele>804.897</ele>
        <time>2021-06-20T08:32:46Z</time>
      </trkpt>
      <trkpt lat="42.204620" lon="1.295425">
        <ele>805.235</ele>
        <time>2021-06-20T08:32:50Z</time>
      </trkpt>
      <trkpt lat="42.204634" lon="1.295605">
        <ele>806.017</ele>
        <time>2021-06-20T08:32:55Z</time>
      </trkpt>
      <trkpt lat="42.204649" lon="1.295749">
        <ele>806.687</ele>
        <time>2021-06-20T08:32:59Z</time>
      </trkpt>
      <trkpt lat="42.204655" lon="1.295833">
        <ele>807.015</ele>
        <time>2021-06-20T08:33:04Z</time>
      </trkpt>
      <trkpt lat="42.204610" lon="1.295826">
        <ele>821.608</ele>
        <time>2021-06-20T08:43:35Z</time>
      </trkpt>
      <trkpt lat="42.204605" lon="1.295840">
        <ele>821.838</ele>
        <time>2021-06-20T08:43:38Z</time>
      </trkpt>
      <trkpt lat="42.204606" lon="1.295887">
        <ele>823.247</ele>
        <time>2021-06-20T08:45:13Z</time>
      </trkpt>
      <trkpt lat="42.204608" lon="1.295943">
        <ele>823.234</ele>
        <time>2021-06-20T08:45:15Z</time>
      </trkpt>
      <trkpt lat="42.204666" lon="1.296026">
        <ele>823.266</ele>
        <time>2021-06-20T08:45:19Z</time>
      </trkpt>
      <trkpt lat="42.204706" lon="1.296032">
        <ele>823.210</ele>
        <time>2021-06-20T08:45:21Z</time>
      </trkpt>
      <trkpt lat="42.204761" lon="1.296006">
        <ele>823.461</ele>
        <time>2021-06-20T08:45:24Z</time>
      </trkpt>
      <trkpt lat="42.204793" lon="1.295874">
        <ele>824.271</ele>
        <time>2021-06-20T08:45:29Z</time>
      </trkpt>
      <trkpt lat="42.204795" lon="1.295845">
        <ele>824.429</ele>
        <time>2021-06-20T08:45:30Z</time>
      </trkpt>
      <trkpt lat="42.204792" lon="1.295706">
        <ele>825.485</ele>
        <time>2021-06-20T08:45:35Z</time>
      </trkpt>
      <trkpt lat="42.204790" lon="1.295678">
        <ele>825.689</ele>
        <time>2021-06-20T08:45:36Z</time>
      </trkpt>
      <trkpt lat="42.204743" lon="1.295489">
        <ele>826.417</ele>
        <time>2021-06-20T08:45:43Z</time>
      </trkpt>
      <trkpt lat="42.204735" lon="1.295462">
        <ele>826.608</ele>
        <time>2021-06-20T08:45:44Z</time>
      </trkpt>
      <trkpt lat="42.204731" lon="1.295434">
        <ele>826.815</ele>
        <time>2021-06-20T08:45:45Z</time>
      </trkpt>
      <trkpt lat="42.204736" lon="1.295314">
        <ele>827.234</ele>
        <time>2021-06-20T08:45:49Z</time>
      </trkpt>
      <trkpt lat="42.204741" lon="1.295284">
        <ele>827.461</ele>
        <time>2021-06-20T08:45:50Z</time>
      </trkpt>
      <trkpt lat="42.204745" lon="1.295253">
        <ele>827.673</ele>
        <time>2021-06-20T08:45:51Z</time>
      </trkpt>
      <trkpt lat="42.204766" lon="1.295072">
        <ele>828.847</ele>
        <time>2021-06-20T08:45:57Z</time>
      </trkpt>
      <trkpt lat="42.204763" lon="1.295042">
        <ele>829.028</ele>
        <time>2021-06-20T08:45:58Z</time>
      </trkpt>
      <trkpt lat="42.204737" lon="1.294888">
        <ele>829.498</ele>
        <time>2021-06-20T08:46:03Z</time>
      </trkpt>
      <trkpt lat="42.204717" lon="1.294793">
        <ele>830.026</ele>
        <time>2021-06-20T08:46:06Z</time>
      </trkpt>
      <trkpt lat="42.204675" lon="1.294669">
        <ele>830.666</ele>
        <time>2021-06-20T08:46:10Z</time>
      </trkpt>
      <trkpt lat="42.204621" lon="1.294597">
        <ele>831.229</ele>
        <time>2021-06-20T08:46:13Z</time>
      </trkpt>
      <trkpt lat="42.204556" lon="1.294545">
        <ele>831.621</ele>
        <time>2021-06-20T08:46:16Z</time>
      </trkpt>
      <trkpt lat="42.204423" lon="1.294464">
        <ele>832.408</ele>
        <time>2021-06-20T08:46:22Z</time>
      </trkpt>
      <trkpt lat="42.204354" lon="1.294436">
        <ele>832.693</ele>
        <time>2021-06-20T08:46:25Z</time>
      </trkpt>
      <trkpt lat="42.204268" lon="1.294385">
        <ele>833.692</ele>
        <time>2021-06-20T08:46:29Z</time>
      </trkpt>
      <trkpt lat="42.204181" lon="1.294332">
        <ele>834.299</ele>
        <time>2021-06-20T08:46:33Z</time>
      </trkpt>
      <trkpt lat="42.204093" lon="1.294277">
        <ele>834.691</ele>
        <time>2021-06-20T08:46:37Z</time>
      </trkpt>
      <trkpt lat="42.203994" lon="1.294194">
        <ele>835.675</ele>
        <time>2021-06-20T08:46:42Z</time>
      </trkpt>
      <trkpt lat="42.203970" lon="1.294141">
        <ele>835.836</ele>
        <time>2021-06-20T08:46:44Z</time>
      </trkpt>
      <trkpt lat="42.203966" lon="1.294017">
        <ele>836.426</ele>
        <time>2021-06-20T08:46:48Z</time>
      </trkpt>
      <trkpt lat="42.203995" lon="1.293903">
        <ele>836.894</ele>
        <time>2021-06-20T08:46:52Z</time>
      </trkpt>
      <trkpt lat="42.204007" lon="1.293878">
        <ele>836.816</ele>
        <time>2021-06-20T08:46:53Z</time>
      </trkpt>
      <trkpt lat="42.204082" lon="1.293661">
        <ele>838.276</ele>
        <time>2021-06-20T08:47:01Z</time>
      </trkpt>
      <trkpt lat="42.204129" lon="1.293494">
        <ele>839.213</ele>
        <time>2021-06-20T08:47:07Z</time>
      </trkpt>
      <trkpt lat="42.204144" lon="1.293437">
        <ele>839.408</ele>
        <time>2021-06-20T08:47:09Z</time>
      </trkpt>
      <trkpt lat="42.204171" lon="1.293285">
        <ele>840.248</ele>
        <time>2021-06-20T08:47:14Z</time>
      </trkpt>
      <trkpt lat="42.204177" lon="1.293160">
        <ele>840.857</ele>
        <time>2021-06-20T08:47:18Z</time>
      </trkpt>
      <trkpt lat="42.204176" lon="1.293035">
        <ele>841.414</ele>
        <time>2021-06-20T08:47:22Z</time>
      </trkpt>
      <trkpt lat="42.204179" lon="1.292941">
        <ele>842.076</ele>
        <time>2021-06-20T08:47:25Z</time>
      </trkpt>
      <trkpt lat="42.204174" lon="1.292847">
        <ele>842.410</ele>
        <time>2021-06-20T08:47:28Z</time>
      </trkpt>
      <trkpt lat="42.204140" lon="1.292729">
        <ele>842.811</ele>
        <time>2021-06-20T08:47:32Z</time>
      </trkpt>
      <trkpt lat="42.204089" lon="1.292633">
        <ele>843.441</ele>
        <time>2021-06-20T08:47:36Z</time>
      </trkpt>
      <trkpt lat="42.204053" lon="1.292596">
        <ele>843.879</ele>
        <time>2021-06-20T08:47:38Z</time>
      </trkpt>
      <trkpt lat="42.203929" lon="1.292509">
        <ele>844.611</ele>
        <time>2021-06-20T08:47:44Z</time>
      </trkpt>
      <trkpt lat="42.203881" lon="1.292487">
        <ele>844.821</ele>
        <time>2021-06-20T08:47:46Z</time>
      </trkpt>
      <trkpt lat="42.203719" lon="1.292417">
        <ele>845.603</ele>
        <time>2021-06-20T08:47:53Z</time>
      </trkpt>
      <trkpt lat="42.203677" lon="1.292390">
        <ele>846.008</ele>
        <time>2021-06-20T08:47:55Z</time>
      </trkpt>
      <trkpt lat="42.203574" lon="1.292262">
        <ele>846.678</ele>
        <time>2021-06-20T08:48:01Z</time>
      </trkpt>
      <trkpt lat="42.203559" lon="1.292236">
        <ele>846.857</ele>
        <time>2021-06-20T08:48:02Z</time>
      </trkpt>
      <trkpt lat="42.203467" lon="1.292045">
        <ele>848.084</ele>
        <time>2021-06-20T08:48:09Z</time>
      </trkpt>
      <trkpt lat="42.203455" lon="1.292018">
        <ele>848.076</ele>
        <time>2021-06-20T08:48:10Z</time>
      </trkpt>
      <trkpt lat="42.203397" lon="1.291804">
        <ele>848.840</ele>
        <time>2021-06-20T08:48:17Z</time>
      </trkpt>
      <trkpt lat="42.203391" lon="1.291773">
        <ele>849.011</ele>
        <time>2021-06-20T08:48:18Z</time>
      </trkpt>
      <trkpt lat="42.203375" lon="1.291610">
        <ele>850.251</ele>
        <time>2021-06-20T08:48:23Z</time>
      </trkpt>
      <trkpt lat="42.203378" lon="1.291511">
        <ele>850.849</ele>
        <time>2021-06-20T08:48:26Z</time>
      </trkpt>
      <trkpt lat="42.203394" lon="1.291379">
        <ele>851.439</ele>
        <time>2021-06-20T08:48:30Z</time>
      </trkpt>
      <trkpt lat="42.203429" lon="1.291222">
        <ele>852.001</ele>
        <time>2021-06-20T08:48:35Z</time>
      </trkpt>
      <trkpt lat="42.203447" lon="1.291160">
        <ele>852.421</ele>
        <time>2021-06-20T08:48:37Z</time>
      </trkpt>
      <trkpt lat="42.203490" lon="1.291009">
        <ele>853.208</ele>
        <time>2021-06-20T08:48:42Z</time>
      </trkpt>
      <trkpt lat="42.203507" lon="1.290947">
        <ele>853.610</ele>
        <time>2021-06-20T08:48:44Z</time>
      </trkpt>
      <trkpt lat="42.203542" lon="1.290821">
        <ele>854.659</ele>
        <time>2021-06-20T08:48:48Z</time>
      </trkpt>
      <trkpt lat="42.203553" lon="1.290689">
        <ele>855.496</ele>
        <time>2021-06-20T08:48:52Z</time>
      </trkpt>
      <trkpt lat="42.203547" lon="1.290624">
        <ele>855.678</ele>
        <time>2021-06-20T08:48:54Z</time>
      </trkpt>
      <trkpt lat="42.203519" lon="1.290499">
        <ele>856.272</ele>
        <time>2021-06-20T08:48:58Z</time>
      </trkpt>
      <trkpt lat="42.203482" lon="1.290410">
        <ele>857.043</ele>
        <time>2021-06-20T08:49:02Z</time>
      </trkpt>
      <trkpt lat="42.203473" lon="1.290389">
        <ele>857.443</ele>
        <time>2021-06-20T08:49:04Z</time>
      </trkpt>
      <trkpt lat="42.203473" lon="1.290386">
        <ele>857.821</ele>
        <time>2021-06-20T08:49:06Z</time>
      </trkpt>
      <trkpt lat="42.203435" lon="1.290311">
        <ele>859.062</ele>
        <time>2021-06-20T08:50:02Z</time>
      </trkpt>
      <trkpt lat="42.203427" lon="1.290290">
        <ele>859.083</ele>
        <time>2021-06-20T08:50:03Z</time>
      </trkpt>
      <trkpt lat="42.203352" lon="1.290094">
        <ele>859.211</ele>
        <time>2021-06-20T08:50:10Z</time>
      </trkpt>
      <trkpt lat="42.203285" lon="1.289816">
        <ele>859.808</ele>
        <time>2021-06-20T08:50:18Z</time>
      </trkpt>
      <trkpt lat="42.203282" lon="1.289698">
        <ele>860.243</ele>
        <time>2021-06-20T08:50:21Z</time>
      </trkpt>
      <trkpt lat="42.203292" lon="1.289499">
        <ele>860.692</ele>
        <time>2021-06-20T08:50:26Z</time>
      </trkpt>
      <trkpt lat="42.203298" lon="1.289194">
        <ele>861.439</ele>
        <time>2021-06-20T08:50:34Z</time>
      </trkpt>
      <trkpt lat="42.203325" lon="1.288885">
        <ele>862.691</ele>
        <time>2021-06-20T08:50:42Z</time>
      </trkpt>
      <trkpt lat="42.203330" lon="1.288846">
        <ele>862.665</ele>
        <time>2021-06-20T08:50:43Z</time>
      </trkpt>
      <trkpt lat="42.203367" lon="1.288612">
        <ele>863.616</ele>
        <time>2021-06-20T08:50:49Z</time>
      </trkpt>
      <trkpt lat="42.203387" lon="1.288461">
        <ele>864.686</ele>
        <time>2021-06-20T08:50:53Z</time>
      </trkpt>
      <trkpt lat="42.203401" lon="1.288349">
        <ele>865.034</ele>
        <time>2021-06-20T08:50:56Z</time>
      </trkpt>
      <trkpt lat="42.203418" lon="1.288155">
        <ele>865.412</ele>
        <time>2021-06-20T08:51:01Z</time>
      </trkpt>
      <trkpt lat="42.203438" lon="1.288041">
        <ele>866.032</ele>
        <time>2021-06-20T08:51:04Z</time>
      </trkpt>
      <trkpt lat="42.203484" lon="1.287940">
        <ele>866.405</ele>
        <time>2021-06-20T08:51:07Z</time>
      </trkpt>
      <trkpt lat="42.203588" lon="1.287866">
        <ele>867.008</ele>
        <time>2021-06-20T08:51:11Z</time>
      </trkpt>
      <trkpt lat="42.203617" lon="1.287852">
        <ele>867.268</ele>
        <time>2021-06-20T08:51:12Z</time>
      </trkpt>
      <trkpt lat="42.203770" lon="1.287698">
        <ele>868.077</ele>
        <time>2021-06-20T08:51:19Z</time>
      </trkpt>
      <trkpt lat="42.203877" lon="1.287398">
        <ele>869.214</ele>
        <time>2021-06-20T08:51:29Z</time>
      </trkpt>
      <trkpt lat="42.203884" lon="1.287367">
        <ele>869.466</ele>
        <time>2021-06-20T08:51:30Z</time>
      </trkpt>
      <trkpt lat="42.203895" lon="1.287302">
        <ele>869.880</ele>
        <time>2021-06-20T08:51:32Z</time>
      </trkpt>
      <trkpt lat="42.203918" lon="1.287174">
        <ele>870.881</ele>
        <time>2021-06-20T08:51:36Z</time>
      </trkpt>
      <trkpt lat="42.203935" lon="1.287037">
        <ele>871.281</ele>
        <time>2021-06-20T08:51:40Z</time>
      </trkpt>
      <trkpt lat="42.203911" lon="1.286832">
        <ele>871.829</ele>
        <time>2021-06-20T08:51:46Z</time>
      </trkpt>
      <trkpt lat="42.203901" lon="1.286799">
        <ele>872.044</ele>
        <time>2021-06-20T08:51:47Z</time>
      </trkpt>
      <trkpt lat="42.203790" lon="1.286561">
        <ele>872.405</ele>
        <time>2021-06-20T08:51:54Z</time>
      </trkpt>
      <trkpt lat="42.203624" lon="1.286432">
        <ele>872.615</ele>
        <time>2021-06-20T08:52:00Z</time>
      </trkpt>
      <trkpt lat="42.203425" lon="1.286335">
        <ele>873.008</ele>
        <time>2021-06-20T08:52:08Z</time>
      </trkpt>
      <trkpt lat="42.203258" lon="1.286339">
        <ele>874.231</ele>
        <time>2021-06-20T08:52:15Z</time>
      </trkpt>
      <trkpt lat="42.203145" lon="1.286384">
        <ele>875.450</ele>
        <time>2021-06-20T08:52:20Z</time>
      </trkpt>
      <trkpt lat="42.203098" lon="1.286405">
        <ele>875.647</ele>
        <time>2021-06-20T08:52:22Z</time>
      </trkpt>
      <trkpt lat="42.202970" lon="1.286479">
        <ele>876.479</ele>
        <time>2021-06-20T08:52:28Z</time>
      </trkpt>
      <trkpt lat="42.202903" lon="1.286510">
        <ele>876.883</ele>
        <time>2021-06-20T08:52:31Z</time>
      </trkpt>
      <trkpt lat="42.202792" lon="1.286561">
        <ele>877.414</ele>
        <time>2021-06-20T08:52:36Z</time>
      </trkpt>
      <trkpt lat="42.202723" lon="1.286569">
        <ele>878.014</ele>
        <time>2021-06-20T08:52:39Z</time>
      </trkpt>
      <trkpt lat="42.202632" lon="1.286573">
        <ele>878.652</ele>
        <time>2021-06-20T08:52:43Z</time>
      </trkpt>
      <trkpt lat="42.202496" lon="1.286590">
        <ele>879.243</ele>
        <time>2021-06-20T08:52:49Z</time>
      </trkpt>
      <trkpt lat="42.202429" lon="1.286593">
        <ele>879.664</ele>
        <time>2021-06-20T08:52:52Z</time>
      </trkpt>
      <trkpt lat="42.202338" lon="1.286597">
        <ele>880.810</ele>
        <time>2021-06-20T08:52:56Z</time>
      </trkpt>
      <trkpt lat="42.202316" lon="1.286598">
        <ele>880.808</ele>
        <time>2021-06-20T08:52:57Z</time>
      </trkpt>
      <trkpt lat="42.202155" lon="1.286584">
        <ele>882.061</ele>
        <time>2021-06-20T08:53:04Z</time>
      </trkpt>
      <trkpt lat="42.202024" lon="1.286471">
        <ele>882.690</ele>
        <time>2021-06-20T08:53:11Z</time>
      </trkpt>
      <trkpt lat="42.201975" lon="1.286360">
        <ele>883.437</ele>
        <time>2021-06-20T08:53:15Z</time>
      </trkpt>
      <trkpt lat="42.201943" lon="1.286276">
        <ele>883.899</ele>
        <time>2021-06-20T08:53:18Z</time>
      </trkpt>
      <trkpt lat="42.201895" lon="1.286130">
        <ele>884.433</ele>
        <time>2021-06-20T08:53:23Z</time>
      </trkpt>
      <trkpt lat="42.201874" lon="1.286005">
        <ele>885.074</ele>
        <time>2021-06-20T08:53:27Z</time>
      </trkpt>
      <trkpt lat="42.201869" lon="1.285943">
        <ele>885.434</ele>
        <time>2021-06-20T08:53:29Z</time>
      </trkpt>
      <trkpt lat="42.201878" lon="1.285756">
        <ele>886.642</ele>
        <time>2021-06-20T08:53:35Z</time>
      </trkpt>
      <trkpt lat="42.201883" lon="1.285727">
        <ele>886.874</ele>
        <time>2021-06-20T08:53:36Z</time>
      </trkpt>
      <trkpt lat="42.201922" lon="1.285580">
        <ele>888.056</ele>
        <time>2021-06-20T08:53:41Z</time>
      </trkpt>
      <trkpt lat="42.201949" lon="1.285495">
        <ele>888.421</ele>
        <time>2021-06-20T08:53:44Z</time>
      </trkpt>
      <trkpt lat="42.201991" lon="1.285351">
        <ele>889.208</ele>
        <time>2021-06-20T08:53:49Z</time>
      </trkpt>
      <trkpt lat="42.202043" lon="1.285249">
        <ele>889.674</ele>
        <time>2021-06-20T08:53:53Z</time>
      </trkpt>
      <trkpt lat="42.202131" lon="1.285151">
        <ele>890.413</ele>
        <time>2021-06-20T08:53:58Z</time>
      </trkpt>
      <trkpt lat="42.202188" lon="1.285102">
        <ele>890.630</ele>
        <time>2021-06-20T08:54:01Z</time>
      </trkpt>
      <trkpt lat="42.202294" lon="1.285061">
        <ele>891.432</ele>
        <time>2021-06-20T08:54:06Z</time>
      </trkpt>
      <trkpt lat="42.202340" lon="1.285073">
        <ele>892.056</ele>
        <time>2021-06-20T08:54:08Z</time>
      </trkpt>
      <trkpt lat="42.202385" lon="1.285094">
        <ele>892.257</ele>
        <time>2021-06-20T08:54:10Z</time>
      </trkpt>
      <trkpt lat="42.202448" lon="1.285141">
        <ele>892.627</ele>
        <time>2021-06-20T08:54:13Z</time>
      </trkpt>
      <trkpt lat="42.202508" lon="1.285190">
        <ele>893.085</ele>
        <time>2021-06-20T08:54:16Z</time>
      </trkpt>
      <trkpt lat="42.202620" lon="1.285293">
        <ele>894.067</ele>
        <time>2021-06-20T08:54:22Z</time>
      </trkpt>
      <trkpt lat="42.202658" lon="1.285325">
        <ele>894.481</ele>
        <time>2021-06-20T08:54:24Z</time>
      </trkpt>
      <trkpt lat="42.202715" lon="1.285377">
        <ele>895.019</ele>
        <time>2021-06-20T08:54:27Z</time>
      </trkpt>
      <trkpt lat="42.202819" lon="1.285447">
        <ele>895.608</ele>
        <time>2021-06-20T08:54:32Z</time>
      </trkpt>
      <trkpt lat="42.202886" lon="1.285474">
        <ele>896.073</ele>
        <time>2021-06-20T08:54:35Z</time>
      </trkpt>
      <trkpt lat="42.203048" lon="1.285491">
        <ele>897.242</ele>
        <time>2021-06-20T08:54:42Z</time>
      </trkpt>
      <trkpt lat="42.203182" lon="1.285439">
        <ele>898.429</ele>
        <time>2021-06-20T08:54:48Z</time>
      </trkpt>
      <trkpt lat="42.203221" lon="1.285407">
        <ele>898.641</ele>
        <time>2021-06-20T08:54:50Z</time>
      </trkpt>
      <trkpt lat="42.203349" lon="1.285262">
        <ele>899.655</ele>
        <time>2021-06-20T08:54:57Z</time>
      </trkpt>
      <trkpt lat="42.203366" lon="1.285241">
        <ele>899.876</ele>
        <time>2021-06-20T08:54:58Z</time>
      </trkpt>
      <trkpt lat="42.203467" lon="1.285105">
        <ele>900.676</ele>
        <time>2021-06-20T08:55:04Z</time>
      </trkpt>
      <trkpt lat="42.203517" lon="1.285036">
        <ele>901.214</ele>
        <time>2021-06-20T08:55:07Z</time>
      </trkpt>
      <trkpt lat="42.203615" lon="1.284856">
        <ele>901.831</ele>
        <time>2021-06-20T08:55:14Z</time>
      </trkpt>
      <trkpt lat="42.203626" lon="1.284828">
        <ele>902.061</ele>
        <time>2021-06-20T08:55:15Z</time>
      </trkpt>
      <trkpt lat="42.203696" lon="1.284659">
        <ele>903.007</ele>
        <time>2021-06-20T08:55:21Z</time>
      </trkpt>
      <trkpt lat="42.203766" lon="1.284492">
        <ele>903.808</ele>
        <time>2021-06-20T08:55:27Z</time>
      </trkpt>
      <trkpt lat="42.203795" lon="1.284443">
        <ele>904.020</ele>
        <time>2021-06-20T08:55:29Z</time>
      </trkpt>
      <trkpt lat="42.203877" lon="1.284334">
        <ele>904.429</ele>
        <time>2021-06-20T08:55:34Z</time>
      </trkpt>
      <trkpt lat="42.203925" lon="1.284264">
        <ele>905.076</ele>
        <time>2021-06-20T08:55:37Z</time>
      </trkpt>
      <trkpt lat="42.204008" lon="1.284105">
        <ele>906.288</ele>
        <time>2021-06-20T08:55:43Z</time>
      </trkpt>
      <trkpt lat="42.204021" lon="1.284078">
        <ele>906.432</ele>
        <time>2021-06-20T08:55:44Z</time>
      </trkpt>
      <trkpt lat="42.204063" lon="1.283932">
        <ele>907.453</ele>
        <time>2021-06-20T08:55:49Z</time>
      </trkpt>
      <trkpt lat="42.204066" lon="1.283900">
        <ele>907.443</ele>
        <time>2021-06-20T08:55:50Z</time>
      </trkpt>
      <trkpt lat="42.204068" lon="1.283838">
        <ele>907.671</ele>
        <time>2021-06-20T08:55:52Z</time>
      </trkpt>
      <trkpt lat="42.204067" lon="1.283677">
        <ele>908.423</ele>
        <time>2021-06-20T08:55:57Z</time>
      </trkpt>
      <trkpt lat="42.204063" lon="1.283517">
        <ele>909.483</ele>
        <time>2021-06-20T08:56:02Z</time>
      </trkpt>
      <trkpt lat="42.204065" lon="1.283455">
        <ele>909.611</ele>
        <time>2021-06-20T08:56:04Z</time>
      </trkpt>
      <trkpt lat="42.204087" lon="1.283238">
        <ele>910.408</ele>
        <time>2021-06-20T08:56:11Z</time>
      </trkpt>
      <trkpt lat="42.204092" lon="1.283209">
        <ele>910.699</ele>
        <time>2021-06-20T08:56:12Z</time>
      </trkpt>
      <trkpt lat="42.204107" lon="1.282988">
        <ele>911.448</ele>
        <time>2021-06-20T08:56:19Z</time>
      </trkpt>
      <trkpt lat="42.204107" lon="1.282957">
        <ele>911.815</ele>
        <time>2021-06-20T08:56:20Z</time>
      </trkpt>
      <trkpt lat="42.204084" lon="1.282675">
        <ele>912.887</ele>
        <time>2021-06-20T08:56:29Z</time>
      </trkpt>
      <trkpt lat="42.204058" lon="1.282392">
        <ele>913.811</ele>
        <time>2021-06-20T08:56:38Z</time>
      </trkpt>
      <trkpt lat="42.204084" lon="1.282145">
        <ele>914.632</ele>
        <time>2021-06-20T08:56:46Z</time>
      </trkpt>
      <trkpt lat="42.204093" lon="1.282087">
        <ele>914.842</ele>
        <time>2021-06-20T08:56:48Z</time>
      </trkpt>
      <trkpt lat="42.204143" lon="1.281910">
        <ele>916.010</ele>
        <time>2021-06-20T08:56:54Z</time>
      </trkpt>
      <trkpt lat="42.204162" lon="1.281856">
        <ele>916.299</ele>
        <time>2021-06-20T08:56:56Z</time>
      </trkpt>
      <trkpt lat="42.204224" lon="1.281683">
        <ele>917.007</ele>
        <time>2021-06-20T08:57:02Z</time>
      </trkpt>
      <trkpt lat="42.204262" lon="1.281603">
        <ele>917.427</ele>
        <time>2021-06-20T08:57:05Z</time>
      </trkpt>
      <trkpt lat="42.204306" lon="1.281433">
        <ele>918.008</ele>
        <time>2021-06-20T08:57:11Z</time>
      </trkpt>
      <trkpt lat="42.204303" lon="1.281401">
        <ele>918.246</ele>
        <time>2021-06-20T08:57:12Z</time>
      </trkpt>
      <trkpt lat="42.204231" lon="1.281245">
        <ele>919.095</ele>
        <time>2021-06-20T08:57:17Z</time>
      </trkpt>
      <trkpt lat="42.204066" lon="1.281098">
        <ele>919.042</ele>
        <time>2021-06-20T08:57:23Z</time>
      </trkpt>
      <trkpt lat="42.203857" lon="1.281059">
        <ele>919.084</ele>
        <time>2021-06-20T08:57:29Z</time>
      </trkpt>
      <trkpt lat="42.203708" lon="1.281138">
        <ele>919.058</ele>
        <time>2021-06-20T08:57:34Z</time>
      </trkpt>
      <trkpt lat="42.203567" lon="1.281274">
        <ele>919.089</ele>
        <time>2021-06-20T08:57:40Z</time>
      </trkpt>
      <trkpt lat="42.203505" lon="1.281337">
        <ele>919.639</ele>
        <time>2021-06-20T08:57:43Z</time>
      </trkpt>
      <trkpt lat="42.203443" lon="1.281400">
        <ele>920.087</ele>
        <time>2021-06-20T08:57:46Z</time>
      </trkpt>
      <trkpt lat="42.203334" lon="1.281498">
        <ele>921.223</ele>
        <time>2021-06-20T08:57:51Z</time>
      </trkpt>
      <trkpt lat="42.203312" lon="1.281516">
        <ele>921.283</ele>
        <time>2021-06-20T08:57:52Z</time>
      </trkpt>
      <trkpt lat="42.203191" lon="1.281632">
        <ele>922.211</ele>
        <time>2021-06-20T08:57:58Z</time>
      </trkpt>
      <trkpt lat="42.203169" lon="1.281660">
        <ele>922.208</ele>
        <time>2021-06-20T08:57:59Z</time>
      </trkpt>
      <trkpt lat="42.203069" lon="1.281834">
        <ele>923.289</ele>
        <time>2021-06-20T08:58:05Z</time>
      </trkpt>
      <trkpt lat="42.203024" lon="1.281923">
        <ele>923.838</ele>
        <time>2021-06-20T08:58:08Z</time>
      </trkpt>
      <trkpt lat="42.202986" lon="1.282042">
        <ele>924.275</ele>
        <time>2021-06-20T08:58:12Z</time>
      </trkpt>
      <trkpt lat="42.202972" lon="1.282065">
        <ele>924.437</ele>
        <time>2021-06-20T08:58:13Z</time>
      </trkpt>
      <trkpt lat="42.202944" lon="1.282116">
        <ele>925.451</ele>
        <time>2021-06-20T08:58:18Z</time>
      </trkpt>
      <trkpt lat="42.202905" lon="1.282032">
        <ele>924.062</ele>
        <time>2021-06-20T09:00:12Z</time>
      </trkpt>
      <trkpt lat="42.202865" lon="1.282012">
        <ele>924.012</ele>
        <time>2021-06-20T09:00:14Z</time>
      </trkpt>
      <trkpt lat="42.202811" lon="1.281962">
        <ele>924.020</ele>
        <time>2021-06-20T09:00:17Z</time>
      </trkpt>
      <trkpt lat="42.202728" lon="1.281847">
        <ele>924.021</ele>
        <time>2021-06-20T09:00:22Z</time>
      </trkpt>
      <trkpt lat="42.202580" lon="1.281732">
        <ele>924.241</ele>
        <time>2021-06-20T09:00:29Z</time>
      </trkpt>
      <trkpt lat="42.202440" lon="1.281668">
        <ele>925.205</ele>
        <time>2021-06-20T09:00:35Z</time>
      </trkpt>
      <trkpt lat="42.202365" lon="1.281644">
        <ele>925.608</ele>
        <time>2021-06-20T09:00:38Z</time>
      </trkpt>
      <trkpt lat="42.202272" lon="1.281596">
        <ele>926.249</ele>
        <time>2021-06-20T09:00:43Z</time>
      </trkpt>
      <trkpt lat="42.202089" lon="1.281550">
        <ele>926.898</ele>
        <time>2021-06-20T09:00:51Z</time>
      </trkpt>
      <trkpt lat="42.202015" lon="1.281559">
        <ele>927.245</ele>
        <time>2021-06-20T09:00:54Z</time>
      </trkpt>
      <trkpt lat="42.201944" lon="1.281595">
        <ele>927.647</ele>
        <time>2021-06-20T09:00:57Z</time>
      </trkpt>
      <trkpt lat="42.201804" lon="1.281747">
        <ele>928.411</ele>
        <time>2021-06-20T09:01:04Z</time>
      </trkpt>
      <trkpt lat="42.201785" lon="1.281777">
        <ele>928.482</ele>
        <time>2021-06-20T09:01:05Z</time>
      </trkpt>
      <trkpt lat="42.201659" lon="1.282015">
        <ele>929.442</ele>
        <time>2021-06-20T09:01:13Z</time>
      </trkpt>
      <trkpt lat="42.201606" lon="1.282108">
        <ele>929.640</ele>
        <time>2021-06-20T09:01:16Z</time>
      </trkpt>
      <trkpt lat="42.201494" lon="1.282217">
        <ele>929.856</ele>
        <time>2021-06-20T09:01:21Z</time>
      </trkpt>
      <trkpt lat="42.201328" lon="1.282171">
        <ele>930.459</ele>
        <time>2021-06-20T09:01:27Z</time>
      </trkpt>
      <trkpt lat="42.201268" lon="1.282082">
        <ele>930.614</ele>
        <time>2021-06-20T09:01:30Z</time>
      </trkpt>
      <trkpt lat="42.201238" lon="1.281972">
        <ele>931.208</ele>
        <time>2021-06-20T09:01:33Z</time>
      </trkpt>
      <trkpt lat="42.201230" lon="1.281725">
        <ele>931.652</ele>
        <time>2021-06-20T09:01:40Z</time>
      </trkpt>
      <trkpt lat="42.201238" lon="1.281621">
        <ele>932.061</ele>
        <time>2021-06-20T09:01:43Z</time>
      </trkpt>
      <trkpt lat="42.201268" lon="1.281453">
        <ele>932.818</ele>
        <time>2021-06-20T09:01:48Z</time>
      </trkpt>
      <trkpt lat="42.201286" lon="1.281387">
        <ele>933.080</ele>
        <time>2021-06-20T09:01:50Z</time>
      </trkpt>
      <trkpt lat="42.201386" lon="1.281143">
        <ele>934.084</ele>
        <time>2021-06-20T09:01:58Z</time>
      </trkpt>
      <trkpt lat="42.201420" lon="1.281090">
        <ele>934.235</ele>
        <time>2021-06-20T09:02:00Z</time>
      </trkpt>
      <trkpt lat="42.201531" lon="1.281010">
        <ele>934.875</ele>
        <time>2021-06-20T09:02:05Z</time>
      </trkpt>
      <trkpt lat="42.201662" lon="1.281007">
        <ele>935.423</ele>
        <time>2021-06-20T09:02:10Z</time>
      </trkpt>
      <trkpt lat="42.201739" lon="1.281016">
        <ele>935.892</ele>
        <time>2021-06-20T09:02:13Z</time>
      </trkpt>
      <trkpt lat="42.201895" lon="1.281039">
        <ele>936.673</ele>
        <time>2021-06-20T09:02:19Z</time>
      </trkpt>
      <trkpt lat="42.201999" lon="1.281017">
        <ele>937.020</ele>
        <time>2021-06-20T09:02:23Z</time>
      </trkpt>
      <trkpt lat="42.202176" lon="1.280857">
        <ele>937.608</ele>
        <time>2021-06-20T09:02:31Z</time>
      </trkpt>
      <trkpt lat="42.202237" lon="1.280774">
        <ele>937.666</ele>
        <time>2021-06-20T09:02:34Z</time>
      </trkpt>
      <trkpt lat="42.202378" lon="1.280655">
        <ele>937.895</ele>
        <time>2021-06-20T09:02:40Z</time>
      </trkpt>
      <trkpt lat="42.202582" lon="1.280676">
        <ele>938.072</ele>
        <time>2021-06-20T09:02:47Z</time>
      </trkpt>
      <trkpt lat="42.202804" lon="1.280728">
        <ele>938.694</ele>
        <time>2021-06-20T09:02:55Z</time>
      </trkpt>
      <trkpt lat="42.202850" lon="1.280732">
        <ele>939.088</ele>
        <time>2021-06-20T09:02:57Z</time>
      </trkpt>
      <trkpt lat="42.202989" lon="1.280738">
        <ele>940.099</ele>
        <time>2021-06-20T09:03:03Z</time>
      </trkpt>
      <trkpt lat="42.203147" lon="1.280703">
        <ele>941.029</ele>
        <time>2021-06-20T09:03:10Z</time>
      </trkpt>
      <trkpt lat="42.203190" lon="1.280684">
        <ele>941.257</ele>
        <time>2021-06-20T09:03:12Z</time>
      </trkpt>
      <trkpt lat="42.203329" lon="1.280600">
        <ele>942.213</ele>
        <time>2021-06-20T09:03:19Z</time>
      </trkpt>
      <trkpt lat="42.203349" lon="1.280586">
        <ele>942.243</ele>
        <time>2021-06-20T09:03:20Z</time>
      </trkpt>
      <trkpt lat="42.203464" lon="1.280489">
        <ele>943.207</ele>
        <time>2021-06-20T09:03:26Z</time>
      </trkpt>
      <trkpt lat="42.203535" lon="1.280405">
        <ele>943.808</ele>
        <time>2021-06-20T09:03:30Z</time>
      </trkpt>
      <trkpt lat="42.203607" lon="1.280290">
        <ele>944.418</ele>
        <time>2021-06-20T09:03:35Z</time>
      </trkpt>
      <trkpt lat="42.203651" lon="1.280222">
        <ele>944.837</ele>
        <time>2021-06-20T09:03:38Z</time>
      </trkpt>
      <trkpt lat="42.203736" lon="1.280088">
        <ele>945.634</ele>
        <time>2021-06-20T09:03:44Z</time>
      </trkpt>
      <trkpt lat="42.203749" lon="1.280065">
        <ele>945.866</ele>
        <time>2021-06-20T09:03:45Z</time>
      </trkpt>
      <trkpt lat="42.203841" lon="1.279945">
        <ele>946.450</ele>
        <time>2021-06-20T09:03:51Z</time>
      </trkpt>
      <trkpt lat="42.203879" lon="1.279919">
        <ele>946.841</ele>
        <time>2021-06-20T09:03:53Z</time>
      </trkpt>
      <trkpt lat="42.203968" lon="1.279849">
        <ele>947.841</ele>
        <time>2021-06-20T09:03:58Z</time>
      </trkpt>
      <trkpt lat="42.204042" lon="1.279793">
        <ele>949.019</ele>
        <time>2021-06-20T09:04:02Z</time>
      </trkpt>
      <trkpt lat="42.204171" lon="1.279784">
        <ele>950.284</ele>
        <time>2021-06-20T09:04:08Z</time>
      </trkpt>
      <trkpt lat="42.204191" lon="1.279794">
        <ele>950.007</ele>
        <time>2021-06-20T09:04:09Z</time>
      </trkpt>
      <trkpt lat="42.204258" lon="1.279866">
        <ele>950.617</ele>
        <time>2021-06-20T09:04:13Z</time>
      </trkpt>
      <trkpt lat="42.204320" lon="1.279946">
        <ele>950.808</ele>
        <time>2021-06-20T09:04:17Z</time>
      </trkpt>
      <trkpt lat="42.204346" lon="1.279991">
        <ele>950.815</ele>
        <time>2021-06-20T09:04:19Z</time>
      </trkpt>
      <trkpt lat="42.204361" lon="1.280011">
        <ele>951.044</ele>
        <time>2021-06-20T09:04:20Z</time>
      </trkpt>
      <trkpt lat="42.204469" lon="1.280153">
        <ele>951.631</ele>
        <time>2021-06-20T09:04:27Z</time>
      </trkpt>
      <trkpt lat="42.204516" lon="1.280212">
        <ele>952.263</ele>
        <time>2021-06-20T09:04:30Z</time>
      </trkpt>
      <trkpt lat="42.204583" lon="1.280288">
        <ele>952.627</ele>
        <time>2021-06-20T09:04:34Z</time>
      </trkpt>
      <trkpt lat="42.204653" lon="1.280358">
        <ele>953.288</ele>
        <time>2021-06-20T09:04:38Z</time>
      </trkpt>
      <trkpt lat="42.204743" lon="1.280442">
        <ele>953.838</ele>
        <time>2021-06-20T09:04:43Z</time>
      </trkpt>
      <trkpt lat="42.204788" lon="1.280506">
        <ele>954.066</ele>
        <time>2021-06-20T09:04:46Z</time>
      </trkpt>
      <trkpt lat="42.204842" lon="1.280597">
        <ele>954.819</ele>
        <time>2021-06-20T09:04:50Z</time>
      </trkpt>
      <trkpt lat="42.204907" lon="1.280679">
        <ele>955.209</ele>
        <time>2021-06-20T09:04:54Z</time>
      </trkpt>
      <trkpt lat="42.204970" lon="1.280759">
        <ele>955.819</ele>
        <time>2021-06-20T09:04:58Z</time>
      </trkpt>
      <trkpt lat="42.204988" lon="1.280769">
        <ele>956.008</ele>
        <time>2021-06-20T09:04:59Z</time>
      </trkpt>
      <trkpt lat="42.205039" lon="1.280740">
        <ele>956.448</ele>
        <time>2021-06-20T09:05:02Z</time>
      </trkpt>
      <trkpt lat="42.205024" lon="1.280638">
        <ele>957.037</ele>
        <time>2021-06-20T09:05:06Z</time>
      </trkpt>
      <trkpt lat="42.204987" lon="1.280563">
        <ele>957.624</ele>
        <time>2021-06-20T09:05:09Z</time>
      </trkpt>
      <trkpt lat="42.204972" lon="1.280541">
        <ele>957.876</ele>
        <time>2021-06-20T09:05:10Z</time>
      </trkpt>
      <trkpt lat="42.204938" lon="1.280501">
        <ele>958.210</ele>
        <time>2021-06-20T09:05:12Z</time>
      </trkpt>
      <trkpt lat="42.204887" lon="1.280441">
        <ele>958.411</ele>
        <time>2021-06-20T09:05:15Z</time>
      </trkpt>
      <trkpt lat="42.204782" lon="1.280316">
        <ele>959.671</ele>
        <time>2021-06-20T09:05:21Z</time>
      </trkpt>
      <trkpt lat="42.204766" lon="1.280294">
        <ele>959.669</ele>
        <time>2021-06-20T09:05:22Z</time>
      </trkpt>
      <trkpt lat="42.204653" lon="1.280096">
        <ele>960.626</ele>
        <time>2021-06-20T09:05:30Z</time>
      </trkpt>
      <trkpt lat="42.204627" lon="1.280043">
        <ele>960.447</ele>
        <time>2021-06-20T09:05:32Z</time>
      </trkpt>
      <trkpt lat="42.204541" lon="1.279857">
        <ele>961.411</ele>
        <time>2021-06-20T09:05:39Z</time>
      </trkpt>
      <trkpt lat="42.204503" lon="1.279777">
        <ele>961.608</ele>
        <time>2021-06-20T09:05:42Z</time>
      </trkpt>
      <trkpt lat="42.204435" lon="1.279607">
        <ele>962.469</ele>
        <time>2021-06-20T09:05:48Z</time>
      </trkpt>
      <trkpt lat="42.204399" lon="1.279522">
        <ele>962.638</ele>
        <time>2021-06-20T09:05:51Z</time>
      </trkpt>
      <trkpt lat="42.204336" lon="1.279314">
        <ele>963.425</ele>
        <time>2021-06-20T09:05:58Z</time>
      </trkpt>
      <trkpt lat="42.204335" lon="1.279250">
        <ele>963.667</ele>
        <time>2021-06-20T09:06:00Z</time>
      </trkpt>
      <trkpt lat="42.204392" lon="1.279060">
        <ele>964.461</ele>
        <time>2021-06-20T09:06:07Z</time>
      </trkpt>
      <trkpt lat="42.204410" lon="1.279009">
        <ele>964.612</ele>
        <time>2021-06-20T09:06:09Z</time>
      </trkpt>
      <trkpt lat="42.204464" lon="1.278860">
        <ele>965.482</ele>
        <time>2021-06-20T09:06:15Z</time>
      </trkpt>
      <trkpt lat="42.204481" lon="1.278810">
        <ele>965.650</ele>
        <time>2021-06-20T09:06:17Z</time>
      </trkpt>
      <trkpt lat="42.204529" lon="1.278662">
        <ele>966.469</ele>
        <time>2021-06-20T09:06:23Z</time>
      </trkpt>
      <trkpt lat="42.204550" lon="1.278589">
        <ele>966.804</ele>
        <time>2021-06-20T09:06:26Z</time>
      </trkpt>
      <trkpt lat="42.204578" lon="1.278459">
        <ele>967.624</ele>
        <time>2021-06-20T09:06:31Z</time>
      </trkpt>
      <trkpt lat="42.204602" lon="1.278298">
        <ele>968.208</ele>
        <time>2021-06-20T09:06:37Z</time>
      </trkpt>
      <trkpt lat="42.204603" lon="1.278217">
        <ele>968.423</ele>
        <time>2021-06-20T09:06:40Z</time>
      </trkpt>
      <trkpt lat="42.204629" lon="1.278094">
        <ele>969.232</ele>
        <time>2021-06-20T09:06:45Z</time>
      </trkpt>
      <trkpt lat="42.204636" lon="1.278017">
        <ele>969.469</ele>
        <time>2021-06-20T09:06:48Z</time>
      </trkpt>
      <trkpt lat="42.204656" lon="1.277947">
        <ele>969.821</ele>
        <time>2021-06-20T09:06:51Z</time>
      </trkpt>
      <trkpt lat="42.204716" lon="1.277832">
        <ele>970.255</ele>
        <time>2021-06-20T09:06:57Z</time>
      </trkpt>
      <trkpt lat="42.204725" lon="1.277810">
        <ele>970.456</ele>
        <time>2021-06-20T09:06:58Z</time>
      </trkpt>
      <trkpt lat="42.204813" lon="1.277672">
        <ele>971.616</ele>
        <time>2021-06-20T09:07:05Z</time>
      </trkpt>
      <trkpt lat="42.204886" lon="1.277547">
        <ele>972.414</ele>
        <time>2021-06-20T09:07:11Z</time>
      </trkpt>
      <trkpt lat="42.204897" lon="1.277525">
        <ele>972.633</ele>
        <time>2021-06-20T09:07:12Z</time>
      </trkpt>
      <trkpt lat="42.204960" lon="1.277364">
        <ele>973.223</ele>
        <time>2021-06-20T09:07:19Z</time>
      </trkpt>
      <trkpt lat="42.204977" lon="1.277316">
        <ele>973.615</ele>
        <time>2021-06-20T09:07:21Z</time>
      </trkpt>
      <trkpt lat="42.205013" lon="1.277192">
        <ele>974.008</ele>
        <time>2021-06-20T09:07:26Z</time>
      </trkpt>
      <trkpt lat="42.205032" lon="1.277095">
        <ele>974.660</ele>
        <time>2021-06-20T09:07:30Z</time>
      </trkpt>
      <trkpt lat="42.205042" lon="1.277026">
        <ele>975.089</ele>
        <time>2021-06-20T09:07:33Z</time>
      </trkpt>
      <trkpt lat="42.205062" lon="1.276921">
        <ele>975.456</ele>
        <time>2021-06-20T09:07:37Z</time>
      </trkpt>
      <trkpt lat="42.205067" lon="1.276807">
        <ele>976.078</ele>
        <time>2021-06-20T09:07:41Z</time>
      </trkpt>
      <trkpt lat="42.205065" lon="1.276748">
        <ele>976.642</ele>
        <time>2021-06-20T09:07:43Z</time>
      </trkpt>
      <trkpt lat="42.205024" lon="1.276592">
        <ele>977.243</ele>
        <time>2021-06-20T09:07:49Z</time>
      </trkpt>
      <trkpt lat="42.204981" lon="1.276503">
        <ele>977.613</ele>
        <time>2021-06-20T09:07:53Z</time>
      </trkpt>
      <trkpt lat="42.204922" lon="1.276432">
        <ele>977.881</ele>
        <time>2021-06-20T09:07:57Z</time>
      </trkpt>
      <trkpt lat="42.204871" lon="1.276389">
        <ele>978.417</ele>
        <time>2021-06-20T09:08:00Z</time>
      </trkpt>
      <trkpt lat="42.204853" lon="1.276377">
        <ele>978.687</ele>
        <time>2021-06-20T09:08:01Z</time>
      </trkpt>
      <trkpt lat="42.204763" lon="1.276325">
        <ele>979.215</ele>
        <time>2021-06-20T09:08:06Z</time>
      </trkpt>
      <trkpt lat="42.204728" lon="1.276301">
        <ele>979.408</ele>
        <time>2021-06-20T09:08:08Z</time>
      </trkpt>
      <trkpt lat="42.204630" lon="1.276211">
        <ele>980.688</ele>
        <time>2021-06-20T09:08:14Z</time>
      </trkpt>
      <trkpt lat="42.204613" lon="1.276196">
        <ele>980.897</ele>
        <time>2021-06-20T09:08:15Z</time>
      </trkpt>
      <trkpt lat="42.204456" lon="1.276076">
        <ele>981.664</ele>
        <time>2021-06-20T09:08:24Z</time>
      </trkpt>
      <trkpt lat="42.204438" lon="1.276066">
        <ele>981.856</ele>
        <time>2021-06-20T09:08:25Z</time>
      </trkpt>
      <trkpt lat="42.204287" lon="1.276005">
        <ele>982.890</ele>
        <time>2021-06-20T09:08:33Z</time>
      </trkpt>
      <trkpt lat="42.204271" lon="1.275996">
        <ele>982.671</ele>
        <time>2021-06-20T09:08:34Z</time>
      </trkpt>
      <trkpt lat="42.204163" lon="1.275973">
        <ele>983.651</ele>
        <time>2021-06-20T09:08:40Z</time>
      </trkpt>
      <trkpt lat="42.204052" lon="1.275952">
        <ele>984.619</ele>
        <time>2021-06-20T09:08:46Z</time>
      </trkpt>
      <trkpt lat="42.204034" lon="1.275941">
        <ele>984.876</ele>
        <time>2021-06-20T09:08:47Z</time>
      </trkpt>
      <trkpt lat="42.203905" lon="1.275808">
        <ele>985.690</ele>
        <time>2021-06-20T09:08:55Z</time>
      </trkpt>
      <trkpt lat="42.203761" lon="1.275659">
        <ele>986.219</ele>
        <time>2021-06-20T09:09:04Z</time>
      </trkpt>
      <trkpt lat="42.203731" lon="1.275622">
        <ele>986.408</ele>
        <time>2021-06-20T09:09:06Z</time>
      </trkpt>
      <trkpt lat="42.203594" lon="1.275470">
        <ele>987.634</ele>
        <time>2021-06-20T09:09:15Z</time>
      </trkpt>
      <trkpt lat="42.203488" lon="1.275348">
        <ele>988.433</ele>
        <time>2021-06-20T09:09:22Z</time>
      </trkpt>
      <trkpt lat="42.203455" lon="1.275315">
        <ele>988.630</ele>
        <time>2021-06-20T09:09:24Z</time>
      </trkpt>
      <trkpt lat="42.203340" lon="1.275210">
        <ele>989.812</ele>
        <time>2021-06-20T09:09:31Z</time>
      </trkpt>
      <trkpt lat="42.203323" lon="1.275197">
        <ele>990.066</ele>
        <time>2021-06-20T09:09:32Z</time>
      </trkpt>
      <trkpt lat="42.203237" lon="1.275134">
        <ele>990.667</ele>
        <time>2021-06-20T09:09:37Z</time>
      </trkpt>
      <trkpt lat="42.203186" lon="1.275096">
        <ele>991.247</ele>
        <time>2021-06-20T09:09:40Z</time>
      </trkpt>
      <trkpt lat="42.203110" lon="1.275059">
        <ele>991.895</ele>
        <time>2021-06-20T09:09:44Z</time>
      </trkpt>
      <trkpt lat="42.202996" lon="1.275001">
        <ele>992.612</ele>
        <time>2021-06-20T09:09:50Z</time>
      </trkpt>
      <trkpt lat="42.202955" lon="1.274988">
        <ele>992.832</ele>
        <time>2021-06-20T09:09:52Z</time>
      </trkpt>
      <trkpt lat="42.202843" lon="1.274924">
        <ele>993.405</ele>
        <time>2021-06-20T09:09:58Z</time>
      </trkpt>
      <trkpt lat="42.202799" lon="1.274868">
        <ele>994.008</ele>
        <time>2021-06-20T09:10:01Z</time>
      </trkpt>
      <trkpt lat="42.202726" lon="1.274739">
        <ele>994.498</ele>
        <time>2021-06-20T09:10:07Z</time>
      </trkpt>
      <trkpt lat="42.202634" lon="1.274600">
        <ele>995.027</ele>
        <time>2021-06-20T09:10:14Z</time>
      </trkpt>
      <trkpt lat="42.202596" lon="1.274538">
        <ele>995.444</ele>
        <time>2021-06-20T09:10:17Z</time>
      </trkpt>
      <trkpt lat="42.202520" lon="1.274412">
        <ele>996.036</ele>
        <time>2021-06-20T09:10:23Z</time>
      </trkpt>
      <trkpt lat="42.202474" lon="1.274325">
        <ele>996.660</ele>
        <time>2021-06-20T09:10:27Z</time>
      </trkpt>
      <trkpt lat="42.202423" lon="1.274209">
        <ele>997.211</ele>
        <time>2021-06-20T09:10:32Z</time>
      </trkpt>
      <trkpt lat="42.202414" lon="1.274185">
        <ele>997.291</ele>
        <time>2021-06-20T09:10:33Z</time>
      </trkpt>
      <trkpt lat="42.202347" lon="1.273958">
        <ele>998.299</ele>
        <time>2021-06-20T09:10:42Z</time>
      </trkpt>
      <trkpt lat="42.202295" lon="1.273760">
        <ele>999.027</ele>
        <time>2021-06-20T09:10:50Z</time>
      </trkpt>
      <trkpt lat="42.202286" lon="1.273735">
        <ele>999.268</ele>
        <time>2021-06-20T09:10:51Z</time>
      </trkpt>
      <trkpt lat="42.202218" lon="1.273606">
        <ele>1000.214</ele>
        <time>2021-06-20T09:10:57Z</time>
      </trkpt>
      <trkpt lat="42.202207" lon="1.273584">
        <ele>1000.408</ele>
        <time>2021-06-20T09:10:58Z</time>
      </trkpt>
      <trkpt lat="42.202121" lon="1.273436">
        <ele>1001.069</ele>
        <time>2021-06-20T09:11:05Z</time>
      </trkpt>
      <trkpt lat="42.202109" lon="1.273415">
        <ele>1001.438</ele>
        <time>2021-06-20T09:11:06Z</time>
      </trkpt>
      <trkpt lat="42.202015" lon="1.273239">
        <ele>1002.095</ele>
        <time>2021-06-20T09:11:14Z</time>
      </trkpt>
      <trkpt lat="42.201993" lon="1.273193">
        <ele>1002.287</ele>
        <time>2021-06-20T09:11:16Z</time>
      </trkpt>
      <trkpt lat="42.201891" lon="1.273063">
        <ele>1003.221</ele>
        <time>2021-06-20T09:11:23Z</time>
      </trkpt>
      <trkpt lat="42.201878" lon="1.273043">
        <ele>1003.462</ele>
        <time>2021-06-20T09:11:24Z</time>
      </trkpt>
      <trkpt lat="42.201782" lon="1.272868">
        <ele>1004.492</ele>
        <time>2021-06-20T09:11:32Z</time>
      </trkpt>
      <trkpt lat="42.201767" lon="1.272848">
        <ele>1004.680</ele>
        <time>2021-06-20T09:11:33Z</time>
      </trkpt>
      <trkpt lat="42.201663" lon="1.272724">
        <ele>1005.449</ele>
        <time>2021-06-20T09:11:40Z</time>
      </trkpt>
      <trkpt lat="42.201648" lon="1.272707">
        <ele>1005.602</ele>
        <time>2021-06-20T09:11:41Z</time>
      </trkpt>
      <trkpt lat="42.201573" lon="1.272618">
        <ele>1006.622</ele>
        <time>2021-06-20T09:11:46Z</time>
      </trkpt>
      <trkpt lat="42.201485" lon="1.272507">
        <ele>1007.208</ele>
        <time>2021-06-20T09:11:52Z</time>
      </trkpt>
      <trkpt lat="42.201472" lon="1.272486">
        <ele>1007.421</ele>
        <time>2021-06-20T09:11:53Z</time>
      </trkpt>
      <trkpt lat="42.201410" lon="1.272306">
        <ele>1008.060</ele>
        <time>2021-06-20T09:12:00Z</time>
      </trkpt>
      <trkpt lat="42.201372" lon="1.272161">
        <ele>1008.277</ele>
        <time>2021-06-20T09:12:05Z</time>
      </trkpt>
      <trkpt lat="42.201356" lon="1.272102">
        <ele>1008.689</ele>
        <time>2021-06-20T09:12:07Z</time>
      </trkpt>
      <trkpt lat="42.201317" lon="1.271958">
        <ele>1009.223</ele>
        <time>2021-06-20T09:12:12Z</time>
      </trkpt>
      <trkpt lat="42.201284" lon="1.271842">
        <ele>1009.664</ele>
        <time>2021-06-20T09:12:16Z</time>
      </trkpt>
      <trkpt lat="42.201277" lon="1.271780">
        <ele>1009.854</ele>
        <time>2021-06-20T09:12:18Z</time>
      </trkpt>
      <trkpt lat="42.201279" lon="1.271652">
        <ele>1010.672</ele>
        <time>2021-06-20T09:12:22Z</time>
      </trkpt>
      <trkpt lat="42.201306" lon="1.271503">
        <ele>1011.288</ele>
        <time>2021-06-20T09:12:27Z</time>
      </trkpt>
      <trkpt lat="42.201346" lon="1.271324">
        <ele>1011.624</ele>
        <time>2021-06-20T09:12:33Z</time>
      </trkpt>
      <trkpt lat="42.201360" lon="1.271266">
        <ele>1012.026</ele>
        <time>2021-06-20T09:12:35Z</time>
      </trkpt>
      <trkpt lat="42.201400" lon="1.271090">
        <ele>1012.808</ele>
        <time>2021-06-20T09:12:41Z</time>
      </trkpt>
      <trkpt lat="42.201410" lon="1.271062">
        <ele>1013.025</ele>
        <time>2021-06-20T09:12:42Z</time>
      </trkpt>
      <trkpt lat="42.201490" lon="1.270845">
        <ele>1014.074</ele>
        <time>2021-06-20T09:12:50Z</time>
      </trkpt>
      <trkpt lat="42.201504" lon="1.270822">
        <ele>1014.251</ele>
        <time>2021-06-20T09:12:51Z</time>
      </trkpt>
      <trkpt lat="42.201621" lon="1.270637">
        <ele>1015.053</ele>
        <time>2021-06-20T09:12:59Z</time>
      </trkpt>
      <trkpt lat="42.201638" lon="1.270617">
        <ele>1015.277</ele>
        <time>2021-06-20T09:13:00Z</time>
      </trkpt>
      <trkpt lat="42.201722" lon="1.270479">
        <ele>1016.298</ele>
        <time>2021-06-20T09:13:06Z</time>
      </trkpt>
      <trkpt lat="42.201734" lon="1.270454">
        <ele>1016.438</ele>
        <time>2021-06-20T09:13:07Z</time>
      </trkpt>
      <trkpt lat="42.201785" lon="1.270284">
        <ele>1017.246</ele>
        <time>2021-06-20T09:13:13Z</time>
      </trkpt>
      <trkpt lat="42.201793" lon="1.270223">
        <ele>1017.662</ele>
        <time>2021-06-20T09:13:15Z</time>
      </trkpt>
      <trkpt lat="42.201815" lon="1.270037">
        <ele>1018.483</ele>
        <time>2021-06-20T09:13:21Z</time>
      </trkpt>
      <trkpt lat="42.201827" lon="1.269883">
        <ele>1019.011</ele>
        <time>2021-06-20T09:13:26Z</time>
      </trkpt>
      <trkpt lat="42.201828" lon="1.269758">
        <ele>1019.608</ele>
        <time>2021-06-20T09:13:30Z</time>
      </trkpt>
      <trkpt lat="42.201812" lon="1.269636">
        <ele>1019.853</ele>
        <time>2021-06-20T09:13:34Z</time>
      </trkpt>
      <trkpt lat="42.201775" lon="1.269522">
        <ele>1020.442</ele>
        <time>2021-06-20T09:13:38Z</time>
      </trkpt>
      <trkpt lat="42.201719" lon="1.269427">
        <ele>1021.079</ele>
        <time>2021-06-20T09:13:42Z</time>
      </trkpt>
      <trkpt lat="42.201648" lon="1.269349">
        <ele>1021.661</ele>
        <time>2021-06-20T09:13:46Z</time>
      </trkpt>
      <trkpt lat="42.201524" lon="1.269271">
        <ele>1022.495</ele>
        <time>2021-06-20T09:13:52Z</time>
      </trkpt>
      <trkpt lat="42.201483" lon="1.269240">
        <ele>1022.696</ele>
        <time>2021-06-20T09:13:54Z</time>
      </trkpt>
      <trkpt lat="42.201359" lon="1.269160">
        <ele>1023.416</ele>
        <time>2021-06-20T09:14:00Z</time>
      </trkpt>
      <trkpt lat="42.201338" lon="1.269146">
        <ele>1023.414</ele>
        <time>2021-06-20T09:14:01Z</time>
      </trkpt>
      <trkpt lat="42.201220" lon="1.269002">
        <ele>1024.433</ele>
        <time>2021-06-20T09:14:08Z</time>
      </trkpt>
      <trkpt lat="42.201208" lon="1.268976">
        <ele>1024.623</ele>
        <time>2021-06-20T09:14:09Z</time>
      </trkpt>
      <trkpt lat="42.201200" lon="1.268856">
        <ele>1024.815</ele>
        <time>2021-06-20T09:14:13Z</time>
      </trkpt>
      <trkpt lat="42.201285" lon="1.268649">
        <ele>1025.408</ele>
        <time>2021-06-20T09:14:20Z</time>
      </trkpt>
      <trkpt lat="42.201357" lon="1.268534">
        <ele>1025.610</ele>
        <time>2021-06-20T09:14:24Z</time>
      </trkpt>
      <trkpt lat="42.201447" lon="1.268384">
        <ele>1025.849</ele>
        <time>2021-06-20T09:14:29Z</time>
      </trkpt>
      <trkpt lat="42.201638" lon="1.268120">
        <ele>1026.696</ele>
        <time>2021-06-20T09:14:39Z</time>
      </trkpt>
      <trkpt lat="42.201801" lon="1.267933">
        <ele>1027.228</ele>
        <time>2021-06-20T09:14:47Z</time>
      </trkpt>
      <trkpt lat="42.201917" lon="1.267793">
        <ele>1027.642</ele>
        <time>2021-06-20T09:14:53Z</time>
      </trkpt>
      <trkpt lat="42.201956" lon="1.267747">
        <ele>1027.853</ele>
        <time>2021-06-20T09:14:55Z</time>
      </trkpt>
      <trkpt lat="42.202064" lon="1.267542">
        <ele>1028.623</ele>
        <time>2021-06-20T09:15:02Z</time>
      </trkpt>
      <trkpt lat="42.202074" lon="1.267508">
        <ele>1028.831</ele>
        <time>2021-06-20T09:15:03Z</time>
      </trkpt>
      <trkpt lat="42.202094" lon="1.267276">
        <ele>1029.691</ele>
        <time>2021-06-20T09:15:09Z</time>
      </trkpt>
      <trkpt lat="42.202092" lon="1.267190">
        <ele>1029.881</ele>
        <time>2021-06-20T09:15:11Z</time>
      </trkpt>
      <trkpt lat="42.202042" lon="1.266820">
        <ele>1029.819</ele>
        <time>2021-06-20T09:15:19Z</time>
      </trkpt>
      <trkpt lat="42.201920" lon="1.266360">
        <ele>1029.608</ele>
        <time>2021-06-20T09:15:29Z</time>
      </trkpt>
      <trkpt lat="42.201760" lon="1.266171">
        <ele>1030.276</ele>
        <time>2021-06-20T09:15:35Z</time>
      </trkpt>
      <trkpt lat="42.201665" lon="1.266125">
        <ele>1030.635</ele>
        <time>2021-06-20T09:15:38Z</time>
      </trkpt>
      <trkpt lat="42.201577" lon="1.266093">
        <ele>1030.632</ele>
        <time>2021-06-20T09:15:41Z</time>
      </trkpt>
      <trkpt lat="42.201380" lon="1.266028">
        <ele>1031.484</ele>
        <time>2021-06-20T09:15:48Z</time>
      </trkpt>
      <trkpt lat="42.201239" lon="1.265990">
        <ele>1032.488</ele>
        <time>2021-06-20T09:15:53Z</time>
      </trkpt>
      <trkpt lat="42.201183" lon="1.265981">
        <ele>1032.629</ele>
        <time>2021-06-20T09:15:55Z</time>
      </trkpt>
      <trkpt lat="42.201040" lon="1.265933">
        <ele>1033.659</ele>
        <time>2021-06-20T09:16:00Z</time>
      </trkpt>
      <trkpt lat="42.200933" lon="1.265867">
        <ele>1034.057</ele>
        <time>2021-06-20T09:16:04Z</time>
      </trkpt>
      <trkpt lat="42.200818" lon="1.265692">
        <ele>1034.686</ele>
        <time>2021-06-20T09:16:10Z</time>
      </trkpt>
      <trkpt lat="42.200804" lon="1.265662">
        <ele>1034.860</ele>
        <time>2021-06-20T09:16:11Z</time>
      </trkpt>
      <trkpt lat="42.200698" lon="1.265502">
        <ele>1035.626</ele>
        <time>2021-06-20T09:16:17Z</time>
      </trkpt>
      <trkpt lat="42.200680" lon="1.265476">
        <ele>1035.808</ele>
        <time>2021-06-20T09:16:18Z</time>
      </trkpt>
      <trkpt lat="42.200561" lon="1.265345">
        <ele>1036.695</ele>
        <time>2021-06-20T09:16:24Z</time>
      </trkpt>
      <trkpt lat="42.200539" lon="1.265326">
        <ele>1036.694</ele>
        <time>2021-06-20T09:16:25Z</time>
      </trkpt>
      <trkpt lat="42.200469" lon="1.265180">
        <ele>1037.221</ele>
        <time>2021-06-20T09:16:30Z</time>
      </trkpt>
      <trkpt lat="42.200475" lon="1.265115">
        <ele>1037.833</ele>
        <time>2021-06-20T09:16:32Z</time>
      </trkpt>
      <trkpt lat="42.200496" lon="1.265022">
        <ele>1038.077</ele>
        <time>2021-06-20T09:16:35Z</time>
      </trkpt>
      <trkpt lat="42.200584" lon="1.264882">
        <ele>1038.618</ele>
        <time>2021-06-20T09:16:41Z</time>
      </trkpt>
      <trkpt lat="42.200601" lon="1.264861">
        <ele>1038.858</ele>
        <time>2021-06-20T09:16:42Z</time>
      </trkpt>
      <trkpt lat="42.200735" lon="1.264745">
        <ele>1040.046</ele>
        <time>2021-06-20T09:16:49Z</time>
      </trkpt>
      <trkpt lat="42.200757" lon="1.264734">
        <ele>1040.085</ele>
        <time>2021-06-20T09:16:50Z</time>
      </trkpt>
      <trkpt lat="42.200912" lon="1.264675">
        <ele>1041.089</ele>
        <time>2021-06-20T09:16:57Z</time>
      </trkpt>
      <trkpt lat="42.200958" lon="1.264663">
        <ele>1041.217</ele>
        <time>2021-06-20T09:16:59Z</time>
      </trkpt>
      <trkpt lat="42.201131" lon="1.264574">
        <ele>1041.808</ele>
        <time>2021-06-20T09:17:07Z</time>
      </trkpt>
      <trkpt lat="42.201174" lon="1.264548">
        <ele>1042.045</ele>
        <time>2021-06-20T09:17:09Z</time>
      </trkpt>
      <trkpt lat="42.201278" lon="1.264479">
        <ele>1042.434</ele>
        <time>2021-06-20T09:17:14Z</time>
      </trkpt>
      <trkpt lat="42.201361" lon="1.264369">
        <ele>1043.281</ele>
        <time>2021-06-20T09:17:19Z</time>
      </trkpt>
      <trkpt lat="42.201387" lon="1.264316">
        <ele>1043.663</ele>
        <time>2021-06-20T09:17:21Z</time>
      </trkpt>
      <trkpt lat="42.201433" lon="1.264111">
        <ele>1044.297</ele>
        <time>2021-06-20T09:17:28Z</time>
      </trkpt>
      <trkpt lat="42.201446" lon="1.263933">
        <ele>1045.218</ele>
        <time>2021-06-20T09:17:34Z</time>
      </trkpt>
      <trkpt lat="42.201447" lon="1.263906">
        <ele>1045.278</ele>
        <time>2021-06-20T09:17:35Z</time>
      </trkpt>
      <trkpt lat="42.201448" lon="1.263692">
        <ele>1046.216</ele>
        <time>2021-06-20T09:17:43Z</time>
      </trkpt>
      <trkpt lat="42.201449" lon="1.263665">
        <ele>1046.255</ele>
        <time>2021-06-20T09:17:44Z</time>
      </trkpt>
      <trkpt lat="42.201454" lon="1.263504">
        <ele>1047.207</ele>
        <time>2021-06-20T09:17:50Z</time>
      </trkpt>
      <trkpt lat="42.201480" lon="1.263321">
        <ele>1048.217</ele>
        <time>2021-06-20T09:17:57Z</time>
      </trkpt>
      <trkpt lat="42.201490" lon="1.263268">
        <ele>1048.208</ele>
        <time>2021-06-20T09:17:59Z</time>
      </trkpt>
      <trkpt lat="42.201523" lon="1.263111">
        <ele>1049.092</ele>
        <time>2021-06-20T09:18:05Z</time>
      </trkpt>
      <trkpt lat="42.201540" lon="1.263034">
        <ele>1049.291</ele>
        <time>2021-06-20T09:18:08Z</time>
      </trkpt>
      <trkpt lat="42.201558" lon="1.262928">
        <ele>1049.658</ele>
        <time>2021-06-20T09:18:12Z</time>
      </trkpt>
      <trkpt lat="42.201574" lon="1.262792">
        <ele>1050.470</ele>
        <time>2021-06-20T09:18:17Z</time>
      </trkpt>
      <trkpt lat="42.201580" lon="1.262600">
        <ele>1051.274</ele>
        <time>2021-06-20T09:18:24Z</time>
      </trkpt>
      <trkpt lat="42.201579" lon="1.262544">
        <ele>1051.465</ele>
        <time>2021-06-20T09:18:26Z</time>
      </trkpt>
      <trkpt lat="42.201622" lon="1.262410">
        <ele>1052.225</ele>
        <time>2021-06-20T09:18:31Z</time>
      </trkpt>
      <trkpt lat="42.201793" lon="1.262299">
        <ele>1052.653</ele>
        <time>2021-06-20T09:18:38Z</time>
      </trkpt>
      <trkpt lat="42.201942" lon="1.262161">
        <ele>1052.827</ele>
        <time>2021-06-20T09:18:45Z</time>
      </trkpt>
      <trkpt lat="42.202004" lon="1.262058">
        <ele>1053.268</ele>
        <time>2021-06-20T09:18:49Z</time>
      </trkpt>
      <trkpt lat="42.202078" lon="1.261940">
        <ele>1053.814</ele>
        <time>2021-06-20T09:18:54Z</time>
      </trkpt>
      <trkpt lat="42.202135" lon="1.261841">
        <ele>1054.208</ele>
        <time>2021-06-20T09:18:58Z</time>
      </trkpt>
      <trkpt lat="42.202208" lon="1.261645">
        <ele>1055.299</ele>
        <time>2021-06-20T09:19:05Z</time>
      </trkpt>
      <trkpt lat="42.202222" lon="1.261585">
        <ele>1055.458</ele>
        <time>2021-06-20T09:19:07Z</time>
      </trkpt>
      <trkpt lat="42.202254" lon="1.261371">
        <ele>1056.275</ele>
        <time>2021-06-20T09:19:14Z</time>
      </trkpt>
      <trkpt lat="42.202259" lon="1.261340">
        <ele>1056.477</ele>
        <time>2021-06-20T09:19:15Z</time>
      </trkpt>
      <trkpt lat="42.202288" lon="1.261124">
        <ele>1057.281</ele>
        <time>2021-06-20T09:19:22Z</time>
      </trkpt>
      <trkpt lat="42.202294" lon="1.261093">
        <ele>1057.482</ele>
        <time>2021-06-20T09:19:23Z</time>
      </trkpt>
      <trkpt lat="42.202334" lon="1.260914">
        <ele>1058.662</ele>
        <time>2021-06-20T09:19:29Z</time>
      </trkpt>
      <trkpt lat="42.202366" lon="1.260833">
        <ele>1058.840</ele>
        <time>2021-06-20T09:19:32Z</time>
      </trkpt>
      <trkpt lat="42.202434" lon="1.260670">
        <ele>1059.489</ele>
        <time>2021-06-20T09:19:38Z</time>
      </trkpt>
      <trkpt lat="42.202506" lon="1.260547">
        <ele>1060.006</ele>
        <time>2021-06-20T09:19:43Z</time>
      </trkpt>
      <trkpt lat="42.202541" lon="1.260466">
        <ele>1060.426</ele>
        <time>2021-06-20T09:19:46Z</time>
      </trkpt>
      <trkpt lat="42.202636" lon="1.260286">
        <ele>1061.608</ele>
        <time>2021-06-20T09:19:53Z</time>
      </trkpt>
      <trkpt lat="42.202649" lon="1.260261">
        <ele>1061.815</ele>
        <time>2021-06-20T09:19:54Z</time>
      </trkpt>
      <trkpt lat="42.202743" lon="1.260124">
        <ele>1062.834</ele>
        <time>2021-06-20T09:20:00Z</time>
      </trkpt>
      <trkpt lat="42.202819" lon="1.260046">
        <ele>1063.431</ele>
        <time>2021-06-20T09:20:04Z</time>
      </trkpt>
      <trkpt lat="42.202871" lon="1.259979">
        <ele>1063.823</ele>
        <time>2021-06-20T09:20:07Z</time>
      </trkpt>
      <trkpt lat="42.202940" lon="1.259894">
        <ele>1064.477</ele>
        <time>2021-06-20T09:20:11Z</time>
      </trkpt>
      <trkpt lat="42.202957" lon="1.259871">
        <ele>1064.428</ele>
        <time>2021-06-20T09:20:12Z</time>
      </trkpt>
      <trkpt lat="42.203026" lon="1.259786">
        <ele>1065.028</ele>
        <time>2021-06-20T09:20:16Z</time>
      </trkpt>
      <trkpt lat="42.203124" lon="1.259611">
        <ele>1066.036</ele>
        <time>2021-06-20T09:20:23Z</time>
      </trkpt>
      <trkpt lat="42.203198" lon="1.259314">
        <ele>1067.058</ele>
        <time>2021-06-20T09:20:32Z</time>
      </trkpt>
      <trkpt lat="42.203204" lon="1.258977">
        <ele>1067.252</ele>
        <time>2021-06-20T09:20:40Z</time>
      </trkpt>
      <trkpt lat="42.203165" lon="1.258638">
        <ele>1067.617</ele>
        <time>2021-06-20T09:20:48Z</time>
      </trkpt>
      <trkpt lat="42.203161" lon="1.258598">
        <ele>1067.808</ele>
        <time>2021-06-20T09:20:49Z</time>
      </trkpt>
      <trkpt lat="42.203132" lon="1.258268">
        <ele>1068.652</ele>
        <time>2021-06-20T09:20:57Z</time>
      </trkpt>
      <trkpt lat="42.203098" lon="1.258200">
        <ele>1068.851</ele>
        <time>2021-06-20T09:20:59Z</time>
      </trkpt>
      <trkpt lat="42.203054" lon="1.258147">
        <ele>1069.038</ele>
        <time>2021-06-20T09:21:01Z</time>
      </trkpt>
      <trkpt lat="42.202871" lon="1.257893">
        <ele>1070.020</ele>
        <time>2021-06-20T09:21:09Z</time>
      </trkpt>
      <trkpt lat="42.202883" lon="1.257729">
        <ele>1071.094</ele>
        <time>2021-06-20T09:21:14Z</time>
      </trkpt>
      <trkpt lat="42.202901" lon="1.257652">
        <ele>1071.615</ele>
        <time>2021-06-20T09:21:16Z</time>
      </trkpt>
      <trkpt lat="42.202923" lon="1.257540">
        <ele>1072.085</ele>
        <time>2021-06-20T09:21:19Z</time>
      </trkpt>
      <trkpt lat="42.202951" lon="1.257370">
        <ele>1072.423</ele>
        <time>2021-06-20T09:21:24Z</time>
      </trkpt>
      <trkpt lat="42.202991" lon="1.257238">
        <ele>1073.042</ele>
        <time>2021-06-20T09:21:28Z</time>
      </trkpt>
      <trkpt lat="42.203051" lon="1.256969">
        <ele>1074.022</ele>
        <time>2021-06-20T09:21:36Z</time>
      </trkpt>
      <trkpt lat="42.203105" lon="1.256727">
        <ele>1075.014</ele>
        <time>2021-06-20T09:21:43Z</time>
      </trkpt>
      <trkpt lat="42.203127" lon="1.256627">
        <ele>1075.408</ele>
        <time>2021-06-20T09:21:45Z</time>
      </trkpt>
      <trkpt lat="42.203152" lon="1.256491">
        <ele>1076.251</ele>
        <time>2021-06-20T09:21:50Z</time>
      </trkpt>
      <trkpt lat="42.203180" lon="1.256315">
        <ele>1077.430</ele>
        <time>2021-06-20T09:21:55Z</time>
      </trkpt>
      <trkpt lat="42.203202" lon="1.256208">
        <ele>1077.867</ele>
        <time>2021-06-20T09:21:57Z</time>
      </trkpt>
      <trkpt lat="42.203229" lon="1.256102">
        <ele>1078.429</ele>
        <time>2021-06-20T09:22:01Z</time>
      </trkpt>
      <trkpt lat="42.203309" lon="1.255868">
        <ele>1079.233</ele>
        <time>2021-06-20T09:22:08Z</time>
      </trkpt>
      <trkpt lat="42.203320" lon="1.255835">
        <ele>1079.264</ele>
        <time>2021-06-20T09:22:09Z</time>
      </trkpt>
      <trkpt lat="42.203409" lon="1.255613">
        <ele>1080.044</ele>
        <time>2021-06-20T09:22:16Z</time>
      </trkpt>
      <trkpt lat="42.203451" lon="1.255401">
        <ele>1080.282</ele>
        <time>2021-06-20T09:22:21Z</time>
      </trkpt>
      <trkpt lat="42.203458" lon="1.255299">
        <ele>1080.856</ele>
        <time>2021-06-20T09:22:25Z</time>
      </trkpt>
      <trkpt lat="42.203450" lon="1.255239">
        <ele>1081.259</ele>
        <time>2021-06-20T09:22:28Z</time>
      </trkpt>
      <trkpt lat="42.203449" lon="1.255238">
        <ele>1081.214</ele>
        <time>2021-06-20T09:22:29Z</time>
      </trkpt>
      <trkpt lat="42.203532" lon="1.255098">
        <ele>1079.408</ele>
        <time>2021-06-20T09:32:05Z</time>
      </trkpt>
      <trkpt lat="42.203520" lon="1.255049">
        <ele>1079.462</ele>
        <time>2021-06-20T09:32:07Z</time>
      </trkpt>
      <trkpt lat="42.203428" lon="1.254909">
        <ele>1079.841</ele>
        <time>2021-06-20T09:32:11Z</time>
      </trkpt>
      <trkpt lat="42.203253" lon="1.254830">
        <ele>1079.828</ele>
        <time>2021-06-20T09:32:17Z</time>
      </trkpt>
      <trkpt lat="42.203198" lon="1.254807">
        <ele>1080.460</ele>
        <time>2021-06-20T09:32:20Z</time>
      </trkpt>
      <trkpt lat="42.203063" lon="1.254747">
        <ele>1081.614</ele>
        <time>2021-06-20T09:32:24Z</time>
      </trkpt>
      <trkpt lat="42.202845" lon="1.254672">
        <ele>1082.485</ele>
        <time>2021-06-20T09:32:29Z</time>
      </trkpt>
      <trkpt lat="42.202812" lon="1.254661">
        <ele>1082.635</ele>
        <time>2021-06-20T09:32:31Z</time>
      </trkpt>
      <trkpt lat="42.202601" lon="1.254605">
        <ele>1083.433</ele>
        <time>2021-06-20T09:32:38Z</time>
      </trkpt>
      <trkpt lat="42.202538" lon="1.254601">
        <ele>1084.234</ele>
        <time>2021-06-20T09:32:40Z</time>
      </trkpt>
      <trkpt lat="42.202471" lon="1.254605">
        <ele>1084.855</ele>
        <time>2021-06-20T09:32:42Z</time>
      </trkpt>
      <trkpt lat="42.202351" lon="1.254622">
        <ele>1085.410</ele>
        <time>2021-06-20T09:32:46Z</time>
      </trkpt>
      <trkpt lat="42.202294" lon="1.254630">
        <ele>1085.608</ele>
        <time>2021-06-20T09:32:47Z</time>
      </trkpt>
      <trkpt lat="42.202188" lon="1.254613">
        <ele>1086.410</ele>
        <time>2021-06-20T09:32:52Z</time>
      </trkpt>
      <trkpt lat="42.202164" lon="1.254604">
        <ele>1086.679</ele>
        <time>2021-06-20T09:32:53Z</time>
      </trkpt>
      <trkpt lat="42.202044" lon="1.254548">
        <ele>1087.846</ele>
        <time>2021-06-20T09:32:58Z</time>
      </trkpt>
      <trkpt lat="42.201975" lon="1.254493">
        <ele>1088.288</ele>
        <time>2021-06-20T09:33:01Z</time>
      </trkpt>
      <trkpt lat="42.201841" lon="1.254373">
        <ele>1088.812</ele>
        <time>2021-06-20T09:33:07Z</time>
      </trkpt>
      <trkpt lat="42.201722" lon="1.254282">
        <ele>1089.493</ele>
        <time>2021-06-20T09:33:12Z</time>
      </trkpt>
      <trkpt lat="42.201652" lon="1.254228">
        <ele>1090.283</ele>
        <time>2021-06-20T09:33:15Z</time>
      </trkpt>
      <trkpt lat="42.201563" lon="1.254144">
        <ele>1091.451</ele>
        <time>2021-06-20T09:33:19Z</time>
      </trkpt>
      <trkpt lat="42.201503" lon="1.254082">
        <ele>1092.078</ele>
        <time>2021-06-20T09:33:21Z</time>
      </trkpt>
      <trkpt lat="42.201484" lon="1.254062">
        <ele>1092.633</ele>
        <time>2021-06-20T09:33:23Z</time>
      </trkpt>
      <trkpt lat="42.201413" lon="1.253966">
        <ele>1093.826</ele>
        <time>2021-06-20T09:33:27Z</time>
      </trkpt>
      <trkpt lat="42.201350" lon="1.253860">
        <ele>1094.408</ele>
        <time>2021-06-20T09:33:31Z</time>
      </trkpt>
      <trkpt lat="42.201273" lon="1.253731">
        <ele>1095.064</ele>
        <time>2021-06-20T09:33:35Z</time>
      </trkpt>
      <trkpt lat="42.201211" lon="1.253630">
        <ele>1096.283</ele>
        <time>2021-06-20T09:33:40Z</time>
      </trkpt>
      <trkpt lat="42.201084" lon="1.253469">
        <ele>1097.270</ele>
        <time>2021-06-20T09:33:47Z</time>
      </trkpt>
      <trkpt lat="42.201043" lon="1.253429">
        <ele>1097.462</ele>
        <time>2021-06-20T09:33:49Z</time>
      </trkpt>
      <trkpt lat="42.200963" lon="1.253349">
        <ele>1098.286</ele>
        <time>2021-06-20T09:33:53Z</time>
      </trkpt>
      <trkpt lat="42.200853" lon="1.253258">
        <ele>1098.857</ele>
        <time>2021-06-20T09:33:57Z</time>
      </trkpt>
      <trkpt lat="42.200808" lon="1.253226">
        <ele>1099.427</ele>
        <time>2021-06-20T09:34:00Z</time>
      </trkpt>
      <trkpt lat="42.200672" lon="1.253127">
        <ele>1100.465</ele>
        <time>2021-06-20T09:34:05Z</time>
      </trkpt>
      <trkpt lat="42.200578" lon="1.253070">
        <ele>1101.025</ele>
        <time>2021-06-20T09:34:10Z</time>
      </trkpt>
      <trkpt lat="42.200534" lon="1.253040">
        <ele>1101.426</ele>
        <time>2021-06-20T09:34:12Z</time>
      </trkpt>
      <trkpt lat="42.200443" lon="1.252992">
        <ele>1101.608</ele>
        <time>2021-06-20T09:34:15Z</time>
      </trkpt>
      <trkpt lat="42.200397" lon="1.252972">
        <ele>1102.208</ele>
        <time>2021-06-20T09:34:18Z</time>
      </trkpt>
      <trkpt lat="42.200302" lon="1.252945">
        <ele>1102.499</ele>
        <time>2021-06-20T09:34:22Z</time>
      </trkpt>
      <trkpt lat="42.200232" lon="1.252925">
        <ele>1102.868</ele>
        <time>2021-06-20T09:34:25Z</time>
      </trkpt>
      <trkpt lat="42.200120" lon="1.252879">
        <ele>1103.675</ele>
        <time>2021-06-20T09:34:29Z</time>
      </trkpt>
      <trkpt lat="42.200029" lon="1.252836">
        <ele>1104.427</ele>
        <time>2021-06-20T09:34:34Z</time>
      </trkpt>
      <trkpt lat="42.200008" lon="1.252821">
        <ele>1104.671</ele>
        <time>2021-06-20T09:34:35Z</time>
      </trkpt>
      <trkpt lat="42.199924" lon="1.252730">
        <ele>1105.612</ele>
        <time>2021-06-20T09:34:40Z</time>
      </trkpt>
      <trkpt lat="42.199894" lon="1.252695">
        <ele>1105.842</ele>
        <time>2021-06-20T09:34:41Z</time>
      </trkpt>
      <trkpt lat="42.199768" lon="1.252563">
        <ele>1106.850</ele>
        <time>2021-06-20T09:34:50Z</time>
      </trkpt>
      <trkpt lat="42.199752" lon="1.252553">
        <ele>1106.838</ele>
        <time>2021-06-20T09:34:51Z</time>
      </trkpt>
      <trkpt lat="42.199662" lon="1.252508">
        <ele>1107.470</ele>
        <time>2021-06-20T09:34:57Z</time>
      </trkpt>
      <trkpt lat="42.199574" lon="1.252415">
        <ele>1107.617</ele>
        <time>2021-06-20T09:35:02Z</time>
      </trkpt>
      <trkpt lat="42.199431" lon="1.252226">
        <ele>1107.608</ele>
        <time>2021-06-20T09:35:08Z</time>
      </trkpt>
      <trkpt lat="42.199397" lon="1.252126">
        <ele>1107.450</ele>
        <time>2021-06-20T09:35:10Z</time>
      </trkpt>
      <trkpt lat="42.199367" lon="1.251977">
        <ele>1106.869</ele>
        <time>2021-06-20T09:35:13Z</time>
      </trkpt>
      <trkpt lat="42.199299" lon="1.251732">
        <ele>1106.436</ele>
        <time>2021-06-20T09:35:19Z</time>
      </trkpt>
      <trkpt lat="42.199230" lon="1.251430">
        <ele>1106.668</ele>
        <time>2021-06-20T09:35:27Z</time>
      </trkpt>
      <trkpt lat="42.199184" lon="1.251144">
        <ele>1107.212</ele>
        <time>2021-06-20T09:35:35Z</time>
      </trkpt>
      <trkpt lat="42.199153" lon="1.251054">
        <ele>1107.633</ele>
        <time>2021-06-20T09:35:39Z</time>
      </trkpt>
      <trkpt lat="42.199164" lon="1.251038">
        <ele>1107.863</ele>
        <time>2021-06-20T09:35:40Z</time>
      </trkpt>
      <trkpt lat="42.199200" lon="1.251020">
        <ele>1108.421</ele>
        <time>2021-06-20T09:35:42Z</time>
      </trkpt>
      <trkpt lat="42.199226" lon="1.251013">
        <ele>1108.689</ele>
        <time>2021-06-20T09:35:44Z</time>
      </trkpt>
      <trkpt lat="42.199234" lon="1.251016">
        <ele>1108.806</ele>
        <time>2021-06-20T09:35:45Z</time>
      </trkpt>
      <trkpt lat="42.199234" lon="1.251016">
        <ele>1109.226</ele>
        <time>2021-06-20T09:35:47Z</time>
      </trkpt>
      <trkpt lat="42.199178" lon="1.251050">
        <ele>1109.808</ele>
        <time>2021-06-20T09:37:17Z</time>
      </trkpt>
      <trkpt lat="42.199152" lon="1.251042">
        <ele>1109.825</ele>
        <time>2021-06-20T09:37:18Z</time>
      </trkpt>
      <trkpt lat="42.199069" lon="1.250983">
        <ele>1109.864</ele>
        <time>2021-06-20T09:37:22Z</time>
      </trkpt>
      <trkpt lat="42.199029" lon="1.250954">
        <ele>1109.891</ele>
        <time>2021-06-20T09:37:24Z</time>
      </trkpt>
      <trkpt lat="42.198867" lon="1.250849">
        <ele>1109.813</ele>
        <time>2021-06-20T09:37:32Z</time>
      </trkpt>
      <trkpt lat="42.198656" lon="1.250734">
        <ele>1110.417</ele>
        <time>2021-06-20T09:37:42Z</time>
      </trkpt>
      <trkpt lat="42.198616" lon="1.250706">
        <ele>1110.848</ele>
        <time>2021-06-20T09:37:44Z</time>
      </trkpt>
      <trkpt lat="42.198518" lon="1.250639">
        <ele>1111.818</ele>
        <time>2021-06-20T09:37:49Z</time>
      </trkpt>
      <trkpt lat="42.198500" lon="1.250622">
        <ele>1112.096</ele>
        <time>2021-06-20T09:37:50Z</time>
      </trkpt>
      <trkpt lat="42.198404" lon="1.250491">
        <ele>1113.048</ele>
        <time>2021-06-20T09:37:57Z</time>
      </trkpt>
      <trkpt lat="42.198351" lon="1.250324">
        <ele>1114.061</ele>
        <time>2021-06-20T09:38:04Z</time>
      </trkpt>
      <trkpt lat="42.198341" lon="1.250276">
        <ele>1114.417</ele>
        <time>2021-06-20T09:38:06Z</time>
      </trkpt>
      <trkpt lat="42.198329" lon="1.250206">
        <ele>1115.208</ele>
        <time>2021-06-20T09:38:09Z</time>
      </trkpt>
      <trkpt lat="42.198292" lon="1.250092">
        <ele>1116.441</ele>
        <time>2021-06-20T09:38:14Z</time>
      </trkpt>
      <trkpt lat="42.198264" lon="1.250029">
        <ele>1117.280</ele>
        <time>2021-06-20T09:38:17Z</time>
      </trkpt>
      <trkpt lat="42.198253" lon="1.250009">
        <ele>1117.487</ele>
        <time>2021-06-20T09:38:18Z</time>
      </trkpt>
      <trkpt lat="42.198199" lon="1.249879">
        <ele>1118.449</ele>
        <time>2021-06-20T09:38:24Z</time>
      </trkpt>
      <trkpt lat="42.198151" lon="1.249802">
        <ele>1119.273</ele>
        <time>2021-06-20T09:38:28Z</time>
      </trkpt>
      <trkpt lat="42.198127" lon="1.249763">
        <ele>1119.664</ele>
        <time>2021-06-20T09:38:30Z</time>
      </trkpt>
      <trkpt lat="42.198049" lon="1.249651">
        <ele>1120.834</ele>
        <time>2021-06-20T09:38:36Z</time>
      </trkpt>
      <trkpt lat="42.198020" lon="1.249617">
        <ele>1121.072</ele>
        <time>2021-06-20T09:38:38Z</time>
      </trkpt>
      <trkpt lat="42.197959" lon="1.249519">
        <ele>1121.888</ele>
        <time>2021-06-20T09:38:43Z</time>
      </trkpt>
      <trkpt lat="42.197931" lon="1.249483">
        <ele>1122.024</ele>
        <time>2021-06-20T09:38:45Z</time>
      </trkpt>
      <trkpt lat="42.197845" lon="1.249283">
        <ele>1122.226</ele>
        <time>2021-06-20T09:38:54Z</time>
      </trkpt>
      <trkpt lat="42.197801" lon="1.249140">
        <ele>1122.808</ele>
        <time>2021-06-20T09:39:00Z</time>
      </trkpt>
      <trkpt lat="42.197772" lon="1.249046">
        <ele>1123.095</ele>
        <time>2021-06-20T09:39:04Z</time>
      </trkpt>
      <trkpt lat="42.197725" lon="1.248833">
        <ele>1123.844</ele>
        <time>2021-06-20T09:39:13Z</time>
      </trkpt>
      <trkpt lat="42.197720" lon="1.248810">
        <ele>1124.041</ele>
        <time>2021-06-20T09:39:14Z</time>
      </trkpt>
      <trkpt lat="42.197664" lon="1.248593">
        <ele>1124.843</ele>
        <time>2021-06-20T09:39:23Z</time>
      </trkpt>
      <trkpt lat="42.197651" lon="1.248544">
        <ele>1125.097</ele>
        <time>2021-06-20T09:39:25Z</time>
      </trkpt>
      <trkpt lat="42.197605" lon="1.248404">
        <ele>1125.898</ele>
        <time>2021-06-20T09:39:31Z</time>
      </trkpt>
      <trkpt lat="42.197565" lon="1.248315">
        <ele>1126.418</ele>
        <time>2021-06-20T09:39:35Z</time>
      </trkpt>
      <trkpt lat="42.197520" lon="1.248231">
        <ele>1127.046</ele>
        <time>2021-06-20T09:39:39Z</time>
      </trkpt>
      <trkpt lat="42.197434" lon="1.248088">
        <ele>1127.866</ele>
        <time>2021-06-20T09:39:46Z</time>
      </trkpt>
      <trkpt lat="42.197421" lon="1.248069">
        <ele>1128.029</ele>
        <time>2021-06-20T09:39:47Z</time>
      </trkpt>
      <trkpt lat="42.197346" lon="1.247892">
        <ele>1129.021</ele>
        <time>2021-06-20T09:39:55Z</time>
      </trkpt>
      <trkpt lat="42.197323" lon="1.247819">
        <ele>1129.008</ele>
        <time>2021-06-20T09:39:58Z</time>
      </trkpt>
      <trkpt lat="42.197301" lon="1.247662">
        <ele>1129.843</ele>
        <time>2021-06-20T09:40:04Z</time>
      </trkpt>
      <trkpt lat="42.197273" lon="1.247540">
        <ele>1130.262</ele>
        <time>2021-06-20T09:40:09Z</time>
      </trkpt>
      <trkpt lat="42.197253" lon="1.247495">
        <ele>1130.639</ele>
        <time>2021-06-20T09:40:11Z</time>
      </trkpt>
      <trkpt lat="42.197200" lon="1.247330">
        <ele>1131.411</ele>
        <time>2021-06-20T09:40:18Z</time>
      </trkpt>
      <trkpt lat="42.197194" lon="1.247306">
        <ele>1131.625</ele>
        <time>2021-06-20T09:40:19Z</time>
      </trkpt>
      <trkpt lat="42.197140" lon="1.247114">
        <ele>1132.286</ele>
        <time>2021-06-20T09:40:27Z</time>
      </trkpt>
      <trkpt lat="42.197130" lon="1.247064">
        <ele>1132.636</ele>
        <time>2021-06-20T09:40:29Z</time>
      </trkpt>
      <trkpt lat="42.197102" lon="1.246911">
        <ele>1133.414</ele>
        <time>2021-06-20T09:40:35Z</time>
      </trkpt>
      <trkpt lat="42.197067" lon="1.246734">
        <ele>1134.281</ele>
        <time>2021-06-20T09:40:42Z</time>
      </trkpt>
      <trkpt lat="42.197061" lon="1.246709">
        <ele>1134.461</ele>
        <time>2021-06-20T09:40:43Z</time>
      </trkpt>
      <trkpt lat="42.197022" lon="1.246537">
        <ele>1135.417</ele>
        <time>2021-06-20T09:40:50Z</time>
      </trkpt>
      <trkpt lat="42.196995" lon="1.246439">
        <ele>1136.008</ele>
        <time>2021-06-20T09:40:54Z</time>
      </trkpt>
      <trkpt lat="42.196967" lon="1.246371">
        <ele>1136.625</ele>
        <time>2021-06-20T09:40:57Z</time>
      </trkpt>
      <trkpt lat="42.196915" lon="1.246263">
        <ele>1137.214</ele>
        <time>2021-06-20T09:41:02Z</time>
      </trkpt>
      <trkpt lat="42.196890" lon="1.246225">
        <ele>1137.691</ele>
        <time>2021-06-20T09:41:04Z</time>
      </trkpt>
      <trkpt lat="42.196804" lon="1.246130">
        <ele>1138.813</ele>
        <time>2021-06-20T09:41:10Z</time>
      </trkpt>
      <trkpt lat="42.196702" lon="1.246075">
        <ele>1139.867</ele>
        <time>2021-06-20T09:41:16Z</time>
      </trkpt>
      <trkpt lat="42.196667" lon="1.246065">
        <ele>1140.268</ele>
        <time>2021-06-20T09:41:18Z</time>
      </trkpt>
      <trkpt lat="42.196615" lon="1.246062">
        <ele>1141.048</ele>
        <time>2021-06-20T09:41:21Z</time>
      </trkpt>
      <trkpt lat="42.196545" lon="1.246084">
        <ele>1141.896</ele>
        <time>2021-06-20T09:41:25Z</time>
      </trkpt>
      <trkpt lat="42.196455" lon="1.246156">
        <ele>1143.044</ele>
        <time>2021-06-20T09:41:31Z</time>
      </trkpt>
      <trkpt lat="42.196404" lon="1.246214">
        <ele>1144.405</ele>
        <time>2021-06-20T09:41:35Z</time>
      </trkpt>
      <trkpt lat="42.196364" lon="1.246253">
        <ele>1145.215</ele>
        <time>2021-06-20T09:41:38Z</time>
      </trkpt>
      <trkpt lat="42.196313" lon="1.246256">
        <ele>1145.408</ele>
        <time>2021-06-20T09:41:41Z</time>
      </trkpt>
      <trkpt lat="42.196283" lon="1.246237">
        <ele>1145.851</ele>
        <time>2021-06-20T09:41:43Z</time>
      </trkpt>
      <trkpt lat="42.196262" lon="1.246203">
        <ele>1146.460</ele>
        <time>2021-06-20T09:41:45Z</time>
      </trkpt>
      <trkpt lat="42.196257" lon="1.246157">
        <ele>1146.657</ele>
        <time>2021-06-20T09:41:47Z</time>
      </trkpt>
      <trkpt lat="42.196257" lon="1.246134">
        <ele>1146.849</ele>
        <time>2021-06-20T09:41:48Z</time>
      </trkpt>
      <trkpt lat="42.196292" lon="1.246031">
        <ele>1147.863</ele>
        <time>2021-06-20T09:41:53Z</time>
      </trkpt>
      <trkpt lat="42.196303" lon="1.246015">
        <ele>1147.834</ele>
        <time>2021-06-20T09:41:54Z</time>
      </trkpt>
      <trkpt lat="42.196382" lon="1.245927">
        <ele>1148.854</ele>
        <time>2021-06-20T09:42:00Z</time>
      </trkpt>
      <trkpt lat="42.196449" lon="1.245831">
        <ele>1149.472</ele>
        <time>2021-06-20T09:42:06Z</time>
      </trkpt>
      <trkpt lat="42.196451" lon="1.245807">
        <ele>1149.656</ele>
        <time>2021-06-20T09:42:07Z</time>
      </trkpt>
      <trkpt lat="42.196453" lon="1.245784">
        <ele>1149.859</ele>
        <time>2021-06-20T09:42:08Z</time>
      </trkpt>
      <trkpt lat="42.196451" lon="1.245644">
        <ele>1150.814</ele>
        <time>2021-06-20T09:42:14Z</time>
      </trkpt>
      <trkpt lat="42.196451" lon="1.245621">
        <ele>1151.008</ele>
        <time>2021-06-20T09:42:15Z</time>
      </trkpt>
      <trkpt lat="42.196445" lon="1.245524">
        <ele>1152.242</ele>
        <time>2021-06-20T09:42:19Z</time>
      </trkpt>
      <trkpt lat="42.196441" lon="1.245453">
        <ele>1152.641</ele>
        <time>2021-06-20T09:42:22Z</time>
      </trkpt>
      <trkpt lat="42.196445" lon="1.245255">
        <ele>1153.268</ele>
        <time>2021-06-20T09:42:30Z</time>
      </trkpt>
      <trkpt lat="42.196452" lon="1.245183">
        <ele>1153.870</ele>
        <time>2021-06-20T09:42:33Z</time>
      </trkpt>
      <trkpt lat="42.196442" lon="1.245106">
        <ele>1154.214</ele>
        <time>2021-06-20T09:42:36Z</time>
      </trkpt>
      <trkpt lat="42.196418" lon="1.244948">
        <ele>1155.045</ele>
        <time>2021-06-20T09:42:42Z</time>
      </trkpt>
      <trkpt lat="42.196408" lon="1.244897">
        <ele>1155.455</ele>
        <time>2021-06-20T09:42:44Z</time>
      </trkpt>
      <trkpt lat="42.196396" lon="1.244819">
        <ele>1156.073</ele>
        <time>2021-06-20T09:42:47Z</time>
      </trkpt>
      <trkpt lat="42.196390" lon="1.244768">
        <ele>1156.257</ele>
        <time>2021-06-20T09:42:49Z</time>
      </trkpt>
      <trkpt lat="42.196363" lon="1.244632">
        <ele>1157.200</ele>
        <time>2021-06-20T09:42:54Z</time>
      </trkpt>
      <trkpt lat="42.196356" lon="1.244603">
        <ele>1157.420</ele>
        <time>2021-06-20T09:42:55Z</time>
      </trkpt>
      <trkpt lat="42.196307" lon="1.244356">
        <ele>1158.408</ele>
        <time>2021-06-20T09:43:03Z</time>
      </trkpt>
      <trkpt lat="42.196295" lon="1.244295">
        <ele>1158.442</ele>
        <time>2021-06-20T09:43:05Z</time>
      </trkpt>
      <trkpt lat="42.196275" lon="1.244016">
        <ele>1158.641</ele>
        <time>2021-06-20T09:43:14Z</time>
      </trkpt>
      <trkpt lat="42.196280" lon="1.243832">
        <ele>1159.468</ele>
        <time>2021-06-20T09:43:20Z</time>
      </trkpt>
      <trkpt lat="42.196284" lon="1.243746">
        <ele>1159.850</ele>
        <time>2021-06-20T09:43:23Z</time>
      </trkpt>
      <trkpt lat="42.196284" lon="1.243639">
        <ele>1160.464</ele>
        <time>2021-06-20T09:43:27Z</time>
      </trkpt>
      <trkpt lat="42.196271" lon="1.243480">
        <ele>1161.445</ele>
        <time>2021-06-20T09:43:33Z</time>
      </trkpt>
      <trkpt lat="42.196271" lon="1.243453">
        <ele>1161.475</ele>
        <time>2021-06-20T09:43:34Z</time>
      </trkpt>
      <trkpt lat="42.196295" lon="1.243177">
        <ele>1162.463</ele>
        <time>2021-06-20T09:43:44Z</time>
      </trkpt>
      <trkpt lat="42.196296" lon="1.243148">
        <ele>1162.679</ele>
        <time>2021-06-20T09:43:45Z</time>
      </trkpt>
      <trkpt lat="42.196335" lon="1.242848">
        <ele>1163.205</ele>
        <time>2021-06-20T09:43:54Z</time>
      </trkpt>
      <trkpt lat="42.196391" lon="1.242572">
        <ele>1162.825</ele>
        <time>2021-06-20T09:44:01Z</time>
      </trkpt>
      <trkpt lat="42.196473" lon="1.242078">
        <ele>1162.208</ele>
        <time>2021-06-20T09:44:13Z</time>
      </trkpt>
      <trkpt lat="42.196491" lon="1.241683">
        <ele>1163.064</ele>
        <time>2021-06-20T09:44:22Z</time>
      </trkpt>
      <trkpt lat="42.196486" lon="1.241214">
        <ele>1162.863</ele>
        <time>2021-06-20T09:44:33Z</time>
      </trkpt>
      <trkpt lat="42.196482" lon="1.240965">
        <ele>1162.890</ele>
        <time>2021-06-20T09:44:40Z</time>
      </trkpt>
      <trkpt lat="42.196468" lon="1.240805">
        <ele>1163.472</ele>
        <time>2021-06-20T09:44:45Z</time>
      </trkpt>
      <trkpt lat="42.196465" lon="1.240680">
        <ele>1164.236</ele>
        <time>2021-06-20T09:44:49Z</time>
      </trkpt>
      <trkpt lat="42.196456" lon="1.240522">
        <ele>1164.447</ele>
        <time>2021-06-20T09:44:54Z</time>
      </trkpt>
      <trkpt lat="42.196443" lon="1.240395">
        <ele>1164.647</ele>
        <time>2021-06-20T09:44:58Z</time>
      </trkpt>
      <trkpt lat="42.196421" lon="1.240142">
        <ele>1165.655</ele>
        <time>2021-06-20T09:45:06Z</time>
      </trkpt>
      <trkpt lat="42.196407" lon="1.240018">
        <ele>1166.244</ele>
        <time>2021-06-20T09:45:10Z</time>
      </trkpt>
      <trkpt lat="42.196385" lon="1.239804">
        <ele>1166.805</ele>
        <time>2021-06-20T09:45:17Z</time>
      </trkpt>
      <trkpt lat="42.196379" lon="1.239741">
        <ele>1167.015</ele>
        <time>2021-06-20T09:45:19Z</time>
      </trkpt>
      <trkpt lat="42.196355" lon="1.239585">
        <ele>1167.608</ele>
        <time>2021-06-20T09:45:24Z</time>
      </trkpt>
      <trkpt lat="42.196334" lon="1.239425">
        <ele>1168.651</ele>
        <time>2021-06-20T09:45:29Z</time>
      </trkpt>
      <trkpt lat="42.196329" lon="1.239393">
        <ele>1168.830</ele>
        <time>2021-06-20T09:45:30Z</time>
      </trkpt>
      <trkpt lat="42.196299" lon="1.239248">
        <ele>1169.647</ele>
        <time>2021-06-20T09:45:35Z</time>
      </trkpt>
      <trkpt lat="42.196277" lon="1.239148">
        <ele>1170.699</ele>
        <time>2021-06-20T09:45:39Z</time>
      </trkpt>
      <trkpt lat="42.196268" lon="1.239125">
        <ele>1170.863</ele>
        <time>2021-06-20T09:45:40Z</time>
      </trkpt>
      <trkpt lat="42.196218" lon="1.239019">
        <ele>1172.044</ele>
        <time>2021-06-20T09:45:45Z</time>
      </trkpt>
      <trkpt lat="42.196207" lon="1.238970">
        <ele>1172.414</ele>
        <time>2021-06-20T09:45:47Z</time>
      </trkpt>
      <trkpt lat="42.196210" lon="1.238816">
        <ele>1173.242</ele>
        <time>2021-06-20T09:45:53Z</time>
      </trkpt>
      <trkpt lat="42.196220" lon="1.238794">
        <ele>1173.481</ele>
        <time>2021-06-20T09:45:54Z</time>
      </trkpt>
      <trkpt lat="42.196253" lon="1.238727">
        <ele>1174.261</ele>
        <time>2021-06-20T09:45:57Z</time>
      </trkpt>
      <trkpt lat="42.196326" lon="1.238638">
        <ele>1175.417</ele>
        <time>2021-06-20T09:46:02Z</time>
      </trkpt>
      <trkpt lat="42.196433" lon="1.238565">
        <ele>1176.408</ele>
        <time>2021-06-20T09:46:08Z</time>
      </trkpt>
      <trkpt lat="42.196471" lon="1.238546">
        <ele>1176.875</ele>
        <time>2021-06-20T09:46:10Z</time>
      </trkpt>
      <trkpt lat="42.196583" lon="1.238495">
        <ele>1177.424</ele>
        <time>2021-06-20T09:46:16Z</time>
      </trkpt>
      <trkpt lat="42.196635" lon="1.238453">
        <ele>1178.291</ele>
        <time>2021-06-20T09:46:19Z</time>
      </trkpt>
      <trkpt lat="42.196666" lon="1.238421">
        <ele>1178.643</ele>
        <time>2021-06-20T09:46:21Z</time>
      </trkpt>
      <trkpt lat="42.196741" lon="1.238308">
        <ele>1179.887</ele>
        <time>2021-06-20T09:46:27Z</time>
      </trkpt>
      <trkpt lat="42.196818" lon="1.238187">
        <ele>1180.868</ele>
        <time>2021-06-20T09:46:33Z</time>
      </trkpt>
      <trkpt lat="42.196841" lon="1.238143">
        <ele>1181.468</ele>
        <time>2021-06-20T09:46:35Z</time>
      </trkpt>
      <trkpt lat="42.196889" lon="1.238051">
        <ele>1182.086</ele>
        <time>2021-06-20T09:46:39Z</time>
      </trkpt>
      <trkpt lat="42.196955" lon="1.237898">
        <ele>1182.827</ele>
        <time>2021-06-20T09:46:45Z</time>
      </trkpt>
      <trkpt lat="42.196982" lon="1.237821">
        <ele>1183.268</ele>
        <time>2021-06-20T09:46:48Z</time>
      </trkpt>
      <trkpt lat="42.197022" lon="1.237696">
        <ele>1183.814</ele>
        <time>2021-06-20T09:46:53Z</time>
      </trkpt>
      <trkpt lat="42.197033" lon="1.237616">
        <ele>1184.208</ele>
        <time>2021-06-20T09:46:56Z</time>
      </trkpt>
      <trkpt lat="42.197041" lon="1.237510">
        <ele>1184.899</ele>
        <time>2021-06-20T09:47:00Z</time>
      </trkpt>
      <trkpt lat="42.197041" lon="1.237406">
        <ele>1185.098</ele>
        <time>2021-06-20T09:47:04Z</time>
      </trkpt>
      <trkpt lat="42.197044" lon="1.237355">
        <ele>1185.495</ele>
        <time>2021-06-20T09:47:06Z</time>
      </trkpt>
      <trkpt lat="42.197034" lon="1.237251">
        <ele>1186.277</ele>
        <time>2021-06-20T09:47:10Z</time>
      </trkpt>
      <trkpt lat="42.197021" lon="1.237125">
        <ele>1187.241</ele>
        <time>2021-06-20T09:47:15Z</time>
      </trkpt>
      <trkpt lat="42.197019" lon="1.237075">
        <ele>1187.492</ele>
        <time>2021-06-20T09:47:17Z</time>
      </trkpt>
      <trkpt lat="42.196996" lon="1.237008">
        <ele>1188.242</ele>
        <time>2021-06-20T09:47:20Z</time>
      </trkpt>
      <trkpt lat="42.196965" lon="1.236957">
        <ele>1189.060</ele>
        <time>2021-06-20T09:47:23Z</time>
      </trkpt>
      <trkpt lat="42.196954" lon="1.236940">
        <ele>1189.433</ele>
        <time>2021-06-20T09:47:24Z</time>
      </trkpt>
      <trkpt lat="42.196926" lon="1.236876">
        <ele>1190.223</ele>
        <time>2021-06-20T09:47:28Z</time>
      </trkpt>
      <trkpt lat="42.196922" lon="1.236859">
        <ele>1190.615</ele>
        <time>2021-06-20T09:47:29Z</time>
      </trkpt>
      <trkpt lat="42.196907" lon="1.236804">
        <ele>1191.208</ele>
        <time>2021-06-20T09:47:32Z</time>
      </trkpt>
      <trkpt lat="42.196894" lon="1.236763">
        <ele>1191.850</ele>
        <time>2021-06-20T09:47:34Z</time>
      </trkpt>
      <trkpt lat="42.196885" lon="1.236720">
        <ele>1192.459</ele>
        <time>2021-06-20T09:47:36Z</time>
      </trkpt>
      <trkpt lat="42.196867" lon="1.236635">
        <ele>1193.226</ele>
        <time>2021-06-20T09:47:40Z</time>
      </trkpt>
      <trkpt lat="42.196873" lon="1.236549">
        <ele>1193.878</ele>
        <time>2021-06-20T09:47:44Z</time>
      </trkpt>
      <trkpt lat="42.196875" lon="1.236528">
        <ele>1194.222</ele>
        <time>2021-06-20T09:47:45Z</time>
      </trkpt>
      <trkpt lat="42.196880" lon="1.236507">
        <ele>1194.473</ele>
        <time>2021-06-20T09:47:46Z</time>
      </trkpt>
      <trkpt lat="42.196891" lon="1.236423">
        <ele>1195.063</ele>
        <time>2021-06-20T09:47:50Z</time>
      </trkpt>
      <trkpt lat="42.196906" lon="1.236333">
        <ele>1195.831</ele>
        <time>2021-06-20T09:47:55Z</time>
      </trkpt>
      <trkpt lat="42.196910" lon="1.236316">
        <ele>1196.489</ele>
        <time>2021-06-20T09:47:58Z</time>
      </trkpt>
      <trkpt lat="42.196937" lon="1.236208">
        <ele>1199.206</ele>
        <time>2021-06-20T09:48:57Z</time>
      </trkpt>
      <trkpt lat="42.196942" lon="1.236192">
        <ele>1199.226</ele>
        <time>2021-06-20T09:48:58Z</time>
      </trkpt>
      <trkpt lat="42.196983" lon="1.236057">
        <ele>1200.408</ele>
        <time>2021-06-20T09:49:06Z</time>
      </trkpt>
      <trkpt lat="42.197023" lon="1.235937">
        <ele>1201.495</ele>
        <time>2021-06-20T09:49:13Z</time>
      </trkpt>
      <trkpt lat="42.197069" lon="1.235832">
        <ele>1202.654</ele>
        <time>2021-06-20T09:49:19Z</time>
      </trkpt>
      <trkpt lat="42.197090" lon="1.235803">
        <ele>1203.051</ele>
        <time>2021-06-20T09:49:21Z</time>
      </trkpt>
      <trkpt lat="42.197134" lon="1.235739">
        <ele>1203.823</ele>
        <time>2021-06-20T09:49:25Z</time>
      </trkpt>
      <trkpt lat="42.197216" lon="1.235637">
        <ele>1205.057</ele>
        <time>2021-06-20T09:49:32Z</time>
      </trkpt>
      <trkpt lat="42.197275" lon="1.235580">
        <ele>1206.238</ele>
        <time>2021-06-20T09:49:37Z</time>
      </trkpt>
      <trkpt lat="42.197300" lon="1.235559">
        <ele>1206.818</ele>
        <time>2021-06-20T09:49:39Z</time>
      </trkpt>
      <trkpt lat="42.197322" lon="1.235537">
        <ele>1207.496</ele>
        <time>2021-06-20T09:49:41Z</time>
      </trkpt>
      <trkpt lat="42.197372" lon="1.235497">
        <ele>1208.425</ele>
        <time>2021-06-20T09:49:45Z</time>
      </trkpt>
      <trkpt lat="42.197432" lon="1.235438">
        <ele>1209.426</ele>
        <time>2021-06-20T09:49:50Z</time>
      </trkpt>
      <trkpt lat="42.197443" lon="1.235423">
        <ele>1209.608</ele>
        <time>2021-06-20T09:49:51Z</time>
      </trkpt>
      <trkpt lat="42.197514" lon="1.235338">
        <ele>1210.808</ele>
        <time>2021-06-20T09:49:57Z</time>
      </trkpt>
      <trkpt lat="42.197534" lon="1.235301">
        <ele>1211.229</ele>
        <time>2021-06-20T09:49:59Z</time>
      </trkpt>
      <trkpt lat="42.197560" lon="1.235244">
        <ele>1211.838</ele>
        <time>2021-06-20T09:50:02Z</time>
      </trkpt>
      <trkpt lat="42.197593" lon="1.235138">
        <ele>1213.015</ele>
        <time>2021-06-20T09:50:07Z</time>
      </trkpt>
      <trkpt lat="42.197607" lon="1.235094">
        <ele>1213.497</ele>
        <time>2021-06-20T09:50:09Z</time>
      </trkpt>
      <trkpt lat="42.197633" lon="1.235011">
        <ele>1214.091</ele>
        <time>2021-06-20T09:50:13Z</time>
      </trkpt>
      <trkpt lat="42.197644" lon="1.234950">
        <ele>1214.462</ele>
        <time>2021-06-20T09:50:16Z</time>
      </trkpt>
      <trkpt lat="42.197666" lon="1.234823">
        <ele>1215.022</ele>
        <time>2021-06-20T09:50:23Z</time>
      </trkpt>
      <trkpt lat="42.197664" lon="1.234788">
        <ele>1215.680</ele>
        <time>2021-06-20T09:50:25Z</time>
      </trkpt>
      <trkpt lat="42.197654" lon="1.234713">
        <ele>1216.224</ele>
        <time>2021-06-20T09:50:29Z</time>
      </trkpt>
      <trkpt lat="42.197649" lon="1.234660">
        <ele>1216.804</ele>
        <time>2021-06-20T09:50:32Z</time>
      </trkpt>
      <trkpt lat="42.197635" lon="1.234611">
        <ele>1217.414</ele>
        <time>2021-06-20T09:50:35Z</time>
      </trkpt>
      <trkpt lat="42.197613" lon="1.234544">
        <ele>1218.208</ele>
        <time>2021-06-20T09:50:39Z</time>
      </trkpt>
      <trkpt lat="42.197606" lon="1.234527">
        <ele>1218.419</ele>
        <time>2021-06-20T09:50:40Z</time>
      </trkpt>
      <trkpt lat="42.197581" lon="1.234480">
        <ele>1219.058</ele>
        <time>2021-06-20T09:50:43Z</time>
      </trkpt>
      <trkpt lat="42.197572" lon="1.234444">
        <ele>1219.425</ele>
        <time>2021-06-20T09:50:45Z</time>
      </trkpt>
      <trkpt lat="42.197568" lon="1.234425">
        <ele>1219.657</ele>
        <time>2021-06-20T09:50:46Z</time>
      </trkpt>
      <trkpt lat="42.197549" lon="1.234328">
        <ele>1220.681</ele>
        <time>2021-06-20T09:50:51Z</time>
      </trkpt>
      <trkpt lat="42.197536" lon="1.234274">
        <ele>1221.222</ele>
        <time>2021-06-20T09:50:54Z</time>
      </trkpt>
      <trkpt lat="42.197530" lon="1.234237">
        <ele>1221.622</ele>
        <time>2021-06-20T09:50:56Z</time>
      </trkpt>
      <trkpt lat="42.197524" lon="1.234146">
        <ele>1222.810</ele>
        <time>2021-06-20T09:51:01Z</time>
      </trkpt>
      <trkpt lat="42.197523" lon="1.234107">
        <ele>1223.028</ele>
        <time>2021-06-20T09:51:03Z</time>
      </trkpt>
      <trkpt lat="42.197520" lon="1.234028">
        <ele>1223.889</ele>
        <time>2021-06-20T09:51:07Z</time>
      </trkpt>
      <trkpt lat="42.197518" lon="1.233973">
        <ele>1224.217</ele>
        <time>2021-06-20T09:51:10Z</time>
      </trkpt>
      <trkpt lat="42.197508" lon="1.233922">
        <ele>1224.808</ele>
        <time>2021-06-20T09:51:13Z</time>
      </trkpt>
      <trkpt lat="42.197506" lon="1.233824">
        <ele>1226.079</ele>
        <time>2021-06-20T09:51:18Z</time>
      </trkpt>
      <trkpt lat="42.197517" lon="1.233739">
        <ele>1226.678</ele>
        <time>2021-06-20T09:51:22Z</time>
      </trkpt>
      <trkpt lat="42.197528" lon="1.233676">
        <ele>1226.875</ele>
        <time>2021-06-20T09:51:25Z</time>
      </trkpt>
      <trkpt lat="42.197549" lon="1.233618">
        <ele>1227.017</ele>
        <time>2021-06-20T09:51:28Z</time>
      </trkpt>
      <trkpt lat="42.197598" lon="1.233480">
        <ele>1228.241</ele>
        <time>2021-06-20T09:51:35Z</time>
      </trkpt>
      <trkpt lat="42.197639" lon="1.233372">
        <ele>1229.212</ele>
        <time>2021-06-20T09:51:41Z</time>
      </trkpt>
      <trkpt lat="42.197660" lon="1.233318">
        <ele>1229.892</ele>
        <time>2021-06-20T09:51:44Z</time>
      </trkpt>
      <trkpt lat="42.197675" lon="1.233282">
        <ele>1230.470</ele>
        <time>2021-06-20T09:51:46Z</time>
      </trkpt>
      <trkpt lat="42.197724" lon="1.233161">
        <ele>1231.461</ele>
        <time>2021-06-20T09:51:53Z</time>
      </trkpt>
      <trkpt lat="42.197747" lon="1.233090">
        <ele>1232.621</ele>
        <time>2021-06-20T09:51:57Z</time>
      </trkpt>
      <trkpt lat="42.197768" lon="1.233039">
        <ele>1233.013</ele>
        <time>2021-06-20T09:52:00Z</time>
      </trkpt>
      <trkpt lat="42.197789" lon="1.232961">
        <ele>1233.608</ele>
        <time>2021-06-20T09:52:04Z</time>
      </trkpt>
      <trkpt lat="42.197817" lon="1.232886">
        <ele>1234.473</ele>
        <time>2021-06-20T09:52:08Z</time>
      </trkpt>
      <trkpt lat="42.197824" lon="1.232866">
        <ele>1234.862</ele>
        <time>2021-06-20T09:52:09Z</time>
      </trkpt>
      <trkpt lat="42.197853" lon="1.232763">
        <ele>1235.829</ele>
        <time>2021-06-20T09:52:14Z</time>
      </trkpt>
      <trkpt lat="42.197863" lon="1.232719">
        <ele>1236.231</ele>
        <time>2021-06-20T09:52:16Z</time>
      </trkpt>
      <trkpt lat="42.197890" lon="1.232558">
        <ele>1237.055</ele>
        <time>2021-06-20T09:52:23Z</time>
      </trkpt>
      <trkpt lat="42.197865" lon="1.232324">
        <ele>1238.286</ele>
        <time>2021-06-20T09:52:33Z</time>
      </trkpt>
      <trkpt lat="42.197808" lon="1.232153">
        <ele>1239.456</ele>
        <time>2021-06-20T09:52:41Z</time>
      </trkpt>
      <trkpt lat="42.197796" lon="1.232111">
        <ele>1239.684</ele>
        <time>2021-06-20T09:52:43Z</time>
      </trkpt>
      <trkpt lat="42.197768" lon="1.232007">
        <ele>1240.628</ele>
        <time>2021-06-20T09:52:48Z</time>
      </trkpt>
      <trkpt lat="42.197758" lon="1.231918">
        <ele>1241.289</ele>
        <time>2021-06-20T09:52:52Z</time>
      </trkpt>
      <trkpt lat="42.197753" lon="1.231872">
        <ele>1241.617</ele>
        <time>2021-06-20T09:52:54Z</time>
      </trkpt>
      <trkpt lat="42.197745" lon="1.231632">
        <ele>1242.808</ele>
        <time>2021-06-20T09:53:04Z</time>
      </trkpt>
      <trkpt lat="42.197745" lon="1.231464">
        <ele>1243.879</ele>
        <time>2021-06-20T09:53:11Z</time>
      </trkpt>
      <trkpt lat="42.197742" lon="1.231391">
        <ele>1244.048</ele>
        <time>2021-06-20T09:53:14Z</time>
      </trkpt>
      <trkpt lat="42.197741" lon="1.231367">
        <ele>1244.275</ele>
        <time>2021-06-20T09:53:15Z</time>
      </trkpt>
      <trkpt lat="42.197748" lon="1.231204">
        <ele>1245.087</ele>
        <time>2021-06-20T09:53:22Z</time>
      </trkpt>
      <trkpt lat="42.197745" lon="1.231181">
        <ele>1245.251</ele>
        <time>2021-06-20T09:53:23Z</time>
      </trkpt>
      <trkpt lat="42.197724" lon="1.231092">
        <ele>1246.062</ele>
        <time>2021-06-20T09:53:27Z</time>
      </trkpt>
      <trkpt lat="42.197717" lon="1.230952">
        <ele>1247.042</ele>
        <time>2021-06-20T09:53:33Z</time>
      </trkpt>
      <trkpt lat="42.197716" lon="1.230929">
        <ele>1247.050</ele>
        <time>2021-06-20T09:53:34Z</time>
      </trkpt>
      <trkpt lat="42.197724" lon="1.230768">
        <ele>1248.494</ele>
        <time>2021-06-20T09:53:41Z</time>
      </trkpt>
      <trkpt lat="42.197733" lon="1.230724">
        <ele>1248.657</ele>
        <time>2021-06-20T09:53:43Z</time>
      </trkpt>
      <trkpt lat="42.197768" lon="1.230620">
        <ele>1249.422</ele>
        <time>2021-06-20T09:53:48Z</time>
      </trkpt>
      <trkpt lat="42.197794" lon="1.230561">
        <ele>1250.008</ele>
        <time>2021-06-20T09:53:51Z</time>
      </trkpt>
      <trkpt lat="42.197824" lon="1.230504">
        <ele>1250.656</ele>
        <time>2021-06-20T09:53:54Z</time>
      </trkpt>
      <trkpt lat="42.197878" lon="1.230421">
        <ele>1251.845</ele>
        <time>2021-06-20T09:53:59Z</time>
      </trkpt>
      <trkpt lat="42.197928" lon="1.230333">
        <ele>1253.052</ele>
        <time>2021-06-20T09:54:04Z</time>
      </trkpt>
      <trkpt lat="42.197959" lon="1.230285">
        <ele>1253.814</ele>
        <time>2021-06-20T09:54:07Z</time>
      </trkpt>
      <trkpt lat="42.197968" lon="1.230270">
        <ele>1254.238</ele>
        <time>2021-06-20T09:54:08Z</time>
      </trkpt>
      <trkpt lat="42.198017" lon="1.230207">
        <ele>1255.299</ele>
        <time>2021-06-20T09:54:12Z</time>
      </trkpt>
      <trkpt lat="42.198073" lon="1.230154">
        <ele>1256.229</ele>
        <time>2021-06-20T09:54:16Z</time>
      </trkpt>
      <trkpt lat="42.198163" lon="1.230054">
        <ele>1257.027</ele>
        <time>2021-06-20T09:54:23Z</time>
      </trkpt>
      <trkpt lat="42.198176" lon="1.230011">
        <ele>1257.291</ele>
        <time>2021-06-20T09:54:25Z</time>
      </trkpt>
      <trkpt lat="42.198189" lon="1.229888">
        <ele>1257.881</ele>
        <time>2021-06-20T09:54:30Z</time>
      </trkpt>
      <trkpt lat="42.198193" lon="1.229653">
        <ele>1258.019</ele>
        <time>2021-06-20T09:54:39Z</time>
      </trkpt>
      <trkpt lat="42.198164" lon="1.229502">
        <ele>1258.408</ele>
        <time>2021-06-20T09:54:45Z</time>
      </trkpt>
      <trkpt lat="42.198117" lon="1.229296">
        <ele>1258.886</ele>
        <time>2021-06-20T09:54:54Z</time>
      </trkpt>
      <trkpt lat="42.198048" lon="1.229088">
        <ele>1259.275</ele>
        <time>2021-06-20T09:55:04Z</time>
      </trkpt>
      <trkpt lat="42.198044" lon="1.229071">
        <ele>1259.212</ele>
        <time>2021-06-20T09:55:05Z</time>
      </trkpt>
      <trkpt lat="42.197994" lon="1.228966">
        <ele>1260.084</ele>
        <time>2021-06-20T09:55:11Z</time>
      </trkpt>
      <trkpt lat="42.197957" lon="1.228929">
        <ele>1260.228</ele>
        <time>2021-06-20T09:55:13Z</time>
      </trkpt>
      <trkpt lat="42.197827" lon="1.228791">
        <ele>1261.249</ele>
        <time>2021-06-20T09:55:20Z</time>
      </trkpt>
      <trkpt lat="42.197674" lon="1.228627">
        <ele>1262.499</ele>
        <time>2021-06-20T09:55:29Z</time>
      </trkpt>
      <trkpt lat="42.197535" lon="1.228494">
        <ele>1262.837</ele>
        <time>2021-06-20T09:55:37Z</time>
      </trkpt>
      <trkpt lat="42.197454" lon="1.228404">
        <ele>1263.228</ele>
        <time>2021-06-20T09:55:42Z</time>
      </trkpt>
      <trkpt lat="42.197390" lon="1.228316">
        <ele>1263.489</ele>
        <time>2021-06-20T09:55:46Z</time>
      </trkpt>
      <trkpt lat="42.197243" lon="1.228083">
        <ele>1263.417</ele>
        <time>2021-06-20T09:55:54Z</time>
      </trkpt>
      <trkpt lat="42.197060" lon="1.227734">
        <ele>1263.008</ele>
        <time>2021-06-20T09:56:03Z</time>
      </trkpt>
      <trkpt lat="42.196978" lon="1.227439">
        <ele>1262.849</ele>
        <time>2021-06-20T09:56:10Z</time>
      </trkpt>
      <trkpt lat="42.196963" lon="1.227281">
        <ele>1263.288</ele>
        <time>2021-06-20T09:56:15Z</time>
      </trkpt>
      <trkpt lat="42.196995" lon="1.227108">
        <ele>1264.445</ele>
        <time>2021-06-20T09:56:21Z</time>
      </trkpt>
      <trkpt lat="42.197003" lon="1.227079">
        <ele>1264.447</ele>
        <time>2021-06-20T09:56:22Z</time>
      </trkpt>
      <trkpt lat="42.197075" lon="1.226895">
        <ele>1265.411</ele>
        <time>2021-06-20T09:56:29Z</time>
      </trkpt>
      <trkpt lat="42.197085" lon="1.226844">
        <ele>1265.692</ele>
        <time>2021-06-20T09:56:31Z</time>
      </trkpt>
      <trkpt lat="42.197121" lon="1.226727">
        <ele>1266.212</ele>
        <time>2021-06-20T09:56:36Z</time>
      </trkpt>
      <trkpt lat="42.197136" lon="1.226680">
        <ele>1266.670</ele>
        <time>2021-06-20T09:56:38Z</time>
      </trkpt>
      <trkpt lat="42.197161" lon="1.226559">
        <ele>1267.271</ele>
        <time>2021-06-20T09:56:43Z</time>
      </trkpt>
      <trkpt lat="42.197163" lon="1.226534">
        <ele>1267.241</ele>
        <time>2021-06-20T09:56:44Z</time>
      </trkpt>
      <trkpt lat="42.197176" lon="1.226411">
        <ele>1267.615</ele>
        <time>2021-06-20T09:56:49Z</time>
      </trkpt>
      <trkpt lat="42.197164" lon="1.226333">
        <ele>1268.208</ele>
        <time>2021-06-20T09:56:52Z</time>
      </trkpt>
      <trkpt lat="42.197175" lon="1.226182">
        <ele>1268.834</ele>
        <time>2021-06-20T09:56:58Z</time>
      </trkpt>
      <trkpt lat="42.197136" lon="1.225900">
        <ele>1269.433</ele>
        <time>2021-06-20T09:57:09Z</time>
      </trkpt>
      <trkpt lat="42.197072" lon="1.225745">
        <ele>1269.620</ele>
        <time>2021-06-20T09:57:16Z</time>
      </trkpt>
      <trkpt lat="42.197061" lon="1.225723">
        <ele>1269.612</ele>
        <time>2021-06-20T09:57:17Z</time>
      </trkpt>
      <trkpt lat="42.196973" lon="1.225622">
        <ele>1270.486</ele>
        <time>2021-06-20T09:57:23Z</time>
      </trkpt>
      <trkpt lat="42.196919" lon="1.225592">
        <ele>1270.827</ele>
        <time>2021-06-20T09:57:26Z</time>
      </trkpt>
      <trkpt lat="42.196790" lon="1.225569">
        <ele>1271.687</ele>
        <time>2021-06-20T09:57:33Z</time>
      </trkpt>
      <trkpt lat="42.196771" lon="1.225572">
        <ele>1271.685</ele>
        <time>2021-06-20T09:57:34Z</time>
      </trkpt>
      <trkpt lat="42.196642" lon="1.225614">
        <ele>1272.632</ele>
        <time>2021-06-20T09:57:41Z</time>
      </trkpt>
      <trkpt lat="42.196590" lon="1.225643">
        <ele>1272.692</ele>
        <time>2021-06-20T09:57:44Z</time>
      </trkpt>
      <trkpt lat="42.196490" lon="1.225719">
        <ele>1273.611</ele>
        <time>2021-06-20T09:57:50Z</time>
      </trkpt>
      <trkpt lat="42.196420" lon="1.225755">
        <ele>1273.608</ele>
        <time>2021-06-20T09:57:54Z</time>
      </trkpt>
      <trkpt lat="42.196363" lon="1.225755">
        <ele>1274.010</ele>
        <time>2021-06-20T09:57:57Z</time>
      </trkpt>
      <trkpt lat="42.196305" lon="1.225749">
        <ele>1274.649</ele>
        <time>2021-06-20T09:58:00Z</time>
      </trkpt>
      <trkpt lat="42.196212" lon="1.225714">
        <ele>1275.846</ele>
        <time>2021-06-20T09:58:05Z</time>
      </trkpt>
      <trkpt lat="42.196176" lon="1.225697">
        <ele>1276.068</ele>
        <time>2021-06-20T09:58:07Z</time>
      </trkpt>
      <trkpt lat="42.196124" lon="1.225669">
        <ele>1276.862</ele>
        <time>2021-06-20T09:58:10Z</time>
      </trkpt>
      <trkpt lat="42.195997" lon="1.225648">
        <ele>1278.023</ele>
        <time>2021-06-20T09:58:17Z</time>
      </trkpt>
      <trkpt lat="42.195913" lon="1.225683">
        <ele>1279.083</ele>
        <time>2021-06-20T09:58:22Z</time>
      </trkpt>
      <trkpt lat="42.195871" lon="1.225726">
        <ele>1279.271</ele>
        <time>2021-06-20T09:58:25Z</time>
      </trkpt>
      <trkpt lat="42.195835" lon="1.225773">
        <ele>1280.075</ele>
        <time>2021-06-20T09:58:28Z</time>
      </trkpt>
      <trkpt lat="42.195829" lon="1.225792">
        <ele>1280.428</ele>
        <time>2021-06-20T09:58:29Z</time>
      </trkpt>
      <trkpt lat="42.195810" lon="1.225828">
        <ele>1281.020</ele>
        <time>2021-06-20T09:58:31Z</time>
      </trkpt>
      <trkpt lat="42.195803" lon="1.225844">
        <ele>1281.208</ele>
        <time>2021-06-20T09:58:32Z</time>
      </trkpt>
      <trkpt lat="42.195800" lon="1.225887">
        <ele>1281.614</ele>
        <time>2021-06-20T09:58:34Z</time>
      </trkpt>
      <trkpt lat="42.195800" lon="1.225910">
        <ele>1281.863</ele>
        <time>2021-06-20T09:58:35Z</time>
      </trkpt>
      <trkpt lat="42.195800" lon="1.225932">
        <ele>1282.290</ele>
        <time>2021-06-20T09:58:36Z</time>
      </trkpt>
      <trkpt lat="42.195792" lon="1.225975">
        <ele>1282.482</ele>
        <time>2021-06-20T09:58:38Z</time>
      </trkpt>
      <trkpt lat="42.195752" lon="1.226071">
        <ele>1283.296</ele>
        <time>2021-06-20T09:58:43Z</time>
      </trkpt>
      <trkpt lat="42.195729" lon="1.226101">
        <ele>1283.417</ele>
        <time>2021-06-20T09:58:45Z</time>
      </trkpt>
      <trkpt lat="42.195655" lon="1.226162">
        <ele>1284.027</ele>
        <time>2021-06-20T09:58:50Z</time>
      </trkpt>
      <trkpt lat="42.195608" lon="1.226169">
        <ele>1284.695</ele>
        <time>2021-06-20T09:58:53Z</time>
      </trkpt>
      <trkpt lat="42.195559" lon="1.226176">
        <ele>1284.879</ele>
        <time>2021-06-20T09:58:56Z</time>
      </trkpt>
      <trkpt lat="42.195466" lon="1.226172">
        <ele>1285.605</ele>
        <time>2021-06-20T09:59:01Z</time>
      </trkpt>
      <trkpt lat="42.195393" lon="1.226131">
        <ele>1286.025</ele>
        <time>2021-06-20T09:59:05Z</time>
      </trkpt>
      <trkpt lat="42.195327" lon="1.225935">
        <ele>1286.208</ele>
        <time>2021-06-20T09:59:12Z</time>
      </trkpt>
      <trkpt lat="42.195295" lon="1.225810">
        <ele>1286.884</ele>
        <time>2021-06-20T09:59:16Z</time>
      </trkpt>
      <trkpt lat="42.195251" lon="1.225642">
        <ele>1287.013</ele>
        <time>2021-06-20T09:59:21Z</time>
      </trkpt>
      <trkpt lat="42.195159" lon="1.225342">
        <ele>1287.460</ele>
        <time>2021-06-20T09:59:29Z</time>
      </trkpt>
      <trkpt lat="42.195015" lon="1.225063">
        <ele>1287.422</ele>
        <time>2021-06-20T09:59:36Z</time>
      </trkpt>
      <trkpt lat="42.194870" lon="1.224730">
        <ele>1286.666</ele>
        <time>2021-06-20T09:59:43Z</time>
      </trkpt>
      <trkpt lat="42.194819" lon="1.224415">
        <ele>1285.677</ele>
        <time>2021-06-20T09:59:48Z</time>
      </trkpt>
      <trkpt lat="42.194805" lon="1.224278">
        <ele>1285.257</ele>
        <time>2021-06-20T09:59:50Z</time>
      </trkpt>
      <trkpt lat="42.194775" lon="1.224058">
        <ele>1284.275</ele>
        <time>2021-06-20T09:59:53Z</time>
      </trkpt>
      <trkpt lat="42.194729" lon="1.223841">
        <ele>1283.897</ele>
        <time>2021-06-20T09:59:56Z</time>
      </trkpt>
      <trkpt lat="42.194689" lon="1.223709">
        <ele>1283.023</ele>
        <time>2021-06-20T09:59:58Z</time>
      </trkpt>
      <trkpt lat="42.194620" lon="1.223540">
        <ele>1282.025</ele>
        <time>2021-06-20T10:00:01Z</time>
      </trkpt>
      <trkpt lat="42.194474" lon="1.223340">
        <ele>1281.808</ele>
        <time>2021-06-20T10:00:07Z</time>
      </trkpt>
      <trkpt lat="42.194312" lon="1.223093">
        <ele>1283.036</ele>
        <time>2021-06-20T10:00:15Z</time>
      </trkpt>
      <trkpt lat="42.194293" lon="1.223057">
        <ele>1283.245</ele>
        <time>2021-06-20T10:00:16Z</time>
      </trkpt>
      <trkpt lat="42.194258" lon="1.222983">
        <ele>1283.442</ele>
        <time>2021-06-20T10:00:18Z</time>
      </trkpt>
      <trkpt lat="42.194149" lon="1.222668">
        <ele>1284.074</ele>
        <time>2021-06-20T10:00:26Z</time>
      </trkpt>
      <trkpt lat="42.194112" lon="1.222507">
        <ele>1284.288</ele>
        <time>2021-06-20T10:00:30Z</time>
      </trkpt>
      <trkpt lat="42.194091" lon="1.222354">
        <ele>1284.469</ele>
        <time>2021-06-20T10:00:34Z</time>
      </trkpt>
      <trkpt lat="42.194076" lon="1.222199">
        <ele>1285.269</ele>
        <time>2021-06-20T10:00:39Z</time>
      </trkpt>
      <trkpt lat="42.194069" lon="1.222093">
        <ele>1285.647</ele>
        <time>2021-06-20T10:00:43Z</time>
      </trkpt>
      <trkpt lat="42.194068" lon="1.222068">
        <ele>1286.091</ele>
        <time>2021-06-20T10:00:44Z</time>
      </trkpt>
      <trkpt lat="42.194066" lon="1.221911">
        <ele>1287.481</ele>
        <time>2021-06-20T10:00:50Z</time>
      </trkpt>
      <trkpt lat="42.194056" lon="1.221834">
        <ele>1287.819</ele>
        <time>2021-06-20T10:00:53Z</time>
      </trkpt>
      <trkpt lat="42.194040" lon="1.221655">
        <ele>1288.408</ele>
        <time>2021-06-20T10:01:00Z</time>
      </trkpt>
      <trkpt lat="42.194035" lon="1.221551">
        <ele>1289.676</ele>
        <time>2021-06-20T10:01:04Z</time>
      </trkpt>
      <trkpt lat="42.194031" lon="1.221453">
        <ele>1290.635</ele>
        <time>2021-06-20T10:01:08Z</time>
      </trkpt>
      <trkpt lat="42.194033" lon="1.221353">
        <ele>1291.462</ele>
        <time>2021-06-20T10:01:12Z</time>
      </trkpt>
      <trkpt lat="42.194039" lon="1.221303">
        <ele>1291.814</ele>
        <time>2021-06-20T10:01:14Z</time>
      </trkpt>
      <trkpt lat="42.194053" lon="1.221181">
        <ele>1292.818</ele>
        <time>2021-06-20T10:01:19Z</time>
      </trkpt>
      <trkpt lat="42.194056" lon="1.221130">
        <ele>1293.229</ele>
        <time>2021-06-20T10:01:21Z</time>
      </trkpt>
      <trkpt lat="42.194059" lon="1.221053">
        <ele>1293.899</ele>
        <time>2021-06-20T10:01:24Z</time>
      </trkpt>
      <trkpt lat="42.194065" lon="1.220903">
        <ele>1294.867</ele>
        <time>2021-06-20T10:01:30Z</time>
      </trkpt>
      <trkpt lat="42.194068" lon="1.220877">
        <ele>1295.088</ele>
        <time>2021-06-20T10:01:31Z</time>
      </trkpt>
      <trkpt lat="42.194088" lon="1.220749">
        <ele>1296.024</ele>
        <time>2021-06-20T10:01:36Z</time>
      </trkpt>
      <trkpt lat="42.194095" lon="1.220726">
        <ele>1296.026</ele>
        <time>2021-06-20T10:01:37Z</time>
      </trkpt>
      <trkpt lat="42.194177" lon="1.220591">
        <ele>1296.208</ele>
        <time>2021-06-20T10:01:44Z</time>
      </trkpt>
      <trkpt lat="42.194324" lon="1.220440">
        <ele>1296.085</ele>
        <time>2021-06-20T10:01:49Z</time>
      </trkpt>
      <trkpt lat="42.194366" lon="1.220406">
        <ele>1295.834</ele>
        <time>2021-06-20T10:01:50Z</time>
      </trkpt>
      <trkpt lat="42.194526" lon="1.220305">
        <ele>1295.281</ele>
        <time>2021-06-20T10:01:53Z</time>
      </trkpt>
      <trkpt lat="42.194591" lon="1.220284">
        <ele>1294.883</ele>
        <time>2021-06-20T10:01:54Z</time>
      </trkpt>
      <trkpt lat="42.194813" lon="1.220267">
        <ele>1293.647</ele>
        <time>2021-06-20T10:01:57Z</time>
      </trkpt>
      <trkpt lat="42.194895" lon="1.220280">
        <ele>1293.218</ele>
        <time>2021-06-20T10:01:58Z</time>
      </trkpt>
      <trkpt lat="42.194977" lon="1.220293">
        <ele>1292.678</ele>
        <time>2021-06-20T10:01:59Z</time>
      </trkpt>
      <trkpt lat="42.195143" lon="1.220315">
        <ele>1291.266</ele>
        <time>2021-06-20T10:02:01Z</time>
      </trkpt>
      <trkpt lat="42.195226" lon="1.220321">
        <ele>1290.252</ele>
        <time>2021-06-20T10:02:02Z</time>
      </trkpt>
      <trkpt lat="42.195309" lon="1.220320">
        <ele>1289.053</ele>
        <time>2021-06-20T10:02:03Z</time>
      </trkpt>
      <trkpt lat="42.195390" lon="1.220311">
        <ele>1287.808</ele>
        <time>2021-06-20T10:02:04Z</time>
      </trkpt>
      <trkpt lat="42.195469" lon="1.220297">
        <ele>1287.208</ele>
        <time>2021-06-20T10:02:05Z</time>
      </trkpt>
      <trkpt lat="42.195544" lon="1.220271">
        <ele>1286.462</ele>
        <time>2021-06-20T10:02:06Z</time>
      </trkpt>
      <trkpt lat="42.195616" lon="1.220238">
        <ele>1286.061</ele>
        <time>2021-06-20T10:02:07Z</time>
      </trkpt>
      <trkpt lat="42.195752" lon="1.220154">
        <ele>1285.248</ele>
        <time>2021-06-20T10:02:09Z</time>
      </trkpt>
      <trkpt lat="42.195951" lon="1.219994">
        <ele>1284.870</ele>
        <time>2021-06-20T10:02:12Z</time>
      </trkpt>
      <trkpt lat="42.196068" lon="1.219854">
        <ele>1284.444</ele>
        <time>2021-06-20T10:02:14Z</time>
      </trkpt>
      <trkpt lat="42.196163" lon="1.219665">
        <ele>1284.235</ele>
        <time>2021-06-20T10:02:16Z</time>
      </trkpt>
      <trkpt lat="42.196207" lon="1.219574">
        <ele>1284.025</ele>
        <time>2021-06-20T10:02:17Z</time>
      </trkpt>
      <trkpt lat="42.196290" lon="1.219392">
        <ele>1283.053</ele>
        <time>2021-06-20T10:02:19Z</time>
      </trkpt>
      <trkpt lat="42.196364" lon="1.219182">
        <ele>1281.892</ele>
        <time>2021-06-20T10:02:21Z</time>
      </trkpt>
      <trkpt lat="42.196394" lon="1.219072">
        <ele>1281.073</ele>
        <time>2021-06-20T10:02:22Z</time>
      </trkpt>
      <trkpt lat="42.196412" lon="1.218966">
        <ele>1279.620</ele>
        <time>2021-06-20T10:02:23Z</time>
      </trkpt>
      <trkpt lat="42.196438" lon="1.218754">
        <ele>1277.808</ele>
        <time>2021-06-20T10:02:25Z</time>
      </trkpt>
      <trkpt lat="42.196488" lon="1.218547">
        <ele>1276.056</ele>
        <time>2021-06-20T10:02:27Z</time>
      </trkpt>
      <trkpt lat="42.196528" lon="1.218447">
        <ele>1274.675</ele>
        <time>2021-06-20T10:02:28Z</time>
      </trkpt>
      <trkpt lat="42.196552" lon="1.218339">
        <ele>1273.872</ele>
        <time>2021-06-20T10:02:29Z</time>
      </trkpt>
      <trkpt lat="42.196559" lon="1.218220">
        <ele>1273.014</ele>
        <time>2021-06-20T10:02:30Z</time>
      </trkpt>
      <trkpt lat="42.196537" lon="1.217981">
        <ele>1272.238</ele>
        <time>2021-06-20T10:02:32Z</time>
      </trkpt>
      <trkpt lat="42.196522" lon="1.217873">
        <ele>1271.679</ele>
        <time>2021-06-20T10:02:33Z</time>
      </trkpt>
      <trkpt lat="42.196493" lon="1.217696">
        <ele>1270.499</ele>
        <time>2021-06-20T10:02:35Z</time>
      </trkpt>
      <trkpt lat="42.196463" lon="1.217641">
        <ele>1269.647</ele>
        <time>2021-06-20T10:02:36Z</time>
      </trkpt>
      <trkpt lat="42.196422" lon="1.217621">
        <ele>1268.449</ele>
        <time>2021-06-20T10:02:37Z</time>
      </trkpt>
      <trkpt lat="42.196384" lon="1.217641">
        <ele>1267.002</ele>
        <time>2021-06-20T10:02:38Z</time>
      </trkpt>
      <trkpt lat="42.196362" lon="1.217756">
        <ele>1265.622</ele>
        <time>2021-06-20T10:02:40Z</time>
      </trkpt>
      <trkpt lat="42.196360" lon="1.218005">
        <ele>1264.408</ele>
        <time>2021-06-20T10:02:43Z</time>
      </trkpt>
      <trkpt lat="42.196272" lon="1.218187">
        <ele>1263.821</ele>
        <time>2021-06-20T10:02:46Z</time>
      </trkpt>
      <trkpt lat="42.196193" lon="1.218152">
        <ele>1263.480</ele>
        <time>2021-06-20T10:02:48Z</time>
      </trkpt>
      <trkpt lat="42.196184" lon="1.218018">
        <ele>1262.097</ele>
        <time>2021-06-20T10:02:50Z</time>
      </trkpt>
      <trkpt lat="42.196176" lon="1.217843">
        <ele>1260.869</ele>
        <time>2021-06-20T10:02:52Z</time>
      </trkpt>
      <trkpt lat="42.196157" lon="1.217747">
        <ele>1260.633</ele>
        <time>2021-06-20T10:02:53Z</time>
      </trkpt>
      <trkpt lat="42.196088" lon="1.217550">
        <ele>1260.014</ele>
        <time>2021-06-20T10:02:55Z</time>
      </trkpt>
      <trkpt lat="42.196053" lon="1.217449">
        <ele>1259.434</ele>
        <time>2021-06-20T10:02:56Z</time>
      </trkpt>
      <trkpt lat="42.196012" lon="1.217352">
        <ele>1258.892</ele>
        <time>2021-06-20T10:02:57Z</time>
      </trkpt>
      <trkpt lat="42.195961" lon="1.217272">
        <ele>1257.834</ele>
        <time>2021-06-20T10:02:58Z</time>
      </trkpt>
      <trkpt lat="42.195897" lon="1.217205">
        <ele>1256.655</ele>
        <time>2021-06-20T10:02:59Z</time>
      </trkpt>
      <trkpt lat="42.195834" lon="1.217142">
        <ele>1255.210</ele>
        <time>2021-06-20T10:03:00Z</time>
      </trkpt>
      <trkpt lat="42.195776" lon="1.217071">
        <ele>1253.808</ele>
        <time>2021-06-20T10:03:01Z</time>
      </trkpt>
      <trkpt lat="42.195711" lon="1.216899">
        <ele>1251.620</ele>
        <time>2021-06-20T10:03:03Z</time>
      </trkpt>
      <trkpt lat="42.195698" lon="1.216801">
        <ele>1250.629</ele>
        <time>2021-06-20T10:03:04Z</time>
      </trkpt>
      <trkpt lat="42.195703" lon="1.216596">
        <ele>1249.416</ele>
        <time>2021-06-20T10:03:06Z</time>
      </trkpt>
      <trkpt lat="42.195717" lon="1.216487">
        <ele>1249.018</ele>
        <time>2021-06-20T10:03:07Z</time>
      </trkpt>
      <trkpt lat="42.195736" lon="1.216260">
        <ele>1248.272</ele>
        <time>2021-06-20T10:03:09Z</time>
      </trkpt>
      <trkpt lat="42.195731" lon="1.216035">
        <ele>1248.033</ele>
        <time>2021-06-20T10:03:11Z</time>
      </trkpt>
      <trkpt lat="42.195682" lon="1.215827">
        <ele>1246.413</ele>
        <time>2021-06-20T10:03:13Z</time>
      </trkpt>
      <trkpt lat="42.195638" lon="1.215736">
        <ele>1245.221</ele>
        <time>2021-06-20T10:03:14Z</time>
      </trkpt>
      <trkpt lat="42.195584" lon="1.215654">
        <ele>1244.058</ele>
        <time>2021-06-20T10:03:15Z</time>
      </trkpt>
      <trkpt lat="42.195464" lon="1.215510">
        <ele>1242.652</ele>
        <time>2021-06-20T10:03:17Z</time>
      </trkpt>
      <trkpt lat="42.195403" lon="1.215443">
        <ele>1242.217</ele>
        <time>2021-06-20T10:03:18Z</time>
      </trkpt>
      <trkpt lat="42.195273" lon="1.215196">
        <ele>1241.408</ele>
        <time>2021-06-20T10:03:21Z</time>
      </trkpt>
      <trkpt lat="42.195244" lon="1.215112">
        <ele>1241.252</ele>
        <time>2021-06-20T10:03:22Z</time>
      </trkpt>
      <trkpt lat="42.195152" lon="1.214841">
        <ele>1240.421</ele>
        <time>2021-06-20T10:03:25Z</time>
      </trkpt>
      <trkpt lat="42.195140" lon="1.214734">
        <ele>1240.038</ele>
        <time>2021-06-20T10:03:26Z</time>
      </trkpt>
      <trkpt lat="42.195150" lon="1.214514">
        <ele>1239.640</ele>
        <time>2021-06-20T10:03:28Z</time>
      </trkpt>
      <trkpt lat="42.195164" lon="1.214287">
        <ele>1239.024</ele>
        <time>2021-06-20T10:03:30Z</time>
      </trkpt>
      <trkpt lat="42.195154" lon="1.214072">
        <ele>1237.615</ele>
        <time>2021-06-20T10:03:32Z</time>
      </trkpt>
      <trkpt lat="42.195147" lon="1.213972">
        <ele>1236.685</ele>
        <time>2021-06-20T10:03:33Z</time>
      </trkpt>
      <trkpt lat="42.195138" lon="1.213875">
        <ele>1234.643</ele>
        <time>2021-06-20T10:03:34Z</time>
      </trkpt>
      <trkpt lat="42.195132" lon="1.213779">
        <ele>1232.846</ele>
        <time>2021-06-20T10:03:35Z</time>
      </trkpt>
      <trkpt lat="42.195138" lon="1.213684">
        <ele>1231.488</ele>
        <time>2021-06-20T10:03:36Z</time>
      </trkpt>
      <trkpt lat="42.195156" lon="1.213588">
        <ele>1228.816</ele>
        <time>2021-06-20T10:03:37Z</time>
      </trkpt>
      <trkpt lat="42.195214" lon="1.213414">
        <ele>1227.208</ele>
        <time>2021-06-20T10:03:39Z</time>
      </trkpt>
      <trkpt lat="42.195234" lon="1.213327">
        <ele>1226.671</ele>
        <time>2021-06-20T10:03:40Z</time>
      </trkpt>
      <trkpt lat="42.195224" lon="1.213138">
        <ele>1226.050</ele>
        <time>2021-06-20T10:03:42Z</time>
      </trkpt>
      <trkpt lat="42.195212" lon="1.213048">
        <ele>1225.497</ele>
        <time>2021-06-20T10:03:43Z</time>
      </trkpt>
      <trkpt lat="42.195190" lon="1.212970">
        <ele>1224.819</ele>
        <time>2021-06-20T10:03:44Z</time>
      </trkpt>
      <trkpt lat="42.195111" lon="1.212886">
        <ele>1223.073</ele>
        <time>2021-06-20T10:03:46Z</time>
      </trkpt>
      <trkpt lat="42.195021" lon="1.212949">
        <ele>1220.894</ele>
        <time>2021-06-20T10:03:48Z</time>
      </trkpt>
      <trkpt lat="42.194989" lon="1.213032">
        <ele>1219.854</ele>
        <time>2021-06-20T10:03:49Z</time>
      </trkpt>
      <trkpt lat="42.194959" lon="1.213133">
        <ele>1219.022</ele>
        <time>2021-06-20T10:03:50Z</time>
      </trkpt>
      <trkpt lat="42.194926" lon="1.213241">
        <ele>1218.275</ele>
        <time>2021-06-20T10:03:51Z</time>
      </trkpt>
      <trkpt lat="42.194859" lon="1.213457">
        <ele>1217.028</ele>
        <time>2021-06-20T10:03:53Z</time>
      </trkpt>
      <trkpt lat="42.194800" lon="1.213626">
        <ele>1215.620</ele>
        <time>2021-06-20T10:03:55Z</time>
      </trkpt>
      <trkpt lat="42.194766" lon="1.213675">
        <ele>1214.608</ele>
        <time>2021-06-20T10:03:56Z</time>
      </trkpt>
      <trkpt lat="42.194730" lon="1.213689">
        <ele>1213.484</ele>
        <time>2021-06-20T10:03:57Z</time>
      </trkpt>
      <trkpt lat="42.194702" lon="1.213659">
        <ele>1211.853</ele>
        <time>2021-06-20T10:03:58Z</time>
      </trkpt>
      <trkpt lat="42.194693" lon="1.213600">
        <ele>1210.290</ele>
        <time>2021-06-20T10:03:59Z</time>
      </trkpt>
      <trkpt lat="42.194709" lon="1.213450">
        <ele>1208.812</ele>
        <time>2021-06-20T10:04:01Z</time>
      </trkpt>
      <trkpt lat="42.194714" lon="1.213358">
        <ele>1208.466</ele>
        <time>2021-06-20T10:04:02Z</time>
      </trkpt>
      <trkpt lat="42.194689" lon="1.213042">
        <ele>1207.697</ele>
        <time>2021-06-20T10:04:05Z</time>
      </trkpt>
      <trkpt lat="42.194664" lon="1.212934">
        <ele>1207.637</ele>
        <time>2021-06-20T10:04:06Z</time>
      </trkpt>
      <trkpt lat="42.194491" lon="1.212665">
        <ele>1207.235</ele>
        <time>2021-06-20T10:04:09Z</time>
      </trkpt>
      <trkpt lat="42.194417" lon="1.212588">
        <ele>1207.258</ele>
        <time>2021-06-20T10:04:10Z</time>
      </trkpt>
      <trkpt lat="42.194273" lon="1.212427">
        <ele>1206.652</ele>
        <time>2021-06-20T10:04:12Z</time>
      </trkpt>
      <trkpt lat="42.194212" lon="1.212341">
        <ele>1206.617</ele>
        <time>2021-06-20T10:04:13Z</time>
      </trkpt>
      <trkpt lat="42.194153" lon="1.212262">
        <ele>1206.408</ele>
        <time>2021-06-20T10:04:14Z</time>
      </trkpt>
      <trkpt lat="42.193938" lon="1.212136">
        <ele>1206.272</ele>
        <time>2021-06-20T10:04:17Z</time>
      </trkpt>
      <trkpt lat="42.193804" lon="1.212054">
        <ele>1205.661</ele>
        <time>2021-06-20T10:04:19Z</time>
      </trkpt>
      <trkpt lat="42.193708" lon="1.211944">
        <ele>1205.458</ele>
        <time>2021-06-20T10:04:21Z</time>
      </trkpt>
      <trkpt lat="42.193593" lon="1.211774">
        <ele>1205.020</ele>
        <time>2021-06-20T10:04:25Z</time>
      </trkpt>
      <trkpt lat="42.193495" lon="1.211578">
        <ele>1204.644</ele>
        <time>2021-06-20T10:04:32Z</time>
      </trkpt>
      <trkpt lat="42.193485" lon="1.211548">
        <ele>1204.675</ele>
        <time>2021-06-20T10:04:33Z</time>
      </trkpt>
      <trkpt lat="42.193507" lon="1.211399">
        <ele>1204.275</ele>
        <time>2021-06-20T10:04:37Z</time>
      </trkpt>
      <trkpt lat="42.193532" lon="1.211359">
        <ele>1204.093</ele>
        <time>2021-06-20T10:04:38Z</time>
      </trkpt>
      <trkpt lat="42.193612" lon="1.211275">
        <ele>1203.832</ele>
        <time>2021-06-20T10:04:40Z</time>
      </trkpt>
      <trkpt lat="42.193793" lon="1.211181">
        <ele>1203.692</ele>
        <time>2021-06-20T10:04:43Z</time>
      </trkpt>
      <trkpt lat="42.193860" lon="1.211150">
        <ele>1203.411</ele>
        <time>2021-06-20T10:04:44Z</time>
      </trkpt>
      <trkpt lat="42.193921" lon="1.211107">
        <ele>1203.208</ele>
        <time>2021-06-20T10:04:45Z</time>
      </trkpt>
      <trkpt lat="42.194094" lon="1.210931">
        <ele>1203.070</ele>
        <time>2021-06-20T10:04:48Z</time>
      </trkpt>
      <trkpt lat="42.194148" lon="1.210860">
        <ele>1202.869</ele>
        <time>2021-06-20T10:04:49Z</time>
      </trkpt>
      <trkpt lat="42.194252" lon="1.210702">
        <ele>1202.636</ele>
        <time>2021-06-20T10:04:51Z</time>
      </trkpt>
      <trkpt lat="42.194348" lon="1.210524">
        <ele>1202.418</ele>
        <time>2021-06-20T10:04:53Z</time>
      </trkpt>
      <trkpt lat="42.194610" lon="1.210009">
        <ele>1201.882</ele>
        <time>2021-06-20T10:04:59Z</time>
      </trkpt>
      <trkpt lat="42.194647" lon="1.209944">
        <ele>1201.853</ele>
        <time>2021-06-20T10:05:00Z</time>
      </trkpt>
      <trkpt lat="42.194673" lon="1.209880">
        <ele>1201.483</ele>
        <time>2021-06-20T10:05:01Z</time>
      </trkpt>
      <trkpt lat="42.194699" lon="1.209761">
        <ele>1201.041</ele>
        <time>2021-06-20T10:05:03Z</time>
      </trkpt>
      <trkpt lat="42.194701" lon="1.209661">
        <ele>1200.846</ele>
        <time>2021-06-20T10:05:05Z</time>
      </trkpt>
      <trkpt lat="42.194702" lon="1.209538">
        <ele>1201.088</ele>
        <time>2021-06-20T10:05:08Z</time>
      </trkpt>
      <trkpt lat="42.194665" lon="1.209056">
        <ele>1200.816</ele>
        <time>2021-06-20T10:05:20Z</time>
      </trkpt>
      <trkpt lat="42.194651" lon="1.208937">
        <ele>1200.608</ele>
        <time>2021-06-20T10:05:23Z</time>
      </trkpt>
      <trkpt lat="42.194613" lon="1.208709">
        <ele>1200.491</ele>
        <time>2021-06-20T10:05:29Z</time>
      </trkpt>
      <trkpt lat="42.194572" lon="1.208561">
        <ele>1200.280</ele>
        <time>2021-06-20T10:05:33Z</time>
      </trkpt>
      <trkpt lat="42.194506" lon="1.208294">
        <ele>1199.847</ele>
        <time>2021-06-20T10:05:40Z</time>
      </trkpt>
      <trkpt lat="42.194473" lon="1.208180">
        <ele>1199.659</ele>
        <time>2021-06-20T10:05:43Z</time>
      </trkpt>
      <trkpt lat="42.194393" lon="1.207919">
        <ele>1199.223</ele>
        <time>2021-06-20T10:05:50Z</time>
      </trkpt>
      <trkpt lat="42.194239" lon="1.207683">
        <ele>1198.834</ele>
        <time>2021-06-20T10:05:58Z</time>
      </trkpt>
      <trkpt lat="42.194094" lon="1.207553">
        <ele>1198.654</ele>
        <time>2021-06-20T10:06:05Z</time>
      </trkpt>
      <trkpt lat="42.194061" lon="1.207524">
        <ele>1198.612</ele>
        <time>2021-06-20T10:06:07Z</time>
      </trkpt>
      <trkpt lat="42.193941" lon="1.207434">
        <ele>1198.435</ele>
        <time>2021-06-20T10:06:14Z</time>
      </trkpt>
      <trkpt lat="42.193841" lon="1.207400">
        <ele>1198.486</ele>
        <time>2021-06-20T10:06:20Z</time>
      </trkpt>
      <trkpt lat="42.193703" lon="1.207357">
        <ele>1198.214</ele>
        <time>2021-06-20T10:06:28Z</time>
      </trkpt>
      <trkpt lat="42.193569" lon="1.207323">
        <ele>1198.008</ele>
        <time>2021-06-20T10:06:36Z</time>
      </trkpt>
      <trkpt lat="42.193455" lon="1.207272">
        <ele>1197.860</ele>
        <time>2021-06-20T10:06:43Z</time>
      </trkpt>
      <trkpt lat="42.193395" lon="1.207221">
        <ele>1197.679</ele>
        <time>2021-06-20T10:06:47Z</time>
      </trkpt>
      <trkpt lat="42.193341" lon="1.207157">
        <ele>1197.416</ele>
        <time>2021-06-20T10:06:51Z</time>
      </trkpt>
      <trkpt lat="42.193268" lon="1.207020">
        <ele>1197.058</ele>
        <time>2021-06-20T10:06:58Z</time>
      </trkpt>
      <trkpt lat="42.193213" lon="1.206815">
        <ele>1196.832</ele>
        <time>2021-06-20T10:07:08Z</time>
      </trkpt>
      <trkpt lat="42.193195" lon="1.206686">
        <ele>1196.433</ele>
        <time>2021-06-20T10:07:14Z</time>
      </trkpt>
      <trkpt lat="42.193208" lon="1.206525">
        <ele>1196.443</ele>
        <time>2021-06-20T10:07:18Z</time>
      </trkpt>
      <trkpt lat="42.193222" lon="1.206476">
        <ele>1196.481</ele>
        <time>2021-06-20T10:07:19Z</time>
      </trkpt>
      <trkpt lat="42.193287" lon="1.206221">
        <ele>1196.218</ele>
        <time>2021-06-20T10:07:23Z</time>
      </trkpt>
      <trkpt lat="42.193300" lon="1.206146">
        <ele>1196.298</ele>
        <time>2021-06-20T10:07:24Z</time>
      </trkpt>
      <trkpt lat="42.193327" lon="1.205820">
        <ele>1196.017</ele>
        <time>2021-06-20T10:07:28Z</time>
      </trkpt>
      <trkpt lat="42.193328" lon="1.205390">
        <ele>1195.808</ele>
        <time>2021-06-20T10:07:33Z</time>
      </trkpt>
      <trkpt lat="42.193347" lon="1.205197">
        <ele>1195.698</ele>
        <time>2021-06-20T10:07:35Z</time>
      </trkpt>
      <trkpt lat="42.193443" lon="1.204643">
        <ele>1195.447</ele>
        <time>2021-06-20T10:07:40Z</time>
      </trkpt>
      <trkpt lat="42.193461" lon="1.204524">
        <ele>1195.244</ele>
        <time>2021-06-20T10:07:41Z</time>
      </trkpt>
      <trkpt lat="42.193484" lon="1.204404">
        <ele>1195.236</ele>
        <time>2021-06-20T10:07:42Z</time>
      </trkpt>
      <trkpt lat="42.193551" lon="1.204164">
        <ele>1195.220</ele>
        <time>2021-06-20T10:07:44Z</time>
      </trkpt>
      <trkpt lat="42.193631" lon="1.203821">
        <ele>1195.091</ele>
        <time>2021-06-20T10:07:47Z</time>
      </trkpt>
      <trkpt lat="42.193629" lon="1.203711">
        <ele>1195.041</ele>
        <time>2021-06-20T10:07:48Z</time>
      </trkpt>
      <trkpt lat="42.193515" lon="1.203459">
        <ele>1194.899</ele>
        <time>2021-06-20T10:07:51Z</time>
      </trkpt>
      <trkpt lat="42.193333" lon="1.203328">
        <ele>1194.898</ele>
        <time>2021-06-20T10:07:54Z</time>
      </trkpt>
      <trkpt lat="42.193278" lon="1.203297">
        <ele>1194.815</ele>
        <time>2021-06-20T10:07:55Z</time>
      </trkpt>
      <trkpt lat="42.193063" lon="1.203190">
        <ele>1194.626</ele>
        <time>2021-06-20T10:08:00Z</time>
      </trkpt>
      <trkpt lat="42.192938" lon="1.203107">
        <ele>1194.608</ele>
        <time>2021-06-20T10:08:05Z</time>
      </trkpt>
      <trkpt lat="42.192856" lon="1.203055">
        <ele>1194.626</ele>
        <time>2021-06-20T10:08:10Z</time>
      </trkpt>
      <trkpt lat="42.192705" lon="1.202998">
        <ele>1194.865</ele>
        <time>2021-06-20T10:08:19Z</time>
      </trkpt>
      <trkpt lat="42.192585" lon="1.202996">
        <ele>1194.622</ele>
        <time>2021-06-20T10:08:26Z</time>
      </trkpt>
      <trkpt lat="42.192462" lon="1.202890">
        <ele>1194.644</ele>
        <time>2021-06-20T10:08:34Z</time>
      </trkpt>
      <trkpt lat="42.192438" lon="1.202792">
        <ele>1194.228</ele>
        <time>2021-06-20T10:08:38Z</time>
      </trkpt>
      <trkpt lat="42.192440" lon="1.202730">
        <ele>1194.279</ele>
        <time>2021-06-20T10:08:40Z</time>
      </trkpt>
      <trkpt lat="42.192486" lon="1.202544">
        <ele>1194.239</ele>
        <time>2021-06-20T10:08:45Z</time>
      </trkpt>
      <trkpt lat="42.192578" lon="1.202158">
        <ele>1193.847</ele>
        <time>2021-06-20T10:08:53Z</time>
      </trkpt>
      <trkpt lat="42.192649" lon="1.201813">
        <ele>1193.851</ele>
        <time>2021-06-20T10:08:59Z</time>
      </trkpt>
      <trkpt lat="42.192649" lon="1.201752">
        <ele>1193.601</ele>
        <time>2021-06-20T10:09:00Z</time>
      </trkpt>
      <trkpt lat="42.192633" lon="1.201581">
        <ele>1193.611</ele>
        <time>2021-06-20T10:09:03Z</time>
      </trkpt>
      <trkpt lat="42.192590" lon="1.201485">
        <ele>1193.608</ele>
        <time>2021-06-20T10:09:05Z</time>
      </trkpt>
      <trkpt lat="42.192507" lon="1.201370">
        <ele>1193.242</ele>
        <time>2021-06-20T10:09:08Z</time>
      </trkpt>
      <trkpt lat="42.192443" lon="1.201316">
        <ele>1193.221</ele>
        <time>2021-06-20T10:09:10Z</time>
      </trkpt>
      <trkpt lat="42.192220" lon="1.201188">
        <ele>1193.288</ele>
        <time>2021-06-20T10:09:17Z</time>
      </trkpt>
      <trkpt lat="42.192030" lon="1.200978">
        <ele>1193.220</ele>
        <time>2021-06-20T10:09:24Z</time>
      </trkpt>
      <trkpt lat="42.191919" lon="1.200686">
        <ele>1193.274</ele>
        <time>2021-06-20T10:09:31Z</time>
      </trkpt>
      <trkpt lat="42.191839" lon="1.200331">
        <ele>1193.245</ele>
        <time>2021-06-20T10:09:40Z</time>
      </trkpt>
      <trkpt lat="42.191735" lon="1.200159">
        <ele>1193.255</ele>
        <time>2021-06-20T10:09:45Z</time>
      </trkpt>
      <trkpt lat="42.191570" lon="1.200077">
        <ele>1193.243</ele>
        <time>2021-06-20T10:09:50Z</time>
      </trkpt>
      <trkpt lat="42.191388" lon="1.200122">
        <ele>1193.259</ele>
        <time>2021-06-20T10:09:56Z</time>
      </trkpt>
      <trkpt lat="42.191237" lon="1.200257">
        <ele>1193.203</ele>
        <time>2021-06-20T10:10:03Z</time>
      </trkpt>
      <trkpt lat="42.191079" lon="1.200422">
        <ele>1193.023</ele>
        <time>2021-06-20T10:10:11Z</time>
      </trkpt>
      <trkpt lat="42.190791" lon="1.200539">
        <ele>1192.808</ele>
        <time>2021-06-20T10:10:23Z</time>
      </trkpt>
      <trkpt lat="42.190602" lon="1.200544">
        <ele>1192.852</ele>
        <time>2021-06-20T10:10:30Z</time>
      </trkpt>
      <trkpt lat="42.190531" lon="1.200517">
        <ele>1192.691</ele>
        <time>2021-06-20T10:10:32Z</time>
      </trkpt>
      <trkpt lat="42.190412" lon="1.200422">
        <ele>1192.428</ele>
        <time>2021-06-20T10:10:35Z</time>
      </trkpt>
      <trkpt lat="42.190371" lon="1.200378">
        <ele>1192.490</ele>
        <time>2021-06-20T10:10:36Z</time>
      </trkpt>
      <trkpt lat="42.190265" lon="1.200198">
        <ele>1192.294</ele>
        <time>2021-06-20T10:10:39Z</time>
      </trkpt>
      <trkpt lat="42.190197" lon="1.199979">
        <ele>1192.285</ele>
        <time>2021-06-20T10:10:42Z</time>
      </trkpt>
      <trkpt lat="42.190182" lon="1.199901">
        <ele>1192.265</ele>
        <time>2021-06-20T10:10:43Z</time>
      </trkpt>
      <trkpt lat="42.190172" lon="1.199820">
        <ele>1192.093</ele>
        <time>2021-06-20T10:10:44Z</time>
      </trkpt>
      <trkpt lat="42.190158" lon="1.199656">
        <ele>1192.053</ele>
        <time>2021-06-20T10:10:46Z</time>
      </trkpt>
      <trkpt lat="42.190154" lon="1.199574">
        <ele>1192.004</ele>
        <time>2021-06-20T10:10:47Z</time>
      </trkpt>
      <trkpt lat="42.190163" lon="1.199334">
        <ele>1192.014</ele>
        <time>2021-06-20T10:10:50Z</time>
      </trkpt>
      <trkpt lat="42.190173" lon="1.199257">
        <ele>1192.008</ele>
        <time>2021-06-20T10:10:51Z</time>
      </trkpt>
      <trkpt lat="42.190262" lon="1.198747">
        <ele>1192.042</ele>
        <time>2021-06-20T10:10:58Z</time>
      </trkpt>
      <trkpt lat="42.190210" lon="1.198378">
        <ele>1192.061</ele>
        <time>2021-06-20T10:11:03Z</time>
      </trkpt>
      <trkpt lat="42.190186" lon="1.198310">
        <ele>1192.048</ele>
        <time>2021-06-20T10:11:04Z</time>
      </trkpt>
      <trkpt lat="42.190150" lon="1.198172">
        <ele>1192.020</ele>
        <time>2021-06-20T10:11:06Z</time>
      </trkpt>
      <trkpt lat="42.190141" lon="1.198021">
        <ele>1192.034</ele>
        <time>2021-06-20T10:11:08Z</time>
      </trkpt>
      <trkpt lat="42.190178" lon="1.197627">
        <ele>1192.055</ele>
        <time>2021-06-20T10:11:13Z</time>
      </trkpt>
      <trkpt lat="42.190187" lon="1.197561">
        <ele>1192.095</ele>
        <time>2021-06-20T10:11:14Z</time>
      </trkpt>
      <trkpt lat="42.190208" lon="1.197427">
        <ele>1192.023</ele>
        <time>2021-06-20T10:11:17Z</time>
      </trkpt>
      <trkpt lat="42.190209" lon="1.197284">
        <ele>1192.278</ele>
        <time>2021-06-20T10:11:23Z</time>
      </trkpt>
      <trkpt lat="42.190145" lon="1.197152">
        <ele>1192.233</ele>
        <time>2021-06-20T10:11:30Z</time>
      </trkpt>
      <trkpt lat="42.190048" lon="1.196997">
        <ele>1192.026</ele>
        <time>2021-06-20T10:11:39Z</time>
      </trkpt>
      <trkpt lat="42.189956" lon="1.196866">
        <ele>1192.208</ele>
        <time>2021-06-20T10:11:47Z</time>
      </trkpt>
      <trkpt lat="42.189928" lon="1.196647">
        <ele>1192.214</ele>
        <time>2021-06-20T10:11:57Z</time>
      </trkpt>
      <trkpt lat="42.189954" lon="1.196396">
        <ele>1192.433</ele>
        <time>2021-06-20T10:12:08Z</time>
      </trkpt>
      <trkpt lat="42.189987" lon="1.196238">
        <ele>1192.420</ele>
        <time>2021-06-20T10:12:15Z</time>
      </trkpt>
      <trkpt lat="42.190060" lon="1.196029">
        <ele>1192.862</ele>
        <time>2021-06-20T10:12:25Z</time>
      </trkpt>
      <trkpt lat="42.190115" lon="1.195884">
        <ele>1193.016</ele>
        <time>2021-06-20T10:12:32Z</time>
      </trkpt>
      <trkpt lat="42.190131" lon="1.195844">
        <ele>1192.827</ele>
        <time>2021-06-20T10:12:34Z</time>
      </trkpt>
      <trkpt lat="42.190170" lon="1.195748">
        <ele>1193.097</ele>
        <time>2021-06-20T10:12:39Z</time>
      </trkpt>
      <trkpt lat="42.190225" lon="1.195581">
        <ele>1193.655</ele>
        <time>2021-06-20T10:12:47Z</time>
      </trkpt>
      <trkpt lat="42.190278" lon="1.195407">
        <ele>1193.834</ele>
        <time>2021-06-20T10:12:55Z</time>
      </trkpt>
      <trkpt lat="42.190288" lon="1.195363">
        <ele>1194.055</ele>
        <time>2021-06-20T10:12:57Z</time>
      </trkpt>
      <trkpt lat="42.190325" lon="1.195266">
        <ele>1194.410</ele>
        <time>2021-06-20T10:13:03Z</time>
      </trkpt>
      <trkpt lat="42.190326" lon="1.195263">
        <ele>1194.408</ele>
        <time>2021-06-20T10:13:04Z</time>
      </trkpt>
      <trkpt lat="42.190350" lon="1.195196">
        <ele>1186.660</ele>
        <time>2021-06-20T10:15:01Z</time>
      </trkpt>
      <trkpt lat="42.190389" lon="1.195152">
        <ele>1186.449</ele>
        <time>2021-06-20T10:15:04Z</time>
      </trkpt>
      <trkpt lat="42.190441" lon="1.195004">
        <ele>1186.296</ele>
        <time>2021-06-20T10:15:11Z</time>
      </trkpt>
      <trkpt lat="42.190424" lon="1.194841">
        <ele>1186.278</ele>
        <time>2021-06-20T10:15:18Z</time>
      </trkpt>
      <trkpt lat="42.190345" lon="1.194685">
        <ele>1186.292</ele>
        <time>2021-06-20T10:15:26Z</time>
      </trkpt>
      <trkpt lat="42.190219" lon="1.194595">
        <ele>1186.423</ele>
        <time>2021-06-20T10:15:34Z</time>
      </trkpt>
      <trkpt lat="42.190130" lon="1.194523">
        <ele>1187.093</ele>
        <time>2021-06-20T10:15:40Z</time>
      </trkpt>
      <trkpt lat="42.190113" lon="1.194520">
        <ele>1186.811</ele>
        <time>2021-06-20T10:15:41Z</time>
      </trkpt>
      <trkpt lat="42.189984" lon="1.194490">
        <ele>1187.256</ele>
        <time>2021-06-20T10:15:49Z</time>
      </trkpt>
      <trkpt lat="42.189904" lon="1.194455">
        <ele>1187.659</ele>
        <time>2021-06-20T10:15:54Z</time>
      </trkpt>
      <trkpt lat="42.189826" lon="1.194417">
        <ele>1187.814</ele>
        <time>2021-06-20T10:15:59Z</time>
      </trkpt>
      <trkpt lat="42.189707" lon="1.194247">
        <ele>1188.208</ele>
        <time>2021-06-20T10:16:09Z</time>
      </trkpt>
      <trkpt lat="42.189682" lon="1.194180">
        <ele>1188.442</ele>
        <time>2021-06-20T10:16:12Z</time>
      </trkpt>
      <trkpt lat="42.189652" lon="1.194065">
        <ele>1188.831</ele>
        <time>2021-06-20T10:16:17Z</time>
      </trkpt>
      <trkpt lat="42.189618" lon="1.193828">
        <ele>1189.268</ele>
        <time>2021-06-20T10:16:27Z</time>
      </trkpt>
      <trkpt lat="42.189615" lon="1.193804">
        <ele>1189.420</ele>
        <time>2021-06-20T10:16:28Z</time>
      </trkpt>
      <trkpt lat="42.189582" lon="1.193641">
        <ele>1190.274</ele>
        <time>2021-06-20T10:16:35Z</time>
      </trkpt>
      <trkpt lat="42.189560" lon="1.193550">
        <ele>1191.045</ele>
        <time>2021-06-20T10:16:39Z</time>
      </trkpt>
      <trkpt lat="42.189553" lon="1.193530">
        <ele>1191.215</ele>
        <time>2021-06-20T10:16:40Z</time>
      </trkpt>
      <trkpt lat="42.189530" lon="1.193443">
        <ele>1192.233</ele>
        <time>2021-06-20T10:16:44Z</time>
      </trkpt>
      <trkpt lat="42.189505" lon="1.193355">
        <ele>1193.254</ele>
        <time>2021-06-20T10:16:48Z</time>
      </trkpt>
      <trkpt lat="42.189473" lon="1.193271">
        <ele>1194.056</ele>
        <time>2021-06-20T10:16:52Z</time>
      </trkpt>
      <trkpt lat="42.189438" lon="1.193164">
        <ele>1195.011</ele>
        <time>2021-06-20T10:16:57Z</time>
      </trkpt>
      <trkpt lat="42.189433" lon="1.193141">
        <ele>1195.208</ele>
        <time>2021-06-20T10:16:58Z</time>
      </trkpt>
      <trkpt lat="42.189400" lon="1.193055">
        <ele>1196.272</ele>
        <time>2021-06-20T10:17:02Z</time>
      </trkpt>
      <trkpt lat="42.189378" lon="1.192988">
        <ele>1196.491</ele>
        <time>2021-06-20T10:17:05Z</time>
      </trkpt>
      <trkpt lat="42.189351" lon="1.192900">
        <ele>1197.248</ele>
        <time>2021-06-20T10:17:09Z</time>
      </trkpt>
      <trkpt lat="42.189325" lon="1.192837">
        <ele>1198.010</ele>
        <time>2021-06-20T10:17:12Z</time>
      </trkpt>
      <trkpt lat="42.189311" lon="1.192792">
        <ele>1198.284</ele>
        <time>2021-06-20T10:17:14Z</time>
      </trkpt>
      <trkpt lat="42.189264" lon="1.192687">
        <ele>1199.275</ele>
        <time>2021-06-20T10:17:19Z</time>
      </trkpt>
      <trkpt lat="42.189234" lon="1.192655">
        <ele>1199.695</ele>
        <time>2021-06-20T10:17:21Z</time>
      </trkpt>
      <trkpt lat="42.189166" lon="1.192614">
        <ele>1200.463</ele>
        <time>2021-06-20T10:17:25Z</time>
      </trkpt>
      <trkpt lat="42.189093" lon="1.192602">
        <ele>1201.258</ele>
        <time>2021-06-20T10:17:29Z</time>
      </trkpt>
      <trkpt lat="42.189075" lon="1.192609">
        <ele>1201.252</ele>
        <time>2021-06-20T10:17:30Z</time>
      </trkpt>
      <trkpt lat="42.188988" lon="1.192699">
        <ele>1202.217</ele>
        <time>2021-06-20T10:17:36Z</time>
      </trkpt>
      <trkpt lat="42.188976" lon="1.192718">
        <ele>1202.408</ele>
        <time>2021-06-20T10:17:37Z</time>
      </trkpt>
      <trkpt lat="42.188868" lon="1.192859">
        <ele>1203.232</ele>
        <time>2021-06-20T10:17:45Z</time>
      </trkpt>
      <trkpt lat="42.188854" lon="1.192874">
        <ele>1203.451</ele>
        <time>2021-06-20T10:17:46Z</time>
      </trkpt>
      <trkpt lat="42.188697" lon="1.192963">
        <ele>1204.098</ele>
        <time>2021-06-20T10:17:55Z</time>
      </trkpt>
      <trkpt lat="42.188678" lon="1.192962">
        <ele>1204.220</ele>
        <time>2021-06-20T10:17:56Z</time>
      </trkpt>
      <trkpt lat="42.188572" lon="1.192919">
        <ele>1204.834</ele>
        <time>2021-06-20T10:18:02Z</time>
      </trkpt>
      <trkpt lat="42.188541" lon="1.192887">
        <ele>1205.095</ele>
        <time>2021-06-20T10:18:04Z</time>
      </trkpt>
      <trkpt lat="42.188437" lon="1.192776">
        <ele>1206.225</ele>
        <time>2021-06-20T10:18:11Z</time>
      </trkpt>
      <trkpt lat="42.188422" lon="1.192759">
        <ele>1206.253</ele>
        <time>2021-06-20T10:18:12Z</time>
      </trkpt>
      <trkpt lat="42.188333" lon="1.192654">
        <ele>1207.293</ele>
        <time>2021-06-20T10:18:18Z</time>
      </trkpt>
      <trkpt lat="42.188273" lon="1.192591">
        <ele>1207.665</ele>
        <time>2021-06-20T10:18:22Z</time>
      </trkpt>
      <trkpt lat="42.188198" lon="1.192507">
        <ele>1208.021</ele>
        <time>2021-06-20T10:18:27Z</time>
      </trkpt>
      <trkpt lat="42.188149" lon="1.192469">
        <ele>1208.608</ele>
        <time>2021-06-20T10:18:30Z</time>
      </trkpt>
      <trkpt lat="42.188040" lon="1.192442">
        <ele>1209.066</ele>
        <time>2021-06-20T10:18:36Z</time>
      </trkpt>
      <trkpt lat="42.188023" lon="1.192439">
        <ele>1209.045</ele>
        <time>2021-06-20T10:18:37Z</time>
      </trkpt>
      <trkpt lat="42.187903" lon="1.192473">
        <ele>1209.842</ele>
        <time>2021-06-20T10:18:44Z</time>
      </trkpt>
      <trkpt lat="42.187872" lon="1.192499">
        <ele>1210.014</ele>
        <time>2021-06-20T10:18:46Z</time>
      </trkpt>
      <trkpt lat="42.187798" lon="1.192556">
        <ele>1210.888</ele>
        <time>2021-06-20T10:18:51Z</time>
      </trkpt>
      <trkpt lat="42.187748" lon="1.192566">
        <ele>1210.849</ele>
        <time>2021-06-20T10:18:54Z</time>
      </trkpt>
      <trkpt lat="42.187662" lon="1.192579">
        <ele>1211.439</ele>
        <time>2021-06-20T10:18:59Z</time>
      </trkpt>
      <trkpt lat="42.187560" lon="1.192542">
        <ele>1211.827</ele>
        <time>2021-06-20T10:19:05Z</time>
      </trkpt>
      <trkpt lat="42.187495" lon="1.192502">
        <ele>1212.257</ele>
        <time>2021-06-20T10:19:09Z</time>
      </trkpt>
      <trkpt lat="42.187411" lon="1.192477">
        <ele>1212.800</ele>
        <time>2021-06-20T10:19:14Z</time>
      </trkpt>
      <trkpt lat="42.187324" lon="1.192464">
        <ele>1213.220</ele>
        <time>2021-06-20T10:19:19Z</time>
      </trkpt>
      <trkpt lat="42.187205" lon="1.192499">
        <ele>1213.408</ele>
        <time>2021-06-20T10:19:26Z</time>
      </trkpt>
      <trkpt lat="42.187168" lon="1.192507">
        <ele>1213.642</ele>
        <time>2021-06-20T10:19:28Z</time>
      </trkpt>
      <trkpt lat="42.187092" lon="1.192557">
        <ele>1214.211</ele>
        <time>2021-06-20T10:19:33Z</time>
      </trkpt>
      <trkpt lat="42.187052" lon="1.192643">
        <ele>1214.648</ele>
        <time>2021-06-20T10:19:38Z</time>
      </trkpt>
      <trkpt lat="42.187038" lon="1.192677">
        <ele>1214.880</ele>
        <time>2021-06-20T10:19:40Z</time>
      </trkpt>
      <trkpt lat="42.186967" lon="1.192797">
        <ele>1215.414</ele>
        <time>2021-06-20T10:19:47Z</time>
      </trkpt>
      <trkpt lat="42.186954" lon="1.192812">
        <ele>1215.675</ele>
        <time>2021-06-20T10:19:48Z</time>
      </trkpt>
      <trkpt lat="42.186842" lon="1.192886">
        <ele>1216.045</ele>
        <time>2021-06-20T10:19:55Z</time>
      </trkpt>
      <trkpt lat="42.186734" lon="1.192871">
        <ele>1216.443</ele>
        <time>2021-06-20T10:20:01Z</time>
      </trkpt>
      <trkpt lat="42.186646" lon="1.192849">
        <ele>1216.654</ele>
        <time>2021-06-20T10:20:06Z</time>
      </trkpt>
      <trkpt lat="42.186507" lon="1.192825">
        <ele>1217.256</ele>
        <time>2021-06-20T10:20:14Z</time>
      </trkpt>
      <trkpt lat="42.186472" lon="1.192811">
        <ele>1217.411</ele>
        <time>2021-06-20T10:20:16Z</time>
      </trkpt>
      <trkpt lat="42.186331" lon="1.192806">
        <ele>1218.008</ele>
        <time>2021-06-20T10:20:24Z</time>
      </trkpt>
      <trkpt lat="42.186193" lon="1.192784">
        <ele>1218.622</ele>
        <time>2021-06-20T10:20:32Z</time>
      </trkpt>
      <trkpt lat="42.186140" lon="1.192768">
        <ele>1219.051</ele>
        <time>2021-06-20T10:20:35Z</time>
      </trkpt>
      <trkpt lat="42.186054" lon="1.192718">
        <ele>1219.218</ele>
        <time>2021-06-20T10:20:40Z</time>
      </trkpt>
      <trkpt lat="42.185949" lon="1.192611">
        <ele>1219.650</ele>
        <time>2021-06-20T10:20:47Z</time>
      </trkpt>
      <trkpt lat="42.185934" lon="1.192595">
        <ele>1219.824</ele>
        <time>2021-06-20T10:20:48Z</time>
      </trkpt>
      <trkpt lat="42.185829" lon="1.192456">
        <ele>1220.255</ele>
        <time>2021-06-20T10:20:56Z</time>
      </trkpt>
      <trkpt lat="42.185772" lon="1.192366">
        <ele>1220.625</ele>
        <time>2021-06-20T10:21:01Z</time>
      </trkpt>
      <trkpt lat="42.185764" lon="1.192352">
        <ele>1220.623</ele>
        <time>2021-06-20T10:21:02Z</time>
      </trkpt>
      <trkpt lat="42.185731" lon="1.192236">
        <ele>1225.459</ele>
        <time>2021-06-20T10:21:08Z</time>
      </trkpt>
      <trkpt lat="42.185720" lon="1.192213">
        <ele>1239.003</ele>
        <time>2021-06-20T10:21:09Z</time>
      </trkpt>
      <trkpt lat="42.185706" lon="1.192190">
        <ele>1249.223</ele>
        <time>2021-06-20T10:21:10Z</time>
      </trkpt>
      <trkpt lat="42.185692" lon="1.192163">
        <ele>1255.008</ele>
        <time>2021-06-20T10:21:11Z</time>
      </trkpt>
      <trkpt lat="42.185677" lon="1.192131">
        <ele>1258.022</ele>
        <time>2021-06-20T10:21:12Z</time>
      </trkpt>
      <trkpt lat="42.185660" lon="1.192095">
        <ele>1259.671</ele>
        <time>2021-06-20T10:21:13Z</time>
      </trkpt>
      <trkpt lat="42.185608" lon="1.192024">
        <ele>1260.888</ele>
        <time>2021-06-20T10:21:15Z</time>
      </trkpt>
      <trkpt lat="42.185389" lon="1.191966">
        <ele>1261.050</ele>
        <time>2021-06-20T10:21:19Z</time>
      </trkpt>
      <trkpt lat="42.185163" lon="1.191977">
        <ele>1261.044</ele>
        <time>2021-06-20T10:21:22Z</time>
      </trkpt>
      <trkpt lat="42.185080" lon="1.191995">
        <ele>1260.635</ele>
        <time>2021-06-20T10:21:23Z</time>
      </trkpt>
      <trkpt lat="42.184909" lon="1.192029">
        <ele>1259.265</ele>
        <time>2021-06-20T10:21:25Z</time>
      </trkpt>
      <trkpt lat="42.184753" lon="1.192048">
        <ele>1257.473</ele>
        <time>2021-06-20T10:21:27Z</time>
      </trkpt>
      <trkpt lat="42.184684" lon="1.192031">
        <ele>1256.444</ele>
        <time>2021-06-20T10:21:28Z</time>
      </trkpt>
      <trkpt lat="42.184619" lon="1.191994">
        <ele>1255.205</ele>
        <time>2021-06-20T10:21:29Z</time>
      </trkpt>
      <trkpt lat="42.184564" lon="1.191939">
        <ele>1252.815</ele>
        <time>2021-06-20T10:21:30Z</time>
      </trkpt>
      <trkpt lat="42.184520" lon="1.191867">
        <ele>1251.608</ele>
        <time>2021-06-20T10:21:31Z</time>
      </trkpt>
      <trkpt lat="42.184487" lon="1.191784">
        <ele>1250.411</ele>
        <time>2021-06-20T10:21:32Z</time>
      </trkpt>
      <trkpt lat="42.184459" lon="1.191692">
        <ele>1249.660</ele>
        <time>2021-06-20T10:21:33Z</time>
      </trkpt>
      <trkpt lat="42.184426" lon="1.191597">
        <ele>1249.057</ele>
        <time>2021-06-20T10:21:34Z</time>
      </trkpt>
      <trkpt lat="42.184360" lon="1.191397">
        <ele>1247.619</ele>
        <time>2021-06-20T10:21:36Z</time>
      </trkpt>
      <trkpt lat="42.184293" lon="1.191197">
        <ele>1245.823</ele>
        <time>2021-06-20T10:21:38Z</time>
      </trkpt>
      <trkpt lat="42.184264" lon="1.191097">
        <ele>1245.014</ele>
        <time>2021-06-20T10:21:39Z</time>
      </trkpt>
      <trkpt lat="42.184240" lon="1.190998">
        <ele>1244.264</ele>
        <time>2021-06-20T10:21:40Z</time>
      </trkpt>
      <trkpt lat="42.184208" lon="1.190903">
        <ele>1243.442</ele>
        <time>2021-06-20T10:21:41Z</time>
      </trkpt>
      <trkpt lat="42.184164" lon="1.190814">
        <ele>1242.487</ele>
        <time>2021-06-20T10:21:42Z</time>
      </trkpt>
      <trkpt lat="42.184047" lon="1.190652">
        <ele>1241.042</ele>
        <time>2021-06-20T10:21:44Z</time>
      </trkpt>
      <trkpt lat="42.183923" lon="1.190494">
        <ele>1239.826</ele>
        <time>2021-06-20T10:21:46Z</time>
      </trkpt>
      <trkpt lat="42.183858" lon="1.190417">
        <ele>1239.008</ele>
        <time>2021-06-20T10:21:47Z</time>
      </trkpt>
      <trkpt lat="42.183795" lon="1.190334">
        <ele>1238.045</ele>
        <time>2021-06-20T10:21:48Z</time>
      </trkpt>
      <trkpt lat="42.183671" lon="1.190160">
        <ele>1236.474</ele>
        <time>2021-06-20T10:21:50Z</time>
      </trkpt>
      <trkpt lat="42.183551" lon="1.189985">
        <ele>1234.691</ele>
        <time>2021-06-20T10:21:52Z</time>
      </trkpt>
      <trkpt lat="42.183491" lon="1.189897">
        <ele>1233.863</ele>
        <time>2021-06-20T10:21:53Z</time>
      </trkpt>
      <trkpt lat="42.183430" lon="1.189812">
        <ele>1233.097</ele>
        <time>2021-06-20T10:21:54Z</time>
      </trkpt>
      <trkpt lat="42.183371" lon="1.189727">
        <ele>1232.078</ele>
        <time>2021-06-20T10:21:55Z</time>
      </trkpt>
      <trkpt lat="42.183257" lon="1.189540">
        <ele>1230.428</ele>
        <time>2021-06-20T10:21:57Z</time>
      </trkpt>
      <trkpt lat="42.183202" lon="1.189439">
        <ele>1229.046</ele>
        <time>2021-06-20T10:21:58Z</time>
      </trkpt>
      <trkpt lat="42.183150" lon="1.189334">
        <ele>1228.464</ele>
        <time>2021-06-20T10:21:59Z</time>
      </trkpt>
      <trkpt lat="42.183103" lon="1.189225">
        <ele>1227.806</ele>
        <time>2021-06-20T10:22:00Z</time>
      </trkpt>
      <trkpt lat="42.183045" lon="1.188999">
        <ele>1226.616</ele>
        <time>2021-06-20T10:22:02Z</time>
      </trkpt>
      <trkpt lat="42.183012" lon="1.188786">
        <ele>1225.008</ele>
        <time>2021-06-20T10:22:04Z</time>
      </trkpt>
      <trkpt lat="42.182969" lon="1.188597">
        <ele>1223.883</ele>
        <time>2021-06-20T10:22:06Z</time>
      </trkpt>
      <trkpt lat="42.182938" lon="1.188510">
        <ele>1223.642</ele>
        <time>2021-06-20T10:22:07Z</time>
      </trkpt>
      <trkpt lat="42.182786" lon="1.188174">
        <ele>1223.269</ele>
        <time>2021-06-20T10:22:11Z</time>
      </trkpt>
      <trkpt lat="42.182732" lon="1.187981">
        <ele>1222.811</ele>
        <time>2021-06-20T10:22:13Z</time>
      </trkpt>
      <trkpt lat="42.182701" lon="1.187883">
        <ele>1222.685</ele>
        <time>2021-06-20T10:22:14Z</time>
      </trkpt>
      <trkpt lat="42.182658" lon="1.187791">
        <ele>1222.456</ele>
        <time>2021-06-20T10:22:15Z</time>
      </trkpt>
      <trkpt lat="42.182440" lon="1.187486">
        <ele>1221.896</ele>
        <time>2021-06-20T10:22:19Z</time>
      </trkpt>
      <trkpt lat="42.182398" lon="1.187227">
        <ele>1220.494</ele>
        <time>2021-06-20T10:22:22Z</time>
      </trkpt>
      <trkpt lat="42.182404" lon="1.187072">
        <ele>1219.434</ele>
        <time>2021-06-20T10:22:24Z</time>
      </trkpt>
      <trkpt lat="42.182398" lon="1.186932">
        <ele>1218.855</ele>
        <time>2021-06-20T10:22:26Z</time>
      </trkpt>
      <trkpt lat="42.182375" lon="1.186801">
        <ele>1218.610</ele>
        <time>2021-06-20T10:22:28Z</time>
      </trkpt>
      <trkpt lat="42.182361" lon="1.186736">
        <ele>1218.408</ele>
        <time>2021-06-20T10:22:29Z</time>
      </trkpt>
      <trkpt lat="42.182286" lon="1.186420">
        <ele>1218.010</ele>
        <time>2021-06-20T10:22:34Z</time>
      </trkpt>
      <trkpt lat="42.182273" lon="1.186360">
        <ele>1218.059</ele>
        <time>2021-06-20T10:22:35Z</time>
      </trkpt>
      <trkpt lat="42.182217" lon="1.186090">
        <ele>1218.026</ele>
        <time>2021-06-20T10:22:40Z</time>
      </trkpt>
      <trkpt lat="42.182208" lon="1.186037">
        <ele>1218.088</ele>
        <time>2021-06-20T10:22:41Z</time>
      </trkpt>
      <trkpt lat="42.182189" lon="1.185931">
        <ele>1218.062</ele>
        <time>2021-06-20T10:22:43Z</time>
      </trkpt>
      <trkpt lat="42.182135" lon="1.185775">
        <ele>1218.073</ele>
        <time>2021-06-20T10:22:46Z</time>
      </trkpt>
      <trkpt lat="42.182054" lon="1.185625">
        <ele>1217.823</ele>
        <time>2021-06-20T10:22:49Z</time>
      </trkpt>
      <trkpt lat="42.181958" lon="1.185474">
        <ele>1217.691</ele>
        <time>2021-06-20T10:22:52Z</time>
      </trkpt>
      <trkpt lat="42.181887" lon="1.185399">
        <ele>1217.293</ele>
        <time>2021-06-20T10:22:54Z</time>
      </trkpt>
      <trkpt lat="42.181836" lon="1.185294">
        <ele>1216.465</ele>
        <time>2021-06-20T10:22:57Z</time>
      </trkpt>
      <trkpt lat="42.181900" lon="1.185262">
        <ele>1216.021</ele>
        <time>2021-06-20T10:23:00Z</time>
      </trkpt>
      <trkpt lat="42.181955" lon="1.185309">
        <ele>1215.608</ele>
        <time>2021-06-20T10:23:02Z</time>
      </trkpt>
      <trkpt lat="42.182046" lon="1.185407">
        <ele>1215.036</ele>
        <time>2021-06-20T10:23:05Z</time>
      </trkpt>
      <trkpt lat="42.182259" lon="1.185615">
        <ele>1214.085</ele>
        <time>2021-06-20T10:23:10Z</time>
      </trkpt>
      <trkpt lat="42.182475" lon="1.185845">
        <ele>1212.872</ele>
        <time>2021-06-20T10:23:14Z</time>
      </trkpt>
      <trkpt lat="42.182532" lon="1.185913">
        <ele>1212.414</ele>
        <time>2021-06-20T10:23:15Z</time>
      </trkpt>
      <trkpt lat="42.182647" lon="1.186052">
        <ele>1211.218</ele>
        <time>2021-06-20T10:23:17Z</time>
      </trkpt>
      <trkpt lat="42.182747" lon="1.186199">
        <ele>1210.099</ele>
        <time>2021-06-20T10:23:19Z</time>
      </trkpt>
      <trkpt lat="42.182793" lon="1.186271">
        <ele>1209.049</ele>
        <time>2021-06-20T10:23:20Z</time>
      </trkpt>
      <trkpt lat="42.182838" lon="1.186344">
        <ele>1207.877</ele>
        <time>2021-06-20T10:23:21Z</time>
      </trkpt>
      <trkpt lat="42.182885" lon="1.186414">
        <ele>1206.898</ele>
        <time>2021-06-20T10:23:22Z</time>
      </trkpt>
      <trkpt lat="42.182935" lon="1.186479">
        <ele>1205.815</ele>
        <time>2021-06-20T10:23:23Z</time>
      </trkpt>
      <trkpt lat="42.183044" lon="1.186572">
        <ele>1205.626</ele>
        <time>2021-06-20T10:23:25Z</time>
      </trkpt>
      <trkpt lat="42.183191" lon="1.186603">
        <ele>1205.408</ele>
        <time>2021-06-20T10:23:28Z</time>
      </trkpt>
      <trkpt lat="42.183329" lon="1.186485">
        <ele>1205.636</ele>
        <time>2021-06-20T10:23:32Z</time>
      </trkpt>
      <trkpt lat="42.183396" lon="1.186324">
        <ele>1207.045</ele>
        <time>2021-06-20T10:23:35Z</time>
      </trkpt>
      <trkpt lat="42.183441" lon="1.186204">
        <ele>1208.222</ele>
        <time>2021-06-20T10:23:37Z</time>
      </trkpt>
      <trkpt lat="42.183464" lon="1.186143">
        <ele>1208.434</ele>
        <time>2021-06-20T10:23:38Z</time>
      </trkpt>
      <trkpt lat="42.183546" lon="1.185807">
        <ele>1208.648</ele>
        <time>2021-06-20T10:23:43Z</time>
      </trkpt>
      <trkpt lat="42.183548" lon="1.185737">
        <ele>1208.669</ele>
        <time>2021-06-20T10:23:44Z</time>
      </trkpt>
      <trkpt lat="42.183500" lon="1.185499">
        <ele>1208.879</ele>
        <time>2021-06-20T10:23:48Z</time>
      </trkpt>
      <trkpt lat="42.183480" lon="1.185448">
        <ele>1208.867</ele>
        <time>2021-06-20T10:23:49Z</time>
      </trkpt>
      <trkpt lat="42.183387" lon="1.185248">
        <ele>1209.253</ele>
        <time>2021-06-20T10:23:53Z</time>
      </trkpt>
      <trkpt lat="42.183312" lon="1.185073">
        <ele>1210.004</ele>
        <time>2021-06-20T10:23:56Z</time>
      </trkpt>
      <trkpt lat="42.183297" lon="1.184833">
        <ele>1210.414</ele>
        <time>2021-06-20T10:23:59Z</time>
      </trkpt>
      <trkpt lat="42.183305" lon="1.184743">
        <ele>1210.408</ele>
        <time>2021-06-20T10:24:00Z</time>
      </trkpt>
      <trkpt lat="42.183370" lon="1.184344">
        <ele>1210.282</ele>
        <time>2021-06-20T10:24:04Z</time>
      </trkpt>
      <trkpt lat="42.183450" lon="1.183864">
        <ele>1208.441</ele>
        <time>2021-06-20T10:24:08Z</time>
      </trkpt>
      <trkpt lat="42.183459" lon="1.183733">
        <ele>1207.628</ele>
        <time>2021-06-20T10:24:09Z</time>
      </trkpt>
      <trkpt lat="42.183466" lon="1.183600">
        <ele>1207.220</ele>
        <time>2021-06-20T10:24:10Z</time>
      </trkpt>
      <trkpt lat="42.183469" lon="1.183332">
        <ele>1205.634</ele>
        <time>2021-06-20T10:24:12Z</time>
      </trkpt>
      <trkpt lat="42.183466" lon="1.183198">
        <ele>1204.665</ele>
        <time>2021-06-20T10:24:13Z</time>
      </trkpt>
      <trkpt lat="42.183460" lon="1.183063">
        <ele>1203.635</ele>
        <time>2021-06-20T10:24:14Z</time>
      </trkpt>
      <trkpt lat="42.183454" lon="1.182928">
        <ele>1202.623</ele>
        <time>2021-06-20T10:24:15Z</time>
      </trkpt>
      <trkpt lat="42.183445" lon="1.182664">
        <ele>1201.011</ele>
        <time>2021-06-20T10:24:17Z</time>
      </trkpt>
      <trkpt lat="42.183450" lon="1.182542">
        <ele>1200.221</ele>
        <time>2021-06-20T10:24:18Z</time>
      </trkpt>
      <trkpt lat="42.183474" lon="1.182433">
        <ele>1199.003</ele>
        <time>2021-06-20T10:24:19Z</time>
      </trkpt>
      <trkpt lat="42.183580" lon="1.182262">
        <ele>1198.008</ele>
        <time>2021-06-20T10:24:21Z</time>
      </trkpt>
      <trkpt lat="42.183652" lon="1.182196">
        <ele>1197.418</ele>
        <time>2021-06-20T10:24:22Z</time>
      </trkpt>
      <trkpt lat="42.183727" lon="1.182132">
        <ele>1197.037</ele>
        <time>2021-06-20T10:24:23Z</time>
      </trkpt>
      <trkpt lat="42.183869" lon="1.181983">
        <ele>1196.694</ele>
        <time>2021-06-20T10:24:25Z</time>
      </trkpt>
      <trkpt lat="42.183995" lon="1.181804">
        <ele>1196.216</ele>
        <time>2021-06-20T10:24:27Z</time>
      </trkpt>
      <trkpt lat="42.184136" lon="1.181485">
        <ele>1195.630</ele>
        <time>2021-06-20T10:24:30Z</time>
      </trkpt>
      <trkpt lat="42.184165" lon="1.181369">
        <ele>1195.251</ele>
        <time>2021-06-20T10:24:31Z</time>
      </trkpt>
      <trkpt lat="42.184164" lon="1.181125">
        <ele>1194.211</ele>
        <time>2021-06-20T10:24:33Z</time>
      </trkpt>
      <trkpt lat="42.184131" lon="1.181011">
        <ele>1193.849</ele>
        <time>2021-06-20T10:24:34Z</time>
      </trkpt>
      <trkpt lat="42.184019" lon="1.180817">
        <ele>1193.078</ele>
        <time>2021-06-20T10:24:36Z</time>
      </trkpt>
      <trkpt lat="42.183949" lon="1.180744">
        <ele>1192.833</ele>
        <time>2021-06-20T10:24:37Z</time>
      </trkpt>
      <trkpt lat="42.183723" lon="1.180661">
        <ele>1192.626</ele>
        <time>2021-06-20T10:24:40Z</time>
      </trkpt>
      <trkpt lat="42.183440" lon="1.180599">
        <ele>1192.408</ele>
        <time>2021-06-20T10:24:44Z</time>
      </trkpt>
      <trkpt lat="42.183314" lon="1.180530">
        <ele>1192.474</ele>
        <time>2021-06-20T10:24:46Z</time>
      </trkpt>
      <trkpt lat="42.183150" lon="1.180385">
        <ele>1193.693</ele>
        <time>2021-06-20T10:24:49Z</time>
      </trkpt>
      <trkpt lat="42.183051" lon="1.180285">
        <ele>1193.830</ele>
        <time>2021-06-20T10:24:51Z</time>
      </trkpt>
      <trkpt lat="42.183005" lon="1.180237">
        <ele>1194.072</ele>
        <time>2021-06-20T10:24:52Z</time>
      </trkpt>
      <trkpt lat="42.182827" lon="1.180017">
        <ele>1194.246</ele>
        <time>2021-06-20T10:24:57Z</time>
      </trkpt>
      <trkpt lat="42.182728" lon="1.179880">
        <ele>1195.077</ele>
        <time>2021-06-20T10:25:02Z</time>
      </trkpt>
      <trkpt lat="42.182720" lon="1.179850">
        <ele>1195.247</ele>
        <time>2021-06-20T10:25:03Z</time>
      </trkpt>
      <trkpt lat="42.182721" lon="1.179821">
        <ele>1195.425</ele>
        <time>2021-06-20T10:25:04Z</time>
      </trkpt>
      <trkpt lat="42.182751" lon="1.179797">
        <ele>1196.093</ele>
        <time>2021-06-20T10:25:06Z</time>
      </trkpt>
      <trkpt lat="42.182791" lon="1.179791">
        <ele>1196.465</ele>
        <time>2021-06-20T10:25:08Z</time>
      </trkpt>
      <trkpt lat="42.182886" lon="1.179790">
        <ele>1197.421</ele>
        <time>2021-06-20T10:25:13Z</time>
      </trkpt>
      <trkpt lat="42.182922" lon="1.179790">
        <ele>1198.008</ele>
        <time>2021-06-20T10:25:15Z</time>
      </trkpt>
      <trkpt lat="42.183011" lon="1.179789">
        <ele>1198.486</ele>
        <time>2021-06-20T10:25:20Z</time>
      </trkpt>
      <trkpt lat="42.183079" lon="1.179781">
        <ele>1199.625</ele>
        <time>2021-06-20T10:25:24Z</time>
      </trkpt>
      <trkpt lat="42.183183" lon="1.179758">
        <ele>1200.652</ele>
        <time>2021-06-20T10:25:30Z</time>
      </trkpt>
      <trkpt lat="42.183216" lon="1.179753">
        <ele>1200.844</ele>
        <time>2021-06-20T10:25:32Z</time>
      </trkpt>
      <trkpt lat="42.183287" lon="1.179732">
        <ele>1201.888</ele>
        <time>2021-06-20T10:25:37Z</time>
      </trkpt>
      <trkpt lat="42.183301" lon="1.179729">
        <ele>1202.039</ele>
        <time>2021-06-20T10:25:38Z</time>
      </trkpt>
      <trkpt lat="42.183325" lon="1.179726">
        <ele>1202.499</ele>
        <time>2021-06-20T10:25:40Z</time>
      </trkpt>
      <trkpt lat="42.183363" lon="1.179681">
        <ele>1203.057</ele>
        <time>2021-06-20T10:25:44Z</time>
      </trkpt>
      <trkpt lat="42.183399" lon="1.179632">
        <ele>1203.496</ele>
        <time>2021-06-20T10:25:48Z</time>
      </trkpt>
      <trkpt lat="42.183430" lon="1.179557">
        <ele>1204.231</ele>
        <time>2021-06-20T10:25:53Z</time>
      </trkpt>
      <trkpt lat="42.183444" lon="1.179490">
        <ele>1205.024</ele>
        <time>2021-06-20T10:25:57Z</time>
      </trkpt>
      <trkpt lat="42.183446" lon="1.179474">
        <ele>1205.408</ele>
        <time>2021-06-20T10:25:58Z</time>
      </trkpt>
      <trkpt lat="42.183428" lon="1.179339">
        <ele>1206.646</ele>
        <time>2021-06-20T10:26:06Z</time>
      </trkpt>
      <trkpt lat="42.183385" lon="1.179268">
        <ele>1207.885</ele>
        <time>2021-06-20T10:26:11Z</time>
      </trkpt>
      <trkpt lat="42.183339" lon="1.179225">
        <ele>1208.452</ele>
        <time>2021-06-20T10:26:15Z</time>
      </trkpt>
      <trkpt lat="42.183297" lon="1.179193">
        <ele>1208.894</ele>
        <time>2021-06-20T10:26:18Z</time>
      </trkpt>
      <trkpt lat="42.183240" lon="1.179170">
        <ele>1209.248</ele>
        <time>2021-06-20T10:26:22Z</time>
      </trkpt>
      <trkpt lat="42.183168" lon="1.179138">
        <ele>1210.079</ele>
        <time>2021-06-20T10:26:27Z</time>
      </trkpt>
      <trkpt lat="42.183140" lon="1.179121">
        <ele>1210.659</ele>
        <time>2021-06-20T10:26:29Z</time>
      </trkpt>
      <trkpt lat="42.183101" lon="1.179087">
        <ele>1211.227</ele>
        <time>2021-06-20T10:26:32Z</time>
      </trkpt>
      <trkpt lat="42.183051" lon="1.179006">
        <ele>1212.216</ele>
        <time>2021-06-20T10:26:37Z</time>
      </trkpt>
      <trkpt lat="42.183042" lon="1.178987">
        <ele>1212.276</ele>
        <time>2021-06-20T10:26:38Z</time>
      </trkpt>
      <trkpt lat="42.183004" lon="1.178874">
        <ele>1213.213</ele>
        <time>2021-06-20T10:26:44Z</time>
      </trkpt>
      <trkpt lat="42.182997" lon="1.178833">
        <ele>1213.408</ele>
        <time>2021-06-20T10:26:46Z</time>
      </trkpt>
      <trkpt lat="42.182991" lon="1.178712">
        <ele>1214.468</ele>
        <time>2021-06-20T10:26:52Z</time>
      </trkpt>
      <trkpt lat="42.183008" lon="1.178610">
        <ele>1215.287</ele>
        <time>2021-06-20T10:26:57Z</time>
      </trkpt>
      <trkpt lat="42.183014" lon="1.178568">
        <ele>1215.664</ele>
        <time>2021-06-20T10:26:59Z</time>
      </trkpt>
      <trkpt lat="42.183030" lon="1.178405">
        <ele>1216.826</ele>
        <time>2021-06-20T10:27:07Z</time>
      </trkpt>
      <trkpt lat="42.183034" lon="1.178236">
        <ele>1217.830</ele>
        <time>2021-06-20T10:27:16Z</time>
      </trkpt>
      <trkpt lat="42.183022" lon="1.178125">
        <ele>1218.871</ele>
        <time>2021-06-20T10:27:22Z</time>
      </trkpt>
      <trkpt lat="42.183022" lon="1.178107">
        <ele>1219.091</ele>
        <time>2021-06-20T10:27:23Z</time>
      </trkpt>
      <trkpt lat="42.183029" lon="1.178012">
        <ele>1220.059</ele>
        <time>2021-06-20T10:27:28Z</time>
      </trkpt>
      <trkpt lat="42.183024" lon="1.177933">
        <ele>1220.669</ele>
        <time>2021-06-20T10:27:32Z</time>
      </trkpt>
      <trkpt lat="42.183020" lon="1.177876">
        <ele>1221.204</ele>
        <time>2021-06-20T10:27:35Z</time>
      </trkpt>
      <trkpt lat="42.183014" lon="1.177779">
        <ele>1222.424</ele>
        <time>2021-06-20T10:27:40Z</time>
      </trkpt>
      <trkpt lat="42.183011" lon="1.177759">
        <ele>1222.408</ele>
        <time>2021-06-20T10:27:41Z</time>
      </trkpt>
      <trkpt lat="42.182991" lon="1.177661">
        <ele>1223.463</ele>
        <time>2021-06-20T10:27:46Z</time>
      </trkpt>
      <trkpt lat="42.182972" lon="1.177585">
        <ele>1224.222</ele>
        <time>2021-06-20T10:27:50Z</time>
      </trkpt>
      <trkpt lat="42.182958" lon="1.177547">
        <ele>1224.629</ele>
        <time>2021-06-20T10:27:52Z</time>
      </trkpt>
      <trkpt lat="42.182911" lon="1.177441">
        <ele>1225.871</ele>
        <time>2021-06-20T10:27:58Z</time>
      </trkpt>
      <trkpt lat="42.182892" lon="1.177409">
        <ele>1226.035</ele>
        <time>2021-06-20T10:28:00Z</time>
      </trkpt>
      <trkpt lat="42.182857" lon="1.177343">
        <ele>1226.856</ele>
        <time>2021-06-20T10:28:04Z</time>
      </trkpt>
      <trkpt lat="42.182806" lon="1.177261">
        <ele>1227.816</ele>
        <time>2021-06-20T10:28:09Z</time>
      </trkpt>
      <trkpt lat="42.182793" lon="1.177249">
        <ele>1227.864</ele>
        <time>2021-06-20T10:28:10Z</time>
      </trkpt>
      <trkpt lat="42.182748" lon="1.177235">
        <ele>1228.269</ele>
        <time>2021-06-20T10:28:13Z</time>
      </trkpt>
      <trkpt lat="42.182719" lon="1.177248">
        <ele>1228.404</ele>
        <time>2021-06-20T10:28:15Z</time>
      </trkpt>
      <trkpt lat="42.182650" lon="1.177304">
        <ele>1229.024</ele>
        <time>2021-06-20T10:28:20Z</time>
      </trkpt>
      <trkpt lat="42.182639" lon="1.177321">
        <ele>1229.208</ele>
        <time>2021-06-20T10:28:21Z</time>
      </trkpt>
      <trkpt lat="42.182538" lon="1.177438">
        <ele>1229.623</ele>
        <time>2021-06-20T10:28:28Z</time>
      </trkpt>
      <trkpt lat="42.182425" lon="1.177452">
        <ele>1229.632</ele>
        <time>2021-06-20T10:28:33Z</time>
      </trkpt>
      <trkpt lat="42.182265" lon="1.177341">
        <ele>1229.239</ele>
        <time>2021-06-20T10:28:40Z</time>
      </trkpt>
      <trkpt lat="42.182058" lon="1.177143">
        <ele>1229.031</ele>
        <time>2021-06-20T10:28:48Z</time>
      </trkpt>
      <trkpt lat="42.181896" lon="1.176898">
        <ele>1229.215</ele>
        <time>2021-06-20T10:28:56Z</time>
      </trkpt>
      <trkpt lat="42.181841" lon="1.176759">
        <ele>1229.836</ele>
        <time>2021-06-20T10:29:02Z</time>
      </trkpt>
      <trkpt lat="42.181821" lon="1.176691">
        <ele>1230.256</ele>
        <time>2021-06-20T10:29:05Z</time>
      </trkpt>
      <trkpt lat="42.181799" lon="1.176547">
        <ele>1231.464</ele>
        <time>2021-06-20T10:29:11Z</time>
      </trkpt>
      <trkpt lat="42.181796" lon="1.176522">
        <ele>1231.439</ele>
        <time>2021-06-20T10:29:12Z</time>
      </trkpt>
      <trkpt lat="42.181804" lon="1.176257">
        <ele>1232.601</ele>
        <time>2021-06-20T10:29:23Z</time>
      </trkpt>
      <trkpt lat="42.181889" lon="1.176107">
        <ele>1233.421</ele>
        <time>2021-06-20T10:29:31Z</time>
      </trkpt>
      <trkpt lat="42.181985" lon="1.176025">
        <ele>1233.608</ele>
        <time>2021-06-20T10:29:38Z</time>
      </trkpt>
      <trkpt lat="42.182000" lon="1.176015">
        <ele>1233.890</ele>
        <time>2021-06-20T10:29:39Z</time>
      </trkpt>
      <trkpt lat="42.182108" lon="1.175952">
        <ele>1235.049</ele>
        <time>2021-06-20T10:29:46Z</time>
      </trkpt>
      <trkpt lat="42.182153" lon="1.175926">
        <ele>1235.686</ele>
        <time>2021-06-20T10:29:49Z</time>
      </trkpt>
      <trkpt lat="42.182211" lon="1.175905">
        <ele>1236.218</ele>
        <time>2021-06-20T10:29:53Z</time>
      </trkpt>
      <trkpt lat="42.182272" lon="1.175893">
        <ele>1237.042</ele>
        <time>2021-06-20T10:29:57Z</time>
      </trkpt>
      <trkpt lat="42.182301" lon="1.175876">
        <ele>1237.483</ele>
        <time>2021-06-20T10:29:59Z</time>
      </trkpt>
      <trkpt lat="42.182381" lon="1.175817">
        <ele>1238.483</ele>
        <time>2021-06-20T10:30:05Z</time>
      </trkpt>
      <trkpt lat="42.182459" lon="1.175742">
        <ele>1239.461</ele>
        <time>2021-06-20T10:30:11Z</time>
      </trkpt>
      <trkpt lat="42.182473" lon="1.175730">
        <ele>1239.665</ele>
        <time>2021-06-20T10:30:12Z</time>
      </trkpt>
      <trkpt lat="42.182583" lon="1.175669">
        <ele>1240.868</ele>
        <time>2021-06-20T10:30:19Z</time>
      </trkpt>
      <trkpt lat="42.182617" lon="1.175656">
        <ele>1241.014</ele>
        <time>2021-06-20T10:30:21Z</time>
      </trkpt>
      <trkpt lat="42.182693" lon="1.175607">
        <ele>1241.808</ele>
        <time>2021-06-20T10:30:26Z</time>
      </trkpt>
      <trkpt lat="42.182738" lon="1.175551">
        <ele>1242.263</ele>
        <time>2021-06-20T10:30:30Z</time>
      </trkpt>
      <trkpt lat="42.182773" lon="1.175514">
        <ele>1243.012</ele>
        <time>2021-06-20T10:30:33Z</time>
      </trkpt>
      <trkpt lat="42.182829" lon="1.175464">
        <ele>1244.239</ele>
        <time>2021-06-20T10:30:37Z</time>
      </trkpt>
      <trkpt lat="42.182882" lon="1.175379">
        <ele>1245.291</ele>
        <time>2021-06-20T10:30:42Z</time>
      </trkpt>
      <trkpt lat="42.182906" lon="1.175299">
        <ele>1245.835</ele>
        <time>2021-06-20T10:30:46Z</time>
      </trkpt>
      <trkpt lat="42.182919" lon="1.175206">
        <ele>1246.446</ele>
        <time>2021-06-20T10:30:50Z</time>
      </trkpt>
      <trkpt lat="42.182917" lon="1.175136">
        <ele>1247.046</ele>
        <time>2021-06-20T10:30:53Z</time>
      </trkpt>
      <trkpt lat="42.182906" lon="1.175064">
        <ele>1247.494</ele>
        <time>2021-06-20T10:30:56Z</time>
      </trkpt>
      <trkpt lat="42.182872" lon="1.174948">
        <ele>1247.857</ele>
        <time>2021-06-20T10:31:01Z</time>
      </trkpt>
      <trkpt lat="42.182810" lon="1.174802">
        <ele>1248.400</ele>
        <time>2021-06-20T10:31:08Z</time>
      </trkpt>
      <trkpt lat="42.182801" lon="1.174781">
        <ele>1248.620</ele>
        <time>2021-06-20T10:31:09Z</time>
      </trkpt>
      <trkpt lat="42.182758" lon="1.174620">
        <ele>1249.408</ele>
        <time>2021-06-20T10:31:16Z</time>
      </trkpt>
      <trkpt lat="42.182749" lon="1.174598">
        <ele>1249.452</ele>
        <time>2021-06-20T10:31:17Z</time>
      </trkpt>
      <trkpt lat="42.182741" lon="1.174575">
        <ele>1249.661</ele>
        <time>2021-06-20T10:31:18Z</time>
      </trkpt>
      <trkpt lat="42.182694" lon="1.174414">
        <ele>1250.478</ele>
        <time>2021-06-20T10:31:25Z</time>
      </trkpt>
      <trkpt lat="42.182686" lon="1.174392">
        <ele>1250.660</ele>
        <time>2021-06-20T10:31:26Z</time>
      </trkpt>
      <trkpt lat="42.182593" lon="1.174171">
        <ele>1251.654</ele>
        <time>2021-06-20T10:31:36Z</time>
      </trkpt>
      <trkpt lat="42.182569" lon="1.174132">
        <ele>1251.615</ele>
        <time>2021-06-20T10:31:38Z</time>
      </trkpt>
      <trkpt lat="42.182466" lon="1.174032">
        <ele>1252.295</ele>
        <time>2021-06-20T10:31:45Z</time>
      </trkpt>
      <trkpt lat="42.182321" lon="1.173951">
        <ele>1253.083</ele>
        <time>2021-06-20T10:31:54Z</time>
      </trkpt>
      <trkpt lat="42.182274" lon="1.173933">
        <ele>1253.276</ele>
        <time>2021-06-20T10:31:57Z</time>
      </trkpt>
      <trkpt lat="42.182227" lon="1.173912">
        <ele>1254.090</ele>
        <time>2021-06-20T10:32:00Z</time>
      </trkpt>
      <trkpt lat="42.182165" lon="1.173881">
        <ele>1254.219</ele>
        <time>2021-06-20T10:32:04Z</time>
      </trkpt>
      <trkpt lat="42.181991" lon="1.173826">
        <ele>1255.008</ele>
        <time>2021-06-20T10:32:14Z</time>
      </trkpt>
      <trkpt lat="42.181975" lon="1.173821">
        <ele>1255.224</ele>
        <time>2021-06-20T10:32:15Z</time>
      </trkpt>
      <trkpt lat="42.181860" lon="1.173789">
        <ele>1256.053</ele>
        <time>2021-06-20T10:32:22Z</time>
      </trkpt>
      <trkpt lat="42.181824" lon="1.173794">
        <ele>1256.460</ele>
        <time>2021-06-20T10:32:24Z</time>
      </trkpt>
      <trkpt lat="42.181744" lon="1.173795">
        <ele>1257.012</ele>
        <time>2021-06-20T10:32:29Z</time>
      </trkpt>
      <trkpt lat="42.181712" lon="1.173788">
        <ele>1257.276</ele>
        <time>2021-06-20T10:32:31Z</time>
      </trkpt>
      <trkpt lat="42.181571" lon="1.173725">
        <ele>1258.017</ele>
        <time>2021-06-20T10:32:39Z</time>
      </trkpt>
      <trkpt lat="42.181554" lon="1.173712">
        <ele>1258.047</ele>
        <time>2021-06-20T10:32:40Z</time>
      </trkpt>
      <trkpt lat="42.181432" lon="1.173545">
        <ele>1258.625</ele>
        <time>2021-06-20T10:32:48Z</time>
      </trkpt>
      <trkpt lat="42.181399" lon="1.173346">
        <ele>1258.899</ele>
        <time>2021-06-20T10:32:55Z</time>
      </trkpt>
      <trkpt lat="42.181430" lon="1.173122">
        <ele>1259.007</ele>
        <time>2021-06-20T10:33:02Z</time>
      </trkpt>
      <trkpt lat="42.181489" lon="1.172890">
        <ele>1259.027</ele>
        <time>2021-06-20T10:33:10Z</time>
      </trkpt>
      <trkpt lat="42.181528" lon="1.172768">
        <ele>1259.408</ele>
        <time>2021-06-20T10:33:14Z</time>
      </trkpt>
      <trkpt lat="42.181570" lon="1.172577">
        <ele>1260.016</ele>
        <time>2021-06-20T10:33:20Z</time>
      </trkpt>
      <trkpt lat="42.181620" lon="1.172277">
        <ele>1259.855</ele>
        <time>2021-06-20T10:33:27Z</time>
      </trkpt>
      <trkpt lat="42.181633" lon="1.172218">
        <ele>1259.852</ele>
        <time>2021-06-20T10:33:28Z</time>
      </trkpt>
      <trkpt lat="42.181680" lon="1.172031">
        <ele>1259.664</ele>
        <time>2021-06-20T10:33:31Z</time>
      </trkpt>
      <trkpt lat="42.181617" lon="1.171823">
        <ele>1258.628</ele>
        <time>2021-06-20T10:33:34Z</time>
      </trkpt>
      <trkpt lat="42.181574" lon="1.171764">
        <ele>1258.419</ele>
        <time>2021-06-20T10:33:35Z</time>
      </trkpt>
      <trkpt lat="42.181471" lon="1.171661">
        <ele>1258.099</ele>
        <time>2021-06-20T10:33:37Z</time>
      </trkpt>
      <trkpt lat="42.181420" lon="1.171614">
        <ele>1257.857</ele>
        <time>2021-06-20T10:33:38Z</time>
      </trkpt>
      <trkpt lat="42.181369" lon="1.171563">
        <ele>1257.439</ele>
        <time>2021-06-20T10:33:39Z</time>
      </trkpt>
      <trkpt lat="42.181315" lon="1.171511">
        <ele>1257.001</ele>
        <time>2021-06-20T10:33:40Z</time>
      </trkpt>
      <trkpt lat="42.181192" lon="1.171435">
        <ele>1255.821</ele>
        <time>2021-06-20T10:33:42Z</time>
      </trkpt>
      <trkpt lat="42.181127" lon="1.171408">
        <ele>1254.008</ele>
        <time>2021-06-20T10:33:43Z</time>
      </trkpt>
      <trkpt lat="42.181000" lon="1.171366">
        <ele>1253.010</ele>
        <time>2021-06-20T10:33:45Z</time>
      </trkpt>
      <trkpt lat="42.180887" lon="1.171327">
        <ele>1251.689</ele>
        <time>2021-06-20T10:33:47Z</time>
      </trkpt>
      <trkpt lat="42.180841" lon="1.171296">
        <ele>1251.076</ele>
        <time>2021-06-20T10:33:48Z</time>
      </trkpt>
      <trkpt lat="42.180735" lon="1.171177">
        <ele>1250.438</ele>
        <time>2021-06-20T10:33:51Z</time>
      </trkpt>
      <trkpt lat="42.180715" lon="1.171135">
        <ele>1250.242</ele>
        <time>2021-06-20T10:33:52Z</time>
      </trkpt>
      <trkpt lat="42.180658" lon="1.171054">
        <ele>1250.073</ele>
        <time>2021-06-20T10:33:56Z</time>
      </trkpt>
      <trkpt lat="42.180665" lon="1.171101">
        <ele>1250.033</ele>
        <time>2021-06-20T10:33:59Z</time>
      </trkpt>
      <trkpt lat="42.180666" lon="1.171102">
        <ele>1250.031</ele>
        <time>2021-06-20T10:34:00Z</time>
      </trkpt>
      <trkpt lat="42.180665" lon="1.171148">
        <ele>1250.445</ele>
        <time>2021-06-20T10:34:12Z</time>
      </trkpt>
      <trkpt lat="42.180658" lon="1.171189">
        <ele>1250.447</ele>
        <time>2021-06-20T10:34:13Z</time>
      </trkpt>
      <trkpt lat="42.180586" lon="1.171281">
        <ele>1250.211</ele>
        <time>2021-06-20T10:34:16Z</time>
      </trkpt>
      <trkpt lat="42.180494" lon="1.171237">
        <ele>1249.808</ele>
        <time>2021-06-20T10:34:19Z</time>
      </trkpt>
      <trkpt lat="42.180467" lon="1.171200">
        <ele>1249.621</ele>
        <time>2021-06-20T10:34:20Z</time>
      </trkpt>
      <trkpt lat="42.180442" lon="1.171097">
        <ele>1248.480</ele>
        <time>2021-06-20T10:34:22Z</time>
      </trkpt>
      <trkpt lat="42.180446" lon="1.170979">
        <ele>1247.247</ele>
        <time>2021-06-20T10:34:24Z</time>
      </trkpt>
      <trkpt lat="42.180456" lon="1.170915">
        <ele>1246.279</ele>
        <time>2021-06-20T10:34:25Z</time>
      </trkpt>
      <trkpt lat="42.180469" lon="1.170848">
        <ele>1245.223</ele>
        <time>2021-06-20T10:34:26Z</time>
      </trkpt>
      <trkpt lat="42.180483" lon="1.170776">
        <ele>1244.494</ele>
        <time>2021-06-20T10:34:27Z</time>
      </trkpt>
      <trkpt lat="42.180492" lon="1.170705">
        <ele>1244.044</ele>
        <time>2021-06-20T10:34:28Z</time>
      </trkpt>
      <trkpt lat="42.180531" lon="1.170583">
        <ele>1243.092</ele>
        <time>2021-06-20T10:34:30Z</time>
      </trkpt>
      <trkpt lat="42.180565" lon="1.170527">
        <ele>1242.622</ele>
        <time>2021-06-20T10:34:31Z</time>
      </trkpt>
      <trkpt lat="42.180603" lon="1.170467">
        <ele>1242.062</ele>
        <time>2021-06-20T10:34:32Z</time>
      </trkpt>
      <trkpt lat="42.180639" lon="1.170393">
        <ele>1241.208</ele>
        <time>2021-06-20T10:34:33Z</time>
      </trkpt>
      <trkpt lat="42.180667" lon="1.170304">
        <ele>1240.408</ele>
        <time>2021-06-20T10:34:34Z</time>
      </trkpt>
      <trkpt lat="42.180690" lon="1.170210">
        <ele>1239.619</ele>
        <time>2021-06-20T10:34:35Z</time>
      </trkpt>
      <trkpt lat="42.180758" lon="1.169947">
        <ele>1238.658</ele>
        <time>2021-06-20T10:34:38Z</time>
      </trkpt>
      <trkpt lat="42.180778" lon="1.169869">
        <ele>1237.085</ele>
        <time>2021-06-20T10:34:39Z</time>
      </trkpt>
      <trkpt lat="42.180798" lon="1.169796">
        <ele>1235.837</ele>
        <time>2021-06-20T10:34:40Z</time>
      </trkpt>
      <trkpt lat="42.180811" lon="1.169724">
        <ele>1234.431</ele>
        <time>2021-06-20T10:34:41Z</time>
      </trkpt>
      <trkpt lat="42.180841" lon="1.169591">
        <ele>1233.272</ele>
        <time>2021-06-20T10:34:43Z</time>
      </trkpt>
      <trkpt lat="42.180831" lon="1.169333">
        <ele>1232.072</ele>
        <time>2021-06-20T10:34:47Z</time>
      </trkpt>
      <trkpt lat="42.180672" lon="1.169196">
        <ele>1231.620</ele>
        <time>2021-06-20T10:34:50Z</time>
      </trkpt>
      <trkpt lat="42.180613" lon="1.169157">
        <ele>1231.417</ele>
        <time>2021-06-20T10:34:51Z</time>
      </trkpt>
      <trkpt lat="42.180494" lon="1.169080">
        <ele>1231.087</ele>
        <time>2021-06-20T10:34:53Z</time>
      </trkpt>
      <trkpt lat="42.180371" lon="1.169022">
        <ele>1229.615</ele>
        <time>2021-06-20T10:34:55Z</time>
      </trkpt>
      <trkpt lat="42.180250" lon="1.168994">
        <ele>1228.608</ele>
        <time>2021-06-20T10:34:57Z</time>
      </trkpt>
      <trkpt lat="42.180057" lon="1.168874">
        <ele>1228.058</ele>
        <time>2021-06-20T10:35:01Z</time>
      </trkpt>
      <trkpt lat="42.180023" lon="1.168835">
        <ele>1228.087</ele>
        <time>2021-06-20T10:35:02Z</time>
      </trkpt>
      <trkpt lat="42.179959" lon="1.168742">
        <ele>1227.834</ele>
        <time>2021-06-20T10:35:04Z</time>
      </trkpt>
      <trkpt lat="42.179866" lon="1.168574">
        <ele>1227.466</ele>
        <time>2021-06-20T10:35:07Z</time>
      </trkpt>
      <trkpt lat="42.179715" lon="1.168218">
        <ele>1226.040</ele>
        <time>2021-06-20T10:35:12Z</time>
      </trkpt>
      <trkpt lat="42.179699" lon="1.168140">
        <ele>1225.451</ele>
        <time>2021-06-20T10:35:13Z</time>
      </trkpt>
      <trkpt lat="42.179671" lon="1.167987">
        <ele>1224.631</ele>
        <time>2021-06-20T10:35:15Z</time>
      </trkpt>
      <trkpt lat="42.179642" lon="1.167805">
        <ele>1223.229</ele>
        <time>2021-06-20T10:35:17Z</time>
      </trkpt>
      <trkpt lat="42.179626" lon="1.167698">
        <ele>1222.298</ele>
        <time>2021-06-20T10:35:18Z</time>
      </trkpt>
      <trkpt lat="42.179608" lon="1.167585">
        <ele>1221.415</ele>
        <time>2021-06-20T10:35:19Z</time>
      </trkpt>
      <trkpt lat="42.179598" lon="1.167472">
        <ele>1220.426</ele>
        <time>2021-06-20T10:35:20Z</time>
      </trkpt>
      <trkpt lat="42.179592" lon="1.167359">
        <ele>1219.808</ele>
        <time>2021-06-20T10:35:21Z</time>
      </trkpt>
      <trkpt lat="42.179587" lon="1.167259">
        <ele>1219.476</ele>
        <time>2021-06-20T10:35:22Z</time>
      </trkpt>
      <trkpt lat="42.179571" lon="1.167178">
        <ele>1218.825</ele>
        <time>2021-06-20T10:35:23Z</time>
      </trkpt>
      <trkpt lat="42.179537" lon="1.167113">
        <ele>1217.882</ele>
        <time>2021-06-20T10:35:24Z</time>
      </trkpt>
      <trkpt lat="42.179444" lon="1.167026">
        <ele>1216.864</ele>
        <time>2021-06-20T10:35:26Z</time>
      </trkpt>
      <trkpt lat="42.179402" lon="1.167002">
        <ele>1216.648</ele>
        <time>2021-06-20T10:35:27Z</time>
      </trkpt>
      <trkpt lat="42.179365" lon="1.166989">
        <ele>1216.669</ele>
        <time>2021-06-20T10:35:28Z</time>
      </trkpt>
      <trkpt lat="42.179258" lon="1.166993">
        <ele>1216.479</ele>
        <time>2021-06-20T10:35:31Z</time>
      </trkpt>
      <trkpt lat="42.179218" lon="1.167007">
        <ele>1216.467</ele>
        <time>2021-06-20T10:35:32Z</time>
      </trkpt>
      <trkpt lat="42.179059" lon="1.167108">
        <ele>1216.664</ele>
        <time>2021-06-20T10:35:36Z</time>
      </trkpt>
      <trkpt lat="42.178969" lon="1.167162">
        <ele>1216.606</ele>
        <time>2021-06-20T10:35:38Z</time>
      </trkpt>
      <trkpt lat="42.178872" lon="1.167175">
        <ele>1216.616</ele>
        <time>2021-06-20T10:35:40Z</time>
      </trkpt>
      <trkpt lat="42.178691" lon="1.167150">
        <ele>1216.608</ele>
        <time>2021-06-20T10:35:44Z</time>
      </trkpt>
      <trkpt lat="42.178649" lon="1.167128">
        <ele>1216.463</ele>
        <time>2021-06-20T10:35:45Z</time>
      </trkpt>
      <trkpt lat="42.178528" lon="1.167009">
        <ele>1216.052</ele>
        <time>2021-06-20T10:35:48Z</time>
      </trkpt>
      <trkpt lat="42.178490" lon="1.166951">
        <ele>1215.869</ele>
        <time>2021-06-20T10:35:49Z</time>
      </trkpt>
      <trkpt lat="42.178415" lon="1.166820">
        <ele>1215.671</ele>
        <time>2021-06-20T10:35:51Z</time>
      </trkpt>
      <trkpt lat="42.178287" lon="1.166611">
        <ele>1214.275</ele>
        <time>2021-06-20T10:35:54Z</time>
      </trkpt>
      <trkpt lat="42.178189" lon="1.166464">
        <ele>1212.876</ele>
        <time>2021-06-20T10:35:56Z</time>
      </trkpt>
      <trkpt lat="42.178073" lon="1.166344">
        <ele>1211.246</ele>
        <time>2021-06-20T10:35:58Z</time>
      </trkpt>
      <trkpt lat="42.178013" lon="1.166295">
        <ele>1210.854</ele>
        <time>2021-06-20T10:35:59Z</time>
      </trkpt>
      <trkpt lat="42.177889" lon="1.166215">
        <ele>1209.828</ele>
        <time>2021-06-20T10:36:01Z</time>
      </trkpt>
      <trkpt lat="42.177829" lon="1.166177">
        <ele>1208.489</ele>
        <time>2021-06-20T10:36:02Z</time>
      </trkpt>
      <trkpt lat="42.177711" lon="1.166106">
        <ele>1207.017</ele>
        <time>2021-06-20T10:36:04Z</time>
      </trkpt>
      <trkpt lat="42.177653" lon="1.166073">
        <ele>1206.608</ele>
        <time>2021-06-20T10:36:05Z</time>
      </trkpt>
      <trkpt lat="42.177559" lon="1.166000">
        <ele>1206.279</ele>
        <time>2021-06-20T10:36:07Z</time>
      </trkpt>
      <trkpt lat="42.177494" lon="1.165915">
        <ele>1206.098</ele>
        <time>2021-06-20T10:36:09Z</time>
      </trkpt>
      <trkpt lat="42.177394" lon="1.165767">
        <ele>1205.635</ele>
        <time>2021-06-20T10:36:12Z</time>
      </trkpt>
      <trkpt lat="42.177329" lon="1.165637">
        <ele>1205.287</ele>
        <time>2021-06-20T10:36:14Z</time>
      </trkpt>
      <trkpt lat="42.177288" lon="1.165438">
        <ele>1204.891</ele>
        <time>2021-06-20T10:36:17Z</time>
      </trkpt>
      <trkpt lat="42.177315" lon="1.165338">
        <ele>1203.632</ele>
        <time>2021-06-20T10:36:19Z</time>
      </trkpt>
      <trkpt lat="42.177346" lon="1.165291">
        <ele>1203.272</ele>
        <time>2021-06-20T10:36:20Z</time>
      </trkpt>
      <trkpt lat="42.177376" lon="1.165239">
        <ele>1202.490</ele>
        <time>2021-06-20T10:36:21Z</time>
      </trkpt>
      <trkpt lat="42.177417" lon="1.165125">
        <ele>1200.857</ele>
        <time>2021-06-20T10:36:23Z</time>
      </trkpt>
      <trkpt lat="42.177434" lon="1.165071">
        <ele>1200.400</ele>
        <time>2021-06-20T10:36:24Z</time>
      </trkpt>
      <trkpt lat="42.177460" lon="1.165021">
        <ele>1200.220</ele>
        <time>2021-06-20T10:36:25Z</time>
      </trkpt>
      <trkpt lat="42.177541" lon="1.164940">
        <ele>1199.808</ele>
        <time>2021-06-20T10:36:27Z</time>
      </trkpt>
      <trkpt lat="42.177758" lon="1.164795">
        <ele>1198.422</ele>
        <time>2021-06-20T10:36:31Z</time>
      </trkpt>
      <trkpt lat="42.177875" lon="1.164719">
        <ele>1197.411</ele>
        <time>2021-06-20T10:36:33Z</time>
      </trkpt>
      <trkpt lat="42.178029" lon="1.164624">
        <ele>1196.218</ele>
        <time>2021-06-20T10:36:36Z</time>
      </trkpt>
      <trkpt lat="42.178058" lon="1.164588">
        <ele>1195.830</ele>
        <time>2021-06-20T10:36:37Z</time>
      </trkpt>
      <trkpt lat="42.178043" lon="1.164444">
        <ele>1195.054</ele>
        <time>2021-06-20T10:36:40Z</time>
      </trkpt>
      <trkpt lat="42.177910" lon="1.164224">
        <ele>1194.035</ele>
        <time>2021-06-20T10:36:44Z</time>
      </trkpt>
      <trkpt lat="42.177874" lon="1.164161">
        <ele>1193.875</ele>
        <time>2021-06-20T10:36:45Z</time>
      </trkpt>
      <trkpt lat="42.177739" lon="1.163879">
        <ele>1193.263</ele>
        <time>2021-06-20T10:36:49Z</time>
      </trkpt>
      <trkpt lat="42.177696" lon="1.163713">
        <ele>1192.429</ele>
        <time>2021-06-20T10:36:51Z</time>
      </trkpt>
      <trkpt lat="42.177665" lon="1.163537">
        <ele>1190.800</ele>
        <time>2021-06-20T10:36:53Z</time>
      </trkpt>
      <trkpt lat="42.177663" lon="1.163451">
        <ele>1190.220</ele>
        <time>2021-06-20T10:36:54Z</time>
      </trkpt>
      <trkpt lat="42.177672" lon="1.163370">
        <ele>1189.608</ele>
        <time>2021-06-20T10:36:55Z</time>
      </trkpt>
      <trkpt lat="42.177715" lon="1.163219">
        <ele>1188.259</ele>
        <time>2021-06-20T10:36:57Z</time>
      </trkpt>
      <trkpt lat="42.177737" lon="1.163154">
        <ele>1187.698</ele>
        <time>2021-06-20T10:36:58Z</time>
      </trkpt>
      <trkpt lat="42.177746" lon="1.163089">
        <ele>1187.025</ele>
        <time>2021-06-20T10:36:59Z</time>
      </trkpt>
      <trkpt lat="42.177701" lon="1.162979">
        <ele>1185.687</ele>
        <time>2021-06-20T10:37:01Z</time>
      </trkpt>
      <trkpt lat="42.177529" lon="1.162951">
        <ele>1184.631</ele>
        <time>2021-06-20T10:37:04Z</time>
      </trkpt>
      <trkpt lat="42.177458" lon="1.162944">
        <ele>1184.232</ele>
        <time>2021-06-20T10:37:05Z</time>
      </trkpt>
      <trkpt lat="42.177314" lon="1.162889">
        <ele>1183.842</ele>
        <time>2021-06-20T10:37:07Z</time>
      </trkpt>
      <trkpt lat="42.177206" lon="1.162789">
        <ele>1183.020</ele>
        <time>2021-06-20T10:37:09Z</time>
      </trkpt>
      <trkpt lat="42.177173" lon="1.162730">
        <ele>1183.092</ele>
        <time>2021-06-20T10:37:10Z</time>
      </trkpt>
      <trkpt lat="42.177132" lon="1.162613">
        <ele>1182.073</ele>
        <time>2021-06-20T10:37:12Z</time>
      </trkpt>
      <trkpt lat="42.177115" lon="1.162551">
        <ele>1181.820</ele>
        <time>2021-06-20T10:37:13Z</time>
      </trkpt>
      <trkpt lat="42.177088" lon="1.162495">
        <ele>1181.408</ele>
        <time>2021-06-20T10:37:14Z</time>
      </trkpt>
      <trkpt lat="42.176961" lon="1.162447">
        <ele>1181.226</ele>
        <time>2021-06-20T10:37:17Z</time>
      </trkpt>
      <trkpt lat="42.176855" lon="1.162457">
        <ele>1181.275</ele>
        <time>2021-06-20T10:37:21Z</time>
      </trkpt>
      <trkpt lat="42.176749" lon="1.162462">
        <ele>1183.042</ele>
        <time>2021-06-20T10:37:28Z</time>
      </trkpt>
      <trkpt lat="42.176736" lon="1.162465">
        <ele>1183.244</ele>
        <time>2021-06-20T10:37:29Z</time>
      </trkpt>
      <trkpt lat="42.176650" lon="1.162450">
        <ele>1184.468</ele>
        <time>2021-06-20T10:37:36Z</time>
      </trkpt>
      <trkpt lat="42.176627" lon="1.162436">
        <ele>1184.869</ele>
        <time>2021-06-20T10:37:38Z</time>
      </trkpt>
      <trkpt lat="42.176588" lon="1.162394">
        <ele>1185.689</ele>
        <time>2021-06-20T10:37:42Z</time>
      </trkpt>
      <trkpt lat="42.176544" lon="1.162327">
        <ele>1186.847</ele>
        <time>2021-06-20T10:37:47Z</time>
      </trkpt>
      <trkpt lat="42.176521" lon="1.162276">
        <ele>1187.443</ele>
        <time>2021-06-20T10:37:50Z</time>
      </trkpt>
      <trkpt lat="42.176502" lon="1.162242">
        <ele>1187.864</ele>
        <time>2021-06-20T10:37:52Z</time>
      </trkpt>
      <trkpt lat="42.176475" lon="1.162126">
        <ele>1189.010</ele>
        <time>2021-06-20T10:37:57Z</time>
      </trkpt>
      <trkpt lat="42.176473" lon="1.161995">
        <ele>1189.608</ele>
        <time>2021-06-20T10:38:02Z</time>
      </trkpt>
      <trkpt lat="42.176491" lon="1.161926">
        <ele>1190.061</ele>
        <time>2021-06-20T10:38:05Z</time>
      </trkpt>
      <trkpt lat="42.176513" lon="1.161897">
        <ele>1190.070</ele>
        <time>2021-06-20T10:38:07Z</time>
      </trkpt>
      <trkpt lat="42.176556" lon="1.161880">
        <ele>1190.217</ele>
        <time>2021-06-20T10:38:10Z</time>
      </trkpt>
      <trkpt lat="42.176664" lon="1.161918">
        <ele>1191.029</ele>
        <time>2021-06-20T10:38:17Z</time>
      </trkpt>
      <trkpt lat="42.176696" lon="1.161923">
        <ele>1191.413</ele>
        <time>2021-06-20T10:38:19Z</time>
      </trkpt>
      <trkpt lat="42.176762" lon="1.161927">
        <ele>1192.624</ele>
        <time>2021-06-20T10:38:23Z</time>
      </trkpt>
      <trkpt lat="42.176812" lon="1.161925">
        <ele>1193.454</ele>
        <time>2021-06-20T10:38:26Z</time>
      </trkpt>
      <trkpt lat="42.176844" lon="1.161919">
        <ele>1193.662</ele>
        <time>2021-06-20T10:38:28Z</time>
      </trkpt>
      <trkpt lat="42.176937" lon="1.161891">
        <ele>1194.449</ele>
        <time>2021-06-20T10:38:34Z</time>
      </trkpt>
      <trkpt lat="42.176953" lon="1.161888">
        <ele>1194.602</ele>
        <time>2021-06-20T10:38:35Z</time>
      </trkpt>
      <trkpt lat="42.177062" lon="1.161858">
        <ele>1195.822</ele>
        <time>2021-06-20T10:38:42Z</time>
      </trkpt>
      <trkpt lat="42.177078" lon="1.161853">
        <ele>1196.008</ele>
        <time>2021-06-20T10:38:43Z</time>
      </trkpt>
      <trkpt lat="42.177204" lon="1.161838">
        <ele>1196.871</ele>
        <time>2021-06-20T10:38:51Z</time>
      </trkpt>
      <trkpt lat="42.177235" lon="1.161835">
        <ele>1197.690</ele>
        <time>2021-06-20T10:38:53Z</time>
      </trkpt>
      <trkpt lat="42.177296" lon="1.161819">
        <ele>1198.297</ele>
        <time>2021-06-20T10:38:57Z</time>
      </trkpt>
      <trkpt lat="42.177325" lon="1.161813">
        <ele>1198.499</ele>
        <time>2021-06-20T10:38:59Z</time>
      </trkpt>
      <trkpt lat="42.177352" lon="1.161792">
        <ele>1198.683</ele>
        <time>2021-06-20T10:39:01Z</time>
      </trkpt>
      <trkpt lat="42.177395" lon="1.161770">
        <ele>1199.074</ele>
        <time>2021-06-20T10:39:04Z</time>
      </trkpt>
      <trkpt lat="42.177425" lon="1.161758">
        <ele>1199.234</ele>
        <time>2021-06-20T10:39:06Z</time>
      </trkpt>
      <trkpt lat="42.177499" lon="1.161720">
        <ele>1200.092</ele>
        <time>2021-06-20T10:39:11Z</time>
      </trkpt>
      <trkpt lat="42.177528" lon="1.161705">
        <ele>1200.252</ele>
        <time>2021-06-20T10:39:13Z</time>
      </trkpt>
      <trkpt lat="42.177608" lon="1.161641">
        <ele>1201.453</ele>
        <time>2021-06-20T10:39:19Z</time>
      </trkpt>
      <trkpt lat="42.177697" lon="1.161599">
        <ele>1202.608</ele>
        <time>2021-06-20T10:39:25Z</time>
      </trkpt>
      <trkpt lat="42.177725" lon="1.161585">
        <ele>1202.808</ele>
        <time>2021-06-20T10:39:27Z</time>
      </trkpt>
      <trkpt lat="42.177775" lon="1.161540">
        <ele>1203.082</ele>
        <time>2021-06-20T10:39:31Z</time>
      </trkpt>
      <trkpt lat="42.177851" lon="1.161505">
        <ele>1203.611</ele>
        <time>2021-06-20T10:39:36Z</time>
      </trkpt>
      <trkpt lat="42.177896" lon="1.161486">
        <ele>1204.288</ele>
        <time>2021-06-20T10:39:39Z</time>
      </trkpt>
      <trkpt lat="42.177943" lon="1.161469">
        <ele>1204.670</ele>
        <time>2021-06-20T10:39:42Z</time>
      </trkpt>
      <trkpt lat="42.178051" lon="1.161424">
        <ele>1205.234</ele>
        <time>2021-06-20T10:39:49Z</time>
      </trkpt>
      <trkpt lat="42.178099" lon="1.161408">
        <ele>1205.655</ele>
        <time>2021-06-20T10:39:52Z</time>
      </trkpt>
      <trkpt lat="42.178166" lon="1.161399">
        <ele>1206.655</ele>
        <time>2021-06-20T10:39:56Z</time>
      </trkpt>
      <trkpt lat="42.178234" lon="1.161403">
        <ele>1207.023</ele>
        <time>2021-06-20T10:40:00Z</time>
      </trkpt>
      <trkpt lat="42.178354" lon="1.161488">
        <ele>1207.849</ele>
        <time>2021-06-20T10:40:08Z</time>
      </trkpt>
      <trkpt lat="42.178366" lon="1.161502">
        <ele>1208.002</ele>
        <time>2021-06-20T10:40:09Z</time>
      </trkpt>
      <trkpt lat="42.178421" lon="1.161554">
        <ele>1208.822</ele>
        <time>2021-06-20T10:40:13Z</time>
      </trkpt>
      <trkpt lat="42.178481" lon="1.161575">
        <ele>1209.008</ele>
        <time>2021-06-20T10:40:17Z</time>
      </trkpt>
      <trkpt lat="42.178525" lon="1.161549">
        <ele>1209.891</ele>
        <time>2021-06-20T10:40:20Z</time>
      </trkpt>
      <trkpt lat="42.178558" lon="1.161502">
        <ele>1210.690</ele>
        <time>2021-06-20T10:40:23Z</time>
      </trkpt>
      <trkpt lat="42.178569" lon="1.161460">
        <ele>1210.887</ele>
        <time>2021-06-20T10:40:25Z</time>
      </trkpt>
      <trkpt lat="42.178575" lon="1.161397">
        <ele>1211.489</ele>
        <time>2021-06-20T10:40:28Z</time>
      </trkpt>
      <trkpt lat="42.178548" lon="1.161369">
        <ele>1212.073</ele>
        <time>2021-06-20T10:40:30Z</time>
      </trkpt>
      <trkpt lat="42.178440" lon="1.161274">
        <ele>1213.054</ele>
        <time>2021-06-20T10:40:37Z</time>
      </trkpt>
      <trkpt lat="42.178406" lon="1.161248">
        <ele>1213.494</ele>
        <time>2021-06-20T10:40:39Z</time>
      </trkpt>
      <trkpt lat="42.178338" lon="1.161202">
        <ele>1214.042</ele>
        <time>2021-06-20T10:40:43Z</time>
      </trkpt>
      <trkpt lat="42.178253" lon="1.161142">
        <ele>1215.222</ele>
        <time>2021-06-20T10:40:48Z</time>
      </trkpt>
      <trkpt lat="42.178202" lon="1.161107">
        <ele>1215.662</ele>
        <time>2021-06-20T10:40:51Z</time>
      </trkpt>
      <trkpt lat="42.178135" lon="1.161061">
        <ele>1216.408</ele>
        <time>2021-06-20T10:40:55Z</time>
      </trkpt>
      <trkpt lat="42.178049" lon="1.161027">
        <ele>1217.008</ele>
        <time>2021-06-20T10:41:00Z</time>
      </trkpt>
      <trkpt lat="42.177998" lon="1.161007">
        <ele>1217.449</ele>
        <time>2021-06-20T10:41:03Z</time>
      </trkpt>
      <trkpt lat="42.177922" lon="1.160939">
        <ele>1218.288</ele>
        <time>2021-06-20T10:41:08Z</time>
      </trkpt>
      <trkpt lat="42.177892" lon="1.160873">
        <ele>1218.675</ele>
        <time>2021-06-20T10:41:11Z</time>
      </trkpt>
      <trkpt lat="42.177882" lon="1.160823">
        <ele>1218.847</ele>
        <time>2021-06-20T10:41:13Z</time>
      </trkpt>
      <trkpt lat="42.177876" lon="1.160775">
        <ele>1219.471</ele>
        <time>2021-06-20T10:41:15Z</time>
      </trkpt>
      <trkpt lat="42.177877" lon="1.160750">
        <ele>1219.692</ele>
        <time>2021-06-20T10:41:16Z</time>
      </trkpt>
      <trkpt lat="42.177919" lon="1.160617">
        <ele>1220.652</ele>
        <time>2021-06-20T10:41:22Z</time>
      </trkpt>
      <trkpt lat="42.177998" lon="1.160459">
        <ele>1221.820</ele>
        <time>2021-06-20T10:41:30Z</time>
      </trkpt>
      <trkpt lat="42.178007" lon="1.160438">
        <ele>1222.086</ele>
        <time>2021-06-20T10:41:31Z</time>
      </trkpt>
      <trkpt lat="42.178046" lon="1.160358">
        <ele>1222.860</ele>
        <time>2021-06-20T10:41:35Z</time>
      </trkpt>
      <trkpt lat="42.178073" lon="1.160245">
        <ele>1223.826</ele>
        <time>2021-06-20T10:41:40Z</time>
      </trkpt>
      <trkpt lat="42.178077" lon="1.160222">
        <ele>1224.008</ele>
        <time>2021-06-20T10:41:41Z</time>
      </trkpt>
      <trkpt lat="42.178092" lon="1.160130">
        <ele>1225.265</ele>
        <time>2021-06-20T10:41:45Z</time>
      </trkpt>
      <trkpt lat="42.178108" lon="1.160038">
        <ele>1225.844</ele>
        <time>2021-06-20T10:41:49Z</time>
      </trkpt>
      <trkpt lat="42.178117" lon="1.159992">
        <ele>1226.881</ele>
        <time>2021-06-20T10:41:51Z</time>
      </trkpt>
      <trkpt lat="42.178131" lon="1.159925">
        <ele>1227.813</ele>
        <time>2021-06-20T10:41:54Z</time>
      </trkpt>
      <trkpt lat="42.178168" lon="1.159849">
        <ele>1228.477</ele>
        <time>2021-06-20T10:41:58Z</time>
      </trkpt>
      <trkpt lat="42.178225" lon="1.159765">
        <ele>1229.058</ele>
        <time>2021-06-20T10:42:03Z</time>
      </trkpt>
      <trkpt lat="42.178253" lon="1.159739">
        <ele>1229.498</ele>
        <time>2021-06-20T10:42:05Z</time>
      </trkpt>
      <trkpt lat="42.178283" lon="1.159718">
        <ele>1230.416</ele>
        <time>2021-06-20T10:42:07Z</time>
      </trkpt>
      <trkpt lat="42.178349" lon="1.159695">
        <ele>1231.624</ele>
        <time>2021-06-20T10:42:11Z</time>
      </trkpt>
      <trkpt lat="42.178382" lon="1.159683">
        <ele>1232.804</ele>
        <time>2021-06-20T10:42:13Z</time>
      </trkpt>
      <trkpt lat="42.178506" lon="1.159624">
        <ele>1233.214</ele>
        <time>2021-06-20T10:42:21Z</time>
      </trkpt>
      <trkpt lat="42.178608" lon="1.159605">
        <ele>1234.208</ele>
        <time>2021-06-20T10:42:27Z</time>
      </trkpt>
      <trkpt lat="42.178626" lon="1.159605">
        <ele>1234.679</ele>
        <time>2021-06-20T10:42:28Z</time>
      </trkpt>
      <trkpt lat="42.178694" lon="1.159616">
        <ele>1235.228</ele>
        <time>2021-06-20T10:42:32Z</time>
      </trkpt>
      <trkpt lat="42.178762" lon="1.159635">
        <ele>1236.475</ele>
        <time>2021-06-20T10:42:36Z</time>
      </trkpt>
      <trkpt lat="42.178814" lon="1.159658">
        <ele>1236.897</ele>
        <time>2021-06-20T10:42:39Z</time>
      </trkpt>
      <trkpt lat="42.178868" lon="1.159679">
        <ele>1237.651</ele>
        <time>2021-06-20T10:42:42Z</time>
      </trkpt>
      <trkpt lat="42.178950" lon="1.159736">
        <ele>1238.262</ele>
        <time>2021-06-20T10:42:47Z</time>
      </trkpt>
      <trkpt lat="42.178998" lon="1.159777">
        <ele>1238.662</ele>
        <time>2021-06-20T10:42:50Z</time>
      </trkpt>
      <trkpt lat="42.179068" lon="1.159824">
        <ele>1240.010</ele>
        <time>2021-06-20T10:42:54Z</time>
      </trkpt>
      <trkpt lat="42.179125" lon="1.159830">
        <ele>1240.423</ele>
        <time>2021-06-20T10:42:57Z</time>
      </trkpt>
      <trkpt lat="42.179180" lon="1.159813">
        <ele>1241.083</ele>
        <time>2021-06-20T10:43:00Z</time>
      </trkpt>
      <trkpt lat="42.179277" lon="1.159763">
        <ele>1241.811</ele>
        <time>2021-06-20T10:43:06Z</time>
      </trkpt>
      <trkpt lat="42.179295" lon="1.159758">
        <ele>1241.808</ele>
        <time>2021-06-20T10:43:07Z</time>
      </trkpt>
      <trkpt lat="42.179363" lon="1.159746">
        <ele>1242.029</ele>
        <time>2021-06-20T10:43:11Z</time>
      </trkpt>
      <trkpt lat="42.179380" lon="1.159748">
        <ele>1242.268</ele>
        <time>2021-06-20T10:43:12Z</time>
      </trkpt>
      <trkpt lat="42.179470" lon="1.159764">
        <ele>1243.045</ele>
        <time>2021-06-20T10:43:17Z</time>
      </trkpt>
      <trkpt lat="42.179490" lon="1.159771">
        <ele>1243.217</ele>
        <time>2021-06-20T10:43:18Z</time>
      </trkpt>
      <trkpt lat="42.179509" lon="1.159780">
        <ele>1243.231</ele>
        <time>2021-06-20T10:43:19Z</time>
      </trkpt>
      <trkpt lat="42.179613" lon="1.159861">
        <ele>1244.452</ele>
        <time>2021-06-20T10:43:25Z</time>
      </trkpt>
      <trkpt lat="42.179629" lon="1.159878">
        <ele>1244.892</ele>
        <time>2021-06-20T10:43:26Z</time>
      </trkpt>
      <trkpt lat="42.179680" lon="1.159936">
        <ele>1245.610</ele>
        <time>2021-06-20T10:43:29Z</time>
      </trkpt>
      <trkpt lat="42.179766" lon="1.159989">
        <ele>1246.474</ele>
        <time>2021-06-20T10:43:33Z</time>
      </trkpt>
      <trkpt lat="42.179833" lon="1.159983">
        <ele>1246.856</ele>
        <time>2021-06-20T10:43:36Z</time>
      </trkpt>
      <trkpt lat="42.179939" lon="1.159925">
        <ele>1246.821</ele>
        <time>2021-06-20T10:43:41Z</time>
      </trkpt>
      <trkpt lat="42.180083" lon="1.159792">
        <ele>1246.608</ele>
        <time>2021-06-20T10:43:49Z</time>
      </trkpt>
      <trkpt lat="42.180246" lon="1.159625">
        <ele>1246.674</ele>
        <time>2021-06-20T10:43:58Z</time>
      </trkpt>
      <trkpt lat="42.180388" lon="1.159490">
        <ele>1247.643</ele>
        <time>2021-06-20T10:44:06Z</time>
      </trkpt>
      <trkpt lat="42.180538" lon="1.159376">
        <ele>1246.440</ele>
        <time>2021-06-20T10:44:14Z</time>
      </trkpt>
      <trkpt lat="42.180700" lon="1.159236">
        <ele>1246.462</ele>
        <time>2021-06-20T10:44:22Z</time>
      </trkpt>
      <trkpt lat="42.180846" lon="1.159043">
        <ele>1247.246</ele>
        <time>2021-06-20T10:44:30Z</time>
      </trkpt>
      <trkpt lat="42.180980" lon="1.158881">
        <ele>1247.687</ele>
        <time>2021-06-20T10:44:35Z</time>
      </trkpt>
      <trkpt lat="42.181054" lon="1.158655">
        <ele>1247.647</ele>
        <time>2021-06-20T10:44:39Z</time>
      </trkpt>
      <trkpt lat="42.181064" lon="1.158594">
        <ele>1247.885</ele>
        <time>2021-06-20T10:44:40Z</time>
      </trkpt>
      <trkpt lat="42.181185" lon="1.158189">
        <ele>1248.438</ele>
        <time>2021-06-20T10:44:47Z</time>
      </trkpt>
      <trkpt lat="42.181417" lon="1.157754">
        <ele>1248.870</ele>
        <time>2021-06-20T10:44:54Z</time>
      </trkpt>
      <trkpt lat="42.181688" lon="1.157206">
        <ele>1249.217</ele>
        <time>2021-06-20T10:45:02Z</time>
      </trkpt>
      <trkpt lat="42.181826" lon="1.156953">
        <ele>1249.208</ele>
        <time>2021-06-20T10:45:07Z</time>
      </trkpt>
      <trkpt lat="42.181889" lon="1.156864">
        <ele>1249.280</ele>
        <time>2021-06-20T10:45:09Z</time>
      </trkpt>
      <trkpt lat="42.181940" lon="1.156693">
        <ele>1249.429</ele>
        <time>2021-06-20T10:45:12Z</time>
      </trkpt>
      <trkpt lat="42.181948" lon="1.156629">
        <ele>1249.676</ele>
        <time>2021-06-20T10:45:13Z</time>
      </trkpt>
      <trkpt lat="42.181951" lon="1.156567">
        <ele>1249.668</ele>
        <time>2021-06-20T10:45:14Z</time>
      </trkpt>
      <trkpt lat="42.181950" lon="1.156290">
        <ele>1250.092</ele>
        <time>2021-06-20T10:45:19Z</time>
      </trkpt>
      <trkpt lat="42.181931" lon="1.156017">
        <ele>1250.653</ele>
        <time>2021-06-20T10:45:26Z</time>
      </trkpt>
      <trkpt lat="42.181928" lon="1.155988">
        <ele>1250.633</ele>
        <time>2021-06-20T10:45:27Z</time>
      </trkpt>
      <trkpt lat="42.181954" lon="1.155860">
        <ele>1251.031</ele>
        <time>2021-06-20T10:45:32Z</time>
      </trkpt>
      <trkpt lat="42.182041" lon="1.155747">
        <ele>1251.637</ele>
        <time>2021-06-20T10:45:38Z</time>
      </trkpt>
      <trkpt lat="42.182058" lon="1.155731">
        <ele>1251.849</ele>
        <time>2021-06-20T10:45:39Z</time>
      </trkpt>
      <trkpt lat="42.182188" lon="1.155643">
        <ele>1252.413</ele>
        <time>2021-06-20T10:45:46Z</time>
      </trkpt>
      <trkpt lat="42.182293" lon="1.155572">
        <ele>1252.808</ele>
        <time>2021-06-20T10:45:52Z</time>
      </trkpt>
      <trkpt lat="42.182328" lon="1.155546">
        <ele>1253.250</ele>
        <time>2021-06-20T10:45:54Z</time>
      </trkpt>
      <trkpt lat="42.182397" lon="1.155474">
        <ele>1253.489</ele>
        <time>2021-06-20T10:45:58Z</time>
      </trkpt>
      <trkpt lat="42.182417" lon="1.155418">
        <ele>1253.676</ele>
        <time>2021-06-20T10:46:00Z</time>
      </trkpt>
      <trkpt lat="42.182358" lon="1.155261">
        <ele>1254.088</ele>
        <time>2021-06-20T10:46:04Z</time>
      </trkpt>
      <trkpt lat="42.182301" lon="1.155171">
        <ele>1254.022</ele>
        <time>2021-06-20T10:46:06Z</time>
      </trkpt>
      <trkpt lat="42.182215" lon="1.154961">
        <ele>1254.293</ele>
        <time>2021-06-20T10:46:10Z</time>
      </trkpt>
      <trkpt lat="42.182193" lon="1.154854">
        <ele>1254.453</ele>
        <time>2021-06-20T10:46:12Z</time>
      </trkpt>
      <trkpt lat="42.182150" lon="1.154726">
        <ele>1254.451</ele>
        <time>2021-06-20T10:46:15Z</time>
      </trkpt>
      <trkpt lat="42.182045" lon="1.154604">
        <ele>1254.837</ele>
        <time>2021-06-20T10:46:21Z</time>
      </trkpt>
      <trkpt lat="42.181946" lon="1.154548">
        <ele>1254.849</ele>
        <time>2021-06-20T10:46:26Z</time>
      </trkpt>
      <trkpt lat="42.181886" lon="1.154530">
        <ele>1255.013</ele>
        <time>2021-06-20T10:46:29Z</time>
      </trkpt>
      <trkpt lat="42.181737" lon="1.154485">
        <ele>1255.808</ele>
        <time>2021-06-20T10:46:37Z</time>
      </trkpt>
      <trkpt lat="42.181570" lon="1.154431">
        <ele>1256.230</ele>
        <time>2021-06-20T10:46:46Z</time>
      </trkpt>
      <trkpt lat="42.181403" lon="1.154370">
        <ele>1256.659</ele>
        <time>2021-06-20T10:46:55Z</time>
      </trkpt>
      <trkpt lat="42.181299" lon="1.154307">
        <ele>1256.856</ele>
        <time>2021-06-20T10:47:01Z</time>
      </trkpt>
      <trkpt lat="42.181169" lon="1.154179">
        <ele>1257.238</ele>
        <time>2021-06-20T10:47:09Z</time>
      </trkpt>
      <trkpt lat="42.181044" lon="1.154009">
        <ele>1257.632</ele>
        <time>2021-06-20T10:47:18Z</time>
      </trkpt>
      <trkpt lat="42.180982" lon="1.153947">
        <ele>1257.883</ele>
        <time>2021-06-20T10:47:22Z</time>
      </trkpt>
      <trkpt lat="42.180921" lon="1.153881">
        <ele>1258.073</ele>
        <time>2021-06-20T10:47:26Z</time>
      </trkpt>
      <trkpt lat="42.180829" lon="1.153730">
        <ele>1258.021</ele>
        <time>2021-06-20T10:47:35Z</time>
      </trkpt>
      <trkpt lat="42.180808" lon="1.153710">
        <ele>1258.251</ele>
        <time>2021-06-20T10:47:38Z</time>
      </trkpt>
      <trkpt lat="42.180777" lon="1.153684">
        <ele>1258.001</ele>
        <time>2021-06-20T10:47:40Z</time>
      </trkpt>
      <trkpt lat="42.180720" lon="1.153605">
        <ele>1258.211</ele>
        <time>2021-06-20T10:47:44Z</time>
      </trkpt>
      <trkpt lat="42.180706" lon="1.153577">
        <ele>1258.208</ele>
        <time>2021-06-20T10:47:45Z</time>
      </trkpt>
      <trkpt lat="42.180693" lon="1.153415">
        <ele>1258.482</ele>
        <time>2021-06-20T10:47:49Z</time>
      </trkpt>
      <trkpt lat="42.180707" lon="1.153364">
        <ele>1258.661</ele>
        <time>2021-06-20T10:47:50Z</time>
      </trkpt>
      <trkpt lat="42.180729" lon="1.153312">
        <ele>1258.688</ele>
        <time>2021-06-20T10:47:51Z</time>
      </trkpt>
      <trkpt lat="42.180797" lon="1.153222">
        <ele>1258.840</ele>
        <time>2021-06-20T10:47:53Z</time>
      </trkpt>
      <trkpt lat="42.180836" lon="1.153184">
        <ele>1259.074</ele>
        <time>2021-06-20T10:47:54Z</time>
      </trkpt>
      <trkpt lat="42.180908" lon="1.153102">
        <ele>1259.015</ele>
        <time>2021-06-20T10:47:56Z</time>
      </trkpt>
      <trkpt lat="42.180945" lon="1.152980">
        <ele>1259.265</ele>
        <time>2021-06-20T10:47:58Z</time>
      </trkpt>
      <trkpt lat="42.180895" lon="1.152809">
        <ele>1259.443</ele>
        <time>2021-06-20T10:48:01Z</time>
      </trkpt>
      <trkpt lat="42.180866" lon="1.152753">
        <ele>1259.423</ele>
        <time>2021-06-20T10:48:02Z</time>
      </trkpt>
      <trkpt lat="42.180814" lon="1.152628">
        <ele>1259.483</ele>
        <time>2021-06-20T10:48:04Z</time>
      </trkpt>
      <trkpt lat="42.180766" lon="1.152499">
        <ele>1259.611</ele>
        <time>2021-06-20T10:48:06Z</time>
      </trkpt>
      <trkpt lat="42.180664" lon="1.152275">
        <ele>1259.608</ele>
        <time>2021-06-20T10:48:10Z</time>
      </trkpt>
      <trkpt lat="42.180646" lon="1.152216">
        <ele>1259.669</ele>
        <time>2021-06-20T10:48:11Z</time>
      </trkpt>
      <trkpt lat="42.180619" lon="1.152085">
        <ele>1259.698</ele>
        <time>2021-06-20T10:48:13Z</time>
      </trkpt>
      <trkpt lat="42.180608" lon="1.151941">
        <ele>1259.615</ele>
        <time>2021-06-20T10:48:15Z</time>
      </trkpt>
      <trkpt lat="42.180602" lon="1.151790">
        <ele>1259.627</ele>
        <time>2021-06-20T10:48:17Z</time>
      </trkpt>
      <trkpt lat="42.180554" lon="1.151567">
        <ele>1259.641</ele>
        <time>2021-06-20T10:48:20Z</time>
      </trkpt>
      <trkpt lat="42.180516" lon="1.151346">
        <ele>1259.852</ele>
        <time>2021-06-20T10:48:23Z</time>
      </trkpt>
      <trkpt lat="42.180532" lon="1.151207">
        <ele>1259.842</ele>
        <time>2021-06-20T10:48:25Z</time>
      </trkpt>
      <trkpt lat="42.180561" lon="1.151065">
        <ele>1259.840</ele>
        <time>2021-06-20T10:48:27Z</time>
      </trkpt>
      <trkpt lat="42.180610" lon="1.150858">
        <ele>1260.065</ele>
        <time>2021-06-20T10:48:30Z</time>
      </trkpt>
      <trkpt lat="42.180732" lon="1.150721">
        <ele>1260.068</ele>
        <time>2021-06-20T10:48:33Z</time>
      </trkpt>
      <trkpt lat="42.180869" lon="1.150633">
        <ele>1260.014</ele>
        <time>2021-06-20T10:48:36Z</time>
      </trkpt>
      <trkpt lat="42.180912" lon="1.150601">
        <ele>1260.008</ele>
        <time>2021-06-20T10:48:37Z</time>
      </trkpt>
      <trkpt lat="42.180949" lon="1.150562">
        <ele>1260.023</ele>
        <time>2021-06-20T10:48:38Z</time>
      </trkpt>
      <trkpt lat="42.181063" lon="1.150335">
        <ele>1260.242</ele>
        <time>2021-06-20T10:48:43Z</time>
      </trkpt>
      <trkpt lat="42.181073" lon="1.150295">
        <ele>1260.279</ele>
        <time>2021-06-20T10:48:44Z</time>
      </trkpt>
      <trkpt lat="42.181069" lon="1.150173">
        <ele>1260.631</ele>
        <time>2021-06-20T10:48:48Z</time>
      </trkpt>
      <trkpt lat="42.180979" lon="1.149954">
        <ele>1260.845</ele>
        <time>2021-06-20T10:48:56Z</time>
      </trkpt>
      <trkpt lat="42.180951" lon="1.149731">
        <ele>1260.826</ele>
        <time>2021-06-20T10:49:02Z</time>
      </trkpt>
      <trkpt lat="42.180933" lon="1.149489">
        <ele>1261.086</ele>
        <time>2021-06-20T10:49:08Z</time>
      </trkpt>
      <trkpt lat="42.180912" lon="1.149443">
        <ele>1261.224</ele>
        <time>2021-06-20T10:49:10Z</time>
      </trkpt>
      <trkpt lat="42.180882" lon="1.149381">
        <ele>1261.294</ele>
        <time>2021-06-20T10:49:13Z</time>
      </trkpt>
      <trkpt lat="42.180805" lon="1.149309">
        <ele>1261.657</ele>
        <time>2021-06-20T10:49:18Z</time>
      </trkpt>
      <trkpt lat="42.180691" lon="1.149273">
        <ele>1261.622</ele>
        <time>2021-06-20T10:49:24Z</time>
      </trkpt>
      <trkpt lat="42.180528" lon="1.149259">
        <ele>1261.408</ele>
        <time>2021-06-20T10:49:32Z</time>
      </trkpt>
      <trkpt lat="42.180319" lon="1.149234">
        <ele>1261.486</ele>
        <time>2021-06-20T10:49:42Z</time>
      </trkpt>
      <trkpt lat="42.180174" lon="1.149152">
        <ele>1261.465</ele>
        <time>2021-06-20T10:49:49Z</time>
      </trkpt>
      <trkpt lat="42.180012" lon="1.149003">
        <ele>1261.262</ele>
        <time>2021-06-20T10:49:58Z</time>
      </trkpt>
      <trkpt lat="42.179879" lon="1.148945">
        <ele>1261.444</ele>
        <time>2021-06-20T10:50:06Z</time>
      </trkpt>
      <trkpt lat="42.179813" lon="1.148950">
        <ele>1261.238</ele>
        <time>2021-06-20T10:50:10Z</time>
      </trkpt>
      <trkpt lat="42.179798" lon="1.148951">
        <ele>1261.689</ele>
        <time>2021-06-20T10:50:11Z</time>
      </trkpt>
      <trkpt lat="42.179695" lon="1.148936">
        <ele>1261.639</ele>
        <time>2021-06-20T10:50:18Z</time>
      </trkpt>
      <trkpt lat="42.179679" lon="1.148929">
        <ele>1261.637</ele>
        <time>2021-06-20T10:50:19Z</time>
      </trkpt>
      <trkpt lat="42.179531" lon="1.148834">
        <ele>1261.851</ele>
        <time>2021-06-20T10:50:29Z</time>
      </trkpt>
      <trkpt lat="42.179422" lon="1.148738">
        <ele>1262.201</ele>
        <time>2021-06-20T10:50:37Z</time>
      </trkpt>
      <trkpt lat="42.179312" lon="1.148582">
        <ele>1262.411</ele>
        <time>2021-06-20T10:50:46Z</time>
      </trkpt>
      <trkpt lat="42.179297" lon="1.148391">
        <ele>1262.608</ele>
        <time>2021-06-20T10:50:53Z</time>
      </trkpt>
      <trkpt lat="42.179262" lon="1.148196">
        <ele>1262.642</ele>
        <time>2021-06-20T10:51:00Z</time>
      </trkpt>
      <trkpt lat="42.179229" lon="1.147955">
        <ele>1262.881</ele>
        <time>2021-06-20T10:51:08Z</time>
      </trkpt>
      <trkpt lat="42.179223" lon="1.147799">
        <ele>1263.288</ele>
        <time>2021-06-20T10:51:13Z</time>
      </trkpt>
      <trkpt lat="42.179206" lon="1.147742">
        <ele>1263.280</ele>
        <time>2021-06-20T10:51:15Z</time>
      </trkpt>
      <trkpt lat="42.179125" lon="1.147654">
        <ele>1263.224</ele>
        <time>2021-06-20T10:51:20Z</time>
      </trkpt>
      <trkpt lat="42.179106" lon="1.147651">
        <ele>1263.465</ele>
        <time>2021-06-20T10:51:21Z</time>
      </trkpt>
      <trkpt lat="42.179022" lon="1.147620">
        <ele>1263.645</ele>
        <time>2021-06-20T10:51:26Z</time>
      </trkpt>
      <trkpt lat="42.178993" lon="1.147604">
        <ele>1263.693</ele>
        <time>2021-06-20T10:51:28Z</time>
      </trkpt>
      <trkpt lat="42.178877" lon="1.147545">
        <ele>1264.051</ele>
        <time>2021-06-20T10:51:35Z</time>
      </trkpt>
      <trkpt lat="42.178744" lon="1.147479">
        <ele>1264.201</ele>
        <time>2021-06-20T10:51:43Z</time>
      </trkpt>
      <trkpt lat="42.178697" lon="1.147452">
        <ele>1264.211</ele>
        <time>2021-06-20T10:51:46Z</time>
      </trkpt>
      <trkpt lat="42.178593" lon="1.147380">
        <ele>1264.608</ele>
        <time>2021-06-20T10:51:53Z</time>
      </trkpt>
      <trkpt lat="42.178496" lon="1.147251">
        <ele>1264.812</ele>
        <time>2021-06-20T10:52:01Z</time>
      </trkpt>
      <trkpt lat="42.178465" lon="1.147085">
        <ele>1265.031</ele>
        <time>2021-06-20T10:52:08Z</time>
      </trkpt>
      <trkpt lat="42.178475" lon="1.146887">
        <ele>1265.058</ele>
        <time>2021-06-20T10:52:16Z</time>
      </trkpt>
      <trkpt lat="42.178450" lon="1.146815">
        <ele>1265.230</ele>
        <time>2021-06-20T10:52:19Z</time>
      </trkpt>
      <trkpt lat="42.178410" lon="1.146758">
        <ele>1265.274</ele>
        <time>2021-06-20T10:52:22Z</time>
      </trkpt>
      <trkpt lat="42.178336" lon="1.146565">
        <ele>1265.455</ele>
        <time>2021-06-20T10:52:30Z</time>
      </trkpt>
      <trkpt lat="42.178274" lon="1.146306">
        <ele>1265.615</ele>
        <time>2021-06-20T10:52:39Z</time>
      </trkpt>
      <trkpt lat="42.178215" lon="1.146168">
        <ele>1265.643</ele>
        <time>2021-06-20T10:52:44Z</time>
      </trkpt>
      <trkpt lat="42.178087" lon="1.146083">
        <ele>1265.823</ele>
        <time>2021-06-20T10:52:50Z</time>
      </trkpt>
      <trkpt lat="42.177951" lon="1.146075">
        <ele>1266.083</ele>
        <time>2021-06-20T10:52:56Z</time>
      </trkpt>
      <trkpt lat="42.177798" lon="1.146181">
        <ele>1266.211</ele>
        <time>2021-06-20T10:53:04Z</time>
      </trkpt>
      <trkpt lat="42.177761" lon="1.146209">
        <ele>1266.008</ele>
        <time>2021-06-20T10:53:06Z</time>
      </trkpt>
      <trkpt lat="42.177652" lon="1.146252">
        <ele>1266.279</ele>
        <time>2021-06-20T10:53:11Z</time>
      </trkpt>
      <trkpt lat="42.177450" lon="1.146274">
        <ele>1266.478</ele>
        <time>2021-06-20T10:53:20Z</time>
      </trkpt>
      <trkpt lat="42.177282" lon="1.146352">
        <ele>1266.675</ele>
        <time>2021-06-20T10:53:28Z</time>
      </trkpt>
      <trkpt lat="42.177113" lon="1.146387">
        <ele>1266.617</ele>
        <time>2021-06-20T10:53:36Z</time>
      </trkpt>
      <trkpt lat="42.176910" lon="1.146355">
        <ele>1266.851</ele>
        <time>2021-06-20T10:53:45Z</time>
      </trkpt>
      <trkpt lat="42.176813" lon="1.146338">
        <ele>1266.882</ele>
        <time>2021-06-20T10:53:51Z</time>
      </trkpt>
      <trkpt lat="42.176813" lon="1.146336">
        <ele>1266.852</ele>
        <time>2021-06-20T10:53:52Z</time>
      </trkpt>
      <trkpt lat="42.176785" lon="1.146290">
        <ele>1265.620</ele>
        <time>2021-06-20T10:54:08Z</time>
      </trkpt>
      <trkpt lat="42.176744" lon="1.146255">
        <ele>1265.826</ele>
        <time>2021-06-20T10:54:11Z</time>
      </trkpt>
      <trkpt lat="42.176729" lon="1.146245">
        <ele>1265.847</ele>
        <time>2021-06-20T10:54:12Z</time>
      </trkpt>
      <trkpt lat="42.176613" lon="1.146169">
        <ele>1266.011</ele>
        <time>2021-06-20T10:54:19Z</time>
      </trkpt>
      <trkpt lat="42.176542" lon="1.146108">
        <ele>1265.808</ele>
        <time>2021-06-20T10:54:25Z</time>
      </trkpt>
      <trkpt lat="42.176546" lon="1.146096">
        <ele>1265.889</ele>
        <time>2021-06-20T10:54:26Z</time>
      </trkpt>
      <trkpt lat="42.176574" lon="1.146107">
        <ele>1266.068</ele>
        <time>2021-06-20T10:54:30Z</time>
      </trkpt>
      <trkpt lat="42.176588" lon="1.146121">
        <ele>1266.065</ele>
        <time>2021-06-20T10:54:31Z</time>
      </trkpt>
      <trkpt lat="42.176725" lon="1.146221">
        <ele>1266.277</ele>
        <time>2021-06-20T10:54:37Z</time>
      </trkpt>
      <trkpt lat="42.176801" lon="1.146310">
        <ele>1266.481</ele>
        <time>2021-06-20T10:54:41Z</time>
      </trkpt>
      <trkpt lat="42.176797" lon="1.146326">
        <ele>1266.652</ele>
        <time>2021-06-20T10:54:42Z</time>
      </trkpt>
      <trkpt lat="42.176737" lon="1.146310">
        <ele>1266.622</ele>
        <time>2021-06-20T10:54:46Z</time>
      </trkpt>
      <trkpt lat="42.176615" lon="1.146241">
        <ele>1266.810</ele>
        <time>2021-06-20T10:54:52Z</time>
      </trkpt>
      <trkpt lat="42.176503" lon="1.146182">
        <ele>1266.875</ele>
        <time>2021-06-20T10:54:57Z</time>
      </trkpt>
      <trkpt lat="42.176481" lon="1.146168">
        <ele>1266.828</ele>
        <time>2021-06-20T10:54:58Z</time>
      </trkpt>
      <trkpt lat="42.176254" lon="1.146000">
        <ele>1267.420</ele>
        <time>2021-06-20T10:55:09Z</time>
      </trkpt>
      <trkpt lat="42.176140" lon="1.145929">
        <ele>1267.808</ele>
        <time>2021-06-20T10:55:15Z</time>
      </trkpt>
      <trkpt lat="42.176124" lon="1.145916">
        <ele>1267.874</ele>
        <time>2021-06-20T10:55:16Z</time>
      </trkpt>
      <trkpt lat="42.175975" lon="1.145771">
        <ele>1268.243</ele>
        <time>2021-06-20T10:55:23Z</time>
      </trkpt>
      <trkpt lat="42.175941" lon="1.145743">
        <ele>1268.280</ele>
        <time>2021-06-20T10:55:24Z</time>
      </trkpt>
      <trkpt lat="42.175819" lon="1.145694">
        <ele>1268.272</ele>
        <time>2021-06-20T10:55:27Z</time>
      </trkpt>
      <trkpt lat="42.175770" lon="1.145680">
        <ele>1268.246</ele>
        <time>2021-06-20T10:55:28Z</time>
      </trkpt>
      <trkpt lat="42.175630" lon="1.145632">
        <ele>1268.467</ele>
        <time>2021-06-20T10:55:31Z</time>
      </trkpt>
      <trkpt lat="42.175577" lon="1.145619">
        <ele>1268.437</ele>
        <time>2021-06-20T10:55:32Z</time>
      </trkpt>
      <trkpt lat="42.175522" lon="1.145601">
        <ele>1268.415</ele>
        <time>2021-06-20T10:55:33Z</time>
      </trkpt>
      <trkpt lat="42.175301" lon="1.145504">
        <ele>1268.238</ele>
        <time>2021-06-20T10:55:37Z</time>
      </trkpt>
      <trkpt lat="42.175251" lon="1.145474">
        <ele>1268.270</ele>
        <time>2021-06-20T10:55:38Z</time>
      </trkpt>
      <trkpt lat="42.175119" lon="1.145342">
        <ele>1268.217</ele>
        <time>2021-06-20T10:55:41Z</time>
      </trkpt>
      <trkpt lat="42.174834" lon="1.145020">
        <ele>1268.208</ele>
        <time>2021-06-20T10:55:47Z</time>
      </trkpt>
      <trkpt lat="42.174790" lon="1.144957">
        <ele>1268.250</ele>
        <time>2021-06-20T10:55:48Z</time>
      </trkpt>
      <trkpt lat="42.174588" lon="1.144633">
        <ele>1268.239</ele>
        <time>2021-06-20T10:55:53Z</time>
      </trkpt>
      <trkpt lat="42.174452" lon="1.144447">
        <ele>1268.286</ele>
        <time>2021-06-20T10:55:56Z</time>
      </trkpt>
      <trkpt lat="42.174355" lon="1.144329">
        <ele>1268.258</ele>
        <time>2021-06-20T10:55:58Z</time>
      </trkpt>
      <trkpt lat="42.174171" lon="1.144005">
        <ele>1268.272</ele>
        <time>2021-06-20T10:56:03Z</time>
      </trkpt>
      <trkpt lat="42.174019" lon="1.143537">
        <ele>1268.073</ele>
        <time>2021-06-20T10:56:09Z</time>
      </trkpt>
      <trkpt lat="42.173988" lon="1.143458">
        <ele>1268.083</ele>
        <time>2021-06-20T10:56:10Z</time>
      </trkpt>
      <trkpt lat="42.173887" lon="1.143255">
        <ele>1268.071</ele>
        <time>2021-06-20T10:56:13Z</time>
      </trkpt>
      <trkpt lat="42.173852" lon="1.143198">
        <ele>1268.024</ele>
        <time>2021-06-20T10:56:14Z</time>
      </trkpt>
      <trkpt lat="42.173693" lon="1.142996">
        <ele>1267.804</ele>
        <time>2021-06-20T10:56:18Z</time>
      </trkpt>
      <trkpt lat="42.173626" lon="1.142891">
        <ele>1267.814</ele>
        <time>2021-06-20T10:56:20Z</time>
      </trkpt>
      <trkpt lat="42.173585" lon="1.142758">
        <ele>1267.808</ele>
        <time>2021-06-20T10:56:22Z</time>
      </trkpt>
      <trkpt lat="42.173510" lon="1.142559">
        <ele>1267.819</ele>
        <time>2021-06-20T10:56:25Z</time>
      </trkpt>
      <trkpt lat="42.173480" lon="1.142489">
        <ele>1267.648</ele>
        <time>2021-06-20T10:56:26Z</time>
      </trkpt>
      <trkpt lat="42.173457" lon="1.142414">
        <ele>1267.665</ele>
        <time>2021-06-20T10:56:27Z</time>
      </trkpt>
      <trkpt lat="42.173384" lon="1.142118">
        <ele>1267.467</ele>
        <time>2021-06-20T10:56:31Z</time>
      </trkpt>
      <trkpt lat="42.173260" lon="1.141840">
        <ele>1267.421</ele>
        <time>2021-06-20T10:56:35Z</time>
      </trkpt>
      <trkpt lat="42.173175" lon="1.141723">
        <ele>1267.282</ele>
        <time>2021-06-20T10:56:37Z</time>
      </trkpt>
      <trkpt lat="42.173039" lon="1.141568">
        <ele>1267.082</ele>
        <time>2021-06-20T10:56:40Z</time>
      </trkpt>
      <trkpt lat="42.172997" lon="1.141512">
        <ele>1266.860</ele>
        <time>2021-06-20T10:56:41Z</time>
      </trkpt>
      <trkpt lat="42.172822" lon="1.141272">
        <ele>1266.671</ele>
        <time>2021-06-20T10:56:45Z</time>
      </trkpt>
      <trkpt lat="42.172724" lon="1.141107">
        <ele>1266.641</ele>
        <time>2021-06-20T10:56:48Z</time>
      </trkpt>
      <trkpt lat="42.172705" lon="1.141051">
        <ele>1266.615</ele>
        <time>2021-06-20T10:56:49Z</time>
      </trkpt>
      <trkpt lat="42.172659" lon="1.140929">
        <ele>1266.408</ele>
        <time>2021-06-20T10:56:51Z</time>
      </trkpt>
      <trkpt lat="42.172574" lon="1.140825">
        <ele>1266.254</ele>
        <time>2021-06-20T10:56:53Z</time>
      </trkpt>
      <trkpt lat="42.172484" lon="1.140722">
        <ele>1266.233</ele>
        <time>2021-06-20T10:56:55Z</time>
      </trkpt>
      <trkpt lat="42.172447" lon="1.140659">
        <ele>1266.040</ele>
        <time>2021-06-20T10:56:56Z</time>
      </trkpt>
      <trkpt lat="42.172418" lon="1.140597">
        <ele>1266.032</ele>
        <time>2021-06-20T10:56:57Z</time>
      </trkpt>
      <trkpt lat="42.172362" lon="1.140381">
        <ele>1265.636</ele>
        <time>2021-06-20T10:57:01Z</time>
      </trkpt>
      <trkpt lat="42.172364" lon="1.140285">
        <ele>1265.467</ele>
        <time>2021-06-20T10:57:03Z</time>
      </trkpt>
      <trkpt lat="42.172390" lon="1.140108">
        <ele>1265.497</ele>
        <time>2021-06-20T10:57:06Z</time>
      </trkpt>
      <trkpt lat="42.172413" lon="1.139938">
        <ele>1265.285</ele>
        <time>2021-06-20T10:57:09Z</time>
      </trkpt>
      <trkpt lat="42.172423" lon="1.139807">
        <ele>1265.039</ele>
        <time>2021-06-20T10:57:11Z</time>
      </trkpt>
      <trkpt lat="42.172423" lon="1.139734">
        <ele>1265.001</ele>
        <time>2021-06-20T10:57:12Z</time>
      </trkpt>
      <trkpt lat="42.172427" lon="1.139581">
        <ele>1264.821</ele>
        <time>2021-06-20T10:57:15Z</time>
      </trkpt>
      <trkpt lat="42.172446" lon="1.139514">
        <ele>1264.008</ele>
        <time>2021-06-20T10:57:20Z</time>
      </trkpt>
      <trkpt lat="42.172461" lon="1.139496">
        <ele>1263.830</ele>
        <time>2021-06-20T10:57:21Z</time>
      </trkpt>
      <trkpt lat="42.172516" lon="1.139410">
        <ele>1263.419</ele>
        <time>2021-06-20T10:57:24Z</time>
      </trkpt>
      <trkpt lat="42.172539" lon="1.139370">
        <ele>1263.476</ele>
        <time>2021-06-20T10:57:25Z</time>
      </trkpt>
      <trkpt lat="42.172562" lon="1.139315">
        <ele>1263.458</ele>
        <time>2021-06-20T10:57:26Z</time>
      </trkpt>
      <trkpt lat="42.172603" lon="1.139189">
        <ele>1263.422</ele>
        <time>2021-06-20T10:57:28Z</time>
      </trkpt>
      <trkpt lat="42.172686" lon="1.138979">
        <ele>1263.083</ele>
        <time>2021-06-20T10:57:31Z</time>
      </trkpt>
      <trkpt lat="42.172709" lon="1.138906">
        <ele>1262.623</ele>
        <time>2021-06-20T10:57:32Z</time>
      </trkpt>
      <trkpt lat="42.172723" lon="1.138672">
        <ele>1261.831</ele>
        <time>2021-06-20T10:57:36Z</time>
      </trkpt>
      <trkpt lat="42.172686" lon="1.138465">
        <ele>1260.856</ele>
        <time>2021-06-20T10:57:40Z</time>
      </trkpt>
      <trkpt lat="42.172674" lon="1.138412">
        <ele>1260.659</ele>
        <time>2021-06-20T10:57:41Z</time>
      </trkpt>
      <trkpt lat="42.172641" lon="1.138265">
        <ele>1259.614</ele>
        <time>2021-06-20T10:57:44Z</time>
      </trkpt>
      <trkpt lat="42.172640" lon="1.138168">
        <ele>1259.408</ele>
        <time>2021-06-20T10:57:46Z</time>
      </trkpt>
      <trkpt lat="42.172619" lon="1.138128">
        <ele>1259.412</ele>
        <time>2021-06-20T10:57:47Z</time>
      </trkpt>
      <trkpt lat="42.172571" lon="1.138068">
        <ele>1258.811</ele>
        <time>2021-06-20T10:57:49Z</time>
      </trkpt>
      <trkpt lat="42.172522" lon="1.138006">
        <ele>1258.428</ele>
        <time>2021-06-20T10:57:51Z</time>
      </trkpt>
      <trkpt lat="42.172493" lon="1.137977">
        <ele>1257.880</ele>
        <time>2021-06-20T10:57:52Z</time>
      </trkpt>
      <trkpt lat="42.172386" lon="1.137889">
        <ele>1257.074</ele>
        <time>2021-06-20T10:57:55Z</time>
      </trkpt>
      <trkpt lat="42.172352" lon="1.137853">
        <ele>1256.895</ele>
        <time>2021-06-20T10:57:56Z</time>
      </trkpt>
      <trkpt lat="42.172238" lon="1.137688">
        <ele>1255.635</ele>
        <time>2021-06-20T10:58:00Z</time>
      </trkpt>
      <trkpt lat="42.172210" lon="1.137646">
        <ele>1255.273</ele>
        <time>2021-06-20T10:58:01Z</time>
      </trkpt>
      <trkpt lat="42.172171" lon="1.137544">
        <ele>1255.057</ele>
        <time>2021-06-20T10:58:03Z</time>
      </trkpt>
      <trkpt lat="42.172163" lon="1.137492">
        <ele>1254.800</ele>
        <time>2021-06-20T10:58:04Z</time>
      </trkpt>
      <trkpt lat="42.172164" lon="1.137428">
        <ele>1254.420</ele>
        <time>2021-06-20T10:58:05Z</time>
      </trkpt>
      <trkpt lat="42.172194" lon="1.137223">
        <ele>1253.608</ele>
        <time>2021-06-20T10:58:08Z</time>
      </trkpt>
      <trkpt lat="42.172212" lon="1.137164">
        <ele>1253.462</ele>
        <time>2021-06-20T10:58:09Z</time>
      </trkpt>
      <trkpt lat="42.172263" lon="1.137031">
        <ele>1252.641</ele>
        <time>2021-06-20T10:58:11Z</time>
      </trkpt>
      <trkpt lat="42.172298" lon="1.136917">
        <ele>1252.018</ele>
        <time>2021-06-20T10:58:13Z</time>
      </trkpt>
      <trkpt lat="42.172315" lon="1.136862">
        <ele>1252.040</ele>
        <time>2021-06-20T10:58:14Z</time>
      </trkpt>
      <trkpt lat="42.172327" lon="1.136813">
        <ele>1251.654</ele>
        <time>2021-06-20T10:58:15Z</time>
      </trkpt>
      <trkpt lat="42.172357" lon="1.136685">
        <ele>1251.025</ele>
        <time>2021-06-20T10:58:18Z</time>
      </trkpt>
      <trkpt lat="42.172374" lon="1.136626">
        <ele>1250.665</ele>
        <time>2021-06-20T10:58:20Z</time>
      </trkpt>
      <trkpt lat="42.172388" lon="1.136521">
        <ele>1249.893</ele>
        <time>2021-06-20T10:58:23Z</time>
      </trkpt>
      <trkpt lat="42.172388" lon="1.136474">
        <ele>1249.654</ele>
        <time>2021-06-20T10:58:24Z</time>
      </trkpt>
      <trkpt lat="42.172396" lon="1.136269">
        <ele>1248.456</ele>
        <time>2021-06-20T10:58:28Z</time>
      </trkpt>
      <trkpt lat="42.172434" lon="1.136137">
        <ele>1247.611</ele>
        <time>2021-06-20T10:58:31Z</time>
      </trkpt>
      <trkpt lat="42.172441" lon="1.136054">
        <ele>1247.008</ele>
        <time>2021-06-20T10:58:33Z</time>
      </trkpt>
      <trkpt lat="42.172452" lon="1.135994">
        <ele>1246.612</ele>
        <time>2021-06-20T10:58:35Z</time>
      </trkpt>
      <trkpt lat="42.172484" lon="1.135825">
        <ele>1245.621</ele>
        <time>2021-06-20T10:58:39Z</time>
      </trkpt>
      <trkpt lat="42.172458" lon="1.135641">
        <ele>1244.848</ele>
        <time>2021-06-20T10:58:43Z</time>
      </trkpt>
      <trkpt lat="42.172463" lon="1.135526">
        <ele>1243.820</ele>
        <time>2021-06-20T10:58:45Z</time>
      </trkpt>
      <trkpt lat="42.172462" lon="1.135485">
        <ele>1243.664</ele>
        <time>2021-06-20T10:58:46Z</time>
      </trkpt>
      <trkpt lat="42.172505" lon="1.135309">
        <ele>1242.225</ele>
        <time>2021-06-20T10:58:50Z</time>
      </trkpt>
      <trkpt lat="42.172541" lon="1.135181">
        <ele>1241.245</ele>
        <time>2021-06-20T10:58:53Z</time>
      </trkpt>
      <trkpt lat="42.172565" lon="1.135122">
        <ele>1241.233</ele>
        <time>2021-06-20T10:58:54Z</time>
      </trkpt>
      <trkpt lat="42.172584" lon="1.135068">
        <ele>1241.051</ele>
        <time>2021-06-20T10:58:55Z</time>
      </trkpt>
      <trkpt lat="42.172603" lon="1.134960">
        <ele>1240.201</ele>
        <time>2021-06-20T10:58:57Z</time>
      </trkpt>
      <trkpt lat="42.172599" lon="1.134909">
        <ele>1240.011</ele>
        <time>2021-06-20T10:58:58Z</time>
      </trkpt>
      <trkpt lat="42.172589" lon="1.134809">
        <ele>1239.008</ele>
        <time>2021-06-20T10:59:00Z</time>
      </trkpt>
      <trkpt lat="42.172558" lon="1.134538">
        <ele>1238.042</ele>
        <time>2021-06-20T10:59:04Z</time>
      </trkpt>
      <trkpt lat="42.172533" lon="1.134291">
        <ele>1237.021</ele>
        <time>2021-06-20T10:59:08Z</time>
      </trkpt>
      <trkpt lat="42.172536" lon="1.134250">
        <ele>1236.828</ele>
        <time>2021-06-20T10:59:09Z</time>
      </trkpt>
      <trkpt lat="42.172527" lon="1.134214">
        <ele>1236.410</ele>
        <time>2021-06-20T10:59:10Z</time>
      </trkpt>
      <trkpt lat="42.172496" lon="1.134123">
        <ele>1236.254</ele>
        <time>2021-06-20T10:59:12Z</time>
      </trkpt>
      <trkpt lat="42.172476" lon="1.134066">
        <ele>1235.815</ele>
        <time>2021-06-20T10:59:13Z</time>
      </trkpt>
      <trkpt lat="42.172458" lon="1.133991">
        <ele>1235.215</ele>
        <time>2021-06-20T10:59:15Z</time>
      </trkpt>
      <trkpt lat="42.172471" lon="1.133897">
        <ele>1234.893</ele>
        <time>2021-06-20T10:59:16Z</time>
      </trkpt>
      <trkpt lat="42.172449" lon="1.133791">
        <ele>1234.297</ele>
        <time>2021-06-20T10:59:18Z</time>
      </trkpt>
      <trkpt lat="42.172467" lon="1.133646">
        <ele>1233.623</ele>
        <time>2021-06-20T10:59:20Z</time>
      </trkpt>
      <trkpt lat="42.172469" lon="1.133535">
        <ele>1233.025</ele>
        <time>2021-06-20T10:59:22Z</time>
      </trkpt>
      <trkpt lat="42.172465" lon="1.133481">
        <ele>1232.808</ele>
        <time>2021-06-20T10:59:23Z</time>
      </trkpt>
      <trkpt lat="42.172486" lon="1.133328">
        <ele>1231.816</ele>
        <time>2021-06-20T10:59:25Z</time>
      </trkpt>
      <trkpt lat="42.172435" lon="1.133158">
        <ele>1231.635</ele>
        <time>2021-06-20T10:59:28Z</time>
      </trkpt>
      <trkpt lat="42.172382" lon="1.133028">
        <ele>1231.052</ele>
        <time>2021-06-20T10:59:30Z</time>
      </trkpt>
      <trkpt lat="42.172337" lon="1.132905">
        <ele>1230.274</ele>
        <time>2021-06-20T10:59:33Z</time>
      </trkpt>
      <trkpt lat="42.172328" lon="1.132848">
        <ele>1229.898</ele>
        <time>2021-06-20T10:59:34Z</time>
      </trkpt>
      <trkpt lat="42.172301" lon="1.132712">
        <ele>1229.069</ele>
        <time>2021-06-20T10:59:37Z</time>
      </trkpt>
      <trkpt lat="42.172298" lon="1.132670">
        <ele>1228.619</ele>
        <time>2021-06-20T10:59:38Z</time>
      </trkpt>
      <trkpt lat="42.172292" lon="1.132536">
        <ele>1227.897</ele>
        <time>2021-06-20T10:59:41Z</time>
      </trkpt>
      <trkpt lat="42.172292" lon="1.132505">
        <ele>1227.454</ele>
        <time>2021-06-20T10:59:42Z</time>
      </trkpt>
      <trkpt lat="42.172291" lon="1.132471">
        <ele>1227.456</ele>
        <time>2021-06-20T10:59:43Z</time>
      </trkpt>
      <trkpt lat="42.172269" lon="1.132396">
        <ele>1227.011</ele>
        <time>2021-06-20T10:59:45Z</time>
      </trkpt>
      <trkpt lat="42.172257" lon="1.132367">
        <ele>1226.808</ele>
        <time>2021-06-20T10:59:46Z</time>
      </trkpt>
      <trkpt lat="42.172254" lon="1.132335">
        <ele>1226.442</ele>
        <time>2021-06-20T10:59:47Z</time>
      </trkpt>
      <trkpt lat="42.172241" lon="1.132257">
        <ele>1226.231</ele>
        <time>2021-06-20T10:59:49Z</time>
      </trkpt>
      <trkpt lat="42.172237" lon="1.132225">
        <ele>1225.828</ele>
        <time>2021-06-20T10:59:50Z</time>
      </trkpt>
      <trkpt lat="42.172229" lon="1.132194">
        <ele>1225.610</ele>
        <time>2021-06-20T10:59:51Z</time>
      </trkpt>
      <trkpt lat="42.172226" lon="1.132154">
        <ele>1225.054</ele>
        <time>2021-06-20T10:59:53Z</time>
      </trkpt>
      <trkpt lat="42.172220" lon="1.132033">
        <ele>1223.875</ele>
        <time>2021-06-20T10:59:57Z</time>
      </trkpt>
      <trkpt lat="42.172207" lon="1.132003">
        <ele>1223.635</ele>
        <time>2021-06-20T10:59:58Z</time>
      </trkpt>
      <trkpt lat="42.172185" lon="1.131892">
        <ele>1222.813</ele>
        <time>2021-06-20T11:00:02Z</time>
      </trkpt>
      <trkpt lat="42.172167" lon="1.131837">
        <ele>1222.677</ele>
        <time>2021-06-20T11:00:04Z</time>
      </trkpt>
      <trkpt lat="42.172118" lon="1.131708">
        <ele>1222.061</ele>
        <time>2021-06-20T11:00:07Z</time>
      </trkpt>
      <trkpt lat="42.172087" lon="1.131612">
        <ele>1221.627</ele>
        <time>2021-06-20T11:00:09Z</time>
      </trkpt>
      <trkpt lat="42.172066" lon="1.131555">
        <ele>1221.208</ele>
        <time>2021-06-20T11:00:10Z</time>
      </trkpt>
      <trkpt lat="42.172033" lon="1.131318">
        <ele>1220.494</ele>
        <time>2021-06-20T11:00:14Z</time>
      </trkpt>
      <trkpt lat="42.172038" lon="1.131257">
        <ele>1220.093</ele>
        <time>2021-06-20T11:00:15Z</time>
      </trkpt>
      <trkpt lat="42.172042" lon="1.131113">
        <ele>1219.480</ele>
        <time>2021-06-20T11:00:18Z</time>
      </trkpt>
      <trkpt lat="42.172036" lon="1.131074">
        <ele>1219.292</ele>
        <time>2021-06-20T11:00:19Z</time>
      </trkpt>
      <trkpt lat="42.172034" lon="1.130915">
        <ele>1218.046</ele>
        <time>2021-06-20T11:00:23Z</time>
      </trkpt>
      <trkpt lat="42.172038" lon="1.130670">
        <ele>1217.297</ele>
        <time>2021-06-20T11:00:28Z</time>
      </trkpt>
      <trkpt lat="42.172039" lon="1.130629">
        <ele>1217.087</ele>
        <time>2021-06-20T11:00:29Z</time>
      </trkpt>
      <trkpt lat="42.172034" lon="1.130469">
        <ele>1216.225</ele>
        <time>2021-06-20T11:00:32Z</time>
      </trkpt>
      <trkpt lat="42.172050" lon="1.130348">
        <ele>1215.636</ele>
        <time>2021-06-20T11:00:34Z</time>
      </trkpt>
      <trkpt lat="42.172071" lon="1.130204">
        <ele>1215.217</ele>
        <time>2021-06-20T11:00:37Z</time>
      </trkpt>
      <trkpt lat="42.172089" lon="1.130084">
        <ele>1214.818</ele>
        <time>2021-06-20T11:00:39Z</time>
      </trkpt>
      <trkpt lat="42.172055" lon="1.129896">
        <ele>1214.208</ele>
        <time>2021-06-20T11:00:41Z</time>
      </trkpt>
      <trkpt lat="42.172065" lon="1.129712">
        <ele>1213.460</ele>
        <time>2021-06-20T11:00:43Z</time>
      </trkpt>
      <trkpt lat="42.172060" lon="1.129629">
        <ele>1213.469</ele>
        <time>2021-06-20T11:00:44Z</time>
      </trkpt>
      <trkpt lat="42.172048" lon="1.129504">
        <ele>1213.216</ele>
        <time>2021-06-20T11:00:45Z</time>
      </trkpt>
      <trkpt lat="42.171974" lon="1.129291">
        <ele>1212.848</ele>
        <time>2021-06-20T11:00:47Z</time>
      </trkpt>
      <trkpt lat="42.171968" lon="1.129177">
        <ele>1212.812</ele>
        <time>2021-06-20T11:00:48Z</time>
      </trkpt>
      <trkpt lat="42.171938" lon="1.128999">
        <ele>1211.253</ele>
        <time>2021-06-20T11:00:50Z</time>
      </trkpt>
      <trkpt lat="42.171895" lon="1.128827">
        <ele>1210.823</ele>
        <time>2021-06-20T11:00:52Z</time>
      </trkpt>
      <trkpt lat="42.171877" lon="1.128761">
        <ele>1210.431</ele>
        <time>2021-06-20T11:00:53Z</time>
      </trkpt>
      <trkpt lat="42.171850" lon="1.128620">
        <ele>1210.091</ele>
        <time>2021-06-20T11:00:55Z</time>
      </trkpt>
      <trkpt lat="42.171825" lon="1.128548">
        <ele>1209.881</ele>
        <time>2021-06-20T11:00:56Z</time>
      </trkpt>
      <trkpt lat="42.171809" lon="1.128461">
        <ele>1209.419</ele>
        <time>2021-06-20T11:00:57Z</time>
      </trkpt>
      <trkpt lat="42.171732" lon="1.128193">
        <ele>1208.408</ele>
        <time>2021-06-20T11:01:01Z</time>
      </trkpt>
      <trkpt lat="42.171650" lon="1.127945">
        <ele>1207.226</ele>
        <time>2021-06-20T11:01:05Z</time>
      </trkpt>
      <trkpt lat="42.171625" lon="1.127865">
        <ele>1206.835</ele>
        <time>2021-06-20T11:01:06Z</time>
      </trkpt>
      <trkpt lat="42.171565" lon="1.127723">
        <ele>1206.692</ele>
        <time>2021-06-20T11:01:08Z</time>
      </trkpt>
      <trkpt lat="42.171531" lon="1.127648">
        <ele>1206.294</ele>
        <time>2021-06-20T11:01:09Z</time>
      </trkpt>
      <trkpt lat="42.171456" lon="1.127497">
        <ele>1205.638</ele>
        <time>2021-06-20T11:01:11Z</time>
      </trkpt>
      <trkpt lat="42.171415" lon="1.127452">
        <ele>1205.419</ele>
        <time>2021-06-20T11:01:12Z</time>
      </trkpt>
      <trkpt lat="42.171372" lon="1.127411">
        <ele>1205.049</ele>
        <time>2021-06-20T11:01:13Z</time>
      </trkpt>
      <trkpt lat="42.171295" lon="1.127325">
        <ele>1204.687</ele>
        <time>2021-06-20T11:01:15Z</time>
      </trkpt>
      <trkpt lat="42.171216" lon="1.127253">
        <ele>1204.295</ele>
        <time>2021-06-20T11:01:17Z</time>
      </trkpt>
      <trkpt lat="42.171103" lon="1.127146">
        <ele>1203.249</ele>
        <time>2021-06-20T11:01:20Z</time>
      </trkpt>
      <trkpt lat="42.170958" lon="1.126935">
        <ele>1202.423</ele>
        <time>2021-06-20T11:01:25Z</time>
      </trkpt>
      <trkpt lat="42.170948" lon="1.126894">
        <ele>1202.408</ele>
        <time>2021-06-20T11:01:26Z</time>
      </trkpt>
      <trkpt lat="42.170929" lon="1.126722">
        <ele>1201.456</ele>
        <time>2021-06-20T11:01:30Z</time>
      </trkpt>
      <trkpt lat="42.170936" lon="1.126673">
        <ele>1201.275</ele>
        <time>2021-06-20T11:01:31Z</time>
      </trkpt>
      <trkpt lat="42.170925" lon="1.126514">
        <ele>1200.652</ele>
        <time>2021-06-20T11:01:34Z</time>
      </trkpt>
      <trkpt lat="42.170903" lon="1.126417">
        <ele>1200.224</ele>
        <time>2021-06-20T11:01:36Z</time>
      </trkpt>
      <trkpt lat="42.170883" lon="1.126299">
        <ele>1200.088</ele>
        <time>2021-06-20T11:01:39Z</time>
      </trkpt>
      <trkpt lat="42.170920" lon="1.126205">
        <ele>1199.419</ele>
        <time>2021-06-20T11:01:42Z</time>
      </trkpt>
      <trkpt lat="42.170959" lon="1.126171">
        <ele>1199.279</ele>
        <time>2021-06-20T11:01:43Z</time>
      </trkpt>
      <trkpt lat="42.171022" lon="1.126038">
        <ele>1198.627</ele>
        <time>2021-06-20T11:01:46Z</time>
      </trkpt>
      <trkpt lat="42.170998" lon="1.125872">
        <ele>1198.093</ele>
        <time>2021-06-20T11:01:49Z</time>
      </trkpt>
      <trkpt lat="42.170987" lon="1.125770">
        <ele>1197.665</ele>
        <time>2021-06-20T11:01:51Z</time>
      </trkpt>
      <trkpt lat="42.170989" lon="1.125665">
        <ele>1197.021</ele>
        <time>2021-06-20T11:01:53Z</time>
      </trkpt>
      <trkpt lat="42.170988" lon="1.125609">
        <ele>1196.608</ele>
        <time>2021-06-20T11:01:54Z</time>
      </trkpt>
      <trkpt lat="42.171002" lon="1.125346">
        <ele>1196.046</ele>
        <time>2021-06-20T11:01:59Z</time>
      </trkpt>
      <trkpt lat="42.171004" lon="1.125242">
        <ele>1195.645</ele>
        <time>2021-06-20T11:02:01Z</time>
      </trkpt>
      <trkpt lat="42.170994" lon="1.125089">
        <ele>1194.882</ele>
        <time>2021-06-20T11:02:04Z</time>
      </trkpt>
      <trkpt lat="42.170976" lon="1.124795">
        <ele>1194.094</ele>
        <time>2021-06-20T11:02:09Z</time>
      </trkpt>
      <trkpt lat="42.170967" lon="1.124749">
        <ele>1193.838</ele>
        <time>2021-06-20T11:02:10Z</time>
      </trkpt>
      <trkpt lat="42.170943" lon="1.124471">
        <ele>1192.859</ele>
        <time>2021-06-20T11:02:14Z</time>
      </trkpt>
      <trkpt lat="42.170936" lon="1.124326">
        <ele>1192.059</ele>
        <time>2021-06-20T11:02:16Z</time>
      </trkpt>
      <trkpt lat="42.170914" lon="1.124181">
        <ele>1191.697</ele>
        <time>2021-06-20T11:02:18Z</time>
      </trkpt>
      <trkpt lat="42.170899" lon="1.124113">
        <ele>1191.429</ele>
        <time>2021-06-20T11:02:19Z</time>
      </trkpt>
      <trkpt lat="42.170892" lon="1.124046">
        <ele>1191.200</ele>
        <time>2021-06-20T11:02:20Z</time>
      </trkpt>
      <trkpt lat="42.170883" lon="1.123975">
        <ele>1191.220</ele>
        <time>2021-06-20T11:02:21Z</time>
      </trkpt>
      <trkpt lat="42.170842" lon="1.123777">
        <ele>1190.608</ele>
        <time>2021-06-20T11:02:24Z</time>
      </trkpt>
      <trkpt lat="42.170826" lon="1.123713">
        <ele>1190.299</ele>
        <time>2021-06-20T11:02:25Z</time>
      </trkpt>
      <trkpt lat="42.170721" lon="1.123461">
        <ele>1189.698</ele>
        <time>2021-06-20T11:02:29Z</time>
      </trkpt>
      <trkpt lat="42.170684" lon="1.123415">
        <ele>1189.425</ele>
        <time>2021-06-20T11:02:30Z</time>
      </trkpt>
      <trkpt lat="42.170589" lon="1.123333">
        <ele>1188.637</ele>
        <time>2021-06-20T11:02:33Z</time>
      </trkpt>
      <trkpt lat="42.170517" lon="1.123290">
        <ele>1188.661</ele>
        <time>2021-06-20T11:02:35Z</time>
      </trkpt>
      <trkpt lat="42.170436" lon="1.123199">
        <ele>1187.882</ele>
        <time>2021-06-20T11:02:37Z</time>
      </trkpt>
      <trkpt lat="42.170397" lon="1.123139">
        <ele>1187.672</ele>
        <time>2021-06-20T11:02:38Z</time>
      </trkpt>
      <trkpt lat="42.170334" lon="1.123006">
        <ele>1186.860</ele>
        <time>2021-06-20T11:02:40Z</time>
      </trkpt>
      <trkpt lat="42.170300" lon="1.122945">
        <ele>1186.437</ele>
        <time>2021-06-20T11:02:41Z</time>
      </trkpt>
      <trkpt lat="42.170262" lon="1.122887">
        <ele>1186.249</ele>
        <time>2021-06-20T11:02:42Z</time>
      </trkpt>
      <trkpt lat="42.170186" lon="1.122797">
        <ele>1185.613</ele>
        <time>2021-06-20T11:02:44Z</time>
      </trkpt>
      <trkpt lat="42.170145" lon="1.122764">
        <ele>1185.608</ele>
        <time>2021-06-20T11:02:45Z</time>
      </trkpt>
      <trkpt lat="42.170101" lon="1.122724">
        <ele>1185.240</ele>
        <time>2021-06-20T11:02:46Z</time>
      </trkpt>
      <trkpt lat="42.170037" lon="1.122562">
        <ele>1185.059</ele>
        <time>2021-06-20T11:02:49Z</time>
      </trkpt>
      <trkpt lat="42.170039" lon="1.122458">
        <ele>1184.686</ele>
        <time>2021-06-20T11:02:51Z</time>
      </trkpt>
      <trkpt lat="42.170059" lon="1.122377">
        <ele>1184.278</ele>
        <time>2021-06-20T11:02:53Z</time>
      </trkpt>
      <trkpt lat="42.170079" lon="1.122285">
        <ele>1183.672</ele>
        <time>2021-06-20T11:02:55Z</time>
      </trkpt>
      <trkpt lat="42.170101" lon="1.122131">
        <ele>1182.853</ele>
        <time>2021-06-20T11:02:58Z</time>
      </trkpt>
      <trkpt lat="42.170079" lon="1.122077">
        <ele>1182.893</ele>
        <time>2021-06-20T11:02:59Z</time>
      </trkpt>
      <trkpt lat="42.170017" lon="1.121940">
        <ele>1182.411</ele>
        <time>2021-06-20T11:03:01Z</time>
      </trkpt>
      <trkpt lat="42.169978" lon="1.121885">
        <ele>1182.267</ele>
        <time>2021-06-20T11:03:02Z</time>
      </trkpt>
      <trkpt lat="42.169903" lon="1.121760">
        <ele>1182.081</ele>
        <time>2021-06-20T11:03:04Z</time>
      </trkpt>
      <trkpt lat="42.169867" lon="1.121726">
        <ele>1181.819</ele>
        <time>2021-06-20T11:03:05Z</time>
      </trkpt>
      <trkpt lat="42.169741" lon="1.121615">
        <ele>1181.208</ele>
        <time>2021-06-20T11:03:09Z</time>
      </trkpt>
      <trkpt lat="42.169705" lon="1.121591">
        <ele>1180.853</ele>
        <time>2021-06-20T11:03:10Z</time>
      </trkpt>
      <trkpt lat="42.169641" lon="1.121554">
        <ele>1180.282</ele>
        <time>2021-06-20T11:03:12Z</time>
      </trkpt>
      <trkpt lat="42.169478" lon="1.121513">
        <ele>1179.689</ele>
        <time>2021-06-20T11:03:15Z</time>
      </trkpt>
      <trkpt lat="42.169409" lon="1.121480">
        <ele>1179.431</ele>
        <time>2021-06-20T11:03:16Z</time>
      </trkpt>
      <trkpt lat="42.169271" lon="1.121343">
        <ele>1179.055</ele>
        <time>2021-06-20T11:03:18Z</time>
      </trkpt>
      <trkpt lat="42.169199" lon="1.121181">
        <ele>1178.616</ele>
        <time>2021-06-20T11:03:20Z</time>
      </trkpt>
      <trkpt lat="42.169172" lon="1.121096">
        <ele>1178.646</ele>
        <time>2021-06-20T11:03:21Z</time>
      </trkpt>
      <trkpt lat="42.169083" lon="1.120768">
        <ele>1178.074</ele>
        <time>2021-06-20T11:03:25Z</time>
      </trkpt>
      <trkpt lat="42.169074" lon="1.120691">
        <ele>1177.673</ele>
        <time>2021-06-20T11:03:26Z</time>
      </trkpt>
      <trkpt lat="42.169071" lon="1.120626">
        <ele>1177.285</ele>
        <time>2021-06-20T11:03:27Z</time>
      </trkpt>
      <trkpt lat="42.169059" lon="1.120496">
        <ele>1177.013</ele>
        <time>2021-06-20T11:03:29Z</time>
      </trkpt>
      <trkpt lat="42.169047" lon="1.120433">
        <ele>1176.808</ele>
        <time>2021-06-20T11:03:30Z</time>
      </trkpt>
      <trkpt lat="42.169009" lon="1.120235">
        <ele>1176.494</ele>
        <time>2021-06-20T11:03:33Z</time>
      </trkpt>
      <trkpt lat="42.168971" lon="1.120092">
        <ele>1176.093</ele>
        <time>2021-06-20T11:03:35Z</time>
      </trkpt>
      <trkpt lat="42.168950" lon="1.119958">
        <ele>1175.480</ele>
        <time>2021-06-20T11:03:37Z</time>
      </trkpt>
      <trkpt lat="42.168923" lon="1.119727">
        <ele>1174.682</ele>
        <time>2021-06-20T11:03:40Z</time>
      </trkpt>
      <trkpt lat="42.168898" lon="1.119585">
        <ele>1174.246</ele>
        <time>2021-06-20T11:03:42Z</time>
      </trkpt>
      <trkpt lat="42.168853" lon="1.119416">
        <ele>1173.627</ele>
        <time>2021-06-20T11:03:44Z</time>
      </trkpt>
      <trkpt lat="42.168842" lon="1.119329">
        <ele>1173.497</ele>
        <time>2021-06-20T11:03:45Z</time>
      </trkpt>
      <trkpt lat="42.168820" lon="1.119167">
        <ele>1173.235</ele>
        <time>2021-06-20T11:03:47Z</time>
      </trkpt>
      <trkpt lat="42.168804" lon="1.119079">
        <ele>1173.088</ele>
        <time>2021-06-20T11:03:48Z</time>
      </trkpt>
      <trkpt lat="42.168795" lon="1.118908">
        <ele>1172.824</ele>
        <time>2021-06-20T11:03:50Z</time>
      </trkpt>
      <trkpt lat="42.168784" lon="1.118837">
        <ele>1172.626</ele>
        <time>2021-06-20T11:03:51Z</time>
      </trkpt>
      <trkpt lat="42.168765" lon="1.118682">
        <ele>1172.208</ele>
        <time>2021-06-20T11:03:53Z</time>
      </trkpt>
      <trkpt lat="42.168757" lon="1.118608">
        <ele>1172.285</ele>
        <time>2021-06-20T11:03:54Z</time>
      </trkpt>
      <trkpt lat="42.168734" lon="1.118520">
        <ele>1172.084</ele>
        <time>2021-06-20T11:03:55Z</time>
      </trkpt>
      <trkpt lat="42.168670" lon="1.118239">
        <ele>1171.651</ele>
        <time>2021-06-20T11:03:58Z</time>
      </trkpt>
      <trkpt lat="42.168647" lon="1.118166">
        <ele>1171.443</ele>
        <time>2021-06-20T11:03:59Z</time>
      </trkpt>
      <trkpt lat="42.168621" lon="1.118084">
        <ele>1171.097</ele>
        <time>2021-06-20T11:04:00Z</time>
      </trkpt>
      <trkpt lat="42.168598" lon="1.118014">
        <ele>1170.898</ele>
        <time>2021-06-20T11:04:01Z</time>
      </trkpt>
      <trkpt lat="42.168542" lon="1.117862">
        <ele>1170.428</ele>
        <time>2021-06-20T11:04:03Z</time>
      </trkpt>
      <trkpt lat="42.168502" lon="1.117801">
        <ele>1170.486</ele>
        <time>2021-06-20T11:04:04Z</time>
      </trkpt>
      <trkpt lat="42.168395" lon="1.117560">
        <ele>1169.428</ele>
        <time>2021-06-20T11:04:07Z</time>
      </trkpt>
      <trkpt lat="42.168353" lon="1.117482">
        <ele>1169.289</ele>
        <time>2021-06-20T11:04:08Z</time>
      </trkpt>
      <trkpt lat="42.168253" lon="1.117364">
        <ele>1169.017</ele>
        <time>2021-06-20T11:04:10Z</time>
      </trkpt>
      <trkpt lat="42.168157" lon="1.117256">
        <ele>1168.808</ele>
        <time>2021-06-20T11:04:12Z</time>
      </trkpt>
      <trkpt lat="42.168114" lon="1.117223">
        <ele>1168.699</ele>
        <time>2021-06-20T11:04:13Z</time>
      </trkpt>
      <trkpt lat="42.168072" lon="1.117186">
        <ele>1168.428</ele>
        <time>2021-06-20T11:04:14Z</time>
      </trkpt>
      <trkpt lat="42.168012" lon="1.117095">
        <ele>1168.025</ele>
        <time>2021-06-20T11:04:16Z</time>
      </trkpt>
      <trkpt lat="42.168007" lon="1.116977">
        <ele>1167.887</ele>
        <time>2021-06-20T11:04:18Z</time>
      </trkpt>
      <trkpt lat="42.168016" lon="1.116914">
        <ele>1167.631</ele>
        <time>2021-06-20T11:04:19Z</time>
      </trkpt>
      <trkpt lat="42.168064" lon="1.116792">
        <ele>1167.482</ele>
        <time>2021-06-20T11:04:21Z</time>
      </trkpt>
      <trkpt lat="42.168083" lon="1.116734">
        <ele>1167.242</ele>
        <time>2021-06-20T11:04:22Z</time>
      </trkpt>
      <trkpt lat="42.168105" lon="1.116684">
        <ele>1166.860</ele>
        <time>2021-06-20T11:04:23Z</time>
      </trkpt>
      <trkpt lat="42.168130" lon="1.116636">
        <ele>1166.665</ele>
        <time>2021-06-20T11:04:24Z</time>
      </trkpt>
      <trkpt lat="42.168218" lon="1.116499">
        <ele>1166.468</ele>
        <time>2021-06-20T11:04:27Z</time>
      </trkpt>
      <trkpt lat="42.168241" lon="1.116382">
        <ele>1166.014</ele>
        <time>2021-06-20T11:04:29Z</time>
      </trkpt>
      <trkpt lat="42.168235" lon="1.116137">
        <ele>1165.608</ele>
        <time>2021-06-20T11:04:34Z</time>
      </trkpt>
      <trkpt lat="42.168201" lon="1.115954">
        <ele>1164.873</ele>
        <time>2021-06-20T11:04:38Z</time>
      </trkpt>
      <trkpt lat="42.168182" lon="1.115848">
        <ele>1164.252</ele>
        <time>2021-06-20T11:04:40Z</time>
      </trkpt>
      <trkpt lat="42.168159" lon="1.115753">
        <ele>1163.859</ele>
        <time>2021-06-20T11:04:42Z</time>
      </trkpt>
      <trkpt lat="42.168122" lon="1.115635">
        <ele>1163.451</ele>
        <time>2021-06-20T11:04:45Z</time>
      </trkpt>
      <trkpt lat="42.168102" lon="1.115541">
        <ele>1163.085</ele>
        <time>2021-06-20T11:04:47Z</time>
      </trkpt>
      <trkpt lat="42.168079" lon="1.115317">
        <ele>1162.436</ele>
        <time>2021-06-20T11:04:51Z</time>
      </trkpt>
      <trkpt lat="42.168067" lon="1.115258">
        <ele>1162.216</ele>
        <time>2021-06-20T11:04:52Z</time>
      </trkpt>
      <trkpt lat="42.167963" lon="1.115030">
        <ele>1161.664</ele>
        <time>2021-06-20T11:04:56Z</time>
      </trkpt>
      <trkpt lat="42.167936" lon="1.114978">
        <ele>1161.652</ele>
        <time>2021-06-20T11:04:57Z</time>
      </trkpt>
      <trkpt lat="42.167866" lon="1.114641">
        <ele>1161.053</ele>
        <time>2021-06-20T11:05:01Z</time>
      </trkpt>
      <trkpt lat="42.167827" lon="1.114483">
        <ele>1160.808</ele>
        <time>2021-06-20T11:05:03Z</time>
      </trkpt>
      <trkpt lat="42.167790" lon="1.114363">
        <ele>1160.408</ele>
        <time>2021-06-20T11:05:05Z</time>
      </trkpt>
      <trkpt lat="42.167741" lon="1.114181">
        <ele>1160.262</ele>
        <time>2021-06-20T11:05:07Z</time>
      </trkpt>
      <trkpt lat="42.167621" lon="1.113759">
        <ele>1159.221</ele>
        <time>2021-06-20T11:05:11Z</time>
      </trkpt>
      <trkpt lat="42.167595" lon="1.113644">
        <ele>1159.418</ele>
        <time>2021-06-20T11:05:12Z</time>
      </trkpt>
      <trkpt lat="42.167504" lon="1.113324">
        <ele>1158.680</ele>
        <time>2021-06-20T11:05:16Z</time>
      </trkpt>
      <trkpt lat="42.167471" lon="1.113193">
        <ele>1158.434</ele>
        <time>2021-06-20T11:05:17Z</time>
      </trkpt>
      <trkpt lat="42.167396" lon="1.112855">
        <ele>1158.245</ele>
        <time>2021-06-20T11:05:20Z</time>
      </trkpt>
      <trkpt lat="42.167381" lon="1.112749">
        <ele>1158.065</ele>
        <time>2021-06-20T11:05:21Z</time>
      </trkpt>
      <trkpt lat="42.167369" lon="1.112657">
        <ele>1157.623</ele>
        <time>2021-06-20T11:05:22Z</time>
      </trkpt>
      <trkpt lat="42.167340" lon="1.112530">
        <ele>1157.249</ele>
        <time>2021-06-20T11:05:24Z</time>
      </trkpt>
      <trkpt lat="42.167321" lon="1.112483">
        <ele>1157.002</ele>
        <time>2021-06-20T11:05:25Z</time>
      </trkpt>
      <trkpt lat="42.167265" lon="1.112294">
        <ele>1156.422</ele>
        <time>2021-06-20T11:05:29Z</time>
      </trkpt>
      <trkpt lat="42.167258" lon="1.112244">
        <ele>1156.208</ele>
        <time>2021-06-20T11:05:30Z</time>
      </trkpt>
      <trkpt lat="42.167210" lon="1.112061">
        <ele>1155.821</ele>
        <time>2021-06-20T11:05:33Z</time>
      </trkpt>
      <trkpt lat="42.167176" lon="1.112023">
        <ele>1155.610</ele>
        <time>2021-06-20T11:05:34Z</time>
      </trkpt>
      <trkpt lat="42.167039" lon="1.111946">
        <ele>1155.457</ele>
        <time>2021-06-20T11:05:37Z</time>
      </trkpt>
      <trkpt lat="42.166984" lon="1.111937">
        <ele>1155.219</ele>
        <time>2021-06-20T11:05:38Z</time>
      </trkpt>
      <trkpt lat="42.166928" lon="1.111925">
        <ele>1155.263</ele>
        <time>2021-06-20T11:05:39Z</time>
      </trkpt>
      <trkpt lat="42.166873" lon="1.111903">
        <ele>1154.844</ele>
        <time>2021-06-20T11:05:40Z</time>
      </trkpt>
      <trkpt lat="42.166823" lon="1.111874">
        <ele>1154.874</ele>
        <time>2021-06-20T11:05:41Z</time>
      </trkpt>
      <trkpt lat="42.166711" lon="1.111827">
        <ele>1154.442</ele>
        <time>2021-06-20T11:05:43Z</time>
      </trkpt>
      <trkpt lat="42.166594" lon="1.111795">
        <ele>1154.291</ele>
        <time>2021-06-20T11:05:45Z</time>
      </trkpt>
      <trkpt lat="42.166545" lon="1.111774">
        <ele>1154.281</ele>
        <time>2021-06-20T11:05:46Z</time>
      </trkpt>
      <trkpt lat="42.166455" lon="1.111628">
        <ele>1153.419</ele>
        <time>2021-06-20T11:05:49Z</time>
      </trkpt>
      <trkpt lat="42.166441" lon="1.111427">
        <ele>1152.608</ele>
        <time>2021-06-20T11:05:53Z</time>
      </trkpt>
      <trkpt lat="42.166501" lon="1.111281">
        <ele>1152.286</ele>
        <time>2021-06-20T11:05:57Z</time>
      </trkpt>
      <trkpt lat="42.166517" lon="1.111247">
        <ele>1152.225</ele>
        <time>2021-06-20T11:05:58Z</time>
      </trkpt>
      <trkpt lat="42.166541" lon="1.111175">
        <ele>1152.042</ele>
        <time>2021-06-20T11:06:00Z</time>
      </trkpt>
      <trkpt lat="42.166564" lon="1.111028">
        <ele>1151.654</ele>
        <time>2021-06-20T11:06:04Z</time>
      </trkpt>
      <trkpt lat="42.166553" lon="1.110937">
        <ele>1151.428</ele>
        <time>2021-06-20T11:06:07Z</time>
      </trkpt>
      <trkpt lat="42.166536" lon="1.110881">
        <ele>1151.489</ele>
        <time>2021-06-20T11:06:09Z</time>
      </trkpt>
      <trkpt lat="42.166489" lon="1.110713">
        <ele>1151.059</ele>
        <time>2021-06-20T11:06:14Z</time>
      </trkpt>
      <trkpt lat="42.166476" lon="1.110668">
        <ele>1150.857</ele>
        <time>2021-06-20T11:06:15Z</time>
      </trkpt>
      <trkpt lat="42.166421" lon="1.110440">
        <ele>1150.699</ele>
        <time>2021-06-20T11:06:20Z</time>
      </trkpt>
      <trkpt lat="42.166376" lon="1.110315">
        <ele>1150.407</ele>
        <time>2021-06-20T11:06:23Z</time>
      </trkpt>
      <trkpt lat="42.166330" lon="1.110205">
        <ele>1150.027</ele>
        <time>2021-06-20T11:06:26Z</time>
      </trkpt>
      <trkpt lat="42.166314" lon="1.110172">
        <ele>1149.808</ele>
        <time>2021-06-20T11:06:27Z</time>
      </trkpt>
      <trkpt lat="42.166283" lon="1.110097">
        <ele>1149.446</ele>
        <time>2021-06-20T11:06:30Z</time>
      </trkpt>
      <trkpt lat="42.166252" lon="1.110034">
        <ele>1149.065</ele>
        <time>2021-06-20T11:06:32Z</time>
      </trkpt>
      <trkpt lat="42.166205" lon="1.109865">
        <ele>1148.822</ele>
        <time>2021-06-20T11:06:36Z</time>
      </trkpt>
      <trkpt lat="42.166191" lon="1.109772">
        <ele>1148.634</ele>
        <time>2021-06-20T11:06:38Z</time>
      </trkpt>
      <trkpt lat="42.166134" lon="1.109607">
        <ele>1148.478</ele>
        <time>2021-06-20T11:06:42Z</time>
      </trkpt>
      <trkpt lat="42.166069" lon="1.109520">
        <ele>1148.039</ele>
        <time>2021-06-20T11:06:45Z</time>
      </trkpt>
      <trkpt lat="42.165998" lon="1.109448">
        <ele>1148.099</ele>
        <time>2021-06-20T11:06:48Z</time>
      </trkpt>
      <trkpt lat="42.165889" lon="1.109404">
        <ele>1147.677</ele>
        <time>2021-06-20T11:06:52Z</time>
      </trkpt>
      <trkpt lat="42.165859" lon="1.109402">
        <ele>1147.625</ele>
        <time>2021-06-20T11:06:53Z</time>
      </trkpt>
      <trkpt lat="42.165727" lon="1.109421">
        <ele>1147.026</ele>
        <time>2021-06-20T11:06:57Z</time>
      </trkpt>
      <trkpt lat="42.165629" lon="1.109454">
        <ele>1146.808</ele>
        <time>2021-06-20T11:07:00Z</time>
      </trkpt>
      <trkpt lat="42.165537" lon="1.109501">
        <ele>1146.408</ele>
        <time>2021-06-20T11:07:03Z</time>
      </trkpt>
      <trkpt lat="42.165409" lon="1.109549">
        <ele>1146.219</ele>
        <time>2021-06-20T11:07:07Z</time>
      </trkpt>
      <trkpt lat="42.165322" lon="1.109452">
        <ele>1145.638</ele>
        <time>2021-06-20T11:07:11Z</time>
      </trkpt>
      <trkpt lat="42.165317" lon="1.109434">
        <ele>1145.645</ele>
        <time>2021-06-20T11:07:12Z</time>
      </trkpt>
      <trkpt lat="42.165305" lon="1.109354">
        <ele>1145.477</ele>
        <time>2021-06-20T11:07:15Z</time>
      </trkpt>
      <trkpt lat="42.165318" lon="1.109284">
        <ele>1145.291</ele>
        <time>2021-06-20T11:07:17Z</time>
      </trkpt>
      <trkpt lat="42.165334" lon="1.109185">
        <ele>1145.032</ele>
        <time>2021-06-20T11:07:19Z</time>
      </trkpt>
      <trkpt lat="42.165388" lon="1.108913">
        <ele>1144.842</ele>
        <time>2021-06-20T11:07:24Z</time>
      </trkpt>
      <trkpt lat="42.165413" lon="1.108854">
        <ele>1144.640</ele>
        <time>2021-06-20T11:07:25Z</time>
      </trkpt>
      <trkpt lat="42.165439" lon="1.108799">
        <ele>1144.628</ele>
        <time>2021-06-20T11:07:26Z</time>
      </trkpt>
      <trkpt lat="42.165467" lon="1.108644">
        <ele>1144.289</ele>
        <time>2021-06-20T11:07:28Z</time>
      </trkpt>
      <trkpt lat="42.165473" lon="1.108407">
        <ele>1144.017</ele>
        <time>2021-06-20T11:07:31Z</time>
      </trkpt>
      <trkpt lat="42.165462" lon="1.108165">
        <ele>1143.408</ele>
        <time>2021-06-20T11:07:35Z</time>
      </trkpt>
      <trkpt lat="42.165441" lon="1.108045">
        <ele>1143.299</ele>
        <time>2021-06-20T11:07:37Z</time>
      </trkpt>
      <trkpt lat="42.165406" lon="1.107939">
        <ele>1143.278</ele>
        <time>2021-06-20T11:07:39Z</time>
      </trkpt>
      <trkpt lat="42.165389" lon="1.107881">
        <ele>1143.235</ele>
        <time>2021-06-20T11:07:40Z</time>
      </trkpt>
      <trkpt lat="42.165315" lon="1.107609">
        <ele>1142.827</ele>
        <time>2021-06-20T11:07:43Z</time>
      </trkpt>
      <trkpt lat="42.165292" lon="1.107538">
        <ele>1142.631</ele>
        <time>2021-06-20T11:07:44Z</time>
      </trkpt>
      <trkpt lat="42.165259" lon="1.107245">
        <ele>1142.242</ele>
        <time>2021-06-20T11:07:49Z</time>
      </trkpt>
      <trkpt lat="42.165248" lon="1.107033">
        <ele>1142.032</ele>
        <time>2021-06-20T11:07:52Z</time>
      </trkpt>
      <trkpt lat="42.165237" lon="1.106839">
        <ele>1141.610</ele>
        <time>2021-06-20T11:07:54Z</time>
      </trkpt>
      <trkpt lat="42.165242" lon="1.106775">
        <ele>1141.483</ele>
        <time>2021-06-20T11:07:55Z</time>
      </trkpt>
      <trkpt lat="42.165278" lon="1.106466">
        <ele>1141.025</ele>
        <time>2021-06-20T11:07:59Z</time>
      </trkpt>
      <trkpt lat="42.165272" lon="1.106377">
        <ele>1141.017</ele>
        <time>2021-06-20T11:08:00Z</time>
      </trkpt>
      <trkpt lat="42.165282" lon="1.106089">
        <ele>1140.608</ele>
        <time>2021-06-20T11:08:04Z</time>
      </trkpt>
      <trkpt lat="42.165281" lon="1.105845">
        <ele>1140.085</ele>
        <time>2021-06-20T11:08:07Z</time>
      </trkpt>
      <trkpt lat="42.165293" lon="1.105708">
        <ele>1139.614</ele>
        <time>2021-06-20T11:08:09Z</time>
      </trkpt>
      <trkpt lat="42.165293" lon="1.105411">
        <ele>1139.481</ele>
        <time>2021-06-20T11:08:13Z</time>
      </trkpt>
      <trkpt lat="42.165284" lon="1.105329">
        <ele>1139.493</ele>
        <time>2021-06-20T11:08:14Z</time>
      </trkpt>
      <trkpt lat="42.165284" lon="1.105244">
        <ele>1139.277</ele>
        <time>2021-06-20T11:08:15Z</time>
      </trkpt>
      <trkpt lat="42.165282" lon="1.104818">
        <ele>1138.628</ele>
        <time>2021-06-20T11:08:19Z</time>
      </trkpt>
      <trkpt lat="42.165284" lon="1.104719">
        <ele>1138.418</ele>
        <time>2021-06-20T11:08:20Z</time>
      </trkpt>
      <trkpt lat="42.165282" lon="1.104420">
        <ele>1138.446</ele>
        <time>2021-06-20T11:08:23Z</time>
      </trkpt>
      <trkpt lat="42.165295" lon="1.104235">
        <ele>1138.253</ele>
        <time>2021-06-20T11:08:25Z</time>
      </trkpt>
      <trkpt lat="42.165300" lon="1.104132">
        <ele>1138.004</ele>
        <time>2021-06-20T11:08:26Z</time>
      </trkpt>
      <trkpt lat="42.165337" lon="1.103547">
        <ele>1137.614</ele>
        <time>2021-06-20T11:08:32Z</time>
      </trkpt>
      <trkpt lat="42.165273" lon="1.103213">
        <ele>1137.208</ele>
        <time>2021-06-20T11:08:36Z</time>
      </trkpt>
      <trkpt lat="42.165083" lon="1.103021">
        <ele>1136.812</ele>
        <time>2021-06-20T11:08:40Z</time>
      </trkpt>
      <trkpt lat="42.164963" lon="1.102976">
        <ele>1136.481</ele>
        <time>2021-06-20T11:08:42Z</time>
      </trkpt>
      <trkpt lat="42.164905" lon="1.102953">
        <ele>1136.218</ele>
        <time>2021-06-20T11:08:43Z</time>
      </trkpt>
      <trkpt lat="42.164858" lon="1.102925">
        <ele>1136.050</ele>
        <time>2021-06-20T11:08:44Z</time>
      </trkpt>
      <trkpt lat="42.164813" lon="1.102891">
        <ele>1136.094</ele>
        <time>2021-06-20T11:08:45Z</time>
      </trkpt>
      <trkpt lat="42.164693" lon="1.102740">
        <ele>1135.645</ele>
        <time>2021-06-20T11:08:48Z</time>
      </trkpt>
      <trkpt lat="42.164656" lon="1.102673">
        <ele>1135.475</ele>
        <time>2021-06-20T11:08:49Z</time>
      </trkpt>
      <trkpt lat="42.164625" lon="1.102610">
        <ele>1135.463</ele>
        <time>2021-06-20T11:08:50Z</time>
      </trkpt>
      <trkpt lat="42.164534" lon="1.102407">
        <ele>1135.261</ele>
        <time>2021-06-20T11:08:53Z</time>
      </trkpt>
      <trkpt lat="42.164439" lon="1.102295">
        <ele>1135.021</ele>
        <time>2021-06-20T11:08:55Z</time>
      </trkpt>
      <trkpt lat="42.164386" lon="1.102260">
        <ele>1134.613</ele>
        <time>2021-06-20T11:08:56Z</time>
      </trkpt>
      <trkpt lat="42.164330" lon="1.102234">
        <ele>1134.608</ele>
        <time>2021-06-20T11:08:57Z</time>
      </trkpt>
      <trkpt lat="42.164170" lon="1.102196">
        <ele>1134.263</ele>
        <time>2021-06-20T11:09:00Z</time>
      </trkpt>
      <trkpt lat="42.164115" lon="1.102177">
        <ele>1134.022</ele>
        <time>2021-06-20T11:09:01Z</time>
      </trkpt>
      <trkpt lat="42.164056" lon="1.102154">
        <ele>1133.889</ele>
        <time>2021-06-20T11:09:02Z</time>
      </trkpt>
      <trkpt lat="42.164001" lon="1.102122">
        <ele>1133.881</ele>
        <time>2021-06-20T11:09:03Z</time>
      </trkpt>
      <trkpt lat="42.163855" lon="1.101971">
        <ele>1133.425</ele>
        <time>2021-06-20T11:09:06Z</time>
      </trkpt>
      <trkpt lat="42.163771" lon="1.101839">
        <ele>1133.496</ele>
        <time>2021-06-20T11:09:08Z</time>
      </trkpt>
      <trkpt lat="42.163665" lon="1.101780">
        <ele>1133.216</ele>
        <time>2021-06-20T11:09:10Z</time>
      </trkpt>
      <trkpt lat="42.163553" lon="1.101828">
        <ele>1133.014</ele>
        <time>2021-06-20T11:09:12Z</time>
      </trkpt>
      <trkpt lat="42.163495" lon="1.101847">
        <ele>1133.025</ele>
        <time>2021-06-20T11:09:13Z</time>
      </trkpt>
      <trkpt lat="42.163443" lon="1.101855">
        <ele>1133.026</ele>
        <time>2021-06-20T11:09:14Z</time>
      </trkpt>
      <trkpt lat="42.163342" lon="1.101785">
        <ele>1132.408</ele>
        <time>2021-06-20T11:09:16Z</time>
      </trkpt>
      <trkpt lat="42.163287" lon="1.101662">
        <ele>1132.008</ele>
        <time>2021-06-20T11:09:18Z</time>
      </trkpt>
      <trkpt lat="42.163264" lon="1.101587">
        <ele>1132.079</ele>
        <time>2021-06-20T11:09:19Z</time>
      </trkpt>
      <trkpt lat="42.163228" lon="1.101502">
        <ele>1131.838</ele>
        <time>2021-06-20T11:09:20Z</time>
      </trkpt>
      <trkpt lat="42.163107" lon="1.101292">
        <ele>1131.865</ele>
        <time>2021-06-20T11:09:22Z</time>
      </trkpt>
      <trkpt lat="42.163088" lon="1.101218">
        <ele>1131.427</ele>
        <time>2021-06-20T11:09:24Z</time>
      </trkpt>
      <trkpt lat="42.163076" lon="1.101149">
        <ele>1131.241</ele>
        <time>2021-06-20T11:09:25Z</time>
      </trkpt>
      <trkpt lat="42.163061" lon="1.101024">
        <ele>1130.662</ele>
        <time>2021-06-20T11:09:27Z</time>
      </trkpt>
      <trkpt lat="42.163034" lon="1.100949">
        <ele>1130.612</ele>
        <time>2021-06-20T11:09:28Z</time>
      </trkpt>
      <trkpt lat="42.162955" lon="1.100817">
        <ele>1130.250</ele>
        <time>2021-06-20T11:09:30Z</time>
      </trkpt>
      <trkpt lat="42.162875" lon="1.100647">
        <ele>1130.083</ele>
        <time>2021-06-20T11:09:33Z</time>
      </trkpt>
      <trkpt lat="42.162846" lon="1.100524">
        <ele>1129.825</ele>
        <time>2021-06-20T11:09:36Z</time>
      </trkpt>
      <trkpt lat="42.162834" lon="1.100500">
        <ele>1129.817</ele>
        <time>2021-06-20T11:09:37Z</time>
      </trkpt>
      <trkpt lat="42.162811" lon="1.100485">
        <ele>1129.608</ele>
        <time>2021-06-20T11:09:39Z</time>
      </trkpt>
      <trkpt lat="42.162795" lon="1.100467">
        <ele>1129.665</ele>
        <time>2021-06-20T11:09:40Z</time>
      </trkpt>
      <trkpt lat="42.162792" lon="1.100454">
        <ele>1129.014</ele>
        <time>2021-06-20T11:09:41Z</time>
      </trkpt>
      <trkpt lat="42.162797" lon="1.100398">
        <ele>1128.261</ele>
        <time>2021-06-20T11:09:45Z</time>
      </trkpt>
      <trkpt lat="42.162805" lon="1.100372">
        <ele>1126.893</ele>
        <time>2021-06-20T11:09:47Z</time>
      </trkpt>
      <trkpt lat="42.162808" lon="1.100366">
        <ele>1126.627</ele>
        <time>2021-06-20T11:09:48Z</time>
      </trkpt>
      <trkpt lat="42.162810" lon="1.100209">
        <ele>1120.488</ele>
        <time>2021-06-20T11:10:17Z</time>
      </trkpt>
      <trkpt lat="42.162828" lon="1.100150">
        <ele>1120.088</ele>
        <time>2021-06-20T11:10:19Z</time>
      </trkpt>
      <trkpt lat="42.162846" lon="1.100063">
        <ele>1119.666</ele>
        <time>2021-06-20T11:10:21Z</time>
      </trkpt>
      <trkpt lat="42.162875" lon="1.099940">
        <ele>1118.818</ele>
        <time>2021-06-20T11:10:24Z</time>
      </trkpt>
      <trkpt lat="42.162892" lon="1.099905">
        <ele>1118.498</ele>
        <time>2021-06-20T11:10:25Z</time>
      </trkpt>
      <trkpt lat="42.162915" lon="1.099807">
        <ele>1117.817</ele>
        <time>2021-06-20T11:10:28Z</time>
      </trkpt>
      <trkpt lat="42.162906" lon="1.099689">
        <ele>1117.008</ele>
        <time>2021-06-20T11:10:31Z</time>
      </trkpt>
      <trkpt lat="42.162902" lon="1.099642">
        <ele>1116.658</ele>
        <time>2021-06-20T11:10:32Z</time>
      </trkpt>
      <trkpt lat="42.162889" lon="1.099447">
        <ele>1116.037</ele>
        <time>2021-06-20T11:10:35Z</time>
      </trkpt>
      <trkpt lat="42.162880" lon="1.099370">
        <ele>1115.864</ele>
        <time>2021-06-20T11:10:36Z</time>
      </trkpt>
      <trkpt lat="42.162835" lon="1.099106">
        <ele>1115.296</ele>
        <time>2021-06-20T11:10:39Z</time>
      </trkpt>
      <trkpt lat="42.162822" lon="1.099011">
        <ele>1115.030</ele>
        <time>2021-06-20T11:10:40Z</time>
      </trkpt>
      <trkpt lat="42.162823" lon="1.098919">
        <ele>1115.021</ele>
        <time>2021-06-20T11:10:41Z</time>
      </trkpt>
      <trkpt lat="42.162837" lon="1.098755">
        <ele>1114.481</ele>
        <time>2021-06-20T11:10:43Z</time>
      </trkpt>
      <trkpt lat="42.162845" lon="1.098676">
        <ele>1114.289</ele>
        <time>2021-06-20T11:10:44Z</time>
      </trkpt>
      <trkpt lat="42.162850" lon="1.098600">
        <ele>1114.263</ele>
        <time>2021-06-20T11:10:45Z</time>
      </trkpt>
      <trkpt lat="42.162849" lon="1.098532">
        <ele>1114.044</ele>
        <time>2021-06-20T11:10:46Z</time>
      </trkpt>
      <trkpt lat="42.162825" lon="1.098373">
        <ele>1114.018</ele>
        <time>2021-06-20T11:10:49Z</time>
      </trkpt>
      <trkpt lat="42.162809" lon="1.098289">
        <ele>1113.808</ele>
        <time>2021-06-20T11:10:51Z</time>
      </trkpt>
      <trkpt lat="42.162774" lon="1.098202">
        <ele>1113.863</ele>
        <time>2021-06-20T11:10:54Z</time>
      </trkpt>
      <trkpt lat="42.162746" lon="1.098056">
        <ele>1113.882</ele>
        <time>2021-06-20T11:11:00Z</time>
      </trkpt>
      <trkpt lat="42.162732" lon="1.098014">
        <ele>1113.669</ele>
        <time>2021-06-20T11:11:02Z</time>
      </trkpt>
      <trkpt lat="42.162711" lon="1.097943">
        <ele>1113.621</ele>
        <time>2021-06-20T11:11:05Z</time>
      </trkpt>
      <trkpt lat="42.162648" lon="1.097839">
        <ele>1113.675</ele>
        <time>2021-06-20T11:11:10Z</time>
      </trkpt>
      <trkpt lat="42.162611" lon="1.097813">
        <ele>1113.616</ele>
        <time>2021-06-20T11:11:12Z</time>
      </trkpt>
      <trkpt lat="42.162463" lon="1.097713">
        <ele>1113.416</ele>
        <time>2021-06-20T11:11:18Z</time>
      </trkpt>
      <trkpt lat="42.162419" lon="1.097661">
        <ele>1113.214</ele>
        <time>2021-06-20T11:11:20Z</time>
      </trkpt>
      <trkpt lat="42.162359" lon="1.097517">
        <ele>1113.056</ele>
        <time>2021-06-20T11:11:23Z</time>
      </trkpt>
      <trkpt lat="42.162287" lon="1.097282">
        <ele>1112.859</ele>
        <time>2021-06-20T11:11:27Z</time>
      </trkpt>
      <trkpt lat="42.162266" lon="1.097238">
        <ele>1112.614</ele>
        <time>2021-06-20T11:11:28Z</time>
      </trkpt>
      <trkpt lat="42.162210" lon="1.097142">
        <ele>1112.408</ele>
        <time>2021-06-20T11:11:32Z</time>
      </trkpt>
      <trkpt lat="42.162196" lon="1.097099">
        <ele>1112.252</ele>
        <time>2021-06-20T11:11:34Z</time>
      </trkpt>
      <trkpt lat="42.162188" lon="1.097080">
        <ele>1112.291</ele>
        <time>2021-06-20T11:11:35Z</time>
      </trkpt>
      <trkpt lat="42.162143" lon="1.097030">
        <ele>1111.438</ele>
        <time>2021-06-20T11:11:38Z</time>
      </trkpt>
      <trkpt lat="42.162054" lon="1.096962">
        <ele>1111.060</ele>
        <time>2021-06-20T11:11:43Z</time>
      </trkpt>
      <trkpt lat="42.162002" lon="1.096928">
        <ele>1110.644</ele>
        <time>2021-06-20T11:11:46Z</time>
      </trkpt>
      <trkpt lat="42.161954" lon="1.096886">
        <ele>1110.445</ele>
        <time>2021-06-20T11:11:49Z</time>
      </trkpt>
      <trkpt lat="42.161910" lon="1.096871">
        <ele>1109.815</ele>
        <time>2021-06-20T11:11:52Z</time>
      </trkpt>
      <trkpt lat="42.161902" lon="1.096863">
        <ele>1109.643</ele>
        <time>2021-06-20T11:11:53Z</time>
      </trkpt>
      <trkpt lat="42.161901" lon="1.096850">
        <ele>1109.424</ele>
        <time>2021-06-20T11:11:55Z</time>
      </trkpt>
      <trkpt lat="42.161845" lon="1.096945">
        <ele>1096.404</ele>
        <time>2021-06-20T11:15:11Z</time>
      </trkpt>
      <trkpt lat="42.161756" lon="1.097056">
        <ele>1095.814</ele>
        <time>2021-06-20T11:15:17Z</time>
      </trkpt>
      <trkpt lat="42.161648" lon="1.097206">
        <ele>1095.208</ele>
        <time>2021-06-20T11:15:25Z</time>
      </trkpt>
      <trkpt lat="42.161632" lon="1.097227">
        <ele>1095.279</ele>
        <time>2021-06-20T11:15:26Z</time>
      </trkpt>
      <trkpt lat="42.161553" lon="1.097361">
        <ele>1094.658</ele>
        <time>2021-06-20T11:15:32Z</time>
      </trkpt>
      <trkpt lat="42.161541" lon="1.097387">
        <ele>1094.885</ele>
        <time>2021-06-20T11:15:33Z</time>
      </trkpt>
      <trkpt lat="42.161461" lon="1.097545">
        <ele>1094.057</ele>
        <time>2021-06-20T11:15:40Z</time>
      </trkpt>
      <trkpt lat="42.161409" lon="1.097747">
        <ele>1093.851</ele>
        <time>2021-06-20T11:15:46Z</time>
      </trkpt>
      <trkpt lat="42.161402" lon="1.097899">
        <ele>1093.622</ele>
        <time>2021-06-20T11:15:49Z</time>
      </trkpt>
      <trkpt lat="42.161387" lon="1.097959">
        <ele>1093.612</ele>
        <time>2021-06-20T11:15:50Z</time>
      </trkpt>
      <trkpt lat="42.161308" lon="1.098148">
        <ele>1093.640</ele>
        <time>2021-06-20T11:15:53Z</time>
      </trkpt>
      <trkpt lat="42.161247" lon="1.098270">
        <ele>1093.659</ele>
        <time>2021-06-20T11:15:55Z</time>
      </trkpt>
      <trkpt lat="42.161223" lon="1.098339">
        <ele>1093.603</ele>
        <time>2021-06-20T11:15:56Z</time>
      </trkpt>
      <trkpt lat="42.161145" lon="1.098567">
        <ele>1093.423</ele>
        <time>2021-06-20T11:15:59Z</time>
      </trkpt>
      <trkpt lat="42.161109" lon="1.098635">
        <ele>1093.608</ele>
        <time>2021-06-20T11:16:00Z</time>
      </trkpt>
      <trkpt lat="42.160873" lon="1.098787">
        <ele>1093.882</ele>
        <time>2021-06-20T11:16:03Z</time>
      </trkpt>
      <trkpt lat="42.160873" lon="1.098787">
        <ele>1093.631</ele>
        <time>2021-06-20T11:16:04Z</time>
      </trkpt>
      <trkpt lat="42.160747" lon="1.098852">
        <ele>1093.678</ele>
        <time>2021-06-20T11:16:05Z</time>
      </trkpt>
      <trkpt lat="42.160685" lon="1.098896">
        <ele>1093.670</ele>
        <time>2021-06-20T11:16:07Z</time>
      </trkpt>
      <trkpt lat="42.160557" lon="1.098971">
        <ele>1093.614</ele>
        <time>2021-06-20T11:16:09Z</time>
      </trkpt>
      <trkpt lat="42.160377" lon="1.098926">
        <ele>1093.635</ele>
        <time>2021-06-20T11:16:12Z</time>
      </trkpt>
      <trkpt lat="42.160329" lon="1.098893">
        <ele>1093.485</ele>
        <time>2021-06-20T11:16:13Z</time>
      </trkpt>
      <trkpt lat="42.160193" lon="1.098798">
        <ele>1093.433</ele>
        <time>2021-06-20T11:16:16Z</time>
      </trkpt>
      <trkpt lat="42.160144" lon="1.098779">
        <ele>1093.482</ele>
        <time>2021-06-20T11:16:17Z</time>
      </trkpt>
      <trkpt lat="42.159990" lon="1.098783">
        <ele>1093.443</ele>
        <time>2021-06-20T11:16:20Z</time>
      </trkpt>
      <trkpt lat="42.159935" lon="1.098785">
        <ele>1093.217</ele>
        <time>2021-06-20T11:16:21Z</time>
      </trkpt>
      <trkpt lat="42.159880" lon="1.098785">
        <ele>1093.208</ele>
        <time>2021-06-20T11:16:22Z</time>
      </trkpt>
      <trkpt lat="42.159528" lon="1.098719">
        <ele>1093.445</ele>
        <time>2021-06-20T11:16:28Z</time>
      </trkpt>
      <trkpt lat="42.159364" lon="1.098643">
        <ele>1093.484</ele>
        <time>2021-06-20T11:16:31Z</time>
      </trkpt>
      <trkpt lat="42.159277" lon="1.098568">
        <ele>1093.471</ele>
        <time>2021-06-20T11:16:33Z</time>
      </trkpt>
      <trkpt lat="42.159239" lon="1.098537">
        <ele>1093.473</ele>
        <time>2021-06-20T11:16:34Z</time>
      </trkpt>
      <trkpt lat="42.159092" lon="1.098465">
        <ele>1093.467</ele>
        <time>2021-06-20T11:16:38Z</time>
      </trkpt>
      <trkpt lat="42.158864" lon="1.098481">
        <ele>1093.678</ele>
        <time>2021-06-20T11:16:43Z</time>
      </trkpt>
      <trkpt lat="42.158759" lon="1.098501">
        <ele>1093.688</ele>
        <time>2021-06-20T11:16:45Z</time>
      </trkpt>
      <trkpt lat="42.158704" lon="1.098521">
        <ele>1093.416</ele>
        <time>2021-06-20T11:16:46Z</time>
      </trkpt>
      <trkpt lat="42.158588" lon="1.098567">
        <ele>1093.653</ele>
        <time>2021-06-20T11:16:48Z</time>
      </trkpt>
      <trkpt lat="42.158226" lon="1.098752">
        <ele>1093.604</ele>
        <time>2021-06-20T11:16:54Z</time>
      </trkpt>
      <trkpt lat="42.158091" lon="1.098795">
        <ele>1093.414</ele>
        <time>2021-06-20T11:16:56Z</time>
      </trkpt>
      <trkpt lat="42.157955" lon="1.098773">
        <ele>1093.408</ele>
        <time>2021-06-20T11:16:58Z</time>
      </trkpt>
      <trkpt lat="42.157840" lon="1.098698">
        <ele>1093.272</ele>
        <time>2021-06-20T11:17:00Z</time>
      </trkpt>
      <trkpt lat="42.157796" lon="1.098641">
        <ele>1093.211</ele>
        <time>2021-06-20T11:17:01Z</time>
      </trkpt>
      <trkpt lat="42.157718" lon="1.098412">
        <ele>1093.018</ele>
        <time>2021-06-20T11:17:04Z</time>
      </trkpt>
      <trkpt lat="42.157698" lon="1.098236">
        <ele>1093.010</ele>
        <time>2021-06-20T11:17:06Z</time>
      </trkpt>
      <trkpt lat="42.157680" lon="1.098156">
        <ele>1093.024</ele>
        <time>2021-06-20T11:17:07Z</time>
      </trkpt>
      <trkpt lat="42.157653" lon="1.098092">
        <ele>1093.065</ele>
        <time>2021-06-20T11:17:08Z</time>
      </trkpt>
      <trkpt lat="42.157570" lon="1.098052">
        <ele>1093.075</ele>
        <time>2021-06-20T11:17:10Z</time>
      </trkpt>
      <trkpt lat="42.157481" lon="1.098126">
        <ele>1092.833</ele>
        <time>2021-06-20T11:17:12Z</time>
      </trkpt>
      <trkpt lat="42.157434" lon="1.098179">
        <ele>1093.083</ele>
        <time>2021-06-20T11:17:13Z</time>
      </trkpt>
      <trkpt lat="42.157383" lon="1.098231">
        <ele>1092.825</ele>
        <time>2021-06-20T11:17:14Z</time>
      </trkpt>
      <trkpt lat="42.157325" lon="1.098282">
        <ele>1092.817</ele>
        <time>2021-06-20T11:17:15Z</time>
      </trkpt>
      <trkpt lat="42.157200" lon="1.098368">
        <ele>1092.808</ele>
        <time>2021-06-20T11:17:17Z</time>
      </trkpt>
      <trkpt lat="42.156888" lon="1.098486">
        <ele>1092.665</ele>
        <time>2021-06-20T11:17:22Z</time>
      </trkpt>
      <trkpt lat="42.156709" lon="1.098440">
        <ele>1092.434</ele>
        <time>2021-06-20T11:17:25Z</time>
      </trkpt>
      <trkpt lat="42.156660" lon="1.098407">
        <ele>1092.471</ele>
        <time>2021-06-20T11:17:26Z</time>
      </trkpt>
      <trkpt lat="42.156489" lon="1.098262">
        <ele>1092.073</ele>
        <time>2021-06-20T11:17:30Z</time>
      </trkpt>
      <trkpt lat="42.156320" lon="1.098260">
        <ele>1092.047</ele>
        <time>2021-06-20T11:17:34Z</time>
      </trkpt>
      <trkpt lat="42.156279" lon="1.098360">
        <ele>1092.068</ele>
        <time>2021-06-20T11:17:36Z</time>
      </trkpt>
      <trkpt lat="42.156269" lon="1.098420">
        <ele>1091.868</ele>
        <time>2021-06-20T11:17:37Z</time>
      </trkpt>
      <trkpt lat="42.156162" lon="1.098912">
        <ele>1091.886</ele>
        <time>2021-06-20T11:17:45Z</time>
      </trkpt>
      <trkpt lat="42.156131" lon="1.099045">
        <ele>1091.634</ele>
        <time>2021-06-20T11:17:47Z</time>
      </trkpt>
      <trkpt lat="42.156033" lon="1.099416">
        <ele>1091.655</ele>
        <time>2021-06-20T11:17:52Z</time>
      </trkpt>
      <trkpt lat="42.155867" lon="1.099697">
        <ele>1091.210</ele>
        <time>2021-06-20T11:17:56Z</time>
      </trkpt>
      <trkpt lat="42.155810" lon="1.099753">
        <ele>1091.208</ele>
        <time>2021-06-20T11:17:57Z</time>
      </trkpt>
      <trkpt lat="42.155750" lon="1.099804">
        <ele>1091.260</ele>
        <time>2021-06-20T11:17:58Z</time>
      </trkpt>
      <trkpt lat="42.155576" lon="1.099984">
        <ele>1090.889</ele>
        <time>2021-06-20T11:18:01Z</time>
      </trkpt>
      <trkpt lat="42.155371" lon="1.100395">
        <ele>1090.816</ele>
        <time>2021-06-20T11:18:06Z</time>
      </trkpt>
      <trkpt lat="42.155329" lon="1.100464">
        <ele>1090.678</ele>
        <time>2021-06-20T11:18:07Z</time>
      </trkpt>
      <trkpt lat="42.155226" lon="1.100553">
        <ele>1090.422</ele>
        <time>2021-06-20T11:18:09Z</time>
      </trkpt>
      <trkpt lat="42.155070" lon="1.100549">
        <ele>1090.433</ele>
        <time>2021-06-20T11:18:12Z</time>
      </trkpt>
      <trkpt lat="42.154978" lon="1.100399">
        <ele>1090.043</ele>
        <time>2021-06-20T11:18:15Z</time>
      </trkpt>
      <trkpt lat="42.154967" lon="1.100325">
        <ele>1089.811</ele>
        <time>2021-06-20T11:18:16Z</time>
      </trkpt>
      <trkpt lat="42.154965" lon="1.100101">
        <ele>1089.869</ele>
        <time>2021-06-20T11:18:19Z</time>
      </trkpt>
      <trkpt lat="42.154975" lon="1.099960">
        <ele>1089.604</ele>
        <time>2021-06-20T11:18:21Z</time>
      </trkpt>
      <trkpt lat="42.154966" lon="1.099739">
        <ele>1089.424</ele>
        <time>2021-06-20T11:18:24Z</time>
      </trkpt>
      <trkpt lat="42.154959" lon="1.099577">
        <ele>1089.608</ele>
        <time>2021-06-20T11:18:26Z</time>
      </trkpt>
      <trkpt lat="42.154967" lon="1.099422">
        <ele>1089.233</ele>
        <time>2021-06-20T11:18:28Z</time>
      </trkpt>
      <trkpt lat="42.154970" lon="1.099339">
        <ele>1089.462</ele>
        <time>2021-06-20T11:18:29Z</time>
      </trkpt>
      <trkpt lat="42.154970" lon="1.098867">
        <ele>1089.049</ele>
        <time>2021-06-20T11:18:34Z</time>
      </trkpt>
      <trkpt lat="42.154928" lon="1.098453">
        <ele>1088.821</ele>
        <time>2021-06-20T11:18:38Z</time>
      </trkpt>
      <trkpt lat="42.154907" lon="1.098236">
        <ele>1088.845</ele>
        <time>2021-06-20T11:18:40Z</time>
      </trkpt>
      <trkpt lat="42.154874" lon="1.098010">
        <ele>1088.036</ele>
        <time>2021-06-20T11:18:42Z</time>
      </trkpt>
      <trkpt lat="42.154809" lon="1.097667">
        <ele>1087.666</ele>
        <time>2021-06-20T11:18:45Z</time>
      </trkpt>
      <trkpt lat="42.154792" lon="1.097545">
        <ele>1087.664</ele>
        <time>2021-06-20T11:18:46Z</time>
      </trkpt>
      <trkpt lat="42.154767" lon="1.097315">
        <ele>1087.471</ele>
        <time>2021-06-20T11:18:48Z</time>
      </trkpt>
      <trkpt lat="42.154761" lon="1.097206">
        <ele>1087.241</ele>
        <time>2021-06-20T11:18:49Z</time>
      </trkpt>
      <trkpt lat="42.154763" lon="1.096778">
        <ele>1086.615</ele>
        <time>2021-06-20T11:18:53Z</time>
      </trkpt>
      <trkpt lat="42.154777" lon="1.096572">
        <ele>1086.408</ele>
        <time>2021-06-20T11:18:55Z</time>
      </trkpt>
      <trkpt lat="42.154793" lon="1.096474">
        <ele>1086.434</ele>
        <time>2021-06-20T11:18:56Z</time>
      </trkpt>
      <trkpt lat="42.154828" lon="1.096167">
        <ele>1086.463</ele>
        <time>2021-06-20T11:18:59Z</time>
      </trkpt>
      <trkpt lat="42.154815" lon="1.095784">
        <ele>1086.020</ele>
        <time>2021-06-20T11:19:03Z</time>
      </trkpt>
      <trkpt lat="42.154804" lon="1.095713">
        <ele>1086.052</ele>
        <time>2021-06-20T11:19:04Z</time>
      </trkpt>
      <trkpt lat="42.154788" lon="1.095493">
        <ele>1085.896</ele>
        <time>2021-06-20T11:19:08Z</time>
      </trkpt>
      <trkpt lat="42.154791" lon="1.095262">
        <ele>1085.687</ele>
        <time>2021-06-20T11:19:11Z</time>
      </trkpt>
      <trkpt lat="42.154794" lon="1.095169">
        <ele>1085.647</ele>
        <time>2021-06-20T11:19:12Z</time>
      </trkpt>
      <trkpt lat="42.154835" lon="1.094723">
        <ele>1085.635</ele>
        <time>2021-06-20T11:19:16Z</time>
      </trkpt>
      <trkpt lat="42.154926" lon="1.094061">
        <ele>1085.452</ele>
        <time>2021-06-20T11:19:21Z</time>
      </trkpt>
      <trkpt lat="42.154997" lon="1.093679">
        <ele>1085.453</ele>
        <time>2021-06-20T11:19:24Z</time>
      </trkpt>
      <trkpt lat="42.155054" lon="1.093453">
        <ele>1085.208</ele>
        <time>2021-06-20T11:19:26Z</time>
      </trkpt>
      <trkpt lat="42.155191" lon="1.092873">
        <ele>1084.408</ele>
        <time>2021-06-20T11:19:31Z</time>
      </trkpt>
      <trkpt lat="42.155219" lon="1.092753">
        <ele>1084.422</ele>
        <time>2021-06-20T11:19:32Z</time>
      </trkpt>
      <trkpt lat="42.155307" lon="1.092416">
        <ele>1084.041</ele>
        <time>2021-06-20T11:19:35Z</time>
      </trkpt>
      <trkpt lat="42.155332" lon="1.092205">
        <ele>1083.878</ele>
        <time>2021-06-20T11:19:37Z</time>
      </trkpt>
      <trkpt lat="42.155291" lon="1.091792">
        <ele>1083.290</ele>
        <time>2021-06-20T11:19:41Z</time>
      </trkpt>
      <trkpt lat="42.155229" lon="1.091588">
        <ele>1083.014</ele>
        <time>2021-06-20T11:19:43Z</time>
      </trkpt>
      <trkpt lat="42.155130" lon="1.091407">
        <ele>1082.455</ele>
        <time>2021-06-20T11:19:45Z</time>
      </trkpt>
      <trkpt lat="42.155008" lon="1.091243">
        <ele>1082.265</ele>
        <time>2021-06-20T11:19:47Z</time>
      </trkpt>
      <trkpt lat="42.154837" lon="1.090972">
        <ele>1081.693</ele>
        <time>2021-06-20T11:19:50Z</time>
      </trkpt>
      <trkpt lat="42.154743" lon="1.090754">
        <ele>1081.689</ele>
        <time>2021-06-20T11:19:52Z</time>
      </trkpt>
      <trkpt lat="42.154624" lon="1.090414">
        <ele>1081.406</ele>
        <time>2021-06-20T11:19:55Z</time>
      </trkpt>
      <trkpt lat="42.154519" lon="1.090084">
        <ele>1081.026</ele>
        <time>2021-06-20T11:19:58Z</time>
      </trkpt>
      <trkpt lat="42.154388" lon="1.089771">
        <ele>1080.808</ele>
        <time>2021-06-20T11:20:01Z</time>
      </trkpt>
      <trkpt lat="42.154305" lon="1.089576">
        <ele>1080.225</ele>
        <time>2021-06-20T11:20:03Z</time>
      </trkpt>
      <trkpt lat="42.154222" lon="1.089268">
        <ele>1079.644</ele>
        <time>2021-06-20T11:20:06Z</time>
      </trkpt>
      <trkpt lat="42.154202" lon="1.089165">
        <ele>1079.431</ele>
        <time>2021-06-20T11:20:07Z</time>
      </trkpt>
      <trkpt lat="42.154077" lon="1.088746">
        <ele>1078.873</ele>
        <time>2021-06-20T11:20:11Z</time>
      </trkpt>
      <trkpt lat="42.154036" lon="1.088642">
        <ele>1078.687</ele>
        <time>2021-06-20T11:20:12Z</time>
      </trkpt>
      <trkpt lat="42.153818" lon="1.088145">
        <ele>1078.298</ele>
        <time>2021-06-20T11:20:17Z</time>
      </trkpt>
      <trkpt lat="42.153767" lon="1.088058">
        <ele>1078.248</ele>
        <time>2021-06-20T11:20:18Z</time>
      </trkpt>
      <trkpt lat="42.153665" lon="1.087924">
        <ele>1077.816</ele>
        <time>2021-06-20T11:20:20Z</time>
      </trkpt>
      <trkpt lat="42.153611" lon="1.087885">
        <ele>1077.485</ele>
        <time>2021-06-20T11:20:21Z</time>
      </trkpt>
      <trkpt lat="42.153553" lon="1.087868">
        <ele>1077.289</ele>
        <time>2021-06-20T11:20:22Z</time>
      </trkpt>
      <trkpt lat="42.153432" lon="1.087896">
        <ele>1077.217</ele>
        <time>2021-06-20T11:20:24Z</time>
      </trkpt>
      <trkpt lat="42.153278" lon="1.088068">
        <ele>1076.808</ele>
        <time>2021-06-20T11:20:27Z</time>
      </trkpt>
      <trkpt lat="42.153236" lon="1.088143">
        <ele>1076.445</ele>
        <time>2021-06-20T11:20:28Z</time>
      </trkpt>
      <trkpt lat="42.153188" lon="1.088212">
        <ele>1076.454</ele>
        <time>2021-06-20T11:20:29Z</time>
      </trkpt>
      <trkpt lat="42.153081" lon="1.088312">
        <ele>1076.291</ele>
        <time>2021-06-20T11:20:31Z</time>
      </trkpt>
      <trkpt lat="42.153030" lon="1.088355">
        <ele>1076.073</ele>
        <time>2021-06-20T11:20:32Z</time>
      </trkpt>
      <trkpt lat="42.152888" lon="1.088496">
        <ele>1075.477</ele>
        <time>2021-06-20T11:20:35Z</time>
      </trkpt>
      <trkpt lat="42.152848" lon="1.088562">
        <ele>1075.268</ele>
        <time>2021-06-20T11:20:36Z</time>
      </trkpt>
      <trkpt lat="42.152729" lon="1.088756">
        <ele>1074.668</ele>
        <time>2021-06-20T11:20:39Z</time>
      </trkpt>
      <trkpt lat="42.152676" lon="1.088784">
        <ele>1074.476</ele>
        <time>2021-06-20T11:20:40Z</time>
      </trkpt>
      <trkpt lat="42.152622" lon="1.088779">
        <ele>1074.472</ele>
        <time>2021-06-20T11:20:41Z</time>
      </trkpt>
      <trkpt lat="42.152572" lon="1.088738">
        <ele>1074.213</ele>
        <time>2021-06-20T11:20:42Z</time>
      </trkpt>
      <trkpt lat="42.152511" lon="1.088577">
        <ele>1074.014</ele>
        <time>2021-06-20T11:20:44Z</time>
      </trkpt>
      <trkpt lat="42.152497" lon="1.088481">
        <ele>1074.008</ele>
        <time>2021-06-20T11:20:45Z</time>
      </trkpt>
      <trkpt lat="42.152478" lon="1.088276">
        <ele>1074.024</ele>
        <time>2021-06-20T11:20:47Z</time>
      </trkpt>
      <trkpt lat="42.152490" lon="1.088056">
        <ele>1073.473</ele>
        <time>2021-06-20T11:20:49Z</time>
      </trkpt>
      <trkpt lat="42.152516" lon="1.087822">
        <ele>1073.040</ele>
        <time>2021-06-20T11:20:51Z</time>
      </trkpt>
      <trkpt lat="42.152529" lon="1.087572">
        <ele>1072.812</ele>
        <time>2021-06-20T11:20:53Z</time>
      </trkpt>
      <trkpt lat="42.152522" lon="1.087442">
        <ele>1072.616</ele>
        <time>2021-06-20T11:20:54Z</time>
      </trkpt>
      <trkpt lat="42.152422" lon="1.087045">
        <ele>1072.647</ele>
        <time>2021-06-20T11:20:57Z</time>
      </trkpt>
      <trkpt lat="42.152250" lon="1.086723">
        <ele>1072.087</ele>
        <time>2021-06-20T11:21:00Z</time>
      </trkpt>
      <trkpt lat="42.152171" lon="1.086650">
        <ele>1072.045</ele>
        <time>2021-06-20T11:21:01Z</time>
      </trkpt>
      <trkpt lat="42.151987" lon="1.086548">
        <ele>1071.635</ele>
        <time>2021-06-20T11:21:03Z</time>
      </trkpt>
      <trkpt lat="42.151692" lon="1.086387">
        <ele>1071.286</ele>
        <time>2021-06-20T11:21:06Z</time>
      </trkpt>
      <trkpt lat="42.151492" lon="1.086251">
        <ele>1071.014</ele>
        <time>2021-06-20T11:21:08Z</time>
      </trkpt>
      <trkpt lat="42.151311" lon="1.086082">
        <ele>1070.608</ele>
        <time>2021-06-20T11:21:10Z</time>
      </trkpt>
      <trkpt lat="42.151233" lon="1.085990">
        <ele>1070.690</ele>
        <time>2021-06-20T11:21:11Z</time>
      </trkpt>
      <trkpt lat="42.151167" lon="1.085897">
        <ele>1070.419</ele>
        <time>2021-06-20T11:21:12Z</time>
      </trkpt>
      <trkpt lat="42.151069" lon="1.085559">
        <ele>1069.856</ele>
        <time>2021-06-20T11:21:15Z</time>
      </trkpt>
      <trkpt lat="42.151072" lon="1.085436">
        <ele>1069.828</ele>
        <time>2021-06-20T11:21:16Z</time>
      </trkpt>
      <trkpt lat="42.151081" lon="1.085319">
        <ele>1069.822</ele>
        <time>2021-06-20T11:21:17Z</time>
      </trkpt>
      <trkpt lat="42.151085" lon="1.085202">
        <ele>1069.473</ele>
        <time>2021-06-20T11:21:18Z</time>
      </trkpt>
      <trkpt lat="42.151076" lon="1.085085">
        <ele>1069.063</ele>
        <time>2021-06-20T11:21:19Z</time>
      </trkpt>
      <trkpt lat="42.151051" lon="1.084970">
        <ele>1069.041</ele>
        <time>2021-06-20T11:21:20Z</time>
      </trkpt>
      <trkpt lat="42.150942" lon="1.084757">
        <ele>1068.697</ele>
        <time>2021-06-20T11:21:22Z</time>
      </trkpt>
      <trkpt lat="42.150786" lon="1.084567">
        <ele>1068.223</ele>
        <time>2021-06-20T11:21:24Z</time>
      </trkpt>
      <trkpt lat="42.150550" lon="1.084280">
        <ele>1067.825</ele>
        <time>2021-06-20T11:21:27Z</time>
      </trkpt>
      <trkpt lat="42.150476" lon="1.084189">
        <ele>1067.608</ele>
        <time>2021-06-20T11:21:28Z</time>
      </trkpt>
      <trkpt lat="42.150259" lon="1.083939">
        <ele>1067.086</ele>
        <time>2021-06-20T11:21:31Z</time>
      </trkpt>
      <trkpt lat="42.150183" lon="1.083875">
        <ele>1066.815</ele>
        <time>2021-06-20T11:21:32Z</time>
      </trkpt>
      <trkpt lat="42.149980" lon="1.083734">
        <ele>1066.262</ele>
        <time>2021-06-20T11:21:35Z</time>
      </trkpt>
      <trkpt lat="42.149932" lon="1.083678">
        <ele>1066.024</ele>
        <time>2021-06-20T11:21:36Z</time>
      </trkpt>
      <trkpt lat="42.149879" lon="1.083433">
        <ele>1065.478</ele>
        <time>2021-06-20T11:21:39Z</time>
      </trkpt>
      <trkpt lat="42.149982" lon="1.083214">
        <ele>1065.069</ele>
        <time>2021-06-20T11:21:42Z</time>
      </trkpt>
      <trkpt lat="42.150038" lon="1.083162">
        <ele>1064.679</ele>
        <time>2021-06-20T11:21:43Z</time>
      </trkpt>
      <trkpt lat="42.150089" lon="1.083107">
        <ele>1064.437</ele>
        <time>2021-06-20T11:21:44Z</time>
      </trkpt>
      <trkpt lat="42.150147" lon="1.082976">
        <ele>1064.012</ele>
        <time>2021-06-20T11:21:46Z</time>
      </trkpt>
      <trkpt lat="42.150145" lon="1.082906">
        <ele>1063.632</ele>
        <time>2021-06-20T11:21:47Z</time>
      </trkpt>
      <trkpt lat="42.150083" lon="1.082808">
        <ele>1063.605</ele>
        <time>2021-06-20T11:21:49Z</time>
      </trkpt>
      <trkpt lat="42.149928" lon="1.082852">
        <ele>1062.808</ele>
        <time>2021-06-20T11:21:52Z</time>
      </trkpt>
      <trkpt lat="42.149740" lon="1.083126">
        <ele>1062.068</ele>
        <time>2021-06-20T11:21:56Z</time>
      </trkpt>
      <trkpt lat="42.149693" lon="1.083214">
        <ele>1061.827</ele>
        <time>2021-06-20T11:21:57Z</time>
      </trkpt>
      <trkpt lat="42.149576" lon="1.083384">
        <ele>1061.484</ele>
        <time>2021-06-20T11:21:59Z</time>
      </trkpt>
      <trkpt lat="42.149506" lon="1.083460">
        <ele>1061.046</ele>
        <time>2021-06-20T11:22:00Z</time>
      </trkpt>
      <trkpt lat="42.149261" lon="1.083641">
        <ele>1060.690</ele>
        <time>2021-06-20T11:22:03Z</time>
      </trkpt>
      <trkpt lat="42.149170" lon="1.083681">
        <ele>1060.471</ele>
        <time>2021-06-20T11:22:04Z</time>
      </trkpt>
      <trkpt lat="42.148920" lon="1.083814">
        <ele>1059.641</ele>
        <time>2021-06-20T11:22:07Z</time>
      </trkpt>
      <trkpt lat="42.148857" lon="1.083877">
        <ele>1059.499</ele>
        <time>2021-06-20T11:22:08Z</time>
      </trkpt>
      <trkpt lat="42.148768" lon="1.083996">
        <ele>1058.898</ele>
        <time>2021-06-20T11:22:10Z</time>
      </trkpt>
      <trkpt lat="42.148726" lon="1.084030">
        <ele>1058.615</ele>
        <time>2021-06-20T11:22:11Z</time>
      </trkpt>
      <trkpt lat="42.148645" lon="1.084027">
        <ele>1058.026</ele>
        <time>2021-06-20T11:22:13Z</time>
      </trkpt>
      <trkpt lat="42.148624" lon="1.083988">
        <ele>1057.808</ele>
        <time>2021-06-20T11:22:14Z</time>
      </trkpt>
      <trkpt lat="42.148644" lon="1.083866">
        <ele>1057.086</ele>
        <time>2021-06-20T11:22:16Z</time>
      </trkpt>
      <trkpt lat="42.148676" lon="1.083793">
        <ele>1056.815</ele>
        <time>2021-06-20T11:22:17Z</time>
      </trkpt>
      <trkpt lat="42.148748" lon="1.083615">
        <ele>1056.292</ele>
        <time>2021-06-20T11:22:19Z</time>
      </trkpt>
      <trkpt lat="42.148834" lon="1.083428">
        <ele>1055.814</ele>
        <time>2021-06-20T11:22:21Z</time>
      </trkpt>
      <trkpt lat="42.148873" lon="1.083348">
        <ele>1055.668</ele>
        <time>2021-06-20T11:22:22Z</time>
      </trkpt>
      <trkpt lat="42.148951" lon="1.083162">
        <ele>1054.649</ele>
        <time>2021-06-20T11:22:25Z</time>
      </trkpt>
      <trkpt lat="42.148960" lon="1.083063">
        <ele>1054.239</ele>
        <time>2021-06-20T11:22:27Z</time>
      </trkpt>
      <trkpt lat="42.148950" lon="1.083005">
        <ele>1053.897</ele>
        <time>2021-06-20T11:22:28Z</time>
      </trkpt>
      <trkpt lat="42.148950" lon="1.082833">
        <ele>1053.266</ele>
        <time>2021-06-20T11:22:31Z</time>
      </trkpt>
      <trkpt lat="42.148971" lon="1.082790">
        <ele>1052.829</ele>
        <time>2021-06-20T11:22:32Z</time>
      </trkpt>
      <trkpt lat="42.148992" lon="1.082754">
        <ele>1052.621</ele>
        <time>2021-06-20T11:22:33Z</time>
      </trkpt>
      <trkpt lat="42.149010" lon="1.082723">
        <ele>1052.208</ele>
        <time>2021-06-20T11:22:34Z</time>
      </trkpt>
      <trkpt lat="42.149059" lon="1.082640">
        <ele>1051.613</ele>
        <time>2021-06-20T11:22:37Z</time>
      </trkpt>
      <trkpt lat="42.149079" lon="1.082618">
        <ele>1051.442</ele>
        <time>2021-06-20T11:22:38Z</time>
      </trkpt>
      <trkpt lat="42.149152" lon="1.082512">
        <ele>1050.669</ele>
        <time>2021-06-20T11:22:42Z</time>
      </trkpt>
      <trkpt lat="42.149179" lon="1.082447">
        <ele>1050.441</ele>
        <time>2021-06-20T11:22:44Z</time>
      </trkpt>
      <trkpt lat="42.149192" lon="1.082415">
        <ele>1050.065</ele>
        <time>2021-06-20T11:22:45Z</time>
      </trkpt>
      <trkpt lat="42.149245" lon="1.082247">
        <ele>1049.456</ele>
        <time>2021-06-20T11:22:50Z</time>
      </trkpt>
      <trkpt lat="42.149250" lon="1.082212">
        <ele>1049.226</ele>
        <time>2021-06-20T11:22:51Z</time>
      </trkpt>
      <trkpt lat="42.149249" lon="1.082138">
        <ele>1048.664</ele>
        <time>2021-06-20T11:22:53Z</time>
      </trkpt>
      <trkpt lat="42.149227" lon="1.081985">
        <ele>1048.013</ele>
        <time>2021-06-20T11:22:57Z</time>
      </trkpt>
      <trkpt lat="42.149217" lon="1.081947">
        <ele>1047.843</ele>
        <time>2021-06-20T11:22:58Z</time>
      </trkpt>
      <trkpt lat="42.149165" lon="1.081752">
        <ele>1047.207</ele>
        <time>2021-06-20T11:23:03Z</time>
      </trkpt>
      <trkpt lat="42.149144" lon="1.081670">
        <ele>1047.008</ele>
        <time>2021-06-20T11:23:05Z</time>
      </trkpt>
      <trkpt lat="42.149106" lon="1.081539">
        <ele>1046.468</ele>
        <time>2021-06-20T11:23:08Z</time>
      </trkpt>
      <trkpt lat="42.149083" lon="1.081398">
        <ele>1045.837</ele>
        <time>2021-06-20T11:23:11Z</time>
      </trkpt>
      <trkpt lat="42.149079" lon="1.081349">
        <ele>1045.634</ele>
        <time>2021-06-20T11:23:12Z</time>
      </trkpt>
      <trkpt lat="42.149103" lon="1.081157">
        <ele>1044.696</ele>
        <time>2021-06-20T11:23:16Z</time>
      </trkpt>
      <trkpt lat="42.149159" lon="1.080968">
        <ele>1043.840</ele>
        <time>2021-06-20T11:23:20Z</time>
      </trkpt>
      <trkpt lat="42.149172" lon="1.080917">
        <ele>1043.611</ele>
        <time>2021-06-20T11:23:21Z</time>
      </trkpt>
      <trkpt lat="42.149196" lon="1.080816">
        <ele>1043.061</ele>
        <time>2021-06-20T11:23:23Z</time>
      </trkpt>
      <trkpt lat="42.149202" lon="1.080603">
        <ele>1042.479</ele>
        <time>2021-06-20T11:23:27Z</time>
      </trkpt>
      <trkpt lat="42.149196" lon="1.080551">
        <ele>1042.493</ele>
        <time>2021-06-20T11:23:28Z</time>
      </trkpt>
      <trkpt lat="42.149147" lon="1.080353">
        <ele>1041.665</ele>
        <time>2021-06-20T11:23:32Z</time>
      </trkpt>
      <trkpt lat="42.149115" lon="1.080266">
        <ele>1041.221</ele>
        <time>2021-06-20T11:23:34Z</time>
      </trkpt>
      <trkpt lat="42.149070" lon="1.080139">
        <ele>1040.808</ele>
        <time>2021-06-20T11:23:37Z</time>
      </trkpt>
      <trkpt lat="42.149024" lon="1.080017">
        <ele>1039.416</ele>
        <time>2021-06-20T11:23:40Z</time>
      </trkpt>
      <trkpt lat="42.149010" lon="1.079976">
        <ele>1037.435</ele>
        <time>2021-06-20T11:23:41Z</time>
      </trkpt>
      <trkpt lat="42.148996" lon="1.079934">
        <ele>1036.092</ele>
        <time>2021-06-20T11:23:42Z</time>
      </trkpt>
      <trkpt lat="42.148968" lon="1.079851">
        <ele>1034.874</ele>
        <time>2021-06-20T11:23:44Z</time>
      </trkpt>
      <trkpt lat="42.148910" lon="1.079679">
        <ele>1034.018</ele>
        <time>2021-06-20T11:23:48Z</time>
      </trkpt>
      <trkpt lat="42.148820" lon="1.079423">
        <ele>1033.419</ele>
        <time>2021-06-20T11:23:54Z</time>
      </trkpt>
      <trkpt lat="42.148787" lon="1.079343">
        <ele>1033.419</ele>
        <time>2021-06-20T11:23:56Z</time>
      </trkpt>
      <trkpt lat="42.148739" lon="1.079173">
        <ele>1032.477</ele>
        <time>2021-06-20T11:24:00Z</time>
      </trkpt>
      <trkpt lat="42.148722" lon="1.079132">
        <ele>1032.467</ele>
        <time>2021-06-20T11:24:01Z</time>
      </trkpt>
      <trkpt lat="42.148660" lon="1.078962">
        <ele>1032.081</ele>
        <time>2021-06-20T11:24:05Z</time>
      </trkpt>
      <trkpt lat="42.148605" lon="1.078793">
        <ele>1031.019</ele>
        <time>2021-06-20T11:24:09Z</time>
      </trkpt>
      <trkpt lat="42.148561" lon="1.078667">
        <ele>1030.608</ele>
        <time>2021-06-20T11:24:12Z</time>
      </trkpt>
      <trkpt lat="42.148546" lon="1.078627">
        <ele>1030.473</ele>
        <time>2021-06-20T11:24:13Z</time>
      </trkpt>
      <trkpt lat="42.148503" lon="1.078473">
        <ele>1029.822</ele>
        <time>2021-06-20T11:24:17Z</time>
      </trkpt>
      <trkpt lat="42.148491" lon="1.078438">
        <ele>1029.869</ele>
        <time>2021-06-20T11:24:18Z</time>
      </trkpt>
      <trkpt lat="42.148440" lon="1.078300">
        <ele>1029.011</ele>
        <time>2021-06-20T11:24:22Z</time>
      </trkpt>
      <trkpt lat="42.148368" lon="1.078088">
        <ele>1028.655</ele>
        <time>2021-06-20T11:24:28Z</time>
      </trkpt>
      <trkpt lat="42.148303" lon="1.077916">
        <ele>1027.866</ele>
        <time>2021-06-20T11:24:33Z</time>
      </trkpt>
      <trkpt lat="42.148241" lon="1.077789">
        <ele>1027.296</ele>
        <time>2021-06-20T11:24:37Z</time>
      </trkpt>
      <trkpt lat="42.148225" lon="1.077757">
        <ele>1027.044</ele>
        <time>2021-06-20T11:24:38Z</time>
      </trkpt>
      <trkpt lat="42.148129" lon="1.077609">
        <ele>1026.671</ele>
        <time>2021-06-20T11:24:43Z</time>
      </trkpt>
      <trkpt lat="42.148074" lon="1.077517">
        <ele>1026.041</ele>
        <time>2021-06-20T11:24:46Z</time>
      </trkpt>
      <trkpt lat="42.148054" lon="1.077488">
        <ele>1026.015</ele>
        <time>2021-06-20T11:24:47Z</time>
      </trkpt>
      <trkpt lat="42.147947" lon="1.077361">
        <ele>1025.008</ele>
        <time>2021-06-20T11:24:52Z</time>
      </trkpt>
      <trkpt lat="42.147921" lon="1.077344">
        <ele>1025.054</ele>
        <time>2021-06-20T11:24:53Z</time>
      </trkpt>
      <trkpt lat="42.147843" lon="1.077299">
        <ele>1024.443</ele>
        <time>2021-06-20T11:24:56Z</time>
      </trkpt>
      <trkpt lat="42.147739" lon="1.077242">
        <ele>1023.650</ele>
        <time>2021-06-20T11:25:00Z</time>
      </trkpt>
      <trkpt lat="42.147656" lon="1.077213">
        <ele>1023.022</ele>
        <time>2021-06-20T11:25:03Z</time>
      </trkpt>
      <trkpt lat="42.147599" lon="1.077202">
        <ele>1022.656</ele>
        <time>2021-06-20T11:25:05Z</time>
      </trkpt>
      <trkpt lat="42.147486" lon="1.077168">
        <ele>1022.087</ele>
        <time>2021-06-20T11:25:09Z</time>
      </trkpt>
      <trkpt lat="42.147373" lon="1.077136">
        <ele>1021.267</ele>
        <time>2021-06-20T11:25:13Z</time>
      </trkpt>
      <trkpt lat="42.147261" lon="1.077108">
        <ele>1020.485</ele>
        <time>2021-06-20T11:25:17Z</time>
      </trkpt>
      <trkpt lat="42.147148" lon="1.077103">
        <ele>1020.079</ele>
        <time>2021-06-20T11:25:21Z</time>
      </trkpt>
      <trkpt lat="42.147093" lon="1.077111">
        <ele>1019.805</ele>
        <time>2021-06-20T11:25:23Z</time>
      </trkpt>
      <trkpt lat="42.146990" lon="1.077174">
        <ele>1019.225</ele>
        <time>2021-06-20T11:25:27Z</time>
      </trkpt>
      <trkpt lat="42.146965" lon="1.077194">
        <ele>1019.008</ele>
        <time>2021-06-20T11:25:28Z</time>
      </trkpt>
      <trkpt lat="42.146813" lon="1.077316">
        <ele>1018.274</ele>
        <time>2021-06-20T11:25:34Z</time>
      </trkpt>
      <trkpt lat="42.146787" lon="1.077332">
        <ele>1018.263</ele>
        <time>2021-06-20T11:25:35Z</time>
      </trkpt>
      <trkpt lat="42.146677" lon="1.077357">
        <ele>1017.440</ele>
        <time>2021-06-20T11:25:39Z</time>
      </trkpt>
      <trkpt lat="42.146620" lon="1.077360">
        <ele>1017.022</ele>
        <time>2021-06-20T11:25:41Z</time>
      </trkpt>
      <trkpt lat="42.146535" lon="1.077348">
        <ele>1016.646</ele>
        <time>2021-06-20T11:25:44Z</time>
      </trkpt>
      <trkpt lat="42.146393" lon="1.077310">
        <ele>1016.037</ele>
        <time>2021-06-20T11:25:49Z</time>
      </trkpt>
      <trkpt lat="42.146366" lon="1.077304">
        <ele>1016.027</ele>
        <time>2021-06-20T11:25:50Z</time>
      </trkpt>
      <trkpt lat="42.146261" lon="1.077261">
        <ele>1015.255</ele>
        <time>2021-06-20T11:25:55Z</time>
      </trkpt>
      <trkpt lat="42.146246" lon="1.077249">
        <ele>1015.284</ele>
        <time>2021-06-20T11:25:56Z</time>
      </trkpt>
      <trkpt lat="42.146235" lon="1.077235">
        <ele>1015.007</ele>
        <time>2021-06-20T11:25:57Z</time>
      </trkpt>
      <trkpt lat="42.146223" lon="1.077221">
        <ele>1014.617</ele>
        <time>2021-06-20T11:25:58Z</time>
      </trkpt>
      <trkpt lat="42.146191" lon="1.077182">
        <ele>1014.008</ele>
        <time>2021-06-20T11:26:00Z</time>
      </trkpt>
      <trkpt lat="42.146113" lon="1.077085">
        <ele>1013.645</ele>
        <time>2021-06-20T11:26:04Z</time>
      </trkpt>
      <trkpt lat="42.146106" lon="1.077072">
        <ele>1013.634</ele>
        <time>2021-06-20T11:26:05Z</time>
      </trkpt>
      <trkpt lat="42.146115" lon="1.077049">
        <ele>1012.871</ele>
        <time>2021-06-20T11:26:09Z</time>
      </trkpt>
      <trkpt lat="42.146125" lon="1.077047">
        <ele>1012.623</ele>
        <time>2021-06-20T11:26:10Z</time>
      </trkpt>
      <trkpt lat="42.146177" lon="1.077029">
        <ele>1012.217</ele>
        <time>2021-06-20T11:26:13Z</time>
      </trkpt>
      <trkpt lat="42.146199" lon="1.077001">
        <ele>1012.038</ele>
        <time>2021-06-20T11:26:14Z</time>
      </trkpt>
      <trkpt lat="42.146244" lon="1.076918">
        <ele>1011.668</ele>
        <time>2021-06-20T11:26:16Z</time>
      </trkpt>
      <trkpt lat="42.146283" lon="1.076818">
        <ele>1011.276</ele>
        <time>2021-06-20T11:26:18Z</time>
      </trkpt>
      <trkpt lat="42.146325" lon="1.076689">
        <ele>1010.874</ele>
        <time>2021-06-20T11:26:22Z</time>
      </trkpt>
      <trkpt lat="42.146331" lon="1.076678">
        <ele>1010.656</ele>
        <time>2021-06-20T11:26:23Z</time>
      </trkpt>
      <trkpt lat="42.146356" lon="1.076618">
        <ele>1010.021</ele>
        <time>2021-06-20T11:26:28Z</time>
      </trkpt>
      <trkpt lat="42.146363" lon="1.076607">
        <ele>1009.808</ele>
        <time>2021-06-20T11:26:29Z</time>
      </trkpt>
      <trkpt lat="42.146359" lon="1.076588">
        <ele>1009.664</ele>
        <time>2021-06-20T11:26:32Z</time>
      </trkpt>
      <trkpt lat="42.146350" lon="1.076593">
        <ele>1009.433</ele>
        <time>2021-06-20T11:26:33Z</time>
      </trkpt>
      <trkpt lat="42.146324" lon="1.076643">
        <ele>1009.260</ele>
        <time>2021-06-20T11:26:37Z</time>
      </trkpt>
      <trkpt lat="42.146311" lon="1.076652">
        <ele>1009.052</ele>
        <time>2021-06-20T11:26:38Z</time>
      </trkpt>
      <trkpt lat="42.146297" lon="1.076660">
        <ele>1008.846</ele>
        <time>2021-06-20T11:26:39Z</time>
      </trkpt>
      <trkpt lat="42.146260" lon="1.076740">
        <ele>1008.647</ele>
        <time>2021-06-20T11:26:43Z</time>
      </trkpt>
      <trkpt lat="42.146239" lon="1.076775">
        <ele>1008.267</ele>
        <time>2021-06-20T11:26:45Z</time>
      </trkpt>
      <trkpt lat="42.146231" lon="1.076821">
        <ele>1007.835</ele>
        <time>2021-06-20T11:26:48Z</time>
      </trkpt>
      <trkpt lat="42.146218" lon="1.076879">
        <ele>1007.686</ele>
        <time>2021-06-20T11:26:51Z</time>
      </trkpt>
      <trkpt lat="42.146201" lon="1.076954">
        <ele>1007.060</ele>
        <time>2021-06-20T11:26:55Z</time>
      </trkpt>
      <trkpt lat="42.146180" lon="1.076983">
        <ele>1006.826</ele>
        <time>2021-06-20T11:26:57Z</time>
      </trkpt>
      <trkpt lat="42.146119" lon="1.076981">
        <ele>1006.808</ele>
        <time>2021-06-20T11:27:01Z</time>
      </trkpt>
      <trkpt lat="42.146103" lon="1.076968">
        <ele>1006.655</ele>
        <time>2021-06-20T11:27:02Z</time>
      </trkpt>
      <trkpt lat="42.146070" lon="1.076938">
        <ele>1006.624</ele>
        <time>2021-06-20T11:27:04Z</time>
      </trkpt>
      <trkpt lat="42.146023" lon="1.076887">
        <ele>1006.671</ele>
        <time>2021-06-20T11:27:07Z</time>
      </trkpt>
      <trkpt lat="42.145993" lon="1.076843">
        <ele>1006.233</ele>
        <time>2021-06-20T11:27:09Z</time>
      </trkpt>
      <trkpt lat="42.145940" lon="1.076758">
        <ele>1006.047</ele>
        <time>2021-06-20T11:27:12Z</time>
      </trkpt>
      <trkpt lat="42.145858" lon="1.076615">
        <ele>1005.488</ele>
        <time>2021-06-20T11:27:16Z</time>
      </trkpt>
      <trkpt lat="42.145786" lon="1.076489">
        <ele>1005.238</ele>
        <time>2021-06-20T11:27:19Z</time>
      </trkpt>
      <trkpt lat="42.145696" lon="1.076334">
        <ele>1004.836</ele>
        <time>2021-06-20T11:27:22Z</time>
      </trkpt>
      <trkpt lat="42.145591" lon="1.076159">
        <ele>1004.421</ele>
        <time>2021-06-20T11:27:25Z</time>
      </trkpt>
      <trkpt lat="42.145471" lon="1.075962">
        <ele>1004.041</ele>
        <time>2021-06-20T11:27:28Z</time>
      </trkpt>
      <trkpt lat="42.145355" lon="1.075753">
        <ele>1003.805</ele>
        <time>2021-06-20T11:27:31Z</time>
      </trkpt>
      <trkpt lat="42.145166" lon="1.075390">
        <ele>1002.808</ele>
        <time>2021-06-20T11:27:36Z</time>
      </trkpt>
      <trkpt lat="42.145127" lon="1.075316">
        <ele>1002.829</ele>
        <time>2021-06-20T11:27:37Z</time>
      </trkpt>
      <trkpt lat="42.144917" lon="1.074958">
        <ele>1002.088</ele>
        <time>2021-06-20T11:27:42Z</time>
      </trkpt>
      <trkpt lat="42.144739" lon="1.074665">
        <ele>1001.645</ele>
        <time>2021-06-20T11:27:46Z</time>
      </trkpt>
      <trkpt lat="42.144642" lon="1.074520">
        <ele>1001.457</ele>
        <time>2021-06-20T11:27:48Z</time>
      </trkpt>
      <trkpt lat="42.144364" lon="1.074167">
        <ele>1001.051</ele>
        <time>2021-06-20T11:27:53Z</time>
      </trkpt>
      <trkpt lat="42.144245" lon="1.074029">
        <ele>1000.652</ele>
        <time>2021-06-20T11:27:55Z</time>
      </trkpt>
      <trkpt lat="42.143959" lon="1.073685">
        <ele>1000.272</ele>
        <time>2021-06-20T11:28:00Z</time>
      </trkpt>
      <trkpt lat="42.143903" lon="1.073612">
        <ele>1000.060</ele>
        <time>2021-06-20T11:28:01Z</time>
      </trkpt>
      <trkpt lat="42.143666" lon="1.073344">
        <ele>999.084</ele>
        <time>2021-06-20T11:28:05Z</time>
      </trkpt>
      <trkpt lat="42.143605" lon="1.073282">
        <ele>999.007</ele>
        <time>2021-06-20T11:28:06Z</time>
      </trkpt>
      <trkpt lat="42.143336" lon="1.072914">
        <ele>998.217</ele>
        <time>2021-06-20T11:28:11Z</time>
      </trkpt>
      <trkpt lat="42.143047" lon="1.072370">
        <ele>997.208</ele>
        <time>2021-06-20T11:28:17Z</time>
      </trkpt>
      <trkpt lat="42.142997" lon="1.072280">
        <ele>997.245</ele>
        <time>2021-06-20T11:28:18Z</time>
      </trkpt>
      <trkpt lat="42.142712" lon="1.071879">
        <ele>996.684</ele>
        <time>2021-06-20T11:28:23Z</time>
      </trkpt>
      <trkpt lat="42.142471" lon="1.071597">
        <ele>995.831</ele>
        <time>2021-06-20T11:28:27Z</time>
      </trkpt>
      <trkpt lat="42.142308" lon="1.071368">
        <ele>994.853</ele>
        <time>2021-06-20T11:28:30Z</time>
      </trkpt>
      <trkpt lat="42.142223" lon="1.071232">
        <ele>994.817</ele>
        <time>2021-06-20T11:28:32Z</time>
      </trkpt>
      <trkpt lat="42.142120" lon="1.071129">
        <ele>994.498</ele>
        <time>2021-06-20T11:28:34Z</time>
      </trkpt>
      <trkpt lat="42.142029" lon="1.071074">
        <ele>994.268</ele>
        <time>2021-06-20T11:28:36Z</time>
      </trkpt>
      <trkpt lat="42.141991" lon="1.071038">
        <ele>994.036</ele>
        <time>2021-06-20T11:28:37Z</time>
      </trkpt>
      <trkpt lat="42.141898" lon="1.070874">
        <ele>993.065</ele>
        <time>2021-06-20T11:28:40Z</time>
      </trkpt>
      <trkpt lat="42.141874" lon="1.070801">
        <ele>992.668</ele>
        <time>2021-06-20T11:28:41Z</time>
      </trkpt>
      <trkpt lat="42.141757" lon="1.070458">
        <ele>992.014</ele>
        <time>2021-06-20T11:28:45Z</time>
      </trkpt>
      <trkpt lat="42.141721" lon="1.070365">
        <ele>992.008</ele>
        <time>2021-06-20T11:28:46Z</time>
      </trkpt>
      <trkpt lat="42.141645" lon="1.070172">
        <ele>991.223</ele>
        <time>2021-06-20T11:28:48Z</time>
      </trkpt>
      <trkpt lat="42.141464" lon="1.069786">
        <ele>990.422</ele>
        <time>2021-06-20T11:28:52Z</time>
      </trkpt>
      <trkpt lat="42.141409" lon="1.069699">
        <ele>990.489</ele>
        <time>2021-06-20T11:28:53Z</time>
      </trkpt>
      <trkpt lat="42.141299" lon="1.069543">
        <ele>989.891</ele>
        <time>2021-06-20T11:28:55Z</time>
      </trkpt>
      <trkpt lat="42.141183" lon="1.069407">
        <ele>989.425</ele>
        <time>2021-06-20T11:28:57Z</time>
      </trkpt>
      <trkpt lat="42.140956" lon="1.069137">
        <ele>988.256</ele>
        <time>2021-06-20T11:29:01Z</time>
      </trkpt>
      <trkpt lat="42.140649" lon="1.068813">
        <ele>987.486</ele>
        <time>2021-06-20T11:29:06Z</time>
      </trkpt>
      <trkpt lat="42.140412" lon="1.068558">
        <ele>986.224</ele>
        <time>2021-06-20T11:29:10Z</time>
      </trkpt>
      <trkpt lat="42.140299" lon="1.068427">
        <ele>985.878</ele>
        <time>2021-06-20T11:29:12Z</time>
      </trkpt>
      <trkpt lat="42.140244" lon="1.068361">
        <ele>985.433</ele>
        <time>2021-06-20T11:29:13Z</time>
      </trkpt>
      <trkpt lat="42.140016" lon="1.068125">
        <ele>984.426</ele>
        <time>2021-06-20T11:29:17Z</time>
      </trkpt>
      <trkpt lat="42.139899" lon="1.068023">
        <ele>984.208</ele>
        <time>2021-06-20T11:29:19Z</time>
      </trkpt>
      <trkpt lat="42.139731" lon="1.067863">
        <ele>983.874</ele>
        <time>2021-06-20T11:29:22Z</time>
      </trkpt>
      <trkpt lat="42.139562" lon="1.067679">
        <ele>982.633</ele>
        <time>2021-06-20T11:29:25Z</time>
      </trkpt>
      <trkpt lat="42.139507" lon="1.067616">
        <ele>982.460</ele>
        <time>2021-06-20T11:29:26Z</time>
      </trkpt>
      <trkpt lat="42.139343" lon="1.067436">
        <ele>981.822</ele>
        <time>2021-06-20T11:29:29Z</time>
      </trkpt>
      <trkpt lat="42.139153" lon="1.067274">
        <ele>981.036</ele>
        <time>2021-06-20T11:29:32Z</time>
      </trkpt>
      <trkpt lat="42.139085" lon="1.067224">
        <ele>980.697</ele>
        <time>2021-06-20T11:29:33Z</time>
      </trkpt>
      <trkpt lat="42.139020" lon="1.067169">
        <ele>980.247</ele>
        <time>2021-06-20T11:29:34Z</time>
      </trkpt>
      <trkpt lat="42.138846" lon="1.066976">
        <ele>979.865</ele>
        <time>2021-06-20T11:29:37Z</time>
      </trkpt>
      <trkpt lat="42.138548" lon="1.066681">
        <ele>979.015</ele>
        <time>2021-06-20T11:29:42Z</time>
      </trkpt>
      <trkpt lat="42.138428" lon="1.066561">
        <ele>978.665</ele>
        <time>2021-06-20T11:29:44Z</time>
      </trkpt>
      <trkpt lat="42.138255" lon="1.066374">
        <ele>978.211</ele>
        <time>2021-06-20T11:29:47Z</time>
      </trkpt>
      <trkpt lat="42.138082" lon="1.066191">
        <ele>977.208</ele>
        <time>2021-06-20T11:29:50Z</time>
      </trkpt>
      <trkpt lat="42.138019" lon="1.066136">
        <ele>977.068</ele>
        <time>2021-06-20T11:29:51Z</time>
      </trkpt>
      <trkpt lat="42.137892" lon="1.066034">
        <ele>976.047</ele>
        <time>2021-06-20T11:29:53Z</time>
      </trkpt>
      <trkpt lat="42.137714" lon="1.065875">
        <ele>975.234</ele>
        <time>2021-06-20T11:29:56Z</time>
      </trkpt>
      <trkpt lat="42.137661" lon="1.065810">
        <ele>974.846</ele>
        <time>2021-06-20T11:29:57Z</time>
      </trkpt>
      <trkpt lat="42.137507" lon="1.065599">
        <ele>974.210</ele>
        <time>2021-06-20T11:30:00Z</time>
      </trkpt>
      <trkpt lat="42.137368" lon="1.065382">
        <ele>973.231</ele>
        <time>2021-06-20T11:30:03Z</time>
      </trkpt>
      <trkpt lat="42.137323" lon="1.065309">
        <ele>973.091</ele>
        <time>2021-06-20T11:30:04Z</time>
      </trkpt>
      <trkpt lat="42.137181" lon="1.065106">
        <ele>972.299</ele>
        <time>2021-06-20T11:30:07Z</time>
      </trkpt>
      <trkpt lat="42.137138" lon="1.065038">
        <ele>972.089</ele>
        <time>2021-06-20T11:30:08Z</time>
      </trkpt>
      <trkpt lat="42.137096" lon="1.064904">
        <ele>971.206</ele>
        <time>2021-06-20T11:30:10Z</time>
      </trkpt>
      <trkpt lat="42.137116" lon="1.064709">
        <ele>970.226</ele>
        <time>2021-06-20T11:30:14Z</time>
      </trkpt>
      <trkpt lat="42.137128" lon="1.064665">
        <ele>970.208</ele>
        <time>2021-06-20T11:30:15Z</time>
      </trkpt>
      <trkpt lat="42.137142" lon="1.064577">
        <ele>969.415</ele>
        <time>2021-06-20T11:30:17Z</time>
      </trkpt>
      <trkpt lat="42.137160" lon="1.064474">
        <ele>968.844</ele>
        <time>2021-06-20T11:30:20Z</time>
      </trkpt>
      <trkpt lat="42.137166" lon="1.064445">
        <ele>968.291</ele>
        <time>2021-06-20T11:30:21Z</time>
      </trkpt>
      <trkpt lat="42.137188" lon="1.064327">
        <ele>967.453</ele>
        <time>2021-06-20T11:30:25Z</time>
      </trkpt>
      <trkpt lat="42.137192" lon="1.064306">
        <ele>967.027</ele>
        <time>2021-06-20T11:30:26Z</time>
      </trkpt>
      <trkpt lat="42.137169" lon="1.064286">
        <ele>966.278</ele>
        <time>2021-06-20T11:30:29Z</time>
      </trkpt>
      <trkpt lat="42.137169" lon="1.064289">
        <ele>966.228</ele>
        <time>2021-06-20T11:30:30Z</time>
      </trkpt>
      <trkpt lat="42.137177" lon="1.064302">
        <ele>965.436</ele>
        <time>2021-06-20T11:30:33Z</time>
      </trkpt>
      <trkpt lat="42.137195" lon="1.064374">
        <ele>963.689</ele>
        <time>2021-06-20T11:30:39Z</time>
      </trkpt>
      <trkpt lat="42.137192" lon="1.064395">
        <ele>963.206</ele>
        <time>2021-06-20T11:30:40Z</time>
      </trkpt>
      <trkpt lat="42.137182" lon="1.064466">
        <ele>962.426</ele>
        <time>2021-06-20T11:30:43Z</time>
      </trkpt>
      <trkpt lat="42.137178" lon="1.064493">
        <ele>962.008</ele>
        <time>2021-06-20T11:30:44Z</time>
      </trkpt>
      <trkpt lat="42.137171" lon="1.064558">
        <ele>961.435</ele>
        <time>2021-06-20T11:30:46Z</time>
      </trkpt>
      <trkpt lat="42.137157" lon="1.064670">
        <ele>960.284</ele>
        <time>2021-06-20T11:30:49Z</time>
      </trkpt>
      <trkpt lat="42.137121" lon="1.064813">
        <ele>959.251</ele>
        <time>2021-06-20T11:30:53Z</time>
      </trkpt>
      <trkpt lat="42.137047" lon="1.064805">
        <ele>958.863</ele>
        <time>2021-06-20T11:30:56Z</time>
      </trkpt>
      <trkpt lat="42.136994" lon="1.064752">
        <ele>958.457</ele>
        <time>2021-06-20T11:30:58Z</time>
      </trkpt>
      <trkpt lat="42.136963" lon="1.064724">
        <ele>958.098</ele>
        <time>2021-06-20T11:30:59Z</time>
      </trkpt>
      <trkpt lat="42.136899" lon="1.064664">
        <ele>957.618</ele>
        <time>2021-06-20T11:31:01Z</time>
      </trkpt>
      <trkpt lat="42.136862" lon="1.064633">
        <ele>957.456</ele>
        <time>2021-06-20T11:31:02Z</time>
      </trkpt>
      <trkpt lat="42.136689" lon="1.064498">
        <ele>956.441</ele>
        <time>2021-06-20T11:31:06Z</time>
      </trkpt>
      <trkpt lat="42.136642" lon="1.064459">
        <ele>956.481</ele>
        <time>2021-06-20T11:31:07Z</time>
      </trkpt>
      <trkpt lat="42.136446" lon="1.064316">
        <ele>955.209</ele>
        <time>2021-06-20T11:31:11Z</time>
      </trkpt>
      <trkpt lat="42.136279" lon="1.064241">
        <ele>954.608</ele>
        <time>2021-06-20T11:31:14Z</time>
      </trkpt>
      <trkpt lat="42.136221" lon="1.064220">
        <ele>954.431</ele>
        <time>2021-06-20T11:31:15Z</time>
      </trkpt>
      <trkpt lat="42.136102" lon="1.064178">
        <ele>953.280</ele>
        <time>2021-06-20T11:31:17Z</time>
      </trkpt>
      <trkpt lat="42.135784" lon="1.064089">
        <ele>952.477</ele>
        <time>2021-06-20T11:31:22Z</time>
      </trkpt>
      <trkpt lat="42.135720" lon="1.064074">
        <ele>952.089</ele>
        <time>2021-06-20T11:31:23Z</time>
      </trkpt>
      <trkpt lat="42.135602" lon="1.064055">
        <ele>951.283</ele>
        <time>2021-06-20T11:31:25Z</time>
      </trkpt>
      <trkpt lat="42.135517" lon="1.064054">
        <ele>950.854</ele>
        <time>2021-06-20T11:31:27Z</time>
      </trkpt>
      <trkpt lat="42.135467" lon="1.064056">
        <ele>950.224</ele>
        <time>2021-06-20T11:31:29Z</time>
      </trkpt>
      <trkpt lat="42.135443" lon="1.064053">
        <ele>949.872</ele>
        <time>2021-06-20T11:31:31Z</time>
      </trkpt>
      <trkpt lat="42.135408" lon="1.064049">
        <ele>949.259</ele>
        <time>2021-06-20T11:31:34Z</time>
      </trkpt>
      <trkpt lat="42.135407" lon="1.064049">
        <ele>949.003</ele>
        <time>2021-06-20T11:31:35Z</time>
      </trkpt>
      <trkpt lat="42.135364" lon="1.064073">
        <ele>946.223</ele>
        <time>2021-06-20T11:31:44Z</time>
      </trkpt>
      <trkpt lat="42.135318" lon="1.064077">
        <ele>945.208</ele>
        <time>2021-06-20T11:31:46Z</time>
      </trkpt>
      <trkpt lat="42.135212" lon="1.064058">
        <ele>944.222</ele>
        <time>2021-06-20T11:31:50Z</time>
      </trkpt>
      <trkpt lat="42.135122" lon="1.064039">
        <ele>943.281</ele>
        <time>2021-06-20T11:31:53Z</time>
      </trkpt>
      <trkpt lat="42.135039" lon="1.064026">
        <ele>942.258</ele>
        <time>2021-06-20T11:31:56Z</time>
      </trkpt>
      <trkpt lat="42.135012" lon="1.064020">
        <ele>942.040</ele>
        <time>2021-06-20T11:31:57Z</time>
      </trkpt>
      <trkpt lat="42.134954" lon="1.064013">
        <ele>941.084</ele>
        <time>2021-06-20T11:31:59Z</time>
      </trkpt>
      <trkpt lat="42.134850" lon="1.063992">
        <ele>940.015</ele>
        <time>2021-06-20T11:32:02Z</time>
      </trkpt>
      <trkpt lat="42.134711" lon="1.063964">
        <ele>938.815</ele>
        <time>2021-06-20T11:32:06Z</time>
      </trkpt>
      <trkpt lat="42.134580" lon="1.063908">
        <ele>937.493</ele>
        <time>2021-06-20T11:32:10Z</time>
      </trkpt>
      <trkpt lat="42.134486" lon="1.063872">
        <ele>936.077</ele>
        <time>2021-06-20T11:32:13Z</time>
      </trkpt>
      <trkpt lat="42.134391" lon="1.063827">
        <ele>934.861</ele>
        <time>2021-06-20T11:32:16Z</time>
      </trkpt>
      <trkpt lat="42.134317" lon="1.063798">
        <ele>934.227</ele>
        <time>2021-06-20T11:32:18Z</time>
      </trkpt>
      <trkpt lat="42.134283" lon="1.063799">
        <ele>933.808</ele>
        <time>2021-06-20T11:32:19Z</time>
      </trkpt>
      <trkpt lat="42.134255" lon="1.063818">
        <ele>933.694</ele>
        <time>2021-06-20T11:32:20Z</time>
      </trkpt>
      <trkpt lat="42.134230" lon="1.063846">
        <ele>933.263</ele>
        <time>2021-06-20T11:32:21Z</time>
      </trkpt>
      <trkpt lat="42.134204" lon="1.063873">
        <ele>932.860</ele>
        <time>2021-06-20T11:32:22Z</time>
      </trkpt>
      <trkpt lat="42.134150" lon="1.063936">
        <ele>931.812</ele>
        <time>2021-06-20T11:32:24Z</time>
      </trkpt>
      <trkpt lat="42.134053" lon="1.063984">
        <ele>930.616</ele>
        <time>2021-06-20T11:32:27Z</time>
      </trkpt>
      <trkpt lat="42.133982" lon="1.063954">
        <ele>929.837</ele>
        <time>2021-06-20T11:32:29Z</time>
      </trkpt>
      <trkpt lat="42.133924" lon="1.063867">
        <ele>929.027</ele>
        <time>2021-06-20T11:32:31Z</time>
      </trkpt>
      <trkpt lat="42.133900" lon="1.063813">
        <ele>928.615</ele>
        <time>2021-06-20T11:32:32Z</time>
      </trkpt>
      <trkpt lat="42.133846" lon="1.063707">
        <ele>927.876</ele>
        <time>2021-06-20T11:32:34Z</time>
      </trkpt>
      <trkpt lat="42.133814" lon="1.063660">
        <ele>927.490</ele>
        <time>2021-06-20T11:32:35Z</time>
      </trkpt>
      <trkpt lat="42.133739" lon="1.063593">
        <ele>926.619</ele>
        <time>2021-06-20T11:32:37Z</time>
      </trkpt>
      <trkpt lat="42.133701" lon="1.063568">
        <ele>926.608</ele>
        <time>2021-06-20T11:32:38Z</time>
      </trkpt>
      <trkpt lat="42.133601" lon="1.063496">
        <ele>925.424</ele>
        <time>2021-06-20T11:32:41Z</time>
      </trkpt>
      <trkpt lat="42.133551" lon="1.063444">
        <ele>925.033</ele>
        <time>2021-06-20T11:32:43Z</time>
      </trkpt>
      <trkpt lat="42.133512" lon="1.063391">
        <ele>924.410</ele>
        <time>2021-06-20T11:32:45Z</time>
      </trkpt>
      <trkpt lat="42.133412" lon="1.063268">
        <ele>923.692</ele>
        <time>2021-06-20T11:32:50Z</time>
      </trkpt>
      <trkpt lat="42.133337" lon="1.063167">
        <ele>922.886</ele>
        <time>2021-06-20T11:32:54Z</time>
      </trkpt>
      <trkpt lat="42.133237" lon="1.063030">
        <ele>922.277</ele>
        <time>2021-06-20T11:32:59Z</time>
      </trkpt>
      <trkpt lat="42.133198" lon="1.062974">
        <ele>921.817</ele>
        <time>2021-06-20T11:33:01Z</time>
      </trkpt>
      <trkpt lat="42.133080" lon="1.062792">
        <ele>921.275</ele>
        <time>2021-06-20T11:33:07Z</time>
      </trkpt>
      <trkpt lat="42.133033" lon="1.062723">
        <ele>920.665</ele>
        <time>2021-06-20T11:33:09Z</time>
      </trkpt>
      <trkpt lat="42.132952" lon="1.062603">
        <ele>920.068</ele>
        <time>2021-06-20T11:33:12Z</time>
      </trkpt>
      <trkpt lat="42.132877" lon="1.062471">
        <ele>919.614</ele>
        <time>2021-06-20T11:33:15Z</time>
      </trkpt>
      <trkpt lat="42.132834" lon="1.062376">
        <ele>919.008</ele>
        <time>2021-06-20T11:33:17Z</time>
      </trkpt>
      <trkpt lat="42.132737" lon="1.062192">
        <ele>918.053</ele>
        <time>2021-06-20T11:33:21Z</time>
      </trkpt>
      <trkpt lat="42.132709" lon="1.062148">
        <ele>917.882</ele>
        <time>2021-06-20T11:33:22Z</time>
      </trkpt>
      <trkpt lat="42.132648" lon="1.062058">
        <ele>917.099</ele>
        <time>2021-06-20T11:33:24Z</time>
      </trkpt>
      <trkpt lat="42.132617" lon="1.062011">
        <ele>917.011</ele>
        <time>2021-06-20T11:33:25Z</time>
      </trkpt>
      <trkpt lat="42.132490" lon="1.061824">
        <ele>916.065</ele>
        <time>2021-06-20T11:33:29Z</time>
      </trkpt>
      <trkpt lat="42.132336" lon="1.061580">
        <ele>915.286</ele>
        <time>2021-06-20T11:33:34Z</time>
      </trkpt>
      <trkpt lat="42.132241" lon="1.061427">
        <ele>914.276</ele>
        <time>2021-06-20T11:33:37Z</time>
      </trkpt>
      <trkpt lat="42.132102" lon="1.061216">
        <ele>913.224</ele>
        <time>2021-06-20T11:33:41Z</time>
      </trkpt>
      <trkpt lat="42.132064" lon="1.061168">
        <ele>913.248</ele>
        <time>2021-06-20T11:33:42Z</time>
      </trkpt>
      <trkpt lat="42.131893" lon="1.061002">
        <ele>912.061</ele>
        <time>2021-06-20T11:33:46Z</time>
      </trkpt>
      <trkpt lat="42.131847" lon="1.060967">
        <ele>911.617</ele>
        <time>2021-06-20T11:33:47Z</time>
      </trkpt>
      <trkpt lat="42.131754" lon="1.060904">
        <ele>911.008</ele>
        <time>2021-06-20T11:33:49Z</time>
      </trkpt>
      <trkpt lat="42.131656" lon="1.060847">
        <ele>910.691</ele>
        <time>2021-06-20T11:33:51Z</time>
      </trkpt>
      <trkpt lat="42.131609" lon="1.060812">
        <ele>910.010</ele>
        <time>2021-06-20T11:33:52Z</time>
      </trkpt>
      <trkpt lat="42.131562" lon="1.060775">
        <ele>910.017</ele>
        <time>2021-06-20T11:33:53Z</time>
      </trkpt>
      <trkpt lat="42.131369" lon="1.060619">
        <ele>909.219</ele>
        <time>2021-06-20T11:33:57Z</time>
      </trkpt>
      <trkpt lat="42.131324" lon="1.060573">
        <ele>908.863</ele>
        <time>2021-06-20T11:33:58Z</time>
      </trkpt>
      <trkpt lat="42.131280" lon="1.060523">
        <ele>908.494</ele>
        <time>2021-06-20T11:33:59Z</time>
      </trkpt>
      <trkpt lat="42.131193" lon="1.060415">
        <ele>908.234</ele>
        <time>2021-06-20T11:34:01Z</time>
      </trkpt>
      <trkpt lat="42.131001" lon="1.060185">
        <ele>906.692</ele>
        <time>2021-06-20T11:34:05Z</time>
      </trkpt>
      <trkpt lat="42.130855" lon="1.060020">
        <ele>905.628</ele>
        <time>2021-06-20T11:34:08Z</time>
      </trkpt>
      <trkpt lat="42.130657" lon="1.059791">
        <ele>904.289</ele>
        <time>2021-06-20T11:34:12Z</time>
      </trkpt>
      <trkpt lat="42.130483" lon="1.059626">
        <ele>903.217</ele>
        <time>2021-06-20T11:34:15Z</time>
      </trkpt>
      <trkpt lat="42.130422" lon="1.059574">
        <ele>902.808</ele>
        <time>2021-06-20T11:34:16Z</time>
      </trkpt>
      <trkpt lat="42.130301" lon="1.059476">
        <ele>901.879</ele>
        <time>2021-06-20T11:34:18Z</time>
      </trkpt>
      <trkpt lat="42.130179" lon="1.059386">
        <ele>901.038</ele>
        <time>2021-06-20T11:34:20Z</time>
      </trkpt>
      <trkpt lat="42.130001" lon="1.059252">
        <ele>899.855</ele>
        <time>2021-06-20T11:34:23Z</time>
      </trkpt>
      <trkpt lat="42.129955" lon="1.059199">
        <ele>899.877</ele>
        <time>2021-06-20T11:34:24Z</time>
      </trkpt>
      <trkpt lat="42.129927" lon="1.059139">
        <ele>899.261</ele>
        <time>2021-06-20T11:34:25Z</time>
      </trkpt>
      <trkpt lat="42.129915" lon="1.059085">
        <ele>898.622</ele>
        <time>2021-06-20T11:34:26Z</time>
      </trkpt>
      <trkpt lat="42.129908" lon="1.059012">
        <ele>897.862</ele>
        <time>2021-06-20T11:34:28Z</time>
      </trkpt>
      <trkpt lat="42.129907" lon="1.058986">
        <ele>897.480</ele>
        <time>2021-06-20T11:34:29Z</time>
      </trkpt>
      <trkpt lat="42.129898" lon="1.058932">
        <ele>896.232</ele>
        <time>2021-06-20T11:34:31Z</time>
      </trkpt>
      <trkpt lat="42.129880" lon="1.058876">
        <ele>895.492</ele>
        <time>2021-06-20T11:34:33Z</time>
      </trkpt>
      <trkpt lat="42.129850" lon="1.058777">
        <ele>894.211</ele>
        <time>2021-06-20T11:34:36Z</time>
      </trkpt>
      <trkpt lat="42.129817" lon="1.058672">
        <ele>893.008</ele>
        <time>2021-06-20T11:34:39Z</time>
      </trkpt>
      <trkpt lat="42.129785" lon="1.058617">
        <ele>892.010</ele>
        <time>2021-06-20T11:34:41Z</time>
      </trkpt>
      <trkpt lat="42.129769" lon="1.058587">
        <ele>891.649</ele>
        <time>2021-06-20T11:34:42Z</time>
      </trkpt>
      <trkpt lat="42.129736" lon="1.058526">
        <ele>890.446</ele>
        <time>2021-06-20T11:34:44Z</time>
      </trkpt>
      <trkpt lat="42.129700" lon="1.058474">
        <ele>889.288</ele>
        <time>2021-06-20T11:34:46Z</time>
      </trkpt>
      <trkpt lat="42.129640" lon="1.058399">
        <ele>887.822</ele>
        <time>2021-06-20T11:34:49Z</time>
      </trkpt>
      <trkpt lat="42.129618" lon="1.058375">
        <ele>887.433</ele>
        <time>2021-06-20T11:34:50Z</time>
      </trkpt>
      <trkpt lat="42.129596" lon="1.058349">
        <ele>886.863</ele>
        <time>2021-06-20T11:34:51Z</time>
      </trkpt>
      <trkpt lat="42.129524" lon="1.058288">
        <ele>885.631</ele>
        <time>2021-06-20T11:34:54Z</time>
      </trkpt>
      <trkpt lat="42.129478" lon="1.058269">
        <ele>884.639</ele>
        <time>2021-06-20T11:34:56Z</time>
      </trkpt>
      <trkpt lat="42.129440" lon="1.058247">
        <ele>883.401</ele>
        <time>2021-06-20T11:34:58Z</time>
      </trkpt>
      <trkpt lat="42.129407" lon="1.058232">
        <ele>882.021</ele>
        <time>2021-06-20T11:35:00Z</time>
      </trkpt>
      <trkpt lat="42.129377" lon="1.058214">
        <ele>880.608</ele>
        <time>2021-06-20T11:35:02Z</time>
      </trkpt>
      <trkpt lat="42.129352" lon="1.058193">
        <ele>879.840</ele>
        <time>2021-06-20T11:35:04Z</time>
      </trkpt>
      <trkpt lat="42.129322" lon="1.058171">
        <ele>878.659</ele>
        <time>2021-06-20T11:35:06Z</time>
      </trkpt>
      <trkpt lat="42.129290" lon="1.058142">
        <ele>877.456</ele>
        <time>2021-06-20T11:35:08Z</time>
      </trkpt>
      <trkpt lat="42.129257" lon="1.058109">
        <ele>875.888</ele>
        <time>2021-06-20T11:35:10Z</time>
      </trkpt>
      <trkpt lat="42.129225" lon="1.058072">
        <ele>874.642</ele>
        <time>2021-06-20T11:35:12Z</time>
      </trkpt>
      <trkpt lat="42.129197" lon="1.058033">
        <ele>873.473</ele>
        <time>2021-06-20T11:35:14Z</time>
      </trkpt>
      <trkpt lat="42.129176" lon="1.057991">
        <ele>872.423</ele>
        <time>2021-06-20T11:35:16Z</time>
      </trkpt>
      <trkpt lat="42.129152" lon="1.057956">
        <ele>871.231</ele>
        <time>2021-06-20T11:35:18Z</time>
      </trkpt>
      <trkpt lat="42.129124" lon="1.057918">
        <ele>870.287</ele>
        <time>2021-06-20T11:35:20Z</time>
      </trkpt>
      <trkpt lat="42.129094" lon="1.057875">
        <ele>869.042</ele>
        <time>2021-06-20T11:35:22Z</time>
      </trkpt>
      <trkpt lat="42.129046" lon="1.057798">
        <ele>867.626</ele>
        <time>2021-06-20T11:35:25Z</time>
      </trkpt>
      <trkpt lat="42.129011" lon="1.057744">
        <ele>866.608</ele>
        <time>2021-06-20T11:35:27Z</time>
      </trkpt>
      <trkpt lat="42.128993" lon="1.057715">
        <ele>865.295</ele>
        <time>2021-06-20T11:35:28Z</time>
      </trkpt>
      <trkpt lat="42.128955" lon="1.057651">
        <ele>864.064</ele>
        <time>2021-06-20T11:35:30Z</time>
      </trkpt>
      <trkpt lat="42.128912" lon="1.057591">
        <ele>862.851</ele>
        <time>2021-06-20T11:35:32Z</time>
      </trkpt>
      <trkpt lat="42.128890" lon="1.057563">
        <ele>862.093</ele>
        <time>2021-06-20T11:35:33Z</time>
      </trkpt>
      <trkpt lat="42.128869" lon="1.057538">
        <ele>861.427</ele>
        <time>2021-06-20T11:35:34Z</time>
      </trkpt>
      <trkpt lat="42.128833" lon="1.057493">
        <ele>860.278</ele>
        <time>2021-06-20T11:35:36Z</time>
      </trkpt>
      <trkpt lat="42.128804" lon="1.057449">
        <ele>859.048</ele>
        <time>2021-06-20T11:35:38Z</time>
      </trkpt>
      <trkpt lat="42.128790" lon="1.057419">
        <ele>858.426</ele>
        <time>2021-06-20T11:35:39Z</time>
      </trkpt>
      <trkpt lat="42.128774" lon="1.057385">
        <ele>857.827</ele>
        <time>2021-06-20T11:35:40Z</time>
      </trkpt>
      <trkpt lat="42.128754" lon="1.057350">
        <ele>857.268</ele>
        <time>2021-06-20T11:35:41Z</time>
      </trkpt>
      <trkpt lat="42.128733" lon="1.057316">
        <ele>856.414</ele>
        <time>2021-06-20T11:35:42Z</time>
      </trkpt>
      <trkpt lat="42.128689" lon="1.057254">
        <ele>855.208</ele>
        <time>2021-06-20T11:35:44Z</time>
      </trkpt>
      <trkpt lat="42.128646" lon="1.057195">
        <ele>854.029</ele>
        <time>2021-06-20T11:35:46Z</time>
      </trkpt>
      <trkpt lat="42.128600" lon="1.057142">
        <ele>852.668</ele>
        <time>2021-06-20T11:35:48Z</time>
      </trkpt>
      <trkpt lat="42.128551" lon="1.057101">
        <ele>851.075</ele>
        <time>2021-06-20T11:35:50Z</time>
      </trkpt>
      <trkpt lat="42.128505" lon="1.057059">
        <ele>849.867</ele>
        <time>2021-06-20T11:35:52Z</time>
      </trkpt>
      <trkpt lat="42.128482" lon="1.057037">
        <ele>849.081</ele>
        <time>2021-06-20T11:35:53Z</time>
      </trkpt>
      <trkpt lat="42.128461" lon="1.057013">
        <ele>848.422</ele>
        <time>2021-06-20T11:35:54Z</time>
      </trkpt>
      <trkpt lat="42.128416" lon="1.056960">
        <ele>846.642</ele>
        <time>2021-06-20T11:35:56Z</time>
      </trkpt>
      <trkpt lat="42.128371" lon="1.056902">
        <ele>845.020</ele>
        <time>2021-06-20T11:35:58Z</time>
      </trkpt>
      <trkpt lat="42.128324" lon="1.056846">
        <ele>843.671</ele>
        <time>2021-06-20T11:36:00Z</time>
      </trkpt>
      <trkpt lat="42.128272" lon="1.056783">
        <ele>842.641</ele>
        <time>2021-06-20T11:36:02Z</time>
      </trkpt>
      <trkpt lat="42.128208" lon="1.056708">
        <ele>841.215</ele>
        <time>2021-06-20T11:36:04Z</time>
      </trkpt>
      <trkpt lat="42.128139" lon="1.056622">
        <ele>839.608</ele>
        <time>2021-06-20T11:36:06Z</time>
      </trkpt>
      <trkpt lat="42.128061" lon="1.056526">
        <ele>838.284</ele>
        <time>2021-06-20T11:36:08Z</time>
      </trkpt>
      <trkpt lat="42.127984" lon="1.056420">
        <ele>836.813</ele>
        <time>2021-06-20T11:36:10Z</time>
      </trkpt>
      <trkpt lat="42.127908" lon="1.056312">
        <ele>835.830</ele>
        <time>2021-06-20T11:36:12Z</time>
      </trkpt>
      <trkpt lat="42.127867" lon="1.056257">
        <ele>835.012</ele>
        <time>2021-06-20T11:36:13Z</time>
      </trkpt>
      <trkpt lat="42.127827" lon="1.056203">
        <ele>834.476</ele>
        <time>2021-06-20T11:36:14Z</time>
      </trkpt>
      <trkpt lat="42.127744" lon="1.056093">
        <ele>832.637</ele>
        <time>2021-06-20T11:36:16Z</time>
      </trkpt>
      <trkpt lat="42.127663" lon="1.055973">
        <ele>831.267</ele>
        <time>2021-06-20T11:36:18Z</time>
      </trkpt>
      <trkpt lat="42.127539" lon="1.055783">
        <ele>829.895</ele>
        <time>2021-06-20T11:36:21Z</time>
      </trkpt>
      <trkpt lat="42.127456" lon="1.055658">
        <ele>828.644</ele>
        <time>2021-06-20T11:36:23Z</time>
      </trkpt>
      <trkpt lat="42.127371" lon="1.055540">
        <ele>826.805</ele>
        <time>2021-06-20T11:36:25Z</time>
      </trkpt>
      <trkpt lat="42.127277" lon="1.055443">
        <ele>825.415</ele>
        <time>2021-06-20T11:36:27Z</time>
      </trkpt>
      <trkpt lat="42.127175" lon="1.055365">
        <ele>824.408</ele>
        <time>2021-06-20T11:36:29Z</time>
      </trkpt>
      <trkpt lat="42.127069" lon="1.055287">
        <ele>823.491</ele>
        <time>2021-06-20T11:36:31Z</time>
      </trkpt>
      <trkpt lat="42.126898" lon="1.055159">
        <ele>822.060</ele>
        <time>2021-06-20T11:36:34Z</time>
      </trkpt>
      <trkpt lat="42.126717" lon="1.055006">
        <ele>820.437</ele>
        <time>2021-06-20T11:36:37Z</time>
      </trkpt>
      <trkpt lat="42.126589" lon="1.054906">
        <ele>819.079</ele>
        <time>2021-06-20T11:36:39Z</time>
      </trkpt>
      <trkpt lat="42.126475" lon="1.054811">
        <ele>818.043</ele>
        <time>2021-06-20T11:36:41Z</time>
      </trkpt>
      <trkpt lat="42.126434" lon="1.054775">
        <ele>817.454</ele>
        <time>2021-06-20T11:36:42Z</time>
      </trkpt>
      <trkpt lat="42.126323" lon="1.054684">
        <ele>815.884</ele>
        <time>2021-06-20T11:36:45Z</time>
      </trkpt>
      <trkpt lat="42.126241" lon="1.054619">
        <ele>814.852</ele>
        <time>2021-06-20T11:36:47Z</time>
      </trkpt>
      <trkpt lat="42.126198" lon="1.054584">
        <ele>814.295</ele>
        <time>2021-06-20T11:36:48Z</time>
      </trkpt>
      <trkpt lat="42.126155" lon="1.054546">
        <ele>813.849</ele>
        <time>2021-06-20T11:36:49Z</time>
      </trkpt>
      <trkpt lat="42.126062" lon="1.054475">
        <ele>813.023</ele>
        <time>2021-06-20T11:36:51Z</time>
      </trkpt>
      <trkpt lat="42.126014" lon="1.054443">
        <ele>812.408</ele>
        <time>2021-06-20T11:36:52Z</time>
      </trkpt>
      <trkpt lat="42.125971" lon="1.054409">
        <ele>811.646</ele>
        <time>2021-06-20T11:36:53Z</time>
      </trkpt>
      <trkpt lat="42.125931" lon="1.054367">
        <ele>811.235</ele>
        <time>2021-06-20T11:36:54Z</time>
      </trkpt>
      <trkpt lat="42.125846" lon="1.054270">
        <ele>810.412</ele>
        <time>2021-06-20T11:36:56Z</time>
      </trkpt>
      <trkpt lat="42.125801" lon="1.054222">
        <ele>809.884</ele>
        <time>2021-06-20T11:36:57Z</time>
      </trkpt>
      <trkpt lat="42.125710" lon="1.054120">
        <ele>808.698</ele>
        <time>2021-06-20T11:36:59Z</time>
      </trkpt>
      <trkpt lat="42.125574" lon="1.053948">
        <ele>807.229</ele>
        <time>2021-06-20T11:37:02Z</time>
      </trkpt>
      <trkpt lat="42.125479" lon="1.053825">
        <ele>806.619</ele>
        <time>2021-06-20T11:37:04Z</time>
      </trkpt>
      <trkpt lat="42.125431" lon="1.053759">
        <ele>806.227</ele>
        <time>2021-06-20T11:37:05Z</time>
      </trkpt>
      <trkpt lat="42.125297" lon="1.053541">
        <ele>804.632</ele>
        <time>2021-06-20T11:37:08Z</time>
      </trkpt>
      <trkpt lat="42.125263" lon="1.053461">
        <ele>804.092</ele>
        <time>2021-06-20T11:37:09Z</time>
      </trkpt>
      <trkpt lat="42.125232" lon="1.053384">
        <ele>803.411</ele>
        <time>2021-06-20T11:37:10Z</time>
      </trkpt>
      <trkpt lat="42.125138" lon="1.053139">
        <ele>802.208</ele>
        <time>2021-06-20T11:37:13Z</time>
      </trkpt>
      <trkpt lat="42.125079" lon="1.052967">
        <ele>801.610</ele>
        <time>2021-06-20T11:37:15Z</time>
      </trkpt>
      <trkpt lat="42.125041" lon="1.052892">
        <ele>801.229</ele>
        <time>2021-06-20T11:37:16Z</time>
      </trkpt>
      <trkpt lat="42.124941" lon="1.052766">
        <ele>799.896</ele>
        <time>2021-06-20T11:37:18Z</time>
      </trkpt>
      <trkpt lat="42.124771" lon="1.052596">
        <ele>798.848</ele>
        <time>2021-06-20T11:37:21Z</time>
      </trkpt>
      <trkpt lat="42.124582" lon="1.052442">
        <ele>797.882</ele>
        <time>2021-06-20T11:37:24Z</time>
      </trkpt>
      <trkpt lat="42.124517" lon="1.052396">
        <ele>797.633</ele>
        <time>2021-06-20T11:37:25Z</time>
      </trkpt>
      <trkpt lat="42.124317" lon="1.052263">
        <ele>796.213</ele>
        <time>2021-06-20T11:37:28Z</time>
      </trkpt>
      <trkpt lat="42.124061" lon="1.052045">
        <ele>795.211</ele>
        <time>2021-06-20T11:37:32Z</time>
      </trkpt>
      <trkpt lat="42.123911" lon="1.051807">
        <ele>794.035</ele>
        <time>2021-06-20T11:37:35Z</time>
      </trkpt>
      <trkpt lat="42.123874" lon="1.051724">
        <ele>793.486</ele>
        <time>2021-06-20T11:37:36Z</time>
      </trkpt>
      <trkpt lat="42.123843" lon="1.051645">
        <ele>793.014</ele>
        <time>2021-06-20T11:37:37Z</time>
      </trkpt>
      <trkpt lat="42.123811" lon="1.051568">
        <ele>792.408</ele>
        <time>2021-06-20T11:37:38Z</time>
      </trkpt>
      <trkpt lat="42.123710" lon="1.051333">
        <ele>791.610</ele>
        <time>2021-06-20T11:37:41Z</time>
      </trkpt>
      <trkpt lat="42.123687" lon="1.051249">
        <ele>791.239</ele>
        <time>2021-06-20T11:37:42Z</time>
      </trkpt>
      <trkpt lat="42.123672" lon="1.050982">
        <ele>790.216</ele>
        <time>2021-06-20T11:37:45Z</time>
      </trkpt>
      <trkpt lat="42.123673" lon="1.050893">
        <ele>789.878</ele>
        <time>2021-06-20T11:37:46Z</time>
      </trkpt>
      <trkpt lat="42.123650" lon="1.050718">
        <ele>789.092</ele>
        <time>2021-06-20T11:37:48Z</time>
      </trkpt>
      <trkpt lat="42.123628" lon="1.050634">
        <ele>788.673</ele>
        <time>2021-06-20T11:37:49Z</time>
      </trkpt>
      <trkpt lat="42.123601" lon="1.050555">
        <ele>788.433</ele>
        <time>2021-06-20T11:37:50Z</time>
      </trkpt>
      <trkpt lat="42.123474" lon="1.050348">
        <ele>788.071</ele>
        <time>2021-06-20T11:37:53Z</time>
      </trkpt>
      <trkpt lat="42.123160" lon="1.049966">
        <ele>786.677</ele>
        <time>2021-06-20T11:37:59Z</time>
      </trkpt>
      <trkpt lat="42.122847" lon="1.049589">
        <ele>785.461</ele>
        <time>2021-06-20T11:38:05Z</time>
      </trkpt>
      <trkpt lat="42.122797" lon="1.049528">
        <ele>785.427</ele>
        <time>2021-06-20T11:38:06Z</time>
      </trkpt>
      <trkpt lat="42.122640" lon="1.049342">
        <ele>785.008</ele>
        <time>2021-06-20T11:38:10Z</time>
      </trkpt>
      <trkpt lat="42.122454" lon="1.049147">
        <ele>784.644</ele>
        <time>2021-06-20T11:38:17Z</time>
      </trkpt>
      <trkpt lat="42.122375" lon="1.049046">
        <ele>784.013</ele>
        <time>2021-06-20T11:38:20Z</time>
      </trkpt>
      <trkpt lat="42.122332" lon="1.048949">
        <ele>783.870</ele>
        <time>2021-06-20T11:38:22Z</time>
      </trkpt>
      <trkpt lat="42.122307" lon="1.048899">
        <ele>783.842</ele>
        <time>2021-06-20T11:38:23Z</time>
      </trkpt>
      <trkpt lat="42.122167" lon="1.048723">
        <ele>783.696</ele>
        <time>2021-06-20T11:38:27Z</time>
      </trkpt>
      <trkpt lat="42.122060" lon="1.048572">
        <ele>783.627</ele>
        <time>2021-06-20T11:38:30Z</time>
      </trkpt>
      <trkpt lat="42.121969" lon="1.048480">
        <ele>783.467</ele>
        <time>2021-06-20T11:38:32Z</time>
      </trkpt>
      <trkpt lat="42.121823" lon="1.048350">
        <ele>783.265</ele>
        <time>2021-06-20T11:38:35Z</time>
      </trkpt>
      <trkpt lat="42.121728" lon="1.048272">
        <ele>782.693</ele>
        <time>2021-06-20T11:38:37Z</time>
      </trkpt>
      <trkpt lat="42.121685" lon="1.048231">
        <ele>782.665</ele>
        <time>2021-06-20T11:38:38Z</time>
      </trkpt>
      <trkpt lat="42.121640" lon="1.048195">
        <ele>782.621</ele>
        <time>2021-06-20T11:38:39Z</time>
      </trkpt>
      <trkpt lat="42.121487" lon="1.048130">
        <ele>782.408</ele>
        <time>2021-06-20T11:38:42Z</time>
      </trkpt>
      <trkpt lat="42.121140" lon="1.048018">
        <ele>782.256</ele>
        <time>2021-06-20T11:38:48Z</time>
      </trkpt>
      <trkpt lat="42.120972" lon="1.047906">
        <ele>782.095</ele>
        <time>2021-06-20T11:38:51Z</time>
      </trkpt>
      <trkpt lat="42.120923" lon="1.047850">
        <ele>781.882</ele>
        <time>2021-06-20T11:38:52Z</time>
      </trkpt>
      <trkpt lat="42.120599" lon="1.047430">
        <ele>781.874</ele>
        <time>2021-06-20T11:38:59Z</time>
      </trkpt>
      <trkpt lat="42.120444" lon="1.047138">
        <ele>781.848</ele>
        <time>2021-06-20T11:39:03Z</time>
      </trkpt>
      <trkpt lat="42.120399" lon="1.047070">
        <ele>782.099</ele>
        <time>2021-06-20T11:39:04Z</time>
      </trkpt>
      <trkpt lat="42.120062" lon="1.046475">
        <ele>782.289</ele>
        <time>2021-06-20T11:39:12Z</time>
      </trkpt>
      <trkpt lat="42.119995" lon="1.046323">
        <ele>782.287</ele>
        <time>2021-06-20T11:39:14Z</time>
      </trkpt>
      <trkpt lat="42.119871" lon="1.046117">
        <ele>782.286</ele>
        <time>2021-06-20T11:39:17Z</time>
      </trkpt>
      <trkpt lat="42.119782" lon="1.046017">
        <ele>782.260</ele>
        <time>2021-06-20T11:39:19Z</time>
      </trkpt>
      <trkpt lat="42.119695" lon="1.045987">
        <ele>782.226</ele>
        <time>2021-06-20T11:39:21Z</time>
      </trkpt>
      <trkpt lat="42.119618" lon="1.046103">
        <ele>782.008</ele>
        <time>2021-06-20T11:39:24Z</time>
      </trkpt>
      <trkpt lat="42.119650" lon="1.046295">
        <ele>781.815</ele>
        <time>2021-06-20T11:39:27Z</time>
      </trkpt>
      <trkpt lat="42.119667" lon="1.046357">
        <ele>781.874</ele>
        <time>2021-06-20T11:39:28Z</time>
      </trkpt>
      <trkpt lat="42.119662" lon="1.046471">
        <ele>781.641</ele>
        <time>2021-06-20T11:39:30Z</time>
      </trkpt>
      <trkpt lat="42.119562" lon="1.046536">
        <ele>781.423</ele>
        <time>2021-06-20T11:39:33Z</time>
      </trkpt>
      <trkpt lat="42.119423" lon="1.046440">
        <ele>781.287</ele>
        <time>2021-06-20T11:39:36Z</time>
      </trkpt>
      <trkpt lat="42.119377" lon="1.046393">
        <ele>781.068</ele>
        <time>2021-06-20T11:39:37Z</time>
      </trkpt>
      <trkpt lat="42.119152" lon="1.046089">
        <ele>780.458</ele>
        <time>2021-06-20T11:39:42Z</time>
      </trkpt>
      <trkpt lat="42.119056" lon="1.045945">
        <ele>780.016</ele>
        <time>2021-06-20T11:39:44Z</time>
      </trkpt>
      <trkpt lat="42.118794" lon="1.045558">
        <ele>779.296</ele>
        <time>2021-06-20T11:39:49Z</time>
      </trkpt>
      <trkpt lat="42.118629" lon="1.045309">
        <ele>779.031</ele>
        <time>2021-06-20T11:39:52Z</time>
      </trkpt>
      <trkpt lat="42.118401" lon="1.044995">
        <ele>778.624</ele>
        <time>2021-06-20T11:39:56Z</time>
      </trkpt>
      <trkpt lat="42.118300" lon="1.044859">
        <ele>778.608</ele>
        <time>2021-06-20T11:39:59Z</time>
      </trkpt>
      <trkpt lat="42.118243" lon="1.044754">
        <ele>778.626</ele>
        <time>2021-06-20T11:40:03Z</time>
      </trkpt>
      <trkpt lat="42.118099" lon="1.044660">
        <ele>778.435</ele>
        <time>2021-06-20T11:40:08Z</time>
      </trkpt>
      <trkpt lat="42.117879" lon="1.044335">
        <ele>778.262</ele>
        <time>2021-06-20T11:40:16Z</time>
      </trkpt>
      <trkpt lat="42.117738" lon="1.044067">
        <ele>777.674</ele>
        <time>2021-06-20T11:40:22Z</time>
      </trkpt>
      <trkpt lat="42.117674" lon="1.043938">
        <ele>777.618</ele>
        <time>2021-06-20T11:40:25Z</time>
      </trkpt>
      <trkpt lat="42.117526" lon="1.043679">
        <ele>776.619</ele>
        <time>2021-06-20T11:40:31Z</time>
      </trkpt>
      <trkpt lat="42.117497" lon="1.043638">
        <ele>776.429</ele>
        <time>2021-06-20T11:40:32Z</time>
      </trkpt>
      <trkpt lat="42.117416" lon="1.043518">
        <ele>775.477</ele>
        <time>2021-06-20T11:40:35Z</time>
      </trkpt>
      <trkpt lat="42.117276" lon="1.043317">
        <ele>774.442</ele>
        <time>2021-06-20T11:40:40Z</time>
      </trkpt>
      <trkpt lat="42.117247" lon="1.043275">
        <ele>774.222</ele>
        <time>2021-06-20T11:40:41Z</time>
      </trkpt>
      <trkpt lat="42.117130" lon="1.043110">
        <ele>773.214</ele>
        <time>2021-06-20T11:40:45Z</time>
      </trkpt>
      <trkpt lat="42.117066" lon="1.043037">
        <ele>772.808</ele>
        <time>2021-06-20T11:40:47Z</time>
      </trkpt>
      <trkpt lat="42.116992" lon="1.042994">
        <ele>772.461</ele>
        <time>2021-06-20T11:40:49Z</time>
      </trkpt>
      <trkpt lat="42.116953" lon="1.042984">
        <ele>772.060</ele>
        <time>2021-06-20T11:40:50Z</time>
      </trkpt>
      <trkpt lat="42.116836" lon="1.043031">
        <ele>771.457</ele>
        <time>2021-06-20T11:40:53Z</time>
      </trkpt>
      <trkpt lat="42.116801" lon="1.043062">
        <ele>771.049</ele>
        <time>2021-06-20T11:40:54Z</time>
      </trkpt>
      <trkpt lat="42.116766" lon="1.043096">
        <ele>770.863</ele>
        <time>2021-06-20T11:40:55Z</time>
      </trkpt>
      <trkpt lat="42.116658" lon="1.043199">
        <ele>769.864</ele>
        <time>2021-06-20T11:40:58Z</time>
      </trkpt>
      <trkpt lat="42.116585" lon="1.043272">
        <ele>769.224</ele>
        <time>2021-06-20T11:41:00Z</time>
      </trkpt>
      <trkpt lat="42.116551" lon="1.043309">
        <ele>769.032</ele>
        <time>2021-06-20T11:41:01Z</time>
      </trkpt>
      <trkpt lat="42.116521" lon="1.043352">
        <ele>768.412</ele>
        <time>2021-06-20T11:41:02Z</time>
      </trkpt>
      <trkpt lat="42.116422" lon="1.043510">
        <ele>767.632</ele>
        <time>2021-06-20T11:41:05Z</time>
      </trkpt>
      <trkpt lat="42.116365" lon="1.043640">
        <ele>767.405</ele>
        <time>2021-06-20T11:41:07Z</time>
      </trkpt>
      <trkpt lat="42.116366" lon="1.043788">
        <ele>767.008</ele>
        <time>2021-06-20T11:41:09Z</time>
      </trkpt>
      <trkpt lat="42.116418" lon="1.043910">
        <ele>766.238</ele>
        <time>2021-06-20T11:41:11Z</time>
      </trkpt>
      <trkpt lat="42.116445" lon="1.043969">
        <ele>765.827</ele>
        <time>2021-06-20T11:41:12Z</time>
      </trkpt>
      <trkpt lat="42.116469" lon="1.044027">
        <ele>765.674</ele>
        <time>2021-06-20T11:41:13Z</time>
      </trkpt>
      <trkpt lat="42.116493" lon="1.044080">
        <ele>765.296</ele>
        <time>2021-06-20T11:41:14Z</time>
      </trkpt>
      <trkpt lat="42.116521" lon="1.044134">
        <ele>764.660</ele>
        <time>2021-06-20T11:41:15Z</time>
      </trkpt>
      <trkpt lat="42.116632" lon="1.044359">
        <ele>763.611</ele>
        <time>2021-06-20T11:41:19Z</time>
      </trkpt>
      <trkpt lat="42.116764" lon="1.044596">
        <ele>762.631</ele>
        <time>2021-06-20T11:41:23Z</time>
      </trkpt>
      <trkpt lat="42.116840" lon="1.044787">
        <ele>761.659</ele>
        <time>2021-06-20T11:41:26Z</time>
      </trkpt>
      <trkpt lat="42.116863" lon="1.044846">
        <ele>761.476</ele>
        <time>2021-06-20T11:41:27Z</time>
      </trkpt>
      <trkpt lat="42.116927" lon="1.045019">
        <ele>760.290</ele>
        <time>2021-06-20T11:41:30Z</time>
      </trkpt>
      <trkpt lat="42.117014" lon="1.045243">
        <ele>759.219</ele>
        <time>2021-06-20T11:41:34Z</time>
      </trkpt>
      <trkpt lat="42.117034" lon="1.045297">
        <ele>758.808</ele>
        <time>2021-06-20T11:41:35Z</time>
      </trkpt>
      <trkpt lat="42.117141" lon="1.045610">
        <ele>757.854</ele>
        <time>2021-06-20T11:41:40Z</time>
      </trkpt>
      <trkpt lat="42.117162" lon="1.045675">
        <ele>757.643</ele>
        <time>2021-06-20T11:41:41Z</time>
      </trkpt>
      <trkpt lat="42.117194" lon="1.045806">
        <ele>757.050</ele>
        <time>2021-06-20T11:41:43Z</time>
      </trkpt>
      <trkpt lat="42.117205" lon="1.045874">
        <ele>756.682</ele>
        <time>2021-06-20T11:41:44Z</time>
      </trkpt>
      <trkpt lat="42.117231" lon="1.046041">
        <ele>755.436</ele>
        <time>2021-06-20T11:41:47Z</time>
      </trkpt>
      <trkpt lat="42.117229" lon="1.046069">
        <ele>755.287</ele>
        <time>2021-06-20T11:41:48Z</time>
      </trkpt>
      <trkpt lat="42.117215" lon="1.046094">
        <ele>754.437</ele>
        <time>2021-06-20T11:41:50Z</time>
      </trkpt>
      <trkpt lat="42.117215" lon="1.046105">
        <ele>754.255</ele>
        <time>2021-06-20T11:41:51Z</time>
      </trkpt>
      <trkpt lat="42.117210" lon="1.046109">
        <ele>753.649</ele>
        <time>2021-06-20T11:41:53Z</time>
      </trkpt>
      <trkpt lat="42.117198" lon="1.046053">
        <ele>748.802</ele>
        <time>2021-06-20T11:42:04Z</time>
      </trkpt>
      <trkpt lat="42.117198" lon="1.045956">
        <ele>747.422</ele>
        <time>2021-06-20T11:42:07Z</time>
      </trkpt>
      <trkpt lat="42.117188" lon="1.045928">
        <ele>746.808</ele>
        <time>2021-06-20T11:42:08Z</time>
      </trkpt>
      <trkpt lat="42.117149" lon="1.045913">
        <ele>746.091</ele>
        <time>2021-06-20T11:42:10Z</time>
      </trkpt>
      <trkpt lat="42.117126" lon="1.045920">
        <ele>745.830</ele>
        <time>2021-06-20T11:42:11Z</time>
      </trkpt>
      <trkpt lat="42.117105" lon="1.045925">
        <ele>745.657</ele>
        <time>2021-06-20T11:42:12Z</time>
      </trkpt>
      <trkpt lat="42.117046" lon="1.045953">
        <ele>744.879</ele>
        <time>2021-06-20T11:42:15Z</time>
      </trkpt>
      <trkpt lat="42.116984" lon="1.045985">
        <ele>743.863</ele>
        <time>2021-06-20T11:42:18Z</time>
      </trkpt>
      <trkpt lat="42.116955" lon="1.045992">
        <ele>743.474</ele>
        <time>2021-06-20T11:42:19Z</time>
      </trkpt>
      <trkpt lat="42.116856" lon="1.046041">
        <ele>742.294</ele>
        <time>2021-06-20T11:42:22Z</time>
      </trkpt>
      <trkpt lat="42.116774" lon="1.046075">
        <ele>741.872</ele>
        <time>2021-06-20T11:42:24Z</time>
      </trkpt>
      <trkpt lat="42.116734" lon="1.046091">
        <ele>741.014</ele>
        <time>2021-06-20T11:42:25Z</time>
      </trkpt>
      <trkpt lat="42.116690" lon="1.046100">
        <ele>740.654</ele>
        <time>2021-06-20T11:42:26Z</time>
      </trkpt>
      <trkpt lat="42.116547" lon="1.046165">
        <ele>739.809</ele>
        <time>2021-06-20T11:42:29Z</time>
      </trkpt>
      <trkpt lat="42.116373" lon="1.046317">
        <ele>738.408</ele>
        <time>2021-06-20T11:42:33Z</time>
      </trkpt>
      <trkpt lat="42.116330" lon="1.046343">
        <ele>738.288</ele>
        <time>2021-06-20T11:42:34Z</time>
      </trkpt>
      <trkpt lat="42.116088" lon="1.046473">
        <ele>737.247</ele>
        <time>2021-06-20T11:42:39Z</time>
      </trkpt>
      <trkpt lat="42.115988" lon="1.046517">
        <ele>736.814</ele>
        <time>2021-06-20T11:42:41Z</time>
      </trkpt>
      <trkpt lat="42.115897" lon="1.046555">
        <ele>736.446</ele>
        <time>2021-06-20T11:42:43Z</time>
      </trkpt>
      <trkpt lat="42.115822" lon="1.046614">
        <ele>736.270</ele>
        <time>2021-06-20T11:42:45Z</time>
      </trkpt>
      <trkpt lat="42.115789" lon="1.046646">
        <ele>735.831</ele>
        <time>2021-06-20T11:42:46Z</time>
      </trkpt>
      <trkpt lat="42.115724" lon="1.046700">
        <ele>735.231</ele>
        <time>2021-06-20T11:42:48Z</time>
      </trkpt>
      <trkpt lat="42.115657" lon="1.046744">
        <ele>734.849</ele>
        <time>2021-06-20T11:42:51Z</time>
      </trkpt>
      <trkpt lat="42.115644" lon="1.046746">
        <ele>734.658</ele>
        <time>2021-06-20T11:42:52Z</time>
      </trkpt>
      <trkpt lat="42.115596" lon="1.046747">
        <ele>733.852</ele>
        <time>2021-06-20T11:42:55Z</time>
      </trkpt>
      <trkpt lat="42.115566" lon="1.046848">
        <ele>733.217</ele>
        <time>2021-06-20T11:42:58Z</time>
      </trkpt>
      <trkpt lat="42.115568" lon="1.046893">
        <ele>733.008</ele>
        <time>2021-06-20T11:42:59Z</time>
      </trkpt>
      <trkpt lat="42.115562" lon="1.047041">
        <ele>732.692</ele>
        <time>2021-06-20T11:43:02Z</time>
      </trkpt>
      <trkpt lat="42.115561" lon="1.047155">
        <ele>732.471</ele>
        <time>2021-06-20T11:43:04Z</time>
      </trkpt>
      <trkpt lat="42.115585" lon="1.047415">
        <ele>731.238</ele>
        <time>2021-06-20T11:43:08Z</time>
      </trkpt>
      <trkpt lat="42.115598" lon="1.047562">
        <ele>731.080</ele>
        <time>2021-06-20T11:43:10Z</time>
      </trkpt>
      <trkpt lat="42.115622" lon="1.047824">
        <ele>730.284</ele>
        <time>2021-06-20T11:43:14Z</time>
      </trkpt>
      <trkpt lat="42.115619" lon="1.047864">
        <ele>729.895</ele>
        <time>2021-06-20T11:43:15Z</time>
      </trkpt>
      <trkpt lat="42.115613" lon="1.047886">
        <ele>729.695</ele>
        <time>2021-06-20T11:43:16Z</time>
      </trkpt>
      <trkpt lat="42.115605" lon="1.047900">
        <ele>729.263</ele>
        <time>2021-06-20T11:43:19Z</time>
      </trkpt>
      <trkpt lat="42.115572" lon="1.047906">
        <ele>727.831</ele>
        <time>2021-06-20T11:43:31Z</time>
      </trkpt>
      <trkpt lat="42.115533" lon="1.047954">
        <ele>727.461</ele>
        <time>2021-06-20T11:43:33Z</time>
      </trkpt>
      <trkpt lat="42.115467" lon="1.048036">
        <ele>726.807</ele>
        <time>2021-06-20T11:43:36Z</time>
      </trkpt>
      <trkpt lat="42.115436" lon="1.048038">
        <ele>726.608</ele>
        <time>2021-06-20T11:43:37Z</time>
      </trkpt>
      <trkpt lat="42.115291" lon="1.047918">
        <ele>725.860</ele>
        <time>2021-06-20T11:43:41Z</time>
      </trkpt>
      <trkpt lat="42.115250" lon="1.047857">
        <ele>725.679</ele>
        <time>2021-06-20T11:43:42Z</time>
      </trkpt>
      <trkpt lat="42.115175" lon="1.047701">
        <ele>724.836</ele>
        <time>2021-06-20T11:43:44Z</time>
      </trkpt>
      <trkpt lat="42.115140" lon="1.047612">
        <ele>724.648</ele>
        <time>2021-06-20T11:43:45Z</time>
      </trkpt>
      <trkpt lat="42.115067" lon="1.047413">
        <ele>724.242</ele>
        <time>2021-06-20T11:43:47Z</time>
      </trkpt>
      <trkpt lat="42.115025" lon="1.047313">
        <ele>724.063</ele>
        <time>2021-06-20T11:43:48Z</time>
      </trkpt>
      <trkpt lat="42.114819" lon="1.046919">
        <ele>723.273</ele>
        <time>2021-06-20T11:43:52Z</time>
      </trkpt>
      <trkpt lat="42.114658" lon="1.046620">
        <ele>722.811</ele>
        <time>2021-06-20T11:43:55Z</time>
      </trkpt>
      <trkpt lat="42.114359" lon="1.046005">
        <ele>722.671</ele>
        <time>2021-06-20T11:44:01Z</time>
      </trkpt>
      <trkpt lat="42.114173" lon="1.045774">
        <ele>722.641</ele>
        <time>2021-06-20T11:44:04Z</time>
      </trkpt>
      <trkpt lat="42.113899" lon="1.045490">
        <ele>722.615</ele>
        <time>2021-06-20T11:44:08Z</time>
      </trkpt>
      <trkpt lat="42.113742" lon="1.045207">
        <ele>722.808</ele>
        <time>2021-06-20T11:44:11Z</time>
      </trkpt>
      <trkpt lat="42.113694" lon="1.045106">
        <ele>722.854</ele>
        <time>2021-06-20T11:44:12Z</time>
      </trkpt>
      <trkpt lat="42.113588" lon="1.044908">
        <ele>723.073</ele>
        <time>2021-06-20T11:44:14Z</time>
      </trkpt>
      <trkpt lat="42.113449" lon="1.044746">
        <ele>723.240</ele>
        <time>2021-06-20T11:44:16Z</time>
      </trkpt>
      <trkpt lat="42.113210" lon="1.044586">
        <ele>723.262</ele>
        <time>2021-06-20T11:44:19Z</time>
      </trkpt>
      <trkpt lat="42.113127" lon="1.044542">
        <ele>723.286</ele>
        <time>2021-06-20T11:44:20Z</time>
      </trkpt>
      <trkpt lat="42.112716" lon="1.044246">
        <ele>724.077</ele>
        <time>2021-06-20T11:44:25Z</time>
      </trkpt>
      <trkpt lat="42.112305" lon="1.043938">
        <ele>724.457</ele>
        <time>2021-06-20T11:44:30Z</time>
      </trkpt>
      <trkpt lat="42.111990" lon="1.043753">
        <ele>725.235</ele>
        <time>2021-06-20T11:44:34Z</time>
      </trkpt>
      <trkpt lat="42.111909" lon="1.043720">
        <ele>725.443</ele>
        <time>2021-06-20T11:44:35Z</time>
      </trkpt>
      <trkpt lat="42.111751" lon="1.043663">
        <ele>725.664</ele>
        <time>2021-06-20T11:44:37Z</time>
      </trkpt>
      <trkpt lat="42.111578" lon="1.043681">
        <ele>725.810</ele>
        <time>2021-06-20T11:44:39Z</time>
      </trkpt>
      <trkpt lat="42.111410" lon="1.043772">
        <ele>726.208</ele>
        <time>2021-06-20T11:44:41Z</time>
      </trkpt>
      <trkpt lat="42.111332" lon="1.043825">
        <ele>726.211</ele>
        <time>2021-06-20T11:44:42Z</time>
      </trkpt>
      <trkpt lat="42.111258" lon="1.043876">
        <ele>726.450</ele>
        <time>2021-06-20T11:44:43Z</time>
      </trkpt>
      <trkpt lat="42.111184" lon="1.043915">
        <ele>726.817</ele>
        <time>2021-06-20T11:44:44Z</time>
      </trkpt>
      <trkpt lat="42.111046" lon="1.043944">
        <ele>727.649</ele>
        <time>2021-06-20T11:44:46Z</time>
      </trkpt>
      <trkpt lat="42.110925" lon="1.043957">
        <ele>728.893</ele>
        <time>2021-06-20T11:44:48Z</time>
      </trkpt>
      <trkpt lat="42.110758" lon="1.043990">
        <ele>729.674</ele>
        <time>2021-06-20T11:44:51Z</time>
      </trkpt>
      <trkpt lat="42.110649" lon="1.044014">
        <ele>730.014</ele>
        <time>2021-06-20T11:44:53Z</time>
      </trkpt>
      <trkpt lat="42.110440" lon="1.044039">
        <ele>731.232</ele>
        <time>2021-06-20T11:44:57Z</time>
      </trkpt>
      <trkpt lat="42.110388" lon="1.044034">
        <ele>731.437</ele>
        <time>2021-06-20T11:44:58Z</time>
      </trkpt>
      <trkpt lat="42.110238" lon="1.043985">
        <ele>732.249</ele>
        <time>2021-06-20T11:45:01Z</time>
      </trkpt>
      <trkpt lat="42.110079" lon="1.043926">
        <ele>733.613</ele>
        <time>2021-06-20T11:45:04Z</time>
      </trkpt>
      <trkpt lat="42.109789" lon="1.043813">
        <ele>734.608</ele>
        <time>2021-06-20T11:45:09Z</time>
      </trkpt>
      <trkpt lat="42.109735" lon="1.043780">
        <ele>735.080</ele>
        <time>2021-06-20T11:45:10Z</time>
      </trkpt>
      <trkpt lat="42.109635" lon="1.043707">
        <ele>735.849</ele>
        <time>2021-06-20T11:45:12Z</time>
      </trkpt>
      <trkpt lat="42.109524" lon="1.043581">
        <ele>736.616</ele>
        <time>2021-06-20T11:45:15Z</time>
      </trkpt>
      <trkpt lat="42.109500" lon="1.043548">
        <ele>737.028</ele>
        <time>2021-06-20T11:45:16Z</time>
      </trkpt>
      <trkpt lat="42.109450" lon="1.043476">
        <ele>737.822</ele>
        <time>2021-06-20T11:45:19Z</time>
      </trkpt>
      <trkpt lat="42.109413" lon="1.043439">
        <ele>738.213</ele>
        <time>2021-06-20T11:45:21Z</time>
      </trkpt>
      <trkpt lat="42.109381" lon="1.043384">
        <ele>738.673</ele>
        <time>2021-06-20T11:45:23Z</time>
      </trkpt>
      <trkpt lat="42.109322" lon="1.043297">
        <ele>739.211</ele>
        <time>2021-06-20T11:45:26Z</time>
      </trkpt>
      <trkpt lat="42.109234" lon="1.043239">
        <ele>740.039</ele>
        <time>2021-06-20T11:45:29Z</time>
      </trkpt>
      <trkpt lat="42.109136" lon="1.043195">
        <ele>740.601</ele>
        <time>2021-06-20T11:45:32Z</time>
      </trkpt>
      <trkpt lat="42.109036" lon="1.043155">
        <ele>741.221</ele>
        <time>2021-06-20T11:45:35Z</time>
      </trkpt>
      <trkpt lat="42.108933" lon="1.043138">
        <ele>741.608</ele>
        <time>2021-06-20T11:45:38Z</time>
      </trkpt>
      <trkpt lat="42.108797" lon="1.043087">
        <ele>742.890</ele>
        <time>2021-06-20T11:45:42Z</time>
      </trkpt>
      <trkpt lat="42.108763" lon="1.043072">
        <ele>743.069</ele>
        <time>2021-06-20T11:45:43Z</time>
      </trkpt>
      <trkpt lat="42.108625" lon="1.042956">
        <ele>744.076</ele>
        <time>2021-06-20T11:45:48Z</time>
      </trkpt>
      <trkpt lat="42.108485" lon="1.042790">
        <ele>745.488</ele>
        <time>2021-06-20T11:45:54Z</time>
      </trkpt>
      <trkpt lat="42.108458" lon="1.042768">
        <ele>745.632</ele>
        <time>2021-06-20T11:45:55Z</time>
      </trkpt>
      <trkpt lat="42.108342" lon="1.042704">
        <ele>746.643</ele>
        <time>2021-06-20T11:45:59Z</time>
      </trkpt>
      <trkpt lat="42.108252" lon="1.042692">
        <ele>747.223</ele>
        <time>2021-06-20T11:46:02Z</time>
      </trkpt>
      <trkpt lat="42.108106" lon="1.042718">
        <ele>747.861</ele>
        <time>2021-06-20T11:46:07Z</time>
      </trkpt>
      <trkpt lat="42.107974" lon="1.042774">
        <ele>748.872</ele>
        <time>2021-06-20T11:46:11Z</time>
      </trkpt>
      <trkpt lat="42.107910" lon="1.042833">
        <ele>749.013</ele>
        <time>2021-06-20T11:46:13Z</time>
      </trkpt>
      <trkpt lat="42.107750" lon="1.042992">
        <ele>749.414</ele>
        <time>2021-06-20T11:46:18Z</time>
      </trkpt>
      <trkpt lat="42.107520" lon="1.043291">
        <ele>750.408</ele>
        <time>2021-06-20T11:46:26Z</time>
      </trkpt>
      <trkpt lat="42.107493" lon="1.043329">
        <ele>750.474</ele>
        <time>2021-06-20T11:46:27Z</time>
      </trkpt>
      <trkpt lat="42.107253" lon="1.043665">
        <ele>751.033</ele>
        <time>2021-06-20T11:46:36Z</time>
      </trkpt>
      <trkpt lat="42.107032" lon="1.043956">
        <ele>751.280</ele>
        <time>2021-06-20T11:46:44Z</time>
      </trkpt>
      <trkpt lat="42.106786" lon="1.044288">
        <ele>751.292</ele>
        <time>2021-06-20T11:46:54Z</time>
      </trkpt>
      <trkpt lat="42.106639" lon="1.044545">
        <ele>751.036</ele>
        <time>2021-06-20T11:47:02Z</time>
      </trkpt>
      <trkpt lat="42.106567" lon="1.044735">
        <ele>750.037</ele>
        <time>2021-06-20T11:47:07Z</time>
      </trkpt>
      <trkpt lat="42.106508" lon="1.044894">
        <ele>749.697</ele>
        <time>2021-06-20T11:47:11Z</time>
      </trkpt>
      <trkpt lat="42.106462" lon="1.045008">
        <ele>749.235</ele>
        <time>2021-06-20T11:47:14Z</time>
      </trkpt>
      <trkpt lat="42.106350" lon="1.045221">
        <ele>748.844</ele>
        <time>2021-06-20T11:47:20Z</time>
      </trkpt>
      <trkpt lat="42.106256" lon="1.045387">
        <ele>748.205</ele>
        <time>2021-06-20T11:47:25Z</time>
      </trkpt>
      <trkpt lat="42.106223" lon="1.045443">
        <ele>748.015</ele>
        <time>2021-06-20T11:47:27Z</time>
      </trkpt>
      <trkpt lat="42.106161" lon="1.045518">
        <ele>747.008</ele>
        <time>2021-06-20T11:47:31Z</time>
      </trkpt>
      <trkpt lat="42.106147" lon="1.045533">
        <ele>745.251</ele>
        <time>2021-06-20T11:47:32Z</time>
      </trkpt>
      <trkpt lat="42.106136" lon="1.045553">
        <ele>744.450</ele>
        <time>2021-06-20T11:47:33Z</time>
      </trkpt>
      <trkpt lat="42.106124" lon="1.045578">
        <ele>743.227</ele>
        <time>2021-06-20T11:47:34Z</time>
      </trkpt>
      <trkpt lat="42.106093" lon="1.045632">
        <ele>742.019</ele>
        <time>2021-06-20T11:47:36Z</time>
      </trkpt>
      <trkpt lat="42.106048" lon="1.045734">
        <ele>741.233</ele>
        <time>2021-06-20T11:47:39Z</time>
      </trkpt>
      <trkpt lat="42.106018" lon="1.045813">
        <ele>741.024</ele>
        <time>2021-06-20T11:47:41Z</time>
      </trkpt>
      <trkpt lat="42.105990" lon="1.045894">
        <ele>739.054</ele>
        <time>2021-06-20T11:47:43Z</time>
      </trkpt>
      <trkpt lat="42.105963" lon="1.045977">
        <ele>737.882</ele>
        <time>2021-06-20T11:47:45Z</time>
      </trkpt>
      <trkpt lat="42.105934" lon="1.046064">
        <ele>737.481</ele>
        <time>2021-06-20T11:47:47Z</time>
      </trkpt>
      <trkpt lat="42.105877" lon="1.046197">
        <ele>736.861</ele>
        <time>2021-06-20T11:47:50Z</time>
      </trkpt>
      <trkpt lat="42.105780" lon="1.046363">
        <ele>736.217</ele>
        <time>2021-06-20T11:47:54Z</time>
      </trkpt>
      <trkpt lat="42.105757" lon="1.046404">
        <ele>736.008</ele>
        <time>2021-06-20T11:47:55Z</time>
      </trkpt>
      <trkpt lat="42.105631" lon="1.046558">
        <ele>734.845</ele>
        <time>2021-06-20T11:48:00Z</time>
      </trkpt>
      <trkpt lat="42.105544" lon="1.046676">
        <ele>734.414</ele>
        <time>2021-06-20T11:48:04Z</time>
      </trkpt>
      <trkpt lat="42.105434" lon="1.046811">
        <ele>733.641</ele>
        <time>2021-06-20T11:48:08Z</time>
      </trkpt>
      <trkpt lat="42.105406" lon="1.046847">
        <ele>733.483</ele>
        <time>2021-06-20T11:48:09Z</time>
      </trkpt>
      <trkpt lat="42.105342" lon="1.046916">
        <ele>733.027</ele>
        <time>2021-06-20T11:48:11Z</time>
      </trkpt>
      <trkpt lat="42.105285" lon="1.046994">
        <ele>732.678</ele>
        <time>2021-06-20T11:48:13Z</time>
      </trkpt>
      <trkpt lat="42.105204" lon="1.047116">
        <ele>732.228</ele>
        <time>2021-06-20T11:48:16Z</time>
      </trkpt>
      <trkpt lat="42.105117" lon="1.047243">
        <ele>731.436</ele>
        <time>2021-06-20T11:48:19Z</time>
      </trkpt>
      <trkpt lat="42.105037" lon="1.047393">
        <ele>730.678</ele>
        <time>2021-06-20T11:48:22Z</time>
      </trkpt>
      <trkpt lat="42.105015" lon="1.047447">
        <ele>730.633</ele>
        <time>2021-06-20T11:48:23Z</time>
      </trkpt>
      <trkpt lat="42.104992" lon="1.047502">
        <ele>730.426</ele>
        <time>2021-06-20T11:48:24Z</time>
      </trkpt>
      <trkpt lat="42.104883" lon="1.047781">
        <ele>729.208</ele>
        <time>2021-06-20T11:48:29Z</time>
      </trkpt>
      <trkpt lat="42.104841" lon="1.047892">
        <ele>728.874</ele>
        <time>2021-06-20T11:48:31Z</time>
      </trkpt>
      <trkpt lat="42.104818" lon="1.047945">
        <ele>728.423</ele>
        <time>2021-06-20T11:48:32Z</time>
      </trkpt>
      <trkpt lat="42.104789" lon="1.048058">
        <ele>728.040</ele>
        <time>2021-06-20T11:48:34Z</time>
      </trkpt>
      <trkpt lat="42.104778" lon="1.048117">
        <ele>728.062</ele>
        <time>2021-06-20T11:48:35Z</time>
      </trkpt>
      <trkpt lat="42.104744" lon="1.048293">
        <ele>727.046</ele>
        <time>2021-06-20T11:48:38Z</time>
      </trkpt>
      <trkpt lat="42.104730" lon="1.048350">
        <ele>726.837</ele>
        <time>2021-06-20T11:48:39Z</time>
      </trkpt>
      <trkpt lat="42.104694" lon="1.048531">
        <ele>725.657</ele>
        <time>2021-06-20T11:48:42Z</time>
      </trkpt>
      <trkpt lat="42.104623" lon="1.048848">
        <ele>724.865</ele>
        <time>2021-06-20T11:48:47Z</time>
      </trkpt>
      <trkpt lat="42.104536" lon="1.049206">
        <ele>723.657</ele>
        <time>2021-06-20T11:48:52Z</time>
      </trkpt>
      <trkpt lat="42.104462" lon="1.049427">
        <ele>723.200</ele>
        <time>2021-06-20T11:48:55Z</time>
      </trkpt>
      <trkpt lat="42.104360" lon="1.049638">
        <ele>722.620</ele>
        <time>2021-06-20T11:48:58Z</time>
      </trkpt>
      <trkpt lat="42.104208" lon="1.049895">
        <ele>722.208</ele>
        <time>2021-06-20T11:49:02Z</time>
      </trkpt>
      <trkpt lat="42.104020" lon="1.050222">
        <ele>721.432</ele>
        <time>2021-06-20T11:49:08Z</time>
      </trkpt>
      <trkpt lat="42.103874" lon="1.050484">
        <ele>721.061</ele>
        <time>2021-06-20T11:49:14Z</time>
      </trkpt>
      <trkpt lat="42.103752" lon="1.050671">
        <ele>720.858</ele>
        <time>2021-06-20T11:49:20Z</time>
      </trkpt>
      <trkpt lat="42.103698" lon="1.050749">
        <ele>720.460</ele>
        <time>2021-06-20T11:49:23Z</time>
      </trkpt>
      <trkpt lat="42.103638" lon="1.050858">
        <ele>720.094</ele>
        <time>2021-06-20T11:49:27Z</time>
      </trkpt>
      <trkpt lat="42.103531" lon="1.051046">
        <ele>719.425</ele>
        <time>2021-06-20T11:49:34Z</time>
      </trkpt>
      <trkpt lat="42.103477" lon="1.051160">
        <ele>718.885</ele>
        <time>2021-06-20T11:49:38Z</time>
      </trkpt>
      <trkpt lat="42.103420" lon="1.051276">
        <ele>718.243</ele>
        <time>2021-06-20T11:49:42Z</time>
      </trkpt>
      <trkpt lat="42.103363" lon="1.051384">
        <ele>717.683</ele>
        <time>2021-06-20T11:49:46Z</time>
      </trkpt>
      <trkpt lat="42.103330" lon="1.051471">
        <ele>717.225</ele>
        <time>2021-06-20T11:49:49Z</time>
      </trkpt>
      <trkpt lat="42.103272" lon="1.051584">
        <ele>716.417</ele>
        <time>2021-06-20T11:49:53Z</time>
      </trkpt>
      <trkpt lat="42.103244" lon="1.051637">
        <ele>716.208</ele>
        <time>2021-06-20T11:49:55Z</time>
      </trkpt>
      <trkpt lat="42.103167" lon="1.051760">
        <ele>714.495</ele>
        <time>2021-06-20T11:50:00Z</time>
      </trkpt>
      <trkpt lat="42.103130" lon="1.051804">
        <ele>713.214</ele>
        <time>2021-06-20T11:50:02Z</time>
      </trkpt>
      <trkpt lat="42.103092" lon="1.051848">
        <ele>712.281</ele>
        <time>2021-06-20T11:50:04Z</time>
      </trkpt>
      <trkpt lat="42.102990" lon="1.051974">
        <ele>711.083</ele>
        <time>2021-06-20T11:50:09Z</time>
      </trkpt>
      <trkpt lat="42.102781" lon="1.052190">
        <ele>710.017</ele>
        <time>2021-06-20T11:50:17Z</time>
      </trkpt>
      <trkpt lat="42.102750" lon="1.052217">
        <ele>709.678</ele>
        <time>2021-06-20T11:50:18Z</time>
      </trkpt>
      <trkpt lat="42.102583" lon="1.052340">
        <ele>708.638</ele>
        <time>2021-06-20T11:50:23Z</time>
      </trkpt>
      <trkpt lat="42.102516" lon="1.052401">
        <ele>708.456</ele>
        <time>2021-06-20T11:50:25Z</time>
      </trkpt>
      <trkpt lat="42.102449" lon="1.052467">
        <ele>708.096</ele>
        <time>2021-06-20T11:50:27Z</time>
      </trkpt>
      <trkpt lat="42.102344" lon="1.052649">
        <ele>707.631</ele>
        <time>2021-06-20T11:50:31Z</time>
      </trkpt>
      <trkpt lat="42.102134" lon="1.053077">
        <ele>707.024</ele>
        <time>2021-06-20T11:50:39Z</time>
      </trkpt>
      <trkpt lat="42.101910" lon="1.053410">
        <ele>706.408</ele>
        <time>2021-06-20T11:50:46Z</time>
      </trkpt>
      <trkpt lat="42.101812" lon="1.053530">
        <ele>706.236</ele>
        <time>2021-06-20T11:50:49Z</time>
      </trkpt>
      <trkpt lat="42.101571" lon="1.053729">
        <ele>705.665</ele>
        <time>2021-06-20T11:50:56Z</time>
      </trkpt>
      <trkpt lat="42.101503" lon="1.053785">
        <ele>705.452</ele>
        <time>2021-06-20T11:50:58Z</time>
      </trkpt>
      <trkpt lat="42.101233" lon="1.053998">
        <ele>704.654</ele>
        <time>2021-06-20T11:51:06Z</time>
      </trkpt>
      <trkpt lat="42.101130" lon="1.054074">
        <ele>704.238</ele>
        <time>2021-06-20T11:51:09Z</time>
      </trkpt>
      <trkpt lat="42.100895" lon="1.054244">
        <ele>702.859</ele>
        <time>2021-06-20T11:51:16Z</time>
      </trkpt>
      <trkpt lat="42.100863" lon="1.054269">
        <ele>702.829</ele>
        <time>2021-06-20T11:51:17Z</time>
      </trkpt>
      <trkpt lat="42.100672" lon="1.054419">
        <ele>701.887</ele>
        <time>2021-06-20T11:51:23Z</time>
      </trkpt>
      <trkpt lat="42.100578" lon="1.054496">
        <ele>701.271</ele>
        <time>2021-06-20T11:51:26Z</time>
      </trkpt>
      <trkpt lat="42.100484" lon="1.054579">
        <ele>700.641</ele>
        <time>2021-06-20T11:51:29Z</time>
      </trkpt>
      <trkpt lat="42.100273" lon="1.054719">
        <ele>699.815</ele>
        <time>2021-06-20T11:51:35Z</time>
      </trkpt>
      <trkpt lat="42.100203" lon="1.054761">
        <ele>699.208</ele>
        <time>2021-06-20T11:51:37Z</time>
      </trkpt>
      <trkpt lat="42.100019" lon="1.054931">
        <ele>698.034</ele>
        <time>2021-06-20T11:51:42Z</time>
      </trkpt>
      <trkpt lat="42.099885" lon="1.055124">
        <ele>697.073</ele>
        <time>2021-06-20T11:51:45Z</time>
      </trkpt>
      <trkpt lat="42.099838" lon="1.055203">
        <ele>696.870</ele>
        <time>2021-06-20T11:51:46Z</time>
      </trkpt>
      <trkpt lat="42.099588" lon="1.055617">
        <ele>695.642</ele>
        <time>2021-06-20T11:51:51Z</time>
      </trkpt>
      <trkpt lat="42.099524" lon="1.055685">
        <ele>695.226</ele>
        <time>2021-06-20T11:51:52Z</time>
      </trkpt>
      <trkpt lat="42.099377" lon="1.055776">
        <ele>694.837</ele>
        <time>2021-06-20T11:51:54Z</time>
      </trkpt>
      <trkpt lat="42.099301" lon="1.055807">
        <ele>694.637</ele>
        <time>2021-06-20T11:51:55Z</time>
      </trkpt>
      <trkpt lat="42.099226" lon="1.055831">
        <ele>694.655</ele>
        <time>2021-06-20T11:51:56Z</time>
      </trkpt>
      <trkpt lat="42.099154" lon="1.055864">
        <ele>694.478</ele>
        <time>2021-06-20T11:51:57Z</time>
      </trkpt>
      <trkpt lat="42.099083" lon="1.055910">
        <ele>694.233</ele>
        <time>2021-06-20T11:51:58Z</time>
      </trkpt>
      <trkpt lat="42.098826" lon="1.056195">
        <ele>693.426</ele>
        <time>2021-06-20T11:52:02Z</time>
      </trkpt>
      <trkpt lat="42.098523" lon="1.056578">
        <ele>692.608</ele>
        <time>2021-06-20T11:52:07Z</time>
      </trkpt>
      <trkpt lat="42.098459" lon="1.056621">
        <ele>692.624</ele>
        <time>2021-06-20T11:52:08Z</time>
      </trkpt>
      <trkpt lat="42.098274" lon="1.056613">
        <ele>692.643</ele>
        <time>2021-06-20T11:52:11Z</time>
      </trkpt>
      <trkpt lat="42.098222" lon="1.056582">
        <ele>692.670</ele>
        <time>2021-06-20T11:52:12Z</time>
      </trkpt>
      <trkpt lat="42.098179" lon="1.056552">
        <ele>692.612</ele>
        <time>2021-06-20T11:52:13Z</time>
      </trkpt>
      <trkpt lat="42.098118" lon="1.056494">
        <ele>692.646</ele>
        <time>2021-06-20T11:52:15Z</time>
      </trkpt>
      <trkpt lat="42.098025" lon="1.056392">
        <ele>692.877</ele>
        <time>2021-06-20T11:52:20Z</time>
      </trkpt>
      <trkpt lat="42.097923" lon="1.056281">
        <ele>692.897</ele>
        <time>2021-06-20T11:52:27Z</time>
      </trkpt>
      <trkpt lat="42.097836" lon="1.056161">
        <ele>692.075</ele>
        <time>2021-06-20T11:52:35Z</time>
      </trkpt>
      <trkpt lat="42.097825" lon="1.056147">
        <ele>691.899</ele>
        <time>2021-06-20T11:52:36Z</time>
      </trkpt>
      <trkpt lat="42.097795" lon="1.056112">
        <ele>690.607</ele>
        <time>2021-06-20T11:52:39Z</time>
      </trkpt>
      <trkpt lat="42.097786" lon="1.056100">
        <ele>690.227</ele>
        <time>2021-06-20T11:52:40Z</time>
      </trkpt>
      <trkpt lat="42.097773" lon="1.056062">
        <ele>689.608</ele>
        <time>2021-06-20T11:52:42Z</time>
      </trkpt>
      <trkpt lat="42.097736" lon="1.055942">
        <ele>688.816</ele>
        <time>2021-06-20T11:52:49Z</time>
      </trkpt>
      <trkpt lat="42.097695" lon="1.055900">
        <ele>688.445</ele>
        <time>2021-06-20T11:52:53Z</time>
      </trkpt>
      <trkpt lat="42.097666" lon="1.055853">
        <ele>687.412</ele>
        <time>2021-06-20T11:52:56Z</time>
      </trkpt>
      <trkpt lat="42.097653" lon="1.055834">
        <ele>687.284</ele>
        <time>2021-06-20T11:52:57Z</time>
      </trkpt>
      <trkpt lat="42.097586" lon="1.055755">
        <ele>686.498</ele>
        <time>2021-06-20T11:53:03Z</time>
      </trkpt>
      <trkpt lat="42.097455" lon="1.055665">
        <ele>686.259</ele>
        <time>2021-06-20T11:53:12Z</time>
      </trkpt>
      <trkpt lat="42.097435" lon="1.055650">
        <ele>686.289</ele>
        <time>2021-06-20T11:53:16Z</time>
      </trkpt>
      <trkpt lat="42.097327" lon="1.055644">
        <ele>598.297</ele>
        <time>2021-06-20T12:25:02Z</time>
      </trkpt>
      <trkpt lat="42.097201" lon="1.055689">
        <ele>598.278</ele>
        <time>2021-06-20T12:25:10Z</time>
      </trkpt>
      <trkpt lat="42.097089" lon="1.055670">
        <ele>598.633</ele>
        <time>2021-06-20T12:25:17Z</time>
      </trkpt>
      <trkpt lat="42.097073" lon="1.055663">
        <ele>598.826</ele>
        <time>2021-06-20T12:25:18Z</time>
      </trkpt>
      <trkpt lat="42.097057" lon="1.055654">
        <ele>599.008</ele>
        <time>2021-06-20T12:25:19Z</time>
      </trkpt>
      <trkpt lat="42.096980" lon="1.055608">
        <ele>599.414</ele>
        <time>2021-06-20T12:25:24Z</time>
      </trkpt>
      <trkpt lat="42.096942" lon="1.055567">
        <ele>600.213</ele>
        <time>2021-06-20T12:25:27Z</time>
      </trkpt>
      <trkpt lat="42.096919" lon="1.055536">
        <ele>600.650</ele>
        <time>2021-06-20T12:25:29Z</time>
      </trkpt>
      <trkpt lat="42.096868" lon="1.055488">
        <ele>601.422</ele>
        <time>2021-06-20T12:25:33Z</time>
      </trkpt>
      <trkpt lat="42.096856" lon="1.055475">
        <ele>601.656</ele>
        <time>2021-06-20T12:25:34Z</time>
      </trkpt>
      <trkpt lat="42.096795" lon="1.055397">
        <ele>602.427</ele>
        <time>2021-06-20T12:25:40Z</time>
      </trkpt>
      <trkpt lat="42.096750" lon="1.055352">
        <ele>602.447</ele>
        <time>2021-06-20T12:25:44Z</time>
      </trkpt>
      <trkpt lat="42.096688" lon="1.055287">
        <ele>603.065</ele>
        <time>2021-06-20T12:25:49Z</time>
      </trkpt>
      <trkpt lat="42.096651" lon="1.055246">
        <ele>603.442</ele>
        <time>2021-06-20T12:25:52Z</time>
      </trkpt>
      <trkpt lat="42.096604" lon="1.055220">
        <ele>604.022</ele>
        <time>2021-06-20T12:25:55Z</time>
      </trkpt>
      <trkpt lat="42.096553" lon="1.055192">
        <ele>604.814</ele>
        <time>2021-06-20T12:25:58Z</time>
      </trkpt>
      <trkpt lat="42.096538" lon="1.055177">
        <ele>605.008</ele>
        <time>2021-06-20T12:25:59Z</time>
      </trkpt>
      <trkpt lat="42.096461" lon="1.055095">
        <ele>605.821</ele>
        <time>2021-06-20T12:26:04Z</time>
      </trkpt>
      <trkpt lat="42.096442" lon="1.055081">
        <ele>605.880</ele>
        <time>2021-06-20T12:26:05Z</time>
      </trkpt>
      <trkpt lat="42.096342" lon="1.054975">
        <ele>606.267</ele>
        <time>2021-06-20T12:26:11Z</time>
      </trkpt>
      <trkpt lat="42.096241" lon="1.054794">
        <ele>606.449</ele>
        <time>2021-06-20T12:26:19Z</time>
      </trkpt>
      <trkpt lat="42.096142" lon="1.054623">
        <ele>606.873</ele>
        <time>2021-06-20T12:26:27Z</time>
      </trkpt>
      <trkpt lat="42.096108" lon="1.054561">
        <ele>607.084</ele>
        <time>2021-06-20T12:26:30Z</time>
      </trkpt>
      <trkpt lat="42.096026" lon="1.054444">
        <ele>608.054</ele>
        <time>2021-06-20T12:26:36Z</time>
      </trkpt>
      <trkpt lat="42.095932" lon="1.054336">
        <ele>609.042</ele>
        <time>2021-06-20T12:26:42Z</time>
      </trkpt>
      <trkpt lat="42.095898" lon="1.054275">
        <ele>609.294</ele>
        <time>2021-06-20T12:26:45Z</time>
      </trkpt>
      <trkpt lat="42.095835" lon="1.054124">
        <ele>609.657</ele>
        <time>2021-06-20T12:26:52Z</time>
      </trkpt>
      <trkpt lat="42.095810" lon="1.054061">
        <ele>610.022</ele>
        <time>2021-06-20T12:26:55Z</time>
      </trkpt>
      <trkpt lat="42.095776" lon="1.053969">
        <ele>610.408</ele>
        <time>2021-06-20T12:26:59Z</time>
      </trkpt>
      <trkpt lat="42.095741" lon="1.053879">
        <ele>611.256</ele>
        <time>2021-06-20T12:27:03Z</time>
      </trkpt>
      <trkpt lat="42.095727" lon="1.053863">
        <ele>611.495</ele>
        <time>2021-06-20T12:27:04Z</time>
      </trkpt>
      <trkpt lat="42.095650" lon="1.053840">
        <ele>611.652</ele>
        <time>2021-06-20T12:27:08Z</time>
      </trkpt>
      <trkpt lat="42.095615" lon="1.053856">
        <ele>612.294</ele>
        <time>2021-06-20T12:27:10Z</time>
      </trkpt>
      <trkpt lat="42.095557" lon="1.053903">
        <ele>613.048</ele>
        <time>2021-06-20T12:27:14Z</time>
      </trkpt>
      <trkpt lat="42.095547" lon="1.053920">
        <ele>613.219</ele>
        <time>2021-06-20T12:27:15Z</time>
      </trkpt>
      <trkpt lat="42.095508" lon="1.054020">
        <ele>614.259</ele>
        <time>2021-06-20T12:27:20Z</time>
      </trkpt>
      <trkpt lat="42.095486" lon="1.054056">
        <ele>614.277</ele>
        <time>2021-06-20T12:27:22Z</time>
      </trkpt>
      <trkpt lat="42.095424" lon="1.054137">
        <ele>614.882</ele>
        <time>2021-06-20T12:27:27Z</time>
      </trkpt>
      <trkpt lat="42.095375" lon="1.054209">
        <ele>615.843</ele>
        <time>2021-06-20T12:27:31Z</time>
      </trkpt>
      <trkpt lat="42.095362" lon="1.054229">
        <ele>616.017</ele>
        <time>2021-06-20T12:27:32Z</time>
      </trkpt>
      <trkpt lat="42.095234" lon="1.054435">
        <ele>616.608</ele>
        <time>2021-06-20T12:27:41Z</time>
      </trkpt>
      <trkpt lat="42.095130" lon="1.054588">
        <ele>617.465</ele>
        <time>2021-06-20T12:27:48Z</time>
      </trkpt>
      <trkpt lat="42.095116" lon="1.054617">
        <ele>617.474</ele>
        <time>2021-06-20T12:27:49Z</time>
      </trkpt>
      <trkpt lat="42.095025" lon="1.054837">
        <ele>617.611</ele>
        <time>2021-06-20T12:27:56Z</time>
      </trkpt>
      <trkpt lat="42.094955" lon="1.054991">
        <ele>617.463</ele>
        <time>2021-06-20T12:28:02Z</time>
      </trkpt>
      <trkpt lat="42.094852" lon="1.055220">
        <ele>617.267</ele>
        <time>2021-06-20T12:28:09Z</time>
      </trkpt>
      <trkpt lat="42.094744" lon="1.055422">
        <ele>617.428</ele>
        <time>2021-06-20T12:28:16Z</time>
      </trkpt>
      <trkpt lat="42.094709" lon="1.055510">
        <ele>617.478</ele>
        <time>2021-06-20T12:28:19Z</time>
      </trkpt>
      <trkpt lat="42.094649" lon="1.055634">
        <ele>617.856</ele>
        <time>2021-06-20T12:28:23Z</time>
      </trkpt>
      <trkpt lat="42.094570" lon="1.055795">
        <ele>618.289</ele>
        <time>2021-06-20T12:28:28Z</time>
      </trkpt>
      <trkpt lat="42.094556" lon="1.055827">
        <ele>618.206</ele>
        <time>2021-06-20T12:28:29Z</time>
      </trkpt>
      <trkpt lat="42.094504" lon="1.055950">
        <ele>618.426</ele>
        <time>2021-06-20T12:28:33Z</time>
      </trkpt>
      <trkpt lat="42.094431" lon="1.056150">
        <ele>618.808</ele>
        <time>2021-06-20T12:28:40Z</time>
      </trkpt>
      <trkpt lat="42.094419" lon="1.056177">
        <ele>618.855</ele>
        <time>2021-06-20T12:28:41Z</time>
      </trkpt>
      <trkpt lat="42.094376" lon="1.056325">
        <ele>619.294</ele>
        <time>2021-06-20T12:28:46Z</time>
      </trkpt>
      <trkpt lat="42.094349" lon="1.056449">
        <ele>619.461</ele>
        <time>2021-06-20T12:28:50Z</time>
      </trkpt>
      <trkpt lat="42.094321" lon="1.056608">
        <ele>620.273</ele>
        <time>2021-06-20T12:28:55Z</time>
      </trkpt>
      <trkpt lat="42.094302" lon="1.056770">
        <ele>620.497</ele>
        <time>2021-06-20T12:29:00Z</time>
      </trkpt>
      <trkpt lat="42.094289" lon="1.056936">
        <ele>620.878</ele>
        <time>2021-06-20T12:29:05Z</time>
      </trkpt>
      <trkpt lat="42.094289" lon="1.057035">
        <ele>621.238</ele>
        <time>2021-06-20T12:29:08Z</time>
      </trkpt>
      <trkpt lat="42.094282" lon="1.057163">
        <ele>621.646</ele>
        <time>2021-06-20T12:29:12Z</time>
      </trkpt>
      <trkpt lat="42.094274" lon="1.057327">
        <ele>621.887</ele>
        <time>2021-06-20T12:29:17Z</time>
      </trkpt>
      <trkpt lat="42.094272" lon="1.057359">
        <ele>621.842</ele>
        <time>2021-06-20T12:29:18Z</time>
      </trkpt>
      <trkpt lat="42.094260" lon="1.057651">
        <ele>622.426</ele>
        <time>2021-06-20T12:29:27Z</time>
      </trkpt>
      <trkpt lat="42.094259" lon="1.057683">
        <ele>622.808</ele>
        <time>2021-06-20T12:29:28Z</time>
      </trkpt>
      <trkpt lat="42.094234" lon="1.058027">
        <ele>623.455</ele>
        <time>2021-06-20T12:29:38Z</time>
      </trkpt>
      <trkpt lat="42.094229" lon="1.058060">
        <ele>623.414</ele>
        <time>2021-06-20T12:29:39Z</time>
      </trkpt>
      <trkpt lat="42.094204" lon="1.058332">
        <ele>623.651</ele>
        <time>2021-06-20T12:29:47Z</time>
      </trkpt>
      <trkpt lat="42.094197" lon="1.058531">
        <ele>623.833</ele>
        <time>2021-06-20T12:29:53Z</time>
      </trkpt>
      <trkpt lat="42.094193" lon="1.058679">
        <ele>624.877</ele>
        <time>2021-06-20T12:29:57Z</time>
      </trkpt>
      <trkpt lat="42.094199" lon="1.058752">
        <ele>625.858</ele>
        <time>2021-06-20T12:29:59Z</time>
      </trkpt>
      <trkpt lat="42.094203" lon="1.058788">
        <ele>625.868</ele>
        <time>2021-06-20T12:30:00Z</time>
      </trkpt>
      <trkpt lat="42.094291" lon="1.059137">
        <ele>626.296</ele>
        <time>2021-06-20T12:30:10Z</time>
      </trkpt>
      <trkpt lat="42.094385" lon="1.059468">
        <ele>626.414</ele>
        <time>2021-06-20T12:30:19Z</time>
      </trkpt>
      <trkpt lat="42.094396" lon="1.059508">
        <ele>626.454</ele>
        <time>2021-06-20T12:30:20Z</time>
      </trkpt>
      <trkpt lat="42.094472" lon="1.059778">
        <ele>626.409</ele>
        <time>2021-06-20T12:30:27Z</time>
      </trkpt>
      <trkpt lat="42.094528" lon="1.059959">
        <ele>626.608</ele>
        <time>2021-06-20T12:30:32Z</time>
      </trkpt>
      <trkpt lat="42.094595" lon="1.060198">
        <ele>626.648</ele>
        <time>2021-06-20T12:30:39Z</time>
      </trkpt>
      <trkpt lat="42.094612" lon="1.060260">
        <ele>626.827</ele>
        <time>2021-06-20T12:30:41Z</time>
      </trkpt>
      <trkpt lat="42.094657" lon="1.060475">
        <ele>627.254</ele>
        <time>2021-06-20T12:30:48Z</time>
      </trkpt>
      <trkpt lat="42.094666" lon="1.060655">
        <ele>627.486</ele>
        <time>2021-06-20T12:30:54Z</time>
      </trkpt>
      <trkpt lat="42.094671" lon="1.060708">
        <ele>627.830</ele>
        <time>2021-06-20T12:30:56Z</time>
      </trkpt>
      <trkpt lat="42.094709" lon="1.060894">
        <ele>628.421</ele>
        <time>2021-06-20T12:31:04Z</time>
      </trkpt>
      <trkpt lat="42.094739" lon="1.061036">
        <ele>629.231</ele>
        <time>2021-06-20T12:31:10Z</time>
      </trkpt>
      <trkpt lat="42.094763" lon="1.061127">
        <ele>630.079</ele>
        <time>2021-06-20T12:31:14Z</time>
      </trkpt>
      <trkpt lat="42.094784" lon="1.061194">
        <ele>630.269</ele>
        <time>2021-06-20T12:31:17Z</time>
      </trkpt>
      <trkpt lat="42.094810" lon="1.061280">
        <ele>631.404</ele>
        <time>2021-06-20T12:31:21Z</time>
      </trkpt>
      <trkpt lat="42.094832" lon="1.061341">
        <ele>631.624</ele>
        <time>2021-06-20T12:31:24Z</time>
      </trkpt>
      <trkpt lat="42.094855" lon="1.061402">
        <ele>632.208</ele>
        <time>2021-06-20T12:31:27Z</time>
      </trkpt>
      <trkpt lat="42.094892" lon="1.061501">
        <ele>633.023</ele>
        <time>2021-06-20T12:31:32Z</time>
      </trkpt>
      <trkpt lat="42.094901" lon="1.061519">
        <ele>633.282</ele>
        <time>2021-06-20T12:31:33Z</time>
      </trkpt>
      <trkpt lat="42.094958" lon="1.061648">
        <ele>634.039</ele>
        <time>2021-06-20T12:31:40Z</time>
      </trkpt>
      <trkpt lat="42.094981" lon="1.061704">
        <ele>634.651</ele>
        <time>2021-06-20T12:31:43Z</time>
      </trkpt>
      <trkpt lat="42.094997" lon="1.061741">
        <ele>635.065</ele>
        <time>2021-06-20T12:31:45Z</time>
      </trkpt>
      <trkpt lat="42.095059" lon="1.061840">
        <ele>635.896</ele>
        <time>2021-06-20T12:31:51Z</time>
      </trkpt>
      <trkpt lat="42.095080" lon="1.061871">
        <ele>636.036</ele>
        <time>2021-06-20T12:31:53Z</time>
      </trkpt>
      <trkpt lat="42.095116" lon="1.061936">
        <ele>636.814</ele>
        <time>2021-06-20T12:31:57Z</time>
      </trkpt>
      <trkpt lat="42.095125" lon="1.061953">
        <ele>637.049</ele>
        <time>2021-06-20T12:31:58Z</time>
      </trkpt>
      <trkpt lat="42.095173" lon="1.062036">
        <ele>638.002</ele>
        <time>2021-06-20T12:32:03Z</time>
      </trkpt>
      <trkpt lat="42.095219" lon="1.062093">
        <ele>638.422</ele>
        <time>2021-06-20T12:32:07Z</time>
      </trkpt>
      <trkpt lat="42.095238" lon="1.062126">
        <ele>638.808</ele>
        <time>2021-06-20T12:32:09Z</time>
      </trkpt>
      <trkpt lat="42.095302" lon="1.062198">
        <ele>639.651</ele>
        <time>2021-06-20T12:32:14Z</time>
      </trkpt>
      <trkpt lat="42.095315" lon="1.062213">
        <ele>639.860</ele>
        <time>2021-06-20T12:32:15Z</time>
      </trkpt>
      <trkpt lat="42.095410" lon="1.062313">
        <ele>640.617</ele>
        <time>2021-06-20T12:32:22Z</time>
      </trkpt>
      <trkpt lat="42.095426" lon="1.062323">
        <ele>640.839</ele>
        <time>2021-06-20T12:32:23Z</time>
      </trkpt>
      <trkpt lat="42.095567" lon="1.062419">
        <ele>641.473</ele>
        <time>2021-06-20T12:32:31Z</time>
      </trkpt>
      <trkpt lat="42.095585" lon="1.062432">
        <ele>641.414</ele>
        <time>2021-06-20T12:32:32Z</time>
      </trkpt>
      <trkpt lat="42.095745" lon="1.062563">
        <ele>642.254</ele>
        <time>2021-06-20T12:32:41Z</time>
      </trkpt>
      <trkpt lat="42.095762" lon="1.062579">
        <ele>642.222</ele>
        <time>2021-06-20T12:32:42Z</time>
      </trkpt>
      <trkpt lat="42.095897" lon="1.062711">
        <ele>642.428</ele>
        <time>2021-06-20T12:32:50Z</time>
      </trkpt>
      <trkpt lat="42.095990" lon="1.062810">
        <ele>642.689</ele>
        <time>2021-06-20T12:32:56Z</time>
      </trkpt>
      <trkpt lat="42.096004" lon="1.062830">
        <ele>642.817</ele>
        <time>2021-06-20T12:32:57Z</time>
      </trkpt>
      <trkpt lat="42.096084" lon="1.062951">
        <ele>643.808</ele>
        <time>2021-06-20T12:33:03Z</time>
      </trkpt>
      <trkpt lat="42.096122" lon="1.063013">
        <ele>644.619</ele>
        <time>2021-06-20T12:33:06Z</time>
      </trkpt>
      <trkpt lat="42.096147" lon="1.063058">
        <ele>645.058</ele>
        <time>2021-06-20T12:33:08Z</time>
      </trkpt>
      <trkpt lat="42.096250" lon="1.063228">
        <ele>645.675</ele>
        <time>2021-06-20T12:33:16Z</time>
      </trkpt>
      <trkpt lat="42.096277" lon="1.063271">
        <ele>646.047</ele>
        <time>2021-06-20T12:33:18Z</time>
      </trkpt>
      <trkpt lat="42.096371" lon="1.063423">
        <ele>646.851</ele>
        <time>2021-06-20T12:33:25Z</time>
      </trkpt>
      <trkpt lat="42.096387" lon="1.063442">
        <ele>647.072</ele>
        <time>2021-06-20T12:33:26Z</time>
      </trkpt>
      <trkpt lat="42.096551" lon="1.063602">
        <ele>647.282</ele>
        <time>2021-06-20T12:33:34Z</time>
      </trkpt>
      <trkpt lat="42.096596" lon="1.063637">
        <ele>647.820</ele>
        <time>2021-06-20T12:33:36Z</time>
      </trkpt>
      <trkpt lat="42.096685" lon="1.063717">
        <ele>648.048</ele>
        <time>2021-06-20T12:33:40Z</time>
      </trkpt>
      <trkpt lat="42.096783" lon="1.063790">
        <ele>648.661</ele>
        <time>2021-06-20T12:33:44Z</time>
      </trkpt>
      <trkpt lat="42.096912" lon="1.063883">
        <ele>649.017</ele>
        <time>2021-06-20T12:33:49Z</time>
      </trkpt>
      <trkpt lat="42.096993" lon="1.063927">
        <ele>649.208</ele>
        <time>2021-06-20T12:33:52Z</time>
      </trkpt>
      <trkpt lat="42.097217" lon="1.064023">
        <ele>649.821</ele>
        <time>2021-06-20T12:34:00Z</time>
      </trkpt>
      <trkpt lat="42.097305" lon="1.064052">
        <ele>650.070</ele>
        <time>2021-06-20T12:34:03Z</time>
      </trkpt>
      <trkpt lat="42.097418" lon="1.064084">
        <ele>650.487</ele>
        <time>2021-06-20T12:34:07Z</time>
      </trkpt>
      <trkpt lat="42.097617" lon="1.064123">
        <ele>650.899</ele>
        <time>2021-06-20T12:34:14Z</time>
      </trkpt>
      <trkpt lat="42.097646" lon="1.064134">
        <ele>651.053</ele>
        <time>2021-06-20T12:34:15Z</time>
      </trkpt>
      <trkpt lat="42.097753" lon="1.064210">
        <ele>651.294</ele>
        <time>2021-06-20T12:34:19Z</time>
      </trkpt>
      <trkpt lat="42.097782" lon="1.064218">
        <ele>651.234</ele>
        <time>2021-06-20T12:34:20Z</time>
      </trkpt>
      <trkpt lat="42.097892" lon="1.064266">
        <ele>651.462</ele>
        <time>2021-06-20T12:34:24Z</time>
      </trkpt>
      <trkpt lat="42.097940" lon="1.064297">
        <ele>651.676</ele>
        <time>2021-06-20T12:34:26Z</time>
      </trkpt>
      <trkpt lat="42.097984" lon="1.064332">
        <ele>651.690</ele>
        <time>2021-06-20T12:34:28Z</time>
      </trkpt>
      <trkpt lat="42.098118" lon="1.064425">
        <ele>652.219</ele>
        <time>2021-06-20T12:34:34Z</time>
      </trkpt>
      <trkpt lat="42.098164" lon="1.064454">
        <ele>652.408</ele>
        <time>2021-06-20T12:34:36Z</time>
      </trkpt>
      <trkpt lat="42.098293" lon="1.064539">
        <ele>653.244</ele>
        <time>2021-06-20T12:34:42Z</time>
      </trkpt>
      <trkpt lat="42.098331" lon="1.064577">
        <ele>653.213</ele>
        <time>2021-06-20T12:34:44Z</time>
      </trkpt>
      <trkpt lat="42.098407" lon="1.064702">
        <ele>654.270</ele>
        <time>2021-06-20T12:34:49Z</time>
      </trkpt>
      <trkpt lat="42.098426" lon="1.064762">
        <ele>654.442</ele>
        <time>2021-06-20T12:34:51Z</time>
      </trkpt>
      <trkpt lat="42.098454" lon="1.064920">
        <ele>654.666</ele>
        <time>2021-06-20T12:34:56Z</time>
      </trkpt>
      <trkpt lat="42.098463" lon="1.065039">
        <ele>655.447</ele>
        <time>2021-06-20T12:35:00Z</time>
      </trkpt>
      <trkpt lat="42.098463" lon="1.065134">
        <ele>656.287</ele>
        <time>2021-06-20T12:35:03Z</time>
      </trkpt>
      <trkpt lat="42.098465" lon="1.065198">
        <ele>656.445</ele>
        <time>2021-06-20T12:35:05Z</time>
      </trkpt>
      <trkpt lat="42.098492" lon="1.065321">
        <ele>657.032</ele>
        <time>2021-06-20T12:35:09Z</time>
      </trkpt>
      <trkpt lat="42.098508" lon="1.065413">
        <ele>657.492</ele>
        <time>2021-06-20T12:35:12Z</time>
      </trkpt>
      <trkpt lat="42.098518" lon="1.065508">
        <ele>657.811</ele>
        <time>2021-06-20T12:35:15Z</time>
      </trkpt>
      <trkpt lat="42.098515" lon="1.065737">
        <ele>658.208</ele>
        <time>2021-06-20T12:35:22Z</time>
      </trkpt>
      <trkpt lat="42.098512" lon="1.065768">
        <ele>658.410</ele>
        <time>2021-06-20T12:35:23Z</time>
      </trkpt>
      <trkpt lat="42.098498" lon="1.065924">
        <ele>658.839</ele>
        <time>2021-06-20T12:35:28Z</time>
      </trkpt>
      <trkpt lat="42.098515" lon="1.066113">
        <ele>659.266</ele>
        <time>2021-06-20T12:35:34Z</time>
      </trkpt>
      <trkpt lat="42.098521" lon="1.066209">
        <ele>659.458</ele>
        <time>2021-06-20T12:35:37Z</time>
      </trkpt>
      <trkpt lat="42.098526" lon="1.066394">
        <ele>659.882</ele>
        <time>2021-06-20T12:35:43Z</time>
      </trkpt>
      <trkpt lat="42.098527" lon="1.066521">
        <ele>660.463</ele>
        <time>2021-06-20T12:35:47Z</time>
      </trkpt>
      <trkpt lat="42.098524" lon="1.066653">
        <ele>661.033</ele>
        <time>2021-06-20T12:35:51Z</time>
      </trkpt>
      <trkpt lat="42.098519" lon="1.066808">
        <ele>661.851</ele>
        <time>2021-06-20T12:35:56Z</time>
      </trkpt>
      <trkpt lat="42.098517" lon="1.066837">
        <ele>661.859</ele>
        <time>2021-06-20T12:35:57Z</time>
      </trkpt>
      <trkpt lat="42.098520" lon="1.067028">
        <ele>662.203</ele>
        <time>2021-06-20T12:36:04Z</time>
      </trkpt>
      <trkpt lat="42.098519" lon="1.067059">
        <ele>662.623</ele>
        <time>2021-06-20T12:36:05Z</time>
      </trkpt>
      <trkpt lat="42.098491" lon="1.067205">
        <ele>663.608</ele>
        <time>2021-06-20T12:36:10Z</time>
      </trkpt>
      <trkpt lat="42.098467" lon="1.067270">
        <ele>663.842</ele>
        <time>2021-06-20T12:36:12Z</time>
      </trkpt>
      <trkpt lat="42.098373" lon="1.067467">
        <ele>664.231</ele>
        <time>2021-06-20T12:36:17Z</time>
      </trkpt>
      <trkpt lat="42.098087" lon="1.067747">
        <ele>663.018</ele>
        <time>2021-06-20T12:36:26Z</time>
      </trkpt>
      <trkpt lat="42.097952" lon="1.067871">
        <ele>662.670</ele>
        <time>2021-06-20T12:36:30Z</time>
      </trkpt>
      <trkpt lat="42.097858" lon="1.067968">
        <ele>662.424</ele>
        <time>2021-06-20T12:36:33Z</time>
      </trkpt>
      <trkpt lat="42.097835" lon="1.068009">
        <ele>662.425</ele>
        <time>2021-06-20T12:36:34Z</time>
      </trkpt>
      <trkpt lat="42.097708" lon="1.068169">
        <ele>662.495</ele>
        <time>2021-06-20T12:36:39Z</time>
      </trkpt>
      <trkpt lat="42.097473" lon="1.068408">
        <ele>663.043</ele>
        <time>2021-06-20T12:36:48Z</time>
      </trkpt>
      <trkpt lat="42.097397" lon="1.068494">
        <ele>663.628</ele>
        <time>2021-06-20T12:36:51Z</time>
      </trkpt>
      <trkpt lat="42.097180" lon="1.068727">
        <ele>664.089</ele>
        <time>2021-06-20T12:36:59Z</time>
      </trkpt>
      <trkpt lat="42.097071" lon="1.068837">
        <ele>664.417</ele>
        <time>2021-06-20T12:37:03Z</time>
      </trkpt>
      <trkpt lat="42.096941" lon="1.068984">
        <ele>664.608</ele>
        <time>2021-06-20T12:37:08Z</time>
      </trkpt>
      <trkpt lat="42.096760" lon="1.069185">
        <ele>665.249</ele>
        <time>2021-06-20T12:37:15Z</time>
      </trkpt>
      <trkpt lat="42.096655" lon="1.069297">
        <ele>665.418</ele>
        <time>2021-06-20T12:37:19Z</time>
      </trkpt>
      <trkpt lat="42.096461" lon="1.069519">
        <ele>665.845</ele>
        <time>2021-06-20T12:37:27Z</time>
      </trkpt>
      <trkpt lat="42.096393" lon="1.069602">
        <ele>666.037</ele>
        <time>2021-06-20T12:37:30Z</time>
      </trkpt>
      <trkpt lat="42.096251" lon="1.069805">
        <ele>666.641</ele>
        <time>2021-06-20T12:37:37Z</time>
      </trkpt>
      <trkpt lat="42.096214" lon="1.069869">
        <ele>666.612</ele>
        <time>2021-06-20T12:37:39Z</time>
      </trkpt>
      <trkpt lat="42.096148" lon="1.070038">
        <ele>666.682</ele>
        <time>2021-06-20T12:37:43Z</time>
      </trkpt>
      <trkpt lat="42.096047" lon="1.070416">
        <ele>666.460</ele>
        <time>2021-06-20T12:37:51Z</time>
      </trkpt>
      <trkpt lat="42.096012" lon="1.070571">
        <ele>666.068</ele>
        <time>2021-06-20T12:37:54Z</time>
      </trkpt>
      <trkpt lat="42.095981" lon="1.070749">
        <ele>666.042</ele>
        <time>2021-06-20T12:37:57Z</time>
      </trkpt>
      <trkpt lat="42.095962" lon="1.070888">
        <ele>665.826</ele>
        <time>2021-06-20T12:37:59Z</time>
      </trkpt>
      <trkpt lat="42.095895" lon="1.071093">
        <ele>665.208</ele>
        <time>2021-06-20T12:38:02Z</time>
      </trkpt>
      <trkpt lat="42.095780" lon="1.071244">
        <ele>665.063</ele>
        <time>2021-06-20T12:38:05Z</time>
      </trkpt>
      <trkpt lat="42.095738" lon="1.071285">
        <ele>664.872</ele>
        <time>2021-06-20T12:38:06Z</time>
      </trkpt>
      <trkpt lat="42.095696" lon="1.071321">
        <ele>664.489</ele>
        <time>2021-06-20T12:38:07Z</time>
      </trkpt>
      <trkpt lat="42.095611" lon="1.071381">
        <ele>663.491</ele>
        <time>2021-06-20T12:38:09Z</time>
      </trkpt>
      <trkpt lat="42.095533" lon="1.071421">
        <ele>662.695</ele>
        <time>2021-06-20T12:38:11Z</time>
      </trkpt>
      <trkpt lat="42.095302" lon="1.071480">
        <ele>662.256</ele>
        <time>2021-06-20T12:38:18Z</time>
      </trkpt>
      <trkpt lat="42.095081" lon="1.071473">
        <ele>663.296</ele>
        <time>2021-06-20T12:38:26Z</time>
      </trkpt>
      <trkpt lat="42.094935" lon="1.071497">
        <ele>663.894</ele>
        <time>2021-06-20T12:38:31Z</time>
      </trkpt>
      <trkpt lat="42.094845" lon="1.071525">
        <ele>664.097</ele>
        <time>2021-06-20T12:38:34Z</time>
      </trkpt>
      <trkpt lat="42.094626" lon="1.071623">
        <ele>664.223</ele>
        <time>2021-06-20T12:38:41Z</time>
      </trkpt>
      <trkpt lat="42.094482" lon="1.071709">
        <ele>664.425</ele>
        <time>2021-06-20T12:38:45Z</time>
      </trkpt>
      <trkpt lat="42.094410" lon="1.071764">
        <ele>664.208</ele>
        <time>2021-06-20T12:38:47Z</time>
      </trkpt>
      <trkpt lat="42.094291" lon="1.071854">
        <ele>664.496</ele>
        <time>2021-06-20T12:38:50Z</time>
      </trkpt>
      <trkpt lat="42.094211" lon="1.071923">
        <ele>664.495</ele>
        <time>2021-06-20T12:38:52Z</time>
      </trkpt>
      <trkpt lat="42.093943" lon="1.072140">
        <ele>663.212</ele>
        <time>2021-06-20T12:38:58Z</time>
      </trkpt>
      <trkpt lat="42.093894" lon="1.072177">
        <ele>662.824</ele>
        <time>2021-06-20T12:38:59Z</time>
      </trkpt>
      <trkpt lat="42.093739" lon="1.072270">
        <ele>662.238</ele>
        <time>2021-06-20T12:39:02Z</time>
      </trkpt>
      <trkpt lat="42.093677" lon="1.072277">
        <ele>661.829</ele>
        <time>2021-06-20T12:39:03Z</time>
      </trkpt>
      <trkpt lat="42.093615" lon="1.072272">
        <ele>661.859</ele>
        <time>2021-06-20T12:39:04Z</time>
      </trkpt>
      <trkpt lat="42.093477" lon="1.072184">
        <ele>661.017</ele>
        <time>2021-06-20T12:39:07Z</time>
      </trkpt>
      <trkpt lat="42.093396" lon="1.072086">
        <ele>660.465</ele>
        <time>2021-06-20T12:39:09Z</time>
      </trkpt>
      <trkpt lat="42.093309" lon="1.071984">
        <ele>659.468</ele>
        <time>2021-06-20T12:39:11Z</time>
      </trkpt>
      <trkpt lat="42.093272" lon="1.071930">
        <ele>659.214</ele>
        <time>2021-06-20T12:39:12Z</time>
      </trkpt>
      <trkpt lat="42.093113" lon="1.071692">
        <ele>658.408</ele>
        <time>2021-06-20T12:39:16Z</time>
      </trkpt>
      <trkpt lat="42.093059" lon="1.071646">
        <ele>658.423</ele>
        <time>2021-06-20T12:39:17Z</time>
      </trkpt>
      <trkpt lat="42.092868" lon="1.071560">
        <ele>658.242</ele>
        <time>2021-06-20T12:39:20Z</time>
      </trkpt>
      <trkpt lat="42.092800" lon="1.071542">
        <ele>657.819</ele>
        <time>2021-06-20T12:39:21Z</time>
      </trkpt>
      <trkpt lat="42.092731" lon="1.071531">
        <ele>657.621</ele>
        <time>2021-06-20T12:39:22Z</time>
      </trkpt>
      <trkpt lat="42.092525" lon="1.071529">
        <ele>656.855</ele>
        <time>2021-06-20T12:39:25Z</time>
      </trkpt>
      <trkpt lat="42.092396" lon="1.071530">
        <ele>655.816</ele>
        <time>2021-06-20T12:39:27Z</time>
      </trkpt>
      <trkpt lat="42.092262" lon="1.071544">
        <ele>654.896</ele>
        <time>2021-06-20T12:39:29Z</time>
      </trkpt>
      <trkpt lat="42.092137" lon="1.071560">
        <ele>653.424</ele>
        <time>2021-06-20T12:39:31Z</time>
      </trkpt>
      <trkpt lat="42.092037" lon="1.071563">
        <ele>652.657</ele>
        <time>2021-06-20T12:39:34Z</time>
      </trkpt>
      <trkpt lat="42.092029" lon="1.071562">
        <ele>651.800</ele>
        <time>2021-06-20T12:39:35Z</time>
      </trkpt>
      <trkpt lat="42.092029" lon="1.071559">
        <ele>650.820</ele>
        <time>2021-06-20T12:39:36Z</time>
      </trkpt>
      <trkpt lat="42.091977" lon="1.071508">
        <ele>647.808</ele>
        <time>2021-06-20T12:44:44Z</time>
      </trkpt>
      <trkpt lat="42.091822" lon="1.071531">
        <ele>647.612</ele>
        <time>2021-06-20T12:44:50Z</time>
      </trkpt>
      <trkpt lat="42.091623" lon="1.071538">
        <ele>647.281</ele>
        <time>2021-06-20T12:44:55Z</time>
      </trkpt>
      <trkpt lat="42.091361" lon="1.071541">
        <ele>646.278</ele>
        <time>2021-06-20T12:45:00Z</time>
      </trkpt>
      <trkpt lat="42.091104" lon="1.071489">
        <ele>646.070</ele>
        <time>2021-06-20T12:45:04Z</time>
      </trkpt>
      <trkpt lat="42.090966" lon="1.071333">
        <ele>645.644</ele>
        <time>2021-06-20T12:45:07Z</time>
      </trkpt>
      <trkpt lat="42.090920" lon="1.071282">
        <ele>645.075</ele>
        <time>2021-06-20T12:45:08Z</time>
      </trkpt>
      <trkpt lat="42.090840" lon="1.071191">
        <ele>643.825</ele>
        <time>2021-06-20T12:45:10Z</time>
      </trkpt>
      <trkpt lat="42.090815" lon="1.071141">
        <ele>643.663</ele>
        <time>2021-06-20T12:45:11Z</time>
      </trkpt>
      <trkpt lat="42.090790" lon="1.071035">
        <ele>643.013</ele>
        <time>2021-06-20T12:45:14Z</time>
      </trkpt>
      <trkpt lat="42.090789" lon="1.071009">
        <ele>642.843</ele>
        <time>2021-06-20T12:45:15Z</time>
      </trkpt>
      <trkpt lat="42.090788" lon="1.070963">
        <ele>642.607</ele>
        <time>2021-06-20T12:45:17Z</time>
      </trkpt>
      <trkpt lat="42.090823" lon="1.070868">
        <ele>642.808</ele>
        <time>2021-06-20T12:45:22Z</time>
      </trkpt>
      <trkpt lat="42.090831" lon="1.070849">
        <ele>643.278</ele>
        <time>2021-06-20T12:45:23Z</time>
      </trkpt>
      <trkpt lat="42.090835" lon="1.070827">
        <ele>643.627</ele>
        <time>2021-06-20T12:45:24Z</time>
      </trkpt>
      <trkpt lat="42.090836" lon="1.070805">
        <ele>645.244</ele>
        <time>2021-06-20T12:45:25Z</time>
      </trkpt>
      <trkpt lat="42.090843" lon="1.070763">
        <ele>646.426</ele>
        <time>2021-06-20T12:45:27Z</time>
      </trkpt>
      <trkpt lat="42.090878" lon="1.070625">
        <ele>647.660</ele>
        <time>2021-06-20T12:45:34Z</time>
      </trkpt>
      <trkpt lat="42.090885" lon="1.070568">
        <ele>647.621</ele>
        <time>2021-06-20T12:45:37Z</time>
      </trkpt>
      <trkpt lat="42.090913" lon="1.070478">
        <ele>648.481</ele>
        <time>2021-06-20T12:45:42Z</time>
      </trkpt>
      <trkpt lat="42.090917" lon="1.070419">
        <ele>649.069</ele>
        <time>2021-06-20T12:45:45Z</time>
      </trkpt>
      <trkpt lat="42.090908" lon="1.070365">
        <ele>649.467</ele>
        <time>2021-06-20T12:45:48Z</time>
      </trkpt>
      <trkpt lat="42.090899" lon="1.070290">
        <ele>650.681</ele>
        <time>2021-06-20T12:45:52Z</time>
      </trkpt>
      <trkpt lat="42.090893" lon="1.070256">
        <ele>651.019</ele>
        <time>2021-06-20T12:45:54Z</time>
      </trkpt>
      <trkpt lat="42.090878" lon="1.070205">
        <ele>651.608</ele>
        <time>2021-06-20T12:45:57Z</time>
      </trkpt>
      <trkpt lat="42.090861" lon="1.070104">
        <ele>652.443</ele>
        <time>2021-06-20T12:46:02Z</time>
      </trkpt>
      <trkpt lat="42.090862" lon="1.070082">
        <ele>652.632</ele>
        <time>2021-06-20T12:46:03Z</time>
      </trkpt>
      <trkpt lat="42.090868" lon="1.069929">
        <ele>653.669</ele>
        <time>2021-06-20T12:46:09Z</time>
      </trkpt>
      <trkpt lat="42.090880" lon="1.069873">
        <ele>654.031</ele>
        <time>2021-06-20T12:46:11Z</time>
      </trkpt>
      <trkpt lat="42.090990" lon="1.069641">
        <ele>654.045</ele>
        <time>2021-06-20T12:46:21Z</time>
      </trkpt>
      <trkpt lat="42.091032" lon="1.069583">
        <ele>654.476</ele>
        <time>2021-06-20T12:46:24Z</time>
      </trkpt>
      <trkpt lat="42.091083" lon="1.069506">
        <ele>654.816</ele>
        <time>2021-06-20T12:46:28Z</time>
      </trkpt>
      <trkpt lat="42.091128" lon="1.069374">
        <ele>655.424</ele>
        <time>2021-06-20T12:46:34Z</time>
      </trkpt>
      <trkpt lat="42.091136" lon="1.069352">
        <ele>655.497</ele>
        <time>2021-06-20T12:46:35Z</time>
      </trkpt>
      <trkpt lat="42.091172" lon="1.069264">
        <ele>656.223</ele>
        <time>2021-06-20T12:46:39Z</time>
      </trkpt>
      <trkpt lat="42.091190" lon="1.069173">
        <ele>656.625</ele>
        <time>2021-06-20T12:46:43Z</time>
      </trkpt>
      <trkpt lat="42.091191" lon="1.069074">
        <ele>657.208</ele>
        <time>2021-06-20T12:46:47Z</time>
      </trkpt>
      <trkpt lat="42.091178" lon="1.068980">
        <ele>657.886</ele>
        <time>2021-06-20T12:46:51Z</time>
      </trkpt>
      <trkpt lat="42.091165" lon="1.068908">
        <ele>658.455</ele>
        <time>2021-06-20T12:46:54Z</time>
      </trkpt>
      <trkpt lat="42.091135" lon="1.068787">
        <ele>659.082</ele>
        <time>2021-06-20T12:46:59Z</time>
      </trkpt>
      <trkpt lat="42.091113" lon="1.068745">
        <ele>659.264</ele>
        <time>2021-06-20T12:47:01Z</time>
      </trkpt>
      <trkpt lat="42.091054" lon="1.068678">
        <ele>659.878</ele>
        <time>2021-06-20T12:47:05Z</time>
      </trkpt>
      <trkpt lat="42.091005" lon="1.068629">
        <ele>660.499</ele>
        <time>2021-06-20T12:47:08Z</time>
      </trkpt>
      <trkpt lat="42.090908" lon="1.068607">
        <ele>660.499</ele>
        <time>2021-06-20T12:47:13Z</time>
      </trkpt>
      <trkpt lat="42.090827" lon="1.068633">
        <ele>661.277</ele>
        <time>2021-06-20T12:47:18Z</time>
      </trkpt>
      <trkpt lat="42.090799" lon="1.068649">
        <ele>661.471</ele>
        <time>2021-06-20T12:47:20Z</time>
      </trkpt>
      <trkpt lat="42.090763" lon="1.068692">
        <ele>662.241</ele>
        <time>2021-06-20T12:47:23Z</time>
      </trkpt>
      <trkpt lat="42.090720" lon="1.068787">
        <ele>663.415</ele>
        <time>2021-06-20T12:47:28Z</time>
      </trkpt>
      <trkpt lat="42.090701" lon="1.068914">
        <ele>664.408</ele>
        <time>2021-06-20T12:47:34Z</time>
      </trkpt>
      <trkpt lat="42.090709" lon="1.068976">
        <ele>664.654</ele>
        <time>2021-06-20T12:47:37Z</time>
      </trkpt>
      <trkpt lat="42.090726" lon="1.069059">
        <ele>665.483</ele>
        <time>2021-06-20T12:47:41Z</time>
      </trkpt>
      <trkpt lat="42.090724" lon="1.069158">
        <ele>666.250</ele>
        <time>2021-06-20T12:47:46Z</time>
      </trkpt>
      <trkpt lat="42.090724" lon="1.069178">
        <ele>666.482</ele>
        <time>2021-06-20T12:47:47Z</time>
      </trkpt>
      <trkpt lat="42.090711" lon="1.069289">
        <ele>667.266</ele>
        <time>2021-06-20T12:47:52Z</time>
      </trkpt>
      <trkpt lat="42.090692" lon="1.069374">
        <ele>667.827</ele>
        <time>2021-06-20T12:47:56Z</time>
      </trkpt>
      <trkpt lat="42.090669" lon="1.069434">
        <ele>668.467</ele>
        <time>2021-06-20T12:47:59Z</time>
      </trkpt>
      <trkpt lat="42.090621" lon="1.069553">
        <ele>669.015</ele>
        <time>2021-06-20T12:48:05Z</time>
      </trkpt>
      <trkpt lat="42.090605" lon="1.069592">
        <ele>669.262</ele>
        <time>2021-06-20T12:48:07Z</time>
      </trkpt>
      <trkpt lat="42.090547" lon="1.069702">
        <ele>670.283</ele>
        <time>2021-06-20T12:48:13Z</time>
      </trkpt>
      <trkpt lat="42.090536" lon="1.069721">
        <ele>670.211</ele>
        <time>2021-06-20T12:48:14Z</time>
      </trkpt>
      <trkpt lat="42.090466" lon="1.069882">
        <ele>671.408</ele>
        <time>2021-06-20T12:48:22Z</time>
      </trkpt>
      <trkpt lat="42.090367" lon="1.069976">
        <ele>672.213</ele>
        <time>2021-06-20T12:48:29Z</time>
      </trkpt>
      <trkpt lat="42.090259" lon="1.069949">
        <ele>673.212</ele>
        <time>2021-06-20T12:48:36Z</time>
      </trkpt>
      <trkpt lat="42.090218" lon="1.069866">
        <ele>673.669</ele>
        <time>2021-06-20T12:48:41Z</time>
      </trkpt>
      <trkpt lat="42.090209" lon="1.069823">
        <ele>673.891</ele>
        <time>2021-06-20T12:48:43Z</time>
      </trkpt>
      <trkpt lat="42.090209" lon="1.069755">
        <ele>674.285</ele>
        <time>2021-06-20T12:48:46Z</time>
      </trkpt>
      <trkpt lat="42.090215" lon="1.069689">
        <ele>674.866</ele>
        <time>2021-06-20T12:48:49Z</time>
      </trkpt>
      <trkpt lat="42.090215" lon="1.069667">
        <ele>675.066</ele>
        <time>2021-06-20T12:48:50Z</time>
      </trkpt>
      <trkpt lat="42.090238" lon="1.069536">
        <ele>676.264</ele>
        <time>2021-06-20T12:48:56Z</time>
      </trkpt>
      <trkpt lat="42.090241" lon="1.069515">
        <ele>676.472</ele>
        <time>2021-06-20T12:48:57Z</time>
      </trkpt>
      <trkpt lat="42.090239" lon="1.069391">
        <ele>677.013</ele>
        <time>2021-06-20T12:49:03Z</time>
      </trkpt>
      <trkpt lat="42.090201" lon="1.069258">
        <ele>678.014</ele>
        <time>2021-06-20T12:49:10Z</time>
      </trkpt>
      <trkpt lat="42.090190" lon="1.069236">
        <ele>678.208</ele>
        <time>2021-06-20T12:49:11Z</time>
      </trkpt>
      <trkpt lat="42.090137" lon="1.069174">
        <ele>678.654</ele>
        <time>2021-06-20T12:49:15Z</time>
      </trkpt>
      <trkpt lat="42.090095" lon="1.069155">
        <ele>679.053</ele>
        <time>2021-06-20T12:49:18Z</time>
      </trkpt>
      <trkpt lat="42.090050" lon="1.069111">
        <ele>679.880</ele>
        <time>2021-06-20T12:49:22Z</time>
      </trkpt>
      <trkpt lat="42.089998" lon="1.069056">
        <ele>680.242</ele>
        <time>2021-06-20T12:49:26Z</time>
      </trkpt>
      <trkpt lat="42.089971" lon="1.069021">
        <ele>680.456</ele>
        <time>2021-06-20T12:49:28Z</time>
      </trkpt>
      <trkpt lat="42.089910" lon="1.068929">
        <ele>681.037</ele>
        <time>2021-06-20T12:49:33Z</time>
      </trkpt>
      <trkpt lat="42.089866" lon="1.068848">
        <ele>681.677</ele>
        <time>2021-06-20T12:49:37Z</time>
      </trkpt>
      <trkpt lat="42.089845" lon="1.068780">
        <ele>682.035</ele>
        <time>2021-06-20T12:49:40Z</time>
      </trkpt>
      <trkpt lat="42.089814" lon="1.068664">
        <ele>682.652</ele>
        <time>2021-06-20T12:49:45Z</time>
      </trkpt>
      <trkpt lat="42.089781" lon="1.068607">
        <ele>682.853</ele>
        <time>2021-06-20T12:49:48Z</time>
      </trkpt>
      <trkpt lat="42.089722" lon="1.068517">
        <ele>683.608</ele>
        <time>2021-06-20T12:49:53Z</time>
      </trkpt>
      <trkpt lat="42.089700" lon="1.068478">
        <ele>684.008</ele>
        <time>2021-06-20T12:49:55Z</time>
      </trkpt>
      <trkpt lat="42.089628" lon="1.068364">
        <ele>684.892</ele>
        <time>2021-06-20T12:50:01Z</time>
      </trkpt>
      <trkpt lat="42.089616" lon="1.068346">
        <ele>684.891</ele>
        <time>2021-06-20T12:50:02Z</time>
      </trkpt>
      <trkpt lat="42.089551" lon="1.068225">
        <ele>685.868</ele>
        <time>2021-06-20T12:50:09Z</time>
      </trkpt>
      <trkpt lat="42.089541" lon="1.068189">
        <ele>686.040</ele>
        <time>2021-06-20T12:50:11Z</time>
      </trkpt>
      <trkpt lat="42.089510" lon="1.068087">
        <ele>687.064</ele>
        <time>2021-06-20T12:50:16Z</time>
      </trkpt>
      <trkpt lat="42.089503" lon="1.067989">
        <ele>687.875</ele>
        <time>2021-06-20T12:50:21Z</time>
      </trkpt>
      <trkpt lat="42.089503" lon="1.067949">
        <ele>688.455</ele>
        <time>2021-06-20T12:50:23Z</time>
      </trkpt>
      <trkpt lat="42.089500" lon="1.067867">
        <ele>689.063</ele>
        <time>2021-06-20T12:50:27Z</time>
      </trkpt>
      <trkpt lat="42.089495" lon="1.067762">
        <ele>689.212</ele>
        <time>2021-06-20T12:50:31Z</time>
      </trkpt>
      <trkpt lat="42.089486" lon="1.067704">
        <ele>690.032</ele>
        <time>2021-06-20T12:50:33Z</time>
      </trkpt>
      <trkpt lat="42.089490" lon="1.067605">
        <ele>690.605</ele>
        <time>2021-06-20T12:50:37Z</time>
      </trkpt>
      <trkpt lat="42.089505" lon="1.067493">
        <ele>690.808</ele>
        <time>2021-06-20T12:50:42Z</time>
      </trkpt>
      <trkpt lat="42.089512" lon="1.067471">
        <ele>691.078</ele>
        <time>2021-06-20T12:50:43Z</time>
      </trkpt>
      <trkpt lat="42.089585" lon="1.067284">
        <ele>691.417</ele>
        <time>2021-06-20T12:50:51Z</time>
      </trkpt>
      <trkpt lat="42.089597" lon="1.067265">
        <ele>691.684</ele>
        <time>2021-06-20T12:50:52Z</time>
      </trkpt>
      <trkpt lat="42.089673" lon="1.067161">
        <ele>692.646</ele>
        <time>2021-06-20T12:50:58Z</time>
      </trkpt>
      <trkpt lat="42.089685" lon="1.067141">
        <ele>692.630</ele>
        <time>2021-06-20T12:50:59Z</time>
      </trkpt>
      <trkpt lat="42.089763" lon="1.067023">
        <ele>693.681</ele>
        <time>2021-06-20T12:51:05Z</time>
      </trkpt>
      <trkpt lat="42.089777" lon="1.067004">
        <ele>693.881</ele>
        <time>2021-06-20T12:51:06Z</time>
      </trkpt>
      <trkpt lat="42.089848" lon="1.066828">
        <ele>694.279</ele>
        <time>2021-06-20T12:51:14Z</time>
      </trkpt>
      <trkpt lat="42.089860" lon="1.066755">
        <ele>694.448</ele>
        <time>2021-06-20T12:51:17Z</time>
      </trkpt>
      <trkpt lat="42.089845" lon="1.066601">
        <ele>695.261</ele>
        <time>2021-06-20T12:51:23Z</time>
      </trkpt>
      <trkpt lat="42.089825" lon="1.066553">
        <ele>695.217</ele>
        <time>2021-06-20T12:51:25Z</time>
      </trkpt>
      <trkpt lat="42.089753" lon="1.066478">
        <ele>696.208</ele>
        <time>2021-06-20T12:51:30Z</time>
      </trkpt>
      <trkpt lat="42.089734" lon="1.066476">
        <ele>696.491</ele>
        <time>2021-06-20T12:51:31Z</time>
      </trkpt>
      <trkpt lat="42.089649" lon="1.066516">
        <ele>696.850</ele>
        <time>2021-06-20T12:51:36Z</time>
      </trkpt>
      <trkpt lat="42.089587" lon="1.066603">
        <ele>697.267</ele>
        <time>2021-06-20T12:51:41Z</time>
      </trkpt>
      <trkpt lat="42.089555" lon="1.066659">
        <ele>697.859</ele>
        <time>2021-06-20T12:51:44Z</time>
      </trkpt>
      <trkpt lat="42.089538" lon="1.066699">
        <ele>698.223</ele>
        <time>2021-06-20T12:51:46Z</time>
      </trkpt>
      <trkpt lat="42.089494" lon="1.066774">
        <ele>699.284</ele>
        <time>2021-06-20T12:51:50Z</time>
      </trkpt>
      <trkpt lat="42.089480" lon="1.066789">
        <ele>699.474</ele>
        <time>2021-06-20T12:51:51Z</time>
      </trkpt>
      <trkpt lat="42.089407" lon="1.066856">
        <ele>700.262</ele>
        <time>2021-06-20T12:51:56Z</time>
      </trkpt>
      <trkpt lat="42.089332" lon="1.066916">
        <ele>701.442</ele>
        <time>2021-06-20T12:52:01Z</time>
      </trkpt>
      <trkpt lat="42.089234" lon="1.066976">
        <ele>702.222</ele>
        <time>2021-06-20T12:52:07Z</time>
      </trkpt>
      <trkpt lat="42.089217" lon="1.066984">
        <ele>702.214</ele>
        <time>2021-06-20T12:52:08Z</time>
      </trkpt>
      <trkpt lat="42.089135" lon="1.067034">
        <ele>703.208</ele>
        <time>2021-06-20T12:52:13Z</time>
      </trkpt>
      <trkpt lat="42.089105" lon="1.067060">
        <ele>703.611</ele>
        <time>2021-06-20T12:52:15Z</time>
      </trkpt>
      <trkpt lat="42.089044" lon="1.067112">
        <ele>704.050</ele>
        <time>2021-06-20T12:52:19Z</time>
      </trkpt>
      <trkpt lat="42.089002" lon="1.067162">
        <ele>704.897</ele>
        <time>2021-06-20T12:52:22Z</time>
      </trkpt>
      <trkpt lat="42.088977" lon="1.067197">
        <ele>705.229</ele>
        <time>2021-06-20T12:52:24Z</time>
      </trkpt>
      <trkpt lat="42.088918" lon="1.067292">
        <ele>705.833</ele>
        <time>2021-06-20T12:52:29Z</time>
      </trkpt>
      <trkpt lat="42.088908" lon="1.067312">
        <ele>706.054</ele>
        <time>2021-06-20T12:52:30Z</time>
      </trkpt>
      <trkpt lat="42.088852" lon="1.067443">
        <ele>706.654</ele>
        <time>2021-06-20T12:52:36Z</time>
      </trkpt>
      <trkpt lat="42.088842" lon="1.067488">
        <ele>707.022</ele>
        <time>2021-06-20T12:52:38Z</time>
      </trkpt>
      <trkpt lat="42.088815" lon="1.067632">
        <ele>707.869</ele>
        <time>2021-06-20T12:52:44Z</time>
      </trkpt>
      <trkpt lat="42.088803" lon="1.067679">
        <ele>708.004</ele>
        <time>2021-06-20T12:52:46Z</time>
      </trkpt>
      <trkpt lat="42.088797" lon="1.067702">
        <ele>708.224</ele>
        <time>2021-06-20T12:52:47Z</time>
      </trkpt>
      <trkpt lat="42.088750" lon="1.067838">
        <ele>708.808</ele>
        <time>2021-06-20T12:52:53Z</time>
      </trkpt>
      <trkpt lat="42.088741" lon="1.067860">
        <ele>709.043</ele>
        <time>2021-06-20T12:52:54Z</time>
      </trkpt>
      <trkpt lat="42.088682" lon="1.067957">
        <ele>710.052</ele>
        <time>2021-06-20T12:52:59Z</time>
      </trkpt>
      <trkpt lat="42.088658" lon="1.067996">
        <ele>710.299</ele>
        <time>2021-06-20T12:53:01Z</time>
      </trkpt>
      <trkpt lat="42.088547" lon="1.068128">
        <ele>710.831</ele>
        <time>2021-06-20T12:53:09Z</time>
      </trkpt>
      <trkpt lat="42.088532" lon="1.068143">
        <ele>711.085</ele>
        <time>2021-06-20T12:53:10Z</time>
      </trkpt>
      <trkpt lat="42.088443" lon="1.068233">
        <ele>711.696</ele>
        <time>2021-06-20T12:53:16Z</time>
      </trkpt>
      <trkpt lat="42.088416" lon="1.068264">
        <ele>712.076</ele>
        <time>2021-06-20T12:53:18Z</time>
      </trkpt>
      <trkpt lat="42.088348" lon="1.068352">
        <ele>713.084</ele>
        <time>2021-06-20T12:53:23Z</time>
      </trkpt>
      <trkpt lat="42.088308" lon="1.068407">
        <ele>713.475</ele>
        <time>2021-06-20T12:53:26Z</time>
      </trkpt>
      <trkpt lat="42.088277" lon="1.068471">
        <ele>713.828</ele>
        <time>2021-06-20T12:53:29Z</time>
      </trkpt>
      <trkpt lat="42.088220" lon="1.068566">
        <ele>714.420</ele>
        <time>2021-06-20T12:53:34Z</time>
      </trkpt>
      <trkpt lat="42.088196" lon="1.068633">
        <ele>714.808</ele>
        <time>2021-06-20T12:53:37Z</time>
      </trkpt>
      <trkpt lat="42.088149" lon="1.068771">
        <ele>715.694</ele>
        <time>2021-06-20T12:53:43Z</time>
      </trkpt>
      <trkpt lat="42.088133" lon="1.068816">
        <ele>715.883</ele>
        <time>2021-06-20T12:53:45Z</time>
      </trkpt>
      <trkpt lat="42.088100" lon="1.068927">
        <ele>717.090</ele>
        <time>2021-06-20T12:53:50Z</time>
      </trkpt>
      <trkpt lat="42.088078" lon="1.068991">
        <ele>718.062</ele>
        <time>2021-06-20T12:53:53Z</time>
      </trkpt>
      <trkpt lat="42.088042" lon="1.069098">
        <ele>719.036</ele>
        <time>2021-06-20T12:53:58Z</time>
      </trkpt>
      <trkpt lat="42.088022" lon="1.069184">
        <ele>719.617</ele>
        <time>2021-06-20T12:54:02Z</time>
      </trkpt>
      <trkpt lat="42.088019" lon="1.069206">
        <ele>720.077</ele>
        <time>2021-06-20T12:54:03Z</time>
      </trkpt>
      <trkpt lat="42.087978" lon="1.069337">
        <ele>720.845</ele>
        <time>2021-06-20T12:54:09Z</time>
      </trkpt>
      <trkpt lat="42.087960" lon="1.069378">
        <ele>721.418</ele>
        <time>2021-06-20T12:54:11Z</time>
      </trkpt>
      <trkpt lat="42.087926" lon="1.069464">
        <ele>722.098</ele>
        <time>2021-06-20T12:54:15Z</time>
      </trkpt>
      <trkpt lat="42.087878" lon="1.069570">
        <ele>722.817</ele>
        <time>2021-06-20T12:54:20Z</time>
      </trkpt>
      <trkpt lat="42.087869" lon="1.069593">
        <ele>723.008</ele>
        <time>2021-06-20T12:54:21Z</time>
      </trkpt>
      <trkpt lat="42.087809" lon="1.069743">
        <ele>723.898</ele>
        <time>2021-06-20T12:54:28Z</time>
      </trkpt>
      <trkpt lat="42.087794" lon="1.069789">
        <ele>724.097</ele>
        <time>2021-06-20T12:54:30Z</time>
      </trkpt>
      <trkpt lat="42.087752" lon="1.069949">
        <ele>724.644</ele>
        <time>2021-06-20T12:54:37Z</time>
      </trkpt>
      <trkpt lat="42.087724" lon="1.070006">
        <ele>725.086</ele>
        <time>2021-06-20T12:54:40Z</time>
      </trkpt>
      <trkpt lat="42.087720" lon="1.070119">
        <ele>725.830</ele>
        <time>2021-06-20T12:54:45Z</time>
      </trkpt>
      <trkpt lat="42.087717" lon="1.070141">
        <ele>725.831</ele>
        <time>2021-06-20T12:54:46Z</time>
      </trkpt>
      <trkpt lat="42.087705" lon="1.070193">
        <ele>726.411</ele>
        <time>2021-06-20T12:54:51Z</time>
      </trkpt>
      <trkpt lat="42.087720" lon="1.070245">
        <ele>727.429</ele>
        <time>2021-06-20T12:55:07Z</time>
      </trkpt>
      <trkpt lat="42.087739" lon="1.070296">
        <ele>727.462</ele>
        <time>2021-06-20T12:55:10Z</time>
      </trkpt>
      <trkpt lat="42.087717" lon="1.070380">
        <ele>727.483</ele>
        <time>2021-06-20T12:55:14Z</time>
      </trkpt>
      <trkpt lat="42.087695" lon="1.070446">
        <ele>727.611</ele>
        <time>2021-06-20T12:55:17Z</time>
      </trkpt>
      <trkpt lat="42.087601" lon="1.070620">
        <ele>727.808</ele>
        <time>2021-06-20T12:55:24Z</time>
      </trkpt>
      <trkpt lat="42.087562" lon="1.070709">
        <ele>728.263</ele>
        <time>2021-06-20T12:55:27Z</time>
      </trkpt>
      <trkpt lat="42.087502" lon="1.070849">
        <ele>728.842</ele>
        <time>2021-06-20T12:55:32Z</time>
      </trkpt>
      <trkpt lat="42.087486" lon="1.070870">
        <ele>729.099</ele>
        <time>2021-06-20T12:55:33Z</time>
      </trkpt>
      <trkpt lat="42.087485" lon="1.070938">
        <ele>729.091</ele>
        <time>2021-06-20T12:55:36Z</time>
      </trkpt>
      <trkpt lat="42.087486" lon="1.070875">
        <ele>729.095</ele>
        <time>2021-06-20T12:55:39Z</time>
      </trkpt>
      <trkpt lat="42.087481" lon="1.070832">
        <ele>729.236</ele>
        <time>2021-06-20T12:55:41Z</time>
      </trkpt>
      <trkpt lat="42.087501" lon="1.070816">
        <ele>729.276</ele>
        <time>2021-06-20T12:55:43Z</time>
      </trkpt>
      <trkpt lat="42.087499" lon="1.070879">
        <ele>729.424</ele>
        <time>2021-06-20T12:55:46Z</time>
      </trkpt>
      <trkpt lat="42.087488" lon="1.070907">
        <ele>729.668</ele>
        <time>2021-06-20T12:55:47Z</time>
      </trkpt>
      <trkpt lat="42.087410" lon="1.071096">
        <ele>729.642</ele>
        <time>2021-06-20T12:55:53Z</time>
      </trkpt>
      <trkpt lat="42.087400" lon="1.071239">
        <ele>729.226</ele>
        <time>2021-06-20T12:55:57Z</time>
      </trkpt>
      <trkpt lat="42.087337" lon="1.071435">
        <ele>729.008</ele>
        <time>2021-06-20T12:56:03Z</time>
      </trkpt>
      <trkpt lat="42.087290" lon="1.071608">
        <ele>729.463</ele>
        <time>2021-06-20T12:56:09Z</time>
      </trkpt>
      <trkpt lat="42.087269" lon="1.071706">
        <ele>729.842</ele>
        <time>2021-06-20T12:56:13Z</time>
      </trkpt>
      <trkpt lat="42.087257" lon="1.071776">
        <ele>730.469</ele>
        <time>2021-06-20T12:56:16Z</time>
      </trkpt>
      <trkpt lat="42.087242" lon="1.071843">
        <ele>731.011</ele>
        <time>2021-06-20T12:56:19Z</time>
      </trkpt>
      <trkpt lat="42.087208" lon="1.071921">
        <ele>732.015</ele>
        <time>2021-06-20T12:56:23Z</time>
      </trkpt>
      <trkpt lat="42.087201" lon="1.071942">
        <ele>732.296</ele>
        <time>2021-06-20T12:56:24Z</time>
      </trkpt>
      <trkpt lat="42.087148" lon="1.072030">
        <ele>732.816</ele>
        <time>2021-06-20T12:56:29Z</time>
      </trkpt>
      <trkpt lat="42.087121" lon="1.072058">
        <ele>733.274</ele>
        <time>2021-06-20T12:56:31Z</time>
      </trkpt>
      <trkpt lat="42.087056" lon="1.072097">
        <ele>733.875</ele>
        <time>2021-06-20T12:56:35Z</time>
      </trkpt>
      <trkpt lat="42.086991" lon="1.072129">
        <ele>734.428</ele>
        <time>2021-06-20T12:56:39Z</time>
      </trkpt>
      <trkpt lat="42.086922" lon="1.072152">
        <ele>735.820</ele>
        <time>2021-06-20T12:56:43Z</time>
      </trkpt>
      <trkpt lat="42.086871" lon="1.072169">
        <ele>737.008</ele>
        <time>2021-06-20T12:56:46Z</time>
      </trkpt>
      <trkpt lat="42.086835" lon="1.072176">
        <ele>737.464</ele>
        <time>2021-06-20T12:56:48Z</time>
      </trkpt>
      <trkpt lat="42.086747" lon="1.072174">
        <ele>737.873</ele>
        <time>2021-06-20T12:56:53Z</time>
      </trkpt>
      <trkpt lat="42.086664" lon="1.072145">
        <ele>738.870</ele>
        <time>2021-06-20T12:56:58Z</time>
      </trkpt>
      <trkpt lat="42.086585" lon="1.072108">
        <ele>739.652</ele>
        <time>2021-06-20T12:57:03Z</time>
      </trkpt>
      <trkpt lat="42.086506" lon="1.072058">
        <ele>741.046</ele>
        <time>2021-06-20T12:57:08Z</time>
      </trkpt>
      <trkpt lat="42.086459" lon="1.072025">
        <ele>741.677</ele>
        <time>2021-06-20T12:57:11Z</time>
      </trkpt>
      <trkpt lat="42.086399" lon="1.071976">
        <ele>741.817</ele>
        <time>2021-06-20T12:57:15Z</time>
      </trkpt>
      <trkpt lat="42.086337" lon="1.071934">
        <ele>742.435</ele>
        <time>2021-06-20T12:57:19Z</time>
      </trkpt>
      <trkpt lat="42.086284" lon="1.071920">
        <ele>743.011</ele>
        <time>2021-06-20T12:57:22Z</time>
      </trkpt>
      <trkpt lat="42.086196" lon="1.071902">
        <ele>743.821</ele>
        <time>2021-06-20T12:57:27Z</time>
      </trkpt>
      <trkpt lat="42.086179" lon="1.071900">
        <ele>744.003</ele>
        <time>2021-06-20T12:57:28Z</time>
      </trkpt>
      <trkpt lat="42.086054" lon="1.071915">
        <ele>744.808</ele>
        <time>2021-06-20T12:57:35Z</time>
      </trkpt>
      <trkpt lat="42.085928" lon="1.071948">
        <ele>745.878</ele>
        <time>2021-06-20T12:57:42Z</time>
      </trkpt>
      <trkpt lat="42.085804" lon="1.071995">
        <ele>746.637</ele>
        <time>2021-06-20T12:57:49Z</time>
      </trkpt>
      <trkpt lat="42.085787" lon="1.072006">
        <ele>746.854</ele>
        <time>2021-06-20T12:57:50Z</time>
      </trkpt>
      <trkpt lat="42.085687" lon="1.072066">
        <ele>747.856</ele>
        <time>2021-06-20T12:57:56Z</time>
      </trkpt>
      <trkpt lat="42.085652" lon="1.072081">
        <ele>748.420</ele>
        <time>2021-06-20T12:57:58Z</time>
      </trkpt>
      <trkpt lat="42.085603" lon="1.072117">
        <ele>749.021</ele>
        <time>2021-06-20T12:58:01Z</time>
      </trkpt>
      <trkpt lat="42.085521" lon="1.072170">
        <ele>749.671</ele>
        <time>2021-06-20T12:58:06Z</time>
      </trkpt>
      <trkpt lat="42.085505" lon="1.072180">
        <ele>749.849</ele>
        <time>2021-06-20T12:58:07Z</time>
      </trkpt>
      <trkpt lat="42.085392" lon="1.072262">
        <ele>751.067</ele>
        <time>2021-06-20T12:58:14Z</time>
      </trkpt>
      <trkpt lat="42.085359" lon="1.072286">
        <ele>751.281</ele>
        <time>2021-06-20T12:58:16Z</time>
      </trkpt>
      <trkpt lat="42.085288" lon="1.072322">
        <ele>751.819</ele>
        <time>2021-06-20T12:58:20Z</time>
      </trkpt>
      <trkpt lat="42.085200" lon="1.072363">
        <ele>752.808</ele>
        <time>2021-06-20T12:58:25Z</time>
      </trkpt>
      <trkpt lat="42.085181" lon="1.072369">
        <ele>753.023</ele>
        <time>2021-06-20T12:58:26Z</time>
      </trkpt>
      <trkpt lat="42.085068" lon="1.072404">
        <ele>753.862</ele>
        <time>2021-06-20T12:58:32Z</time>
      </trkpt>
      <trkpt lat="42.085008" lon="1.072396">
        <ele>754.449</ele>
        <time>2021-06-20T12:58:35Z</time>
      </trkpt>
      <trkpt lat="42.084949" lon="1.072399">
        <ele>754.841</ele>
        <time>2021-06-20T12:58:38Z</time>
      </trkpt>
      <trkpt lat="42.084875" lon="1.072378">
        <ele>755.615</ele>
        <time>2021-06-20T12:58:42Z</time>
      </trkpt>
      <trkpt lat="42.084820" lon="1.072362">
        <ele>755.846</ele>
        <time>2021-06-20T12:58:45Z</time>
      </trkpt>
      <trkpt lat="42.084706" lon="1.072335">
        <ele>756.876</ele>
        <time>2021-06-20T12:58:51Z</time>
      </trkpt>
      <trkpt lat="42.084688" lon="1.072326">
        <ele>756.814</ele>
        <time>2021-06-20T12:58:52Z</time>
      </trkpt>
      <trkpt lat="42.084581" lon="1.072274">
        <ele>757.844</ele>
        <time>2021-06-20T12:58:58Z</time>
      </trkpt>
      <trkpt lat="42.084528" lon="1.072249">
        <ele>758.405</ele>
        <time>2021-06-20T12:59:01Z</time>
      </trkpt>
      <trkpt lat="42.084474" lon="1.072225">
        <ele>758.815</ele>
        <time>2021-06-20T12:59:04Z</time>
      </trkpt>
      <trkpt lat="42.084322" lon="1.072137">
        <ele>759.608</ele>
        <time>2021-06-20T12:59:13Z</time>
      </trkpt>
      <trkpt lat="42.084307" lon="1.072126">
        <ele>759.891</ele>
        <time>2021-06-20T12:59:14Z</time>
      </trkpt>
      <trkpt lat="42.084220" lon="1.072069">
        <ele>760.840</ele>
        <time>2021-06-20T12:59:19Z</time>
      </trkpt>
      <trkpt lat="42.084165" lon="1.072048">
        <ele>760.887</ele>
        <time>2021-06-20T12:59:22Z</time>
      </trkpt>
      <trkpt lat="42.084020" lon="1.071983">
        <ele>761.859</ele>
        <time>2021-06-20T12:59:30Z</time>
      </trkpt>
      <trkpt lat="42.083927" lon="1.071949">
        <ele>762.873</ele>
        <time>2021-06-20T12:59:35Z</time>
      </trkpt>
      <trkpt lat="42.083835" lon="1.071916">
        <ele>763.264</ele>
        <time>2021-06-20T12:59:40Z</time>
      </trkpt>
      <trkpt lat="42.083797" lon="1.071906">
        <ele>763.614</ele>
        <time>2021-06-20T12:59:42Z</time>
      </trkpt>
      <trkpt lat="42.083685" lon="1.071874">
        <ele>764.882</ele>
        <time>2021-06-20T12:59:48Z</time>
      </trkpt>
      <trkpt lat="42.083628" lon="1.071863">
        <ele>764.844</ele>
        <time>2021-06-20T12:59:51Z</time>
      </trkpt>
      <trkpt lat="42.083550" lon="1.071857">
        <ele>765.805</ele>
        <time>2021-06-20T12:59:55Z</time>
      </trkpt>
      <trkpt lat="42.083412" lon="1.071843">
        <ele>766.815</ele>
        <time>2021-06-20T13:00:02Z</time>
      </trkpt>
      <trkpt lat="42.083267" lon="1.071828">
        <ele>767.608</ele>
        <time>2021-06-20T13:00:10Z</time>
      </trkpt>
      <trkpt lat="42.083250" lon="1.071819">
        <ele>767.811</ele>
        <time>2021-06-20T13:00:11Z</time>
      </trkpt>
      <trkpt lat="42.083200" lon="1.071786">
        <ele>768.850</ele>
        <time>2021-06-20T13:00:14Z</time>
      </trkpt>
      <trkpt lat="42.083087" lon="1.071692">
        <ele>769.287</ele>
        <time>2021-06-20T13:00:21Z</time>
      </trkpt>
      <trkpt lat="42.083059" lon="1.071660">
        <ele>769.869</ele>
        <time>2021-06-20T13:00:23Z</time>
      </trkpt>
      <trkpt lat="42.082984" lon="1.071557">
        <ele>770.443</ele>
        <time>2021-06-20T13:00:29Z</time>
      </trkpt>
      <trkpt lat="42.082947" lon="1.071512">
        <ele>770.624</ele>
        <time>2021-06-20T13:00:32Z</time>
      </trkpt>
      <trkpt lat="42.082895" lon="1.071468">
        <ele>771.874</ele>
        <time>2021-06-20T13:00:36Z</time>
      </trkpt>
      <trkpt lat="42.082880" lon="1.071459">
        <ele>772.072</ele>
        <time>2021-06-20T13:00:37Z</time>
      </trkpt>
      <trkpt lat="42.082776" lon="1.071410">
        <ele>773.269</ele>
        <time>2021-06-20T13:00:43Z</time>
      </trkpt>
      <trkpt lat="42.082718" lon="1.071407">
        <ele>773.604</ele>
        <time>2021-06-20T13:00:46Z</time>
      </trkpt>
      <trkpt lat="42.082644" lon="1.071428">
        <ele>774.224</ele>
        <time>2021-06-20T13:00:50Z</time>
      </trkpt>
      <trkpt lat="42.082545" lon="1.071435">
        <ele>774.408</ele>
        <time>2021-06-20T13:00:55Z</time>
      </trkpt>
      <trkpt lat="42.082423" lon="1.071486">
        <ele>774.433</ele>
        <time>2021-06-20T13:01:00Z</time>
      </trkpt>
      <trkpt lat="42.082401" lon="1.071519">
        <ele>774.412</ele>
        <time>2021-06-20T13:01:01Z</time>
      </trkpt>
      <trkpt lat="42.082254" lon="1.071760">
        <ele>774.419</ele>
        <time>2021-06-20T13:01:07Z</time>
      </trkpt>
      <trkpt lat="42.082112" lon="1.071912">
        <ele>773.611</ele>
        <time>2021-06-20T13:01:12Z</time>
      </trkpt>
      <trkpt lat="42.081991" lon="1.072046">
        <ele>772.855</ele>
        <time>2021-06-20T13:01:16Z</time>
      </trkpt>
      <trkpt lat="42.081923" lon="1.072125">
        <ele>772.456</ele>
        <time>2021-06-20T13:01:18Z</time>
      </trkpt>
      <trkpt lat="42.081887" lon="1.072169">
        <ele>772.496</ele>
        <time>2021-06-20T13:01:19Z</time>
      </trkpt>
      <trkpt lat="42.081811" lon="1.072257">
        <ele>772.234</ele>
        <time>2021-06-20T13:01:21Z</time>
      </trkpt>
      <trkpt lat="42.081704" lon="1.072408">
        <ele>771.827</ele>
        <time>2021-06-20T13:01:24Z</time>
      </trkpt>
      <trkpt lat="42.081665" lon="1.072457">
        <ele>771.668</ele>
        <time>2021-06-20T13:01:25Z</time>
      </trkpt>
      <trkpt lat="42.081553" lon="1.072609">
        <ele>770.414</ele>
        <time>2021-06-20T13:01:28Z</time>
      </trkpt>
      <trkpt lat="42.081413" lon="1.072797">
        <ele>769.408</ele>
        <time>2021-06-20T13:01:32Z</time>
      </trkpt>
      <trkpt lat="42.081348" lon="1.072881">
        <ele>769.099</ele>
        <time>2021-06-20T13:01:34Z</time>
      </trkpt>
      <trkpt lat="42.081073" lon="1.073232">
        <ele>768.478</ele>
        <time>2021-06-20T13:01:43Z</time>
      </trkpt>
      <trkpt lat="42.080816" lon="1.073601">
        <ele>768.485</ele>
        <time>2021-06-20T13:01:51Z</time>
      </trkpt>
      <trkpt lat="42.080555" lon="1.073918">
        <ele>768.497</ele>
        <time>2021-06-20T13:01:59Z</time>
      </trkpt>
      <trkpt lat="42.080314" lon="1.074138">
        <ele>768.621</ele>
        <time>2021-06-20T13:02:06Z</time>
      </trkpt>
      <trkpt lat="42.080271" lon="1.074158">
        <ele>768.842</ele>
        <time>2021-06-20T13:02:07Z</time>
      </trkpt>
      <trkpt lat="42.080138" lon="1.074181">
        <ele>768.862</ele>
        <time>2021-06-20T13:02:10Z</time>
      </trkpt>
      <trkpt lat="42.080095" lon="1.074178">
        <ele>768.810</ele>
        <time>2021-06-20T13:02:11Z</time>
      </trkpt>
      <trkpt lat="42.080053" lon="1.074170">
        <ele>768.836</ele>
        <time>2021-06-20T13:02:12Z</time>
      </trkpt>
      <trkpt lat="42.079839" lon="1.074144">
        <ele>768.617</ele>
        <time>2021-06-20T13:02:17Z</time>
      </trkpt>
      <trkpt lat="42.079750" lon="1.074157">
        <ele>768.618</ele>
        <time>2021-06-20T13:02:19Z</time>
      </trkpt>
      <trkpt lat="42.079607" lon="1.074194">
        <ele>768.408</ele>
        <time>2021-06-20T13:02:22Z</time>
      </trkpt>
      <trkpt lat="42.079513" lon="1.074215">
        <ele>768.460</ele>
        <time>2021-06-20T13:02:24Z</time>
      </trkpt>
      <trkpt lat="42.079346" lon="1.074218">
        <ele>767.869</ele>
        <time>2021-06-20T13:02:28Z</time>
      </trkpt>
      <trkpt lat="42.079046" lon="1.074195">
        <ele>768.026</ele>
        <time>2021-06-20T13:02:36Z</time>
      </trkpt>
      <trkpt lat="42.078748" lon="1.074212">
        <ele>768.828</ele>
        <time>2021-06-20T13:02:44Z</time>
      </trkpt>
      <trkpt lat="42.078396" lon="1.074217">
        <ele>768.822</ele>
        <time>2021-06-20T13:02:54Z</time>
      </trkpt>
      <trkpt lat="42.078193" lon="1.074189">
        <ele>769.213</ele>
        <time>2021-06-20T13:03:01Z</time>
      </trkpt>
      <trkpt lat="42.078067" lon="1.074169">
        <ele>770.293</ele>
        <time>2021-06-20T13:03:05Z</time>
      </trkpt>
      <trkpt lat="42.077919" lon="1.074156">
        <ele>770.871</ele>
        <time>2021-06-20T13:03:09Z</time>
      </trkpt>
      <trkpt lat="42.077756" lon="1.074066">
        <ele>770.816</ele>
        <time>2021-06-20T13:03:13Z</time>
      </trkpt>
      <trkpt lat="42.077715" lon="1.074016">
        <ele>770.876</ele>
        <time>2021-06-20T13:03:14Z</time>
      </trkpt>
      <trkpt lat="42.077531" lon="1.073766">
        <ele>770.613</ele>
        <time>2021-06-20T13:03:18Z</time>
      </trkpt>
      <trkpt lat="42.077376" lon="1.073570">
        <ele>769.008</ele>
        <time>2021-06-20T13:03:21Z</time>
      </trkpt>
      <trkpt lat="42.077262" lon="1.073449">
        <ele>767.648</ele>
        <time>2021-06-20T13:03:23Z</time>
      </trkpt>
      <trkpt lat="42.077202" lon="1.073391">
        <ele>766.817</ele>
        <time>2021-06-20T13:03:24Z</time>
      </trkpt>
      <trkpt lat="42.077143" lon="1.073335">
        <ele>766.254</ele>
        <time>2021-06-20T13:03:25Z</time>
      </trkpt>
      <trkpt lat="42.077022" lon="1.073242">
        <ele>764.876</ele>
        <time>2021-06-20T13:03:27Z</time>
      </trkpt>
      <trkpt lat="42.076905" lon="1.073175">
        <ele>764.250</ele>
        <time>2021-06-20T13:03:29Z</time>
      </trkpt>
      <trkpt lat="42.076791" lon="1.073130">
        <ele>763.821</ele>
        <time>2021-06-20T13:03:31Z</time>
      </trkpt>
      <trkpt lat="42.076576" lon="1.073040">
        <ele>763.681</ele>
        <time>2021-06-20T13:03:35Z</time>
      </trkpt>
      <trkpt lat="42.076095" lon="1.072895">
        <ele>763.039</ele>
        <time>2021-06-20T13:03:43Z</time>
      </trkpt>
      <trkpt lat="42.075979" lon="1.072861">
        <ele>762.448</ele>
        <time>2021-06-20T13:03:45Z</time>
      </trkpt>
      <trkpt lat="42.075761" lon="1.072792">
        <ele>761.061</ele>
        <time>2021-06-20T13:03:49Z</time>
      </trkpt>
      <trkpt lat="42.075711" lon="1.072765">
        <ele>760.817</ele>
        <time>2021-06-20T13:03:50Z</time>
      </trkpt>
      <trkpt lat="42.075608" lon="1.072721">
        <ele>760.608</ele>
        <time>2021-06-20T13:03:52Z</time>
      </trkpt>
      <trkpt lat="42.075509" lon="1.072686">
        <ele>760.481</ele>
        <time>2021-06-20T13:03:54Z</time>
      </trkpt>
      <trkpt lat="42.075465" lon="1.072661">
        <ele>760.230</ele>
        <time>2021-06-20T13:03:55Z</time>
      </trkpt>
      <trkpt lat="42.075383" lon="1.072608">
        <ele>760.017</ele>
        <time>2021-06-20T13:03:57Z</time>
      </trkpt>
      <trkpt lat="42.075344" lon="1.072574">
        <ele>759.839</ele>
        <time>2021-06-20T13:03:58Z</time>
      </trkpt>
      <trkpt lat="42.075274" lon="1.072472">
        <ele>759.483</ele>
        <time>2021-06-20T13:04:00Z</time>
      </trkpt>
      <trkpt lat="42.075209" lon="1.072334">
        <ele>758.854</ele>
        <time>2021-06-20T13:04:02Z</time>
      </trkpt>
      <trkpt lat="42.075176" lon="1.072258">
        <ele>758.814</ele>
        <time>2021-06-20T13:04:03Z</time>
      </trkpt>
      <trkpt lat="42.075107" lon="1.072095">
        <ele>758.652</ele>
        <time>2021-06-20T13:04:05Z</time>
      </trkpt>
      <trkpt lat="42.074914" lon="1.071666">
        <ele>757.479</ele>
        <time>2021-06-20T13:04:10Z</time>
      </trkpt>
      <trkpt lat="42.074836" lon="1.071486">
        <ele>756.205</ele>
        <time>2021-06-20T13:04:12Z</time>
      </trkpt>
      <trkpt lat="42.074742" lon="1.071305">
        <ele>754.425</ele>
        <time>2021-06-20T13:04:14Z</time>
      </trkpt>
      <trkpt lat="42.074634" lon="1.071124">
        <ele>753.008</ele>
        <time>2021-06-20T13:04:16Z</time>
      </trkpt>
      <trkpt lat="42.074580" lon="1.071032">
        <ele>752.614</ele>
        <time>2021-06-20T13:04:17Z</time>
      </trkpt>
      <trkpt lat="42.074406" lon="1.070766">
        <ele>751.463</ele>
        <time>2021-06-20T13:04:20Z</time>
      </trkpt>
      <trkpt lat="42.074345" lon="1.070688">
        <ele>750.890</ele>
        <time>2021-06-20T13:04:21Z</time>
      </trkpt>
      <trkpt lat="42.074278" lon="1.070622">
        <ele>750.492</ele>
        <time>2021-06-20T13:04:22Z</time>
      </trkpt>
      <trkpt lat="42.074118" lon="1.070539">
        <ele>748.846</ele>
        <time>2021-06-20T13:04:24Z</time>
      </trkpt>
      <trkpt lat="42.074031" lon="1.070516">
        <ele>748.247</ele>
        <time>2021-06-20T13:04:25Z</time>
      </trkpt>
      <trkpt lat="42.073943" lon="1.070500">
        <ele>747.467</ele>
        <time>2021-06-20T13:04:26Z</time>
      </trkpt>
      <trkpt lat="42.073763" lon="1.070491">
        <ele>746.045</ele>
        <time>2021-06-20T13:04:28Z</time>
      </trkpt>
      <trkpt lat="42.073585" lon="1.070486">
        <ele>744.864</ele>
        <time>2021-06-20T13:04:30Z</time>
      </trkpt>
      <trkpt lat="42.073496" lon="1.070492">
        <ele>743.806</ele>
        <time>2021-06-20T13:04:31Z</time>
      </trkpt>
      <trkpt lat="42.073410" lon="1.070514">
        <ele>743.016</ele>
        <time>2021-06-20T13:04:32Z</time>
      </trkpt>
      <trkpt lat="42.073326" lon="1.070551">
        <ele>742.008</ele>
        <time>2021-06-20T13:04:33Z</time>
      </trkpt>
      <trkpt lat="42.073246" lon="1.070597">
        <ele>741.483</ele>
        <time>2021-06-20T13:04:34Z</time>
      </trkpt>
      <trkpt lat="42.073169" lon="1.070646">
        <ele>740.432</ele>
        <time>2021-06-20T13:04:35Z</time>
      </trkpt>
      <trkpt lat="42.073021" lon="1.070754">
        <ele>739.219</ele>
        <time>2021-06-20T13:04:37Z</time>
      </trkpt>
      <trkpt lat="42.072878" lon="1.070874">
        <ele>738.231</ele>
        <time>2021-06-20T13:04:39Z</time>
      </trkpt>
      <trkpt lat="42.072745" lon="1.071030">
        <ele>737.415</ele>
        <time>2021-06-20T13:04:41Z</time>
      </trkpt>
      <trkpt lat="42.072626" lon="1.071229">
        <ele>737.046</ele>
        <time>2021-06-20T13:04:43Z</time>
      </trkpt>
      <trkpt lat="42.072560" lon="1.071322">
        <ele>736.886</ele>
        <time>2021-06-20T13:04:44Z</time>
      </trkpt>
      <trkpt lat="42.072415" lon="1.071461">
        <ele>736.654</ele>
        <time>2021-06-20T13:04:46Z</time>
      </trkpt>
      <trkpt lat="42.072212" lon="1.071507">
        <ele>735.621</ele>
        <time>2021-06-20T13:04:49Z</time>
      </trkpt>
      <trkpt lat="42.072073" lon="1.071522">
        <ele>735.441</ele>
        <time>2021-06-20T13:04:52Z</time>
      </trkpt>
      <trkpt lat="42.072036" lon="1.071532">
        <ele>735.405</ele>
        <time>2021-06-20T13:04:53Z</time>
      </trkpt>
      <trkpt lat="42.071908" lon="1.071644">
        <ele>735.608</ele>
        <time>2021-06-20T13:04:58Z</time>
      </trkpt>
      <trkpt lat="42.071854" lon="1.071733">
        <ele>736.459</ele>
        <time>2021-06-20T13:05:01Z</time>
      </trkpt>
      <trkpt lat="42.071823" lon="1.071768">
        <ele>737.628</ele>
        <time>2021-06-20T13:05:03Z</time>
      </trkpt>
      <trkpt lat="42.071810" lon="1.071779">
        <ele>737.855</ele>
        <time>2021-06-20T13:05:04Z</time>
      </trkpt>
      <trkpt lat="42.071789" lon="1.071797">
        <ele>738.497</ele>
        <time>2021-06-20T13:05:08Z</time>
      </trkpt>
      <trkpt lat="42.071765" lon="1.071812">
        <ele>738.491</ele>
        <time>2021-06-20T13:06:27Z</time>
      </trkpt>
      <trkpt lat="42.071666" lon="1.071926">
        <ele>738.262</ele>
        <time>2021-06-20T13:06:32Z</time>
      </trkpt>
      <trkpt lat="42.071552" lon="1.072066">
        <ele>738.012</ele>
        <time>2021-06-20T13:06:36Z</time>
      </trkpt>
      <trkpt lat="42.071510" lon="1.072093">
        <ele>738.070</ele>
        <time>2021-06-20T13:06:37Z</time>
      </trkpt>
      <trkpt lat="42.071414" lon="1.072130">
        <ele>737.847</ele>
        <time>2021-06-20T13:06:39Z</time>
      </trkpt>
      <trkpt lat="42.071320" lon="1.072098">
        <ele>737.229</ele>
        <time>2021-06-20T13:06:41Z</time>
      </trkpt>
      <trkpt lat="42.071282" lon="1.072050">
        <ele>736.821</ele>
        <time>2021-06-20T13:06:42Z</time>
      </trkpt>
      <trkpt lat="42.071234" lon="1.071936">
        <ele>736.208</ele>
        <time>2021-06-20T13:06:44Z</time>
      </trkpt>
      <trkpt lat="42.071213" lon="1.071806">
        <ele>735.681</ele>
        <time>2021-06-20T13:06:46Z</time>
      </trkpt>
      <trkpt lat="42.071202" lon="1.071743">
        <ele>735.280</ele>
        <time>2021-06-20T13:06:47Z</time>
      </trkpt>
      <trkpt lat="42.071172" lon="1.071619">
        <ele>734.277</ele>
        <time>2021-06-20T13:06:49Z</time>
      </trkpt>
      <trkpt lat="42.071154" lon="1.071559">
        <ele>734.079</ele>
        <time>2021-06-20T13:06:50Z</time>
      </trkpt>
      <trkpt lat="42.071087" lon="1.071351">
        <ele>733.493</ele>
        <time>2021-06-20T13:06:54Z</time>
      </trkpt>
      <trkpt lat="42.071022" lon="1.071285">
        <ele>733.244</ele>
        <time>2021-06-20T13:06:56Z</time>
      </trkpt>
      <trkpt lat="42.070949" lon="1.071244">
        <ele>733.224</ele>
        <time>2021-06-20T13:06:58Z</time>
      </trkpt>
      <trkpt lat="42.070796" lon="1.071232">
        <ele>733.022</ele>
        <time>2021-06-20T13:07:02Z</time>
      </trkpt>
      <trkpt lat="42.070757" lon="1.071235">
        <ele>733.254</ele>
        <time>2021-06-20T13:07:03Z</time>
      </trkpt>
      <trkpt lat="42.070491" lon="1.071219">
        <ele>733.056</ele>
        <time>2021-06-20T13:07:09Z</time>
      </trkpt>
      <trkpt lat="42.070040" lon="1.071135">
        <ele>732.211</ele>
        <time>2021-06-20T13:07:18Z</time>
      </trkpt>
      <trkpt lat="42.069894" lon="1.071096">
        <ele>731.808</ele>
        <time>2021-06-20T13:07:21Z</time>
      </trkpt>
      <trkpt lat="42.069848" lon="1.071070">
        <ele>731.822</ele>
        <time>2021-06-20T13:07:22Z</time>
      </trkpt>
      <trkpt lat="42.069802" lon="1.071038">
        <ele>731.611</ele>
        <time>2021-06-20T13:07:23Z</time>
      </trkpt>
      <trkpt lat="42.069633" lon="1.070849">
        <ele>731.258</ele>
        <time>2021-06-20T13:07:27Z</time>
      </trkpt>
      <trkpt lat="42.069591" lon="1.070794">
        <ele>731.260</ele>
        <time>2021-06-20T13:07:28Z</time>
      </trkpt>
      <trkpt lat="42.069372" lon="1.070540">
        <ele>730.694</ele>
        <time>2021-06-20T13:07:33Z</time>
      </trkpt>
      <trkpt lat="42.069275" lon="1.070455">
        <ele>730.285</ele>
        <time>2021-06-20T13:07:35Z</time>
      </trkpt>
      <trkpt lat="42.069125" lon="1.070330">
        <ele>729.465</ele>
        <time>2021-06-20T13:07:38Z</time>
      </trkpt>
      <trkpt lat="42.069020" lon="1.070254">
        <ele>729.273</ele>
        <time>2021-06-20T13:07:40Z</time>
      </trkpt>
      <trkpt lat="42.068907" lon="1.070202">
        <ele>728.674</ele>
        <time>2021-06-20T13:07:42Z</time>
      </trkpt>
      <trkpt lat="42.068789" lon="1.070161">
        <ele>728.056</ele>
        <time>2021-06-20T13:07:44Z</time>
      </trkpt>
      <trkpt lat="42.068492" lon="1.070100">
        <ele>727.421</ele>
        <time>2021-06-20T13:07:49Z</time>
      </trkpt>
      <trkpt lat="42.068260" lon="1.070042">
        <ele>727.008</ele>
        <time>2021-06-20T13:07:53Z</time>
      </trkpt>
      <trkpt lat="42.068100" lon="1.070004">
        <ele>726.244</ele>
        <time>2021-06-20T13:07:56Z</time>
      </trkpt>
      <trkpt lat="42.068045" lon="1.069996">
        <ele>725.823</ele>
        <time>2021-06-20T13:07:57Z</time>
      </trkpt>
      <trkpt lat="42.067882" lon="1.069998">
        <ele>725.270</ele>
        <time>2021-06-20T13:08:00Z</time>
      </trkpt>
      <trkpt lat="42.067829" lon="1.070021">
        <ele>725.222</ele>
        <time>2021-06-20T13:08:01Z</time>
      </trkpt>
      <trkpt lat="42.067634" lon="1.070194">
        <ele>725.286</ele>
        <time>2021-06-20T13:08:05Z</time>
      </trkpt>
      <trkpt lat="42.067592" lon="1.070259">
        <ele>725.087</ele>
        <time>2021-06-20T13:08:06Z</time>
      </trkpt>
      <trkpt lat="42.067413" lon="1.070570">
        <ele>724.897</ele>
        <time>2021-06-20T13:08:10Z</time>
      </trkpt>
      <trkpt lat="42.067320" lon="1.070757">
        <ele>724.615</ele>
        <time>2021-06-20T13:08:12Z</time>
      </trkpt>
      <trkpt lat="42.067159" lon="1.071036">
        <ele>723.474</ele>
        <time>2021-06-20T13:08:15Z</time>
      </trkpt>
      <trkpt lat="42.067065" lon="1.071241">
        <ele>721.856</ele>
        <time>2021-06-20T13:08:17Z</time>
      </trkpt>
      <trkpt lat="42.066993" lon="1.071466">
        <ele>719.421</ele>
        <time>2021-06-20T13:08:19Z</time>
      </trkpt>
      <trkpt lat="42.066911" lon="1.071685">
        <ele>717.808</ele>
        <time>2021-06-20T13:08:21Z</time>
      </trkpt>
      <trkpt lat="42.066851" lon="1.071777">
        <ele>717.224</ele>
        <time>2021-06-20T13:08:22Z</time>
      </trkpt>
      <trkpt lat="42.066783" lon="1.071855">
        <ele>716.653</ele>
        <time>2021-06-20T13:08:23Z</time>
      </trkpt>
      <trkpt lat="42.066634" lon="1.071965">
        <ele>715.440</ele>
        <time>2021-06-20T13:08:25Z</time>
      </trkpt>
      <trkpt lat="42.066478" lon="1.072019">
        <ele>713.662</ele>
        <time>2021-06-20T13:08:27Z</time>
      </trkpt>
      <trkpt lat="42.066321" lon="1.072026">
        <ele>712.816</ele>
        <time>2021-06-20T13:08:29Z</time>
      </trkpt>
      <trkpt lat="42.066249" lon="1.072002">
        <ele>712.677</ele>
        <time>2021-06-20T13:08:30Z</time>
      </trkpt>
      <trkpt lat="42.066141" lon="1.071883">
        <ele>712.287</ele>
        <time>2021-06-20T13:08:32Z</time>
      </trkpt>
      <trkpt lat="42.066117" lon="1.071688">
        <ele>711.875</ele>
        <time>2021-06-20T13:08:34Z</time>
      </trkpt>
      <trkpt lat="42.066145" lon="1.071473">
        <ele>711.673</ele>
        <time>2021-06-20T13:08:36Z</time>
      </trkpt>
      <trkpt lat="42.066159" lon="1.071357">
        <ele>711.485</ele>
        <time>2021-06-20T13:08:37Z</time>
      </trkpt>
      <trkpt lat="42.066167" lon="1.071238">
        <ele>711.413</ele>
        <time>2021-06-20T13:08:38Z</time>
      </trkpt>
      <trkpt lat="42.066170" lon="1.071124">
        <ele>711.208</ele>
        <time>2021-06-20T13:08:39Z</time>
      </trkpt>
      <trkpt lat="42.066147" lon="1.070778">
        <ele>710.414</ele>
        <time>2021-06-20T13:08:42Z</time>
      </trkpt>
      <trkpt lat="42.066144" lon="1.070668">
        <ele>710.043</ele>
        <time>2021-06-20T13:08:43Z</time>
      </trkpt>
      <trkpt lat="42.066143" lon="1.070564">
        <ele>709.250</ele>
        <time>2021-06-20T13:08:44Z</time>
      </trkpt>
      <trkpt lat="42.066139" lon="1.070462">
        <ele>708.272</ele>
        <time>2021-06-20T13:08:45Z</time>
      </trkpt>
      <trkpt lat="42.066122" lon="1.070364">
        <ele>707.216</ele>
        <time>2021-06-20T13:08:46Z</time>
      </trkpt>
      <trkpt lat="42.066093" lon="1.070275">
        <ele>705.887</ele>
        <time>2021-06-20T13:08:47Z</time>
      </trkpt>
      <trkpt lat="42.066006" lon="1.070120">
        <ele>705.257</ele>
        <time>2021-06-20T13:08:49Z</time>
      </trkpt>
      <trkpt lat="42.065914" lon="1.069981">
        <ele>705.035</ele>
        <time>2021-06-20T13:08:51Z</time>
      </trkpt>
      <trkpt lat="42.065741" lon="1.069850">
        <ele>705.016</ele>
        <time>2021-06-20T13:08:55Z</time>
      </trkpt>
      <trkpt lat="42.065649" lon="1.069805">
        <ele>705.076</ele>
        <time>2021-06-20T13:08:57Z</time>
      </trkpt>
      <trkpt lat="42.065434" lon="1.069754">
        <ele>705.413</ele>
        <time>2021-06-20T13:09:01Z</time>
      </trkpt>
      <trkpt lat="42.065189" lon="1.069747">
        <ele>706.008</ele>
        <time>2021-06-20T13:09:05Z</time>
      </trkpt>
      <trkpt lat="42.065063" lon="1.069792">
        <ele>706.058</ele>
        <time>2021-06-20T13:09:07Z</time>
      </trkpt>
      <trkpt lat="42.064823" lon="1.069975">
        <ele>706.097</ele>
        <time>2021-06-20T13:09:11Z</time>
      </trkpt>
      <trkpt lat="42.064766" lon="1.070036">
        <ele>705.864</ele>
        <time>2021-06-20T13:09:12Z</time>
      </trkpt>
      <trkpt lat="42.064469" lon="1.070411">
        <ele>704.286</ele>
        <time>2021-06-20T13:09:18Z</time>
      </trkpt>
      <trkpt lat="42.064376" lon="1.070525">
        <ele>703.250</ele>
        <time>2021-06-20T13:09:20Z</time>
      </trkpt>
      <trkpt lat="42.064149" lon="1.070787">
        <ele>702.471</ele>
        <time>2021-06-20T13:09:25Z</time>
      </trkpt>
      <trkpt lat="42.063800" lon="1.071141">
        <ele>702.221</ele>
        <time>2021-06-20T13:09:33Z</time>
      </trkpt>
      <trkpt lat="42.063630" lon="1.071223">
        <ele>702.249</ele>
        <time>2021-06-20T13:09:36Z</time>
      </trkpt>
      <trkpt lat="42.063505" lon="1.071250">
        <ele>702.263</ele>
        <time>2021-06-20T13:09:38Z</time>
      </trkpt>
      <trkpt lat="42.063332" lon="1.071300">
        <ele>702.044</ele>
        <time>2021-06-20T13:09:41Z</time>
      </trkpt>
      <trkpt lat="42.063225" lon="1.071340">
        <ele>701.218</ele>
        <time>2021-06-20T13:09:43Z</time>
      </trkpt>
      <trkpt lat="42.063118" lon="1.071391">
        <ele>700.808</ele>
        <time>2021-06-20T13:09:45Z</time>
      </trkpt>
      <trkpt lat="42.062732" lon="1.071579">
        <ele>700.053</ele>
        <time>2021-06-20T13:09:52Z</time>
      </trkpt>
      <trkpt lat="42.062502" lon="1.071669">
        <ele>699.892</ele>
        <time>2021-06-20T13:09:56Z</time>
      </trkpt>
      <trkpt lat="42.062334" lon="1.071724">
        <ele>699.259</ele>
        <time>2021-06-20T13:09:59Z</time>
      </trkpt>
      <trkpt lat="42.062219" lon="1.071760">
        <ele>698.671</ele>
        <time>2021-06-20T13:10:01Z</time>
      </trkpt>
      <trkpt lat="42.062159" lon="1.071772">
        <ele>698.455</ele>
        <time>2021-06-20T13:10:02Z</time>
      </trkpt>
      <trkpt lat="42.062034" lon="1.071743">
        <ele>698.066</ele>
        <time>2021-06-20T13:10:04Z</time>
      </trkpt>
      <trkpt lat="42.061866" lon="1.071587">
        <ele>697.696</ele>
        <time>2021-06-20T13:10:07Z</time>
      </trkpt>
      <trkpt lat="42.061826" lon="1.071517">
        <ele>697.284</ele>
        <time>2021-06-20T13:10:08Z</time>
      </trkpt>
      <trkpt lat="42.061791" lon="1.071447">
        <ele>696.882</ele>
        <time>2021-06-20T13:10:09Z</time>
      </trkpt>
      <trkpt lat="42.061735" lon="1.071309">
        <ele>696.043</ele>
        <time>2021-06-20T13:10:11Z</time>
      </trkpt>
      <trkpt lat="42.061675" lon="1.071112">
        <ele>695.817</ele>
        <time>2021-06-20T13:10:14Z</time>
      </trkpt>
      <trkpt lat="42.061627" lon="1.070998">
        <ele>695.808</ele>
        <time>2021-06-20T13:10:16Z</time>
      </trkpt>
      <trkpt lat="42.061582" lon="1.070887">
        <ele>695.855</ele>
        <time>2021-06-20T13:10:18Z</time>
      </trkpt>
      <trkpt lat="42.061465" lon="1.070621">
        <ele>696.454</ele>
        <time>2021-06-20T13:10:23Z</time>
      </trkpt>
      <trkpt lat="42.061441" lon="1.070568">
        <ele>696.871</ele>
        <time>2021-06-20T13:10:24Z</time>
      </trkpt>
      <trkpt lat="42.061421" lon="1.070515">
        <ele>697.213</ele>
        <time>2021-06-20T13:10:25Z</time>
      </trkpt>
      <trkpt lat="42.061386" lon="1.070412">
        <ele>697.417</ele>
        <time>2021-06-20T13:10:27Z</time>
      </trkpt>
      <trkpt lat="42.061358" lon="1.070315">
        <ele>697.848</ele>
        <time>2021-06-20T13:10:29Z</time>
      </trkpt>
      <trkpt lat="42.061288" lon="1.070031">
        <ele>698.058</ele>
        <time>2021-06-20T13:10:35Z</time>
      </trkpt>
      <trkpt lat="42.061252" lon="1.069902">
        <ele>699.086</ele>
        <time>2021-06-20T13:10:38Z</time>
      </trkpt>
      <trkpt lat="42.061237" lon="1.069860">
        <ele>699.265</ele>
        <time>2021-06-20T13:10:39Z</time>
      </trkpt>
      <trkpt lat="42.061116" lon="1.069573">
        <ele>700.068</ele>
        <time>2021-06-20T13:10:46Z</time>
      </trkpt>
      <trkpt lat="42.061096" lon="1.069536">
        <ele>700.014</ele>
        <time>2021-06-20T13:10:47Z</time>
      </trkpt>
      <trkpt lat="42.060903" lon="1.069211">
        <ele>700.408</ele>
        <time>2021-06-20T13:10:56Z</time>
      </trkpt>
      <trkpt lat="42.060792" lon="1.068978">
        <ele>701.023</ele>
        <time>2021-06-20T13:11:02Z</time>
      </trkpt>
      <trkpt lat="42.060726" lon="1.068871">
        <ele>701.472</ele>
        <time>2021-06-20T13:11:05Z</time>
      </trkpt>
      <trkpt lat="42.060521" lon="1.068581">
        <ele>701.869</ele>
        <time>2021-06-20T13:11:12Z</time>
      </trkpt>
      <trkpt lat="42.060272" lon="1.068174">
        <ele>701.241</ele>
        <time>2021-06-20T13:11:19Z</time>
      </trkpt>
      <trkpt lat="42.060119" lon="1.067915">
        <ele>699.825</ele>
        <time>2021-06-20T13:11:23Z</time>
      </trkpt>
      <trkpt lat="42.059903" lon="1.067596">
        <ele>698.826</ele>
        <time>2021-06-20T13:11:28Z</time>
      </trkpt>
      <trkpt lat="42.059804" lon="1.067476">
        <ele>698.616</ele>
        <time>2021-06-20T13:11:30Z</time>
      </trkpt>
      <trkpt lat="42.059565" lon="1.067229">
        <ele>697.014</ele>
        <time>2021-06-20T13:11:34Z</time>
      </trkpt>
      <trkpt lat="42.059430" lon="1.067078">
        <ele>695.822</ele>
        <time>2021-06-20T13:11:36Z</time>
      </trkpt>
      <trkpt lat="42.059153" lon="1.066753">
        <ele>693.862</ele>
        <time>2021-06-20T13:11:40Z</time>
      </trkpt>
      <trkpt lat="42.059084" lon="1.066674">
        <ele>692.408</ele>
        <time>2021-06-20T13:11:41Z</time>
      </trkpt>
      <trkpt lat="42.059016" lon="1.066595">
        <ele>691.208</ele>
        <time>2021-06-20T13:11:42Z</time>
      </trkpt>
      <trkpt lat="42.058948" lon="1.066520">
        <ele>690.069</ele>
        <time>2021-06-20T13:11:43Z</time>
      </trkpt>
      <trkpt lat="42.058877" lon="1.066458">
        <ele>689.058</ele>
        <time>2021-06-20T13:11:44Z</time>
      </trkpt>
      <trkpt lat="42.058805" lon="1.066413">
        <ele>688.285</ele>
        <time>2021-06-20T13:11:45Z</time>
      </trkpt>
      <trkpt lat="42.058501" lon="1.066249">
        <ele>687.437</ele>
        <time>2021-06-20T13:11:50Z</time>
      </trkpt>
      <trkpt lat="42.058384" lon="1.066192">
        <ele>687.231</ele>
        <time>2021-06-20T13:11:52Z</time>
      </trkpt>
      <trkpt lat="42.058129" lon="1.066054">
        <ele>686.692</ele>
        <time>2021-06-20T13:11:56Z</time>
      </trkpt>
      <trkpt lat="42.057762" lon="1.065766">
        <ele>686.212</ele>
        <time>2021-06-20T13:12:02Z</time>
      </trkpt>
      <trkpt lat="42.057398" lon="1.065450">
        <ele>685.060</ele>
        <time>2021-06-20T13:12:08Z</time>
      </trkpt>
      <trkpt lat="42.057326" lon="1.065424">
        <ele>685.024</ele>
        <time>2021-06-20T13:12:09Z</time>
      </trkpt>
      <trkpt lat="42.057005" lon="1.065427">
        <ele>684.004</ele>
        <time>2021-06-20T13:12:13Z</time>
      </trkpt>
      <trkpt lat="42.056919" lon="1.065433">
        <ele>683.814</ele>
        <time>2021-06-20T13:12:14Z</time>
      </trkpt>
      <trkpt lat="42.056667" lon="1.065427">
        <ele>682.608</ele>
        <time>2021-06-20T13:12:17Z</time>
      </trkpt>
      <trkpt lat="42.056603" lon="1.065386">
        <ele>682.019</ele>
        <time>2021-06-20T13:12:18Z</time>
      </trkpt>
      <trkpt lat="42.056561" lon="1.065321">
        <ele>681.438</ele>
        <time>2021-06-20T13:12:19Z</time>
      </trkpt>
      <trkpt lat="42.056543" lon="1.065243">
        <ele>681.075</ele>
        <time>2021-06-20T13:12:20Z</time>
      </trkpt>
      <trkpt lat="42.056555" lon="1.065119">
        <ele>680.477</ele>
        <time>2021-06-20T13:12:22Z</time>
      </trkpt>
      <trkpt lat="42.056564" lon="1.065075">
        <ele>680.241</ele>
        <time>2021-06-20T13:12:23Z</time>
      </trkpt>
      <trkpt lat="42.056587" lon="1.064958">
        <ele>680.232</ele>
        <time>2021-06-20T13:12:28Z</time>
      </trkpt>
      <trkpt lat="42.056641" lon="1.064861">
        <ele>682.622</ele>
        <time>2021-06-20T13:12:34Z</time>
      </trkpt>
      <trkpt lat="42.056649" lon="1.064843">
        <ele>683.240</ele>
        <time>2021-06-20T13:12:35Z</time>
      </trkpt>
      <trkpt lat="42.056660" lon="1.064809">
        <ele>683.861</ele>
        <time>2021-06-20T13:12:37Z</time>
      </trkpt>
      <trkpt lat="42.056662" lon="1.064772">
        <ele>685.221</ele>
        <time>2021-06-20T13:12:39Z</time>
      </trkpt>
      <trkpt lat="42.056664" lon="1.064731">
        <ele>685.413</ele>
        <time>2021-06-20T13:12:41Z</time>
      </trkpt>
      <trkpt lat="42.056656" lon="1.064610">
        <ele>686.008</ele>
        <time>2021-06-20T13:12:47Z</time>
      </trkpt>
      <trkpt lat="42.056649" lon="1.064589">
        <ele>686.293</ele>
        <time>2021-06-20T13:12:48Z</time>
      </trkpt>
      <trkpt lat="42.056603" lon="1.064479">
        <ele>687.232</ele>
        <time>2021-06-20T13:12:54Z</time>
      </trkpt>
      <trkpt lat="42.056575" lon="1.064426">
        <ele>687.659</ele>
        <time>2021-06-20T13:12:57Z</time>
      </trkpt>
      <trkpt lat="42.056536" lon="1.064286">
        <ele>688.241</ele>
        <time>2021-06-20T13:13:03Z</time>
      </trkpt>
      <trkpt lat="42.056528" lon="1.064261">
        <ele>688.235</ele>
        <time>2021-06-20T13:13:04Z</time>
      </trkpt>
      <trkpt lat="42.056516" lon="1.064094">
        <ele>688.436</ele>
        <time>2021-06-20T13:13:09Z</time>
      </trkpt>
      <trkpt lat="42.056576" lon="1.063844">
        <ele>688.296</ele>
        <time>2021-06-20T13:13:15Z</time>
      </trkpt>
      <trkpt lat="42.056722" lon="1.063434">
        <ele>687.884</ele>
        <time>2021-06-20T13:13:24Z</time>
      </trkpt>
      <trkpt lat="42.056773" lon="1.063032">
        <ele>687.241</ele>
        <time>2021-06-20T13:13:32Z</time>
      </trkpt>
      <trkpt lat="42.056720" lon="1.062738">
        <ele>687.281</ele>
        <time>2021-06-20T13:13:38Z</time>
      </trkpt>
      <trkpt lat="42.056635" lon="1.062488">
        <ele>687.209</ele>
        <time>2021-06-20T13:13:45Z</time>
      </trkpt>
      <trkpt lat="42.056549" lon="1.062317">
        <ele>688.208</ele>
        <time>2021-06-20T13:13:54Z</time>
      </trkpt>
      <trkpt lat="42.056526" lon="1.062242">
        <ele>688.671</ele>
        <time>2021-06-20T13:13:58Z</time>
      </trkpt>
      <trkpt lat="42.056515" lon="1.062226">
        <ele>688.810</ele>
        <time>2021-06-20T13:13:59Z</time>
      </trkpt>
      <trkpt lat="42.056436" lon="1.062123">
        <ele>689.687</ele>
        <time>2021-06-20T13:14:05Z</time>
      </trkpt>
      <trkpt lat="42.056415" lon="1.062082">
        <ele>690.049</ele>
        <time>2021-06-20T13:14:07Z</time>
      </trkpt>
      <trkpt lat="42.056352" lon="1.061973">
        <ele>690.853</ele>
        <time>2021-06-20T13:14:13Z</time>
      </trkpt>
      <trkpt lat="42.056265" lon="1.061828">
        <ele>692.054</ele>
        <time>2021-06-20T13:14:21Z</time>
      </trkpt>
      <trkpt lat="42.056253" lon="1.061813">
        <ele>692.034</ele>
        <time>2021-06-20T13:14:22Z</time>
      </trkpt>
      <trkpt lat="42.056168" lon="1.061718">
        <ele>693.072</ele>
        <time>2021-06-20T13:14:28Z</time>
      </trkpt>
      <trkpt lat="42.056089" lon="1.061590">
        <ele>694.262</ele>
        <time>2021-06-20T13:14:35Z</time>
      </trkpt>
      <trkpt lat="42.056068" lon="1.061555">
        <ele>694.683</ele>
        <time>2021-06-20T13:14:37Z</time>
      </trkpt>
      <trkpt lat="42.056037" lon="1.061459">
        <ele>695.411</ele>
        <time>2021-06-20T13:14:42Z</time>
      </trkpt>
      <trkpt lat="42.056029" lon="1.061421">
        <ele>695.408</ele>
        <time>2021-06-20T13:14:44Z</time>
      </trkpt>
      <trkpt lat="42.056019" lon="1.061336">
        <ele>696.223</ele>
        <time>2021-06-20T13:14:48Z</time>
      </trkpt>
      <trkpt lat="42.056012" lon="1.061282">
        <ele>697.432</ele>
        <time>2021-06-20T13:14:51Z</time>
      </trkpt>
      <trkpt lat="42.056007" lon="1.061265">
        <ele>697.699</ele>
        <time>2021-06-20T13:14:52Z</time>
      </trkpt>
      <trkpt lat="42.055969" lon="1.061189">
        <ele>698.441</ele>
        <time>2021-06-20T13:14:56Z</time>
      </trkpt>
      <trkpt lat="42.055922" lon="1.061151">
        <ele>698.865</ele>
        <time>2021-06-20T13:14:59Z</time>
      </trkpt>
      <trkpt lat="42.055863" lon="1.061101">
        <ele>699.216</ele>
        <time>2021-06-20T13:15:03Z</time>
      </trkpt>
      <trkpt lat="42.055805" lon="1.061058">
        <ele>700.076</ele>
        <time>2021-06-20T13:15:07Z</time>
      </trkpt>
      <trkpt lat="42.055759" lon="1.061024">
        <ele>700.464</ele>
        <time>2021-06-20T13:15:10Z</time>
      </trkpt>
      <trkpt lat="42.055693" lon="1.060971">
        <ele>701.225</ele>
        <time>2021-06-20T13:15:15Z</time>
      </trkpt>
      <trkpt lat="42.055667" lon="1.060944">
        <ele>701.626</ele>
        <time>2021-06-20T13:15:17Z</time>
      </trkpt>
      <trkpt lat="42.055572" lon="1.060820">
        <ele>702.208</ele>
        <time>2021-06-20T13:15:24Z</time>
      </trkpt>
      <trkpt lat="42.055558" lon="1.060805">
        <ele>702.408</ele>
        <time>2021-06-20T13:15:25Z</time>
      </trkpt>
      <trkpt lat="42.055458" lon="1.060762">
        <ele>703.279</ele>
        <time>2021-06-20T13:15:31Z</time>
      </trkpt>
      <trkpt lat="42.055428" lon="1.060779">
        <ele>703.448</ele>
        <time>2021-06-20T13:15:33Z</time>
      </trkpt>
      <trkpt lat="42.055398" lon="1.060864">
        <ele>704.045</ele>
        <time>2021-06-20T13:15:38Z</time>
      </trkpt>
      <trkpt lat="42.055401" lon="1.060902">
        <ele>704.467</ele>
        <time>2021-06-20T13:15:40Z</time>
      </trkpt>
      <trkpt lat="42.055386" lon="1.060971">
        <ele>705.671</ele>
        <time>2021-06-20T13:15:44Z</time>
      </trkpt>
      <trkpt lat="42.055381" lon="1.060989">
        <ele>705.612</ele>
        <time>2021-06-20T13:15:45Z</time>
      </trkpt>
      <trkpt lat="42.055368" lon="1.061050">
        <ele>706.452</ele>
        <time>2021-06-20T13:15:48Z</time>
      </trkpt>
      <trkpt lat="42.055347" lon="1.061132">
        <ele>707.610</ele>
        <time>2021-06-20T13:15:52Z</time>
      </trkpt>
      <trkpt lat="42.055338" lon="1.061154">
        <ele>707.855</ele>
        <time>2021-06-20T13:15:53Z</time>
      </trkpt>
      <trkpt lat="42.055297" lon="1.061262">
        <ele>708.807</ele>
        <time>2021-06-20T13:15:58Z</time>
      </trkpt>
      <trkpt lat="42.055271" lon="1.061349">
        <ele>709.217</ele>
        <time>2021-06-20T13:16:02Z</time>
      </trkpt>
      <trkpt lat="42.055229" lon="1.061507">
        <ele>709.608</ele>
        <time>2021-06-20T13:16:09Z</time>
      </trkpt>
      <trkpt lat="42.055221" lon="1.061551">
        <ele>709.692</ele>
        <time>2021-06-20T13:16:11Z</time>
      </trkpt>
      <trkpt lat="42.055204" lon="1.061671">
        <ele>710.651</ele>
        <time>2021-06-20T13:16:16Z</time>
      </trkpt>
      <trkpt lat="42.055190" lon="1.061753">
        <ele>710.838</ele>
        <time>2021-06-20T13:16:19Z</time>
      </trkpt>
      <trkpt lat="42.055168" lon="1.062005">
        <ele>711.690</ele>
        <time>2021-06-20T13:16:28Z</time>
      </trkpt>
      <trkpt lat="42.055132" lon="1.062206">
        <ele>712.444</ele>
        <time>2021-06-20T13:16:35Z</time>
      </trkpt>
      <trkpt lat="42.055093" lon="1.062314">
        <ele>712.675</ele>
        <time>2021-06-20T13:16:39Z</time>
      </trkpt>
      <trkpt lat="42.055053" lon="1.062378">
        <ele>712.865</ele>
        <time>2021-06-20T13:16:42Z</time>
      </trkpt>
      <trkpt lat="42.054973" lon="1.062461">
        <ele>713.663</ele>
        <time>2021-06-20T13:16:47Z</time>
      </trkpt>
      <trkpt lat="42.054904" lon="1.062554">
        <ele>714.489</ele>
        <time>2021-06-20T13:16:52Z</time>
      </trkpt>
      <trkpt lat="42.054882" lon="1.062621">
        <ele>714.806</ele>
        <time>2021-06-20T13:16:55Z</time>
      </trkpt>
      <trkpt lat="42.054884" lon="1.062718">
        <ele>715.426</ele>
        <time>2021-06-20T13:16:59Z</time>
      </trkpt>
      <trkpt lat="42.054898" lon="1.062765">
        <ele>715.808</ele>
        <time>2021-06-20T13:17:01Z</time>
      </trkpt>
      <trkpt lat="42.054927" lon="1.062853">
        <ele>716.855</ele>
        <time>2021-06-20T13:17:05Z</time>
      </trkpt>
      <trkpt lat="42.054930" lon="1.062875">
        <ele>717.224</ele>
        <time>2021-06-20T13:17:06Z</time>
      </trkpt>
      <trkpt lat="42.054949" lon="1.062968">
        <ele>718.441</ele>
        <time>2021-06-20T13:17:10Z</time>
      </trkpt>
      <trkpt lat="42.054975" lon="1.063087">
        <ele>719.493</ele>
        <time>2021-06-20T13:17:15Z</time>
      </trkpt>
      <trkpt lat="42.054977" lon="1.063113">
        <ele>719.647</ele>
        <time>2021-06-20T13:17:16Z</time>
      </trkpt>
      <trkpt lat="42.054966" lon="1.063215">
        <ele>720.688</ele>
        <time>2021-06-20T13:17:20Z</time>
      </trkpt>
      <trkpt lat="42.054957" lon="1.063290">
        <ele>721.298</ele>
        <time>2021-06-20T13:17:23Z</time>
      </trkpt>
      <trkpt lat="42.054952" lon="1.063371">
        <ele>722.096</ele>
        <time>2021-06-20T13:17:26Z</time>
      </trkpt>
      <trkpt lat="42.054965" lon="1.063458">
        <ele>722.681</ele>
        <time>2021-06-20T13:17:30Z</time>
      </trkpt>
      <trkpt lat="42.055006" lon="1.063544">
        <ele>723.061</ele>
        <time>2021-06-20T13:17:35Z</time>
      </trkpt>
      <trkpt lat="42.055015" lon="1.063564">
        <ele>723.217</ele>
        <time>2021-06-20T13:17:36Z</time>
      </trkpt>
      <trkpt lat="42.055043" lon="1.063623">
        <ele>724.208</ele>
        <time>2021-06-20T13:17:39Z</time>
      </trkpt>
      <trkpt lat="42.055106" lon="1.063717">
        <ele>725.435</ele>
        <time>2021-06-20T13:17:44Z</time>
      </trkpt>
      <trkpt lat="42.055118" lon="1.063737">
        <ele>725.654</ele>
        <time>2021-06-20T13:17:45Z</time>
      </trkpt>
      <trkpt lat="42.055152" lon="1.063798">
        <ele>726.471</ele>
        <time>2021-06-20T13:17:48Z</time>
      </trkpt>
      <trkpt lat="42.055209" lon="1.063869">
        <ele>727.213</ele>
        <time>2021-06-20T13:17:52Z</time>
      </trkpt>
      <trkpt lat="42.055222" lon="1.063888">
        <ele>727.227</ele>
        <time>2021-06-20T13:17:53Z</time>
      </trkpt>
      <trkpt lat="42.055277" lon="1.063968">
        <ele>728.248</ele>
        <time>2021-06-20T13:17:58Z</time>
      </trkpt>
      <trkpt lat="42.055304" lon="1.064009">
        <ele>728.698</ele>
        <time>2021-06-20T13:18:00Z</time>
      </trkpt>
      <trkpt lat="42.055365" lon="1.064117">
        <ele>729.456</ele>
        <time>2021-06-20T13:18:05Z</time>
      </trkpt>
      <trkpt lat="42.055410" lon="1.064207">
        <ele>729.839</ele>
        <time>2021-06-20T13:18:09Z</time>
      </trkpt>
      <trkpt lat="42.055440" lon="1.064360">
        <ele>730.401</ele>
        <time>2021-06-20T13:18:15Z</time>
      </trkpt>
      <trkpt lat="42.055439" lon="1.064386">
        <ele>730.621</ele>
        <time>2021-06-20T13:18:16Z</time>
      </trkpt>
      <trkpt lat="42.055382" lon="1.064469">
        <ele>731.008</ele>
        <time>2021-06-20T13:18:21Z</time>
      </trkpt>
      <trkpt lat="42.055231" lon="1.064542">
        <ele>731.290</ele>
        <time>2021-06-20T13:18:29Z</time>
      </trkpt>
      <trkpt lat="42.055144" lon="1.064591">
        <ele>731.439</ele>
        <time>2021-06-20T13:18:34Z</time>
      </trkpt>
      <trkpt lat="42.055079" lon="1.064644">
        <ele>732.066</ele>
        <time>2021-06-20T13:18:38Z</time>
      </trkpt>
      <trkpt lat="42.055010" lon="1.064672">
        <ele>732.448</ele>
        <time>2021-06-20T13:18:42Z</time>
      </trkpt>
      <trkpt lat="42.054994" lon="1.064669">
        <ele>732.612</ele>
        <time>2021-06-20T13:18:43Z</time>
      </trkpt>
      <trkpt lat="42.054979" lon="1.064663">
        <ele>732.843</ele>
        <time>2021-06-20T13:18:44Z</time>
      </trkpt>
      <trkpt lat="42.054944" lon="1.064666">
        <ele>733.453</ele>
        <time>2021-06-20T13:18:46Z</time>
      </trkpt>
      <trkpt lat="42.054906" lon="1.064665">
        <ele>734.021</ele>
        <time>2021-06-20T13:18:48Z</time>
      </trkpt>
      <trkpt lat="42.054872" lon="1.064667">
        <ele>734.275</ele>
        <time>2021-06-20T13:18:50Z</time>
      </trkpt>
      <trkpt lat="42.054844" lon="1.064657">
        <ele>734.628</ele>
        <time>2021-06-20T13:18:52Z</time>
      </trkpt>
      <trkpt lat="42.054824" lon="1.064639">
        <ele>735.020</ele>
        <time>2021-06-20T13:18:56Z</time>
      </trkpt>
      <trkpt lat="42.054771" lon="1.064620">
        <ele>736.608</ele>
        <time>2021-06-20T13:19:40Z</time>
      </trkpt>
      <trkpt lat="42.054743" lon="1.064582">
        <ele>736.624</ele>
        <time>2021-06-20T13:19:42Z</time>
      </trkpt>
      <trkpt lat="42.054677" lon="1.064423">
        <ele>736.653</ele>
        <time>2021-06-20T13:19:48Z</time>
      </trkpt>
      <trkpt lat="42.054616" lon="1.064224">
        <ele>736.260</ele>
        <time>2021-06-20T13:19:57Z</time>
      </trkpt>
      <trkpt lat="42.054612" lon="1.064081">
        <ele>736.822</ele>
        <time>2021-06-20T13:20:03Z</time>
      </trkpt>
      <trkpt lat="42.054634" lon="1.063986">
        <ele>737.886</ele>
        <time>2021-06-20T13:20:07Z</time>
      </trkpt>
      <trkpt lat="42.054654" lon="1.063923">
        <ele>738.217</ele>
        <time>2021-06-20T13:20:10Z</time>
      </trkpt>
      <trkpt lat="42.054653" lon="1.063899">
        <ele>738.677</ele>
        <time>2021-06-20T13:20:11Z</time>
      </trkpt>
      <trkpt lat="42.054649" lon="1.063873">
        <ele>738.855</ele>
        <time>2021-06-20T13:20:12Z</time>
      </trkpt>
      <trkpt lat="42.054615" lon="1.063775">
        <ele>739.836</ele>
        <time>2021-06-20T13:20:16Z</time>
      </trkpt>
      <trkpt lat="42.054605" lon="1.063739">
        <ele>739.817</ele>
        <time>2021-06-20T13:20:17Z</time>
      </trkpt>
      <trkpt lat="42.054515" lon="1.063587">
        <ele>740.018</ele>
        <time>2021-06-20T13:20:21Z</time>
      </trkpt>
      <trkpt lat="42.054307" lon="1.063422">
        <ele>739.408</ele>
        <time>2021-06-20T13:20:27Z</time>
      </trkpt>
      <trkpt lat="42.054157" lon="1.063329">
        <ele>739.060</ele>
        <time>2021-06-20T13:20:33Z</time>
      </trkpt>
      <trkpt lat="42.054026" lon="1.063217">
        <ele>739.889</ele>
        <time>2021-06-20T13:20:40Z</time>
      </trkpt>
      <trkpt lat="42.053963" lon="1.063168">
        <ele>741.016</ele>
        <time>2021-06-20T13:20:44Z</time>
      </trkpt>
      <trkpt lat="42.053931" lon="1.063146">
        <ele>741.628</ele>
        <time>2021-06-20T13:20:46Z</time>
      </trkpt>
      <trkpt lat="42.053882" lon="1.063111">
        <ele>742.292</ele>
        <time>2021-06-20T13:20:49Z</time>
      </trkpt>
      <trkpt lat="42.053798" lon="1.063035">
        <ele>743.093</ele>
        <time>2021-06-20T13:20:54Z</time>
      </trkpt>
      <trkpt lat="42.053783" lon="1.063015">
        <ele>743.653</ele>
        <time>2021-06-20T13:20:55Z</time>
      </trkpt>
      <trkpt lat="42.053753" lon="1.062976">
        <ele>744.051</ele>
        <time>2021-06-20T13:20:57Z</time>
      </trkpt>
      <trkpt lat="42.053676" lon="1.062833">
        <ele>745.072</ele>
        <time>2021-06-20T13:21:03Z</time>
      </trkpt>
      <trkpt lat="42.053666" lon="1.062807">
        <ele>745.013</ele>
        <time>2021-06-20T13:21:04Z</time>
      </trkpt>
      <trkpt lat="42.053604" lon="1.062678">
        <ele>745.414</ele>
        <time>2021-06-20T13:21:09Z</time>
      </trkpt>
      <trkpt lat="42.053503" lon="1.062494">
        <ele>745.808</ele>
        <time>2021-06-20T13:21:17Z</time>
      </trkpt>
      <trkpt lat="42.053433" lon="1.062398">
        <ele>746.284</ele>
        <time>2021-06-20T13:21:22Z</time>
      </trkpt>
      <trkpt lat="42.053370" lon="1.062319">
        <ele>747.433</ele>
        <time>2021-06-20T13:21:26Z</time>
      </trkpt>
      <trkpt lat="42.053287" lon="1.062221">
        <ele>748.440</ele>
        <time>2021-06-20T13:21:31Z</time>
      </trkpt>
      <trkpt lat="42.053237" lon="1.062157">
        <ele>749.222</ele>
        <time>2021-06-20T13:21:34Z</time>
      </trkpt>
      <trkpt lat="42.053210" lon="1.062113">
        <ele>749.666</ele>
        <time>2021-06-20T13:21:36Z</time>
      </trkpt>
      <trkpt lat="42.053127" lon="1.062010">
        <ele>751.067</ele>
        <time>2021-06-20T13:21:42Z</time>
      </trkpt>
      <trkpt lat="42.053113" lon="1.061995">
        <ele>751.267</ele>
        <time>2021-06-20T13:21:43Z</time>
      </trkpt>
      <trkpt lat="42.053065" lon="1.061927">
        <ele>752.295</ele>
        <time>2021-06-20T13:21:47Z</time>
      </trkpt>
      <trkpt lat="42.053020" lon="1.061832">
        <ele>753.041</ele>
        <time>2021-06-20T13:21:52Z</time>
      </trkpt>
      <trkpt lat="42.053010" lon="1.061797">
        <ele>753.281</ele>
        <time>2021-06-20T13:21:54Z</time>
      </trkpt>
      <trkpt lat="42.053005" lon="1.061700">
        <ele>754.209</ele>
        <time>2021-06-20T13:21:59Z</time>
      </trkpt>
      <trkpt lat="42.053005" lon="1.061678">
        <ele>754.408</ele>
        <time>2021-06-20T13:22:00Z</time>
      </trkpt>
      <trkpt lat="42.053004" lon="1.061557">
        <ele>755.621</ele>
        <time>2021-06-20T13:22:06Z</time>
      </trkpt>
      <trkpt lat="42.053003" lon="1.061538">
        <ele>756.090</ele>
        <time>2021-06-20T13:22:07Z</time>
      </trkpt>
      <trkpt lat="42.053011" lon="1.061450">
        <ele>756.827</ele>
        <time>2021-06-20T13:22:11Z</time>
      </trkpt>
      <trkpt lat="42.053001" lon="1.061392">
        <ele>757.489</ele>
        <time>2021-06-20T13:22:14Z</time>
      </trkpt>
      <trkpt lat="42.052991" lon="1.061350">
        <ele>757.863</ele>
        <time>2021-06-20T13:22:16Z</time>
      </trkpt>
      <trkpt lat="42.052975" lon="1.061242">
        <ele>759.074</ele>
        <time>2021-06-20T13:22:20Z</time>
      </trkpt>
      <trkpt lat="42.052970" lon="1.061216">
        <ele>759.094</ele>
        <time>2021-06-20T13:22:21Z</time>
      </trkpt>
      <trkpt lat="42.052945" lon="1.061058">
        <ele>760.032</ele>
        <time>2021-06-20T13:22:27Z</time>
      </trkpt>
      <trkpt lat="42.052930" lon="1.060986">
        <ele>760.458</ele>
        <time>2021-06-20T13:22:30Z</time>
      </trkpt>
      <trkpt lat="42.052899" lon="1.060792">
        <ele>761.052</ele>
        <time>2021-06-20T13:22:38Z</time>
      </trkpt>
      <trkpt lat="42.052895" lon="1.060769">
        <ele>761.217</ele>
        <time>2021-06-20T13:22:39Z</time>
      </trkpt>
      <trkpt lat="42.052840" lon="1.060569">
        <ele>761.808</ele>
        <time>2021-06-20T13:22:47Z</time>
      </trkpt>
      <trkpt lat="42.052819" lon="1.060509">
        <ele>762.012</ele>
        <time>2021-06-20T13:22:49Z</time>
      </trkpt>
      <trkpt lat="42.052784" lon="1.060365">
        <ele>762.071</ele>
        <time>2021-06-20T13:22:53Z</time>
      </trkpt>
      <trkpt lat="42.052727" lon="1.060115">
        <ele>761.858</ele>
        <time>2021-06-20T13:22:58Z</time>
      </trkpt>
      <trkpt lat="42.052655" lon="1.059778">
        <ele>761.420</ele>
        <time>2021-06-20T13:23:05Z</time>
      </trkpt>
      <trkpt lat="42.052563" lon="1.059470">
        <ele>761.694</ele>
        <time>2021-06-20T13:23:12Z</time>
      </trkpt>
      <trkpt lat="42.052457" lon="1.059198">
        <ele>762.245</ele>
        <time>2021-06-20T13:23:17Z</time>
      </trkpt>
      <trkpt lat="42.052355" lon="1.058934">
        <ele>762.885</ele>
        <time>2021-06-20T13:23:23Z</time>
      </trkpt>
      <trkpt lat="42.052341" lon="1.058903">
        <ele>763.073</ele>
        <time>2021-06-20T13:23:24Z</time>
      </trkpt>
      <trkpt lat="42.052297" lon="1.058794">
        <ele>764.084</ele>
        <time>2021-06-20T13:23:28Z</time>
      </trkpt>
      <trkpt lat="42.052271" lon="1.058713">
        <ele>764.607</ele>
        <time>2021-06-20T13:23:31Z</time>
      </trkpt>
      <trkpt lat="42.052261" lon="1.058688">
        <ele>764.817</ele>
        <time>2021-06-20T13:23:32Z</time>
      </trkpt>
      <trkpt lat="42.052222" lon="1.058538">
        <ele>765.808</ele>
        <time>2021-06-20T13:23:38Z</time>
      </trkpt>
      <trkpt lat="42.052216" lon="1.058512">
        <ele>766.095</ele>
        <time>2021-06-20T13:23:39Z</time>
      </trkpt>
      <trkpt lat="42.052211" lon="1.058415">
        <ele>766.824</ele>
        <time>2021-06-20T13:23:43Z</time>
      </trkpt>
      <trkpt lat="42.052215" lon="1.058367">
        <ele>767.461</ele>
        <time>2021-06-20T13:23:45Z</time>
      </trkpt>
      <trkpt lat="42.052209" lon="1.058319">
        <ele>767.813</ele>
        <time>2021-06-20T13:23:47Z</time>
      </trkpt>
      <trkpt lat="42.052194" lon="1.058226">
        <ele>769.077</ele>
        <time>2021-06-20T13:23:51Z</time>
      </trkpt>
      <trkpt lat="42.052170" lon="1.058136">
        <ele>770.078</ele>
        <time>2021-06-20T13:23:55Z</time>
      </trkpt>
      <trkpt lat="42.052145" lon="1.058026">
        <ele>771.098</ele>
        <time>2021-06-20T13:24:00Z</time>
      </trkpt>
      <trkpt lat="42.052111" lon="1.057913">
        <ele>772.096</ele>
        <time>2021-06-20T13:24:05Z</time>
      </trkpt>
      <trkpt lat="42.052095" lon="1.057871">
        <ele>772.477</ele>
        <time>2021-06-20T13:24:07Z</time>
      </trkpt>
      <trkpt lat="42.052080" lon="1.057801">
        <ele>773.261</ele>
        <time>2021-06-20T13:24:10Z</time>
      </trkpt>
      <trkpt lat="42.052050" lon="1.057716">
        <ele>774.227</ele>
        <time>2021-06-20T13:24:14Z</time>
      </trkpt>
      <trkpt lat="42.052029" lon="1.057636">
        <ele>775.408</ele>
        <time>2021-06-20T13:24:18Z</time>
      </trkpt>
      <trkpt lat="42.052025" lon="1.057556">
        <ele>776.224</ele>
        <time>2021-06-20T13:24:21Z</time>
      </trkpt>
      <trkpt lat="42.052022" lon="1.057505">
        <ele>776.673</ele>
        <time>2021-06-20T13:24:23Z</time>
      </trkpt>
      <trkpt lat="42.052034" lon="1.057382">
        <ele>777.830</ele>
        <time>2021-06-20T13:24:28Z</time>
      </trkpt>
      <trkpt lat="42.052040" lon="1.057358">
        <ele>778.012</ele>
        <time>2021-06-20T13:24:29Z</time>
      </trkpt>
      <trkpt lat="42.052077" lon="1.057244">
        <ele>778.826</ele>
        <time>2021-06-20T13:24:34Z</time>
      </trkpt>
      <trkpt lat="42.052120" lon="1.057160">
        <ele>779.637</ele>
        <time>2021-06-20T13:24:38Z</time>
      </trkpt>
      <trkpt lat="42.052142" lon="1.057117">
        <ele>780.027</ele>
        <time>2021-06-20T13:24:40Z</time>
      </trkpt>
      <trkpt lat="42.052195" lon="1.056981">
        <ele>780.895</ele>
        <time>2021-06-20T13:24:46Z</time>
      </trkpt>
      <trkpt lat="42.052203" lon="1.056958">
        <ele>781.074</ele>
        <time>2021-06-20T13:24:47Z</time>
      </trkpt>
      <trkpt lat="42.052270" lon="1.056777">
        <ele>782.056</ele>
        <time>2021-06-20T13:24:55Z</time>
      </trkpt>
      <trkpt lat="42.052277" lon="1.056755">
        <ele>782.221</ele>
        <time>2021-06-20T13:24:56Z</time>
      </trkpt>
      <trkpt lat="42.052319" lon="1.056625">
        <ele>783.208</ele>
        <time>2021-06-20T13:25:02Z</time>
      </trkpt>
      <trkpt lat="42.052356" lon="1.056470">
        <ele>784.274</ele>
        <time>2021-06-20T13:25:09Z</time>
      </trkpt>
      <trkpt lat="42.052363" lon="1.056448">
        <ele>784.413</ele>
        <time>2021-06-20T13:25:10Z</time>
      </trkpt>
      <trkpt lat="42.052382" lon="1.056350">
        <ele>785.460</ele>
        <time>2021-06-20T13:25:14Z</time>
      </trkpt>
      <trkpt lat="42.052387" lon="1.056257">
        <ele>786.482</ele>
        <time>2021-06-20T13:25:18Z</time>
      </trkpt>
      <trkpt lat="42.052381" lon="1.056236">
        <ele>786.656</ele>
        <time>2021-06-20T13:25:19Z</time>
      </trkpt>
      <trkpt lat="42.052327" lon="1.056186">
        <ele>787.427</ele>
        <time>2021-06-20T13:25:23Z</time>
      </trkpt>
      <trkpt lat="42.052294" lon="1.056190">
        <ele>787.697</ele>
        <time>2021-06-20T13:25:25Z</time>
      </trkpt>
      <trkpt lat="42.052237" lon="1.056231">
        <ele>788.625</ele>
        <time>2021-06-20T13:25:29Z</time>
      </trkpt>
      <trkpt lat="42.052228" lon="1.056250">
        <ele>788.849</ele>
        <time>2021-06-20T13:25:30Z</time>
      </trkpt>
      <trkpt lat="42.052171" lon="1.056340">
        <ele>790.002</ele>
        <time>2021-06-20T13:25:36Z</time>
      </trkpt>
      <trkpt lat="42.052088" lon="1.056356">
        <ele>791.022</ele>
        <time>2021-06-20T13:25:41Z</time>
      </trkpt>
      <trkpt lat="42.052071" lon="1.056349">
        <ele>791.208</ele>
        <time>2021-06-20T13:25:42Z</time>
      </trkpt>
      <trkpt lat="42.052019" lon="1.056281">
        <ele>792.021</ele>
        <time>2021-06-20T13:25:46Z</time>
      </trkpt>
      <trkpt lat="42.052006" lon="1.056239">
        <ele>792.470</ele>
        <time>2021-06-20T13:25:48Z</time>
      </trkpt>
      <trkpt lat="42.051975" lon="1.056133">
        <ele>793.237</ele>
        <time>2021-06-20T13:25:53Z</time>
      </trkpt>
      <trkpt lat="42.051970" lon="1.056071">
        <ele>793.669</ele>
        <time>2021-06-20T13:25:56Z</time>
      </trkpt>
      <trkpt lat="42.051960" lon="1.055987">
        <ele>794.223</ele>
        <time>2021-06-20T13:26:00Z</time>
      </trkpt>
      <trkpt lat="42.051943" lon="1.055928">
        <ele>794.854</ele>
        <time>2021-06-20T13:26:03Z</time>
      </trkpt>
      <trkpt lat="42.051930" lon="1.055864">
        <ele>795.684</ele>
        <time>2021-06-20T13:26:06Z</time>
      </trkpt>
      <trkpt lat="42.051899" lon="1.055739">
        <ele>796.212</ele>
        <time>2021-06-20T13:26:12Z</time>
      </trkpt>
      <trkpt lat="42.051884" lon="1.055671">
        <ele>796.823</ele>
        <time>2021-06-20T13:26:15Z</time>
      </trkpt>
      <trkpt lat="42.051867" lon="1.055612">
        <ele>797.283</ele>
        <time>2021-06-20T13:26:18Z</time>
      </trkpt>
      <trkpt lat="42.051853" lon="1.055553">
        <ele>797.811</ele>
        <time>2021-06-20T13:26:21Z</time>
      </trkpt>
      <trkpt lat="42.051834" lon="1.055456">
        <ele>798.208</ele>
        <time>2021-06-20T13:26:25Z</time>
      </trkpt>
      <trkpt lat="42.051825" lon="1.055380">
        <ele>798.899</ele>
        <time>2021-06-20T13:26:28Z</time>
      </trkpt>
      <trkpt lat="42.051817" lon="1.055241">
        <ele>799.848</ele>
        <time>2021-06-20T13:26:33Z</time>
      </trkpt>
      <trkpt lat="42.051815" lon="1.055213">
        <ele>800.285</ele>
        <time>2021-06-20T13:26:34Z</time>
      </trkpt>
      <trkpt lat="42.051782" lon="1.054983">
        <ele>800.617</ele>
        <time>2021-06-20T13:26:42Z</time>
      </trkpt>
      <trkpt lat="42.051766" lon="1.054920">
        <ele>800.631</ele>
        <time>2021-06-20T13:26:44Z</time>
      </trkpt>
      <trkpt lat="42.051717" lon="1.054742">
        <ele>801.272</ele>
        <time>2021-06-20T13:26:49Z</time>
      </trkpt>
      <trkpt lat="42.051629" lon="1.054522">
        <ele>801.462</ele>
        <time>2021-06-20T13:26:56Z</time>
      </trkpt>
      <trkpt lat="42.051544" lon="1.054351">
        <ele>801.690</ele>
        <time>2021-06-20T13:27:02Z</time>
      </trkpt>
      <trkpt lat="42.051521" lon="1.054281">
        <ele>801.616</ele>
        <time>2021-06-20T13:27:04Z</time>
      </trkpt>
      <trkpt lat="42.051457" lon="1.054070">
        <ele>802.276</ele>
        <time>2021-06-20T13:27:10Z</time>
      </trkpt>
      <trkpt lat="42.051442" lon="1.053901">
        <ele>802.813</ele>
        <time>2021-06-20T13:27:15Z</time>
      </trkpt>
      <trkpt lat="42.051429" lon="1.053834">
        <ele>803.208</ele>
        <time>2021-06-20T13:27:17Z</time>
      </trkpt>
      <trkpt lat="42.051403" lon="1.053713">
        <ele>803.828</ele>
        <time>2021-06-20T13:27:21Z</time>
      </trkpt>
      <trkpt lat="42.051375" lon="1.053619">
        <ele>804.437</ele>
        <time>2021-06-20T13:27:25Z</time>
      </trkpt>
      <trkpt lat="42.051360" lon="1.053565">
        <ele>804.884</ele>
        <time>2021-06-20T13:27:27Z</time>
      </trkpt>
      <trkpt lat="42.051330" lon="1.053470">
        <ele>805.646</ele>
        <time>2021-06-20T13:27:31Z</time>
      </trkpt>
      <trkpt lat="42.051305" lon="1.053429">
        <ele>806.050</ele>
        <time>2021-06-20T13:27:33Z</time>
      </trkpt>
      <trkpt lat="42.051265" lon="1.053375">
        <ele>806.691</ele>
        <time>2021-06-20T13:27:36Z</time>
      </trkpt>
      <trkpt lat="42.051252" lon="1.053358">
        <ele>807.071</ele>
        <time>2021-06-20T13:27:37Z</time>
      </trkpt>
      <trkpt lat="42.051239" lon="1.053342">
        <ele>807.259</ele>
        <time>2021-06-20T13:27:38Z</time>
      </trkpt>
      <trkpt lat="42.051187" lon="1.053225">
        <ele>808.211</ele>
        <time>2021-06-20T13:27:43Z</time>
      </trkpt>
      <trkpt lat="42.051084" lon="1.052987">
        <ele>808.821</ele>
        <time>2021-06-20T13:27:51Z</time>
      </trkpt>
      <trkpt lat="42.051058" lon="1.052894">
        <ele>809.403</ele>
        <time>2021-06-20T13:27:54Z</time>
      </trkpt>
      <trkpt lat="42.051023" lon="1.052767">
        <ele>810.408</ele>
        <time>2021-06-20T13:27:58Z</time>
      </trkpt>
      <trkpt lat="42.051016" lon="1.052733">
        <ele>810.688</ele>
        <time>2021-06-20T13:27:59Z</time>
      </trkpt>
      <trkpt lat="42.050991" lon="1.052558">
        <ele>811.437</ele>
        <time>2021-06-20T13:28:04Z</time>
      </trkpt>
      <trkpt lat="42.050992" lon="1.052523">
        <ele>811.634</ele>
        <time>2021-06-20T13:28:05Z</time>
      </trkpt>
      <trkpt lat="42.051027" lon="1.052323">
        <ele>812.036</ele>
        <time>2021-06-20T13:28:11Z</time>
      </trkpt>
      <trkpt lat="42.051047" lon="1.052223">
        <ele>812.230</ele>
        <time>2021-06-20T13:28:14Z</time>
      </trkpt>
      <trkpt lat="42.051038" lon="1.052152">
        <ele>812.461</ele>
        <time>2021-06-20T13:28:16Z</time>
      </trkpt>
      <trkpt lat="42.050939" lon="1.052020">
        <ele>812.891</ele>
        <time>2021-06-20T13:28:21Z</time>
      </trkpt>
      <trkpt lat="42.050863" lon="1.051966">
        <ele>813.649</ele>
        <time>2021-06-20T13:28:25Z</time>
      </trkpt>
      <trkpt lat="42.050798" lon="1.051910">
        <ele>814.495</ele>
        <time>2021-06-20T13:28:29Z</time>
      </trkpt>
      <trkpt lat="42.050783" lon="1.051899">
        <ele>814.649</ele>
        <time>2021-06-20T13:28:30Z</time>
      </trkpt>
      <trkpt lat="42.050722" lon="1.051849">
        <ele>815.823</ele>
        <time>2021-06-20T13:28:34Z</time>
      </trkpt>
      <trkpt lat="42.050668" lon="1.051779">
        <ele>816.608</ele>
        <time>2021-06-20T13:28:38Z</time>
      </trkpt>
      <trkpt lat="42.050656" lon="1.051763">
        <ele>816.856</ele>
        <time>2021-06-20T13:28:39Z</time>
      </trkpt>
      <trkpt lat="42.050604" lon="1.051672">
        <ele>817.675</ele>
        <time>2021-06-20T13:28:44Z</time>
      </trkpt>
      <trkpt lat="42.050593" lon="1.051651">
        <ele>817.632</ele>
        <time>2021-06-20T13:28:45Z</time>
      </trkpt>
      <trkpt lat="42.050481" lon="1.051489">
        <ele>818.644</ele>
        <time>2021-06-20T13:28:52Z</time>
      </trkpt>
      <trkpt lat="42.050308" lon="1.051351">
        <ele>818.858</ele>
        <time>2021-06-20T13:28:59Z</time>
      </trkpt>
      <trkpt lat="42.050071" lon="1.051244">
        <ele>819.059</ele>
        <time>2021-06-20T13:29:07Z</time>
      </trkpt>
      <trkpt lat="42.049953" lon="1.051080">
        <ele>819.039</ele>
        <time>2021-06-20T13:29:12Z</time>
      </trkpt>
      <trkpt lat="42.049893" lon="1.050881">
        <ele>819.037</ele>
        <time>2021-06-20T13:29:16Z</time>
      </trkpt>
      <trkpt lat="42.049859" lon="1.050776">
        <ele>818.684</ele>
        <time>2021-06-20T13:29:18Z</time>
      </trkpt>
      <trkpt lat="42.049738" lon="1.050415">
        <ele>817.407</ele>
        <time>2021-06-20T13:29:24Z</time>
      </trkpt>
      <trkpt lat="42.049690" lon="1.050299">
        <ele>817.017</ele>
        <time>2021-06-20T13:29:26Z</time>
      </trkpt>
      <trkpt lat="42.049593" lon="1.050129">
        <ele>816.608</ele>
        <time>2021-06-20T13:29:29Z</time>
      </trkpt>
      <trkpt lat="42.049464" lon="1.049913">
        <ele>816.685</ele>
        <time>2021-06-20T13:29:34Z</time>
      </trkpt>
      <trkpt lat="42.049237" lon="1.049657">
        <ele>817.274</ele>
        <time>2021-06-20T13:29:41Z</time>
      </trkpt>
      <trkpt lat="42.049061" lon="1.049562">
        <ele>817.881</ele>
        <time>2021-06-20T13:29:46Z</time>
      </trkpt>
      <trkpt lat="42.048935" lon="1.049538">
        <ele>818.473</ele>
        <time>2021-06-20T13:29:49Z</time>
      </trkpt>
      <trkpt lat="42.048820" lon="1.049536">
        <ele>818.657</ele>
        <time>2021-06-20T13:29:52Z</time>
      </trkpt>
      <trkpt lat="42.048672" lon="1.049561">
        <ele>819.278</ele>
        <time>2021-06-20T13:29:58Z</time>
      </trkpt>
      <trkpt lat="42.048633" lon="1.049555">
        <ele>819.658</ele>
        <time>2021-06-20T13:30:00Z</time>
      </trkpt>
      <trkpt lat="42.048554" lon="1.049564">
        <ele>820.836</ele>
        <time>2021-06-20T13:30:05Z</time>
      </trkpt>
      <trkpt lat="42.048540" lon="1.049567">
        <ele>821.033</ele>
        <time>2021-06-20T13:30:06Z</time>
      </trkpt>
      <trkpt lat="42.048456" lon="1.049561">
        <ele>821.823</ele>
        <time>2021-06-20T13:30:11Z</time>
      </trkpt>
      <trkpt lat="42.048391" lon="1.049549">
        <ele>822.615</ele>
        <time>2021-06-20T13:30:15Z</time>
      </trkpt>
      <trkpt lat="42.048375" lon="1.049540">
        <ele>823.208</ele>
        <time>2021-06-20T13:30:16Z</time>
      </trkpt>
      <trkpt lat="42.048285" lon="1.049460">
        <ele>824.470</ele>
        <time>2021-06-20T13:30:22Z</time>
      </trkpt>
      <trkpt lat="42.048272" lon="1.049442">
        <ele>824.879</ele>
        <time>2021-06-20T13:30:23Z</time>
      </trkpt>
      <trkpt lat="42.048228" lon="1.049368">
        <ele>825.616</ele>
        <time>2021-06-20T13:30:27Z</time>
      </trkpt>
      <trkpt lat="42.048207" lon="1.049305">
        <ele>826.038</ele>
        <time>2021-06-20T13:30:30Z</time>
      </trkpt>
      <trkpt lat="42.048167" lon="1.049102">
        <ele>826.232</ele>
        <time>2021-06-20T13:30:38Z</time>
      </trkpt>
      <trkpt lat="42.048171" lon="1.048980">
        <ele>826.673</ele>
        <time>2021-06-20T13:30:42Z</time>
      </trkpt>
      <trkpt lat="42.048171" lon="1.048836">
        <ele>827.033</ele>
        <time>2021-06-20T13:30:47Z</time>
      </trkpt>
      <trkpt lat="42.048176" lon="1.048509">
        <ele>827.651</ele>
        <time>2021-06-20T13:30:58Z</time>
      </trkpt>
      <trkpt lat="42.048166" lon="1.048327">
        <ele>827.813</ele>
        <time>2021-06-20T13:31:05Z</time>
      </trkpt>
      <trkpt lat="42.048161" lon="1.048234">
        <ele>828.443</ele>
        <time>2021-06-20T13:31:09Z</time>
      </trkpt>
      <trkpt lat="42.048163" lon="1.048187">
        <ele>829.007</ele>
        <time>2021-06-20T13:31:11Z</time>
      </trkpt>
      <trkpt lat="42.048144" lon="1.048102">
        <ele>829.608</ele>
        <time>2021-06-20T13:31:15Z</time>
      </trkpt>
      <trkpt lat="42.048143" lon="1.048080">
        <ele>829.898</ele>
        <time>2021-06-20T13:31:16Z</time>
      </trkpt>
      <trkpt lat="42.048143" lon="1.047923">
        <ele>830.817</ele>
        <time>2021-06-20T13:31:22Z</time>
      </trkpt>
      <trkpt lat="42.048150" lon="1.047844">
        <ele>831.664</ele>
        <time>2021-06-20T13:31:25Z</time>
      </trkpt>
      <trkpt lat="42.048157" lon="1.047791">
        <ele>831.886</ele>
        <time>2021-06-20T13:31:27Z</time>
      </trkpt>
      <trkpt lat="42.048149" lon="1.047686">
        <ele>832.470</ele>
        <time>2021-06-20T13:31:31Z</time>
      </trkpt>
      <trkpt lat="42.048135" lon="1.047635">
        <ele>833.071</ele>
        <time>2021-06-20T13:31:33Z</time>
      </trkpt>
      <trkpt lat="42.048116" lon="1.047506">
        <ele>833.651</ele>
        <time>2021-06-20T13:31:38Z</time>
      </trkpt>
      <trkpt lat="42.048107" lon="1.047455">
        <ele>834.079</ele>
        <time>2021-06-20T13:31:40Z</time>
      </trkpt>
      <trkpt lat="42.048057" lon="1.047241">
        <ele>835.259</ele>
        <time>2021-06-20T13:31:48Z</time>
      </trkpt>
      <trkpt lat="42.048016" lon="1.046986">
        <ele>835.403</ele>
        <time>2021-06-20T13:31:55Z</time>
      </trkpt>
      <trkpt lat="42.047944" lon="1.046651">
        <ele>835.423</ele>
        <time>2021-06-20T13:32:03Z</time>
      </trkpt>
      <trkpt lat="42.047854" lon="1.046340">
        <ele>835.208</ele>
        <time>2021-06-20T13:32:08Z</time>
      </trkpt>
      <trkpt lat="42.047814" lon="1.046114">
        <ele>834.812</ele>
        <time>2021-06-20T13:32:11Z</time>
      </trkpt>
      <trkpt lat="42.047814" lon="1.046038">
        <ele>834.271</ele>
        <time>2021-06-20T13:32:12Z</time>
      </trkpt>
      <trkpt lat="42.047822" lon="1.045963">
        <ele>833.678</ele>
        <time>2021-06-20T13:32:13Z</time>
      </trkpt>
      <trkpt lat="42.047886" lon="1.045772">
        <ele>832.460</ele>
        <time>2021-06-20T13:32:16Z</time>
      </trkpt>
      <trkpt lat="42.047965" lon="1.045525">
        <ele>831.814</ele>
        <time>2021-06-20T13:32:21Z</time>
      </trkpt>
      <trkpt lat="42.047965" lon="1.045196">
        <ele>832.495</ele>
        <time>2021-06-20T13:32:27Z</time>
      </trkpt>
      <trkpt lat="42.047950" lon="1.044882">
        <ele>832.885</ele>
        <time>2021-06-20T13:32:32Z</time>
      </trkpt>
      <trkpt lat="42.047919" lon="1.044692">
        <ele>832.873</ele>
        <time>2021-06-20T13:32:35Z</time>
      </trkpt>
      <trkpt lat="42.047812" lon="1.044260">
        <ele>832.429</ele>
        <time>2021-06-20T13:32:42Z</time>
      </trkpt>
      <trkpt lat="42.047647" lon="1.043743">
        <ele>832.200</ele>
        <time>2021-06-20T13:32:51Z</time>
      </trkpt>
      <trkpt lat="42.047616" lon="1.043626">
        <ele>832.220</ele>
        <time>2021-06-20T13:32:53Z</time>
      </trkpt>
      <trkpt lat="42.047605" lon="1.043433">
        <ele>832.208</ele>
        <time>2021-06-20T13:32:56Z</time>
      </trkpt>
      <trkpt lat="42.047631" lon="1.042864">
        <ele>832.849</ele>
        <time>2021-06-20T13:33:05Z</time>
      </trkpt>
      <trkpt lat="42.047654" lon="1.042714">
        <ele>833.298</ele>
        <time>2021-06-20T13:33:09Z</time>
      </trkpt>
      <trkpt lat="42.047655" lon="1.042688">
        <ele>833.285</ele>
        <time>2021-06-20T13:33:10Z</time>
      </trkpt>
      <trkpt lat="42.047652" lon="1.042583">
        <ele>834.477</ele>
        <time>2021-06-20T13:33:15Z</time>
      </trkpt>
      <trkpt lat="42.047653" lon="1.042543">
        <ele>835.461</ele>
        <time>2021-06-20T13:33:17Z</time>
      </trkpt>
      <trkpt lat="42.047655" lon="1.042519">
        <ele>835.842</ele>
        <time>2021-06-20T13:33:18Z</time>
      </trkpt>
      <trkpt lat="42.047658" lon="1.042434">
        <ele>837.022</ele>
        <time>2021-06-20T13:33:22Z</time>
      </trkpt>
      <trkpt lat="42.047652" lon="1.042370">
        <ele>837.650</ele>
        <time>2021-06-20T13:33:25Z</time>
      </trkpt>
      <trkpt lat="42.047647" lon="1.042305">
        <ele>837.823</ele>
        <time>2021-06-20T13:33:28Z</time>
      </trkpt>
      <trkpt lat="42.047644" lon="1.042196">
        <ele>838.883</ele>
        <time>2021-06-20T13:33:33Z</time>
      </trkpt>
      <trkpt lat="42.047635" lon="1.042154">
        <ele>839.211</ele>
        <time>2021-06-20T13:33:35Z</time>
      </trkpt>
      <trkpt lat="42.047619" lon="1.042068">
        <ele>840.008</ele>
        <time>2021-06-20T13:33:39Z</time>
      </trkpt>
      <trkpt lat="42.047602" lon="1.041981">
        <ele>840.439</ele>
        <time>2021-06-20T13:33:43Z</time>
      </trkpt>
      <trkpt lat="42.047583" lon="1.041925">
        <ele>841.088</ele>
        <time>2021-06-20T13:33:46Z</time>
      </trkpt>
      <trkpt lat="42.047573" lon="1.041858">
        <ele>841.615</ele>
        <time>2021-06-20T13:33:50Z</time>
      </trkpt>
      <trkpt lat="42.047566" lon="1.041841">
        <ele>841.817</ele>
        <time>2021-06-20T13:33:51Z</time>
      </trkpt>
      <trkpt lat="42.047560" lon="1.041828">
        <ele>842.081</ele>
        <time>2021-06-20T13:33:52Z</time>
      </trkpt>
      <trkpt lat="42.047544" lon="1.041802">
        <ele>842.662</ele>
        <time>2021-06-20T13:33:54Z</time>
      </trkpt>
      <trkpt lat="42.047543" lon="1.041781">
        <ele>842.882</ele>
        <time>2021-06-20T13:33:55Z</time>
      </trkpt>
      <trkpt lat="42.047544" lon="1.041760">
        <ele>843.210</ele>
        <time>2021-06-20T13:33:56Z</time>
      </trkpt>
      <trkpt lat="42.047543" lon="1.041711">
        <ele>843.899</ele>
        <time>2021-06-20T13:33:58Z</time>
      </trkpt>
      <trkpt lat="42.047544" lon="1.041664">
        <ele>844.407</ele>
        <time>2021-06-20T13:34:00Z</time>
      </trkpt>
      <trkpt lat="42.047546" lon="1.041641">
        <ele>844.427</ele>
        <time>2021-06-20T13:34:01Z</time>
      </trkpt>
      <trkpt lat="42.047553" lon="1.041454">
        <ele>845.208</ele>
        <time>2021-06-20T13:34:09Z</time>
      </trkpt>
      <trkpt lat="42.047555" lon="1.041430">
        <ele>845.456</ele>
        <time>2021-06-20T13:34:10Z</time>
      </trkpt>
      <trkpt lat="42.047569" lon="1.041297">
        <ele>846.075</ele>
        <time>2021-06-20T13:34:16Z</time>
      </trkpt>
      <trkpt lat="42.047570" lon="1.041253">
        <ele>846.272</ele>
        <time>2021-06-20T13:34:18Z</time>
      </trkpt>
      <trkpt lat="42.047574" lon="1.041116">
        <ele>847.024</ele>
        <time>2021-06-20T13:34:24Z</time>
      </trkpt>
      <trkpt lat="42.047575" lon="1.041060">
        <ele>847.218</ele>
        <time>2021-06-20T13:34:26Z</time>
      </trkpt>
      <trkpt lat="42.047582" lon="1.040934">
        <ele>848.059</ele>
        <time>2021-06-20T13:34:31Z</time>
      </trkpt>
      <trkpt lat="42.047591" lon="1.040841">
        <ele>848.439</ele>
        <time>2021-06-20T13:34:35Z</time>
      </trkpt>
      <trkpt lat="42.047607" lon="1.040760">
        <ele>848.877</ele>
        <time>2021-06-20T13:34:39Z</time>
      </trkpt>
      <trkpt lat="42.047658" lon="1.040537">
        <ele>849.424</ele>
        <time>2021-06-20T13:34:49Z</time>
      </trkpt>
      <trkpt lat="42.047660" lon="1.040514">
        <ele>849.404</ele>
        <time>2021-06-20T13:34:50Z</time>
      </trkpt>
      <trkpt lat="42.047675" lon="1.040347">
        <ele>850.214</ele>
        <time>2021-06-20T13:34:57Z</time>
      </trkpt>
      <trkpt lat="42.047677" lon="1.040303">
        <ele>850.608</ele>
        <time>2021-06-20T13:34:59Z</time>
      </trkpt>
      <trkpt lat="42.047672" lon="1.040205">
        <ele>851.059</ele>
        <time>2021-06-20T13:35:03Z</time>
      </trkpt>
      <trkpt lat="42.047668" lon="1.040159">
        <ele>851.438</ele>
        <time>2021-06-20T13:35:05Z</time>
      </trkpt>
      <trkpt lat="42.047666" lon="1.040065">
        <ele>851.835</ele>
        <time>2021-06-20T13:35:09Z</time>
      </trkpt>
      <trkpt lat="42.047662" lon="1.039895">
        <ele>852.287</ele>
        <time>2021-06-20T13:35:16Z</time>
      </trkpt>
      <trkpt lat="42.047663" lon="1.039871">
        <ele>852.491</ele>
        <time>2021-06-20T13:35:17Z</time>
      </trkpt>
      <trkpt lat="42.047679" lon="1.039733">
        <ele>853.432</ele>
        <time>2021-06-20T13:35:23Z</time>
      </trkpt>
      <trkpt lat="42.047686" lon="1.039712">
        <ele>853.622</ele>
        <time>2021-06-20T13:35:24Z</time>
      </trkpt>
      <trkpt lat="42.047713" lon="1.039596">
        <ele>854.460</ele>
        <time>2021-06-20T13:35:29Z</time>
      </trkpt>
      <trkpt lat="42.047727" lon="1.039551">
        <ele>854.831</ele>
        <time>2021-06-20T13:35:31Z</time>
      </trkpt>
      <trkpt lat="42.047765" lon="1.039468">
        <ele>855.661</ele>
        <time>2021-06-20T13:35:35Z</time>
      </trkpt>
      <trkpt lat="42.047821" lon="1.039373">
        <ele>856.407</ele>
        <time>2021-06-20T13:35:40Z</time>
      </trkpt>
      <trkpt lat="42.047832" lon="1.039354">
        <ele>856.608</ele>
        <time>2021-06-20T13:35:41Z</time>
      </trkpt>
      <trkpt lat="42.047893" lon="1.039268">
        <ele>857.840</ele>
        <time>2021-06-20T13:35:46Z</time>
      </trkpt>
      <trkpt lat="42.047929" lon="1.039228">
        <ele>858.269</ele>
        <time>2021-06-20T13:35:49Z</time>
      </trkpt>
      <trkpt lat="42.047956" lon="1.039203">
        <ele>858.836</ele>
        <time>2021-06-20T13:35:51Z</time>
      </trkpt>
      <trkpt lat="42.048022" lon="1.039142">
        <ele>859.848</ele>
        <time>2021-06-20T13:35:56Z</time>
      </trkpt>
      <trkpt lat="42.048066" lon="1.039070">
        <ele>861.082</ele>
        <time>2021-06-20T13:36:00Z</time>
      </trkpt>
      <trkpt lat="42.048097" lon="1.038983">
        <ele>861.643</ele>
        <time>2021-06-20T13:36:04Z</time>
      </trkpt>
      <trkpt lat="42.048114" lon="1.038914">
        <ele>862.043</ele>
        <time>2021-06-20T13:36:07Z</time>
      </trkpt>
      <trkpt lat="42.048113" lon="1.038891">
        <ele>862.261</ele>
        <time>2021-06-20T13:36:08Z</time>
      </trkpt>
      <trkpt lat="42.048107" lon="1.038841">
        <ele>862.673</ele>
        <time>2021-06-20T13:36:10Z</time>
      </trkpt>
      <trkpt lat="42.048096" lon="1.038764">
        <ele>863.285</ele>
        <time>2021-06-20T13:36:13Z</time>
      </trkpt>
      <trkpt lat="42.048050" lon="1.038629">
        <ele>864.213</ele>
        <time>2021-06-20T13:36:19Z</time>
      </trkpt>
      <trkpt lat="42.048041" lon="1.038609">
        <ele>864.408</ele>
        <time>2021-06-20T13:36:20Z</time>
      </trkpt>
      <trkpt lat="42.047982" lon="1.038500">
        <ele>865.214</ele>
        <time>2021-06-20T13:36:26Z</time>
      </trkpt>
      <trkpt lat="42.047967" lon="1.038488">
        <ele>865.493</ele>
        <time>2021-06-20T13:36:27Z</time>
      </trkpt>
      <trkpt lat="42.047907" lon="1.038394">
        <ele>866.070</ele>
        <time>2021-06-20T13:36:33Z</time>
      </trkpt>
      <trkpt lat="42.047904" lon="1.038379">
        <ele>866.482</ele>
        <time>2021-06-20T13:36:34Z</time>
      </trkpt>
      <trkpt lat="42.047898" lon="1.038348">
        <ele>866.846</ele>
        <time>2021-06-20T13:36:36Z</time>
      </trkpt>
      <trkpt lat="42.047870" lon="1.038340">
        <ele>867.417</ele>
        <time>2021-06-20T13:36:38Z</time>
      </trkpt>
      <trkpt lat="42.047858" lon="1.038354">
        <ele>867.437</ele>
        <time>2021-06-20T13:36:39Z</time>
      </trkpt>
      <trkpt lat="42.047792" lon="1.038432">
        <ele>867.815</ele>
        <time>2021-06-20T13:36:44Z</time>
      </trkpt>
      <trkpt lat="42.047649" lon="1.038562">
        <ele>868.674</ele>
        <time>2021-06-20T13:36:53Z</time>
      </trkpt>
      <trkpt lat="42.047632" lon="1.038576">
        <ele>868.856</ele>
        <time>2021-06-20T13:36:54Z</time>
      </trkpt>
      <trkpt lat="42.047484" lon="1.038657">
        <ele>869.221</ele>
        <time>2021-06-20T13:37:02Z</time>
      </trkpt>
      <trkpt lat="42.047417" lon="1.038710">
        <ele>869.608</ele>
        <time>2021-06-20T13:37:06Z</time>
      </trkpt>
      <trkpt lat="42.047380" lon="1.038718">
        <ele>869.864</ele>
        <time>2021-06-20T13:37:08Z</time>
      </trkpt>
      <trkpt lat="42.047219" lon="1.038788">
        <ele>870.293</ele>
        <time>2021-06-20T13:37:16Z</time>
      </trkpt>
      <trkpt lat="42.047111" lon="1.038827">
        <ele>870.650</ele>
        <time>2021-06-20T13:37:21Z</time>
      </trkpt>
      <trkpt lat="42.047022" lon="1.038828">
        <ele>871.092</ele>
        <time>2021-06-20T13:37:25Z</time>
      </trkpt>
      <trkpt lat="42.046888" lon="1.038829">
        <ele>871.696</ele>
        <time>2021-06-20T13:37:31Z</time>
      </trkpt>
      <trkpt lat="42.046821" lon="1.038827">
        <ele>872.087</ele>
        <time>2021-06-20T13:37:34Z</time>
      </trkpt>
      <trkpt lat="42.046732" lon="1.038802">
        <ele>872.657</ele>
        <time>2021-06-20T13:37:38Z</time>
      </trkpt>
      <trkpt lat="42.046621" lon="1.038770">
        <ele>873.615</ele>
        <time>2021-06-20T13:37:43Z</time>
      </trkpt>
      <trkpt lat="42.046576" lon="1.038761">
        <ele>874.026</ele>
        <time>2021-06-20T13:37:45Z</time>
      </trkpt>
      <trkpt lat="42.046487" lon="1.038740">
        <ele>874.847</ele>
        <time>2021-06-20T13:37:49Z</time>
      </trkpt>
      <trkpt lat="42.046352" lon="1.038693">
        <ele>875.011</ele>
        <time>2021-06-20T13:37:55Z</time>
      </trkpt>
      <trkpt lat="42.046241" lon="1.038657">
        <ele>876.008</ele>
        <time>2021-06-20T13:38:00Z</time>
      </trkpt>
      <trkpt lat="42.046109" lon="1.038615">
        <ele>876.699</ele>
        <time>2021-06-20T13:38:06Z</time>
      </trkpt>
      <trkpt lat="42.046064" lon="1.038601">
        <ele>876.848</ele>
        <time>2021-06-20T13:38:08Z</time>
      </trkpt>
      <trkpt lat="42.045954" lon="1.038576">
        <ele>878.035</ele>
        <time>2021-06-20T13:38:13Z</time>
      </trkpt>
      <trkpt lat="42.045867" lon="1.038546">
        <ele>878.817</ele>
        <time>2021-06-20T13:38:17Z</time>
      </trkpt>
      <trkpt lat="42.045823" lon="1.038533">
        <ele>879.041</ele>
        <time>2021-06-20T13:38:19Z</time>
      </trkpt>
      <trkpt lat="42.045653" lon="1.038483">
        <ele>879.672</ele>
        <time>2021-06-20T13:38:26Z</time>
      </trkpt>
      <trkpt lat="42.045505" lon="1.038415">
        <ele>880.062</ele>
        <time>2021-06-20T13:38:32Z</time>
      </trkpt>
      <trkpt lat="42.045432" lon="1.038374">
        <ele>880.220</ele>
        <time>2021-06-20T13:38:35Z</time>
      </trkpt>
      <trkpt lat="42.045304" lon="1.038250">
        <ele>881.213</ele>
        <time>2021-06-20T13:38:41Z</time>
      </trkpt>
      <trkpt lat="42.045251" lon="1.038171">
        <ele>882.043</ele>
        <time>2021-06-20T13:38:44Z</time>
      </trkpt>
      <trkpt lat="42.045236" lon="1.038141">
        <ele>882.207</ele>
        <time>2021-06-20T13:38:45Z</time>
      </trkpt>
      <trkpt lat="42.045145" lon="1.037919">
        <ele>883.408</ele>
        <time>2021-06-20T13:38:52Z</time>
      </trkpt>
      <trkpt lat="42.045137" lon="1.037888">
        <ele>883.438</ele>
        <time>2021-06-20T13:38:53Z</time>
      </trkpt>
      <trkpt lat="42.045077" lon="1.037692">
        <ele>884.097</ele>
        <time>2021-06-20T13:39:00Z</time>
      </trkpt>
      <trkpt lat="42.045071" lon="1.037661">
        <ele>884.264</ele>
        <time>2021-06-20T13:39:01Z</time>
      </trkpt>
      <trkpt lat="42.045059" lon="1.037499">
        <ele>885.246</ele>
        <time>2021-06-20T13:39:06Z</time>
      </trkpt>
      <trkpt lat="42.045059" lon="1.037473">
        <ele>885.490</ele>
        <time>2021-06-20T13:39:07Z</time>
      </trkpt>
      <trkpt lat="42.045052" lon="1.037336">
        <ele>885.871</ele>
        <time>2021-06-20T13:39:13Z</time>
      </trkpt>
      <trkpt lat="42.045023" lon="1.037249">
        <ele>886.431</ele>
        <time>2021-06-20T13:39:17Z</time>
      </trkpt>
      <trkpt lat="42.045002" lon="1.037162">
        <ele>887.059</ele>
        <time>2021-06-20T13:39:21Z</time>
      </trkpt>
      <trkpt lat="42.044969" lon="1.037113">
        <ele>887.637</ele>
        <time>2021-06-20T13:39:24Z</time>
      </trkpt>
      <trkpt lat="42.044962" lon="1.037097">
        <ele>887.849</ele>
        <time>2021-06-20T13:39:25Z</time>
      </trkpt>
      <trkpt lat="42.044949" lon="1.037062">
        <ele>887.813</ele>
        <time>2021-06-20T13:39:27Z</time>
      </trkpt>
      <trkpt lat="42.044922" lon="1.037002">
        <ele>888.408</ele>
        <time>2021-06-20T13:39:30Z</time>
      </trkpt>
      <trkpt lat="42.044895" lon="1.036918">
        <ele>889.690</ele>
        <time>2021-06-20T13:39:34Z</time>
      </trkpt>
      <trkpt lat="42.044862" lon="1.036790">
        <ele>890.819</ele>
        <time>2021-06-20T13:39:40Z</time>
      </trkpt>
      <trkpt lat="42.044847" lon="1.036749">
        <ele>890.846</ele>
        <time>2021-06-20T13:39:42Z</time>
      </trkpt>
      <trkpt lat="42.044805" lon="1.036615">
        <ele>892.068</ele>
        <time>2021-06-20T13:39:48Z</time>
      </trkpt>
      <trkpt lat="42.044795" lon="1.036564">
        <ele>892.262</ele>
        <time>2021-06-20T13:39:50Z</time>
      </trkpt>
      <trkpt lat="42.044774" lon="1.036425">
        <ele>892.823</ele>
        <time>2021-06-20T13:39:56Z</time>
      </trkpt>
      <trkpt lat="42.044775" lon="1.036377">
        <ele>893.423</ele>
        <time>2021-06-20T13:39:58Z</time>
      </trkpt>
      <trkpt lat="42.044760" lon="1.036226">
        <ele>894.031</ele>
        <time>2021-06-20T13:40:04Z</time>
      </trkpt>
      <trkpt lat="42.044746" lon="1.036129">
        <ele>893.841</ele>
        <time>2021-06-20T13:40:08Z</time>
      </trkpt>
      <trkpt lat="42.044739" lon="1.036058">
        <ele>894.081</ele>
        <time>2021-06-20T13:40:11Z</time>
      </trkpt>
      <trkpt lat="42.044723" lon="1.035973">
        <ele>895.209</ele>
        <time>2021-06-20T13:40:15Z</time>
      </trkpt>
      <trkpt lat="42.044707" lon="1.035884">
        <ele>896.008</ele>
        <time>2021-06-20T13:40:19Z</time>
      </trkpt>
      <trkpt lat="42.044696" lon="1.035817">
        <ele>896.431</ele>
        <time>2021-06-20T13:40:22Z</time>
      </trkpt>
      <trkpt lat="42.044674" lon="1.035702">
        <ele>896.870</ele>
        <time>2021-06-20T13:40:27Z</time>
      </trkpt>
      <trkpt lat="42.044663" lon="1.035635">
        <ele>897.287</ele>
        <time>2021-06-20T13:40:30Z</time>
      </trkpt>
      <trkpt lat="42.044655" lon="1.035543">
        <ele>897.849</ele>
        <time>2021-06-20T13:40:34Z</time>
      </trkpt>
      <trkpt lat="42.044658" lon="1.035467">
        <ele>898.263</ele>
        <time>2021-06-20T13:40:37Z</time>
      </trkpt>
      <trkpt lat="42.044688" lon="1.035344">
        <ele>899.274</ele>
        <time>2021-06-20T13:40:42Z</time>
      </trkpt>
      <trkpt lat="42.044701" lon="1.035297">
        <ele>899.474</ele>
        <time>2021-06-20T13:40:44Z</time>
      </trkpt>
      <trkpt lat="42.044751" lon="1.035200">
        <ele>900.012</ele>
        <time>2021-06-20T13:40:49Z</time>
      </trkpt>
      <trkpt lat="42.044797" lon="1.035135">
        <ele>900.665</ele>
        <time>2021-06-20T13:40:53Z</time>
      </trkpt>
      <trkpt lat="42.044863" lon="1.035062">
        <ele>901.468</ele>
        <time>2021-06-20T13:40:58Z</time>
      </trkpt>
      <trkpt lat="42.044878" lon="1.035049">
        <ele>901.614</ele>
        <time>2021-06-20T13:40:59Z</time>
      </trkpt>
      <trkpt lat="42.044940" lon="1.035021">
        <ele>902.608</ele>
        <time>2021-06-20T13:41:03Z</time>
      </trkpt>
      <trkpt lat="42.044957" lon="1.035027">
        <ele>902.873</ele>
        <time>2021-06-20T13:41:04Z</time>
      </trkpt>
      <trkpt lat="42.045013" lon="1.035084">
        <ele>903.612</ele>
        <time>2021-06-20T13:41:08Z</time>
      </trkpt>
      <trkpt lat="42.045058" lon="1.035152">
        <ele>904.459</ele>
        <time>2021-06-20T13:41:12Z</time>
      </trkpt>
      <trkpt lat="42.045084" lon="1.035210">
        <ele>904.891</ele>
        <time>2021-06-20T13:41:15Z</time>
      </trkpt>
      <trkpt lat="42.045132" lon="1.035317">
        <ele>905.445</ele>
        <time>2021-06-20T13:41:20Z</time>
      </trkpt>
      <trkpt lat="42.045173" lon="1.035375">
        <ele>905.886</ele>
        <time>2021-06-20T13:41:23Z</time>
      </trkpt>
      <trkpt lat="42.045230" lon="1.035480">
        <ele>906.486</ele>
        <time>2021-06-20T13:41:28Z</time>
      </trkpt>
      <trkpt lat="42.045276" lon="1.035551">
        <ele>906.834</ele>
        <time>2021-06-20T13:41:32Z</time>
      </trkpt>
      <trkpt lat="42.045310" lon="1.035607">
        <ele>907.281</ele>
        <time>2021-06-20T13:41:35Z</time>
      </trkpt>
      <trkpt lat="42.045361" lon="1.035677">
        <ele>907.861</ele>
        <time>2021-06-20T13:41:39Z</time>
      </trkpt>
      <trkpt lat="42.045439" lon="1.035784">
        <ele>908.417</ele>
        <time>2021-06-20T13:41:45Z</time>
      </trkpt>
      <trkpt lat="42.045504" lon="1.035833">
        <ele>909.008</ele>
        <time>2021-06-20T13:41:49Z</time>
      </trkpt>
      <trkpt lat="42.045555" lon="1.035857">
        <ele>909.445</ele>
        <time>2021-06-20T13:41:52Z</time>
      </trkpt>
      <trkpt lat="42.045644" lon="1.035871">
        <ele>910.094</ele>
        <time>2021-06-20T13:41:57Z</time>
      </trkpt>
      <trkpt lat="42.045662" lon="1.035866">
        <ele>909.831</ele>
        <time>2021-06-20T13:41:58Z</time>
      </trkpt>
      <trkpt lat="42.045766" lon="1.035801">
        <ele>910.863</ele>
        <time>2021-06-20T13:42:04Z</time>
      </trkpt>
      <trkpt lat="42.045793" lon="1.035764">
        <ele>911.087</ele>
        <time>2021-06-20T13:42:06Z</time>
      </trkpt>
      <trkpt lat="42.045834" lon="1.035629">
        <ele>912.048</ele>
        <time>2021-06-20T13:42:12Z</time>
      </trkpt>
      <trkpt lat="42.045835" lon="1.035605">
        <ele>912.058</ele>
        <time>2021-06-20T13:42:13Z</time>
      </trkpt>
      <trkpt lat="42.045812" lon="1.035429">
        <ele>913.236</ele>
        <time>2021-06-20T13:42:20Z</time>
      </trkpt>
      <trkpt lat="42.045805" lon="1.035407">
        <ele>913.479</ele>
        <time>2021-06-20T13:42:21Z</time>
      </trkpt>
      <trkpt lat="42.045755" lon="1.035334">
        <ele>913.805</ele>
        <time>2021-06-20T13:42:25Z</time>
      </trkpt>
      <trkpt lat="42.045743" lon="1.035315">
        <ele>914.025</ele>
        <time>2021-06-20T13:42:26Z</time>
      </trkpt>
      <trkpt lat="42.045701" lon="1.035265">
        <ele>914.408</ele>
        <time>2021-06-20T13:42:29Z</time>
      </trkpt>
      <trkpt lat="42.045638" lon="1.035169">
        <ele>915.064</ele>
        <time>2021-06-20T13:42:34Z</time>
      </trkpt>
      <trkpt lat="42.045611" lon="1.035103">
        <ele>915.283</ele>
        <time>2021-06-20T13:42:37Z</time>
      </trkpt>
      <trkpt lat="42.045594" lon="1.034977">
        <ele>916.450</ele>
        <time>2021-06-20T13:42:42Z</time>
      </trkpt>
      <trkpt lat="42.045587" lon="1.034776">
        <ele>917.442</ele>
        <time>2021-06-20T13:42:50Z</time>
      </trkpt>
      <trkpt lat="42.045587" lon="1.034750">
        <ele>917.656</ele>
        <time>2021-06-20T13:42:51Z</time>
      </trkpt>
      <trkpt lat="42.045597" lon="1.034551">
        <ele>918.447</ele>
        <time>2021-06-20T13:42:59Z</time>
      </trkpt>
      <trkpt lat="42.045609" lon="1.034504">
        <ele>918.697</ele>
        <time>2021-06-20T13:43:01Z</time>
      </trkpt>
      <trkpt lat="42.045626" lon="1.034466">
        <ele>919.055</ele>
        <time>2021-06-20T13:43:03Z</time>
      </trkpt>
      <trkpt lat="42.045660" lon="1.034415">
        <ele>919.474</ele>
        <time>2021-06-20T13:43:06Z</time>
      </trkpt>
      <trkpt lat="42.045680" lon="1.034376">
        <ele>919.856</ele>
        <time>2021-06-20T13:43:08Z</time>
      </trkpt>
      <trkpt lat="42.045764" lon="1.034220">
        <ele>920.821</ele>
        <time>2021-06-20T13:43:15Z</time>
      </trkpt>
      <trkpt lat="42.045886" lon="1.034060">
        <ele>921.808</ele>
        <time>2021-06-20T13:43:23Z</time>
      </trkpt>
      <trkpt lat="42.045938" lon="1.034009">
        <ele>921.834</ele>
        <time>2021-06-20T13:43:26Z</time>
      </trkpt>
      <trkpt lat="42.046016" lon="1.033960">
        <ele>923.033</ele>
        <time>2021-06-20T13:43:30Z</time>
      </trkpt>
      <trkpt lat="42.046198" lon="1.033943">
        <ele>924.040</ele>
        <time>2021-06-20T13:43:38Z</time>
      </trkpt>
      <trkpt lat="42.046341" lon="1.033899">
        <ele>924.842</ele>
        <time>2021-06-20T13:43:44Z</time>
      </trkpt>
      <trkpt lat="42.046384" lon="1.033870">
        <ele>925.036</ele>
        <time>2021-06-20T13:43:46Z</time>
      </trkpt>
      <trkpt lat="42.046459" lon="1.033802">
        <ele>925.427</ele>
        <time>2021-06-20T13:43:50Z</time>
      </trkpt>
      <trkpt lat="42.046526" lon="1.033720">
        <ele>926.257</ele>
        <time>2021-06-20T13:43:54Z</time>
      </trkpt>
      <trkpt lat="42.046567" lon="1.033651">
        <ele>926.445</ele>
        <time>2021-06-20T13:43:57Z</time>
      </trkpt>
      <trkpt lat="42.046632" lon="1.033516">
        <ele>927.288</ele>
        <time>2021-06-20T13:44:03Z</time>
      </trkpt>
      <trkpt lat="42.046648" lon="1.033492">
        <ele>927.424</ele>
        <time>2021-06-20T13:44:04Z</time>
      </trkpt>
      <trkpt lat="42.046697" lon="1.033409">
        <ele>928.226</ele>
        <time>2021-06-20T13:44:08Z</time>
      </trkpt>
      <trkpt lat="42.046745" lon="1.033335">
        <ele>929.208</ele>
        <time>2021-06-20T13:44:12Z</time>
      </trkpt>
      <trkpt lat="42.046835" lon="1.033197">
        <ele>930.275</ele>
        <time>2021-06-20T13:44:19Z</time>
      </trkpt>
      <trkpt lat="42.046846" lon="1.033178">
        <ele>930.414</ele>
        <time>2021-06-20T13:44:20Z</time>
      </trkpt>
      <trkpt lat="42.046918" lon="1.033032">
        <ele>931.281</ele>
        <time>2021-06-20T13:44:27Z</time>
      </trkpt>
      <trkpt lat="42.046929" lon="1.033011">
        <ele>931.423</ele>
        <time>2021-06-20T13:44:28Z</time>
      </trkpt>
      <trkpt lat="42.046997" lon="1.032885">
        <ele>932.067</ele>
        <time>2021-06-20T13:44:34Z</time>
      </trkpt>
      <trkpt lat="42.047036" lon="1.032828">
        <ele>932.468</ele>
        <time>2021-06-20T13:44:37Z</time>
      </trkpt>
      <trkpt lat="42.047106" lon="1.032731">
        <ele>933.438</ele>
        <time>2021-06-20T13:44:42Z</time>
      </trkpt>
      <trkpt lat="42.047117" lon="1.032709">
        <ele>933.456</ele>
        <time>2021-06-20T13:44:43Z</time>
      </trkpt>
      <trkpt lat="42.047190" lon="1.032525">
        <ele>934.255</ele>
        <time>2021-06-20T13:44:51Z</time>
      </trkpt>
      <trkpt lat="42.047195" lon="1.032501">
        <ele>934.407</ele>
        <time>2021-06-20T13:44:52Z</time>
      </trkpt>
      <trkpt lat="42.047202" lon="1.032350">
        <ele>935.417</ele>
        <time>2021-06-20T13:44:58Z</time>
      </trkpt>
      <trkpt lat="42.047199" lon="1.032324">
        <ele>935.608</ele>
        <time>2021-06-20T13:44:59Z</time>
      </trkpt>
      <trkpt lat="42.047194" lon="1.032152">
        <ele>936.492</ele>
        <time>2021-06-20T13:45:06Z</time>
      </trkpt>
      <trkpt lat="42.047195" lon="1.032102">
        <ele>936.891</ele>
        <time>2021-06-20T13:45:08Z</time>
      </trkpt>
      <trkpt lat="42.047225" lon="1.031955">
        <ele>937.498</ele>
        <time>2021-06-20T13:45:14Z</time>
      </trkpt>
      <trkpt lat="42.047244" lon="1.031907">
        <ele>937.870</ele>
        <time>2021-06-20T13:45:16Z</time>
      </trkpt>
      <trkpt lat="42.047308" lon="1.031813">
        <ele>938.444</ele>
        <time>2021-06-20T13:45:21Z</time>
      </trkpt>
      <trkpt lat="42.047355" lon="1.031766">
        <ele>938.835</ele>
        <time>2021-06-20T13:45:24Z</time>
      </trkpt>
      <trkpt lat="42.047417" lon="1.031713">
        <ele>939.235</ele>
        <time>2021-06-20T13:45:28Z</time>
      </trkpt>
      <trkpt lat="42.047465" lon="1.031675">
        <ele>939.853</ele>
        <time>2021-06-20T13:45:31Z</time>
      </trkpt>
      <trkpt lat="42.047564" lon="1.031605">
        <ele>941.059</ele>
        <time>2021-06-20T13:45:37Z</time>
      </trkpt>
      <trkpt lat="42.047619" lon="1.031576">
        <ele>941.403</ele>
        <time>2021-06-20T13:45:40Z</time>
      </trkpt>
      <trkpt lat="42.047672" lon="1.031543">
        <ele>942.023</ele>
        <time>2021-06-20T13:45:43Z</time>
      </trkpt>
      <trkpt lat="42.047772" lon="1.031481">
        <ele>942.408</ele>
        <time>2021-06-20T13:45:49Z</time>
      </trkpt>
      <trkpt lat="42.047831" lon="1.031439">
        <ele>942.862</ele>
        <time>2021-06-20T13:45:53Z</time>
      </trkpt>
      <trkpt lat="42.047876" lon="1.031393">
        <ele>943.221</ele>
        <time>2021-06-20T13:45:56Z</time>
      </trkpt>
      <trkpt lat="42.047921" lon="1.031342">
        <ele>943.858</ele>
        <time>2021-06-20T13:45:59Z</time>
      </trkpt>
      <trkpt lat="42.048004" lon="1.031237">
        <ele>944.670</ele>
        <time>2021-06-20T13:46:05Z</time>
      </trkpt>
      <trkpt lat="42.048033" lon="1.031204">
        <ele>945.044</ele>
        <time>2021-06-20T13:46:07Z</time>
      </trkpt>
      <trkpt lat="42.048128" lon="1.031114">
        <ele>946.035</ele>
        <time>2021-06-20T13:46:13Z</time>
      </trkpt>
      <trkpt lat="42.048144" lon="1.031099">
        <ele>946.055</ele>
        <time>2021-06-20T13:46:14Z</time>
      </trkpt>
      <trkpt lat="42.048261" lon="1.031003">
        <ele>947.013</ele>
        <time>2021-06-20T13:46:21Z</time>
      </trkpt>
      <trkpt lat="42.048291" lon="1.030970">
        <ele>947.486</ele>
        <time>2021-06-20T13:46:23Z</time>
      </trkpt>
      <trkpt lat="42.048376" lon="1.030909">
        <ele>948.060</ele>
        <time>2021-06-20T13:46:28Z</time>
      </trkpt>
      <trkpt lat="42.048394" lon="1.030896">
        <ele>948.026</ele>
        <time>2021-06-20T13:46:29Z</time>
      </trkpt>
      <trkpt lat="42.048492" lon="1.030813">
        <ele>949.008</ele>
        <time>2021-06-20T13:46:35Z</time>
      </trkpt>
      <trkpt lat="42.048523" lon="1.030780">
        <ele>949.255</ele>
        <time>2021-06-20T13:46:37Z</time>
      </trkpt>
      <trkpt lat="42.048605" lon="1.030667">
        <ele>950.044</ele>
        <time>2021-06-20T13:46:43Z</time>
      </trkpt>
      <trkpt lat="42.048645" lon="1.030611">
        <ele>950.091</ele>
        <time>2021-06-20T13:46:46Z</time>
      </trkpt>
      <trkpt lat="42.048655" lon="1.030589">
        <ele>950.293</ele>
        <time>2021-06-20T13:46:47Z</time>
      </trkpt>
      <trkpt lat="42.048683" lon="1.030523">
        <ele>950.697</ele>
        <time>2021-06-20T13:46:50Z</time>
      </trkpt>
      <trkpt lat="42.048710" lon="1.030457">
        <ele>951.098</ele>
        <time>2021-06-20T13:46:53Z</time>
      </trkpt>
      <trkpt lat="42.048743" lon="1.030365">
        <ele>951.648</ele>
        <time>2021-06-20T13:46:57Z</time>
      </trkpt>
      <trkpt lat="42.048777" lon="1.030274">
        <ele>952.056</ele>
        <time>2021-06-20T13:47:01Z</time>
      </trkpt>
      <trkpt lat="42.048819" lon="1.030157">
        <ele>952.829</ele>
        <time>2021-06-20T13:47:06Z</time>
      </trkpt>
      <trkpt lat="42.048841" lon="1.030086">
        <ele>953.200</ele>
        <time>2021-06-20T13:47:09Z</time>
      </trkpt>
      <trkpt lat="42.048876" lon="1.029962">
        <ele>953.820</ele>
        <time>2021-06-20T13:47:14Z</time>
      </trkpt>
      <trkpt lat="42.048920" lon="1.029838">
        <ele>954.208</ele>
        <time>2021-06-20T13:47:19Z</time>
      </trkpt>
      <trkpt lat="42.048956" lon="1.029741">
        <ele>954.489</ele>
        <time>2021-06-20T13:47:23Z</time>
      </trkpt>
      <trkpt lat="42.049014" lon="1.029578">
        <ele>955.258</ele>
        <time>2021-06-20T13:47:30Z</time>
      </trkpt>
      <trkpt lat="42.049033" lon="1.029503">
        <ele>955.625</ele>
        <time>2021-06-20T13:47:33Z</time>
      </trkpt>
      <trkpt lat="42.049068" lon="1.029408">
        <ele>956.227</ele>
        <time>2021-06-20T13:47:37Z</time>
      </trkpt>
      <trkpt lat="42.049109" lon="1.029285">
        <ele>956.821</ele>
        <time>2021-06-20T13:47:42Z</time>
      </trkpt>
      <trkpt lat="42.049123" lon="1.029235">
        <ele>957.262</ele>
        <time>2021-06-20T13:47:44Z</time>
      </trkpt>
      <trkpt lat="42.049186" lon="1.029043">
        <ele>957.882</ele>
        <time>2021-06-20T13:47:52Z</time>
      </trkpt>
      <trkpt lat="42.049217" lon="1.028948">
        <ele>958.430</ele>
        <time>2021-06-20T13:47:56Z</time>
      </trkpt>
      <trkpt lat="42.049240" lon="1.028879">
        <ele>959.023</ele>
        <time>2021-06-20T13:47:59Z</time>
      </trkpt>
      <trkpt lat="42.049264" lon="1.028810">
        <ele>959.483</ele>
        <time>2021-06-20T13:48:02Z</time>
      </trkpt>
      <trkpt lat="42.049321" lon="1.028644">
        <ele>960.411</ele>
        <time>2021-06-20T13:48:09Z</time>
      </trkpt>
      <trkpt lat="42.049330" lon="1.028622">
        <ele>960.408</ele>
        <time>2021-06-20T13:48:10Z</time>
      </trkpt>
      <trkpt lat="42.049381" lon="1.028490">
        <ele>961.639</ele>
        <time>2021-06-20T13:48:16Z</time>
      </trkpt>
      <trkpt lat="42.049421" lon="1.028402">
        <ele>962.098</ele>
        <time>2021-06-20T13:48:20Z</time>
      </trkpt>
      <trkpt lat="42.049454" lon="1.028277">
        <ele>962.835</ele>
        <time>2021-06-20T13:48:25Z</time>
      </trkpt>
      <trkpt lat="42.049449" lon="1.028197">
        <ele>963.257</ele>
        <time>2021-06-20T13:48:28Z</time>
      </trkpt>
      <trkpt lat="42.049383" lon="1.028076">
        <ele>963.481</ele>
        <time>2021-06-20T13:48:34Z</time>
      </trkpt>
      <trkpt lat="42.049367" lon="1.028060">
        <ele>963.452</ele>
        <time>2021-06-20T13:48:35Z</time>
      </trkpt>
      <trkpt lat="42.049243" lon="1.027984">
        <ele>963.672</ele>
        <time>2021-06-20T13:48:42Z</time>
      </trkpt>
      <trkpt lat="42.049207" lon="1.027962">
        <ele>963.850</ele>
        <time>2021-06-20T13:48:44Z</time>
      </trkpt>
      <trkpt lat="42.049094" lon="1.027857">
        <ele>964.887</ele>
        <time>2021-06-20T13:48:51Z</time>
      </trkpt>
      <trkpt lat="42.049050" lon="1.027802">
        <ele>965.642</ele>
        <time>2021-06-20T13:48:54Z</time>
      </trkpt>
      <trkpt lat="42.049024" lon="1.027762">
        <ele>965.826</ele>
        <time>2021-06-20T13:48:56Z</time>
      </trkpt>
      <trkpt lat="42.048918" lon="1.027595">
        <ele>966.608</ele>
        <time>2021-06-20T13:49:03Z</time>
      </trkpt>
      <trkpt lat="42.048830" lon="1.027372">
        <ele>966.625</ele>
        <time>2021-06-20T13:49:09Z</time>
      </trkpt>
      <trkpt lat="42.048654" lon="1.027059">
        <ele>966.094</ele>
        <time>2021-06-20T13:49:18Z</time>
      </trkpt>
      <trkpt lat="42.048520" lon="1.026794">
        <ele>965.891</ele>
        <time>2021-06-20T13:49:25Z</time>
      </trkpt>
      <trkpt lat="42.048350" lon="1.026403">
        <ele>965.663</ele>
        <time>2021-06-20T13:49:33Z</time>
      </trkpt>
      <trkpt lat="42.048149" lon="1.026091">
        <ele>964.487</ele>
        <time>2021-06-20T13:49:40Z</time>
      </trkpt>
      <trkpt lat="42.048118" lon="1.026048">
        <ele>964.298</ele>
        <time>2021-06-20T13:49:41Z</time>
      </trkpt>
      <trkpt lat="42.047947" lon="1.025780">
        <ele>963.488</ele>
        <time>2021-06-20T13:49:47Z</time>
      </trkpt>
      <trkpt lat="42.047846" lon="1.025589">
        <ele>962.846</ele>
        <time>2021-06-20T13:49:51Z</time>
      </trkpt>
      <trkpt lat="42.047760" lon="1.025396">
        <ele>962.891</ele>
        <time>2021-06-20T13:49:55Z</time>
      </trkpt>
      <trkpt lat="42.047739" lon="1.025238">
        <ele>962.681</ele>
        <time>2021-06-20T13:49:58Z</time>
      </trkpt>
      <trkpt lat="42.047738" lon="1.025181">
        <ele>962.619</ele>
        <time>2021-06-20T13:49:59Z</time>
      </trkpt>
      <trkpt lat="42.047742" lon="1.025121">
        <ele>962.608</ele>
        <time>2021-06-20T13:50:00Z</time>
      </trkpt>
      <trkpt lat="42.047726" lon="1.025002">
        <ele>962.646</ele>
        <time>2021-06-20T13:50:02Z</time>
      </trkpt>
      <trkpt lat="42.047583" lon="1.024862">
        <ele>962.495</ele>
        <time>2021-06-20T13:50:06Z</time>
      </trkpt>
      <trkpt lat="42.047497" lon="1.024844">
        <ele>962.252</ele>
        <time>2021-06-20T13:50:08Z</time>
      </trkpt>
      <trkpt lat="42.047384" lon="1.024774">
        <ele>961.874</ele>
        <time>2021-06-20T13:50:11Z</time>
      </trkpt>
      <trkpt lat="42.047274" lon="1.024589">
        <ele>961.258</ele>
        <time>2021-06-20T13:50:15Z</time>
      </trkpt>
      <trkpt lat="42.047247" lon="1.024535">
        <ele>961.269</ele>
        <time>2021-06-20T13:50:16Z</time>
      </trkpt>
      <trkpt lat="42.047218" lon="1.024483">
        <ele>961.049</ele>
        <time>2021-06-20T13:50:17Z</time>
      </trkpt>
      <trkpt lat="42.047165" lon="1.024380">
        <ele>960.637</ele>
        <time>2021-06-20T13:50:19Z</time>
      </trkpt>
      <trkpt lat="42.047104" lon="1.024244">
        <ele>960.611</ele>
        <time>2021-06-20T13:50:22Z</time>
      </trkpt>
      <trkpt lat="42.047075" lon="1.024108">
        <ele>960.621</ele>
        <time>2021-06-20T13:50:25Z</time>
      </trkpt>
      <trkpt lat="42.047059" lon="1.023964">
        <ele>960.603</ele>
        <time>2021-06-20T13:50:28Z</time>
      </trkpt>
      <trkpt lat="42.047120" lon="1.023685">
        <ele>960.408</ele>
        <time>2021-06-20T13:50:34Z</time>
      </trkpt>
      <trkpt lat="42.047225" lon="1.023337">
        <ele>960.888</ele>
        <time>2021-06-20T13:50:42Z</time>
      </trkpt>
      <trkpt lat="42.047297" lon="1.022959">
        <ele>961.037</ele>
        <time>2021-06-20T13:50:50Z</time>
      </trkpt>
      <trkpt lat="42.047411" lon="1.022680">
        <ele>961.244</ele>
        <time>2021-06-20T13:50:57Z</time>
      </trkpt>
      <trkpt lat="42.047425" lon="1.022503">
        <ele>961.426</ele>
        <time>2021-06-20T13:51:02Z</time>
      </trkpt>
      <trkpt lat="42.047343" lon="1.022411">
        <ele>961.850</ele>
        <time>2021-06-20T13:51:07Z</time>
      </trkpt>
      <trkpt lat="42.047223" lon="1.022472">
        <ele>962.421</ele>
        <time>2021-06-20T13:51:13Z</time>
      </trkpt>
      <trkpt lat="42.047177" lon="1.022519">
        <ele>962.621</ele>
        <time>2021-06-20T13:51:16Z</time>
      </trkpt>
      <trkpt lat="42.047098" lon="1.022577">
        <ele>963.659</ele>
        <time>2021-06-20T13:51:21Z</time>
      </trkpt>
      <trkpt lat="42.047082" lon="1.022588">
        <ele>963.864</ele>
        <time>2021-06-20T13:51:22Z</time>
      </trkpt>
      <trkpt lat="42.046955" lon="1.022674">
        <ele>964.606</ele>
        <time>2021-06-20T13:51:30Z</time>
      </trkpt>
      <trkpt lat="42.046924" lon="1.022692">
        <ele>964.816</ele>
        <time>2021-06-20T13:51:32Z</time>
      </trkpt>
      <trkpt lat="42.046832" lon="1.022758">
        <ele>965.808</ele>
        <time>2021-06-20T13:51:38Z</time>
      </trkpt>
      <trkpt lat="42.046817" lon="1.022769">
        <ele>966.063</ele>
        <time>2021-06-20T13:51:39Z</time>
      </trkpt>
      <trkpt lat="42.046722" lon="1.022859">
        <ele>966.892</ele>
        <time>2021-06-20T13:51:46Z</time>
      </trkpt>
      <trkpt lat="42.046713" lon="1.022878">
        <ele>966.859</ele>
        <time>2021-06-20T13:51:47Z</time>
      </trkpt>
      <trkpt lat="42.046655" lon="1.023016">
        <ele>968.011</ele>
        <time>2021-06-20T13:51:54Z</time>
      </trkpt>
      <trkpt lat="42.046643" lon="1.023032">
        <ele>968.285</ele>
        <time>2021-06-20T13:51:55Z</time>
      </trkpt>
      <trkpt lat="42.046594" lon="1.023112">
        <ele>969.256</ele>
        <time>2021-06-20T13:52:01Z</time>
      </trkpt>
      <trkpt lat="42.046592" lon="1.023204">
        <ele>970.486</ele>
        <time>2021-06-20T13:56:06Z</time>
      </trkpt>
      <trkpt lat="42.046515" lon="1.023308">
        <ele>970.614</ele>
        <time>2021-06-20T13:56:13Z</time>
      </trkpt>
      <trkpt lat="42.046386" lon="1.023416">
        <ele>971.416</ele>
        <time>2021-06-20T13:56:22Z</time>
      </trkpt>
      <trkpt lat="42.046353" lon="1.023431">
        <ele>971.476</ele>
        <time>2021-06-20T13:56:24Z</time>
      </trkpt>
      <trkpt lat="42.046251" lon="1.023450">
        <ele>972.613</ele>
        <time>2021-06-20T13:56:30Z</time>
      </trkpt>
      <trkpt lat="42.046233" lon="1.023445">
        <ele>972.808</ele>
        <time>2021-06-20T13:56:31Z</time>
      </trkpt>
      <trkpt lat="42.046093" lon="1.023395">
        <ele>973.238</ele>
        <time>2021-06-20T13:56:38Z</time>
      </trkpt>
      <trkpt lat="42.045939" lon="1.023356">
        <ele>973.657</ele>
        <time>2021-06-20T13:56:46Z</time>
      </trkpt>
      <trkpt lat="42.045920" lon="1.023357">
        <ele>973.614</ele>
        <time>2021-06-20T13:56:47Z</time>
      </trkpt>
      <trkpt lat="42.045809" lon="1.023374">
        <ele>974.496</ele>
        <time>2021-06-20T13:56:53Z</time>
      </trkpt>
      <trkpt lat="42.045790" lon="1.023376">
        <ele>974.680</ele>
        <time>2021-06-20T13:56:54Z</time>
      </trkpt>
      <trkpt lat="42.045680" lon="1.023356">
        <ele>975.891</ele>
        <time>2021-06-20T13:57:00Z</time>
      </trkpt>
      <trkpt lat="42.045645" lon="1.023338">
        <ele>976.291</ele>
        <time>2021-06-20T13:57:02Z</time>
      </trkpt>
      <trkpt lat="42.045562" lon="1.023267">
        <ele>977.029</ele>
        <time>2021-06-20T13:57:07Z</time>
      </trkpt>
      <trkpt lat="42.045512" lon="1.023221">
        <ele>977.653</ele>
        <time>2021-06-20T13:57:10Z</time>
      </trkpt>
      <trkpt lat="42.045423" lon="1.023162">
        <ele>978.204</ele>
        <time>2021-06-20T13:57:15Z</time>
      </trkpt>
      <trkpt lat="42.045314" lon="1.023123">
        <ele>978.414</ele>
        <time>2021-06-20T13:57:21Z</time>
      </trkpt>
      <trkpt lat="42.045205" lon="1.023110">
        <ele>979.208</ele>
        <time>2021-06-20T13:57:27Z</time>
      </trkpt>
      <trkpt lat="42.045150" lon="1.023100">
        <ele>979.882</ele>
        <time>2021-06-20T13:57:30Z</time>
      </trkpt>
      <trkpt lat="42.045095" lon="1.023091">
        <ele>980.271</ele>
        <time>2021-06-20T13:57:33Z</time>
      </trkpt>
      <trkpt lat="42.045006" lon="1.023069">
        <ele>980.688</ele>
        <time>2021-06-20T13:57:38Z</time>
      </trkpt>
      <trkpt lat="42.044882" lon="1.023044">
        <ele>981.210</ele>
        <time>2021-06-20T13:57:45Z</time>
      </trkpt>
      <trkpt lat="42.044831" lon="1.023031">
        <ele>981.654</ele>
        <time>2021-06-20T13:57:48Z</time>
      </trkpt>
      <trkpt lat="42.044682" lon="1.022966">
        <ele>982.235</ele>
        <time>2021-06-20T13:57:57Z</time>
      </trkpt>
      <trkpt lat="42.044637" lon="1.022831">
        <ele>983.295</ele>
        <time>2021-06-20T13:58:04Z</time>
      </trkpt>
      <trkpt lat="42.044640" lon="1.022810">
        <ele>983.413</ele>
        <time>2021-06-20T13:58:05Z</time>
      </trkpt>
      <trkpt lat="42.044654" lon="1.022763">
        <ele>983.877</ele>
        <time>2021-06-20T13:58:07Z</time>
      </trkpt>
      <trkpt lat="42.044682" lon="1.022704">
        <ele>984.461</ele>
        <time>2021-06-20T13:58:10Z</time>
      </trkpt>
      <trkpt lat="42.044736" lon="1.022638">
        <ele>985.427</ele>
        <time>2021-06-20T13:58:14Z</time>
      </trkpt>
      <trkpt lat="42.044776" lon="1.022530">
        <ele>986.408</ele>
        <time>2021-06-20T13:58:19Z</time>
      </trkpt>
      <trkpt lat="42.044774" lon="1.022339">
        <ele>987.484</ele>
        <time>2021-06-20T13:58:27Z</time>
      </trkpt>
      <trkpt lat="42.044774" lon="1.022314">
        <ele>987.623</ele>
        <time>2021-06-20T13:58:28Z</time>
      </trkpt>
      <trkpt lat="42.044809" lon="1.022156">
        <ele>988.230</ele>
        <time>2021-06-20T13:58:35Z</time>
      </trkpt>
      <trkpt lat="42.044843" lon="1.022102">
        <ele>988.672</ele>
        <time>2021-06-20T13:58:38Z</time>
      </trkpt>
      <trkpt lat="42.044896" lon="1.022048">
        <ele>989.276</ele>
        <time>2021-06-20T13:58:42Z</time>
      </trkpt>
      <trkpt lat="42.044944" lon="1.021980">
        <ele>989.637</ele>
        <time>2021-06-20T13:58:46Z</time>
      </trkpt>
      <trkpt lat="42.044965" lon="1.021943">
        <ele>990.217</ele>
        <time>2021-06-20T13:58:48Z</time>
      </trkpt>
      <trkpt lat="42.044998" lon="1.021881">
        <ele>990.625</ele>
        <time>2021-06-20T13:58:51Z</time>
      </trkpt>
      <trkpt lat="42.045034" lon="1.021748">
        <ele>991.681</ele>
        <time>2021-06-20T13:58:57Z</time>
      </trkpt>
      <trkpt lat="42.045033" lon="1.021724">
        <ele>991.861</ele>
        <time>2021-06-20T13:58:58Z</time>
      </trkpt>
      <trkpt lat="42.045012" lon="1.021640">
        <ele>992.417</ele>
        <time>2021-06-20T13:59:04Z</time>
      </trkpt>
      <trkpt lat="42.044841" lon="1.021583">
        <ele>995.008</ele>
        <time>2021-06-20T13:59:30Z</time>
      </trkpt>
      <trkpt lat="42.044800" lon="1.021580">
        <ele>995.685</ele>
        <time>2021-06-20T13:59:33Z</time>
      </trkpt>
      <trkpt lat="42.044773" lon="1.021582">
        <ele>996.044</ele>
        <time>2021-06-20T13:59:35Z</time>
      </trkpt>
      <trkpt lat="42.044752" lon="1.021574">
        <ele>996.641</ele>
        <time>2021-06-20T13:59:38Z</time>
      </trkpt>
      <trkpt lat="42.044689" lon="1.021519">
        <ele>997.863</ele>
        <time>2021-06-20T14:00:05Z</time>
      </trkpt>
      <trkpt lat="42.044617" lon="1.021407">
        <ele>998.237</ele>
        <time>2021-06-20T14:00:12Z</time>
      </trkpt>
      <trkpt lat="42.044501" lon="1.021237">
        <ele>998.828</ele>
        <time>2021-06-20T14:00:22Z</time>
      </trkpt>
      <trkpt lat="42.044487" lon="1.021223">
        <ele>999.018</ele>
        <time>2021-06-20T14:00:23Z</time>
      </trkpt>
      <trkpt lat="42.044384" lon="1.021171">
        <ele>999.696</ele>
        <time>2021-06-20T14:00:29Z</time>
      </trkpt>
      <trkpt lat="42.044339" lon="1.021149">
        <ele>999.832</ele>
        <time>2021-06-20T14:00:32Z</time>
      </trkpt>
      <trkpt lat="42.044281" lon="1.021109">
        <ele>1000.092</ele>
        <time>2021-06-20T14:00:36Z</time>
      </trkpt>
      <trkpt lat="42.044234" lon="1.021094">
        <ele>1000.811</ele>
        <time>2021-06-20T14:00:39Z</time>
      </trkpt>
      <trkpt lat="42.044176" lon="1.021097">
        <ele>1001.408</ele>
        <time>2021-06-20T14:00:43Z</time>
      </trkpt>
      <trkpt lat="42.044145" lon="1.021096">
        <ele>1001.880</ele>
        <time>2021-06-20T14:00:45Z</time>
      </trkpt>
      <trkpt lat="42.044073" lon="1.021127">
        <ele>1002.899</ele>
        <time>2021-06-20T14:00:50Z</time>
      </trkpt>
      <trkpt lat="42.044061" lon="1.021143">
        <ele>1003.056</ele>
        <time>2021-06-20T14:00:51Z</time>
      </trkpt>
      <trkpt lat="42.044025" lon="1.021215">
        <ele>1004.018</ele>
        <time>2021-06-20T14:00:55Z</time>
      </trkpt>
      <trkpt lat="42.043978" lon="1.021338">
        <ele>1004.842</ele>
        <time>2021-06-20T14:01:01Z</time>
      </trkpt>
      <trkpt lat="42.043970" lon="1.021357">
        <ele>1005.093</ele>
        <time>2021-06-20T14:01:02Z</time>
      </trkpt>
      <trkpt lat="42.043899" lon="1.021485">
        <ele>1006.253</ele>
        <time>2021-06-20T14:01:09Z</time>
      </trkpt>
      <trkpt lat="42.043857" lon="1.021526">
        <ele>1006.641</ele>
        <time>2021-06-20T14:01:12Z</time>
      </trkpt>
      <trkpt lat="42.043778" lon="1.021570">
        <ele>1007.238</ele>
        <time>2021-06-20T14:01:17Z</time>
      </trkpt>
      <trkpt lat="42.043708" lon="1.021572">
        <ele>1007.870</ele>
        <time>2021-06-20T14:01:21Z</time>
      </trkpt>
      <trkpt lat="42.043660" lon="1.021540">
        <ele>1008.017</ele>
        <time>2021-06-20T14:01:24Z</time>
      </trkpt>
      <trkpt lat="42.043605" lon="1.021495">
        <ele>1008.808</ele>
        <time>2021-06-20T14:01:28Z</time>
      </trkpt>
      <trkpt lat="42.043543" lon="1.021442">
        <ele>1009.260</ele>
        <time>2021-06-20T14:01:33Z</time>
      </trkpt>
      <trkpt lat="42.043529" lon="1.021429">
        <ele>1009.239</ele>
        <time>2021-06-20T14:01:34Z</time>
      </trkpt>
      <trkpt lat="42.043466" lon="1.021376">
        <ele>1010.286</ele>
        <time>2021-06-20T14:01:39Z</time>
      </trkpt>
      <trkpt lat="42.043424" lon="1.021345">
        <ele>1010.868</ele>
        <time>2021-06-20T14:01:42Z</time>
      </trkpt>
      <trkpt lat="42.043385" lon="1.021312">
        <ele>1011.422</ele>
        <time>2021-06-20T14:01:45Z</time>
      </trkpt>
      <trkpt lat="42.043331" lon="1.021237">
        <ele>1012.463</ele>
        <time>2021-06-20T14:01:50Z</time>
      </trkpt>
      <trkpt lat="42.043321" lon="1.021219">
        <ele>1012.693</ele>
        <time>2021-06-20T14:01:51Z</time>
      </trkpt>
      <trkpt lat="42.043286" lon="1.021153">
        <ele>1013.621</ele>
        <time>2021-06-20T14:01:55Z</time>
      </trkpt>
      <trkpt lat="42.043273" lon="1.021101">
        <ele>1014.463</ele>
        <time>2021-06-20T14:01:58Z</time>
      </trkpt>
      <trkpt lat="42.043264" lon="1.021063">
        <ele>1014.644</ele>
        <time>2021-06-20T14:02:00Z</time>
      </trkpt>
      <trkpt lat="42.043244" lon="1.020968">
        <ele>1015.618</ele>
        <time>2021-06-20T14:02:05Z</time>
      </trkpt>
      <trkpt lat="42.043241" lon="1.020949">
        <ele>1015.608</ele>
        <time>2021-06-20T14:02:06Z</time>
      </trkpt>
      <trkpt lat="42.043237" lon="1.020911">
        <ele>1016.033</ele>
        <time>2021-06-20T14:02:08Z</time>
      </trkpt>
      <trkpt lat="42.043221" lon="1.020838">
        <ele>1016.822</ele>
        <time>2021-06-20T14:02:12Z</time>
      </trkpt>
      <trkpt lat="42.043214" lon="1.020800">
        <ele>1017.259</ele>
        <time>2021-06-20T14:02:14Z</time>
      </trkpt>
      <trkpt lat="42.043211" lon="1.020745">
        <ele>1017.621</ele>
        <time>2021-06-20T14:02:17Z</time>
      </trkpt>
      <trkpt lat="42.043201" lon="1.020654">
        <ele>1018.695</ele>
        <time>2021-06-20T14:02:22Z</time>
      </trkpt>
      <trkpt lat="42.043202" lon="1.020636">
        <ele>1018.686</ele>
        <time>2021-06-20T14:02:23Z</time>
      </trkpt>
      <trkpt lat="42.043218" lon="1.020530">
        <ele>1019.616</ele>
        <time>2021-06-20T14:02:29Z</time>
      </trkpt>
      <trkpt lat="42.043216" lon="1.020513">
        <ele>1019.864</ele>
        <time>2021-06-20T14:02:30Z</time>
      </trkpt>
      <trkpt lat="42.043201" lon="1.020417">
        <ele>1020.869</ele>
        <time>2021-06-20T14:02:35Z</time>
      </trkpt>
      <trkpt lat="42.043175" lon="1.020319">
        <ele>1021.404</ele>
        <time>2021-06-20T14:02:40Z</time>
      </trkpt>
      <trkpt lat="42.043144" lon="1.020269">
        <ele>1022.024</ele>
        <time>2021-06-20T14:02:43Z</time>
      </trkpt>
      <trkpt lat="42.043085" lon="1.020233">
        <ele>1022.808</ele>
        <time>2021-06-20T14:02:47Z</time>
      </trkpt>
      <trkpt lat="42.043053" lon="1.020222">
        <ele>1023.273</ele>
        <time>2021-06-20T14:02:49Z</time>
      </trkpt>
      <trkpt lat="42.042937" lon="1.020198">
        <ele>1023.622</ele>
        <time>2021-06-20T14:02:56Z</time>
      </trkpt>
      <trkpt lat="42.042869" lon="1.020180">
        <ele>1024.479</ele>
        <time>2021-06-20T14:03:00Z</time>
      </trkpt>
      <trkpt lat="42.042770" lon="1.020148">
        <ele>1024.831</ele>
        <time>2021-06-20T14:03:06Z</time>
      </trkpt>
      <trkpt lat="42.042694" lon="1.020115">
        <ele>1025.435</ele>
        <time>2021-06-20T14:03:11Z</time>
      </trkpt>
      <trkpt lat="42.042648" lon="1.020088">
        <ele>1026.086</ele>
        <time>2021-06-20T14:03:14Z</time>
      </trkpt>
      <trkpt lat="42.042578" lon="1.020039">
        <ele>1026.676</ele>
        <time>2021-06-20T14:03:19Z</time>
      </trkpt>
      <trkpt lat="42.042537" lon="1.020000">
        <ele>1027.074</ele>
        <time>2021-06-20T14:03:22Z</time>
      </trkpt>
      <trkpt lat="42.042446" lon="1.019938">
        <ele>1027.465</ele>
        <time>2021-06-20T14:03:28Z</time>
      </trkpt>
      <trkpt lat="42.042414" lon="1.019923">
        <ele>1027.868</ele>
        <time>2021-06-20T14:03:30Z</time>
      </trkpt>
      <trkpt lat="42.042306" lon="1.019857">
        <ele>1028.614</ele>
        <time>2021-06-20T14:03:37Z</time>
      </trkpt>
      <trkpt lat="42.042275" lon="1.019839">
        <ele>1029.008</ele>
        <time>2021-06-20T14:03:39Z</time>
      </trkpt>
      <trkpt lat="42.042168" lon="1.019803">
        <ele>1029.653</ele>
        <time>2021-06-20T14:03:45Z</time>
      </trkpt>
      <trkpt lat="42.042098" lon="1.019777">
        <ele>1030.212</ele>
        <time>2021-06-20T14:03:49Z</time>
      </trkpt>
      <trkpt lat="42.042028" lon="1.019791">
        <ele>1030.899</ele>
        <time>2021-06-20T14:03:53Z</time>
      </trkpt>
      <trkpt lat="42.041990" lon="1.019833">
        <ele>1031.071</ele>
        <time>2021-06-20T14:03:56Z</time>
      </trkpt>
      <trkpt lat="42.041975" lon="1.019964">
        <ele>1031.695</ele>
        <time>2021-06-20T14:04:02Z</time>
      </trkpt>
      <trkpt lat="42.041980" lon="1.019987">
        <ele>1031.876</ele>
        <time>2021-06-20T14:04:03Z</time>
      </trkpt>
      <trkpt lat="42.041984" lon="1.020124">
        <ele>1032.616</ele>
        <time>2021-06-20T14:04:09Z</time>
      </trkpt>
      <trkpt lat="42.041988" lon="1.020172">
        <ele>1032.834</ele>
        <time>2021-06-20T14:04:11Z</time>
      </trkpt>
      <trkpt lat="42.041983" lon="1.020336">
        <ele>1033.459</ele>
        <time>2021-06-20T14:04:18Z</time>
      </trkpt>
      <trkpt lat="42.041979" lon="1.020383">
        <ele>1033.803</ele>
        <time>2021-06-20T14:04:20Z</time>
      </trkpt>
      <trkpt lat="42.041954" lon="1.020520">
        <ele>1034.623</ele>
        <time>2021-06-20T14:04:26Z</time>
      </trkpt>
      <trkpt lat="42.041924" lon="1.020607">
        <ele>1035.208</ele>
        <time>2021-06-20T14:04:30Z</time>
      </trkpt>
      <trkpt lat="42.041897" lon="1.020696">
        <ele>1035.652</ele>
        <time>2021-06-20T14:04:34Z</time>
      </trkpt>
      <trkpt lat="42.041881" lon="1.020761">
        <ele>1035.821</ele>
        <time>2021-06-20T14:04:37Z</time>
      </trkpt>
      <trkpt lat="42.041851" lon="1.020898">
        <ele>1036.678</ele>
        <time>2021-06-20T14:04:43Z</time>
      </trkpt>
      <trkpt lat="42.041848" lon="1.020971">
        <ele>1037.070</ele>
        <time>2021-06-20T14:04:46Z</time>
      </trkpt>
      <trkpt lat="42.041849" lon="1.021070">
        <ele>1037.824</ele>
        <time>2021-06-20T14:04:50Z</time>
      </trkpt>
      <trkpt lat="42.041853" lon="1.021194">
        <ele>1038.245</ele>
        <time>2021-06-20T14:04:55Z</time>
      </trkpt>
      <trkpt lat="42.041854" lon="1.021244">
        <ele>1038.415</ele>
        <time>2021-06-20T14:04:57Z</time>
      </trkpt>
      <trkpt lat="42.041853" lon="1.021294">
        <ele>1038.653</ele>
        <time>2021-06-20T14:04:59Z</time>
      </trkpt>
      <trkpt lat="42.041827" lon="1.021433">
        <ele>1039.437</ele>
        <time>2021-06-20T14:05:05Z</time>
      </trkpt>
      <trkpt lat="42.041807" lon="1.021473">
        <ele>1039.849</ele>
        <time>2021-06-20T14:05:07Z</time>
      </trkpt>
      <trkpt lat="42.041718" lon="1.021554">
        <ele>1040.413</ele>
        <time>2021-06-20T14:05:13Z</time>
      </trkpt>
      <trkpt lat="42.041645" lon="1.021576">
        <ele>1040.808</ele>
        <time>2021-06-20T14:05:17Z</time>
      </trkpt>
      <trkpt lat="42.041554" lon="1.021583">
        <ele>1041.850</ele>
        <time>2021-06-20T14:05:22Z</time>
      </trkpt>
      <trkpt lat="42.041537" lon="1.021581">
        <ele>1042.019</ele>
        <time>2021-06-20T14:05:23Z</time>
      </trkpt>
      <trkpt lat="42.041399" lon="1.021499">
        <ele>1043.026</ele>
        <time>2021-06-20T14:05:31Z</time>
      </trkpt>
      <trkpt lat="42.041257" lon="1.021408">
        <ele>1043.868</ele>
        <time>2021-06-20T14:05:39Z</time>
      </trkpt>
      <trkpt lat="42.041201" lon="1.021390">
        <ele>1044.062</ele>
        <time>2021-06-20T14:05:42Z</time>
      </trkpt>
      <trkpt lat="42.041130" lon="1.021412">
        <ele>1044.293</ele>
        <time>2021-06-20T14:05:46Z</time>
      </trkpt>
      <trkpt lat="42.041052" lon="1.021482">
        <ele>1044.883</ele>
        <time>2021-06-20T14:05:51Z</time>
      </trkpt>
      <trkpt lat="42.041009" lon="1.021529">
        <ele>1045.011</ele>
        <time>2021-06-20T14:05:54Z</time>
      </trkpt>
      <trkpt lat="42.040880" lon="1.021623">
        <ele>1045.813</ele>
        <time>2021-06-20T14:06:02Z</time>
      </trkpt>
      <trkpt lat="42.040862" lon="1.021628">
        <ele>1046.043</ele>
        <time>2021-06-20T14:06:03Z</time>
      </trkpt>
      <trkpt lat="42.040752" lon="1.021619">
        <ele>1046.607</ele>
        <time>2021-06-20T14:06:09Z</time>
      </trkpt>
      <trkpt lat="42.040735" lon="1.021620">
        <ele>1046.808</ele>
        <time>2021-06-20T14:06:10Z</time>
      </trkpt>
      <trkpt lat="42.040717" lon="1.021615">
        <ele>1047.068</ele>
        <time>2021-06-20T14:06:11Z</time>
      </trkpt>
      <trkpt lat="42.040588" lon="1.021551">
        <ele>1048.017</ele>
        <time>2021-06-20T14:06:18Z</time>
      </trkpt>
      <trkpt lat="42.040421" lon="1.021442">
        <ele>1048.434</ele>
        <time>2021-06-20T14:06:24Z</time>
      </trkpt>
      <trkpt lat="42.040348" lon="1.021394">
        <ele>1048.426</ele>
        <time>2021-06-20T14:06:28Z</time>
      </trkpt>
      <trkpt lat="42.040348" lon="1.021393">
        <ele>1048.010</ele>
        <time>2021-06-20T14:06:29Z</time>
      </trkpt>
      <trkpt lat="42.040236" lon="1.021305">
        <ele>1047.081</ele>
        <time>2021-06-20T14:11:03Z</time>
      </trkpt>
      <trkpt lat="42.040192" lon="1.021271">
        <ele>1047.091</ele>
        <time>2021-06-20T14:11:05Z</time>
      </trkpt>
      <trkpt lat="42.039988" lon="1.021101">
        <ele>1046.879</ele>
        <time>2021-06-20T14:11:12Z</time>
      </trkpt>
      <trkpt lat="42.039811" lon="1.020966">
        <ele>1045.498</ele>
        <time>2021-06-20T14:11:19Z</time>
      </trkpt>
      <trkpt lat="42.039799" lon="1.020957">
        <ele>1045.415</ele>
        <time>2021-06-20T14:11:22Z</time>
      </trkpt>
      <trkpt lat="42.039765" lon="1.020927">
        <ele>1045.626</ele>
        <time>2021-06-20T14:12:20Z</time>
      </trkpt>
      <trkpt lat="42.039695" lon="1.020871">
        <ele>1045.408</ele>
        <time>2021-06-20T14:12:25Z</time>
      </trkpt>
      <trkpt lat="42.039566" lon="1.020775">
        <ele>1045.456</ele>
        <time>2021-06-20T14:12:31Z</time>
      </trkpt>
      <trkpt lat="42.039478" lon="1.020671">
        <ele>1045.295</ele>
        <time>2021-06-20T14:12:35Z</time>
      </trkpt>
      <trkpt lat="42.039429" lon="1.020621">
        <ele>1045.242</ele>
        <time>2021-06-20T14:12:39Z</time>
      </trkpt>
      <trkpt lat="42.039380" lon="1.020591">
        <ele>1045.484</ele>
        <time>2021-06-20T14:13:01Z</time>
      </trkpt>
      <trkpt lat="42.039344" lon="1.020573">
        <ele>1045.258</ele>
        <time>2021-06-20T14:13:03Z</time>
      </trkpt>
      <trkpt lat="42.039217" lon="1.020474">
        <ele>1045.099</ele>
        <time>2021-06-20T14:13:08Z</time>
      </trkpt>
      <trkpt lat="42.038954" lon="1.020271">
        <ele>1044.489</ele>
        <time>2021-06-20T14:13:16Z</time>
      </trkpt>
      <trkpt lat="42.038872" lon="1.020204">
        <ele>1043.867</ele>
        <time>2021-06-20T14:13:18Z</time>
      </trkpt>
      <trkpt lat="42.038618" lon="1.019981">
        <ele>1043.029</ele>
        <time>2021-06-20T14:13:24Z</time>
      </trkpt>
      <trkpt lat="42.038530" lon="1.019902">
        <ele>1042.800</ele>
        <time>2021-06-20T14:13:26Z</time>
      </trkpt>
      <trkpt lat="42.038388" lon="1.019824">
        <ele>1042.620</ele>
        <time>2021-06-20T14:13:29Z</time>
      </trkpt>
      <trkpt lat="42.038023" lon="1.019725">
        <ele>1042.208</ele>
        <time>2021-06-20T14:13:36Z</time>
      </trkpt>
      <trkpt lat="42.037906" lon="1.019703">
        <ele>1041.429</ele>
        <time>2021-06-20T14:13:38Z</time>
      </trkpt>
      <trkpt lat="42.037846" lon="1.019703">
        <ele>1041.258</ele>
        <time>2021-06-20T14:13:39Z</time>
      </trkpt>
      <trkpt lat="42.037731" lon="1.019713">
        <ele>1041.055</ele>
        <time>2021-06-20T14:13:41Z</time>
      </trkpt>
      <trkpt lat="42.037508" lon="1.019742">
        <ele>1040.237</ele>
        <time>2021-06-20T14:13:45Z</time>
      </trkpt>
      <trkpt lat="42.037450" lon="1.019736">
        <ele>1039.011</ele>
        <time>2021-06-20T14:13:46Z</time>
      </trkpt>
      <trkpt lat="42.037329" lon="1.019716">
        <ele>1038.472</ele>
        <time>2021-06-20T14:13:48Z</time>
      </trkpt>
      <trkpt lat="42.037268" lon="1.019698">
        <ele>1037.882</ele>
        <time>2021-06-20T14:13:49Z</time>
      </trkpt>
      <trkpt lat="42.037086" lon="1.019609">
        <ele>1036.810</ele>
        <time>2021-06-20T14:13:52Z</time>
      </trkpt>
      <trkpt lat="42.037031" lon="1.019570">
        <ele>1036.273</ele>
        <time>2021-06-20T14:13:53Z</time>
      </trkpt>
      <trkpt lat="42.036975" lon="1.019539">
        <ele>1035.885</ele>
        <time>2021-06-20T14:13:54Z</time>
      </trkpt>
      <trkpt lat="42.036856" lon="1.019513">
        <ele>1034.213</ele>
        <time>2021-06-20T14:13:56Z</time>
      </trkpt>
      <trkpt lat="42.036736" lon="1.019520">
        <ele>1032.608</ele>
        <time>2021-06-20T14:13:58Z</time>
      </trkpt>
      <trkpt lat="42.036677" lon="1.019519">
        <ele>1032.234</ele>
        <time>2021-06-20T14:13:59Z</time>
      </trkpt>
      <trkpt lat="42.036621" lon="1.019500">
        <ele>1032.033</ele>
        <time>2021-06-20T14:14:00Z</time>
      </trkpt>
      <trkpt lat="42.036571" lon="1.019465">
        <ele>1031.680</ele>
        <time>2021-06-20T14:14:01Z</time>
      </trkpt>
      <trkpt lat="42.036448" lon="1.019334">
        <ele>1031.282</ele>
        <time>2021-06-20T14:14:04Z</time>
      </trkpt>
      <trkpt lat="42.036365" lon="1.019211">
        <ele>1031.216</ele>
        <time>2021-06-20T14:14:08Z</time>
      </trkpt>
      <trkpt lat="42.036350" lon="1.019193">
        <ele>1031.267</ele>
        <time>2021-06-20T14:14:09Z</time>
      </trkpt>
      <trkpt lat="42.036302" lon="1.019193">
        <ele>1031.287</ele>
        <time>2021-06-20T14:14:11Z</time>
      </trkpt>
      <trkpt lat="42.036256" lon="1.019196">
        <ele>1032.035</ele>
        <time>2021-06-20T14:14:15Z</time>
      </trkpt>
      <trkpt lat="42.036252" lon="1.019196">
        <ele>1032.225</ele>
        <time>2021-06-20T14:14:17Z</time>
      </trkpt>
      <trkpt lat="42.036230" lon="1.019203">
        <ele>1032.426</ele>
        <time>2021-06-20T14:14:46Z</time>
      </trkpt>
      <trkpt lat="42.036212" lon="1.019208">
        <ele>1032.408</ele>
        <time>2021-06-20T14:14:47Z</time>
      </trkpt>
      <trkpt lat="42.036071" lon="1.019241">
        <ele>1032.208</ele>
        <time>2021-06-20T14:14:52Z</time>
      </trkpt>
      <trkpt lat="42.035819" lon="1.019274">
        <ele>1030.679</ele>
        <time>2021-06-20T14:14:58Z</time>
      </trkpt>
      <trkpt lat="42.035724" lon="1.019298">
        <ele>1030.058</ele>
        <time>2021-06-20T14:15:00Z</time>
      </trkpt>
      <trkpt lat="42.035628" lon="1.019338">
        <ele>1029.655</ele>
        <time>2021-06-20T14:15:02Z</time>
      </trkpt>
      <trkpt lat="42.035538" lon="1.019411">
        <ele>1029.437</ele>
        <time>2021-06-20T14:15:04Z</time>
      </trkpt>
      <trkpt lat="42.035495" lon="1.019456">
        <ele>1029.411</ele>
        <time>2021-06-20T14:15:05Z</time>
      </trkpt>
      <trkpt lat="42.035416" lon="1.019558">
        <ele>1029.072</ele>
        <time>2021-06-20T14:15:07Z</time>
      </trkpt>
      <trkpt lat="42.035340" lon="1.019668">
        <ele>1029.072</ele>
        <time>2021-06-20T14:15:09Z</time>
      </trkpt>
      <trkpt lat="42.035258" lon="1.019778">
        <ele>1027.810</ele>
        <time>2021-06-20T14:15:11Z</time>
      </trkpt>
      <trkpt lat="42.035010" lon="1.020120">
        <ele>1026.636</ele>
        <time>2021-06-20T14:15:17Z</time>
      </trkpt>
      <trkpt lat="42.034921" lon="1.020245">
        <ele>1026.217</ele>
        <time>2021-06-20T14:15:19Z</time>
      </trkpt>
      <trkpt lat="42.034723" lon="1.020519">
        <ele>1025.618</ele>
        <time>2021-06-20T14:15:23Z</time>
      </trkpt>
      <trkpt lat="42.034514" lon="1.020804">
        <ele>1024.608</ele>
        <time>2021-06-20T14:15:27Z</time>
      </trkpt>
      <trkpt lat="42.034459" lon="1.020876">
        <ele>1024.420</ele>
        <time>2021-06-20T14:15:28Z</time>
      </trkpt>
      <trkpt lat="42.034297" lon="1.021099">
        <ele>1023.259</ele>
        <time>2021-06-20T14:15:31Z</time>
      </trkpt>
      <trkpt lat="42.034136" lon="1.021324">
        <ele>1021.856</ele>
        <time>2021-06-20T14:15:34Z</time>
      </trkpt>
      <trkpt lat="42.033977" lon="1.021547">
        <ele>1020.078</ele>
        <time>2021-06-20T14:15:37Z</time>
      </trkpt>
      <trkpt lat="42.033925" lon="1.021620">
        <ele>1019.422</ele>
        <time>2021-06-20T14:15:38Z</time>
      </trkpt>
      <trkpt lat="42.033822" lon="1.021762">
        <ele>1018.843</ele>
        <time>2021-06-20T14:15:40Z</time>
      </trkpt>
      <trkpt lat="42.033568" lon="1.022109">
        <ele>1017.443</ele>
        <time>2021-06-20T14:15:45Z</time>
      </trkpt>
      <trkpt lat="42.033521" lon="1.022182">
        <ele>1017.211</ele>
        <time>2021-06-20T14:15:46Z</time>
      </trkpt>
      <trkpt lat="42.033440" lon="1.022446">
        <ele>1016.245</ele>
        <time>2021-06-20T14:15:49Z</time>
      </trkpt>
      <trkpt lat="42.033444" lon="1.022739">
        <ele>1015.847</ele>
        <time>2021-06-20T14:15:52Z</time>
      </trkpt>
      <trkpt lat="42.033459" lon="1.022948">
        <ele>1015.811</ele>
        <time>2021-06-20T14:15:53Z</time>
      </trkpt>
      <trkpt lat="42.033459" lon="1.023164">
        <ele>1015.608</ele>
        <time>2021-06-20T14:15:56Z</time>
      </trkpt>
      <trkpt lat="42.033407" lon="1.023371">
        <ele>1015.481</ele>
        <time>2021-06-20T14:15:58Z</time>
      </trkpt>
      <trkpt lat="42.033360" lon="1.023462">
        <ele>1015.010</ele>
        <time>2021-06-20T14:15:59Z</time>
      </trkpt>
      <trkpt lat="42.033247" lon="1.023621">
        <ele>1014.617</ele>
        <time>2021-06-20T14:16:01Z</time>
      </trkpt>
      <trkpt lat="42.033188" lon="1.023696">
        <ele>1014.429</ele>
        <time>2021-06-20T14:16:02Z</time>
      </trkpt>
      <trkpt lat="42.033076" lon="1.023851">
        <ele>1013.073</ele>
        <time>2021-06-20T14:16:04Z</time>
      </trkpt>
      <trkpt lat="42.032997" lon="1.024038">
        <ele>1011.884</ele>
        <time>2021-06-20T14:16:06Z</time>
      </trkpt>
      <trkpt lat="42.032949" lon="1.024245">
        <ele>1010.464</ele>
        <time>2021-06-20T14:16:08Z</time>
      </trkpt>
      <trkpt lat="42.032921" lon="1.024343">
        <ele>1009.812</ele>
        <time>2021-06-20T14:16:09Z</time>
      </trkpt>
      <trkpt lat="42.032877" lon="1.024429">
        <ele>1009.463</ele>
        <time>2021-06-20T14:16:10Z</time>
      </trkpt>
      <trkpt lat="42.032817" lon="1.024490">
        <ele>1009.244</ele>
        <time>2021-06-20T14:16:11Z</time>
      </trkpt>
      <trkpt lat="42.032670" lon="1.024557">
        <ele>1008.418</ele>
        <time>2021-06-20T14:16:13Z</time>
      </trkpt>
      <trkpt lat="42.032592" lon="1.024573">
        <ele>1007.808</ele>
        <time>2021-06-20T14:16:14Z</time>
      </trkpt>
      <trkpt lat="42.032513" lon="1.024589">
        <ele>1007.493</ele>
        <time>2021-06-20T14:16:15Z</time>
      </trkpt>
      <trkpt lat="42.032438" lon="1.024624">
        <ele>1007.062</ele>
        <time>2021-06-20T14:16:16Z</time>
      </trkpt>
      <trkpt lat="42.032373" lon="1.024688">
        <ele>1006.419</ele>
        <time>2021-06-20T14:16:17Z</time>
      </trkpt>
      <trkpt lat="42.032324" lon="1.024777">
        <ele>1006.281</ele>
        <time>2021-06-20T14:16:18Z</time>
      </trkpt>
      <trkpt lat="42.032245" lon="1.025110">
        <ele>1005.625</ele>
        <time>2021-06-20T14:16:21Z</time>
      </trkpt>
      <trkpt lat="42.032203" lon="1.025335">
        <ele>1005.446</ele>
        <time>2021-06-20T14:16:23Z</time>
      </trkpt>
      <trkpt lat="42.032170" lon="1.025556">
        <ele>1004.486</ele>
        <time>2021-06-20T14:16:25Z</time>
      </trkpt>
      <trkpt lat="42.032141" lon="1.025773">
        <ele>1002.624</ele>
        <time>2021-06-20T14:16:27Z</time>
      </trkpt>
      <trkpt lat="42.032115" lon="1.025988">
        <ele>1000.853</ele>
        <time>2021-06-20T14:16:29Z</time>
      </trkpt>
      <trkpt lat="42.032074" lon="1.026197">
        <ele>1000.204</ele>
        <time>2021-06-20T14:16:31Z</time>
      </trkpt>
      <trkpt lat="42.032009" lon="1.026390">
        <ele>999.814</ele>
        <time>2021-06-20T14:16:33Z</time>
      </trkpt>
      <trkpt lat="42.031971" lon="1.026483">
        <ele>999.808</ele>
        <time>2021-06-20T14:16:34Z</time>
      </trkpt>
      <trkpt lat="42.031752" lon="1.026917">
        <ele>999.272</ele>
        <time>2021-06-20T14:16:39Z</time>
      </trkpt>
      <trkpt lat="42.031590" lon="1.027144">
        <ele>998.471</ele>
        <time>2021-06-20T14:16:42Z</time>
      </trkpt>
      <trkpt lat="42.031421" lon="1.027361">
        <ele>998.058</ele>
        <time>2021-06-20T14:16:45Z</time>
      </trkpt>
      <trkpt lat="42.031310" lon="1.027503">
        <ele>997.430</ele>
        <time>2021-06-20T14:16:47Z</time>
      </trkpt>
      <trkpt lat="42.031149" lon="1.027720">
        <ele>996.264</ele>
        <time>2021-06-20T14:16:50Z</time>
      </trkpt>
      <trkpt lat="42.030956" lon="1.028043">
        <ele>995.295</ele>
        <time>2021-06-20T14:16:54Z</time>
      </trkpt>
      <trkpt lat="42.030905" lon="1.028122">
        <ele>995.225</ele>
        <time>2021-06-20T14:16:55Z</time>
      </trkpt>
      <trkpt lat="42.030847" lon="1.028193">
        <ele>995.063</ele>
        <time>2021-06-20T14:16:56Z</time>
      </trkpt>
      <trkpt lat="42.030780" lon="1.028248">
        <ele>994.872</ele>
        <time>2021-06-20T14:16:57Z</time>
      </trkpt>
      <trkpt lat="42.030544" lon="1.028262">
        <ele>993.813</ele>
        <time>2021-06-20T14:17:00Z</time>
      </trkpt>
      <trkpt lat="42.030360" lon="1.028063">
        <ele>993.414</ele>
        <time>2021-06-20T14:17:03Z</time>
      </trkpt>
      <trkpt lat="42.030314" lon="1.027974">
        <ele>993.208</ele>
        <time>2021-06-20T14:17:04Z</time>
      </trkpt>
      <trkpt lat="42.030152" lon="1.027605">
        <ele>993.074</ele>
        <time>2021-06-20T14:17:08Z</time>
      </trkpt>
      <trkpt lat="42.030133" lon="1.027499">
        <ele>992.833</ele>
        <time>2021-06-20T14:17:09Z</time>
      </trkpt>
      <trkpt lat="42.030128" lon="1.027388">
        <ele>992.640</ele>
        <time>2021-06-20T14:17:10Z</time>
      </trkpt>
      <trkpt lat="42.030136" lon="1.027047">
        <ele>992.062</ele>
        <time>2021-06-20T14:17:13Z</time>
      </trkpt>
      <trkpt lat="42.030060" lon="1.026732">
        <ele>991.436</ele>
        <time>2021-06-20T14:17:16Z</time>
      </trkpt>
      <trkpt lat="42.030013" lon="1.026647">
        <ele>990.857</ele>
        <time>2021-06-20T14:17:17Z</time>
      </trkpt>
      <trkpt lat="42.029901" lon="1.026542">
        <ele>990.267</ele>
        <time>2021-06-20T14:17:19Z</time>
      </trkpt>
      <trkpt lat="42.029781" lon="1.026566">
        <ele>989.675</ele>
        <time>2021-06-20T14:17:21Z</time>
      </trkpt>
      <trkpt lat="42.029705" lon="1.026769">
        <ele>989.225</ele>
        <time>2021-06-20T14:17:24Z</time>
      </trkpt>
      <trkpt lat="42.029771" lon="1.027103">
        <ele>988.626</ele>
        <time>2021-06-20T14:17:28Z</time>
      </trkpt>
      <trkpt lat="42.029845" lon="1.027351">
        <ele>987.208</ele>
        <time>2021-06-20T14:17:31Z</time>
      </trkpt>
      <trkpt lat="42.029907" lon="1.027610">
        <ele>986.008</ele>
        <time>2021-06-20T14:17:34Z</time>
      </trkpt>
      <trkpt lat="42.029930" lon="1.027801">
        <ele>985.079</ele>
        <time>2021-06-20T14:17:36Z</time>
      </trkpt>
      <trkpt lat="42.029921" lon="1.027899">
        <ele>984.618</ele>
        <time>2021-06-20T14:17:37Z</time>
      </trkpt>
      <trkpt lat="42.029892" lon="1.027992">
        <ele>984.415</ele>
        <time>2021-06-20T14:17:38Z</time>
      </trkpt>
      <trkpt lat="42.029711" lon="1.028191">
        <ele>984.087</ele>
        <time>2021-06-20T14:17:41Z</time>
      </trkpt>
      <trkpt lat="42.029555" lon="1.028246">
        <ele>983.251</ele>
        <time>2021-06-20T14:17:43Z</time>
      </trkpt>
      <trkpt lat="42.029468" lon="1.028248">
        <ele>982.882</ele>
        <time>2021-06-20T14:17:44Z</time>
      </trkpt>
      <trkpt lat="42.029381" lon="1.028243">
        <ele>982.262</ele>
        <time>2021-06-20T14:17:45Z</time>
      </trkpt>
      <trkpt lat="42.029222" lon="1.028236">
        <ele>980.880</ele>
        <time>2021-06-20T14:17:47Z</time>
      </trkpt>
      <trkpt lat="42.029147" lon="1.028242">
        <ele>980.237</ele>
        <time>2021-06-20T14:17:48Z</time>
      </trkpt>
      <trkpt lat="42.029070" lon="1.028253">
        <ele>979.449</ele>
        <time>2021-06-20T14:17:49Z</time>
      </trkpt>
      <trkpt lat="42.028910" lon="1.028260">
        <ele>978.413</ele>
        <time>2021-06-20T14:17:51Z</time>
      </trkpt>
      <trkpt lat="42.028829" lon="1.028243">
        <ele>977.808</ele>
        <time>2021-06-20T14:17:52Z</time>
      </trkpt>
      <trkpt lat="42.028749" lon="1.028212">
        <ele>977.690</ele>
        <time>2021-06-20T14:17:53Z</time>
      </trkpt>
      <trkpt lat="42.028514" lon="1.028114">
        <ele>976.879</ele>
        <time>2021-06-20T14:17:56Z</time>
      </trkpt>
      <trkpt lat="42.028435" lon="1.028099">
        <ele>976.846</ele>
        <time>2021-06-20T14:17:57Z</time>
      </trkpt>
      <trkpt lat="42.028354" lon="1.028091">
        <ele>976.088</ele>
        <time>2021-06-20T14:17:58Z</time>
      </trkpt>
      <trkpt lat="42.028279" lon="1.028088">
        <ele>975.412</ele>
        <time>2021-06-20T14:17:59Z</time>
      </trkpt>
      <trkpt lat="42.028154" lon="1.028085">
        <ele>974.233</ele>
        <time>2021-06-20T14:18:01Z</time>
      </trkpt>
      <trkpt lat="42.028105" lon="1.028083">
        <ele>973.833</ele>
        <time>2021-06-20T14:18:02Z</time>
      </trkpt>
      <trkpt lat="42.028023" lon="1.028071">
        <ele>973.491</ele>
        <time>2021-06-20T14:18:05Z</time>
      </trkpt>
      <trkpt lat="42.028018" lon="1.028071">
        <ele>973.299</ele>
        <time>2021-06-20T14:18:07Z</time>
      </trkpt>
      <trkpt lat="42.027991" lon="1.028057">
        <ele>972.407</ele>
        <time>2021-06-20T14:18:53Z</time>
      </trkpt>
      <trkpt lat="42.027961" lon="1.028050">
        <ele>972.427</ele>
        <time>2021-06-20T14:18:54Z</time>
      </trkpt>
      <trkpt lat="42.027885" lon="1.028024">
        <ele>972.408</ele>
        <time>2021-06-20T14:18:56Z</time>
      </trkpt>
      <trkpt lat="42.027776" lon="1.027946">
        <ele>972.416</ele>
        <time>2021-06-20T14:18:58Z</time>
      </trkpt>
      <trkpt lat="42.027596" lon="1.027811">
        <ele>972.075</ele>
        <time>2021-06-20T14:19:01Z</time>
      </trkpt>
      <trkpt lat="42.027469" lon="1.027738">
        <ele>971.422</ele>
        <time>2021-06-20T14:19:03Z</time>
      </trkpt>
      <trkpt lat="42.027405" lon="1.027730">
        <ele>970.854</ele>
        <time>2021-06-20T14:19:04Z</time>
      </trkpt>
      <trkpt lat="42.027273" lon="1.027790">
        <ele>969.488</ele>
        <time>2021-06-20T14:19:06Z</time>
      </trkpt>
      <trkpt lat="42.027174" lon="1.027937">
        <ele>967.819</ele>
        <time>2021-06-20T14:19:08Z</time>
      </trkpt>
      <trkpt lat="42.027132" lon="1.028019">
        <ele>967.059</ele>
        <time>2021-06-20T14:19:09Z</time>
      </trkpt>
      <trkpt lat="42.027094" lon="1.028102">
        <ele>965.837</ele>
        <time>2021-06-20T14:19:10Z</time>
      </trkpt>
      <trkpt lat="42.027064" lon="1.028185">
        <ele>965.081</ele>
        <time>2021-06-20T14:19:11Z</time>
      </trkpt>
      <trkpt lat="42.027040" lon="1.028274">
        <ele>964.461</ele>
        <time>2021-06-20T14:19:12Z</time>
      </trkpt>
      <trkpt lat="42.027025" lon="1.028363">
        <ele>963.417</ele>
        <time>2021-06-20T14:19:13Z</time>
      </trkpt>
      <trkpt lat="42.027015" lon="1.028453">
        <ele>962.808</ele>
        <time>2021-06-20T14:19:14Z</time>
      </trkpt>
      <trkpt lat="42.026999" lon="1.028636">
        <ele>961.455</ele>
        <time>2021-06-20T14:19:16Z</time>
      </trkpt>
      <trkpt lat="42.027028" lon="1.028826">
        <ele>960.644</ele>
        <time>2021-06-20T14:19:18Z</time>
      </trkpt>
      <trkpt lat="42.027054" lon="1.028920">
        <ele>960.451</ele>
        <time>2021-06-20T14:19:19Z</time>
      </trkpt>
      <trkpt lat="42.027170" lon="1.029272">
        <ele>959.083</ele>
        <time>2021-06-20T14:19:23Z</time>
      </trkpt>
      <trkpt lat="42.027196" lon="1.029366">
        <ele>958.217</ele>
        <time>2021-06-20T14:19:24Z</time>
      </trkpt>
      <trkpt lat="42.027224" lon="1.029464">
        <ele>957.248</ele>
        <time>2021-06-20T14:19:25Z</time>
      </trkpt>
      <trkpt lat="42.027251" lon="1.029565">
        <ele>956.058</ele>
        <time>2021-06-20T14:19:26Z</time>
      </trkpt>
      <trkpt lat="42.027317" lon="1.029755">
        <ele>954.456</ele>
        <time>2021-06-20T14:19:28Z</time>
      </trkpt>
      <trkpt lat="42.027367" lon="1.029834">
        <ele>954.056</ele>
        <time>2021-06-20T14:19:29Z</time>
      </trkpt>
      <trkpt lat="42.027506" lon="1.029949">
        <ele>952.859</ele>
        <time>2021-06-20T14:19:31Z</time>
      </trkpt>
      <trkpt lat="42.027585" lon="1.029996">
        <ele>951.814</ele>
        <time>2021-06-20T14:19:32Z</time>
      </trkpt>
      <trkpt lat="42.027752" lon="1.030088">
        <ele>950.208</ele>
        <time>2021-06-20T14:19:34Z</time>
      </trkpt>
      <trkpt lat="42.027909" lon="1.030184">
        <ele>947.892</ele>
        <time>2021-06-20T14:19:36Z</time>
      </trkpt>
      <trkpt lat="42.027979" lon="1.030243">
        <ele>946.291</ele>
        <time>2021-06-20T14:19:37Z</time>
      </trkpt>
      <trkpt lat="42.028038" lon="1.030312">
        <ele>945.238</ele>
        <time>2021-06-20T14:19:38Z</time>
      </trkpt>
      <trkpt lat="42.028093" lon="1.030425">
        <ele>943.830</ele>
        <time>2021-06-20T14:19:39Z</time>
      </trkpt>
      <trkpt lat="42.028124" lon="1.030533">
        <ele>942.614</ele>
        <time>2021-06-20T14:19:40Z</time>
      </trkpt>
      <trkpt lat="42.028140" lon="1.030763">
        <ele>941.065</ele>
        <time>2021-06-20T14:19:42Z</time>
      </trkpt>
      <trkpt lat="42.028086" lon="1.031115">
        <ele>939.615</ele>
        <time>2021-06-20T14:19:45Z</time>
      </trkpt>
      <trkpt lat="42.028049" lon="1.031227">
        <ele>939.273</ele>
        <time>2021-06-20T14:19:46Z</time>
      </trkpt>
      <trkpt lat="42.027899" lon="1.031519">
        <ele>938.632</ele>
        <time>2021-06-20T14:19:48Z</time>
      </trkpt>
      <trkpt lat="42.027899" lon="1.031519">
        <ele>938.292</ele>
        <time>2021-06-20T14:19:49Z</time>
      </trkpt>
      <trkpt lat="42.027859" lon="1.031628">
        <ele>937.011</ele>
        <time>2021-06-20T14:19:50Z</time>
      </trkpt>
      <trkpt lat="42.027807" lon="1.031863">
        <ele>935.808</ele>
        <time>2021-06-20T14:19:52Z</time>
      </trkpt>
      <trkpt lat="42.027768" lon="1.032108">
        <ele>934.490</ele>
        <time>2021-06-20T14:19:54Z</time>
      </trkpt>
      <trkpt lat="42.027710" lon="1.032360">
        <ele>933.049</ele>
        <time>2021-06-20T14:19:56Z</time>
      </trkpt>
      <trkpt lat="42.027635" lon="1.032608">
        <ele>932.246</ele>
        <time>2021-06-20T14:19:57Z</time>
      </trkpt>
      <trkpt lat="42.027635" lon="1.032608">
        <ele>931.628</ele>
        <time>2021-06-20T14:19:58Z</time>
      </trkpt>
      <trkpt lat="42.027547" lon="1.032844">
        <ele>929.642</ele>
        <time>2021-06-20T14:20:00Z</time>
      </trkpt>
      <trkpt lat="42.027496" lon="1.032958">
        <ele>928.623</ele>
        <time>2021-06-20T14:20:01Z</time>
      </trkpt>
      <trkpt lat="42.027387" lon="1.033163">
        <ele>927.253</ele>
        <time>2021-06-20T14:20:03Z</time>
      </trkpt>
      <trkpt lat="42.027321" lon="1.033248">
        <ele>926.851</ele>
        <time>2021-06-20T14:20:04Z</time>
      </trkpt>
      <trkpt lat="42.027172" lon="1.033380">
        <ele>925.877</ele>
        <time>2021-06-20T14:20:06Z</time>
      </trkpt>
      <trkpt lat="42.027020" lon="1.033510">
        <ele>924.061</ele>
        <time>2021-06-20T14:20:08Z</time>
      </trkpt>
      <trkpt lat="42.026892" lon="1.033671">
        <ele>922.227</ele>
        <time>2021-06-20T14:20:10Z</time>
      </trkpt>
      <trkpt lat="42.026707" lon="1.033920">
        <ele>920.808</ele>
        <time>2021-06-20T14:20:13Z</time>
      </trkpt>
      <trkpt lat="42.026488" lon="1.034121">
        <ele>920.044</ele>
        <time>2021-06-20T14:20:15Z</time>
      </trkpt>
      <trkpt lat="42.026488" lon="1.034121">
        <ele>919.613</ele>
        <time>2021-06-20T14:20:16Z</time>
      </trkpt>
      <trkpt lat="42.026336" lon="1.034252">
        <ele>919.010</ele>
        <time>2021-06-20T14:20:17Z</time>
      </trkpt>
      <trkpt lat="42.026205" lon="1.034409">
        <ele>918.252</ele>
        <time>2021-06-20T14:20:20Z</time>
      </trkpt>
      <trkpt lat="42.026079" lon="1.034582">
        <ele>918.036</ele>
        <time>2021-06-20T14:20:21Z</time>
      </trkpt>
      <trkpt lat="42.025877" lon="1.034805">
        <ele>916.467</ele>
        <time>2021-06-20T14:20:25Z</time>
      </trkpt>
      <trkpt lat="42.025656" lon="1.034972">
        <ele>915.037</ele>
        <time>2021-06-20T14:20:27Z</time>
      </trkpt>
      <trkpt lat="42.025504" lon="1.035036">
        <ele>914.085</ele>
        <time>2021-06-20T14:20:29Z</time>
      </trkpt>
      <trkpt lat="42.025444" lon="1.035055">
        <ele>913.869</ele>
        <time>2021-06-20T14:20:31Z</time>
      </trkpt>
      <trkpt lat="42.025327" lon="1.035095">
        <ele>913.604</ele>
        <time>2021-06-20T14:20:33Z</time>
      </trkpt>
      <trkpt lat="42.025298" lon="1.035098">
        <ele>913.424</ele>
        <time>2021-06-20T14:20:37Z</time>
      </trkpt>
      <trkpt lat="42.025285" lon="1.035093">
        <ele>914.608</ele>
        <time>2021-06-20T14:22:10Z</time>
      </trkpt>
      <trkpt lat="42.025240" lon="1.035117">
        <ele>914.613</ele>
        <time>2021-06-20T14:22:13Z</time>
      </trkpt>
      <trkpt lat="42.025136" lon="1.035185">
        <ele>914.452</ele>
        <time>2021-06-20T14:22:17Z</time>
      </trkpt>
      <trkpt lat="42.025049" lon="1.035278">
        <ele>914.069</ele>
        <time>2021-06-20T14:22:20Z</time>
      </trkpt>
      <trkpt lat="42.024931" lon="1.035432">
        <ele>913.271</ele>
        <time>2021-06-20T14:22:23Z</time>
      </trkpt>
      <trkpt lat="42.024808" lon="1.035598">
        <ele>912.425</ele>
        <time>2021-06-20T14:22:27Z</time>
      </trkpt>
      <trkpt lat="42.024688" lon="1.035619">
        <ele>912.476</ele>
        <time>2021-06-20T14:22:29Z</time>
      </trkpt>
      <trkpt lat="42.024544" lon="1.035594">
        <ele>912.096</ele>
        <time>2021-06-20T14:22:32Z</time>
      </trkpt>
      <trkpt lat="42.024471" lon="1.035574">
        <ele>912.014</ele>
        <time>2021-06-20T14:22:33Z</time>
      </trkpt>
      <trkpt lat="42.024392" lon="1.035541">
        <ele>911.857</ele>
        <time>2021-06-20T14:22:34Z</time>
      </trkpt>
      <trkpt lat="42.024145" lon="1.035421">
        <ele>910.600</ele>
        <time>2021-06-20T14:22:37Z</time>
      </trkpt>
      <trkpt lat="42.023978" lon="1.035325">
        <ele>909.220</ele>
        <time>2021-06-20T14:22:39Z</time>
      </trkpt>
      <trkpt lat="42.023832" lon="1.035188">
        <ele>907.808</ele>
        <time>2021-06-20T14:22:41Z</time>
      </trkpt>
      <trkpt lat="42.023708" lon="1.035032">
        <ele>905.612</ele>
        <time>2021-06-20T14:22:43Z</time>
      </trkpt>
      <trkpt lat="42.023605" lon="1.034903">
        <ele>903.671</ele>
        <time>2021-06-20T14:22:45Z</time>
      </trkpt>
      <trkpt lat="42.023479" lon="1.034809">
        <ele>902.058</ele>
        <time>2021-06-20T14:22:47Z</time>
      </trkpt>
      <trkpt lat="42.023338" lon="1.034765">
        <ele>900.870</ele>
        <time>2021-06-20T14:22:49Z</time>
      </trkpt>
      <trkpt lat="42.023261" lon="1.034761">
        <ele>899.684</ele>
        <time>2021-06-20T14:22:50Z</time>
      </trkpt>
      <trkpt lat="42.023182" lon="1.034767">
        <ele>899.015</ele>
        <time>2021-06-20T14:22:51Z</time>
      </trkpt>
      <trkpt lat="42.023102" lon="1.034775">
        <ele>898.635</ele>
        <time>2021-06-20T14:22:52Z</time>
      </trkpt>
      <trkpt lat="42.022940" lon="1.034804">
        <ele>898.023</ele>
        <time>2021-06-20T14:22:54Z</time>
      </trkpt>
      <trkpt lat="42.022857" lon="1.034825">
        <ele>897.244</ele>
        <time>2021-06-20T14:22:55Z</time>
      </trkpt>
      <trkpt lat="42.022773" lon="1.034839">
        <ele>896.805</ele>
        <time>2021-06-20T14:22:56Z</time>
      </trkpt>
      <trkpt lat="42.022690" lon="1.034837">
        <ele>896.415</ele>
        <time>2021-06-20T14:22:57Z</time>
      </trkpt>
      <trkpt lat="42.022609" lon="1.034812">
        <ele>896.008</ele>
        <time>2021-06-20T14:22:58Z</time>
      </trkpt>
      <trkpt lat="42.022452" lon="1.034699">
        <ele>894.871</ele>
        <time>2021-06-20T14:23:00Z</time>
      </trkpt>
      <trkpt lat="42.022216" lon="1.034492">
        <ele>893.620</ele>
        <time>2021-06-20T14:23:03Z</time>
      </trkpt>
      <trkpt lat="42.021978" lon="1.034265">
        <ele>892.297</ele>
        <time>2021-06-20T14:23:06Z</time>
      </trkpt>
      <trkpt lat="42.021897" lon="1.034186">
        <ele>890.479</ele>
        <time>2021-06-20T14:23:07Z</time>
      </trkpt>
      <trkpt lat="42.021818" lon="1.034103">
        <ele>889.273</ele>
        <time>2021-06-20T14:23:08Z</time>
      </trkpt>
      <trkpt lat="42.021659" lon="1.033937">
        <ele>887.814</ele>
        <time>2021-06-20T14:23:10Z</time>
      </trkpt>
      <trkpt lat="42.021578" lon="1.033855">
        <ele>886.824</ele>
        <time>2021-06-20T14:23:11Z</time>
      </trkpt>
      <trkpt lat="42.021495" lon="1.033772">
        <ele>885.612</ele>
        <time>2021-06-20T14:23:12Z</time>
      </trkpt>
      <trkpt lat="42.021320" lon="1.033622">
        <ele>884.276</ele>
        <time>2021-06-20T14:23:14Z</time>
      </trkpt>
      <trkpt lat="42.021132" lon="1.033496">
        <ele>883.090</ele>
        <time>2021-06-20T14:23:16Z</time>
      </trkpt>
      <trkpt lat="42.020842" lon="1.033327">
        <ele>881.419</ele>
        <time>2021-06-20T14:23:19Z</time>
      </trkpt>
      <trkpt lat="42.020751" lon="1.033270">
        <ele>880.408</ele>
        <time>2021-06-20T14:23:20Z</time>
      </trkpt>
      <trkpt lat="42.020666" lon="1.033215">
        <ele>879.284</ele>
        <time>2021-06-20T14:23:21Z</time>
      </trkpt>
      <trkpt lat="42.020587" lon="1.033163">
        <ele>877.833</ele>
        <time>2021-06-20T14:23:22Z</time>
      </trkpt>
      <trkpt lat="42.020514" lon="1.033116">
        <ele>876.410</ele>
        <time>2021-06-20T14:23:23Z</time>
      </trkpt>
      <trkpt lat="42.020449" lon="1.033078">
        <ele>875.812</ele>
        <time>2021-06-20T14:23:24Z</time>
      </trkpt>
      <trkpt lat="42.020389" lon="1.033054">
        <ele>875.416</ele>
        <time>2021-06-20T14:23:25Z</time>
      </trkpt>
      <trkpt lat="42.020331" lon="1.033051">
        <ele>875.247</ele>
        <time>2021-06-20T14:23:26Z</time>
      </trkpt>
      <trkpt lat="42.020275" lon="1.033070">
        <ele>875.087</ele>
        <time>2021-06-20T14:23:27Z</time>
      </trkpt>
      <trkpt lat="42.020134" lon="1.033243">
        <ele>874.625</ele>
        <time>2021-06-20T14:23:30Z</time>
      </trkpt>
      <trkpt lat="42.020043" lon="1.033391">
        <ele>874.235</ele>
        <time>2021-06-20T14:23:32Z</time>
      </trkpt>
      <trkpt lat="42.019836" lon="1.033710">
        <ele>873.886</ele>
        <time>2021-06-20T14:23:36Z</time>
      </trkpt>
      <trkpt lat="42.019647" lon="1.033969">
        <ele>873.014</ele>
        <time>2021-06-20T14:23:39Z</time>
      </trkpt>
      <trkpt lat="42.019495" lon="1.034127">
        <ele>871.808</ele>
        <time>2021-06-20T14:23:41Z</time>
      </trkpt>
      <trkpt lat="42.019336" lon="1.034282">
        <ele>870.610</ele>
        <time>2021-06-20T14:23:43Z</time>
      </trkpt>
      <trkpt lat="42.019178" lon="1.034430">
        <ele>869.279</ele>
        <time>2021-06-20T14:23:45Z</time>
      </trkpt>
      <trkpt lat="42.019029" lon="1.034579">
        <ele>866.876</ele>
        <time>2021-06-20T14:23:47Z</time>
      </trkpt>
      <trkpt lat="42.018890" lon="1.034717">
        <ele>865.628</ele>
        <time>2021-06-20T14:23:49Z</time>
      </trkpt>
      <trkpt lat="42.018747" lon="1.034785">
        <ele>864.282</ele>
        <time>2021-06-20T14:23:51Z</time>
      </trkpt>
      <trkpt lat="42.018673" lon="1.034777">
        <ele>863.243</ele>
        <time>2021-06-20T14:23:52Z</time>
      </trkpt>
      <trkpt lat="42.018602" lon="1.034738">
        <ele>862.213</ele>
        <time>2021-06-20T14:23:53Z</time>
      </trkpt>
      <trkpt lat="42.018468" lon="1.034613">
        <ele>861.221</ele>
        <time>2021-06-20T14:23:55Z</time>
      </trkpt>
      <trkpt lat="42.018186" lon="1.034371">
        <ele>860.031</ele>
        <time>2021-06-20T14:23:59Z</time>
      </trkpt>
      <trkpt lat="42.018022" lon="1.034291">
        <ele>859.661</ele>
        <time>2021-06-20T14:24:01Z</time>
      </trkpt>
      <trkpt lat="42.017935" lon="1.034270">
        <ele>858.407</ele>
        <time>2021-06-20T14:24:02Z</time>
      </trkpt>
      <trkpt lat="42.017757" lon="1.034247">
        <ele>856.808</ele>
        <time>2021-06-20T14:24:04Z</time>
      </trkpt>
      <trkpt lat="42.017578" lon="1.034237">
        <ele>855.820</ele>
        <time>2021-06-20T14:24:06Z</time>
      </trkpt>
      <trkpt lat="42.017488" lon="1.034219">
        <ele>855.219</ele>
        <time>2021-06-20T14:24:07Z</time>
      </trkpt>
      <trkpt lat="42.017401" lon="1.034182">
        <ele>854.416</ele>
        <time>2021-06-20T14:24:08Z</time>
      </trkpt>
      <trkpt lat="42.017318" lon="1.034126">
        <ele>853.488</ele>
        <time>2021-06-20T14:24:09Z</time>
      </trkpt>
      <trkpt lat="42.017240" lon="1.034054">
        <ele>852.832</ele>
        <time>2021-06-20T14:24:10Z</time>
      </trkpt>
      <trkpt lat="42.017161" lon="1.033980">
        <ele>852.693</ele>
        <time>2021-06-20T14:24:11Z</time>
      </trkpt>
      <trkpt lat="42.016831" lon="1.033700">
        <ele>851.883</ele>
        <time>2021-06-20T14:24:15Z</time>
      </trkpt>
      <trkpt lat="42.016653" lon="1.033621">
        <ele>850.491</ele>
        <time>2021-06-20T14:24:17Z</time>
      </trkpt>
      <trkpt lat="42.016562" lon="1.033608">
        <ele>850.063</ele>
        <time>2021-06-20T14:24:18Z</time>
      </trkpt>
      <trkpt lat="42.016473" lon="1.033606">
        <ele>849.244</ele>
        <time>2021-06-20T14:24:19Z</time>
      </trkpt>
      <trkpt lat="42.016384" lon="1.033607">
        <ele>848.418</ele>
        <time>2021-06-20T14:24:20Z</time>
      </trkpt>
      <trkpt lat="42.016295" lon="1.033608">
        <ele>847.808</ele>
        <time>2021-06-20T14:24:21Z</time>
      </trkpt>
      <trkpt lat="42.016210" lon="1.033608">
        <ele>846.623</ele>
        <time>2021-06-20T14:24:22Z</time>
      </trkpt>
      <trkpt lat="42.016046" lon="1.033612">
        <ele>845.462</ele>
        <time>2021-06-20T14:24:24Z</time>
      </trkpt>
      <trkpt lat="42.015813" lon="1.033612">
        <ele>844.629</ele>
        <time>2021-06-20T14:24:27Z</time>
      </trkpt>
      <trkpt lat="42.015681" lon="1.033547">
        <ele>844.421</ele>
        <time>2021-06-20T14:24:29Z</time>
      </trkpt>
      <trkpt lat="42.015604" lon="1.033335">
        <ele>844.425</ele>
        <time>2021-06-20T14:24:32Z</time>
      </trkpt>
      <trkpt lat="42.015709" lon="1.033137">
        <ele>844.666</ele>
        <time>2021-06-20T14:24:35Z</time>
      </trkpt>
      <trkpt lat="42.015855" lon="1.033127">
        <ele>844.476</ele>
        <time>2021-06-20T14:24:37Z</time>
      </trkpt>
      <trkpt lat="42.015935" lon="1.033149">
        <ele>844.464</ele>
        <time>2021-06-20T14:24:38Z</time>
      </trkpt>
      <trkpt lat="42.016293" lon="1.033240">
        <ele>844.265</ele>
        <time>2021-06-20T14:24:42Z</time>
      </trkpt>
      <trkpt lat="42.016391" lon="1.033250">
        <ele>844.068</ele>
        <time>2021-06-20T14:24:43Z</time>
      </trkpt>
      <trkpt lat="42.016680" lon="1.033208">
        <ele>843.014</ele>
        <time>2021-06-20T14:24:46Z</time>
      </trkpt>
      <trkpt lat="42.016873" lon="1.033166">
        <ele>841.608</ele>
        <time>2021-06-20T14:24:48Z</time>
      </trkpt>
      <trkpt lat="42.016969" lon="1.033151">
        <ele>840.473</ele>
        <time>2021-06-20T14:24:49Z</time>
      </trkpt>
      <trkpt lat="42.017065" lon="1.033145">
        <ele>839.472</ele>
        <time>2021-06-20T14:24:50Z</time>
      </trkpt>
      <trkpt lat="42.017161" lon="1.033159">
        <ele>838.079</ele>
        <time>2021-06-20T14:24:51Z</time>
      </trkpt>
      <trkpt lat="42.017352" lon="1.033240">
        <ele>836.841</ele>
        <time>2021-06-20T14:24:53Z</time>
      </trkpt>
      <trkpt lat="42.017446" lon="1.033295">
        <ele>836.275</ele>
        <time>2021-06-20T14:24:54Z</time>
      </trkpt>
      <trkpt lat="42.017633" lon="1.033398">
        <ele>835.646</ele>
        <time>2021-06-20T14:24:56Z</time>
      </trkpt>
      <trkpt lat="42.017730" lon="1.033436">
        <ele>834.816</ele>
        <time>2021-06-20T14:24:57Z</time>
      </trkpt>
      <trkpt lat="42.017831" lon="1.033455">
        <ele>834.464</ele>
        <time>2021-06-20T14:24:58Z</time>
      </trkpt>
      <trkpt lat="42.018035" lon="1.033460">
        <ele>833.296</ele>
        <time>2021-06-20T14:25:00Z</time>
      </trkpt>
      <trkpt lat="42.018236" lon="1.033461">
        <ele>832.031</ele>
        <time>2021-06-20T14:25:02Z</time>
      </trkpt>
      <trkpt lat="42.018330" lon="1.033465">
        <ele>831.824</ele>
        <time>2021-06-20T14:25:03Z</time>
      </trkpt>
      <trkpt lat="42.018418" lon="1.033463">
        <ele>831.408</ele>
        <time>2021-06-20T14:25:04Z</time>
      </trkpt>
      <trkpt lat="42.018502" lon="1.033444">
        <ele>830.846</ele>
        <time>2021-06-20T14:25:05Z</time>
      </trkpt>
      <trkpt lat="42.018581" lon="1.033403">
        <ele>830.445</ele>
        <time>2021-06-20T14:25:06Z</time>
      </trkpt>
      <trkpt lat="42.018653" lon="1.033338">
        <ele>829.412</ele>
        <time>2021-06-20T14:25:07Z</time>
      </trkpt>
      <trkpt lat="42.018716" lon="1.033254">
        <ele>828.254</ele>
        <time>2021-06-20T14:25:08Z</time>
      </trkpt>
      <trkpt lat="42.018773" lon="1.033162">
        <ele>827.268</ele>
        <time>2021-06-20T14:25:09Z</time>
      </trkpt>
      <trkpt lat="42.018890" lon="1.032970">
        <ele>826.059</ele>
        <time>2021-06-20T14:25:11Z</time>
      </trkpt>
      <trkpt lat="42.019056" lon="1.032654">
        <ele>824.839</ele>
        <time>2021-06-20T14:25:14Z</time>
      </trkpt>
      <trkpt lat="42.019108" lon="1.032540">
        <ele>824.467</ele>
        <time>2021-06-20T14:25:15Z</time>
      </trkpt>
      <trkpt lat="42.019159" lon="1.032422">
        <ele>823.459</ele>
        <time>2021-06-20T14:25:16Z</time>
      </trkpt>
      <trkpt lat="42.019208" lon="1.032301">
        <ele>822.003</ele>
        <time>2021-06-20T14:25:17Z</time>
      </trkpt>
      <trkpt lat="42.019310" lon="1.032053">
        <ele>820.823</ele>
        <time>2021-06-20T14:25:19Z</time>
      </trkpt>
      <trkpt lat="42.019478" lon="1.031699">
        <ele>819.808</ele>
        <time>2021-06-20T14:25:22Z</time>
      </trkpt>
      <trkpt lat="42.019547" lon="1.031598">
        <ele>819.212</ele>
        <time>2021-06-20T14:25:23Z</time>
      </trkpt>
      <trkpt lat="42.019719" lon="1.031441">
        <ele>817.881</ele>
        <time>2021-06-20T14:25:25Z</time>
      </trkpt>
      <trkpt lat="42.019813" lon="1.031378">
        <ele>816.898</ele>
        <time>2021-06-20T14:25:26Z</time>
      </trkpt>
      <trkpt lat="42.020006" lon="1.031266">
        <ele>815.620</ele>
        <time>2021-06-20T14:25:28Z</time>
      </trkpt>
      <trkpt lat="42.020193" lon="1.031164">
        <ele>814.664</ele>
        <time>2021-06-20T14:25:30Z</time>
      </trkpt>
      <trkpt lat="42.020280" lon="1.031107">
        <ele>813.815</ele>
        <time>2021-06-20T14:25:31Z</time>
      </trkpt>
      <trkpt lat="42.020363" lon="1.031041">
        <ele>812.845</ele>
        <time>2021-06-20T14:25:32Z</time>
      </trkpt>
      <trkpt lat="42.020516" lon="1.030894">
        <ele>811.463</ele>
        <time>2021-06-20T14:25:34Z</time>
      </trkpt>
      <trkpt lat="42.020588" lon="1.030818">
        <ele>810.825</ele>
        <time>2021-06-20T14:25:35Z</time>
      </trkpt>
      <trkpt lat="42.020657" lon="1.030742">
        <ele>810.426</ele>
        <time>2021-06-20T14:25:36Z</time>
      </trkpt>
      <trkpt lat="42.020870" lon="1.030462">
        <ele>809.208</ele>
        <time>2021-06-20T14:25:40Z</time>
      </trkpt>
      <trkpt lat="42.020902" lon="1.030281">
        <ele>808.408</ele>
        <time>2021-06-20T14:25:43Z</time>
      </trkpt>
      <trkpt lat="42.020860" lon="1.030152">
        <ele>808.289</ele>
        <time>2021-06-20T14:25:46Z</time>
      </trkpt>
      <trkpt lat="42.020836" lon="1.030115">
        <ele>808.248</ele>
        <time>2021-06-20T14:25:47Z</time>
      </trkpt>
      <trkpt lat="42.020748" lon="1.030011">
        <ele>808.275</ele>
        <time>2021-06-20T14:25:50Z</time>
      </trkpt>
      <trkpt lat="42.020712" lon="1.029980">
        <ele>808.077</ele>
        <time>2021-06-20T14:25:51Z</time>
      </trkpt>
      <trkpt lat="42.020668" lon="1.029949">
        <ele>808.091</ele>
        <time>2021-06-20T14:25:52Z</time>
      </trkpt>
      <trkpt lat="42.020515" lon="1.029922">
        <ele>808.022</ele>
        <time>2021-06-20T14:25:55Z</time>
      </trkpt>
      <trkpt lat="42.020461" lon="1.029927">
        <ele>808.072</ele>
        <time>2021-06-20T14:25:56Z</time>
      </trkpt>
      <trkpt lat="42.020074" lon="1.029916">
        <ele>807.050</ele>
        <time>2021-06-20T14:26:02Z</time>
      </trkpt>
      <trkpt lat="42.020001" lon="1.029901">
        <ele>806.671</ele>
        <time>2021-06-20T14:26:03Z</time>
      </trkpt>
      <trkpt lat="42.019849" lon="1.029857">
        <ele>805.441</ele>
        <time>2021-06-20T14:26:05Z</time>
      </trkpt>
      <trkpt lat="42.019689" lon="1.029799">
        <ele>803.615</ele>
        <time>2021-06-20T14:26:07Z</time>
      </trkpt>
      <trkpt lat="42.019425" lon="1.029708">
        <ele>802.408</ele>
        <time>2021-06-20T14:26:10Z</time>
      </trkpt>
      <trkpt lat="42.019237" lon="1.029638">
        <ele>801.424</ele>
        <time>2021-06-20T14:26:12Z</time>
      </trkpt>
      <trkpt lat="42.019035" lon="1.029572">
        <ele>800.073</ele>
        <time>2021-06-20T14:26:14Z</time>
      </trkpt>
      <trkpt lat="42.018830" lon="1.029510">
        <ele>798.470</ele>
        <time>2021-06-20T14:26:16Z</time>
      </trkpt>
      <trkpt lat="42.018730" lon="1.029470">
        <ele>796.832</ele>
        <time>2021-06-20T14:26:17Z</time>
      </trkpt>
      <trkpt lat="42.018632" lon="1.029412">
        <ele>795.836</ele>
        <time>2021-06-20T14:26:18Z</time>
      </trkpt>
      <trkpt lat="42.018451" lon="1.029256">
        <ele>794.697</ele>
        <time>2021-06-20T14:26:20Z</time>
      </trkpt>
      <trkpt lat="42.018280" lon="1.029091">
        <ele>791.837</ele>
        <time>2021-06-20T14:26:22Z</time>
      </trkpt>
      <trkpt lat="42.018194" lon="1.029013">
        <ele>790.615</ele>
        <time>2021-06-20T14:26:23Z</time>
      </trkpt>
      <trkpt lat="42.018109" lon="1.028937">
        <ele>789.493</ele>
        <time>2021-06-20T14:26:24Z</time>
      </trkpt>
      <trkpt lat="42.018025" lon="1.028858">
        <ele>788.265</ele>
        <time>2021-06-20T14:26:25Z</time>
      </trkpt>
      <trkpt lat="42.017942" lon="1.028776">
        <ele>786.821</ele>
        <time>2021-06-20T14:26:26Z</time>
      </trkpt>
      <trkpt lat="42.017859" lon="1.028697">
        <ele>785.608</ele>
        <time>2021-06-20T14:26:27Z</time>
      </trkpt>
      <trkpt lat="42.017685" lon="1.028556">
        <ele>784.466</ele>
        <time>2021-06-20T14:26:29Z</time>
      </trkpt>
      <trkpt lat="42.017593" lon="1.028501">
        <ele>784.035</ele>
        <time>2021-06-20T14:26:30Z</time>
      </trkpt>
      <trkpt lat="42.017393" lon="1.028429">
        <ele>783.432</ele>
        <time>2021-06-20T14:26:32Z</time>
      </trkpt>
      <trkpt lat="42.016975" lon="1.028367">
        <ele>782.414</ele>
        <time>2021-06-20T14:26:36Z</time>
      </trkpt>
      <trkpt lat="42.016874" lon="1.028372">
        <ele>782.248</ele>
        <time>2021-06-20T14:26:37Z</time>
      </trkpt>
      <trkpt lat="42.016677" lon="1.028409">
        <ele>781.049</ele>
        <time>2021-06-20T14:26:39Z</time>
      </trkpt>
      <trkpt lat="42.016479" lon="1.028488">
        <ele>780.289</ele>
        <time>2021-06-20T14:26:41Z</time>
      </trkpt>
      <trkpt lat="42.016379" lon="1.028532">
        <ele>779.627</ele>
        <time>2021-06-20T14:26:42Z</time>
      </trkpt>
      <trkpt lat="42.016173" lon="1.028635">
        <ele>777.815</ele>
        <time>2021-06-20T14:26:44Z</time>
      </trkpt>
      <trkpt lat="42.015965" lon="1.028742">
        <ele>776.665</ele>
        <time>2021-06-20T14:26:46Z</time>
      </trkpt>
      <trkpt lat="42.015859" lon="1.028795">
        <ele>775.811</ele>
        <time>2021-06-20T14:26:47Z</time>
      </trkpt>
      <trkpt lat="42.015753" lon="1.028848">
        <ele>774.408</ele>
        <time>2021-06-20T14:26:48Z</time>
      </trkpt>
      <trkpt lat="42.015649" lon="1.028899">
        <ele>772.088</ele>
        <time>2021-06-20T14:26:49Z</time>
      </trkpt>
      <trkpt lat="42.015443" lon="1.029001">
        <ele>770.637</ele>
        <time>2021-06-20T14:26:51Z</time>
      </trkpt>
      <trkpt lat="42.015237" lon="1.029105">
        <ele>768.634</ele>
        <time>2021-06-20T14:26:53Z</time>
      </trkpt>
      <trkpt lat="42.015134" lon="1.029156">
        <ele>767.676</ele>
        <time>2021-06-20T14:26:54Z</time>
      </trkpt>
      <trkpt lat="42.015032" lon="1.029207">
        <ele>767.030</ele>
        <time>2021-06-20T14:26:55Z</time>
      </trkpt>
      <trkpt lat="42.014928" lon="1.029257">
        <ele>766.481</ele>
        <time>2021-06-20T14:26:56Z</time>
      </trkpt>
      <trkpt lat="42.014608" lon="1.029369">
        <ele>765.011</ele>
        <time>2021-06-20T14:26:59Z</time>
      </trkpt>
      <trkpt lat="42.014498" lon="1.029391">
        <ele>763.639</ele>
        <time>2021-06-20T14:27:00Z</time>
      </trkpt>
      <trkpt lat="42.014269" lon="1.029437">
        <ele>761.826</ele>
        <time>2021-06-20T14:27:02Z</time>
      </trkpt>
      <trkpt lat="42.014039" lon="1.029490">
        <ele>759.847</ele>
        <time>2021-06-20T14:27:04Z</time>
      </trkpt>
      <trkpt lat="42.013814" lon="1.029546">
        <ele>758.011</ele>
        <time>2021-06-20T14:27:06Z</time>
      </trkpt>
      <trkpt lat="42.013705" lon="1.029583">
        <ele>757.208</ele>
        <time>2021-06-20T14:27:07Z</time>
      </trkpt>
      <trkpt lat="42.013599" lon="1.029630">
        <ele>756.279</ele>
        <time>2021-06-20T14:27:08Z</time>
      </trkpt>
      <trkpt lat="42.013496" lon="1.029689">
        <ele>755.448</ele>
        <time>2021-06-20T14:27:09Z</time>
      </trkpt>
      <trkpt lat="42.013398" lon="1.029758">
        <ele>755.025</ele>
        <time>2021-06-20T14:27:10Z</time>
      </trkpt>
      <trkpt lat="42.013304" lon="1.029834">
        <ele>754.417</ele>
        <time>2021-06-20T14:27:11Z</time>
      </trkpt>
      <trkpt lat="42.013215" lon="1.029915">
        <ele>753.851</ele>
        <time>2021-06-20T14:27:12Z</time>
      </trkpt>
      <trkpt lat="42.013131" lon="1.029997">
        <ele>753.452</ele>
        <time>2021-06-20T14:27:13Z</time>
      </trkpt>
      <trkpt lat="42.013048" lon="1.030065">
        <ele>753.032</ele>
        <time>2021-06-20T14:27:14Z</time>
      </trkpt>
      <trkpt lat="42.012964" lon="1.030108">
        <ele>752.640</ele>
        <time>2021-06-20T14:27:15Z</time>
      </trkpt>
      <trkpt lat="42.012798" lon="1.030116">
        <ele>750.263</ele>
        <time>2021-06-20T14:27:17Z</time>
      </trkpt>
      <trkpt lat="42.012719" lon="1.030096">
        <ele>750.044</ele>
        <time>2021-06-20T14:27:18Z</time>
      </trkpt>
      <trkpt lat="42.012566" lon="1.030060">
        <ele>749.618</ele>
        <time>2021-06-20T14:27:20Z</time>
      </trkpt>
      <trkpt lat="42.012430" lon="1.030108">
        <ele>749.208</ele>
        <time>2021-06-20T14:27:22Z</time>
      </trkpt>
      <trkpt lat="42.012373" lon="1.030165">
        <ele>748.853</ele>
        <time>2021-06-20T14:27:23Z</time>
      </trkpt>
      <trkpt lat="42.012277" lon="1.030327">
        <ele>748.412</ele>
        <time>2021-06-20T14:27:25Z</time>
      </trkpt>
      <trkpt lat="42.012196" lon="1.030627">
        <ele>747.689</ele>
        <time>2021-06-20T14:27:28Z</time>
      </trkpt>
      <trkpt lat="42.012239" lon="1.030913">
        <ele>747.031</ele>
        <time>2021-06-20T14:27:31Z</time>
      </trkpt>
      <trkpt lat="42.012286" lon="1.030974">
        <ele>746.485</ele>
        <time>2021-06-20T14:27:32Z</time>
      </trkpt>
      <trkpt lat="42.012413" lon="1.031017">
        <ele>745.636</ele>
        <time>2021-06-20T14:27:34Z</time>
      </trkpt>
      <trkpt lat="42.012558" lon="1.030961">
        <ele>745.226</ele>
        <time>2021-06-20T14:27:36Z</time>
      </trkpt>
      <trkpt lat="42.012633" lon="1.030913">
        <ele>745.024</ele>
        <time>2021-06-20T14:27:37Z</time>
      </trkpt>
      <trkpt lat="42.013058" lon="1.030646">
        <ele>744.299</ele>
        <time>2021-06-20T14:27:42Z</time>
      </trkpt>
      <trkpt lat="42.013330" lon="1.030466">
        <ele>742.207</ele>
        <time>2021-06-20T14:27:45Z</time>
      </trkpt>
      <trkpt lat="42.013416" lon="1.030434">
        <ele>741.227</ele>
        <time>2021-06-20T14:27:46Z</time>
      </trkpt>
      <trkpt lat="42.013499" lon="1.030433">
        <ele>739.808</ele>
        <time>2021-06-20T14:27:47Z</time>
      </trkpt>
      <trkpt lat="42.013580" lon="1.030460">
        <ele>738.686</ele>
        <time>2021-06-20T14:27:48Z</time>
      </trkpt>
      <trkpt lat="42.013655" lon="1.030501">
        <ele>737.875</ele>
        <time>2021-06-20T14:27:49Z</time>
      </trkpt>
      <trkpt lat="42.013723" lon="1.030554">
        <ele>737.042</ele>
        <time>2021-06-20T14:27:50Z</time>
      </trkpt>
      <trkpt lat="42.013815" lon="1.030705">
        <ele>735.424</ele>
        <time>2021-06-20T14:27:52Z</time>
      </trkpt>
      <trkpt lat="42.013809" lon="1.030881">
        <ele>735.028</ele>
        <time>2021-06-20T14:27:54Z</time>
      </trkpt>
      <trkpt lat="42.013715" lon="1.031002">
        <ele>734.829</ele>
        <time>2021-06-20T14:27:56Z</time>
      </trkpt>
      <trkpt lat="42.013455" lon="1.031049">
        <ele>734.619</ele>
        <time>2021-06-20T14:28:00Z</time>
      </trkpt>
      <trkpt lat="42.013322" lon="1.031008">
        <ele>734.467</ele>
        <time>2021-06-20T14:28:02Z</time>
      </trkpt>
      <trkpt lat="42.013184" lon="1.031006">
        <ele>734.075</ele>
        <time>2021-06-20T14:28:04Z</time>
      </trkpt>
      <trkpt lat="42.012921" lon="1.031155">
        <ele>733.028</ele>
        <time>2021-06-20T14:28:08Z</time>
      </trkpt>
      <trkpt lat="42.012858" lon="1.031213">
        <ele>732.420</ele>
        <time>2021-06-20T14:28:09Z</time>
      </trkpt>
      <trkpt lat="42.012793" lon="1.031275">
        <ele>731.808</ele>
        <time>2021-06-20T14:28:10Z</time>
      </trkpt>
      <trkpt lat="42.012658" lon="1.031403">
        <ele>730.454</ele>
        <time>2021-06-20T14:28:12Z</time>
      </trkpt>
      <trkpt lat="42.012531" lon="1.031552">
        <ele>729.843</ele>
        <time>2021-06-20T14:28:14Z</time>
      </trkpt>
      <trkpt lat="42.012471" lon="1.031635">
        <ele>729.290</ele>
        <time>2021-06-20T14:28:15Z</time>
      </trkpt>
      <trkpt lat="42.012362" lon="1.031812">
        <ele>727.852</ele>
        <time>2021-06-20T14:28:17Z</time>
      </trkpt>
      <trkpt lat="42.012259" lon="1.031994">
        <ele>726.246</ele>
        <time>2021-06-20T14:28:19Z</time>
      </trkpt>
      <trkpt lat="42.012201" lon="1.032077">
        <ele>725.427</ele>
        <time>2021-06-20T14:28:20Z</time>
      </trkpt>
      <trkpt lat="42.012128" lon="1.032141">
        <ele>725.047</ele>
        <time>2021-06-20T14:28:21Z</time>
      </trkpt>
      <trkpt lat="42.012045" lon="1.032177">
        <ele>724.275</ele>
        <time>2021-06-20T14:28:22Z</time>
      </trkpt>
      <trkpt lat="42.011956" lon="1.032190">
        <ele>723.638</ele>
        <time>2021-06-20T14:28:23Z</time>
      </trkpt>
      <trkpt lat="42.011779" lon="1.032186">
        <ele>722.670</ele>
        <time>2021-06-20T14:28:25Z</time>
      </trkpt>
      <trkpt lat="42.011690" lon="1.032178">
        <ele>721.817</ele>
        <time>2021-06-20T14:28:26Z</time>
      </trkpt>
      <trkpt lat="42.011601" lon="1.032169">
        <ele>721.408</ele>
        <time>2021-06-20T14:28:27Z</time>
      </trkpt>
      <trkpt lat="42.011335" lon="1.032141">
        <ele>719.850</ele>
        <time>2021-06-20T14:28:30Z</time>
      </trkpt>
      <trkpt lat="42.011157" lon="1.032118">
        <ele>718.619</ele>
        <time>2021-06-20T14:28:32Z</time>
      </trkpt>
      <trkpt lat="42.010983" lon="1.032078">
        <ele>717.636</ele>
        <time>2021-06-20T14:28:34Z</time>
      </trkpt>
      <trkpt lat="42.010655" lon="1.031923">
        <ele>716.248</ele>
        <time>2021-06-20T14:28:38Z</time>
      </trkpt>
      <trkpt lat="42.010576" lon="1.031890">
        <ele>715.812</ele>
        <time>2021-06-20T14:28:39Z</time>
      </trkpt>
      <trkpt lat="42.010411" lon="1.031882">
        <ele>714.863</ele>
        <time>2021-06-20T14:28:41Z</time>
      </trkpt>
      <trkpt lat="42.010328" lon="1.031904">
        <ele>714.433</ele>
        <time>2021-06-20T14:28:42Z</time>
      </trkpt>
      <trkpt lat="42.010245" lon="1.031932">
        <ele>714.241</ele>
        <time>2021-06-20T14:28:43Z</time>
      </trkpt>
      <trkpt lat="42.010160" lon="1.031962">
        <ele>713.647</ele>
        <time>2021-06-20T14:28:44Z</time>
      </trkpt>
      <trkpt lat="42.009999" lon="1.032030">
        <ele>712.829</ele>
        <time>2021-06-20T14:28:46Z</time>
      </trkpt>
      <trkpt lat="42.009926" lon="1.032081">
        <ele>712.621</ele>
        <time>2021-06-20T14:28:47Z</time>
      </trkpt>
      <trkpt lat="42.009814" lon="1.032232">
        <ele>710.808</ele>
        <time>2021-06-20T14:28:49Z</time>
      </trkpt>
      <trkpt lat="42.009776" lon="1.032329">
        <ele>709.061</ele>
        <time>2021-06-20T14:28:50Z</time>
      </trkpt>
      <trkpt lat="42.009743" lon="1.032427">
        <ele>707.670</ele>
        <time>2021-06-20T14:28:51Z</time>
      </trkpt>
      <trkpt lat="42.009702" lon="1.032514">
        <ele>706.887</ele>
        <time>2021-06-20T14:28:52Z</time>
      </trkpt>
      <trkpt lat="42.009647" lon="1.032580">
        <ele>706.229</ele>
        <time>2021-06-20T14:28:53Z</time>
      </trkpt>
      <trkpt lat="42.009499" lon="1.032613">
        <ele>706.083</ele>
        <time>2021-06-20T14:28:55Z</time>
      </trkpt>
      <trkpt lat="42.009345" lon="1.032533">
        <ele>705.224</ele>
        <time>2021-06-20T14:28:57Z</time>
      </trkpt>
      <trkpt lat="42.009273" lon="1.032470">
        <ele>705.074</ele>
        <time>2021-06-20T14:28:58Z</time>
      </trkpt>
      <trkpt lat="42.009205" lon="1.032398">
        <ele>704.632</ele>
        <time>2021-06-20T14:28:59Z</time>
      </trkpt>
      <trkpt lat="42.009072" lon="1.032248">
        <ele>704.247</ele>
        <time>2021-06-20T14:29:01Z</time>
      </trkpt>
      <trkpt lat="42.008928" lon="1.032111">
        <ele>704.029</ele>
        <time>2021-06-20T14:29:03Z</time>
      </trkpt>
      <trkpt lat="42.008767" lon="1.032003">
        <ele>703.421</ele>
        <time>2021-06-20T14:29:05Z</time>
      </trkpt>
      <trkpt lat="42.008686" lon="1.031967">
        <ele>702.208</ele>
        <time>2021-06-20T14:29:06Z</time>
      </trkpt>
      <trkpt lat="42.008609" lon="1.031936">
        <ele>700.671</ele>
        <time>2021-06-20T14:29:07Z</time>
      </trkpt>
      <trkpt lat="42.008373" lon="1.031851">
        <ele>699.020</ele>
        <time>2021-06-20T14:29:10Z</time>
      </trkpt>
      <trkpt lat="42.008210" lon="1.031802">
        <ele>697.677</ele>
        <time>2021-06-20T14:29:12Z</time>
      </trkpt>
      <trkpt lat="42.008126" lon="1.031786">
        <ele>696.879</ele>
        <time>2021-06-20T14:29:13Z</time>
      </trkpt>
      <trkpt lat="42.008039" lon="1.031780">
        <ele>696.463</ele>
        <time>2021-06-20T14:29:14Z</time>
      </trkpt>
      <trkpt lat="42.007676" lon="1.031810">
        <ele>694.874</ele>
        <time>2021-06-20T14:29:18Z</time>
      </trkpt>
      <trkpt lat="42.007487" lon="1.031835">
        <ele>693.634</ele>
        <time>2021-06-20T14:29:20Z</time>
      </trkpt>
      <trkpt lat="42.007195" lon="1.031872">
        <ele>692.032</ele>
        <time>2021-06-20T14:29:23Z</time>
      </trkpt>
      <trkpt lat="42.006997" lon="1.031905">
        <ele>690.881</ele>
        <time>2021-06-20T14:29:25Z</time>
      </trkpt>
      <trkpt lat="42.006819" lon="1.031930">
        <ele>689.261</ele>
        <time>2021-06-20T14:29:27Z</time>
      </trkpt>
      <trkpt lat="42.006744" lon="1.031925">
        <ele>688.017</ele>
        <time>2021-06-20T14:29:28Z</time>
      </trkpt>
      <trkpt lat="42.006626" lon="1.031843">
        <ele>687.008</ele>
        <time>2021-06-20T14:29:30Z</time>
      </trkpt>
      <trkpt lat="42.006554" lon="1.031589">
        <ele>686.285</ele>
        <time>2021-06-20T14:29:33Z</time>
      </trkpt>
      <trkpt lat="42.006535" lon="1.031497">
        <ele>686.054</ele>
        <time>2021-06-20T14:29:34Z</time>
      </trkpt>
      <trkpt lat="42.006503" lon="1.031413">
        <ele>686.061</ele>
        <time>2021-06-20T14:29:35Z</time>
      </trkpt>
      <trkpt lat="42.006462" lon="1.031336">
        <ele>685.653</ele>
        <time>2021-06-20T14:29:36Z</time>
      </trkpt>
      <trkpt lat="42.006230" lon="1.031099">
        <ele>685.077</ele>
        <time>2021-06-20T14:29:40Z</time>
      </trkpt>
      <trkpt lat="42.006163" lon="1.031048">
        <ele>684.438</ele>
        <time>2021-06-20T14:29:41Z</time>
      </trkpt>
      <trkpt lat="42.006047" lon="1.030943">
        <ele>682.688</ele>
        <time>2021-06-20T14:29:43Z</time>
      </trkpt>
      <trkpt lat="42.006003" lon="1.030902">
        <ele>681.696</ele>
        <time>2021-06-20T14:29:44Z</time>
      </trkpt>
      <trkpt lat="42.005904" lon="1.030815">
        <ele>680.446</ele>
        <time>2021-06-20T14:29:48Z</time>
      </trkpt>
      <trkpt lat="42.005904" lon="1.030814">
        <ele>680.488</ele>
        <time>2021-06-20T14:29:49Z</time>
      </trkpt>
      <trkpt lat="42.005882" lon="1.030807">
        <ele>681.016</ele>
        <time>2021-06-20T14:32:34Z</time>
      </trkpt>
      <trkpt lat="42.005829" lon="1.030778">
        <ele>681.008</ele>
        <time>2021-06-20T14:32:36Z</time>
      </trkpt>
      <trkpt lat="42.005671" lon="1.030667">
        <ele>680.811</ele>
        <time>2021-06-20T14:32:40Z</time>
      </trkpt>
      <trkpt lat="42.005627" lon="1.030631">
        <ele>680.870</ele>
        <time>2021-06-20T14:32:41Z</time>
      </trkpt>
      <trkpt lat="42.005582" lon="1.030590">
        <ele>680.627</ele>
        <time>2021-06-20T14:32:42Z</time>
      </trkpt>
      <trkpt lat="42.005337" lon="1.030324">
        <ele>678.899</ele>
        <time>2021-06-20T14:32:47Z</time>
      </trkpt>
      <trkpt lat="42.005281" lon="1.030260">
        <ele>677.653</ele>
        <time>2021-06-20T14:32:48Z</time>
      </trkpt>
      <trkpt lat="42.005222" lon="1.030194">
        <ele>676.434</ele>
        <time>2021-06-20T14:32:49Z</time>
      </trkpt>
      <trkpt lat="42.005100" lon="1.030054">
        <ele>675.224</ele>
        <time>2021-06-20T14:32:51Z</time>
      </trkpt>
      <trkpt lat="42.004975" lon="1.029907">
        <ele>673.812</ele>
        <time>2021-06-20T14:32:53Z</time>
      </trkpt>
      <trkpt lat="42.004849" lon="1.029752">
        <ele>672.811</ele>
        <time>2021-06-20T14:32:55Z</time>
      </trkpt>
      <trkpt lat="42.004717" lon="1.029594">
        <ele>670.821</ele>
        <time>2021-06-20T14:32:57Z</time>
      </trkpt>
      <trkpt lat="42.004646" lon="1.029516">
        <ele>669.803</ele>
        <time>2021-06-20T14:32:58Z</time>
      </trkpt>
      <trkpt lat="42.004575" lon="1.029438">
        <ele>668.808</ele>
        <time>2021-06-20T14:32:59Z</time>
      </trkpt>
      <trkpt lat="42.004503" lon="1.029362">
        <ele>668.288</ele>
        <time>2021-06-20T14:33:00Z</time>
      </trkpt>
      <trkpt lat="42.004361" lon="1.029217">
        <ele>667.617</ele>
        <time>2021-06-20T14:33:02Z</time>
      </trkpt>
      <trkpt lat="42.004231" lon="1.029066">
        <ele>666.854</ele>
        <time>2021-06-20T14:33:04Z</time>
      </trkpt>
      <trkpt lat="42.004178" lon="1.028977">
        <ele>666.246</ele>
        <time>2021-06-20T14:33:05Z</time>
      </trkpt>
      <trkpt lat="42.004104" lon="1.028778">
        <ele>665.060</ele>
        <time>2021-06-20T14:33:07Z</time>
      </trkpt>
      <trkpt lat="42.004076" lon="1.028672">
        <ele>664.631</ele>
        <time>2021-06-20T14:33:08Z</time>
      </trkpt>
      <trkpt lat="42.004049" lon="1.028568">
        <ele>664.491</ele>
        <time>2021-06-20T14:33:09Z</time>
      </trkpt>
      <trkpt lat="42.003988" lon="1.028374">
        <ele>664.219</ele>
        <time>2021-06-20T14:33:11Z</time>
      </trkpt>
      <trkpt lat="42.003889" lon="1.028236">
        <ele>664.093</ele>
        <time>2021-06-20T14:33:13Z</time>
      </trkpt>
      <trkpt lat="42.003755" lon="1.028191">
        <ele>664.065</ele>
        <time>2021-06-20T14:33:15Z</time>
      </trkpt>
      <trkpt lat="42.003685" lon="1.028211">
        <ele>663.821</ele>
        <time>2021-06-20T14:33:16Z</time>
      </trkpt>
      <trkpt lat="42.003512" lon="1.028390">
        <ele>663.808</ele>
        <time>2021-06-20T14:33:19Z</time>
      </trkpt>
      <trkpt lat="42.003451" lon="1.028585">
        <ele>663.616</ele>
        <time>2021-06-20T14:33:21Z</time>
      </trkpt>
      <trkpt lat="42.003419" lon="1.028689">
        <ele>663.675</ele>
        <time>2021-06-20T14:33:22Z</time>
      </trkpt>
      <trkpt lat="42.003278" lon="1.028985">
        <ele>662.452</ele>
        <time>2021-06-20T14:33:25Z</time>
      </trkpt>
      <trkpt lat="42.003221" lon="1.029069">
        <ele>662.264</ele>
        <time>2021-06-20T14:33:26Z</time>
      </trkpt>
      <trkpt lat="42.003163" lon="1.029139">
        <ele>661.458</ele>
        <time>2021-06-20T14:33:27Z</time>
      </trkpt>
      <trkpt lat="42.003103" lon="1.029188">
        <ele>660.489</ele>
        <time>2021-06-20T14:33:28Z</time>
      </trkpt>
      <trkpt lat="42.003045" lon="1.029213">
        <ele>659.429</ele>
        <time>2021-06-20T14:33:29Z</time>
      </trkpt>
      <trkpt lat="42.002953" lon="1.029199">
        <ele>657.677</ele>
        <time>2021-06-20T14:33:31Z</time>
      </trkpt>
      <trkpt lat="42.002928" lon="1.029185">
        <ele>657.292</ele>
        <time>2021-06-20T14:33:32Z</time>
      </trkpt>
      <trkpt lat="42.002894" lon="1.029221">
        <ele>656.873</ele>
        <time>2021-06-20T14:33:36Z</time>
      </trkpt>
      <trkpt lat="42.002976" lon="1.029245">
        <ele>656.820</ele>
        <time>2021-06-20T14:33:41Z</time>
      </trkpt>
      <trkpt lat="42.003015" lon="1.029304">
        <ele>657.208</ele>
        <time>2021-06-20T14:33:44Z</time>
      </trkpt>
      <trkpt lat="42.003030" lon="1.029323">
        <ele>657.466</ele>
        <time>2021-06-20T14:33:45Z</time>
      </trkpt>
      <trkpt lat="42.003043" lon="1.029335">
        <ele>657.465</ele>
        <time>2021-06-20T14:33:46Z</time>
      </trkpt>
      <trkpt lat="42.003052" lon="1.029339">
        <ele>657.452</ele>
        <time>2021-06-20T14:33:49Z</time>
      </trkpt>
      <trkpt lat="42.002927" lon="1.029222">
        <ele>657.614</ele>
        <time>2021-06-20T14:40:52Z</time>
      </trkpt>
      <trkpt lat="42.002827" lon="1.029132">
        <ele>657.658</ele>
        <time>2021-06-20T14:40:56Z</time>
      </trkpt>
      <trkpt lat="42.002623" lon="1.028902">
        <ele>656.659</ele>
        <time>2021-06-20T14:41:02Z</time>
      </trkpt>
      <trkpt lat="42.002473" lon="1.028741">
        <ele>655.269</ele>
        <time>2021-06-20T14:41:06Z</time>
      </trkpt>
      <trkpt lat="42.002401" lon="1.028666">
        <ele>654.267</ele>
        <time>2021-06-20T14:41:08Z</time>
      </trkpt>
      <trkpt lat="42.002365" lon="1.028627">
        <ele>653.852</ele>
        <time>2021-06-20T14:41:09Z</time>
      </trkpt>
      <trkpt lat="42.002286" lon="1.028541">
        <ele>652.853</ele>
        <time>2021-06-20T14:41:11Z</time>
      </trkpt>
      <trkpt lat="42.002148" lon="1.028396">
        <ele>651.608</ele>
        <time>2021-06-20T14:41:14Z</time>
      </trkpt>
      <trkpt lat="42.002097" lon="1.028343">
        <ele>651.208</ele>
        <time>2021-06-20T14:41:15Z</time>
      </trkpt>
      <trkpt lat="42.001806" lon="1.028091">
        <ele>650.432</ele>
        <time>2021-06-20T14:41:20Z</time>
      </trkpt>
      <trkpt lat="42.001739" lon="1.028052">
        <ele>650.051</ele>
        <time>2021-06-20T14:41:21Z</time>
      </trkpt>
      <trkpt lat="42.001598" lon="1.027985">
        <ele>649.278</ele>
        <time>2021-06-20T14:41:23Z</time>
      </trkpt>
      <trkpt lat="42.001451" lon="1.027934">
        <ele>648.280</ele>
        <time>2021-06-20T14:41:25Z</time>
      </trkpt>
      <trkpt lat="42.001376" lon="1.027909">
        <ele>647.664</ele>
        <time>2021-06-20T14:41:26Z</time>
      </trkpt>
      <trkpt lat="42.001299" lon="1.027882">
        <ele>646.865</ele>
        <time>2021-06-20T14:41:27Z</time>
      </trkpt>
      <trkpt lat="42.001058" lon="1.027795">
        <ele>645.485</ele>
        <time>2021-06-20T14:41:30Z</time>
      </trkpt>
      <trkpt lat="42.000801" lon="1.027704">
        <ele>644.233</ele>
        <time>2021-06-20T14:41:33Z</time>
      </trkpt>
      <trkpt lat="42.000625" lon="1.027647">
        <ele>643.086</ele>
        <time>2021-06-20T14:41:35Z</time>
      </trkpt>
      <trkpt lat="42.000536" lon="1.027619">
        <ele>641.860</ele>
        <time>2021-06-20T14:41:36Z</time>
      </trkpt>
      <trkpt lat="42.000356" lon="1.027557">
        <ele>640.226</ele>
        <time>2021-06-20T14:41:38Z</time>
      </trkpt>
      <trkpt lat="42.000177" lon="1.027474">
        <ele>639.008</ele>
        <time>2021-06-20T14:41:40Z</time>
      </trkpt>
      <trkpt lat="42.000092" lon="1.027420">
        <ele>638.085</ele>
        <time>2021-06-20T14:41:41Z</time>
      </trkpt>
      <trkpt lat="42.000012" lon="1.027360">
        <ele>637.634</ele>
        <time>2021-06-20T14:41:42Z</time>
      </trkpt>
      <trkpt lat="41.999794" lon="1.027175">
        <ele>636.211</ele>
        <time>2021-06-20T14:41:45Z</time>
      </trkpt>
      <trkpt lat="41.999735" lon="1.027098">
        <ele>635.683</ele>
        <time>2021-06-20T14:41:46Z</time>
      </trkpt>
      <trkpt lat="41.999686" lon="1.027012">
        <ele>635.067</ele>
        <time>2021-06-20T14:41:47Z</time>
      </trkpt>
      <trkpt lat="41.999614" lon="1.026836">
        <ele>634.838</ele>
        <time>2021-06-20T14:41:49Z</time>
      </trkpt>
      <trkpt lat="41.999585" lon="1.026748">
        <ele>634.438</ele>
        <time>2021-06-20T14:41:50Z</time>
      </trkpt>
      <trkpt lat="41.999490" lon="1.026500">
        <ele>634.466</ele>
        <time>2021-06-20T14:41:53Z</time>
      </trkpt>
      <trkpt lat="41.999439" lon="1.026440">
        <ele>634.464</ele>
        <time>2021-06-20T14:41:54Z</time>
      </trkpt>
      <trkpt lat="41.999189" lon="1.026261">
        <ele>634.206</ele>
        <time>2021-06-20T14:41:58Z</time>
      </trkpt>
      <trkpt lat="41.998800" lon="1.025966">
        <ele>633.616</ele>
        <time>2021-06-20T14:42:04Z</time>
      </trkpt>
      <trkpt lat="41.998725" lon="1.025923">
        <ele>633.408</ele>
        <time>2021-06-20T14:42:05Z</time>
      </trkpt>
      <trkpt lat="41.998644" lon="1.025896">
        <ele>633.263</ele>
        <time>2021-06-20T14:42:06Z</time>
      </trkpt>
      <trkpt lat="41.998369" lon="1.025882">
        <ele>632.062</ele>
        <time>2021-06-20T14:42:09Z</time>
      </trkpt>
      <trkpt lat="41.998272" lon="1.025884">
        <ele>631.279</ele>
        <time>2021-06-20T14:42:10Z</time>
      </trkpt>
      <trkpt lat="41.998173" lon="1.025879">
        <ele>630.621</ele>
        <time>2021-06-20T14:42:11Z</time>
      </trkpt>
      <trkpt lat="41.997969" lon="1.025839">
        <ele>628.695</ele>
        <time>2021-06-20T14:42:13Z</time>
      </trkpt>
      <trkpt lat="41.997865" lon="1.025807">
        <ele>627.276</ele>
        <time>2021-06-20T14:42:14Z</time>
      </trkpt>
      <trkpt lat="41.997657" lon="1.025741">
        <ele>626.036</ele>
        <time>2021-06-20T14:42:16Z</time>
      </trkpt>
      <trkpt lat="41.997446" lon="1.025678">
        <ele>624.034</ele>
        <time>2021-06-20T14:42:18Z</time>
      </trkpt>
      <trkpt lat="41.997341" lon="1.025645">
        <ele>623.055</ele>
        <time>2021-06-20T14:42:19Z</time>
      </trkpt>
      <trkpt lat="41.997235" lon="1.025611">
        <ele>621.807</ele>
        <time>2021-06-20T14:42:20Z</time>
      </trkpt>
      <trkpt lat="41.997019" lon="1.025542">
        <ele>619.817</ele>
        <time>2021-06-20T14:42:22Z</time>
      </trkpt>
      <trkpt lat="41.996915" lon="1.025509">
        <ele>618.808</ele>
        <time>2021-06-20T14:42:23Z</time>
      </trkpt>
      <trkpt lat="41.996710" lon="1.025447">
        <ele>617.042</ele>
        <time>2021-06-20T14:42:25Z</time>
      </trkpt>
      <trkpt lat="41.996610" lon="1.025413">
        <ele>616.011</ele>
        <time>2021-06-20T14:42:26Z</time>
      </trkpt>
      <trkpt lat="41.996512" lon="1.025381">
        <ele>615.028</ele>
        <time>2021-06-20T14:42:27Z</time>
      </trkpt>
      <trkpt lat="41.996413" lon="1.025352">
        <ele>613.860</ele>
        <time>2021-06-20T14:42:28Z</time>
      </trkpt>
      <trkpt lat="41.996313" lon="1.025323">
        <ele>613.254</ele>
        <time>2021-06-20T14:42:29Z</time>
      </trkpt>
      <trkpt lat="41.996214" lon="1.025292">
        <ele>612.665</ele>
        <time>2021-06-20T14:42:30Z</time>
      </trkpt>
      <trkpt lat="41.996015" lon="1.025221">
        <ele>611.455</ele>
        <time>2021-06-20T14:42:32Z</time>
      </trkpt>
      <trkpt lat="41.995829" lon="1.025103">
        <ele>610.823</ele>
        <time>2021-06-20T14:42:34Z</time>
      </trkpt>
      <trkpt lat="41.995572" lon="1.024895">
        <ele>610.452</ele>
        <time>2021-06-20T14:42:37Z</time>
      </trkpt>
      <trkpt lat="41.995332" lon="1.024693">
        <ele>609.453</ele>
        <time>2021-06-20T14:42:40Z</time>
      </trkpt>
      <trkpt lat="41.995256" lon="1.024626">
        <ele>609.208</ele>
        <time>2021-06-20T14:42:41Z</time>
      </trkpt>
      <trkpt lat="41.995045" lon="1.024430">
        <ele>609.008</ele>
        <time>2021-06-20T14:42:44Z</time>
      </trkpt>
      <trkpt lat="41.994933" lon="1.024279">
        <ele>609.032</ele>
        <time>2021-06-20T14:42:46Z</time>
      </trkpt>
      <trkpt lat="41.994671" lon="1.023839">
        <ele>609.011</ele>
        <time>2021-06-20T14:42:52Z</time>
      </trkpt>
      <trkpt lat="41.994364" lon="1.023354">
        <ele>610.228</ele>
        <time>2021-06-20T14:43:00Z</time>
      </trkpt>
      <trkpt lat="41.994306" lon="1.023256">
        <ele>610.490</ele>
        <time>2021-06-20T14:43:02Z</time>
      </trkpt>
      <trkpt lat="41.994261" lon="1.023136">
        <ele>610.834</ele>
        <time>2021-06-20T14:43:05Z</time>
      </trkpt>
      <trkpt lat="41.994278" lon="1.022997">
        <ele>611.045</ele>
        <time>2021-06-20T14:43:10Z</time>
      </trkpt>
      <trkpt lat="41.994315" lon="1.022875">
        <ele>611.695</ele>
        <time>2021-06-20T14:43:15Z</time>
      </trkpt>
      <trkpt lat="41.994332" lon="1.022825">
        <ele>612.043</ele>
        <time>2021-06-20T14:43:17Z</time>
      </trkpt>
      <trkpt lat="41.994350" lon="1.022746">
        <ele>612.817</ele>
        <time>2021-06-20T14:43:20Z</time>
      </trkpt>
      <trkpt lat="41.994371" lon="1.022553">
        <ele>613.887</ele>
        <time>2021-06-20T14:43:26Z</time>
      </trkpt>
      <trkpt lat="41.994329" lon="1.022300">
        <ele>614.215</ele>
        <time>2021-06-20T14:43:32Z</time>
      </trkpt>
      <trkpt lat="41.994197" lon="1.021910">
        <ele>614.208</ele>
        <time>2021-06-20T14:43:40Z</time>
      </trkpt>
      <trkpt lat="41.994024" lon="1.021374">
        <ele>614.278</ele>
        <time>2021-06-20T14:43:50Z</time>
      </trkpt>
      <trkpt lat="41.993861" lon="1.020865">
        <ele>614.237</ele>
        <time>2021-06-20T14:43:59Z</time>
      </trkpt>
      <trkpt lat="41.993650" lon="1.020236">
        <ele>614.224</ele>
        <time>2021-06-20T14:44:10Z</time>
      </trkpt>
      <trkpt lat="41.993505" lon="1.019865">
        <ele>615.236</ele>
        <time>2021-06-20T14:44:17Z</time>
      </trkpt>
      <trkpt lat="41.993470" lon="1.019767">
        <ele>615.490</ele>
        <time>2021-06-20T14:44:19Z</time>
      </trkpt>
      <trkpt lat="41.993400" lon="1.019656">
        <ele>615.831</ele>
        <time>2021-06-20T14:44:23Z</time>
      </trkpt>
      <trkpt lat="41.993369" lon="1.019660">
        <ele>616.051</ele>
        <time>2021-06-20T14:44:27Z</time>
      </trkpt>
      <trkpt lat="41.993349" lon="1.019620">
        <ele>616.699</ele>
        <time>2021-06-20T14:44:31Z</time>
      </trkpt>
      <trkpt lat="41.993357" lon="1.019573">
        <ele>616.872</ele>
        <time>2021-06-20T14:44:33Z</time>
      </trkpt>
      <trkpt lat="41.993338" lon="1.019434">
        <ele>617.213</ele>
        <time>2021-06-20T14:44:37Z</time>
      </trkpt>
      <trkpt lat="41.993259" lon="1.019252">
        <ele>617.214</ele>
        <time>2021-06-20T14:44:42Z</time>
      </trkpt>
      <trkpt lat="41.993202" lon="1.019246">
        <ele>617.208</ele>
        <time>2021-06-20T14:44:44Z</time>
      </trkpt>
      <trkpt lat="41.993138" lon="1.019294">
        <ele>617.254</ele>
        <time>2021-06-20T14:44:46Z</time>
      </trkpt>
      <trkpt lat="41.993038" lon="1.019358">
        <ele>617.233</ele>
        <time>2021-06-20T14:44:49Z</time>
      </trkpt>
      <trkpt lat="41.993001" lon="1.019389">
        <ele>617.010</ele>
        <time>2021-06-20T14:44:50Z</time>
      </trkpt>
      <trkpt lat="41.992838" lon="1.019532">
        <ele>616.082</ele>
        <time>2021-06-20T14:44:54Z</time>
      </trkpt>
      <trkpt lat="41.992802" lon="1.019557">
        <ele>615.846</ele>
        <time>2021-06-20T14:44:55Z</time>
      </trkpt>
      <trkpt lat="41.992738" lon="1.019615">
        <ele>614.417</ele>
        <time>2021-06-20T14:44:58Z</time>
      </trkpt>
      <trkpt lat="41.992700" lon="1.019672">
        <ele>613.457</ele>
        <time>2021-06-20T14:45:02Z</time>
      </trkpt>
      <trkpt lat="41.992705" lon="1.019675">
        <ele>613.475</ele>
        <time>2021-06-20T14:45:03Z</time>
      </trkpt>
      <trkpt lat="41.992718" lon="1.019680">
        <ele>613.424</ele>
        <time>2021-06-20T14:45:06Z</time>
      </trkpt>
      <trkpt lat="41.992729" lon="1.019586">
        <ele>614.004</ele>
        <time>2021-06-20T14:46:50Z</time>
      </trkpt>
      <trkpt lat="41.992728" lon="1.019565">
        <ele>614.014</ele>
        <time>2021-06-20T14:46:51Z</time>
      </trkpt>
      <trkpt lat="41.992721" lon="1.019533">
        <ele>614.008</ele>
        <time>2021-06-20T14:46:56Z</time>
      </trkpt>
      <trkpt lat="41.992714" lon="1.019646">
        <ele>615.819</ele>
        <time>2021-06-20T15:16:36Z</time>
      </trkpt>
      <trkpt lat="41.992664" lon="1.019697">
        <ele>615.878</ele>
        <time>2021-06-20T15:16:38Z</time>
      </trkpt>
      <trkpt lat="41.992484" lon="1.019901">
        <ele>615.245</ele>
        <time>2021-06-20T15:16:43Z</time>
      </trkpt>
      <trkpt lat="41.992402" lon="1.020003">
        <ele>614.857</ele>
        <time>2021-06-20T15:16:45Z</time>
      </trkpt>
      <trkpt lat="41.992226" lon="1.020262">
        <ele>613.491</ele>
        <time>2021-06-20T15:16:49Z</time>
      </trkpt>
      <trkpt lat="41.992074" lon="1.020511">
        <ele>612.042</ele>
        <time>2021-06-20T15:16:52Z</time>
      </trkpt>
      <trkpt lat="41.991965" lon="1.020694">
        <ele>611.082</ele>
        <time>2021-06-20T15:16:54Z</time>
      </trkpt>
      <trkpt lat="41.991858" lon="1.020888">
        <ele>609.630</ele>
        <time>2021-06-20T15:16:56Z</time>
      </trkpt>
      <trkpt lat="41.991761" lon="1.021069">
        <ele>607.499</ele>
        <time>2021-06-20T15:16:58Z</time>
      </trkpt>
      <trkpt lat="41.991714" lon="1.021152">
        <ele>606.607</ele>
        <time>2021-06-20T15:16:59Z</time>
      </trkpt>
      <trkpt lat="41.991669" lon="1.021228">
        <ele>605.827</ele>
        <time>2021-06-20T15:17:00Z</time>
      </trkpt>
      <trkpt lat="41.991625" lon="1.021298">
        <ele>604.408</ele>
        <time>2021-06-20T15:17:01Z</time>
      </trkpt>
      <trkpt lat="41.991539" lon="1.021418">
        <ele>603.076</ele>
        <time>2021-06-20T15:17:03Z</time>
      </trkpt>
      <trkpt lat="41.991498" lon="1.021472">
        <ele>602.655</ele>
        <time>2021-06-20T15:17:04Z</time>
      </trkpt>
      <trkpt lat="41.991409" lon="1.021577">
        <ele>601.812</ele>
        <time>2021-06-20T15:17:06Z</time>
      </trkpt>
      <trkpt lat="41.991249" lon="1.021730">
        <ele>601.264</ele>
        <time>2021-06-20T15:17:09Z</time>
      </trkpt>
      <trkpt lat="41.991192" lon="1.021788">
        <ele>600.618</ele>
        <time>2021-06-20T15:17:10Z</time>
      </trkpt>
      <trkpt lat="41.991071" lon="1.021905">
        <ele>599.059</ele>
        <time>2021-06-20T15:17:12Z</time>
      </trkpt>
      <trkpt lat="41.991010" lon="1.021965">
        <ele>597.889</ele>
        <time>2021-06-20T15:17:13Z</time>
      </trkpt>
      <trkpt lat="41.990886" lon="1.022087">
        <ele>596.677</ele>
        <time>2021-06-20T15:17:15Z</time>
      </trkpt>
      <trkpt lat="41.990762" lon="1.022215">
        <ele>595.646</ele>
        <time>2021-06-20T15:17:17Z</time>
      </trkpt>
      <trkpt lat="41.990639" lon="1.022348">
        <ele>593.688</ele>
        <time>2021-06-20T15:17:19Z</time>
      </trkpt>
      <trkpt lat="41.990517" lon="1.022488">
        <ele>592.016</ele>
        <time>2021-06-20T15:17:21Z</time>
      </trkpt>
      <trkpt lat="41.990277" lon="1.022775">
        <ele>591.008</ele>
        <time>2021-06-20T15:17:25Z</time>
      </trkpt>
      <trkpt lat="41.990221" lon="1.022836">
        <ele>591.091</ele>
        <time>2021-06-20T15:17:26Z</time>
      </trkpt>
      <trkpt lat="41.990106" lon="1.022935">
        <ele>590.460</ele>
        <time>2021-06-20T15:17:28Z</time>
      </trkpt>
      <trkpt lat="41.990042" lon="1.022956">
        <ele>589.857</ele>
        <time>2021-06-20T15:17:29Z</time>
      </trkpt>
      <trkpt lat="41.989853" lon="1.023006">
        <ele>589.079</ele>
        <time>2021-06-20T15:17:32Z</time>
      </trkpt>
      <trkpt lat="41.989799" lon="1.023157">
        <ele>588.853</ele>
        <time>2021-06-20T15:17:34Z</time>
      </trkpt>
      <trkpt lat="41.989811" lon="1.023243">
        <ele>588.664</ele>
        <time>2021-06-20T15:17:35Z</time>
      </trkpt>
      <trkpt lat="41.989847" lon="1.023315">
        <ele>588.664</ele>
        <time>2021-06-20T15:17:36Z</time>
      </trkpt>
      <trkpt lat="41.989951" lon="1.023364">
        <ele>588.472</ele>
        <time>2021-06-20T15:17:38Z</time>
      </trkpt>
      <trkpt lat="41.990047" lon="1.023349">
        <ele>588.466</ele>
        <time>2021-06-20T15:17:40Z</time>
      </trkpt>
      <trkpt lat="41.990092" lon="1.023347">
        <ele>588.429</ele>
        <time>2021-06-20T15:17:41Z</time>
      </trkpt>
      <trkpt lat="41.990134" lon="1.023349">
        <ele>588.421</ele>
        <time>2021-06-20T15:17:42Z</time>
      </trkpt>
      <trkpt lat="41.990379" lon="1.023348">
        <ele>589.208</ele>
        <time>2021-06-20T15:17:49Z</time>
      </trkpt>
      <trkpt lat="41.990445" lon="1.023346">
        <ele>590.083</ele>
        <time>2021-06-20T15:17:51Z</time>
      </trkpt>
      <trkpt lat="41.990574" lon="1.023340">
        <ele>591.442</ele>
        <time>2021-06-20T15:17:55Z</time>
      </trkpt>
      <trkpt lat="41.990606" lon="1.023340">
        <ele>591.429</ele>
        <time>2021-06-20T15:17:56Z</time>
      </trkpt>
      <trkpt lat="41.990768" lon="1.023332">
        <ele>592.491</ele>
        <time>2021-06-20T15:18:01Z</time>
      </trkpt>
      <trkpt lat="41.990847" lon="1.023320">
        <ele>593.075</ele>
        <time>2021-06-20T15:18:03Z</time>
      </trkpt>
      <trkpt lat="41.990970" lon="1.023301">
        <ele>593.666</ele>
        <time>2021-06-20T15:18:06Z</time>
      </trkpt>
      <trkpt lat="41.991112" lon="1.023271">
        <ele>593.866</ele>
        <time>2021-06-20T15:18:10Z</time>
      </trkpt>
      <trkpt lat="41.991281" lon="1.023272">
        <ele>594.674</ele>
        <time>2021-06-20T15:18:15Z</time>
      </trkpt>
      <trkpt lat="41.991347" lon="1.023278">
        <ele>595.228</ele>
        <time>2021-06-20T15:18:17Z</time>
      </trkpt>
      <trkpt lat="41.991447" lon="1.023297">
        <ele>595.889</ele>
        <time>2021-06-20T15:18:20Z</time>
      </trkpt>
      <trkpt lat="41.991619" lon="1.023334">
        <ele>596.417</ele>
        <time>2021-06-20T15:18:25Z</time>
      </trkpt>
      <trkpt lat="41.991722" lon="1.023348">
        <ele>596.808</ele>
        <time>2021-06-20T15:18:28Z</time>
      </trkpt>
      <trkpt lat="41.991932" lon="1.023348">
        <ele>597.619</ele>
        <time>2021-06-20T15:18:34Z</time>
      </trkpt>
      <trkpt lat="41.992001" lon="1.023344">
        <ele>598.068</ele>
        <time>2021-06-20T15:18:36Z</time>
      </trkpt>
      <trkpt lat="41.992172" lon="1.023302">
        <ele>598.625</ele>
        <time>2021-06-20T15:18:41Z</time>
      </trkpt>
      <trkpt lat="41.992302" lon="1.023244">
        <ele>599.067</ele>
        <time>2021-06-20T15:18:45Z</time>
      </trkpt>
      <trkpt lat="41.992358" lon="1.023201">
        <ele>599.441</ele>
        <time>2021-06-20T15:18:47Z</time>
      </trkpt>
      <trkpt lat="41.992499" lon="1.023018">
        <ele>600.422</ele>
        <time>2021-06-20T15:18:53Z</time>
      </trkpt>
      <trkpt lat="41.992544" lon="1.022951">
        <ele>600.652</ele>
        <time>2021-06-20T15:18:55Z</time>
      </trkpt>
      <trkpt lat="41.992691" lon="1.022828">
        <ele>601.480</ele>
        <time>2021-06-20T15:19:00Z</time>
      </trkpt>
      <trkpt lat="41.992723" lon="1.022809">
        <ele>601.647</ele>
        <time>2021-06-20T15:19:01Z</time>
      </trkpt>
      <trkpt lat="41.992926" lon="1.022757">
        <ele>602.229</ele>
        <time>2021-06-20T15:19:07Z</time>
      </trkpt>
      <trkpt lat="41.993034" lon="1.022778">
        <ele>602.421</ele>
        <time>2021-06-20T15:19:10Z</time>
      </trkpt>
      <trkpt lat="41.993136" lon="1.022829">
        <ele>603.008</ele>
        <time>2021-06-20T15:19:13Z</time>
      </trkpt>
      <trkpt lat="41.993270" lon="1.022994">
        <ele>603.211</ele>
        <time>2021-06-20T15:19:18Z</time>
      </trkpt>
      <trkpt lat="41.993389" lon="1.023218">
        <ele>603.880</ele>
        <time>2021-06-20T15:19:24Z</time>
      </trkpt>
      <trkpt lat="41.993402" lon="1.023254">
        <ele>604.067</ele>
        <time>2021-06-20T15:19:25Z</time>
      </trkpt>
      <trkpt lat="41.993460" lon="1.023510">
        <ele>604.099</ele>
        <time>2021-06-20T15:19:30Z</time>
      </trkpt>
      <trkpt lat="41.993434" lon="1.023743">
        <ele>604.013</ele>
        <time>2021-06-20T15:19:33Z</time>
      </trkpt>
      <trkpt lat="41.993374" lon="1.023908">
        <ele>604.034</ele>
        <time>2021-06-20T15:19:35Z</time>
      </trkpt>
      <trkpt lat="41.993295" lon="1.024186">
        <ele>602.234</ele>
        <time>2021-06-20T15:19:38Z</time>
      </trkpt>
      <trkpt lat="41.993268" lon="1.024284">
        <ele>601.232</ele>
        <time>2021-06-20T15:19:39Z</time>
      </trkpt>
      <trkpt lat="41.993239" lon="1.024384">
        <ele>600.086</ele>
        <time>2021-06-20T15:19:40Z</time>
      </trkpt>
      <trkpt lat="41.993211" lon="1.024486">
        <ele>599.060</ele>
        <time>2021-06-20T15:19:41Z</time>
      </trkpt>
      <trkpt lat="41.993133" lon="1.024804">
        <ele>597.826</ele>
        <time>2021-06-20T15:19:44Z</time>
      </trkpt>
      <trkpt lat="41.993045" lon="1.025118">
        <ele>596.008</ele>
        <time>2021-06-20T15:19:47Z</time>
      </trkpt>
      <trkpt lat="41.993007" lon="1.025330">
        <ele>594.025</ele>
        <time>2021-06-20T15:19:49Z</time>
      </trkpt>
      <trkpt lat="41.992998" lon="1.025433">
        <ele>593.464</ele>
        <time>2021-06-20T15:19:50Z</time>
      </trkpt>
      <trkpt lat="41.992993" lon="1.025530">
        <ele>592.671</ele>
        <time>2021-06-20T15:19:51Z</time>
      </trkpt>
      <trkpt lat="41.992985" lon="1.025703">
        <ele>591.243</ele>
        <time>2021-06-20T15:19:53Z</time>
      </trkpt>
      <trkpt lat="41.992976" lon="1.025783">
        <ele>590.897</ele>
        <time>2021-06-20T15:19:54Z</time>
      </trkpt>
      <trkpt lat="41.992964" lon="1.025859">
        <ele>590.468</ele>
        <time>2021-06-20T15:19:55Z</time>
      </trkpt>
      <trkpt lat="41.992910" lon="1.025976">
        <ele>590.018</ele>
        <time>2021-06-20T15:19:57Z</time>
      </trkpt>
      <trkpt lat="41.992761" lon="1.026113">
        <ele>589.646</ele>
        <time>2021-06-20T15:20:00Z</time>
      </trkpt>
      <trkpt lat="41.992656" lon="1.026331">
        <ele>589.244</ele>
        <time>2021-06-20T15:20:03Z</time>
      </trkpt>
      <trkpt lat="41.992630" lon="1.026400">
        <ele>588.805</ele>
        <time>2021-06-20T15:20:04Z</time>
      </trkpt>
      <trkpt lat="41.992587" lon="1.026525">
        <ele>587.615</ele>
        <time>2021-06-20T15:20:06Z</time>
      </trkpt>
      <trkpt lat="41.992569" lon="1.026582">
        <ele>587.408</ele>
        <time>2021-06-20T15:20:07Z</time>
      </trkpt>
      <trkpt lat="41.992445" lon="1.026901">
        <ele>587.251</ele>
        <time>2021-06-20T15:20:14Z</time>
      </trkpt>
      <trkpt lat="41.992338" lon="1.027127">
        <ele>588.810</ele>
        <time>2021-06-20T15:20:20Z</time>
      </trkpt>
      <trkpt lat="41.992291" lon="1.027232">
        <ele>589.687</ele>
        <time>2021-06-20T15:20:23Z</time>
      </trkpt>
      <trkpt lat="41.992252" lon="1.027331">
        <ele>589.819</ele>
        <time>2021-06-20T15:20:26Z</time>
      </trkpt>
      <trkpt lat="41.992202" lon="1.027439">
        <ele>590.633</ele>
        <time>2021-06-20T15:20:30Z</time>
      </trkpt>
      <trkpt lat="41.992190" lon="1.027469">
        <ele>591.224</ele>
        <time>2021-06-20T15:20:31Z</time>
      </trkpt>
      <trkpt lat="41.992075" lon="1.027604">
        <ele>592.694</ele>
        <time>2021-06-20T15:20:36Z</time>
      </trkpt>
      <trkpt lat="41.991759" lon="1.027765">
        <ele>593.292</ele>
        <time>2021-06-20T15:20:45Z</time>
      </trkpt>
      <trkpt lat="41.991453" lon="1.027842">
        <ele>593.253</ele>
        <time>2021-06-20T15:20:52Z</time>
      </trkpt>
      <trkpt lat="41.991252" lon="1.027787">
        <ele>592.804</ele>
        <time>2021-06-20T15:20:56Z</time>
      </trkpt>
      <trkpt lat="41.991200" lon="1.027775">
        <ele>592.614</ele>
        <time>2021-06-20T15:20:57Z</time>
      </trkpt>
      <trkpt lat="41.990979" lon="1.027770">
        <ele>592.008</ele>
        <time>2021-06-20T15:21:01Z</time>
      </trkpt>
      <trkpt lat="41.990925" lon="1.027779">
        <ele>591.822</ele>
        <time>2021-06-20T15:21:02Z</time>
      </trkpt>
      <trkpt lat="41.990871" lon="1.027787">
        <ele>591.481</ele>
        <time>2021-06-20T15:21:03Z</time>
      </trkpt>
      <trkpt lat="41.990817" lon="1.027800">
        <ele>591.428</ele>
        <time>2021-06-20T15:21:04Z</time>
      </trkpt>
      <trkpt lat="41.990613" lon="1.027890">
        <ele>591.230</ele>
        <time>2021-06-20T15:21:08Z</time>
      </trkpt>
      <trkpt lat="41.990566" lon="1.027922">
        <ele>591.254</ele>
        <time>2021-06-20T15:21:09Z</time>
      </trkpt>
      <trkpt lat="41.990408" lon="1.028054">
        <ele>591.455</ele>
        <time>2021-06-20T15:21:13Z</time>
      </trkpt>
      <trkpt lat="41.990080" lon="1.028372">
        <ele>592.855</ele>
        <time>2021-06-20T15:21:22Z</time>
      </trkpt>
      <trkpt lat="41.989769" lon="1.028653">
        <ele>593.683</ele>
        <time>2021-06-20T15:21:30Z</time>
      </trkpt>
      <trkpt lat="41.989505" lon="1.028902">
        <ele>593.821</ele>
        <time>2021-06-20T15:21:37Z</time>
      </trkpt>
      <trkpt lat="41.989474" lon="1.028943">
        <ele>593.841</ele>
        <time>2021-06-20T15:21:38Z</time>
      </trkpt>
      <trkpt lat="41.989446" lon="1.028986">
        <ele>593.805</ele>
        <time>2021-06-20T15:21:39Z</time>
      </trkpt>
      <trkpt lat="41.989335" lon="1.029156">
        <ele>594.208</ele>
        <time>2021-06-20T15:21:44Z</time>
      </trkpt>
      <trkpt lat="41.989286" lon="1.029243">
        <ele>595.229</ele>
        <time>2021-06-20T15:21:47Z</time>
      </trkpt>
      <trkpt lat="41.989251" lon="1.029360">
        <ele>596.498</ele>
        <time>2021-06-20T15:21:51Z</time>
      </trkpt>
      <trkpt lat="41.989237" lon="1.029446">
        <ele>597.435</ele>
        <time>2021-06-20T15:21:54Z</time>
      </trkpt>
      <trkpt lat="41.989232" lon="1.029584">
        <ele>598.677</ele>
        <time>2021-06-20T15:21:59Z</time>
      </trkpt>
      <trkpt lat="41.989221" lon="1.029731">
        <ele>599.661</ele>
        <time>2021-06-20T15:22:05Z</time>
      </trkpt>
      <trkpt lat="41.989202" lon="1.029823">
        <ele>600.872</ele>
        <time>2021-06-20T15:22:09Z</time>
      </trkpt>
      <trkpt lat="41.989195" lon="1.029844">
        <ele>601.032</ele>
        <time>2021-06-20T15:22:10Z</time>
      </trkpt>
      <trkpt lat="41.989164" lon="1.029923">
        <ele>601.880</ele>
        <time>2021-06-20T15:22:14Z</time>
      </trkpt>
      <trkpt lat="41.989115" lon="1.029983">
        <ele>602.663</ele>
        <time>2021-06-20T15:22:18Z</time>
      </trkpt>
      <trkpt lat="41.989103" lon="1.030000">
        <ele>602.844</ele>
        <time>2021-06-20T15:22:19Z</time>
      </trkpt>
      <trkpt lat="41.989093" lon="1.030019">
        <ele>603.018</ele>
        <time>2021-06-20T15:22:20Z</time>
      </trkpt>
      <trkpt lat="41.989041" lon="1.030114">
        <ele>604.008</ele>
        <time>2021-06-20T15:22:25Z</time>
      </trkpt>
      <trkpt lat="41.989029" lon="1.030132">
        <ele>604.493</ele>
        <time>2021-06-20T15:22:26Z</time>
      </trkpt>
      <trkpt lat="41.988994" lon="1.030188">
        <ele>605.052</ele>
        <time>2021-06-20T15:22:29Z</time>
      </trkpt>
      <trkpt lat="41.988943" lon="1.030296">
        <ele>606.099</ele>
        <time>2021-06-20T15:22:34Z</time>
      </trkpt>
      <trkpt lat="41.988894" lon="1.030385">
        <ele>607.441</ele>
        <time>2021-06-20T15:22:38Z</time>
      </trkpt>
      <trkpt lat="41.988839" lon="1.030481">
        <ele>607.895</ele>
        <time>2021-06-20T15:22:42Z</time>
      </trkpt>
      <trkpt lat="41.988705" lon="1.030667">
        <ele>608.446</ele>
        <time>2021-06-20T15:22:49Z</time>
      </trkpt>
      <trkpt lat="41.988505" lon="1.030894">
        <ele>608.456</ele>
        <time>2021-06-20T15:22:56Z</time>
      </trkpt>
      <trkpt lat="41.988269" lon="1.031295">
        <ele>607.654</ele>
        <time>2021-06-20T15:23:04Z</time>
      </trkpt>
      <trkpt lat="41.988089" lon="1.031572">
        <ele>607.036</ele>
        <time>2021-06-20T15:23:10Z</time>
      </trkpt>
      <trkpt lat="41.987912" lon="1.031868">
        <ele>606.817</ele>
        <time>2021-06-20T15:23:16Z</time>
      </trkpt>
      <trkpt lat="41.987682" lon="1.032277">
        <ele>607.418</ele>
        <time>2021-06-20T15:23:24Z</time>
      </trkpt>
      <trkpt lat="41.987517" lon="1.032534">
        <ele>607.608</ele>
        <time>2021-06-20T15:23:28Z</time>
      </trkpt>
      <trkpt lat="41.987471" lon="1.032587">
        <ele>607.620</ele>
        <time>2021-06-20T15:23:29Z</time>
      </trkpt>
      <trkpt lat="41.987300" lon="1.032763">
        <ele>607.049</ele>
        <time>2021-06-20T15:23:33Z</time>
      </trkpt>
      <trkpt lat="41.987270" lon="1.032817">
        <ele>606.876</ele>
        <time>2021-06-20T15:23:34Z</time>
      </trkpt>
      <trkpt lat="41.987239" lon="1.032988">
        <ele>606.848</ele>
        <time>2021-06-20T15:23:37Z</time>
      </trkpt>
      <trkpt lat="41.987259" lon="1.033082">
        <ele>606.872</ele>
        <time>2021-06-20T15:23:39Z</time>
      </trkpt>
      <trkpt lat="41.987281" lon="1.033205">
        <ele>606.883</ele>
        <time>2021-06-20T15:23:42Z</time>
      </trkpt>
      <trkpt lat="41.987308" lon="1.033365">
        <ele>608.483</ele>
        <time>2021-06-20T15:23:47Z</time>
      </trkpt>
      <trkpt lat="41.987315" lon="1.033392">
        <ele>608.891</ele>
        <time>2021-06-20T15:23:48Z</time>
      </trkpt>
      <trkpt lat="41.987330" lon="1.033494">
        <ele>609.813</ele>
        <time>2021-06-20T15:23:52Z</time>
      </trkpt>
      <trkpt lat="41.987339" lon="1.033548">
        <ele>610.443</ele>
        <time>2021-06-20T15:23:54Z</time>
      </trkpt>
      <trkpt lat="41.987350" lon="1.033601">
        <ele>611.007</ele>
        <time>2021-06-20T15:23:56Z</time>
      </trkpt>
      <trkpt lat="41.987368" lon="1.033742">
        <ele>612.008</ele>
        <time>2021-06-20T15:24:01Z</time>
      </trkpt>
      <trkpt lat="41.987370" lon="1.033830">
        <ele>612.688</ele>
        <time>2021-06-20T15:24:04Z</time>
      </trkpt>
      <trkpt lat="41.987375" lon="1.033917">
        <ele>613.267</ele>
        <time>2021-06-20T15:24:07Z</time>
      </trkpt>
      <trkpt lat="41.987367" lon="1.034056">
        <ele>614.094</ele>
        <time>2021-06-20T15:24:12Z</time>
      </trkpt>
      <trkpt lat="41.987357" lon="1.034142">
        <ele>614.456</ele>
        <time>2021-06-20T15:24:15Z</time>
      </trkpt>
      <trkpt lat="41.987338" lon="1.034324">
        <ele>614.870</ele>
        <time>2021-06-20T15:24:21Z</time>
      </trkpt>
      <trkpt lat="41.987311" lon="1.034547">
        <ele>615.431</ele>
        <time>2021-06-20T15:24:28Z</time>
      </trkpt>
      <trkpt lat="41.987299" lon="1.034611">
        <ele>615.831</ele>
        <time>2021-06-20T15:24:30Z</time>
      </trkpt>
      <trkpt lat="41.987281" lon="1.034739">
        <ele>616.869</ele>
        <time>2021-06-20T15:24:34Z</time>
      </trkpt>
      <trkpt lat="41.987252" lon="1.034866">
        <ele>617.472</ele>
        <time>2021-06-20T15:24:38Z</time>
      </trkpt>
      <trkpt lat="41.987229" lon="1.034959">
        <ele>617.813</ele>
        <time>2021-06-20T15:24:41Z</time>
      </trkpt>
      <trkpt lat="41.987182" lon="1.035145">
        <ele>618.414</ele>
        <time>2021-06-20T15:24:47Z</time>
      </trkpt>
      <trkpt lat="41.987120" lon="1.035360">
        <ele>618.808</ele>
        <time>2021-06-20T15:24:54Z</time>
      </trkpt>
      <trkpt lat="41.987110" lon="1.035393">
        <ele>618.894</ele>
        <time>2021-06-20T15:24:55Z</time>
      </trkpt>
      <trkpt lat="41.987062" lon="1.035584">
        <ele>619.833</ele>
        <time>2021-06-20T15:25:01Z</time>
      </trkpt>
      <trkpt lat="41.987051" lon="1.035653">
        <ele>620.210</ele>
        <time>2021-06-20T15:25:03Z</time>
      </trkpt>
      <trkpt lat="41.987024" lon="1.035939">
        <ele>620.822</ele>
        <time>2021-06-20T15:25:11Z</time>
      </trkpt>
      <trkpt lat="41.987023" lon="1.036016">
        <ele>620.816</ele>
        <time>2021-06-20T15:25:13Z</time>
      </trkpt>
      <trkpt lat="41.987009" lon="1.036213">
        <ele>621.447</ele>
        <time>2021-06-20T15:25:18Z</time>
      </trkpt>
      <trkpt lat="41.987016" lon="1.036414">
        <ele>621.887</ele>
        <time>2021-06-20T15:25:23Z</time>
      </trkpt>
      <trkpt lat="41.987038" lon="1.036564">
        <ele>622.615</ele>
        <time>2021-06-20T15:25:27Z</time>
      </trkpt>
      <trkpt lat="41.987047" lon="1.036672">
        <ele>623.069</ele>
        <time>2021-06-20T15:25:30Z</time>
      </trkpt>
      <trkpt lat="41.987072" lon="1.036872">
        <ele>623.604</ele>
        <time>2021-06-20T15:25:36Z</time>
      </trkpt>
      <trkpt lat="41.987079" lon="1.037005">
        <ele>624.224</ele>
        <time>2021-06-20T15:25:40Z</time>
      </trkpt>
      <trkpt lat="41.987087" lon="1.037169">
        <ele>624.808</ele>
        <time>2021-06-20T15:25:45Z</time>
      </trkpt>
      <trkpt lat="41.987099" lon="1.037234">
        <ele>625.223</ele>
        <time>2021-06-20T15:25:47Z</time>
      </trkpt>
      <trkpt lat="41.987118" lon="1.037385">
        <ele>625.812</ele>
        <time>2021-06-20T15:25:52Z</time>
      </trkpt>
      <trkpt lat="41.987124" lon="1.037444">
        <ele>626.269</ele>
        <time>2021-06-20T15:25:54Z</time>
      </trkpt>
      <trkpt lat="41.987140" lon="1.037592">
        <ele>627.491</ele>
        <time>2021-06-20T15:25:59Z</time>
      </trkpt>
      <trkpt lat="41.987142" lon="1.037621">
        <ele>627.415</ele>
        <time>2021-06-20T15:26:00Z</time>
      </trkpt>
      <trkpt lat="41.987155" lon="1.037799">
        <ele>628.466</ele>
        <time>2021-06-20T15:26:06Z</time>
      </trkpt>
      <trkpt lat="41.987156" lon="1.037860">
        <ele>628.886</ele>
        <time>2021-06-20T15:26:08Z</time>
      </trkpt>
      <trkpt lat="41.987157" lon="1.037948">
        <ele>629.414</ele>
        <time>2021-06-20T15:26:11Z</time>
      </trkpt>
      <trkpt lat="41.987159" lon="1.038037">
        <ele>630.274</ele>
        <time>2021-06-20T15:26:14Z</time>
      </trkpt>
      <trkpt lat="41.987163" lon="1.038130">
        <ele>630.856</ele>
        <time>2021-06-20T15:26:17Z</time>
      </trkpt>
      <trkpt lat="41.987200" lon="1.038274">
        <ele>631.221</ele>
        <time>2021-06-20T15:26:22Z</time>
      </trkpt>
      <trkpt lat="41.987271" lon="1.038422">
        <ele>631.808</ele>
        <time>2021-06-20T15:26:27Z</time>
      </trkpt>
      <trkpt lat="41.987313" lon="1.038560">
        <ele>632.024</ele>
        <time>2021-06-20T15:26:31Z</time>
      </trkpt>
      <trkpt lat="41.987292" lon="1.038714">
        <ele>632.083</ele>
        <time>2021-06-20T15:26:35Z</time>
      </trkpt>
      <trkpt lat="41.987275" lon="1.038746">
        <ele>632.010</ele>
        <time>2021-06-20T15:26:36Z</time>
      </trkpt>
      <trkpt lat="41.987174" lon="1.038850">
        <ele>632.212</ele>
        <time>2021-06-20T15:26:41Z</time>
      </trkpt>
      <trkpt lat="41.987050" lon="1.038934">
        <ele>632.286</ele>
        <time>2021-06-20T15:26:46Z</time>
      </trkpt>
      <trkpt lat="41.986900" lon="1.038922">
        <ele>632.667</ele>
        <time>2021-06-20T15:26:51Z</time>
      </trkpt>
      <trkpt lat="41.986810" lon="1.038847">
        <ele>632.857</ele>
        <time>2021-06-20T15:26:55Z</time>
      </trkpt>
      <trkpt lat="41.986769" lon="1.038820">
        <ele>632.815</ele>
        <time>2021-06-20T15:26:57Z</time>
      </trkpt>
      <trkpt lat="41.986660" lon="1.038685">
        <ele>634.012</ele>
        <time>2021-06-20T15:27:03Z</time>
      </trkpt>
      <trkpt lat="41.986548" lon="1.038555">
        <ele>635.232</ele>
        <time>2021-06-20T15:27:09Z</time>
      </trkpt>
      <trkpt lat="41.986528" lon="1.038537">
        <ele>635.405</ele>
        <time>2021-06-20T15:27:10Z</time>
      </trkpt>
      <trkpt lat="41.986452" lon="1.038458">
        <ele>636.208</ele>
        <time>2021-06-20T15:27:14Z</time>
      </trkpt>
      <trkpt lat="41.986414" lon="1.038430">
        <ele>636.638</ele>
        <time>2021-06-20T15:27:16Z</time>
      </trkpt>
      <trkpt lat="41.986380" lon="1.038384">
        <ele>637.297</ele>
        <time>2021-06-20T15:27:18Z</time>
      </trkpt>
      <trkpt lat="41.986318" lon="1.038283">
        <ele>638.254</ele>
        <time>2021-06-20T15:27:22Z</time>
      </trkpt>
      <trkpt lat="41.986304" lon="1.038256">
        <ele>638.456</ele>
        <time>2021-06-20T15:27:23Z</time>
      </trkpt>
      <trkpt lat="41.986234" lon="1.038125">
        <ele>639.480</ele>
        <time>2021-06-20T15:27:28Z</time>
      </trkpt>
      <trkpt lat="41.986209" lon="1.038067">
        <ele>639.811</ele>
        <time>2021-06-20T15:27:30Z</time>
      </trkpt>
      <trkpt lat="41.986156" lon="1.037996">
        <ele>640.471</ele>
        <time>2021-06-20T15:27:33Z</time>
      </trkpt>
      <trkpt lat="41.986091" lon="1.037958">
        <ele>641.269</ele>
        <time>2021-06-20T15:27:36Z</time>
      </trkpt>
      <trkpt lat="41.986046" lon="1.037982">
        <ele>641.852</ele>
        <time>2021-06-20T15:27:38Z</time>
      </trkpt>
      <trkpt lat="41.986024" lon="1.038038">
        <ele>642.253</ele>
        <time>2021-06-20T15:27:40Z</time>
      </trkpt>
      <trkpt lat="41.986012" lon="1.038121">
        <ele>642.808</ele>
        <time>2021-06-20T15:27:43Z</time>
      </trkpt>
      <trkpt lat="41.986023" lon="1.038175">
        <ele>643.408</ele>
        <time>2021-06-20T15:27:45Z</time>
      </trkpt>
      <trkpt lat="41.986032" lon="1.038200">
        <ele>643.872</ele>
        <time>2021-06-20T15:27:46Z</time>
      </trkpt>
      <trkpt lat="41.986040" lon="1.038226">
        <ele>644.061</ele>
        <time>2021-06-20T15:27:47Z</time>
      </trkpt>
      <trkpt lat="41.986066" lon="1.038388">
        <ele>645.298</ele>
        <time>2021-06-20T15:27:53Z</time>
      </trkpt>
      <trkpt lat="41.986072" lon="1.038443">
        <ele>645.680</ele>
        <time>2021-06-20T15:27:55Z</time>
      </trkpt>
      <trkpt lat="41.986083" lon="1.038550">
        <ele>646.264</ele>
        <time>2021-06-20T15:27:59Z</time>
      </trkpt>
      <trkpt lat="41.986090" lon="1.038685">
        <ele>647.075</ele>
        <time>2021-06-20T15:28:04Z</time>
      </trkpt>
      <trkpt lat="41.986096" lon="1.038738">
        <ele>647.465</ele>
        <time>2021-06-20T15:28:06Z</time>
      </trkpt>
      <trkpt lat="41.986105" lon="1.038896">
        <ele>648.653</ele>
        <time>2021-06-20T15:28:12Z</time>
      </trkpt>
      <trkpt lat="41.986098" lon="1.039006">
        <ele>649.835</ele>
        <time>2021-06-20T15:28:16Z</time>
      </trkpt>
      <trkpt lat="41.986071" lon="1.039083">
        <ele>650.486</ele>
        <time>2021-06-20T15:28:19Z</time>
      </trkpt>
      <trkpt lat="41.986051" lon="1.039133">
        <ele>650.814</ele>
        <time>2021-06-20T15:28:21Z</time>
      </trkpt>
      <trkpt lat="41.985984" lon="1.039283">
        <ele>652.008</ele>
        <time>2021-06-20T15:28:27Z</time>
      </trkpt>
      <trkpt lat="41.985977" lon="1.039311">
        <ele>652.220</ele>
        <time>2021-06-20T15:28:28Z</time>
      </trkpt>
      <trkpt lat="41.985930" lon="1.039502">
        <ele>653.029</ele>
        <time>2021-06-20T15:28:35Z</time>
      </trkpt>
      <trkpt lat="41.985907" lon="1.039663">
        <ele>654.246</ele>
        <time>2021-06-20T15:28:41Z</time>
      </trkpt>
      <trkpt lat="41.985900" lon="1.039733">
        <ele>654.898</ele>
        <time>2021-06-20T15:28:44Z</time>
      </trkpt>
      <trkpt lat="41.985885" lon="1.039800">
        <ele>655.272</ele>
        <time>2021-06-20T15:28:47Z</time>
      </trkpt>
      <trkpt lat="41.985862" lon="1.039916">
        <ele>656.463</ele>
        <time>2021-06-20T15:28:52Z</time>
      </trkpt>
      <trkpt lat="41.985834" lon="1.040034">
        <ele>657.643</ele>
        <time>2021-06-20T15:28:57Z</time>
      </trkpt>
      <trkpt lat="41.985832" lon="1.040109">
        <ele>658.081</ele>
        <time>2021-06-20T15:29:00Z</time>
      </trkpt>
      <trkpt lat="41.985823" lon="1.040183">
        <ele>658.618</ele>
        <time>2021-06-20T15:29:03Z</time>
      </trkpt>
      <trkpt lat="41.985818" lon="1.040255">
        <ele>659.298</ele>
        <time>2021-06-20T15:29:06Z</time>
      </trkpt>
      <trkpt lat="41.985823" lon="1.040303">
        <ele>659.617</ele>
        <time>2021-06-20T15:29:08Z</time>
      </trkpt>
      <trkpt lat="41.985830" lon="1.040399">
        <ele>660.808</ele>
        <time>2021-06-20T15:29:12Z</time>
      </trkpt>
      <trkpt lat="41.985829" lon="1.040496">
        <ele>661.638</ele>
        <time>2021-06-20T15:29:16Z</time>
      </trkpt>
      <trkpt lat="41.985824" lon="1.040519">
        <ele>661.887</ele>
        <time>2021-06-20T15:29:17Z</time>
      </trkpt>
      <trkpt lat="41.985806" lon="1.040635">
        <ele>662.874</ele>
        <time>2021-06-20T15:29:22Z</time>
      </trkpt>
      <trkpt lat="41.985822" lon="1.040805">
        <ele>663.846</ele>
        <time>2021-06-20T15:29:29Z</time>
      </trkpt>
      <trkpt lat="41.985823" lon="1.040853">
        <ele>664.290</ele>
        <time>2021-06-20T15:29:31Z</time>
      </trkpt>
      <trkpt lat="41.985821" lon="1.040949">
        <ele>665.071</ele>
        <time>2021-06-20T15:29:35Z</time>
      </trkpt>
      <trkpt lat="41.985811" lon="1.041074">
        <ele>666.011</ele>
        <time>2021-06-20T15:29:40Z</time>
      </trkpt>
      <trkpt lat="41.985811" lon="1.041099">
        <ele>666.289</ele>
        <time>2021-06-20T15:29:41Z</time>
      </trkpt>
      <trkpt lat="41.985787" lon="1.041297">
        <ele>667.272</ele>
        <time>2021-06-20T15:29:49Z</time>
      </trkpt>
      <trkpt lat="41.985779" lon="1.041344">
        <ele>667.413</ele>
        <time>2021-06-20T15:29:51Z</time>
      </trkpt>
      <trkpt lat="41.985732" lon="1.041478">
        <ele>668.214</ele>
        <time>2021-06-20T15:29:57Z</time>
      </trkpt>
      <trkpt lat="41.985708" lon="1.041545">
        <ele>669.008</ele>
        <time>2021-06-20T15:30:00Z</time>
      </trkpt>
      <trkpt lat="41.985705" lon="1.041569">
        <ele>669.224</ele>
        <time>2021-06-20T15:30:01Z</time>
      </trkpt>
      <trkpt lat="41.985713" lon="1.041674">
        <ele>670.633</ele>
        <time>2021-06-20T15:30:05Z</time>
      </trkpt>
      <trkpt lat="41.985716" lon="1.041702">
        <ele>670.680</ele>
        <time>2021-06-20T15:30:06Z</time>
      </trkpt>
      <trkpt lat="41.985774" lon="1.041915">
        <ele>671.042</ele>
        <time>2021-06-20T15:30:12Z</time>
      </trkpt>
      <trkpt lat="41.985843" lon="1.042263">
        <ele>671.016</ele>
        <time>2021-06-20T15:30:18Z</time>
      </trkpt>
      <trkpt lat="41.985856" lon="1.042336">
        <ele>671.037</ele>
        <time>2021-06-20T15:30:19Z</time>
      </trkpt>
      <trkpt lat="41.985893" lon="1.042681">
        <ele>670.027</ele>
        <time>2021-06-20T15:30:23Z</time>
      </trkpt>
      <trkpt lat="41.985931" lon="1.042960">
        <ele>669.495</ele>
        <time>2021-06-20T15:30:26Z</time>
      </trkpt>
      <trkpt lat="41.985954" lon="1.043146">
        <ele>668.261</ele>
        <time>2021-06-20T15:30:28Z</time>
      </trkpt>
      <trkpt lat="41.985974" lon="1.043332">
        <ele>667.021</ele>
        <time>2021-06-20T15:30:30Z</time>
      </trkpt>
      <trkpt lat="41.985997" lon="1.043518">
        <ele>666.013</ele>
        <time>2021-06-20T15:30:32Z</time>
      </trkpt>
      <trkpt lat="41.986011" lon="1.043612">
        <ele>665.608</ele>
        <time>2021-06-20T15:30:33Z</time>
      </trkpt>
      <trkpt lat="41.986112" lon="1.044166">
        <ele>664.453</ele>
        <time>2021-06-20T15:30:39Z</time>
      </trkpt>
      <trkpt lat="41.986128" lon="1.044254">
        <ele>664.462</ele>
        <time>2021-06-20T15:30:40Z</time>
      </trkpt>
      <trkpt lat="41.986232" lon="1.044629">
        <ele>663.899</ele>
        <time>2021-06-20T15:30:45Z</time>
      </trkpt>
      <trkpt lat="41.986275" lon="1.044750">
        <ele>663.851</ele>
        <time>2021-06-20T15:30:47Z</time>
      </trkpt>
      <trkpt lat="41.986328" lon="1.044983">
        <ele>663.825</ele>
        <time>2021-06-20T15:30:51Z</time>
      </trkpt>
      <trkpt lat="41.986403" lon="1.045336">
        <ele>665.056</ele>
        <time>2021-06-20T15:30:58Z</time>
      </trkpt>
      <trkpt lat="41.986433" lon="1.045469">
        <ele>665.646</ele>
        <time>2021-06-20T15:31:01Z</time>
      </trkpt>
      <trkpt lat="41.986464" lon="1.045597">
        <ele>666.284</ele>
        <time>2021-06-20T15:31:04Z</time>
      </trkpt>
      <trkpt lat="41.986474" lon="1.045640">
        <ele>666.611</ele>
        <time>2021-06-20T15:31:05Z</time>
      </trkpt>
      <trkpt lat="41.986497" lon="1.045954">
        <ele>667.421</ele>
        <time>2021-06-20T15:31:12Z</time>
      </trkpt>
      <trkpt lat="41.986470" lon="1.046040">
        <ele>667.603</ele>
        <time>2021-06-20T15:31:14Z</time>
      </trkpt>
      <trkpt lat="41.986438" lon="1.046125">
        <ele>667.608</ele>
        <time>2021-06-20T15:31:16Z</time>
      </trkpt>
      <trkpt lat="41.986304" lon="1.046382">
        <ele>668.898</ele>
        <time>2021-06-20T15:31:23Z</time>
      </trkpt>
      <trkpt lat="41.986287" lon="1.046410">
        <ele>668.857</ele>
        <time>2021-06-20T15:31:24Z</time>
      </trkpt>
      <trkpt lat="41.986241" lon="1.046512">
        <ele>669.434</ele>
        <time>2021-06-20T15:31:28Z</time>
      </trkpt>
      <trkpt lat="41.986226" lon="1.046530">
        <ele>669.896</ele>
        <time>2021-06-20T15:31:29Z</time>
      </trkpt>
      <trkpt lat="41.986176" lon="1.046623">
        <ele>671.030</ele>
        <time>2021-06-20T15:31:33Z</time>
      </trkpt>
      <trkpt lat="41.986148" lon="1.046670">
        <ele>671.691</ele>
        <time>2021-06-20T15:31:35Z</time>
      </trkpt>
      <trkpt lat="41.986122" lon="1.046723">
        <ele>672.021</ele>
        <time>2021-06-20T15:31:37Z</time>
      </trkpt>
      <trkpt lat="41.986057" lon="1.046869">
        <ele>673.039</ele>
        <time>2021-06-20T15:31:42Z</time>
      </trkpt>
      <trkpt lat="41.986014" lon="1.046954">
        <ele>673.455</ele>
        <time>2021-06-20T15:31:45Z</time>
      </trkpt>
      <trkpt lat="41.985949" lon="1.047146">
        <ele>674.407</ele>
        <time>2021-06-20T15:31:51Z</time>
      </trkpt>
      <trkpt lat="41.985880" lon="1.047378">
        <ele>675.017</ele>
        <time>2021-06-20T15:31:58Z</time>
      </trkpt>
      <trkpt lat="41.985833" lon="1.047623">
        <ele>675.408</ele>
        <time>2021-06-20T15:32:06Z</time>
      </trkpt>
      <trkpt lat="41.985823" lon="1.047656">
        <ele>675.492</ele>
        <time>2021-06-20T15:32:07Z</time>
      </trkpt>
      <trkpt lat="41.985751" lon="1.047813">
        <ele>675.491</ele>
        <time>2021-06-20T15:32:12Z</time>
      </trkpt>
      <trkpt lat="41.985621" lon="1.047986">
        <ele>675.628</ele>
        <time>2021-06-20T15:32:19Z</time>
      </trkpt>
      <trkpt lat="41.985408" lon="1.048273">
        <ele>676.420</ele>
        <time>2021-06-20T15:32:30Z</time>
      </trkpt>
      <trkpt lat="41.985275" lon="1.048527">
        <ele>677.814</ele>
        <time>2021-06-20T15:32:39Z</time>
      </trkpt>
      <trkpt lat="41.985198" lon="1.048681">
        <ele>679.055</ele>
        <time>2021-06-20T15:32:45Z</time>
      </trkpt>
      <trkpt lat="41.985165" lon="1.048770">
        <ele>680.025</ele>
        <time>2021-06-20T15:32:48Z</time>
      </trkpt>
      <trkpt lat="41.985152" lon="1.048798">
        <ele>680.243</ele>
        <time>2021-06-20T15:32:49Z</time>
      </trkpt>
      <trkpt lat="41.985091" lon="1.048899">
        <ele>681.251</ele>
        <time>2021-06-20T15:32:53Z</time>
      </trkpt>
      <trkpt lat="41.985025" lon="1.048987">
        <ele>681.401</ele>
        <time>2021-06-20T15:32:57Z</time>
      </trkpt>
      <trkpt lat="41.984850" lon="1.049166">
        <ele>682.211</ele>
        <time>2021-06-20T15:33:06Z</time>
      </trkpt>
      <trkpt lat="41.984812" lon="1.049205">
        <ele>682.408</ele>
        <time>2021-06-20T15:33:08Z</time>
      </trkpt>
      <trkpt lat="41.984613" lon="1.049378">
        <ele>683.262</ele>
        <time>2021-06-20T15:33:18Z</time>
      </trkpt>
      <trkpt lat="41.984592" lon="1.049394">
        <ele>683.211</ele>
        <time>2021-06-20T15:33:19Z</time>
      </trkpt>
      <trkpt lat="41.984414" lon="1.049530">
        <ele>683.678</ele>
        <time>2021-06-20T15:33:27Z</time>
      </trkpt>
      <trkpt lat="41.984216" lon="1.049647">
        <ele>683.610</ele>
        <time>2021-06-20T15:33:34Z</time>
      </trkpt>
      <trkpt lat="41.983924" lon="1.049805">
        <ele>683.084</ele>
        <time>2021-06-20T15:33:43Z</time>
      </trkpt>
      <trkpt lat="41.983691" lon="1.049931">
        <ele>682.465</ele>
        <time>2021-06-20T15:33:49Z</time>
      </trkpt>
      <trkpt lat="41.983482" lon="1.050065">
        <ele>681.295</ele>
        <time>2021-06-20T15:33:54Z</time>
      </trkpt>
      <trkpt lat="41.983356" lon="1.050142">
        <ele>680.423</ele>
        <time>2021-06-20T15:33:57Z</time>
      </trkpt>
      <trkpt lat="41.983313" lon="1.050167">
        <ele>680.071</ele>
        <time>2021-06-20T15:33:58Z</time>
      </trkpt>
      <trkpt lat="41.983178" lon="1.050247">
        <ele>679.041</ele>
        <time>2021-06-20T15:34:01Z</time>
      </trkpt>
      <trkpt lat="41.983083" lon="1.050308">
        <ele>678.415</ele>
        <time>2021-06-20T15:34:03Z</time>
      </trkpt>
      <trkpt lat="41.983043" lon="1.050339">
        <ele>678.208</ele>
        <time>2021-06-20T15:34:04Z</time>
      </trkpt>
      <trkpt lat="41.982972" lon="1.050391">
        <ele>677.884</ele>
        <time>2021-06-20T15:34:06Z</time>
      </trkpt>
      <trkpt lat="41.982800" lon="1.050529">
        <ele>676.883</ele>
        <time>2021-06-20T15:34:11Z</time>
      </trkpt>
      <trkpt lat="41.982623" lon="1.050637">
        <ele>676.440</ele>
        <time>2021-06-20T15:34:16Z</time>
      </trkpt>
      <trkpt lat="41.982542" lon="1.050667">
        <ele>676.252</ele>
        <time>2021-06-20T15:34:18Z</time>
      </trkpt>
      <trkpt lat="41.982169" lon="1.050800">
        <ele>676.046</ele>
        <time>2021-06-20T15:34:27Z</time>
      </trkpt>
      <trkpt lat="41.982012" lon="1.050957">
        <ele>676.027</ele>
        <time>2021-06-20T15:34:32Z</time>
      </trkpt>
      <trkpt lat="41.981803" lon="1.051242">
        <ele>675.857</ele>
        <time>2021-06-20T15:34:38Z</time>
      </trkpt>
      <trkpt lat="41.981636" lon="1.051412">
        <ele>675.645</ele>
        <time>2021-06-20T15:34:42Z</time>
      </trkpt>
      <trkpt lat="41.981546" lon="1.051485">
        <ele>674.634</ele>
        <time>2021-06-20T15:34:44Z</time>
      </trkpt>
      <trkpt lat="41.981498" lon="1.051518">
        <ele>673.255</ele>
        <time>2021-06-20T15:34:45Z</time>
      </trkpt>
      <trkpt lat="41.981353" lon="1.051620">
        <ele>671.810</ele>
        <time>2021-06-20T15:34:48Z</time>
      </trkpt>
      <trkpt lat="41.981256" lon="1.051693">
        <ele>671.008</ele>
        <time>2021-06-20T15:34:50Z</time>
      </trkpt>
      <trkpt lat="41.981210" lon="1.051729">
        <ele>670.840</ele>
        <time>2021-06-20T15:34:51Z</time>
      </trkpt>
      <trkpt lat="41.981077" lon="1.051836">
        <ele>669.499</ele>
        <time>2021-06-20T15:34:54Z</time>
      </trkpt>
      <trkpt lat="41.980937" lon="1.051939">
        <ele>668.856</ele>
        <time>2021-06-20T15:34:57Z</time>
      </trkpt>
      <trkpt lat="41.980691" lon="1.052135">
        <ele>668.498</ele>
        <time>2021-06-20T15:35:02Z</time>
      </trkpt>
      <trkpt lat="41.980501" lon="1.052287">
        <ele>667.832</ele>
        <time>2021-06-20T15:35:06Z</time>
      </trkpt>
      <trkpt lat="41.980339" lon="1.052481">
        <ele>667.693</ele>
        <time>2021-06-20T15:35:11Z</time>
      </trkpt>
      <trkpt lat="41.980286" lon="1.052577">
        <ele>667.463</ele>
        <time>2021-06-20T15:35:13Z</time>
      </trkpt>
      <trkpt lat="41.980176" lon="1.052770">
        <ele>667.071</ele>
        <time>2021-06-20T15:35:17Z</time>
      </trkpt>
      <trkpt lat="41.980142" lon="1.052810">
        <ele>666.692</ele>
        <time>2021-06-20T15:35:18Z</time>
      </trkpt>
      <trkpt lat="41.980004" lon="1.052871">
        <ele>666.473</ele>
        <time>2021-06-20T15:35:21Z</time>
      </trkpt>
      <trkpt lat="41.979951" lon="1.052880">
        <ele>665.820</ele>
        <time>2021-06-20T15:35:22Z</time>
      </trkpt>
      <trkpt lat="41.979897" lon="1.052884">
        <ele>665.408</ele>
        <time>2021-06-20T15:35:23Z</time>
      </trkpt>
      <trkpt lat="41.979843" lon="1.052885">
        <ele>665.086</ele>
        <time>2021-06-20T15:35:24Z</time>
      </trkpt>
      <trkpt lat="41.979790" lon="1.052891">
        <ele>664.455</ele>
        <time>2021-06-20T15:35:25Z</time>
      </trkpt>
      <trkpt lat="41.979737" lon="1.052901">
        <ele>663.852</ele>
        <time>2021-06-20T15:35:26Z</time>
      </trkpt>
      <trkpt lat="41.979529" lon="1.052924">
        <ele>662.824</ele>
        <time>2021-06-20T15:35:30Z</time>
      </trkpt>
      <trkpt lat="41.979368" lon="1.052940">
        <ele>661.848</ele>
        <time>2021-06-20T15:35:33Z</time>
      </trkpt>
      <trkpt lat="41.979313" lon="1.052947">
        <ele>661.869</ele>
        <time>2021-06-20T15:35:34Z</time>
      </trkpt>
      <trkpt lat="41.978917" lon="1.052999">
        <ele>660.659</ele>
        <time>2021-06-20T15:35:41Z</time>
      </trkpt>
      <trkpt lat="41.978803" lon="1.053017">
        <ele>660.447</ele>
        <time>2021-06-20T15:35:43Z</time>
      </trkpt>
      <trkpt lat="41.978444" lon="1.053146">
        <ele>660.039</ele>
        <time>2021-06-20T15:35:50Z</time>
      </trkpt>
      <trkpt lat="41.978152" lon="1.053409">
        <ele>659.601</ele>
        <time>2021-06-20T15:35:57Z</time>
      </trkpt>
      <trkpt lat="41.977957" lon="1.053614">
        <ele>659.621</ele>
        <time>2021-06-20T15:36:02Z</time>
      </trkpt>
      <trkpt lat="41.977881" lon="1.053697">
        <ele>659.008</ele>
        <time>2021-06-20T15:36:04Z</time>
      </trkpt>
      <trkpt lat="41.977811" lon="1.053781">
        <ele>658.440</ele>
        <time>2021-06-20T15:36:06Z</time>
      </trkpt>
      <trkpt lat="41.977662" lon="1.053940">
        <ele>657.469</ele>
        <time>2021-06-20T15:36:10Z</time>
      </trkpt>
      <trkpt lat="41.977589" lon="1.054020">
        <ele>656.896</ele>
        <time>2021-06-20T15:36:12Z</time>
      </trkpt>
      <trkpt lat="41.977554" lon="1.054062">
        <ele>656.278</ele>
        <time>2021-06-20T15:36:13Z</time>
      </trkpt>
      <trkpt lat="41.977410" lon="1.054236">
        <ele>655.062</ele>
        <time>2021-06-20T15:36:17Z</time>
      </trkpt>
      <trkpt lat="41.977379" lon="1.054282">
        <ele>654.663</ele>
        <time>2021-06-20T15:36:18Z</time>
      </trkpt>
      <trkpt lat="41.977324" lon="1.054386">
        <ele>654.463</ele>
        <time>2021-06-20T15:36:20Z</time>
      </trkpt>
      <trkpt lat="41.977260" lon="1.054534">
        <ele>653.811</ele>
        <time>2021-06-20T15:36:23Z</time>
      </trkpt>
      <trkpt lat="41.977225" lon="1.054631">
        <ele>652.834</ele>
        <time>2021-06-20T15:36:25Z</time>
      </trkpt>
      <trkpt lat="41.977201" lon="1.054674">
        <ele>652.655</ele>
        <time>2021-06-20T15:36:26Z</time>
      </trkpt>
      <trkpt lat="41.977110" lon="1.054772">
        <ele>651.010</ele>
        <time>2021-06-20T15:36:29Z</time>
      </trkpt>
      <trkpt lat="41.977076" lon="1.054802">
        <ele>650.808</ele>
        <time>2021-06-20T15:36:30Z</time>
      </trkpt>
      <trkpt lat="41.976942" lon="1.054958">
        <ele>650.250</ele>
        <time>2021-06-20T15:36:34Z</time>
      </trkpt>
      <trkpt lat="41.976913" lon="1.055009">
        <ele>650.069</ele>
        <time>2021-06-20T15:36:35Z</time>
      </trkpt>
      <trkpt lat="41.976883" lon="1.055062">
        <ele>649.226</ele>
        <time>2021-06-20T15:36:36Z</time>
      </trkpt>
      <trkpt lat="41.976854" lon="1.055114">
        <ele>648.648</ele>
        <time>2021-06-20T15:36:37Z</time>
      </trkpt>
      <trkpt lat="41.976770" lon="1.055267">
        <ele>647.232</ele>
        <time>2021-06-20T15:36:40Z</time>
      </trkpt>
      <trkpt lat="41.976713" lon="1.055377">
        <ele>645.673</ele>
        <time>2021-06-20T15:36:42Z</time>
      </trkpt>
      <trkpt lat="41.976652" lon="1.055480">
        <ele>644.443</ele>
        <time>2021-06-20T15:36:44Z</time>
      </trkpt>
      <trkpt lat="41.976575" lon="1.055565">
        <ele>643.211</ele>
        <time>2021-06-20T15:36:46Z</time>
      </trkpt>
      <trkpt lat="41.976536" lon="1.055604">
        <ele>642.662</ele>
        <time>2021-06-20T15:36:47Z</time>
      </trkpt>
      <trkpt lat="41.976496" lon="1.055642">
        <ele>641.683</ele>
        <time>2021-06-20T15:36:48Z</time>
      </trkpt>
      <trkpt lat="41.976416" lon="1.055722">
        <ele>640.611</ele>
        <time>2021-06-20T15:36:50Z</time>
      </trkpt>
      <trkpt lat="41.976267" lon="1.055921">
        <ele>640.008</ele>
        <time>2021-06-20T15:36:54Z</time>
      </trkpt>
      <trkpt lat="41.976202" lon="1.056022">
        <ele>639.673</ele>
        <time>2021-06-20T15:36:56Z</time>
      </trkpt>
      <trkpt lat="41.976165" lon="1.056075">
        <ele>639.282</ele>
        <time>2021-06-20T15:36:57Z</time>
      </trkpt>
      <trkpt lat="41.976080" lon="1.056170">
        <ele>638.269</ele>
        <time>2021-06-20T15:36:59Z</time>
      </trkpt>
      <trkpt lat="41.976042" lon="1.056218">
        <ele>637.641</ele>
        <time>2021-06-20T15:37:00Z</time>
      </trkpt>
      <trkpt lat="41.976009" lon="1.056262">
        <ele>637.085</ele>
        <time>2021-06-20T15:37:01Z</time>
      </trkpt>
      <trkpt lat="41.975929" lon="1.056363">
        <ele>636.066</ele>
        <time>2021-06-20T15:37:04Z</time>
      </trkpt>
      <trkpt lat="41.975908" lon="1.056382">
        <ele>635.896</ele>
        <time>2021-06-20T15:37:07Z</time>
      </trkpt>
      <trkpt lat="41.975862" lon="1.056428">
        <ele>636.254</ele>
        <time>2021-06-20T15:37:31Z</time>
      </trkpt>
      <trkpt lat="41.975832" lon="1.056446">
        <ele>636.296</ele>
        <time>2021-06-20T15:37:33Z</time>
      </trkpt>
      <trkpt lat="41.975807" lon="1.056461">
        <ele>636.431</ele>
        <time>2021-06-20T15:37:35Z</time>
      </trkpt>
      <trkpt lat="41.975761" lon="1.056490">
        <ele>636.424</ele>
        <time>2021-06-20T15:37:39Z</time>
      </trkpt>
      <trkpt lat="41.975740" lon="1.056424">
        <ele>636.408</ele>
        <time>2021-06-20T15:37:43Z</time>
      </trkpt>
      <trkpt lat="41.975692" lon="1.056355">
        <ele>637.296</ele>
        <time>2021-06-20T15:37:48Z</time>
      </trkpt>
      <trkpt lat="41.975671" lon="1.056332">
        <ele>637.475</ele>
        <time>2021-06-20T15:37:50Z</time>
      </trkpt>
      <trkpt lat="41.975658" lon="1.056298">
        <ele>637.692</ele>
        <time>2021-06-20T15:37:52Z</time>
      </trkpt>
      <trkpt lat="41.975629" lon="1.056249">
        <ele>638.654</ele>
        <time>2021-06-20T15:37:55Z</time>
      </trkpt>
      <trkpt lat="41.975588" lon="1.056210">
        <ele>639.268</ele>
        <time>2021-06-20T15:37:58Z</time>
      </trkpt>
      <trkpt lat="41.975455" lon="1.056096">
        <ele>639.629</ele>
        <time>2021-06-20T15:38:05Z</time>
      </trkpt>
      <trkpt lat="41.975298" lon="1.056001">
        <ele>639.069</ele>
        <time>2021-06-20T15:38:12Z</time>
      </trkpt>
      <trkpt lat="41.975223" lon="1.055994">
        <ele>638.497</ele>
        <time>2021-06-20T15:38:15Z</time>
      </trkpt>
      <trkpt lat="41.975199" lon="1.056012">
        <ele>638.257</ele>
        <time>2021-06-20T15:38:16Z</time>
      </trkpt>
      <trkpt lat="41.975169" lon="1.056070">
        <ele>637.200</ele>
        <time>2021-06-20T15:38:18Z</time>
      </trkpt>
      <trkpt lat="41.975159" lon="1.056100">
        <ele>636.820</ele>
        <time>2021-06-20T15:38:19Z</time>
      </trkpt>
      <trkpt lat="41.975147" lon="1.056129">
        <ele>636.408</ele>
        <time>2021-06-20T15:38:20Z</time>
      </trkpt>
      <trkpt lat="41.975130" lon="1.056161">
        <ele>636.072</ele>
        <time>2021-06-20T15:38:21Z</time>
      </trkpt>
      <trkpt lat="41.975100" lon="1.056215">
        <ele>635.071</ele>
        <time>2021-06-20T15:38:23Z</time>
      </trkpt>
      <trkpt lat="41.975076" lon="1.056257">
        <ele>634.478</ele>
        <time>2021-06-20T15:38:25Z</time>
      </trkpt>
      <trkpt lat="41.975064" lon="1.056274">
        <ele>633.660</ele>
        <time>2021-06-20T15:38:26Z</time>
      </trkpt>
      <trkpt lat="41.975049" lon="1.056284">
        <ele>633.434</ele>
        <time>2021-06-20T15:38:27Z</time>
      </trkpt>
      <trkpt lat="41.974999" lon="1.056286">
        <ele>632.465</ele>
        <time>2021-06-20T15:38:29Z</time>
      </trkpt>
      <trkpt lat="41.974971" lon="1.056279">
        <ele>632.075</ele>
        <time>2021-06-20T15:38:30Z</time>
      </trkpt>
      <trkpt lat="41.974883" lon="1.056236">
        <ele>631.463</ele>
        <time>2021-06-20T15:38:33Z</time>
      </trkpt>
      <trkpt lat="41.974854" lon="1.056222">
        <ele>631.226</ele>
        <time>2021-06-20T15:38:34Z</time>
      </trkpt>
      <trkpt lat="41.974802" lon="1.056187">
        <ele>630.647</ele>
        <time>2021-06-20T15:38:36Z</time>
      </trkpt>
      <trkpt lat="41.974753" lon="1.056142">
        <ele>630.011</ele>
        <time>2021-06-20T15:38:38Z</time>
      </trkpt>
      <trkpt lat="41.974716" lon="1.056044">
        <ele>629.608</ele>
        <time>2021-06-20T15:38:41Z</time>
      </trkpt>
      <trkpt lat="41.974704" lon="1.055823">
        <ele>629.439</ele>
        <time>2021-06-20T15:38:47Z</time>
      </trkpt>
      <trkpt lat="41.974694" lon="1.055715">
        <ele>629.238</ele>
        <time>2021-06-20T15:38:50Z</time>
      </trkpt>
      <trkpt lat="41.974686" lon="1.055683">
        <ele>629.255</ele>
        <time>2021-06-20T15:38:51Z</time>
      </trkpt>
      <trkpt lat="41.974574" lon="1.055419">
        <ele>628.817</ele>
        <time>2021-06-20T15:38:57Z</time>
      </trkpt>
      <trkpt lat="41.974317" lon="1.054892">
        <ele>628.231</ele>
        <time>2021-06-20T15:39:08Z</time>
      </trkpt>
      <trkpt lat="41.974031" lon="1.054291">
        <ele>627.822</ele>
        <time>2021-06-20T15:39:20Z</time>
      </trkpt>
      <trkpt lat="41.973725" lon="1.053639">
        <ele>627.492</ele>
        <time>2021-06-20T15:39:32Z</time>
      </trkpt>
      <trkpt lat="41.973693" lon="1.053588">
        <ele>627.240</ele>
        <time>2021-06-20T15:39:33Z</time>
      </trkpt>
      <trkpt lat="41.973657" lon="1.053539">
        <ele>627.019</ele>
        <time>2021-06-20T15:39:34Z</time>
      </trkpt>
      <trkpt lat="41.973529" lon="1.053409">
        <ele>626.609</ele>
        <time>2021-06-20T15:39:37Z</time>
      </trkpt>
      <trkpt lat="41.973175" lon="1.053137">
        <ele>626.019</ele>
        <time>2021-06-20T15:39:44Z</time>
      </trkpt>
      <trkpt lat="41.973125" lon="1.053101">
        <ele>626.008</ele>
        <time>2021-06-20T15:39:45Z</time>
      </trkpt>
      <trkpt lat="41.972761" lon="1.052844">
        <ele>625.658</ele>
        <time>2021-06-20T15:39:53Z</time>
      </trkpt>
      <trkpt lat="41.972542" lon="1.052679">
        <ele>626.467</ele>
        <time>2021-06-20T15:40:00Z</time>
      </trkpt>
      <trkpt lat="41.972422" lon="1.052624">
        <ele>627.254</ele>
        <time>2021-06-20T15:40:04Z</time>
      </trkpt>
      <trkpt lat="41.972356" lon="1.052624">
        <ele>627.866</ele>
        <time>2021-06-20T15:40:06Z</time>
      </trkpt>
      <trkpt lat="41.972323" lon="1.052631">
        <ele>628.290</ele>
        <time>2021-06-20T15:40:07Z</time>
      </trkpt>
      <trkpt lat="41.972202" lon="1.052706">
        <ele>629.411</ele>
        <time>2021-06-20T15:40:11Z</time>
      </trkpt>
      <trkpt lat="41.972120" lon="1.052782">
        <ele>630.471</ele>
        <time>2021-06-20T15:40:14Z</time>
      </trkpt>
      <trkpt lat="41.971989" lon="1.052911">
        <ele>631.659</ele>
        <time>2021-06-20T15:40:19Z</time>
      </trkpt>
      <trkpt lat="41.971963" lon="1.052938">
        <ele>631.634</ele>
        <time>2021-06-20T15:40:20Z</time>
      </trkpt>
      <trkpt lat="41.971773" lon="1.053115">
        <ele>632.855</ele>
        <time>2021-06-20T15:40:27Z</time>
      </trkpt>
      <trkpt lat="41.971747" lon="1.053139">
        <ele>633.010</ele>
        <time>2021-06-20T15:40:28Z</time>
      </trkpt>
      <trkpt lat="41.971467" lon="1.053370">
        <ele>633.608</ele>
        <time>2021-06-20T15:40:38Z</time>
      </trkpt>
      <trkpt lat="41.971404" lon="1.053391">
        <ele>634.040</ele>
        <time>2021-06-20T15:40:40Z</time>
      </trkpt>
      <trkpt lat="41.971270" lon="1.053382">
        <ele>634.629</ele>
        <time>2021-06-20T15:40:44Z</time>
      </trkpt>
      <trkpt lat="41.971172" lon="1.053342">
        <ele>635.246</ele>
        <time>2021-06-20T15:40:47Z</time>
      </trkpt>
      <trkpt lat="41.971018" lon="1.053255">
        <ele>636.298</ele>
        <time>2021-06-20T15:40:52Z</time>
      </trkpt>
      <trkpt lat="41.970989" lon="1.053237">
        <ele>636.482</ele>
        <time>2021-06-20T15:40:53Z</time>
      </trkpt>
      <trkpt lat="41.970717" lon="1.053086">
        <ele>637.443</ele>
        <time>2021-06-20T15:41:02Z</time>
      </trkpt>
      <trkpt lat="41.970689" lon="1.053067">
        <ele>637.413</ele>
        <time>2021-06-20T15:41:03Z</time>
      </trkpt>
      <trkpt lat="41.970518" lon="1.052964">
        <ele>637.871</ele>
        <time>2021-06-20T15:41:09Z</time>
      </trkpt>
      <trkpt lat="41.970237" lon="1.052822">
        <ele>638.281</ele>
        <time>2021-06-20T15:41:18Z</time>
      </trkpt>
      <trkpt lat="41.970168" lon="1.052807">
        <ele>638.461</ele>
        <time>2021-06-20T15:41:20Z</time>
      </trkpt>
      <trkpt lat="41.970114" lon="1.052800">
        <ele>638.417</ele>
        <time>2021-06-20T15:41:23Z</time>
      </trkpt>
      <trkpt lat="41.970111" lon="1.052799">
        <ele>638.608</ele>
        <time>2021-06-20T15:41:25Z</time>
      </trkpt>
      <trkpt lat="41.970078" lon="1.052810">
        <ele>639.265</ele>
        <time>2021-06-20T15:42:18Z</time>
      </trkpt>
      <trkpt lat="41.970054" lon="1.052811">
        <ele>639.234</ele>
        <time>2021-06-20T15:42:19Z</time>
      </trkpt>
      <trkpt lat="41.969907" lon="1.052812">
        <ele>639.211</ele>
        <time>2021-06-20T15:42:23Z</time>
      </trkpt>
      <trkpt lat="41.969598" lon="1.052815">
        <ele>637.253</ele>
        <time>2021-06-20T15:42:28Z</time>
      </trkpt>
      <trkpt lat="41.969363" lon="1.052816">
        <ele>635.637</ele>
        <time>2021-06-20T15:42:31Z</time>
      </trkpt>
      <trkpt lat="41.969191" lon="1.052814">
        <ele>634.458</ele>
        <time>2021-06-20T15:42:33Z</time>
      </trkpt>
      <trkpt lat="41.969101" lon="1.052812">
        <ele>633.478</ele>
        <time>2021-06-20T15:42:34Z</time>
      </trkpt>
      <trkpt lat="41.969008" lon="1.052812">
        <ele>632.646</ele>
        <time>2021-06-20T15:42:35Z</time>
      </trkpt>
      <trkpt lat="41.968816" lon="1.052807">
        <ele>631.095</ele>
        <time>2021-06-20T15:42:37Z</time>
      </trkpt>
      <trkpt lat="41.968717" lon="1.052804">
        <ele>629.449</ele>
        <time>2021-06-20T15:42:38Z</time>
      </trkpt>
      <trkpt lat="41.968516" lon="1.052798">
        <ele>628.023</ele>
        <time>2021-06-20T15:42:40Z</time>
      </trkpt>
      <trkpt lat="41.968414" lon="1.052791">
        <ele>627.008</ele>
        <time>2021-06-20T15:42:41Z</time>
      </trkpt>
      <trkpt lat="41.968311" lon="1.052774">
        <ele>626.696</ele>
        <time>2021-06-20T15:42:42Z</time>
      </trkpt>
      <trkpt lat="41.968111" lon="1.052690">
        <ele>625.645</ele>
        <time>2021-06-20T15:42:44Z</time>
      </trkpt>
      <trkpt lat="41.968019" lon="1.052621">
        <ele>625.062</ele>
        <time>2021-06-20T15:42:45Z</time>
      </trkpt>
      <trkpt lat="41.967928" lon="1.052547">
        <ele>624.464</ele>
        <time>2021-06-20T15:42:46Z</time>
      </trkpt>
      <trkpt lat="41.967747" lon="1.052399">
        <ele>623.648</ele>
        <time>2021-06-20T15:42:48Z</time>
      </trkpt>
      <trkpt lat="41.967656" lon="1.052333">
        <ele>623.239</ele>
        <time>2021-06-20T15:42:49Z</time>
      </trkpt>
      <trkpt lat="41.967560" lon="1.052287">
        <ele>622.439</ele>
        <time>2021-06-20T15:42:50Z</time>
      </trkpt>
      <trkpt lat="41.967461" lon="1.052267">
        <ele>621.427</ele>
        <time>2021-06-20T15:42:51Z</time>
      </trkpt>
      <trkpt lat="41.967360" lon="1.052266">
        <ele>620.498</ele>
        <time>2021-06-20T15:42:52Z</time>
      </trkpt>
      <trkpt lat="41.967260" lon="1.052270">
        <ele>619.415</ele>
        <time>2021-06-20T15:42:53Z</time>
      </trkpt>
      <trkpt lat="41.967060" lon="1.052284">
        <ele>617.826</ele>
        <time>2021-06-20T15:42:55Z</time>
      </trkpt>
      <trkpt lat="41.966858" lon="1.052296">
        <ele>615.808</ele>
        <time>2021-06-20T15:42:57Z</time>
      </trkpt>
      <trkpt lat="41.966657" lon="1.052313">
        <ele>614.236</ele>
        <time>2021-06-20T15:42:59Z</time>
      </trkpt>
      <trkpt lat="41.966361" lon="1.052331">
        <ele>613.655</ele>
        <time>2021-06-20T15:43:02Z</time>
      </trkpt>
      <trkpt lat="41.965785" lon="1.052368">
        <ele>613.682</ele>
        <time>2021-06-20T15:43:08Z</time>
      </trkpt>
      <trkpt lat="41.965608" lon="1.052378">
        <ele>613.614</ele>
        <time>2021-06-20T15:43:10Z</time>
      </trkpt>
      <trkpt lat="41.965148" lon="1.052382">
        <ele>614.018</ele>
        <time>2021-06-20T15:43:16Z</time>
      </trkpt>
      <trkpt lat="41.964892" lon="1.052368">
        <ele>615.689</ele>
        <time>2021-06-20T15:43:20Z</time>
      </trkpt>
      <trkpt lat="41.964717" lon="1.052354">
        <ele>616.649</ele>
        <time>2021-06-20T15:43:23Z</time>
      </trkpt>
      <trkpt lat="41.964492" lon="1.052343">
        <ele>617.887</ele>
        <time>2021-06-20T15:43:27Z</time>
      </trkpt>
      <trkpt lat="41.964328" lon="1.052325">
        <ele>618.473</ele>
        <time>2021-06-20T15:43:30Z</time>
      </trkpt>
      <trkpt lat="41.964221" lon="1.052315">
        <ele>618.885</ele>
        <time>2021-06-20T15:43:32Z</time>
      </trkpt>
      <trkpt lat="41.963914" lon="1.052310">
        <ele>619.813</ele>
        <time>2021-06-20T15:43:38Z</time>
      </trkpt>
      <trkpt lat="41.963864" lon="1.052310">
        <ele>620.008</ele>
        <time>2021-06-20T15:43:39Z</time>
      </trkpt>
      <trkpt lat="41.963510" lon="1.052318">
        <ele>621.074</ele>
        <time>2021-06-20T15:43:46Z</time>
      </trkpt>
      <trkpt lat="41.963402" lon="1.052317">
        <ele>621.433</ele>
        <time>2021-06-20T15:43:48Z</time>
      </trkpt>
      <trkpt lat="41.963234" lon="1.052334">
        <ele>621.660</ele>
        <time>2021-06-20T15:43:51Z</time>
      </trkpt>
      <trkpt lat="41.963117" lon="1.052380">
        <ele>621.662</ele>
        <time>2021-06-20T15:43:53Z</time>
      </trkpt>
      <trkpt lat="41.963005" lon="1.052447">
        <ele>621.666</ele>
        <time>2021-06-20T15:43:55Z</time>
      </trkpt>
      <trkpt lat="41.962725" lon="1.052656">
        <ele>621.637</ele>
        <time>2021-06-20T15:44:00Z</time>
      </trkpt>
      <trkpt lat="41.962330" lon="1.052981">
        <ele>620.427</ele>
        <time>2021-06-20T15:44:07Z</time>
      </trkpt>
      <trkpt lat="41.962275" lon="1.053039">
        <ele>620.495</ele>
        <time>2021-06-20T15:44:08Z</time>
      </trkpt>
      <trkpt lat="41.962169" lon="1.053178">
        <ele>620.099</ele>
        <time>2021-06-20T15:44:10Z</time>
      </trkpt>
      <trkpt lat="41.962114" lon="1.053256">
        <ele>619.807</ele>
        <time>2021-06-20T15:44:11Z</time>
      </trkpt>
      <trkpt lat="41.961863" lon="1.053588">
        <ele>619.227</ele>
        <time>2021-06-20T15:44:15Z</time>
      </trkpt>
      <trkpt lat="41.961786" lon="1.053650">
        <ele>619.008</ele>
        <time>2021-06-20T15:44:16Z</time>
      </trkpt>
      <trkpt lat="41.961618" lon="1.053668">
        <ele>618.626</ele>
        <time>2021-06-20T15:44:18Z</time>
      </trkpt>
      <trkpt lat="41.961544" lon="1.053611">
        <ele>618.065</ele>
        <time>2021-06-20T15:44:19Z</time>
      </trkpt>
      <trkpt lat="41.961488" lon="1.053519">
        <ele>617.092</ele>
        <time>2021-06-20T15:44:20Z</time>
      </trkpt>
      <trkpt lat="41.961438" lon="1.053412">
        <ele>616.214</ele>
        <time>2021-06-20T15:44:21Z</time>
      </trkpt>
      <trkpt lat="41.961377" lon="1.053311">
        <ele>615.018</ele>
        <time>2021-06-20T15:44:22Z</time>
      </trkpt>
      <trkpt lat="41.961304" lon="1.053223">
        <ele>614.099</ele>
        <time>2021-06-20T15:44:23Z</time>
      </trkpt>
      <trkpt lat="41.961223" lon="1.053142">
        <ele>613.239</ele>
        <time>2021-06-20T15:44:24Z</time>
      </trkpt>
      <trkpt lat="41.961140" lon="1.053063">
        <ele>612.617</ele>
        <time>2021-06-20T15:44:25Z</time>
      </trkpt>
      <trkpt lat="41.961055" lon="1.052983">
        <ele>611.845</ele>
        <time>2021-06-20T15:44:26Z</time>
      </trkpt>
      <trkpt lat="41.960889" lon="1.052801">
        <ele>610.047</ele>
        <time>2021-06-20T15:44:28Z</time>
      </trkpt>
      <trkpt lat="41.960815" lon="1.052692">
        <ele>608.611</ele>
        <time>2021-06-20T15:44:29Z</time>
      </trkpt>
      <trkpt lat="41.960753" lon="1.052569">
        <ele>605.808</ele>
        <time>2021-06-20T15:44:30Z</time>
      </trkpt>
      <trkpt lat="41.960700" lon="1.052435">
        <ele>604.651</ele>
        <time>2021-06-20T15:44:31Z</time>
      </trkpt>
      <trkpt lat="41.960654" lon="1.052296">
        <ele>603.440</ele>
        <time>2021-06-20T15:44:32Z</time>
      </trkpt>
      <trkpt lat="41.960612" lon="1.052154">
        <ele>602.427</ele>
        <time>2021-06-20T15:44:33Z</time>
      </trkpt>
      <trkpt lat="41.960572" lon="1.052013">
        <ele>601.499</ele>
        <time>2021-06-20T15:44:34Z</time>
      </trkpt>
      <trkpt lat="41.960536" lon="1.051872">
        <ele>600.053</ele>
        <time>2021-06-20T15:44:35Z</time>
      </trkpt>
      <trkpt lat="41.960519" lon="1.051730">
        <ele>598.494</ele>
        <time>2021-06-20T15:44:36Z</time>
      </trkpt>
      <trkpt lat="41.960568" lon="1.051470">
        <ele>596.644</ele>
        <time>2021-06-20T15:44:38Z</time>
      </trkpt>
      <trkpt lat="41.960611" lon="1.051247">
        <ele>595.272</ele>
        <time>2021-06-20T15:44:40Z</time>
      </trkpt>
      <trkpt lat="41.960589" lon="1.051146">
        <ele>594.818</ele>
        <time>2021-06-20T15:44:41Z</time>
      </trkpt>
      <trkpt lat="41.960466" lon="1.051024">
        <ele>594.298</ele>
        <time>2021-06-20T15:44:43Z</time>
      </trkpt>
      <trkpt lat="41.960200" lon="1.051008">
        <ele>593.217</ele>
        <time>2021-06-20T15:44:46Z</time>
      </trkpt>
      <trkpt lat="41.960106" lon="1.051012">
        <ele>592.808</ele>
        <time>2021-06-20T15:44:47Z</time>
      </trkpt>
      <trkpt lat="41.959806" lon="1.051019">
        <ele>591.658</ele>
        <time>2021-06-20T15:44:50Z</time>
      </trkpt>
      <trkpt lat="41.959700" lon="1.051014">
        <ele>591.297</ele>
        <time>2021-06-20T15:44:51Z</time>
      </trkpt>
      <trkpt lat="41.959595" lon="1.050994">
        <ele>590.644</ele>
        <time>2021-06-20T15:44:52Z</time>
      </trkpt>
      <trkpt lat="41.959389" lon="1.050926">
        <ele>589.236</ele>
        <time>2021-06-20T15:44:54Z</time>
      </trkpt>
      <trkpt lat="41.959082" lon="1.050809">
        <ele>587.880</ele>
        <time>2021-06-20T15:44:57Z</time>
      </trkpt>
      <trkpt lat="41.958981" lon="1.050770">
        <ele>586.051</ele>
        <time>2021-06-20T15:44:58Z</time>
      </trkpt>
      <trkpt lat="41.958880" lon="1.050732">
        <ele>585.091</ele>
        <time>2021-06-20T15:44:59Z</time>
      </trkpt>
      <trkpt lat="41.958780" lon="1.050695">
        <ele>584.049</ele>
        <time>2021-06-20T15:45:00Z</time>
      </trkpt>
      <trkpt lat="41.958583" lon="1.050621">
        <ele>582.837</ele>
        <time>2021-06-20T15:45:02Z</time>
      </trkpt>
      <trkpt lat="41.958291" lon="1.050548">
        <ele>581.249</ele>
        <time>2021-06-20T15:45:05Z</time>
      </trkpt>
      <trkpt lat="41.958104" lon="1.050612">
        <ele>579.613</ele>
        <time>2021-06-20T15:45:07Z</time>
      </trkpt>
      <trkpt lat="41.958025" lon="1.050684">
        <ele>579.008</ele>
        <time>2021-06-20T15:45:08Z</time>
      </trkpt>
      <trkpt lat="41.957902" lon="1.050872">
        <ele>578.610</ele>
        <time>2021-06-20T15:45:10Z</time>
      </trkpt>
      <trkpt lat="41.957845" lon="1.050969">
        <ele>578.499</ele>
        <time>2021-06-20T15:45:11Z</time>
      </trkpt>
      <trkpt lat="41.957787" lon="1.051064">
        <ele>578.456</ele>
        <time>2021-06-20T15:45:12Z</time>
      </trkpt>
      <trkpt lat="41.957435" lon="1.051659">
        <ele>578.258</ele>
        <time>2021-06-20T15:45:18Z</time>
      </trkpt>
      <trkpt lat="41.957362" lon="1.051747">
        <ele>578.052</ele>
        <time>2021-06-20T15:45:19Z</time>
      </trkpt>
      <trkpt lat="41.957095" lon="1.051924">
        <ele>577.823</ele>
        <time>2021-06-20T15:45:22Z</time>
      </trkpt>
      <trkpt lat="41.956891" lon="1.051966">
        <ele>577.463</ele>
        <time>2021-06-20T15:45:24Z</time>
      </trkpt>
      <trkpt lat="41.956789" lon="1.051974">
        <ele>576.671</ele>
        <time>2021-06-20T15:45:25Z</time>
      </trkpt>
      <trkpt lat="41.956689" lon="1.051978">
        <ele>574.638</ele>
        <time>2021-06-20T15:45:26Z</time>
      </trkpt>
      <trkpt lat="41.956501" lon="1.052011">
        <ele>573.870</ele>
        <time>2021-06-20T15:45:28Z</time>
      </trkpt>
      <trkpt lat="41.956420" lon="1.052053">
        <ele>573.817</ele>
        <time>2021-06-20T15:45:29Z</time>
      </trkpt>
      <trkpt lat="41.956288" lon="1.052166">
        <ele>573.608</ele>
        <time>2021-06-20T15:45:31Z</time>
      </trkpt>
      <trkpt lat="41.956235" lon="1.052228">
        <ele>573.640</ele>
        <time>2021-06-20T15:45:32Z</time>
      </trkpt>
      <trkpt lat="41.956073" lon="1.052431">
        <ele>574.019</ele>
        <time>2021-06-20T15:45:36Z</time>
      </trkpt>
      <trkpt lat="41.956042" lon="1.052472">
        <ele>575.296</ele>
        <time>2021-06-20T15:45:37Z</time>
      </trkpt>
      <trkpt lat="41.956015" lon="1.052508">
        <ele>576.258</ele>
        <time>2021-06-20T15:45:38Z</time>
      </trkpt>
      <trkpt lat="41.955990" lon="1.052541">
        <ele>577.492</ele>
        <time>2021-06-20T15:45:39Z</time>
      </trkpt>
      <trkpt lat="41.955945" lon="1.052600">
        <ele>578.433</ele>
        <time>2021-06-20T15:45:41Z</time>
      </trkpt>
      <trkpt lat="41.955905" lon="1.052652">
        <ele>579.673</ele>
        <time>2021-06-20T15:45:43Z</time>
      </trkpt>
      <trkpt lat="41.955868" lon="1.052697">
        <ele>580.891</ele>
        <time>2021-06-20T15:45:45Z</time>
      </trkpt>
      <trkpt lat="41.955837" lon="1.052743">
        <ele>581.881</ele>
        <time>2021-06-20T15:45:47Z</time>
      </trkpt>
      <trkpt lat="41.955823" lon="1.052765">
        <ele>582.461</ele>
        <time>2021-06-20T15:45:48Z</time>
      </trkpt>
      <trkpt lat="41.955778" lon="1.052823">
        <ele>583.017</ele>
        <time>2021-06-20T15:45:51Z</time>
      </trkpt>
      <trkpt lat="41.955715" lon="1.052898">
        <ele>584.408</ele>
        <time>2021-06-20T15:45:55Z</time>
      </trkpt>
      <trkpt lat="41.955682" lon="1.052928">
        <ele>584.885</ele>
        <time>2021-06-20T15:45:57Z</time>
      </trkpt>
      <trkpt lat="41.955622" lon="1.053003">
        <ele>585.624</ele>
        <time>2021-06-20T15:46:01Z</time>
      </trkpt>
      <trkpt lat="41.955544" lon="1.053085">
        <ele>586.291</ele>
        <time>2021-06-20T15:46:06Z</time>
      </trkpt>
      <trkpt lat="41.955451" lon="1.053137">
        <ele>586.663</ele>
        <time>2021-06-20T15:46:11Z</time>
      </trkpt>
      <trkpt lat="41.955387" lon="1.053153">
        <ele>586.887</ele>
        <time>2021-06-20T15:46:14Z</time>
      </trkpt>
      <trkpt lat="41.955153" lon="1.053208">
        <ele>587.078</ele>
        <time>2021-06-20T15:46:22Z</time>
      </trkpt>
      <trkpt lat="41.954987" lon="1.053230">
        <ele>587.098</ele>
        <time>2021-06-20T15:46:27Z</time>
      </trkpt>
      <trkpt lat="41.954968" lon="1.053228">
        <ele>587.056</ele>
        <time>2021-06-20T15:46:30Z</time>
      </trkpt>
      <trkpt lat="41.954939" lon="1.053248">
        <ele>586.832</ele>
        <time>2021-06-20T15:46:48Z</time>
      </trkpt>
      <trkpt lat="41.954818" lon="1.053289">
        <ele>586.492</ele>
        <time>2021-06-20T15:46:52Z</time>
      </trkpt>
      <trkpt lat="41.954628" lon="1.053324">
        <ele>585.811</ele>
        <time>2021-06-20T15:46:56Z</time>
      </trkpt>
      <trkpt lat="41.954594" lon="1.053303">
        <ele>585.408</ele>
        <time>2021-06-20T15:46:57Z</time>
      </trkpt>
      <trkpt lat="41.954534" lon="1.053260">
        <ele>584.630</ele>
        <time>2021-06-20T15:46:59Z</time>
      </trkpt>
      <trkpt lat="41.954507" lon="1.053251">
        <ele>584.279</ele>
        <time>2021-06-20T15:47:00Z</time>
      </trkpt>
      <trkpt lat="41.954481" lon="1.053251">
        <ele>583.846</ele>
        <time>2021-06-20T15:47:01Z</time>
      </trkpt>
      <trkpt lat="41.954428" lon="1.053294">
        <ele>583.668</ele>
        <time>2021-06-20T15:47:03Z</time>
      </trkpt>
      <trkpt lat="41.954387" lon="1.053373">
        <ele>583.622</ele>
        <time>2021-06-20T15:47:05Z</time>
      </trkpt>
      <trkpt lat="41.954367" lon="1.053418">
        <ele>583.633</ele>
        <time>2021-06-20T15:47:06Z</time>
      </trkpt>
      <trkpt lat="41.954187" lon="1.053803">
        <ele>583.633</ele>
        <time>2021-06-20T15:47:14Z</time>
      </trkpt>
      <trkpt lat="41.953989" lon="1.054220">
        <ele>583.681</ele>
        <time>2021-06-20T15:47:22Z</time>
      </trkpt>
      <trkpt lat="41.953907" lon="1.054384">
        <ele>583.679</ele>
        <time>2021-06-20T15:47:25Z</time>
      </trkpt>
      <trkpt lat="41.953695" lon="1.054771">
        <ele>584.005</ele>
        <time>2021-06-20T15:47:32Z</time>
      </trkpt>
      <trkpt lat="41.953353" lon="1.055197">
        <ele>584.225</ele>
        <time>2021-06-20T15:47:41Z</time>
      </trkpt>
      <trkpt lat="41.953012" lon="1.055467">
        <ele>584.208</ele>
        <time>2021-06-20T15:47:49Z</time>
      </trkpt>
      <trkpt lat="41.952813" lon="1.055614">
        <ele>584.614</ele>
        <time>2021-06-20T15:47:54Z</time>
      </trkpt>
      <trkpt lat="41.952670" lon="1.055743">
        <ele>585.223</ele>
        <time>2021-06-20T15:47:58Z</time>
      </trkpt>
      <trkpt lat="41.952537" lon="1.055887">
        <ele>585.640</ele>
        <time>2021-06-20T15:48:02Z</time>
      </trkpt>
      <trkpt lat="41.952415" lon="1.056046">
        <ele>586.052</ele>
        <time>2021-06-20T15:48:06Z</time>
      </trkpt>
      <trkpt lat="41.952332" lon="1.056162">
        <ele>586.896</ele>
        <time>2021-06-20T15:48:09Z</time>
      </trkpt>
      <trkpt lat="41.952220" lon="1.056374">
        <ele>588.047</ele>
        <time>2021-06-20T15:48:14Z</time>
      </trkpt>
      <trkpt lat="41.952071" lon="1.056681">
        <ele>589.227</ele>
        <time>2021-06-20T15:48:21Z</time>
      </trkpt>
      <trkpt lat="41.951989" lon="1.056859">
        <ele>589.825</ele>
        <time>2021-06-20T15:48:25Z</time>
      </trkpt>
      <trkpt lat="41.951944" lon="1.056943">
        <ele>590.466</ele>
        <time>2021-06-20T15:48:27Z</time>
      </trkpt>
      <trkpt lat="41.951767" lon="1.057210">
        <ele>591.629</ele>
        <time>2021-06-20T15:48:34Z</time>
      </trkpt>
      <trkpt lat="41.951739" lon="1.057247">
        <ele>591.621</ele>
        <time>2021-06-20T15:48:35Z</time>
      </trkpt>
      <trkpt lat="41.951555" lon="1.057437">
        <ele>592.408</ele>
        <time>2021-06-20T15:48:41Z</time>
      </trkpt>
      <trkpt lat="41.951487" lon="1.057489">
        <ele>592.633</ele>
        <time>2021-06-20T15:48:43Z</time>
      </trkpt>
      <trkpt lat="41.951382" lon="1.057564">
        <ele>592.642</ele>
        <time>2021-06-20T15:48:46Z</time>
      </trkpt>
      <trkpt lat="41.951191" lon="1.057649">
        <ele>593.069</ele>
        <time>2021-06-20T15:48:51Z</time>
      </trkpt>
      <trkpt lat="41.950816" lon="1.057709">
        <ele>593.051</ele>
        <time>2021-06-20T15:49:00Z</time>
      </trkpt>
      <trkpt lat="41.950688" lon="1.057707">
        <ele>593.055</ele>
        <time>2021-06-20T15:49:03Z</time>
      </trkpt>
      <trkpt lat="41.950616" lon="1.057661">
        <ele>593.046</ele>
        <time>2021-06-20T15:49:05Z</time>
      </trkpt>
      <trkpt lat="41.950578" lon="1.057529">
        <ele>593.016</ele>
        <time>2021-06-20T15:49:08Z</time>
      </trkpt>
      <trkpt lat="41.950655" lon="1.057399">
        <ele>593.014</ele>
        <time>2021-06-20T15:49:12Z</time>
      </trkpt>
      <trkpt lat="41.950785" lon="1.057380">
        <ele>594.032</ele>
        <time>2021-06-20T15:49:16Z</time>
      </trkpt>
      <trkpt lat="41.950922" lon="1.057414">
        <ele>595.092</ele>
        <time>2021-06-20T15:49:20Z</time>
      </trkpt>
      <trkpt lat="41.951023" lon="1.057463">
        <ele>595.411</ele>
        <time>2021-06-20T15:49:23Z</time>
      </trkpt>
      <trkpt lat="41.951231" lon="1.057484">
        <ele>596.008</ele>
        <time>2021-06-20T15:49:29Z</time>
      </trkpt>
      <trkpt lat="41.951337" lon="1.057376">
        <ele>596.210</ele>
        <time>2021-06-20T15:49:33Z</time>
      </trkpt>
      <trkpt lat="41.951389" lon="1.057183">
        <ele>597.059</ele>
        <time>2021-06-20T15:49:39Z</time>
      </trkpt>
      <trkpt lat="41.951373" lon="1.057031">
        <ele>598.216</ele>
        <time>2021-06-20T15:49:45Z</time>
      </trkpt>
      <trkpt lat="41.951352" lon="1.056917">
        <ele>599.238</ele>
        <time>2021-06-20T15:49:50Z</time>
      </trkpt>
      <trkpt lat="41.951340" lon="1.056858">
        <ele>599.632</ele>
        <time>2021-06-20T15:49:53Z</time>
      </trkpt>
      <trkpt lat="41.951324" lon="1.056777">
        <ele>600.273</ele>
        <time>2021-06-20T15:49:57Z</time>
      </trkpt>
      <trkpt lat="41.951315" lon="1.056735">
        <ele>600.673</ele>
        <time>2021-06-20T15:49:59Z</time>
      </trkpt>
      <trkpt lat="41.951290" lon="1.056618">
        <ele>601.881</ele>
        <time>2021-06-20T15:50:05Z</time>
      </trkpt>
      <trkpt lat="41.951278" lon="1.056580">
        <ele>602.054</ele>
        <time>2021-06-20T15:50:07Z</time>
      </trkpt>
      <trkpt lat="41.951251" lon="1.056496">
        <ele>602.856</ele>
        <time>2021-06-20T15:50:11Z</time>
      </trkpt>
      <trkpt lat="41.951233" lon="1.056437">
        <ele>603.211</ele>
        <time>2021-06-20T15:50:14Z</time>
      </trkpt>
      <trkpt lat="41.951192" lon="1.056323">
        <ele>603.808</ele>
        <time>2021-06-20T15:50:20Z</time>
      </trkpt>
      <trkpt lat="41.951174" lon="1.056280">
        <ele>604.642</ele>
        <time>2021-06-20T15:50:22Z</time>
      </trkpt>
      <trkpt lat="41.951167" lon="1.056260">
        <ele>605.041</ele>
        <time>2021-06-20T15:50:23Z</time>
      </trkpt>
      <trkpt lat="41.951128" lon="1.056167">
        <ele>606.288</ele>
        <time>2021-06-20T15:50:28Z</time>
      </trkpt>
      <trkpt lat="41.951116" lon="1.056128">
        <ele>606.450</ele>
        <time>2021-06-20T15:50:30Z</time>
      </trkpt>
      <trkpt lat="41.951089" lon="1.056052">
        <ele>607.284</ele>
        <time>2021-06-20T15:50:34Z</time>
      </trkpt>
      <trkpt lat="41.951060" lon="1.055979">
        <ele>608.095</ele>
        <time>2021-06-20T15:50:38Z</time>
      </trkpt>
      <trkpt lat="41.951037" lon="1.055927">
        <ele>608.635</ele>
        <time>2021-06-20T15:50:41Z</time>
      </trkpt>
      <trkpt lat="41.951000" lon="1.055858">
        <ele>608.843</ele>
        <time>2021-06-20T15:50:45Z</time>
      </trkpt>
      <trkpt lat="41.950979" lon="1.055783">
        <ele>609.628</ele>
        <time>2021-06-20T15:50:49Z</time>
      </trkpt>
      <trkpt lat="41.950967" lon="1.055742">
        <ele>610.089</ele>
        <time>2021-06-20T15:50:51Z</time>
      </trkpt>
      <trkpt lat="41.950967" lon="1.055695">
        <ele>610.417</ele>
        <time>2021-06-20T15:50:53Z</time>
      </trkpt>
      <trkpt lat="41.950943" lon="1.055642">
        <ele>610.808</ele>
        <time>2021-06-20T15:50:56Z</time>
      </trkpt>
      <trkpt lat="41.950923" lon="1.055602">
        <ele>611.099</ele>
        <time>2021-06-20T15:50:58Z</time>
      </trkpt>
      <trkpt lat="41.950910" lon="1.055561">
        <ele>611.688</ele>
        <time>2021-06-20T15:51:00Z</time>
      </trkpt>
      <trkpt lat="41.950893" lon="1.055525">
        <ele>611.865</ele>
        <time>2021-06-20T15:51:02Z</time>
      </trkpt>
      <trkpt lat="41.950857" lon="1.055416">
        <ele>612.637</ele>
        <time>2021-06-20T15:51:07Z</time>
      </trkpt>
      <trkpt lat="41.950849" lon="1.055371">
        <ele>612.841</ele>
        <time>2021-06-20T15:51:09Z</time>
      </trkpt>
      <trkpt lat="41.950844" lon="1.055349">
        <ele>613.022</ele>
        <time>2021-06-20T15:51:10Z</time>
      </trkpt>
      <trkpt lat="41.950842" lon="1.055300">
        <ele>613.252</ele>
        <time>2021-06-20T15:51:12Z</time>
      </trkpt>
      <trkpt lat="41.950823" lon="1.055140">
        <ele>614.060</ele>
        <time>2021-06-20T15:51:18Z</time>
      </trkpt>
      <trkpt lat="41.950775" lon="1.054937">
        <ele>614.231</ele>
        <time>2021-06-20T15:51:26Z</time>
      </trkpt>
      <trkpt lat="41.950714" lon="1.054780">
        <ele>615.261</ele>
        <time>2021-06-20T15:51:33Z</time>
      </trkpt>
      <trkpt lat="41.950684" lon="1.054717">
        <ele>615.407</ele>
        <time>2021-06-20T15:51:36Z</time>
      </trkpt>
      <trkpt lat="41.950593" lon="1.054542">
        <ele>616.408</ele>
        <time>2021-06-20T15:51:44Z</time>
      </trkpt>
      <trkpt lat="41.950505" lon="1.054383">
        <ele>617.460</ele>
        <time>2021-06-20T15:51:52Z</time>
      </trkpt>
      <trkpt lat="41.950499" lon="1.054364">
        <ele>617.499</ele>
        <time>2021-06-20T15:51:53Z</time>
      </trkpt>
      <trkpt lat="41.950451" lon="1.054249">
        <ele>617.676</ele>
        <time>2021-06-20T15:51:59Z</time>
      </trkpt>
      <trkpt lat="41.950390" lon="1.054159">
        <ele>618.618</ele>
        <time>2021-06-20T15:52:05Z</time>
      </trkpt>
      <trkpt lat="41.950344" lon="1.054136">
        <ele>619.652</ele>
        <time>2021-06-20T15:52:08Z</time>
      </trkpt>
      <trkpt lat="41.950307" lon="1.054123">
        <ele>620.833</ele>
        <time>2021-06-20T15:52:11Z</time>
      </trkpt>
      <trkpt lat="41.950295" lon="1.054114">
        <ele>620.863</ele>
        <time>2021-06-20T15:52:12Z</time>
      </trkpt>
      <trkpt lat="41.950287" lon="1.054101">
        <ele>621.081</ele>
        <time>2021-06-20T15:52:13Z</time>
      </trkpt>
      <trkpt lat="41.950228" lon="1.054067">
        <ele>621.874</ele>
        <time>2021-06-20T15:52:17Z</time>
      </trkpt>
      <trkpt lat="41.950210" lon="1.054058">
        <ele>622.056</ele>
        <time>2021-06-20T15:52:18Z</time>
      </trkpt>
      <trkpt lat="41.950124" lon="1.053977">
        <ele>622.821</ele>
        <time>2021-06-20T15:52:24Z</time>
      </trkpt>
      <trkpt lat="41.950107" lon="1.053938">
        <ele>622.808</ele>
        <time>2021-06-20T15:52:26Z</time>
      </trkpt>
      <trkpt lat="41.950027" lon="1.053785">
        <ele>623.444</ele>
        <time>2021-06-20T15:52:35Z</time>
      </trkpt>
      <trkpt lat="41.949975" lon="1.053737">
        <ele>624.093</ele>
        <time>2021-06-20T15:52:38Z</time>
      </trkpt>
      <trkpt lat="41.949930" lon="1.053661">
        <ele>624.480</ele>
        <time>2021-06-20T15:52:42Z</time>
      </trkpt>
      <trkpt lat="41.949910" lon="1.053540">
        <ele>624.812</ele>
        <time>2021-06-20T15:52:48Z</time>
      </trkpt>
      <trkpt lat="41.949910" lon="1.053499">
        <ele>625.266</ele>
        <time>2021-06-20T15:52:50Z</time>
      </trkpt>
      <trkpt lat="41.949911" lon="1.053478">
        <ele>625.267</ele>
        <time>2021-06-20T15:52:51Z</time>
      </trkpt>
      <trkpt lat="41.949911" lon="1.053354">
        <ele>626.027</ele>
        <time>2021-06-20T15:52:57Z</time>
      </trkpt>
      <trkpt lat="41.949910" lon="1.053334">
        <ele>626.495</ele>
        <time>2021-06-20T15:52:58Z</time>
      </trkpt>
      <trkpt lat="41.949887" lon="1.053229">
        <ele>627.269</ele>
        <time>2021-06-20T15:53:04Z</time>
      </trkpt>
      <trkpt lat="41.949882" lon="1.053225">
        <ele>627.604</ele>
        <time>2021-06-20T15:53:06Z</time>
      </trkpt>
      <trkpt lat="41.949829" lon="1.053050">
        <ele>630.624</ele>
        <time>2021-06-20T16:00:00Z</time>
      </trkpt>
      <trkpt lat="41.949811" lon="1.052993">
        <ele>630.808</ele>
        <time>2021-06-20T16:00:03Z</time>
      </trkpt>
      <trkpt lat="41.949766" lon="1.052839">
        <ele>631.613</ele>
        <time>2021-06-20T16:00:11Z</time>
      </trkpt>
      <trkpt lat="41.949761" lon="1.052820">
        <ele>632.022</ele>
        <time>2021-06-20T16:00:12Z</time>
      </trkpt>
      <trkpt lat="41.949730" lon="1.052729">
        <ele>632.689</ele>
        <time>2021-06-20T16:00:17Z</time>
      </trkpt>
      <trkpt lat="41.949719" lon="1.052694">
        <ele>632.831</ele>
        <time>2021-06-20T16:00:19Z</time>
      </trkpt>
      <trkpt lat="41.949713" lon="1.052678">
        <ele>633.075</ele>
        <time>2021-06-20T16:00:20Z</time>
      </trkpt>
      <trkpt lat="41.949694" lon="1.052632">
        <ele>634.046</ele>
        <time>2021-06-20T16:00:23Z</time>
      </trkpt>
      <trkpt lat="41.949677" lon="1.052588">
        <ele>635.446</ele>
        <time>2021-06-20T16:00:26Z</time>
      </trkpt>
      <trkpt lat="41.949665" lon="1.052561">
        <ele>636.294</ele>
        <time>2021-06-20T16:00:28Z</time>
      </trkpt>
      <trkpt lat="41.949659" lon="1.052548">
        <ele>636.439</ele>
        <time>2021-06-20T16:00:29Z</time>
      </trkpt>
      <trkpt lat="41.949649" lon="1.052520">
        <ele>636.401</ele>
        <time>2021-06-20T16:00:31Z</time>
      </trkpt>
      <trkpt lat="41.949621" lon="1.052455">
        <ele>636.621</ele>
        <time>2021-06-20T16:00:36Z</time>
      </trkpt>
      <trkpt lat="41.949607" lon="1.052413">
        <ele>637.608</ele>
        <time>2021-06-20T16:00:39Z</time>
      </trkpt>
      <trkpt lat="41.949588" lon="1.052353">
        <ele>638.880</ele>
        <time>2021-06-20T16:00:43Z</time>
      </trkpt>
      <trkpt lat="41.949579" lon="1.052321">
        <ele>639.089</ele>
        <time>2021-06-20T16:00:45Z</time>
      </trkpt>
      <trkpt lat="41.949573" lon="1.052293">
        <ele>639.626</ele>
        <time>2021-06-20T16:00:47Z</time>
      </trkpt>
      <trkpt lat="41.949571" lon="1.052277">
        <ele>639.828</ele>
        <time>2021-06-20T16:00:48Z</time>
      </trkpt>
      <trkpt lat="41.949559" lon="1.052244">
        <ele>640.632</ele>
        <time>2021-06-20T16:00:51Z</time>
      </trkpt>
      <trkpt lat="41.949558" lon="1.052242">
        <ele>641.093</ele>
        <time>2021-06-20T16:00:52Z</time>
      </trkpt>
      <trkpt lat="41.949558" lon="1.052240">
        <ele>641.213</ele>
        <time>2021-06-20T16:00:53Z</time>
      </trkpt>
      <trkpt lat="41.949296" lon="1.051556">
        <ele>653.491</ele>
        <time>2021-06-20T16:02:48Z</time>
      </trkpt>
      <trkpt lat="41.949286" lon="1.051526">
        <ele>653.675</ele>
        <time>2021-06-20T16:02:50Z</time>
      </trkpt>
      <trkpt lat="41.949271" lon="1.051467">
        <ele>654.628</ele>
        <time>2021-06-20T16:02:54Z</time>
      </trkpt>
      <trkpt lat="41.949261" lon="1.051440">
        <ele>655.020</ele>
        <time>2021-06-20T16:02:56Z</time>
      </trkpt>
      <trkpt lat="41.949259" lon="1.051409">
        <ele>655.208</ele>
        <time>2021-06-20T16:02:58Z</time>
      </trkpt>
      <trkpt lat="41.949251" lon="1.051378">
        <ele>655.624</ele>
        <time>2021-06-20T16:03:00Z</time>
      </trkpt>
      <trkpt lat="41.949246" lon="1.051351">
        <ele>656.063</ele>
        <time>2021-06-20T16:03:02Z</time>
      </trkpt>
      <trkpt lat="41.949235" lon="1.051304">
        <ele>656.620</ele>
        <time>2021-06-20T16:03:05Z</time>
      </trkpt>
      <trkpt lat="41.949229" lon="1.051290">
        <ele>656.852</ele>
        <time>2021-06-20T16:03:06Z</time>
      </trkpt>
      <trkpt lat="41.949221" lon="1.051279">
        <ele>657.016</ele>
        <time>2021-06-20T16:03:07Z</time>
      </trkpt>
      <trkpt lat="41.949186" lon="1.051241">
        <ele>657.827</ele>
        <time>2021-06-20T16:03:11Z</time>
      </trkpt>
      <trkpt lat="41.949147" lon="1.051161">
        <ele>658.827</ele>
        <time>2021-06-20T16:03:17Z</time>
      </trkpt>
      <trkpt lat="41.949133" lon="1.051125">
        <ele>659.235</ele>
        <time>2021-06-20T16:03:20Z</time>
      </trkpt>
      <trkpt lat="41.949091" lon="1.051089">
        <ele>659.879</ele>
        <time>2021-06-20T16:03:24Z</time>
      </trkpt>
      <trkpt lat="41.949055" lon="1.051049">
        <ele>661.005</ele>
        <time>2021-06-20T16:03:28Z</time>
      </trkpt>
      <trkpt lat="41.949007" lon="1.050965">
        <ele>662.025</ele>
        <time>2021-06-20T16:03:34Z</time>
      </trkpt>
      <trkpt lat="41.949001" lon="1.050950">
        <ele>662.008</ele>
        <time>2021-06-20T16:03:35Z</time>
      </trkpt>
      <trkpt lat="41.948995" lon="1.050937">
        <ele>662.264</ele>
        <time>2021-06-20T16:03:36Z</time>
      </trkpt>
      <trkpt lat="41.948958" lon="1.050854">
        <ele>663.213</ele>
        <time>2021-06-20T16:03:42Z</time>
      </trkpt>
      <trkpt lat="41.948943" lon="1.050825">
        <ele>663.630</ele>
        <time>2021-06-20T16:03:44Z</time>
      </trkpt>
      <trkpt lat="41.948900" lon="1.050739">
        <ele>664.292</ele>
        <time>2021-06-20T16:03:51Z</time>
      </trkpt>
      <trkpt lat="41.948888" lon="1.050728">
        <ele>664.466</ele>
        <time>2021-06-20T16:03:52Z</time>
      </trkpt>
      <trkpt lat="41.948860" lon="1.050700">
        <ele>665.437</ele>
        <time>2021-06-20T16:03:55Z</time>
      </trkpt>
      <trkpt lat="41.948846" lon="1.050673">
        <ele>665.627</ele>
        <time>2021-06-20T16:03:57Z</time>
      </trkpt>
      <trkpt lat="41.948829" lon="1.050639">
        <ele>666.055</ele>
        <time>2021-06-20T16:03:59Z</time>
      </trkpt>
      <trkpt lat="41.948808" lon="1.050593">
        <ele>666.682</ele>
        <time>2021-06-20T16:04:02Z</time>
      </trkpt>
      <trkpt lat="41.948774" lon="1.050515">
        <ele>667.643</ele>
        <time>2021-06-20T16:04:07Z</time>
      </trkpt>
      <trkpt lat="41.948767" lon="1.050499">
        <ele>667.617</ele>
        <time>2021-06-20T16:04:08Z</time>
      </trkpt>
      <trkpt lat="41.948720" lon="1.050415">
        <ele>669.008</ele>
        <time>2021-06-20T16:04:14Z</time>
      </trkpt>
      <trkpt lat="41.948705" lon="1.050383">
        <ele>669.215</ele>
        <time>2021-06-20T16:04:16Z</time>
      </trkpt>
      <trkpt lat="41.948665" lon="1.050305">
        <ele>670.054</ele>
        <time>2021-06-20T16:04:21Z</time>
      </trkpt>
      <trkpt lat="41.948649" lon="1.050270">
        <ele>670.431</ele>
        <time>2021-06-20T16:04:23Z</time>
      </trkpt>
      <trkpt lat="41.948608" lon="1.050202">
        <ele>671.273</ele>
        <time>2021-06-20T16:04:27Z</time>
      </trkpt>
      <trkpt lat="41.948568" lon="1.050126">
        <ele>671.877</ele>
        <time>2021-06-20T16:04:32Z</time>
      </trkpt>
      <trkpt lat="41.948568" lon="1.050121">
        <ele>672.258</ele>
        <time>2021-06-20T16:04:34Z</time>
      </trkpt>
      <trkpt lat="41.948532" lon="1.050076">
        <ele>673.228</ele>
        <time>2021-06-20T16:04:44Z</time>
      </trkpt>
      <trkpt lat="41.948514" lon="1.050053">
        <ele>673.446</ele>
        <time>2021-06-20T16:04:46Z</time>
      </trkpt>
      <trkpt lat="41.948501" lon="1.050031">
        <ele>673.211</ele>
        <time>2021-06-20T16:04:48Z</time>
      </trkpt>
      <trkpt lat="41.948465" lon="1.049976">
        <ele>673.421</ele>
        <time>2021-06-20T16:04:52Z</time>
      </trkpt>
      <trkpt lat="41.948405" lon="1.049879">
        <ele>674.403</ele>
        <time>2021-06-20T16:04:59Z</time>
      </trkpt>
      <trkpt lat="41.948397" lon="1.049867">
        <ele>674.608</ele>
        <time>2021-06-20T16:05:00Z</time>
      </trkpt>
      <trkpt lat="41.948339" lon="1.049808">
        <ele>675.248</ele>
        <time>2021-06-20T16:05:06Z</time>
      </trkpt>
      <trkpt lat="41.948315" lon="1.049795">
        <ele>675.647</ele>
        <time>2021-06-20T16:05:08Z</time>
      </trkpt>
      <trkpt lat="41.948277" lon="1.049768">
        <ele>676.684</ele>
        <time>2021-06-20T16:05:11Z</time>
      </trkpt>
      <trkpt lat="41.948248" lon="1.049746">
        <ele>677.246</ele>
        <time>2021-06-20T16:05:13Z</time>
      </trkpt>
      <trkpt lat="41.948194" lon="1.049676">
        <ele>677.670</ele>
        <time>2021-06-20T16:05:17Z</time>
      </trkpt>
      <trkpt lat="41.948167" lon="1.049611">
        <ele>678.091</ele>
        <time>2021-06-20T16:05:20Z</time>
      </trkpt>
      <trkpt lat="41.948133" lon="1.049465">
        <ele>678.421</ele>
        <time>2021-06-20T16:05:27Z</time>
      </trkpt>
      <trkpt lat="41.948132" lon="1.049444">
        <ele>678.649</ele>
        <time>2021-06-20T16:05:28Z</time>
      </trkpt>
      <trkpt lat="41.948131" lon="1.049424">
        <ele>678.866</ele>
        <time>2021-06-20T16:05:29Z</time>
      </trkpt>
      <trkpt lat="41.948114" lon="1.049364">
        <ele>679.429</ele>
        <time>2021-06-20T16:05:32Z</time>
      </trkpt>
      <trkpt lat="41.948094" lon="1.049307">
        <ele>680.021</ele>
        <time>2021-06-20T16:05:35Z</time>
      </trkpt>
      <trkpt lat="41.948030" lon="1.049160">
        <ele>681.008</ele>
        <time>2021-06-20T16:05:43Z</time>
      </trkpt>
      <trkpt lat="41.948016" lon="1.049121">
        <ele>681.223</ele>
        <time>2021-06-20T16:05:45Z</time>
      </trkpt>
      <trkpt lat="41.947988" lon="1.049047">
        <ele>681.652</ele>
        <time>2021-06-20T16:05:49Z</time>
      </trkpt>
      <trkpt lat="41.947977" lon="1.049009">
        <ele>682.059</ele>
        <time>2021-06-20T16:05:51Z</time>
      </trkpt>
      <trkpt lat="41.947970" lon="1.048992">
        <ele>682.481</ele>
        <time>2021-06-20T16:05:52Z</time>
      </trkpt>
      <trkpt lat="41.947919" lon="1.048909">
        <ele>683.455</ele>
        <time>2021-06-20T16:05:57Z</time>
      </trkpt>
      <trkpt lat="41.947905" lon="1.048895">
        <ele>683.676</ele>
        <time>2021-06-20T16:05:58Z</time>
      </trkpt>
      <trkpt lat="41.947810" lon="1.048767">
        <ele>684.816</ele>
        <time>2021-06-20T16:06:06Z</time>
      </trkpt>
      <trkpt lat="41.947798" lon="1.048751">
        <ele>685.084</ele>
        <time>2021-06-20T16:06:07Z</time>
      </trkpt>
      <trkpt lat="41.947718" lon="1.048639">
        <ele>685.867</ele>
        <time>2021-06-20T16:06:14Z</time>
      </trkpt>
      <trkpt lat="41.947668" lon="1.048531">
        <ele>686.881</ele>
        <time>2021-06-20T16:06:20Z</time>
      </trkpt>
      <trkpt lat="41.947602" lon="1.048416">
        <ele>687.819</ele>
        <time>2021-06-20T16:06:27Z</time>
      </trkpt>
      <trkpt lat="41.947580" lon="1.048357">
        <ele>688.208</ele>
        <time>2021-06-20T16:06:30Z</time>
      </trkpt>
      <trkpt lat="41.947556" lon="1.048248">
        <ele>688.663</ele>
        <time>2021-06-20T16:06:35Z</time>
      </trkpt>
      <trkpt lat="41.947551" lon="1.048153">
        <ele>689.292</ele>
        <time>2021-06-20T16:06:39Z</time>
      </trkpt>
      <trkpt lat="41.947546" lon="1.048057">
        <ele>689.889</ele>
        <time>2021-06-20T16:06:43Z</time>
      </trkpt>
      <trkpt lat="41.947509" lon="1.047890">
        <ele>689.891</ele>
        <time>2021-06-20T16:06:48Z</time>
      </trkpt>
      <trkpt lat="41.947439" lon="1.047709">
        <ele>688.295</ele>
        <time>2021-06-20T16:06:53Z</time>
      </trkpt>
      <trkpt lat="41.947425" lon="1.047677">
        <ele>687.866</ele>
        <time>2021-06-20T16:06:54Z</time>
      </trkpt>
      <trkpt lat="41.947397" lon="1.047615">
        <ele>687.216</ele>
        <time>2021-06-20T16:06:56Z</time>
      </trkpt>
      <trkpt lat="41.947338" lon="1.047441">
        <ele>685.624</ele>
        <time>2021-06-20T16:07:01Z</time>
      </trkpt>
      <trkpt lat="41.947326" lon="1.047413">
        <ele>685.445</ele>
        <time>2021-06-20T16:07:02Z</time>
      </trkpt>
      <trkpt lat="41.947299" lon="1.047350">
        <ele>684.647</ele>
        <time>2021-06-20T16:07:04Z</time>
      </trkpt>
      <trkpt lat="41.947265" lon="1.047244">
        <ele>683.011</ele>
        <time>2021-06-20T16:07:07Z</time>
      </trkpt>
      <trkpt lat="41.947247" lon="1.047206">
        <ele>682.808</ele>
        <time>2021-06-20T16:07:08Z</time>
      </trkpt>
      <trkpt lat="41.947205" lon="1.047147">
        <ele>681.811</ele>
        <time>2021-06-20T16:07:10Z</time>
      </trkpt>
      <trkpt lat="41.947161" lon="1.047069">
        <ele>681.270</ele>
        <time>2021-06-20T16:07:13Z</time>
      </trkpt>
      <trkpt lat="41.947152" lon="1.047039">
        <ele>680.657</ele>
        <time>2021-06-20T16:07:14Z</time>
      </trkpt>
      <trkpt lat="41.947106" lon="1.046924">
        <ele>679.289</ele>
        <time>2021-06-20T16:07:18Z</time>
      </trkpt>
      <trkpt lat="41.947093" lon="1.046892">
        <ele>678.453</ele>
        <time>2021-06-20T16:07:19Z</time>
      </trkpt>
      <trkpt lat="41.947079" lon="1.046861">
        <ele>678.074</ele>
        <time>2021-06-20T16:07:20Z</time>
      </trkpt>
      <trkpt lat="41.946988" lon="1.046668">
        <ele>676.454</ele>
        <time>2021-06-20T16:07:26Z</time>
      </trkpt>
      <trkpt lat="41.946928" lon="1.046587">
        <ele>675.222</ele>
        <time>2021-06-20T16:07:29Z</time>
      </trkpt>
      <trkpt lat="41.946846" lon="1.046471">
        <ele>674.011</ele>
        <time>2021-06-20T16:07:33Z</time>
      </trkpt>
      <trkpt lat="41.946776" lon="1.046362">
        <ele>672.621</ele>
        <time>2021-06-20T16:07:36Z</time>
      </trkpt>
      <trkpt lat="41.946637" lon="1.046160">
        <ele>671.603</ele>
        <time>2021-06-20T16:07:41Z</time>
      </trkpt>
      <trkpt lat="41.946527" lon="1.045994">
        <ele>670.408</ele>
        <time>2021-06-20T16:07:45Z</time>
      </trkpt>
      <trkpt lat="41.946432" lon="1.045846">
        <ele>669.258</ele>
        <time>2021-06-20T16:07:49Z</time>
      </trkpt>
      <trkpt lat="41.946409" lon="1.045810">
        <ele>669.227</ele>
        <time>2021-06-20T16:07:50Z</time>
      </trkpt>
      <trkpt lat="41.946197" lon="1.045481">
        <ele>668.634</ele>
        <time>2021-06-20T16:07:59Z</time>
      </trkpt>
      <trkpt lat="41.946150" lon="1.045395">
        <ele>668.266</ele>
        <time>2021-06-20T16:08:01Z</time>
      </trkpt>
      <trkpt lat="41.946009" lon="1.045145">
        <ele>667.890</ele>
        <time>2021-06-20T16:08:07Z</time>
      </trkpt>
      <trkpt lat="41.945937" lon="1.045002">
        <ele>667.021</ele>
        <time>2021-06-20T16:08:10Z</time>
      </trkpt>
      <trkpt lat="41.945808" lon="1.044744">
        <ele>666.091</ele>
        <time>2021-06-20T16:08:15Z</time>
      </trkpt>
      <trkpt lat="41.945680" lon="1.044483">
        <ele>665.049</ele>
        <time>2021-06-20T16:08:21Z</time>
      </trkpt>
      <trkpt lat="41.945529" lon="1.044238">
        <ele>665.097</ele>
        <time>2021-06-20T16:08:28Z</time>
      </trkpt>
      <trkpt lat="41.945405" lon="1.044058">
        <ele>666.223</ele>
        <time>2021-06-20T16:08:36Z</time>
      </trkpt>
      <trkpt lat="41.945378" lon="1.044019">
        <ele>667.025</ele>
        <time>2021-06-20T16:08:38Z</time>
      </trkpt>
      <trkpt lat="41.945333" lon="1.043958">
        <ele>667.408</ele>
        <time>2021-06-20T16:08:41Z</time>
      </trkpt>
      <trkpt lat="41.945274" lon="1.043871">
        <ele>668.066</ele>
        <time>2021-06-20T16:08:45Z</time>
      </trkpt>
      <trkpt lat="41.945228" lon="1.043801">
        <ele>668.665</ele>
        <time>2021-06-20T16:08:48Z</time>
      </trkpt>
      <trkpt lat="41.945163" lon="1.043709">
        <ele>669.252</ele>
        <time>2021-06-20T16:08:52Z</time>
      </trkpt>
      <trkpt lat="41.945117" lon="1.043641">
        <ele>669.654</ele>
        <time>2021-06-20T16:08:55Z</time>
      </trkpt>
      <trkpt lat="41.945037" lon="1.043504">
        <ele>670.098</ele>
        <time>2021-06-20T16:09:01Z</time>
      </trkpt>
      <trkpt lat="41.944980" lon="1.043382">
        <ele>670.859</ele>
        <time>2021-06-20T16:09:05Z</time>
      </trkpt>
      <trkpt lat="41.944943" lon="1.043306">
        <ele>671.269</ele>
        <time>2021-06-20T16:09:07Z</time>
      </trkpt>
      <trkpt lat="41.944799" lon="1.043026">
        <ele>671.427</ele>
        <time>2021-06-20T16:09:14Z</time>
      </trkpt>
      <trkpt lat="41.944607" lon="1.042799">
        <ele>671.632</ele>
        <time>2021-06-20T16:09:22Z</time>
      </trkpt>
      <trkpt lat="41.944488" lon="1.042777">
        <ele>671.692</ele>
        <time>2021-06-20T16:09:25Z</time>
      </trkpt>
      <trkpt lat="41.944401" lon="1.042735">
        <ele>671.611</ele>
        <time>2021-06-20T16:09:27Z</time>
      </trkpt>
      <trkpt lat="41.944078" lon="1.042579">
        <ele>670.808</ele>
        <time>2021-06-20T16:09:34Z</time>
      </trkpt>
      <trkpt lat="41.943961" lon="1.042540">
        <ele>669.610</ele>
        <time>2021-06-20T16:09:37Z</time>
      </trkpt>
      <trkpt lat="41.943917" lon="1.042526">
        <ele>668.629</ele>
        <time>2021-06-20T16:09:38Z</time>
      </trkpt>
      <trkpt lat="41.943873" lon="1.042515">
        <ele>668.256</ele>
        <time>2021-06-20T16:09:39Z</time>
      </trkpt>
      <trkpt lat="41.943712" lon="1.042518">
        <ele>667.448</ele>
        <time>2021-06-20T16:09:43Z</time>
      </trkpt>
      <trkpt lat="41.943671" lon="1.042523">
        <ele>667.472</ele>
        <time>2021-06-20T16:09:44Z</time>
      </trkpt>
      <trkpt lat="41.943629" lon="1.042528">
        <ele>667.213</ele>
        <time>2021-06-20T16:09:45Z</time>
      </trkpt>
      <trkpt lat="41.943518" lon="1.042546">
        <ele>666.213</ele>
        <time>2021-06-20T16:09:48Z</time>
      </trkpt>
      <trkpt lat="41.943475" lon="1.042550">
        <ele>665.821</ele>
        <time>2021-06-20T16:09:49Z</time>
      </trkpt>
      <trkpt lat="41.943429" lon="1.042560">
        <ele>665.641</ele>
        <time>2021-06-20T16:09:50Z</time>
      </trkpt>
      <trkpt lat="41.943384" lon="1.042575">
        <ele>664.881</ele>
        <time>2021-06-20T16:09:51Z</time>
      </trkpt>
      <trkpt lat="41.943305" lon="1.042604">
        <ele>663.609</ele>
        <time>2021-06-20T16:09:53Z</time>
      </trkpt>
      <trkpt lat="41.943269" lon="1.042616">
        <ele>663.208</ele>
        <time>2021-06-20T16:09:54Z</time>
      </trkpt>
      <trkpt lat="41.943189" lon="1.042641">
        <ele>662.671</ele>
        <time>2021-06-20T16:09:56Z</time>
      </trkpt>
      <trkpt lat="41.943049" lon="1.042665">
        <ele>661.650</ele>
        <time>2021-06-20T16:09:59Z</time>
      </trkpt>
      <trkpt lat="41.943000" lon="1.042671">
        <ele>661.477</ele>
        <time>2021-06-20T16:10:00Z</time>
      </trkpt>
      <trkpt lat="41.942854" lon="1.042700">
        <ele>660.479</ele>
        <time>2021-06-20T16:10:03Z</time>
      </trkpt>
      <trkpt lat="41.942785" lon="1.042717">
        <ele>659.833</ele>
        <time>2021-06-20T16:10:05Z</time>
      </trkpt>
      <trkpt lat="41.942752" lon="1.042726">
        <ele>659.454</ele>
        <time>2021-06-20T16:10:06Z</time>
      </trkpt>
      <trkpt lat="41.942582" lon="1.042762">
        <ele>658.834</ele>
        <time>2021-06-20T16:10:10Z</time>
      </trkpt>
      <trkpt lat="41.942534" lon="1.042767">
        <ele>658.852</ele>
        <time>2021-06-20T16:10:11Z</time>
      </trkpt>
      <trkpt lat="41.942485" lon="1.042770">
        <ele>658.258</ele>
        <time>2021-06-20T16:10:12Z</time>
      </trkpt>
      <trkpt lat="41.942345" lon="1.042790">
        <ele>656.852</ele>
        <time>2021-06-20T16:10:15Z</time>
      </trkpt>
      <trkpt lat="41.942304" lon="1.042797">
        <ele>656.417</ele>
        <time>2021-06-20T16:10:16Z</time>
      </trkpt>
      <trkpt lat="41.942264" lon="1.042806">
        <ele>655.608</ele>
        <time>2021-06-20T16:10:17Z</time>
      </trkpt>
      <trkpt lat="41.942110" lon="1.042835">
        <ele>654.422</ele>
        <time>2021-06-20T16:10:21Z</time>
      </trkpt>
      <trkpt lat="41.942039" lon="1.042844">
        <ele>654.211</ele>
        <time>2021-06-20T16:10:23Z</time>
      </trkpt>
      <trkpt lat="41.941975" lon="1.042857">
        <ele>653.698</ele>
        <time>2021-06-20T16:10:25Z</time>
      </trkpt>
      <trkpt lat="41.941864" lon="1.042897">
        <ele>652.230</ele>
        <time>2021-06-20T16:10:29Z</time>
      </trkpt>
      <trkpt lat="41.941765" lon="1.042943">
        <ele>651.034</ele>
        <time>2021-06-20T16:10:33Z</time>
      </trkpt>
      <trkpt lat="41.941737" lon="1.042949">
        <ele>650.215</ele>
        <time>2021-06-20T16:10:34Z</time>
      </trkpt>
      <trkpt lat="41.941710" lon="1.042955">
        <ele>649.885</ele>
        <time>2021-06-20T16:10:35Z</time>
      </trkpt>
      <trkpt lat="41.941601" lon="1.043052">
        <ele>648.883</ele>
        <time>2021-06-20T16:10:40Z</time>
      </trkpt>
      <trkpt lat="41.941565" lon="1.043182">
        <ele>647.671</ele>
        <time>2021-06-20T16:10:43Z</time>
      </trkpt>
      <trkpt lat="41.941563" lon="1.043276">
        <ele>647.241</ele>
        <time>2021-06-20T16:10:45Z</time>
      </trkpt>
      <trkpt lat="41.941655" lon="1.043410">
        <ele>646.415</ele>
        <time>2021-06-20T16:10:49Z</time>
      </trkpt>
      <trkpt lat="41.941721" lon="1.043444">
        <ele>645.208</ele>
        <time>2021-06-20T16:10:51Z</time>
      </trkpt>
      <trkpt lat="41.941765" lon="1.043501">
        <ele>644.424</ele>
        <time>2021-06-20T16:10:53Z</time>
      </trkpt>
      <trkpt lat="41.941771" lon="1.043537">
        <ele>644.273</ele>
        <time>2021-06-20T16:10:54Z</time>
      </trkpt>
      <trkpt lat="41.941736" lon="1.043611">
        <ele>644.010</ele>
        <time>2021-06-20T16:10:56Z</time>
      </trkpt>
      <trkpt lat="41.941645" lon="1.043713">
        <ele>643.612</ele>
        <time>2021-06-20T16:10:59Z</time>
      </trkpt>
      <trkpt lat="41.941583" lon="1.043796">
        <ele>643.476</ele>
        <time>2021-06-20T16:11:01Z</time>
      </trkpt>
      <trkpt lat="41.941546" lon="1.043836">
        <ele>642.897</ele>
        <time>2021-06-20T16:11:02Z</time>
      </trkpt>
      <trkpt lat="41.941506" lon="1.043868">
        <ele>642.257</ele>
        <time>2021-06-20T16:11:03Z</time>
      </trkpt>
      <trkpt lat="41.941418" lon="1.043884">
        <ele>641.425</ele>
        <time>2021-06-20T16:11:05Z</time>
      </trkpt>
      <trkpt lat="41.941380" lon="1.043867">
        <ele>641.259</ele>
        <time>2021-06-20T16:11:06Z</time>
      </trkpt>
      <trkpt lat="41.941314" lon="1.043810">
        <ele>640.403</ele>
        <time>2021-06-20T16:11:08Z</time>
      </trkpt>
      <trkpt lat="41.941235" lon="1.043672">
        <ele>639.023</ele>
        <time>2021-06-20T16:11:11Z</time>
      </trkpt>
      <trkpt lat="41.941191" lon="1.043443">
        <ele>638.008</ele>
        <time>2021-06-20T16:11:15Z</time>
      </trkpt>
      <trkpt lat="41.941192" lon="1.043386">
        <ele>638.052</ele>
        <time>2021-06-20T16:11:16Z</time>
      </trkpt>
      <trkpt lat="41.941220" lon="1.043088">
        <ele>637.851</ele>
        <time>2021-06-20T16:11:22Z</time>
      </trkpt>
      <trkpt lat="41.941277" lon="1.042638">
        <ele>638.288</ele>
        <time>2021-06-20T16:11:31Z</time>
      </trkpt>
      <trkpt lat="41.941347" lon="1.042278">
        <ele>639.290</ele>
        <time>2021-06-20T16:11:38Z</time>
      </trkpt>
      <trkpt lat="41.941357" lon="1.042232">
        <ele>639.284</ele>
        <time>2021-06-20T16:11:39Z</time>
      </trkpt>
      <trkpt lat="41.941406" lon="1.042019">
        <ele>639.465</ele>
        <time>2021-06-20T16:11:44Z</time>
      </trkpt>
      <trkpt lat="41.941368" lon="1.041929">
        <ele>639.685</ele>
        <time>2021-06-20T16:11:47Z</time>
      </trkpt>
      <trkpt lat="41.941322" lon="1.041913">
        <ele>639.863</ele>
        <time>2021-06-20T16:11:49Z</time>
      </trkpt>
      <trkpt lat="41.941246" lon="1.041910">
        <ele>640.296</ele>
        <time>2021-06-20T16:11:52Z</time>
      </trkpt>
      <trkpt lat="41.941214" lon="1.041921">
        <ele>640.231</ele>
        <time>2021-06-20T16:11:53Z</time>
      </trkpt>
      <trkpt lat="41.941138" lon="1.041947">
        <ele>640.424</ele>
        <time>2021-06-20T16:11:55Z</time>
      </trkpt>
      <trkpt lat="41.941001" lon="1.042015">
        <ele>640.608</ele>
        <time>2021-06-20T16:11:58Z</time>
      </trkpt>
      <trkpt lat="41.940730" lon="1.042172">
        <ele>640.086</ele>
        <time>2021-06-20T16:12:04Z</time>
      </trkpt>
      <trkpt lat="41.940632" lon="1.042230">
        <ele>638.625</ele>
        <time>2021-06-20T16:12:06Z</time>
      </trkpt>
      <trkpt lat="41.940533" lon="1.042301">
        <ele>637.682</ele>
        <time>2021-06-20T16:12:08Z</time>
      </trkpt>
      <trkpt lat="41.940442" lon="1.042376">
        <ele>636.464</ele>
        <time>2021-06-20T16:12:10Z</time>
      </trkpt>
      <trkpt lat="41.940400" lon="1.042418">
        <ele>636.268</ele>
        <time>2021-06-20T16:12:11Z</time>
      </trkpt>
      <trkpt lat="41.940289" lon="1.042539">
        <ele>635.039</ele>
        <time>2021-06-20T16:12:14Z</time>
      </trkpt>
      <trkpt lat="41.940257" lon="1.042576">
        <ele>634.699</ele>
        <time>2021-06-20T16:12:15Z</time>
      </trkpt>
      <trkpt lat="41.940160" lon="1.042705">
        <ele>633.697</ele>
        <time>2021-06-20T16:12:18Z</time>
      </trkpt>
      <trkpt lat="41.940088" lon="1.042804">
        <ele>633.249</ele>
        <time>2021-06-20T16:12:20Z</time>
      </trkpt>
      <trkpt lat="41.940014" lon="1.042903">
        <ele>632.002</ele>
        <time>2021-06-20T16:12:22Z</time>
      </trkpt>
      <trkpt lat="41.939933" lon="1.043012">
        <ele>630.822</ele>
        <time>2021-06-20T16:12:24Z</time>
      </trkpt>
      <trkpt lat="41.939847" lon="1.043108">
        <ele>628.808</ele>
        <time>2021-06-20T16:12:26Z</time>
      </trkpt>
      <trkpt lat="41.939805" lon="1.043151">
        <ele>628.691</ele>
        <time>2021-06-20T16:12:27Z</time>
      </trkpt>
      <trkpt lat="41.939629" lon="1.043335">
        <ele>627.870</ele>
        <time>2021-06-20T16:12:31Z</time>
      </trkpt>
      <trkpt lat="41.939533" lon="1.043418">
        <ele>626.857</ele>
        <time>2021-06-20T16:12:33Z</time>
      </trkpt>
      <trkpt lat="41.939480" lon="1.043448">
        <ele>626.289</ele>
        <time>2021-06-20T16:12:34Z</time>
      </trkpt>
      <trkpt lat="41.939321" lon="1.043487">
        <ele>625.253</ele>
        <time>2021-06-20T16:12:37Z</time>
      </trkpt>
      <trkpt lat="41.939088" lon="1.043442">
        <ele>624.064</ele>
        <time>2021-06-20T16:12:42Z</time>
      </trkpt>
      <trkpt lat="41.938926" lon="1.043309">
        <ele>623.644</ele>
        <time>2021-06-20T16:12:46Z</time>
      </trkpt>
      <trkpt lat="41.938887" lon="1.043269">
        <ele>623.662</ele>
        <time>2021-06-20T16:12:47Z</time>
      </trkpt>
      <trkpt lat="41.938851" lon="1.043223">
        <ele>623.495</ele>
        <time>2021-06-20T16:12:48Z</time>
      </trkpt>
      <trkpt lat="41.938778" lon="1.043067">
        <ele>623.249</ele>
        <time>2021-06-20T16:12:51Z</time>
      </trkpt>
      <trkpt lat="41.938760" lon="1.042884">
        <ele>623.023</ele>
        <time>2021-06-20T16:12:54Z</time>
      </trkpt>
      <trkpt lat="41.938755" lon="1.042753">
        <ele>622.408</ele>
        <time>2021-06-20T16:12:56Z</time>
      </trkpt>
      <trkpt lat="41.938756" lon="1.042565">
        <ele>622.016</ele>
        <time>2021-06-20T16:12:59Z</time>
      </trkpt>
      <trkpt lat="41.938737" lon="1.042264">
        <ele>621.225</ele>
        <time>2021-06-20T16:13:04Z</time>
      </trkpt>
      <trkpt lat="41.938677" lon="1.042164">
        <ele>620.872</ele>
        <time>2021-06-20T16:13:06Z</time>
      </trkpt>
      <trkpt lat="41.938634" lon="1.042143">
        <ele>620.844</ele>
        <time>2021-06-20T16:13:07Z</time>
      </trkpt>
      <trkpt lat="41.938500" lon="1.042202">
        <ele>620.648</ele>
        <time>2021-06-20T16:13:10Z</time>
      </trkpt>
      <trkpt lat="41.938448" lon="1.042226">
        <ele>620.699</ele>
        <time>2021-06-20T16:13:11Z</time>
      </trkpt>
      <trkpt lat="41.938156" lon="1.042357">
        <ele>620.069</ele>
        <time>2021-06-20T16:13:17Z</time>
      </trkpt>
      <trkpt lat="41.938102" lon="1.042380">
        <ele>619.897</ele>
        <time>2021-06-20T16:13:18Z</time>
      </trkpt>
      <trkpt lat="41.937774" lon="1.042506">
        <ele>618.435</ele>
        <time>2021-06-20T16:13:24Z</time>
      </trkpt>
      <trkpt lat="41.937695" lon="1.042552">
        <ele>617.086</ele>
        <time>2021-06-20T16:13:26Z</time>
      </trkpt>
      <trkpt lat="41.937670" lon="1.042570">
        <ele>616.414</ele>
        <time>2021-06-20T16:13:27Z</time>
      </trkpt>
      <trkpt lat="41.937624" lon="1.042609">
        <ele>615.808</ele>
        <time>2021-06-20T16:13:29Z</time>
      </trkpt>
      <trkpt lat="41.937566" lon="1.042660">
        <ele>615.470</ele>
        <time>2021-06-20T16:13:31Z</time>
      </trkpt>
      <trkpt lat="41.937500" lon="1.042721">
        <ele>615.219</ele>
        <time>2021-06-20T16:13:33Z</time>
      </trkpt>
      <trkpt lat="41.937360" lon="1.042858">
        <ele>615.266</ele>
        <time>2021-06-20T16:13:37Z</time>
      </trkpt>
      <trkpt lat="41.937322" lon="1.042897">
        <ele>615.018</ele>
        <time>2021-06-20T16:13:38Z</time>
      </trkpt>
      <trkpt lat="41.937193" lon="1.042989">
        <ele>614.882</ele>
        <time>2021-06-20T16:13:41Z</time>
      </trkpt>
      <trkpt lat="41.937147" lon="1.043017">
        <ele>614.663</ele>
        <time>2021-06-20T16:13:42Z</time>
      </trkpt>
      <trkpt lat="41.937015" lon="1.043099">
        <ele>613.853</ele>
        <time>2021-06-20T16:13:45Z</time>
      </trkpt>
      <trkpt lat="41.936971" lon="1.043130">
        <ele>613.661</ele>
        <time>2021-06-20T16:13:46Z</time>
      </trkpt>
      <trkpt lat="41.936891" lon="1.043221">
        <ele>613.265</ele>
        <time>2021-06-20T16:13:48Z</time>
      </trkpt>
      <trkpt lat="41.936856" lon="1.043273">
        <ele>612.668</ele>
        <time>2021-06-20T16:13:49Z</time>
      </trkpt>
      <trkpt lat="41.936757" lon="1.043441">
        <ele>612.014</ele>
        <time>2021-06-20T16:13:52Z</time>
      </trkpt>
      <trkpt lat="41.936718" lon="1.043490">
        <ele>611.808</ele>
        <time>2021-06-20T16:13:53Z</time>
      </trkpt>
      <trkpt lat="41.936631" lon="1.043571">
        <ele>611.613</ele>
        <time>2021-06-20T16:13:55Z</time>
      </trkpt>
      <trkpt lat="41.936542" lon="1.043644">
        <ele>611.452</ele>
        <time>2021-06-20T16:13:57Z</time>
      </trkpt>
      <trkpt lat="41.936456" lon="1.043715">
        <ele>610.639</ele>
        <time>2021-06-20T16:13:59Z</time>
      </trkpt>
      <trkpt lat="41.936296" lon="1.043856">
        <ele>609.861</ele>
        <time>2021-06-20T16:14:03Z</time>
      </trkpt>
      <trkpt lat="41.936264" lon="1.043895">
        <ele>609.655</ele>
        <time>2021-06-20T16:14:04Z</time>
      </trkpt>
      <trkpt lat="41.936238" lon="1.043932">
        <ele>609.696</ele>
        <time>2021-06-20T16:14:05Z</time>
      </trkpt>
      <trkpt lat="41.936198" lon="1.044003">
        <ele>609.626</ele>
        <time>2021-06-20T16:14:07Z</time>
      </trkpt>
      <trkpt lat="41.936154" lon="1.044075">
        <ele>609.694</ele>
        <time>2021-06-20T16:14:09Z</time>
      </trkpt>
      <trkpt lat="41.936124" lon="1.044112">
        <ele>609.639</ele>
        <time>2021-06-20T16:14:10Z</time>
      </trkpt>
      <trkpt lat="41.936037" lon="1.044252">
        <ele>609.601</ele>
        <time>2021-06-20T16:14:13Z</time>
      </trkpt>
      <trkpt lat="41.935984" lon="1.044328">
        <ele>609.621</ele>
        <time>2021-06-20T16:14:15Z</time>
      </trkpt>
      <trkpt lat="41.935920" lon="1.044417">
        <ele>609.408</ele>
        <time>2021-06-20T16:14:17Z</time>
      </trkpt>
      <trkpt lat="41.935897" lon="1.044479">
        <ele>609.490</ele>
        <time>2021-06-20T16:14:18Z</time>
      </trkpt>
      <trkpt lat="41.935863" lon="1.044677">
        <ele>609.069</ele>
        <time>2021-06-20T16:14:22Z</time>
      </trkpt>
      <trkpt lat="41.935865" lon="1.044695">
        <ele>608.056</ele>
        <time>2021-06-20T16:14:24Z</time>
      </trkpt>
      <trkpt lat="41.935865" lon="1.044696">
        <ele>607.848</ele>
        <time>2021-06-20T16:14:25Z</time>
      </trkpt>
      <trkpt lat="41.935859" lon="1.044734">
        <ele>606.872</ele>
        <time>2021-06-20T16:15:25Z</time>
      </trkpt>
      <trkpt lat="41.935829" lon="1.044892">
        <ele>606.443</ele>
        <time>2021-06-20T16:15:29Z</time>
      </trkpt>
      <trkpt lat="41.935788" lon="1.045057">
        <ele>606.213</ele>
        <time>2021-06-20T16:15:32Z</time>
      </trkpt>
      <trkpt lat="41.935745" lon="1.045171">
        <ele>606.021</ele>
        <time>2021-06-20T16:15:34Z</time>
      </trkpt>
      <trkpt lat="41.935725" lon="1.045222">
        <ele>605.612</ele>
        <time>2021-06-20T16:15:35Z</time>
      </trkpt>
      <trkpt lat="41.935682" lon="1.045329">
        <ele>604.032</ele>
        <time>2021-06-20T16:15:37Z</time>
      </trkpt>
      <trkpt lat="41.935604" lon="1.045504">
        <ele>602.605</ele>
        <time>2021-06-20T16:15:40Z</time>
      </trkpt>
      <trkpt lat="41.935580" lon="1.045560">
        <ele>602.408</ele>
        <time>2021-06-20T16:15:41Z</time>
      </trkpt>
      <trkpt lat="41.935568" lon="1.045678">
        <ele>601.698</ele>
        <time>2021-06-20T16:15:43Z</time>
      </trkpt>
      <trkpt lat="41.935606" lon="1.045849">
        <ele>600.697</ele>
        <time>2021-06-20T16:15:46Z</time>
      </trkpt>
      <trkpt lat="41.935622" lon="1.045898">
        <ele>600.454</ele>
        <time>2021-06-20T16:15:47Z</time>
      </trkpt>
      <trkpt lat="41.935643" lon="1.045943">
        <ele>600.276</ele>
        <time>2021-06-20T16:15:48Z</time>
      </trkpt>
      <trkpt lat="41.935720" lon="1.046178">
        <ele>599.430</ele>
        <time>2021-06-20T16:15:53Z</time>
      </trkpt>
      <trkpt lat="41.935641" lon="1.046313">
        <ele>598.461</ele>
        <time>2021-06-20T16:15:56Z</time>
      </trkpt>
      <trkpt lat="41.935609" lon="1.046338">
        <ele>598.011</ele>
        <time>2021-06-20T16:15:57Z</time>
      </trkpt>
      <trkpt lat="41.935552" lon="1.046397">
        <ele>597.489</ele>
        <time>2021-06-20T16:15:59Z</time>
      </trkpt>
      <trkpt lat="41.935522" lon="1.046442">
        <ele>597.237</ele>
        <time>2021-06-20T16:16:00Z</time>
      </trkpt>
      <trkpt lat="41.935489" lon="1.046494">
        <ele>596.849</ele>
        <time>2021-06-20T16:16:01Z</time>
      </trkpt>
      <trkpt lat="41.935455" lon="1.046546">
        <ele>596.013</ele>
        <time>2021-06-20T16:16:02Z</time>
      </trkpt>
      <trkpt lat="41.935419" lon="1.046593">
        <ele>595.408</ele>
        <time>2021-06-20T16:16:03Z</time>
      </trkpt>
      <trkpt lat="41.935381" lon="1.046635">
        <ele>595.070</ele>
        <time>2021-06-20T16:16:04Z</time>
      </trkpt>
      <trkpt lat="41.935337" lon="1.046666">
        <ele>594.449</ele>
        <time>2021-06-20T16:16:05Z</time>
      </trkpt>
      <trkpt lat="41.935293" lon="1.046686">
        <ele>594.236</ele>
        <time>2021-06-20T16:16:06Z</time>
      </trkpt>
      <trkpt lat="41.935208" lon="1.046676">
        <ele>593.268</ele>
        <time>2021-06-20T16:16:08Z</time>
      </trkpt>
      <trkpt lat="41.935100" lon="1.046573">
        <ele>592.212</ele>
        <time>2021-06-20T16:16:11Z</time>
      </trkpt>
      <trkpt lat="41.935065" lon="1.046531">
        <ele>592.043</ele>
        <time>2021-06-20T16:16:12Z</time>
      </trkpt>
      <trkpt lat="41.934999" lon="1.046445">
        <ele>590.883</ele>
        <time>2021-06-20T16:16:14Z</time>
      </trkpt>
      <trkpt lat="41.934971" lon="1.046395">
        <ele>590.411</ele>
        <time>2021-06-20T16:16:15Z</time>
      </trkpt>
      <trkpt lat="41.934928" lon="1.046264">
        <ele>589.651</ele>
        <time>2021-06-20T16:16:17Z</time>
      </trkpt>
      <trkpt lat="41.934870" lon="1.046056">
        <ele>588.201</ele>
        <time>2021-06-20T16:16:20Z</time>
      </trkpt>
      <trkpt lat="41.934827" lon="1.045931">
        <ele>587.611</ele>
        <time>2021-06-20T16:16:22Z</time>
      </trkpt>
      <trkpt lat="41.934806" lon="1.045873">
        <ele>587.208</ele>
        <time>2021-06-20T16:16:23Z</time>
      </trkpt>
      <trkpt lat="41.934780" lon="1.045829">
        <ele>586.862</ele>
        <time>2021-06-20T16:16:24Z</time>
      </trkpt>
      <trkpt lat="41.934712" lon="1.045819">
        <ele>586.041</ele>
        <time>2021-06-20T16:16:26Z</time>
      </trkpt>
      <trkpt lat="41.934683" lon="1.045849">
        <ele>585.868</ele>
        <time>2021-06-20T16:16:27Z</time>
      </trkpt>
      <trkpt lat="41.934643" lon="1.045938">
        <ele>585.220</ele>
        <time>2021-06-20T16:16:29Z</time>
      </trkpt>
      <trkpt lat="41.934603" lon="1.046120">
        <ele>584.814</ele>
        <time>2021-06-20T16:16:32Z</time>
      </trkpt>
      <trkpt lat="41.934590" lon="1.046182">
        <ele>584.655</ele>
        <time>2021-06-20T16:16:33Z</time>
      </trkpt>
      <trkpt lat="41.934548" lon="1.046432">
        <ele>583.475</ele>
        <time>2021-06-20T16:16:38Z</time>
      </trkpt>
      <trkpt lat="41.934559" lon="1.046533">
        <ele>581.853</ele>
        <time>2021-06-20T16:16:40Z</time>
      </trkpt>
      <trkpt lat="41.934580" lon="1.046705">
        <ele>580.863</ele>
        <time>2021-06-20T16:16:43Z</time>
      </trkpt>
      <trkpt lat="41.934591" lon="1.046777">
        <ele>580.644</ele>
        <time>2021-06-20T16:16:44Z</time>
      </trkpt>
      <trkpt lat="41.934602" lon="1.046864">
        <ele>580.218</ele>
        <time>2021-06-20T16:16:45Z</time>
      </trkpt>
      <trkpt lat="41.934616" lon="1.047025">
        <ele>579.408</ele>
        <time>2021-06-20T16:16:47Z</time>
      </trkpt>
      <trkpt lat="41.934629" lon="1.047187">
        <ele>578.493</ele>
        <time>2021-06-20T16:16:49Z</time>
      </trkpt>
      <trkpt lat="41.934640" lon="1.047266">
        <ele>578.042</ele>
        <time>2021-06-20T16:16:50Z</time>
      </trkpt>
      <trkpt lat="41.934658" lon="1.047344">
        <ele>577.419</ele>
        <time>2021-06-20T16:16:51Z</time>
      </trkpt>
      <trkpt lat="41.934733" lon="1.047545">
        <ele>576.221</ele>
        <time>2021-06-20T16:16:54Z</time>
      </trkpt>
      <trkpt lat="41.934761" lon="1.047605">
        <ele>576.055</ele>
        <time>2021-06-20T16:16:55Z</time>
      </trkpt>
      <trkpt lat="41.934842" lon="1.047781">
        <ele>575.466</ele>
        <time>2021-06-20T16:16:58Z</time>
      </trkpt>
      <trkpt lat="41.934849" lon="1.047910">
        <ele>575.266</ele>
        <time>2021-06-20T16:17:00Z</time>
      </trkpt>
      <trkpt lat="41.934803" lon="1.048000">
        <ele>575.024</ele>
        <time>2021-06-20T16:17:02Z</time>
      </trkpt>
      <trkpt lat="41.934761" lon="1.048012">
        <ele>575.028</ele>
        <time>2021-06-20T16:17:03Z</time>
      </trkpt>
      <trkpt lat="41.934646" lon="1.047962">
        <ele>575.089</ele>
        <time>2021-06-20T16:17:06Z</time>
      </trkpt>
      <trkpt lat="41.934598" lon="1.047887">
        <ele>574.817</ele>
        <time>2021-06-20T16:17:08Z</time>
      </trkpt>
      <trkpt lat="41.934572" lon="1.047847">
        <ele>574.808</ele>
        <time>2021-06-20T16:17:09Z</time>
      </trkpt>
      <trkpt lat="41.934514" lon="1.047753">
        <ele>573.679</ele>
        <time>2021-06-20T16:17:11Z</time>
      </trkpt>
      <trkpt lat="41.934380" lon="1.047541">
        <ele>572.498</ele>
        <time>2021-06-20T16:17:15Z</time>
      </trkpt>
      <trkpt lat="41.934312" lon="1.047429">
        <ele>571.435</ele>
        <time>2021-06-20T16:17:17Z</time>
      </trkpt>
      <trkpt lat="41.934250" lon="1.047321">
        <ele>570.277</ele>
        <time>2021-06-20T16:17:19Z</time>
      </trkpt>
      <trkpt lat="41.934186" lon="1.047211">
        <ele>569.491</ele>
        <time>2021-06-20T16:17:21Z</time>
      </trkpt>
      <trkpt lat="41.934146" lon="1.047174">
        <ele>569.032</ele>
        <time>2021-06-20T16:17:22Z</time>
      </trkpt>
      <trkpt lat="41.934100" lon="1.047158">
        <ele>568.842</ele>
        <time>2021-06-20T16:17:23Z</time>
      </trkpt>
      <trkpt lat="41.933972" lon="1.047203">
        <ele>568.420</ele>
        <time>2021-06-20T16:17:26Z</time>
      </trkpt>
      <trkpt lat="41.933857" lon="1.047275">
        <ele>567.884</ele>
        <time>2021-06-20T16:17:29Z</time>
      </trkpt>
      <trkpt lat="41.933817" lon="1.047296">
        <ele>567.607</ele>
        <time>2021-06-20T16:17:30Z</time>
      </trkpt>
      <trkpt lat="41.933726" lon="1.047319">
        <ele>567.017</ele>
        <time>2021-06-20T16:17:32Z</time>
      </trkpt>
      <trkpt lat="41.933679" lon="1.047325">
        <ele>566.808</ele>
        <time>2021-06-20T16:17:33Z</time>
      </trkpt>
      <trkpt lat="41.933633" lon="1.047326">
        <ele>565.815</ele>
        <time>2021-06-20T16:17:34Z</time>
      </trkpt>
      <trkpt lat="41.933585" lon="1.047323">
        <ele>565.294</ele>
        <time>2021-06-20T16:17:35Z</time>
      </trkpt>
      <trkpt lat="41.933488" lon="1.047299">
        <ele>564.461</ele>
        <time>2021-06-20T16:17:37Z</time>
      </trkpt>
      <trkpt lat="41.933442" lon="1.047273">
        <ele>563.853</ele>
        <time>2021-06-20T16:17:38Z</time>
      </trkpt>
      <trkpt lat="41.933397" lon="1.047236">
        <ele>563.077</ele>
        <time>2021-06-20T16:17:39Z</time>
      </trkpt>
      <trkpt lat="41.933355" lon="1.047191">
        <ele>561.848</ele>
        <time>2021-06-20T16:17:40Z</time>
      </trkpt>
      <trkpt lat="41.933288" lon="1.047074">
        <ele>561.088</ele>
        <time>2021-06-20T16:17:42Z</time>
      </trkpt>
      <trkpt lat="41.933265" lon="1.047005">
        <ele>560.436</ele>
        <time>2021-06-20T16:17:43Z</time>
      </trkpt>
      <trkpt lat="41.933223" lon="1.046783">
        <ele>559.057</ele>
        <time>2021-06-20T16:17:46Z</time>
      </trkpt>
      <trkpt lat="41.933214" lon="1.046711">
        <ele>558.400</ele>
        <time>2021-06-20T16:17:47Z</time>
      </trkpt>
      <trkpt lat="41.933204" lon="1.046639">
        <ele>557.620</ele>
        <time>2021-06-20T16:17:48Z</time>
      </trkpt>
      <trkpt lat="41.933196" lon="1.046429">
        <ele>556.408</ele>
        <time>2021-06-20T16:17:51Z</time>
      </trkpt>
      <trkpt lat="41.933198" lon="1.046364">
        <ele>556.212</ele>
        <time>2021-06-20T16:17:52Z</time>
      </trkpt>
      <trkpt lat="41.933232" lon="1.045968">
        <ele>555.811</ele>
        <time>2021-06-20T16:17:58Z</time>
      </trkpt>
      <trkpt lat="41.933236" lon="1.045901">
        <ele>555.878</ele>
        <time>2021-06-20T16:17:59Z</time>
      </trkpt>
      <trkpt lat="41.933239" lon="1.045712">
        <ele>555.860</ele>
        <time>2021-06-20T16:18:02Z</time>
      </trkpt>
      <trkpt lat="41.933233" lon="1.045645">
        <ele>555.874</ele>
        <time>2021-06-20T16:18:03Z</time>
      </trkpt>
      <trkpt lat="41.933214" lon="1.045578">
        <ele>555.825</ele>
        <time>2021-06-20T16:18:04Z</time>
      </trkpt>
      <trkpt lat="41.933085" lon="1.045457">
        <ele>555.645</ele>
        <time>2021-06-20T16:18:07Z</time>
      </trkpt>
      <trkpt lat="41.932932" lon="1.045401">
        <ele>555.273</ele>
        <time>2021-06-20T16:18:10Z</time>
      </trkpt>
      <trkpt lat="41.932892" lon="1.045360">
        <ele>554.691</ele>
        <time>2021-06-20T16:18:11Z</time>
      </trkpt>
      <trkpt lat="41.932860" lon="1.045305">
        <ele>553.881</ele>
        <time>2021-06-20T16:18:12Z</time>
      </trkpt>
      <trkpt lat="41.932830" lon="1.045241">
        <ele>553.019</ele>
        <time>2021-06-20T16:18:13Z</time>
      </trkpt>
      <trkpt lat="41.932804" lon="1.045172">
        <ele>552.608</ele>
        <time>2021-06-20T16:18:14Z</time>
      </trkpt>
      <trkpt lat="41.932786" lon="1.045096">
        <ele>552.256</ele>
        <time>2021-06-20T16:18:15Z</time>
      </trkpt>
      <trkpt lat="41.932784" lon="1.044948">
        <ele>551.675</ele>
        <time>2021-06-20T16:18:17Z</time>
      </trkpt>
      <trkpt lat="41.932799" lon="1.044885">
        <ele>551.252</ele>
        <time>2021-06-20T16:18:18Z</time>
      </trkpt>
      <trkpt lat="41.932830" lon="1.044716">
        <ele>550.044</ele>
        <time>2021-06-20T16:18:21Z</time>
      </trkpt>
      <trkpt lat="41.932843" lon="1.044602">
        <ele>548.828</ele>
        <time>2021-06-20T16:18:23Z</time>
      </trkpt>
      <trkpt lat="41.932846" lon="1.044541">
        <ele>548.659</ele>
        <time>2021-06-20T16:18:24Z</time>
      </trkpt>
      <trkpt lat="41.932839" lon="1.044280">
        <ele>547.889</ele>
        <time>2021-06-20T16:18:28Z</time>
      </trkpt>
      <trkpt lat="41.932842" lon="1.044215">
        <ele>547.657</ele>
        <time>2021-06-20T16:18:29Z</time>
      </trkpt>
      <trkpt lat="41.932846" lon="1.044111">
        <ele>546.699</ele>
        <time>2021-06-20T16:18:31Z</time>
      </trkpt>
      <trkpt lat="41.932845" lon="1.044015">
        <ele>545.207</ele>
        <time>2021-06-20T16:18:33Z</time>
      </trkpt>
      <trkpt lat="41.932837" lon="1.043956">
        <ele>544.627</ele>
        <time>2021-06-20T16:18:34Z</time>
      </trkpt>
      <trkpt lat="41.932830" lon="1.043891">
        <ele>544.008</ele>
        <time>2021-06-20T16:18:35Z</time>
      </trkpt>
      <trkpt lat="41.932808" lon="1.043760">
        <ele>543.096</ele>
        <time>2021-06-20T16:18:37Z</time>
      </trkpt>
      <trkpt lat="41.932756" lon="1.043460">
        <ele>541.895</ele>
        <time>2021-06-20T16:18:41Z</time>
      </trkpt>
      <trkpt lat="41.932702" lon="1.043347">
        <ele>540.422</ele>
        <time>2021-06-20T16:18:43Z</time>
      </trkpt>
      <trkpt lat="41.932624" lon="1.043277">
        <ele>539.874</ele>
        <time>2021-06-20T16:18:46Z</time>
      </trkpt>
      <trkpt lat="41.932545" lon="1.043289">
        <ele>539.858</ele>
        <time>2021-06-20T16:18:51Z</time>
      </trkpt>
      <trkpt lat="41.932440" lon="1.043388">
        <ele>540.239</ele>
        <time>2021-06-20T16:18:55Z</time>
      </trkpt>
      <trkpt lat="41.932417" lon="1.043431">
        <ele>540.269</ele>
        <time>2021-06-20T16:18:56Z</time>
      </trkpt>
      <trkpt lat="41.932302" lon="1.043623">
        <ele>540.827</ele>
        <time>2021-06-20T16:19:00Z</time>
      </trkpt>
      <trkpt lat="41.932230" lon="1.043719">
        <ele>540.856</ele>
        <time>2021-06-20T16:19:02Z</time>
      </trkpt>
      <trkpt lat="41.932136" lon="1.043859">
        <ele>540.259</ele>
        <time>2021-06-20T16:19:05Z</time>
      </trkpt>
      <trkpt lat="41.932016" lon="1.044050">
        <ele>539.814</ele>
        <time>2021-06-20T16:19:10Z</time>
      </trkpt>
      <trkpt lat="41.931954" lon="1.044134">
        <ele>539.208</ele>
        <time>2021-06-20T16:19:12Z</time>
      </trkpt>
      <trkpt lat="41.931881" lon="1.044182">
        <ele>539.012</ele>
        <time>2021-06-20T16:19:14Z</time>
      </trkpt>
      <trkpt lat="41.931790" lon="1.044226">
        <ele>538.451</ele>
        <time>2021-06-20T16:19:18Z</time>
      </trkpt>
      <trkpt lat="41.931765" lon="1.044237">
        <ele>537.898</ele>
        <time>2021-06-20T16:19:19Z</time>
      </trkpt>
      <trkpt lat="41.931681" lon="1.044285">
        <ele>536.650</ele>
        <time>2021-06-20T16:19:22Z</time>
      </trkpt>
      <trkpt lat="41.931629" lon="1.044338">
        <ele>536.434</ele>
        <time>2021-06-20T16:19:24Z</time>
      </trkpt>
      <trkpt lat="41.931568" lon="1.044411">
        <ele>535.415</ele>
        <time>2021-06-20T16:19:26Z</time>
      </trkpt>
      <trkpt lat="41.931482" lon="1.044491">
        <ele>534.235</ele>
        <time>2021-06-20T16:19:28Z</time>
      </trkpt>
      <trkpt lat="41.931437" lon="1.044528">
        <ele>533.653</ele>
        <time>2021-06-20T16:19:29Z</time>
      </trkpt>
      <trkpt lat="41.931387" lon="1.044563">
        <ele>533.088</ele>
        <time>2021-06-20T16:19:30Z</time>
      </trkpt>
      <trkpt lat="41.931235" lon="1.044674">
        <ele>531.424</ele>
        <time>2021-06-20T16:19:33Z</time>
      </trkpt>
      <trkpt lat="41.931139" lon="1.044765">
        <ele>530.026</ele>
        <time>2021-06-20T16:19:35Z</time>
      </trkpt>
      <trkpt lat="41.931048" lon="1.044865">
        <ele>529.208</ele>
        <time>2021-06-20T16:19:37Z</time>
      </trkpt>
      <trkpt lat="41.931003" lon="1.044903">
        <ele>529.055</ele>
        <time>2021-06-20T16:19:38Z</time>
      </trkpt>
      <trkpt lat="41.930803" lon="1.044960">
        <ele>528.494</ele>
        <time>2021-06-20T16:19:42Z</time>
      </trkpt>
      <trkpt lat="41.930489" lon="1.045046">
        <ele>528.051</ele>
        <time>2021-06-20T16:19:48Z</time>
      </trkpt>
      <trkpt lat="41.930255" lon="1.045201">
        <ele>528.043</ele>
        <time>2021-06-20T16:19:53Z</time>
      </trkpt>
      <trkpt lat="41.930214" lon="1.045242">
        <ele>528.037</ele>
        <time>2021-06-20T16:19:54Z</time>
      </trkpt>
      <trkpt lat="41.930051" lon="1.045443">
        <ele>528.678</ele>
        <time>2021-06-20T16:19:59Z</time>
      </trkpt>
      <trkpt lat="41.929878" lon="1.045652">
        <ele>529.448</ele>
        <time>2021-06-20T16:20:04Z</time>
      </trkpt>
      <trkpt lat="41.929850" lon="1.045705">
        <ele>529.496</ele>
        <time>2021-06-20T16:20:05Z</time>
      </trkpt>
      <trkpt lat="41.929793" lon="1.045891">
        <ele>529.641</ele>
        <time>2021-06-20T16:20:08Z</time>
      </trkpt>
      <trkpt lat="41.929760" lon="1.046019">
        <ele>529.681</ele>
        <time>2021-06-20T16:20:10Z</time>
      </trkpt>
      <trkpt lat="41.929722" lon="1.046156">
        <ele>529.609</ele>
        <time>2021-06-20T16:20:12Z</time>
      </trkpt>
      <trkpt lat="41.929670" lon="1.046291">
        <ele>529.608</ele>
        <time>2021-06-20T16:20:14Z</time>
      </trkpt>
      <trkpt lat="41.929636" lon="1.046350">
        <ele>529.441</ele>
        <time>2021-06-20T16:20:15Z</time>
      </trkpt>
      <trkpt lat="41.929508" lon="1.046495">
        <ele>529.290</ele>
        <time>2021-06-20T16:20:18Z</time>
      </trkpt>
      <trkpt lat="41.929461" lon="1.046536">
        <ele>529.227</ele>
        <time>2021-06-20T16:20:19Z</time>
      </trkpt>
      <trkpt lat="41.929243" lon="1.046721">
        <ele>528.839</ele>
        <time>2021-06-20T16:20:24Z</time>
      </trkpt>
      <trkpt lat="41.929201" lon="1.046744">
        <ele>528.633</ele>
        <time>2021-06-20T16:20:25Z</time>
      </trkpt>
      <trkpt lat="41.929039" lon="1.046802">
        <ele>528.094</ele>
        <time>2021-06-20T16:20:29Z</time>
      </trkpt>
      <trkpt lat="41.928997" lon="1.046816">
        <ele>527.684</ele>
        <time>2021-06-20T16:20:30Z</time>
      </trkpt>
      <trkpt lat="41.928956" lon="1.046833">
        <ele>526.892</ele>
        <time>2021-06-20T16:20:31Z</time>
      </trkpt>
      <trkpt lat="41.928918" lon="1.046854">
        <ele>526.256</ele>
        <time>2021-06-20T16:20:32Z</time>
      </trkpt>
      <trkpt lat="41.928882" lon="1.046878">
        <ele>525.659</ele>
        <time>2021-06-20T16:20:33Z</time>
      </trkpt>
      <trkpt lat="41.928806" lon="1.046918">
        <ele>524.214</ele>
        <time>2021-06-20T16:20:35Z</time>
      </trkpt>
      <trkpt lat="41.928766" lon="1.046938">
        <ele>523.608</ele>
        <time>2021-06-20T16:20:36Z</time>
      </trkpt>
      <trkpt lat="41.928722" lon="1.046958">
        <ele>522.812</ele>
        <time>2021-06-20T16:20:37Z</time>
      </trkpt>
      <trkpt lat="41.928605" lon="1.047000">
        <ele>521.641</ele>
        <time>2021-06-20T16:20:40Z</time>
      </trkpt>
      <trkpt lat="41.928532" lon="1.047008">
        <ele>520.848</ele>
        <time>2021-06-20T16:20:42Z</time>
      </trkpt>
      <trkpt lat="41.928500" lon="1.047003">
        <ele>520.430</ele>
        <time>2021-06-20T16:20:43Z</time>
      </trkpt>
      <trkpt lat="41.928435" lon="1.046981">
        <ele>519.484</ele>
        <time>2021-06-20T16:20:45Z</time>
      </trkpt>
      <trkpt lat="41.928355" lon="1.046958">
        <ele>518.495</ele>
        <time>2021-06-20T16:20:47Z</time>
      </trkpt>
      <trkpt lat="41.928311" lon="1.046950">
        <ele>517.675</ele>
        <time>2021-06-20T16:20:48Z</time>
      </trkpt>
      <trkpt lat="41.928266" lon="1.046949">
        <ele>516.693</ele>
        <time>2021-06-20T16:20:49Z</time>
      </trkpt>
      <trkpt lat="41.928226" lon="1.046957">
        <ele>515.645</ele>
        <time>2021-06-20T16:20:50Z</time>
      </trkpt>
      <trkpt lat="41.928189" lon="1.046963">
        <ele>515.247</ele>
        <time>2021-06-20T16:20:51Z</time>
      </trkpt>
      <trkpt lat="41.928107" lon="1.046961">
        <ele>514.611</ele>
        <time>2021-06-20T16:20:53Z</time>
      </trkpt>
      <trkpt lat="41.928009" lon="1.046953">
        <ele>513.408</ele>
        <time>2021-06-20T16:20:55Z</time>
      </trkpt>
      <trkpt lat="41.927959" lon="1.046948">
        <ele>512.871</ele>
        <time>2021-06-20T16:20:56Z</time>
      </trkpt>
      <trkpt lat="41.927852" lon="1.046934">
        <ele>512.280</ele>
        <time>2021-06-20T16:20:58Z</time>
      </trkpt>
      <trkpt lat="41.927735" lon="1.046913">
        <ele>510.817</ele>
        <time>2021-06-20T16:21:00Z</time>
      </trkpt>
      <trkpt lat="41.927632" lon="1.046888">
        <ele>509.029</ele>
        <time>2021-06-20T16:21:02Z</time>
      </trkpt>
      <trkpt lat="41.927536" lon="1.046879">
        <ele>507.453</ele>
        <time>2021-06-20T16:21:04Z</time>
      </trkpt>
      <trkpt lat="41.927450" lon="1.046870">
        <ele>505.674</ele>
        <time>2021-06-20T16:21:06Z</time>
      </trkpt>
      <trkpt lat="41.927403" lon="1.046859">
        <ele>505.084</ele>
        <time>2021-06-20T16:21:07Z</time>
      </trkpt>
      <trkpt lat="41.927354" lon="1.046847">
        <ele>504.422</ele>
        <time>2021-06-20T16:21:08Z</time>
      </trkpt>
      <trkpt lat="41.927303" lon="1.046827">
        <ele>504.228</ele>
        <time>2021-06-20T16:21:09Z</time>
      </trkpt>
      <trkpt lat="41.927161" lon="1.046747">
        <ele>503.689</ele>
        <time>2021-06-20T16:21:12Z</time>
      </trkpt>
      <trkpt lat="41.927113" lon="1.046725">
        <ele>503.417</ele>
        <time>2021-06-20T16:21:13Z</time>
      </trkpt>
      <trkpt lat="41.927044" lon="1.046705">
        <ele>502.408</ele>
        <time>2021-06-20T16:21:15Z</time>
      </trkpt>
      <trkpt lat="41.927021" lon="1.046705">
        <ele>501.689</ele>
        <time>2021-06-20T16:21:16Z</time>
      </trkpt>
      <trkpt lat="41.926999" lon="1.046707">
        <ele>501.038</ele>
        <time>2021-06-20T16:21:17Z</time>
      </trkpt>
      <trkpt lat="41.926934" lon="1.046711">
        <ele>499.855</ele>
        <time>2021-06-20T16:21:19Z</time>
      </trkpt>
      <trkpt lat="41.926893" lon="1.046708">
        <ele>499.467</ele>
        <time>2021-06-20T16:21:20Z</time>
      </trkpt>
      <trkpt lat="41.926808" lon="1.046711">
        <ele>498.821</ele>
        <time>2021-06-20T16:21:22Z</time>
      </trkpt>
      <trkpt lat="41.926747" lon="1.046729">
        <ele>498.692</ele>
        <time>2021-06-20T16:21:24Z</time>
      </trkpt>
      <trkpt lat="41.926702" lon="1.046743">
        <ele>497.432</ele>
        <time>2021-06-20T16:21:26Z</time>
      </trkpt>
      <trkpt lat="41.926687" lon="1.046753">
        <ele>496.240</ele>
        <time>2021-06-20T16:21:27Z</time>
      </trkpt>
      <trkpt lat="41.926661" lon="1.046785">
        <ele>494.821</ele>
        <time>2021-06-20T16:21:29Z</time>
      </trkpt>
      <trkpt lat="41.926648" lon="1.046810">
        <ele>494.441</ele>
        <time>2021-06-20T16:21:30Z</time>
      </trkpt>
      <trkpt lat="41.926614" lon="1.046873">
        <ele>494.005</ele>
        <time>2021-06-20T16:21:32Z</time>
      </trkpt>
      <trkpt lat="41.926557" lon="1.046947">
        <ele>493.808</ele>
        <time>2021-06-20T16:21:34Z</time>
      </trkpt>
      <trkpt lat="41.926520" lon="1.046984">
        <ele>493.669</ele>
        <time>2021-06-20T16:21:35Z</time>
      </trkpt>
      <trkpt lat="41.926398" lon="1.047091">
        <ele>492.688</ele>
        <time>2021-06-20T16:21:39Z</time>
      </trkpt>
      <trkpt lat="41.926319" lon="1.047182">
        <ele>491.675</ele>
        <time>2021-06-20T16:21:42Z</time>
      </trkpt>
      <trkpt lat="41.926225" lon="1.047226">
        <ele>490.477</ele>
        <time>2021-06-20T16:21:45Z</time>
      </trkpt>
      <trkpt lat="41.926104" lon="1.047180">
        <ele>489.891</ele>
        <time>2021-06-20T16:21:49Z</time>
      </trkpt>
      <trkpt lat="41.926055" lon="1.047138">
        <ele>489.282</ele>
        <time>2021-06-20T16:21:51Z</time>
      </trkpt>
      <trkpt lat="41.926011" lon="1.047082">
        <ele>487.832</ele>
        <time>2021-06-20T16:21:53Z</time>
      </trkpt>
      <trkpt lat="41.925972" lon="1.047036">
        <ele>486.890</ele>
        <time>2021-06-20T16:21:55Z</time>
      </trkpt>
      <trkpt lat="41.925913" lon="1.047026">
        <ele>485.659</ele>
        <time>2021-06-20T16:21:58Z</time>
      </trkpt>
      <trkpt lat="41.925900" lon="1.047040">
        <ele>484.803</ele>
        <time>2021-06-20T16:21:59Z</time>
      </trkpt>
      <trkpt lat="41.925890" lon="1.047059">
        <ele>484.023</ele>
        <time>2021-06-20T16:22:00Z</time>
      </trkpt>
      <trkpt lat="41.925894" lon="1.047171">
        <ele>482.808</ele>
        <time>2021-06-20T16:22:04Z</time>
      </trkpt>
      <trkpt lat="41.925936" lon="1.047353">
        <ele>482.092</ele>
        <time>2021-06-20T16:22:09Z</time>
      </trkpt>
      <trkpt lat="41.925952" lon="1.047391">
        <ele>481.811</ele>
        <time>2021-06-20T16:22:10Z</time>
      </trkpt>
      <trkpt lat="41.926022" lon="1.047514">
        <ele>481.418</ele>
        <time>2021-06-20T16:22:14Z</time>
      </trkpt>
      <trkpt lat="41.926128" lon="1.047579">
        <ele>481.050</ele>
        <time>2021-06-20T16:22:18Z</time>
      </trkpt>
      <trkpt lat="41.926349" lon="1.047648">
        <ele>480.894</ele>
        <time>2021-06-20T16:22:23Z</time>
      </trkpt>
      <trkpt lat="41.926391" lon="1.047653">
        <ele>480.875</ele>
        <time>2021-06-20T16:22:24Z</time>
      </trkpt>
      <trkpt lat="41.926518" lon="1.047630">
        <ele>481.075</ele>
        <time>2021-06-20T16:22:27Z</time>
      </trkpt>
      <trkpt lat="41.926640" lon="1.047607">
        <ele>480.873</ele>
        <time>2021-06-20T16:22:30Z</time>
      </trkpt>
      <trkpt lat="41.926681" lon="1.047601">
        <ele>480.666</ele>
        <time>2021-06-20T16:22:31Z</time>
      </trkpt>
      <trkpt lat="41.926767" lon="1.047610">
        <ele>480.629</ele>
        <time>2021-06-20T16:22:33Z</time>
      </trkpt>
      <trkpt lat="41.926953" lon="1.047695">
        <ele>480.021</ele>
        <time>2021-06-20T16:22:37Z</time>
      </trkpt>
      <trkpt lat="41.926998" lon="1.047722">
        <ele>479.808</ele>
        <time>2021-06-20T16:22:38Z</time>
      </trkpt>
      <trkpt lat="41.927044" lon="1.047749">
        <ele>479.863</ele>
        <time>2021-06-20T16:22:39Z</time>
      </trkpt>
      <trkpt lat="41.927137" lon="1.047877">
        <ele>479.242</ele>
        <time>2021-06-20T16:22:42Z</time>
      </trkpt>
      <trkpt lat="41.927092" lon="1.047986">
        <ele>478.859</ele>
        <time>2021-06-20T16:22:45Z</time>
      </trkpt>
      <trkpt lat="41.926997" lon="1.048032">
        <ele>478.811</ele>
        <time>2021-06-20T16:22:49Z</time>
      </trkpt>
      <trkpt lat="41.926974" lon="1.048039">
        <ele>478.855</ele>
        <time>2021-06-20T16:22:50Z</time>
      </trkpt>
      <trkpt lat="41.926857" lon="1.048070">
        <ele>478.496</ele>
        <time>2021-06-20T16:22:55Z</time>
      </trkpt>
      <trkpt lat="41.926755" lon="1.048229">
        <ele>478.826</ele>
        <time>2021-06-20T16:23:01Z</time>
      </trkpt>
      <trkpt lat="41.926664" lon="1.048405">
        <ele>478.814</ele>
        <time>2021-06-20T16:23:07Z</time>
      </trkpt>
      <trkpt lat="41.926577" lon="1.048502">
        <ele>478.864</ele>
        <time>2021-06-20T16:23:10Z</time>
      </trkpt>
      <trkpt lat="41.926512" lon="1.048580">
        <ele>478.806</ele>
        <time>2021-06-20T16:23:12Z</time>
      </trkpt>
      <trkpt lat="41.926347" lon="1.048701">
        <ele>479.016</ele>
        <time>2021-06-20T16:23:17Z</time>
      </trkpt>
      <trkpt lat="41.926152" lon="1.048777">
        <ele>479.408</ele>
        <time>2021-06-20T16:23:23Z</time>
      </trkpt>
      <trkpt lat="41.925904" lon="1.048768">
        <ele>479.833</ele>
        <time>2021-06-20T16:23:30Z</time>
      </trkpt>
      <trkpt lat="41.925865" lon="1.048782">
        <ele>479.812</ele>
        <time>2021-06-20T16:23:31Z</time>
      </trkpt>
      <trkpt lat="41.925696" lon="1.048871">
        <ele>480.219</ele>
        <time>2021-06-20T16:23:35Z</time>
      </trkpt>
      <trkpt lat="41.925470" lon="1.049043">
        <ele>480.451</ele>
        <time>2021-06-20T16:23:40Z</time>
      </trkpt>
      <trkpt lat="41.925426" lon="1.049068">
        <ele>480.485</ele>
        <time>2021-06-20T16:23:41Z</time>
      </trkpt>
      <trkpt lat="41.925245" lon="1.049140">
        <ele>480.286</ele>
        <time>2021-06-20T16:23:46Z</time>
      </trkpt>
      <trkpt lat="41.925130" lon="1.049178">
        <ele>480.086</ele>
        <time>2021-06-20T16:23:49Z</time>
      </trkpt>
      <trkpt lat="41.925049" lon="1.049232">
        <ele>479.044</ele>
        <time>2021-06-20T16:23:51Z</time>
      </trkpt>
      <trkpt lat="41.925010" lon="1.049262">
        <ele>478.618</ele>
        <time>2021-06-20T16:23:52Z</time>
      </trkpt>
      <trkpt lat="41.924975" lon="1.049300">
        <ele>478.298</ele>
        <time>2021-06-20T16:23:53Z</time>
      </trkpt>
      <trkpt lat="41.924896" lon="1.049421">
        <ele>477.617</ele>
        <time>2021-06-20T16:23:56Z</time>
      </trkpt>
      <trkpt lat="41.924751" lon="1.049562">
        <ele>476.608</ele>
        <time>2021-06-20T16:24:00Z</time>
      </trkpt>
      <trkpt lat="41.924712" lon="1.049578">
        <ele>476.418</ele>
        <time>2021-06-20T16:24:01Z</time>
      </trkpt>
      <trkpt lat="41.924596" lon="1.049592">
        <ele>475.677</ele>
        <time>2021-06-20T16:24:04Z</time>
      </trkpt>
      <trkpt lat="41.924554" lon="1.049591">
        <ele>475.474</ele>
        <time>2021-06-20T16:24:05Z</time>
      </trkpt>
      <trkpt lat="41.924508" lon="1.049591">
        <ele>474.066</ele>
        <time>2021-06-20T16:24:06Z</time>
      </trkpt>
      <trkpt lat="41.924459" lon="1.049584">
        <ele>473.480</ele>
        <time>2021-06-20T16:24:07Z</time>
      </trkpt>
      <trkpt lat="41.924361" lon="1.049545">
        <ele>472.811</ele>
        <time>2021-06-20T16:24:09Z</time>
      </trkpt>
      <trkpt lat="41.924314" lon="1.049514">
        <ele>472.411</ele>
        <time>2021-06-20T16:24:10Z</time>
      </trkpt>
      <trkpt lat="41.924268" lon="1.049480">
        <ele>471.649</ele>
        <time>2021-06-20T16:24:11Z</time>
      </trkpt>
      <trkpt lat="41.924224" lon="1.049451">
        <ele>470.815</ele>
        <time>2021-06-20T16:24:12Z</time>
      </trkpt>
      <trkpt lat="41.924182" lon="1.049435">
        <ele>470.065</ele>
        <time>2021-06-20T16:24:13Z</time>
      </trkpt>
      <trkpt lat="41.924092" lon="1.049432">
        <ele>469.211</ele>
        <time>2021-06-20T16:24:15Z</time>
      </trkpt>
      <trkpt lat="41.924047" lon="1.049434">
        <ele>469.008</ele>
        <time>2021-06-20T16:24:16Z</time>
      </trkpt>
      <trkpt lat="41.923964" lon="1.049445">
        <ele>468.258</ele>
        <time>2021-06-20T16:24:18Z</time>
      </trkpt>
      <trkpt lat="41.923880" lon="1.049486">
        <ele>467.857</ele>
        <time>2021-06-20T16:24:20Z</time>
      </trkpt>
      <trkpt lat="41.923795" lon="1.049529">
        <ele>466.854</ele>
        <time>2021-06-20T16:24:22Z</time>
      </trkpt>
      <trkpt lat="41.923749" lon="1.049550">
        <ele>466.866</ele>
        <time>2021-06-20T16:24:23Z</time>
      </trkpt>
      <trkpt lat="41.923610" lon="1.049623">
        <ele>465.490</ele>
        <time>2021-06-20T16:24:26Z</time>
      </trkpt>
      <trkpt lat="41.923415" lon="1.049703">
        <ele>464.211</ele>
        <time>2021-06-20T16:24:30Z</time>
      </trkpt>
      <trkpt lat="41.923374" lon="1.049726">
        <ele>463.691</ele>
        <time>2021-06-20T16:24:31Z</time>
      </trkpt>
      <trkpt lat="41.923334" lon="1.049747">
        <ele>463.289</ele>
        <time>2021-06-20T16:24:32Z</time>
      </trkpt>
      <trkpt lat="41.923252" lon="1.049779">
        <ele>462.237</ele>
        <time>2021-06-20T16:24:34Z</time>
      </trkpt>
      <trkpt lat="41.923168" lon="1.049812">
        <ele>461.249</ele>
        <time>2021-06-20T16:24:36Z</time>
      </trkpt>
      <trkpt lat="41.923079" lon="1.049838">
        <ele>461.013</ele>
        <time>2021-06-20T16:24:38Z</time>
      </trkpt>
      <trkpt lat="41.922973" lon="1.049849">
        <ele>460.608</ele>
        <time>2021-06-20T16:24:41Z</time>
      </trkpt>
      <trkpt lat="41.922887" lon="1.049899">
        <ele>460.050</ele>
        <time>2021-06-20T16:24:44Z</time>
      </trkpt>
      <trkpt lat="41.922830" lon="1.049960">
        <ele>459.669</ele>
        <time>2021-06-20T16:24:46Z</time>
      </trkpt>
      <trkpt lat="41.922763" lon="1.050007">
        <ele>459.456</ele>
        <time>2021-06-20T16:24:48Z</time>
      </trkpt>
      <trkpt lat="41.922728" lon="1.050001">
        <ele>459.258</ele>
        <time>2021-06-20T16:24:49Z</time>
      </trkpt>
      <trkpt lat="41.922679" lon="1.049947">
        <ele>459.092</ele>
        <time>2021-06-20T16:24:51Z</time>
      </trkpt>
      <trkpt lat="41.922658" lon="1.049912">
        <ele>458.873</ele>
        <time>2021-06-20T16:24:52Z</time>
      </trkpt>
      <trkpt lat="41.922634" lon="1.049875">
        <ele>458.613</ele>
        <time>2021-06-20T16:24:53Z</time>
      </trkpt>
      <trkpt lat="41.922545" lon="1.049784">
        <ele>458.061</ele>
        <time>2021-06-20T16:24:56Z</time>
      </trkpt>
      <trkpt lat="41.922503" lon="1.049763">
        <ele>457.427</ele>
        <time>2021-06-20T16:24:57Z</time>
      </trkpt>
      <trkpt lat="41.922456" lon="1.049749">
        <ele>456.668</ele>
        <time>2021-06-20T16:24:58Z</time>
      </trkpt>
      <trkpt lat="41.922405" lon="1.049738">
        <ele>456.414</ele>
        <time>2021-06-20T16:24:59Z</time>
      </trkpt>
      <trkpt lat="41.922237" lon="1.049731">
        <ele>455.408</ele>
        <time>2021-06-20T16:25:02Z</time>
      </trkpt>
      <trkpt lat="41.922120" lon="1.049731">
        <ele>455.079</ele>
        <time>2021-06-20T16:25:04Z</time>
      </trkpt>
      <trkpt lat="41.922065" lon="1.049735">
        <ele>454.468</ele>
        <time>2021-06-20T16:25:05Z</time>
      </trkpt>
      <trkpt lat="41.922011" lon="1.049747">
        <ele>453.235</ele>
        <time>2021-06-20T16:25:06Z</time>
      </trkpt>
      <trkpt lat="41.921915" lon="1.049807">
        <ele>452.237</ele>
        <time>2021-06-20T16:25:08Z</time>
      </trkpt>
      <trkpt lat="41.921870" lon="1.049854">
        <ele>451.851</ele>
        <time>2021-06-20T16:25:09Z</time>
      </trkpt>
      <trkpt lat="41.921784" lon="1.049961">
        <ele>451.482</ele>
        <time>2021-06-20T16:25:11Z</time>
      </trkpt>
      <trkpt lat="41.921716" lon="1.050073">
        <ele>451.052</ele>
        <time>2021-06-20T16:25:13Z</time>
      </trkpt>
      <trkpt lat="41.921649" lon="1.050361">
        <ele>450.440</ele>
        <time>2021-06-20T16:25:17Z</time>
      </trkpt>
      <trkpt lat="41.921665" lon="1.050586">
        <ele>449.879</ele>
        <time>2021-06-20T16:25:20Z</time>
      </trkpt>
      <trkpt lat="41.921681" lon="1.050654">
        <ele>449.805</ele>
        <time>2021-06-20T16:25:21Z</time>
      </trkpt>
      <trkpt lat="41.921726" lon="1.050841">
        <ele>449.425</ele>
        <time>2021-06-20T16:25:24Z</time>
      </trkpt>
      <trkpt lat="41.921756" lon="1.050958">
        <ele>449.208</ele>
        <time>2021-06-20T16:25:26Z</time>
      </trkpt>
      <trkpt lat="41.921775" lon="1.051231">
        <ele>448.644</ele>
        <time>2021-06-20T16:25:30Z</time>
      </trkpt>
      <trkpt lat="41.921704" lon="1.051400">
        <ele>447.643</ele>
        <time>2021-06-20T16:25:33Z</time>
      </trkpt>
      <trkpt lat="41.921669" lon="1.051432">
        <ele>447.440</ele>
        <time>2021-06-20T16:25:34Z</time>
      </trkpt>
      <trkpt lat="41.921587" lon="1.051428">
        <ele>446.412</ele>
        <time>2021-06-20T16:25:36Z</time>
      </trkpt>
      <trkpt lat="41.921556" lon="1.051393">
        <ele>446.086</ele>
        <time>2021-06-20T16:25:37Z</time>
      </trkpt>
      <trkpt lat="41.921517" lon="1.051292">
        <ele>445.617</ele>
        <time>2021-06-20T16:25:39Z</time>
      </trkpt>
      <trkpt lat="41.921460" lon="1.051185">
        <ele>445.457</ele>
        <time>2021-06-20T16:25:41Z</time>
      </trkpt>
      <trkpt lat="41.921417" lon="1.051128">
        <ele>445.265</ele>
        <time>2021-06-20T16:25:42Z</time>
      </trkpt>
      <trkpt lat="41.921369" lon="1.051067">
        <ele>444.662</ele>
        <time>2021-06-20T16:25:43Z</time>
      </trkpt>
      <trkpt lat="41.921320" lon="1.050997">
        <ele>444.083</ele>
        <time>2021-06-20T16:25:44Z</time>
      </trkpt>
      <trkpt lat="41.921273" lon="1.050915">
        <ele>443.411</ele>
        <time>2021-06-20T16:25:45Z</time>
      </trkpt>
      <trkpt lat="41.921185" lon="1.050721">
        <ele>442.608</ele>
        <time>2021-06-20T16:25:47Z</time>
      </trkpt>
      <trkpt lat="41.921090" lon="1.050492">
        <ele>442.093</ele>
        <time>2021-06-20T16:25:49Z</time>
      </trkpt>
      <trkpt lat="41.921040" lon="1.050369">
        <ele>440.852</ele>
        <time>2021-06-20T16:25:50Z</time>
      </trkpt>
      <trkpt lat="41.920987" lon="1.050243">
        <ele>439.829</ele>
        <time>2021-06-20T16:25:51Z</time>
      </trkpt>
      <trkpt lat="41.920932" lon="1.050121">
        <ele>438.631</ele>
        <time>2021-06-20T16:25:52Z</time>
      </trkpt>
      <trkpt lat="41.920876" lon="1.050006">
        <ele>437.495</ele>
        <time>2021-06-20T16:25:53Z</time>
      </trkpt>
      <trkpt lat="41.920822" lon="1.049897">
        <ele>436.446</ele>
        <time>2021-06-20T16:25:54Z</time>
      </trkpt>
      <trkpt lat="41.920771" lon="1.049795">
        <ele>435.096</ele>
        <time>2021-06-20T16:25:55Z</time>
      </trkpt>
      <trkpt lat="41.920717" lon="1.049694">
        <ele>433.614</ele>
        <time>2021-06-20T16:25:56Z</time>
      </trkpt>
      <trkpt lat="41.920659" lon="1.049591">
        <ele>432.472</ele>
        <time>2021-06-20T16:25:57Z</time>
      </trkpt>
      <trkpt lat="41.920596" lon="1.049483">
        <ele>429.813</ele>
        <time>2021-06-20T16:25:58Z</time>
      </trkpt>
      <trkpt lat="41.920535" lon="1.049369">
        <ele>428.614</ele>
        <time>2021-06-20T16:25:59Z</time>
      </trkpt>
      <trkpt lat="41.920411" lon="1.049134">
        <ele>427.408</ele>
        <time>2021-06-20T16:26:01Z</time>
      </trkpt>
      <trkpt lat="41.920281" lon="1.048891">
        <ele>424.884</ele>
        <time>2021-06-20T16:26:03Z</time>
      </trkpt>
      <trkpt lat="41.920219" lon="1.048772">
        <ele>423.833</ele>
        <time>2021-06-20T16:26:04Z</time>
      </trkpt>
      <trkpt lat="41.920161" lon="1.048659">
        <ele>423.050</ele>
        <time>2021-06-20T16:26:05Z</time>
      </trkpt>
      <trkpt lat="41.920102" lon="1.048557">
        <ele>421.842</ele>
        <time>2021-06-20T16:26:06Z</time>
      </trkpt>
      <trkpt lat="41.920045" lon="1.048465">
        <ele>420.436</ele>
        <time>2021-06-20T16:26:07Z</time>
      </trkpt>
      <trkpt lat="41.919938" lon="1.048289">
        <ele>418.087</ele>
        <time>2021-06-20T16:26:09Z</time>
      </trkpt>
      <trkpt lat="41.919888" lon="1.048196">
        <ele>416.227</ele>
        <time>2021-06-20T16:26:10Z</time>
      </trkpt>
      <trkpt lat="41.919790" lon="1.047996">
        <ele>414.855</ele>
        <time>2021-06-20T16:26:12Z</time>
      </trkpt>
      <trkpt lat="41.919700" lon="1.047786">
        <ele>414.247</ele>
        <time>2021-06-20T16:26:14Z</time>
      </trkpt>
      <trkpt lat="41.919619" lon="1.047579">
        <ele>413.629</ele>
        <time>2021-06-20T16:26:16Z</time>
      </trkpt>
      <trkpt lat="41.919463" lon="1.047199">
        <ele>412.421</ele>
        <time>2021-06-20T16:26:20Z</time>
      </trkpt>
      <trkpt lat="41.919297" lon="1.046815">
        <ele>412.208</ele>
        <time>2021-06-20T16:26:25Z</time>
      </trkpt>
      <trkpt lat="41.919261" lon="1.046751">
        <ele>412.271</ele>
        <time>2021-06-20T16:26:26Z</time>
      </trkpt>
      <trkpt lat="41.919058" lon="1.046431">
        <ele>412.820</ele>
        <time>2021-06-20T16:26:32Z</time>
      </trkpt>
      <trkpt lat="41.919006" lon="1.046335">
        <ele>413.237</ele>
        <time>2021-06-20T16:26:34Z</time>
      </trkpt>
      <trkpt lat="41.918959" lon="1.046220">
        <ele>413.489</ele>
        <time>2021-06-20T16:26:36Z</time>
      </trkpt>
      <trkpt lat="41.918934" lon="1.046158">
        <ele>413.653</ele>
        <time>2021-06-20T16:26:37Z</time>
      </trkpt>
      <trkpt lat="41.918860" lon="1.045957">
        <ele>413.614</ele>
        <time>2021-06-20T16:26:40Z</time>
      </trkpt>
      <trkpt lat="41.918801" lon="1.045748">
        <ele>413.824</ele>
        <time>2021-06-20T16:26:43Z</time>
      </trkpt>
      <trkpt lat="41.918556" lon="1.045150">
        <ele>412.652</ele>
        <time>2021-06-20T16:26:52Z</time>
      </trkpt>
      <trkpt lat="41.918518" lon="1.045084">
        <ele>412.064</ele>
        <time>2021-06-20T16:26:53Z</time>
      </trkpt>
      <trkpt lat="41.918324" lon="1.044741">
        <ele>410.806</ele>
        <time>2021-06-20T16:26:58Z</time>
      </trkpt>
      <trkpt lat="41.918266" lon="1.044487">
        <ele>409.816</ele>
        <time>2021-06-20T16:27:01Z</time>
      </trkpt>
      <trkpt lat="41.918250" lon="1.044398">
        <ele>409.808</ele>
        <time>2021-06-20T16:27:02Z</time>
      </trkpt>
      <trkpt lat="41.918117" lon="1.043881">
        <ele>408.653</ele>
        <time>2021-06-20T16:27:08Z</time>
      </trkpt>
      <trkpt lat="41.917994" lon="1.043275">
        <ele>408.292</ele>
        <time>2021-06-20T16:27:15Z</time>
      </trkpt>
      <trkpt lat="41.917770" lon="1.042593">
        <ele>408.239</ele>
        <time>2021-06-20T16:27:23Z</time>
      </trkpt>
      <trkpt lat="41.917727" lon="1.042441">
        <ele>407.841</ele>
        <time>2021-06-20T16:27:25Z</time>
      </trkpt>
      <trkpt lat="41.917662" lon="1.042363">
        <ele>407.885</ele>
        <time>2021-06-20T16:27:27Z</time>
      </trkpt>
      <trkpt lat="41.917618" lon="1.042358">
        <ele>407.836</ele>
        <time>2021-06-20T16:27:28Z</time>
      </trkpt>
      <trkpt lat="41.917516" lon="1.042397">
        <ele>407.446</ele>
        <time>2021-06-20T16:27:30Z</time>
      </trkpt>
      <trkpt lat="41.917285" lon="1.042486">
        <ele>406.864</ele>
        <time>2021-06-20T16:27:34Z</time>
      </trkpt>
      <trkpt lat="41.917229" lon="1.042494">
        <ele>406.692</ele>
        <time>2021-06-20T16:27:35Z</time>
      </trkpt>
      <trkpt lat="41.917175" lon="1.042490">
        <ele>406.673</ele>
        <time>2021-06-20T16:27:36Z</time>
      </trkpt>
      <trkpt lat="41.916989" lon="1.042399">
        <ele>406.220</ele>
        <time>2021-06-20T16:27:39Z</time>
      </trkpt>
      <trkpt lat="41.916847" lon="1.042319">
        <ele>406.008</ele>
        <time>2021-06-20T16:27:41Z</time>
      </trkpt>
      <trkpt lat="41.916692" lon="1.042283">
        <ele>405.426</ele>
        <time>2021-06-20T16:27:43Z</time>
      </trkpt>
      <trkpt lat="41.916539" lon="1.042249">
        <ele>404.275</ele>
        <time>2021-06-20T16:27:45Z</time>
      </trkpt>
      <trkpt lat="41.916462" lon="1.042232">
        <ele>402.872</ele>
        <time>2021-06-20T16:27:46Z</time>
      </trkpt>
      <trkpt lat="41.916384" lon="1.042218">
        <ele>401.484</ele>
        <time>2021-06-20T16:27:47Z</time>
      </trkpt>
      <trkpt lat="41.916304" lon="1.042208">
        <ele>400.448</ele>
        <time>2021-06-20T16:27:48Z</time>
      </trkpt>
      <trkpt lat="41.916221" lon="1.042203">
        <ele>399.039</ele>
        <time>2021-06-20T16:27:49Z</time>
      </trkpt>
      <trkpt lat="41.915976" lon="1.042199">
        <ele>397.699</ele>
        <time>2021-06-20T16:27:52Z</time>
      </trkpt>
      <trkpt lat="41.915897" lon="1.042183">
        <ele>397.237</ele>
        <time>2021-06-20T16:27:53Z</time>
      </trkpt>
      <trkpt lat="41.915819" lon="1.042156">
        <ele>396.416</ele>
        <time>2021-06-20T16:27:54Z</time>
      </trkpt>
      <trkpt lat="41.915678" lon="1.042090">
        <ele>395.076</ele>
        <time>2021-06-20T16:27:56Z</time>
      </trkpt>
      <trkpt lat="41.915605" lon="1.042062">
        <ele>394.013</ele>
        <time>2021-06-20T16:27:57Z</time>
      </trkpt>
      <trkpt lat="41.915527" lon="1.042041">
        <ele>393.408</ele>
        <time>2021-06-20T16:27:58Z</time>
      </trkpt>
      <trkpt lat="41.915445" lon="1.042020">
        <ele>392.868</ele>
        <time>2021-06-20T16:27:59Z</time>
      </trkpt>
      <trkpt lat="41.915188" lon="1.041923">
        <ele>391.637</ele>
        <time>2021-06-20T16:28:02Z</time>
      </trkpt>
      <trkpt lat="41.914940" lon="1.041847">
        <ele>391.094</ele>
        <time>2021-06-20T16:28:05Z</time>
      </trkpt>
      <trkpt lat="41.914862" lon="1.041804">
        <ele>390.226</ele>
        <time>2021-06-20T16:28:06Z</time>
      </trkpt>
      <trkpt lat="41.914791" lon="1.041761">
        <ele>389.220</ele>
        <time>2021-06-20T16:28:07Z</time>
      </trkpt>
      <trkpt lat="41.914723" lon="1.041738">
        <ele>388.011</ele>
        <time>2021-06-20T16:28:08Z</time>
      </trkpt>
      <trkpt lat="41.914656" lon="1.041747">
        <ele>387.051</ele>
        <time>2021-06-20T16:28:09Z</time>
      </trkpt>
      <trkpt lat="41.914534" lon="1.041841">
        <ele>385.659</ele>
        <time>2021-06-20T16:28:11Z</time>
      </trkpt>
      <trkpt lat="41.914477" lon="1.041903">
        <ele>385.441</ele>
        <time>2021-06-20T16:28:12Z</time>
      </trkpt>
      <trkpt lat="41.914304" lon="1.042109">
        <ele>384.681</ele>
        <time>2021-06-20T16:28:15Z</time>
      </trkpt>
      <trkpt lat="41.914174" lon="1.042231">
        <ele>384.209</ele>
        <time>2021-06-20T16:28:17Z</time>
      </trkpt>
      <trkpt lat="41.913877" lon="1.042396">
        <ele>383.808</ele>
        <time>2021-06-20T16:28:21Z</time>
      </trkpt>
      <trkpt lat="41.913796" lon="1.042415">
        <ele>383.211</ele>
        <time>2021-06-20T16:28:22Z</time>
      </trkpt>
      <trkpt lat="41.913631" lon="1.042430">
        <ele>382.090</ele>
        <time>2021-06-20T16:28:24Z</time>
      </trkpt>
      <trkpt lat="41.913549" lon="1.042436">
        <ele>381.897</ele>
        <time>2021-06-20T16:28:25Z</time>
      </trkpt>
      <trkpt lat="41.913384" lon="1.042463">
        <ele>380.849</ele>
        <time>2021-06-20T16:28:27Z</time>
      </trkpt>
      <trkpt lat="41.913216" lon="1.042502">
        <ele>379.883</ele>
        <time>2021-06-20T16:28:29Z</time>
      </trkpt>
      <trkpt lat="41.913048" lon="1.042558">
        <ele>378.684</ele>
        <time>2021-06-20T16:28:31Z</time>
      </trkpt>
      <trkpt lat="41.912716" lon="1.042677">
        <ele>377.464</ele>
        <time>2021-06-20T16:28:35Z</time>
      </trkpt>
      <trkpt lat="41.912554" lon="1.042716">
        <ele>376.222</ele>
        <time>2021-06-20T16:28:37Z</time>
      </trkpt>
      <trkpt lat="41.912389" lon="1.042746">
        <ele>375.899</ele>
        <time>2021-06-20T16:28:39Z</time>
      </trkpt>
      <trkpt lat="41.912226" lon="1.042716">
        <ele>375.407</ele>
        <time>2021-06-20T16:28:41Z</time>
      </trkpt>
      <trkpt lat="41.912081" lon="1.042625">
        <ele>375.027</ele>
        <time>2021-06-20T16:28:43Z</time>
      </trkpt>
      <trkpt lat="41.912013" lon="1.042573">
        <ele>374.208</ele>
        <time>2021-06-20T16:28:44Z</time>
      </trkpt>
      <trkpt lat="41.911943" lon="1.042528">
        <ele>372.876</ele>
        <time>2021-06-20T16:28:45Z</time>
      </trkpt>
      <trkpt lat="41.911872" lon="1.042491">
        <ele>372.455</ele>
        <time>2021-06-20T16:28:46Z</time>
      </trkpt>
      <trkpt lat="41.911665" lon="1.042410">
        <ele>372.012</ele>
        <time>2021-06-20T16:28:49Z</time>
      </trkpt>
      <trkpt lat="41.911535" lon="1.042303">
        <ele>371.884</ele>
        <time>2021-06-20T16:28:51Z</time>
      </trkpt>
      <trkpt lat="41.911469" lon="1.042240">
        <ele>371.868</ele>
        <time>2021-06-20T16:28:52Z</time>
      </trkpt>
      <trkpt lat="41.911404" lon="1.042177">
        <ele>371.699</ele>
        <time>2021-06-20T16:28:53Z</time>
      </trkpt>
      <trkpt lat="41.911152" lon="1.041969">
        <ele>371.439</ele>
        <time>2021-06-20T16:28:57Z</time>
      </trkpt>
      <trkpt lat="41.911097" lon="1.041923">
        <ele>370.657</ele>
        <time>2021-06-20T16:28:58Z</time>
      </trkpt>
      <trkpt lat="41.911043" lon="1.041866">
        <ele>370.019</ele>
        <time>2021-06-20T16:28:59Z</time>
      </trkpt>
      <trkpt lat="41.910989" lon="1.041798">
        <ele>369.409</ele>
        <time>2021-06-20T16:29:00Z</time>
      </trkpt>
      <trkpt lat="41.910934" lon="1.041731">
        <ele>369.219</ele>
        <time>2021-06-20T16:29:01Z</time>
      </trkpt>
      <trkpt lat="41.910876" lon="1.041669">
        <ele>369.008</ele>
        <time>2021-06-20T16:29:02Z</time>
      </trkpt>
      <trkpt lat="41.910672" lon="1.041555">
        <ele>367.828</ele>
        <time>2021-06-20T16:29:05Z</time>
      </trkpt>
      <trkpt lat="41.910598" lon="1.041537">
        <ele>367.427</ele>
        <time>2021-06-20T16:29:06Z</time>
      </trkpt>
      <trkpt lat="41.910442" lon="1.041495">
        <ele>366.664</ele>
        <time>2021-06-20T16:29:08Z</time>
      </trkpt>
      <trkpt lat="41.910281" lon="1.041426">
        <ele>365.476</ele>
        <time>2021-06-20T16:29:10Z</time>
      </trkpt>
      <trkpt lat="41.910122" lon="1.041357">
        <ele>364.040</ele>
        <time>2021-06-20T16:29:12Z</time>
      </trkpt>
      <trkpt lat="41.909902" lon="1.041234">
        <ele>363.021</ele>
        <time>2021-06-20T16:29:15Z</time>
      </trkpt>
      <trkpt lat="41.909832" lon="1.041191">
        <ele>362.681</ele>
        <time>2021-06-20T16:29:16Z</time>
      </trkpt>
      <trkpt lat="41.909690" lon="1.041132">
        <ele>362.279</ele>
        <time>2021-06-20T16:29:18Z</time>
      </trkpt>
      <trkpt lat="41.909615" lon="1.041114">
        <ele>362.059</ele>
        <time>2021-06-20T16:29:19Z</time>
      </trkpt>
      <trkpt lat="41.909538" lon="1.041105">
        <ele>361.803</ele>
        <time>2021-06-20T16:29:20Z</time>
      </trkpt>
      <trkpt lat="41.909385" lon="1.041124">
        <ele>360.823</ele>
        <time>2021-06-20T16:29:22Z</time>
      </trkpt>
      <trkpt lat="41.909310" lon="1.041147">
        <ele>360.408</ele>
        <time>2021-06-20T16:29:23Z</time>
      </trkpt>
      <trkpt lat="41.909232" lon="1.041163">
        <ele>360.262</ele>
        <time>2021-06-20T16:29:24Z</time>
      </trkpt>
      <trkpt lat="41.909072" lon="1.041171">
        <ele>359.631</ele>
        <time>2021-06-20T16:29:26Z</time>
      </trkpt>
      <trkpt lat="41.908829" lon="1.041194">
        <ele>359.288</ele>
        <time>2021-06-20T16:29:29Z</time>
      </trkpt>
      <trkpt lat="41.908505" lon="1.041207">
        <ele>358.870</ele>
        <time>2021-06-20T16:29:33Z</time>
      </trkpt>
      <trkpt lat="41.908434" lon="1.041180">
        <ele>358.244</ele>
        <time>2021-06-20T16:29:34Z</time>
      </trkpt>
      <trkpt lat="41.908212" lon="1.041060">
        <ele>357.265</ele>
        <time>2021-06-20T16:29:38Z</time>
      </trkpt>
      <trkpt lat="41.908191" lon="1.041055">
        <ele>357.245</ele>
        <time>2021-06-20T16:29:39Z</time>
      </trkpt>
      <trkpt lat="41.908165" lon="1.041057">
        <ele>357.253</ele>
        <time>2021-06-20T16:29:41Z</time>
      </trkpt>
      <trkpt lat="41.908121" lon="1.041151">
        <ele>357.098</ele>
        <time>2021-06-20T16:29:44Z</time>
      </trkpt>
      <trkpt lat="41.907999" lon="1.041193">
        <ele>356.615</ele>
        <time>2021-06-20T16:29:47Z</time>
      </trkpt>
      <trkpt lat="41.907947" lon="1.041184">
        <ele>356.626</ele>
        <time>2021-06-20T16:29:48Z</time>
      </trkpt>
      <trkpt lat="41.907706" lon="1.041123">
        <ele>356.608</ele>
        <time>2021-06-20T16:29:52Z</time>
      </trkpt>
      <trkpt lat="41.907428" lon="1.041042">
        <ele>356.236</ele>
        <time>2021-06-20T16:29:56Z</time>
      </trkpt>
      <trkpt lat="41.907359" lon="1.041002">
        <ele>356.025</ele>
        <time>2021-06-20T16:29:57Z</time>
      </trkpt>
      <trkpt lat="41.907092" lon="1.040797">
        <ele>354.892</ele>
        <time>2021-06-20T16:30:01Z</time>
      </trkpt>
      <trkpt lat="41.906954" lon="1.040681">
        <ele>353.824</ele>
        <time>2021-06-20T16:30:03Z</time>
      </trkpt>
      <trkpt lat="41.906806" lon="1.040559">
        <ele>352.678</ele>
        <time>2021-06-20T16:30:05Z</time>
      </trkpt>
      <trkpt lat="41.906565" lon="1.040399">
        <ele>351.689</ele>
        <time>2021-06-20T16:30:08Z</time>
      </trkpt>
      <trkpt lat="41.906484" lon="1.040353">
        <ele>350.849</ele>
        <time>2021-06-20T16:30:09Z</time>
      </trkpt>
      <trkpt lat="41.906404" lon="1.040308">
        <ele>350.637</ele>
        <time>2021-06-20T16:30:10Z</time>
      </trkpt>
      <trkpt lat="41.906166" lon="1.040185">
        <ele>349.088</ele>
        <time>2021-06-20T16:30:13Z</time>
      </trkpt>
      <trkpt lat="41.905943" lon="1.040067">
        <ele>348.424</ele>
        <time>2021-06-20T16:30:16Z</time>
      </trkpt>
      <trkpt lat="41.905532" lon="1.039781">
        <ele>348.226</ele>
        <time>2021-06-20T16:30:22Z</time>
      </trkpt>
      <trkpt lat="41.905296" lon="1.039718">
        <ele>348.008</ele>
        <time>2021-06-20T16:30:25Z</time>
      </trkpt>
      <trkpt lat="41.905216" lon="1.039709">
        <ele>348.045</ele>
        <time>2021-06-20T16:30:26Z</time>
      </trkpt>
      <trkpt lat="41.905135" lon="1.039710">
        <ele>348.084</ele>
        <time>2021-06-20T16:30:27Z</time>
      </trkpt>
      <trkpt lat="41.904896" lon="1.039756">
        <ele>348.091</ele>
        <time>2021-06-20T16:30:30Z</time>
      </trkpt>
      <trkpt lat="41.904654" lon="1.039833">
        <ele>347.093</ele>
        <time>2021-06-20T16:30:33Z</time>
      </trkpt>
      <trkpt lat="41.904500" lon="1.039912">
        <ele>345.877</ele>
        <time>2021-06-20T16:30:35Z</time>
      </trkpt>
      <trkpt lat="41.904424" lon="1.039958">
        <ele>345.258</ele>
        <time>2021-06-20T16:30:36Z</time>
      </trkpt>
      <trkpt lat="41.904273" lon="1.040058">
        <ele>344.478</ele>
        <time>2021-06-20T16:30:38Z</time>
      </trkpt>
      <trkpt lat="41.904120" lon="1.040166">
        <ele>343.296</ele>
        <time>2021-06-20T16:30:40Z</time>
      </trkpt>
      <trkpt lat="41.903963" lon="1.040280">
        <ele>341.892</ele>
        <time>2021-06-20T16:30:42Z</time>
      </trkpt>
      <trkpt lat="41.903887" lon="1.040341">
        <ele>341.673</ele>
        <time>2021-06-20T16:30:43Z</time>
      </trkpt>
      <trkpt lat="41.903737" lon="1.040475">
        <ele>340.820</ele>
        <time>2021-06-20T16:30:45Z</time>
      </trkpt>
      <trkpt lat="41.903443" lon="1.040752">
        <ele>340.008</ele>
        <time>2021-06-20T16:30:49Z</time>
      </trkpt>
      <trkpt lat="41.903302" lon="1.040879">
        <ele>339.886</ele>
        <time>2021-06-20T16:30:51Z</time>
      </trkpt>
      <trkpt lat="41.903039" lon="1.041114">
        <ele>338.655</ele>
        <time>2021-06-20T16:30:55Z</time>
      </trkpt>
      <trkpt lat="41.902704" lon="1.041431">
        <ele>338.212</ele>
        <time>2021-06-20T16:31:01Z</time>
      </trkpt>
      <trkpt lat="41.902437" lon="1.041670">
        <ele>338.294</ele>
        <time>2021-06-20T16:31:06Z</time>
      </trkpt>
      <trkpt lat="41.902104" lon="1.041973">
        <ele>339.288</ele>
        <time>2021-06-20T16:31:13Z</time>
      </trkpt>
      <trkpt lat="41.901761" lon="1.042332">
        <ele>339.289</ele>
        <time>2021-06-20T16:31:20Z</time>
      </trkpt>
      <trkpt lat="41.901632" lon="1.042672">
        <ele>338.059</ele>
        <time>2021-06-20T16:31:24Z</time>
      </trkpt>
      <trkpt lat="41.901587" lon="1.042975">
        <ele>337.897</ele>
        <time>2021-06-20T16:31:27Z</time>
      </trkpt>
      <trkpt lat="41.901582" lon="1.043075">
        <ele>337.669</ele>
        <time>2021-06-20T16:31:28Z</time>
      </trkpt>
      <trkpt lat="41.901579" lon="1.043173">
        <ele>337.404</ele>
        <time>2021-06-20T16:31:29Z</time>
      </trkpt>
      <trkpt lat="41.901572" lon="1.043542">
        <ele>336.824</ele>
        <time>2021-06-20T16:31:33Z</time>
      </trkpt>
      <trkpt lat="41.901561" lon="1.043817">
        <ele>336.808</ele>
        <time>2021-06-20T16:31:36Z</time>
      </trkpt>
      <trkpt lat="41.901531" lon="1.044434">
        <ele>336.883</ele>
        <time>2021-06-20T16:31:43Z</time>
      </trkpt>
      <trkpt lat="41.901516" lon="1.044522">
        <ele>336.882</ele>
        <time>2021-06-20T16:31:44Z</time>
      </trkpt>
      <trkpt lat="41.901424" lon="1.044753">
        <ele>337.069</ele>
        <time>2021-06-20T16:31:47Z</time>
      </trkpt>
      <trkpt lat="41.901329" lon="1.044864">
        <ele>337.031</ele>
        <time>2021-06-20T16:31:49Z</time>
      </trkpt>
      <trkpt lat="41.901180" lon="1.045017">
        <ele>337.035</ele>
        <time>2021-06-20T16:31:52Z</time>
      </trkpt>
      <trkpt lat="41.900848" lon="1.045346">
        <ele>337.056</ele>
        <time>2021-06-20T16:31:59Z</time>
      </trkpt>
      <trkpt lat="41.900408" lon="1.045832">
        <ele>337.016</ele>
        <time>2021-06-20T16:32:09Z</time>
      </trkpt>
      <trkpt lat="41.899973" lon="1.046290">
        <ele>337.084</ele>
        <time>2021-06-20T16:32:18Z</time>
      </trkpt>
      <trkpt lat="41.899922" lon="1.046344">
        <ele>337.067</ele>
        <time>2021-06-20T16:32:19Z</time>
      </trkpt>
      <trkpt lat="41.899468" lon="1.046808">
        <ele>336.481</ele>
        <time>2021-06-20T16:32:28Z</time>
      </trkpt>
      <trkpt lat="41.899367" lon="1.046900">
        <ele>336.019</ele>
        <time>2021-06-20T16:32:30Z</time>
      </trkpt>
      <trkpt lat="41.899024" lon="1.047198">
        <ele>336.008</ele>
        <time>2021-06-20T16:32:37Z</time>
      </trkpt>
      <trkpt lat="41.898884" lon="1.047323">
        <ele>336.463</ele>
        <time>2021-06-20T16:32:40Z</time>
      </trkpt>
      <trkpt lat="41.898527" lon="1.047683">
        <ele>337.092</ele>
        <time>2021-06-20T16:32:48Z</time>
      </trkpt>
      <trkpt lat="41.898271" lon="1.047968">
        <ele>337.289</ele>
        <time>2021-06-20T16:32:54Z</time>
      </trkpt>
      <trkpt lat="41.898199" lon="1.048080">
        <ele>337.451</ele>
        <time>2021-06-20T16:32:56Z</time>
      </trkpt>
      <trkpt lat="41.897984" lon="1.048520">
        <ele>337.875</ele>
        <time>2021-06-20T16:33:03Z</time>
      </trkpt>
      <trkpt lat="41.897912" lon="1.048636">
        <ele>338.096</ele>
        <time>2021-06-20T16:33:05Z</time>
      </trkpt>
      <trkpt lat="41.897813" lon="1.048698">
        <ele>338.026</ele>
        <time>2021-06-20T16:33:07Z</time>
      </trkpt>
      <trkpt lat="41.897649" lon="1.048682">
        <ele>338.014</ele>
        <time>2021-06-20T16:33:10Z</time>
      </trkpt>
      <trkpt lat="41.897539" lon="1.048668">
        <ele>338.238</ele>
        <time>2021-06-20T16:33:12Z</time>
      </trkpt>
      <trkpt lat="41.897427" lon="1.048667">
        <ele>338.670</ele>
        <time>2021-06-20T16:33:14Z</time>
      </trkpt>
      <trkpt lat="41.897260" lon="1.048709">
        <ele>338.617</ele>
        <time>2021-06-20T16:33:17Z</time>
      </trkpt>
      <trkpt lat="41.897158" lon="1.048761">
        <ele>338.808</ele>
        <time>2021-06-20T16:33:19Z</time>
      </trkpt>
      <trkpt lat="41.897032" lon="1.048881">
        <ele>338.810</ele>
        <time>2021-06-20T16:33:22Z</time>
      </trkpt>
      <trkpt lat="41.896942" lon="1.049093">
        <ele>339.299</ele>
        <time>2021-06-20T16:33:26Z</time>
      </trkpt>
      <trkpt lat="41.896928" lon="1.049147">
        <ele>339.466</ele>
        <time>2021-06-20T16:33:27Z</time>
      </trkpt>
      <trkpt lat="41.896898" lon="1.049303">
        <ele>339.668</ele>
        <time>2021-06-20T16:33:30Z</time>
      </trkpt>
      <trkpt lat="41.896862" lon="1.049498">
        <ele>340.062</ele>
        <time>2021-06-20T16:33:34Z</time>
      </trkpt>
      <trkpt lat="41.896827" lon="1.049694">
        <ele>340.893</ele>
        <time>2021-06-20T16:33:38Z</time>
      </trkpt>
      <trkpt lat="41.896809" lon="1.049737">
        <ele>341.243</ele>
        <time>2021-06-20T16:33:39Z</time>
      </trkpt>
      <trkpt lat="41.896778" lon="1.049764">
        <ele>341.691</ele>
        <time>2021-06-20T16:33:40Z</time>
      </trkpt>
      <trkpt lat="41.896708" lon="1.049750">
        <ele>341.882</ele>
        <time>2021-06-20T16:33:42Z</time>
      </trkpt>
      <trkpt lat="41.896683" lon="1.049716">
        <ele>342.043</ele>
        <time>2021-06-20T16:33:43Z</time>
      </trkpt>
      <trkpt lat="41.896689" lon="1.049591">
        <ele>342.617</ele>
        <time>2021-06-20T16:33:46Z</time>
      </trkpt>
      <trkpt lat="41.896711" lon="1.049510">
        <ele>342.808</ele>
        <time>2021-06-20T16:33:48Z</time>
      </trkpt>
      <trkpt lat="41.896730" lon="1.049400">
        <ele>343.075</ele>
        <time>2021-06-20T16:33:51Z</time>
      </trkpt>
      <trkpt lat="41.896738" lon="1.049337">
        <ele>343.274</ele>
        <time>2021-06-20T16:33:53Z</time>
      </trkpt>
      <trkpt lat="41.896740" lon="1.049157">
        <ele>344.031</ele>
        <time>2021-06-20T16:33:59Z</time>
      </trkpt>
      <trkpt lat="41.896743" lon="1.049101">
        <ele>344.413</ele>
        <time>2021-06-20T16:34:01Z</time>
      </trkpt>
      <trkpt lat="41.896764" lon="1.049001">
        <ele>345.017</ele>
        <time>2021-06-20T16:34:05Z</time>
      </trkpt>
      <trkpt lat="41.896786" lon="1.048932">
        <ele>345.628</ele>
        <time>2021-06-20T16:34:08Z</time>
      </trkpt>
      <trkpt lat="41.896807" lon="1.048829">
        <ele>346.428</ele>
        <time>2021-06-20T16:34:12Z</time>
      </trkpt>
      <trkpt lat="41.896816" lon="1.048777">
        <ele>346.696</ele>
        <time>2021-06-20T16:34:14Z</time>
      </trkpt>
      <trkpt lat="41.896847" lon="1.048602">
        <ele>347.411</ele>
        <time>2021-06-20T16:34:20Z</time>
      </trkpt>
      <trkpt lat="41.896848" lon="1.048573">
        <ele>347.621</ele>
        <time>2021-06-20T16:34:21Z</time>
      </trkpt>
      <trkpt lat="41.896862" lon="1.048525">
        <ele>347.803</ele>
        <time>2021-06-20T16:34:23Z</time>
      </trkpt>
      <trkpt lat="41.896868" lon="1.048483">
        <ele>348.008</ele>
        <time>2021-06-20T16:34:25Z</time>
      </trkpt>
      <trkpt lat="41.896867" lon="1.048340">
        <ele>348.678</ele>
        <time>2021-06-20T16:34:30Z</time>
      </trkpt>
      <trkpt lat="41.896860" lon="1.048279">
        <ele>349.087</ele>
        <time>2021-06-20T16:34:32Z</time>
      </trkpt>
      <trkpt lat="41.896849" lon="1.048131">
        <ele>349.654</ele>
        <time>2021-06-20T16:34:37Z</time>
      </trkpt>
      <trkpt lat="41.896852" lon="1.048100">
        <ele>349.616</ele>
        <time>2021-06-20T16:34:38Z</time>
      </trkpt>
      <trkpt lat="41.896842" lon="1.048046">
        <ele>349.830</ele>
        <time>2021-06-20T16:34:40Z</time>
      </trkpt>
      <trkpt lat="41.896802" lon="1.048019">
        <ele>350.011</ele>
        <time>2021-06-20T16:34:42Z</time>
      </trkpt>
      <trkpt lat="41.896626" lon="1.047979">
        <ele>350.691</ele>
        <time>2021-06-20T16:34:50Z</time>
      </trkpt>
      <trkpt lat="41.896450" lon="1.047933">
        <ele>351.679</ele>
        <time>2021-06-20T16:34:58Z</time>
      </trkpt>
      <trkpt lat="41.896437" lon="1.047911">
        <ele>352.038</ele>
        <time>2021-06-20T16:34:59Z</time>
      </trkpt>
      <trkpt lat="41.896417" lon="1.047804">
        <ele>352.870</ele>
        <time>2021-06-20T16:35:03Z</time>
      </trkpt>
      <trkpt lat="41.896391" lon="1.047684">
        <ele>353.017</ele>
        <time>2021-06-20T16:35:07Z</time>
      </trkpt>
      <trkpt lat="41.896374" lon="1.047679">
        <ele>353.208</ele>
        <time>2021-06-20T16:35:08Z</time>
      </trkpt>
      <trkpt lat="41.896362" lon="1.047671">
        <ele>353.290</ele>
        <time>2021-06-20T16:35:09Z</time>
      </trkpt>
      <trkpt lat="41.896339" lon="1.047596">
        <ele>353.639</ele>
        <time>2021-06-20T16:35:12Z</time>
      </trkpt>
      <trkpt lat="41.896338" lon="1.047503">
        <ele>354.456</ele>
        <time>2021-06-20T16:35:16Z</time>
      </trkpt>
      <trkpt lat="41.896353" lon="1.047485">
        <ele>354.488</ele>
        <time>2021-06-20T16:35:17Z</time>
      </trkpt>
      <trkpt lat="41.896377" lon="1.047546">
        <ele>354.432</ele>
        <time>2021-06-20T16:35:20Z</time>
      </trkpt>
      <trkpt lat="41.896373" lon="1.047576">
        <ele>354.413</ele>
        <time>2021-06-20T16:35:21Z</time>
      </trkpt>
      <trkpt lat="41.896348" lon="1.047684">
        <ele>354.413</ele>
        <time>2021-06-20T16:35:25Z</time>
      </trkpt>
      <trkpt lat="41.896329" lon="1.047691">
        <ele>354.481</ele>
        <time>2021-06-20T16:35:26Z</time>
      </trkpt>
      <trkpt lat="41.896177" lon="1.047733">
        <ele>354.493</ele>
        <time>2021-06-20T16:35:33Z</time>
      </trkpt>
      <trkpt lat="41.896062" lon="1.047754">
        <ele>354.865</ele>
        <time>2021-06-20T16:35:38Z</time>
      </trkpt>
      <trkpt lat="41.895888" lon="1.047764">
        <ele>355.421</ele>
        <time>2021-06-20T16:35:45Z</time>
      </trkpt>
      <trkpt lat="41.895814" lon="1.047766">
        <ele>355.608</ele>
        <time>2021-06-20T16:35:48Z</time>
      </trkpt>
      <trkpt lat="41.895770" lon="1.047771">
        <ele>355.896</ele>
        <time>2021-06-20T16:35:50Z</time>
      </trkpt>
      <trkpt lat="41.895601" lon="1.047762">
        <ele>356.465</ele>
        <time>2021-06-20T16:35:56Z</time>
      </trkpt>
      <trkpt lat="41.895503" lon="1.047812">
        <ele>356.682</ele>
        <time>2021-06-20T16:36:01Z</time>
      </trkpt>
      <trkpt lat="41.895422" lon="1.047830">
        <ele>357.654</ele>
        <time>2021-06-20T16:36:07Z</time>
      </trkpt>
      <trkpt lat="41.895338" lon="1.047719">
        <ele>358.678</ele>
        <time>2021-06-20T16:36:13Z</time>
      </trkpt>
      <trkpt lat="41.895262" lon="1.047610">
        <ele>358.639</ele>
        <time>2021-06-20T16:36:17Z</time>
      </trkpt>
      <trkpt lat="41.895089" lon="1.047449">
        <ele>358.469</ele>
        <time>2021-06-20T16:36:23Z</time>
      </trkpt>
      <trkpt lat="41.894867" lon="1.047246">
        <ele>358.447</ele>
        <time>2021-06-20T16:36:29Z</time>
      </trkpt>
      <trkpt lat="41.894775" lon="1.047183">
        <ele>358.471</ele>
        <time>2021-06-20T16:36:31Z</time>
      </trkpt>
      <trkpt lat="41.894506" lon="1.046925">
        <ele>358.241</ele>
        <time>2021-06-20T16:36:38Z</time>
      </trkpt>
      <trkpt lat="41.894240" lon="1.046698">
        <ele>358.215</ele>
        <time>2021-06-20T16:36:46Z</time>
      </trkpt>
      <trkpt lat="41.894150" lon="1.046574">
        <ele>358.008</ele>
        <time>2021-06-20T16:36:49Z</time>
      </trkpt>
      <trkpt lat="41.894089" lon="1.046469">
        <ele>358.034</ele>
        <time>2021-06-20T16:36:51Z</time>
      </trkpt>
      <trkpt lat="41.893938" lon="1.046178">
        <ele>357.683</ele>
        <time>2021-06-20T16:36:56Z</time>
      </trkpt>
      <trkpt lat="41.893903" lon="1.046122">
        <ele>357.650</ele>
        <time>2021-06-20T16:36:57Z</time>
      </trkpt>
      <trkpt lat="41.893716" lon="1.045863">
        <ele>356.872</ele>
        <time>2021-06-20T16:37:02Z</time>
      </trkpt>
      <trkpt lat="41.893589" lon="1.045701">
        <ele>356.486</ele>
        <time>2021-06-20T16:37:05Z</time>
      </trkpt>
      <trkpt lat="41.893384" lon="1.045436">
        <ele>355.817</ele>
        <time>2021-06-20T16:37:09Z</time>
      </trkpt>
      <trkpt lat="41.893199" lon="1.045252">
        <ele>354.237</ele>
        <time>2021-06-20T16:37:12Z</time>
      </trkpt>
      <trkpt lat="41.893069" lon="1.045121">
        <ele>352.435</ele>
        <time>2021-06-20T16:37:14Z</time>
      </trkpt>
      <trkpt lat="41.892998" lon="1.045050">
        <ele>351.669</ele>
        <time>2021-06-20T16:37:15Z</time>
      </trkpt>
      <trkpt lat="41.892929" lon="1.044980">
        <ele>350.604</ele>
        <time>2021-06-20T16:37:16Z</time>
      </trkpt>
      <trkpt lat="41.892789" lon="1.044841">
        <ele>348.824</ele>
        <time>2021-06-20T16:37:18Z</time>
      </trkpt>
      <trkpt lat="41.892652" lon="1.044710">
        <ele>347.608</ele>
        <time>2021-06-20T16:37:20Z</time>
      </trkpt>
      <trkpt lat="41.892524" lon="1.044582">
        <ele>346.453</ele>
        <time>2021-06-20T16:37:22Z</time>
      </trkpt>
      <trkpt lat="41.892463" lon="1.044524">
        <ele>346.062</ele>
        <time>2021-06-20T16:37:23Z</time>
      </trkpt>
      <trkpt lat="41.892146" lon="1.044204">
        <ele>345.629</ele>
        <time>2021-06-20T16:37:29Z</time>
      </trkpt>
      <trkpt lat="41.891812" lon="1.043880">
        <ele>346.261</ele>
        <time>2021-06-20T16:37:37Z</time>
      </trkpt>
      <trkpt lat="41.891627" lon="1.043698">
        <ele>347.615</ele>
        <time>2021-06-20T16:37:43Z</time>
      </trkpt>
      <trkpt lat="41.891600" lon="1.043673">
        <ele>348.046</ele>
        <time>2021-06-20T16:37:44Z</time>
      </trkpt>
      <trkpt lat="41.891530" lon="1.043601">
        <ele>348.876</ele>
        <time>2021-06-20T16:37:47Z</time>
      </trkpt>
      <trkpt lat="41.891439" lon="1.043527">
        <ele>350.064</ele>
        <time>2021-06-20T16:37:51Z</time>
      </trkpt>
      <trkpt lat="41.891282" lon="1.043402">
        <ele>351.432</ele>
        <time>2021-06-20T16:37:58Z</time>
      </trkpt>
      <trkpt lat="41.891237" lon="1.043368">
        <ele>351.892</ele>
        <time>2021-06-20T16:38:00Z</time>
      </trkpt>
      <trkpt lat="41.891188" lon="1.043339">
        <ele>352.611</ele>
        <time>2021-06-20T16:38:02Z</time>
      </trkpt>
      <trkpt lat="41.891041" lon="1.043246">
        <ele>353.408</ele>
        <time>2021-06-20T16:38:08Z</time>
      </trkpt>
      <trkpt lat="41.891016" lon="1.043234">
        <ele>353.660</ele>
        <time>2021-06-20T16:38:09Z</time>
      </trkpt>
      <trkpt lat="41.890840" lon="1.043162">
        <ele>354.479</ele>
        <time>2021-06-20T16:38:15Z</time>
      </trkpt>
      <trkpt lat="41.890778" lon="1.043147">
        <ele>354.616</ele>
        <time>2021-06-20T16:38:17Z</time>
      </trkpt>
      <trkpt lat="41.890561" lon="1.043056">
        <ele>354.888</ele>
        <time>2021-06-20T16:38:24Z</time>
      </trkpt>
      <trkpt lat="41.890302" lon="1.042849">
        <ele>355.612</ele>
        <time>2021-06-20T16:38:33Z</time>
      </trkpt>
      <trkpt lat="41.890104" lon="1.042661">
        <ele>355.883</ele>
        <time>2021-06-20T16:38:40Z</time>
      </trkpt>
      <trkpt lat="41.890027" lon="1.042570">
        <ele>355.833</ele>
        <time>2021-06-20T16:38:43Z</time>
      </trkpt>
      <trkpt lat="41.889842" lon="1.042234">
        <ele>356.841</ele>
        <time>2021-06-20T16:38:52Z</time>
      </trkpt>
      <trkpt lat="41.889824" lon="1.042194">
        <ele>356.846</ele>
        <time>2021-06-20T16:38:53Z</time>
      </trkpt>
      <trkpt lat="41.889708" lon="1.041860">
        <ele>357.888</ele>
        <time>2021-06-20T16:39:01Z</time>
      </trkpt>
      <trkpt lat="41.889692" lon="1.041774">
        <ele>358.016</ele>
        <time>2021-06-20T16:39:03Z</time>
      </trkpt>
      <trkpt lat="41.889679" lon="1.041472">
        <ele>358.808</ele>
        <time>2021-06-20T16:39:10Z</time>
      </trkpt>
      <trkpt lat="41.889682" lon="1.041341">
        <ele>359.221</ele>
        <time>2021-06-20T16:39:13Z</time>
      </trkpt>
      <trkpt lat="41.889661" lon="1.041070">
        <ele>360.240</ele>
        <time>2021-06-20T16:39:19Z</time>
      </trkpt>
      <trkpt lat="41.889656" lon="1.041025">
        <ele>360.497</ele>
        <time>2021-06-20T16:39:20Z</time>
      </trkpt>
      <trkpt lat="41.889552" lon="1.040619">
        <ele>361.239</ele>
        <time>2021-06-20T16:39:29Z</time>
      </trkpt>
      <trkpt lat="41.889536" lon="1.040521">
        <ele>361.463</ele>
        <time>2021-06-20T16:39:31Z</time>
      </trkpt>
      <trkpt lat="41.889525" lon="1.040201">
        <ele>362.644</ele>
        <time>2021-06-20T16:39:37Z</time>
      </trkpt>
      <trkpt lat="41.889558" lon="1.039704">
        <ele>363.244</ele>
        <time>2021-06-20T16:39:46Z</time>
      </trkpt>
      <trkpt lat="41.889581" lon="1.039126">
        <ele>363.032</ele>
        <time>2021-06-20T16:39:56Z</time>
      </trkpt>
      <trkpt lat="41.889630" lon="1.038639">
        <ele>363.082</ele>
        <time>2021-06-20T16:40:03Z</time>
      </trkpt>
      <trkpt lat="41.889645" lon="1.038564">
        <ele>363.043</ele>
        <time>2021-06-20T16:40:04Z</time>
      </trkpt>
      <trkpt lat="41.889738" lon="1.038254">
        <ele>362.817</ele>
        <time>2021-06-20T16:40:08Z</time>
      </trkpt>
      <trkpt lat="41.889811" lon="1.037866">
        <ele>361.608</ele>
        <time>2021-06-20T16:40:12Z</time>
      </trkpt>
      <trkpt lat="41.889821" lon="1.037762">
        <ele>361.435</ele>
        <time>2021-06-20T16:40:13Z</time>
      </trkpt>
      <trkpt lat="41.889827" lon="1.037548">
        <ele>360.874</ele>
        <time>2021-06-20T16:40:15Z</time>
      </trkpt>
      <trkpt lat="41.889817" lon="1.037440">
        <ele>360.431</ele>
        <time>2021-06-20T16:40:16Z</time>
      </trkpt>
      <trkpt lat="41.889796" lon="1.037334">
        <ele>360.273</ele>
        <time>2021-06-20T16:40:17Z</time>
      </trkpt>
      <trkpt lat="41.889766" lon="1.037230">
        <ele>359.677</ele>
        <time>2021-06-20T16:40:18Z</time>
      </trkpt>
      <trkpt lat="41.889640" lon="1.036949">
        <ele>358.498</ele>
        <time>2021-06-20T16:40:21Z</time>
      </trkpt>
      <trkpt lat="41.889506" lon="1.036700">
        <ele>357.028</ele>
        <time>2021-06-20T16:40:24Z</time>
      </trkpt>
      <trkpt lat="41.889438" lon="1.036526">
        <ele>355.616</ele>
        <time>2021-06-20T16:40:26Z</time>
      </trkpt>
      <trkpt lat="41.889186" lon="1.035822">
        <ele>355.273</ele>
        <time>2021-06-20T16:40:34Z</time>
      </trkpt>
      <trkpt lat="41.889153" lon="1.035736">
        <ele>355.285</ele>
        <time>2021-06-20T16:40:35Z</time>
      </trkpt>
      <trkpt lat="41.888883" lon="1.035012">
        <ele>355.613</ele>
        <time>2021-06-20T16:40:43Z</time>
      </trkpt>
      <trkpt lat="41.888850" lon="1.034921">
        <ele>355.608</ele>
        <time>2021-06-20T16:40:44Z</time>
      </trkpt>
      <trkpt lat="41.888613" lon="1.034228">
        <ele>355.654</ele>
        <time>2021-06-20T16:40:52Z</time>
      </trkpt>
      <trkpt lat="41.888585" lon="1.034146">
        <ele>355.643</ele>
        <time>2021-06-20T16:40:53Z</time>
      </trkpt>
      <trkpt lat="41.888352" lon="1.033427">
        <ele>354.670</ele>
        <time>2021-06-20T16:41:01Z</time>
      </trkpt>
      <trkpt lat="41.888206" lon="1.033048">
        <ele>354.282</ele>
        <time>2021-06-20T16:41:05Z</time>
      </trkpt>
      <trkpt lat="41.888096" lon="1.032887">
        <ele>353.626</ele>
        <time>2021-06-20T16:41:07Z</time>
      </trkpt>
      <trkpt lat="41.887787" lon="1.032641">
        <ele>352.647</ele>
        <time>2021-06-20T16:41:11Z</time>
      </trkpt>
      <trkpt lat="41.887691" lon="1.032612">
        <ele>352.667</ele>
        <time>2021-06-20T16:41:12Z</time>
      </trkpt>
      <trkpt lat="41.887490" lon="1.032594">
        <ele>352.015</ele>
        <time>2021-06-20T16:41:14Z</time>
      </trkpt>
      <trkpt lat="41.887292" lon="1.032587">
        <ele>351.063</ele>
        <time>2021-06-20T16:41:16Z</time>
      </trkpt>
      <trkpt lat="41.887102" lon="1.032577">
        <ele>348.844</ele>
        <time>2021-06-20T16:41:18Z</time>
      </trkpt>
      <trkpt lat="41.886922" lon="1.032564">
        <ele>347.818</ele>
        <time>2021-06-20T16:41:20Z</time>
      </trkpt>
      <trkpt lat="41.886670" lon="1.032530">
        <ele>347.208</ele>
        <time>2021-06-20T16:41:23Z</time>
      </trkpt>
      <trkpt lat="41.886535" lon="1.032432">
        <ele>347.073</ele>
        <time>2021-06-20T16:41:25Z</time>
      </trkpt>
      <trkpt lat="41.886461" lon="1.032163">
        <ele>347.052</ele>
        <time>2021-06-20T16:41:28Z</time>
      </trkpt>
      <trkpt lat="41.886527" lon="1.031940">
        <ele>347.059</ele>
        <time>2021-06-20T16:41:31Z</time>
      </trkpt>
      <trkpt lat="41.886663" lon="1.031848">
        <ele>347.091</ele>
        <time>2021-06-20T16:41:34Z</time>
      </trkpt>
      <trkpt lat="41.886974" lon="1.031718">
        <ele>348.885</ele>
        <time>2021-06-20T16:41:41Z</time>
      </trkpt>
      <trkpt lat="41.887014" lon="1.031709">
        <ele>349.286</ele>
        <time>2021-06-20T16:41:42Z</time>
      </trkpt>
      <trkpt lat="41.887190" lon="1.031644">
        <ele>350.256</ele>
        <time>2021-06-20T16:41:47Z</time>
      </trkpt>
      <trkpt lat="41.887254" lon="1.031614">
        <ele>350.894</ele>
        <time>2021-06-20T16:41:49Z</time>
      </trkpt>
      <trkpt lat="41.887284" lon="1.031596">
        <ele>351.666</ele>
        <time>2021-06-20T16:41:50Z</time>
      </trkpt>
      <trkpt lat="41.887382" lon="1.031492">
        <ele>352.829</ele>
        <time>2021-06-20T16:41:54Z</time>
      </trkpt>
      <trkpt lat="41.887400" lon="1.031463">
        <ele>353.021</ele>
        <time>2021-06-20T16:41:55Z</time>
      </trkpt>
      <trkpt lat="41.887464" lon="1.031281">
        <ele>353.808</ele>
        <time>2021-06-20T16:42:01Z</time>
      </trkpt>
      <trkpt lat="41.887457" lon="1.031093">
        <ele>354.843</ele>
        <time>2021-06-20T16:42:07Z</time>
      </trkpt>
      <trkpt lat="41.887449" lon="1.031063">
        <ele>355.292</ele>
        <time>2021-06-20T16:42:08Z</time>
      </trkpt>
      <trkpt lat="41.887420" lon="1.030972">
        <ele>355.869</ele>
        <time>2021-06-20T16:42:11Z</time>
      </trkpt>
      <trkpt lat="41.887388" lon="1.030884">
        <ele>357.051</ele>
        <time>2021-06-20T16:42:14Z</time>
      </trkpt>
      <trkpt lat="41.887366" lon="1.030826">
        <ele>357.235</ele>
        <time>2021-06-20T16:42:16Z</time>
      </trkpt>
      <trkpt lat="41.887247" lon="1.030546">
        <ele>358.026</ele>
        <time>2021-06-20T16:42:26Z</time>
      </trkpt>
      <trkpt lat="41.887238" lon="1.030516">
        <ele>358.026</ele>
        <time>2021-06-20T16:42:27Z</time>
      </trkpt>
      <trkpt lat="41.887127" lon="1.030268">
        <ele>359.244</ele>
        <time>2021-06-20T16:42:36Z</time>
      </trkpt>
      <trkpt lat="41.887031" lon="1.030139">
        <ele>360.294</ele>
        <time>2021-06-20T16:42:42Z</time>
      </trkpt>
      <trkpt lat="41.887010" lon="1.030126">
        <ele>360.457</ele>
        <time>2021-06-20T16:42:43Z</time>
      </trkpt>
      <trkpt lat="41.886906" lon="1.030054">
        <ele>361.422</ele>
        <time>2021-06-20T16:42:48Z</time>
      </trkpt>
      <trkpt lat="41.886851" lon="1.029995">
        <ele>361.408</ele>
        <time>2021-06-20T16:42:51Z</time>
      </trkpt>
      <trkpt lat="41.886730" lon="1.029801">
        <ele>362.626</ele>
        <time>2021-06-20T16:42:59Z</time>
      </trkpt>
      <trkpt lat="41.886710" lon="1.029743">
        <ele>363.085</ele>
        <time>2021-06-20T16:43:01Z</time>
      </trkpt>
      <trkpt lat="41.886664" lon="1.029631">
        <ele>363.652</ele>
        <time>2021-06-20T16:43:05Z</time>
      </trkpt>
      <trkpt lat="41.886613" lon="1.029522">
        <ele>364.614</ele>
        <time>2021-06-20T16:43:09Z</time>
      </trkpt>
      <trkpt lat="41.886514" lon="1.029336">
        <ele>365.888</ele>
        <time>2021-06-20T16:43:16Z</time>
      </trkpt>
      <trkpt lat="41.886499" lon="1.029309">
        <ele>365.839</ele>
        <time>2021-06-20T16:43:17Z</time>
      </trkpt>
      <trkpt lat="41.886358" lon="1.029028">
        <ele>367.039</ele>
        <time>2021-06-20T16:43:27Z</time>
      </trkpt>
      <trkpt lat="41.886233" lon="1.028788">
        <ele>368.077</ele>
        <time>2021-06-20T16:43:36Z</time>
      </trkpt>
      <trkpt lat="41.886227" lon="1.028771">
        <ele>368.238</ele>
        <time>2021-06-20T16:43:37Z</time>
      </trkpt>
      <trkpt lat="41.886227" lon="1.028769">
        <ele>368.270</ele>
        <time>2021-06-20T16:43:39Z</time>
      </trkpt>
      <trkpt lat="41.886175" lon="1.028693">
        <ele>371.217</ele>
        <time>2021-06-20T16:51:49Z</time>
      </trkpt>
      <trkpt lat="41.886165" lon="1.028677">
        <ele>371.408</ele>
        <time>2021-06-20T16:51:50Z</time>
      </trkpt>
      <trkpt lat="41.886063" lon="1.028518">
        <ele>371.480</ele>
        <time>2021-06-20T16:51:58Z</time>
      </trkpt>
      <trkpt lat="41.885941" lon="1.028296">
        <ele>371.429</ele>
        <time>2021-06-20T16:52:08Z</time>
      </trkpt>
      <trkpt lat="41.885836" lon="1.028091">
        <ele>371.686</ele>
        <time>2021-06-20T16:52:17Z</time>
      </trkpt>
      <trkpt lat="41.885790" lon="1.027996">
        <ele>372.068</ele>
        <time>2021-06-20T16:52:21Z</time>
      </trkpt>
      <trkpt lat="41.885754" lon="1.027925">
        <ele>373.282</ele>
        <time>2021-06-20T16:52:24Z</time>
      </trkpt>
      <trkpt lat="41.885743" lon="1.027901">
        <ele>373.453</ele>
        <time>2021-06-20T16:52:25Z</time>
      </trkpt>
      <trkpt lat="41.885696" lon="1.027805">
        <ele>374.413</ele>
        <time>2021-06-20T16:52:29Z</time>
      </trkpt>
      <trkpt lat="41.885628" lon="1.027655">
        <ele>375.061</ele>
        <time>2021-06-20T16:52:35Z</time>
      </trkpt>
      <trkpt lat="41.885605" lon="1.027606">
        <ele>375.881</ele>
        <time>2021-06-20T16:52:37Z</time>
      </trkpt>
      <trkpt lat="41.885547" lon="1.027484">
        <ele>376.861</ele>
        <time>2021-06-20T16:52:42Z</time>
      </trkpt>
      <trkpt lat="41.885523" lon="1.027432">
        <ele>377.017</ele>
        <time>2021-06-20T16:52:44Z</time>
      </trkpt>
      <trkpt lat="41.885417" lon="1.027242">
        <ele>377.808</ele>
        <time>2021-06-20T16:52:52Z</time>
      </trkpt>
      <trkpt lat="41.885401" lon="1.027220">
        <ele>378.095</ele>
        <time>2021-06-20T16:52:53Z</time>
      </trkpt>
      <trkpt lat="41.885233" lon="1.027024">
        <ele>379.054</ele>
        <time>2021-06-20T16:53:03Z</time>
      </trkpt>
      <trkpt lat="41.885186" lon="1.026962">
        <ele>379.451</ele>
        <time>2021-06-20T16:53:06Z</time>
      </trkpt>
      <trkpt lat="41.885113" lon="1.026891">
        <ele>380.483</ele>
        <time>2021-06-20T16:53:10Z</time>
      </trkpt>
      <trkpt lat="41.885075" lon="1.026859">
        <ele>380.627</ele>
        <time>2021-06-20T16:53:12Z</time>
      </trkpt>
      <trkpt lat="41.884905" lon="1.026744">
        <ele>381.698</ele>
        <time>2021-06-20T16:53:20Z</time>
      </trkpt>
      <trkpt lat="41.884881" lon="1.026731">
        <ele>381.668</ele>
        <time>2021-06-20T16:53:21Z</time>
      </trkpt>
      <trkpt lat="41.884675" lon="1.026572">
        <ele>382.446</ele>
        <time>2021-06-20T16:53:30Z</time>
      </trkpt>
      <trkpt lat="41.884528" lon="1.026366">
        <ele>382.454</ele>
        <time>2021-06-20T16:53:38Z</time>
      </trkpt>
      <trkpt lat="41.884492" lon="1.026313">
        <ele>383.256</ele>
        <time>2021-06-20T16:53:40Z</time>
      </trkpt>
      <trkpt lat="41.884421" lon="1.026214">
        <ele>384.611</ele>
        <time>2021-06-20T16:53:44Z</time>
      </trkpt>
      <trkpt lat="41.884364" lon="1.026146">
        <ele>385.208</ele>
        <time>2021-06-20T16:53:47Z</time>
      </trkpt>
      <trkpt lat="41.884292" lon="1.026052">
        <ele>385.622</ele>
        <time>2021-06-20T16:53:51Z</time>
      </trkpt>
      <trkpt lat="41.884228" lon="1.025913">
        <ele>386.031</ele>
        <time>2021-06-20T16:53:56Z</time>
      </trkpt>
      <trkpt lat="41.884192" lon="1.025767">
        <ele>386.678</ele>
        <time>2021-06-20T16:54:01Z</time>
      </trkpt>
      <trkpt lat="41.884176" lon="1.025645">
        <ele>387.660</ele>
        <time>2021-06-20T16:54:05Z</time>
      </trkpt>
      <trkpt lat="41.884165" lon="1.025490">
        <ele>388.864</ele>
        <time>2021-06-20T16:54:10Z</time>
      </trkpt>
      <trkpt lat="41.884175" lon="1.025396">
        <ele>389.225</ele>
        <time>2021-06-20T16:54:13Z</time>
      </trkpt>
      <trkpt lat="41.884203" lon="1.025279">
        <ele>390.085</ele>
        <time>2021-06-20T16:54:17Z</time>
      </trkpt>
      <trkpt lat="41.884226" lon="1.025226">
        <ele>390.263</ele>
        <time>2021-06-20T16:54:19Z</time>
      </trkpt>
      <trkpt lat="41.884348" lon="1.024975">
        <ele>390.875</ele>
        <time>2021-06-20T16:54:29Z</time>
      </trkpt>
      <trkpt lat="41.884381" lon="1.024894">
        <ele>391.028</ele>
        <time>2021-06-20T16:54:32Z</time>
      </trkpt>
      <trkpt lat="41.884413" lon="1.024750">
        <ele>391.620</ele>
        <time>2021-06-20T16:54:37Z</time>
      </trkpt>
      <trkpt lat="41.884414" lon="1.024661">
        <ele>392.408</ele>
        <time>2021-06-20T16:54:40Z</time>
      </trkpt>
      <trkpt lat="41.884387" lon="1.024485">
        <ele>393.454</ele>
        <time>2021-06-20T16:54:46Z</time>
      </trkpt>
      <trkpt lat="41.884382" lon="1.024455">
        <ele>393.813</ele>
        <time>2021-06-20T16:54:47Z</time>
      </trkpt>
      <trkpt lat="41.884348" lon="1.024277">
        <ele>395.060</ele>
        <time>2021-06-20T16:54:53Z</time>
      </trkpt>
      <trkpt lat="41.884329" lon="1.024159">
        <ele>395.462</ele>
        <time>2021-06-20T16:54:57Z</time>
      </trkpt>
      <trkpt lat="41.884336" lon="1.024034">
        <ele>395.846</ele>
        <time>2021-06-20T16:55:01Z</time>
      </trkpt>
      <trkpt lat="41.884342" lon="1.024001">
        <ele>396.017</ele>
        <time>2021-06-20T16:55:02Z</time>
      </trkpt>
      <trkpt lat="41.884351" lon="1.023967">
        <ele>396.217</ele>
        <time>2021-06-20T16:55:03Z</time>
      </trkpt>
      <trkpt lat="41.884471" lon="1.023731">
        <ele>397.055</ele>
        <time>2021-06-20T16:55:11Z</time>
      </trkpt>
      <trkpt lat="41.884492" lon="1.023711">
        <ele>397.036</ele>
        <time>2021-06-20T16:55:12Z</time>
      </trkpt>
      <trkpt lat="41.884689" lon="1.023535">
        <ele>397.617</ele>
        <time>2021-06-20T16:55:21Z</time>
      </trkpt>
      <trkpt lat="41.884742" lon="1.023458">
        <ele>398.218</ele>
        <time>2021-06-20T16:55:24Z</time>
      </trkpt>
      <trkpt lat="41.884791" lon="1.023335">
        <ele>398.608</ele>
        <time>2021-06-20T16:55:28Z</time>
      </trkpt>
      <trkpt lat="41.884799" lon="1.023161">
        <ele>399.230</ele>
        <time>2021-06-20T16:55:33Z</time>
      </trkpt>
      <trkpt lat="41.884797" lon="1.023125">
        <ele>399.439</ele>
        <time>2021-06-20T16:55:34Z</time>
      </trkpt>
      <trkpt lat="41.884799" lon="1.022947">
        <ele>400.416</ele>
        <time>2021-06-20T16:55:39Z</time>
      </trkpt>
      <trkpt lat="41.884824" lon="1.022849">
        <ele>401.048</ele>
        <time>2021-06-20T16:55:42Z</time>
      </trkpt>
      <trkpt lat="41.884931" lon="1.022708">
        <ele>401.812</ele>
        <time>2021-06-20T16:55:48Z</time>
      </trkpt>
      <trkpt lat="41.884952" lon="1.022691">
        <ele>402.223</ele>
        <time>2021-06-20T16:55:49Z</time>
      </trkpt>
      <trkpt lat="41.885048" lon="1.022651">
        <ele>403.083</ele>
        <time>2021-06-20T16:55:53Z</time>
      </trkpt>
      <trkpt lat="41.885098" lon="1.022638">
        <ele>403.431</ele>
        <time>2021-06-20T16:55:55Z</time>
      </trkpt>
      <trkpt lat="41.885199" lon="1.022621">
        <ele>404.078</ele>
        <time>2021-06-20T16:55:59Z</time>
      </trkpt>
      <trkpt lat="41.885378" lon="1.022603">
        <ele>405.033</ele>
        <time>2021-06-20T16:56:06Z</time>
      </trkpt>
      <trkpt lat="41.885403" lon="1.022601">
        <ele>405.026</ele>
        <time>2021-06-20T16:56:07Z</time>
      </trkpt>
      <trkpt lat="41.885574" lon="1.022544">
        <ele>406.008</ele>
        <time>2021-06-20T16:56:14Z</time>
      </trkpt>
      <trkpt lat="41.885622" lon="1.022522">
        <ele>406.414</ele>
        <time>2021-06-20T16:56:16Z</time>
      </trkpt>
      <trkpt lat="41.885669" lon="1.022495">
        <ele>407.093</ele>
        <time>2021-06-20T16:56:18Z</time>
      </trkpt>
      <trkpt lat="41.885839" lon="1.022425">
        <ele>408.250</ele>
        <time>2021-06-20T16:56:25Z</time>
      </trkpt>
      <trkpt lat="41.885860" lon="1.022414">
        <ele>408.212</ele>
        <time>2021-06-20T16:56:26Z</time>
      </trkpt>
      <trkpt lat="41.886020" lon="1.022407">
        <ele>409.066</ele>
        <time>2021-06-20T16:56:33Z</time>
      </trkpt>
      <trkpt lat="41.886042" lon="1.022413">
        <ele>409.247</ele>
        <time>2021-06-20T16:56:34Z</time>
      </trkpt>
      <trkpt lat="41.886213" lon="1.022497">
        <ele>410.477</ele>
        <time>2021-06-20T16:56:42Z</time>
      </trkpt>
      <trkpt lat="41.886276" lon="1.022507">
        <ele>411.445</ele>
        <time>2021-06-20T16:56:45Z</time>
      </trkpt>
      <trkpt lat="41.886347" lon="1.022534">
        <ele>411.827</ele>
        <time>2021-06-20T16:56:49Z</time>
      </trkpt>
      <trkpt lat="41.886481" lon="1.022596">
        <ele>412.668</ele>
        <time>2021-06-20T16:56:57Z</time>
      </trkpt>
      <trkpt lat="41.886497" lon="1.022603">
        <ele>412.814</ele>
        <time>2021-06-20T16:56:58Z</time>
      </trkpt>
      <trkpt lat="41.886531" lon="1.022604">
        <ele>413.608</ele>
        <time>2021-06-20T16:57:00Z</time>
      </trkpt>
      <trkpt lat="41.886580" lon="1.022609">
        <ele>414.099</ele>
        <time>2021-06-20T16:57:03Z</time>
      </trkpt>
      <trkpt lat="41.886648" lon="1.022611">
        <ele>414.618</ele>
        <time>2021-06-20T16:57:07Z</time>
      </trkpt>
      <trkpt lat="41.886698" lon="1.022612">
        <ele>414.885</ele>
        <time>2021-06-20T16:57:10Z</time>
      </trkpt>
      <trkpt lat="41.886793" lon="1.022592">
        <ele>415.637</ele>
        <time>2021-06-20T16:57:16Z</time>
      </trkpt>
      <trkpt lat="41.886820" lon="1.022596">
        <ele>416.071</ele>
        <time>2021-06-20T16:57:18Z</time>
      </trkpt>
      <trkpt lat="41.886868" lon="1.022594">
        <ele>416.472</ele>
        <time>2021-06-20T16:57:21Z</time>
      </trkpt>
      <trkpt lat="41.886924" lon="1.022555">
        <ele>417.282</ele>
        <time>2021-06-20T16:57:25Z</time>
      </trkpt>
      <trkpt lat="41.886949" lon="1.022541">
        <ele>417.680</ele>
        <time>2021-06-20T16:57:27Z</time>
      </trkpt>
      <trkpt lat="41.887006" lon="1.022528">
        <ele>418.466</ele>
        <time>2021-06-20T16:57:31Z</time>
      </trkpt>
      <trkpt lat="41.887012" lon="1.022524">
        <ele>418.829</ele>
        <time>2021-06-20T16:57:33Z</time>
      </trkpt>
      <trkpt lat="41.887013" lon="1.022526">
        <ele>419.021</ele>
        <time>2021-06-20T16:57:34Z</time>
      </trkpt>
      <trkpt lat="41.887050" lon="1.022475">
        <ele>420.008</ele>
        <time>2021-06-20T16:59:49Z</time>
      </trkpt>
      <trkpt lat="41.887053" lon="1.022431">
        <ele>420.043</ele>
        <time>2021-06-20T16:59:51Z</time>
      </trkpt>
      <trkpt lat="41.887048" lon="1.022367">
        <ele>420.092</ele>
        <time>2021-06-20T16:59:54Z</time>
      </trkpt>
      <trkpt lat="41.887026" lon="1.022316">
        <ele>420.049</ele>
        <time>2021-06-20T16:59:57Z</time>
      </trkpt>
      <trkpt lat="41.887025" lon="1.022198">
        <ele>420.481</ele>
        <time>2021-06-20T17:00:03Z</time>
      </trkpt>
      <trkpt lat="41.887033" lon="1.022178">
        <ele>420.895</ele>
        <time>2021-06-20T17:00:04Z</time>
      </trkpt>
      <trkpt lat="41.887070" lon="1.022133">
        <ele>421.276</ele>
        <time>2021-06-20T17:00:07Z</time>
      </trkpt>
      <trkpt lat="41.887098" lon="1.022102">
        <ele>421.436</ele>
        <time>2021-06-20T17:00:09Z</time>
      </trkpt>
      <trkpt lat="41.887148" lon="1.022067">
        <ele>422.054</ele>
        <time>2021-06-20T17:00:12Z</time>
      </trkpt>
      <trkpt lat="41.887201" lon="1.022001">
        <ele>422.494</ele>
        <time>2021-06-20T17:00:16Z</time>
      </trkpt>
      <trkpt lat="41.887234" lon="1.021905">
        <ele>423.057</ele>
        <time>2021-06-20T17:00:20Z</time>
      </trkpt>
      <trkpt lat="41.887254" lon="1.021799">
        <ele>424.022</ele>
        <time>2021-06-20T17:00:24Z</time>
      </trkpt>
      <trkpt lat="41.887272" lon="1.021723">
        <ele>424.208</ele>
        <time>2021-06-20T17:00:27Z</time>
      </trkpt>
      <trkpt lat="41.887272" lon="1.021617">
        <ele>424.646</ele>
        <time>2021-06-20T17:00:31Z</time>
      </trkpt>
      <trkpt lat="41.887201" lon="1.021413">
        <ele>425.245</ele>
        <time>2021-06-20T17:00:39Z</time>
      </trkpt>
      <trkpt lat="41.887193" lon="1.021382">
        <ele>425.442</ele>
        <time>2021-06-20T17:00:40Z</time>
      </trkpt>
      <trkpt lat="41.887203" lon="1.021220">
        <ele>426.294</ele>
        <time>2021-06-20T17:00:45Z</time>
      </trkpt>
      <trkpt lat="41.887261" lon="1.021103">
        <ele>426.618</ele>
        <time>2021-06-20T17:00:49Z</time>
      </trkpt>
      <trkpt lat="41.887318" lon="1.021029">
        <ele>427.039</ele>
        <time>2021-06-20T17:00:52Z</time>
      </trkpt>
      <trkpt lat="41.887406" lon="1.020944">
        <ele>427.679</ele>
        <time>2021-06-20T17:00:56Z</time>
      </trkpt>
      <trkpt lat="41.887511" lon="1.020842">
        <ele>428.687</ele>
        <time>2021-06-20T17:01:01Z</time>
      </trkpt>
      <trkpt lat="41.887538" lon="1.020784">
        <ele>428.817</ele>
        <time>2021-06-20T17:01:03Z</time>
      </trkpt>
      <trkpt lat="41.887533" lon="1.020719">
        <ele>428.887</ele>
        <time>2021-06-20T17:01:05Z</time>
      </trkpt>
      <trkpt lat="41.887466" lon="1.020695">
        <ele>429.015</ele>
        <time>2021-06-20T17:01:08Z</time>
      </trkpt>
      <trkpt lat="41.887417" lon="1.020720">
        <ele>429.208</ele>
        <time>2021-06-20T17:01:10Z</time>
      </trkpt>
      <trkpt lat="41.887304" lon="1.020802">
        <ele>429.848</ele>
        <time>2021-06-20T17:01:15Z</time>
      </trkpt>
      <trkpt lat="41.887239" lon="1.020859">
        <ele>430.027</ele>
        <time>2021-06-20T17:01:18Z</time>
      </trkpt>
      <trkpt lat="41.887118" lon="1.020985">
        <ele>430.644</ele>
        <time>2021-06-20T17:01:24Z</time>
      </trkpt>
      <trkpt lat="41.887077" lon="1.021028">
        <ele>431.076</ele>
        <time>2021-06-20T17:01:26Z</time>
      </trkpt>
      <trkpt lat="41.886959" lon="1.021205">
        <ele>432.020</ele>
        <time>2021-06-20T17:01:33Z</time>
      </trkpt>
      <trkpt lat="41.886928" lon="1.021259">
        <ele>432.241</ele>
        <time>2021-06-20T17:01:35Z</time>
      </trkpt>
      <trkpt lat="41.886863" lon="1.021364">
        <ele>433.291</ele>
        <time>2021-06-20T17:01:39Z</time>
      </trkpt>
      <trkpt lat="41.886766" lon="1.021469">
        <ele>434.259</ele>
        <time>2021-06-20T17:01:44Z</time>
      </trkpt>
      <trkpt lat="41.886745" lon="1.021487">
        <ele>434.286</ele>
        <time>2021-06-20T17:01:45Z</time>
      </trkpt>
      <trkpt lat="41.886605" lon="1.021557">
        <ele>434.860</ele>
        <time>2021-06-20T17:01:51Z</time>
      </trkpt>
      <trkpt lat="41.886526" lon="1.021575">
        <ele>435.426</ele>
        <time>2021-06-20T17:01:54Z</time>
      </trkpt>
      <trkpt lat="41.886303" lon="1.021630">
        <ele>436.208</ele>
        <time>2021-06-20T17:02:02Z</time>
      </trkpt>
      <trkpt lat="41.886127" lon="1.021640">
        <ele>436.645</ele>
        <time>2021-06-20T17:02:08Z</time>
      </trkpt>
      <trkpt lat="41.886068" lon="1.021633">
        <ele>436.624</ele>
        <time>2021-06-20T17:02:10Z</time>
      </trkpt>
      <trkpt lat="41.885855" lon="1.021596">
        <ele>437.691</ele>
        <time>2021-06-20T17:02:18Z</time>
      </trkpt>
      <trkpt lat="41.885715" lon="1.021528">
        <ele>438.643</ele>
        <time>2021-06-20T17:02:24Z</time>
      </trkpt>
      <trkpt lat="41.885693" lon="1.021509">
        <ele>438.887</ele>
        <time>2021-06-20T17:02:25Z</time>
      </trkpt>
      <trkpt lat="41.885580" lon="1.021441">
        <ele>439.858</ele>
        <time>2021-06-20T17:02:30Z</time>
      </trkpt>
      <trkpt lat="41.885482" lon="1.021412">
        <ele>440.218</ele>
        <time>2021-06-20T17:02:34Z</time>
      </trkpt>
      <trkpt lat="41.885356" lon="1.021399">
        <ele>440.886</ele>
        <time>2021-06-20T17:02:39Z</time>
      </trkpt>
      <trkpt lat="41.885178" lon="1.021398">
        <ele>441.827</ele>
        <time>2021-06-20T17:02:46Z</time>
      </trkpt>
      <trkpt lat="41.885127" lon="1.021397">
        <ele>442.068</ele>
        <time>2021-06-20T17:02:48Z</time>
      </trkpt>
      <trkpt lat="41.884975" lon="1.021379">
        <ele>443.014</ele>
        <time>2021-06-20T17:02:54Z</time>
      </trkpt>
      <trkpt lat="41.884923" lon="1.021380">
        <ele>443.408</ele>
        <time>2021-06-20T17:02:56Z</time>
      </trkpt>
      <trkpt lat="41.884848" lon="1.021388">
        <ele>444.299</ele>
        <time>2021-06-20T17:02:59Z</time>
      </trkpt>
      <trkpt lat="41.884675" lon="1.021420">
        <ele>445.248</ele>
        <time>2021-06-20T17:03:06Z</time>
      </trkpt>
      <trkpt lat="41.884525" lon="1.021409">
        <ele>446.425</ele>
        <time>2021-06-20T17:03:12Z</time>
      </trkpt>
      <trkpt lat="41.884450" lon="1.021394">
        <ele>447.237</ele>
        <time>2021-06-20T17:03:15Z</time>
      </trkpt>
      <trkpt lat="41.884424" lon="1.021389">
        <ele>447.221</ele>
        <time>2021-06-20T17:03:16Z</time>
      </trkpt>
      <trkpt lat="41.884180" lon="1.021321">
        <ele>448.472</ele>
        <time>2021-06-20T17:03:26Z</time>
      </trkpt>
      <trkpt lat="41.884081" lon="1.021285">
        <ele>449.612</ele>
        <time>2021-06-20T17:03:30Z</time>
      </trkpt>
      <trkpt lat="41.883963" lon="1.021212">
        <ele>450.450</ele>
        <time>2021-06-20T17:03:35Z</time>
      </trkpt>
      <trkpt lat="41.883916" lon="1.021179">
        <ele>450.631</ele>
        <time>2021-06-20T17:03:37Z</time>
      </trkpt>
      <trkpt lat="41.883722" lon="1.021078">
        <ele>451.861</ele>
        <time>2021-06-20T17:03:45Z</time>
      </trkpt>
      <trkpt lat="41.883572" lon="1.021094">
        <ele>452.607</ele>
        <time>2021-06-20T17:03:51Z</time>
      </trkpt>
      <trkpt lat="41.883547" lon="1.021102">
        <ele>452.808</ele>
        <time>2021-06-20T17:03:52Z</time>
      </trkpt>
      <trkpt lat="41.883350" lon="1.021178">
        <ele>453.860</ele>
        <time>2021-06-20T17:04:00Z</time>
      </trkpt>
      <trkpt lat="41.883302" lon="1.021201">
        <ele>454.039</ele>
        <time>2021-06-20T17:04:02Z</time>
      </trkpt>
      <trkpt lat="41.883100" lon="1.021258">
        <ele>455.266</ele>
        <time>2021-06-20T17:04:10Z</time>
      </trkpt>
      <trkpt lat="41.882975" lon="1.021244">
        <ele>456.278</ele>
        <time>2021-06-20T17:04:15Z</time>
      </trkpt>
      <trkpt lat="41.882926" lon="1.021226">
        <ele>456.422</ele>
        <time>2021-06-20T17:04:17Z</time>
      </trkpt>
      <trkpt lat="41.882746" lon="1.021120">
        <ele>457.463</ele>
        <time>2021-06-20T17:04:25Z</time>
      </trkpt>
      <trkpt lat="41.882682" lon="1.021071">
        <ele>458.053</ele>
        <time>2021-06-20T17:04:28Z</time>
      </trkpt>
      <trkpt lat="41.882639" lon="1.021033">
        <ele>458.691</ele>
        <time>2021-06-20T17:04:30Z</time>
      </trkpt>
      <trkpt lat="41.882508" lon="1.020931">
        <ele>459.488</ele>
        <time>2021-06-20T17:04:36Z</time>
      </trkpt>
      <trkpt lat="41.882485" lon="1.020927">
        <ele>459.624</ele>
        <time>2021-06-20T17:04:37Z</time>
      </trkpt>
      <trkpt lat="41.882404" lon="1.020944">
        <ele>460.026</ele>
        <time>2021-06-20T17:04:42Z</time>
      </trkpt>
      <trkpt lat="41.882403" lon="1.020946">
        <ele>460.008</ele>
        <time>2021-06-20T17:04:43Z</time>
      </trkpt>
      <trkpt lat="41.882372" lon="1.020966">
        <ele>461.265</ele>
        <time>2021-06-20T17:06:05Z</time>
      </trkpt>
      <trkpt lat="41.882347" lon="1.020980">
        <ele>461.284</ele>
        <time>2021-06-20T17:06:06Z</time>
      </trkpt>
      <trkpt lat="41.882275" lon="1.020999">
        <ele>461.211</ele>
        <time>2021-06-20T17:06:08Z</time>
      </trkpt>
      <trkpt lat="41.882182" lon="1.020989">
        <ele>461.243</ele>
        <time>2021-06-20T17:06:10Z</time>
      </trkpt>
      <trkpt lat="41.881995" lon="1.020864">
        <ele>459.817</ele>
        <time>2021-06-20T17:06:14Z</time>
      </trkpt>
      <trkpt lat="41.881946" lon="1.020817">
        <ele>459.068</ele>
        <time>2021-06-20T17:06:15Z</time>
      </trkpt>
      <trkpt lat="41.881895" lon="1.020773">
        <ele>457.888</ele>
        <time>2021-06-20T17:06:16Z</time>
      </trkpt>
      <trkpt lat="41.881784" lon="1.020693">
        <ele>456.416</ele>
        <time>2021-06-20T17:06:18Z</time>
      </trkpt>
      <trkpt lat="41.881667" lon="1.020621">
        <ele>455.888</ele>
        <time>2021-06-20T17:06:20Z</time>
      </trkpt>
      <trkpt lat="41.881544" lon="1.020554">
        <ele>455.424</ele>
        <time>2021-06-20T17:06:22Z</time>
      </trkpt>
      <trkpt lat="41.881417" lon="1.020473">
        <ele>454.626</ele>
        <time>2021-06-20T17:06:24Z</time>
      </trkpt>
      <trkpt lat="41.881357" lon="1.020424">
        <ele>453.808</ele>
        <time>2021-06-20T17:06:25Z</time>
      </trkpt>
      <trkpt lat="41.881293" lon="1.020380">
        <ele>453.255</ele>
        <time>2021-06-20T17:06:26Z</time>
      </trkpt>
      <trkpt lat="41.881225" lon="1.020342">
        <ele>452.644</ele>
        <time>2021-06-20T17:06:27Z</time>
      </trkpt>
      <trkpt lat="41.881084" lon="1.020284">
        <ele>451.231</ele>
        <time>2021-06-20T17:06:29Z</time>
      </trkpt>
      <trkpt lat="41.880942" lon="1.020245">
        <ele>449.833</ele>
        <time>2021-06-20T17:06:31Z</time>
      </trkpt>
      <trkpt lat="41.880872" lon="1.020235">
        <ele>449.297</ele>
        <time>2021-06-20T17:06:32Z</time>
      </trkpt>
      <trkpt lat="41.880726" lon="1.020245">
        <ele>447.838</ele>
        <time>2021-06-20T17:06:34Z</time>
      </trkpt>
      <trkpt lat="41.880651" lon="1.020254">
        <ele>446.658</ele>
        <time>2021-06-20T17:06:35Z</time>
      </trkpt>
      <trkpt lat="41.880497" lon="1.020259">
        <ele>445.216</ele>
        <time>2021-06-20T17:06:37Z</time>
      </trkpt>
      <trkpt lat="41.880191" lon="1.020232">
        <ele>444.436</ele>
        <time>2021-06-20T17:06:41Z</time>
      </trkpt>
      <trkpt lat="41.880115" lon="1.020222">
        <ele>444.017</ele>
        <time>2021-06-20T17:06:42Z</time>
      </trkpt>
      <trkpt lat="41.879898" lon="1.020195">
        <ele>442.618</ele>
        <time>2021-06-20T17:06:45Z</time>
      </trkpt>
      <trkpt lat="41.879769" lon="1.020179">
        <ele>441.608</ele>
        <time>2021-06-20T17:06:47Z</time>
      </trkpt>
      <trkpt lat="41.879561" lon="1.020213">
        <ele>440.640</ele>
        <time>2021-06-20T17:06:51Z</time>
      </trkpt>
      <trkpt lat="41.879518" lon="1.020241">
        <ele>440.499</ele>
        <time>2021-06-20T17:06:52Z</time>
      </trkpt>
      <trkpt lat="41.879262" lon="1.020383">
        <ele>439.826</ele>
        <time>2021-06-20T17:06:57Z</time>
      </trkpt>
      <trkpt lat="41.879141" lon="1.020431">
        <ele>439.458</ele>
        <time>2021-06-20T17:06:59Z</time>
      </trkpt>
      <trkpt lat="41.879079" lon="1.020447">
        <ele>439.262</ele>
        <time>2021-06-20T17:07:00Z</time>
      </trkpt>
      <trkpt lat="41.879019" lon="1.020454">
        <ele>438.623</ele>
        <time>2021-06-20T17:07:01Z</time>
      </trkpt>
      <trkpt lat="41.878964" lon="1.020455">
        <ele>438.213</ele>
        <time>2021-06-20T17:07:02Z</time>
      </trkpt>
      <trkpt lat="41.878859" lon="1.020468">
        <ele>437.671</ele>
        <time>2021-06-20T17:07:04Z</time>
      </trkpt>
      <trkpt lat="41.878808" lon="1.020486">
        <ele>436.464</ele>
        <time>2021-06-20T17:07:05Z</time>
      </trkpt>
      <trkpt lat="41.878758" lon="1.020509">
        <ele>435.806</ele>
        <time>2021-06-20T17:07:06Z</time>
      </trkpt>
      <trkpt lat="41.878706" lon="1.020537">
        <ele>434.816</ele>
        <time>2021-06-20T17:07:07Z</time>
      </trkpt>
      <trkpt lat="41.878655" lon="1.020572">
        <ele>434.408</ele>
        <time>2021-06-20T17:07:08Z</time>
      </trkpt>
      <trkpt lat="41.878554" lon="1.020652">
        <ele>433.493</ele>
        <time>2021-06-20T17:07:10Z</time>
      </trkpt>
      <trkpt lat="41.878499" lon="1.020699">
        <ele>433.092</ele>
        <time>2021-06-20T17:07:11Z</time>
      </trkpt>
      <trkpt lat="41.878380" lon="1.020797">
        <ele>432.249</ele>
        <time>2021-06-20T17:07:13Z</time>
      </trkpt>
      <trkpt lat="41.878267" lon="1.020899">
        <ele>430.451</ele>
        <time>2021-06-20T17:07:15Z</time>
      </trkpt>
      <trkpt lat="41.878168" lon="1.020981">
        <ele>429.225</ele>
        <time>2021-06-20T17:07:17Z</time>
      </trkpt>
      <trkpt lat="41.878123" lon="1.021011">
        <ele>428.226</ele>
        <time>2021-06-20T17:07:18Z</time>
      </trkpt>
      <trkpt lat="41.878083" lon="1.021030">
        <ele>427.816</ele>
        <time>2021-06-20T17:07:19Z</time>
      </trkpt>
      <trkpt lat="41.878017" lon="1.021056">
        <ele>427.424</ele>
        <time>2021-06-20T17:07:21Z</time>
      </trkpt>
      <trkpt lat="41.877797" lon="1.021073">
        <ele>427.851</ele>
        <time>2021-06-20T17:07:27Z</time>
      </trkpt>
      <trkpt lat="41.877759" lon="1.021078">
        <ele>428.001</ele>
        <time>2021-06-20T17:07:28Z</time>
      </trkpt>
      <trkpt lat="41.877686" lon="1.021091">
        <ele>428.811</ele>
        <time>2021-06-20T17:07:30Z</time>
      </trkpt>
      <trkpt lat="41.877563" lon="1.021130">
        <ele>429.608</ele>
        <time>2021-06-20T17:07:34Z</time>
      </trkpt>
      <trkpt lat="41.877509" lon="1.021155">
        <ele>429.842</ele>
        <time>2021-06-20T17:07:36Z</time>
      </trkpt>
      <trkpt lat="41.877351" lon="1.021217">
        <ele>430.061</ele>
        <time>2021-06-20T17:07:42Z</time>
      </trkpt>
      <trkpt lat="41.877154" lon="1.021281">
        <ele>430.618</ele>
        <time>2021-06-20T17:07:50Z</time>
      </trkpt>
      <trkpt lat="41.877128" lon="1.021287">
        <ele>430.850</ele>
        <time>2021-06-20T17:07:51Z</time>
      </trkpt>
      <trkpt lat="41.876937" lon="1.021330">
        <ele>431.654</ele>
        <time>2021-06-20T17:07:59Z</time>
      </trkpt>
      <trkpt lat="41.876745" lon="1.021359">
        <ele>432.475</ele>
        <time>2021-06-20T17:08:07Z</time>
      </trkpt>
      <trkpt lat="41.876650" lon="1.021368">
        <ele>432.695</ele>
        <time>2021-06-20T17:08:10Z</time>
      </trkpt>
      <trkpt lat="41.876569" lon="1.021375">
        <ele>432.873</ele>
        <time>2021-06-20T17:08:12Z</time>
      </trkpt>
      <trkpt lat="41.876285" lon="1.021425">
        <ele>432.666</ele>
        <time>2021-06-20T17:08:17Z</time>
      </trkpt>
      <trkpt lat="41.876089" lon="1.021503">
        <ele>431.229</ele>
        <time>2021-06-20T17:08:20Z</time>
      </trkpt>
      <trkpt lat="41.876024" lon="1.021531">
        <ele>428.821</ele>
        <time>2021-06-20T17:08:21Z</time>
      </trkpt>
      <trkpt lat="41.875957" lon="1.021552">
        <ele>427.608</ele>
        <time>2021-06-20T17:08:22Z</time>
      </trkpt>
      <trkpt lat="41.875824" lon="1.021585">
        <ele>426.443</ele>
        <time>2021-06-20T17:08:24Z</time>
      </trkpt>
      <trkpt lat="41.875696" lon="1.021615">
        <ele>424.652</ele>
        <time>2021-06-20T17:08:26Z</time>
      </trkpt>
      <trkpt lat="41.875634" lon="1.021626">
        <ele>423.459</ele>
        <time>2021-06-20T17:08:27Z</time>
      </trkpt>
      <trkpt lat="41.875509" lon="1.021638">
        <ele>422.281</ele>
        <time>2021-06-20T17:08:29Z</time>
      </trkpt>
      <trkpt lat="41.875302" lon="1.021657">
        <ele>420.495</ele>
        <time>2021-06-20T17:08:32Z</time>
      </trkpt>
      <trkpt lat="41.875151" lon="1.021686">
        <ele>419.246</ele>
        <time>2021-06-20T17:08:34Z</time>
      </trkpt>
      <trkpt lat="41.874994" lon="1.021733">
        <ele>418.056</ele>
        <time>2021-06-20T17:08:36Z</time>
      </trkpt>
      <trkpt lat="41.874833" lon="1.021788">
        <ele>416.084</ele>
        <time>2021-06-20T17:08:38Z</time>
      </trkpt>
      <trkpt lat="41.874751" lon="1.021818">
        <ele>414.286</ele>
        <time>2021-06-20T17:08:39Z</time>
      </trkpt>
      <trkpt lat="41.874581" lon="1.021880">
        <ele>412.060</ele>
        <time>2021-06-20T17:08:41Z</time>
      </trkpt>
      <trkpt lat="41.874493" lon="1.021917">
        <ele>410.826</ele>
        <time>2021-06-20T17:08:42Z</time>
      </trkpt>
      <trkpt lat="41.874317" lon="1.022000">
        <ele>408.808</ele>
        <time>2021-06-20T17:08:44Z</time>
      </trkpt>
      <trkpt lat="41.874226" lon="1.022045">
        <ele>406.865</ele>
        <time>2021-06-20T17:08:45Z</time>
      </trkpt>
      <trkpt lat="41.874135" lon="1.022091">
        <ele>405.874</ele>
        <time>2021-06-20T17:08:46Z</time>
      </trkpt>
      <trkpt lat="41.874048" lon="1.022136">
        <ele>405.211</ele>
        <time>2021-06-20T17:08:47Z</time>
      </trkpt>
      <trkpt lat="41.873967" lon="1.022180">
        <ele>404.243</ele>
        <time>2021-06-20T17:08:48Z</time>
      </trkpt>
      <trkpt lat="41.873885" lon="1.022223">
        <ele>401.487</ele>
        <time>2021-06-20T17:08:49Z</time>
      </trkpt>
      <trkpt lat="41.873802" lon="1.022268">
        <ele>399.818</ele>
        <time>2021-06-20T17:08:50Z</time>
      </trkpt>
      <trkpt lat="41.873634" lon="1.022361">
        <ele>398.018</ele>
        <time>2021-06-20T17:08:52Z</time>
      </trkpt>
      <trkpt lat="41.873550" lon="1.022407">
        <ele>397.056</ele>
        <time>2021-06-20T17:08:53Z</time>
      </trkpt>
      <trkpt lat="41.873466" lon="1.022451">
        <ele>395.864</ele>
        <time>2021-06-20T17:08:54Z</time>
      </trkpt>
      <trkpt lat="41.873304" lon="1.022538">
        <ele>394.806</ele>
        <time>2021-06-20T17:08:56Z</time>
      </trkpt>
      <trkpt lat="41.873225" lon="1.022580">
        <ele>393.616</ele>
        <time>2021-06-20T17:08:57Z</time>
      </trkpt>
      <trkpt lat="41.873149" lon="1.022621">
        <ele>392.408</ele>
        <time>2021-06-20T17:08:58Z</time>
      </trkpt>
      <trkpt lat="41.873001" lon="1.022700">
        <ele>391.283</ele>
        <time>2021-06-20T17:09:00Z</time>
      </trkpt>
      <trkpt lat="41.872930" lon="1.022740">
        <ele>390.822</ele>
        <time>2021-06-20T17:09:01Z</time>
      </trkpt>
      <trkpt lat="41.872547" lon="1.022961">
        <ele>390.449</ele>
        <time>2021-06-20T17:09:07Z</time>
      </trkpt>
      <trkpt lat="41.872256" lon="1.023145">
        <ele>391.261</ele>
        <time>2021-06-20T17:09:13Z</time>
      </trkpt>
      <trkpt lat="41.872048" lon="1.023277">
        <ele>392.215</ele>
        <time>2021-06-20T17:09:19Z</time>
      </trkpt>
      <trkpt lat="41.872017" lon="1.023296">
        <ele>392.646</ele>
        <time>2021-06-20T17:09:20Z</time>
      </trkpt>
      <trkpt lat="41.871834" lon="1.023378">
        <ele>393.416</ele>
        <time>2021-06-20T17:09:26Z</time>
      </trkpt>
      <trkpt lat="41.871811" lon="1.023384">
        <ele>393.684</ele>
        <time>2021-06-20T17:09:27Z</time>
      </trkpt>
      <trkpt lat="41.871798" lon="1.023403">
        <ele>393.631</ele>
        <time>2021-06-20T17:09:28Z</time>
      </trkpt>
      <trkpt lat="41.871796" lon="1.023427">
        <ele>393.661</ele>
        <time>2021-06-20T17:09:29Z</time>
      </trkpt>
      <trkpt lat="41.871835" lon="1.023415">
        <ele>394.007</ele>
        <time>2021-06-20T17:09:32Z</time>
      </trkpt>
      <trkpt lat="41.871822" lon="1.023384">
        <ele>394.008</ele>
        <time>2021-06-20T17:09:37Z</time>
      </trkpt>
      <trkpt lat="41.871812" lon="1.023385">
        <ele>394.090</ele>
        <time>2021-06-20T17:09:38Z</time>
      </trkpt>
      <trkpt lat="41.871727" lon="1.023401">
        <ele>394.259</ele>
        <time>2021-06-20T17:09:43Z</time>
      </trkpt>
      <trkpt lat="41.871581" lon="1.023328">
        <ele>393.876</ele>
        <time>2021-06-20T17:09:50Z</time>
      </trkpt>
      <trkpt lat="41.871445" lon="1.023269">
        <ele>394.298</ele>
        <time>2021-06-20T17:09:56Z</time>
      </trkpt>
      <trkpt lat="41.871231" lon="1.023159">
        <ele>394.832</ele>
        <time>2021-06-20T17:10:05Z</time>
      </trkpt>
      <trkpt lat="41.871182" lon="1.023138">
        <ele>395.283</ele>
        <time>2021-06-20T17:10:07Z</time>
      </trkpt>
      <trkpt lat="41.871060" lon="1.023090">
        <ele>395.853</ele>
        <time>2021-06-20T17:10:12Z</time>
      </trkpt>
      <trkpt lat="41.870909" lon="1.023032">
        <ele>396.421</ele>
        <time>2021-06-20T17:10:18Z</time>
      </trkpt>
      <trkpt lat="41.870833" lon="1.023002">
        <ele>397.075</ele>
        <time>2021-06-20T17:10:21Z</time>
      </trkpt>
      <trkpt lat="41.870682" lon="1.022931">
        <ele>397.428</ele>
        <time>2021-06-20T17:10:27Z</time>
      </trkpt>
      <trkpt lat="41.870473" lon="1.022831">
        <ele>397.420</ele>
        <time>2021-06-20T17:10:35Z</time>
      </trkpt>
      <trkpt lat="41.870278" lon="1.022732">
        <ele>397.608</ele>
        <time>2021-06-20T17:10:43Z</time>
      </trkpt>
      <trkpt lat="41.870140" lon="1.022686">
        <ele>398.274</ele>
        <time>2021-06-20T17:10:49Z</time>
      </trkpt>
      <trkpt lat="41.870102" lon="1.022675">
        <ele>398.493</ele>
        <time>2021-06-20T17:10:51Z</time>
      </trkpt>
      <trkpt lat="41.870008" lon="1.022651">
        <ele>399.410</ele>
        <time>2021-06-20T17:10:56Z</time>
      </trkpt>
      <trkpt lat="41.869922" lon="1.022641">
        <ele>400.412</ele>
        <time>2021-06-20T17:11:01Z</time>
      </trkpt>
      <trkpt lat="41.869850" lon="1.022599">
        <ele>401.416</ele>
        <time>2021-06-20T17:11:06Z</time>
      </trkpt>
      <trkpt lat="41.869806" lon="1.022584">
        <ele>402.277</ele>
        <time>2021-06-20T17:11:09Z</time>
      </trkpt>
      <trkpt lat="41.869764" lon="1.022569">
        <ele>402.657</ele>
        <time>2021-06-20T17:11:12Z</time>
      </trkpt>
      <trkpt lat="41.869702" lon="1.022546">
        <ele>403.465</ele>
        <time>2021-06-20T17:11:16Z</time>
      </trkpt>
      <trkpt lat="41.869686" lon="1.022541">
        <ele>403.645</ele>
        <time>2021-06-20T17:11:17Z</time>
      </trkpt>
      <trkpt lat="41.869576" lon="1.022506">
        <ele>404.847</ele>
        <time>2021-06-20T17:11:24Z</time>
      </trkpt>
      <trkpt lat="41.869483" lon="1.022468">
        <ele>406.011</ele>
        <time>2021-06-20T17:11:30Z</time>
      </trkpt>
      <trkpt lat="41.869450" lon="1.022460">
        <ele>406.408</ele>
        <time>2021-06-20T17:11:32Z</time>
      </trkpt>
      <trkpt lat="41.869383" lon="1.022448">
        <ele>407.241</ele>
        <time>2021-06-20T17:11:36Z</time>
      </trkpt>
      <trkpt lat="41.869332" lon="1.022432">
        <ele>407.470</ele>
        <time>2021-06-20T17:11:39Z</time>
      </trkpt>
      <trkpt lat="41.869268" lon="1.022389">
        <ele>408.297</ele>
        <time>2021-06-20T17:11:43Z</time>
      </trkpt>
      <trkpt lat="41.869176" lon="1.022356">
        <ele>408.839</ele>
        <time>2021-06-20T17:11:48Z</time>
      </trkpt>
      <trkpt lat="41.869121" lon="1.022338">
        <ele>409.293</ele>
        <time>2021-06-20T17:11:51Z</time>
      </trkpt>
      <trkpt lat="41.868970" lon="1.022289">
        <ele>410.054</ele>
        <time>2021-06-20T17:11:59Z</time>
      </trkpt>
      <trkpt lat="41.868877" lon="1.022264">
        <ele>410.434</ele>
        <time>2021-06-20T17:12:04Z</time>
      </trkpt>
      <trkpt lat="41.868818" lon="1.022255">
        <ele>410.812</ele>
        <time>2021-06-20T17:12:07Z</time>
      </trkpt>
      <trkpt lat="41.868653" lon="1.022198">
        <ele>411.626</ele>
        <time>2021-06-20T17:12:16Z</time>
      </trkpt>
      <trkpt lat="41.868635" lon="1.022190">
        <ele>411.647</ele>
        <time>2021-06-20T17:12:17Z</time>
      </trkpt>
      <trkpt lat="41.868453" lon="1.022134">
        <ele>412.011</ele>
        <time>2021-06-20T17:12:27Z</time>
      </trkpt>
      <trkpt lat="41.868291" lon="1.022085">
        <ele>412.608</ele>
        <time>2021-06-20T17:12:36Z</time>
      </trkpt>
      <trkpt lat="41.868272" lon="1.022081">
        <ele>412.659</ele>
        <time>2021-06-20T17:12:37Z</time>
      </trkpt>
      <trkpt lat="41.868145" lon="1.022043">
        <ele>413.898</ele>
        <time>2021-06-20T17:12:44Z</time>
      </trkpt>
      <trkpt lat="41.868109" lon="1.022034">
        <ele>414.085</ele>
        <time>2021-06-20T17:12:46Z</time>
      </trkpt>
      <trkpt lat="41.867999" lon="1.022005">
        <ele>415.067</ele>
        <time>2021-06-20T17:12:52Z</time>
      </trkpt>
      <trkpt lat="41.867944" lon="1.021997">
        <ele>415.671</ele>
        <time>2021-06-20T17:12:55Z</time>
      </trkpt>
      <trkpt lat="41.867890" lon="1.021998">
        <ele>416.062</ele>
        <time>2021-06-20T17:12:58Z</time>
      </trkpt>
      <trkpt lat="41.867795" lon="1.021994">
        <ele>416.662</ele>
        <time>2021-06-20T17:13:03Z</time>
      </trkpt>
      <trkpt lat="41.867756" lon="1.021987">
        <ele>417.010</ele>
        <time>2021-06-20T17:13:05Z</time>
      </trkpt>
      <trkpt lat="41.867661" lon="1.021978">
        <ele>418.249</ele>
        <time>2021-06-20T17:13:10Z</time>
      </trkpt>
      <trkpt lat="41.867567" lon="1.021966">
        <ele>418.802</ele>
        <time>2021-06-20T17:13:15Z</time>
      </trkpt>
      <trkpt lat="41.867492" lon="1.021960">
        <ele>419.222</ele>
        <time>2021-06-20T17:13:19Z</time>
      </trkpt>
      <trkpt lat="41.867360" lon="1.021955">
        <ele>420.208</ele>
        <time>2021-06-20T17:13:26Z</time>
      </trkpt>
      <trkpt lat="41.867227" lon="1.021949">
        <ele>421.481</ele>
        <time>2021-06-20T17:13:33Z</time>
      </trkpt>
      <trkpt lat="41.867113" lon="1.021948">
        <ele>422.280</ele>
        <time>2021-06-20T17:13:39Z</time>
      </trkpt>
      <trkpt lat="41.867035" lon="1.021946">
        <ele>422.427</ele>
        <time>2021-06-20T17:13:43Z</time>
      </trkpt>
      <trkpt lat="41.866883" lon="1.021961">
        <ele>423.419</ele>
        <time>2021-06-20T17:13:51Z</time>
      </trkpt>
      <trkpt lat="41.866865" lon="1.021967">
        <ele>423.623</ele>
        <time>2021-06-20T17:13:52Z</time>
      </trkpt>
      <trkpt lat="41.866741" lon="1.022026">
        <ele>424.684</ele>
        <time>2021-06-20T17:13:59Z</time>
      </trkpt>
      <trkpt lat="41.866690" lon="1.022136">
        <ele>425.484</ele>
        <time>2021-06-20T17:14:04Z</time>
      </trkpt>
      <trkpt lat="41.866688" lon="1.022196">
        <ele>425.622</ele>
        <time>2021-06-20T17:14:06Z</time>
      </trkpt>
      <trkpt lat="41.866714" lon="1.022304">
        <ele>425.899</ele>
        <time>2021-06-20T17:14:09Z</time>
      </trkpt>
      <trkpt lat="41.866788" lon="1.022555">
        <ele>425.807</ele>
        <time>2021-06-20T17:14:14Z</time>
      </trkpt>
      <trkpt lat="41.866814" lon="1.022680">
        <ele>425.827</ele>
        <time>2021-06-20T17:14:16Z</time>
      </trkpt>
      <trkpt lat="41.866812" lon="1.022870">
        <ele>425.408</ele>
        <time>2021-06-20T17:14:19Z</time>
      </trkpt>
      <trkpt lat="41.866780" lon="1.023033">
        <ele>424.676</ele>
        <time>2021-06-20T17:14:22Z</time>
      </trkpt>
      <trkpt lat="41.866729" lon="1.023183">
        <ele>424.245</ele>
        <time>2021-06-20T17:14:25Z</time>
      </trkpt>
      <trkpt lat="41.866599" lon="1.023539">
        <ele>424.082</ele>
        <time>2021-06-20T17:14:31Z</time>
      </trkpt>
      <trkpt lat="41.866506" lon="1.023750">
        <ele>423.484</ele>
        <time>2021-06-20T17:14:34Z</time>
      </trkpt>
      <trkpt lat="41.866364" lon="1.024048">
        <ele>422.498</ele>
        <time>2021-06-20T17:14:38Z</time>
      </trkpt>
      <trkpt lat="41.866246" lon="1.024275">
        <ele>421.449</ele>
        <time>2021-06-20T17:14:41Z</time>
      </trkpt>
      <trkpt lat="41.866074" lon="1.024560">
        <ele>420.469</ele>
        <time>2021-06-20T17:14:45Z</time>
      </trkpt>
      <trkpt lat="41.865988" lon="1.024698">
        <ele>420.087</ele>
        <time>2021-06-20T17:14:47Z</time>
      </trkpt>
      <trkpt lat="41.865728" lon="1.025163">
        <ele>419.637</ele>
        <time>2021-06-20T17:14:54Z</time>
      </trkpt>
      <trkpt lat="41.865551" lon="1.025546">
        <ele>420.449</ele>
        <time>2021-06-20T17:15:01Z</time>
      </trkpt>
      <trkpt lat="41.865475" lon="1.025705">
        <ele>421.213</ele>
        <time>2021-06-20T17:15:05Z</time>
      </trkpt>
      <trkpt lat="41.865443" lon="1.025776">
        <ele>422.008</ele>
        <time>2021-06-20T17:15:07Z</time>
      </trkpt>
      <trkpt lat="41.865427" lon="1.025809">
        <ele>422.240</ele>
        <time>2021-06-20T17:15:08Z</time>
      </trkpt>
      <trkpt lat="41.865366" lon="1.025931">
        <ele>423.639</ele>
        <time>2021-06-20T17:15:12Z</time>
      </trkpt>
      <trkpt lat="41.865332" lon="1.025994">
        <ele>424.076</ele>
        <time>2021-06-20T17:15:14Z</time>
      </trkpt>
      <trkpt lat="41.865282" lon="1.026094">
        <ele>424.628</ele>
        <time>2021-06-20T17:15:17Z</time>
      </trkpt>
      <trkpt lat="41.865182" lon="1.026305">
        <ele>425.692</ele>
        <time>2021-06-20T17:15:23Z</time>
      </trkpt>
      <trkpt lat="41.865168" lon="1.026347">
        <ele>425.893</ele>
        <time>2021-06-20T17:15:24Z</time>
      </trkpt>
      <trkpt lat="41.865046" lon="1.026868">
        <ele>426.063</ele>
        <time>2021-06-20T17:15:35Z</time>
      </trkpt>
      <trkpt lat="41.864961" lon="1.027184">
        <ele>426.261</ele>
        <time>2021-06-20T17:15:42Z</time>
      </trkpt>
      <trkpt lat="41.864826" lon="1.027407">
        <ele>426.439</ele>
        <time>2021-06-20T17:15:48Z</time>
      </trkpt>
      <trkpt lat="41.864758" lon="1.027457">
        <ele>426.601</ele>
        <time>2021-06-20T17:15:51Z</time>
      </trkpt>
      <trkpt lat="41.864747" lon="1.027453">
        <ele>427.021</ele>
        <time>2021-06-20T17:15:52Z</time>
      </trkpt>
      <trkpt lat="41.864741" lon="1.027452">
        <ele>427.408</ele>
        <time>2021-06-20T17:15:54Z</time>
      </trkpt>
      <trkpt lat="41.864784" lon="1.027414">
        <ele>427.420</ele>
        <time>2021-06-20T17:16:00Z</time>
      </trkpt>
      <trkpt lat="41.864800" lon="1.027402">
        <ele>427.489</ele>
        <time>2021-06-20T17:16:01Z</time>
      </trkpt>
      <trkpt lat="41.864898" lon="1.027287">
        <ele>427.426</ele>
        <time>2021-06-20T17:16:06Z</time>
      </trkpt>
      <trkpt lat="41.865030" lon="1.027235">
        <ele>427.238</ele>
        <time>2021-06-20T17:16:11Z</time>
      </trkpt>
      <trkpt lat="41.865166" lon="1.027401">
        <ele>426.422</ele>
        <time>2021-06-20T17:16:16Z</time>
      </trkpt>
      <trkpt lat="41.865412" lon="1.027588">
        <ele>426.283</ele>
        <time>2021-06-20T17:16:23Z</time>
      </trkpt>
      <trkpt lat="41.865547" lon="1.027720">
        <ele>426.493</ele>
        <time>2021-06-20T17:16:27Z</time>
      </trkpt>
      <trkpt lat="41.865593" lon="1.027806">
        <ele>426.431</ele>
        <time>2021-06-20T17:16:29Z</time>
      </trkpt>
      <trkpt lat="41.865622" lon="1.027953">
        <ele>426.612</ele>
        <time>2021-06-20T17:16:33Z</time>
      </trkpt>
      <trkpt lat="41.865616" lon="1.028037">
        <ele>426.832</ele>
        <time>2021-06-20T17:16:36Z</time>
      </trkpt>
      <trkpt lat="41.865602" lon="1.028149">
        <ele>427.405</ele>
        <time>2021-06-20T17:16:40Z</time>
      </trkpt>
      <trkpt lat="41.865586" lon="1.028231">
        <ele>428.408</ele>
        <time>2021-06-20T17:16:43Z</time>
      </trkpt>
      <trkpt lat="41.865563" lon="1.028399">
        <ele>429.698</ele>
        <time>2021-06-20T17:16:49Z</time>
      </trkpt>
      <trkpt lat="41.865567" lon="1.028609">
        <ele>430.667</ele>
        <time>2021-06-20T17:16:56Z</time>
      </trkpt>
      <trkpt lat="41.865580" lon="1.028699">
        <ele>431.224</ele>
        <time>2021-06-20T17:16:59Z</time>
      </trkpt>
      <trkpt lat="41.865607" lon="1.028847">
        <ele>431.836</ele>
        <time>2021-06-20T17:17:04Z</time>
      </trkpt>
      <trkpt lat="41.865635" lon="1.028969">
        <ele>432.270</ele>
        <time>2021-06-20T17:17:08Z</time>
      </trkpt>
      <trkpt lat="41.865688" lon="1.029186">
        <ele>432.861</ele>
        <time>2021-06-20T17:17:14Z</time>
      </trkpt>
      <trkpt lat="41.865698" lon="1.029228">
        <ele>433.061</ele>
        <time>2021-06-20T17:17:15Z</time>
      </trkpt>
      <trkpt lat="41.865783" lon="1.029581">
        <ele>433.089</ele>
        <time>2021-06-20T17:17:22Z</time>
      </trkpt>
      <trkpt lat="41.865864" lon="1.029968">
        <ele>432.426</ele>
        <time>2021-06-20T17:17:28Z</time>
      </trkpt>
      <trkpt lat="41.865924" lon="1.030301">
        <ele>431.847</ele>
        <time>2021-06-20T17:17:32Z</time>
      </trkpt>
      <trkpt lat="41.865965" lon="1.030484">
        <ele>431.211</ele>
        <time>2021-06-20T17:17:34Z</time>
      </trkpt>
      <trkpt lat="41.866020" lon="1.030672">
        <ele>430.608</ele>
        <time>2021-06-20T17:17:36Z</time>
      </trkpt>
      <trkpt lat="41.866092" lon="1.030859">
        <ele>429.659</ele>
        <time>2021-06-20T17:17:38Z</time>
      </trkpt>
      <trkpt lat="41.866139" lon="1.030951">
        <ele>428.498</ele>
        <time>2021-06-20T17:17:39Z</time>
      </trkpt>
      <trkpt lat="41.866248" lon="1.031135">
        <ele>427.225</ele>
        <time>2021-06-20T17:17:41Z</time>
      </trkpt>
      <trkpt lat="41.866365" lon="1.031333">
        <ele>425.887</ele>
        <time>2021-06-20T17:17:43Z</time>
      </trkpt>
      <trkpt lat="41.866418" lon="1.031444">
        <ele>425.631</ele>
        <time>2021-06-20T17:17:44Z</time>
      </trkpt>
      <trkpt lat="41.866464" lon="1.031561">
        <ele>424.882</ele>
        <time>2021-06-20T17:17:45Z</time>
      </trkpt>
      <trkpt lat="41.866541" lon="1.031806">
        <ele>423.632</ele>
        <time>2021-06-20T17:17:47Z</time>
      </trkpt>
      <trkpt lat="41.866574" lon="1.031927">
        <ele>423.270</ele>
        <time>2021-06-20T17:17:48Z</time>
      </trkpt>
      <trkpt lat="41.866609" lon="1.032043">
        <ele>422.683</ele>
        <time>2021-06-20T17:17:49Z</time>
      </trkpt>
      <trkpt lat="41.866649" lon="1.032149">
        <ele>421.825</ele>
        <time>2021-06-20T17:17:50Z</time>
      </trkpt>
      <trkpt lat="41.866696" lon="1.032243">
        <ele>421.017</ele>
        <time>2021-06-20T17:17:51Z</time>
      </trkpt>
      <trkpt lat="41.866747" lon="1.032325">
        <ele>420.408</ele>
        <time>2021-06-20T17:17:52Z</time>
      </trkpt>
      <trkpt lat="41.866853" lon="1.032537">
        <ele>420.075</ele>
        <time>2021-06-20T17:17:55Z</time>
      </trkpt>
      <trkpt lat="41.866873" lon="1.032595">
        <ele>420.094</ele>
        <time>2021-06-20T17:17:56Z</time>
      </trkpt>
      <trkpt lat="41.866912" lon="1.032712">
        <ele>420.091</ele>
        <time>2021-06-20T17:17:59Z</time>
      </trkpt>
      <trkpt lat="41.866921" lon="1.032870">
        <ele>422.483</ele>
        <time>2021-06-20T17:18:04Z</time>
      </trkpt>
      <trkpt lat="41.866917" lon="1.032932">
        <ele>423.497</ele>
        <time>2021-06-20T17:18:06Z</time>
      </trkpt>
      <trkpt lat="41.866915" lon="1.032963">
        <ele>424.498</ele>
        <time>2021-06-20T17:18:07Z</time>
      </trkpt>
      <trkpt lat="41.866908" lon="1.033086">
        <ele>425.698</ele>
        <time>2021-06-20T17:18:11Z</time>
      </trkpt>
      <trkpt lat="41.866890" lon="1.033249">
        <ele>426.486</ele>
        <time>2021-06-20T17:18:16Z</time>
      </trkpt>
      <trkpt lat="41.866883" lon="1.033316">
        <ele>427.045</ele>
        <time>2021-06-20T17:18:18Z</time>
      </trkpt>
      <trkpt lat="41.866849" lon="1.033679">
        <ele>427.847</ele>
        <time>2021-06-20T17:18:28Z</time>
      </trkpt>
      <trkpt lat="41.866802" lon="1.034064">
        <ele>428.411</ele>
        <time>2021-06-20T17:18:37Z</time>
      </trkpt>
      <trkpt lat="41.866741" lon="1.034327">
        <ele>428.408</ele>
        <time>2021-06-20T17:18:42Z</time>
      </trkpt>
      <trkpt lat="41.866692" lon="1.034421">
        <ele>428.431</ele>
        <time>2021-06-20T17:18:44Z</time>
      </trkpt>
      <trkpt lat="41.866560" lon="1.034514">
        <ele>426.670</ele>
        <time>2021-06-20T17:18:47Z</time>
      </trkpt>
      <trkpt lat="41.866509" lon="1.034533">
        <ele>426.037</ele>
        <time>2021-06-20T17:18:48Z</time>
      </trkpt>
      <trkpt lat="41.866404" lon="1.034564">
        <ele>425.499</ele>
        <time>2021-06-20T17:18:50Z</time>
      </trkpt>
      <trkpt lat="41.866241" lon="1.034602">
        <ele>424.223</ele>
        <time>2021-06-20T17:18:53Z</time>
      </trkpt>
      <trkpt lat="41.866136" lon="1.034620">
        <ele>423.254</ele>
        <time>2021-06-20T17:18:55Z</time>
      </trkpt>
      <trkpt lat="41.866086" lon="1.034620">
        <ele>422.864</ele>
        <time>2021-06-20T17:18:56Z</time>
      </trkpt>
      <trkpt lat="41.865916" lon="1.034568">
        <ele>422.012</ele>
        <time>2021-06-20T17:19:00Z</time>
      </trkpt>
      <trkpt lat="41.865861" lon="1.034512">
        <ele>422.044</ele>
        <time>2021-06-20T17:19:02Z</time>
      </trkpt>
      <trkpt lat="41.865774" lon="1.034411">
        <ele>422.005</ele>
        <time>2021-06-20T17:19:06Z</time>
      </trkpt>
      <trkpt lat="41.865604" lon="1.034262">
        <ele>423.815</ele>
        <time>2021-06-20T17:19:13Z</time>
      </trkpt>
      <trkpt lat="41.865550" lon="1.034230">
        <ele>424.208</ele>
        <time>2021-06-20T17:19:15Z</time>
      </trkpt>
      <trkpt lat="41.865432" lon="1.034171">
        <ele>424.871</ele>
        <time>2021-06-20T17:19:19Z</time>
      </trkpt>
      <trkpt lat="41.865265" lon="1.034096">
        <ele>425.080</ele>
        <time>2021-06-20T17:19:24Z</time>
      </trkpt>
      <trkpt lat="41.864835" lon="1.033943">
        <ele>425.297</ele>
        <time>2021-06-20T17:19:36Z</time>
      </trkpt>
      <trkpt lat="41.864427" lon="1.033855">
        <ele>425.639</ele>
        <time>2021-06-20T17:19:47Z</time>
      </trkpt>
      <trkpt lat="41.864234" lon="1.033835">
        <ele>426.053</ele>
        <time>2021-06-20T17:19:52Z</time>
      </trkpt>
      <trkpt lat="41.864036" lon="1.033825">
        <ele>426.624</ele>
        <time>2021-06-20T17:19:57Z</time>
      </trkpt>
      <trkpt lat="41.863830" lon="1.033790">
        <ele>427.074</ele>
        <time>2021-06-20T17:20:02Z</time>
      </trkpt>
      <trkpt lat="41.863701" lon="1.033778">
        <ele>427.072</ele>
        <time>2021-06-20T17:20:05Z</time>
      </trkpt>
      <trkpt lat="41.863305" lon="1.033739">
        <ele>427.619</ele>
        <time>2021-06-20T17:20:14Z</time>
      </trkpt>
      <trkpt lat="41.863096" lon="1.033709">
        <ele>427.609</ele>
        <time>2021-06-20T17:20:19Z</time>
      </trkpt>
      <trkpt lat="41.862981" lon="1.033653">
        <ele>427.819</ele>
        <time>2021-06-20T17:20:22Z</time>
      </trkpt>
      <trkpt lat="41.862907" lon="1.033610">
        <ele>428.008</ele>
        <time>2021-06-20T17:20:24Z</time>
      </trkpt>
      <trkpt lat="41.862871" lon="1.033585">
        <ele>428.278</ele>
        <time>2021-06-20T17:20:25Z</time>
      </trkpt>
      <trkpt lat="41.862694" lon="1.033437">
        <ele>428.697</ele>
        <time>2021-06-20T17:20:30Z</time>
      </trkpt>
      <trkpt lat="41.862281" lon="1.033088">
        <ele>429.084</ele>
        <time>2021-06-20T17:20:41Z</time>
      </trkpt>
      <trkpt lat="41.862242" lon="1.033057">
        <ele>429.056</ele>
        <time>2021-06-20T17:20:42Z</time>
      </trkpt>
      <trkpt lat="41.861929" lon="1.032825">
        <ele>429.210</ele>
        <time>2021-06-20T17:20:50Z</time>
      </trkpt>
      <trkpt lat="41.861694" lon="1.032647">
        <ele>429.251</ele>
        <time>2021-06-20T17:20:56Z</time>
      </trkpt>
      <trkpt lat="41.861416" lon="1.032432">
        <ele>429.471</ele>
        <time>2021-06-20T17:21:04Z</time>
      </trkpt>
      <trkpt lat="41.861295" lon="1.032348">
        <ele>430.229</ele>
        <time>2021-06-20T17:21:08Z</time>
      </trkpt>
      <trkpt lat="41.861193" lon="1.032279">
        <ele>430.852</ele>
        <time>2021-06-20T17:21:12Z</time>
      </trkpt>
      <trkpt lat="41.861128" lon="1.032235">
        <ele>431.453</ele>
        <time>2021-06-20T17:21:15Z</time>
      </trkpt>
      <trkpt lat="41.861063" lon="1.032193">
        <ele>432.608</ele>
        <time>2021-06-20T17:21:18Z</time>
      </trkpt>
      <trkpt lat="41.861021" lon="1.032167">
        <ele>433.208</ele>
        <time>2021-06-20T17:21:20Z</time>
      </trkpt>
      <trkpt lat="41.860958" lon="1.032136">
        <ele>433.662</ele>
        <time>2021-06-20T17:21:23Z</time>
      </trkpt>
      <trkpt lat="41.860850" lon="1.032106">
        <ele>435.061</ele>
        <time>2021-06-20T17:21:28Z</time>
      </trkpt>
      <trkpt lat="41.860827" lon="1.032102">
        <ele>435.228</ele>
        <time>2021-06-20T17:21:29Z</time>
      </trkpt>
      <trkpt lat="41.860691" lon="1.032065">
        <ele>436.080</ele>
        <time>2021-06-20T17:21:35Z</time>
      </trkpt>
      <trkpt lat="41.860667" lon="1.032065">
        <ele>436.044</ele>
        <time>2021-06-20T17:21:36Z</time>
      </trkpt>
      <trkpt lat="41.860458" lon="1.032020">
        <ele>436.825</ele>
        <time>2021-06-20T17:21:45Z</time>
      </trkpt>
      <trkpt lat="41.860372" lon="1.031984">
        <ele>437.095</ele>
        <time>2021-06-20T17:21:49Z</time>
      </trkpt>
      <trkpt lat="41.860349" lon="1.031980">
        <ele>437.063</ele>
        <time>2021-06-20T17:21:50Z</time>
      </trkpt>
      <trkpt lat="41.860189" lon="1.031947">
        <ele>438.093</ele>
        <time>2021-06-20T17:21:57Z</time>
      </trkpt>
      <trkpt lat="41.860095" lon="1.031944">
        <ele>438.665</ele>
        <time>2021-06-20T17:22:01Z</time>
      </trkpt>
      <trkpt lat="41.860019" lon="1.031953">
        <ele>439.221</ele>
        <time>2021-06-20T17:22:04Z</time>
      </trkpt>
      <trkpt lat="41.859816" lon="1.031952">
        <ele>439.808</ele>
        <time>2021-06-20T17:22:12Z</time>
      </trkpt>
      <trkpt lat="41.859689" lon="1.031949">
        <ele>440.256</ele>
        <time>2021-06-20T17:22:17Z</time>
      </trkpt>
      <trkpt lat="41.859536" lon="1.031937">
        <ele>441.235</ele>
        <time>2021-06-20T17:22:23Z</time>
      </trkpt>
      <trkpt lat="41.859510" lon="1.031936">
        <ele>441.232</ele>
        <time>2021-06-20T17:22:24Z</time>
      </trkpt>
      <trkpt lat="41.859309" lon="1.031892">
        <ele>441.884</ele>
        <time>2021-06-20T17:22:32Z</time>
      </trkpt>
      <trkpt lat="41.859157" lon="1.031877">
        <ele>442.648</ele>
        <time>2021-06-20T17:22:38Z</time>
      </trkpt>
      <trkpt lat="41.859087" lon="1.031865">
        <ele>443.269</ele>
        <time>2021-06-20T17:22:41Z</time>
      </trkpt>
      <trkpt lat="41.858991" lon="1.031848">
        <ele>443.899</ele>
        <time>2021-06-20T17:22:45Z</time>
      </trkpt>
      <trkpt lat="41.858895" lon="1.031834">
        <ele>444.827</ele>
        <time>2021-06-20T17:22:49Z</time>
      </trkpt>
      <trkpt lat="41.858749" lon="1.031823">
        <ele>445.827</ele>
        <time>2021-06-20T17:22:55Z</time>
      </trkpt>
      <trkpt lat="41.858653" lon="1.031814">
        <ele>446.668</ele>
        <time>2021-06-20T17:22:59Z</time>
      </trkpt>
      <trkpt lat="41.858605" lon="1.031807">
        <ele>447.014</ele>
        <time>2021-06-20T17:23:01Z</time>
      </trkpt>
      <trkpt lat="41.858436" lon="1.031785">
        <ele>447.808</ele>
        <time>2021-06-20T17:23:08Z</time>
      </trkpt>
      <trkpt lat="41.858412" lon="1.031781">
        <ele>448.069</ele>
        <time>2021-06-20T17:23:09Z</time>
      </trkpt>
      <trkpt lat="41.858192" lon="1.031727">
        <ele>449.288</ele>
        <time>2021-06-20T17:23:17Z</time>
      </trkpt>
      <trkpt lat="41.858132" lon="1.031708">
        <ele>449.215</ele>
        <time>2021-06-20T17:23:19Z</time>
      </trkpt>
      <trkpt lat="41.857873" lon="1.031557">
        <ele>449.457</ele>
        <time>2021-06-20T17:23:28Z</time>
      </trkpt>
      <trkpt lat="41.857807" lon="1.031351">
        <ele>449.441</ele>
        <time>2021-06-20T17:23:33Z</time>
      </trkpt>
      <trkpt lat="41.857844" lon="1.031116">
        <ele>449.292</ele>
        <time>2021-06-20T17:23:38Z</time>
      </trkpt>
      <trkpt lat="41.857938" lon="1.030779">
        <ele>450.212</ele>
        <time>2021-06-20T17:23:45Z</time>
      </trkpt>
      <trkpt lat="41.857912" lon="1.030585">
        <ele>450.230</ele>
        <time>2021-06-20T17:23:49Z</time>
      </trkpt>
      <trkpt lat="41.857777" lon="1.030388">
        <ele>450.211</ele>
        <time>2021-06-20T17:23:55Z</time>
      </trkpt>
      <trkpt lat="41.857526" lon="1.030095">
        <ele>450.421</ele>
        <time>2021-06-20T17:24:06Z</time>
      </trkpt>
      <trkpt lat="41.857467" lon="1.030001">
        <ele>451.003</ele>
        <time>2021-06-20T17:24:09Z</time>
      </trkpt>
      <trkpt lat="41.857335" lon="1.029775">
        <ele>451.808</ele>
        <time>2021-06-20T17:24:16Z</time>
      </trkpt>
      <trkpt lat="41.857298" lon="1.029712">
        <ele>452.218</ele>
        <time>2021-06-20T17:24:18Z</time>
      </trkpt>
      <trkpt lat="41.857171" lon="1.029488">
        <ele>452.697</ele>
        <time>2021-06-20T17:24:25Z</time>
      </trkpt>
      <trkpt lat="41.857139" lon="1.029430">
        <ele>452.874</ele>
        <time>2021-06-20T17:24:29Z</time>
      </trkpt>
      <trkpt lat="41.857136" lon="1.029428">
        <ele>453.066</ele>
        <time>2021-06-20T17:24:31Z</time>
      </trkpt>
      <trkpt lat="41.857124" lon="1.029401">
        <ele>453.860</ele>
        <time>2021-06-20T17:26:16Z</time>
      </trkpt>
      <trkpt lat="41.857105" lon="1.029369">
        <ele>453.821</ele>
        <time>2021-06-20T17:26:18Z</time>
      </trkpt>
      <trkpt lat="41.857011" lon="1.029195">
        <ele>453.661</ele>
        <time>2021-06-20T17:26:24Z</time>
      </trkpt>
      <trkpt lat="41.856844" lon="1.028886">
        <ele>453.249</ele>
        <time>2021-06-20T17:26:32Z</time>
      </trkpt>
      <trkpt lat="41.856650" lon="1.028517">
        <ele>452.827</ele>
        <time>2021-06-20T17:26:40Z</time>
      </trkpt>
      <trkpt lat="41.856463" lon="1.028221">
        <ele>452.468</ele>
        <time>2021-06-20T17:26:47Z</time>
      </trkpt>
      <trkpt lat="41.856406" lon="1.028177">
        <ele>452.414</ele>
        <time>2021-06-20T17:26:49Z</time>
      </trkpt>
      <trkpt lat="41.856383" lon="1.028193">
        <ele>452.208</ele>
        <time>2021-06-20T17:26:50Z</time>
      </trkpt>
      <trkpt lat="41.856326" lon="1.028325">
        <ele>452.279</ele>
        <time>2021-06-20T17:26:54Z</time>
      </trkpt>
      <trkpt lat="41.856277" lon="1.028409">
        <ele>453.468</ele>
        <time>2021-06-20T17:26:59Z</time>
      </trkpt>
      <trkpt lat="41.856253" lon="1.028471">
        <ele>454.215</ele>
        <time>2021-06-20T17:27:39Z</time>
      </trkpt>
      <trkpt lat="41.856220" lon="1.028525">
        <ele>454.217</ele>
        <time>2021-06-20T17:27:41Z</time>
      </trkpt>
      <trkpt lat="41.856126" lon="1.028675">
        <ele>454.231</ele>
        <time>2021-06-20T17:27:45Z</time>
      </trkpt>
      <trkpt lat="41.856097" lon="1.028715">
        <ele>454.292</ele>
        <time>2021-06-20T17:27:46Z</time>
      </trkpt>
      <trkpt lat="41.855792" lon="1.029179">
        <ele>453.682</ele>
        <time>2021-06-20T17:27:56Z</time>
      </trkpt>
      <trkpt lat="41.855502" lon="1.029654">
        <ele>453.670</ele>
        <time>2021-06-20T17:28:05Z</time>
      </trkpt>
      <trkpt lat="41.855207" lon="1.030137">
        <ele>453.859</ele>
        <time>2021-06-20T17:28:14Z</time>
      </trkpt>
      <trkpt lat="41.854861" lon="1.030699">
        <ele>454.003</ele>
        <time>2021-06-20T17:28:24Z</time>
      </trkpt>
      <trkpt lat="41.854508" lon="1.031267">
        <ele>454.423</ele>
        <time>2021-06-20T17:28:34Z</time>
      </trkpt>
      <trkpt lat="41.854470" lon="1.031320">
        <ele>454.608</ele>
        <time>2021-06-20T17:28:35Z</time>
      </trkpt>
      <trkpt lat="41.854306" lon="1.031507">
        <ele>455.052</ele>
        <time>2021-06-20T17:28:39Z</time>
      </trkpt>
      <trkpt lat="41.854240" lon="1.031619">
        <ele>455.071</ele>
        <time>2021-06-20T17:28:41Z</time>
      </trkpt>
      <trkpt lat="41.854211" lon="1.031679">
        <ele>455.248</ele>
        <time>2021-06-20T17:28:42Z</time>
      </trkpt>
      <trkpt lat="41.854131" lon="1.031864">
        <ele>455.660</ele>
        <time>2021-06-20T17:28:45Z</time>
      </trkpt>
      <trkpt lat="41.853967" lon="1.032237">
        <ele>456.234</ele>
        <time>2021-06-20T17:28:51Z</time>
      </trkpt>
      <trkpt lat="41.853689" lon="1.032875">
        <ele>457.275</ele>
        <time>2021-06-20T17:29:01Z</time>
      </trkpt>
      <trkpt lat="41.853660" lon="1.032937">
        <ele>457.225</ele>
        <time>2021-06-20T17:29:02Z</time>
      </trkpt>
      <trkpt lat="41.853632" lon="1.033001">
        <ele>457.253</ele>
        <time>2021-06-20T17:29:03Z</time>
      </trkpt>
      <trkpt lat="41.853511" lon="1.033240">
        <ele>457.447</ele>
        <time>2021-06-20T17:29:07Z</time>
      </trkpt>
      <trkpt lat="41.853435" lon="1.033336">
        <ele>457.629</ele>
        <time>2021-06-20T17:29:09Z</time>
      </trkpt>
      <trkpt lat="41.853364" lon="1.033431">
        <ele>457.821</ele>
        <time>2021-06-20T17:29:11Z</time>
      </trkpt>
      <trkpt lat="41.853289" lon="1.033605">
        <ele>457.808</ele>
        <time>2021-06-20T17:29:14Z</time>
      </trkpt>
      <trkpt lat="41.853270" lon="1.033663">
        <ele>458.011</ele>
        <time>2021-06-20T17:29:15Z</time>
      </trkpt>
      <trkpt lat="41.853193" lon="1.033865">
        <ele>458.220</ele>
        <time>2021-06-20T17:29:19Z</time>
      </trkpt>
      <trkpt lat="41.853148" lon="1.033956">
        <ele>459.027</ele>
        <time>2021-06-20T17:29:21Z</time>
      </trkpt>
      <trkpt lat="41.853053" lon="1.034145">
        <ele>459.439</ele>
        <time>2021-06-20T17:29:25Z</time>
      </trkpt>
      <trkpt lat="41.852960" lon="1.034396">
        <ele>460.243</ele>
        <time>2021-06-20T17:29:30Z</time>
      </trkpt>
      <trkpt lat="41.852944" lon="1.034444">
        <ele>460.674</ele>
        <time>2021-06-20T17:29:31Z</time>
      </trkpt>
      <trkpt lat="41.852823" lon="1.034743">
        <ele>461.424</ele>
        <time>2021-06-20T17:29:38Z</time>
      </trkpt>
      <trkpt lat="41.852804" lon="1.034783">
        <ele>461.652</ele>
        <time>2021-06-20T17:29:39Z</time>
      </trkpt>
      <trkpt lat="41.852599" lon="1.035235">
        <ele>462.836</ele>
        <time>2021-06-20T17:29:50Z</time>
      </trkpt>
      <trkpt lat="41.852385" lon="1.035737">
        <ele>463.617</ele>
        <time>2021-06-20T17:30:01Z</time>
      </trkpt>
      <trkpt lat="41.852362" lon="1.035785">
        <ele>463.818</ele>
        <time>2021-06-20T17:30:02Z</time>
      </trkpt>
      <trkpt lat="41.852172" lon="1.036133">
        <ele>464.208</ele>
        <time>2021-06-20T17:30:09Z</time>
      </trkpt>
      <trkpt lat="41.851924" lon="1.036485">
        <ele>464.060</ele>
        <time>2021-06-20T17:30:15Z</time>
      </trkpt>
      <trkpt lat="41.851748" lon="1.036718">
        <ele>462.059</ele>
        <time>2021-06-20T17:30:19Z</time>
      </trkpt>
      <trkpt lat="41.851667" lon="1.036830">
        <ele>460.686</ele>
        <time>2021-06-20T17:30:21Z</time>
      </trkpt>
      <trkpt lat="41.851590" lon="1.036941">
        <ele>459.818</ele>
        <time>2021-06-20T17:30:23Z</time>
      </trkpt>
      <trkpt lat="41.851552" lon="1.036995">
        <ele>459.452</ele>
        <time>2021-06-20T17:30:24Z</time>
      </trkpt>
      <trkpt lat="41.851309" lon="1.037357">
        <ele>458.423</ele>
        <time>2021-06-20T17:30:31Z</time>
      </trkpt>
      <trkpt lat="41.851112" lon="1.037801">
        <ele>459.473</ele>
        <time>2021-06-20T17:30:39Z</time>
      </trkpt>
      <trkpt lat="41.851041" lon="1.037974">
        <ele>460.811</ele>
        <time>2021-06-20T17:30:42Z</time>
      </trkpt>
      <trkpt lat="41.850964" lon="1.038141">
        <ele>461.231</ele>
        <time>2021-06-20T17:30:45Z</time>
      </trkpt>
      <trkpt lat="41.850884" lon="1.038203">
        <ele>461.261</ele>
        <time>2021-06-20T17:30:47Z</time>
      </trkpt>
      <trkpt lat="41.850763" lon="1.038145">
        <ele>461.207</ele>
        <time>2021-06-20T17:30:50Z</time>
      </trkpt>
      <trkpt lat="41.850723" lon="1.038121">
        <ele>461.208</ele>
        <time>2021-06-20T17:30:51Z</time>
      </trkpt>
      <trkpt lat="41.850647" lon="1.038075">
        <ele>461.240</ele>
        <time>2021-06-20T17:30:53Z</time>
      </trkpt>
      <trkpt lat="41.850472" lon="1.037943">
        <ele>460.879</ele>
        <time>2021-06-20T17:30:58Z</time>
      </trkpt>
      <trkpt lat="41.850274" lon="1.037776">
        <ele>461.076</ele>
        <time>2021-06-20T17:31:05Z</time>
      </trkpt>
      <trkpt lat="41.850092" lon="1.037608">
        <ele>462.278</ele>
        <time>2021-06-20T17:31:13Z</time>
      </trkpt>
      <trkpt lat="41.850068" lon="1.037589">
        <ele>462.862</ele>
        <time>2021-06-20T17:31:14Z</time>
      </trkpt>
      <trkpt lat="41.850023" lon="1.037544">
        <ele>463.273</ele>
        <time>2021-06-20T17:31:16Z</time>
      </trkpt>
      <trkpt lat="41.849905" lon="1.037437">
        <ele>463.623</ele>
        <time>2021-06-20T17:31:21Z</time>
      </trkpt>
      <trkpt lat="41.849665" lon="1.037237">
        <ele>464.491</ele>
        <time>2021-06-20T17:31:31Z</time>
      </trkpt>
      <trkpt lat="41.849474" lon="1.037089">
        <ele>465.222</ele>
        <time>2021-06-20T17:31:39Z</time>
      </trkpt>
      <trkpt lat="41.849427" lon="1.037050">
        <ele>465.662</ele>
        <time>2021-06-20T17:31:41Z</time>
      </trkpt>
      <trkpt lat="41.849269" lon="1.036915">
        <ele>466.608</ele>
        <time>2021-06-20T17:31:48Z</time>
      </trkpt>
      <trkpt lat="41.849225" lon="1.036880">
        <ele>466.808</ele>
        <time>2021-06-20T17:31:50Z</time>
      </trkpt>
      <trkpt lat="41.849083" lon="1.036722">
        <ele>468.079</ele>
        <time>2021-06-20T17:31:57Z</time>
      </trkpt>
      <trkpt lat="41.848913" lon="1.036490">
        <ele>469.018</ele>
        <time>2021-06-20T17:32:06Z</time>
      </trkpt>
      <trkpt lat="41.848894" lon="1.036466">
        <ele>469.045</ele>
        <time>2021-06-20T17:32:07Z</time>
      </trkpt>
      <trkpt lat="41.848759" lon="1.036285">
        <ele>470.017</ele>
        <time>2021-06-20T17:32:15Z</time>
      </trkpt>
      <trkpt lat="41.848624" lon="1.036168">
        <ele>471.281</ele>
        <time>2021-06-20T17:32:22Z</time>
      </trkpt>
      <trkpt lat="41.848603" lon="1.036152">
        <ele>471.442</ele>
        <time>2021-06-20T17:32:23Z</time>
      </trkpt>
      <trkpt lat="41.848472" lon="1.036063">
        <ele>472.212</ele>
        <time>2021-06-20T17:32:29Z</time>
      </trkpt>
      <trkpt lat="41.848452" lon="1.036043">
        <ele>472.260</ele>
        <time>2021-06-20T17:32:30Z</time>
      </trkpt>
      <trkpt lat="41.848279" lon="1.035881">
        <ele>472.453</ele>
        <time>2021-06-20T17:32:37Z</time>
      </trkpt>
      <trkpt lat="41.848050" lon="1.035782">
        <ele>471.404</ele>
        <time>2021-06-20T17:32:42Z</time>
      </trkpt>
      <trkpt lat="41.847993" lon="1.035762">
        <ele>471.014</ele>
        <time>2021-06-20T17:32:43Z</time>
      </trkpt>
      <trkpt lat="41.847738" lon="1.035712">
        <ele>470.008</ele>
        <time>2021-06-20T17:32:47Z</time>
      </trkpt>
      <trkpt lat="41.847670" lon="1.035710">
        <ele>469.812</ele>
        <time>2021-06-20T17:32:48Z</time>
      </trkpt>
      <trkpt lat="41.847601" lon="1.035713">
        <ele>469.471</ele>
        <time>2021-06-20T17:32:49Z</time>
      </trkpt>
      <trkpt lat="41.847465" lon="1.035733">
        <ele>468.698</ele>
        <time>2021-06-20T17:32:51Z</time>
      </trkpt>
      <trkpt lat="41.847333" lon="1.035754">
        <ele>467.440</ele>
        <time>2021-06-20T17:32:53Z</time>
      </trkpt>
      <trkpt lat="41.847198" lon="1.035759">
        <ele>466.064</ele>
        <time>2021-06-20T17:32:55Z</time>
      </trkpt>
      <trkpt lat="41.847128" lon="1.035753">
        <ele>465.495</ele>
        <time>2021-06-20T17:32:56Z</time>
      </trkpt>
      <trkpt lat="41.847057" lon="1.035737">
        <ele>465.075</ele>
        <time>2021-06-20T17:32:57Z</time>
      </trkpt>
      <trkpt lat="41.846984" lon="1.035715">
        <ele>464.693</ele>
        <time>2021-06-20T17:32:58Z</time>
      </trkpt>
      <trkpt lat="41.846832" lon="1.035665">
        <ele>464.062</ele>
        <time>2021-06-20T17:33:00Z</time>
      </trkpt>
      <trkpt lat="41.846673" lon="1.035625">
        <ele>463.883</ele>
        <time>2021-06-20T17:33:02Z</time>
      </trkpt>
      <trkpt lat="41.846508" lon="1.035623">
        <ele>463.611</ele>
        <time>2021-06-20T17:33:04Z</time>
      </trkpt>
      <trkpt lat="41.846334" lon="1.035641">
        <ele>462.408</ele>
        <time>2021-06-20T17:33:06Z</time>
      </trkpt>
      <trkpt lat="41.846152" lon="1.035652">
        <ele>461.063</ele>
        <time>2021-06-20T17:33:08Z</time>
      </trkpt>
      <trkpt lat="41.846060" lon="1.035645">
        <ele>460.032</ele>
        <time>2021-06-20T17:33:09Z</time>
      </trkpt>
      <trkpt lat="41.845882" lon="1.035598">
        <ele>458.659</ele>
        <time>2021-06-20T17:33:11Z</time>
      </trkpt>
      <trkpt lat="41.845709" lon="1.035526">
        <ele>457.411</ele>
        <time>2021-06-20T17:33:13Z</time>
      </trkpt>
      <trkpt lat="41.845539" lon="1.035464">
        <ele>455.665</ele>
        <time>2021-06-20T17:33:15Z</time>
      </trkpt>
      <trkpt lat="41.845449" lon="1.035471">
        <ele>454.836</ele>
        <time>2021-06-20T17:33:16Z</time>
      </trkpt>
      <trkpt lat="41.845359" lon="1.035502">
        <ele>454.276</ele>
        <time>2021-06-20T17:33:17Z</time>
      </trkpt>
      <trkpt lat="41.845182" lon="1.035571">
        <ele>452.854</ele>
        <time>2021-06-20T17:33:19Z</time>
      </trkpt>
      <trkpt lat="41.845092" lon="1.035588">
        <ele>452.218</ele>
        <time>2021-06-20T17:33:20Z</time>
      </trkpt>
      <trkpt lat="41.844911" lon="1.035595">
        <ele>451.498</ele>
        <time>2021-06-20T17:33:22Z</time>
      </trkpt>
      <trkpt lat="41.844654" lon="1.035590">
        <ele>450.017</ele>
        <time>2021-06-20T17:33:25Z</time>
      </trkpt>
      <trkpt lat="41.844462" lon="1.035460">
        <ele>449.208</ele>
        <time>2021-06-20T17:33:28Z</time>
      </trkpt>
      <trkpt lat="41.844395" lon="1.035405">
        <ele>448.818</ele>
        <time>2021-06-20T17:33:29Z</time>
      </trkpt>
      <trkpt lat="41.844244" lon="1.035338">
        <ele>448.287</ele>
        <time>2021-06-20T17:33:31Z</time>
      </trkpt>
      <trkpt lat="41.844165" lon="1.035330">
        <ele>447.854</ele>
        <time>2021-06-20T17:33:32Z</time>
      </trkpt>
      <trkpt lat="41.844011" lon="1.035333">
        <ele>447.256</ele>
        <time>2021-06-20T17:33:34Z</time>
      </trkpt>
      <trkpt lat="41.843935" lon="1.035330">
        <ele>447.210</ele>
        <time>2021-06-20T17:33:35Z</time>
      </trkpt>
      <trkpt lat="41.843724" lon="1.035245">
        <ele>446.871</ele>
        <time>2021-06-20T17:33:38Z</time>
      </trkpt>
      <trkpt lat="41.843578" lon="1.035221">
        <ele>446.671</ele>
        <time>2021-06-20T17:33:40Z</time>
      </trkpt>
      <trkpt lat="41.843504" lon="1.035256">
        <ele>446.699</ele>
        <time>2021-06-20T17:33:41Z</time>
      </trkpt>
      <trkpt lat="41.843368" lon="1.035382">
        <ele>446.055</ele>
        <time>2021-06-20T17:33:43Z</time>
      </trkpt>
      <trkpt lat="41.843307" lon="1.035436">
        <ele>445.407</ele>
        <time>2021-06-20T17:33:44Z</time>
      </trkpt>
      <trkpt lat="41.843215" lon="1.035536">
        <ele>444.417</ele>
        <time>2021-06-20T17:33:46Z</time>
      </trkpt>
      <trkpt lat="41.843188" lon="1.035609">
        <ele>444.208</ele>
        <time>2021-06-20T17:33:47Z</time>
      </trkpt>
      <trkpt lat="41.843172" lon="1.035693">
        <ele>443.232</ele>
        <time>2021-06-20T17:33:48Z</time>
      </trkpt>
      <trkpt lat="41.843169" lon="1.035863">
        <ele>442.091</ele>
        <time>2021-06-20T17:33:50Z</time>
      </trkpt>
      <trkpt lat="41.843174" lon="1.035945">
        <ele>441.698</ele>
        <time>2021-06-20T17:33:51Z</time>
      </trkpt>
      <trkpt lat="41.843186" lon="1.036242">
        <ele>440.630</ele>
        <time>2021-06-20T17:33:55Z</time>
      </trkpt>
      <trkpt lat="41.843184" lon="1.036375">
        <ele>440.664</ele>
        <time>2021-06-20T17:33:57Z</time>
      </trkpt>
      <trkpt lat="41.843160" lon="1.036766">
        <ele>440.665</ele>
        <time>2021-06-20T17:34:04Z</time>
      </trkpt>
      <trkpt lat="41.843153" lon="1.036954">
        <ele>441.895</ele>
        <time>2021-06-20T17:34:08Z</time>
      </trkpt>
      <trkpt lat="41.843152" lon="1.037095">
        <ele>442.463</ele>
        <time>2021-06-20T17:34:11Z</time>
      </trkpt>
      <trkpt lat="41.843150" lon="1.037189">
        <ele>443.021</ele>
        <time>2021-06-20T17:34:13Z</time>
      </trkpt>
      <trkpt lat="41.843156" lon="1.037418">
        <ele>444.241</ele>
        <time>2021-06-20T17:34:18Z</time>
      </trkpt>
      <trkpt lat="41.843154" lon="1.037511">
        <ele>444.405</ele>
        <time>2021-06-20T17:34:20Z</time>
      </trkpt>
      <trkpt lat="41.843163" lon="1.037696">
        <ele>445.208</ele>
        <time>2021-06-20T17:34:24Z</time>
      </trkpt>
      <trkpt lat="41.843170" lon="1.037881">
        <ele>446.219</ele>
        <time>2021-06-20T17:34:28Z</time>
      </trkpt>
      <trkpt lat="41.843173" lon="1.037974">
        <ele>446.698</ele>
        <time>2021-06-20T17:34:30Z</time>
      </trkpt>
      <trkpt lat="41.843184" lon="1.038163">
        <ele>447.695</ele>
        <time>2021-06-20T17:34:34Z</time>
      </trkpt>
      <trkpt lat="41.843197" lon="1.038448">
        <ele>448.217</ele>
        <time>2021-06-20T17:34:39Z</time>
      </trkpt>
      <trkpt lat="41.843194" lon="1.038849">
        <ele>448.491</ele>
        <time>2021-06-20T17:34:44Z</time>
      </trkpt>
      <trkpt lat="41.843185" lon="1.039574">
        <ele>446.242</ele>
        <time>2021-06-20T17:34:52Z</time>
      </trkpt>
      <trkpt lat="41.843189" lon="1.039748">
        <ele>446.032</ele>
        <time>2021-06-20T17:34:54Z</time>
      </trkpt>
      <trkpt lat="41.843190" lon="1.039807">
        <ele>446.010</ele>
        <time>2021-06-20T17:34:55Z</time>
      </trkpt>
      <trkpt lat="41.843191" lon="1.039900">
        <ele>445.835</ele>
        <time>2021-06-20T17:34:57Z</time>
      </trkpt>
      <trkpt lat="41.843192" lon="1.040007">
        <ele>445.886</ele>
        <time>2021-06-20T17:34:59Z</time>
      </trkpt>
      <trkpt lat="41.843199" lon="1.040202">
        <ele>445.614</ele>
        <time>2021-06-20T17:35:02Z</time>
      </trkpt>
      <trkpt lat="41.843207" lon="1.040400">
        <ele>445.608</ele>
        <time>2021-06-20T17:35:05Z</time>
      </trkpt>
      <trkpt lat="41.843196" lon="1.040448">
        <ele>445.480</ele>
        <time>2021-06-20T17:35:06Z</time>
      </trkpt>
      <trkpt lat="41.843093" lon="1.040519">
        <ele>445.059</ele>
        <time>2021-06-20T17:35:09Z</time>
      </trkpt>
      <trkpt lat="41.843038" lon="1.040529">
        <ele>444.646</ele>
        <time>2021-06-20T17:35:10Z</time>
      </trkpt>
      <trkpt lat="41.842837" lon="1.040584">
        <ele>444.248</ele>
        <time>2021-06-20T17:35:13Z</time>
      </trkpt>
      <trkpt lat="41.842767" lon="1.040619">
        <ele>444.032</ele>
        <time>2021-06-20T17:35:14Z</time>
      </trkpt>
      <trkpt lat="41.842700" lon="1.040668">
        <ele>443.853</ele>
        <time>2021-06-20T17:35:15Z</time>
      </trkpt>
      <trkpt lat="41.842630" lon="1.040725">
        <ele>443.253</ele>
        <time>2021-06-20T17:35:16Z</time>
      </trkpt>
      <trkpt lat="41.842559" lon="1.040785">
        <ele>441.251</ele>
        <time>2021-06-20T17:35:17Z</time>
      </trkpt>
      <trkpt lat="41.842488" lon="1.040849">
        <ele>440.026</ele>
        <time>2021-06-20T17:35:18Z</time>
      </trkpt>
      <trkpt lat="41.842424" lon="1.040922">
        <ele>439.047</ele>
        <time>2021-06-20T17:35:19Z</time>
      </trkpt>
      <trkpt lat="41.842320" lon="1.041097">
        <ele>437.611</ele>
        <time>2021-06-20T17:35:21Z</time>
      </trkpt>
      <trkpt lat="41.842224" lon="1.041285">
        <ele>436.408</ele>
        <time>2021-06-20T17:35:23Z</time>
      </trkpt>
      <trkpt lat="41.842169" lon="1.041367">
        <ele>435.499</ele>
        <time>2021-06-20T17:35:24Z</time>
      </trkpt>
      <trkpt lat="41.842113" lon="1.041435">
        <ele>434.618</ele>
        <time>2021-06-20T17:35:25Z</time>
      </trkpt>
      <trkpt lat="41.842028" lon="1.041533">
        <ele>433.445</ele>
        <time>2021-06-20T17:35:27Z</time>
      </trkpt>
      <trkpt lat="41.842007" lon="1.041566">
        <ele>432.647</ele>
        <time>2021-06-20T17:35:28Z</time>
      </trkpt>
      <trkpt lat="41.841997" lon="1.041604">
        <ele>431.631</ele>
        <time>2021-06-20T17:35:29Z</time>
      </trkpt>
      <trkpt lat="41.842013" lon="1.041679">
        <ele>430.822</ele>
        <time>2021-06-20T17:35:31Z</time>
      </trkpt>
      <trkpt lat="41.842026" lon="1.041714">
        <ele>430.692</ele>
        <time>2021-06-20T17:35:32Z</time>
      </trkpt>
      <trkpt lat="41.842077" lon="1.041929">
        <ele>430.430</ele>
        <time>2021-06-20T17:35:38Z</time>
      </trkpt>
      <trkpt lat="41.842113" lon="1.042229">
        <ele>431.837</ele>
        <time>2021-06-20T17:35:47Z</time>
      </trkpt>
      <trkpt lat="41.842170" lon="1.042539">
        <ele>432.649</ele>
        <time>2021-06-20T17:35:53Z</time>
      </trkpt>
      <trkpt lat="41.842201" lon="1.042960">
        <ele>432.613</ele>
        <time>2021-06-20T17:35:59Z</time>
      </trkpt>
      <trkpt lat="41.842203" lon="1.043535">
        <ele>431.408</ele>
        <time>2021-06-20T17:36:06Z</time>
      </trkpt>
      <trkpt lat="41.842188" lon="1.043691">
        <ele>431.240</ele>
        <time>2021-06-20T17:36:08Z</time>
      </trkpt>
      <trkpt lat="41.842157" lon="1.043755">
        <ele>431.099</ele>
        <time>2021-06-20T17:36:09Z</time>
      </trkpt>
      <trkpt lat="41.842111" lon="1.043802">
        <ele>430.866</ele>
        <time>2021-06-20T17:36:10Z</time>
      </trkpt>
      <trkpt lat="41.841990" lon="1.043840">
        <ele>430.418</ele>
        <time>2021-06-20T17:36:12Z</time>
      </trkpt>
      <trkpt lat="41.841857" lon="1.043868">
        <ele>430.092</ele>
        <time>2021-06-20T17:36:14Z</time>
      </trkpt>
      <trkpt lat="41.841720" lon="1.043884">
        <ele>429.683</ele>
        <time>2021-06-20T17:36:16Z</time>
      </trkpt>
      <trkpt lat="41.841649" lon="1.043881">
        <ele>429.243</ele>
        <time>2021-06-20T17:36:17Z</time>
      </trkpt>
      <trkpt lat="41.841579" lon="1.043874">
        <ele>428.611</ele>
        <time>2021-06-20T17:36:18Z</time>
      </trkpt>
      <trkpt lat="41.841438" lon="1.043878">
        <ele>427.467</ele>
        <time>2021-06-20T17:36:20Z</time>
      </trkpt>
      <trkpt lat="41.841368" lon="1.043894">
        <ele>426.881</ele>
        <time>2021-06-20T17:36:21Z</time>
      </trkpt>
      <trkpt lat="41.841298" lon="1.043925">
        <ele>426.219</ele>
        <time>2021-06-20T17:36:22Z</time>
      </trkpt>
      <trkpt lat="41.841102" lon="1.044071">
        <ele>424.808</ele>
        <time>2021-06-20T17:36:25Z</time>
      </trkpt>
      <trkpt lat="41.840974" lon="1.044173">
        <ele>424.263</ele>
        <time>2021-06-20T17:36:27Z</time>
      </trkpt>
      <trkpt lat="41.840837" lon="1.044260">
        <ele>423.622</ele>
        <time>2021-06-20T17:36:29Z</time>
      </trkpt>
      <trkpt lat="41.840626" lon="1.044355">
        <ele>422.899</ele>
        <time>2021-06-20T17:36:32Z</time>
      </trkpt>
      <trkpt lat="41.840488" lon="1.044412">
        <ele>422.421</ele>
        <time>2021-06-20T17:36:34Z</time>
      </trkpt>
      <trkpt lat="41.840154" lon="1.044562">
        <ele>421.695</ele>
        <time>2021-06-20T17:36:39Z</time>
      </trkpt>
      <trkpt lat="41.840077" lon="1.044592">
        <ele>421.446</ele>
        <time>2021-06-20T17:36:40Z</time>
      </trkpt>
      <trkpt lat="41.839838" lon="1.044666">
        <ele>420.846</ele>
        <time>2021-06-20T17:36:43Z</time>
      </trkpt>
      <trkpt lat="41.839758" lon="1.044667">
        <ele>420.644</ele>
        <time>2021-06-20T17:36:44Z</time>
      </trkpt>
      <trkpt lat="41.839531" lon="1.044552">
        <ele>419.686</ele>
        <time>2021-06-20T17:36:47Z</time>
      </trkpt>
      <trkpt lat="41.839468" lon="1.044475">
        <ele>418.660</ele>
        <time>2021-06-20T17:36:48Z</time>
      </trkpt>
      <trkpt lat="41.839409" lon="1.044392">
        <ele>417.826</ele>
        <time>2021-06-20T17:36:49Z</time>
      </trkpt>
      <trkpt lat="41.839347" lon="1.044323">
        <ele>417.408</ele>
        <time>2021-06-20T17:36:50Z</time>
      </trkpt>
      <trkpt lat="41.839206" lon="1.044258">
        <ele>415.885</ele>
        <time>2021-06-20T17:36:52Z</time>
      </trkpt>
      <trkpt lat="41.839136" lon="1.044264">
        <ele>415.464</ele>
        <time>2021-06-20T17:36:53Z</time>
      </trkpt>
      <trkpt lat="41.839071" lon="1.044292">
        <ele>414.081</ele>
        <time>2021-06-20T17:36:54Z</time>
      </trkpt>
      <trkpt lat="41.838951" lon="1.044378">
        <ele>413.043</ele>
        <time>2021-06-20T17:36:56Z</time>
      </trkpt>
      <trkpt lat="41.838512" lon="1.044642">
        <ele>412.027</ele>
        <time>2021-06-20T17:37:03Z</time>
      </trkpt>
      <trkpt lat="41.838176" lon="1.044698">
        <ele>412.658</ele>
        <time>2021-06-20T17:37:08Z</time>
      </trkpt>
      <trkpt lat="41.837979" lon="1.044695">
        <ele>412.898</ele>
        <time>2021-06-20T17:37:11Z</time>
      </trkpt>
      <trkpt lat="41.837864" lon="1.044724">
        <ele>412.876</ele>
        <time>2021-06-20T17:37:13Z</time>
      </trkpt>
      <trkpt lat="41.837774" lon="1.044766">
        <ele>412.864</ele>
        <time>2021-06-20T17:37:15Z</time>
      </trkpt>
      <trkpt lat="41.837705" lon="1.044793">
        <ele>413.006</ele>
        <time>2021-06-20T17:37:17Z</time>
      </trkpt>
      <trkpt lat="41.837675" lon="1.044801">
        <ele>413.016</ele>
        <time>2021-06-20T17:37:18Z</time>
      </trkpt>
      <trkpt lat="41.837620" lon="1.044806">
        <ele>414.008</ele>
        <time>2021-06-20T17:37:20Z</time>
      </trkpt>
      <trkpt lat="41.837565" lon="1.044791">
        <ele>415.693</ele>
        <time>2021-06-20T17:37:22Z</time>
      </trkpt>
      <trkpt lat="41.837492" lon="1.044747">
        <ele>416.812</ele>
        <time>2021-06-20T17:37:25Z</time>
      </trkpt>
      <trkpt lat="41.837443" lon="1.044678">
        <ele>417.839</ele>
        <time>2021-06-20T17:37:28Z</time>
      </trkpt>
      <trkpt lat="41.837388" lon="1.044545">
        <ele>419.091</ele>
        <time>2021-06-20T17:37:33Z</time>
      </trkpt>
      <trkpt lat="41.837355" lon="1.044463">
        <ele>419.485</ele>
        <time>2021-06-20T17:37:36Z</time>
      </trkpt>
      <trkpt lat="41.837313" lon="1.044389">
        <ele>420.096</ele>
        <time>2021-06-20T17:37:39Z</time>
      </trkpt>
      <trkpt lat="41.837235" lon="1.044335">
        <ele>420.896</ele>
        <time>2021-06-20T17:37:43Z</time>
      </trkpt>
      <trkpt lat="41.837164" lon="1.044325">
        <ele>421.084</ele>
        <time>2021-06-20T17:37:46Z</time>
      </trkpt>
      <trkpt lat="41.837073" lon="1.044360">
        <ele>421.836</ele>
        <time>2021-06-20T17:37:50Z</time>
      </trkpt>
      <trkpt lat="41.836992" lon="1.044405">
        <ele>422.017</ele>
        <time>2021-06-20T17:37:54Z</time>
      </trkpt>
      <trkpt lat="41.836918" lon="1.044428">
        <ele>422.218</ele>
        <time>2021-06-20T17:37:57Z</time>
      </trkpt>
      <trkpt lat="41.836781" lon="1.044361">
        <ele>422.208</ele>
        <time>2021-06-20T17:38:01Z</time>
      </trkpt>
      <trkpt lat="41.836675" lon="1.044268">
        <ele>422.230</ele>
        <time>2021-06-20T17:38:04Z</time>
      </trkpt>
      <trkpt lat="41.836592" lon="1.044117">
        <ele>421.819</ele>
        <time>2021-06-20T17:38:07Z</time>
      </trkpt>
      <trkpt lat="41.836541" lon="1.043991">
        <ele>420.866</ele>
        <time>2021-06-20T17:38:09Z</time>
      </trkpt>
      <trkpt lat="41.836444" lon="1.043791">
        <ele>419.638</ele>
        <time>2021-06-20T17:38:12Z</time>
      </trkpt>
      <trkpt lat="41.836407" lon="1.043722">
        <ele>419.092</ele>
        <time>2021-06-20T17:38:13Z</time>
      </trkpt>
      <trkpt lat="41.836337" lon="1.043576">
        <ele>418.223</ele>
        <time>2021-06-20T17:38:15Z</time>
      </trkpt>
      <trkpt lat="41.836298" lon="1.043509">
        <ele>417.483</ele>
        <time>2021-06-20T17:38:16Z</time>
      </trkpt>
      <trkpt lat="41.836250" lon="1.043454">
        <ele>417.011</ele>
        <time>2021-06-20T17:38:17Z</time>
      </trkpt>
      <trkpt lat="41.836195" lon="1.043413">
        <ele>416.874</ele>
        <time>2021-06-20T17:38:18Z</time>
      </trkpt>
      <trkpt lat="41.836076" lon="1.043369">
        <ele>416.256</ele>
        <time>2021-06-20T17:38:20Z</time>
      </trkpt>
      <trkpt lat="41.836016" lon="1.043349">
        <ele>415.821</ele>
        <time>2021-06-20T17:38:21Z</time>
      </trkpt>
      <trkpt lat="41.835953" lon="1.043322">
        <ele>415.608</ele>
        <time>2021-06-20T17:38:22Z</time>
      </trkpt>
      <trkpt lat="41.835823" lon="1.043251">
        <ele>414.844</ele>
        <time>2021-06-20T17:38:24Z</time>
      </trkpt>
      <trkpt lat="41.835615" lon="1.043151">
        <ele>413.613</ele>
        <time>2021-06-20T17:38:27Z</time>
      </trkpt>
      <trkpt lat="41.835542" lon="1.043124">
        <ele>413.490</ele>
        <time>2021-06-20T17:38:28Z</time>
      </trkpt>
      <trkpt lat="41.835312" lon="1.043067">
        <ele>411.842</ele>
        <time>2021-06-20T17:38:31Z</time>
      </trkpt>
      <trkpt lat="41.835161" lon="1.043085">
        <ele>410.436</ele>
        <time>2021-06-20T17:38:33Z</time>
      </trkpt>
      <trkpt lat="41.835021" lon="1.043146">
        <ele>409.227</ele>
        <time>2021-06-20T17:38:35Z</time>
      </trkpt>
      <trkpt lat="41.834825" lon="1.043265">
        <ele>407.647</ele>
        <time>2021-06-20T17:38:38Z</time>
      </trkpt>
      <trkpt lat="41.834475" lon="1.043566">
        <ele>406.685</ele>
        <time>2021-06-20T17:38:44Z</time>
      </trkpt>
      <trkpt lat="41.834412" lon="1.043600">
        <ele>406.629</ele>
        <time>2021-06-20T17:38:45Z</time>
      </trkpt>
      <trkpt lat="41.834348" lon="1.043621">
        <ele>406.600</ele>
        <time>2021-06-20T17:38:46Z</time>
      </trkpt>
      <trkpt lat="41.834219" lon="1.043621">
        <ele>406.620</ele>
        <time>2021-06-20T17:38:48Z</time>
      </trkpt>
      <trkpt lat="41.834156" lon="1.043609">
        <ele>406.608</ele>
        <time>2021-06-20T17:38:49Z</time>
      </trkpt>
      <trkpt lat="41.833740" lon="1.043514">
        <ele>406.839</ele>
        <time>2021-06-20T17:38:56Z</time>
      </trkpt>
      <trkpt lat="41.833432" lon="1.043442">
        <ele>407.068</ele>
        <time>2021-06-20T17:39:02Z</time>
      </trkpt>
      <trkpt lat="41.833310" lon="1.043343">
        <ele>407.465</ele>
        <time>2021-06-20T17:39:06Z</time>
      </trkpt>
      <trkpt lat="41.833289" lon="1.043314">
        <ele>407.827</ele>
        <time>2021-06-20T17:39:07Z</time>
      </trkpt>
      <trkpt lat="41.833254" lon="1.043250">
        <ele>408.851</ele>
        <time>2021-06-20T17:39:09Z</time>
      </trkpt>
      <trkpt lat="41.833227" lon="1.043183">
        <ele>409.832</ele>
        <time>2021-06-20T17:39:11Z</time>
      </trkpt>
      <trkpt lat="41.833215" lon="1.043150">
        <ele>410.442</ele>
        <time>2021-06-20T17:39:12Z</time>
      </trkpt>
      <trkpt lat="41.833195" lon="1.043085">
        <ele>411.070</ele>
        <time>2021-06-20T17:39:14Z</time>
      </trkpt>
      <trkpt lat="41.833150" lon="1.042848">
        <ele>412.046</ele>
        <time>2021-06-20T17:39:20Z</time>
      </trkpt>
      <trkpt lat="41.833126" lon="1.042760">
        <ele>412.288</ele>
        <time>2021-06-20T17:39:22Z</time>
      </trkpt>
      <trkpt lat="41.833043" lon="1.042570">
        <ele>412.616</ele>
        <time>2021-06-20T17:39:27Z</time>
      </trkpt>
      <trkpt lat="41.832923" lon="1.042423">
        <ele>413.008</ele>
        <time>2021-06-20T17:39:33Z</time>
      </trkpt>
      <trkpt lat="41.832866" lon="1.042389">
        <ele>413.221</ele>
        <time>2021-06-20T17:39:35Z</time>
      </trkpt>
      <trkpt lat="41.832761" lon="1.042372">
        <ele>413.660</ele>
        <time>2021-06-20T17:39:38Z</time>
      </trkpt>
      <trkpt lat="41.832720" lon="1.042379">
        <ele>413.687</ele>
        <time>2021-06-20T17:39:39Z</time>
      </trkpt>
      <trkpt lat="41.832535" lon="1.042428">
        <ele>413.699</ele>
        <time>2021-06-20T17:39:43Z</time>
      </trkpt>
      <trkpt lat="41.832491" lon="1.042435">
        <ele>413.643</ele>
        <time>2021-06-20T17:39:44Z</time>
      </trkpt>
      <trkpt lat="41.832344" lon="1.042462">
        <ele>413.894</ele>
        <time>2021-06-20T17:39:48Z</time>
      </trkpt>
      <trkpt lat="41.832220" lon="1.042503">
        <ele>413.844</ele>
        <time>2021-06-20T17:39:54Z</time>
      </trkpt>
      <trkpt lat="41.832179" lon="1.042516">
        <ele>414.292</ele>
        <time>2021-06-20T17:39:56Z</time>
      </trkpt>
      <trkpt lat="41.832055" lon="1.042491">
        <ele>415.244</ele>
        <time>2021-06-20T17:40:01Z</time>
      </trkpt>
      <trkpt lat="41.831979" lon="1.042464">
        <ele>415.205</ele>
        <time>2021-06-20T17:40:04Z</time>
      </trkpt>
      <trkpt lat="41.831974" lon="1.042462">
        <ele>415.215</ele>
        <time>2021-06-20T17:40:05Z</time>
      </trkpt>
      <trkpt lat="41.831974" lon="1.042463">
        <ele>415.208</ele>
        <time>2021-06-20T17:40:06Z</time>
      </trkpt>
      <trkpt lat="41.831957" lon="1.042445">
        <ele>415.651</ele>
        <time>2021-06-20T17:41:02Z</time>
      </trkpt>
      <trkpt lat="41.831920" lon="1.042424">
        <ele>415.660</ele>
        <time>2021-06-20T17:41:04Z</time>
      </trkpt>
      <trkpt lat="41.831774" lon="1.042325">
        <ele>415.617</ele>
        <time>2021-06-20T17:41:09Z</time>
      </trkpt>
      <trkpt lat="41.831529" lon="1.042185">
        <ele>414.649</ele>
        <time>2021-06-20T17:41:14Z</time>
      </trkpt>
      <trkpt lat="41.831479" lon="1.042144">
        <ele>414.243</ele>
        <time>2021-06-20T17:41:15Z</time>
      </trkpt>
      <trkpt lat="41.831388" lon="1.042044">
        <ele>413.674</ele>
        <time>2021-06-20T17:41:17Z</time>
      </trkpt>
      <trkpt lat="41.831348" lon="1.041991">
        <ele>413.044</ele>
        <time>2021-06-20T17:41:18Z</time>
      </trkpt>
      <trkpt lat="41.831308" lon="1.041950">
        <ele>412.632</ele>
        <time>2021-06-20T17:41:19Z</time>
      </trkpt>
      <trkpt lat="41.831229" lon="1.041932">
        <ele>411.082</ele>
        <time>2021-06-20T17:41:21Z</time>
      </trkpt>
      <trkpt lat="41.831197" lon="1.041959">
        <ele>410.043</ele>
        <time>2021-06-20T17:41:22Z</time>
      </trkpt>
      <trkpt lat="41.831171" lon="1.042003">
        <ele>408.817</ele>
        <time>2021-06-20T17:41:23Z</time>
      </trkpt>
      <trkpt lat="41.831151" lon="1.042054">
        <ele>407.808</ele>
        <time>2021-06-20T17:41:24Z</time>
      </trkpt>
      <trkpt lat="41.831132" lon="1.042108">
        <ele>407.285</ele>
        <time>2021-06-20T17:41:25Z</time>
      </trkpt>
      <trkpt lat="41.831105" lon="1.042160">
        <ele>406.894</ele>
        <time>2021-06-20T17:41:26Z</time>
      </trkpt>
      <trkpt lat="41.830933" lon="1.042307">
        <ele>406.051</ele>
        <time>2021-06-20T17:41:30Z</time>
      </trkpt>
      <trkpt lat="41.830843" lon="1.042337">
        <ele>405.633</ele>
        <time>2021-06-20T17:41:32Z</time>
      </trkpt>
      <trkpt lat="41.830798" lon="1.042344">
        <ele>405.417</ele>
        <time>2021-06-20T17:41:33Z</time>
      </trkpt>
      <trkpt lat="41.830703" lon="1.042361">
        <ele>405.078</ele>
        <time>2021-06-20T17:41:35Z</time>
      </trkpt>
      <trkpt lat="41.830606" lon="1.042380">
        <ele>404.438</ele>
        <time>2021-06-20T17:41:37Z</time>
      </trkpt>
      <trkpt lat="41.830261" lon="1.042398">
        <ele>404.096</ele>
        <time>2021-06-20T17:41:44Z</time>
      </trkpt>
      <trkpt lat="41.830213" lon="1.042404">
        <ele>404.093</ele>
        <time>2021-06-20T17:41:45Z</time>
      </trkpt>
      <trkpt lat="41.830085" lon="1.042471">
        <ele>404.065</ele>
        <time>2021-06-20T17:41:48Z</time>
      </trkpt>
      <trkpt lat="41.829939" lon="1.042618">
        <ele>404.621</ele>
        <time>2021-06-20T17:41:53Z</time>
      </trkpt>
      <trkpt lat="41.829888" lon="1.042681">
        <ele>405.608</ele>
        <time>2021-06-20T17:41:56Z</time>
      </trkpt>
      <trkpt lat="41.829846" lon="1.042727">
        <ele>406.456</ele>
        <time>2021-06-20T17:41:59Z</time>
      </trkpt>
      <trkpt lat="41.829831" lon="1.042740">
        <ele>406.855</ele>
        <time>2021-06-20T17:42:00Z</time>
      </trkpt>
      <trkpt lat="41.829758" lon="1.042800">
        <ele>407.852</ele>
        <time>2021-06-20T17:42:05Z</time>
      </trkpt>
      <trkpt lat="41.829710" lon="1.042820">
        <ele>408.694</ele>
        <time>2021-06-20T17:42:08Z</time>
      </trkpt>
      <trkpt lat="41.829679" lon="1.042834">
        <ele>409.028</ele>
        <time>2021-06-20T17:42:10Z</time>
      </trkpt>
      <trkpt lat="41.829578" lon="1.042864">
        <ele>410.279</ele>
        <time>2021-06-20T17:42:16Z</time>
      </trkpt>
      <trkpt lat="41.829386" lon="1.042905">
        <ele>411.279</ele>
        <time>2021-06-20T17:42:26Z</time>
      </trkpt>
      <trkpt lat="41.829169" lon="1.042940">
        <ele>411.877</ele>
        <time>2021-06-20T17:42:37Z</time>
      </trkpt>
      <trkpt lat="41.829094" lon="1.042985">
        <ele>412.422</ele>
        <time>2021-06-20T17:42:42Z</time>
      </trkpt>
      <trkpt lat="41.829053" lon="1.043017">
        <ele>413.262</ele>
        <time>2021-06-20T17:42:45Z</time>
      </trkpt>
      <trkpt lat="41.829040" lon="1.043027">
        <ele>413.408</ele>
        <time>2021-06-20T17:42:46Z</time>
      </trkpt>
      <trkpt lat="41.828990" lon="1.043084">
        <ele>414.608</ele>
        <time>2021-06-20T17:42:50Z</time>
      </trkpt>
      <trkpt lat="41.828944" lon="1.043163">
        <ele>415.459</ele>
        <time>2021-06-20T17:42:54Z</time>
      </trkpt>
      <trkpt lat="41.828937" lon="1.043192">
        <ele>415.618</ele>
        <time>2021-06-20T17:42:55Z</time>
      </trkpt>
      <trkpt lat="41.828913" lon="1.043387">
        <ele>416.425</ele>
        <time>2021-06-20T17:43:01Z</time>
      </trkpt>
      <trkpt lat="41.828876" lon="1.043490">
        <ele>416.647</ele>
        <time>2021-06-20T17:43:04Z</time>
      </trkpt>
      <trkpt lat="41.828822" lon="1.043515">
        <ele>416.611</ele>
        <time>2021-06-20T17:43:06Z</time>
      </trkpt>
      <trkpt lat="41.828739" lon="1.043520">
        <ele>416.622</ele>
        <time>2021-06-20T17:43:09Z</time>
      </trkpt>
      <trkpt lat="41.828635" lon="1.043500">
        <ele>416.842</ele>
        <time>2021-06-20T17:43:13Z</time>
      </trkpt>
      <trkpt lat="41.828443" lon="1.043560">
        <ele>417.430</ele>
        <time>2021-06-20T17:43:20Z</time>
      </trkpt>
      <trkpt lat="41.828280" lon="1.043661">
        <ele>417.413</ele>
        <time>2021-06-20T17:43:24Z</time>
      </trkpt>
      <trkpt lat="41.828226" lon="1.043683">
        <ele>417.443</ele>
        <time>2021-06-20T17:43:25Z</time>
      </trkpt>
      <trkpt lat="41.828040" lon="1.043727">
        <ele>417.407</ele>
        <time>2021-06-20T17:43:28Z</time>
      </trkpt>
      <trkpt lat="41.827906" lon="1.043747">
        <ele>417.208</ele>
        <time>2021-06-20T17:43:30Z</time>
      </trkpt>
      <trkpt lat="41.827696" lon="1.043801">
        <ele>415.228</ele>
        <time>2021-06-20T17:43:33Z</time>
      </trkpt>
      <trkpt lat="41.827554" lon="1.043864">
        <ele>414.097</ele>
        <time>2021-06-20T17:43:35Z</time>
      </trkpt>
      <trkpt lat="41.827351" lon="1.043984">
        <ele>412.634</ele>
        <time>2021-06-20T17:43:38Z</time>
      </trkpt>
      <trkpt lat="41.827287" lon="1.044024">
        <ele>411.296</ele>
        <time>2021-06-20T17:43:39Z</time>
      </trkpt>
      <trkpt lat="41.827164" lon="1.044092">
        <ele>410.470</ele>
        <time>2021-06-20T17:43:41Z</time>
      </trkpt>
      <trkpt lat="41.827102" lon="1.044115">
        <ele>410.291</ele>
        <time>2021-06-20T17:43:42Z</time>
      </trkpt>
      <trkpt lat="41.827043" lon="1.044126">
        <ele>410.061</ele>
        <time>2021-06-20T17:43:43Z</time>
      </trkpt>
      <trkpt lat="41.826931" lon="1.044132">
        <ele>410.079</ele>
        <time>2021-06-20T17:43:45Z</time>
      </trkpt>
      <trkpt lat="41.826879" lon="1.044141">
        <ele>410.062</ele>
        <time>2021-06-20T17:43:46Z</time>
      </trkpt>
      <trkpt lat="41.826703" lon="1.044205">
        <ele>410.083</ele>
        <time>2021-06-20T17:43:50Z</time>
      </trkpt>
      <trkpt lat="41.826613" lon="1.044229">
        <ele>410.211</ele>
        <time>2021-06-20T17:43:52Z</time>
      </trkpt>
      <trkpt lat="41.826518" lon="1.044211">
        <ele>410.808</ele>
        <time>2021-06-20T17:43:54Z</time>
      </trkpt>
      <trkpt lat="41.826370" lon="1.044089">
        <ele>411.093</ele>
        <time>2021-06-20T17:43:57Z</time>
      </trkpt>
      <trkpt lat="41.826314" lon="1.044041">
        <ele>411.092</ele>
        <time>2021-06-20T17:43:58Z</time>
      </trkpt>
      <trkpt lat="41.826113" lon="1.043978">
        <ele>411.039</ele>
        <time>2021-06-20T17:44:01Z</time>
      </trkpt>
      <trkpt lat="41.825890" lon="1.044038">
        <ele>410.811</ele>
        <time>2021-06-20T17:44:04Z</time>
      </trkpt>
      <trkpt lat="41.825816" lon="1.044072">
        <ele>410.045</ele>
        <time>2021-06-20T17:44:05Z</time>
      </trkpt>
      <trkpt lat="41.825745" lon="1.044120">
        <ele>408.276</ele>
        <time>2021-06-20T17:44:06Z</time>
      </trkpt>
      <trkpt lat="41.825611" lon="1.044256">
        <ele>406.656</ele>
        <time>2021-06-20T17:44:08Z</time>
      </trkpt>
      <trkpt lat="41.825545" lon="1.044333">
        <ele>406.214</ele>
        <time>2021-06-20T17:44:09Z</time>
      </trkpt>
      <trkpt lat="41.825477" lon="1.044413">
        <ele>405.468</ele>
        <time>2021-06-20T17:44:10Z</time>
      </trkpt>
      <trkpt lat="41.825334" lon="1.044582">
        <ele>403.642</ele>
        <time>2021-06-20T17:44:12Z</time>
      </trkpt>
      <trkpt lat="41.825173" lon="1.044738">
        <ele>402.026</ele>
        <time>2021-06-20T17:44:14Z</time>
      </trkpt>
      <trkpt lat="41.824993" lon="1.044860">
        <ele>401.008</ele>
        <time>2021-06-20T17:44:16Z</time>
      </trkpt>
      <trkpt lat="41.824804" lon="1.044951">
        <ele>399.493</ele>
        <time>2021-06-20T17:44:18Z</time>
      </trkpt>
      <trkpt lat="41.824623" lon="1.045030">
        <ele>397.442</ele>
        <time>2021-06-20T17:44:20Z</time>
      </trkpt>
      <trkpt lat="41.824536" lon="1.045074">
        <ele>396.079</ele>
        <time>2021-06-20T17:44:21Z</time>
      </trkpt>
      <trkpt lat="41.824452" lon="1.045116">
        <ele>394.421</ele>
        <time>2021-06-20T17:44:22Z</time>
      </trkpt>
      <trkpt lat="41.824370" lon="1.045152">
        <ele>392.825</ele>
        <time>2021-06-20T17:44:23Z</time>
      </trkpt>
      <trkpt lat="41.824212" lon="1.045197">
        <ele>391.436</ele>
        <time>2021-06-20T17:44:25Z</time>
      </trkpt>
      <trkpt lat="41.824062" lon="1.045223">
        <ele>391.036</ele>
        <time>2021-06-20T17:44:27Z</time>
      </trkpt>
      <trkpt lat="41.823582" lon="1.045394">
        <ele>391.084</ele>
        <time>2021-06-20T17:44:34Z</time>
      </trkpt>
      <trkpt lat="41.823115" lon="1.045593">
        <ele>391.423</ele>
        <time>2021-06-20T17:44:41Z</time>
      </trkpt>
      <trkpt lat="41.823044" lon="1.045601">
        <ele>391.483</ele>
        <time>2021-06-20T17:44:42Z</time>
      </trkpt>
      <trkpt lat="41.822666" lon="1.045561">
        <ele>391.211</ele>
        <time>2021-06-20T17:44:47Z</time>
      </trkpt>
      <trkpt lat="41.822432" lon="1.045550">
        <ele>390.208</ele>
        <time>2021-06-20T17:44:50Z</time>
      </trkpt>
      <trkpt lat="41.822280" lon="1.045580">
        <ele>388.669</ele>
        <time>2021-06-20T17:44:52Z</time>
      </trkpt>
      <trkpt lat="41.821952" lon="1.045711">
        <ele>387.828</ele>
        <time>2021-06-20T17:44:57Z</time>
      </trkpt>
      <trkpt lat="41.821900" lon="1.045748">
        <ele>387.845</ele>
        <time>2021-06-20T17:44:58Z</time>
      </trkpt>
      <trkpt lat="41.821794" lon="1.045900">
        <ele>387.867</ele>
        <time>2021-06-20T17:45:01Z</time>
      </trkpt>
      <trkpt lat="41.821774" lon="1.045956">
        <ele>387.841</ele>
        <time>2021-06-20T17:45:02Z</time>
      </trkpt>
      <trkpt lat="41.821690" lon="1.046282">
        <ele>389.832</ele>
        <time>2021-06-20T17:45:08Z</time>
      </trkpt>
      <trkpt lat="41.821675" lon="1.046336">
        <ele>390.882</ele>
        <time>2021-06-20T17:45:09Z</time>
      </trkpt>
      <trkpt lat="41.821656" lon="1.046387">
        <ele>391.470</ele>
        <time>2021-06-20T17:45:10Z</time>
      </trkpt>
      <trkpt lat="41.821562" lon="1.046580">
        <ele>392.441</ele>
        <time>2021-06-20T17:45:14Z</time>
      </trkpt>
      <trkpt lat="41.821319" lon="1.046956">
        <ele>392.881</ele>
        <time>2021-06-20T17:45:23Z</time>
      </trkpt>
      <trkpt lat="41.821154" lon="1.047274">
        <ele>393.609</ele>
        <time>2021-06-20T17:45:30Z</time>
      </trkpt>
      <trkpt lat="41.821117" lon="1.047375">
        <ele>393.808</ele>
        <time>2021-06-20T17:45:32Z</time>
      </trkpt>
      <trkpt lat="41.821086" lon="1.047477">
        <ele>394.061</ele>
        <time>2021-06-20T17:45:34Z</time>
      </trkpt>
      <trkpt lat="41.821036" lon="1.047709">
        <ele>394.440</ele>
        <time>2021-06-20T17:45:38Z</time>
      </trkpt>
      <trkpt lat="41.820917" lon="1.048208">
        <ele>394.427</ele>
        <time>2021-06-20T17:45:45Z</time>
      </trkpt>
      <trkpt lat="41.820894" lon="1.048714">
        <ele>393.459</ele>
        <time>2021-06-20T17:45:51Z</time>
      </trkpt>
      <trkpt lat="41.820889" lon="1.049062">
        <ele>392.813</ele>
        <time>2021-06-20T17:45:55Z</time>
      </trkpt>
      <trkpt lat="41.820913" lon="1.049599">
        <ele>392.484</ele>
        <time>2021-06-20T17:46:01Z</time>
      </trkpt>
      <trkpt lat="41.820944" lon="1.050322">
        <ele>392.234</ele>
        <time>2021-06-20T17:46:09Z</time>
      </trkpt>
      <trkpt lat="41.820893" lon="1.050652">
        <ele>392.292</ele>
        <time>2021-06-20T17:46:13Z</time>
      </trkpt>
      <trkpt lat="41.820870" lon="1.050726">
        <ele>392.214</ele>
        <time>2021-06-20T17:46:14Z</time>
      </trkpt>
      <trkpt lat="41.820819" lon="1.050873">
        <ele>392.454</ele>
        <time>2021-06-20T17:46:16Z</time>
      </trkpt>
      <trkpt lat="41.820705" lon="1.051089">
        <ele>392.409</ele>
        <time>2021-06-20T17:46:19Z</time>
      </trkpt>
      <trkpt lat="41.820522" lon="1.051549">
        <ele>392.608</ele>
        <time>2021-06-20T17:46:25Z</time>
      </trkpt>
      <trkpt lat="41.820419" lon="1.052047">
        <ele>392.658</ele>
        <time>2021-06-20T17:46:31Z</time>
      </trkpt>
      <trkpt lat="41.820213" lon="1.052784">
        <ele>392.487</ele>
        <time>2021-06-20T17:46:40Z</time>
      </trkpt>
      <trkpt lat="41.819970" lon="1.053500">
        <ele>392.074</ele>
        <time>2021-06-20T17:46:49Z</time>
      </trkpt>
      <trkpt lat="41.819816" lon="1.053977">
        <ele>392.286</ele>
        <time>2021-06-20T17:46:56Z</time>
      </trkpt>
      <trkpt lat="41.819716" lon="1.054082">
        <ele>392.650</ele>
        <time>2021-06-20T17:47:00Z</time>
      </trkpt>
      <trkpt lat="41.819655" lon="1.054143">
        <ele>393.411</ele>
        <time>2021-06-20T17:47:03Z</time>
      </trkpt>
      <trkpt lat="41.819627" lon="1.054204">
        <ele>393.871</ele>
        <time>2021-06-20T17:47:05Z</time>
      </trkpt>
      <trkpt lat="41.819585" lon="1.054272">
        <ele>394.219</ele>
        <time>2021-06-20T17:47:07Z</time>
      </trkpt>
      <trkpt lat="41.819494" lon="1.054411">
        <ele>394.223</ele>
        <time>2021-06-20T17:47:10Z</time>
      </trkpt>
      <trkpt lat="41.819253" lon="1.054785">
        <ele>394.283</ele>
        <time>2021-06-20T17:47:17Z</time>
      </trkpt>
      <trkpt lat="41.819024" lon="1.055211">
        <ele>394.011</ele>
        <time>2021-06-20T17:47:24Z</time>
      </trkpt>
      <trkpt lat="41.818846" lon="1.055705">
        <ele>393.608</ele>
        <time>2021-06-20T17:47:31Z</time>
      </trkpt>
      <trkpt lat="41.818620" lon="1.056043">
        <ele>393.229</ele>
        <time>2021-06-20T17:47:36Z</time>
      </trkpt>
      <trkpt lat="41.818406" lon="1.056306">
        <ele>392.648</ele>
        <time>2021-06-20T17:47:40Z</time>
      </trkpt>
      <trkpt lat="41.818296" lon="1.056439">
        <ele>391.295</ele>
        <time>2021-06-20T17:47:42Z</time>
      </trkpt>
      <trkpt lat="41.818239" lon="1.056503">
        <ele>390.857</ele>
        <time>2021-06-20T17:47:43Z</time>
      </trkpt>
      <trkpt lat="41.818061" lon="1.056684">
        <ele>390.281</ele>
        <time>2021-06-20T17:47:46Z</time>
      </trkpt>
      <trkpt lat="41.817938" lon="1.056794">
        <ele>388.812</ele>
        <time>2021-06-20T17:47:48Z</time>
      </trkpt>
      <trkpt lat="41.817812" lon="1.056891">
        <ele>386.812</ele>
        <time>2021-06-20T17:47:50Z</time>
      </trkpt>
      <trkpt lat="41.817621" lon="1.057035">
        <ele>385.260</ele>
        <time>2021-06-20T17:47:53Z</time>
      </trkpt>
      <trkpt lat="41.817490" lon="1.057126">
        <ele>384.048</ele>
        <time>2021-06-20T17:47:55Z</time>
      </trkpt>
      <trkpt lat="41.817287" lon="1.057257">
        <ele>383.261</ele>
        <time>2021-06-20T17:47:58Z</time>
      </trkpt>
      <trkpt lat="41.817151" lon="1.057343">
        <ele>383.017</ele>
        <time>2021-06-20T17:48:00Z</time>
      </trkpt>
      <trkpt lat="41.816664" lon="1.057658">
        <ele>382.808</ele>
        <time>2021-06-20T17:48:07Z</time>
      </trkpt>
      <trkpt lat="41.816595" lon="1.057708">
        <ele>382.881</ele>
        <time>2021-06-20T17:48:08Z</time>
      </trkpt>
      <trkpt lat="41.816466" lon="1.057824">
        <ele>382.680</ele>
        <time>2021-06-20T17:48:10Z</time>
      </trkpt>
      <trkpt lat="41.816363" lon="1.057977">
        <ele>382.617</ele>
        <time>2021-06-20T17:48:12Z</time>
      </trkpt>
      <trkpt lat="41.816272" lon="1.058275">
        <ele>382.649</ele>
        <time>2021-06-20T17:48:15Z</time>
      </trkpt>
      <trkpt lat="41.816113" lon="1.058799">
        <ele>382.453</ele>
        <time>2021-06-20T17:48:20Z</time>
      </trkpt>
      <trkpt lat="41.816072" lon="1.058894">
        <ele>382.284</ele>
        <time>2021-06-20T17:48:21Z</time>
      </trkpt>
      <trkpt lat="41.815915" lon="1.059258">
        <ele>382.094</ele>
        <time>2021-06-20T17:48:25Z</time>
      </trkpt>
      <trkpt lat="41.815787" lon="1.059743">
        <ele>382.092</ele>
        <time>2021-06-20T17:48:30Z</time>
      </trkpt>
      <trkpt lat="41.815718" lon="1.060283">
        <ele>381.672</ele>
        <time>2021-06-20T17:48:35Z</time>
      </trkpt>
      <trkpt lat="41.815722" lon="1.060400">
        <ele>381.613</ele>
        <time>2021-06-20T17:48:36Z</time>
      </trkpt>
      <trkpt lat="41.815738" lon="1.060637">
        <ele>381.014</ele>
        <time>2021-06-20T17:48:38Z</time>
      </trkpt>
      <trkpt lat="41.815739" lon="1.060758">
        <ele>380.608</ele>
        <time>2021-06-20T17:48:39Z</time>
      </trkpt>
      <trkpt lat="41.815723" lon="1.061003">
        <ele>380.224</ele>
        <time>2021-06-20T17:48:41Z</time>
      </trkpt>
      <trkpt lat="41.815710" lon="1.061127">
        <ele>380.063</ele>
        <time>2021-06-20T17:48:42Z</time>
      </trkpt>
      <trkpt lat="41.815669" lon="1.061368">
        <ele>379.660</ele>
        <time>2021-06-20T17:48:44Z</time>
      </trkpt>
      <trkpt lat="41.815594" lon="1.061591">
        <ele>378.442</ele>
        <time>2021-06-20T17:48:46Z</time>
      </trkpt>
      <trkpt lat="41.815491" lon="1.061786">
        <ele>377.626</ele>
        <time>2021-06-20T17:48:48Z</time>
      </trkpt>
      <trkpt lat="41.815440" lon="1.061881">
        <ele>376.897</ele>
        <time>2021-06-20T17:48:49Z</time>
      </trkpt>
      <trkpt lat="41.815341" lon="1.062069">
        <ele>375.827</ele>
        <time>2021-06-20T17:48:51Z</time>
      </trkpt>
      <trkpt lat="41.815296" lon="1.062163">
        <ele>375.625</ele>
        <time>2021-06-20T17:48:52Z</time>
      </trkpt>
      <trkpt lat="41.815072" lon="1.062737">
        <ele>375.297</ele>
        <time>2021-06-20T17:48:58Z</time>
      </trkpt>
      <trkpt lat="41.814873" lon="1.063432">
        <ele>375.423</ele>
        <time>2021-06-20T17:49:05Z</time>
      </trkpt>
      <trkpt lat="41.814670" lon="1.064183">
        <ele>375.625</ele>
        <time>2021-06-20T17:49:13Z</time>
      </trkpt>
      <trkpt lat="41.814554" lon="1.064561">
        <ele>375.608</ele>
        <time>2021-06-20T17:49:18Z</time>
      </trkpt>
      <trkpt lat="41.814432" lon="1.064999">
        <ele>376.876</ele>
        <time>2021-06-20T17:49:25Z</time>
      </trkpt>
      <trkpt lat="41.814414" lon="1.065063">
        <ele>377.235</ele>
        <time>2021-06-20T17:49:26Z</time>
      </trkpt>
      <trkpt lat="41.814374" lon="1.065196">
        <ele>378.062</ele>
        <time>2021-06-20T17:49:28Z</time>
      </trkpt>
      <trkpt lat="41.814225" lon="1.065697">
        <ele>378.424</ele>
        <time>2021-06-20T17:49:35Z</time>
      </trkpt>
      <trkpt lat="41.814039" lon="1.066337">
        <ele>377.418</ele>
        <time>2021-06-20T17:49:43Z</time>
      </trkpt>
      <trkpt lat="41.813941" lon="1.066673">
        <ele>377.049</ele>
        <time>2021-06-20T17:49:47Z</time>
      </trkpt>
      <trkpt lat="41.813776" lon="1.067163">
        <ele>376.239</ele>
        <time>2021-06-20T17:49:53Z</time>
      </trkpt>
      <trkpt lat="41.813686" lon="1.067408">
        <ele>375.867</ele>
        <time>2021-06-20T17:49:56Z</time>
      </trkpt>
      <trkpt lat="41.813554" lon="1.067738">
        <ele>375.423</ele>
        <time>2021-06-20T17:50:00Z</time>
      </trkpt>
      <trkpt lat="41.813284" lon="1.068303">
        <ele>375.083</ele>
        <time>2021-06-20T17:50:07Z</time>
      </trkpt>
      <trkpt lat="41.813240" lon="1.068376">
        <ele>374.811</ele>
        <time>2021-06-20T17:50:08Z</time>
      </trkpt>
      <trkpt lat="41.812996" lon="1.068677">
        <ele>374.008</ele>
        <time>2021-06-20T17:50:13Z</time>
      </trkpt>
      <trkpt lat="41.812943" lon="1.068720">
        <ele>373.879</ele>
        <time>2021-06-20T17:50:14Z</time>
      </trkpt>
      <trkpt lat="41.812889" lon="1.068752">
        <ele>373.848</ele>
        <time>2021-06-20T17:50:15Z</time>
      </trkpt>
      <trkpt lat="41.812785" lon="1.068800">
        <ele>373.435</ele>
        <time>2021-06-20T17:50:17Z</time>
      </trkpt>
      <trkpt lat="41.812742" lon="1.068837">
        <ele>373.487</ele>
        <time>2021-06-20T17:50:18Z</time>
      </trkpt>
      <trkpt lat="41.812660" lon="1.068995">
        <ele>373.271</ele>
        <time>2021-06-20T17:50:21Z</time>
      </trkpt>
      <trkpt lat="41.812639" lon="1.069055">
        <ele>373.262</ele>
        <time>2021-06-20T17:50:22Z</time>
      </trkpt>
      <trkpt lat="41.812579" lon="1.069301">
        <ele>373.292</ele>
        <time>2021-06-20T17:50:26Z</time>
      </trkpt>
      <trkpt lat="41.812544" lon="1.069426">
        <ele>373.250</ele>
        <time>2021-06-20T17:50:28Z</time>
      </trkpt>
      <trkpt lat="41.812510" lon="1.069571">
        <ele>373.276</ele>
        <time>2021-06-20T17:50:30Z</time>
      </trkpt>
      <trkpt lat="41.812501" lon="1.069743">
        <ele>373.090</ele>
        <time>2021-06-20T17:50:32Z</time>
      </trkpt>
      <trkpt lat="41.812585" lon="1.070004">
        <ele>373.019</ele>
        <time>2021-06-20T17:50:35Z</time>
      </trkpt>
      <trkpt lat="41.812708" lon="1.070111">
        <ele>372.408</ele>
        <time>2021-06-20T17:50:37Z</time>
      </trkpt>
      <trkpt lat="41.812778" lon="1.070140">
        <ele>372.244</ele>
        <time>2021-06-20T17:50:38Z</time>
      </trkpt>
      <trkpt lat="41.812849" lon="1.070163">
        <ele>371.893</ele>
        <time>2021-06-20T17:50:39Z</time>
      </trkpt>
      <trkpt lat="41.812917" lon="1.070188">
        <ele>371.290</ele>
        <time>2021-06-20T17:50:40Z</time>
      </trkpt>
      <trkpt lat="41.813184" lon="1.070261">
        <ele>370.042</ele>
        <time>2021-06-20T17:50:44Z</time>
      </trkpt>
      <trkpt lat="41.813678" lon="1.070410">
        <ele>369.286</ele>
        <time>2021-06-20T17:50:52Z</time>
      </trkpt>
      <trkpt lat="41.814113" lon="1.070584">
        <ele>369.077</ele>
        <time>2021-06-20T17:50:59Z</time>
      </trkpt>
      <trkpt lat="41.814168" lon="1.070630">
        <ele>369.027</ele>
        <time>2021-06-20T17:51:00Z</time>
      </trkpt>
      <trkpt lat="41.814339" lon="1.070903">
        <ele>369.295</ele>
        <time>2021-06-20T17:51:04Z</time>
      </trkpt>
      <trkpt lat="41.814620" lon="1.071423">
        <ele>369.445</ele>
        <time>2021-06-20T17:51:11Z</time>
      </trkpt>
      <trkpt lat="41.814920" lon="1.071879">
        <ele>369.647</ele>
        <time>2021-06-20T17:51:18Z</time>
      </trkpt>
      <trkpt lat="41.814984" lon="1.071975">
        <ele>370.211</ele>
        <time>2021-06-20T17:51:20Z</time>
      </trkpt>
      <trkpt lat="41.815039" lon="1.072027">
        <ele>370.608</ele>
        <time>2021-06-20T17:51:22Z</time>
      </trkpt>
      <trkpt lat="41.815118" lon="1.072089">
        <ele>371.261</ele>
        <time>2021-06-20T17:51:25Z</time>
      </trkpt>
      <trkpt lat="41.815145" lon="1.072122">
        <ele>371.690</ele>
        <time>2021-06-20T17:51:26Z</time>
      </trkpt>
      <trkpt lat="41.815201" lon="1.072188">
        <ele>372.227</ele>
        <time>2021-06-20T17:51:28Z</time>
      </trkpt>
      <trkpt lat="41.815234" lon="1.072215">
        <ele>372.459</ele>
        <time>2021-06-20T17:51:29Z</time>
      </trkpt>
      <trkpt lat="41.815433" lon="1.072349">
        <ele>372.853</ele>
        <time>2021-06-20T17:51:35Z</time>
      </trkpt>
      <trkpt lat="41.815644" lon="1.072396">
        <ele>373.074</ele>
        <time>2021-06-20T17:51:41Z</time>
      </trkpt>
      <trkpt lat="41.815889" lon="1.072418">
        <ele>373.054</ele>
        <time>2021-06-20T17:51:48Z</time>
      </trkpt>
      <trkpt lat="41.816043" lon="1.072445">
        <ele>373.642</ele>
        <time>2021-06-20T17:51:53Z</time>
      </trkpt>
      <trkpt lat="41.816071" lon="1.072454">
        <ele>373.634</ele>
        <time>2021-06-20T17:51:54Z</time>
      </trkpt>
      <trkpt lat="41.816259" lon="1.072538">
        <ele>374.655</ele>
        <time>2021-06-20T17:52:01Z</time>
      </trkpt>
      <trkpt lat="41.816303" lon="1.072581">
        <ele>374.810</ele>
        <time>2021-06-20T17:52:03Z</time>
      </trkpt>
      <trkpt lat="41.816381" lon="1.072697">
        <ele>375.608</ele>
        <time>2021-06-20T17:52:08Z</time>
      </trkpt>
      <trkpt lat="41.816388" lon="1.072721">
        <ele>375.690</ele>
        <time>2021-06-20T17:52:09Z</time>
      </trkpt>
      <trkpt lat="41.816449" lon="1.072843">
        <ele>376.619</ele>
        <time>2021-06-20T17:52:15Z</time>
      </trkpt>
      <trkpt lat="41.816457" lon="1.072862">
        <ele>376.816</ele>
        <time>2021-06-20T17:52:16Z</time>
      </trkpt>
      <trkpt lat="41.816487" lon="1.072922">
        <ele>377.428</ele>
        <time>2021-06-20T17:52:20Z</time>
      </trkpt>
      <trkpt lat="41.816494" lon="1.072931">
        <ele>377.492</ele>
        <time>2021-06-20T17:52:21Z</time>
      </trkpt>
      <trkpt lat="41.816501" lon="1.072938">
        <ele>377.843</ele>
        <time>2021-06-20T17:52:23Z</time>
      </trkpt>
      <trkpt lat="41.816523" lon="1.072975">
        <ele>379.073</ele>
        <time>2021-06-20T18:00:08Z</time>
      </trkpt>
      <trkpt lat="41.816532" lon="1.072990">
        <ele>379.091</ele>
        <time>2021-06-20T18:00:09Z</time>
      </trkpt>
      <trkpt lat="41.816618" lon="1.073110">
        <ele>379.269</ele>
        <time>2021-06-20T18:00:15Z</time>
      </trkpt>
      <trkpt lat="41.816753" lon="1.073278">
        <ele>379.204</ele>
        <time>2021-06-20T18:00:22Z</time>
      </trkpt>
      <trkpt lat="41.816872" lon="1.073417">
        <ele>379.224</ele>
        <time>2021-06-20T18:00:28Z</time>
      </trkpt>
      <trkpt lat="41.817033" lon="1.073623">
        <ele>379.208</ele>
        <time>2021-06-20T18:00:35Z</time>
      </trkpt>
      <trkpt lat="41.817128" lon="1.073851">
        <ele>379.443</ele>
        <time>2021-06-20T18:00:42Z</time>
      </trkpt>
      <trkpt lat="41.817174" lon="1.073974">
        <ele>379.892</ele>
        <time>2021-06-20T18:00:46Z</time>
      </trkpt>
      <trkpt lat="41.817200" lon="1.074105">
        <ele>380.299</ele>
        <time>2021-06-20T18:00:50Z</time>
      </trkpt>
      <trkpt lat="41.817238" lon="1.074324">
        <ele>380.811</ele>
        <time>2021-06-20T18:00:56Z</time>
      </trkpt>
      <trkpt lat="41.817247" lon="1.074362">
        <ele>380.815</ele>
        <time>2021-06-20T18:00:57Z</time>
      </trkpt>
      <trkpt lat="41.817362" lon="1.074621">
        <ele>381.486</ele>
        <time>2021-06-20T18:01:04Z</time>
      </trkpt>
      <trkpt lat="41.817556" lon="1.074861">
        <ele>381.896</ele>
        <time>2021-06-20T18:01:12Z</time>
      </trkpt>
      <trkpt lat="41.817814" lon="1.075093">
        <ele>382.614</ele>
        <time>2021-06-20T18:01:21Z</time>
      </trkpt>
      <trkpt lat="41.817880" lon="1.075169">
        <ele>382.868</ele>
        <time>2021-06-20T18:01:24Z</time>
      </trkpt>
      <trkpt lat="41.817939" lon="1.075238">
        <ele>383.042</ele>
        <time>2021-06-20T18:01:27Z</time>
      </trkpt>
      <trkpt lat="41.818038" lon="1.075369">
        <ele>384.026</ele>
        <time>2021-06-20T18:01:32Z</time>
      </trkpt>
      <trkpt lat="41.818145" lon="1.075496">
        <ele>385.008</ele>
        <time>2021-06-20T18:01:37Z</time>
      </trkpt>
      <trkpt lat="41.818357" lon="1.075745">
        <ele>386.083</ele>
        <time>2021-06-20T18:01:47Z</time>
      </trkpt>
      <trkpt lat="41.818379" lon="1.075769">
        <ele>386.222</ele>
        <time>2021-06-20T18:01:48Z</time>
      </trkpt>
      <trkpt lat="41.818606" lon="1.075992">
        <ele>387.259</ele>
        <time>2021-06-20T18:01:58Z</time>
      </trkpt>
      <trkpt lat="41.818628" lon="1.076013">
        <ele>387.271</ele>
        <time>2021-06-20T18:01:59Z</time>
      </trkpt>
      <trkpt lat="41.818789" lon="1.076211">
        <ele>388.045</ele>
        <time>2021-06-20T18:02:07Z</time>
      </trkpt>
      <trkpt lat="41.818819" lon="1.076276">
        <ele>388.416</ele>
        <time>2021-06-20T18:02:09Z</time>
      </trkpt>
      <trkpt lat="41.818822" lon="1.076398">
        <ele>388.826</ele>
        <time>2021-06-20T18:02:12Z</time>
      </trkpt>
      <trkpt lat="41.818731" lon="1.076628">
        <ele>389.084</ele>
        <time>2021-06-20T18:02:17Z</time>
      </trkpt>
      <trkpt lat="41.818519" lon="1.076994">
        <ele>388.282</ele>
        <time>2021-06-20T18:02:24Z</time>
      </trkpt>
      <trkpt lat="41.818429" lon="1.077181">
        <ele>387.643</ele>
        <time>2021-06-20T18:02:27Z</time>
      </trkpt>
      <trkpt lat="41.818387" lon="1.077324">
        <ele>387.417</ele>
        <time>2021-06-20T18:02:29Z</time>
      </trkpt>
      <trkpt lat="41.818371" lon="1.077401">
        <ele>387.208</ele>
        <time>2021-06-20T18:02:30Z</time>
      </trkpt>
      <trkpt lat="41.818347" lon="1.077661">
        <ele>387.035</ele>
        <time>2021-06-20T18:02:33Z</time>
      </trkpt>
      <trkpt lat="41.818341" lon="1.077756">
        <ele>386.884</ele>
        <time>2021-06-20T18:02:34Z</time>
      </trkpt>
      <trkpt lat="41.818331" lon="1.077852">
        <ele>386.851</ele>
        <time>2021-06-20T18:02:35Z</time>
      </trkpt>
      <trkpt lat="41.818256" lon="1.078134">
        <ele>386.673</ele>
        <time>2021-06-20T18:02:38Z</time>
      </trkpt>
      <trkpt lat="41.818178" lon="1.078312">
        <ele>386.267</ele>
        <time>2021-06-20T18:02:40Z</time>
      </trkpt>
      <trkpt lat="41.818051" lon="1.078576">
        <ele>384.878</ele>
        <time>2021-06-20T18:02:43Z</time>
      </trkpt>
      <trkpt lat="41.817964" lon="1.078751">
        <ele>384.018</ele>
        <time>2021-06-20T18:02:45Z</time>
      </trkpt>
      <trkpt lat="41.817921" lon="1.078839">
        <ele>383.466</ele>
        <time>2021-06-20T18:02:46Z</time>
      </trkpt>
      <trkpt lat="41.817834" lon="1.079012">
        <ele>382.465</ele>
        <time>2021-06-20T18:02:48Z</time>
      </trkpt>
      <trkpt lat="41.817670" lon="1.079352">
        <ele>382.068</ele>
        <time>2021-06-20T18:02:52Z</time>
      </trkpt>
      <trkpt lat="41.817455" lon="1.079768">
        <ele>381.814</ele>
        <time>2021-06-20T18:02:58Z</time>
      </trkpt>
      <trkpt lat="41.817224" lon="1.080239">
        <ele>383.008</ele>
        <time>2021-06-20T18:03:06Z</time>
      </trkpt>
      <trkpt lat="41.817041" lon="1.080747">
        <ele>383.413</ele>
        <time>2021-06-20T18:03:13Z</time>
      </trkpt>
      <trkpt lat="41.816963" lon="1.081156">
        <ele>382.832</ele>
        <time>2021-06-20T18:03:18Z</time>
      </trkpt>
      <trkpt lat="41.816944" lon="1.081235">
        <ele>382.639</ele>
        <time>2021-06-20T18:03:19Z</time>
      </trkpt>
      <trkpt lat="41.816874" lon="1.081547">
        <ele>382.481</ele>
        <time>2021-06-20T18:03:23Z</time>
      </trkpt>
      <trkpt lat="41.816813" lon="1.081693">
        <ele>382.295</ele>
        <time>2021-06-20T18:03:25Z</time>
      </trkpt>
      <trkpt lat="41.816512" lon="1.082242">
        <ele>381.626</ele>
        <time>2021-06-20T18:03:33Z</time>
      </trkpt>
      <trkpt lat="41.816399" lon="1.082445">
        <ele>381.256</ele>
        <time>2021-06-20T18:03:36Z</time>
      </trkpt>
      <trkpt lat="41.816211" lon="1.082759">
        <ele>381.054</ele>
        <time>2021-06-20T18:03:41Z</time>
      </trkpt>
      <trkpt lat="41.816176" lon="1.082817">
        <ele>381.031</ele>
        <time>2021-06-20T18:03:42Z</time>
      </trkpt>
      <trkpt lat="41.816021" lon="1.083085">
        <ele>381.261</ele>
        <time>2021-06-20T18:03:47Z</time>
      </trkpt>
      <trkpt lat="41.815815" lon="1.083434">
        <ele>382.407</ele>
        <time>2021-06-20T18:03:55Z</time>
      </trkpt>
      <trkpt lat="41.815659" lon="1.083704">
        <ele>383.408</ele>
        <time>2021-06-20T18:04:02Z</time>
      </trkpt>
      <trkpt lat="41.815618" lon="1.083772">
        <ele>384.040</ele>
        <time>2021-06-20T18:04:04Z</time>
      </trkpt>
      <trkpt lat="41.815536" lon="1.083908">
        <ele>384.449</ele>
        <time>2021-06-20T18:04:08Z</time>
      </trkpt>
      <trkpt lat="41.815440" lon="1.084075">
        <ele>385.066</ele>
        <time>2021-06-20T18:04:13Z</time>
      </trkpt>
      <trkpt lat="41.815411" lon="1.084129">
        <ele>385.628</ele>
        <time>2021-06-20T18:04:15Z</time>
      </trkpt>
      <trkpt lat="41.815330" lon="1.084270">
        <ele>386.252</ele>
        <time>2021-06-20T18:04:20Z</time>
      </trkpt>
      <trkpt lat="41.815294" lon="1.084343">
        <ele>386.643</ele>
        <time>2021-06-20T18:04:22Z</time>
      </trkpt>
      <trkpt lat="41.815174" lon="1.084598">
        <ele>387.053</ele>
        <time>2021-06-20T18:04:28Z</time>
      </trkpt>
      <trkpt lat="41.815064" lon="1.084928">
        <ele>387.041</ele>
        <time>2021-06-20T18:04:34Z</time>
      </trkpt>
      <trkpt lat="41.814887" lon="1.085518">
        <ele>386.437</ele>
        <time>2021-06-20T18:04:43Z</time>
      </trkpt>
      <trkpt lat="41.814747" lon="1.085986">
        <ele>385.849</ele>
        <time>2021-06-20T18:04:49Z</time>
      </trkpt>
      <trkpt lat="41.814672" lon="1.086234">
        <ele>385.013</ele>
        <time>2021-06-20T18:04:52Z</time>
      </trkpt>
      <trkpt lat="41.814619" lon="1.086407">
        <ele>384.608</ele>
        <time>2021-06-20T18:04:54Z</time>
      </trkpt>
      <trkpt lat="41.814461" lon="1.086941">
        <ele>383.490</ele>
        <time>2021-06-20T18:05:00Z</time>
      </trkpt>
      <trkpt lat="41.814412" lon="1.087113">
        <ele>383.249</ele>
        <time>2021-06-20T18:05:02Z</time>
      </trkpt>
      <trkpt lat="41.814361" lon="1.087278">
        <ele>382.436</ele>
        <time>2021-06-20T18:05:04Z</time>
      </trkpt>
      <trkpt lat="41.814242" lon="1.087681">
        <ele>381.498</ele>
        <time>2021-06-20T18:05:09Z</time>
      </trkpt>
      <trkpt lat="41.814196" lon="1.087840">
        <ele>381.432</ele>
        <time>2021-06-20T18:05:11Z</time>
      </trkpt>
      <trkpt lat="41.814059" lon="1.088313">
        <ele>381.413</ele>
        <time>2021-06-20T18:05:17Z</time>
      </trkpt>
      <trkpt lat="41.813854" lon="1.089024">
        <ele>381.833</ele>
        <time>2021-06-20T18:05:26Z</time>
      </trkpt>
      <trkpt lat="41.813807" lon="1.089180">
        <ele>382.091</ele>
        <time>2021-06-20T18:05:28Z</time>
      </trkpt>
      <trkpt lat="41.813591" lon="1.089911">
        <ele>382.264</ele>
        <time>2021-06-20T18:05:37Z</time>
      </trkpt>
      <trkpt lat="41.813566" lon="1.089993">
        <ele>382.206</ele>
        <time>2021-06-20T18:05:38Z</time>
      </trkpt>
      <trkpt lat="41.813355" lon="1.090652">
        <ele>382.216</ele>
        <time>2021-06-20T18:05:46Z</time>
      </trkpt>
      <trkpt lat="41.813335" lon="1.090734">
        <ele>382.208</ele>
        <time>2021-06-20T18:05:47Z</time>
      </trkpt>
      <trkpt lat="41.813201" lon="1.091237">
        <ele>382.213</ele>
        <time>2021-06-20T18:05:54Z</time>
      </trkpt>
      <trkpt lat="41.813153" lon="1.091405">
        <ele>382.472</ele>
        <time>2021-06-20T18:05:57Z</time>
      </trkpt>
      <trkpt lat="41.813100" lon="1.091600">
        <ele>383.419</ele>
        <time>2021-06-20T18:06:01Z</time>
      </trkpt>
      <trkpt lat="41.813027" lon="1.091825">
        <ele>385.041</ele>
        <time>2021-06-20T18:06:06Z</time>
      </trkpt>
      <trkpt lat="41.812912" lon="1.092328">
        <ele>385.645</ele>
        <time>2021-06-20T18:06:15Z</time>
      </trkpt>
      <trkpt lat="41.812799" lon="1.092834">
        <ele>385.696</ele>
        <time>2021-06-20T18:06:21Z</time>
      </trkpt>
      <trkpt lat="41.812659" lon="1.093467">
        <ele>383.886</ele>
        <time>2021-06-20T18:06:27Z</time>
      </trkpt>
      <trkpt lat="41.812611" lon="1.093670">
        <ele>382.224</ele>
        <time>2021-06-20T18:06:29Z</time>
      </trkpt>
      <trkpt lat="41.812565" lon="1.093868">
        <ele>380.696</ele>
        <time>2021-06-20T18:06:31Z</time>
      </trkpt>
      <trkpt lat="41.812522" lon="1.094060">
        <ele>379.431</ele>
        <time>2021-06-20T18:06:33Z</time>
      </trkpt>
      <trkpt lat="41.812502" lon="1.094153">
        <ele>378.624</ele>
        <time>2021-06-20T18:06:34Z</time>
      </trkpt>
      <trkpt lat="41.812464" lon="1.094333">
        <ele>378.208</ele>
        <time>2021-06-20T18:06:36Z</time>
      </trkpt>
      <trkpt lat="41.812369" lon="1.094745">
        <ele>377.826</ele>
        <time>2021-06-20T18:06:41Z</time>
      </trkpt>
      <trkpt lat="41.812220" lon="1.095403">
        <ele>377.625</ele>
        <time>2021-06-20T18:06:49Z</time>
      </trkpt>
      <trkpt lat="41.812054" lon="1.096126">
        <ele>377.842</ele>
        <time>2021-06-20T18:06:58Z</time>
      </trkpt>
      <trkpt lat="41.811905" lon="1.096798">
        <ele>378.224</ele>
        <time>2021-06-20T18:07:07Z</time>
      </trkpt>
      <trkpt lat="41.811778" lon="1.097371">
        <ele>378.828</ele>
        <time>2021-06-20T18:07:16Z</time>
      </trkpt>
      <trkpt lat="41.811728" lon="1.097586">
        <ele>379.469</ele>
        <time>2021-06-20T18:07:20Z</time>
      </trkpt>
      <trkpt lat="41.811694" lon="1.097721">
        <ele>380.279</ele>
        <time>2021-06-20T18:07:23Z</time>
      </trkpt>
      <trkpt lat="41.811684" lon="1.097760">
        <ele>380.697</ele>
        <time>2021-06-20T18:07:24Z</time>
      </trkpt>
      <trkpt lat="41.811638" lon="1.097970">
        <ele>382.079</ele>
        <time>2021-06-20T18:07:30Z</time>
      </trkpt>
      <trkpt lat="41.811621" lon="1.098036">
        <ele>382.405</ele>
        <time>2021-06-20T18:07:32Z</time>
      </trkpt>
      <trkpt lat="41.811590" lon="1.098168">
        <ele>383.025</ele>
        <time>2021-06-20T18:07:36Z</time>
      </trkpt>
      <trkpt lat="41.811547" lon="1.098363">
        <ele>384.208</ele>
        <time>2021-06-20T18:07:42Z</time>
      </trkpt>
      <trkpt lat="41.811491" lon="1.098473">
        <ele>384.824</ele>
        <time>2021-06-20T18:07:47Z</time>
      </trkpt>
      <trkpt lat="41.811443" lon="1.098477">
        <ele>385.233</ele>
        <time>2021-06-20T18:07:50Z</time>
      </trkpt>
      <trkpt lat="41.811348" lon="1.098462">
        <ele>386.020</ele>
        <time>2021-06-20T18:07:55Z</time>
      </trkpt>
      <trkpt lat="41.811132" lon="1.098434">
        <ele>386.422</ele>
        <time>2021-06-20T18:08:06Z</time>
      </trkpt>
      <trkpt lat="41.810923" lon="1.098382">
        <ele>386.616</ele>
        <time>2021-06-20T18:08:13Z</time>
      </trkpt>
      <trkpt lat="41.810604" lon="1.098283">
        <ele>385.877</ele>
        <time>2021-06-20T18:08:20Z</time>
      </trkpt>
      <trkpt lat="41.810493" lon="1.098244">
        <ele>385.237</ele>
        <time>2021-06-20T18:08:22Z</time>
      </trkpt>
      <trkpt lat="41.810310" lon="1.098193">
        <ele>383.815</ele>
        <time>2021-06-20T18:08:25Z</time>
      </trkpt>
      <trkpt lat="41.810245" lon="1.098179">
        <ele>382.878</ele>
        <time>2021-06-20T18:08:26Z</time>
      </trkpt>
      <trkpt lat="41.810178" lon="1.098169">
        <ele>382.433</ele>
        <time>2021-06-20T18:08:27Z</time>
      </trkpt>
      <trkpt lat="41.810041" lon="1.098152">
        <ele>381.226</ele>
        <time>2021-06-20T18:08:29Z</time>
      </trkpt>
      <trkpt lat="41.809701" lon="1.098118">
        <ele>380.008</ele>
        <time>2021-06-20T18:08:34Z</time>
      </trkpt>
      <trkpt lat="41.809573" lon="1.098108">
        <ele>378.894</ele>
        <time>2021-06-20T18:08:36Z</time>
      </trkpt>
      <trkpt lat="41.809511" lon="1.098099">
        <ele>378.663</ele>
        <time>2021-06-20T18:08:37Z</time>
      </trkpt>
      <trkpt lat="41.809335" lon="1.098075">
        <ele>377.830</ele>
        <time>2021-06-20T18:08:40Z</time>
      </trkpt>
      <trkpt lat="41.809105" lon="1.098045">
        <ele>377.682</ele>
        <time>2021-06-20T18:08:44Z</time>
      </trkpt>
      <trkpt lat="41.808665" lon="1.098063">
        <ele>377.636</ele>
        <time>2021-06-20T18:08:52Z</time>
      </trkpt>
      <trkpt lat="41.808395" lon="1.098074">
        <ele>378.277</ele>
        <time>2021-06-20T18:08:58Z</time>
      </trkpt>
      <trkpt lat="41.808158" lon="1.098101">
        <ele>379.227</ele>
        <time>2021-06-20T18:09:04Z</time>
      </trkpt>
      <trkpt lat="41.808032" lon="1.098107">
        <ele>379.645</ele>
        <time>2021-06-20T18:09:07Z</time>
      </trkpt>
      <trkpt lat="41.807703" lon="1.098117">
        <ele>379.877</ele>
        <time>2021-06-20T18:09:14Z</time>
      </trkpt>
      <trkpt lat="41.807185" lon="1.098149">
        <ele>378.461</ele>
        <time>2021-06-20T18:09:24Z</time>
      </trkpt>
      <trkpt lat="41.807021" lon="1.098161">
        <ele>378.227</ele>
        <time>2021-06-20T18:09:27Z</time>
      </trkpt>
      <trkpt lat="41.806583" lon="1.098196">
        <ele>377.208</ele>
        <time>2021-06-20T18:09:35Z</time>
      </trkpt>
      <trkpt lat="41.806530" lon="1.098204">
        <ele>377.064</ele>
        <time>2021-06-20T18:09:36Z</time>
      </trkpt>
      <trkpt lat="41.806129" lon="1.098229">
        <ele>376.683</ele>
        <time>2021-06-20T18:09:43Z</time>
      </trkpt>
      <trkpt lat="41.805837" lon="1.098247">
        <ele>376.080</ele>
        <time>2021-06-20T18:09:48Z</time>
      </trkpt>
      <trkpt lat="41.805607" lon="1.098258">
        <ele>375.452</ele>
        <time>2021-06-20T18:09:52Z</time>
      </trkpt>
      <trkpt lat="41.805433" lon="1.098259">
        <ele>375.066</ele>
        <time>2021-06-20T18:09:55Z</time>
      </trkpt>
      <trkpt lat="41.805101" lon="1.098250">
        <ele>374.477</ele>
        <time>2021-06-20T18:10:01Z</time>
      </trkpt>
      <trkpt lat="41.804759" lon="1.098232">
        <ele>374.287</ele>
        <time>2021-06-20T18:10:08Z</time>
      </trkpt>
      <trkpt lat="41.804407" lon="1.098215">
        <ele>375.055</ele>
        <time>2021-06-20T18:10:17Z</time>
      </trkpt>
      <trkpt lat="41.804141" lon="1.098202">
        <ele>376.092</ele>
        <time>2021-06-20T18:10:24Z</time>
      </trkpt>
      <trkpt lat="41.804061" lon="1.098200">
        <ele>376.273</ele>
        <time>2021-06-20T18:10:26Z</time>
      </trkpt>
      <trkpt lat="41.803619" lon="1.098174">
        <ele>376.420</ele>
        <time>2021-06-20T18:10:36Z</time>
      </trkpt>
      <trkpt lat="41.803220" lon="1.098136">
        <ele>376.208</ele>
        <time>2021-06-20T18:10:44Z</time>
      </trkpt>
      <trkpt lat="41.802892" lon="1.098048">
        <ele>376.036</ele>
        <time>2021-06-20T18:10:51Z</time>
      </trkpt>
      <trkpt lat="41.802655" lon="1.097999">
        <ele>375.875</ele>
        <time>2021-06-20T18:10:56Z</time>
      </trkpt>
      <trkpt lat="41.802602" lon="1.097999">
        <ele>375.622</ele>
        <time>2021-06-20T18:10:57Z</time>
      </trkpt>
      <trkpt lat="41.802395" lon="1.098036">
        <ele>375.064</ele>
        <time>2021-06-20T18:11:01Z</time>
      </trkpt>
      <trkpt lat="41.802347" lon="1.098050">
        <ele>374.618</ele>
        <time>2021-06-20T18:11:02Z</time>
      </trkpt>
      <trkpt lat="41.802206" lon="1.098095">
        <ele>373.499</ele>
        <time>2021-06-20T18:11:05Z</time>
      </trkpt>
      <trkpt lat="41.801963" lon="1.098195">
        <ele>372.889</ele>
        <time>2021-06-20T18:11:10Z</time>
      </trkpt>
      <trkpt lat="41.801649" lon="1.098312">
        <ele>372.657</ele>
        <time>2021-06-20T18:11:15Z</time>
      </trkpt>
      <trkpt lat="41.801575" lon="1.098332">
        <ele>372.434</ele>
        <time>2021-06-20T18:11:16Z</time>
      </trkpt>
      <trkpt lat="41.801267" lon="1.098396">
        <ele>371.255</ele>
        <time>2021-06-20T18:11:20Z</time>
      </trkpt>
      <trkpt lat="41.801107" lon="1.098423">
        <ele>370.010</ele>
        <time>2021-06-20T18:11:22Z</time>
      </trkpt>
      <trkpt lat="41.801026" lon="1.098432">
        <ele>368.808</ele>
        <time>2021-06-20T18:11:23Z</time>
      </trkpt>
      <trkpt lat="41.800946" lon="1.098438">
        <ele>367.850</ele>
        <time>2021-06-20T18:11:24Z</time>
      </trkpt>
      <trkpt lat="41.800785" lon="1.098444">
        <ele>366.489</ele>
        <time>2021-06-20T18:11:26Z</time>
      </trkpt>
      <trkpt lat="41.800470" lon="1.098446">
        <ele>365.296</ele>
        <time>2021-06-20T18:11:30Z</time>
      </trkpt>
      <trkpt lat="41.800181" lon="1.098454">
        <ele>364.028</ele>
        <time>2021-06-20T18:11:34Z</time>
      </trkpt>
      <trkpt lat="41.799973" lon="1.098448">
        <ele>363.612</ele>
        <time>2021-06-20T18:11:37Z</time>
      </trkpt>
      <trkpt lat="41.799776" lon="1.098443">
        <ele>363.093</ele>
        <time>2021-06-20T18:11:40Z</time>
      </trkpt>
      <trkpt lat="41.799537" lon="1.098400">
        <ele>362.653</ele>
        <time>2021-06-20T18:11:44Z</time>
      </trkpt>
      <trkpt lat="41.799237" lon="1.098277">
        <ele>362.091</ele>
        <time>2021-06-20T18:11:50Z</time>
      </trkpt>
      <trkpt lat="41.798822" lon="1.098138">
        <ele>361.822</ele>
        <time>2021-06-20T18:11:59Z</time>
      </trkpt>
      <trkpt lat="41.798600" lon="1.098075">
        <ele>361.862</ele>
        <time>2021-06-20T18:12:04Z</time>
      </trkpt>
      <trkpt lat="41.798514" lon="1.098041">
        <ele>361.608</ele>
        <time>2021-06-20T18:12:06Z</time>
      </trkpt>
      <trkpt lat="41.798019" lon="1.097877">
        <ele>361.608</ele>
        <time>2021-06-20T18:12:17Z</time>
      </trkpt>
      <trkpt lat="41.797463" lon="1.097734">
        <ele>362.099</ele>
        <time>2021-06-20T18:12:29Z</time>
      </trkpt>
      <trkpt lat="41.797415" lon="1.097723">
        <ele>362.068</ele>
        <time>2021-06-20T18:12:30Z</time>
      </trkpt>
      <trkpt lat="41.797145" lon="1.097668">
        <ele>362.065</ele>
        <time>2021-06-20T18:12:36Z</time>
      </trkpt>
      <trkpt lat="41.797045" lon="1.097630">
        <ele>362.277</ele>
        <time>2021-06-20T18:12:40Z</time>
      </trkpt>
      <trkpt lat="41.797025" lon="1.097612">
        <ele>362.451</ele>
        <time>2021-06-20T18:12:42Z</time>
      </trkpt>
      <trkpt lat="41.797015" lon="1.097638">
        <ele>363.062</ele>
        <time>2021-06-20T18:12:45Z</time>
      </trkpt>
      <trkpt lat="41.797028" lon="1.097646">
        <ele>363.062</ele>
        <time>2021-06-20T18:12:46Z</time>
      </trkpt>
      <trkpt lat="41.797073" lon="1.097664">
        <ele>363.840</ele>
        <time>2021-06-20T18:12:49Z</time>
      </trkpt>
      <trkpt lat="41.797082" lon="1.097671">
        <ele>363.871</ele>
        <time>2021-06-20T18:12:50Z</time>
      </trkpt>
      <trkpt lat="41.797095" lon="1.097700">
        <ele>364.241</ele>
        <time>2021-06-20T18:12:52Z</time>
      </trkpt>
      <trkpt lat="41.797085" lon="1.097753">
        <ele>364.415</ele>
        <time>2021-06-20T18:12:55Z</time>
      </trkpt>
      <trkpt lat="41.796995" lon="1.097966">
        <ele>364.408</ele>
        <time>2021-06-20T18:13:01Z</time>
      </trkpt>
      <trkpt lat="41.796850" lon="1.098323">
        <ele>363.644</ele>
        <time>2021-06-20T18:13:09Z</time>
      </trkpt>
      <trkpt lat="41.796707" lon="1.098611">
        <ele>363.283</ele>
        <time>2021-06-20T18:13:15Z</time>
      </trkpt>
      <trkpt lat="41.796626" lon="1.098761">
        <ele>363.020</ele>
        <time>2021-06-20T18:13:18Z</time>
      </trkpt>
      <trkpt lat="41.796304" lon="1.099239">
        <ele>362.822</ele>
        <time>2021-06-20T18:13:28Z</time>
      </trkpt>
      <trkpt lat="41.796008" lon="1.099556">
        <ele>362.846</ele>
        <time>2021-06-20T18:13:36Z</time>
      </trkpt>
      <trkpt lat="41.795618" lon="1.099850">
        <ele>363.047</ele>
        <time>2021-06-20T18:13:45Z</time>
      </trkpt>
      <trkpt lat="41.795201" lon="1.100048">
        <ele>363.077</ele>
        <time>2021-06-20T18:13:54Z</time>
      </trkpt>
      <trkpt lat="41.794857" lon="1.100129">
        <ele>362.665</ele>
        <time>2021-06-20T18:14:01Z</time>
      </trkpt>
      <trkpt lat="41.794758" lon="1.100146">
        <ele>362.476</ele>
        <time>2021-06-20T18:14:03Z</time>
      </trkpt>
      <trkpt lat="41.794471" lon="1.100167">
        <ele>361.890</ele>
        <time>2021-06-20T18:14:09Z</time>
      </trkpt>
      <trkpt lat="41.794055" lon="1.100117">
        <ele>361.619</ele>
        <time>2021-06-20T18:14:18Z</time>
      </trkpt>
      <trkpt lat="41.793722" lon="1.100007">
        <ele>361.608</ele>
        <time>2021-06-20T18:14:26Z</time>
      </trkpt>
      <trkpt lat="41.793375" lon="1.099829">
        <ele>361.614</ele>
        <time>2021-06-20T18:14:34Z</time>
      </trkpt>
      <trkpt lat="41.793086" lon="1.099619">
        <ele>361.413</ele>
        <time>2021-06-20T18:14:41Z</time>
      </trkpt>
      <trkpt lat="41.793008" lon="1.099555">
        <ele>361.090</ele>
        <time>2021-06-20T18:14:43Z</time>
      </trkpt>
      <trkpt lat="41.792819" lon="1.099375">
        <ele>360.442</ele>
        <time>2021-06-20T18:14:48Z</time>
      </trkpt>
      <trkpt lat="41.792673" lon="1.099216">
        <ele>360.226</ele>
        <time>2021-06-20T18:14:52Z</time>
      </trkpt>
      <trkpt lat="41.792420" lon="1.098862">
        <ele>360.267</ele>
        <time>2021-06-20T18:15:00Z</time>
      </trkpt>
      <trkpt lat="41.792206" lon="1.098473">
        <ele>360.447</ele>
        <time>2021-06-20T18:15:08Z</time>
      </trkpt>
      <trkpt lat="41.792060" lon="1.098113">
        <ele>360.685</ele>
        <time>2021-06-20T18:15:15Z</time>
      </trkpt>
      <trkpt lat="41.791963" lon="1.097818">
        <ele>361.458</ele>
        <time>2021-06-20T18:15:21Z</time>
      </trkpt>
      <trkpt lat="41.791956" lon="1.097784">
        <ele>361.652</ele>
        <time>2021-06-20T18:15:22Z</time>
      </trkpt>
      <trkpt lat="41.791944" lon="1.097745">
        <ele>361.817</ele>
        <time>2021-06-20T18:15:24Z</time>
      </trkpt>
      <trkpt lat="41.791933" lon="1.097748">
        <ele>362.008</ele>
        <time>2021-06-20T18:15:25Z</time>
      </trkpt>
      <trkpt lat="41.791941" lon="1.097803">
        <ele>362.862</ele>
        <time>2021-06-20T18:15:28Z</time>
      </trkpt>
      <trkpt lat="41.791951" lon="1.097825">
        <ele>363.031</ele>
        <time>2021-06-20T18:15:29Z</time>
      </trkpt>
      <trkpt lat="41.792021" lon="1.098038">
        <ele>363.478</ele>
        <time>2021-06-20T18:15:35Z</time>
      </trkpt>
      <trkpt lat="41.792166" lon="1.098416">
        <ele>363.490</ele>
        <time>2021-06-20T18:15:44Z</time>
      </trkpt>
      <trkpt lat="41.792204" lon="1.098468">
        <ele>363.434</ele>
        <time>2021-06-20T18:15:47Z</time>
      </trkpt>
      <trkpt lat="41.792207" lon="1.098506">
        <ele>363.645</ele>
        <time>2021-06-20T18:15:51Z</time>
      </trkpt>
      <trkpt lat="41.792195" lon="1.098487">
        <ele>363.415</ele>
        <time>2021-06-20T18:15:55Z</time>
      </trkpt>
      <trkpt lat="41.792162" lon="1.098492">
        <ele>363.293</ele>
        <time>2021-06-20T18:16:08Z</time>
      </trkpt>
      <trkpt lat="41.792107" lon="1.098495">
        <ele>363.218</ele>
        <time>2021-06-20T18:16:15Z</time>
      </trkpt>
      <trkpt lat="41.792047" lon="1.098507">
        <ele>363.098</ele>
        <time>2021-06-20T18:16:33Z</time>
      </trkpt>
      <trkpt lat="41.792001" lon="1.098510">
        <ele>363.017</ele>
        <time>2021-06-20T18:16:35Z</time>
      </trkpt>
      <trkpt lat="41.791761" lon="1.098505">
        <ele>362.608</ele>
        <time>2021-06-20T18:16:43Z</time>
      </trkpt>
      <trkpt lat="41.791424" lon="1.098502">
        <ele>362.268</ele>
        <time>2021-06-20T18:16:54Z</time>
      </trkpt>
      <trkpt lat="41.791003" lon="1.098487">
        <ele>362.277</ele>
        <time>2021-06-20T18:17:07Z</time>
      </trkpt>
      <trkpt lat="41.790829" lon="1.098467">
        <ele>362.434</ele>
        <time>2021-06-20T18:17:13Z</time>
      </trkpt>
      <trkpt lat="41.790809" lon="1.098470">
        <ele>362.476</ele>
        <time>2021-06-20T18:17:14Z</time>
      </trkpt>
      <trkpt lat="41.790730" lon="1.098494">
        <ele>362.610</ele>
        <time>2021-06-20T18:17:17Z</time>
      </trkpt>
      <trkpt lat="41.790697" lon="1.098495">
        <ele>362.681</ele>
        <time>2021-06-20T18:17:18Z</time>
      </trkpt>
      <trkpt lat="41.790375" lon="1.098485">
        <ele>362.831</ele>
        <time>2021-06-20T18:17:27Z</time>
      </trkpt>
      <trkpt lat="41.789980" lon="1.098472">
        <ele>362.649</ele>
        <time>2021-06-20T18:17:38Z</time>
      </trkpt>
      <trkpt lat="41.789639" lon="1.098440">
        <ele>363.062</ele>
        <time>2021-06-20T18:17:48Z</time>
      </trkpt>
      <trkpt lat="41.789373" lon="1.098443">
        <ele>363.083</ele>
        <time>2021-06-20T18:17:56Z</time>
      </trkpt>
      <trkpt lat="41.789041" lon="1.098430">
        <ele>363.011</ele>
        <time>2021-06-20T18:18:06Z</time>
      </trkpt>
      <trkpt lat="41.788784" lon="1.098422">
        <ele>364.208</ele>
        <time>2021-06-20T18:18:15Z</time>
      </trkpt>
      <trkpt lat="41.788757" lon="1.098417">
        <ele>364.493</ele>
        <time>2021-06-20T18:18:16Z</time>
      </trkpt>
      <trkpt lat="41.788673" lon="1.098419">
        <ele>365.622</ele>
        <time>2021-06-20T18:18:19Z</time>
      </trkpt>
      <trkpt lat="41.788567" lon="1.098435">
        <ele>366.629</ele>
        <time>2021-06-20T18:18:23Z</time>
      </trkpt>
      <trkpt lat="41.788488" lon="1.098455">
        <ele>366.881</ele>
        <time>2021-06-20T18:18:27Z</time>
      </trkpt>
      <trkpt lat="41.788474" lon="1.098457">
        <ele>367.065</ele>
        <time>2021-06-20T18:18:28Z</time>
      </trkpt>
      <trkpt lat="41.788429" lon="1.098422">
        <ele>367.626</ele>
        <time>2021-06-20T18:18:32Z</time>
      </trkpt>
      <trkpt lat="41.788412" lon="1.098424">
        <ele>367.696</ele>
        <time>2021-06-20T18:18:33Z</time>
      </trkpt>
      <trkpt lat="41.788347" lon="1.098417">
        <ele>368.084</ele>
        <time>2021-06-20T18:18:36Z</time>
      </trkpt>
      <trkpt lat="41.788324" lon="1.098418">
        <ele>368.068</ele>
        <time>2021-06-20T18:18:37Z</time>
      </trkpt>
      <trkpt lat="41.788205" lon="1.098440">
        <ele>368.242</ele>
        <time>2021-06-20T18:18:42Z</time>
      </trkpt>
      <trkpt lat="41.788074" lon="1.098503">
        <ele>368.226</ele>
        <time>2021-06-20T18:18:48Z</time>
      </trkpt>
      <trkpt lat="41.787952" lon="1.098587">
        <ele>368.408</ele>
        <time>2021-06-20T18:18:54Z</time>
      </trkpt>
      <trkpt lat="41.787794" lon="1.098732">
        <ele>368.663</ele>
        <time>2021-06-20T18:19:00Z</time>
      </trkpt>
      <trkpt lat="41.787775" lon="1.098753">
        <ele>368.672</ele>
        <time>2021-06-20T18:19:01Z</time>
      </trkpt>
      <trkpt lat="41.787650" lon="1.098795">
        <ele>369.619</ele>
        <time>2021-06-20T18:19:07Z</time>
      </trkpt>
      <trkpt lat="41.787631" lon="1.098802">
        <ele>369.831</ele>
        <time>2021-06-20T18:19:08Z</time>
      </trkpt>
      <trkpt lat="41.787544" lon="1.098851">
        <ele>370.675</ele>
        <time>2021-06-20T18:19:14Z</time>
      </trkpt>
      <trkpt lat="41.787534" lon="1.098865">
        <ele>370.826</ele>
        <time>2021-06-20T18:19:15Z</time>
      </trkpt>
      <trkpt lat="41.787534" lon="1.098877">
        <ele>371.096</ele>
        <time>2021-06-20T18:19:16Z</time>
      </trkpt>
      <trkpt lat="41.787540" lon="1.098913">
        <ele>371.484</ele>
        <time>2021-06-20T18:19:19Z</time>
      </trkpt>
      <trkpt lat="41.787574" lon="1.098932">
        <ele>371.842</ele>
        <time>2021-06-20T18:19:22Z</time>
      </trkpt>
      <trkpt lat="41.787584" lon="1.098943">
        <ele>371.822</ele>
        <time>2021-06-20T18:19:24Z</time>
      </trkpt>
      <trkpt lat="41.787566" lon="1.098937">
        <ele>371.814</ele>
        <time>2021-06-20T18:19:26Z</time>
      </trkpt>
      <trkpt lat="41.787553" lon="1.098968">
        <ele>372.008</ele>
        <time>2021-06-20T18:19:29Z</time>
      </trkpt>
      <trkpt lat="41.787527" lon="1.099009">
        <ele>372.031</ele>
        <time>2021-06-20T18:19:33Z</time>
      </trkpt>
      <trkpt lat="41.787351" lon="1.099208">
        <ele>372.070</ele>
        <time>2021-06-20T18:19:51Z</time>
      </trkpt>
      <trkpt lat="41.787339" lon="1.099187">
        <ele>372.077</ele>
        <time>2021-06-20T18:19:52Z</time>
      </trkpt>
      <trkpt lat="41.787305" lon="1.099012">
        <ele>372.079</ele>
        <time>2021-06-20T18:19:58Z</time>
      </trkpt>
      <trkpt lat="41.787264" lon="1.098912">
        <ele>372.023</ele>
        <time>2021-06-20T18:20:02Z</time>
      </trkpt>
      <trkpt lat="41.787248" lon="1.098908">
        <ele>371.814</ele>
        <time>2021-06-20T18:20:03Z</time>
      </trkpt>
      <trkpt lat="41.787084" lon="1.098805">
        <ele>371.694</ele>
        <time>2021-06-20T18:20:10Z</time>
      </trkpt>
      <trkpt lat="41.787005" lon="1.098634">
        <ele>371.882</ele>
        <time>2021-06-20T18:20:15Z</time>
      </trkpt>
      <trkpt lat="41.786992" lon="1.098549">
        <ele>371.879</ele>
        <time>2021-06-20T18:20:19Z</time>
      </trkpt>
      <trkpt lat="41.786939" lon="1.098388">
        <ele>371.805</ele>
        <time>2021-06-20T18:20:24Z</time>
      </trkpt>
      <trkpt lat="41.786853" lon="1.098218">
        <ele>371.425</ele>
        <time>2021-06-20T18:20:29Z</time>
      </trkpt>
      <trkpt lat="41.786735" lon="1.097926">
        <ele>370.808</ele>
        <time>2021-06-20T18:20:36Z</time>
      </trkpt>
      <trkpt lat="41.786702" lon="1.097899">
        <ele>370.634</ele>
        <time>2021-06-20T18:20:37Z</time>
      </trkpt>
      <trkpt lat="41.786629" lon="1.097825">
        <ele>369.863</ele>
        <time>2021-06-20T18:20:40Z</time>
      </trkpt>
      <trkpt lat="41.786608" lon="1.097761">
        <ele>369.420</ele>
        <time>2021-06-20T18:20:42Z</time>
      </trkpt>
      <trkpt lat="41.786527" lon="1.097694">
        <ele>369.062</ele>
        <time>2021-06-20T18:20:46Z</time>
      </trkpt>
      <trkpt lat="41.786372" lon="1.097704">
        <ele>368.876</ele>
        <time>2021-06-20T18:20:51Z</time>
      </trkpt>
      <trkpt lat="41.786260" lon="1.097723">
        <ele>368.417</ele>
        <time>2021-06-20T18:20:54Z</time>
      </trkpt>
      <trkpt lat="41.786160" lon="1.097738">
        <ele>367.827</ele>
        <time>2021-06-20T18:20:57Z</time>
      </trkpt>
      <trkpt lat="41.786143" lon="1.097752">
        <ele>367.445</ele>
        <time>2021-06-20T18:20:59Z</time>
      </trkpt>
      <trkpt lat="41.786098" lon="1.097764">
        <ele>367.015</ele>
        <time>2021-06-20T18:21:01Z</time>
      </trkpt>
      <trkpt lat="41.785955" lon="1.097772">
        <ele>366.865</ele>
        <time>2021-06-20T18:21:05Z</time>
      </trkpt>
      <trkpt lat="41.785839" lon="1.097764">
        <ele>366.811</ele>
        <time>2021-06-20T18:21:09Z</time>
      </trkpt>
      <trkpt lat="41.785803" lon="1.097748">
        <ele>366.608</ele>
        <time>2021-06-20T18:21:13Z</time>
      </trkpt>
      <trkpt lat="41.785799" lon="1.097758">
        <ele>366.268</ele>
        <time>2021-06-20T18:23:27Z</time>
      </trkpt>
      <trkpt lat="41.785860" lon="1.097778">
        <ele>366.267</ele>
        <time>2021-06-20T18:23:30Z</time>
      </trkpt>
      <trkpt lat="41.785899" lon="1.097812">
        <ele>366.234</ele>
        <time>2021-06-20T18:23:33Z</time>
      </trkpt>
      <trkpt lat="41.785906" lon="1.097826">
        <ele>366.246</ele>
        <time>2021-06-20T18:23:34Z</time>
      </trkpt>
      <trkpt lat="41.785922" lon="1.097847">
        <ele>366.410</ele>
        <time>2021-06-20T18:23:37Z</time>
      </trkpt>
      <trkpt lat="41.785962" lon="1.097872">
        <ele>367.441</ele>
        <time>2021-06-20T18:23:46Z</time>
      </trkpt>
      <trkpt lat="41.785966" lon="1.097897">
        <ele>367.411</ele>
        <time>2021-06-20T18:23:47Z</time>
      </trkpt>
      <trkpt lat="41.785980" lon="1.098139">
        <ele>367.689</ele>
        <time>2021-06-20T18:23:54Z</time>
      </trkpt>
      <trkpt lat="41.786006" lon="1.098447">
        <ele>367.839</ele>
        <time>2021-06-20T18:24:02Z</time>
      </trkpt>
      <trkpt lat="41.786021" lon="1.098854">
        <ele>368.401</ele>
        <time>2021-06-20T18:24:12Z</time>
      </trkpt>
      <trkpt lat="41.786003" lon="1.099095">
        <ele>369.421</ele>
        <time>2021-06-20T18:24:19Z</time>
      </trkpt>
      <trkpt lat="41.786005" lon="1.099086">
        <ele>369.408</ele>
        <time>2021-06-20T18:24:20Z</time>
      </trkpt>
      <trkpt lat="41.786019" lon="1.099070">
        <ele>369.430</ele>
        <time>2021-06-20T18:24:21Z</time>
      </trkpt>
      <trkpt lat="41.786024" lon="1.099022">
        <ele>369.699</ele>
        <time>2021-06-20T18:24:23Z</time>
      </trkpt>
      <trkpt lat="41.786010" lon="1.098954">
        <ele>369.656</ele>
        <time>2021-06-20T18:24:26Z</time>
      </trkpt>
      <trkpt lat="41.786006" lon="1.098951">
        <ele>369.848</ele>
        <time>2021-06-20T18:24:28Z</time>
      </trkpt>
      <trkpt lat="41.786015" lon="1.099003">
        <ele>369.832</ele>
        <time>2021-06-20T18:25:41Z</time>
      </trkpt>
      <trkpt lat="41.785999" lon="1.099086">
        <ele>369.823</ele>
        <time>2021-06-20T18:25:44Z</time>
      </trkpt>
      <trkpt lat="41.785983" lon="1.099138">
        <ele>370.063</ele>
        <time>2021-06-20T18:25:46Z</time>
      </trkpt>
      <trkpt lat="41.785935" lon="1.099294">
        <ele>370.091</ele>
        <time>2021-06-20T18:25:51Z</time>
      </trkpt>
      <trkpt lat="41.785920" lon="1.099319">
        <ele>370.058</ele>
        <time>2021-06-20T18:25:52Z</time>
      </trkpt>
      <trkpt lat="41.785898" lon="1.099386">
        <ele>370.052</ele>
        <time>2021-06-20T18:25:55Z</time>
      </trkpt>
      <trkpt lat="41.785879" lon="1.099434">
        <ele>370.017</ele>
        <time>2021-06-20T18:25:59Z</time>
      </trkpt>
      <trkpt lat="41.785885" lon="1.099488">
        <ele>369.808</ele>
        <time>2021-06-20T18:26:04Z</time>
      </trkpt>
      <trkpt lat="41.785910" lon="1.099502">
        <ele>369.612</ele>
        <time>2021-06-20T18:26:05Z</time>
      </trkpt>
      <trkpt lat="41.785937" lon="1.099493">
        <ele>369.421</ele>
        <time>2021-06-20T18:26:08Z</time>
      </trkpt>
      <trkpt lat="41.785893" lon="1.099487">
        <ele>369.478</ele>
        <time>2021-06-20T18:26:11Z</time>
      </trkpt>
      <trkpt lat="41.785839" lon="1.099590">
        <ele>369.220</ele>
        <time>2021-06-20T18:26:14Z</time>
      </trkpt>
      <trkpt lat="41.785682" lon="1.099968">
        <ele>368.614</ele>
        <time>2021-06-20T18:26:21Z</time>
      </trkpt>
      <trkpt lat="41.785625" lon="1.100095">
        <ele>368.275</ele>
        <time>2021-06-20T18:26:23Z</time>
      </trkpt>
      <trkpt lat="41.785491" lon="1.100404">
        <ele>367.095</ele>
        <time>2021-06-20T18:26:28Z</time>
      </trkpt>
      <trkpt lat="41.785419" lon="1.100575">
        <ele>366.473</ele>
        <time>2021-06-20T18:26:31Z</time>
      </trkpt>
      <trkpt lat="41.785251" lon="1.100976">
        <ele>366.285</ele>
        <time>2021-06-20T18:26:39Z</time>
      </trkpt>
      <trkpt lat="41.785145" lon="1.101236">
        <ele>366.489</ele>
        <time>2021-06-20T18:26:46Z</time>
      </trkpt>
      <trkpt lat="41.785125" lon="1.101276">
        <ele>366.617</ele>
        <time>2021-06-20T18:26:50Z</time>
      </trkpt>
      <trkpt lat="41.785051" lon="1.101427">
        <ele>366.808</ele>
        <time>2021-06-20T18:26:55Z</time>
      </trkpt>
      <trkpt lat="41.785002" lon="1.101471">
        <ele>366.855</ele>
        <time>2021-06-20T18:26:57Z</time>
      </trkpt>
      <trkpt lat="41.784940" lon="1.101461">
        <ele>366.844</ele>
        <time>2021-06-20T18:26:59Z</time>
      </trkpt>
      <trkpt lat="41.784680" lon="1.101344">
        <ele>366.631</ele>
        <time>2021-06-20T18:27:05Z</time>
      </trkpt>
      <trkpt lat="41.784622" lon="1.101323">
        <ele>366.083</ele>
        <time>2021-06-20T18:27:06Z</time>
      </trkpt>
      <trkpt lat="41.784456" lon="1.101259">
        <ele>364.887</ele>
        <time>2021-06-20T18:27:09Z</time>
      </trkpt>
      <trkpt lat="41.784289" lon="1.101200">
        <ele>364.488</ele>
        <time>2021-06-20T18:27:12Z</time>
      </trkpt>
      <trkpt lat="41.784203" lon="1.101164">
        <ele>363.438</ele>
        <time>2021-06-20T18:27:14Z</time>
      </trkpt>
      <trkpt lat="41.784138" lon="1.101117">
        <ele>363.296</ele>
        <time>2021-06-20T18:27:16Z</time>
      </trkpt>
      <trkpt lat="41.783958" lon="1.101035">
        <ele>362.876</ele>
        <time>2021-06-20T18:27:21Z</time>
      </trkpt>
      <trkpt lat="41.783880" lon="1.101000">
        <ele>362.690</ele>
        <time>2021-06-20T18:27:23Z</time>
      </trkpt>
      <trkpt lat="41.783807" lon="1.100951">
        <ele>362.419</ele>
        <time>2021-06-20T18:27:25Z</time>
      </trkpt>
      <trkpt lat="41.783732" lon="1.100926">
        <ele>362.408</ele>
        <time>2021-06-20T18:27:27Z</time>
      </trkpt>
      <trkpt lat="41.783602" lon="1.100882">
        <ele>362.224</ele>
        <time>2021-06-20T18:27:30Z</time>
      </trkpt>
      <trkpt lat="41.783477" lon="1.100815">
        <ele>362.233</ele>
        <time>2021-06-20T18:27:33Z</time>
      </trkpt>
      <trkpt lat="41.783169" lon="1.100676">
        <ele>361.830</ele>
        <time>2021-06-20T18:27:39Z</time>
      </trkpt>
      <trkpt lat="41.783036" lon="1.100614">
        <ele>361.872</ele>
        <time>2021-06-20T18:27:42Z</time>
      </trkpt>
      <trkpt lat="41.782952" lon="1.100582">
        <ele>361.826</ele>
        <time>2021-06-20T18:27:44Z</time>
      </trkpt>
      <trkpt lat="41.782682" lon="1.100460">
        <ele>361.657</ele>
        <time>2021-06-20T18:27:51Z</time>
      </trkpt>
      <trkpt lat="41.782660" lon="1.100436">
        <ele>361.657</ele>
        <time>2021-06-20T18:27:52Z</time>
      </trkpt>
      <trkpt lat="41.782647" lon="1.100405">
        <ele>361.695</ele>
        <time>2021-06-20T18:27:54Z</time>
      </trkpt>
      <trkpt lat="41.782647" lon="1.100392">
        <ele>361.621</ele>
        <time>2021-06-20T18:27:55Z</time>
      </trkpt>
      <trkpt lat="41.782650" lon="1.100339">
        <ele>361.841</ele>
        <time>2021-06-20T18:27:59Z</time>
      </trkpt>
      <trkpt lat="41.782647" lon="1.100360">
        <ele>362.605</ele>
        <time>2021-06-20T18:28:02Z</time>
      </trkpt>
      <trkpt lat="41.782663" lon="1.100380">
        <ele>362.608</ele>
        <time>2021-06-20T18:28:04Z</time>
      </trkpt>
      <trkpt lat="41.782723" lon="1.100361">
        <ele>362.849</ele>
        <time>2021-06-20T18:28:07Z</time>
      </trkpt>
      <trkpt lat="41.782736" lon="1.100337">
        <ele>362.888</ele>
        <time>2021-06-20T18:28:11Z</time>
      </trkpt>
      <trkpt lat="41.782743" lon="1.100330">
        <ele>362.875</ele>
        <time>2021-06-20T18:28:12Z</time>
      </trkpt>
      <trkpt lat="41.782671" lon="1.100255">
        <ele>362.447</ele>
        <time>2021-06-20T18:37:53Z</time>
      </trkpt>
      <trkpt lat="41.782679" lon="1.100208">
        <ele>362.491</ele>
        <time>2021-06-20T18:37:55Z</time>
      </trkpt>
      <trkpt lat="41.782717" lon="1.100061">
        <ele>362.682</ele>
        <time>2021-06-20T18:38:01Z</time>
      </trkpt>
      <trkpt lat="41.782753" lon="1.099899">
        <ele>362.842</ele>
        <time>2021-06-20T18:38:08Z</time>
      </trkpt>
      <trkpt lat="41.782802" lon="1.099689">
        <ele>362.870</ele>
        <time>2021-06-20T18:38:15Z</time>
      </trkpt>
      <trkpt lat="41.782825" lon="1.099584">
        <ele>362.888</ele>
        <time>2021-06-20T18:38:18Z</time>
      </trkpt>
      <trkpt lat="41.782821" lon="1.099570">
        <ele>362.824</ele>
        <time>2021-06-20T18:38:19Z</time>
      </trkpt>
      <trkpt lat="41.782826" lon="1.099555">
        <ele>362.826</ele>
        <time>2021-06-20T18:38:21Z</time>
      </trkpt>
      <trkpt lat="41.782874" lon="1.099440">
        <ele>362.608</ele>
        <time>2021-06-20T18:39:44Z</time>
      </trkpt>
      <trkpt lat="41.782886" lon="1.099447">
        <ele>362.675</ele>
        <time>2021-06-20T18:39:45Z</time>
      </trkpt>
      <trkpt lat="41.782891" lon="1.099502">
        <ele>362.634</ele>
        <time>2021-06-20T18:39:48Z</time>
      </trkpt>
      <trkpt lat="41.782886" lon="1.099555">
        <ele>362.681</ele>
        <time>2021-06-20T18:39:50Z</time>
      </trkpt>
      <trkpt lat="41.782829" lon="1.099721">
        <ele>362.683</ele>
        <time>2021-06-20T18:39:56Z</time>
      </trkpt>
      <trkpt lat="41.782776" lon="1.099884">
        <ele>362.697</ele>
        <time>2021-06-20T18:40:02Z</time>
      </trkpt>
      <trkpt lat="41.782727" lon="1.100035">
        <ele>362.618</ele>
        <time>2021-06-20T18:40:08Z</time>
      </trkpt>
      <trkpt lat="41.782716" lon="1.100186">
        <ele>362.858</ele>
        <time>2021-06-20T18:40:13Z</time>
      </trkpt>
      <trkpt lat="41.782657" lon="1.100281">
        <ele>362.876</ele>
        <time>2021-06-20T18:40:18Z</time>
      </trkpt>
      <trkpt lat="41.782638" lon="1.100287">
        <ele>363.091</ele>
        <time>2021-06-20T18:40:19Z</time>
      </trkpt>
      <trkpt lat="41.782444" lon="1.100306">
        <ele>363.081</ele>
        <time>2021-06-20T18:40:26Z</time>
      </trkpt>
      <trkpt lat="41.782310" lon="1.100310">
        <ele>363.019</ele>
        <time>2021-06-20T18:40:31Z</time>
      </trkpt>
      <trkpt lat="41.782100" lon="1.100423">
        <ele>362.808</ele>
        <time>2021-06-20T18:40:37Z</time>
      </trkpt>
      <trkpt lat="41.781944" lon="1.100494">
        <ele>363.056</ele>
        <time>2021-06-20T18:40:42Z</time>
      </trkpt>
      <trkpt lat="41.781744" lon="1.100554">
        <ele>363.225</ele>
        <time>2021-06-20T18:40:48Z</time>
      </trkpt>
      <trkpt lat="41.781486" lon="1.100632">
        <ele>362.862</ele>
        <time>2021-06-20T18:40:56Z</time>
      </trkpt>
      <trkpt lat="41.781256" lon="1.100691">
        <ele>363.024</ele>
        <time>2021-06-20T18:41:03Z</time>
      </trkpt>
      <trkpt lat="41.781105" lon="1.100681">
        <ele>363.678</ele>
        <time>2021-06-20T18:41:09Z</time>
      </trkpt>
      <trkpt lat="41.780957" lon="1.100709">
        <ele>364.459</ele>
        <time>2021-06-20T18:41:14Z</time>
      </trkpt>
      <trkpt lat="41.780802" lon="1.100648">
        <ele>364.839</ele>
        <time>2021-06-20T18:41:19Z</time>
      </trkpt>
      <trkpt lat="41.780540" lon="1.100489">
        <ele>365.417</ele>
        <time>2021-06-20T18:41:28Z</time>
      </trkpt>
      <trkpt lat="41.780486" lon="1.100460">
        <ele>365.446</ele>
        <time>2021-06-20T18:41:30Z</time>
      </trkpt>
      <trkpt lat="41.780320" lon="1.100350">
        <ele>366.488</ele>
        <time>2021-06-20T18:41:36Z</time>
      </trkpt>
      <trkpt lat="41.780291" lon="1.100331">
        <ele>366.616</ele>
        <time>2021-06-20T18:41:37Z</time>
      </trkpt>
      <trkpt lat="41.780030" lon="1.100156">
        <ele>367.008</ele>
        <time>2021-06-20T18:41:46Z</time>
      </trkpt>
      <trkpt lat="41.779743" lon="1.099969">
        <ele>367.821</ele>
        <time>2021-06-20T18:41:56Z</time>
      </trkpt>
      <trkpt lat="41.779714" lon="1.099951">
        <ele>367.810</ele>
        <time>2021-06-20T18:41:57Z</time>
      </trkpt>
      <trkpt lat="41.779391" lon="1.099788">
        <ele>368.637</ele>
        <time>2021-06-20T18:42:08Z</time>
      </trkpt>
      <trkpt lat="41.779165" lon="1.099644">
        <ele>368.629</ele>
        <time>2021-06-20T18:42:16Z</time>
      </trkpt>
      <trkpt lat="41.779079" lon="1.099587">
        <ele>368.863</ele>
        <time>2021-06-20T18:42:19Z</time>
      </trkpt>
      <trkpt lat="41.778912" lon="1.099454">
        <ele>369.484</ele>
        <time>2021-06-20T18:42:25Z</time>
      </trkpt>
      <trkpt lat="41.778700" lon="1.099308">
        <ele>370.094</ele>
        <time>2021-06-20T18:42:32Z</time>
      </trkpt>
      <trkpt lat="41.778604" lon="1.099250">
        <ele>370.012</ele>
        <time>2021-06-20T18:42:35Z</time>
      </trkpt>
      <trkpt lat="41.778373" lon="1.099106">
        <ele>371.031</ele>
        <time>2021-06-20T18:42:42Z</time>
      </trkpt>
      <trkpt lat="41.778306" lon="1.099058">
        <ele>371.261</ele>
        <time>2021-06-20T18:42:44Z</time>
      </trkpt>
      <trkpt lat="41.778042" lon="1.098899">
        <ele>371.207</ele>
        <time>2021-06-20T18:42:52Z</time>
      </trkpt>
      <trkpt lat="41.777726" lon="1.098715">
        <ele>371.408</ele>
        <time>2021-06-20T18:43:02Z</time>
      </trkpt>
      <trkpt lat="41.777433" lon="1.098533">
        <ele>372.220</ele>
        <time>2021-06-20T18:43:12Z</time>
      </trkpt>
      <trkpt lat="41.777405" lon="1.098516">
        <ele>372.429</ele>
        <time>2021-06-20T18:43:13Z</time>
      </trkpt>
      <trkpt lat="41.777150" lon="1.098353">
        <ele>372.816</ele>
        <time>2021-06-20T18:43:22Z</time>
      </trkpt>
      <trkpt lat="41.777010" lon="1.098261">
        <ele>373.238</ele>
        <time>2021-06-20T18:43:27Z</time>
      </trkpt>
      <trkpt lat="41.776896" lon="1.098188">
        <ele>373.652</ele>
        <time>2021-06-20T18:43:31Z</time>
      </trkpt>
      <trkpt lat="41.776679" lon="1.098021">
        <ele>374.023</ele>
        <time>2021-06-20T18:43:39Z</time>
      </trkpt>
      <trkpt lat="41.776594" lon="1.097959">
        <ele>374.463</ele>
        <time>2021-06-20T18:43:42Z</time>
      </trkpt>
      <trkpt lat="41.776392" lon="1.097832">
        <ele>375.081</ele>
        <time>2021-06-20T18:43:49Z</time>
      </trkpt>
      <trkpt lat="41.776190" lon="1.097720">
        <ele>375.444</ele>
        <time>2021-06-20T18:43:56Z</time>
      </trkpt>
      <trkpt lat="41.776160" lon="1.097705">
        <ele>375.605</ele>
        <time>2021-06-20T18:43:57Z</time>
      </trkpt>
      <trkpt lat="41.775862" lon="1.097554">
        <ele>376.415</ele>
        <time>2021-06-20T18:44:07Z</time>
      </trkpt>
      <trkpt lat="41.775550" lon="1.097366">
        <ele>377.408</ele>
        <time>2021-06-20T18:44:18Z</time>
      </trkpt>
      <trkpt lat="41.775523" lon="1.097346">
        <ele>377.681</ele>
        <time>2021-06-20T18:44:19Z</time>
      </trkpt>
      <trkpt lat="41.775310" lon="1.097190">
        <ele>378.040</ele>
        <time>2021-06-20T18:44:27Z</time>
      </trkpt>
      <trkpt lat="41.775174" lon="1.097103">
        <ele>378.697</ele>
        <time>2021-06-20T18:44:32Z</time>
      </trkpt>
      <trkpt lat="41.775068" lon="1.097031">
        <ele>379.299</ele>
        <time>2021-06-20T18:44:36Z</time>
      </trkpt>
      <trkpt lat="41.774987" lon="1.096976">
        <ele>379.613</ele>
        <time>2021-06-20T18:44:39Z</time>
      </trkpt>
      <trkpt lat="41.774866" lon="1.096852">
        <ele>380.014</ele>
        <time>2021-06-20T18:44:44Z</time>
      </trkpt>
      <trkpt lat="41.774792" lon="1.096682">
        <ele>380.094</ele>
        <time>2021-06-20T18:44:49Z</time>
      </trkpt>
      <trkpt lat="41.774718" lon="1.096439">
        <ele>380.432</ele>
        <time>2021-06-20T18:44:55Z</time>
      </trkpt>
      <trkpt lat="41.774629" lon="1.096359">
        <ele>380.875</ele>
        <time>2021-06-20T18:44:58Z</time>
      </trkpt>
      <trkpt lat="41.774533" lon="1.096289">
        <ele>381.028</ele>
        <time>2021-06-20T18:45:01Z</time>
      </trkpt>
      <trkpt lat="41.774363" lon="1.096246">
        <ele>381.220</ele>
        <time>2021-06-20T18:45:06Z</time>
      </trkpt>
      <trkpt lat="41.774172" lon="1.096368">
        <ele>381.608</ele>
        <time>2021-06-20T18:45:12Z</time>
      </trkpt>
      <trkpt lat="41.774143" lon="1.096388">
        <ele>381.874</ele>
        <time>2021-06-20T18:45:13Z</time>
      </trkpt>
      <trkpt lat="41.774005" lon="1.096464">
        <ele>382.243</ele>
        <time>2021-06-20T18:45:18Z</time>
      </trkpt>
      <trkpt lat="41.773830" lon="1.096409">
        <ele>382.240</ele>
        <time>2021-06-20T18:45:24Z</time>
      </trkpt>
      <trkpt lat="41.773534" lon="1.096253">
        <ele>382.252</ele>
        <time>2021-06-20T18:45:35Z</time>
      </trkpt>
      <trkpt lat="41.773330" lon="1.096154">
        <ele>382.626</ele>
        <time>2021-06-20T18:45:43Z</time>
      </trkpt>
      <trkpt lat="41.773102" lon="1.096042">
        <ele>382.877</ele>
        <time>2021-06-20T18:45:52Z</time>
      </trkpt>
      <trkpt lat="41.773024" lon="1.096006">
        <ele>383.287</ele>
        <time>2021-06-20T18:45:55Z</time>
      </trkpt>
      <trkpt lat="41.772814" lon="1.095914">
        <ele>383.625</ele>
        <time>2021-06-20T18:46:03Z</time>
      </trkpt>
      <trkpt lat="41.772737" lon="1.095874">
        <ele>383.878</ele>
        <time>2021-06-20T18:46:06Z</time>
      </trkpt>
      <trkpt lat="41.772579" lon="1.095782">
        <ele>384.633</ele>
        <time>2021-06-20T18:46:12Z</time>
      </trkpt>
      <trkpt lat="41.772424" lon="1.095693">
        <ele>385.026</ele>
        <time>2021-06-20T18:46:18Z</time>
      </trkpt>
      <trkpt lat="41.772373" lon="1.095659">
        <ele>385.008</ele>
        <time>2021-06-20T18:46:20Z</time>
      </trkpt>
      <trkpt lat="41.772197" lon="1.095543">
        <ele>385.024</ele>
        <time>2021-06-20T18:46:27Z</time>
      </trkpt>
      <trkpt lat="41.771912" lon="1.095390">
        <ele>385.293</ele>
        <time>2021-06-20T18:46:38Z</time>
      </trkpt>
      <trkpt lat="41.771723" lon="1.095299">
        <ele>385.650</ele>
        <time>2021-06-20T18:46:46Z</time>
      </trkpt>
      <trkpt lat="41.771679" lon="1.095281">
        <ele>386.072</ele>
        <time>2021-06-20T18:46:48Z</time>
      </trkpt>
      <trkpt lat="41.771571" lon="1.095221">
        <ele>386.856</ele>
        <time>2021-06-20T18:46:53Z</time>
      </trkpt>
      <trkpt lat="41.771412" lon="1.095168">
        <ele>387.247</ele>
        <time>2021-06-20T18:47:00Z</time>
      </trkpt>
      <trkpt lat="41.771302" lon="1.095114">
        <ele>388.467</ele>
        <time>2021-06-20T18:47:05Z</time>
      </trkpt>
      <trkpt lat="41.771254" lon="1.095103">
        <ele>388.485</ele>
        <time>2021-06-20T18:47:07Z</time>
      </trkpt>
      <trkpt lat="41.771119" lon="1.095023">
        <ele>388.893</ele>
        <time>2021-06-20T18:47:13Z</time>
      </trkpt>
      <trkpt lat="41.770922" lon="1.094905">
        <ele>389.065</ele>
        <time>2021-06-20T18:47:22Z</time>
      </trkpt>
      <trkpt lat="41.770814" lon="1.094848">
        <ele>389.421</ele>
        <time>2021-06-20T18:47:27Z</time>
      </trkpt>
      <trkpt lat="41.770694" lon="1.094752">
        <ele>390.008</ele>
        <time>2021-06-20T18:47:33Z</time>
      </trkpt>
      <trkpt lat="41.770569" lon="1.094668">
        <ele>390.456</ele>
        <time>2021-06-20T18:47:39Z</time>
      </trkpt>
      <trkpt lat="41.770505" lon="1.094629">
        <ele>390.815</ele>
        <time>2021-06-20T18:47:42Z</time>
      </trkpt>
      <trkpt lat="41.770346" lon="1.094516">
        <ele>391.452</ele>
        <time>2021-06-20T18:47:50Z</time>
      </trkpt>
      <trkpt lat="41.770325" lon="1.094504">
        <ele>391.634</ele>
        <time>2021-06-20T18:47:51Z</time>
      </trkpt>
      <trkpt lat="41.770104" lon="1.094397">
        <ele>392.488</ele>
        <time>2021-06-20T18:48:01Z</time>
      </trkpt>
      <trkpt lat="41.769907" lon="1.094322">
        <ele>393.249</ele>
        <time>2021-06-20T18:48:09Z</time>
      </trkpt>
      <trkpt lat="41.769852" lon="1.094303">
        <ele>393.659</ele>
        <time>2021-06-20T18:48:11Z</time>
      </trkpt>
      <trkpt lat="41.769603" lon="1.094208">
        <ele>394.437</ele>
        <time>2021-06-20T18:48:20Z</time>
      </trkpt>
      <trkpt lat="41.769438" lon="1.094147">
        <ele>394.659</ele>
        <time>2021-06-20T18:48:26Z</time>
      </trkpt>
      <trkpt lat="41.769382" lon="1.094129">
        <ele>394.803</ele>
        <time>2021-06-20T18:48:28Z</time>
      </trkpt>
      <trkpt lat="41.769170" lon="1.094027">
        <ele>395.223</ele>
        <time>2021-06-20T18:48:36Z</time>
      </trkpt>
      <trkpt lat="41.768965" lon="1.093922">
        <ele>395.408</ele>
        <time>2021-06-20T18:48:44Z</time>
      </trkpt>
      <trkpt lat="41.768780" lon="1.093850">
        <ele>395.492</ele>
        <time>2021-06-20T18:48:51Z</time>
      </trkpt>
      <trkpt lat="41.768597" lon="1.093771">
        <ele>395.631</ele>
        <time>2021-06-20T18:48:58Z</time>
      </trkpt>
      <trkpt lat="41.768572" lon="1.093758">
        <ele>395.648</ele>
        <time>2021-06-20T18:48:59Z</time>
      </trkpt>
      <trkpt lat="41.768364" lon="1.093635">
        <ele>396.030</ele>
        <time>2021-06-20T18:49:07Z</time>
      </trkpt>
      <trkpt lat="41.768174" lon="1.093538">
        <ele>396.634</ele>
        <time>2021-06-20T18:49:14Z</time>
      </trkpt>
      <trkpt lat="41.768093" lon="1.093480">
        <ele>396.845</ele>
        <time>2021-06-20T18:49:17Z</time>
      </trkpt>
      <trkpt lat="41.767826" lon="1.093307">
        <ele>397.665</ele>
        <time>2021-06-20T18:49:27Z</time>
      </trkpt>
      <trkpt lat="41.767774" lon="1.093274">
        <ele>397.693</ele>
        <time>2021-06-20T18:49:29Z</time>
      </trkpt>
      <trkpt lat="41.767553" lon="1.093159">
        <ele>398.096</ele>
        <time>2021-06-20T18:49:37Z</time>
      </trkpt>
      <trkpt lat="41.767184" lon="1.092982">
        <ele>398.631</ele>
        <time>2021-06-20T18:49:50Z</time>
      </trkpt>
      <trkpt lat="41.766973" lon="1.092892">
        <ele>399.224</ele>
        <time>2021-06-20T18:49:58Z</time>
      </trkpt>
      <trkpt lat="41.766859" lon="1.092838">
        <ele>399.808</ele>
        <time>2021-06-20T18:50:03Z</time>
      </trkpt>
      <trkpt lat="41.766758" lon="1.092792">
        <ele>400.026</ele>
        <time>2021-06-20T18:50:08Z</time>
      </trkpt>
      <trkpt lat="41.766622" lon="1.092723">
        <ele>400.845</ele>
        <time>2021-06-20T18:50:15Z</time>
      </trkpt>
      <trkpt lat="41.766544" lon="1.092684">
        <ele>401.252</ele>
        <time>2021-06-20T18:50:19Z</time>
      </trkpt>
      <trkpt lat="41.766485" lon="1.092652">
        <ele>401.814</ele>
        <time>2021-06-20T18:50:22Z</time>
      </trkpt>
      <trkpt lat="41.766327" lon="1.092572">
        <ele>402.628</ele>
        <time>2021-06-20T18:50:30Z</time>
      </trkpt>
      <trkpt lat="41.766213" lon="1.092509">
        <ele>403.049</ele>
        <time>2021-06-20T18:50:36Z</time>
      </trkpt>
      <trkpt lat="41.766157" lon="1.092472">
        <ele>403.019</ele>
        <time>2021-06-20T18:50:39Z</time>
      </trkpt>
      <trkpt lat="41.765988" lon="1.092366">
        <ele>404.097</ele>
        <time>2021-06-20T18:50:48Z</time>
      </trkpt>
      <trkpt lat="41.765950" lon="1.092346">
        <ele>404.262</ele>
        <time>2021-06-20T18:50:50Z</time>
      </trkpt>
      <trkpt lat="41.765854" lon="1.092288">
        <ele>405.083</ele>
        <time>2021-06-20T18:50:55Z</time>
      </trkpt>
      <trkpt lat="41.765777" lon="1.092243">
        <ele>406.011</ele>
        <time>2021-06-20T18:50:59Z</time>
      </trkpt>
      <trkpt lat="41.765759" lon="1.092231">
        <ele>406.008</ele>
        <time>2021-06-20T18:51:00Z</time>
      </trkpt>
      <trkpt lat="41.765607" lon="1.092144">
        <ele>407.053</ele>
        <time>2021-06-20T18:51:08Z</time>
      </trkpt>
      <trkpt lat="41.765589" lon="1.092133">
        <ele>407.232</ele>
        <time>2021-06-20T18:51:09Z</time>
      </trkpt>
      <trkpt lat="41.765438" lon="1.092043">
        <ele>408.499</ele>
        <time>2021-06-20T18:51:17Z</time>
      </trkpt>
      <trkpt lat="41.765419" lon="1.092032">
        <ele>408.421</ele>
        <time>2021-06-20T18:51:18Z</time>
      </trkpt>
      <trkpt lat="41.765327" lon="1.091978">
        <ele>409.435</ele>
        <time>2021-06-20T18:51:23Z</time>
      </trkpt>
      <trkpt lat="41.765290" lon="1.091955">
        <ele>409.676</ele>
        <time>2021-06-20T18:51:25Z</time>
      </trkpt>
      <trkpt lat="41.765162" lon="1.091877">
        <ele>410.626</ele>
        <time>2021-06-20T18:51:32Z</time>
      </trkpt>
      <trkpt lat="41.765143" lon="1.091865">
        <ele>410.854</ele>
        <time>2021-06-20T18:51:33Z</time>
      </trkpt>
      <trkpt lat="41.765014" lon="1.091794">
        <ele>411.458</ele>
        <time>2021-06-20T18:51:40Z</time>
      </trkpt>
      <trkpt lat="41.764956" lon="1.091766">
        <ele>411.652</ele>
        <time>2021-06-20T18:51:43Z</time>
      </trkpt>
      <trkpt lat="41.764819" lon="1.091696">
        <ele>412.217</ele>
        <time>2021-06-20T18:51:50Z</time>
      </trkpt>
      <trkpt lat="41.764740" lon="1.091659">
        <ele>412.608</ele>
        <time>2021-06-20T18:51:54Z</time>
      </trkpt>
      <trkpt lat="41.764640" lon="1.091614">
        <ele>413.622</ele>
        <time>2021-06-20T18:51:59Z</time>
      </trkpt>
      <trkpt lat="41.764599" lon="1.091598">
        <ele>414.041</ele>
        <time>2021-06-20T18:52:01Z</time>
      </trkpt>
      <trkpt lat="41.764476" lon="1.091540">
        <ele>414.818</ele>
        <time>2021-06-20T18:52:07Z</time>
      </trkpt>
      <trkpt lat="41.764334" lon="1.091490">
        <ele>415.490</ele>
        <time>2021-06-20T18:52:14Z</time>
      </trkpt>
      <trkpt lat="41.764275" lon="1.091461">
        <ele>415.864</ele>
        <time>2021-06-20T18:52:17Z</time>
      </trkpt>
      <trkpt lat="41.764157" lon="1.091409">
        <ele>416.455</ele>
        <time>2021-06-20T18:52:23Z</time>
      </trkpt>
      <trkpt lat="41.763955" lon="1.091338">
        <ele>416.635</ele>
        <time>2021-06-20T18:52:33Z</time>
      </trkpt>
      <trkpt lat="41.763915" lon="1.091320">
        <ele>416.823</ele>
        <time>2021-06-20T18:52:35Z</time>
      </trkpt>
      <trkpt lat="41.763795" lon="1.091272">
        <ele>417.632</ele>
        <time>2021-06-20T18:52:41Z</time>
      </trkpt>
      <trkpt lat="41.763694" lon="1.091233">
        <ele>418.092</ele>
        <time>2021-06-20T18:52:46Z</time>
      </trkpt>
      <trkpt lat="41.763575" lon="1.091186">
        <ele>418.611</ele>
        <time>2021-06-20T18:52:52Z</time>
      </trkpt>
      <trkpt lat="41.763498" lon="1.091151">
        <ele>419.208</ele>
        <time>2021-06-20T18:52:56Z</time>
      </trkpt>
      <trkpt lat="41.763402" lon="1.091126">
        <ele>419.660</ele>
        <time>2021-06-20T18:53:01Z</time>
      </trkpt>
      <trkpt lat="41.763337" lon="1.091072">
        <ele>420.229</ele>
        <time>2021-06-20T18:53:05Z</time>
      </trkpt>
      <trkpt lat="41.763284" lon="1.091038">
        <ele>421.266</ele>
        <time>2021-06-20T18:53:08Z</time>
      </trkpt>
      <trkpt lat="41.763264" lon="1.091032">
        <ele>421.438</ele>
        <time>2021-06-20T18:53:09Z</time>
      </trkpt>
      <trkpt lat="41.763131" lon="1.090988">
        <ele>422.472</ele>
        <time>2021-06-20T18:53:16Z</time>
      </trkpt>
      <trkpt lat="41.763033" lon="1.090954">
        <ele>423.663</ele>
        <time>2021-06-20T18:53:21Z</time>
      </trkpt>
      <trkpt lat="41.762992" lon="1.090941">
        <ele>423.813</ele>
        <time>2021-06-20T18:53:23Z</time>
      </trkpt>
      <trkpt lat="41.762861" lon="1.090923">
        <ele>424.871</ele>
        <time>2021-06-20T18:53:29Z</time>
      </trkpt>
      <trkpt lat="41.762794" lon="1.090904">
        <ele>425.217</ele>
        <time>2021-06-20T18:53:32Z</time>
      </trkpt>
      <trkpt lat="41.762612" lon="1.090864">
        <ele>425.687</ele>
        <time>2021-06-20T18:53:40Z</time>
      </trkpt>
      <trkpt lat="41.762474" lon="1.090828">
        <ele>425.815</ele>
        <time>2021-06-20T18:53:46Z</time>
      </trkpt>
      <trkpt lat="41.762330" lon="1.090785">
        <ele>426.408</ele>
        <time>2021-06-20T18:53:52Z</time>
      </trkpt>
      <trkpt lat="41.762188" lon="1.090751">
        <ele>426.858</ele>
        <time>2021-06-20T18:53:58Z</time>
      </trkpt>
      <trkpt lat="41.762165" lon="1.090745">
        <ele>426.817</ele>
        <time>2021-06-20T18:53:59Z</time>
      </trkpt>
      <trkpt lat="41.762080" lon="1.090705">
        <ele>427.274</ele>
        <time>2021-06-20T18:54:03Z</time>
      </trkpt>
      <trkpt lat="41.761904" lon="1.090670">
        <ele>427.886</ele>
        <time>2021-06-20T18:54:11Z</time>
      </trkpt>
      <trkpt lat="41.761882" lon="1.090672">
        <ele>428.070</ele>
        <time>2021-06-20T18:54:12Z</time>
      </trkpt>
      <trkpt lat="41.761796" lon="1.090654">
        <ele>428.471</ele>
        <time>2021-06-20T18:54:16Z</time>
      </trkpt>
      <trkpt lat="41.761710" lon="1.090620">
        <ele>429.211</ele>
        <time>2021-06-20T18:54:20Z</time>
      </trkpt>
      <trkpt lat="41.761620" lon="1.090604">
        <ele>429.669</ele>
        <time>2021-06-20T18:54:24Z</time>
      </trkpt>
      <trkpt lat="41.761531" lon="1.090576">
        <ele>430.412</ele>
        <time>2021-06-20T18:54:28Z</time>
      </trkpt>
      <trkpt lat="41.761425" lon="1.090555">
        <ele>431.032</ele>
        <time>2021-06-20T18:54:33Z</time>
      </trkpt>
      <trkpt lat="41.761344" lon="1.090556">
        <ele>431.405</ele>
        <time>2021-06-20T18:54:37Z</time>
      </trkpt>
      <trkpt lat="41.761265" lon="1.090538">
        <ele>432.008</ele>
        <time>2021-06-20T18:54:41Z</time>
      </trkpt>
      <trkpt lat="41.761179" lon="1.090516">
        <ele>432.428</ele>
        <time>2021-06-20T18:54:45Z</time>
      </trkpt>
      <trkpt lat="41.761041" lon="1.090487">
        <ele>433.417</ele>
        <time>2021-06-20T18:54:51Z</time>
      </trkpt>
      <trkpt lat="41.760993" lon="1.090478">
        <ele>433.614</ele>
        <time>2021-06-20T18:54:53Z</time>
      </trkpt>
      <trkpt lat="41.760757" lon="1.090428">
        <ele>434.666</ele>
        <time>2021-06-20T18:55:02Z</time>
      </trkpt>
      <trkpt lat="41.760495" lon="1.090398">
        <ele>435.620</ele>
        <time>2021-06-20T18:55:12Z</time>
      </trkpt>
      <trkpt lat="41.760408" lon="1.090397">
        <ele>435.821</ele>
        <time>2021-06-20T18:55:15Z</time>
      </trkpt>
      <trkpt lat="41.760280" lon="1.090393">
        <ele>435.841</ele>
        <time>2021-06-20T18:55:20Z</time>
      </trkpt>
      <trkpt lat="41.760121" lon="1.090393">
        <ele>436.049</ele>
        <time>2021-06-20T18:55:26Z</time>
      </trkpt>
      <trkpt lat="41.759934" lon="1.090383">
        <ele>435.821</ele>
        <time>2021-06-20T18:55:33Z</time>
      </trkpt>
      <trkpt lat="41.759774" lon="1.090404">
        <ele>435.841</ele>
        <time>2021-06-20T18:55:41Z</time>
      </trkpt>
      <trkpt lat="41.759564" lon="1.090423">
        <ele>435.805</ele>
        <time>2021-06-20T18:55:48Z</time>
      </trkpt>
      <trkpt lat="41.759310" lon="1.090423">
        <ele>435.608</ele>
        <time>2021-06-20T18:55:56Z</time>
      </trkpt>
      <trkpt lat="41.759108" lon="1.090427">
        <ele>435.819</ele>
        <time>2021-06-20T18:56:02Z</time>
      </trkpt>
      <trkpt lat="41.758959" lon="1.090441">
        <ele>435.878</ele>
        <time>2021-06-20T18:56:07Z</time>
      </trkpt>
      <trkpt lat="41.758752" lon="1.090461">
        <ele>435.875</ele>
        <time>2021-06-20T18:56:13Z</time>
      </trkpt>
      <trkpt lat="41.758540" lon="1.090512">
        <ele>435.817</ele>
        <time>2021-06-20T18:56:19Z</time>
      </trkpt>
      <trkpt lat="41.758326" lon="1.090541">
        <ele>435.871</ele>
        <time>2021-06-20T18:56:25Z</time>
      </trkpt>
      <trkpt lat="41.758093" lon="1.090542">
        <ele>435.882</ele>
        <time>2021-06-20T18:56:31Z</time>
      </trkpt>
      <trkpt lat="41.757773" lon="1.090537">
        <ele>435.822</ele>
        <time>2021-06-20T18:56:40Z</time>
      </trkpt>
      <trkpt lat="41.757448" lon="1.090542">
        <ele>436.040</ele>
        <time>2021-06-20T18:56:49Z</time>
      </trkpt>
      <trkpt lat="41.757225" lon="1.090541">
        <ele>436.639</ele>
        <time>2021-06-20T18:56:55Z</time>
      </trkpt>
      <trkpt lat="41.756970" lon="1.090562">
        <ele>437.001</ele>
        <time>2021-06-20T18:57:02Z</time>
      </trkpt>
      <trkpt lat="41.756744" lon="1.090617">
        <ele>437.621</ele>
        <time>2021-06-20T18:57:09Z</time>
      </trkpt>
      <trkpt lat="41.756713" lon="1.090623">
        <ele>437.608</ele>
        <time>2021-06-20T18:57:10Z</time>
      </trkpt>
      <trkpt lat="41.756522" lon="1.090637">
        <ele>438.260</ele>
        <time>2021-06-20T18:57:17Z</time>
      </trkpt>
      <trkpt lat="41.756465" lon="1.090641">
        <ele>438.659</ele>
        <time>2021-06-20T18:57:20Z</time>
      </trkpt>
      <trkpt lat="41.756380" lon="1.090647">
        <ele>438.826</ele>
        <time>2021-06-20T18:57:23Z</time>
      </trkpt>
      <trkpt lat="41.756153" lon="1.090649">
        <ele>438.818</ele>
        <time>2021-06-20T18:57:28Z</time>
      </trkpt>
      <trkpt lat="41.755780" lon="1.090588">
        <ele>437.452</ele>
        <time>2021-06-20T18:57:35Z</time>
      </trkpt>
      <trkpt lat="41.755684" lon="1.090563">
        <ele>436.223</ele>
        <time>2021-06-20T18:57:37Z</time>
      </trkpt>
      <trkpt lat="41.755342" lon="1.090484">
        <ele>435.453</ele>
        <time>2021-06-20T18:57:44Z</time>
      </trkpt>
      <trkpt lat="41.755030" lon="1.090439">
        <ele>435.621</ele>
        <time>2021-06-20T18:57:51Z</time>
      </trkpt>
      <trkpt lat="41.754936" lon="1.090424">
        <ele>435.675</ele>
        <time>2021-06-20T18:57:53Z</time>
      </trkpt>
      <trkpt lat="41.754816" lon="1.090387">
        <ele>435.628</ele>
        <time>2021-06-20T18:57:56Z</time>
      </trkpt>
      <trkpt lat="41.754698" lon="1.090344">
        <ele>435.420</ele>
        <time>2021-06-20T18:57:59Z</time>
      </trkpt>
      <trkpt lat="41.754606" lon="1.090287">
        <ele>435.408</ele>
        <time>2021-06-20T18:58:01Z</time>
      </trkpt>
      <trkpt lat="41.754505" lon="1.090220">
        <ele>435.024</ele>
        <time>2021-06-20T18:58:03Z</time>
      </trkpt>
      <trkpt lat="41.754297" lon="1.090064">
        <ele>433.633</ele>
        <time>2021-06-20T18:58:07Z</time>
      </trkpt>
      <trkpt lat="41.754132" lon="1.089922">
        <ele>432.240</ele>
        <time>2021-06-20T18:58:10Z</time>
      </trkpt>
      <trkpt lat="41.753965" lon="1.089771">
        <ele>431.242</ele>
        <time>2021-06-20T18:58:13Z</time>
      </trkpt>
      <trkpt lat="41.753911" lon="1.089719">
        <ele>430.836</ele>
        <time>2021-06-20T18:58:14Z</time>
      </trkpt>
      <trkpt lat="41.753859" lon="1.089666">
        <ele>430.217</ele>
        <time>2021-06-20T18:58:15Z</time>
      </trkpt>
      <trkpt lat="41.753754" lon="1.089567">
        <ele>429.077</ele>
        <time>2021-06-20T18:58:17Z</time>
      </trkpt>
      <trkpt lat="41.753610" lon="1.089408">
        <ele>428.015</ele>
        <time>2021-06-20T18:58:20Z</time>
      </trkpt>
      <trkpt lat="41.753517" lon="1.089295">
        <ele>427.072</ele>
        <time>2021-06-20T18:58:22Z</time>
      </trkpt>
      <trkpt lat="41.753472" lon="1.089235">
        <ele>426.813</ele>
        <time>2021-06-20T18:58:23Z</time>
      </trkpt>
      <trkpt lat="41.753378" lon="1.089113">
        <ele>426.214</ele>
        <time>2021-06-20T18:58:25Z</time>
      </trkpt>
      <trkpt lat="41.753207" lon="1.088912">
        <ele>425.808</ele>
        <time>2021-06-20T18:58:28Z</time>
      </trkpt>
      <trkpt lat="41.753146" lon="1.088839">
        <ele>425.474</ele>
        <time>2021-06-20T18:58:29Z</time>
      </trkpt>
      <trkpt lat="41.752946" lon="1.088658">
        <ele>423.833</ele>
        <time>2021-06-20T18:58:32Z</time>
      </trkpt>
      <trkpt lat="41.752868" lon="1.088620">
        <ele>423.440</ele>
        <time>2021-06-20T18:58:33Z</time>
      </trkpt>
      <trkpt lat="41.752790" lon="1.088591">
        <ele>422.662</ele>
        <time>2021-06-20T18:58:34Z</time>
      </trkpt>
      <trkpt lat="41.752712" lon="1.088563">
        <ele>421.666</ele>
        <time>2021-06-20T18:58:35Z</time>
      </trkpt>
      <trkpt lat="41.752556" lon="1.088503">
        <ele>420.487</ele>
        <time>2021-06-20T18:58:37Z</time>
      </trkpt>
      <trkpt lat="41.752391" lon="1.088451">
        <ele>419.637</ele>
        <time>2021-06-20T18:58:39Z</time>
      </trkpt>
      <trkpt lat="41.752224" lon="1.088394">
        <ele>418.695</ele>
        <time>2021-06-20T18:58:41Z</time>
      </trkpt>
      <trkpt lat="41.752056" lon="1.088339">
        <ele>416.862</ele>
        <time>2021-06-20T18:58:43Z</time>
      </trkpt>
      <trkpt lat="41.751887" lon="1.088283">
        <ele>415.483</ele>
        <time>2021-06-20T18:58:45Z</time>
      </trkpt>
      <trkpt lat="41.751721" lon="1.088235">
        <ele>414.211</ele>
        <time>2021-06-20T18:58:47Z</time>
      </trkpt>
      <trkpt lat="41.751560" lon="1.088213">
        <ele>413.208</ele>
        <time>2021-06-20T18:58:49Z</time>
      </trkpt>
      <trkpt lat="41.751334" lon="1.088211">
        <ele>412.863</ele>
        <time>2021-06-20T18:58:52Z</time>
      </trkpt>
      <trkpt lat="41.751043" lon="1.088237">
        <ele>412.632</ele>
        <time>2021-06-20T18:58:56Z</time>
      </trkpt>
      <trkpt lat="41.750885" lon="1.088248">
        <ele>412.449</ele>
        <time>2021-06-20T18:58:58Z</time>
      </trkpt>
      <trkpt lat="41.750588" lon="1.088388">
        <ele>412.071</ele>
        <time>2021-06-20T18:59:02Z</time>
      </trkpt>
      <trkpt lat="41.750324" lon="1.088495">
        <ele>410.825</ele>
        <time>2021-06-20T18:59:06Z</time>
      </trkpt>
      <trkpt lat="41.750148" lon="1.088471">
        <ele>409.626</ele>
        <time>2021-06-20T18:59:09Z</time>
      </trkpt>
      <trkpt lat="41.750085" lon="1.088446">
        <ele>409.436</ele>
        <time>2021-06-20T18:59:10Z</time>
      </trkpt>
      <trkpt lat="41.749884" lon="1.088348">
        <ele>408.614</ele>
        <time>2021-06-20T18:59:13Z</time>
      </trkpt>
      <trkpt lat="41.749699" lon="1.088238">
        <ele>407.812</ele>
        <time>2021-06-20T18:59:16Z</time>
      </trkpt>
      <trkpt lat="41.749649" lon="1.088203">
        <ele>406.832</ele>
        <time>2021-06-20T18:59:17Z</time>
      </trkpt>
      <trkpt lat="41.749601" lon="1.088168">
        <ele>405.805</ele>
        <time>2021-06-20T18:59:18Z</time>
      </trkpt>
      <trkpt lat="41.749498" lon="1.088098">
        <ele>404.208</ele>
        <time>2021-06-20T18:59:20Z</time>
      </trkpt>
      <trkpt lat="41.749393" lon="1.088020">
        <ele>402.678</ele>
        <time>2021-06-20T18:59:22Z</time>
      </trkpt>
      <trkpt lat="41.749233" lon="1.087893">
        <ele>401.887</ele>
        <time>2021-06-20T18:59:25Z</time>
      </trkpt>
      <trkpt lat="41.749078" lon="1.087757">
        <ele>400.844</ele>
        <time>2021-06-20T18:59:28Z</time>
      </trkpt>
      <trkpt lat="41.748972" lon="1.087663">
        <ele>400.626</ele>
        <time>2021-06-20T18:59:30Z</time>
      </trkpt>
      <trkpt lat="41.748698" lon="1.087439">
        <ele>399.440</ele>
        <time>2021-06-20T18:59:35Z</time>
      </trkpt>
      <trkpt lat="41.748587" lon="1.087352">
        <ele>399.221</ele>
        <time>2021-06-20T18:59:37Z</time>
      </trkpt>
      <trkpt lat="41.748418" lon="1.087222">
        <ele>398.251</ele>
        <time>2021-06-20T18:59:40Z</time>
      </trkpt>
      <trkpt lat="41.748085" lon="1.086981">
        <ele>397.619</ele>
        <time>2021-06-20T18:59:46Z</time>
      </trkpt>
      <trkpt lat="41.747630" lon="1.086635">
        <ele>397.439</ele>
        <time>2021-06-20T18:59:55Z</time>
      </trkpt>
      <trkpt lat="41.747267" lon="1.086357">
        <ele>397.001</ele>
        <time>2021-06-20T19:00:02Z</time>
      </trkpt>
      <trkpt lat="41.746872" lon="1.086045">
        <ele>395.421</ele>
        <time>2021-06-20T19:00:09Z</time>
      </trkpt>
      <trkpt lat="41.746815" lon="1.085996">
        <ele>395.208</ele>
        <time>2021-06-20T19:00:10Z</time>
      </trkpt>
      <trkpt lat="41.746636" lon="1.085838">
        <ele>394.080</ele>
        <time>2021-06-20T19:00:13Z</time>
      </trkpt>
      <trkpt lat="41.746438" lon="1.085670">
        <ele>393.089</ele>
        <time>2021-06-20T19:00:16Z</time>
      </trkpt>
      <trkpt lat="41.746242" lon="1.085482">
        <ele>391.826</ele>
        <time>2021-06-20T19:00:19Z</time>
      </trkpt>
      <trkpt lat="41.746122" lon="1.085349">
        <ele>390.438</ele>
        <time>2021-06-20T19:00:21Z</time>
      </trkpt>
      <trkpt lat="41.746066" lon="1.085285">
        <ele>389.422</ele>
        <time>2021-06-20T19:00:22Z</time>
      </trkpt>
      <trkpt lat="41.745955" lon="1.085166">
        <ele>388.023</ele>
        <time>2021-06-20T19:00:24Z</time>
      </trkpt>
      <trkpt lat="41.745790" lon="1.084995">
        <ele>387.013</ele>
        <time>2021-06-20T19:00:27Z</time>
      </trkpt>
      <trkpt lat="41.745679" lon="1.084874">
        <ele>386.281</ele>
        <time>2021-06-20T19:00:29Z</time>
      </trkpt>
      <trkpt lat="41.745627" lon="1.084813">
        <ele>385.639</ele>
        <time>2021-06-20T19:00:30Z</time>
      </trkpt>
      <trkpt lat="41.745528" lon="1.084693">
        <ele>384.801</ele>
        <time>2021-06-20T19:00:32Z</time>
      </trkpt>
      <trkpt lat="41.745473" lon="1.084636">
        <ele>384.621</ele>
        <time>2021-06-20T19:00:33Z</time>
      </trkpt>
      <trkpt lat="41.745418" lon="1.084578">
        <ele>384.008</ele>
        <time>2021-06-20T19:00:34Z</time>
      </trkpt>
      <trkpt lat="41.745364" lon="1.084521">
        <ele>383.470</ele>
        <time>2021-06-20T19:00:35Z</time>
      </trkpt>
      <trkpt lat="41.745310" lon="1.084467">
        <ele>382.219</ele>
        <time>2021-06-20T19:00:36Z</time>
      </trkpt>
      <trkpt lat="41.745252" lon="1.084424">
        <ele>381.676</ele>
        <time>2021-06-20T19:00:37Z</time>
      </trkpt>
      <trkpt lat="41.745190" lon="1.084395">
        <ele>381.028</ele>
        <time>2021-06-20T19:00:38Z</time>
      </trkpt>
      <trkpt lat="41.745126" lon="1.084378">
        <ele>380.252</ele>
        <time>2021-06-20T19:00:39Z</time>
      </trkpt>
      <trkpt lat="41.745005" lon="1.084346">
        <ele>379.873</ele>
        <time>2021-06-20T19:00:41Z</time>
      </trkpt>
      <trkpt lat="41.744947" lon="1.084320">
        <ele>379.633</ele>
        <time>2021-06-20T19:00:42Z</time>
      </trkpt>
      <trkpt lat="41.744847" lon="1.084215">
        <ele>379.211</ele>
        <time>2021-06-20T19:00:44Z</time>
      </trkpt>
      <trkpt lat="41.744771" lon="1.083945">
        <ele>378.839</ele>
        <time>2021-06-20T19:00:47Z</time>
      </trkpt>
      <trkpt lat="41.744752" lon="1.083852">
        <ele>378.401</ele>
        <time>2021-06-20T19:00:48Z</time>
      </trkpt>
      <trkpt lat="41.744709" lon="1.083678">
        <ele>377.221</ele>
        <time>2021-06-20T19:00:50Z</time>
      </trkpt>
      <trkpt lat="41.744675" lon="1.083524">
        <ele>375.408</ele>
        <time>2021-06-20T19:00:52Z</time>
      </trkpt>
      <trkpt lat="41.744612" lon="1.083222">
        <ele>374.460</ele>
        <time>2021-06-20T19:00:57Z</time>
      </trkpt>
      <trkpt lat="41.744599" lon="1.083173">
        <ele>374.229</ele>
        <time>2021-06-20T19:00:58Z</time>
      </trkpt>
      <trkpt lat="41.744549" lon="1.082923">
        <ele>375.276</ele>
        <time>2021-06-20T19:01:04Z</time>
      </trkpt>
      <trkpt lat="41.744541" lon="1.082884">
        <ele>375.448</ele>
        <time>2021-06-20T19:01:05Z</time>
      </trkpt>
      <trkpt lat="41.744510" lon="1.082717">
        <ele>376.432</ele>
        <time>2021-06-20T19:01:09Z</time>
      </trkpt>
      <trkpt lat="41.744471" lon="1.082541">
        <ele>376.663</ele>
        <time>2021-06-20T19:01:13Z</time>
      </trkpt>
      <trkpt lat="41.744370" lon="1.082038">
        <ele>376.473</ele>
        <time>2021-06-20T19:01:24Z</time>
      </trkpt>
      <trkpt lat="41.744250" lon="1.081517">
        <ele>376.011</ele>
        <time>2021-06-20T19:01:34Z</time>
      </trkpt>
      <trkpt lat="41.744146" lon="1.081044">
        <ele>375.623</ele>
        <time>2021-06-20T19:01:44Z</time>
      </trkpt>
      <trkpt lat="41.744129" lon="1.080955">
        <ele>375.483</ele>
        <time>2021-06-20T19:01:46Z</time>
      </trkpt>
      <trkpt lat="41.744105" lon="1.080857">
        <ele>375.411</ele>
        <time>2021-06-20T19:01:48Z</time>
      </trkpt>
      <trkpt lat="41.744062" lon="1.080756">
        <ele>375.408</ele>
        <time>2021-06-20T19:01:50Z</time>
      </trkpt>
      <trkpt lat="41.743933" lon="1.080659">
        <ele>375.259</ele>
        <time>2021-06-20T19:01:53Z</time>
      </trkpt>
      <trkpt lat="41.743620" lon="1.080483">
        <ele>374.268</ele>
        <time>2021-06-20T19:01:58Z</time>
      </trkpt>
      <trkpt lat="41.743305" lon="1.080296">
        <ele>372.655</ele>
        <time>2021-06-20T19:02:02Z</time>
      </trkpt>
      <trkpt lat="41.743219" lon="1.080248">
        <ele>371.657</ele>
        <time>2021-06-20T19:02:03Z</time>
      </trkpt>
      <trkpt lat="41.743133" lon="1.080200">
        <ele>370.461</ele>
        <time>2021-06-20T19:02:04Z</time>
      </trkpt>
      <trkpt lat="41.742964" lon="1.080101">
        <ele>368.472</ele>
        <time>2021-06-20T19:02:06Z</time>
      </trkpt>
      <trkpt lat="41.742883" lon="1.080053">
        <ele>367.442</ele>
        <time>2021-06-20T19:02:07Z</time>
      </trkpt>
      <trkpt lat="41.742728" lon="1.079962">
        <ele>365.640</ele>
        <time>2021-06-20T19:02:09Z</time>
      </trkpt>
      <trkpt lat="41.742655" lon="1.079919">
        <ele>364.614</ele>
        <time>2021-06-20T19:02:10Z</time>
      </trkpt>
      <trkpt lat="41.742585" lon="1.079878">
        <ele>363.654</ele>
        <time>2021-06-20T19:02:11Z</time>
      </trkpt>
      <trkpt lat="41.742518" lon="1.079839">
        <ele>363.209</ele>
        <time>2021-06-20T19:02:12Z</time>
      </trkpt>
      <trkpt lat="41.742209" lon="1.079672">
        <ele>362.608</ele>
        <time>2021-06-20T19:02:17Z</time>
      </trkpt>
      <trkpt lat="41.742034" lon="1.079583">
        <ele>362.288</ele>
        <time>2021-06-20T19:02:20Z</time>
      </trkpt>
      <trkpt lat="41.741638" lon="1.079349">
        <ele>362.637</ele>
        <time>2021-06-20T19:02:27Z</time>
      </trkpt>
      <trkpt lat="41.741207" lon="1.079092">
        <ele>362.424</ele>
        <time>2021-06-20T19:02:34Z</time>
      </trkpt>
      <trkpt lat="41.740809" lon="1.078869">
        <ele>360.886</ele>
        <time>2021-06-20T19:02:40Z</time>
      </trkpt>
      <trkpt lat="41.740681" lon="1.078796">
        <ele>359.880</ele>
        <time>2021-06-20T19:02:42Z</time>
      </trkpt>
      <trkpt lat="41.740619" lon="1.078761">
        <ele>359.611</ele>
        <time>2021-06-20T19:02:43Z</time>
      </trkpt>
      <trkpt lat="41.740435" lon="1.078658">
        <ele>358.641</ele>
        <time>2021-06-20T19:02:46Z</time>
      </trkpt>
      <trkpt lat="41.740192" lon="1.078517">
        <ele>358.019</ele>
        <time>2021-06-20T19:02:50Z</time>
      </trkpt>
      <trkpt lat="41.739875" lon="1.078335">
        <ele>357.494</ele>
        <time>2021-06-20T19:02:55Z</time>
      </trkpt>
      <trkpt lat="41.739559" lon="1.078149">
        <ele>356.257</ele>
        <time>2021-06-20T19:03:00Z</time>
      </trkpt>
      <trkpt lat="41.739248" lon="1.077967">
        <ele>355.222</ele>
        <time>2021-06-20T19:03:05Z</time>
      </trkpt>
      <trkpt lat="41.739066" lon="1.077861">
        <ele>354.608</ele>
        <time>2021-06-20T19:03:08Z</time>
      </trkpt>
      <trkpt lat="41.738658" lon="1.077623">
        <ele>354.056</ele>
        <time>2021-06-20T19:03:15Z</time>
      </trkpt>
      <trkpt lat="41.738545" lon="1.077556">
        <ele>353.845</ele>
        <time>2021-06-20T19:03:17Z</time>
      </trkpt>
      <trkpt lat="41.738182" lon="1.077357">
        <ele>354.272</ele>
        <time>2021-06-20T19:03:24Z</time>
      </trkpt>
      <trkpt lat="41.738045" lon="1.077368">
        <ele>354.434</ele>
        <time>2021-06-20T19:03:28Z</time>
      </trkpt>
      <trkpt lat="41.737995" lon="1.077434">
        <ele>355.218</ele>
        <time>2021-06-20T19:03:32Z</time>
      </trkpt>
      <trkpt lat="41.737985" lon="1.077446">
        <ele>355.639</ele>
        <time>2021-06-20T19:03:33Z</time>
      </trkpt>
      <trkpt lat="41.737962" lon="1.077461">
        <ele>356.439</ele>
        <time>2021-06-20T19:03:35Z</time>
      </trkpt>
      <trkpt lat="41.737906" lon="1.077419">
        <ele>356.847</ele>
        <time>2021-06-20T19:03:38Z</time>
      </trkpt>
      <trkpt lat="41.737853" lon="1.077300">
        <ele>356.894</ele>
        <time>2021-06-20T19:03:41Z</time>
      </trkpt>
      <trkpt lat="41.737816" lon="1.077184">
        <ele>356.857</ele>
        <time>2021-06-20T19:03:44Z</time>
      </trkpt>
      <trkpt lat="41.737801" lon="1.077109">
        <ele>357.022</ele>
        <time>2021-06-20T19:03:47Z</time>
      </trkpt>
      <trkpt lat="41.737791" lon="1.077113">
        <ele>357.008</ele>
        <time>2021-06-20T19:03:48Z</time>
      </trkpt>
      <trkpt lat="41.737814" lon="1.077196">
        <ele>357.056</ele>
        <time>2021-06-20T19:03:52Z</time>
      </trkpt>
      <trkpt lat="41.737901" lon="1.077394">
        <ele>357.435</ele>
        <time>2021-06-20T19:03:58Z</time>
      </trkpt>
      <trkpt lat="41.738024" lon="1.077605">
        <ele>357.612</ele>
        <time>2021-06-20T19:04:05Z</time>
      </trkpt>
      <trkpt lat="41.738061" lon="1.077701">
        <ele>357.624</ele>
        <time>2021-06-20T19:04:07Z</time>
      </trkpt>
      <trkpt lat="41.738097" lon="1.077874">
        <ele>357.648</ele>
        <time>2021-06-20T19:04:10Z</time>
      </trkpt>
      <trkpt lat="41.738124" lon="1.078115">
        <ele>357.439</ele>
        <time>2021-06-20T19:04:14Z</time>
      </trkpt>
      <trkpt lat="41.738132" lon="1.078362">
        <ele>356.839</ele>
        <time>2021-06-20T19:04:18Z</time>
      </trkpt>
      <trkpt lat="41.738149" lon="1.078949">
        <ele>356.867</ele>
        <time>2021-06-20T19:04:27Z</time>
      </trkpt>
      <trkpt lat="41.738144" lon="1.079016">
        <ele>356.878</ele>
        <time>2021-06-20T19:04:28Z</time>
      </trkpt>
      <trkpt lat="41.738082" lon="1.079196">
        <ele>356.833</ele>
        <time>2021-06-20T19:04:31Z</time>
      </trkpt>
      <trkpt lat="41.737933" lon="1.079346">
        <ele>356.826</ele>
        <time>2021-06-20T19:04:35Z</time>
      </trkpt>
      <trkpt lat="41.737756" lon="1.079558">
        <ele>356.408</ele>
        <time>2021-06-20T19:04:41Z</time>
      </trkpt>
      <trkpt lat="41.737695" lon="1.079780">
        <ele>356.444</ele>
        <time>2021-06-20T19:04:45Z</time>
      </trkpt>
      <trkpt lat="41.737689" lon="1.079841">
        <ele>356.673</ele>
        <time>2021-06-20T19:04:46Z</time>
      </trkpt>
      <trkpt lat="41.737664" lon="1.080241">
        <ele>356.810</ele>
        <time>2021-06-20T19:04:53Z</time>
      </trkpt>
      <trkpt lat="41.737634" lon="1.080783">
        <ele>356.892</ele>
        <time>2021-06-20T19:05:02Z</time>
      </trkpt>
      <trkpt lat="41.737605" lon="1.081328">
        <ele>356.826</ele>
        <time>2021-06-20T19:05:11Z</time>
      </trkpt>
      <trkpt lat="41.737564" lon="1.081939">
        <ele>356.687</ele>
        <time>2021-06-20T19:05:21Z</time>
      </trkpt>
      <trkpt lat="41.737530" lon="1.082487">
        <ele>356.817</ele>
        <time>2021-06-20T19:05:30Z</time>
      </trkpt>
      <trkpt lat="41.737494" lon="1.083057">
        <ele>356.615</ele>
        <time>2021-06-20T19:05:39Z</time>
      </trkpt>
      <trkpt lat="41.737454" lon="1.083796">
        <ele>356.416</ele>
        <time>2021-06-20T19:05:50Z</time>
      </trkpt>
      <trkpt lat="41.737415" lon="1.084331">
        <ele>356.476</ele>
        <time>2021-06-20T19:05:58Z</time>
      </trkpt>
      <trkpt lat="41.737414" lon="1.084391">
        <ele>356.413</ele>
        <time>2021-06-20T19:05:59Z</time>
      </trkpt>
      <trkpt lat="41.737391" lon="1.084915">
        <ele>356.408</ele>
        <time>2021-06-20T19:06:07Z</time>
      </trkpt>
      <trkpt lat="41.737367" lon="1.085650">
        <ele>356.648</ele>
        <time>2021-06-20T19:06:17Z</time>
      </trkpt>
      <trkpt lat="41.737361" lon="1.085798">
        <ele>356.637</ele>
        <time>2021-06-20T19:06:19Z</time>
      </trkpt>
      <trkpt lat="41.737381" lon="1.086297">
        <ele>356.814</ele>
        <time>2021-06-20T19:06:26Z</time>
      </trkpt>
      <trkpt lat="41.737396" lon="1.086366">
        <ele>356.896</ele>
        <time>2021-06-20T19:06:27Z</time>
      </trkpt>
      <trkpt lat="41.737513" lon="1.086693">
        <ele>356.860</ele>
        <time>2021-06-20T19:06:32Z</time>
      </trkpt>
      <trkpt lat="41.737772" lon="1.087343">
        <ele>356.661</ele>
        <time>2021-06-20T19:06:42Z</time>
      </trkpt>
      <trkpt lat="41.737831" lon="1.087547">
        <ele>356.621</ele>
        <time>2021-06-20T19:06:45Z</time>
      </trkpt>
      <trkpt lat="41.737876" lon="1.087833">
        <ele>356.649</ele>
        <time>2021-06-20T19:06:49Z</time>
      </trkpt>
      <trkpt lat="41.737915" lon="1.088573">
        <ele>356.412</ele>
        <time>2021-06-20T19:06:59Z</time>
      </trkpt>
      <trkpt lat="41.737874" lon="1.089077">
        <ele>356.232</ele>
        <time>2021-06-20T19:07:06Z</time>
      </trkpt>
      <trkpt lat="41.737751" lon="1.089494">
        <ele>356.005</ele>
        <time>2021-06-20T19:07:12Z</time>
      </trkpt>
      <trkpt lat="41.737651" lon="1.089684">
        <ele>356.008</ele>
        <time>2021-06-20T19:07:15Z</time>
      </trkpt>
      <trkpt lat="41.737568" lon="1.089790">
        <ele>356.018</ele>
        <time>2021-06-20T19:07:17Z</time>
      </trkpt>
      <trkpt lat="41.737267" lon="1.090081">
        <ele>355.817</ele>
        <time>2021-06-20T19:07:24Z</time>
      </trkpt>
      <trkpt lat="41.737056" lon="1.090291">
        <ele>355.824</ele>
        <time>2021-06-20T19:07:29Z</time>
      </trkpt>
      <trkpt lat="41.736965" lon="1.090363">
        <ele>355.876</ele>
        <time>2021-06-20T19:07:31Z</time>
      </trkpt>
      <trkpt lat="41.736528" lon="1.090594">
        <ele>355.830</ele>
        <time>2021-06-20T19:07:40Z</time>
      </trkpt>
      <trkpt lat="41.735957" lon="1.090798">
        <ele>355.451</ele>
        <time>2021-06-20T19:07:51Z</time>
      </trkpt>
      <trkpt lat="41.735696" lon="1.090837">
        <ele>355.271</ele>
        <time>2021-06-20T19:07:56Z</time>
      </trkpt>
      <trkpt lat="41.735643" lon="1.090830">
        <ele>355.289</ele>
        <time>2021-06-20T19:07:57Z</time>
      </trkpt>
      <trkpt lat="41.735488" lon="1.090788">
        <ele>355.042</ele>
        <time>2021-06-20T19:08:00Z</time>
      </trkpt>
      <trkpt lat="41.735343" lon="1.090717">
        <ele>355.022</ele>
        <time>2021-06-20T19:08:03Z</time>
      </trkpt>
      <trkpt lat="41.734859" lon="1.090458">
        <ele>354.814</ele>
        <time>2021-06-20T19:08:13Z</time>
      </trkpt>
      <trkpt lat="41.734637" lon="1.090369">
        <ele>355.208</ele>
        <time>2021-06-20T19:08:18Z</time>
      </trkpt>
      <trkpt lat="41.734596" lon="1.090359">
        <ele>355.261</ele>
        <time>2021-06-20T19:08:19Z</time>
      </trkpt>
      <trkpt lat="41.734379" lon="1.090303">
        <ele>355.850</ele>
        <time>2021-06-20T19:08:25Z</time>
      </trkpt>
      <trkpt lat="41.734132" lon="1.090242">
        <ele>355.827</ele>
        <time>2021-06-20T19:08:30Z</time>
      </trkpt>
      <trkpt lat="41.734081" lon="1.090210">
        <ele>355.829</ele>
        <time>2021-06-20T19:08:31Z</time>
      </trkpt>
      <trkpt lat="41.733804" lon="1.089965">
        <ele>354.093</ele>
        <time>2021-06-20T19:08:37Z</time>
      </trkpt>
      <trkpt lat="41.733763" lon="1.089922">
        <ele>353.834</ele>
        <time>2021-06-20T19:08:38Z</time>
      </trkpt>
      <trkpt lat="41.733649" lon="1.089742">
        <ele>353.414</ele>
        <time>2021-06-20T19:08:41Z</time>
      </trkpt>
      <trkpt lat="41.733524" lon="1.089547">
        <ele>353.262</ele>
        <time>2021-06-20T19:08:44Z</time>
      </trkpt>
      <trkpt lat="41.733412" lon="1.089463">
        <ele>352.819</ele>
        <time>2021-06-20T19:08:46Z</time>
      </trkpt>
      <trkpt lat="41.733286" lon="1.089427">
        <ele>351.809</ele>
        <time>2021-06-20T19:08:48Z</time>
      </trkpt>
      <trkpt lat="41.733153" lon="1.089429">
        <ele>350.219</ele>
        <time>2021-06-20T19:08:50Z</time>
      </trkpt>
      <trkpt lat="41.733040" lon="1.089424">
        <ele>349.608</ele>
        <time>2021-06-20T19:08:52Z</time>
      </trkpt>
      <trkpt lat="41.732967" lon="1.089409">
        <ele>349.018</ele>
        <time>2021-06-20T19:08:54Z</time>
      </trkpt>
      <trkpt lat="41.732865" lon="1.089336">
        <ele>348.867</ele>
        <time>2021-06-20T19:08:59Z</time>
      </trkpt>
      <trkpt lat="41.732818" lon="1.089256">
        <ele>348.454</ele>
        <time>2021-06-20T19:09:03Z</time>
      </trkpt>
      <trkpt lat="41.732822" lon="1.089240">
        <ele>348.236</ele>
        <time>2021-06-20T19:09:04Z</time>
      </trkpt>
      <trkpt lat="41.732849" lon="1.089254">
        <ele>348.260</ele>
        <time>2021-06-20T19:09:07Z</time>
      </trkpt>
      <trkpt lat="41.732893" lon="1.089361">
        <ele>348.431</ele>
        <time>2021-06-20T19:09:12Z</time>
      </trkpt>
      <trkpt lat="41.732926" lon="1.089400">
        <ele>348.681</ele>
        <time>2021-06-20T19:09:14Z</time>
      </trkpt>
      <trkpt lat="41.732982" lon="1.089486">
        <ele>348.819</ele>
        <time>2021-06-20T19:09:18Z</time>
      </trkpt>
      <trkpt lat="41.732982" lon="1.089574">
        <ele>349.081</ele>
        <time>2021-06-20T19:09:21Z</time>
      </trkpt>
      <trkpt lat="41.732952" lon="1.089632">
        <ele>349.261</ele>
        <time>2021-06-20T19:09:23Z</time>
      </trkpt>
      <trkpt lat="41.732804" lon="1.089909">
        <ele>349.617</ele>
        <time>2021-06-20T19:09:31Z</time>
      </trkpt>
      <trkpt lat="41.732707" lon="1.090085">
        <ele>349.608</ele>
        <time>2021-06-20T19:09:37Z</time>
      </trkpt>
      <trkpt lat="41.732580" lon="1.090131">
        <ele>349.615</ele>
        <time>2021-06-20T19:09:41Z</time>
      </trkpt>
      <trkpt lat="41.732503" lon="1.090100">
        <ele>349.694</ele>
        <time>2021-06-20T19:09:43Z</time>
      </trkpt>
      <trkpt lat="41.732382" lon="1.090024">
        <ele>349.661</ele>
        <time>2021-06-20T19:09:46Z</time>
      </trkpt>
      <trkpt lat="41.732295" lon="1.089990">
        <ele>349.683</ele>
        <time>2021-06-20T19:09:48Z</time>
      </trkpt>
      <trkpt lat="41.732158" lon="1.089983">
        <ele>349.087</ele>
        <time>2021-06-20T19:09:51Z</time>
      </trkpt>
      <trkpt lat="41.732113" lon="1.089986">
        <ele>349.098</ele>
        <time>2021-06-20T19:09:52Z</time>
      </trkpt>
      <trkpt lat="41.731665" lon="1.090006">
        <ele>348.478</ele>
        <time>2021-06-20T19:10:02Z</time>
      </trkpt>
      <trkpt lat="41.731528" lon="1.090028">
        <ele>348.236</ele>
        <time>2021-06-20T19:10:05Z</time>
      </trkpt>
      <trkpt lat="41.731452" lon="1.090088">
        <ele>348.289</ele>
        <time>2021-06-20T19:10:07Z</time>
      </trkpt>
      <trkpt lat="41.731434" lon="1.090236">
        <ele>348.206</ele>
        <time>2021-06-20T19:10:10Z</time>
      </trkpt>
      <trkpt lat="41.731448" lon="1.090286">
        <ele>348.226</ele>
        <time>2021-06-20T19:10:11Z</time>
      </trkpt>
      <trkpt lat="41.731459" lon="1.090339">
        <ele>348.208</ele>
        <time>2021-06-20T19:10:12Z</time>
      </trkpt>
      <trkpt lat="41.731459" lon="1.090508">
        <ele>348.445</ele>
        <time>2021-06-20T19:10:15Z</time>
      </trkpt>
      <trkpt lat="41.731428" lon="1.090618">
        <ele>349.484</ele>
        <time>2021-06-20T19:10:17Z</time>
      </trkpt>
      <trkpt lat="41.731369" lon="1.090709">
        <ele>349.821</ele>
        <time>2021-06-20T19:10:19Z</time>
      </trkpt>
      <trkpt lat="41.731290" lon="1.090778">
        <ele>349.833</ele>
        <time>2021-06-20T19:10:21Z</time>
      </trkpt>
      <trkpt lat="41.731111" lon="1.090898">
        <ele>349.827</ele>
        <time>2021-06-20T19:10:25Z</time>
      </trkpt>
      <trkpt lat="41.731008" lon="1.090934">
        <ele>349.878</ele>
        <time>2021-06-20T19:10:27Z</time>
      </trkpt>
      <trkpt lat="41.730905" lon="1.090934">
        <ele>349.428</ele>
        <time>2021-06-20T19:10:29Z</time>
      </trkpt>
      <trkpt lat="41.730806" lon="1.090938">
        <ele>348.826</ele>
        <time>2021-06-20T19:10:31Z</time>
      </trkpt>
      <trkpt lat="41.730716" lon="1.090972">
        <ele>348.212</ele>
        <time>2021-06-20T19:10:33Z</time>
      </trkpt>
      <trkpt lat="41.730671" lon="1.091008">
        <ele>348.032</ele>
        <time>2021-06-20T19:10:34Z</time>
      </trkpt>
      <trkpt lat="41.730580" lon="1.091215">
        <ele>347.805</ele>
        <time>2021-06-20T19:10:37Z</time>
      </trkpt>
      <trkpt lat="41.730563" lon="1.091294">
        <ele>347.808</ele>
        <time>2021-06-20T19:10:38Z</time>
      </trkpt>
      <trkpt lat="41.730542" lon="1.091369">
        <ele>347.668</ele>
        <time>2021-06-20T19:10:39Z</time>
      </trkpt>
      <trkpt lat="41.730474" lon="1.091491">
        <ele>347.617</ele>
        <time>2021-06-20T19:10:41Z</time>
      </trkpt>
      <trkpt lat="41.730430" lon="1.091536">
        <ele>347.214</ele>
        <time>2021-06-20T19:10:42Z</time>
      </trkpt>
      <trkpt lat="41.730242" lon="1.091649">
        <ele>346.456</ele>
        <time>2021-06-20T19:10:46Z</time>
      </trkpt>
      <trkpt lat="41.730151" lon="1.091680">
        <ele>346.220</ele>
        <time>2021-06-20T19:10:48Z</time>
      </trkpt>
      <trkpt lat="41.730105" lon="1.091686">
        <ele>346.291</ele>
        <time>2021-06-20T19:10:49Z</time>
      </trkpt>
      <trkpt lat="41.730011" lon="1.091699">
        <ele>346.091</ele>
        <time>2021-06-20T19:10:51Z</time>
      </trkpt>
      <trkpt lat="41.729711" lon="1.091829">
        <ele>345.489</ele>
        <time>2021-06-20T19:10:57Z</time>
      </trkpt>
      <trkpt lat="41.729665" lon="1.091865">
        <ele>345.446</ele>
        <time>2021-06-20T19:10:58Z</time>
      </trkpt>
      <trkpt lat="41.729555" lon="1.092011">
        <ele>345.488</ele>
        <time>2021-06-20T19:11:01Z</time>
      </trkpt>
      <trkpt lat="41.729527" lon="1.092066">
        <ele>345.216</ele>
        <time>2021-06-20T19:11:02Z</time>
      </trkpt>
      <trkpt lat="41.729499" lon="1.092119">
        <ele>345.208</ele>
        <time>2021-06-20T19:11:03Z</time>
      </trkpt>
      <trkpt lat="41.729470" lon="1.092170">
        <ele>345.091</ele>
        <time>2021-06-20T19:11:04Z</time>
      </trkpt>
      <trkpt lat="41.729392" lon="1.092249">
        <ele>345.060</ele>
        <time>2021-06-20T19:11:06Z</time>
      </trkpt>
      <trkpt lat="41.729248" lon="1.092308">
        <ele>345.037</ele>
        <time>2021-06-20T19:11:09Z</time>
      </trkpt>
      <trkpt lat="41.729148" lon="1.092333">
        <ele>345.089</ele>
        <time>2021-06-20T19:11:11Z</time>
      </trkpt>
      <trkpt lat="41.729000" lon="1.092336">
        <ele>344.463</ele>
        <time>2021-06-20T19:11:14Z</time>
      </trkpt>
      <trkpt lat="41.728904" lon="1.092314">
        <ele>344.054</ele>
        <time>2021-06-20T19:11:16Z</time>
      </trkpt>
      <trkpt lat="41.728856" lon="1.092305">
        <ele>343.894</ele>
        <time>2021-06-20T19:11:17Z</time>
      </trkpt>
      <trkpt lat="41.728712" lon="1.092304">
        <ele>343.692</ele>
        <time>2021-06-20T19:11:20Z</time>
      </trkpt>
      <trkpt lat="41.728645" lon="1.092352">
        <ele>343.681</ele>
        <time>2021-06-20T19:11:22Z</time>
      </trkpt>
      <trkpt lat="41.728610" lon="1.092547">
        <ele>343.461</ele>
        <time>2021-06-20T19:11:25Z</time>
      </trkpt>
      <trkpt lat="41.728612" lon="1.093004">
        <ele>343.017</ele>
        <time>2021-06-20T19:11:30Z</time>
      </trkpt>
      <trkpt lat="41.728589" lon="1.093272">
        <ele>341.808</ele>
        <time>2021-06-20T19:11:34Z</time>
      </trkpt>
      <trkpt lat="41.728537" lon="1.093357">
        <ele>340.615</ele>
        <time>2021-06-20T19:11:36Z</time>
      </trkpt>
      <trkpt lat="41.728506" lon="1.093380">
        <ele>340.454</ele>
        <time>2021-06-20T19:11:37Z</time>
      </trkpt>
      <trkpt lat="41.728406" lon="1.093374">
        <ele>340.261</ele>
        <time>2021-06-20T19:11:40Z</time>
      </trkpt>
      <trkpt lat="41.728371" lon="1.093363">
        <ele>340.243</ele>
        <time>2021-06-20T19:11:41Z</time>
      </trkpt>
      <trkpt lat="41.728078" lon="1.093284">
        <ele>339.837</ele>
        <time>2021-06-20T19:11:48Z</time>
      </trkpt>
      <trkpt lat="41.727923" lon="1.093266">
        <ele>339.888</ele>
        <time>2021-06-20T19:11:51Z</time>
      </trkpt>
      <trkpt lat="41.727807" lon="1.093280">
        <ele>339.628</ele>
        <time>2021-06-20T19:11:53Z</time>
      </trkpt>
      <trkpt lat="41.727745" lon="1.093285">
        <ele>339.266</ele>
        <time>2021-06-20T19:11:54Z</time>
      </trkpt>
      <trkpt lat="41.727507" lon="1.093316">
        <ele>338.444</ele>
        <time>2021-06-20T19:11:58Z</time>
      </trkpt>
      <trkpt lat="41.727425" lon="1.093388">
        <ele>337.605</ele>
        <time>2021-06-20T19:12:00Z</time>
      </trkpt>
      <trkpt lat="41.727403" lon="1.093444">
        <ele>337.415</ele>
        <time>2021-06-20T19:12:01Z</time>
      </trkpt>
      <trkpt lat="41.727394" lon="1.093571">
        <ele>337.008</ele>
        <time>2021-06-20T19:12:03Z</time>
      </trkpt>
      <trkpt lat="41.727460" lon="1.093763">
        <ele>336.871</ele>
        <time>2021-06-20T19:12:06Z</time>
      </trkpt>
      <trkpt lat="41.727494" lon="1.093824">
        <ele>336.640</ele>
        <time>2021-06-20T19:12:07Z</time>
      </trkpt>
      <trkpt lat="41.727647" lon="1.094142">
        <ele>336.867</ele>
        <time>2021-06-20T19:12:12Z</time>
      </trkpt>
      <trkpt lat="41.727826" lon="1.094563">
        <ele>337.069</ele>
        <time>2021-06-20T19:12:19Z</time>
      </trkpt>
      <trkpt lat="41.727909" lon="1.094752">
        <ele>337.033</ele>
        <time>2021-06-20T19:12:22Z</time>
      </trkpt>
      <trkpt lat="41.727919" lon="1.094887">
        <ele>337.044</ele>
        <time>2021-06-20T19:12:24Z</time>
      </trkpt>
      <trkpt lat="41.727807" lon="1.095121">
        <ele>337.024</ele>
        <time>2021-06-20T19:12:28Z</time>
      </trkpt>
      <trkpt lat="41.727768" lon="1.095172">
        <ele>337.082</ele>
        <time>2021-06-20T19:12:29Z</time>
      </trkpt>
      <trkpt lat="41.727628" lon="1.095289">
        <ele>336.833</ele>
        <time>2021-06-20T19:12:32Z</time>
      </trkpt>
      <trkpt lat="41.727577" lon="1.095320">
        <ele>336.823</ele>
        <time>2021-06-20T19:12:33Z</time>
      </trkpt>
      <trkpt lat="41.727473" lon="1.095374">
        <ele>336.415</ele>
        <time>2021-06-20T19:12:35Z</time>
      </trkpt>
      <trkpt lat="41.727378" lon="1.095445">
        <ele>336.008</ele>
        <time>2021-06-20T19:12:37Z</time>
      </trkpt>
      <trkpt lat="41.727038" lon="1.095646">
        <ele>335.620</ele>
        <time>2021-06-20T19:12:44Z</time>
      </trkpt>
      <trkpt lat="41.726596" lon="1.095904">
        <ele>335.469</ele>
        <time>2021-06-20T19:12:53Z</time>
      </trkpt>
      <trkpt lat="41.726307" lon="1.096077">
        <ele>335.426</ele>
        <time>2021-06-20T19:12:59Z</time>
      </trkpt>
      <trkpt lat="41.726271" lon="1.096122">
        <ele>335.438</ele>
        <time>2021-06-20T19:13:00Z</time>
      </trkpt>
      <trkpt lat="41.726238" lon="1.096313">
        <ele>335.422</ele>
        <time>2021-06-20T19:13:03Z</time>
      </trkpt>
      <trkpt lat="41.726248" lon="1.096382">
        <ele>335.423</ele>
        <time>2021-06-20T19:13:04Z</time>
      </trkpt>
      <trkpt lat="41.726295" lon="1.096661">
        <ele>335.663</ele>
        <time>2021-06-20T19:13:08Z</time>
      </trkpt>
      <trkpt lat="41.726289" lon="1.096804">
        <ele>335.641</ele>
        <time>2021-06-20T19:13:10Z</time>
      </trkpt>
      <trkpt lat="41.726191" lon="1.097056">
        <ele>335.619</ele>
        <time>2021-06-20T19:13:14Z</time>
      </trkpt>
      <trkpt lat="41.725931" lon="1.097584">
        <ele>335.609</ele>
        <time>2021-06-20T19:13:23Z</time>
      </trkpt>
      <trkpt lat="41.725787" lon="1.097879">
        <ele>335.619</ele>
        <time>2021-06-20T19:13:28Z</time>
      </trkpt>
      <trkpt lat="41.725767" lon="1.097943">
        <ele>335.608</ele>
        <time>2021-06-20T19:13:29Z</time>
      </trkpt>
      <trkpt lat="41.725662" lon="1.098343">
        <ele>335.878</ele>
        <time>2021-06-20T19:13:36Z</time>
      </trkpt>
      <trkpt lat="41.725523" lon="1.098706">
        <ele>337.277</ele>
        <time>2021-06-20T19:13:44Z</time>
      </trkpt>
      <trkpt lat="41.725485" lon="1.098852">
        <ele>337.424</ele>
        <time>2021-06-20T19:13:47Z</time>
      </trkpt>
      <trkpt lat="41.725419" lon="1.099107">
        <ele>338.676</ele>
        <time>2021-06-20T19:13:52Z</time>
      </trkpt>
      <trkpt lat="41.725402" lon="1.099159">
        <ele>338.670</ele>
        <time>2021-06-20T19:13:53Z</time>
      </trkpt>
      <trkpt lat="41.725257" lon="1.099611">
        <ele>338.881</ele>
        <time>2021-06-20T19:14:01Z</time>
      </trkpt>
      <trkpt lat="41.725029" lon="1.100247">
        <ele>338.621</ele>
        <time>2021-06-20T19:14:12Z</time>
      </trkpt>
      <trkpt lat="41.724773" lon="1.100635">
        <ele>338.689</ele>
        <time>2021-06-20T19:14:20Z</time>
      </trkpt>
      <trkpt lat="41.724396" lon="1.101046">
        <ele>338.431</ele>
        <time>2021-06-20T19:14:30Z</time>
      </trkpt>
      <trkpt lat="41.724275" lon="1.101147">
        <ele>338.461</ele>
        <time>2021-06-20T19:14:33Z</time>
      </trkpt>
      <trkpt lat="41.724141" lon="1.101199">
        <ele>338.407</ele>
        <time>2021-06-20T19:14:36Z</time>
      </trkpt>
      <trkpt lat="41.723829" lon="1.101311">
        <ele>338.608</ele>
        <time>2021-06-20T19:14:44Z</time>
      </trkpt>
      <trkpt lat="41.723651" lon="1.101442">
        <ele>339.640</ele>
        <time>2021-06-20T19:14:50Z</time>
      </trkpt>
      <trkpt lat="41.723627" lon="1.101466">
        <ele>340.029</ele>
        <time>2021-06-20T19:14:51Z</time>
      </trkpt>
      <trkpt lat="41.723526" lon="1.101597">
        <ele>340.886</ele>
        <time>2021-06-20T19:14:56Z</time>
      </trkpt>
      <trkpt lat="41.723508" lon="1.101620">
        <ele>341.098</ele>
        <time>2021-06-20T19:14:57Z</time>
      </trkpt>
      <trkpt lat="41.723427" lon="1.101753">
        <ele>342.232</ele>
        <time>2021-06-20T19:15:02Z</time>
      </trkpt>
      <trkpt lat="41.723411" lon="1.101780">
        <ele>342.423</ele>
        <time>2021-06-20T19:15:03Z</time>
      </trkpt>
      <trkpt lat="41.723325" lon="1.101919">
        <ele>343.233</ele>
        <time>2021-06-20T19:15:08Z</time>
      </trkpt>
      <trkpt lat="41.723253" lon="1.102050">
        <ele>344.091</ele>
        <time>2021-06-20T19:15:12Z</time>
      </trkpt>
      <trkpt lat="41.723194" lon="1.102160">
        <ele>344.288</ele>
        <time>2021-06-20T19:15:15Z</time>
      </trkpt>
      <trkpt lat="41.723089" lon="1.102384">
        <ele>344.824</ele>
        <time>2021-06-20T19:15:21Z</time>
      </trkpt>
      <trkpt lat="41.723000" lon="1.102625">
        <ele>345.426</ele>
        <time>2021-06-20T19:15:27Z</time>
      </trkpt>
      <trkpt lat="41.722953" lon="1.102789">
        <ele>345.608</ele>
        <time>2021-06-20T19:15:31Z</time>
      </trkpt>
      <trkpt lat="41.722891" lon="1.103093">
        <ele>346.485</ele>
        <time>2021-06-20T19:15:38Z</time>
      </trkpt>
      <trkpt lat="41.722883" lon="1.103137">
        <ele>346.614</ele>
        <time>2021-06-20T19:15:39Z</time>
      </trkpt>
      <trkpt lat="41.722805" lon="1.103485">
        <ele>347.271</ele>
        <time>2021-06-20T19:15:47Z</time>
      </trkpt>
      <trkpt lat="41.722739" lon="1.103745">
        <ele>347.413</ele>
        <time>2021-06-20T19:15:53Z</time>
      </trkpt>
      <trkpt lat="41.722718" lon="1.103831">
        <ele>347.647</ele>
        <time>2021-06-20T19:15:55Z</time>
      </trkpt>
      <trkpt lat="41.722630" lon="1.104279">
        <ele>348.428</ele>
        <time>2021-06-20T19:16:05Z</time>
      </trkpt>
      <trkpt lat="41.722610" lon="1.104370">
        <ele>348.668</ele>
        <time>2021-06-20T19:16:07Z</time>
      </trkpt>
      <trkpt lat="41.722496" lon="1.104701">
        <ele>349.486</ele>
        <time>2021-06-20T19:16:15Z</time>
      </trkpt>
      <trkpt lat="41.722408" lon="1.104886">
        <ele>349.831</ele>
        <time>2021-06-20T19:16:20Z</time>
      </trkpt>
      <trkpt lat="41.722333" lon="1.105027">
        <ele>350.261</ele>
        <time>2021-06-20T19:16:24Z</time>
      </trkpt>
      <trkpt lat="41.722206" lon="1.105246">
        <ele>350.807</ele>
        <time>2021-06-20T19:16:31Z</time>
      </trkpt>
      <trkpt lat="41.722189" lon="1.105273">
        <ele>351.008</ele>
        <time>2021-06-20T19:16:32Z</time>
      </trkpt>
      <trkpt lat="41.722086" lon="1.105416">
        <ele>352.070</ele>
        <time>2021-06-20T19:16:37Z</time>
      </trkpt>
      <trkpt lat="41.722033" lon="1.105471">
        <ele>352.239</ele>
        <time>2021-06-20T19:16:39Z</time>
      </trkpt>
      <trkpt lat="41.721756" lon="1.105715">
        <ele>352.696</ele>
        <time>2021-06-20T19:16:49Z</time>
      </trkpt>
      <trkpt lat="41.721580" lon="1.105864">
        <ele>352.858</ele>
        <time>2021-06-20T19:16:56Z</time>
      </trkpt>
      <trkpt lat="41.721525" lon="1.105907">
        <ele>353.042</ele>
        <time>2021-06-20T19:16:58Z</time>
      </trkpt>
      <trkpt lat="41.721387" lon="1.106017">
        <ele>353.283</ele>
        <time>2021-06-20T19:17:03Z</time>
      </trkpt>
      <trkpt lat="41.721157" lon="1.106134">
        <ele>353.813</ele>
        <time>2021-06-20T19:17:11Z</time>
      </trkpt>
      <trkpt lat="41.721126" lon="1.106142">
        <ele>354.091</ele>
        <time>2021-06-20T19:17:12Z</time>
      </trkpt>
      <trkpt lat="41.720899" lon="1.106179">
        <ele>354.651</ele>
        <time>2021-06-20T19:17:19Z</time>
      </trkpt>
      <trkpt lat="41.720801" lon="1.106196">
        <ele>355.001</ele>
        <time>2021-06-20T19:17:22Z</time>
      </trkpt>
      <trkpt lat="41.720573" lon="1.106211">
        <ele>355.211</ele>
        <time>2021-06-20T19:17:29Z</time>
      </trkpt>
      <trkpt lat="41.720376" lon="1.106259">
        <ele>355.408</ele>
        <time>2021-06-20T19:17:36Z</time>
      </trkpt>
      <trkpt lat="41.720340" lon="1.106252">
        <ele>356.022</ele>
        <time>2021-06-20T19:17:40Z</time>
      </trkpt>
      <trkpt lat="41.720341" lon="1.106309">
        <ele>357.041</ele>
        <time>2021-06-20T19:21:38Z</time>
      </trkpt>
      <trkpt lat="41.720353" lon="1.106369">
        <ele>357.098</ele>
        <time>2021-06-20T19:21:41Z</time>
      </trkpt>
      <trkpt lat="41.720354" lon="1.106394">
        <ele>357.090</ele>
        <time>2021-06-20T19:21:42Z</time>
      </trkpt>
      <trkpt lat="41.720379" lon="1.106515">
        <ele>357.274</ele>
        <time>2021-06-20T19:21:48Z</time>
      </trkpt>
      <trkpt lat="41.720388" lon="1.106531">
        <ele>357.285</ele>
        <time>2021-06-20T19:21:51Z</time>
      </trkpt>
      <trkpt lat="41.720351" lon="1.106564">
        <ele>357.215</ele>
        <time>2021-06-20T19:22:05Z</time>
      </trkpt>
      <trkpt lat="41.720346" lon="1.106540">
        <ele>357.283</ele>
        <time>2021-06-20T19:22:06Z</time>
      </trkpt>
      <trkpt lat="41.720316" lon="1.106370">
        <ele>357.286</ele>
        <time>2021-06-20T19:22:11Z</time>
      </trkpt>
      <trkpt lat="41.720273" lon="1.106332">
        <ele>357.260</ele>
        <time>2021-06-20T19:22:13Z</time>
      </trkpt>
      <trkpt lat="41.720219" lon="1.106324">
        <ele>357.026</ele>
        <time>2021-06-20T19:22:15Z</time>
      </trkpt>
      <trkpt lat="41.720135" lon="1.106352">
        <ele>357.008</ele>
        <time>2021-06-20T19:22:19Z</time>
      </trkpt>
      <trkpt lat="41.720111" lon="1.106358">
        <ele>357.035</ele>
        <time>2021-06-20T19:22:20Z</time>
      </trkpt>
      <trkpt lat="41.719930" lon="1.106428">
        <ele>356.844</ele>
        <time>2021-06-20T19:22:26Z</time>
      </trkpt>
      <trkpt lat="41.719847" lon="1.106441">
        <ele>356.821</ele>
        <time>2021-06-20T19:22:28Z</time>
      </trkpt>
      <trkpt lat="41.719714" lon="1.106435">
        <ele>356.453</ele>
        <time>2021-06-20T19:22:31Z</time>
      </trkpt>
      <trkpt lat="41.719608" lon="1.106437">
        <ele>355.847</ele>
        <time>2021-06-20T19:22:33Z</time>
      </trkpt>
      <trkpt lat="41.719497" lon="1.106468">
        <ele>354.848</ele>
        <time>2021-06-20T19:22:35Z</time>
      </trkpt>
      <trkpt lat="41.719444" lon="1.106504">
        <ele>354.418</ele>
        <time>2021-06-20T19:22:36Z</time>
      </trkpt>
      <trkpt lat="41.719327" lon="1.106676">
        <ele>353.216</ele>
        <time>2021-06-20T19:22:39Z</time>
      </trkpt>
      <trkpt lat="41.719301" lon="1.106744">
        <ele>352.817</ele>
        <time>2021-06-20T19:22:40Z</time>
      </trkpt>
      <trkpt lat="41.719274" lon="1.106809">
        <ele>352.487</ele>
        <time>2021-06-20T19:22:41Z</time>
      </trkpt>
      <trkpt lat="41.719243" lon="1.106869">
        <ele>351.615</ele>
        <time>2021-06-20T19:22:42Z</time>
      </trkpt>
      <trkpt lat="41.719142" lon="1.107029">
        <ele>351.008</ele>
        <time>2021-06-20T19:22:45Z</time>
      </trkpt>
      <trkpt lat="41.718947" lon="1.107345">
        <ele>350.858</ele>
        <time>2021-06-20T19:22:52Z</time>
      </trkpt>
      <trkpt lat="41.718817" lon="1.107550">
        <ele>351.237</ele>
        <time>2021-06-20T19:22:58Z</time>
      </trkpt>
      <trkpt lat="41.718648" lon="1.107842">
        <ele>352.224</ele>
        <time>2021-06-20T19:23:07Z</time>
      </trkpt>
      <trkpt lat="41.718600" lon="1.108038">
        <ele>352.886</ele>
        <time>2021-06-20T19:23:14Z</time>
      </trkpt>
      <trkpt lat="41.718591" lon="1.108061">
        <ele>352.820</ele>
        <time>2021-06-20T19:23:15Z</time>
      </trkpt>
      <trkpt lat="41.718553" lon="1.108155">
        <ele>354.051</ele>
        <time>2021-06-20T19:23:20Z</time>
      </trkpt>
      <trkpt lat="41.718543" lon="1.108168">
        <ele>354.251</ele>
        <time>2021-06-20T19:23:21Z</time>
      </trkpt>
      <trkpt lat="41.718493" lon="1.108212">
        <ele>355.079</ele>
        <time>2021-06-20T19:23:26Z</time>
      </trkpt>
      <trkpt lat="41.718464" lon="1.108231">
        <ele>355.239</ele>
        <time>2021-06-20T19:23:28Z</time>
      </trkpt>
      <trkpt lat="41.718375" lon="1.108366">
        <ele>356.001</ele>
        <time>2021-06-20T19:23:34Z</time>
      </trkpt>
      <trkpt lat="41.718373" lon="1.108440">
        <ele>356.021</ele>
        <time>2021-06-20T19:23:36Z</time>
      </trkpt>
      <trkpt lat="41.718374" lon="1.108564">
        <ele>356.008</ele>
        <time>2021-06-20T19:23:39Z</time>
      </trkpt>
      <trkpt lat="41.718338" lon="1.108864">
        <ele>356.090</ele>
        <time>2021-06-20T19:23:46Z</time>
      </trkpt>
      <trkpt lat="41.718256" lon="1.109150">
        <ele>356.289</ele>
        <time>2021-06-20T19:23:54Z</time>
      </trkpt>
      <trkpt lat="41.718168" lon="1.109513">
        <ele>357.036</ele>
        <time>2021-06-20T19:24:04Z</time>
      </trkpt>
      <trkpt lat="41.718159" lon="1.109554">
        <ele>357.078</ele>
        <time>2021-06-20T19:24:05Z</time>
      </trkpt>
      <trkpt lat="41.718083" lon="1.109779">
        <ele>357.642</ele>
        <time>2021-06-20T19:24:11Z</time>
      </trkpt>
      <trkpt lat="41.717986" lon="1.109938">
        <ele>358.213</ele>
        <time>2021-06-20T19:24:16Z</time>
      </trkpt>
      <trkpt lat="41.717912" lon="1.110009">
        <ele>358.483</ele>
        <time>2021-06-20T19:24:19Z</time>
      </trkpt>
      <trkpt lat="41.717757" lon="1.110072">
        <ele>359.061</ele>
        <time>2021-06-20T19:24:25Z</time>
      </trkpt>
      <trkpt lat="41.717732" lon="1.110075">
        <ele>359.281</ele>
        <time>2021-06-20T19:24:26Z</time>
      </trkpt>
      <trkpt lat="41.717554" lon="1.110076">
        <ele>360.261</ele>
        <time>2021-06-20T19:24:33Z</time>
      </trkpt>
      <trkpt lat="41.717476" lon="1.110072">
        <ele>360.417</ele>
        <time>2021-06-20T19:24:36Z</time>
      </trkpt>
      <trkpt lat="41.717348" lon="1.110065">
        <ele>361.208</ele>
        <time>2021-06-20T19:24:41Z</time>
      </trkpt>
      <trkpt lat="41.717296" lon="1.110054">
        <ele>361.445</ele>
        <time>2021-06-20T19:24:43Z</time>
      </trkpt>
      <trkpt lat="41.717098" lon="1.110019">
        <ele>362.294</ele>
        <time>2021-06-20T19:24:51Z</time>
      </trkpt>
      <trkpt lat="41.717034" lon="1.110002">
        <ele>362.461</ele>
        <time>2021-06-20T19:24:55Z</time>
      </trkpt>
      <trkpt lat="41.717028" lon="1.110000">
        <ele>362.843</ele>
        <time>2021-06-20T19:24:57Z</time>
      </trkpt>
      <trkpt lat="41.716997" lon="1.109973">
        <ele>363.697</ele>
        <time>2021-06-20T19:25:08Z</time>
      </trkpt>
      <trkpt lat="41.716966" lon="1.109955">
        <ele>363.628</ele>
        <time>2021-06-20T19:25:10Z</time>
      </trkpt>
      <trkpt lat="41.716832" lon="1.109907">
        <ele>363.868</ele>
        <time>2021-06-20T19:25:17Z</time>
      </trkpt>
      <trkpt lat="41.716626" lon="1.109799">
        <ele>364.256</ele>
        <time>2021-06-20T19:25:26Z</time>
      </trkpt>
      <trkpt lat="41.716459" lon="1.109680">
        <ele>364.445</ele>
        <time>2021-06-20T19:25:32Z</time>
      </trkpt>
      <trkpt lat="41.716350" lon="1.109640">
        <ele>364.047</ele>
        <time>2021-06-20T19:25:35Z</time>
      </trkpt>
      <trkpt lat="41.716219" lon="1.109628">
        <ele>364.011</ele>
        <time>2021-06-20T19:25:38Z</time>
      </trkpt>
      <trkpt lat="41.715901" lon="1.109639">
        <ele>362.408</ele>
        <time>2021-06-20T19:25:46Z</time>
      </trkpt>
      <trkpt lat="41.715863" lon="1.109646">
        <ele>362.471</ele>
        <time>2021-06-20T19:25:47Z</time>
      </trkpt>
      <trkpt lat="41.715626" lon="1.109668">
        <ele>362.250</ele>
        <time>2021-06-20T19:25:53Z</time>
      </trkpt>
      <trkpt lat="41.715261" lon="1.109719">
        <ele>362.467</ele>
        <time>2021-06-20T19:26:02Z</time>
      </trkpt>
      <trkpt lat="41.714962" lon="1.109795">
        <ele>362.889</ele>
        <time>2021-06-20T19:26:11Z</time>
      </trkpt>
      <trkpt lat="41.714910" lon="1.109804">
        <ele>363.473</ele>
        <time>2021-06-20T19:26:13Z</time>
      </trkpt>
      <trkpt lat="41.714822" lon="1.109803">
        <ele>363.844</ele>
        <time>2021-06-20T19:26:17Z</time>
      </trkpt>
      <trkpt lat="41.714760" lon="1.109804">
        <ele>364.454</ele>
        <time>2021-06-20T19:26:20Z</time>
      </trkpt>
      <trkpt lat="41.714672" lon="1.109785">
        <ele>365.232</ele>
        <time>2021-06-20T19:26:25Z</time>
      </trkpt>
      <trkpt lat="41.714640" lon="1.109791">
        <ele>365.493</ele>
        <time>2021-06-20T19:26:27Z</time>
      </trkpt>
      <trkpt lat="41.714587" lon="1.109831">
        <ele>366.265</ele>
        <time>2021-06-20T19:26:31Z</time>
      </trkpt>
      <trkpt lat="41.714553" lon="1.109869">
        <ele>366.621</ele>
        <time>2021-06-20T19:26:34Z</time>
      </trkpt>
      <trkpt lat="41.714518" lon="1.109929">
        <ele>367.608</ele>
        <time>2021-06-20T19:26:38Z</time>
      </trkpt>
      <trkpt lat="41.714510" lon="1.109945">
        <ele>367.816</ele>
        <time>2021-06-20T19:26:39Z</time>
      </trkpt>
      <trkpt lat="41.714482" lon="1.110003">
        <ele>368.835</ele>
        <time>2021-06-20T19:26:43Z</time>
      </trkpt>
      <trkpt lat="41.714459" lon="1.110077">
        <ele>370.022</ele>
        <time>2021-06-20T19:26:47Z</time>
      </trkpt>
      <trkpt lat="41.714428" lon="1.110198">
        <ele>371.254</ele>
        <time>2021-06-20T19:26:52Z</time>
      </trkpt>
      <trkpt lat="41.714410" lon="1.110276">
        <ele>371.618</ele>
        <time>2021-06-20T19:26:55Z</time>
      </trkpt>
      <trkpt lat="41.714334" lon="1.110531">
        <ele>371.859</ele>
        <time>2021-06-20T19:27:03Z</time>
      </trkpt>
      <trkpt lat="41.714209" lon="1.110766">
        <ele>372.029</ele>
        <time>2021-06-20T19:27:11Z</time>
      </trkpt>
      <trkpt lat="41.714099" lon="1.111023">
        <ele>372.257</ele>
        <time>2021-06-20T19:27:18Z</time>
      </trkpt>
      <trkpt lat="41.713962" lon="1.111370">
        <ele>372.299</ele>
        <time>2021-06-20T19:27:27Z</time>
      </trkpt>
      <trkpt lat="41.713854" lon="1.111683">
        <ele>372.407</ele>
        <time>2021-06-20T19:27:35Z</time>
      </trkpt>
      <trkpt lat="41.713813" lon="1.111955">
        <ele>372.627</ele>
        <time>2021-06-20T19:27:41Z</time>
      </trkpt>
      <trkpt lat="41.713745" lon="1.112394">
        <ele>373.008</ele>
        <time>2021-06-20T19:27:50Z</time>
      </trkpt>
      <trkpt lat="41.713622" lon="1.112869">
        <ele>373.416</ele>
        <time>2021-06-20T19:28:00Z</time>
      </trkpt>
      <trkpt lat="41.713559" lon="1.113372">
        <ele>374.265</ele>
        <time>2021-06-20T19:28:10Z</time>
      </trkpt>
      <trkpt lat="41.713551" lon="1.113473">
        <ele>374.462</ele>
        <time>2021-06-20T19:28:12Z</time>
      </trkpt>
      <trkpt lat="41.713579" lon="1.113730">
        <ele>374.814</ele>
        <time>2021-06-20T19:28:17Z</time>
      </trkpt>
      <trkpt lat="41.713699" lon="1.114200">
        <ele>375.098</ele>
        <time>2021-06-20T19:28:25Z</time>
      </trkpt>
      <trkpt lat="41.713786" lon="1.114687">
        <ele>374.619</ele>
        <time>2021-06-20T19:28:32Z</time>
      </trkpt>
      <trkpt lat="41.713754" lon="1.115091">
        <ele>374.229</ele>
        <time>2021-06-20T19:28:38Z</time>
      </trkpt>
      <trkpt lat="41.713646" lon="1.115592">
        <ele>374.027</ele>
        <time>2021-06-20T19:28:46Z</time>
      </trkpt>
      <trkpt lat="41.713596" lon="1.115719">
        <ele>374.077</ele>
        <time>2021-06-20T19:28:48Z</time>
      </trkpt>
      <trkpt lat="41.713521" lon="1.115899">
        <ele>373.861</ele>
        <time>2021-06-20T19:28:51Z</time>
      </trkpt>
      <trkpt lat="41.713398" lon="1.116155">
        <ele>374.027</ele>
        <time>2021-06-20T19:28:56Z</time>
      </trkpt>
      <trkpt lat="41.713349" lon="1.116245">
        <ele>374.008</ele>
        <time>2021-06-20T19:28:58Z</time>
      </trkpt>
      <trkpt lat="41.713154" lon="1.116622">
        <ele>374.844</ele>
        <time>2021-06-20T19:29:07Z</time>
      </trkpt>
      <trkpt lat="41.713064" lon="1.116759">
        <ele>375.473</ele>
        <time>2021-06-20T19:29:12Z</time>
      </trkpt>
      <trkpt lat="41.713049" lon="1.116783">
        <ele>375.470</ele>
        <time>2021-06-20T19:29:13Z</time>
      </trkpt>
      <trkpt lat="41.712964" lon="1.116929">
        <ele>376.652</ele>
        <time>2021-06-20T19:29:18Z</time>
      </trkpt>
      <trkpt lat="41.712946" lon="1.116962">
        <ele>377.036</ele>
        <time>2021-06-20T19:29:19Z</time>
      </trkpt>
      <trkpt lat="41.712841" lon="1.117215">
        <ele>377.437</ele>
        <time>2021-06-20T19:29:26Z</time>
      </trkpt>
      <trkpt lat="41.712792" lon="1.117321">
        <ele>377.847</ele>
        <time>2021-06-20T19:29:29Z</time>
      </trkpt>
      <trkpt lat="41.712663" lon="1.117613">
        <ele>378.825</ele>
        <time>2021-06-20T19:29:37Z</time>
      </trkpt>
      <trkpt lat="41.712646" lon="1.117647">
        <ele>378.859</ele>
        <time>2021-06-20T19:29:38Z</time>
      </trkpt>
      <trkpt lat="41.712559" lon="1.117866">
        <ele>379.403</ele>
        <time>2021-06-20T19:29:44Z</time>
      </trkpt>
      <trkpt lat="41.712463" lon="1.118138">
        <ele>379.823</ele>
        <time>2021-06-20T19:29:51Z</time>
      </trkpt>
      <trkpt lat="41.712420" lon="1.118255">
        <ele>380.208</ele>
        <time>2021-06-20T19:29:54Z</time>
      </trkpt>
      <trkpt lat="41.712318" lon="1.118474">
        <ele>380.632</ele>
        <time>2021-06-20T19:30:00Z</time>
      </trkpt>
      <trkpt lat="41.712244" lon="1.118562">
        <ele>381.071</ele>
        <time>2021-06-20T19:30:03Z</time>
      </trkpt>
      <trkpt lat="41.712125" lon="1.118649">
        <ele>381.228</ele>
        <time>2021-06-20T19:30:07Z</time>
      </trkpt>
      <trkpt lat="41.711906" lon="1.118830">
        <ele>381.430</ele>
        <time>2021-06-20T19:30:14Z</time>
      </trkpt>
      <trkpt lat="41.711629" lon="1.119238">
        <ele>381.494</ele>
        <time>2021-06-20T19:30:24Z</time>
      </trkpt>
      <trkpt lat="41.711422" lon="1.119631">
        <ele>381.865</ele>
        <time>2021-06-20T19:30:33Z</time>
      </trkpt>
      <trkpt lat="41.711203" lon="1.119942">
        <ele>381.855</ele>
        <time>2021-06-20T19:30:41Z</time>
      </trkpt>
      <trkpt lat="41.710936" lon="1.120318">
        <ele>381.853</ele>
        <time>2021-06-20T19:30:50Z</time>
      </trkpt>
      <trkpt lat="41.710588" lon="1.120808">
        <ele>381.459</ele>
        <time>2021-06-20T19:31:00Z</time>
      </trkpt>
      <trkpt lat="41.710275" lon="1.121162">
        <ele>381.003</ele>
        <time>2021-06-20T19:31:08Z</time>
      </trkpt>
      <trkpt lat="41.709989" lon="1.121567">
        <ele>381.023</ele>
        <time>2021-06-20T19:31:16Z</time>
      </trkpt>
      <trkpt lat="41.709706" lon="1.122059">
        <ele>381.008</ele>
        <time>2021-06-20T19:31:25Z</time>
      </trkpt>
      <trkpt lat="41.709681" lon="1.122115">
        <ele>381.022</ele>
        <time>2021-06-20T19:31:26Z</time>
      </trkpt>
      <trkpt lat="41.709592" lon="1.122258">
        <ele>381.231</ele>
        <time>2021-06-20T19:31:29Z</time>
      </trkpt>
      <trkpt lat="41.709558" lon="1.122293">
        <ele>381.268</ele>
        <time>2021-06-20T19:31:30Z</time>
      </trkpt>
      <trkpt lat="41.709402" lon="1.122355">
        <ele>381.640</ele>
        <time>2021-06-20T19:31:34Z</time>
      </trkpt>
      <trkpt lat="41.709361" lon="1.122358">
        <ele>381.674</ele>
        <time>2021-06-20T19:31:35Z</time>
      </trkpt>
      <trkpt lat="41.709281" lon="1.122366">
        <ele>382.055</ele>
        <time>2021-06-20T19:31:37Z</time>
      </trkpt>
      <trkpt lat="41.709117" lon="1.122379">
        <ele>382.255</ele>
        <time>2021-06-20T19:31:41Z</time>
      </trkpt>
      <trkpt lat="41.709072" lon="1.122394">
        <ele>382.293</ele>
        <time>2021-06-20T19:31:42Z</time>
      </trkpt>
      <trkpt lat="41.708738" lon="1.122501">
        <ele>382.221</ele>
        <time>2021-06-20T19:31:48Z</time>
      </trkpt>
      <trkpt lat="41.708615" lon="1.122541">
        <ele>381.841</ele>
        <time>2021-06-20T19:31:50Z</time>
      </trkpt>
      <trkpt lat="41.708496" lon="1.122604">
        <ele>380.805</ele>
        <time>2021-06-20T19:31:52Z</time>
      </trkpt>
      <trkpt lat="41.708379" lon="1.122669">
        <ele>380.008</ele>
        <time>2021-06-20T19:31:54Z</time>
      </trkpt>
      <trkpt lat="41.708321" lon="1.122701">
        <ele>379.889</ele>
        <time>2021-06-20T19:31:55Z</time>
      </trkpt>
      <trkpt lat="41.708151" lon="1.122776">
        <ele>378.678</ele>
        <time>2021-06-20T19:31:58Z</time>
      </trkpt>
      <trkpt lat="41.708044" lon="1.122817">
        <ele>378.245</ele>
        <time>2021-06-20T19:32:00Z</time>
      </trkpt>
      <trkpt lat="41.707667" lon="1.122923">
        <ele>377.867</ele>
        <time>2021-06-20T19:32:08Z</time>
      </trkpt>
      <trkpt lat="41.707545" lon="1.122979">
        <ele>377.841</ele>
        <time>2021-06-20T19:32:11Z</time>
      </trkpt>
      <trkpt lat="41.707429" lon="1.123071">
        <ele>377.632</ele>
        <time>2021-06-20T19:32:14Z</time>
      </trkpt>
      <trkpt lat="41.707270" lon="1.123209">
        <ele>377.642</ele>
        <time>2021-06-20T19:32:18Z</time>
      </trkpt>
      <trkpt lat="41.707193" lon="1.123288">
        <ele>377.660</ele>
        <time>2021-06-20T19:32:20Z</time>
      </trkpt>
      <trkpt lat="41.706803" lon="1.123633">
        <ele>377.649</ele>
        <time>2021-06-20T19:32:29Z</time>
      </trkpt>
      <trkpt lat="41.706450" lon="1.123926">
        <ele>377.602</ele>
        <time>2021-06-20T19:32:37Z</time>
      </trkpt>
      <trkpt lat="41.706360" lon="1.123970">
        <ele>377.422</ele>
        <time>2021-06-20T19:32:39Z</time>
      </trkpt>
      <trkpt lat="41.706241" lon="1.124017">
        <ele>377.408</ele>
        <time>2021-06-20T19:32:42Z</time>
      </trkpt>
      <trkpt lat="41.706121" lon="1.124065">
        <ele>377.671</ele>
        <time>2021-06-20T19:32:48Z</time>
      </trkpt>
      <trkpt lat="41.706121" lon="1.124065">
        <ele>377.650</ele>
        <time>2021-06-20T19:32:49Z</time>
      </trkpt>
      <trkpt lat="41.706075" lon="1.124109">
        <ele>377.667</ele>
        <time>2021-06-20T19:34:19Z</time>
      </trkpt>
      <trkpt lat="41.706041" lon="1.124140">
        <ele>377.699</ele>
        <time>2021-06-20T19:34:21Z</time>
      </trkpt>
      <trkpt lat="41.705931" lon="1.124265">
        <ele>377.623</ele>
        <time>2021-06-20T19:34:26Z</time>
      </trkpt>
      <trkpt lat="41.705762" lon="1.124469">
        <ele>377.244</ele>
        <time>2021-06-20T19:34:32Z</time>
      </trkpt>
      <trkpt lat="41.705615" lon="1.124661">
        <ele>376.694</ele>
        <time>2021-06-20T19:34:37Z</time>
      </trkpt>
      <trkpt lat="41.705567" lon="1.124679">
        <ele>376.642</ele>
        <time>2021-06-20T19:34:38Z</time>
      </trkpt>
      <trkpt lat="41.705304" lon="1.124735">
        <ele>376.442</ele>
        <time>2021-06-20T19:34:42Z</time>
      </trkpt>
      <trkpt lat="41.705158" lon="1.124744">
        <ele>376.222</ele>
        <time>2021-06-20T19:34:44Z</time>
      </trkpt>
      <trkpt lat="41.705015" lon="1.124743">
        <ele>374.614</ele>
        <time>2021-06-20T19:34:46Z</time>
      </trkpt>
      <trkpt lat="41.704943" lon="1.124739">
        <ele>373.408</ele>
        <time>2021-06-20T19:34:47Z</time>
      </trkpt>
      <trkpt lat="41.704872" lon="1.124734">
        <ele>372.091</ele>
        <time>2021-06-20T19:34:48Z</time>
      </trkpt>
      <trkpt lat="41.704802" lon="1.124730">
        <ele>370.810</ele>
        <time>2021-06-20T19:34:49Z</time>
      </trkpt>
      <trkpt lat="41.704733" lon="1.124726">
        <ele>370.077</ele>
        <time>2021-06-20T19:34:50Z</time>
      </trkpt>
      <trkpt lat="41.704665" lon="1.124720">
        <ele>369.689</ele>
        <time>2021-06-20T19:34:51Z</time>
      </trkpt>
      <trkpt lat="41.704285" lon="1.124644">
        <ele>368.843</ele>
        <time>2021-06-20T19:34:57Z</time>
      </trkpt>
      <trkpt lat="41.704062" lon="1.124563">
        <ele>368.884</ele>
        <time>2021-06-20T19:35:01Z</time>
      </trkpt>
      <trkpt lat="41.703966" lon="1.124505">
        <ele>369.014</ele>
        <time>2021-06-20T19:35:03Z</time>
      </trkpt>
      <trkpt lat="41.703811" lon="1.124446">
        <ele>369.062</ele>
        <time>2021-06-20T19:35:07Z</time>
      </trkpt>
      <trkpt lat="41.703671" lon="1.124511">
        <ele>369.032</ele>
        <time>2021-06-20T19:35:11Z</time>
      </trkpt>
      <trkpt lat="41.703460" lon="1.124772">
        <ele>369.892</ele>
        <time>2021-06-20T19:35:19Z</time>
      </trkpt>
      <trkpt lat="41.703352" lon="1.124942">
        <ele>370.211</ele>
        <time>2021-06-20T19:35:26Z</time>
      </trkpt>
      <trkpt lat="41.703341" lon="1.124956">
        <ele>370.608</ele>
        <time>2021-06-20T19:35:29Z</time>
      </trkpt>
      <trkpt lat="41.703345" lon="1.125034">
        <ele>371.090</ele>
        <time>2021-06-20T19:36:00Z</time>
      </trkpt>
      <trkpt lat="41.703448" lon="1.125119">
        <ele>371.039</ele>
        <time>2021-06-20T19:36:05Z</time>
      </trkpt>
      <trkpt lat="41.703590" lon="1.125183">
        <ele>371.276</ele>
        <time>2021-06-20T19:36:12Z</time>
      </trkpt>
      <trkpt lat="41.703702" lon="1.125232">
        <ele>371.498</ele>
        <time>2021-06-20T19:36:19Z</time>
      </trkpt>
      <trkpt lat="41.703714" lon="1.125236">
        <ele>371.632</ele>
        <time>2021-06-20T19:36:20Z</time>
      </trkpt>
      <trkpt lat="41.703725" lon="1.125235">
        <ele>371.673</ele>
        <time>2021-06-20T19:36:21Z</time>
      </trkpt>
      <trkpt lat="41.703762" lon="1.125225">
        <ele>371.613</ele>
        <time>2021-06-20T19:36:24Z</time>
      </trkpt>
      <trkpt lat="41.703759" lon="1.125175">
        <ele>371.611</ele>
        <time>2021-06-20T19:36:27Z</time>
      </trkpt>
      <trkpt lat="41.703712" lon="1.125143">
        <ele>371.648</ele>
        <time>2021-06-20T19:36:29Z</time>
      </trkpt>
      <trkpt lat="41.703599" lon="1.125082">
        <ele>371.661</ele>
        <time>2021-06-20T19:36:33Z</time>
      </trkpt>
      <trkpt lat="41.703258" lon="1.124929">
        <ele>370.817</ele>
        <time>2021-06-20T19:36:43Z</time>
      </trkpt>
      <trkpt lat="41.703099" lon="1.124871">
        <ele>370.608</ele>
        <time>2021-06-20T19:36:47Z</time>
      </trkpt>
      <trkpt lat="41.702881" lon="1.124789">
        <ele>369.641</ele>
        <time>2021-06-20T19:36:52Z</time>
      </trkpt>
      <trkpt lat="41.702569" lon="1.124705">
        <ele>368.810</ele>
        <time>2021-06-20T19:36:58Z</time>
      </trkpt>
      <trkpt lat="41.702516" lon="1.124704">
        <ele>368.457</ele>
        <time>2021-06-20T19:36:59Z</time>
      </trkpt>
      <trkpt lat="41.702447" lon="1.124727">
        <ele>367.449</ele>
        <time>2021-06-20T19:37:01Z</time>
      </trkpt>
      <trkpt lat="41.702428" lon="1.124760">
        <ele>367.283</ele>
        <time>2021-06-20T19:37:02Z</time>
      </trkpt>
      <trkpt lat="41.702389" lon="1.124901">
        <ele>366.814</ele>
        <time>2021-06-20T19:37:05Z</time>
      </trkpt>
      <trkpt lat="41.702315" lon="1.125145">
        <ele>366.634</ele>
        <time>2021-06-20T19:37:11Z</time>
      </trkpt>
      <trkpt lat="41.702265" lon="1.125322">
        <ele>366.872</ele>
        <time>2021-06-20T19:37:17Z</time>
      </trkpt>
      <trkpt lat="41.702227" lon="1.125522">
        <ele>367.464</ele>
        <time>2021-06-20T19:37:24Z</time>
      </trkpt>
      <trkpt lat="41.702202" lon="1.125639">
        <ele>367.606</ele>
        <time>2021-06-20T19:37:29Z</time>
      </trkpt>
      <trkpt lat="41.702202" lon="1.125657">
        <ele>367.616</ele>
        <time>2021-06-20T19:37:30Z</time>
      </trkpt>
      <trkpt lat="41.702196" lon="1.125740">
        <ele>368.408</ele>
        <time>2021-06-20T19:37:36Z</time>
      </trkpt>
      <trkpt lat="41.702188" lon="1.125766">
        <ele>368.413</ele>
        <time>2021-06-20T19:37:38Z</time>
      </trkpt>
      <trkpt lat="41.702183" lon="1.125765">
        <ele>368.442</ele>
        <time>2021-06-20T19:37:39Z</time>
      </trkpt>
      <trkpt lat="41.702173" lon="1.125740">
        <ele>368.699</ele>
        <time>2021-06-20T19:37:42Z</time>
      </trkpt>
      <trkpt lat="41.702182" lon="1.125653">
        <ele>368.811</ele>
        <time>2021-06-20T19:37:49Z</time>
      </trkpt>
      <trkpt lat="41.702201" lon="1.125627">
        <ele>368.435</ele>
        <time>2021-06-20T19:39:42Z</time>
      </trkpt>
      <trkpt lat="41.702225" lon="1.125574">
        <ele>368.426</ele>
        <time>2021-06-20T19:39:44Z</time>
      </trkpt>
      <trkpt lat="41.702309" lon="1.125329">
        <ele>367.846</ele>
        <time>2021-06-20T19:39:50Z</time>
      </trkpt>
      <trkpt lat="41.702329" lon="1.125248">
        <ele>367.084</ele>
        <time>2021-06-20T19:39:52Z</time>
      </trkpt>
      <trkpt lat="41.702364" lon="1.125178">
        <ele>366.649</ele>
        <time>2021-06-20T19:39:55Z</time>
      </trkpt>
      <trkpt lat="41.702359" lon="1.125177">
        <ele>366.602</ele>
        <time>2021-06-20T19:39:56Z</time>
      </trkpt>
      <trkpt lat="41.702313" lon="1.125141">
        <ele>365.822</ele>
        <time>2021-06-20T20:17:59Z</time>
      </trkpt>
      <trkpt lat="41.702321" lon="1.125107">
        <ele>365.808</ele>
        <time>2021-06-20T20:18:01Z</time>
      </trkpt>
      <trkpt lat="41.702384" lon="1.124967">
        <ele>365.651</ele>
        <time>2021-06-20T20:18:09Z</time>
      </trkpt>
      <trkpt lat="41.702393" lon="1.124953">
        <ele>365.670</ele>
        <time>2021-06-20T20:18:10Z</time>
      </trkpt>
      <trkpt lat="41.702385" lon="1.124929">
        <ele>365.637</ele>
        <time>2021-06-20T20:18:13Z</time>
      </trkpt>
      <trkpt lat="41.702343" lon="1.125063">
        <ele>365.659</ele>
        <time>2021-06-20T20:18:19Z</time>
      </trkpt>
      <trkpt lat="41.702291" lon="1.125213">
        <ele>365.663</ele>
        <time>2021-06-20T20:18:26Z</time>
      </trkpt>
      <trkpt lat="41.702263" lon="1.125299">
        <ele>365.664</ele>
        <time>2021-06-20T20:18:31Z</time>
      </trkpt>
      <trkpt lat="41.702243" lon="1.125373">
        <ele>366.024</ele>
        <time>2021-06-20T20:18:35Z</time>
      </trkpt>
      <trkpt lat="41.702240" lon="1.125386">
        <ele>366.082</ele>
        <time>2021-06-20T20:18:36Z</time>
      </trkpt>
      <trkpt lat="41.702241" lon="1.125406">
        <ele>366.022</ele>
        <time>2021-06-20T20:18:39Z</time>
      </trkpt>
      <trkpt lat="41.702217" lon="1.125531">
        <ele>366.262</ele>
        <time>2021-06-20T20:18:54Z</time>
      </trkpt>
      <trkpt lat="41.702198" lon="1.125557">
        <ele>366.208</ele>
        <time>2021-06-20T20:18:55Z</time>
      </trkpt>
      <trkpt lat="41.702138" lon="1.125593">
        <ele>366.008</ele>
        <time>2021-06-20T20:18:58Z</time>
      </trkpt>
      <trkpt lat="41.702110" lon="1.125591">
        <ele>365.889</ele>
        <time>2021-06-20T20:18:59Z</time>
      </trkpt>
      <trkpt lat="41.701952" lon="1.125517">
        <ele>364.658</ele>
        <time>2021-06-20T20:19:04Z</time>
      </trkpt>
      <trkpt lat="41.701816" lon="1.125476">
        <ele>363.675</ele>
        <time>2021-06-20T20:19:08Z</time>
      </trkpt>
      <trkpt lat="41.701784" lon="1.125473">
        <ele>363.437</ele>
        <time>2021-06-20T20:19:09Z</time>
      </trkpt>
      <trkpt lat="41.701636" lon="1.125511">
        <ele>362.811</ele>
        <time>2021-06-20T20:19:14Z</time>
      </trkpt>
      <trkpt lat="41.701533" lon="1.125703">
        <ele>362.832</ele>
        <time>2021-06-20T20:19:19Z</time>
      </trkpt>
      <trkpt lat="41.701382" lon="1.125974">
        <ele>363.012</ele>
        <time>2021-06-20T20:19:26Z</time>
      </trkpt>
      <trkpt lat="41.701257" lon="1.126145">
        <ele>363.270</ele>
        <time>2021-06-20T20:19:31Z</time>
      </trkpt>
      <trkpt lat="41.701116" lon="1.126262">
        <ele>363.882</ele>
        <time>2021-06-20T20:19:38Z</time>
      </trkpt>
      <trkpt lat="41.701046" lon="1.126320">
        <ele>364.643</ele>
        <time>2021-06-20T20:19:43Z</time>
      </trkpt>
      <trkpt lat="41.701009" lon="1.126352">
        <ele>365.217</ele>
        <time>2021-06-20T20:19:46Z</time>
      </trkpt>
      <trkpt lat="41.700996" lon="1.126386">
        <ele>365.608</ele>
        <time>2021-06-20T20:19:48Z</time>
      </trkpt>
      <trkpt lat="41.700989" lon="1.126403">
        <ele>365.895</ele>
        <time>2021-06-20T20:19:49Z</time>
      </trkpt>
      <trkpt lat="41.700964" lon="1.126423">
        <ele>366.274</ele>
        <time>2021-06-20T20:19:51Z</time>
      </trkpt>
      <trkpt lat="41.700943" lon="1.126451">
        <ele>366.621</ele>
        <time>2021-06-20T20:19:53Z</time>
      </trkpt>
      <trkpt lat="41.700932" lon="1.126466">
        <ele>366.853</ele>
        <time>2021-06-20T20:19:54Z</time>
      </trkpt>
      <trkpt lat="41.700881" lon="1.126516">
        <ele>367.877</ele>
        <time>2021-06-20T20:19:58Z</time>
      </trkpt>
      <trkpt lat="41.700846" lon="1.126594">
        <ele>368.458</ele>
        <time>2021-06-20T20:20:02Z</time>
      </trkpt>
      <trkpt lat="41.700824" lon="1.126630">
        <ele>368.688</ele>
        <time>2021-06-20T20:20:04Z</time>
      </trkpt>
      <trkpt lat="41.700811" lon="1.126643">
        <ele>368.816</ele>
        <time>2021-06-20T20:20:05Z</time>
      </trkpt>
      <trkpt lat="41.700716" lon="1.126716">
        <ele>369.875</ele>
        <time>2021-06-20T20:20:12Z</time>
      </trkpt>
      <trkpt lat="41.700638" lon="1.126763">
        <ele>371.028</ele>
        <time>2021-06-20T20:20:17Z</time>
      </trkpt>
      <trkpt lat="41.700584" lon="1.126785">
        <ele>371.420</ele>
        <time>2021-06-20T20:20:20Z</time>
      </trkpt>
      <trkpt lat="41.700413" lon="1.126865">
        <ele>372.208</ele>
        <time>2021-06-20T20:20:29Z</time>
      </trkpt>
      <trkpt lat="41.700393" lon="1.126874">
        <ele>372.224</ele>
        <time>2021-06-20T20:20:30Z</time>
      </trkpt>
      <trkpt lat="41.700225" lon="1.126983">
        <ele>373.033</ele>
        <time>2021-06-20T20:20:39Z</time>
      </trkpt>
      <trkpt lat="41.700187" lon="1.127014">
        <ele>373.230</ele>
        <time>2021-06-20T20:20:41Z</time>
      </trkpt>
      <trkpt lat="41.700039" lon="1.127158">
        <ele>373.612</ele>
        <time>2021-06-20T20:20:49Z</time>
      </trkpt>
      <trkpt lat="41.699963" lon="1.127235">
        <ele>374.226</ele>
        <time>2021-06-20T20:20:53Z</time>
      </trkpt>
      <trkpt lat="41.699848" lon="1.127340">
        <ele>374.487</ele>
        <time>2021-06-20T20:20:59Z</time>
      </trkpt>
      <trkpt lat="41.699723" lon="1.127409">
        <ele>375.227</ele>
        <time>2021-06-20T20:21:05Z</time>
      </trkpt>
      <trkpt lat="41.699683" lon="1.127436">
        <ele>375.665</ele>
        <time>2021-06-20T20:21:07Z</time>
      </trkpt>
      <trkpt lat="41.699581" lon="1.127510">
        <ele>376.427</ele>
        <time>2021-06-20T20:21:12Z</time>
      </trkpt>
      <trkpt lat="41.699502" lon="1.127576">
        <ele>376.868</ele>
        <time>2021-06-20T20:21:16Z</time>
      </trkpt>
      <trkpt lat="41.699443" lon="1.127622">
        <ele>377.414</ele>
        <time>2021-06-20T20:21:19Z</time>
      </trkpt>
      <trkpt lat="41.699350" lon="1.127711">
        <ele>378.008</ele>
        <time>2021-06-20T20:21:24Z</time>
      </trkpt>
      <trkpt lat="41.699280" lon="1.127785">
        <ele>378.459</ele>
        <time>2021-06-20T20:21:28Z</time>
      </trkpt>
      <trkpt lat="41.699184" lon="1.127893">
        <ele>379.448</ele>
        <time>2021-06-20T20:21:34Z</time>
      </trkpt>
      <trkpt lat="41.699169" lon="1.127912">
        <ele>379.655</ele>
        <time>2021-06-20T20:21:35Z</time>
      </trkpt>
      <trkpt lat="41.699083" lon="1.128019">
        <ele>380.487</ele>
        <time>2021-06-20T20:21:42Z</time>
      </trkpt>
      <trkpt lat="41.699072" lon="1.128031">
        <ele>380.671</ele>
        <time>2021-06-20T20:21:43Z</time>
      </trkpt>
      <trkpt lat="41.699017" lon="1.128091">
        <ele>381.672</ele>
        <time>2021-06-20T20:21:48Z</time>
      </trkpt>
      <trkpt lat="41.699005" lon="1.128102">
        <ele>381.892</ele>
        <time>2021-06-20T20:21:49Z</time>
      </trkpt>
      <trkpt lat="41.698938" lon="1.128159">
        <ele>382.820</ele>
        <time>2021-06-20T20:21:55Z</time>
      </trkpt>
      <trkpt lat="41.698878" lon="1.128183">
        <ele>383.698</ele>
        <time>2021-06-20T20:22:00Z</time>
      </trkpt>
      <trkpt lat="41.698852" lon="1.128184">
        <ele>384.015</ele>
        <time>2021-06-20T20:22:02Z</time>
      </trkpt>
      <trkpt lat="41.698829" lon="1.128196">
        <ele>384.426</ele>
        <time>2021-06-20T20:22:04Z</time>
      </trkpt>
      <trkpt lat="41.698802" lon="1.128233">
        <ele>384.808</ele>
        <time>2021-06-20T20:22:07Z</time>
      </trkpt>
      <trkpt lat="41.698791" lon="1.128242">
        <ele>385.016</ele>
        <time>2021-06-20T20:22:08Z</time>
      </trkpt>
      <trkpt lat="41.698782" lon="1.128252">
        <ele>385.275</ele>
        <time>2021-06-20T20:22:09Z</time>
      </trkpt>
      <trkpt lat="41.698766" lon="1.128272">
        <ele>385.692</ele>
        <time>2021-06-20T20:22:11Z</time>
      </trkpt>
      <trkpt lat="41.698744" lon="1.128316">
        <ele>386.414</ele>
        <time>2021-06-20T20:22:14Z</time>
      </trkpt>
      <trkpt lat="41.698658" lon="1.128471">
        <ele>387.268</ele>
        <time>2021-06-20T20:22:20Z</time>
      </trkpt>
      <trkpt lat="41.698539" lon="1.128679">
        <ele>387.279</ele>
        <time>2021-06-20T20:22:28Z</time>
      </trkpt>
      <trkpt lat="41.698487" lon="1.128769">
        <ele>387.489</ele>
        <time>2021-06-20T20:22:32Z</time>
      </trkpt>
      <trkpt lat="41.698434" lon="1.128841">
        <ele>387.887</ele>
        <time>2021-06-20T20:22:36Z</time>
      </trkpt>
      <trkpt lat="41.698352" lon="1.128935">
        <ele>388.876</ele>
        <time>2021-06-20T20:22:42Z</time>
      </trkpt>
      <trkpt lat="41.698302" lon="1.129000">
        <ele>389.490</ele>
        <time>2021-06-20T20:22:46Z</time>
      </trkpt>
      <trkpt lat="41.698279" lon="1.129038">
        <ele>389.819</ele>
        <time>2021-06-20T20:22:48Z</time>
      </trkpt>
      <trkpt lat="41.698207" lon="1.129149">
        <ele>390.808</ele>
        <time>2021-06-20T20:22:54Z</time>
      </trkpt>
      <trkpt lat="41.698193" lon="1.129168">
        <ele>391.044</ele>
        <time>2021-06-20T20:22:55Z</time>
      </trkpt>
      <trkpt lat="41.698097" lon="1.129332">
        <ele>392.073</ele>
        <time>2021-06-20T20:23:03Z</time>
      </trkpt>
      <trkpt lat="41.697981" lon="1.129544">
        <ele>393.090</ele>
        <time>2021-06-20T20:23:12Z</time>
      </trkpt>
      <trkpt lat="41.697952" lon="1.129584">
        <ele>393.262</ele>
        <time>2021-06-20T20:23:14Z</time>
      </trkpt>
      <trkpt lat="41.697867" lon="1.129702">
        <ele>393.436</ele>
        <time>2021-06-20T20:23:20Z</time>
      </trkpt>
      <trkpt lat="41.697806" lon="1.129795">
        <ele>394.447</ele>
        <time>2021-06-20T20:23:26Z</time>
      </trkpt>
      <trkpt lat="41.697773" lon="1.129849">
        <ele>394.897</ele>
        <time>2021-06-20T20:23:29Z</time>
      </trkpt>
      <trkpt lat="41.697750" lon="1.129883">
        <ele>395.455</ele>
        <time>2021-06-20T20:23:31Z</time>
      </trkpt>
      <trkpt lat="41.697708" lon="1.129987">
        <ele>396.425</ele>
        <time>2021-06-20T20:23:36Z</time>
      </trkpt>
      <trkpt lat="41.697627" lon="1.130179">
        <ele>397.226</ele>
        <time>2021-06-20T20:23:43Z</time>
      </trkpt>
      <trkpt lat="41.697617" lon="1.130211">
        <ele>397.408</ele>
        <time>2021-06-20T20:23:44Z</time>
      </trkpt>
      <trkpt lat="41.697534" lon="1.130430">
        <ele>398.008</ele>
        <time>2021-06-20T20:23:51Z</time>
      </trkpt>
      <trkpt lat="41.697443" lon="1.130699">
        <ele>398.469</ele>
        <time>2021-06-20T20:23:59Z</time>
      </trkpt>
      <trkpt lat="41.697394" lon="1.130860">
        <ele>398.698</ele>
        <time>2021-06-20T20:24:04Z</time>
      </trkpt>
      <trkpt lat="41.697348" lon="1.130977">
        <ele>399.425</ele>
        <time>2021-06-20T20:24:09Z</time>
      </trkpt>
      <trkpt lat="41.697322" lon="1.131034">
        <ele>399.827</ele>
        <time>2021-06-20T20:24:12Z</time>
      </trkpt>
      <trkpt lat="41.697272" lon="1.131125">
        <ele>400.861</ele>
        <time>2021-06-20T20:24:17Z</time>
      </trkpt>
      <trkpt lat="41.697264" lon="1.131143">
        <ele>401.092</ele>
        <time>2021-06-20T20:24:18Z</time>
      </trkpt>
      <trkpt lat="41.697192" lon="1.131247">
        <ele>402.042</ele>
        <time>2021-06-20T20:24:25Z</time>
      </trkpt>
      <trkpt lat="41.697134" lon="1.131332">
        <ele>403.070</ele>
        <time>2021-06-20T20:24:31Z</time>
      </trkpt>
      <trkpt lat="41.697119" lon="1.131367">
        <ele>403.464</ele>
        <time>2021-06-20T20:24:33Z</time>
      </trkpt>
      <trkpt lat="41.697092" lon="1.131448">
        <ele>404.006</ele>
        <time>2021-06-20T20:24:37Z</time>
      </trkpt>
      <trkpt lat="41.697053" lon="1.131583">
        <ele>404.616</ele>
        <time>2021-06-20T20:24:43Z</time>
      </trkpt>
      <trkpt lat="41.697009" lon="1.131745">
        <ele>405.008</ele>
        <time>2021-06-20T20:24:49Z</time>
      </trkpt>
      <trkpt lat="41.697001" lon="1.131774">
        <ele>405.263</ele>
        <time>2021-06-20T20:24:50Z</time>
      </trkpt>
      <trkpt lat="41.696907" lon="1.132023">
        <ele>405.432</ele>
        <time>2021-06-20T20:24:59Z</time>
      </trkpt>
      <trkpt lat="41.696765" lon="1.132243">
        <ele>405.899</ele>
        <time>2021-06-20T20:25:08Z</time>
      </trkpt>
      <trkpt lat="41.696702" lon="1.132309">
        <ele>406.281</ele>
        <time>2021-06-20T20:25:11Z</time>
      </trkpt>
      <trkpt lat="41.696591" lon="1.132441">
        <ele>406.645</ele>
        <time>2021-06-20T20:25:16Z</time>
      </trkpt>
      <trkpt lat="41.696477" lon="1.132620">
        <ele>407.296</ele>
        <time>2021-06-20T20:25:22Z</time>
      </trkpt>
      <trkpt lat="41.696374" lon="1.132808">
        <ele>407.266</ele>
        <time>2021-06-20T20:25:28Z</time>
      </trkpt>
      <trkpt lat="41.696335" lon="1.132882">
        <ele>407.474</ele>
        <time>2021-06-20T20:25:30Z</time>
      </trkpt>
      <trkpt lat="41.696161" lon="1.133192">
        <ele>407.675</ele>
        <time>2021-06-20T20:25:38Z</time>
      </trkpt>
      <trkpt lat="41.695896" lon="1.133709">
        <ele>408.028</ele>
        <time>2021-06-20T20:25:51Z</time>
      </trkpt>
      <trkpt lat="41.695755" lon="1.133995">
        <ele>408.420</ele>
        <time>2021-06-20T20:25:58Z</time>
      </trkpt>
      <trkpt lat="41.695651" lon="1.134188">
        <ele>408.608</ele>
        <time>2021-06-20T20:26:03Z</time>
      </trkpt>
      <trkpt lat="41.695506" lon="1.134450">
        <ele>409.094</ele>
        <time>2021-06-20T20:26:10Z</time>
      </trkpt>
      <trkpt lat="41.695448" lon="1.134567">
        <ele>409.063</ele>
        <time>2021-06-20T20:26:13Z</time>
      </trkpt>
      <trkpt lat="41.695331" lon="1.134805">
        <ele>409.210</ele>
        <time>2021-06-20T20:26:19Z</time>
      </trkpt>
      <trkpt lat="41.695218" lon="1.134981">
        <ele>409.482</ele>
        <time>2021-06-20T20:26:24Z</time>
      </trkpt>
      <trkpt lat="41.695176" lon="1.135050">
        <ele>409.626</ele>
        <time>2021-06-20T20:26:26Z</time>
      </trkpt>
      <trkpt lat="41.695011" lon="1.135262">
        <ele>410.617</ele>
        <time>2021-06-20T20:26:33Z</time>
      </trkpt>
      <trkpt lat="41.694985" lon="1.135292">
        <ele>410.657</ele>
        <time>2021-06-20T20:26:34Z</time>
      </trkpt>
      <trkpt lat="41.694715" lon="1.135651">
        <ele>411.695</ele>
        <time>2021-06-20T20:26:45Z</time>
      </trkpt>
      <trkpt lat="41.694692" lon="1.135686">
        <ele>411.684</ele>
        <time>2021-06-20T20:26:46Z</time>
      </trkpt>
      <trkpt lat="41.694493" lon="1.135992">
        <ele>412.807</ele>
        <time>2021-06-20T20:26:55Z</time>
      </trkpt>
      <trkpt lat="41.694440" lon="1.136054">
        <ele>412.817</ele>
        <time>2021-06-20T20:26:57Z</time>
      </trkpt>
      <trkpt lat="41.694346" lon="1.136141">
        <ele>413.208</ele>
        <time>2021-06-20T20:27:00Z</time>
      </trkpt>
      <trkpt lat="41.694222" lon="1.136215">
        <ele>413.235</ele>
        <time>2021-06-20T20:27:03Z</time>
      </trkpt>
      <trkpt lat="41.693865" lon="1.136441">
        <ele>412.874</ele>
        <time>2021-06-20T20:27:11Z</time>
      </trkpt>
      <trkpt lat="41.693469" lon="1.136658">
        <ele>411.831</ele>
        <time>2021-06-20T20:27:20Z</time>
      </trkpt>
      <trkpt lat="41.693372" lon="1.136715">
        <ele>411.613</ele>
        <time>2021-06-20T20:27:22Z</time>
      </trkpt>
      <trkpt lat="41.693074" lon="1.136883">
        <ele>411.247</ele>
        <time>2021-06-20T20:27:28Z</time>
      </trkpt>
      <trkpt lat="41.692932" lon="1.136955">
        <ele>410.698</ele>
        <time>2021-06-20T20:27:31Z</time>
      </trkpt>
      <trkpt lat="41.692653" lon="1.137067">
        <ele>410.498</ele>
        <time>2021-06-20T20:27:37Z</time>
      </trkpt>
      <trkpt lat="41.692209" lon="1.137185">
        <ele>409.646</ele>
        <time>2021-06-20T20:27:46Z</time>
      </trkpt>
      <trkpt lat="41.692161" lon="1.137187">
        <ele>409.424</ele>
        <time>2021-06-20T20:27:47Z</time>
      </trkpt>
      <trkpt lat="41.691882" lon="1.137183">
        <ele>409.204</ele>
        <time>2021-06-20T20:27:53Z</time>
      </trkpt>
      <trkpt lat="41.691835" lon="1.137176">
        <ele>409.214</ele>
        <time>2021-06-20T20:27:54Z</time>
      </trkpt>
      <trkpt lat="41.691738" lon="1.137150">
        <ele>409.008</ele>
        <time>2021-06-20T20:27:56Z</time>
      </trkpt>
      <trkpt lat="41.691635" lon="1.137104">
        <ele>408.859</ele>
        <time>2021-06-20T20:27:58Z</time>
      </trkpt>
      <trkpt lat="41.691416" lon="1.136973">
        <ele>408.648</ele>
        <time>2021-06-20T20:28:02Z</time>
      </trkpt>
      <trkpt lat="41.691350" lon="1.136954">
        <ele>408.475</ele>
        <time>2021-06-20T20:28:03Z</time>
      </trkpt>
      <trkpt lat="41.691142" lon="1.136982">
        <ele>407.037</ele>
        <time>2021-06-20T20:28:06Z</time>
      </trkpt>
      <trkpt lat="41.691078" lon="1.137014">
        <ele>406.461</ele>
        <time>2021-06-20T20:28:07Z</time>
      </trkpt>
      <trkpt lat="41.691015" lon="1.137047">
        <ele>405.842</ele>
        <time>2021-06-20T20:28:08Z</time>
      </trkpt>
      <trkpt lat="41.690890" lon="1.137107">
        <ele>404.012</ele>
        <time>2021-06-20T20:28:10Z</time>
      </trkpt>
      <trkpt lat="41.690772" lon="1.137151">
        <ele>403.020</ele>
        <time>2021-06-20T20:28:12Z</time>
      </trkpt>
      <trkpt lat="41.690719" lon="1.137165">
        <ele>402.871</ele>
        <time>2021-06-20T20:28:13Z</time>
      </trkpt>
      <trkpt lat="41.690583" lon="1.137168">
        <ele>402.641</ele>
        <time>2021-06-20T20:28:17Z</time>
      </trkpt>
      <trkpt lat="41.690483" lon="1.137173">
        <ele>404.415</ele>
        <time>2021-06-20T20:28:23Z</time>
      </trkpt>
      <trkpt lat="41.690423" lon="1.137194">
        <ele>405.808</ele>
        <time>2021-06-20T20:28:26Z</time>
      </trkpt>
      <trkpt lat="41.690380" lon="1.137207">
        <ele>406.224</ele>
        <time>2021-06-20T20:28:28Z</time>
      </trkpt>
      <trkpt lat="41.690206" lon="1.137261">
        <ele>406.663</ele>
        <time>2021-06-20T20:28:36Z</time>
      </trkpt>
      <trkpt lat="41.690039" lon="1.137304">
        <ele>406.670</ele>
        <time>2021-06-20T20:28:44Z</time>
      </trkpt>
      <trkpt lat="41.689849" lon="1.137369">
        <ele>406.472</ele>
        <time>2021-06-20T20:28:50Z</time>
      </trkpt>
      <trkpt lat="41.689580" lon="1.137487">
        <ele>405.866</ele>
        <time>2021-06-20T20:28:58Z</time>
      </trkpt>
      <trkpt lat="41.689277" lon="1.137603">
        <ele>405.897</ele>
        <time>2021-06-20T20:29:06Z</time>
      </trkpt>
      <trkpt lat="41.689006" lon="1.137722">
        <ele>405.887</ele>
        <time>2021-06-20T20:29:12Z</time>
      </trkpt>
      <trkpt lat="41.688914" lon="1.137763">
        <ele>405.645</ele>
        <time>2021-06-20T20:29:14Z</time>
      </trkpt>
      <trkpt lat="41.688544" lon="1.137987">
        <ele>405.035</ele>
        <time>2021-06-20T20:29:22Z</time>
      </trkpt>
      <trkpt lat="41.688321" lon="1.138125">
        <ele>404.886</ele>
        <time>2021-06-20T20:29:27Z</time>
      </trkpt>
      <trkpt lat="41.688146" lon="1.138235">
        <ele>404.414</ele>
        <time>2021-06-20T20:29:31Z</time>
      </trkpt>
      <trkpt lat="41.687834" lon="1.138409">
        <ele>404.008</ele>
        <time>2021-06-20T20:29:38Z</time>
      </trkpt>
      <trkpt lat="41.687790" lon="1.138430">
        <ele>403.810</ele>
        <time>2021-06-20T20:29:39Z</time>
      </trkpt>
      <trkpt lat="41.687697" lon="1.138459">
        <ele>403.679</ele>
        <time>2021-06-20T20:29:41Z</time>
      </trkpt>
      <trkpt lat="41.687649" lon="1.138475">
        <ele>403.656</ele>
        <time>2021-06-20T20:29:42Z</time>
      </trkpt>
      <trkpt lat="41.687555" lon="1.138521">
        <ele>403.628</ele>
        <time>2021-06-20T20:29:44Z</time>
      </trkpt>
      <trkpt lat="41.687081" lon="1.138776">
        <ele>403.042</ele>
        <time>2021-06-20T20:29:54Z</time>
      </trkpt>
      <trkpt lat="41.686784" lon="1.138899">
        <ele>402.813</ele>
        <time>2021-06-20T20:30:00Z</time>
      </trkpt>
      <trkpt lat="41.686733" lon="1.138930">
        <ele>402.813</ele>
        <time>2021-06-20T20:30:01Z</time>
      </trkpt>
      <trkpt lat="41.686576" lon="1.139024">
        <ele>402.661</ele>
        <time>2021-06-20T20:30:04Z</time>
      </trkpt>
      <trkpt lat="41.686307" lon="1.139209">
        <ele>402.068</ele>
        <time>2021-06-20T20:30:09Z</time>
      </trkpt>
      <trkpt lat="41.686155" lon="1.139320">
        <ele>401.642</ele>
        <time>2021-06-20T20:30:12Z</time>
      </trkpt>
      <trkpt lat="41.685969" lon="1.139477">
        <ele>401.426</ele>
        <time>2021-06-20T20:30:16Z</time>
      </trkpt>
      <trkpt lat="41.685627" lon="1.139766">
        <ele>401.208</ele>
        <time>2021-06-20T20:30:23Z</time>
      </trkpt>
      <trkpt lat="41.685261" lon="1.140017">
        <ele>400.833</ele>
        <time>2021-06-20T20:30:30Z</time>
      </trkpt>
      <trkpt lat="41.685045" lon="1.140132">
        <ele>400.632</ele>
        <time>2021-06-20T20:30:34Z</time>
      </trkpt>
      <trkpt lat="41.684900" lon="1.140199">
        <ele>400.479</ele>
        <time>2021-06-20T20:30:37Z</time>
      </trkpt>
      <trkpt lat="41.684812" lon="1.140254">
        <ele>400.431</ele>
        <time>2021-06-20T20:30:39Z</time>
      </trkpt>
      <trkpt lat="41.684695" lon="1.140393">
        <ele>400.245</ele>
        <time>2021-06-20T20:30:42Z</time>
      </trkpt>
      <trkpt lat="41.684416" lon="1.140685">
        <ele>399.886</ele>
        <time>2021-06-20T20:30:48Z</time>
      </trkpt>
      <trkpt lat="41.684324" lon="1.140771">
        <ele>399.486</ele>
        <time>2021-06-20T20:30:50Z</time>
      </trkpt>
      <trkpt lat="41.684114" lon="1.140971">
        <ele>398.644</ele>
        <time>2021-06-20T20:30:55Z</time>
      </trkpt>
      <trkpt lat="41.683942" lon="1.141143">
        <ele>399.015</ele>
        <time>2021-06-20T20:31:01Z</time>
      </trkpt>
      <trkpt lat="41.683842" lon="1.141217">
        <ele>400.265</ele>
        <time>2021-06-20T20:31:04Z</time>
      </trkpt>
      <trkpt lat="41.683800" lon="1.141237">
        <ele>400.411</ele>
        <time>2021-06-20T20:31:05Z</time>
      </trkpt>
      <trkpt lat="41.683757" lon="1.141254">
        <ele>400.608</ele>
        <time>2021-06-20T20:31:06Z</time>
      </trkpt>
      <trkpt lat="41.683424" lon="1.141383">
        <ele>400.468</ele>
        <time>2021-06-20T20:31:13Z</time>
      </trkpt>
      <trkpt lat="41.683269" lon="1.141439">
        <ele>399.217</ele>
        <time>2021-06-20T20:31:16Z</time>
      </trkpt>
      <trkpt lat="41.683146" lon="1.141489">
        <ele>399.044</ele>
        <time>2021-06-20T20:31:19Z</time>
      </trkpt>
      <trkpt lat="41.683145" lon="1.141599">
        <ele>398.656</ele>
        <time>2021-06-20T20:31:22Z</time>
      </trkpt>
      <trkpt lat="41.683190" lon="1.141732">
        <ele>398.220</ele>
        <time>2021-06-20T20:31:26Z</time>
      </trkpt>
      <trkpt lat="41.683207" lon="1.141762">
        <ele>398.291</ele>
        <time>2021-06-20T20:31:27Z</time>
      </trkpt>
      <trkpt lat="41.683271" lon="1.141874">
        <ele>397.841</ele>
        <time>2021-06-20T20:31:32Z</time>
      </trkpt>
      <trkpt lat="41.683276" lon="1.141897">
        <ele>397.489</ele>
        <time>2021-06-20T20:31:33Z</time>
      </trkpt>
      <trkpt lat="41.683289" lon="1.141898">
        <ele>396.629</ele>
        <time>2021-06-20T20:31:34Z</time>
      </trkpt>
      <trkpt lat="41.683294" lon="1.141884">
        <ele>396.000</ele>
        <time>2021-06-20T20:31:36Z</time>
      </trkpt>
      <trkpt lat="41.683249" lon="1.141807">
        <ele>395.620</ele>
        <time>2021-06-20T20:31:40Z</time>
      </trkpt>
      <trkpt lat="41.683235" lon="1.141787">
        <ele>395.608</ele>
        <time>2021-06-20T20:31:41Z</time>
      </trkpt>
      <trkpt lat="41.683176" lon="1.141683">
        <ele>395.639</ele>
        <time>2021-06-20T20:31:46Z</time>
      </trkpt>
      <trkpt lat="41.683166" lon="1.141608">
        <ele>395.668</ele>
        <time>2021-06-20T20:31:49Z</time>
      </trkpt>
      <trkpt lat="41.683139" lon="1.141563">
        <ele>395.875</ele>
        <time>2021-06-20T20:31:51Z</time>
      </trkpt>
      <trkpt lat="41.683038" lon="1.141423">
        <ele>396.817</ele>
        <time>2021-06-20T20:31:56Z</time>
      </trkpt>
      <trkpt lat="41.683013" lon="1.141386">
        <ele>397.271</ele>
        <time>2021-06-20T20:31:57Z</time>
      </trkpt>
      <trkpt lat="41.682852" lon="1.141137">
        <ele>397.832</ele>
        <time>2021-06-20T20:32:04Z</time>
      </trkpt>
      <trkpt lat="41.682770" lon="1.141175">
        <ele>397.682</ele>
        <time>2021-06-20T20:32:08Z</time>
      </trkpt>
      <trkpt lat="41.682752" lon="1.141210">
        <ele>397.440</ele>
        <time>2021-06-20T20:32:09Z</time>
      </trkpt>
      <trkpt lat="41.682688" lon="1.141394">
        <ele>397.425</ele>
        <time>2021-06-20T20:32:13Z</time>
      </trkpt>
      <trkpt lat="41.682684" lon="1.141450">
        <ele>397.226</ele>
        <time>2021-06-20T20:32:14Z</time>
      </trkpt>
      <trkpt lat="41.682714" lon="1.141563">
        <ele>397.208</ele>
        <time>2021-06-20T20:32:16Z</time>
      </trkpt>
      <trkpt lat="41.682860" lon="1.141773">
        <ele>397.008</ele>
        <time>2021-06-20T20:32:20Z</time>
      </trkpt>
      <trkpt lat="41.682906" lon="1.141810">
        <ele>397.099</ele>
        <time>2021-06-20T20:32:21Z</time>
      </trkpt>
      <trkpt lat="41.683035" lon="1.141905">
        <ele>395.848</ele>
        <time>2021-06-20T20:32:24Z</time>
      </trkpt>
      <trkpt lat="41.683108" lon="1.141955">
        <ele>395.265</ele>
        <time>2021-06-20T20:32:26Z</time>
      </trkpt>
      <trkpt lat="41.683140" lon="1.141977">
        <ele>394.877</ele>
        <time>2021-06-20T20:32:27Z</time>
      </trkpt>
      <trkpt lat="41.683240" lon="1.142057">
        <ele>393.861</ele>
        <time>2021-06-20T20:32:30Z</time>
      </trkpt>
      <trkpt lat="41.683268" lon="1.142092">
        <ele>393.492</ele>
        <time>2021-06-20T20:32:31Z</time>
      </trkpt>
      <trkpt lat="41.683319" lon="1.142193">
        <ele>392.682</ele>
        <time>2021-06-20T20:32:34Z</time>
      </trkpt>
      <trkpt lat="41.683347" lon="1.142260">
        <ele>391.870</ele>
        <time>2021-06-20T20:32:36Z</time>
      </trkpt>
      <trkpt lat="41.683365" lon="1.142295">
        <ele>391.418</ele>
        <time>2021-06-20T20:32:37Z</time>
      </trkpt>
      <trkpt lat="41.683445" lon="1.142467">
        <ele>390.498</ele>
        <time>2021-06-20T20:32:41Z</time>
      </trkpt>
      <trkpt lat="41.683463" lon="1.142517">
        <ele>390.017</ele>
        <time>2021-06-20T20:32:42Z</time>
      </trkpt>
      <trkpt lat="41.683474" lon="1.142571">
        <ele>389.808</ele>
        <time>2021-06-20T20:32:43Z</time>
      </trkpt>
      <trkpt lat="41.683489" lon="1.142660">
        <ele>389.418</ele>
        <time>2021-06-20T20:32:45Z</time>
      </trkpt>
      <trkpt lat="41.683475" lon="1.142710">
        <ele>389.217</ele>
        <time>2021-06-20T20:32:46Z</time>
      </trkpt>
      <trkpt lat="41.683451" lon="1.142768">
        <ele>389.094</ele>
        <time>2021-06-20T20:32:47Z</time>
      </trkpt>
      <trkpt lat="41.683367" lon="1.142972">
        <ele>388.096</ele>
        <time>2021-06-20T20:32:50Z</time>
      </trkpt>
      <trkpt lat="41.683314" lon="1.143117">
        <ele>387.640</ele>
        <time>2021-06-20T20:32:52Z</time>
      </trkpt>
      <trkpt lat="41.683257" lon="1.143249">
        <ele>386.811</ele>
        <time>2021-06-20T20:32:54Z</time>
      </trkpt>
      <trkpt lat="41.683157" lon="1.143346">
        <ele>386.011</ele>
        <time>2021-06-20T20:32:56Z</time>
      </trkpt>
      <trkpt lat="41.683101" lon="1.143381">
        <ele>385.089</ele>
        <time>2021-06-20T20:32:57Z</time>
      </trkpt>
      <trkpt lat="41.682941" lon="1.143507">
        <ele>384.033</ele>
        <time>2021-06-20T20:33:00Z</time>
      </trkpt>
      <trkpt lat="41.682780" lon="1.143634">
        <ele>382.623</ele>
        <time>2021-06-20T20:33:03Z</time>
      </trkpt>
      <trkpt lat="41.682621" lon="1.143756">
        <ele>381.615</ele>
        <time>2021-06-20T20:33:06Z</time>
      </trkpt>
      <trkpt lat="41.682569" lon="1.143798">
        <ele>381.408</ele>
        <time>2021-06-20T20:33:07Z</time>
      </trkpt>
      <trkpt lat="41.682467" lon="1.143865">
        <ele>381.220</ele>
        <time>2021-06-20T20:33:09Z</time>
      </trkpt>
      <trkpt lat="41.682252" lon="1.144046">
        <ele>381.029</ele>
        <time>2021-06-20T20:33:14Z</time>
      </trkpt>
      <trkpt lat="41.682230" lon="1.144098">
        <ele>381.046</ele>
        <time>2021-06-20T20:33:15Z</time>
      </trkpt>
      <trkpt lat="41.682225" lon="1.144159">
        <ele>381.018</ele>
        <time>2021-06-20T20:33:16Z</time>
      </trkpt>
      <trkpt lat="41.682255" lon="1.144288">
        <ele>381.052</ele>
        <time>2021-06-20T20:33:18Z</time>
      </trkpt>
      <trkpt lat="41.682283" lon="1.144342">
        <ele>381.073</ele>
        <time>2021-06-20T20:33:19Z</time>
      </trkpt>
      <trkpt lat="41.682309" lon="1.144396">
        <ele>381.093</ele>
        <time>2021-06-20T20:33:20Z</time>
      </trkpt>
      <trkpt lat="41.682373" lon="1.144552">
        <ele>381.091</ele>
        <time>2021-06-20T20:33:23Z</time>
      </trkpt>
      <trkpt lat="41.682385" lon="1.144607">
        <ele>381.257</ele>
        <time>2021-06-20T20:33:24Z</time>
      </trkpt>
      <trkpt lat="41.682352" lon="1.144818">
        <ele>381.200</ele>
        <time>2021-06-20T20:33:28Z</time>
      </trkpt>
      <trkpt lat="41.682226" lon="1.144964">
        <ele>381.220</ele>
        <time>2021-06-20T20:33:32Z</time>
      </trkpt>
      <trkpt lat="41.682193" lon="1.144996">
        <ele>381.208</ele>
        <time>2021-06-20T20:33:33Z</time>
      </trkpt>
      <trkpt lat="41.681967" lon="1.145241">
        <ele>381.452</ele>
        <time>2021-06-20T20:33:40Z</time>
      </trkpt>
      <trkpt lat="41.681932" lon="1.145273">
        <ele>381.431</ele>
        <time>2021-06-20T20:33:41Z</time>
      </trkpt>
      <trkpt lat="41.681691" lon="1.145432">
        <ele>381.678</ele>
        <time>2021-06-20T20:33:48Z</time>
      </trkpt>
      <trkpt lat="41.681597" lon="1.145487">
        <ele>382.240</ele>
        <time>2021-06-20T20:33:53Z</time>
      </trkpt>
      <trkpt lat="41.681565" lon="1.145493">
        <ele>382.444</ele>
        <time>2021-06-20T20:33:55Z</time>
      </trkpt>
      <trkpt lat="41.681551" lon="1.145502">
        <ele>382.615</ele>
        <time>2021-06-20T20:33:56Z</time>
      </trkpt>
      <trkpt lat="41.681522" lon="1.145526">
        <ele>382.885</ele>
        <time>2021-06-20T20:33:58Z</time>
      </trkpt>
      <trkpt lat="41.681488" lon="1.145544">
        <ele>383.293</ele>
        <time>2021-06-20T20:34:00Z</time>
      </trkpt>
      <trkpt lat="41.681426" lon="1.145595">
        <ele>383.823</ele>
        <time>2021-06-20T20:34:04Z</time>
      </trkpt>
      <trkpt lat="41.681410" lon="1.145607">
        <ele>384.083</ele>
        <time>2021-06-20T20:34:05Z</time>
      </trkpt>
      <trkpt lat="41.681319" lon="1.145685">
        <ele>384.811</ele>
        <time>2021-06-20T20:34:11Z</time>
      </trkpt>
      <trkpt lat="41.681232" lon="1.145772">
        <ele>385.808</ele>
        <time>2021-06-20T20:34:17Z</time>
      </trkpt>
      <trkpt lat="41.681207" lon="1.145805">
        <ele>386.019</ele>
        <time>2021-06-20T20:34:19Z</time>
      </trkpt>
      <trkpt lat="41.681127" lon="1.145890">
        <ele>386.668</ele>
        <time>2021-06-20T20:34:25Z</time>
      </trkpt>
      <trkpt lat="41.681090" lon="1.145935">
        <ele>387.245</ele>
        <time>2021-06-20T20:34:28Z</time>
      </trkpt>
      <trkpt lat="41.681011" lon="1.146008">
        <ele>388.237</ele>
        <time>2021-06-20T20:34:34Z</time>
      </trkpt>
      <trkpt lat="41.680998" lon="1.146021">
        <ele>388.441</ele>
        <time>2021-06-20T20:34:35Z</time>
      </trkpt>
      <trkpt lat="41.680940" lon="1.146086">
        <ele>389.422</ele>
        <time>2021-06-20T20:34:40Z</time>
      </trkpt>
      <trkpt lat="41.680917" lon="1.146112">
        <ele>389.892</ele>
        <time>2021-06-20T20:34:42Z</time>
      </trkpt>
      <trkpt lat="41.680884" lon="1.146155">
        <ele>390.430</ele>
        <time>2021-06-20T20:34:45Z</time>
      </trkpt>
      <trkpt lat="41.680857" lon="1.146205">
        <ele>391.662</ele>
        <time>2021-06-20T20:34:48Z</time>
      </trkpt>
      <trkpt lat="41.680837" lon="1.146237">
        <ele>392.083</ele>
        <time>2021-06-20T20:34:50Z</time>
      </trkpt>
      <trkpt lat="41.680798" lon="1.146301">
        <ele>392.611</ele>
        <time>2021-06-20T20:34:54Z</time>
      </trkpt>
      <trkpt lat="41.680772" lon="1.146377">
        <ele>393.408</ele>
        <time>2021-06-20T20:34:58Z</time>
      </trkpt>
      <trkpt lat="41.680767" lon="1.146397">
        <ele>393.693</ele>
        <time>2021-06-20T20:34:59Z</time>
      </trkpt>
      <trkpt lat="41.680738" lon="1.146498">
        <ele>394.672</ele>
        <time>2021-06-20T20:35:04Z</time>
      </trkpt>
      <trkpt lat="41.680717" lon="1.146555">
        <ele>395.039</ele>
        <time>2021-06-20T20:35:07Z</time>
      </trkpt>
      <trkpt lat="41.680683" lon="1.146632">
        <ele>395.611</ele>
        <time>2021-06-20T20:35:11Z</time>
      </trkpt>
      <trkpt lat="41.680640" lon="1.146741">
        <ele>396.835</ele>
        <time>2021-06-20T20:35:16Z</time>
      </trkpt>
      <trkpt lat="41.680558" lon="1.146900">
        <ele>397.836</ele>
        <time>2021-06-20T20:35:24Z</time>
      </trkpt>
      <trkpt lat="41.680547" lon="1.146918">
        <ele>397.826</ele>
        <time>2021-06-20T20:35:25Z</time>
      </trkpt>
      <trkpt lat="41.680471" lon="1.147047">
        <ele>398.814</ele>
        <time>2021-06-20T20:35:32Z</time>
      </trkpt>
      <trkpt lat="41.680450" lon="1.147083">
        <ele>399.263</ele>
        <time>2021-06-20T20:35:34Z</time>
      </trkpt>
      <trkpt lat="41.680404" lon="1.147157">
        <ele>400.044</ele>
        <time>2021-06-20T20:35:38Z</time>
      </trkpt>
      <trkpt lat="41.680347" lon="1.147262">
        <ele>400.418</ele>
        <time>2021-06-20T20:35:43Z</time>
      </trkpt>
      <trkpt lat="41.680309" lon="1.147334">
        <ele>401.008</ele>
        <time>2021-06-20T20:35:46Z</time>
      </trkpt>
      <trkpt lat="41.680223" lon="1.147476">
        <ele>401.413</ele>
        <time>2021-06-20T20:35:52Z</time>
      </trkpt>
      <trkpt lat="41.680046" lon="1.147784">
        <ele>402.052</ele>
        <time>2021-06-20T20:36:04Z</time>
      </trkpt>
      <trkpt lat="41.679939" lon="1.148045">
        <ele>402.699</ele>
        <time>2021-06-20T20:36:12Z</time>
      </trkpt>
      <trkpt lat="41.679846" lon="1.148369">
        <ele>403.011</ele>
        <time>2021-06-20T20:36:20Z</time>
      </trkpt>
      <trkpt lat="41.679810" lon="1.148503">
        <ele>403.065</ele>
        <time>2021-06-20T20:36:24Z</time>
      </trkpt>
      <trkpt lat="41.679794" lon="1.148550">
        <ele>403.296</ele>
        <time>2021-06-20T20:36:26Z</time>
      </trkpt>
      <trkpt lat="41.679745" lon="1.148744">
        <ele>403.436</ele>
        <time>2021-06-20T20:36:32Z</time>
      </trkpt>
      <trkpt lat="41.679652" lon="1.149040">
        <ele>404.094</ele>
        <time>2021-06-20T20:36:40Z</time>
      </trkpt>
      <trkpt lat="41.679602" lon="1.149200">
        <ele>404.077</ele>
        <time>2021-06-20T20:36:44Z</time>
      </trkpt>
      <trkpt lat="41.679559" lon="1.149356">
        <ele>404.261</ele>
        <time>2021-06-20T20:36:48Z</time>
      </trkpt>
      <trkpt lat="41.679494" lon="1.149620">
        <ele>404.627</ele>
        <time>2021-06-20T20:36:54Z</time>
      </trkpt>
      <trkpt lat="41.679421" lon="1.150022">
        <ele>405.008</ele>
        <time>2021-06-20T20:37:03Z</time>
      </trkpt>
      <trkpt lat="41.679415" lon="1.150062">
        <ele>405.274</ele>
        <time>2021-06-20T20:37:04Z</time>
      </trkpt>
      <trkpt lat="41.679322" lon="1.150312">
        <ele>406.273</ele>
        <time>2021-06-20T20:37:11Z</time>
      </trkpt>
      <trkpt lat="41.679193" lon="1.150468">
        <ele>406.880</ele>
        <time>2021-06-20T20:37:17Z</time>
      </trkpt>
      <trkpt lat="41.679120" lon="1.150565">
        <ele>407.242</ele>
        <time>2021-06-20T20:37:21Z</time>
      </trkpt>
      <trkpt lat="41.679069" lon="1.150625">
        <ele>408.066</ele>
        <time>2021-06-20T20:37:24Z</time>
      </trkpt>
      <trkpt lat="41.679018" lon="1.150685">
        <ele>408.417</ele>
        <time>2021-06-20T20:37:27Z</time>
      </trkpt>
      <trkpt lat="41.678961" lon="1.150772">
        <ele>409.287</ele>
        <time>2021-06-20T20:37:31Z</time>
      </trkpt>
      <trkpt lat="41.678951" lon="1.150796">
        <ele>409.485</ele>
        <time>2021-06-20T20:37:32Z</time>
      </trkpt>
      <trkpt lat="41.678885" lon="1.150908">
        <ele>410.432</ele>
        <time>2021-06-20T20:37:37Z</time>
      </trkpt>
      <trkpt lat="41.678846" lon="1.150974">
        <ele>411.092</ele>
        <time>2021-06-20T20:37:40Z</time>
      </trkpt>
      <trkpt lat="41.678806" lon="1.151038">
        <ele>411.611</ele>
        <time>2021-06-20T20:37:43Z</time>
      </trkpt>
      <trkpt lat="41.678734" lon="1.151180">
        <ele>412.608</ele>
        <time>2021-06-20T20:37:49Z</time>
      </trkpt>
      <trkpt lat="41.678709" lon="1.151227">
        <ele>413.010</ele>
        <time>2021-06-20T20:37:51Z</time>
      </trkpt>
      <trkpt lat="41.678675" lon="1.151303">
        <ele>413.659</ele>
        <time>2021-06-20T20:37:54Z</time>
      </trkpt>
      <trkpt lat="41.678579" lon="1.151473">
        <ele>414.456</ele>
        <time>2021-06-20T20:38:01Z</time>
      </trkpt>
      <trkpt lat="41.678565" lon="1.151498">
        <ele>414.668</ele>
        <time>2021-06-20T20:38:02Z</time>
      </trkpt>
      <trkpt lat="41.678470" lon="1.151738">
        <ele>415.412</ele>
        <time>2021-06-20T20:38:11Z</time>
      </trkpt>
      <trkpt lat="41.678456" lon="1.151801">
        <ele>415.633</ele>
        <time>2021-06-20T20:38:13Z</time>
      </trkpt>
      <trkpt lat="41.678390" lon="1.152055">
        <ele>416.253</ele>
        <time>2021-06-20T20:38:20Z</time>
      </trkpt>
      <trkpt lat="41.678349" lon="1.152250">
        <ele>416.661</ele>
        <time>2021-06-20T20:38:25Z</time>
      </trkpt>
      <trkpt lat="41.678324" lon="1.152403">
        <ele>417.082</ele>
        <time>2021-06-20T20:38:29Z</time>
      </trkpt>
      <trkpt lat="41.678285" lon="1.152680">
        <ele>417.843</ele>
        <time>2021-06-20T20:38:36Z</time>
      </trkpt>
      <trkpt lat="41.678279" lon="1.152724">
        <ele>417.817</ele>
        <time>2021-06-20T20:38:37Z</time>
      </trkpt>
      <trkpt lat="41.678233" lon="1.153134">
        <ele>418.208</ele>
        <time>2021-06-20T20:38:47Z</time>
      </trkpt>
      <trkpt lat="41.678221" lon="1.153294">
        <ele>418.655</ele>
        <time>2021-06-20T20:38:51Z</time>
      </trkpt>
      <trkpt lat="41.678202" lon="1.153517">
        <ele>419.274</ele>
        <time>2021-06-20T20:38:57Z</time>
      </trkpt>
      <trkpt lat="41.678194" lon="1.153658">
        <ele>419.831</ele>
        <time>2021-06-20T20:39:01Z</time>
      </trkpt>
      <trkpt lat="41.678174" lon="1.153781">
        <ele>420.443</ele>
        <time>2021-06-20T20:39:04Z</time>
      </trkpt>
      <trkpt lat="41.678103" lon="1.154156">
        <ele>420.847</ele>
        <time>2021-06-20T20:39:12Z</time>
      </trkpt>
      <trkpt lat="41.678056" lon="1.154438">
        <ele>421.058</ele>
        <time>2021-06-20T20:39:18Z</time>
      </trkpt>
      <trkpt lat="41.678043" lon="1.154535">
        <ele>421.288</ele>
        <time>2021-06-20T20:39:20Z</time>
      </trkpt>
      <trkpt lat="41.678033" lon="1.154818">
        <ele>422.056</ele>
        <time>2021-06-20T20:39:26Z</time>
      </trkpt>
      <trkpt lat="41.678019" lon="1.154957">
        <ele>422.295</ele>
        <time>2021-06-20T20:39:29Z</time>
      </trkpt>
      <trkpt lat="41.677967" lon="1.155236">
        <ele>423.249</ele>
        <time>2021-06-20T20:39:35Z</time>
      </trkpt>
      <trkpt lat="41.677938" lon="1.155470">
        <ele>423.823</ele>
        <time>2021-06-20T20:39:40Z</time>
      </trkpt>
      <trkpt lat="41.677914" lon="1.155698">
        <ele>424.208</ele>
        <time>2021-06-20T20:39:45Z</time>
      </trkpt>
      <trkpt lat="41.677878" lon="1.155893">
        <ele>424.426</ele>
        <time>2021-06-20T20:39:49Z</time>
      </trkpt>
      <trkpt lat="41.677752" lon="1.156296">
        <ele>424.845</ele>
        <time>2021-06-20T20:39:57Z</time>
      </trkpt>
      <trkpt lat="41.677626" lon="1.156632">
        <ele>425.272</ele>
        <time>2021-06-20T20:40:04Z</time>
      </trkpt>
      <trkpt lat="41.677549" lon="1.156818">
        <ele>425.614</ele>
        <time>2021-06-20T20:40:08Z</time>
      </trkpt>
      <trkpt lat="41.677418" lon="1.157083">
        <ele>426.418</ele>
        <time>2021-06-20T20:40:14Z</time>
      </trkpt>
      <trkpt lat="41.677339" lon="1.157231">
        <ele>426.879</ele>
        <time>2021-06-20T20:40:18Z</time>
      </trkpt>
      <trkpt lat="41.677318" lon="1.157282">
        <ele>427.099</ele>
        <time>2021-06-20T20:40:20Z</time>
      </trkpt>
      <trkpt lat="41.677315" lon="1.157314">
        <ele>427.227</ele>
        <time>2021-06-20T20:40:22Z</time>
      </trkpt>
      <trkpt lat="41.677296" lon="1.157335">
        <ele>427.428</ele>
        <time>2021-06-20T20:40:24Z</time>
      </trkpt>
      <trkpt lat="41.677279" lon="1.157382">
        <ele>428.089</ele>
        <time>2021-06-20T20:40:26Z</time>
      </trkpt>
      <trkpt lat="41.677297" lon="1.157522">
        <ele>428.417</ele>
        <time>2021-06-20T20:40:30Z</time>
      </trkpt>
      <trkpt lat="41.677290" lon="1.157560">
        <ele>428.408</ele>
        <time>2021-06-20T20:40:31Z</time>
      </trkpt>
      <trkpt lat="41.677278" lon="1.157638">
        <ele>428.649</ele>
        <time>2021-06-20T20:40:33Z</time>
      </trkpt>
      <trkpt lat="41.677256" lon="1.157855">
        <ele>428.868</ele>
        <time>2021-06-20T20:40:38Z</time>
      </trkpt>
      <trkpt lat="41.677167" lon="1.158132">
        <ele>429.035</ele>
        <time>2021-06-20T20:40:45Z</time>
      </trkpt>
      <trkpt lat="41.677015" lon="1.158243">
        <ele>429.687</ele>
        <time>2021-06-20T20:40:50Z</time>
      </trkpt>
      <trkpt lat="41.676979" lon="1.158253">
        <ele>429.681</ele>
        <time>2021-06-20T20:40:51Z</time>
      </trkpt>
      <trkpt lat="41.676769" lon="1.158304">
        <ele>429.842</ele>
        <time>2021-06-20T20:40:57Z</time>
      </trkpt>
      <trkpt lat="41.676548" lon="1.158370">
        <ele>429.632</ele>
        <time>2021-06-20T20:41:03Z</time>
      </trkpt>
      <trkpt lat="41.676269" lon="1.158409">
        <ele>428.860</ele>
        <time>2021-06-20T20:41:10Z</time>
      </trkpt>
      <trkpt lat="41.676186" lon="1.158414">
        <ele>428.675</ele>
        <time>2021-06-20T20:41:12Z</time>
      </trkpt>
      <trkpt lat="41.676144" lon="1.158413">
        <ele>428.428</ele>
        <time>2021-06-20T20:41:13Z</time>
      </trkpt>
      <trkpt lat="41.675977" lon="1.158419">
        <ele>428.420</ele>
        <time>2021-06-20T20:41:17Z</time>
      </trkpt>
      <trkpt lat="41.675570" lon="1.158427">
        <ele>428.408</ele>
        <time>2021-06-20T20:41:26Z</time>
      </trkpt>
      <trkpt lat="41.675058" lon="1.158445">
        <ele>427.874</ele>
        <time>2021-06-20T20:41:36Z</time>
      </trkpt>
      <trkpt lat="41.674727" lon="1.158483">
        <ele>427.453</ele>
        <time>2021-06-20T20:41:43Z</time>
      </trkpt>
      <trkpt lat="41.674641" lon="1.158494">
        <ele>427.470</ele>
        <time>2021-06-20T20:41:45Z</time>
      </trkpt>
      <trkpt lat="41.674599" lon="1.158495">
        <ele>427.422</ele>
        <time>2021-06-20T20:41:46Z</time>
      </trkpt>
      <trkpt lat="41.674334" lon="1.158515">
        <ele>427.266</ele>
        <time>2021-06-20T20:41:53Z</time>
      </trkpt>
      <trkpt lat="41.674122" lon="1.158502">
        <ele>427.227</ele>
        <time>2021-06-20T20:41:58Z</time>
      </trkpt>
      <trkpt lat="41.674030" lon="1.158499">
        <ele>427.257</ele>
        <time>2021-06-20T20:42:00Z</time>
      </trkpt>
      <trkpt lat="41.673732" lon="1.158471">
        <ele>427.255</ele>
        <time>2021-06-20T20:42:07Z</time>
      </trkpt>
      <trkpt lat="41.673538" lon="1.158411">
        <ele>427.415</ele>
        <time>2021-06-20T20:42:13Z</time>
      </trkpt>
      <trkpt lat="41.673396" lon="1.158343">
        <ele>427.665</ele>
        <time>2021-06-20T20:42:18Z</time>
      </trkpt>
      <trkpt lat="41.673343" lon="1.158306">
        <ele>427.811</ele>
        <time>2021-06-20T20:42:22Z</time>
      </trkpt>
      <trkpt lat="41.673307" lon="1.158291">
        <ele>428.408</ele>
        <time>2021-06-20T20:42:25Z</time>
      </trkpt>
      <trkpt lat="41.673261" lon="1.158278">
        <ele>429.658</ele>
        <time>2021-06-20T20:42:28Z</time>
      </trkpt>
      <trkpt lat="41.673247" lon="1.158271">
        <ele>430.027</ele>
        <time>2021-06-20T20:42:29Z</time>
      </trkpt>
      <trkpt lat="41.673161" lon="1.158253">
        <ele>430.894</ele>
        <time>2021-06-20T20:42:35Z</time>
      </trkpt>
      <trkpt lat="41.673129" lon="1.158256">
        <ele>431.056</ele>
        <time>2021-06-20T20:42:37Z</time>
      </trkpt>
      <trkpt lat="41.673042" lon="1.158256">
        <ele>431.820</ele>
        <time>2021-06-20T20:42:42Z</time>
      </trkpt>
      <trkpt lat="41.672969" lon="1.158261">
        <ele>432.421</ele>
        <time>2021-06-20T20:42:47Z</time>
      </trkpt>
      <trkpt lat="41.672960" lon="1.158260">
        <ele>432.861</ele>
        <time>2021-06-20T20:42:50Z</time>
      </trkpt>
      <trkpt lat="41.672922" lon="1.158273">
        <ele>433.299</ele>
        <time>2021-06-20T20:42:57Z</time>
      </trkpt>
      <trkpt lat="41.672906" lon="1.158273">
        <ele>433.244</ele>
        <time>2021-06-20T20:42:58Z</time>
      </trkpt>
      <trkpt lat="41.672767" lon="1.158286">
        <ele>433.205</ele>
        <time>2021-06-20T20:43:05Z</time>
      </trkpt>
      <trkpt lat="41.672610" lon="1.158310">
        <ele>432.815</ele>
        <time>2021-06-20T20:43:11Z</time>
      </trkpt>
      <trkpt lat="41.672371" lon="1.158339">
        <ele>432.608</ele>
        <time>2021-06-20T20:43:17Z</time>
      </trkpt>
      <trkpt lat="41.672257" lon="1.158335">
        <ele>432.231</ele>
        <time>2021-06-20T20:43:20Z</time>
      </trkpt>
      <trkpt lat="41.672159" lon="1.158328">
        <ele>432.080</ele>
        <time>2021-06-20T20:43:23Z</time>
      </trkpt>
      <trkpt lat="41.671998" lon="1.158287">
        <ele>432.017</ele>
        <time>2021-06-20T20:43:28Z</time>
      </trkpt>
      <trkpt lat="41.671707" lon="1.158247">
        <ele>432.069</ele>
        <time>2021-06-20T20:43:36Z</time>
      </trkpt>
      <trkpt lat="41.671542" lon="1.158208">
        <ele>432.023</ele>
        <time>2021-06-20T20:43:41Z</time>
      </trkpt>
      <trkpt lat="41.671270" lon="1.158191">
        <ele>432.244</ele>
        <time>2021-06-20T20:43:48Z</time>
      </trkpt>
      <trkpt lat="41.670935" lon="1.158088">
        <ele>432.274</ele>
        <time>2021-06-20T20:43:56Z</time>
      </trkpt>
      <trkpt lat="41.670606" lon="1.157833">
        <ele>431.062</ele>
        <time>2021-06-20T20:44:04Z</time>
      </trkpt>
      <trkpt lat="41.670329" lon="1.157626">
        <ele>430.064</ele>
        <time>2021-06-20T20:44:11Z</time>
      </trkpt>
      <trkpt lat="41.670235" lon="1.157558">
        <ele>429.806</ele>
        <time>2021-06-20T20:44:13Z</time>
      </trkpt>
      <trkpt lat="41.669917" lon="1.157347">
        <ele>429.616</ele>
        <time>2021-06-20T20:44:18Z</time>
      </trkpt>
      <trkpt lat="41.669692" lon="1.157200">
        <ele>428.608</ele>
        <time>2021-06-20T20:44:21Z</time>
      </trkpt>
      <trkpt lat="41.669544" lon="1.157094">
        <ele>427.053</ele>
        <time>2021-06-20T20:44:23Z</time>
      </trkpt>
      <trkpt lat="41.669398" lon="1.156987">
        <ele>425.282</ele>
        <time>2021-06-20T20:44:25Z</time>
      </trkpt>
      <trkpt lat="41.669326" lon="1.156935">
        <ele>424.499</ele>
        <time>2021-06-20T20:44:26Z</time>
      </trkpt>
      <trkpt lat="41.669257" lon="1.156882">
        <ele>423.611</ele>
        <time>2021-06-20T20:44:27Z</time>
      </trkpt>
      <trkpt lat="41.669077" lon="1.156714">
        <ele>422.415</ele>
        <time>2021-06-20T20:44:30Z</time>
      </trkpt>
      <trkpt lat="41.669026" lon="1.156656">
        <ele>422.286</ele>
        <time>2021-06-20T20:44:31Z</time>
      </trkpt>
      <trkpt lat="41.668982" lon="1.156594">
        <ele>422.256</ele>
        <time>2021-06-20T20:44:32Z</time>
      </trkpt>
      <trkpt lat="41.668889" lon="1.156412">
        <ele>421.834</ele>
        <time>2021-06-20T20:44:35Z</time>
      </trkpt>
      <trkpt lat="41.668749" lon="1.156078">
        <ele>422.873</ele>
        <time>2021-06-20T20:44:42Z</time>
      </trkpt>
      <trkpt lat="41.668718" lon="1.156001">
        <ele>423.685</ele>
        <time>2021-06-20T20:44:44Z</time>
      </trkpt>
      <trkpt lat="41.668646" lon="1.155835">
        <ele>424.613</ele>
        <time>2021-06-20T20:44:49Z</time>
      </trkpt>
      <trkpt lat="41.668632" lon="1.155806">
        <ele>425.008</ele>
        <time>2021-06-20T20:44:50Z</time>
      </trkpt>
      <trkpt lat="41.668582" lon="1.155699">
        <ele>426.084</ele>
        <time>2021-06-20T20:44:54Z</time>
      </trkpt>
      <trkpt lat="41.668534" lon="1.155584">
        <ele>426.883</ele>
        <time>2021-06-20T20:44:58Z</time>
      </trkpt>
      <trkpt lat="41.668523" lon="1.155554">
        <ele>427.060</ele>
        <time>2021-06-20T20:44:59Z</time>
      </trkpt>
      <trkpt lat="41.668447" lon="1.155395">
        <ele>428.282</ele>
        <time>2021-06-20T20:45:05Z</time>
      </trkpt>
      <trkpt lat="41.668435" lon="1.155369">
        <ele>428.226</ele>
        <time>2021-06-20T20:45:06Z</time>
      </trkpt>
      <trkpt lat="41.668368" lon="1.155215">
        <ele>429.297</ele>
        <time>2021-06-20T20:45:12Z</time>
      </trkpt>
      <trkpt lat="41.668334" lon="1.155151">
        <ele>429.817</ele>
        <time>2021-06-20T20:45:15Z</time>
      </trkpt>
      <trkpt lat="41.668310" lon="1.155078">
        <ele>430.265</ele>
        <time>2021-06-20T20:45:19Z</time>
      </trkpt>
      <trkpt lat="41.668302" lon="1.155063">
        <ele>430.446</ele>
        <time>2021-06-20T20:45:20Z</time>
      </trkpt>
      <trkpt lat="41.668292" lon="1.155052">
        <ele>430.688</ele>
        <time>2021-06-20T20:45:21Z</time>
      </trkpt>
      <trkpt lat="41.668270" lon="1.155003">
        <ele>431.016</ele>
        <time>2021-06-20T20:45:24Z</time>
      </trkpt>
      <trkpt lat="41.668253" lon="1.154936">
        <ele>431.808</ele>
        <time>2021-06-20T20:45:27Z</time>
      </trkpt>
      <trkpt lat="41.668234" lon="1.154844">
        <ele>432.421</ele>
        <time>2021-06-20T20:45:31Z</time>
      </trkpt>
      <trkpt lat="41.668214" lon="1.154778">
        <ele>432.840</ele>
        <time>2021-06-20T20:45:34Z</time>
      </trkpt>
      <trkpt lat="41.668195" lon="1.154719">
        <ele>433.697</ele>
        <time>2021-06-20T20:45:37Z</time>
      </trkpt>
      <trkpt lat="41.668163" lon="1.154577">
        <ele>434.499</ele>
        <time>2021-06-20T20:45:44Z</time>
      </trkpt>
      <trkpt lat="41.668146" lon="1.154496">
        <ele>435.433</ele>
        <time>2021-06-20T20:45:48Z</time>
      </trkpt>
      <trkpt lat="41.668128" lon="1.154439">
        <ele>436.044</ele>
        <time>2021-06-20T20:45:51Z</time>
      </trkpt>
      <trkpt lat="41.668116" lon="1.154401">
        <ele>436.464</ele>
        <time>2021-06-20T20:45:53Z</time>
      </trkpt>
      <trkpt lat="41.668059" lon="1.154343">
        <ele>437.262</ele>
        <time>2021-06-20T20:45:58Z</time>
      </trkpt>
      <trkpt lat="41.668032" lon="1.154322">
        <ele>437.635</ele>
        <time>2021-06-20T20:46:00Z</time>
      </trkpt>
      <trkpt lat="41.667949" lon="1.154251">
        <ele>438.486</ele>
        <time>2021-06-20T20:46:06Z</time>
      </trkpt>
      <trkpt lat="41.667931" lon="1.154241">
        <ele>438.614</ele>
        <time>2021-06-20T20:46:07Z</time>
      </trkpt>
      <trkpt lat="41.667782" lon="1.154155">
        <ele>439.008</ele>
        <time>2021-06-20T20:46:13Z</time>
      </trkpt>
      <trkpt lat="41.667466" lon="1.153950">
        <ele>438.670</ele>
        <time>2021-06-20T20:46:22Z</time>
      </trkpt>
      <trkpt lat="41.667355" lon="1.153887">
        <ele>438.019</ele>
        <time>2021-06-20T20:46:26Z</time>
      </trkpt>
      <trkpt lat="41.667355" lon="1.153887">
        <ele>438.086</ele>
        <time>2021-06-20T20:46:27Z</time>
      </trkpt>
      <trkpt lat="41.667323" lon="1.153869">
        <ele>438.298</ele>
        <time>2021-06-20T20:46:48Z</time>
      </trkpt>
      <trkpt lat="41.667291" lon="1.153856">
        <ele>438.252</ele>
        <time>2021-06-20T20:46:50Z</time>
      </trkpt>
      <trkpt lat="41.667166" lon="1.153787">
        <ele>438.093</ele>
        <time>2021-06-20T20:46:56Z</time>
      </trkpt>
      <trkpt lat="41.667058" lon="1.153724">
        <ele>437.663</ele>
        <time>2021-06-20T20:47:00Z</time>
      </trkpt>
      <trkpt lat="41.666995" lon="1.153679">
        <ele>437.451</ele>
        <time>2021-06-20T20:47:02Z</time>
      </trkpt>
      <trkpt lat="41.666715" lon="1.153484">
        <ele>436.424</ele>
        <time>2021-06-20T20:47:09Z</time>
      </trkpt>
      <trkpt lat="41.666510" lon="1.153335">
        <ele>435.204</ele>
        <time>2021-06-20T20:47:13Z</time>
      </trkpt>
      <trkpt lat="41.666401" lon="1.153262">
        <ele>434.814</ele>
        <time>2021-06-20T20:47:15Z</time>
      </trkpt>
      <trkpt lat="41.666290" lon="1.153201">
        <ele>434.208</ele>
        <time>2021-06-20T20:47:17Z</time>
      </trkpt>
      <trkpt lat="41.666164" lon="1.153126">
        <ele>433.039</ele>
        <time>2021-06-20T20:47:19Z</time>
      </trkpt>
      <trkpt lat="41.666090" lon="1.153082">
        <ele>432.828</ele>
        <time>2021-06-20T20:47:20Z</time>
      </trkpt>
      <trkpt lat="41.665920" lon="1.152999">
        <ele>432.265</ele>
        <time>2021-06-20T20:47:22Z</time>
      </trkpt>
      <trkpt lat="41.665723" lon="1.152940">
        <ele>431.837</ele>
        <time>2021-06-20T20:47:24Z</time>
      </trkpt>
      <trkpt lat="41.665616" lon="1.152926">
        <ele>431.051</ele>
        <time>2021-06-20T20:47:25Z</time>
      </trkpt>
      <trkpt lat="41.665411" lon="1.152900">
        <ele>429.432</ele>
        <time>2021-06-20T20:47:27Z</time>
      </trkpt>
      <trkpt lat="41.665319" lon="1.152887">
        <ele>428.042</ele>
        <time>2021-06-20T20:47:28Z</time>
      </trkpt>
      <trkpt lat="41.665239" lon="1.152865">
        <ele>426.860</ele>
        <time>2021-06-20T20:47:29Z</time>
      </trkpt>
      <trkpt lat="41.665172" lon="1.152830">
        <ele>426.416</ele>
        <time>2021-06-20T20:47:30Z</time>
      </trkpt>
      <trkpt lat="41.665117" lon="1.152790">
        <ele>426.076</ele>
        <time>2021-06-20T20:47:31Z</time>
      </trkpt>
      <trkpt lat="41.664908" lon="1.152626">
        <ele>425.813</ele>
        <time>2021-06-20T20:47:36Z</time>
      </trkpt>
      <trkpt lat="41.664620" lon="1.152396">
        <ele>427.408</ele>
        <time>2021-06-20T20:47:43Z</time>
      </trkpt>
      <trkpt lat="41.664581" lon="1.152368">
        <ele>427.418</ele>
        <time>2021-06-20T20:47:44Z</time>
      </trkpt>
      <trkpt lat="41.664507" lon="1.152313">
        <ele>427.687</ele>
        <time>2021-06-20T20:47:46Z</time>
      </trkpt>
      <trkpt lat="41.664369" lon="1.152204">
        <ele>427.834</ele>
        <time>2021-06-20T20:47:50Z</time>
      </trkpt>
      <trkpt lat="41.664121" lon="1.152034">
        <ele>427.616</ele>
        <time>2021-06-20T20:47:56Z</time>
      </trkpt>
      <trkpt lat="41.663740" lon="1.151839">
        <ele>427.260</ele>
        <time>2021-06-20T20:48:03Z</time>
      </trkpt>
      <trkpt lat="41.663572" lon="1.151766">
        <ele>426.221</ele>
        <time>2021-06-20T20:48:06Z</time>
      </trkpt>
      <trkpt lat="41.663328" lon="1.151677">
        <ele>425.041</ele>
        <time>2021-06-20T20:48:10Z</time>
      </trkpt>
      <trkpt lat="41.663201" lon="1.151632">
        <ele>424.829</ele>
        <time>2021-06-20T20:48:12Z</time>
      </trkpt>
      <trkpt lat="41.662740" lon="1.151460">
        <ele>424.087</ele>
        <time>2021-06-20T20:48:19Z</time>
      </trkpt>
      <trkpt lat="41.662617" lon="1.151395">
        <ele>423.242</ele>
        <time>2021-06-20T20:48:21Z</time>
      </trkpt>
      <trkpt lat="41.662502" lon="1.151328">
        <ele>422.826</ele>
        <time>2021-06-20T20:48:23Z</time>
      </trkpt>
      <trkpt lat="41.662116" lon="1.151121">
        <ele>422.008</ele>
        <time>2021-06-20T20:48:30Z</time>
      </trkpt>
      <trkpt lat="41.662006" lon="1.151060">
        <ele>421.855</ele>
        <time>2021-06-20T20:48:32Z</time>
      </trkpt>
      <trkpt lat="41.661685" lon="1.150861">
        <ele>421.434</ele>
        <time>2021-06-20T20:48:38Z</time>
      </trkpt>
      <trkpt lat="41.661284" lon="1.150599">
        <ele>420.851</ele>
        <time>2021-06-20T20:48:45Z</time>
      </trkpt>
      <trkpt lat="41.661095" lon="1.150494">
        <ele>419.283</ele>
        <time>2021-06-20T20:48:48Z</time>
      </trkpt>
      <trkpt lat="41.660960" lon="1.150446">
        <ele>418.647</ele>
        <time>2021-06-20T20:48:50Z</time>
      </trkpt>
      <trkpt lat="41.660893" lon="1.150423">
        <ele>418.288</ele>
        <time>2021-06-20T20:48:51Z</time>
      </trkpt>
      <trkpt lat="41.660761" lon="1.150390">
        <ele>417.658</ele>
        <time>2021-06-20T20:48:53Z</time>
      </trkpt>
      <trkpt lat="41.660645" lon="1.150372">
        <ele>417.466</ele>
        <time>2021-06-20T20:48:55Z</time>
      </trkpt>
      <trkpt lat="41.660383" lon="1.150246">
        <ele>417.233</ele>
        <time>2021-06-20T20:49:01Z</time>
      </trkpt>
      <trkpt lat="41.660301" lon="1.150206">
        <ele>417.623</ele>
        <time>2021-06-20T20:49:03Z</time>
      </trkpt>
      <trkpt lat="41.660181" lon="1.150141">
        <ele>418.015</ele>
        <time>2021-06-20T20:49:06Z</time>
      </trkpt>
      <trkpt lat="41.660014" lon="1.150047">
        <ele>418.208</ele>
        <time>2021-06-20T20:49:10Z</time>
      </trkpt>
      <trkpt lat="41.659922" lon="1.149991">
        <ele>418.240</ele>
        <time>2021-06-20T20:49:12Z</time>
      </trkpt>
      <trkpt lat="41.659586" lon="1.149814">
        <ele>417.279</ele>
        <time>2021-06-20T20:49:19Z</time>
      </trkpt>
      <trkpt lat="41.659528" lon="1.149785">
        <ele>417.226</ele>
        <time>2021-06-20T20:49:20Z</time>
      </trkpt>
      <trkpt lat="41.659170" lon="1.149636">
        <ele>416.488</ele>
        <time>2021-06-20T20:49:26Z</time>
      </trkpt>
      <trkpt lat="41.659114" lon="1.149614">
        <ele>416.092</ele>
        <time>2021-06-20T20:49:27Z</time>
      </trkpt>
      <trkpt lat="41.658857" lon="1.149491">
        <ele>415.093</ele>
        <time>2021-06-20T20:49:32Z</time>
      </trkpt>
      <trkpt lat="41.658807" lon="1.149463">
        <ele>414.613</ele>
        <time>2021-06-20T20:49:33Z</time>
      </trkpt>
      <trkpt lat="41.658357" lon="1.149259">
        <ele>414.451</ele>
        <time>2021-06-20T20:49:41Z</time>
      </trkpt>
      <trkpt lat="41.658012" lon="1.149148">
        <ele>413.495</ele>
        <time>2021-06-20T20:49:47Z</time>
      </trkpt>
      <trkpt lat="41.657837" lon="1.149112">
        <ele>413.049</ele>
        <time>2021-06-20T20:49:52Z</time>
      </trkpt>
      <trkpt lat="41.657572" lon="1.149038">
        <ele>412.423</ele>
        <time>2021-06-20T20:50:00Z</time>
      </trkpt>
      <trkpt lat="41.657529" lon="1.149026">
        <ele>412.408</ele>
        <time>2021-06-20T20:50:01Z</time>
      </trkpt>
      <trkpt lat="41.657240" lon="1.148925">
        <ele>411.846</ele>
        <time>2021-06-20T20:50:07Z</time>
      </trkpt>
      <trkpt lat="41.657094" lon="1.148855">
        <ele>411.495</ele>
        <time>2021-06-20T20:50:10Z</time>
      </trkpt>
      <trkpt lat="41.656811" lon="1.148704">
        <ele>410.222</ele>
        <time>2021-06-20T20:50:16Z</time>
      </trkpt>
      <trkpt lat="41.656765" lon="1.148676">
        <ele>410.284</ele>
        <time>2021-06-20T20:50:17Z</time>
      </trkpt>
      <trkpt lat="41.656408" lon="1.148391">
        <ele>409.498</ele>
        <time>2021-06-20T20:50:26Z</time>
      </trkpt>
      <trkpt lat="41.656336" lon="1.148330">
        <ele>409.499</ele>
        <time>2021-06-20T20:50:28Z</time>
      </trkpt>
      <trkpt lat="41.656192" lon="1.148248">
        <ele>409.219</ele>
        <time>2021-06-20T20:50:32Z</time>
      </trkpt>
      <trkpt lat="41.656159" lon="1.148229">
        <ele>409.217</ele>
        <time>2021-06-20T20:50:33Z</time>
      </trkpt>
      <trkpt lat="41.656126" lon="1.148210">
        <ele>409.266</ele>
        <time>2021-06-20T20:50:34Z</time>
      </trkpt>
      <trkpt lat="41.655937" lon="1.148144">
        <ele>408.829</ele>
        <time>2021-06-20T20:50:39Z</time>
      </trkpt>
      <trkpt lat="41.655570" lon="1.148001">
        <ele>409.021</ele>
        <time>2021-06-20T20:50:48Z</time>
      </trkpt>
      <trkpt lat="41.655207" lon="1.147756">
        <ele>409.208</ele>
        <time>2021-06-20T20:50:57Z</time>
      </trkpt>
      <trkpt lat="41.654884" lon="1.147574">
        <ele>409.633</ele>
        <time>2021-06-20T20:51:05Z</time>
      </trkpt>
      <trkpt lat="41.654723" lon="1.147485">
        <ele>410.282</ele>
        <time>2021-06-20T20:51:09Z</time>
      </trkpt>
      <trkpt lat="41.654532" lon="1.147371">
        <ele>410.459</ele>
        <time>2021-06-20T20:51:14Z</time>
      </trkpt>
      <trkpt lat="41.654317" lon="1.147238">
        <ele>411.211</ele>
        <time>2021-06-20T20:51:20Z</time>
      </trkpt>
      <trkpt lat="41.654175" lon="1.147163">
        <ele>411.885</ele>
        <time>2021-06-20T20:51:24Z</time>
      </trkpt>
      <trkpt lat="41.653996" lon="1.147056">
        <ele>412.266</ele>
        <time>2021-06-20T20:51:29Z</time>
      </trkpt>
      <trkpt lat="41.653746" lon="1.146909">
        <ele>412.626</ele>
        <time>2021-06-20T20:51:36Z</time>
      </trkpt>
      <trkpt lat="41.653569" lon="1.146718">
        <ele>413.044</ele>
        <time>2021-06-20T20:51:43Z</time>
      </trkpt>
      <trkpt lat="41.653559" lon="1.146682">
        <ele>413.452</ele>
        <time>2021-06-20T20:51:46Z</time>
      </trkpt>
      <trkpt lat="41.653545" lon="1.146648">
        <ele>415.453</ele>
        <time>2021-06-20T20:55:36Z</time>
      </trkpt>
      <trkpt lat="41.653459" lon="1.146556">
        <ele>415.408</ele>
        <time>2021-06-20T20:55:41Z</time>
      </trkpt>
      <trkpt lat="41.653438" lon="1.146535">
        <ele>415.408</ele>
        <time>2021-06-20T20:55:42Z</time>
      </trkpt>
      <trkpt lat="41.653324" lon="1.146509">
        <ele>415.452</ele>
        <time>2021-06-20T20:55:46Z</time>
      </trkpt>
      <trkpt lat="41.653126" lon="1.146479">
        <ele>415.621</ele>
        <time>2021-06-20T20:55:53Z</time>
      </trkpt>
      <trkpt lat="41.652987" lon="1.146363">
        <ele>416.478</ele>
        <time>2021-06-20T20:55:59Z</time>
      </trkpt>
      <trkpt lat="41.652965" lon="1.146343">
        <ele>416.650</ele>
        <time>2021-06-20T20:56:00Z</time>
      </trkpt>
      <trkpt lat="41.652770" lon="1.146169">
        <ele>417.614</ele>
        <time>2021-06-20T20:56:08Z</time>
      </trkpt>
      <trkpt lat="41.652599" lon="1.146014">
        <ele>417.835</ele>
        <time>2021-06-20T20:56:15Z</time>
      </trkpt>
      <trkpt lat="41.652416" lon="1.145844">
        <ele>418.035</ele>
        <time>2021-06-20T20:56:22Z</time>
      </trkpt>
      <trkpt lat="41.652196" lon="1.145617">
        <ele>418.033</ele>
        <time>2021-06-20T20:56:30Z</time>
      </trkpt>
      <trkpt lat="41.651960" lon="1.145404">
        <ele>418.622</ele>
        <time>2021-06-20T20:56:39Z</time>
      </trkpt>
      <trkpt lat="41.651724" lon="1.145178">
        <ele>419.662</ele>
        <time>2021-06-20T20:56:48Z</time>
      </trkpt>
      <trkpt lat="41.651697" lon="1.145154">
        <ele>419.808</ele>
        <time>2021-06-20T20:56:49Z</time>
      </trkpt>
      <trkpt lat="41.651657" lon="1.145093">
        <ele>420.008</ele>
        <time>2021-06-20T20:56:51Z</time>
      </trkpt>
      <trkpt lat="41.651641" lon="1.145012">
        <ele>420.639</ele>
        <time>2021-06-20T20:56:53Z</time>
      </trkpt>
      <trkpt lat="41.651634" lon="1.144970">
        <ele>420.668</ele>
        <time>2021-06-20T20:56:54Z</time>
      </trkpt>
      <trkpt lat="41.651608" lon="1.144776">
        <ele>421.275</ele>
        <time>2021-06-20T20:57:00Z</time>
      </trkpt>
      <trkpt lat="41.651610" lon="1.144778">
        <ele>421.427</ele>
        <time>2021-06-20T20:57:01Z</time>
      </trkpt>
      <trkpt lat="41.651584" lon="1.144688">
        <ele>422.441</ele>
        <time>2021-06-20T21:00:57Z</time>
      </trkpt>
      <trkpt lat="41.651542" lon="1.144670">
        <ele>422.442</ele>
        <time>2021-06-20T21:00:59Z</time>
      </trkpt>
      <trkpt lat="41.651439" lon="1.144594">
        <ele>422.612</ele>
        <time>2021-06-20T21:01:05Z</time>
      </trkpt>
      <trkpt lat="41.651337" lon="1.144370">
        <ele>422.670</ele>
        <time>2021-06-20T21:01:11Z</time>
      </trkpt>
      <trkpt lat="41.651223" lon="1.144101">
        <ele>422.673</ele>
        <time>2021-06-20T21:01:19Z</time>
      </trkpt>
      <trkpt lat="41.651196" lon="1.144038">
        <ele>422.485</ele>
        <time>2021-06-20T21:01:21Z</time>
      </trkpt>
      <trkpt lat="41.651204" lon="1.143975">
        <ele>422.413</ele>
        <time>2021-06-20T21:01:23Z</time>
      </trkpt>
      <trkpt lat="41.651204" lon="1.143865">
        <ele>422.408</ele>
        <time>2021-06-20T21:01:26Z</time>
      </trkpt>
      <trkpt lat="41.651201" lon="1.143786">
        <ele>422.414</ele>
        <time>2021-06-20T21:01:28Z</time>
      </trkpt>
      <trkpt lat="41.651159" lon="1.143573">
        <ele>421.663</ele>
        <time>2021-06-20T21:01:33Z</time>
      </trkpt>
      <trkpt lat="41.651150" lon="1.143539">
        <ele>421.230</ele>
        <time>2021-06-20T21:01:34Z</time>
      </trkpt>
      <trkpt lat="41.651133" lon="1.143498">
        <ele>421.012</ele>
        <time>2021-06-20T21:01:36Z</time>
      </trkpt>
      <trkpt lat="41.651124" lon="1.143495">
        <ele>421.096</ele>
        <time>2021-06-20T21:01:37Z</time>
      </trkpt>
      <trkpt lat="41.651121" lon="1.143491">
        <ele>421.097</ele>
        <time>2021-06-20T21:01:39Z</time>
      </trkpt>
      <trkpt lat="41.651147" lon="1.143544">
        <ele>421.467</ele>
        <time>2021-06-20T21:03:59Z</time>
      </trkpt>
      <trkpt lat="41.651155" lon="1.143569">
        <ele>421.435</ele>
        <time>2021-06-20T21:04:00Z</time>
      </trkpt>
      <trkpt lat="41.651198" lon="1.143761">
        <ele>421.449</ele>
        <time>2021-06-20T21:04:06Z</time>
      </trkpt>
      <trkpt lat="41.651184" lon="1.143788">
        <ele>421.402</ele>
        <time>2021-06-20T21:04:07Z</time>
      </trkpt>
      <trkpt lat="41.651139" lon="1.143820">
        <ele>421.622</ele>
        <time>2021-06-20T21:04:10Z</time>
      </trkpt>
      <trkpt lat="41.651124" lon="1.143812">
        <ele>421.408</ele>
        <time>2021-06-20T21:04:11Z</time>
      </trkpt>
      <trkpt lat="41.651085" lon="1.143786">
        <ele>421.461</ele>
        <time>2021-06-20T21:04:14Z</time>
      </trkpt>
      <trkpt lat="41.651054" lon="1.143742">
        <ele>421.630</ele>
        <time>2021-06-20T21:04:16Z</time>
      </trkpt>
      <trkpt lat="41.650913" lon="1.143505">
        <ele>421.487</ele>
        <time>2021-06-20T21:04:23Z</time>
      </trkpt>
      <trkpt lat="41.650795" lon="1.143357">
        <ele>421.049</ele>
        <time>2021-06-20T21:04:28Z</time>
      </trkpt>
      <trkpt lat="41.650764" lon="1.143310">
        <ele>420.623</ele>
        <time>2021-06-20T21:04:32Z</time>
      </trkpt>
      <trkpt lat="41.650693" lon="1.143205">
        <ele>420.664</ele>
        <time>2021-06-20T21:05:15Z</time>
      </trkpt>
      <trkpt lat="41.650652" lon="1.143211">
        <ele>420.684</ele>
        <time>2021-06-20T21:05:17Z</time>
      </trkpt>
      <trkpt lat="41.650548" lon="1.143169">
        <ele>420.672</ele>
        <time>2021-06-20T21:05:21Z</time>
      </trkpt>
      <trkpt lat="41.650520" lon="1.143151">
        <ele>420.637</ele>
        <time>2021-06-20T21:05:22Z</time>
      </trkpt>
      <trkpt lat="41.650436" lon="1.143084">
        <ele>420.249</ele>
        <time>2021-06-20T21:05:26Z</time>
      </trkpt>
      <trkpt lat="41.650436" lon="1.143086">
        <ele>420.213</ele>
        <time>2021-06-20T21:05:27Z</time>
      </trkpt>
      <trkpt lat="41.650521" lon="1.143099">
        <ele>418.408</ele>
        <time>2021-06-20T21:17:35Z</time>
      </trkpt>
      <trkpt lat="41.650550" lon="1.143159">
        <ele>418.420</ele>
        <time>2021-06-20T21:17:37Z</time>
      </trkpt>
      <trkpt lat="41.650601" lon="1.143242">
        <ele>418.629</ele>
        <time>2021-06-20T21:17:40Z</time>
      </trkpt>
      <trkpt lat="41.650690" lon="1.143431">
        <ele>419.236</ele>
        <time>2021-06-20T21:17:47Z</time>
      </trkpt>
      <trkpt lat="41.650719" lon="1.143485">
        <ele>419.698</ele>
        <time>2021-06-20T21:17:49Z</time>
      </trkpt>
      <trkpt lat="41.650789" lon="1.143625">
        <ele>419.892</ele>
        <time>2021-06-20T21:17:54Z</time>
      </trkpt>
      <trkpt lat="41.650858" lon="1.143758">
        <ele>420.253</ele>
        <time>2021-06-20T21:18:00Z</time>
      </trkpt>
      <trkpt lat="41.650953" lon="1.143890">
        <ele>420.683</ele>
        <time>2021-06-20T21:18:06Z</time>
      </trkpt>
      <trkpt lat="41.650962" lon="1.143920">
        <ele>420.621</ele>
        <time>2021-06-20T21:18:07Z</time>
      </trkpt>
      <trkpt lat="41.651102" lon="1.144167">
        <ele>421.257</ele>
        <time>2021-06-20T21:18:16Z</time>
      </trkpt>
      <trkpt lat="41.651210" lon="1.144393">
        <ele>421.200</ele>
        <time>2021-06-20T21:18:22Z</time>
      </trkpt>
      <trkpt lat="41.651334" lon="1.144730">
        <ele>421.420</ele>
        <time>2021-06-20T21:18:30Z</time>
      </trkpt>
      <trkpt lat="41.651364" lon="1.144742">
        <ele>421.408</ele>
        <time>2021-06-20T21:18:33Z</time>
      </trkpt>
      <trkpt lat="41.651367" lon="1.144668">
        <ele>421.862</ele>
        <time>2021-06-20T21:20:08Z</time>
      </trkpt>
      <trkpt lat="41.651301" lon="1.144490">
        <ele>421.821</ele>
        <time>2021-06-20T21:20:12Z</time>
      </trkpt>
      <trkpt lat="41.651276" lon="1.144443">
        <ele>421.888</ele>
        <time>2021-06-20T21:20:13Z</time>
      </trkpt>
      <trkpt lat="41.651152" lon="1.144178">
        <ele>420.850</ele>
        <time>2021-06-20T21:20:18Z</time>
      </trkpt>
      <trkpt lat="41.651095" lon="1.144066">
        <ele>420.654</ele>
        <time>2021-06-20T21:20:20Z</time>
      </trkpt>
      <trkpt lat="41.650871" lon="1.143649">
        <ele>420.035</ele>
        <time>2021-06-20T21:20:27Z</time>
      </trkpt>
      <trkpt lat="41.650803" lon="1.143530">
        <ele>419.865</ele>
        <time>2021-06-20T21:20:29Z</time>
      </trkpt>
      <trkpt lat="41.650654" lon="1.143275">
        <ele>418.873</ele>
        <time>2021-06-20T21:20:33Z</time>
      </trkpt>
      <trkpt lat="41.650614" lon="1.143212">
        <ele>418.664</ele>
        <time>2021-06-20T21:20:34Z</time>
      </trkpt>
      <trkpt lat="41.650530" lon="1.143091">
        <ele>418.206</ele>
        <time>2021-06-20T21:20:36Z</time>
      </trkpt>
      <trkpt lat="41.650397" lon="1.142920">
        <ele>417.816</ele>
        <time>2021-06-20T21:20:39Z</time>
      </trkpt>
      <trkpt lat="41.650357" lon="1.142868">
        <ele>417.608</ele>
        <time>2021-06-20T21:20:40Z</time>
      </trkpt>
      <trkpt lat="41.650146" lon="1.142601">
        <ele>416.623</ele>
        <time>2021-06-20T21:20:46Z</time>
      </trkpt>
      <trkpt lat="41.649911" lon="1.142358">
        <ele>415.292</ele>
        <time>2021-06-20T21:20:52Z</time>
      </trkpt>
      <trkpt lat="41.649819" lon="1.142269">
        <ele>415.039</ele>
        <time>2021-06-20T21:20:54Z</time>
      </trkpt>
      <trkpt lat="41.649678" lon="1.142129">
        <ele>414.411</ele>
        <time>2021-06-20T21:20:57Z</time>
      </trkpt>
      <trkpt lat="41.649629" lon="1.142080">
        <ele>414.035</ele>
        <time>2021-06-20T21:20:58Z</time>
      </trkpt>
      <trkpt lat="41.649522" lon="1.141989">
        <ele>413.866</ele>
        <time>2021-06-20T21:21:00Z</time>
      </trkpt>
      <trkpt lat="41.649297" lon="1.141805">
        <ele>413.076</ele>
        <time>2021-06-20T21:21:04Z</time>
      </trkpt>
      <trkpt lat="41.649154" lon="1.141654">
        <ele>412.014</ele>
        <time>2021-06-20T21:21:07Z</time>
      </trkpt>
      <trkpt lat="41.649115" lon="1.141590">
        <ele>411.681</ele>
        <time>2021-06-20T21:21:08Z</time>
      </trkpt>
      <trkpt lat="41.649015" lon="1.141437">
        <ele>410.661</ele>
        <time>2021-06-20T21:21:11Z</time>
      </trkpt>
      <trkpt lat="41.648984" lon="1.141390">
        <ele>410.417</ele>
        <time>2021-06-20T21:21:12Z</time>
      </trkpt>
      <trkpt lat="41.648806" lon="1.141035">
        <ele>410.008</ele>
        <time>2021-06-20T21:21:19Z</time>
      </trkpt>
      <trkpt lat="41.648757" lon="1.140902">
        <ele>409.865</ele>
        <time>2021-06-20T21:21:23Z</time>
      </trkpt>
      <trkpt lat="41.648759" lon="1.140908">
        <ele>409.664</ele>
        <time>2021-06-20T21:21:24Z</time>
      </trkpt>
      <trkpt lat="41.648720" lon="1.140824">
        <ele>409.011</ele>
        <time>2021-06-20T21:26:40Z</time>
      </trkpt>
      <trkpt lat="41.648702" lon="1.140776">
        <ele>409.093</ele>
        <time>2021-06-20T21:26:42Z</time>
      </trkpt>
      <trkpt lat="41.648647" lon="1.140577">
        <ele>409.047</ele>
        <time>2021-06-20T21:26:47Z</time>
      </trkpt>
      <trkpt lat="41.648627" lon="1.140486">
        <ele>409.048</ele>
        <time>2021-06-20T21:26:49Z</time>
      </trkpt>
      <trkpt lat="41.648606" lon="1.140397">
        <ele>408.668</ele>
        <time>2021-06-20T21:26:52Z</time>
      </trkpt>
      <trkpt lat="41.648586" lon="1.140336">
        <ele>407.866</ele>
        <time>2021-06-20T21:26:55Z</time>
      </trkpt>
      <trkpt lat="41.648556" lon="1.140318">
        <ele>407.678</ele>
        <time>2021-06-20T21:26:57Z</time>
      </trkpt>
      <trkpt lat="41.648565" lon="1.140385">
        <ele>407.433</ele>
        <time>2021-06-20T21:27:01Z</time>
      </trkpt>
      <trkpt lat="41.648573" lon="1.140428">
        <ele>407.426</ele>
        <time>2021-06-20T21:27:03Z</time>
      </trkpt>
      <trkpt lat="41.648561" lon="1.140478">
        <ele>407.408</ele>
        <time>2021-06-20T21:27:06Z</time>
      </trkpt>
      <trkpt lat="41.648555" lon="1.140626">
        <ele>407.614</ele>
        <time>2021-06-20T21:27:13Z</time>
      </trkpt>
      <trkpt lat="41.648559" lon="1.140669">
        <ele>408.033</ele>
        <time>2021-06-20T21:27:17Z</time>
      </trkpt>
      <trkpt lat="41.648541" lon="1.140707">
        <ele>408.290</ele>
        <time>2021-06-20T21:27:19Z</time>
      </trkpt>
      <trkpt lat="41.648501" lon="1.140744">
        <ele>408.212</ele>
        <time>2021-06-20T21:27:21Z</time>
      </trkpt>
      <trkpt lat="41.648341" lon="1.140913">
        <ele>408.416</ele>
        <time>2021-06-20T21:27:27Z</time>
      </trkpt>
      <trkpt lat="41.648213" lon="1.141051">
        <ele>408.457</ele>
        <time>2021-06-20T21:27:32Z</time>
      </trkpt>
      <trkpt lat="41.648098" lon="1.141182">
        <ele>408.617</ele>
        <time>2021-06-20T21:27:37Z</time>
      </trkpt>
      <trkpt lat="41.647910" lon="1.141354">
        <ele>408.695</ele>
        <time>2021-06-20T21:27:42Z</time>
      </trkpt>
      <trkpt lat="41.647729" lon="1.141408">
        <ele>408.477</ele>
        <time>2021-06-20T21:27:46Z</time>
      </trkpt>
      <trkpt lat="41.647632" lon="1.141425">
        <ele>407.461</ele>
        <time>2021-06-20T21:27:49Z</time>
      </trkpt>
      <trkpt lat="41.647601" lon="1.141444">
        <ele>407.227</ele>
        <time>2021-06-20T21:27:50Z</time>
      </trkpt>
      <trkpt lat="41.647459" lon="1.141479">
        <ele>406.808</ele>
        <time>2021-06-20T21:27:54Z</time>
      </trkpt>
      <trkpt lat="41.647260" lon="1.141522">
        <ele>406.484</ele>
        <time>2021-06-20T21:27:59Z</time>
      </trkpt>
      <trkpt lat="41.647114" lon="1.141579">
        <ele>406.243</ele>
        <time>2021-06-20T21:28:02Z</time>
      </trkpt>
      <trkpt lat="41.646944" lon="1.141651">
        <ele>405.440</ele>
        <time>2021-06-20T21:28:05Z</time>
      </trkpt>
      <trkpt lat="41.646750" lon="1.141721">
        <ele>404.272</ele>
        <time>2021-06-20T21:28:08Z</time>
      </trkpt>
      <trkpt lat="41.646546" lon="1.141803">
        <ele>403.296</ele>
        <time>2021-06-20T21:28:11Z</time>
      </trkpt>
      <trkpt lat="41.646326" lon="1.141890">
        <ele>401.697</ele>
        <time>2021-06-20T21:28:14Z</time>
      </trkpt>
      <trkpt lat="41.646192" lon="1.141938">
        <ele>400.667</ele>
        <time>2021-06-20T21:28:16Z</time>
      </trkpt>
      <trkpt lat="41.646129" lon="1.141967">
        <ele>400.035</ele>
        <time>2021-06-20T21:28:17Z</time>
      </trkpt>
      <trkpt lat="41.646005" lon="1.141992">
        <ele>399.238</ele>
        <time>2021-06-20T21:28:19Z</time>
      </trkpt>
      <trkpt lat="41.645866" lon="1.142034">
        <ele>397.870</ele>
        <time>2021-06-20T21:28:21Z</time>
      </trkpt>
      <trkpt lat="41.645799" lon="1.142065">
        <ele>397.617</ele>
        <time>2021-06-20T21:28:22Z</time>
      </trkpt>
      <trkpt lat="41.645438" lon="1.142272">
        <ele>397.208</ele>
        <time>2021-06-20T21:28:28Z</time>
      </trkpt>
      <trkpt lat="41.645308" lon="1.142339">
        <ele>397.210</ele>
        <time>2021-06-20T21:28:31Z</time>
      </trkpt>
      <trkpt lat="41.645174" lon="1.142395">
        <ele>397.469</ele>
        <time>2021-06-20T21:28:34Z</time>
      </trkpt>
      <trkpt lat="41.644784" lon="1.142551">
        <ele>397.816</ele>
        <time>2021-06-20T21:28:42Z</time>
      </trkpt>
      <trkpt lat="41.644385" lon="1.142684">
        <ele>397.698</ele>
        <time>2021-06-20T21:28:50Z</time>
      </trkpt>
      <trkpt lat="41.643981" lon="1.142810">
        <ele>397.432</ele>
        <time>2021-06-20T21:28:58Z</time>
      </trkpt>
      <trkpt lat="41.643520" lon="1.143023">
        <ele>397.473</ele>
        <time>2021-06-20T21:29:07Z</time>
      </trkpt>
      <trkpt lat="41.643312" lon="1.143093">
        <ele>397.493</ele>
        <time>2021-06-20T21:29:11Z</time>
      </trkpt>
      <trkpt lat="41.643205" lon="1.143108">
        <ele>397.691</ele>
        <time>2021-06-20T21:29:13Z</time>
      </trkpt>
      <trkpt lat="41.643151" lon="1.143107">
        <ele>397.658</ele>
        <time>2021-06-20T21:29:14Z</time>
      </trkpt>
      <trkpt lat="41.642865" lon="1.143088">
        <ele>397.852</ele>
        <time>2021-06-20T21:29:19Z</time>
      </trkpt>
      <trkpt lat="41.642814" lon="1.143068">
        <ele>397.817</ele>
        <time>2021-06-20T21:29:20Z</time>
      </trkpt>
      <trkpt lat="41.642663" lon="1.142983">
        <ele>397.808</ele>
        <time>2021-06-20T21:29:23Z</time>
      </trkpt>
      <trkpt lat="41.642563" lon="1.142924">
        <ele>397.852</ele>
        <time>2021-06-20T21:29:25Z</time>
      </trkpt>
      <trkpt lat="41.642229" lon="1.142536">
        <ele>397.641</ele>
        <time>2021-06-20T21:29:33Z</time>
      </trkpt>
      <trkpt lat="41.642048" lon="1.142248">
        <ele>397.648</ele>
        <time>2021-06-20T21:29:38Z</time>
      </trkpt>
      <trkpt lat="41.641999" lon="1.142122">
        <ele>397.480</ele>
        <time>2021-06-20T21:29:40Z</time>
      </trkpt>
      <trkpt lat="41.641913" lon="1.142018">
        <ele>397.434</ele>
        <time>2021-06-20T21:29:43Z</time>
      </trkpt>
      <trkpt lat="41.641828" lon="1.142113">
        <ele>397.655</ele>
        <time>2021-06-20T21:29:46Z</time>
      </trkpt>
      <trkpt lat="41.641808" lon="1.142163">
        <ele>397.655</ele>
        <time>2021-06-20T21:29:47Z</time>
      </trkpt>
      <trkpt lat="41.641764" lon="1.142253">
        <ele>397.893</ele>
        <time>2021-06-20T21:29:49Z</time>
      </trkpt>
      <trkpt lat="41.641675" lon="1.142375">
        <ele>398.053</ele>
        <time>2021-06-20T21:29:52Z</time>
      </trkpt>
      <trkpt lat="41.641356" lon="1.142788">
        <ele>398.204</ele>
        <time>2021-06-20T21:30:02Z</time>
      </trkpt>
      <trkpt lat="41.641046" lon="1.143169">
        <ele>398.214</ele>
        <time>2021-06-20T21:30:11Z</time>
      </trkpt>
      <trkpt lat="41.640949" lon="1.143299">
        <ele>398.208</ele>
        <time>2021-06-20T21:30:15Z</time>
      </trkpt>
      <trkpt lat="41.640989" lon="1.143282">
        <ele>398.272</ele>
        <time>2021-06-20T21:30:18Z</time>
      </trkpt>
      <trkpt lat="41.640962" lon="1.143163">
        <ele>398.441</ele>
        <time>2021-06-20T21:30:21Z</time>
      </trkpt>
      <trkpt lat="41.640794" lon="1.143027">
        <ele>398.618</ele>
        <time>2021-06-20T21:30:26Z</time>
      </trkpt>
      <trkpt lat="41.640487" lon="1.142862">
        <ele>398.680</ele>
        <time>2021-06-20T21:30:33Z</time>
      </trkpt>
      <trkpt lat="41.640140" lon="1.142688">
        <ele>398.664</ele>
        <time>2021-06-20T21:30:41Z</time>
      </trkpt>
      <trkpt lat="41.639886" lon="1.142575">
        <ele>399.015</ele>
        <time>2021-06-20T21:30:48Z</time>
      </trkpt>
      <trkpt lat="41.639852" lon="1.142563">
        <ele>399.275</ele>
        <time>2021-06-20T21:30:49Z</time>
      </trkpt>
      <trkpt lat="41.639627" lon="1.142497">
        <ele>400.243</ele>
        <time>2021-06-20T21:30:56Z</time>
      </trkpt>
      <trkpt lat="41.639566" lon="1.142477">
        <ele>400.478</ele>
        <time>2021-06-20T21:30:58Z</time>
      </trkpt>
      <trkpt lat="41.639385" lon="1.142458">
        <ele>401.233</ele>
        <time>2021-06-20T21:31:04Z</time>
      </trkpt>
      <trkpt lat="41.639328" lon="1.142459">
        <ele>401.626</ele>
        <time>2021-06-20T21:31:06Z</time>
      </trkpt>
      <trkpt lat="41.639184" lon="1.142468">
        <ele>402.208</ele>
        <time>2021-06-20T21:31:11Z</time>
      </trkpt>
      <trkpt lat="41.639098" lon="1.142461">
        <ele>403.034</ele>
        <time>2021-06-20T21:31:14Z</time>
      </trkpt>
      <trkpt lat="41.639042" lon="1.142456">
        <ele>403.483</ele>
        <time>2021-06-20T21:31:16Z</time>
      </trkpt>
      <trkpt lat="41.638871" lon="1.142423">
        <ele>404.480</ele>
        <time>2021-06-20T21:31:22Z</time>
      </trkpt>
      <trkpt lat="41.638692" lon="1.142381">
        <ele>405.422</ele>
        <time>2021-06-20T21:31:28Z</time>
      </trkpt>
      <trkpt lat="41.638664" lon="1.142374">
        <ele>405.656</ele>
        <time>2021-06-20T21:31:29Z</time>
      </trkpt>
      <trkpt lat="41.638527" lon="1.142344">
        <ele>405.687</ele>
        <time>2021-06-20T21:31:34Z</time>
      </trkpt>
      <trkpt lat="41.638333" lon="1.142242">
        <ele>405.827</ele>
        <time>2021-06-20T21:31:41Z</time>
      </trkpt>
      <trkpt lat="41.638120" lon="1.142170">
        <ele>405.615</ele>
        <time>2021-06-20T21:31:47Z</time>
      </trkpt>
      <trkpt lat="41.638079" lon="1.142160">
        <ele>405.647</ele>
        <time>2021-06-20T21:31:48Z</time>
      </trkpt>
      <trkpt lat="41.637864" lon="1.142142">
        <ele>405.229</ele>
        <time>2021-06-20T21:31:53Z</time>
      </trkpt>
      <trkpt lat="41.637775" lon="1.142138">
        <ele>405.221</ele>
        <time>2021-06-20T21:31:55Z</time>
      </trkpt>
      <trkpt lat="41.637553" lon="1.142128">
        <ele>405.008</ele>
        <time>2021-06-20T21:32:00Z</time>
      </trkpt>
      <trkpt lat="41.637083" lon="1.142077">
        <ele>404.881</ele>
        <time>2021-06-20T21:32:10Z</time>
      </trkpt>
      <trkpt lat="41.636939" lon="1.142054">
        <ele>404.840</ele>
        <time>2021-06-20T21:32:13Z</time>
      </trkpt>
      <trkpt lat="41.636551" lon="1.142012">
        <ele>405.037</ele>
        <time>2021-06-20T21:32:21Z</time>
      </trkpt>
      <trkpt lat="41.636088" lon="1.141994">
        <ele>405.819</ele>
        <time>2021-06-20T21:32:31Z</time>
      </trkpt>
      <trkpt lat="41.635923" lon="1.141997">
        <ele>406.673</ele>
        <time>2021-06-20T21:32:35Z</time>
      </trkpt>
      <trkpt lat="41.635764" lon="1.142011">
        <ele>407.084</ele>
        <time>2021-06-20T21:32:39Z</time>
      </trkpt>
      <trkpt lat="41.635644" lon="1.142017">
        <ele>407.894</ele>
        <time>2021-06-20T21:32:42Z</time>
      </trkpt>
      <trkpt lat="41.635387" lon="1.142036">
        <ele>408.872</ele>
        <time>2021-06-20T21:32:49Z</time>
      </trkpt>
      <trkpt lat="41.635246" lon="1.142058">
        <ele>410.083</ele>
        <time>2021-06-20T21:32:54Z</time>
      </trkpt>
      <trkpt lat="41.635234" lon="1.142056">
        <ele>410.225</ele>
        <time>2021-06-20T21:32:55Z</time>
      </trkpt>
      <trkpt lat="41.635227" lon="1.142057">
        <ele>410.617</ele>
        <time>2021-06-20T21:32:57Z</time>
      </trkpt>
      <trkpt lat="41.635162" lon="1.142095">
        <ele>412.408</ele>
        <time>2021-06-20T21:34:36Z</time>
      </trkpt>
      <trkpt lat="41.635144" lon="1.142099">
        <ele>412.425</ele>
        <time>2021-06-20T21:34:37Z</time>
      </trkpt>
      <trkpt lat="41.635109" lon="1.142114">
        <ele>412.484</ele>
        <time>2021-06-20T21:34:41Z</time>
      </trkpt>
      <trkpt lat="41.635072" lon="1.142115">
        <ele>412.681</ele>
        <time>2021-06-20T21:34:48Z</time>
      </trkpt>
      <trkpt lat="41.634937" lon="1.142164">
        <ele>412.663</ele>
        <time>2021-06-20T21:34:53Z</time>
      </trkpt>
      <trkpt lat="41.634624" lon="1.142234">
        <ele>412.847</ele>
        <time>2021-06-20T21:35:02Z</time>
      </trkpt>
      <trkpt lat="41.634273" lon="1.142152">
        <ele>412.888</ele>
        <time>2021-06-20T21:35:11Z</time>
      </trkpt>
      <trkpt lat="41.633829" lon="1.142035">
        <ele>413.668</ele>
        <time>2021-06-20T21:35:22Z</time>
      </trkpt>
      <trkpt lat="41.633747" lon="1.142013">
        <ele>413.856</ele>
        <time>2021-06-20T21:35:24Z</time>
      </trkpt>
      <trkpt lat="41.633471" lon="1.141971">
        <ele>414.469</ele>
        <time>2021-06-20T21:35:31Z</time>
      </trkpt>
      <trkpt lat="41.633320" lon="1.141966">
        <ele>414.804</ele>
        <time>2021-06-20T21:35:35Z</time>
      </trkpt>
      <trkpt lat="41.633214" lon="1.141985">
        <ele>415.224</ele>
        <time>2021-06-20T21:35:38Z</time>
      </trkpt>
      <trkpt lat="41.633086" lon="1.142025">
        <ele>416.008</ele>
        <time>2021-06-20T21:35:42Z</time>
      </trkpt>
      <trkpt lat="41.633008" lon="1.142052">
        <ele>416.653</ele>
        <time>2021-06-20T21:35:45Z</time>
      </trkpt>
      <trkpt lat="41.632934" lon="1.142069">
        <ele>417.052</ele>
        <time>2021-06-20T21:35:48Z</time>
      </trkpt>
      <trkpt lat="41.632829" lon="1.142071">
        <ele>418.059</ele>
        <time>2021-06-20T21:35:52Z</time>
      </trkpt>
      <trkpt lat="41.632777" lon="1.142068">
        <ele>418.461</ele>
        <time>2021-06-20T21:35:54Z</time>
      </trkpt>
      <trkpt lat="41.632736" lon="1.142062">
        <ele>419.235</ele>
        <time>2021-06-20T21:35:57Z</time>
      </trkpt>
      <trkpt lat="41.632736" lon="1.142062">
        <ele>419.646</ele>
        <time>2021-06-20T21:35:58Z</time>
      </trkpt>
      <trkpt lat="41.632715" lon="1.142060">
        <ele>420.436</ele>
        <time>2021-06-20T21:36:42Z</time>
      </trkpt>
      <trkpt lat="41.632658" lon="1.142052">
        <ele>420.274</ele>
        <time>2021-06-20T21:36:45Z</time>
      </trkpt>
      <trkpt lat="41.632445" lon="1.142016">
        <ele>420.056</ele>
        <time>2021-06-20T21:36:52Z</time>
      </trkpt>
      <trkpt lat="41.632103" lon="1.141952">
        <ele>420.259</ele>
        <time>2021-06-20T21:37:02Z</time>
      </trkpt>
      <trkpt lat="41.631815" lon="1.141895">
        <ele>421.214</ele>
        <time>2021-06-20T21:37:11Z</time>
      </trkpt>
      <trkpt lat="41.631783" lon="1.141890">
        <ele>421.408</ele>
        <time>2021-06-20T21:37:12Z</time>
      </trkpt>
      <trkpt lat="41.631603" lon="1.141882">
        <ele>422.482</ele>
        <time>2021-06-20T21:37:18Z</time>
      </trkpt>
      <trkpt lat="41.631542" lon="1.141883">
        <ele>422.861</ele>
        <time>2021-06-20T21:37:20Z</time>
      </trkpt>
      <trkpt lat="41.631421" lon="1.141902">
        <ele>423.648</ele>
        <time>2021-06-20T21:37:24Z</time>
      </trkpt>
      <trkpt lat="41.631268" lon="1.141918">
        <ele>424.850</ele>
        <time>2021-06-20T21:37:29Z</time>
      </trkpt>
      <trkpt lat="41.631147" lon="1.141930">
        <ele>425.824</ele>
        <time>2021-06-20T21:37:33Z</time>
      </trkpt>
      <trkpt lat="41.631013" lon="1.141947">
        <ele>426.825</ele>
        <time>2021-06-20T21:37:38Z</time>
      </trkpt>
      <trkpt lat="41.630991" lon="1.141948">
        <ele>427.045</ele>
        <time>2021-06-20T21:37:39Z</time>
      </trkpt>
      <trkpt lat="41.630929" lon="1.141959">
        <ele>428.093</ele>
        <time>2021-06-20T21:37:42Z</time>
      </trkpt>
      <trkpt lat="41.630868" lon="1.141964">
        <ele>429.485</ele>
        <time>2021-06-20T21:37:45Z</time>
      </trkpt>
      <trkpt lat="41.630790" lon="1.141977">
        <ele>430.489</ele>
        <time>2021-06-20T21:37:49Z</time>
      </trkpt>
      <trkpt lat="41.630727" lon="1.141996">
        <ele>431.217</ele>
        <time>2021-06-20T21:37:53Z</time>
      </trkpt>
      <trkpt lat="41.630716" lon="1.142003">
        <ele>431.408</ele>
        <time>2021-06-20T21:37:54Z</time>
      </trkpt>
      <trkpt lat="41.630692" lon="1.142015">
        <ele>432.085</ele>
        <time>2021-06-20T21:37:56Z</time>
      </trkpt>
      <trkpt lat="41.630649" lon="1.142016">
        <ele>432.644</ele>
        <time>2021-06-20T21:37:59Z</time>
      </trkpt>
      <trkpt lat="41.630632" lon="1.142018">
        <ele>432.841</ele>
        <time>2021-06-20T21:38:00Z</time>
      </trkpt>
      <trkpt lat="41.630513" lon="1.142062">
        <ele>433.473</ele>
        <time>2021-06-20T21:38:07Z</time>
      </trkpt>
      <trkpt lat="41.630358" lon="1.142102">
        <ele>433.647</ele>
        <time>2021-06-20T21:38:15Z</time>
      </trkpt>
      <trkpt lat="41.630176" lon="1.142219">
        <ele>433.438</ele>
        <time>2021-06-20T21:38:22Z</time>
      </trkpt>
      <trkpt lat="41.629976" lon="1.142369">
        <ele>433.078</ele>
        <time>2021-06-20T21:38:30Z</time>
      </trkpt>
      <trkpt lat="41.629752" lon="1.142612">
        <ele>433.266</ele>
        <time>2021-06-20T21:38:39Z</time>
      </trkpt>
      <trkpt lat="41.629617" lon="1.142747">
        <ele>433.681</ele>
        <time>2021-06-20T21:38:44Z</time>
      </trkpt>
      <trkpt lat="41.629530" lon="1.142819">
        <ele>434.061</ele>
        <time>2021-06-20T21:38:47Z</time>
      </trkpt>
      <trkpt lat="41.629317" lon="1.142969">
        <ele>434.817</ele>
        <time>2021-06-20T21:38:54Z</time>
      </trkpt>
      <trkpt lat="41.629226" lon="1.143038">
        <ele>435.208</ele>
        <time>2021-06-20T21:38:57Z</time>
      </trkpt>
      <trkpt lat="41.629009" lon="1.143188">
        <ele>436.095</ele>
        <time>2021-06-20T21:39:04Z</time>
      </trkpt>
      <trkpt lat="41.628917" lon="1.143256">
        <ele>436.454</ele>
        <time>2021-06-20T21:39:07Z</time>
      </trkpt>
      <trkpt lat="41.628797" lon="1.143350">
        <ele>437.031</ele>
        <time>2021-06-20T21:39:11Z</time>
      </trkpt>
      <trkpt lat="41.628643" lon="1.143459">
        <ele>438.033</ele>
        <time>2021-06-20T21:39:16Z</time>
      </trkpt>
      <trkpt lat="41.628440" lon="1.143632">
        <ele>439.267</ele>
        <time>2021-06-20T21:39:23Z</time>
      </trkpt>
      <trkpt lat="41.628353" lon="1.143713">
        <ele>439.668</ele>
        <time>2021-06-20T21:39:26Z</time>
      </trkpt>
      <trkpt lat="41.628239" lon="1.143811">
        <ele>440.218</ele>
        <time>2021-06-20T21:39:30Z</time>
      </trkpt>
      <trkpt lat="41.628081" lon="1.143904">
        <ele>441.236</ele>
        <time>2021-06-20T21:39:35Z</time>
      </trkpt>
      <trkpt lat="41.628049" lon="1.143925">
        <ele>441.435</ele>
        <time>2021-06-20T21:39:36Z</time>
      </trkpt>
      <trkpt lat="41.627823" lon="1.144090">
        <ele>442.486</ele>
        <time>2021-06-20T21:39:43Z</time>
      </trkpt>
      <trkpt lat="41.627743" lon="1.144135">
        <ele>442.614</ele>
        <time>2021-06-20T21:39:45Z</time>
      </trkpt>
      <trkpt lat="41.627359" lon="1.144327">
        <ele>442.408</ele>
        <time>2021-06-20T21:39:53Z</time>
      </trkpt>
      <trkpt lat="41.626950" lon="1.144490">
        <ele>441.670</ele>
        <time>2021-06-20T21:40:01Z</time>
      </trkpt>
      <trkpt lat="41.626691" lon="1.144559">
        <ele>441.849</ele>
        <time>2021-06-20T21:40:07Z</time>
      </trkpt>
      <trkpt lat="41.626453" lon="1.144618">
        <ele>443.856</ele>
        <time>2021-06-20T21:40:14Z</time>
      </trkpt>
      <trkpt lat="41.626386" lon="1.144630">
        <ele>444.888</ele>
        <time>2021-06-20T21:40:16Z</time>
      </trkpt>
      <trkpt lat="41.626351" lon="1.144634">
        <ele>445.092</ele>
        <time>2021-06-20T21:40:17Z</time>
      </trkpt>
      <trkpt lat="41.626176" lon="1.144655">
        <ele>446.293</ele>
        <time>2021-06-20T21:40:22Z</time>
      </trkpt>
      <trkpt lat="41.625955" lon="1.144690">
        <ele>447.083</ele>
        <time>2021-06-20T21:40:28Z</time>
      </trkpt>
      <trkpt lat="41.625499" lon="1.144733">
        <ele>447.251</ele>
        <time>2021-06-20T21:40:39Z</time>
      </trkpt>
      <trkpt lat="41.625456" lon="1.144737">
        <ele>447.259</ele>
        <time>2021-06-20T21:40:40Z</time>
      </trkpt>
      <trkpt lat="41.625046" lon="1.144818">
        <ele>447.203</ele>
        <time>2021-06-20T21:40:49Z</time>
      </trkpt>
      <trkpt lat="41.624646" lon="1.144932">
        <ele>447.223</ele>
        <time>2021-06-20T21:40:57Z</time>
      </trkpt>
      <trkpt lat="41.624240" lon="1.145060">
        <ele>446.408</ele>
        <time>2021-06-20T21:41:05Z</time>
      </trkpt>
      <trkpt lat="41.624151" lon="1.145073">
        <ele>446.462</ele>
        <time>2021-06-20T21:41:07Z</time>
      </trkpt>
      <trkpt lat="41.623985" lon="1.145075">
        <ele>446.651</ele>
        <time>2021-06-20T21:41:11Z</time>
      </trkpt>
      <trkpt lat="41.623725" lon="1.145021">
        <ele>448.418</ele>
        <time>2021-06-20T21:41:17Z</time>
      </trkpt>
      <trkpt lat="41.623635" lon="1.144989">
        <ele>448.680</ele>
        <time>2021-06-20T21:41:19Z</time>
      </trkpt>
      <trkpt lat="41.623401" lon="1.144884">
        <ele>448.834</ele>
        <time>2021-06-20T21:41:25Z</time>
      </trkpt>
      <trkpt lat="41.623271" lon="1.144868">
        <ele>448.885</ele>
        <time>2021-06-20T21:41:29Z</time>
      </trkpt>
      <trkpt lat="41.622989" lon="1.144850">
        <ele>448.655</ele>
        <time>2021-06-20T21:41:35Z</time>
      </trkpt>
      <trkpt lat="41.622690" lon="1.144907">
        <ele>447.413</ele>
        <time>2021-06-20T21:41:40Z</time>
      </trkpt>
      <trkpt lat="41.622629" lon="1.144912">
        <ele>446.861</ele>
        <time>2021-06-20T21:41:41Z</time>
      </trkpt>
      <trkpt lat="41.622464" lon="1.144906">
        <ele>445.621</ele>
        <time>2021-06-20T21:41:44Z</time>
      </trkpt>
      <trkpt lat="41.622420" lon="1.144888">
        <ele>445.013</ele>
        <time>2021-06-20T21:41:45Z</time>
      </trkpt>
      <trkpt lat="41.622308" lon="1.144831">
        <ele>444.608</ele>
        <time>2021-06-20T21:41:49Z</time>
      </trkpt>
      <trkpt lat="41.622308" lon="1.144831">
        <ele>444.643</ele>
        <time>2021-06-20T21:41:50Z</time>
      </trkpt>
      <trkpt lat="41.622282" lon="1.144842">
        <ele>445.072</ele>
        <time>2021-06-20T21:48:13Z</time>
      </trkpt>
      <trkpt lat="41.622245" lon="1.144849">
        <ele>444.869</ele>
        <time>2021-06-20T21:48:15Z</time>
      </trkpt>
      <trkpt lat="41.622088" lon="1.144873">
        <ele>444.871</ele>
        <time>2021-06-20T21:48:21Z</time>
      </trkpt>
      <trkpt lat="41.621896" lon="1.144959">
        <ele>444.675</ele>
        <time>2021-06-20T21:48:26Z</time>
      </trkpt>
      <trkpt lat="41.621851" lon="1.144975">
        <ele>444.656</ele>
        <time>2021-06-20T21:48:27Z</time>
      </trkpt>
      <trkpt lat="41.621756" lon="1.145002">
        <ele>444.456</ele>
        <time>2021-06-20T21:48:29Z</time>
      </trkpt>
      <trkpt lat="41.621557" lon="1.145009">
        <ele>443.894</ele>
        <time>2021-06-20T21:48:33Z</time>
      </trkpt>
      <trkpt lat="41.621508" lon="1.145007">
        <ele>443.623</ele>
        <time>2021-06-20T21:48:34Z</time>
      </trkpt>
      <trkpt lat="41.621128" lon="1.145034">
        <ele>443.483</ele>
        <time>2021-06-20T21:48:42Z</time>
      </trkpt>
      <trkpt lat="41.620792" lon="1.145009">
        <ele>443.811</ele>
        <time>2021-06-20T21:48:49Z</time>
      </trkpt>
      <trkpt lat="41.620586" lon="1.144980">
        <ele>444.208</ele>
        <time>2021-06-20T21:48:55Z</time>
      </trkpt>
      <trkpt lat="41.620539" lon="1.144980">
        <ele>444.699</ele>
        <time>2021-06-20T21:48:57Z</time>
      </trkpt>
      <trkpt lat="41.620453" lon="1.144967">
        <ele>445.668</ele>
        <time>2021-06-20T21:49:01Z</time>
      </trkpt>
      <trkpt lat="41.620430" lon="1.144963">
        <ele>446.045</ele>
        <time>2021-06-20T21:49:02Z</time>
      </trkpt>
      <trkpt lat="41.620383" lon="1.144959">
        <ele>446.837</ele>
        <time>2021-06-20T21:49:04Z</time>
      </trkpt>
      <trkpt lat="41.620281" lon="1.144955">
        <ele>448.011</ele>
        <time>2021-06-20T21:49:08Z</time>
      </trkpt>
      <trkpt lat="41.620226" lon="1.144952">
        <ele>448.272</ele>
        <time>2021-06-20T21:49:10Z</time>
      </trkpt>
      <trkpt lat="41.620003" lon="1.144949">
        <ele>448.252</ele>
        <time>2021-06-20T21:49:16Z</time>
      </trkpt>
      <trkpt lat="41.619802" lon="1.145038">
        <ele>448.250</ele>
        <time>2021-06-20T21:49:20Z</time>
      </trkpt>
      <trkpt lat="41.619744" lon="1.145084">
        <ele>448.268</ele>
        <time>2021-06-20T21:49:21Z</time>
      </trkpt>
      <trkpt lat="41.619493" lon="1.145254">
        <ele>447.042</ele>
        <time>2021-06-20T21:49:25Z</time>
      </trkpt>
      <trkpt lat="41.619428" lon="1.145284">
        <ele>446.226</ele>
        <time>2021-06-20T21:49:26Z</time>
      </trkpt>
      <trkpt lat="41.619363" lon="1.145308">
        <ele>445.408</ele>
        <time>2021-06-20T21:49:27Z</time>
      </trkpt>
      <trkpt lat="41.619238" lon="1.145338">
        <ele>443.883</ele>
        <time>2021-06-20T21:49:29Z</time>
      </trkpt>
      <trkpt lat="41.619127" lon="1.145348">
        <ele>443.262</ele>
        <time>2021-06-20T21:49:31Z</time>
      </trkpt>
      <trkpt lat="41.618920" lon="1.145357">
        <ele>443.089</ele>
        <time>2021-06-20T21:49:36Z</time>
      </trkpt>
      <trkpt lat="41.618786" lon="1.145352">
        <ele>443.881</ele>
        <time>2021-06-20T21:49:41Z</time>
      </trkpt>
      <trkpt lat="41.618718" lon="1.145343">
        <ele>445.085</ele>
        <time>2021-06-20T21:49:44Z</time>
      </trkpt>
      <trkpt lat="41.618655" lon="1.145335">
        <ele>446.026</ele>
        <time>2021-06-20T21:49:47Z</time>
      </trkpt>
      <trkpt lat="41.618593" lon="1.145321">
        <ele>447.066</ele>
        <time>2021-06-20T21:49:50Z</time>
      </trkpt>
      <trkpt lat="41.618510" lon="1.145292">
        <ele>448.224</ele>
        <time>2021-06-20T21:49:54Z</time>
      </trkpt>
      <trkpt lat="41.618395" lon="1.145264">
        <ele>449.076</ele>
        <time>2021-06-20T21:49:59Z</time>
      </trkpt>
      <trkpt lat="41.618341" lon="1.145245">
        <ele>449.490</ele>
        <time>2021-06-20T21:50:01Z</time>
      </trkpt>
      <trkpt lat="41.618150" lon="1.145181">
        <ele>449.819</ele>
        <time>2021-06-20T21:50:07Z</time>
      </trkpt>
      <trkpt lat="41.617861" lon="1.145094">
        <ele>450.008</ele>
        <time>2021-06-20T21:50:14Z</time>
      </trkpt>
      <trkpt lat="41.617512" lon="1.144955">
        <ele>448.664</ele>
        <time>2021-06-20T21:50:21Z</time>
      </trkpt>
      <trkpt lat="41.617466" lon="1.144919">
        <ele>448.453</ele>
        <time>2021-06-20T21:50:22Z</time>
      </trkpt>
      <trkpt lat="41.617248" lon="1.144689">
        <ele>447.080</ele>
        <time>2021-06-20T21:50:27Z</time>
      </trkpt>
      <trkpt lat="41.617106" lon="1.144526">
        <ele>445.852</ele>
        <time>2021-06-20T21:50:30Z</time>
      </trkpt>
      <trkpt lat="41.617007" lon="1.144420">
        <ele>444.696</ele>
        <time>2021-06-20T21:50:32Z</time>
      </trkpt>
      <trkpt lat="41.616899" lon="1.144310">
        <ele>443.067</ele>
        <time>2021-06-20T21:50:34Z</time>
      </trkpt>
      <trkpt lat="41.616840" lon="1.144254">
        <ele>442.247</ele>
        <time>2021-06-20T21:50:35Z</time>
      </trkpt>
      <trkpt lat="41.616781" lon="1.144195">
        <ele>441.215</ele>
        <time>2021-06-20T21:50:36Z</time>
      </trkpt>
      <trkpt lat="41.616720" lon="1.144135">
        <ele>440.014</ele>
        <time>2021-06-20T21:50:37Z</time>
      </trkpt>
      <trkpt lat="41.616658" lon="1.144075">
        <ele>439.054</ele>
        <time>2021-06-20T21:50:38Z</time>
      </trkpt>
      <trkpt lat="41.616538" lon="1.143959">
        <ele>437.009</ele>
        <time>2021-06-20T21:50:40Z</time>
      </trkpt>
      <trkpt lat="41.616484" lon="1.143907">
        <ele>436.208</ele>
        <time>2021-06-20T21:50:41Z</time>
      </trkpt>
      <trkpt lat="41.616431" lon="1.143862">
        <ele>434.668</ele>
        <time>2021-06-20T21:50:42Z</time>
      </trkpt>
      <trkpt lat="41.616379" lon="1.143825">
        <ele>433.687</ele>
        <time>2021-06-20T21:50:43Z</time>
      </trkpt>
      <trkpt lat="41.616326" lon="1.143797">
        <ele>432.494</ele>
        <time>2021-06-20T21:50:44Z</time>
      </trkpt>
      <trkpt lat="41.616270" lon="1.143788">
        <ele>431.616</ele>
        <time>2021-06-20T21:50:45Z</time>
      </trkpt>
      <trkpt lat="41.616211" lon="1.143797">
        <ele>430.870</ele>
        <time>2021-06-20T21:50:46Z</time>
      </trkpt>
      <trkpt lat="41.616100" lon="1.143851">
        <ele>429.471</ele>
        <time>2021-06-20T21:50:48Z</time>
      </trkpt>
      <trkpt lat="41.616049" lon="1.143887">
        <ele>429.221</ele>
        <time>2021-06-20T21:50:49Z</time>
      </trkpt>
      <trkpt lat="41.615919" lon="1.144021">
        <ele>428.439</ele>
        <time>2021-06-20T21:50:52Z</time>
      </trkpt>
      <trkpt lat="41.615835" lon="1.144097">
        <ele>427.811</ele>
        <time>2021-06-20T21:50:54Z</time>
      </trkpt>
      <trkpt lat="41.615795" lon="1.144136">
        <ele>427.421</ele>
        <time>2021-06-20T21:50:55Z</time>
      </trkpt>
      <trkpt lat="41.615605" lon="1.144343">
        <ele>427.203</ele>
        <time>2021-06-20T21:51:00Z</time>
      </trkpt>
      <trkpt lat="41.615500" lon="1.144428">
        <ele>427.208</ele>
        <time>2021-06-20T21:51:02Z</time>
      </trkpt>
      <trkpt lat="41.615374" lon="1.144498">
        <ele>427.018</ele>
        <time>2021-06-20T21:51:04Z</time>
      </trkpt>
      <trkpt lat="41.615122" lon="1.144589">
        <ele>426.847</ele>
        <time>2021-06-20T21:51:08Z</time>
      </trkpt>
      <trkpt lat="41.615064" lon="1.144594">
        <ele>426.684</ele>
        <time>2021-06-20T21:51:09Z</time>
      </trkpt>
      <trkpt lat="41.615004" lon="1.144586">
        <ele>425.636</ele>
        <time>2021-06-20T21:51:10Z</time>
      </trkpt>
      <trkpt lat="41.614895" lon="1.144528">
        <ele>424.620</ele>
        <time>2021-06-20T21:51:12Z</time>
      </trkpt>
      <trkpt lat="41.614691" lon="1.144479">
        <ele>423.841</ele>
        <time>2021-06-20T21:51:16Z</time>
      </trkpt>
      <trkpt lat="41.614640" lon="1.144483">
        <ele>423.841</ele>
        <time>2021-06-20T21:51:17Z</time>
      </trkpt>
      <trkpt lat="41.614492" lon="1.144500">
        <ele>423.839</ele>
        <time>2021-06-20T21:51:20Z</time>
      </trkpt>
      <trkpt lat="41.614407" lon="1.144468">
        <ele>423.872</ele>
        <time>2021-06-20T21:51:22Z</time>
      </trkpt>
      <trkpt lat="41.614285" lon="1.144326">
        <ele>424.213</ele>
        <time>2021-06-20T21:51:26Z</time>
      </trkpt>
      <trkpt lat="41.614149" lon="1.144292">
        <ele>425.014</ele>
        <time>2021-06-20T21:51:29Z</time>
      </trkpt>
      <trkpt lat="41.614057" lon="1.144274">
        <ele>425.808</ele>
        <time>2021-06-20T21:51:31Z</time>
      </trkpt>
      <trkpt lat="41.613635" lon="1.144147">
        <ele>426.694</ele>
        <time>2021-06-20T21:51:40Z</time>
      </trkpt>
      <trkpt lat="41.613170" lon="1.144034">
        <ele>427.073</ele>
        <time>2021-06-20T21:51:50Z</time>
      </trkpt>
      <trkpt lat="41.613124" lon="1.144023">
        <ele>427.020</ele>
        <time>2021-06-20T21:51:51Z</time>
      </trkpt>
      <trkpt lat="41.612905" lon="1.143920">
        <ele>427.482</ele>
        <time>2021-06-20T21:51:57Z</time>
      </trkpt>
      <trkpt lat="41.612824" lon="1.143852">
        <ele>428.046</ele>
        <time>2021-06-20T21:52:00Z</time>
      </trkpt>
      <trkpt lat="41.612734" lon="1.143780">
        <ele>429.257</ele>
        <time>2021-06-20T21:52:04Z</time>
      </trkpt>
      <trkpt lat="41.612674" lon="1.143717">
        <ele>430.487</ele>
        <time>2021-06-20T21:52:07Z</time>
      </trkpt>
      <trkpt lat="41.612595" lon="1.143636">
        <ele>431.455</ele>
        <time>2021-06-20T21:52:11Z</time>
      </trkpt>
      <trkpt lat="41.612572" lon="1.143620">
        <ele>431.631</ele>
        <time>2021-06-20T21:52:12Z</time>
      </trkpt>
      <trkpt lat="41.612508" lon="1.143565">
        <ele>432.461</ele>
        <time>2021-06-20T21:52:15Z</time>
      </trkpt>
      <trkpt lat="41.612438" lon="1.143450">
        <ele>433.207</ele>
        <time>2021-06-20T21:52:20Z</time>
      </trkpt>
      <trkpt lat="41.612431" lon="1.143402">
        <ele>433.608</ele>
        <time>2021-06-20T21:52:22Z</time>
      </trkpt>
      <trkpt lat="41.612426" lon="1.143317">
        <ele>434.650</ele>
        <time>2021-06-20T21:52:26Z</time>
      </trkpt>
      <trkpt lat="41.612427" lon="1.143295">
        <ele>435.019</ele>
        <time>2021-06-20T21:52:27Z</time>
      </trkpt>
      <trkpt lat="41.612428" lon="1.143227">
        <ele>435.866</ele>
        <time>2021-06-20T21:52:30Z</time>
      </trkpt>
      <trkpt lat="41.612425" lon="1.143160">
        <ele>436.878</ele>
        <time>2021-06-20T21:52:33Z</time>
      </trkpt>
      <trkpt lat="41.612409" lon="1.143102">
        <ele>437.622</ele>
        <time>2021-06-20T21:52:36Z</time>
      </trkpt>
      <trkpt lat="41.612397" lon="1.143087">
        <ele>437.873</ele>
        <time>2021-06-20T21:52:37Z</time>
      </trkpt>
      <trkpt lat="41.612382" lon="1.143079">
        <ele>438.253</ele>
        <time>2021-06-20T21:52:38Z</time>
      </trkpt>
      <trkpt lat="41.612332" lon="1.143081">
        <ele>438.811</ele>
        <time>2021-06-20T21:52:41Z</time>
      </trkpt>
      <trkpt lat="41.612305" lon="1.143103">
        <ele>439.267</ele>
        <time>2021-06-20T21:52:43Z</time>
      </trkpt>
      <trkpt lat="41.612251" lon="1.143151">
        <ele>439.881</ele>
        <time>2021-06-20T21:52:47Z</time>
      </trkpt>
      <trkpt lat="41.612222" lon="1.143167">
        <ele>440.219</ele>
        <time>2021-06-20T21:52:49Z</time>
      </trkpt>
      <trkpt lat="41.612161" lon="1.143189">
        <ele>441.408</ele>
        <time>2021-06-20T21:52:53Z</time>
      </trkpt>
      <trkpt lat="41.612146" lon="1.143195">
        <ele>441.813</ele>
        <time>2021-06-20T21:52:54Z</time>
      </trkpt>
      <trkpt lat="41.612100" lon="1.143207">
        <ele>442.692</ele>
        <time>2021-06-20T21:52:57Z</time>
      </trkpt>
      <trkpt lat="41.612047" lon="1.143259">
        <ele>443.669</ele>
        <time>2021-06-20T21:53:01Z</time>
      </trkpt>
      <trkpt lat="41.611949" lon="1.143374">
        <ele>445.081</ele>
        <time>2021-06-20T21:53:09Z</time>
      </trkpt>
      <trkpt lat="41.611924" lon="1.143404">
        <ele>445.425</ele>
        <time>2021-06-20T21:53:11Z</time>
      </trkpt>
      <trkpt lat="41.611875" lon="1.143458">
        <ele>446.016</ele>
        <time>2021-06-20T21:53:15Z</time>
      </trkpt>
      <trkpt lat="41.611822" lon="1.143543">
        <ele>446.826</ele>
        <time>2021-06-20T21:53:20Z</time>
      </trkpt>
      <trkpt lat="41.611812" lon="1.143561">
        <ele>447.044</ele>
        <time>2021-06-20T21:53:21Z</time>
      </trkpt>
      <trkpt lat="41.611757" lon="1.143632">
        <ele>447.846</ele>
        <time>2021-06-20T21:53:26Z</time>
      </trkpt>
      <trkpt lat="41.611744" lon="1.143630">
        <ele>448.088</ele>
        <time>2021-06-20T21:53:27Z</time>
      </trkpt>
      <trkpt lat="41.611736" lon="1.143615">
        <ele>448.016</ele>
        <time>2021-06-20T21:53:28Z</time>
      </trkpt>
      <trkpt lat="41.611736" lon="1.143595">
        <ele>448.208</ele>
        <time>2021-06-20T21:53:29Z</time>
      </trkpt>
      <trkpt lat="41.611770" lon="1.143530">
        <ele>448.411</ele>
        <time>2021-06-20T21:53:32Z</time>
      </trkpt>
      <trkpt lat="41.611797" lon="1.143486">
        <ele>448.680</ele>
        <time>2021-06-20T21:53:34Z</time>
      </trkpt>
      <trkpt lat="41.611910" lon="1.143273">
        <ele>449.037</ele>
        <time>2021-06-20T21:53:41Z</time>
      </trkpt>
      <trkpt lat="41.612087" lon="1.142956">
        <ele>449.039</ele>
        <time>2021-06-20T21:53:50Z</time>
      </trkpt>
      <trkpt lat="41.612128" lon="1.142735">
        <ele>449.083</ele>
        <time>2021-06-20T21:53:56Z</time>
      </trkpt>
      <trkpt lat="41.612114" lon="1.142707">
        <ele>449.014</ele>
        <time>2021-06-20T21:53:57Z</time>
      </trkpt>
      <trkpt lat="41.612068" lon="1.142671">
        <ele>449.064</ele>
        <time>2021-06-20T21:54:00Z</time>
      </trkpt>
      <trkpt lat="41.612022" lon="1.142640">
        <ele>449.092</ele>
        <time>2021-06-20T21:54:03Z</time>
      </trkpt>
      <trkpt lat="41.611973" lon="1.142618">
        <ele>449.489</ele>
        <time>2021-06-20T21:54:06Z</time>
      </trkpt>
      <trkpt lat="41.611922" lon="1.142622">
        <ele>450.206</ele>
        <time>2021-06-20T21:54:10Z</time>
      </trkpt>
      <trkpt lat="41.611897" lon="1.142636">
        <ele>450.426</ele>
        <time>2021-06-20T21:54:12Z</time>
      </trkpt>
      <trkpt lat="41.611895" lon="1.142643">
        <ele>450.808</ele>
        <time>2021-06-20T21:54:14Z</time>
      </trkpt>
      <trkpt lat="41.611839" lon="1.142706">
        <ele>452.825</ele>
        <time>2021-06-20T21:54:31Z</time>
      </trkpt>
      <trkpt lat="41.611832" lon="1.142727">
        <ele>452.874</ele>
        <time>2021-06-20T21:54:32Z</time>
      </trkpt>
      <trkpt lat="41.611778" lon="1.142866">
        <ele>453.021</ele>
        <time>2021-06-20T21:54:38Z</time>
      </trkpt>
      <trkpt lat="41.611696" lon="1.142983">
        <ele>453.653</ele>
        <time>2021-06-20T21:54:44Z</time>
      </trkpt>
      <trkpt lat="41.611671" lon="1.143026">
        <ele>453.827</ele>
        <time>2021-06-20T21:54:46Z</time>
      </trkpt>
      <trkpt lat="41.611604" lon="1.143104">
        <ele>454.498</ele>
        <time>2021-06-20T21:54:50Z</time>
      </trkpt>
      <trkpt lat="41.611551" lon="1.143233">
        <ele>454.858</ele>
        <time>2021-06-20T21:54:55Z</time>
      </trkpt>
      <trkpt lat="41.611543" lon="1.143248">
        <ele>454.856</ele>
        <time>2021-06-20T21:54:56Z</time>
      </trkpt>
      <trkpt lat="41.611488" lon="1.143281">
        <ele>455.264</ele>
        <time>2021-06-20T21:54:59Z</time>
      </trkpt>
      <trkpt lat="41.611456" lon="1.143278">
        <ele>455.406</ele>
        <time>2021-06-20T21:55:01Z</time>
      </trkpt>
      <trkpt lat="41.611396" lon="1.143246">
        <ele>455.816</ele>
        <time>2021-06-20T21:55:05Z</time>
      </trkpt>
      <trkpt lat="41.611379" lon="1.143240">
        <ele>456.008</ele>
        <time>2021-06-20T21:55:06Z</time>
      </trkpt>
      <trkpt lat="41.611273" lon="1.143245">
        <ele>456.843</ele>
        <time>2021-06-20T21:55:12Z</time>
      </trkpt>
      <trkpt lat="41.611265" lon="1.143246">
        <ele>457.052</ele>
        <time>2021-06-20T21:55:13Z</time>
      </trkpt>
      <trkpt lat="41.611223" lon="1.143290">
        <ele>458.019</ele>
        <time>2021-06-20T21:55:17Z</time>
      </trkpt>
      <trkpt lat="41.611218" lon="1.143297">
        <ele>458.291</ele>
        <time>2021-06-20T21:55:18Z</time>
      </trkpt>
      <trkpt lat="41.611171" lon="1.143326">
        <ele>458.665</ele>
        <time>2021-06-20T21:55:22Z</time>
      </trkpt>
      <trkpt lat="41.611029" lon="1.143354">
        <ele>459.216</ele>
        <time>2021-06-20T21:55:37Z</time>
      </trkpt>
      <trkpt lat="41.610879" lon="1.143513">
        <ele>459.296</ele>
        <time>2021-06-20T21:55:46Z</time>
      </trkpt>
      <trkpt lat="41.610726" lon="1.143710">
        <ele>458.814</ele>
        <time>2021-06-20T21:55:54Z</time>
      </trkpt>
      <trkpt lat="41.610696" lon="1.143747">
        <ele>458.656</ele>
        <time>2021-06-20T21:55:55Z</time>
      </trkpt>
      <trkpt lat="41.610619" lon="1.143813">
        <ele>458.659</ele>
        <time>2021-06-20T21:55:57Z</time>
      </trkpt>
      <trkpt lat="41.610583" lon="1.143840">
        <ele>458.614</ele>
        <time>2021-06-20T21:55:58Z</time>
      </trkpt>
      <trkpt lat="41.610567" lon="1.143874">
        <ele>458.608</ele>
        <time>2021-06-20T21:56:00Z</time>
      </trkpt>
      <trkpt lat="41.610524" lon="1.143909">
        <ele>457.822</ele>
        <time>2021-06-20T21:56:04Z</time>
      </trkpt>
      <trkpt lat="41.610456" lon="1.143803">
        <ele>457.681</ele>
        <time>2021-06-20T21:56:08Z</time>
      </trkpt>
      <trkpt lat="41.610449" lon="1.143757">
        <ele>457.438</ele>
        <time>2021-06-20T21:56:09Z</time>
      </trkpt>
      <trkpt lat="41.610414" lon="1.143690">
        <ele>457.230</ele>
        <time>2021-06-20T21:56:11Z</time>
      </trkpt>
      <trkpt lat="41.610327" lon="1.143499">
        <ele>456.434</ele>
        <time>2021-06-20T21:56:17Z</time>
      </trkpt>
      <trkpt lat="41.610311" lon="1.143344">
        <ele>456.225</ele>
        <time>2021-06-20T21:56:21Z</time>
      </trkpt>
      <trkpt lat="41.610290" lon="1.143317">
        <ele>456.235</ele>
        <time>2021-06-20T21:56:22Z</time>
      </trkpt>
      <trkpt lat="41.610177" lon="1.143332">
        <ele>456.083</ele>
        <time>2021-06-20T21:56:26Z</time>
      </trkpt>
      <trkpt lat="41.610113" lon="1.143357">
        <ele>456.062</ele>
        <time>2021-06-20T21:56:28Z</time>
      </trkpt>
      <trkpt lat="41.610012" lon="1.143351">
        <ele>456.083</ele>
        <time>2021-06-20T21:56:31Z</time>
      </trkpt>
      <trkpt lat="41.609972" lon="1.143338">
        <ele>455.811</ele>
        <time>2021-06-20T21:56:32Z</time>
      </trkpt>
      <trkpt lat="41.609889" lon="1.143315">
        <ele>455.808</ele>
        <time>2021-06-20T21:56:34Z</time>
      </trkpt>
      <trkpt lat="41.609805" lon="1.143296">
        <ele>455.633</ele>
        <time>2021-06-20T21:56:36Z</time>
      </trkpt>
      <trkpt lat="41.609591" lon="1.143253">
        <ele>455.022</ele>
        <time>2021-06-20T21:56:41Z</time>
      </trkpt>
      <trkpt lat="41.609551" lon="1.143241">
        <ele>454.839</ele>
        <time>2021-06-20T21:56:42Z</time>
      </trkpt>
      <trkpt lat="41.609464" lon="1.143219">
        <ele>454.821</ele>
        <time>2021-06-20T21:56:44Z</time>
      </trkpt>
      <trkpt lat="41.609162" lon="1.143150">
        <ele>454.855</ele>
        <time>2021-06-20T21:56:51Z</time>
      </trkpt>
      <trkpt lat="41.609010" lon="1.143113">
        <ele>454.866</ele>
        <time>2021-06-20T21:56:56Z</time>
      </trkpt>
      <trkpt lat="41.608834" lon="1.143113">
        <ele>455.456</ele>
        <time>2021-06-20T21:57:01Z</time>
      </trkpt>
      <trkpt lat="41.608623" lon="1.143091">
        <ele>455.864</ele>
        <time>2021-06-20T21:57:06Z</time>
      </trkpt>
      <trkpt lat="41.608578" lon="1.143085">
        <ele>455.829</ele>
        <time>2021-06-20T21:57:07Z</time>
      </trkpt>
      <trkpt lat="41.608231" lon="1.142992">
        <ele>456.000</ele>
        <time>2021-06-20T21:57:15Z</time>
      </trkpt>
      <trkpt lat="41.607765" lon="1.142817">
        <ele>456.420</ele>
        <time>2021-06-20T21:57:25Z</time>
      </trkpt>
      <trkpt lat="41.607346" lon="1.142635">
        <ele>456.008</ele>
        <time>2021-06-20T21:57:33Z</time>
      </trkpt>
      <trkpt lat="41.607214" lon="1.142557">
        <ele>455.899</ele>
        <time>2021-06-20T21:57:36Z</time>
      </trkpt>
      <trkpt lat="41.607149" lon="1.142478">
        <ele>455.268</ele>
        <time>2021-06-20T21:57:38Z</time>
      </trkpt>
      <trkpt lat="41.607084" lon="1.142407">
        <ele>454.625</ele>
        <time>2021-06-20T21:57:40Z</time>
      </trkpt>
      <trkpt lat="41.606989" lon="1.142365">
        <ele>454.237</ele>
        <time>2021-06-20T21:57:42Z</time>
      </trkpt>
      <trkpt lat="41.606931" lon="1.142349">
        <ele>454.031</ele>
        <time>2021-06-20T21:57:43Z</time>
      </trkpt>
      <trkpt lat="41.606667" lon="1.142269">
        <ele>453.852</ele>
        <time>2021-06-20T21:57:47Z</time>
      </trkpt>
      <trkpt lat="41.606523" lon="1.142221">
        <ele>453.052</ele>
        <time>2021-06-20T21:57:49Z</time>
      </trkpt>
      <trkpt lat="41.606382" lon="1.142174">
        <ele>451.670</ele>
        <time>2021-06-20T21:57:51Z</time>
      </trkpt>
      <trkpt lat="41.606317" lon="1.142145">
        <ele>450.875</ele>
        <time>2021-06-20T21:57:52Z</time>
      </trkpt>
      <trkpt lat="41.606254" lon="1.142110">
        <ele>450.028</ele>
        <time>2021-06-20T21:57:53Z</time>
      </trkpt>
      <trkpt lat="41.606193" lon="1.142072">
        <ele>449.020</ele>
        <time>2021-06-20T21:57:54Z</time>
      </trkpt>
      <trkpt lat="41.606131" lon="1.142036">
        <ele>448.208</ele>
        <time>2021-06-20T21:57:55Z</time>
      </trkpt>
      <trkpt lat="41.605775" lon="1.141813">
        <ele>447.224</ele>
        <time>2021-06-20T21:58:01Z</time>
      </trkpt>
      <trkpt lat="41.605718" lon="1.141782">
        <ele>447.073</ele>
        <time>2021-06-20T21:58:02Z</time>
      </trkpt>
      <trkpt lat="41.605325" lon="1.141568">
        <ele>447.280</ele>
        <time>2021-06-20T21:58:09Z</time>
      </trkpt>
      <trkpt lat="41.605016" lon="1.141298">
        <ele>447.432</ele>
        <time>2021-06-20T21:58:15Z</time>
      </trkpt>
      <trkpt lat="41.604833" lon="1.141065">
        <ele>447.486</ele>
        <time>2021-06-20T21:58:19Z</time>
      </trkpt>
      <trkpt lat="41.604755" lon="1.140920">
        <ele>447.487</ele>
        <time>2021-06-20T21:58:21Z</time>
      </trkpt>
      <trkpt lat="41.604497" lon="1.140486">
        <ele>445.647</ele>
        <time>2021-06-20T21:58:27Z</time>
      </trkpt>
      <trkpt lat="41.604332" lon="1.140279">
        <ele>444.255</ele>
        <time>2021-06-20T21:58:30Z</time>
      </trkpt>
      <trkpt lat="41.604199" lon="1.140157">
        <ele>443.416</ele>
        <time>2021-06-20T21:58:32Z</time>
      </trkpt>
      <trkpt lat="41.604126" lon="1.140100">
        <ele>442.876</ele>
        <time>2021-06-20T21:58:33Z</time>
      </trkpt>
      <trkpt lat="41.604052" lon="1.140042">
        <ele>441.013</ele>
        <time>2021-06-20T21:58:34Z</time>
      </trkpt>
      <trkpt lat="41.603905" lon="1.139931">
        <ele>439.208</ele>
        <time>2021-06-20T21:58:36Z</time>
      </trkpt>
      <trkpt lat="41.603836" lon="1.139875">
        <ele>438.218</ele>
        <time>2021-06-20T21:58:37Z</time>
      </trkpt>
      <trkpt lat="41.603771" lon="1.139825">
        <ele>437.067</ele>
        <time>2021-06-20T21:58:38Z</time>
      </trkpt>
      <trkpt lat="41.603647" lon="1.139725">
        <ele>435.294</ele>
        <time>2021-06-20T21:58:40Z</time>
      </trkpt>
      <trkpt lat="41.603465" lon="1.139579">
        <ele>434.026</ele>
        <time>2021-06-20T21:58:43Z</time>
      </trkpt>
      <trkpt lat="41.603294" lon="1.139430">
        <ele>433.870</ele>
        <time>2021-06-20T21:58:46Z</time>
      </trkpt>
      <trkpt lat="41.603016" lon="1.139186">
        <ele>433.891</ele>
        <time>2021-06-20T21:58:52Z</time>
      </trkpt>
      <trkpt lat="41.602871" lon="1.139050">
        <ele>435.451</ele>
        <time>2021-06-20T21:58:57Z</time>
      </trkpt>
      <trkpt lat="41.602849" lon="1.139029">
        <ele>435.899</ele>
        <time>2021-06-20T21:58:58Z</time>
      </trkpt>
      <trkpt lat="41.602812" lon="1.138995">
        <ele>437.011</ele>
        <time>2021-06-20T21:59:00Z</time>
      </trkpt>
      <trkpt lat="41.602779" lon="1.138966">
        <ele>438.021</ele>
        <time>2021-06-20T21:59:02Z</time>
      </trkpt>
      <trkpt lat="41.602731" lon="1.138924">
        <ele>439.403</ele>
        <time>2021-06-20T21:59:05Z</time>
      </trkpt>
      <trkpt lat="41.602715" lon="1.138912">
        <ele>439.808</ele>
        <time>2021-06-20T21:59:06Z</time>
      </trkpt>
      <trkpt lat="41.602684" lon="1.138888">
        <ele>440.418</ele>
        <time>2021-06-20T21:59:08Z</time>
      </trkpt>
      <trkpt lat="41.602608" lon="1.138831">
        <ele>441.687</ele>
        <time>2021-06-20T21:59:13Z</time>
      </trkpt>
      <trkpt lat="41.602591" lon="1.138820">
        <ele>441.834</ele>
        <time>2021-06-20T21:59:14Z</time>
      </trkpt>
      <trkpt lat="41.602528" lon="1.138780">
        <ele>442.626</ele>
        <time>2021-06-20T21:59:18Z</time>
      </trkpt>
      <trkpt lat="41.602463" lon="1.138734">
        <ele>443.490</ele>
        <time>2021-06-20T21:59:22Z</time>
      </trkpt>
      <trkpt lat="41.602431" lon="1.138714">
        <ele>443.641</ele>
        <time>2021-06-20T21:59:24Z</time>
      </trkpt>
      <trkpt lat="41.602331" lon="1.138649">
        <ele>444.821</ele>
        <time>2021-06-20T21:59:30Z</time>
      </trkpt>
      <trkpt lat="41.602315" lon="1.138640">
        <ele>445.019</ele>
        <time>2021-06-20T21:59:31Z</time>
      </trkpt>
      <trkpt lat="41.602215" lon="1.138586">
        <ele>446.096</ele>
        <time>2021-06-20T21:59:37Z</time>
      </trkpt>
      <trkpt lat="41.602167" lon="1.138561">
        <ele>446.631</ele>
        <time>2021-06-20T21:59:40Z</time>
      </trkpt>
      <trkpt lat="41.602120" lon="1.138526">
        <ele>447.224</ele>
        <time>2021-06-20T21:59:43Z</time>
      </trkpt>
      <trkpt lat="41.602037" lon="1.138468">
        <ele>448.008</ele>
        <time>2021-06-20T21:59:48Z</time>
      </trkpt>
      <trkpt lat="41.602007" lon="1.138441">
        <ele>448.026</ele>
        <time>2021-06-20T21:59:50Z</time>
      </trkpt>
      <trkpt lat="41.601947" lon="1.138382">
        <ele>448.685</ele>
        <time>2021-06-20T21:59:54Z</time>
      </trkpt>
      <trkpt lat="41.601903" lon="1.138324">
        <ele>449.252</ele>
        <time>2021-06-20T21:59:57Z</time>
      </trkpt>
      <trkpt lat="41.601824" lon="1.138195">
        <ele>449.844</ele>
        <time>2021-06-20T22:00:02Z</time>
      </trkpt>
      <trkpt lat="41.601763" lon="1.138063">
        <ele>450.298</ele>
        <time>2021-06-20T22:00:06Z</time>
      </trkpt>
      <trkpt lat="41.601718" lon="1.137916">
        <ele>450.439</ele>
        <time>2021-06-20T22:00:10Z</time>
      </trkpt>
      <trkpt lat="41.601664" lon="1.137568">
        <ele>450.899</ele>
        <time>2021-06-20T22:00:19Z</time>
      </trkpt>
      <trkpt lat="41.601622" lon="1.137330">
        <ele>451.477</ele>
        <time>2021-06-20T22:00:25Z</time>
      </trkpt>
      <trkpt lat="41.601582" lon="1.137181">
        <ele>451.661</ele>
        <time>2021-06-20T22:00:29Z</time>
      </trkpt>
      <trkpt lat="41.601450" lon="1.136968">
        <ele>452.021</ele>
        <time>2021-06-20T22:00:36Z</time>
      </trkpt>
      <trkpt lat="41.601364" lon="1.136855">
        <ele>452.413</ele>
        <time>2021-06-20T22:00:40Z</time>
      </trkpt>
      <trkpt lat="41.601238" lon="1.136691">
        <ele>452.608</ele>
        <time>2021-06-20T22:00:45Z</time>
      </trkpt>
      <trkpt lat="41.600954" lon="1.136378">
        <ele>452.863</ele>
        <time>2021-06-20T22:00:53Z</time>
      </trkpt>
      <trkpt lat="41.600525" lon="1.135905">
        <ele>452.012</ele>
        <time>2021-06-20T22:01:04Z</time>
      </trkpt>
      <trkpt lat="41.600445" lon="1.135812">
        <ele>452.039</ele>
        <time>2021-06-20T22:01:06Z</time>
      </trkpt>
      <trkpt lat="41.600119" lon="1.135447">
        <ele>451.811</ele>
        <time>2021-06-20T22:01:13Z</time>
      </trkpt>
      <trkpt lat="41.600024" lon="1.135343">
        <ele>451.485</ele>
        <time>2021-06-20T22:01:15Z</time>
      </trkpt>
      <trkpt lat="41.599810" lon="1.135143">
        <ele>450.246</ele>
        <time>2021-06-20T22:01:19Z</time>
      </trkpt>
      <trkpt lat="41.599754" lon="1.135090">
        <ele>450.216</ele>
        <time>2021-06-20T22:01:20Z</time>
      </trkpt>
      <trkpt lat="41.599538" lon="1.134883">
        <ele>449.044</ele>
        <time>2021-06-20T22:01:24Z</time>
      </trkpt>
      <trkpt lat="41.599388" lon="1.134756">
        <ele>448.039</ele>
        <time>2021-06-20T22:01:27Z</time>
      </trkpt>
      <trkpt lat="41.599336" lon="1.134741">
        <ele>448.001</ele>
        <time>2021-06-20T22:01:28Z</time>
      </trkpt>
      <trkpt lat="41.599236" lon="1.134751">
        <ele>447.821</ele>
        <time>2021-06-20T22:01:30Z</time>
      </trkpt>
      <trkpt lat="41.599104" lon="1.134806">
        <ele>447.808</ele>
        <time>2021-06-20T22:01:33Z</time>
      </trkpt>
      <trkpt lat="41.599019" lon="1.134847">
        <ele>447.860</ele>
        <time>2021-06-20T22:01:35Z</time>
      </trkpt>
      <trkpt lat="41.598622" lon="1.135012">
        <ele>449.069</ele>
        <time>2021-06-20T22:01:44Z</time>
      </trkpt>
      <trkpt lat="41.598255" lon="1.135154">
        <ele>450.096</ele>
        <time>2021-06-20T22:01:52Z</time>
      </trkpt>
      <trkpt lat="41.598070" lon="1.135232">
        <ele>450.228</ele>
        <time>2021-06-20T22:01:56Z</time>
      </trkpt>
      <trkpt lat="41.598026" lon="1.135259">
        <ele>450.262</ele>
        <time>2021-06-20T22:01:57Z</time>
      </trkpt>
      <trkpt lat="41.597822" lon="1.135437">
        <ele>450.443</ele>
        <time>2021-06-20T22:02:02Z</time>
      </trkpt>
      <trkpt lat="41.597657" lon="1.135580">
        <ele>450.623</ele>
        <time>2021-06-20T22:02:06Z</time>
      </trkpt>
      <trkpt lat="41.597511" lon="1.135629">
        <ele>450.621</ele>
        <time>2021-06-20T22:02:09Z</time>
      </trkpt>
      <trkpt lat="41.597302" lon="1.135549">
        <ele>450.698</ele>
        <time>2021-06-20T22:02:13Z</time>
      </trkpt>
      <trkpt lat="41.596996" lon="1.135342">
        <ele>450.615</ele>
        <time>2021-06-20T22:02:19Z</time>
      </trkpt>
      <trkpt lat="41.596937" lon="1.135324">
        <ele>450.626</ele>
        <time>2021-06-20T22:02:20Z</time>
      </trkpt>
      <trkpt lat="41.596647" lon="1.135319">
        <ele>450.008</ele>
        <time>2021-06-20T22:02:25Z</time>
      </trkpt>
      <trkpt lat="41.596294" lon="1.135417">
        <ele>449.286</ele>
        <time>2021-06-20T22:02:31Z</time>
      </trkpt>
      <trkpt lat="41.596228" lon="1.135435">
        <ele>449.215</ele>
        <time>2021-06-20T22:02:32Z</time>
      </trkpt>
      <trkpt lat="41.596087" lon="1.135427">
        <ele>449.262</ele>
        <time>2021-06-20T22:02:34Z</time>
      </trkpt>
      <trkpt lat="41.595953" lon="1.135373">
        <ele>448.854</ele>
        <time>2021-06-20T22:02:36Z</time>
      </trkpt>
      <trkpt lat="41.595892" lon="1.135340">
        <ele>448.458</ele>
        <time>2021-06-20T22:02:37Z</time>
      </trkpt>
      <trkpt lat="41.595834" lon="1.135303">
        <ele>448.099</ele>
        <time>2021-06-20T22:02:38Z</time>
      </trkpt>
      <trkpt lat="41.595778" lon="1.135267">
        <ele>447.429</ele>
        <time>2021-06-20T22:02:39Z</time>
      </trkpt>
      <trkpt lat="41.595673" lon="1.135204">
        <ele>446.257</ele>
        <time>2021-06-20T22:02:41Z</time>
      </trkpt>
      <trkpt lat="41.595518" lon="1.135118">
        <ele>445.666</ele>
        <time>2021-06-20T22:02:44Z</time>
      </trkpt>
      <trkpt lat="41.595308" lon="1.135015">
        <ele>445.429</ele>
        <time>2021-06-20T22:02:49Z</time>
      </trkpt>
      <trkpt lat="41.595088" lon="1.134886">
        <ele>447.621</ele>
        <time>2021-06-20T22:02:56Z</time>
      </trkpt>
      <trkpt lat="41.594998" lon="1.134841">
        <ele>448.608</ele>
        <time>2021-06-20T22:02:59Z</time>
      </trkpt>
      <trkpt lat="41.594887" lon="1.134768">
        <ele>449.423</ele>
        <time>2021-06-20T22:03:03Z</time>
      </trkpt>
      <trkpt lat="41.594859" lon="1.134747">
        <ele>449.622</ele>
        <time>2021-06-20T22:03:04Z</time>
      </trkpt>
      <trkpt lat="41.594705" lon="1.134648">
        <ele>450.899</ele>
        <time>2021-06-20T22:03:09Z</time>
      </trkpt>
      <trkpt lat="41.594613" lon="1.134581">
        <ele>451.471</ele>
        <time>2021-06-20T22:03:12Z</time>
      </trkpt>
      <trkpt lat="41.594521" lon="1.134516">
        <ele>451.895</ele>
        <time>2021-06-20T22:03:15Z</time>
      </trkpt>
      <trkpt lat="41.594360" lon="1.134409">
        <ele>452.486</ele>
        <time>2021-06-20T22:03:21Z</time>
      </trkpt>
      <trkpt lat="41.594307" lon="1.134378">
        <ele>453.076</ele>
        <time>2021-06-20T22:03:23Z</time>
      </trkpt>
      <trkpt lat="41.594145" lon="1.134295">
        <ele>454.074</ele>
        <time>2021-06-20T22:03:29Z</time>
      </trkpt>
      <trkpt lat="41.593977" lon="1.134206">
        <ele>455.291</ele>
        <time>2021-06-20T22:03:35Z</time>
      </trkpt>
      <trkpt lat="41.593893" lon="1.134167">
        <ele>455.481</ele>
        <time>2021-06-20T22:03:38Z</time>
      </trkpt>
      <trkpt lat="41.593775" lon="1.134115">
        <ele>456.219</ele>
        <time>2021-06-20T22:03:43Z</time>
      </trkpt>
      <trkpt lat="41.593764" lon="1.134111">
        <ele>456.408</ele>
        <time>2021-06-20T22:03:44Z</time>
      </trkpt>
      <trkpt lat="41.593762" lon="1.134111">
        <ele>456.866</ele>
        <time>2021-06-20T22:03:46Z</time>
      </trkpt>
      <trkpt lat="41.593736" lon="1.134095">
        <ele>458.095</ele>
        <time>2021-06-20T22:06:24Z</time>
      </trkpt>
      <trkpt lat="41.593715" lon="1.134085">
        <ele>458.022</ele>
        <time>2021-06-20T22:06:25Z</time>
      </trkpt>
      <trkpt lat="41.593489" lon="1.134028">
        <ele>457.884</ele>
        <time>2021-06-20T22:06:33Z</time>
      </trkpt>
      <trkpt lat="41.593161" lon="1.133984">
        <ele>457.838</ele>
        <time>2021-06-20T22:06:42Z</time>
      </trkpt>
      <trkpt lat="41.592757" lon="1.133910">
        <ele>458.439</ele>
        <time>2021-06-20T22:06:53Z</time>
      </trkpt>
      <trkpt lat="41.592425" lon="1.133859">
        <ele>459.089</ele>
        <time>2021-06-20T22:07:02Z</time>
      </trkpt>
      <trkpt lat="41.592043" lon="1.133837">
        <ele>459.617</ele>
        <time>2021-06-20T22:07:12Z</time>
      </trkpt>
      <trkpt lat="41.591758" lon="1.133818">
        <ele>460.053</ele>
        <time>2021-06-20T22:07:19Z</time>
      </trkpt>
      <trkpt lat="41.591630" lon="1.133817">
        <ele>460.204</ele>
        <time>2021-06-20T22:07:22Z</time>
      </trkpt>
      <trkpt lat="41.591169" lon="1.133836">
        <ele>461.014</ele>
        <time>2021-06-20T22:07:33Z</time>
      </trkpt>
      <trkpt lat="41.590697" lon="1.133877">
        <ele>461.608</ele>
        <time>2021-06-20T22:07:44Z</time>
      </trkpt>
      <trkpt lat="41.590521" lon="1.133889">
        <ele>462.052</ele>
        <time>2021-06-20T22:07:48Z</time>
      </trkpt>
      <trkpt lat="41.590170" lon="1.133909">
        <ele>462.411</ele>
        <time>2021-06-20T22:07:56Z</time>
      </trkpt>
      <trkpt lat="41.589814" lon="1.133880">
        <ele>463.228</ele>
        <time>2021-06-20T22:08:05Z</time>
      </trkpt>
      <trkpt lat="41.589471" lon="1.133825">
        <ele>464.260</ele>
        <time>2021-06-20T22:08:14Z</time>
      </trkpt>
      <trkpt lat="41.589392" lon="1.133810">
        <ele>464.444</ele>
        <time>2021-06-20T22:08:16Z</time>
      </trkpt>
      <trkpt lat="41.589007" lon="1.133748">
        <ele>464.825</ele>
        <time>2021-06-20T22:08:26Z</time>
      </trkpt>
      <trkpt lat="41.588679" lon="1.133729">
        <ele>464.815</ele>
        <time>2021-06-20T22:08:33Z</time>
      </trkpt>
      <trkpt lat="41.588390" lon="1.133676">
        <ele>463.283</ele>
        <time>2021-06-20T22:08:39Z</time>
      </trkpt>
      <trkpt lat="41.588287" lon="1.133688">
        <ele>462.675</ele>
        <time>2021-06-20T22:08:41Z</time>
      </trkpt>
      <trkpt lat="41.588180" lon="1.133713">
        <ele>462.028</ele>
        <time>2021-06-20T22:08:43Z</time>
      </trkpt>
      <trkpt lat="41.587950" lon="1.133801">
        <ele>460.620</ele>
        <time>2021-06-20T22:08:47Z</time>
      </trkpt>
      <trkpt lat="41.587769" lon="1.133871">
        <ele>458.608</ele>
        <time>2021-06-20T22:08:50Z</time>
      </trkpt>
      <trkpt lat="41.587595" lon="1.133959">
        <ele>457.054</ele>
        <time>2021-06-20T22:08:53Z</time>
      </trkpt>
      <trkpt lat="41.587539" lon="1.133994">
        <ele>456.633</ele>
        <time>2021-06-20T22:08:54Z</time>
      </trkpt>
      <trkpt lat="41.587483" lon="1.134030">
        <ele>456.210</ele>
        <time>2021-06-20T22:08:55Z</time>
      </trkpt>
      <trkpt lat="41.587263" lon="1.134145">
        <ele>455.012</ele>
        <time>2021-06-20T22:08:59Z</time>
      </trkpt>
      <trkpt lat="41.587161" lon="1.134193">
        <ele>454.826</ele>
        <time>2021-06-20T22:09:01Z</time>
      </trkpt>
      <trkpt lat="41.586735" lon="1.134318">
        <ele>454.687</ele>
        <time>2021-06-20T22:09:09Z</time>
      </trkpt>
      <trkpt lat="41.586474" lon="1.134393">
        <ele>454.897</ele>
        <time>2021-06-20T22:09:14Z</time>
      </trkpt>
      <trkpt lat="41.586325" lon="1.134359">
        <ele>455.015</ele>
        <time>2021-06-20T22:09:17Z</time>
      </trkpt>
      <trkpt lat="41.586227" lon="1.134222">
        <ele>455.021</ele>
        <time>2021-06-20T22:09:20Z</time>
      </trkpt>
      <trkpt lat="41.586194" lon="1.134106">
        <ele>455.241</ele>
        <time>2021-06-20T22:09:22Z</time>
      </trkpt>
      <trkpt lat="41.586124" lon="1.133826">
        <ele>456.205</ele>
        <time>2021-06-20T22:09:27Z</time>
      </trkpt>
      <trkpt lat="41.586056" lon="1.133529">
        <ele>457.208</ele>
        <time>2021-06-20T22:09:33Z</time>
      </trkpt>
      <trkpt lat="41.586032" lon="1.133446">
        <ele>457.499</ele>
        <time>2021-06-20T22:09:35Z</time>
      </trkpt>
      <trkpt lat="41.585946" lon="1.133317">
        <ele>458.428</ele>
        <time>2021-06-20T22:09:40Z</time>
      </trkpt>
      <trkpt lat="41.585846" lon="1.133316">
        <ele>459.485</ele>
        <time>2021-06-20T22:09:45Z</time>
      </trkpt>
      <trkpt lat="41.585828" lon="1.133316">
        <ele>460.027</ele>
        <time>2021-06-20T22:09:46Z</time>
      </trkpt>
      <trkpt lat="41.585786" lon="1.133322">
        <ele>460.631</ele>
        <time>2021-06-20T22:09:48Z</time>
      </trkpt>
      <trkpt lat="41.585703" lon="1.133335">
        <ele>461.812</ele>
        <time>2021-06-20T22:09:52Z</time>
      </trkpt>
      <trkpt lat="41.585643" lon="1.133348">
        <ele>462.612</ele>
        <time>2021-06-20T22:09:55Z</time>
      </trkpt>
      <trkpt lat="41.585622" lon="1.133351">
        <ele>462.870</ele>
        <time>2021-06-20T22:09:56Z</time>
      </trkpt>
      <trkpt lat="41.585503" lon="1.133359">
        <ele>463.811</ele>
        <time>2021-06-20T22:10:02Z</time>
      </trkpt>
      <trkpt lat="41.585393" lon="1.133379">
        <ele>464.821</ele>
        <time>2021-06-20T22:10:08Z</time>
      </trkpt>
      <trkpt lat="41.585380" lon="1.133384">
        <ele>465.003</ele>
        <time>2021-06-20T22:10:09Z</time>
      </trkpt>
      <trkpt lat="41.585368" lon="1.133383">
        <ele>465.208</ele>
        <time>2021-06-20T22:10:10Z</time>
      </trkpt>
      <trkpt lat="41.585318" lon="1.133394">
        <ele>466.058</ele>
        <time>2021-06-20T22:10:14Z</time>
      </trkpt>
      <trkpt lat="41.585253" lon="1.133426">
        <ele>466.867</ele>
        <time>2021-06-20T22:10:19Z</time>
      </trkpt>
      <trkpt lat="41.585237" lon="1.133433">
        <ele>467.084</ele>
        <time>2021-06-20T22:10:20Z</time>
      </trkpt>
      <trkpt lat="41.585220" lon="1.133440">
        <ele>467.096</ele>
        <time>2021-06-20T22:10:21Z</time>
      </trkpt>
      <trkpt lat="41.585095" lon="1.133506">
        <ele>468.070</ele>
        <time>2021-06-20T22:10:28Z</time>
      </trkpt>
      <trkpt lat="41.584903" lon="1.133627">
        <ele>469.071</ele>
        <time>2021-06-20T22:10:38Z</time>
      </trkpt>
      <trkpt lat="41.584886" lon="1.133641">
        <ele>469.271</ele>
        <time>2021-06-20T22:10:39Z</time>
      </trkpt>
      <trkpt lat="41.584752" lon="1.133722">
        <ele>469.819</ele>
        <time>2021-06-20T22:10:46Z</time>
      </trkpt>
      <trkpt lat="41.584712" lon="1.133746">
        <ele>470.296</ele>
        <time>2021-06-20T22:10:48Z</time>
      </trkpt>
      <trkpt lat="41.584548" lon="1.133877">
        <ele>471.031</ele>
        <time>2021-06-20T22:10:56Z</time>
      </trkpt>
      <trkpt lat="41.584462" lon="1.133938">
        <ele>471.224</ele>
        <time>2021-06-20T22:11:00Z</time>
      </trkpt>
      <trkpt lat="41.584352" lon="1.133996">
        <ele>472.008</ele>
        <time>2021-06-20T22:11:05Z</time>
      </trkpt>
      <trkpt lat="41.584285" lon="1.134028">
        <ele>472.286</ele>
        <time>2021-06-20T22:11:08Z</time>
      </trkpt>
      <trkpt lat="41.584081" lon="1.134113">
        <ele>473.285</ele>
        <time>2021-06-20T22:11:16Z</time>
      </trkpt>
      <trkpt lat="41.583997" lon="1.134152">
        <ele>473.482</ele>
        <time>2021-06-20T22:11:19Z</time>
      </trkpt>
      <trkpt lat="41.583772" lon="1.134252">
        <ele>473.694</ele>
        <time>2021-06-20T22:11:27Z</time>
      </trkpt>
      <trkpt lat="41.583571" lon="1.134411">
        <ele>474.298</ele>
        <time>2021-06-20T22:11:35Z</time>
      </trkpt>
      <trkpt lat="41.583549" lon="1.134435">
        <ele>474.439</ele>
        <time>2021-06-20T22:11:36Z</time>
      </trkpt>
      <trkpt lat="41.583379" lon="1.134640">
        <ele>475.019</ele>
        <time>2021-06-20T22:11:44Z</time>
      </trkpt>
      <trkpt lat="41.583251" lon="1.134734">
        <ele>475.427</ele>
        <time>2021-06-20T22:11:49Z</time>
      </trkpt>
      <trkpt lat="41.583092" lon="1.134828">
        <ele>475.877</ele>
        <time>2021-06-20T22:11:55Z</time>
      </trkpt>
      <trkpt lat="41.582931" lon="1.134918">
        <ele>476.461</ele>
        <time>2021-06-20T22:12:01Z</time>
      </trkpt>
      <trkpt lat="41.582849" lon="1.134955">
        <ele>477.027</ele>
        <time>2021-06-20T22:12:04Z</time>
      </trkpt>
      <trkpt lat="41.582764" lon="1.134983">
        <ele>477.608</ele>
        <time>2021-06-20T22:12:07Z</time>
      </trkpt>
      <trkpt lat="41.582564" lon="1.135017">
        <ele>478.634</ele>
        <time>2021-06-20T22:12:14Z</time>
      </trkpt>
      <trkpt lat="41.582506" lon="1.135023">
        <ele>479.053</ele>
        <time>2021-06-20T22:12:16Z</time>
      </trkpt>
      <trkpt lat="41.582389" lon="1.135039">
        <ele>479.680</ele>
        <time>2021-06-20T22:12:20Z</time>
      </trkpt>
      <trkpt lat="41.582245" lon="1.135066">
        <ele>480.262</ele>
        <time>2021-06-20T22:12:25Z</time>
      </trkpt>
      <trkpt lat="41.582134" lon="1.135094">
        <ele>480.696</ele>
        <time>2021-06-20T22:12:29Z</time>
      </trkpt>
      <trkpt lat="41.581956" lon="1.135136">
        <ele>481.877</ele>
        <time>2021-06-20T22:12:36Z</time>
      </trkpt>
      <trkpt lat="41.581800" lon="1.135187">
        <ele>482.857</ele>
        <time>2021-06-20T22:12:43Z</time>
      </trkpt>
      <trkpt lat="41.581714" lon="1.135212">
        <ele>483.675</ele>
        <time>2021-06-20T22:12:47Z</time>
      </trkpt>
      <trkpt lat="41.581672" lon="1.135225">
        <ele>484.036</ele>
        <time>2021-06-20T22:12:49Z</time>
      </trkpt>
      <trkpt lat="41.581545" lon="1.135273">
        <ele>485.017</ele>
        <time>2021-06-20T22:12:55Z</time>
      </trkpt>
      <trkpt lat="41.581498" lon="1.135287">
        <ele>485.618</ele>
        <time>2021-06-20T22:12:57Z</time>
      </trkpt>
      <trkpt lat="41.581381" lon="1.135331">
        <ele>486.008</ele>
        <time>2021-06-20T22:13:02Z</time>
      </trkpt>
      <trkpt lat="41.581247" lon="1.135378">
        <ele>486.690</ele>
        <time>2021-06-20T22:13:07Z</time>
      </trkpt>
      <trkpt lat="41.581045" lon="1.135452">
        <ele>487.299</ele>
        <time>2021-06-20T22:13:15Z</time>
      </trkpt>
      <trkpt lat="41.580994" lon="1.135474">
        <ele>487.476</ele>
        <time>2021-06-20T22:13:17Z</time>
      </trkpt>
      <trkpt lat="41.580685" lon="1.135610">
        <ele>488.298</ele>
        <time>2021-06-20T22:13:28Z</time>
      </trkpt>
      <trkpt lat="41.580625" lon="1.135635">
        <ele>488.262</ele>
        <time>2021-06-20T22:13:30Z</time>
      </trkpt>
      <trkpt lat="41.580391" lon="1.135753">
        <ele>488.693</ele>
        <time>2021-06-20T22:13:38Z</time>
      </trkpt>
      <trkpt lat="41.580149" lon="1.135850">
        <ele>489.053</ele>
        <time>2021-06-20T22:13:46Z</time>
      </trkpt>
      <trkpt lat="41.580044" lon="1.135860">
        <ele>489.481</ele>
        <time>2021-06-20T22:13:49Z</time>
      </trkpt>
      <trkpt lat="41.579861" lon="1.135851">
        <ele>489.825</ele>
        <time>2021-06-20T22:13:54Z</time>
      </trkpt>
      <trkpt lat="41.579570" lon="1.135855">
        <ele>490.426</ele>
        <time>2021-06-20T22:14:02Z</time>
      </trkpt>
      <trkpt lat="41.579502" lon="1.135861">
        <ele>490.608</ele>
        <time>2021-06-20T22:14:04Z</time>
      </trkpt>
      <trkpt lat="41.579301" lon="1.135911">
        <ele>491.408</ele>
        <time>2021-06-20T22:14:10Z</time>
      </trkpt>
      <trkpt lat="41.579186" lon="1.135947">
        <ele>491.899</ele>
        <time>2021-06-20T22:14:13Z</time>
      </trkpt>
      <trkpt lat="41.578805" lon="1.136053">
        <ele>492.018</ele>
        <time>2021-06-20T22:14:21Z</time>
      </trkpt>
      <trkpt lat="41.578253" lon="1.136181">
        <ele>491.215</ele>
        <time>2021-06-20T22:14:32Z</time>
      </trkpt>
      <trkpt lat="41.578200" lon="1.136190">
        <ele>491.257</ele>
        <time>2021-06-20T22:14:33Z</time>
      </trkpt>
      <trkpt lat="41.577723" lon="1.136198">
        <ele>491.211</ele>
        <time>2021-06-20T22:14:42Z</time>
      </trkpt>
      <trkpt lat="41.577219" lon="1.136148">
        <ele>491.692</ele>
        <time>2021-06-20T22:14:52Z</time>
      </trkpt>
      <trkpt lat="41.576868" lon="1.136165">
        <ele>492.452</ele>
        <time>2021-06-20T22:15:00Z</time>
      </trkpt>
      <trkpt lat="41.576525" lon="1.136169">
        <ele>493.610</ele>
        <time>2021-06-20T22:15:09Z</time>
      </trkpt>
      <trkpt lat="41.576273" lon="1.136117">
        <ele>494.667</ele>
        <time>2021-06-20T22:15:16Z</time>
      </trkpt>
      <trkpt lat="41.576240" lon="1.136105">
        <ele>494.881</ele>
        <time>2021-06-20T22:15:17Z</time>
      </trkpt>
      <trkpt lat="41.576099" lon="1.136022">
        <ele>495.419</ele>
        <time>2021-06-20T22:15:22Z</time>
      </trkpt>
      <trkpt lat="41.575961" lon="1.135979">
        <ele>496.408</ele>
        <time>2021-06-20T22:15:27Z</time>
      </trkpt>
      <trkpt lat="41.575819" lon="1.135935">
        <ele>497.413</ele>
        <time>2021-06-20T22:15:32Z</time>
      </trkpt>
      <trkpt lat="41.575614" lon="1.135881">
        <ele>498.672</ele>
        <time>2021-06-20T22:15:39Z</time>
      </trkpt>
      <trkpt lat="41.575516" lon="1.135849">
        <ele>499.029</ele>
        <time>2021-06-20T22:15:42Z</time>
      </trkpt>
      <trkpt lat="41.575116" lon="1.135729">
        <ele>499.611</ele>
        <time>2021-06-20T22:15:53Z</time>
      </trkpt>
      <trkpt lat="41.574915" lon="1.135732">
        <ele>499.665</ele>
        <time>2021-06-20T22:15:58Z</time>
      </trkpt>
      <trkpt lat="41.574803" lon="1.135731">
        <ele>499.666</ele>
        <time>2021-06-20T22:16:00Z</time>
      </trkpt>
      <trkpt lat="41.574617" lon="1.135698">
        <ele>499.236</ele>
        <time>2021-06-20T22:16:03Z</time>
      </trkpt>
      <trkpt lat="41.574376" lon="1.135657">
        <ele>497.294</ele>
        <time>2021-06-20T22:16:07Z</time>
      </trkpt>
      <trkpt lat="41.574267" lon="1.135632">
        <ele>496.085</ele>
        <time>2021-06-20T22:16:09Z</time>
      </trkpt>
      <trkpt lat="41.574216" lon="1.135615">
        <ele>495.689</ele>
        <time>2021-06-20T22:16:10Z</time>
      </trkpt>
      <trkpt lat="41.573839" lon="1.135440">
        <ele>495.017</ele>
        <time>2021-06-20T22:16:18Z</time>
      </trkpt>
      <trkpt lat="41.573616" lon="1.135365">
        <ele>495.608</ele>
        <time>2021-06-20T22:16:24Z</time>
      </trkpt>
      <trkpt lat="41.573476" lon="1.135334">
        <ele>497.055</ele>
        <time>2021-06-20T22:16:30Z</time>
      </trkpt>
      <trkpt lat="41.573406" lon="1.135314">
        <ele>498.424</ele>
        <time>2021-06-20T22:16:34Z</time>
      </trkpt>
      <trkpt lat="41.573338" lon="1.135291">
        <ele>499.471</ele>
        <time>2021-06-20T22:16:38Z</time>
      </trkpt>
      <trkpt lat="41.573321" lon="1.135287">
        <ele>500.043</ele>
        <time>2021-06-20T22:16:39Z</time>
      </trkpt>
      <trkpt lat="41.573289" lon="1.135278">
        <ele>500.867</ele>
        <time>2021-06-20T22:16:41Z</time>
      </trkpt>
      <trkpt lat="41.573211" lon="1.135250">
        <ele>502.068</ele>
        <time>2021-06-20T22:16:46Z</time>
      </trkpt>
      <trkpt lat="41.573195" lon="1.135245">
        <ele>502.438</ele>
        <time>2021-06-20T22:16:47Z</time>
      </trkpt>
      <trkpt lat="41.573149" lon="1.135234">
        <ele>503.266</ele>
        <time>2021-06-20T22:16:50Z</time>
      </trkpt>
      <trkpt lat="41.573103" lon="1.135226">
        <ele>504.072</ele>
        <time>2021-06-20T22:16:53Z</time>
      </trkpt>
      <trkpt lat="41.573090" lon="1.135232">
        <ele>504.213</ele>
        <time>2021-06-20T22:16:54Z</time>
      </trkpt>
      <trkpt lat="41.573023" lon="1.135230">
        <ele>505.214</ele>
        <time>2021-06-20T22:16:58Z</time>
      </trkpt>
      <trkpt lat="41.573005" lon="1.135232">
        <ele>505.408</ele>
        <time>2021-06-20T22:16:59Z</time>
      </trkpt>
      <trkpt lat="41.572928" lon="1.135234">
        <ele>506.424</ele>
        <time>2021-06-20T22:17:04Z</time>
      </trkpt>
      <trkpt lat="41.572888" lon="1.135232">
        <ele>506.693</ele>
        <time>2021-06-20T22:17:06Z</time>
      </trkpt>
      <trkpt lat="41.572763" lon="1.135235">
        <ele>507.440</ele>
        <time>2021-06-20T22:17:11Z</time>
      </trkpt>
      <trkpt lat="41.572705" lon="1.135230">
        <ele>507.492</ele>
        <time>2021-06-20T22:17:13Z</time>
      </trkpt>
      <trkpt lat="41.572484" lon="1.135203">
        <ele>507.666</ele>
        <time>2021-06-20T22:17:20Z</time>
      </trkpt>
      <trkpt lat="41.572177" lon="1.135149">
        <ele>507.637</ele>
        <time>2021-06-20T22:17:28Z</time>
      </trkpt>
      <trkpt lat="41.571663" lon="1.135073">
        <ele>507.457</ele>
        <time>2021-06-20T22:17:40Z</time>
      </trkpt>
      <trkpt lat="41.571272" lon="1.135038">
        <ele>507.265</ele>
        <time>2021-06-20T22:17:48Z</time>
      </trkpt>
      <trkpt lat="41.571222" lon="1.135029">
        <ele>507.034</ele>
        <time>2021-06-20T22:17:49Z</time>
      </trkpt>
      <trkpt lat="41.571028" lon="1.135013">
        <ele>506.655</ele>
        <time>2021-06-20T22:17:53Z</time>
      </trkpt>
      <trkpt lat="41.570832" lon="1.134946">
        <ele>506.610</ele>
        <time>2021-06-20T22:17:58Z</time>
      </trkpt>
      <trkpt lat="41.570665" lon="1.134861">
        <ele>507.808</ele>
        <time>2021-06-20T22:18:05Z</time>
      </trkpt>
      <trkpt lat="41.570597" lon="1.134846">
        <ele>508.870</ele>
        <time>2021-06-20T22:18:08Z</time>
      </trkpt>
      <trkpt lat="41.570462" lon="1.134807">
        <ele>509.649</ele>
        <time>2021-06-20T22:18:14Z</time>
      </trkpt>
      <trkpt lat="41.570416" lon="1.134795">
        <ele>510.026</ele>
        <time>2021-06-20T22:18:16Z</time>
      </trkpt>
      <trkpt lat="41.570261" lon="1.134740">
        <ele>510.888</ele>
        <time>2021-06-20T22:18:23Z</time>
      </trkpt>
      <trkpt lat="41.570239" lon="1.134737">
        <ele>511.012</ele>
        <time>2021-06-20T22:18:24Z</time>
      </trkpt>
      <trkpt lat="41.570107" lon="1.134701">
        <ele>512.033</ele>
        <time>2021-06-20T22:18:30Z</time>
      </trkpt>
      <trkpt lat="41.570042" lon="1.134683">
        <ele>512.443</ele>
        <time>2021-06-20T22:18:33Z</time>
      </trkpt>
      <trkpt lat="41.569932" lon="1.134653">
        <ele>513.051</ele>
        <time>2021-06-20T22:18:38Z</time>
      </trkpt>
      <trkpt lat="41.569844" lon="1.134624">
        <ele>514.066</ele>
        <time>2021-06-20T22:18:42Z</time>
      </trkpt>
      <trkpt lat="41.569822" lon="1.134620">
        <ele>514.229</ele>
        <time>2021-06-20T22:18:43Z</time>
      </trkpt>
      <trkpt lat="41.569694" lon="1.134613">
        <ele>515.021</ele>
        <time>2021-06-20T22:18:49Z</time>
      </trkpt>
      <trkpt lat="41.569673" lon="1.134610">
        <ele>515.208</ele>
        <time>2021-06-20T22:18:50Z</time>
      </trkpt>
      <trkpt lat="41.569574" lon="1.134600">
        <ele>516.433</ele>
        <time>2021-06-20T22:18:55Z</time>
      </trkpt>
      <trkpt lat="41.569554" lon="1.134604">
        <ele>516.632</ele>
        <time>2021-06-20T22:18:56Z</time>
      </trkpt>
      <trkpt lat="41.569497" lon="1.134619">
        <ele>517.479</ele>
        <time>2021-06-20T22:18:59Z</time>
      </trkpt>
      <trkpt lat="41.569429" lon="1.134654">
        <ele>518.421</ele>
        <time>2021-06-20T22:19:03Z</time>
      </trkpt>
      <trkpt lat="41.569412" lon="1.134668">
        <ele>518.625</ele>
        <time>2021-06-20T22:19:04Z</time>
      </trkpt>
      <trkpt lat="41.569287" lon="1.134764">
        <ele>519.236</ele>
        <time>2021-06-20T22:19:09Z</time>
      </trkpt>
      <trkpt lat="41.569089" lon="1.134788">
        <ele>519.256</ele>
        <time>2021-06-20T22:19:14Z</time>
      </trkpt>
      <trkpt lat="41.568812" lon="1.134822">
        <ele>517.064</ele>
        <time>2021-06-20T22:19:20Z</time>
      </trkpt>
      <trkpt lat="41.568663" lon="1.134849">
        <ele>515.826</ele>
        <time>2021-06-20T22:19:23Z</time>
      </trkpt>
      <trkpt lat="41.568559" lon="1.134862">
        <ele>514.847</ele>
        <time>2021-06-20T22:19:25Z</time>
      </trkpt>
      <trkpt lat="41.568455" lon="1.134871">
        <ele>513.211</ele>
        <time>2021-06-20T22:19:27Z</time>
      </trkpt>
      <trkpt lat="41.568301" lon="1.134901">
        <ele>512.208</ele>
        <time>2021-06-20T22:19:30Z</time>
      </trkpt>
      <trkpt lat="41.568257" lon="1.134913">
        <ele>511.679</ele>
        <time>2021-06-20T22:19:31Z</time>
      </trkpt>
      <trkpt lat="41.568178" lon="1.134947">
        <ele>510.618</ele>
        <time>2021-06-20T22:19:33Z</time>
      </trkpt>
      <trkpt lat="41.568099" lon="1.134972">
        <ele>509.685</ele>
        <time>2021-06-20T22:19:35Z</time>
      </trkpt>
      <trkpt lat="41.568008" lon="1.134992">
        <ele>508.467</ele>
        <time>2021-06-20T22:19:37Z</time>
      </trkpt>
      <trkpt lat="41.567958" lon="1.135009">
        <ele>507.851</ele>
        <time>2021-06-20T22:19:38Z</time>
      </trkpt>
      <trkpt lat="41.567861" lon="1.135044">
        <ele>507.252</ele>
        <time>2021-06-20T22:19:40Z</time>
      </trkpt>
      <trkpt lat="41.567709" lon="1.135078">
        <ele>505.662</ele>
        <time>2021-06-20T22:19:43Z</time>
      </trkpt>
      <trkpt lat="41.567660" lon="1.135068">
        <ele>505.030</ele>
        <time>2021-06-20T22:19:44Z</time>
      </trkpt>
      <trkpt lat="41.567618" lon="1.135042">
        <ele>504.299</ele>
        <time>2021-06-20T22:19:45Z</time>
      </trkpt>
      <trkpt lat="41.567549" lon="1.134967">
        <ele>502.807</ele>
        <time>2021-06-20T22:19:47Z</time>
      </trkpt>
      <trkpt lat="41.567496" lon="1.134877">
        <ele>501.627</ele>
        <time>2021-06-20T22:19:49Z</time>
      </trkpt>
      <trkpt lat="41.567456" lon="1.134789">
        <ele>500.408</ele>
        <time>2021-06-20T22:19:51Z</time>
      </trkpt>
      <trkpt lat="41.567440" lon="1.134746">
        <ele>500.016</ele>
        <time>2021-06-20T22:19:52Z</time>
      </trkpt>
      <trkpt lat="41.567420" lon="1.134697">
        <ele>499.885</ele>
        <time>2021-06-20T22:19:53Z</time>
      </trkpt>
      <trkpt lat="41.567369" lon="1.134611">
        <ele>499.012</ele>
        <time>2021-06-20T22:19:55Z</time>
      </trkpt>
      <trkpt lat="41.567343" lon="1.134570">
        <ele>498.674</ele>
        <time>2021-06-20T22:19:56Z</time>
      </trkpt>
      <trkpt lat="41.567317" lon="1.134523">
        <ele>498.068</ele>
        <time>2021-06-20T22:19:57Z</time>
      </trkpt>
      <trkpt lat="41.567293" lon="1.134468">
        <ele>497.659</ele>
        <time>2021-06-20T22:19:58Z</time>
      </trkpt>
      <trkpt lat="41.567265" lon="1.134339">
        <ele>496.659</ele>
        <time>2021-06-20T22:20:00Z</time>
      </trkpt>
      <trkpt lat="41.567251" lon="1.134205">
        <ele>495.477</ele>
        <time>2021-06-20T22:20:02Z</time>
      </trkpt>
      <trkpt lat="41.567246" lon="1.134073">
        <ele>494.442</ele>
        <time>2021-06-20T22:20:04Z</time>
      </trkpt>
      <trkpt lat="41.567249" lon="1.133941">
        <ele>493.422</ele>
        <time>2021-06-20T22:20:06Z</time>
      </trkpt>
      <trkpt lat="41.567252" lon="1.133880">
        <ele>493.014</ele>
        <time>2021-06-20T22:20:07Z</time>
      </trkpt>
      <trkpt lat="41.567255" lon="1.133505">
        <ele>491.808</ele>
        <time>2021-06-20T22:20:13Z</time>
      </trkpt>
      <trkpt lat="41.567217" lon="1.133357">
        <ele>490.441</ele>
        <time>2021-06-20T22:20:17Z</time>
      </trkpt>
      <trkpt lat="41.567172" lon="1.133336">
        <ele>488.820</ele>
        <time>2021-06-20T22:20:20Z</time>
      </trkpt>
      <trkpt lat="41.567158" lon="1.133334">
        <ele>488.417</ele>
        <time>2021-06-20T22:20:21Z</time>
      </trkpt>
      <trkpt lat="41.567140" lon="1.133337">
        <ele>488.069</ele>
        <time>2021-06-20T22:20:22Z</time>
      </trkpt>
      <trkpt lat="41.567129" lon="1.133354">
        <ele>487.663</ele>
        <time>2021-06-20T22:20:23Z</time>
      </trkpt>
      <trkpt lat="41.567129" lon="1.133379">
        <ele>487.464</ele>
        <time>2021-06-20T22:20:24Z</time>
      </trkpt>
      <trkpt lat="41.567133" lon="1.133492">
        <ele>486.894</ele>
        <time>2021-06-20T22:20:28Z</time>
      </trkpt>
      <trkpt lat="41.567132" lon="1.133520">
        <ele>486.822</ele>
        <time>2021-06-20T22:20:29Z</time>
      </trkpt>
      <trkpt lat="41.567138" lon="1.133581">
        <ele>486.866</ele>
        <time>2021-06-20T22:20:32Z</time>
      </trkpt>
      <trkpt lat="41.567161" lon="1.133572">
        <ele>486.829</ele>
        <time>2021-06-20T22:20:34Z</time>
      </trkpt>
      <trkpt lat="41.567168" lon="1.133457">
        <ele>486.821</ele>
        <time>2021-06-20T22:20:37Z</time>
      </trkpt>
      <trkpt lat="41.567165" lon="1.133370">
        <ele>486.808</ele>
        <time>2021-06-20T22:20:39Z</time>
      </trkpt>
      <trkpt lat="41.567143" lon="1.132997">
        <ele>486.673</ele>
        <time>2021-06-20T22:20:46Z</time>
      </trkpt>
      <trkpt lat="41.567130" lon="1.132953">
        <ele>486.462</ele>
        <time>2021-06-20T22:20:47Z</time>
      </trkpt>
      <trkpt lat="41.567112" lon="1.132920">
        <ele>486.449</ele>
        <time>2021-06-20T22:20:48Z</time>
      </trkpt>
      <trkpt lat="41.567096" lon="1.132895">
        <ele>486.271</ele>
        <time>2021-06-20T22:20:49Z</time>
      </trkpt>
      <trkpt lat="41.567061" lon="1.132821">
        <ele>485.065</ele>
        <time>2021-06-20T22:20:52Z</time>
      </trkpt>
      <trkpt lat="41.567025" lon="1.132789">
        <ele>484.866</ele>
        <time>2021-06-20T22:20:54Z</time>
      </trkpt>
      <trkpt lat="41.566910" lon="1.132858">
        <ele>484.436</ele>
        <time>2021-06-20T22:20:58Z</time>
      </trkpt>
      <trkpt lat="41.566827" lon="1.132910">
        <ele>483.884</ele>
        <time>2021-06-20T22:21:00Z</time>
      </trkpt>
      <trkpt lat="41.566775" lon="1.132932">
        <ele>483.662</ele>
        <time>2021-06-20T22:21:01Z</time>
      </trkpt>
      <trkpt lat="41.566716" lon="1.132946">
        <ele>483.083</ele>
        <time>2021-06-20T22:21:02Z</time>
      </trkpt>
      <trkpt lat="41.566655" lon="1.132955">
        <ele>482.611</ele>
        <time>2021-06-20T22:21:03Z</time>
      </trkpt>
      <trkpt lat="41.566541" lon="1.132971">
        <ele>481.208</ele>
        <time>2021-06-20T22:21:05Z</time>
      </trkpt>
      <trkpt lat="41.566451" lon="1.132987">
        <ele>479.833</ele>
        <time>2021-06-20T22:21:07Z</time>
      </trkpt>
      <trkpt lat="41.566397" lon="1.132997">
        <ele>478.052</ele>
        <time>2021-06-20T22:21:09Z</time>
      </trkpt>
      <trkpt lat="41.566382" lon="1.132987">
        <ele>477.439</ele>
        <time>2021-06-20T22:21:10Z</time>
      </trkpt>
      <trkpt lat="41.566365" lon="1.132942">
        <ele>477.051</ele>
        <time>2021-06-20T22:21:12Z</time>
      </trkpt>
      <trkpt lat="41.566369" lon="1.132877">
        <ele>476.625</ele>
        <time>2021-06-20T22:21:14Z</time>
      </trkpt>
      <trkpt lat="41.566387" lon="1.132799">
        <ele>476.496</ele>
        <time>2021-06-20T22:21:16Z</time>
      </trkpt>
      <trkpt lat="41.566448" lon="1.132591">
        <ele>476.066</ele>
        <time>2021-06-20T22:21:21Z</time>
      </trkpt>
      <trkpt lat="41.566543" lon="1.132318">
        <ele>476.034</ele>
        <time>2021-06-20T22:21:28Z</time>
      </trkpt>
      <trkpt lat="41.566659" lon="1.132023">
        <ele>475.696</ele>
        <time>2021-06-20T22:21:34Z</time>
      </trkpt>
      <trkpt lat="41.566683" lon="1.131981">
        <ele>475.631</ele>
        <time>2021-06-20T22:21:35Z</time>
      </trkpt>
      <trkpt lat="41.566751" lon="1.131771">
        <ele>475.424</ele>
        <time>2021-06-20T22:21:40Z</time>
      </trkpt>
      <trkpt lat="41.566792" lon="1.131496">
        <ele>475.408</ele>
        <time>2021-06-20T22:21:46Z</time>
      </trkpt>
      <trkpt lat="41.566828" lon="1.131165">
        <ele>475.216</ele>
        <time>2021-06-20T22:21:53Z</time>
      </trkpt>
      <trkpt lat="41.566842" lon="1.131017">
        <ele>475.035</ele>
        <time>2021-06-20T22:21:56Z</time>
      </trkpt>
      <trkpt lat="41.566869" lon="1.130871">
        <ele>475.022</ele>
        <time>2021-06-20T22:21:59Z</time>
      </trkpt>
      <trkpt lat="41.566900" lon="1.130674">
        <ele>474.454</ele>
        <time>2021-06-20T22:22:03Z</time>
      </trkpt>
      <trkpt lat="41.566956" lon="1.130433">
        <ele>474.668</ele>
        <time>2021-06-20T22:22:08Z</time>
      </trkpt>
      <trkpt lat="41.566987" lon="1.130297">
        <ele>474.219</ele>
        <time>2021-06-20T22:22:12Z</time>
      </trkpt>
      <trkpt lat="41.566991" lon="1.130275">
        <ele>474.239</ele>
        <time>2021-06-20T22:22:13Z</time>
      </trkpt>
      <trkpt lat="41.567018" lon="1.130142">
        <ele>474.037</ele>
        <time>2021-06-20T22:22:20Z</time>
      </trkpt>
      <trkpt lat="41.567044" lon="1.129948">
        <ele>474.299</ele>
        <time>2021-06-20T22:22:27Z</time>
      </trkpt>
      <trkpt lat="41.567047" lon="1.129780">
        <ele>474.407</ele>
        <time>2021-06-20T22:22:34Z</time>
      </trkpt>
      <trkpt lat="41.567057" lon="1.129739">
        <ele>474.427</ele>
        <time>2021-06-20T22:22:38Z</time>
      </trkpt>
      <trkpt lat="41.567015" lon="1.129576">
        <ele>474.408</ele>
        <time>2021-06-20T22:23:12Z</time>
      </trkpt>
      <trkpt lat="41.566993" lon="1.129390">
        <ele>474.266</ele>
        <time>2021-06-20T22:23:18Z</time>
      </trkpt>
      <trkpt lat="41.566987" lon="1.129122">
        <ele>473.825</ele>
        <time>2021-06-20T22:23:25Z</time>
      </trkpt>
      <trkpt lat="41.566972" lon="1.128838">
        <ele>473.832</ele>
        <time>2021-06-20T22:23:33Z</time>
      </trkpt>
      <trkpt lat="41.566991" lon="1.128442">
        <ele>474.064</ele>
        <time>2021-06-20T22:23:42Z</time>
      </trkpt>
      <trkpt lat="41.567012" lon="1.128115">
        <ele>474.088</ele>
        <time>2021-06-20T22:23:49Z</time>
      </trkpt>
      <trkpt lat="41.567026" lon="1.127728">
        <ele>473.639</ele>
        <time>2021-06-20T22:23:57Z</time>
      </trkpt>
      <trkpt lat="41.567023" lon="1.127407">
        <ele>473.469</ele>
        <time>2021-06-20T22:24:04Z</time>
      </trkpt>
      <trkpt lat="41.566997" lon="1.126960">
        <ele>473.257</ele>
        <time>2021-06-20T22:24:13Z</time>
      </trkpt>
      <trkpt lat="41.566998" lon="1.126905">
        <ele>473.297</ele>
        <time>2021-06-20T22:24:14Z</time>
      </trkpt>
      <trkpt lat="41.566995" lon="1.126849">
        <ele>473.223</ele>
        <time>2021-06-20T22:24:15Z</time>
      </trkpt>
      <trkpt lat="41.566989" lon="1.126795">
        <ele>473.225</ele>
        <time>2021-06-20T22:24:16Z</time>
      </trkpt>
      <trkpt lat="41.566952" lon="1.126526">
        <ele>472.408</ele>
        <time>2021-06-20T22:24:21Z</time>
      </trkpt>
      <trkpt lat="41.566944" lon="1.126471">
        <ele>471.836</ele>
        <time>2021-06-20T22:24:22Z</time>
      </trkpt>
      <trkpt lat="41.566892" lon="1.126121">
        <ele>471.015</ele>
        <time>2021-06-20T22:24:29Z</time>
      </trkpt>
      <trkpt lat="41.566843" lon="1.125965">
        <ele>470.822</ele>
        <time>2021-06-20T22:24:33Z</time>
      </trkpt>
      <trkpt lat="41.566835" lon="1.125939">
        <ele>470.864</ele>
        <time>2021-06-20T22:24:34Z</time>
      </trkpt>
      <trkpt lat="41.566824" lon="1.125919">
        <ele>470.818</ele>
        <time>2021-06-20T22:24:35Z</time>
      </trkpt>
      <trkpt lat="41.566764" lon="1.125835">
        <ele>470.829</ele>
        <time>2021-06-20T22:24:39Z</time>
      </trkpt>
      <trkpt lat="41.566764" lon="1.125732">
        <ele>470.669</ele>
        <time>2021-06-20T22:24:43Z</time>
      </trkpt>
      <trkpt lat="41.566782" lon="1.125593">
        <ele>470.667</ele>
        <time>2021-06-20T22:24:48Z</time>
      </trkpt>
      <trkpt lat="41.566771" lon="1.125384">
        <ele>470.459</ele>
        <time>2021-06-20T22:24:54Z</time>
      </trkpt>
      <trkpt lat="41.566728" lon="1.125319">
        <ele>470.403</ele>
        <time>2021-06-20T22:24:56Z</time>
      </trkpt>
      <trkpt lat="41.566660" lon="1.125300">
        <ele>470.423</ele>
        <time>2021-06-20T22:24:58Z</time>
      </trkpt>
      <trkpt lat="41.566546" lon="1.125371">
        <ele>470.208</ele>
        <time>2021-06-20T22:25:02Z</time>
      </trkpt>
      <trkpt lat="41.566502" lon="1.125438">
        <ele>469.842</ele>
        <time>2021-06-20T22:25:04Z</time>
      </trkpt>
      <trkpt lat="41.566415" lon="1.125501">
        <ele>469.451</ele>
        <time>2021-06-20T22:25:07Z</time>
      </trkpt>
      <trkpt lat="41.566310" lon="1.125477">
        <ele>468.418</ele>
        <time>2021-06-20T22:25:12Z</time>
      </trkpt>
      <trkpt lat="41.566257" lon="1.125434">
        <ele>467.820</ele>
        <time>2021-06-20T22:25:14Z</time>
      </trkpt>
      <trkpt lat="41.566107" lon="1.125300">
        <ele>467.474</ele>
        <time>2021-06-20T22:25:19Z</time>
      </trkpt>
      <trkpt lat="41.565908" lon="1.125057">
        <ele>467.275</ele>
        <time>2021-06-20T22:25:25Z</time>
      </trkpt>
      <trkpt lat="41.565597" lon="1.124706">
        <ele>466.445</ele>
        <time>2021-06-20T22:25:33Z</time>
      </trkpt>
      <trkpt lat="41.565450" lon="1.124550">
        <ele>466.283</ele>
        <time>2021-06-20T22:25:37Z</time>
      </trkpt>
      <trkpt lat="41.565339" lon="1.124417">
        <ele>466.016</ele>
        <time>2021-06-20T22:25:40Z</time>
      </trkpt>
      <trkpt lat="41.565007" lon="1.123954">
        <ele>465.876</ele>
        <time>2021-06-20T22:25:49Z</time>
      </trkpt>
      <trkpt lat="41.564748" lon="1.123543">
        <ele>465.213</ele>
        <time>2021-06-20T22:25:57Z</time>
      </trkpt>
      <trkpt lat="41.564484" lon="1.123119">
        <ele>464.608</ele>
        <time>2021-06-20T22:26:05Z</time>
      </trkpt>
      <trkpt lat="41.564400" lon="1.123043">
        <ele>464.648</ele>
        <time>2021-06-20T22:26:07Z</time>
      </trkpt>
      <trkpt lat="41.564236" lon="1.122929">
        <ele>464.427</ele>
        <time>2021-06-20T22:26:11Z</time>
      </trkpt>
      <trkpt lat="41.563969" lon="1.122745">
        <ele>464.474</ele>
        <time>2021-06-20T22:26:17Z</time>
      </trkpt>
      <trkpt lat="41.563787" lon="1.122558">
        <ele>464.266</ele>
        <time>2021-06-20T22:26:21Z</time>
      </trkpt>
      <trkpt lat="41.563660" lon="1.122412">
        <ele>463.490</ele>
        <time>2021-06-20T22:26:24Z</time>
      </trkpt>
      <trkpt lat="41.563544" lon="1.122278">
        <ele>463.231</ele>
        <time>2021-06-20T22:26:27Z</time>
      </trkpt>
      <trkpt lat="41.563466" lon="1.122114">
        <ele>463.241</ele>
        <time>2021-06-20T22:26:30Z</time>
      </trkpt>
      <trkpt lat="41.563443" lon="1.121930">
        <ele>463.289</ele>
        <time>2021-06-20T22:26:33Z</time>
      </trkpt>
      <trkpt lat="41.563437" lon="1.121865">
        <ele>463.268</ele>
        <time>2021-06-20T22:26:34Z</time>
      </trkpt>
      <trkpt lat="41.563425" lon="1.121798">
        <ele>463.242</ele>
        <time>2021-06-20T22:26:35Z</time>
      </trkpt>
      <trkpt lat="41.563298" lon="1.121387">
        <ele>463.226</ele>
        <time>2021-06-20T22:26:41Z</time>
      </trkpt>
      <trkpt lat="41.563233" lon="1.121054">
        <ele>463.208</ele>
        <time>2021-06-20T22:26:46Z</time>
      </trkpt>
      <trkpt lat="41.563211" lon="1.120992">
        <ele>463.013</ele>
        <time>2021-06-20T22:26:47Z</time>
      </trkpt>
      <trkpt lat="41.563119" lon="1.120822">
        <ele>462.452</ele>
        <time>2021-06-20T22:26:50Z</time>
      </trkpt>
      <trkpt lat="41.563058" lon="1.120706">
        <ele>462.259</ele>
        <time>2021-06-20T22:26:52Z</time>
      </trkpt>
      <trkpt lat="41.562982" lon="1.120530">
        <ele>462.051</ele>
        <time>2021-06-20T22:26:55Z</time>
      </trkpt>
      <trkpt lat="41.562963" lon="1.120471">
        <ele>462.095</ele>
        <time>2021-06-20T22:26:56Z</time>
      </trkpt>
      <trkpt lat="41.562939" lon="1.120353">
        <ele>462.036</ele>
        <time>2021-06-20T22:26:58Z</time>
      </trkpt>
      <trkpt lat="41.562980" lon="1.120177">
        <ele>461.836</ele>
        <time>2021-06-20T22:27:02Z</time>
      </trkpt>
      <trkpt lat="41.563066" lon="1.120114">
        <ele>461.874</ele>
        <time>2021-06-20T22:27:05Z</time>
      </trkpt>
      <trkpt lat="41.563136" lon="1.120077">
        <ele>462.099</ele>
        <time>2021-06-20T22:27:07Z</time>
      </trkpt>
      <trkpt lat="41.563211" lon="1.120023">
        <ele>462.207</ele>
        <time>2021-06-20T22:27:09Z</time>
      </trkpt>
      <trkpt lat="41.563303" lon="1.119881">
        <ele>462.227</ele>
        <time>2021-06-20T22:27:12Z</time>
      </trkpt>
      <trkpt lat="41.563335" lon="1.119680">
        <ele>462.208</ele>
        <time>2021-06-20T22:27:15Z</time>
      </trkpt>
      <trkpt lat="41.563292" lon="1.119474">
        <ele>462.076</ele>
        <time>2021-06-20T22:27:18Z</time>
      </trkpt>
      <trkpt lat="41.563273" lon="1.119408">
        <ele>461.885</ele>
        <time>2021-06-20T22:27:19Z</time>
      </trkpt>
      <trkpt lat="41.563215" lon="1.119222">
        <ele>461.092</ele>
        <time>2021-06-20T22:27:22Z</time>
      </trkpt>
      <trkpt lat="41.563194" lon="1.119167">
        <ele>460.684</ele>
        <time>2021-06-20T22:27:23Z</time>
      </trkpt>
      <trkpt lat="41.563178" lon="1.119110">
        <ele>460.648</ele>
        <time>2021-06-20T22:27:24Z</time>
      </trkpt>
      <trkpt lat="41.563172" lon="1.118919">
        <ele>460.429</ele>
        <time>2021-06-20T22:27:27Z</time>
      </trkpt>
      <trkpt lat="41.563175" lon="1.118850">
        <ele>460.229</ele>
        <time>2021-06-20T22:27:28Z</time>
      </trkpt>
      <trkpt lat="41.563182" lon="1.118707">
        <ele>460.267</ele>
        <time>2021-06-20T22:27:30Z</time>
      </trkpt>
      <trkpt lat="41.563175" lon="1.118438">
        <ele>460.235</ele>
        <time>2021-06-20T22:27:34Z</time>
      </trkpt>
      <trkpt lat="41.563132" lon="1.118097">
        <ele>459.686</ele>
        <time>2021-06-20T22:27:39Z</time>
      </trkpt>
      <trkpt lat="41.563118" lon="1.118031">
        <ele>459.614</ele>
        <time>2021-06-20T22:27:40Z</time>
      </trkpt>
      <trkpt lat="41.562989" lon="1.117564">
        <ele>459.408</ele>
        <time>2021-06-20T22:27:47Z</time>
      </trkpt>
      <trkpt lat="41.562811" lon="1.117120">
        <ele>459.050</ele>
        <time>2021-06-20T22:27:54Z</time>
      </trkpt>
      <trkpt lat="41.562595" lon="1.116790">
        <ele>458.859</ele>
        <time>2021-06-20T22:28:00Z</time>
      </trkpt>
      <trkpt lat="41.562568" lon="1.116747">
        <ele>458.866</ele>
        <time>2021-06-20T22:28:01Z</time>
      </trkpt>
      <trkpt lat="41.562518" lon="1.116595">
        <ele>458.658</ele>
        <time>2021-06-20T22:28:04Z</time>
      </trkpt>
      <trkpt lat="41.562500" lon="1.116480">
        <ele>458.692</ele>
        <time>2021-06-20T22:28:06Z</time>
      </trkpt>
      <trkpt lat="41.562521" lon="1.116304">
        <ele>458.633</ele>
        <time>2021-06-20T22:28:09Z</time>
      </trkpt>
      <trkpt lat="41.562564" lon="1.116187">
        <ele>458.693</ele>
        <time>2021-06-20T22:28:11Z</time>
      </trkpt>
      <trkpt lat="41.562646" lon="1.115985">
        <ele>458.641</ele>
        <time>2021-06-20T22:28:14Z</time>
      </trkpt>
      <trkpt lat="41.562736" lon="1.115689">
        <ele>458.441</ele>
        <time>2021-06-20T22:28:18Z</time>
      </trkpt>
      <trkpt lat="41.562761" lon="1.115538">
        <ele>457.881</ele>
        <time>2021-06-20T22:28:20Z</time>
      </trkpt>
      <trkpt lat="41.562778" lon="1.115382">
        <ele>457.209</ele>
        <time>2021-06-20T22:28:22Z</time>
      </trkpt>
      <trkpt lat="41.562824" lon="1.115004">
        <ele>456.808</ele>
        <time>2021-06-20T22:28:27Z</time>
      </trkpt>
      <trkpt lat="41.562902" lon="1.114408">
        <ele>456.431</ele>
        <time>2021-06-20T22:28:35Z</time>
      </trkpt>
      <trkpt lat="41.562998" lon="1.113794">
        <ele>456.270</ele>
        <time>2021-06-20T22:28:43Z</time>
      </trkpt>
      <trkpt lat="41.563021" lon="1.113639">
        <ele>456.257</ele>
        <time>2021-06-20T22:28:45Z</time>
      </trkpt>
      <trkpt lat="41.563018" lon="1.113493">
        <ele>456.299</ele>
        <time>2021-06-20T22:28:47Z</time>
      </trkpt>
      <trkpt lat="41.563016" lon="1.113346">
        <ele>456.273</ele>
        <time>2021-06-20T22:28:50Z</time>
      </trkpt>
      <trkpt lat="41.563026" lon="1.113232">
        <ele>456.434</ele>
        <time>2021-06-20T22:28:54Z</time>
      </trkpt>
      <trkpt lat="41.563014" lon="1.113225">
        <ele>456.624</ele>
        <time>2021-06-20T22:28:55Z</time>
      </trkpt>
      <trkpt lat="41.563004" lon="1.113259">
        <ele>457.452</ele>
        <time>2021-06-20T22:28:57Z</time>
      </trkpt>
      <trkpt lat="41.563005" lon="1.113287">
        <ele>457.611</ele>
        <time>2021-06-20T22:28:58Z</time>
      </trkpt>
      <trkpt lat="41.562991" lon="1.113411">
        <ele>458.021</ele>
        <time>2021-06-20T22:29:02Z</time>
      </trkpt>
      <trkpt lat="41.562974" lon="1.113440">
        <ele>458.003</ele>
        <time>2021-06-20T22:29:03Z</time>
      </trkpt>
      <trkpt lat="41.562828" lon="1.113693">
        <ele>458.008</ele>
        <time>2021-06-20T22:29:10Z</time>
      </trkpt>
      <trkpt lat="41.562765" lon="1.113901">
        <ele>458.078</ele>
        <time>2021-06-20T22:29:15Z</time>
      </trkpt>
      <trkpt lat="41.562687" lon="1.114003">
        <ele>458.617</ele>
        <time>2021-06-20T22:29:20Z</time>
      </trkpt>
      <trkpt lat="41.562547" lon="1.114069">
        <ele>459.474</ele>
        <time>2021-06-20T22:29:25Z</time>
      </trkpt>
      <trkpt lat="41.562476" lon="1.114087">
        <ele>459.636</ele>
        <time>2021-06-20T22:29:27Z</time>
      </trkpt>
      <trkpt lat="41.562239" lon="1.114124">
        <ele>459.860</ele>
        <time>2021-06-20T22:29:33Z</time>
      </trkpt>
      <trkpt lat="41.561853" lon="1.114187">
        <ele>459.871</ele>
        <time>2021-06-20T22:29:42Z</time>
      </trkpt>
      <trkpt lat="41.561633" lon="1.114207">
        <ele>459.851</ele>
        <time>2021-06-20T22:29:48Z</time>
      </trkpt>
      <trkpt lat="41.561613" lon="1.114199">
        <ele>459.869</ele>
        <time>2021-06-20T22:29:49Z</time>
      </trkpt>
      <trkpt lat="41.561577" lon="1.114134">
        <ele>460.413</ele>
        <time>2021-06-20T22:29:52Z</time>
      </trkpt>
      <trkpt lat="41.561574" lon="1.114103">
        <ele>460.843</ele>
        <time>2021-06-20T22:29:53Z</time>
      </trkpt>
      <trkpt lat="41.561559" lon="1.114013">
        <ele>461.807</ele>
        <time>2021-06-20T22:29:56Z</time>
      </trkpt>
      <trkpt lat="41.561550" lon="1.113954">
        <ele>462.608</ele>
        <time>2021-06-20T22:29:58Z</time>
      </trkpt>
      <trkpt lat="41.561543" lon="1.113925">
        <ele>463.068</ele>
        <time>2021-06-20T22:29:59Z</time>
      </trkpt>
      <trkpt lat="41.561533" lon="1.113863">
        <ele>463.447</ele>
        <time>2021-06-20T22:30:01Z</time>
      </trkpt>
      <trkpt lat="41.561508" lon="1.113767">
        <ele>464.264</ele>
        <time>2021-06-20T22:30:04Z</time>
      </trkpt>
      <trkpt lat="41.561497" lon="1.113733">
        <ele>464.236</ele>
        <time>2021-06-20T22:30:05Z</time>
      </trkpt>
      <trkpt lat="41.561415" lon="1.113501">
        <ele>464.670</ele>
        <time>2021-06-20T22:30:12Z</time>
      </trkpt>
      <trkpt lat="41.561338" lon="1.113365">
        <ele>465.041</ele>
        <time>2021-06-20T22:30:16Z</time>
      </trkpt>
      <trkpt lat="41.561255" lon="1.113213">
        <ele>465.481</ele>
        <time>2021-06-20T22:30:20Z</time>
      </trkpt>
      <trkpt lat="41.561136" lon="1.112879">
        <ele>465.659</ele>
        <time>2021-06-20T22:30:27Z</time>
      </trkpt>
      <trkpt lat="41.561072" lon="1.112455">
        <ele>465.223</ele>
        <time>2021-06-20T22:30:34Z</time>
      </trkpt>
      <trkpt lat="41.561068" lon="1.112307">
        <ele>465.083</ele>
        <time>2021-06-20T22:30:36Z</time>
      </trkpt>
      <trkpt lat="41.561088" lon="1.112070">
        <ele>464.811</ele>
        <time>2021-06-20T22:30:39Z</time>
      </trkpt>
      <trkpt lat="41.561108" lon="1.111830">
        <ele>463.408</ele>
        <time>2021-06-20T22:30:42Z</time>
      </trkpt>
      <trkpt lat="41.561089" lon="1.111669">
        <ele>462.049</ele>
        <time>2021-06-20T22:30:44Z</time>
      </trkpt>
      <trkpt lat="41.561029" lon="1.111439">
        <ele>460.868</ele>
        <time>2021-06-20T22:30:47Z</time>
      </trkpt>
      <trkpt lat="41.560946" lon="1.111162">
        <ele>459.895</ele>
        <time>2021-06-20T22:30:51Z</time>
      </trkpt>
      <trkpt lat="41.560913" lon="1.111033">
        <ele>459.497</ele>
        <time>2021-06-20T22:30:53Z</time>
      </trkpt>
      <trkpt lat="41.560859" lon="1.110770">
        <ele>459.421</ele>
        <time>2021-06-20T22:30:57Z</time>
      </trkpt>
      <trkpt lat="41.560755" lon="1.110328">
        <ele>459.612</ele>
        <time>2021-06-20T22:31:04Z</time>
      </trkpt>
      <trkpt lat="41.560711" lon="1.110210">
        <ele>459.672</ele>
        <time>2021-06-20T22:31:06Z</time>
      </trkpt>
      <trkpt lat="41.560594" lon="1.109987">
        <ele>460.250</ele>
        <time>2021-06-20T22:31:10Z</time>
      </trkpt>
      <trkpt lat="41.560316" lon="1.109397">
        <ele>460.252</ele>
        <time>2021-06-20T22:31:19Z</time>
      </trkpt>
      <trkpt lat="41.560199" lon="1.108916">
        <ele>459.053</ele>
        <time>2021-06-20T22:31:25Z</time>
      </trkpt>
      <trkpt lat="41.560150" lon="1.108688">
        <ele>459.008</ele>
        <time>2021-06-20T22:31:28Z</time>
      </trkpt>
      <trkpt lat="41.560105" lon="1.108569">
        <ele>459.008</ele>
        <time>2021-06-20T22:31:30Z</time>
      </trkpt>
      <trkpt lat="41.560008" lon="1.108384">
        <ele>459.022</ele>
        <time>2021-06-20T22:31:34Z</time>
      </trkpt>
      <trkpt lat="41.559944" lon="1.108293">
        <ele>459.421</ele>
        <time>2021-06-20T22:31:36Z</time>
      </trkpt>
      <trkpt lat="41.559829" lon="1.108130">
        <ele>460.668</ele>
        <time>2021-06-20T22:31:39Z</time>
      </trkpt>
      <trkpt lat="41.559739" lon="1.108017">
        <ele>460.840</ele>
        <time>2021-06-20T22:31:41Z</time>
      </trkpt>
      <trkpt lat="41.559466" lon="1.107701">
        <ele>460.444</ele>
        <time>2021-06-20T22:31:47Z</time>
      </trkpt>
      <trkpt lat="41.559427" lon="1.107642">
        <ele>460.095</ele>
        <time>2021-06-20T22:31:48Z</time>
      </trkpt>
      <trkpt lat="41.559356" lon="1.107517">
        <ele>459.465</ele>
        <time>2021-06-20T22:31:50Z</time>
      </trkpt>
      <trkpt lat="41.559246" lon="1.107340">
        <ele>458.893</ele>
        <time>2021-06-20T22:31:53Z</time>
      </trkpt>
      <trkpt lat="41.559201" lon="1.107287">
        <ele>458.891</ele>
        <time>2021-06-20T22:31:54Z</time>
      </trkpt>
      <trkpt lat="41.558897" lon="1.107030">
        <ele>458.481</ele>
        <time>2021-06-20T22:32:00Z</time>
      </trkpt>
      <trkpt lat="41.558845" lon="1.106994">
        <ele>458.419</ele>
        <time>2021-06-20T22:32:01Z</time>
      </trkpt>
      <trkpt lat="41.558534" lon="1.106718">
        <ele>457.808</ele>
        <time>2021-06-20T22:32:07Z</time>
      </trkpt>
      <trkpt lat="41.558488" lon="1.106655">
        <ele>457.846</ele>
        <time>2021-06-20T22:32:08Z</time>
      </trkpt>
      <trkpt lat="41.558348" lon="1.106370">
        <ele>457.485</ele>
        <time>2021-06-20T22:32:12Z</time>
      </trkpt>
      <trkpt lat="41.558174" lon="1.105902">
        <ele>457.272</ele>
        <time>2021-06-20T22:32:19Z</time>
      </trkpt>
      <trkpt lat="41.558150" lon="1.105845">
        <ele>457.264</ele>
        <time>2021-06-20T22:32:20Z</time>
      </trkpt>
      <trkpt lat="41.558014" lon="1.105675">
        <ele>457.638</ele>
        <time>2021-06-20T22:32:24Z</time>
      </trkpt>
      <trkpt lat="41.557929" lon="1.105626">
        <ele>458.249</ele>
        <time>2021-06-20T22:32:26Z</time>
      </trkpt>
      <trkpt lat="41.557894" lon="1.105600">
        <ele>458.669</ele>
        <time>2021-06-20T22:32:27Z</time>
      </trkpt>
      <trkpt lat="41.557852" lon="1.105543">
        <ele>459.277</ele>
        <time>2021-06-20T22:32:29Z</time>
      </trkpt>
      <trkpt lat="41.557829" lon="1.105505">
        <ele>459.673</ele>
        <time>2021-06-20T22:32:31Z</time>
      </trkpt>
      <trkpt lat="41.557822" lon="1.105489">
        <ele>459.885</ele>
        <time>2021-06-20T22:32:32Z</time>
      </trkpt>
      <trkpt lat="41.557807" lon="1.105455">
        <ele>460.213</ele>
        <time>2021-06-20T22:32:34Z</time>
      </trkpt>
      <trkpt lat="41.557789" lon="1.105420">
        <ele>461.208</ele>
        <time>2021-06-20T22:32:36Z</time>
      </trkpt>
      <trkpt lat="41.557763" lon="1.105358">
        <ele>462.434</ele>
        <time>2021-06-20T22:32:39Z</time>
      </trkpt>
      <trkpt lat="41.557753" lon="1.105337">
        <ele>462.833</ele>
        <time>2021-06-20T22:32:40Z</time>
      </trkpt>
      <trkpt lat="41.557732" lon="1.105300">
        <ele>463.680</ele>
        <time>2021-06-20T22:32:44Z</time>
      </trkpt>
      <trkpt lat="41.557720" lon="1.105249">
        <ele>463.462</ele>
        <time>2021-06-20T22:35:38Z</time>
      </trkpt>
      <trkpt lat="41.557649" lon="1.105070">
        <ele>463.456</ele>
        <time>2021-06-20T22:35:46Z</time>
      </trkpt>
      <trkpt lat="41.557590" lon="1.104924">
        <ele>464.227</ele>
        <time>2021-06-20T22:35:53Z</time>
      </trkpt>
      <trkpt lat="41.557573" lon="1.104884">
        <ele>464.637</ele>
        <time>2021-06-20T22:35:55Z</time>
      </trkpt>
      <trkpt lat="41.557535" lon="1.104784">
        <ele>465.845</ele>
        <time>2021-06-20T22:36:00Z</time>
      </trkpt>
      <trkpt lat="41.557525" lon="1.104765">
        <ele>466.038</ele>
        <time>2021-06-20T22:36:01Z</time>
      </trkpt>
      <trkpt lat="41.557500" lon="1.104705">
        <ele>467.070</ele>
        <time>2021-06-20T22:36:04Z</time>
      </trkpt>
      <trkpt lat="41.557456" lon="1.104592">
        <ele>467.617</ele>
        <time>2021-06-20T22:36:09Z</time>
      </trkpt>
      <trkpt lat="41.557430" lon="1.104516">
        <ele>468.208</ele>
        <time>2021-06-20T22:36:12Z</time>
      </trkpt>
      <trkpt lat="41.557356" lon="1.104334">
        <ele>468.630</ele>
        <time>2021-06-20T22:36:18Z</time>
      </trkpt>
      <trkpt lat="41.557255" lon="1.104232">
        <ele>468.849</ele>
        <time>2021-06-20T22:36:23Z</time>
      </trkpt>
      <trkpt lat="41.557069" lon="1.104215">
        <ele>469.056</ele>
        <time>2021-06-20T22:36:30Z</time>
      </trkpt>
      <trkpt lat="41.556987" lon="1.104216">
        <ele>469.268</ele>
        <time>2021-06-20T22:36:33Z</time>
      </trkpt>
      <trkpt lat="41.556864" lon="1.104189">
        <ele>469.422</ele>
        <time>2021-06-20T22:36:38Z</time>
      </trkpt>
      <trkpt lat="41.556796" lon="1.104093">
        <ele>469.893</ele>
        <time>2021-06-20T22:36:44Z</time>
      </trkpt>
      <trkpt lat="41.556792" lon="1.104076">
        <ele>470.073</ele>
        <time>2021-06-20T22:36:45Z</time>
      </trkpt>
      <trkpt lat="41.556792" lon="1.104065">
        <ele>470.461</ele>
        <time>2021-06-20T22:36:47Z</time>
      </trkpt>
      <trkpt lat="41.556793" lon="1.104065">
        <ele>470.626</ele>
        <time>2021-06-20T22:36:48Z</time>
      </trkpt>
      <trkpt lat="41.556812" lon="1.104081">
        <ele>472.247</ele>
        <time>2021-06-20T22:38:03Z</time>
      </trkpt>
      <trkpt lat="41.556838" lon="1.104133">
        <ele>472.211</ele>
        <time>2021-06-20T22:38:05Z</time>
      </trkpt>
      <trkpt lat="41.556949" lon="1.104183">
        <ele>472.008</ele>
        <time>2021-06-20T22:38:09Z</time>
      </trkpt>
      <trkpt lat="41.557042" lon="1.104186">
        <ele>471.259</ele>
        <time>2021-06-20T22:38:12Z</time>
      </trkpt>
      <trkpt lat="41.557131" lon="1.104180">
        <ele>470.278</ele>
        <time>2021-06-20T22:38:15Z</time>
      </trkpt>
      <trkpt lat="41.557161" lon="1.104182">
        <ele>469.835</ele>
        <time>2021-06-20T22:38:16Z</time>
      </trkpt>
      <trkpt lat="41.557315" lon="1.104248">
        <ele>469.027</ele>
        <time>2021-06-20T22:38:22Z</time>
      </trkpt>
      <trkpt lat="41.557362" lon="1.104273">
        <ele>468.811</ele>
        <time>2021-06-20T22:38:27Z</time>
      </trkpt>
      <trkpt lat="41.557386" lon="1.104355">
        <ele>468.652</ele>
        <time>2021-06-20T22:39:14Z</time>
      </trkpt>
      <trkpt lat="41.557407" lon="1.104407">
        <ele>468.682</ele>
        <time>2021-06-20T22:39:16Z</time>
      </trkpt>
      <trkpt lat="41.557496" lon="1.104654">
        <ele>468.030</ele>
        <time>2021-06-20T22:39:23Z</time>
      </trkpt>
      <trkpt lat="41.557512" lon="1.104691">
        <ele>468.013</ele>
        <time>2021-06-20T22:39:24Z</time>
      </trkpt>
      <trkpt lat="41.557614" lon="1.104972">
        <ele>467.443</ele>
        <time>2021-06-20T22:39:31Z</time>
      </trkpt>
      <trkpt lat="41.557668" lon="1.105093">
        <ele>466.807</ele>
        <time>2021-06-20T22:39:34Z</time>
      </trkpt>
      <trkpt lat="41.557746" lon="1.105272">
        <ele>465.608</ele>
        <time>2021-06-20T22:39:38Z</time>
      </trkpt>
      <trkpt lat="41.557766" lon="1.105319">
        <ele>465.228</ele>
        <time>2021-06-20T22:39:39Z</time>
      </trkpt>
      <trkpt lat="41.557823" lon="1.105450">
        <ele>464.497</ele>
        <time>2021-06-20T22:39:42Z</time>
      </trkpt>
      <trkpt lat="41.557906" lon="1.105601">
        <ele>463.214</ele>
        <time>2021-06-20T22:39:46Z</time>
      </trkpt>
      <trkpt lat="41.557932" lon="1.105618">
        <ele>462.886</ele>
        <time>2021-06-20T22:39:47Z</time>
      </trkpt>
      <trkpt lat="41.557969" lon="1.105592">
        <ele>462.040</ele>
        <time>2021-06-20T22:39:49Z</time>
      </trkpt>
      <trkpt lat="41.557969" lon="1.105560">
        <ele>461.671</ele>
        <time>2021-06-20T22:39:50Z</time>
      </trkpt>
      <trkpt lat="41.557944" lon="1.105494">
        <ele>461.031</ele>
        <time>2021-06-20T22:39:52Z</time>
      </trkpt>
      <trkpt lat="41.557898" lon="1.105358">
        <ele>459.849</ele>
        <time>2021-06-20T22:39:55Z</time>
      </trkpt>
      <trkpt lat="41.557815" lon="1.105046">
        <ele>458.651</ele>
        <time>2021-06-20T22:40:00Z</time>
      </trkpt>
      <trkpt lat="41.557786" lon="1.104913">
        <ele>458.201</ele>
        <time>2021-06-20T22:40:02Z</time>
      </trkpt>
      <trkpt lat="41.557751" lon="1.104700">
        <ele>457.411</ele>
        <time>2021-06-20T22:40:05Z</time>
      </trkpt>
      <trkpt lat="41.557718" lon="1.104473">
        <ele>456.808</ele>
        <time>2021-06-20T22:40:08Z</time>
      </trkpt>
      <trkpt lat="41.557699" lon="1.104405">
        <ele>456.872</ele>
        <time>2021-06-20T22:40:09Z</time>
      </trkpt>
      <trkpt lat="41.557600" lon="1.104169">
        <ele>456.461</ele>
        <time>2021-06-20T22:40:13Z</time>
      </trkpt>
      <trkpt lat="41.557583" lon="1.104114">
        <ele>456.418</ele>
        <time>2021-06-20T22:40:14Z</time>
      </trkpt>
      <trkpt lat="41.557509" lon="1.103959">
        <ele>456.280</ele>
        <time>2021-06-20T22:40:17Z</time>
      </trkpt>
      <trkpt lat="41.557443" lon="1.103827">
        <ele>456.064</ele>
        <time>2021-06-20T22:40:19Z</time>
      </trkpt>
      <trkpt lat="41.557340" lon="1.103425">
        <ele>455.245</ele>
        <time>2021-06-20T22:40:24Z</time>
      </trkpt>
      <trkpt lat="41.557328" lon="1.103349">
        <ele>454.635</ele>
        <time>2021-06-20T22:40:25Z</time>
      </trkpt>
      <trkpt lat="41.557306" lon="1.103210">
        <ele>453.673</ele>
        <time>2021-06-20T22:40:27Z</time>
      </trkpt>
      <trkpt lat="41.557263" lon="1.103013">
        <ele>453.279</ele>
        <time>2021-06-20T22:40:30Z</time>
      </trkpt>
      <trkpt lat="41.557245" lon="1.102949">
        <ele>453.205</ele>
        <time>2021-06-20T22:40:31Z</time>
      </trkpt>
      <trkpt lat="41.557139" lon="1.102704">
        <ele>453.225</ele>
        <time>2021-06-20T22:40:35Z</time>
      </trkpt>
      <trkpt lat="41.556919" lon="1.102282">
        <ele>453.408</ele>
        <time>2021-06-20T22:40:42Z</time>
      </trkpt>
      <trkpt lat="41.556759" lon="1.101779">
        <ele>453.434</ele>
        <time>2021-06-20T22:40:49Z</time>
      </trkpt>
      <trkpt lat="41.556621" lon="1.101325">
        <ele>452.433</ele>
        <time>2021-06-20T22:40:55Z</time>
      </trkpt>
      <trkpt lat="41.556564" lon="1.101173">
        <ele>452.080</ele>
        <time>2021-06-20T22:40:57Z</time>
      </trkpt>
      <trkpt lat="41.556491" lon="1.101030">
        <ele>451.432</ele>
        <time>2021-06-20T22:40:59Z</time>
      </trkpt>
      <trkpt lat="41.556327" lon="1.100776">
        <ele>450.296</ele>
        <time>2021-06-20T22:41:03Z</time>
      </trkpt>
      <trkpt lat="41.556064" lon="1.100320">
        <ele>449.897</ele>
        <time>2021-06-20T22:41:10Z</time>
      </trkpt>
      <trkpt lat="41.555841" lon="1.099845">
        <ele>450.297</ele>
        <time>2021-06-20T22:41:17Z</time>
      </trkpt>
      <trkpt lat="41.555722" lon="1.099425">
        <ele>450.695</ele>
        <time>2021-06-20T22:41:23Z</time>
      </trkpt>
      <trkpt lat="41.555660" lon="1.099113">
        <ele>451.478</ele>
        <time>2021-06-20T22:41:28Z</time>
      </trkpt>
      <trkpt lat="41.555617" lon="1.098922">
        <ele>452.433</ele>
        <time>2021-06-20T22:41:31Z</time>
      </trkpt>
      <trkpt lat="41.555599" lon="1.098856">
        <ele>452.826</ele>
        <time>2021-06-20T22:41:32Z</time>
      </trkpt>
      <trkpt lat="41.555457" lon="1.098479">
        <ele>453.408</ele>
        <time>2021-06-20T22:41:38Z</time>
      </trkpt>
      <trkpt lat="41.555432" lon="1.098438">
        <ele>453.464</ele>
        <time>2021-06-20T22:41:39Z</time>
      </trkpt>
      <trkpt lat="41.555346" lon="1.098287">
        <ele>453.823</ele>
        <time>2021-06-20T22:41:44Z</time>
      </trkpt>
      <trkpt lat="41.555315" lon="1.098228">
        <ele>454.470</ele>
        <time>2021-06-20T22:41:46Z</time>
      </trkpt>
      <trkpt lat="41.555300" lon="1.098196">
        <ele>455.082</ele>
        <time>2021-06-20T22:41:47Z</time>
      </trkpt>
      <trkpt lat="41.555286" lon="1.098162">
        <ele>455.686</ele>
        <time>2021-06-20T22:41:48Z</time>
      </trkpt>
      <trkpt lat="41.555244" lon="1.098034">
        <ele>456.417</ele>
        <time>2021-06-20T22:41:51Z</time>
      </trkpt>
      <trkpt lat="41.555176" lon="1.097657">
        <ele>456.427</ele>
        <time>2021-06-20T22:41:57Z</time>
      </trkpt>
      <trkpt lat="41.555129" lon="1.097162">
        <ele>454.845</ele>
        <time>2021-06-20T22:42:04Z</time>
      </trkpt>
      <trkpt lat="41.555123" lon="1.097006">
        <ele>454.637</ele>
        <time>2021-06-20T22:42:06Z</time>
      </trkpt>
      <trkpt lat="41.555081" lon="1.096626">
        <ele>453.649</ele>
        <time>2021-06-20T22:42:11Z</time>
      </trkpt>
      <trkpt lat="41.555023" lon="1.096031">
        <ele>453.013</ele>
        <time>2021-06-20T22:42:20Z</time>
      </trkpt>
      <trkpt lat="41.555011" lon="1.095705">
        <ele>453.208</ele>
        <time>2021-06-20T22:42:25Z</time>
      </trkpt>
      <trkpt lat="41.555019" lon="1.095508">
        <ele>453.210</ele>
        <time>2021-06-20T22:42:28Z</time>
      </trkpt>
      <trkpt lat="41.555014" lon="1.095086">
        <ele>453.819</ele>
        <time>2021-06-20T22:42:35Z</time>
      </trkpt>
      <trkpt lat="41.555007" lon="1.094964">
        <ele>454.436</ele>
        <time>2021-06-20T22:42:38Z</time>
      </trkpt>
      <trkpt lat="41.554999" lon="1.094859">
        <ele>455.428</ele>
        <time>2021-06-20T22:42:41Z</time>
      </trkpt>
      <trkpt lat="41.554997" lon="1.094824">
        <ele>455.852</ele>
        <time>2021-06-20T22:42:42Z</time>
      </trkpt>
      <trkpt lat="41.554993" lon="1.094756">
        <ele>456.643</ele>
        <time>2021-06-20T22:42:44Z</time>
      </trkpt>
      <trkpt lat="41.554978" lon="1.094588">
        <ele>457.873</ele>
        <time>2021-06-20T22:42:49Z</time>
      </trkpt>
      <trkpt lat="41.554979" lon="1.094523">
        <ele>458.011</ele>
        <time>2021-06-20T22:42:51Z</time>
      </trkpt>
      <trkpt lat="41.554996" lon="1.094310">
        <ele>458.819</ele>
        <time>2021-06-20T22:42:58Z</time>
      </trkpt>
      <trkpt lat="41.555004" lon="1.094285">
        <ele>459.009</ele>
        <time>2021-06-20T22:42:59Z</time>
      </trkpt>
      <trkpt lat="41.555015" lon="1.094183">
        <ele>459.619</ele>
        <time>2021-06-20T22:43:04Z</time>
      </trkpt>
      <trkpt lat="41.555003" lon="1.094175">
        <ele>459.808</ele>
        <time>2021-06-20T22:43:05Z</time>
      </trkpt>
      <trkpt lat="41.554991" lon="1.094185">
        <ele>459.878</ele>
        <time>2021-06-20T22:43:06Z</time>
      </trkpt>
      <trkpt lat="41.554979" lon="1.094228">
        <ele>460.017</ele>
        <time>2021-06-20T22:43:08Z</time>
      </trkpt>
      <trkpt lat="41.554974" lon="1.094274">
        <ele>460.244</ele>
        <time>2021-06-20T22:43:10Z</time>
      </trkpt>
      <trkpt lat="41.554966" lon="1.094319">
        <ele>460.456</ele>
        <time>2021-06-20T22:43:12Z</time>
      </trkpt>
      <trkpt lat="41.554968" lon="1.094365">
        <ele>460.630</ele>
        <time>2021-06-20T22:43:14Z</time>
      </trkpt>
      <trkpt lat="41.554960" lon="1.094385">
        <ele>460.631</ele>
        <time>2021-06-20T22:43:15Z</time>
      </trkpt>
      <trkpt lat="41.554951" lon="1.094405">
        <ele>460.881</ele>
        <time>2021-06-20T22:43:16Z</time>
      </trkpt>
      <trkpt lat="41.554918" lon="1.094434">
        <ele>461.629</ele>
        <time>2021-06-20T22:43:19Z</time>
      </trkpt>
      <trkpt lat="41.554904" lon="1.094389">
        <ele>462.274</ele>
        <time>2021-06-20T22:43:22Z</time>
      </trkpt>
      <trkpt lat="41.554894" lon="1.094378">
        <ele>462.456</ele>
        <time>2021-06-20T22:43:23Z</time>
      </trkpt>
      <trkpt lat="41.554884" lon="1.094327">
        <ele>463.021</ele>
        <time>2021-06-20T22:43:26Z</time>
      </trkpt>
      <trkpt lat="41.554881" lon="1.094310">
        <ele>463.208</ele>
        <time>2021-06-20T22:43:27Z</time>
      </trkpt>
      <trkpt lat="41.554874" lon="1.094295">
        <ele>463.434</ele>
        <time>2021-06-20T22:43:28Z</time>
      </trkpt>
      <trkpt lat="41.554811" lon="1.094270">
        <ele>464.243</ele>
        <time>2021-06-20T22:43:33Z</time>
      </trkpt>
      <trkpt lat="41.554802" lon="1.094268">
        <ele>464.430</ele>
        <time>2021-06-20T22:43:34Z</time>
      </trkpt>
      <trkpt lat="41.554795" lon="1.094261">
        <ele>465.042</ele>
        <time>2021-06-20T22:43:37Z</time>
      </trkpt>
      <trkpt lat="41.554772" lon="1.094287">
        <ele>465.856</ele>
        <time>2021-06-20T22:43:50Z</time>
      </trkpt>
      <trkpt lat="41.554763" lon="1.094301">
        <ele>465.837</ele>
        <time>2021-06-20T22:43:51Z</time>
      </trkpt>
      <trkpt lat="41.554731" lon="1.094330">
        <ele>465.877</ele>
        <time>2021-06-20T22:43:54Z</time>
      </trkpt>
      <trkpt lat="41.554723" lon="1.094329">
        <ele>465.895</ele>
        <time>2021-06-20T22:43:55Z</time>
      </trkpt>
      <trkpt lat="41.554717" lon="1.094332">
        <ele>465.883</ele>
        <time>2021-06-20T22:43:56Z</time>
      </trkpt>
      <trkpt lat="41.554704" lon="1.094350">
        <ele>465.825</ele>
        <time>2021-06-20T22:43:59Z</time>
      </trkpt>
      <trkpt lat="41.554702" lon="1.094363">
        <ele>465.817</ele>
        <time>2021-06-20T22:44:01Z</time>
      </trkpt>
      <trkpt lat="41.554701" lon="1.094336">
        <ele>464.008</ele>
        <time>2021-06-20T22:44:17Z</time>
      </trkpt>
      <trkpt lat="41.554699" lon="1.094329">
        <ele>464.075</ele>
        <time>2021-06-20T22:44:18Z</time>
      </trkpt>
      <trkpt lat="41.554701" lon="1.094222">
        <ele>464.874</ele>
        <time>2021-06-20T22:44:23Z</time>
      </trkpt>
      <trkpt lat="41.554702" lon="1.094189">
        <ele>464.841</ele>
        <time>2021-06-20T22:44:24Z</time>
      </trkpt>
      <trkpt lat="41.554705" lon="1.094100">
        <ele>465.453</ele>
        <time>2021-06-20T22:44:28Z</time>
      </trkpt>
      <trkpt lat="41.554707" lon="1.094083">
        <ele>465.427</ele>
        <time>2021-06-20T22:44:29Z</time>
      </trkpt>
      <trkpt lat="41.554706" lon="1.094065">
        <ele>465.658</ele>
        <time>2021-06-20T22:44:30Z</time>
      </trkpt>
      <trkpt lat="41.554705" lon="1.093965">
        <ele>466.098</ele>
        <time>2021-06-20T22:44:35Z</time>
      </trkpt>
      <trkpt lat="41.554729" lon="1.093825">
        <ele>466.476</ele>
        <time>2021-06-20T22:44:40Z</time>
      </trkpt>
      <trkpt lat="41.554696" lon="1.093697">
        <ele>467.082</ele>
        <time>2021-06-20T22:44:45Z</time>
      </trkpt>
      <trkpt lat="41.554675" lon="1.093631">
        <ele>467.043</ele>
        <time>2021-06-20T22:44:48Z</time>
      </trkpt>
      <trkpt lat="41.554662" lon="1.093590">
        <ele>467.017</ele>
        <time>2021-06-20T22:44:50Z</time>
      </trkpt>
      <trkpt lat="41.554647" lon="1.093463">
        <ele>467.008</ele>
        <time>2021-06-20T22:44:55Z</time>
      </trkpt>
      <trkpt lat="41.554752" lon="1.093327">
        <ele>466.275</ele>
        <time>2021-06-20T22:45:02Z</time>
      </trkpt>
      <trkpt lat="41.554746" lon="1.093244">
        <ele>465.614</ele>
        <time>2021-06-20T22:45:06Z</time>
      </trkpt>
      <trkpt lat="41.554725" lon="1.093204">
        <ele>465.421</ele>
        <time>2021-06-20T22:45:08Z</time>
      </trkpt>
      <trkpt lat="41.554681" lon="1.093147">
        <ele>464.423</ele>
        <time>2021-06-20T22:45:11Z</time>
      </trkpt>
      <trkpt lat="41.554629" lon="1.093168">
        <ele>462.837</ele>
        <time>2021-06-20T22:45:14Z</time>
      </trkpt>
      <trkpt lat="41.554614" lon="1.093185">
        <ele>462.248</ele>
        <time>2021-06-20T22:45:15Z</time>
      </trkpt>
      <trkpt lat="41.554595" lon="1.093200">
        <ele>461.618</ele>
        <time>2021-06-20T22:45:16Z</time>
      </trkpt>
      <trkpt lat="41.554594" lon="1.093242">
        <ele>460.456</ele>
        <time>2021-06-20T22:45:18Z</time>
      </trkpt>
      <trkpt lat="41.554589" lon="1.093259">
        <ele>460.245</ele>
        <time>2021-06-20T22:45:19Z</time>
      </trkpt>
      <trkpt lat="41.554555" lon="1.093307">
        <ele>459.247</ele>
        <time>2021-06-20T22:45:22Z</time>
      </trkpt>
      <trkpt lat="41.554548" lon="1.093323">
        <ele>458.611</ele>
        <time>2021-06-20T22:45:24Z</time>
      </trkpt>
      <trkpt lat="41.554539" lon="1.093422">
        <ele>458.208</ele>
        <time>2021-06-20T22:45:29Z</time>
      </trkpt>
      <trkpt lat="41.554530" lon="1.093523">
        <ele>458.211</ele>
        <time>2021-06-20T22:45:35Z</time>
      </trkpt>
      <trkpt lat="41.554540" lon="1.093563">
        <ele>458.490</ele>
        <time>2021-06-20T22:45:37Z</time>
      </trkpt>
      <trkpt lat="41.554555" lon="1.093606">
        <ele>458.697</ele>
        <time>2021-06-20T22:45:39Z</time>
      </trkpt>
      <trkpt lat="41.554560" lon="1.093630">
        <ele>458.639</ele>
        <time>2021-06-20T22:45:40Z</time>
      </trkpt>
      <trkpt lat="41.554574" lon="1.093711">
        <ele>459.263</ele>
        <time>2021-06-20T22:45:43Z</time>
      </trkpt>
      <trkpt lat="41.554582" lon="1.093741">
        <ele>459.434</ele>
        <time>2021-06-20T22:45:44Z</time>
      </trkpt>
      <trkpt lat="41.554597" lon="1.093772">
        <ele>459.634</ele>
        <time>2021-06-20T22:45:46Z</time>
      </trkpt>
      <trkpt lat="41.554608" lon="1.093772">
        <ele>459.692</ele>
        <time>2021-06-20T22:45:47Z</time>
      </trkpt>
      <trkpt lat="41.554596" lon="1.093834">
        <ele>459.695</ele>
        <time>2021-06-20T22:45:51Z</time>
      </trkpt>
      <trkpt lat="41.554578" lon="1.093869">
        <ele>459.649</ele>
        <time>2021-06-20T22:45:53Z</time>
      </trkpt>
      <trkpt lat="41.554579" lon="1.093908">
        <ele>459.223</ele>
        <time>2021-06-20T22:45:56Z</time>
      </trkpt>
      <trkpt lat="41.554641" lon="1.094082">
        <ele>452.495</ele>
        <time>2021-06-21T06:21:32Z</time>
      </trkpt>
      <trkpt lat="41.553243" lon="1.094529">
        <ele>431.849</ele>
        <time>2021-06-21T06:24:01Z</time>
      </trkpt>
      <trkpt lat="41.553140" lon="1.093804">
        <ele>439.823</ele>
        <time>2021-06-21T06:24:40Z</time>
      </trkpt>
      <trkpt lat="41.550787" lon="1.094898">
        <ele>474.408</ele>
        <time>2021-06-21T06:28:55Z</time>
      </trkpt>
      <trkpt lat="41.548758" lon="1.097419">
        <ele>491.616</ele>
        <time>2021-06-21T06:31:09Z</time>
      </trkpt>
      <trkpt lat="41.546927" lon="1.097904">
        <ele>497.085</ele>
        <time>2021-06-21T06:32:20Z</time>
      </trkpt>
      <trkpt lat="41.545254" lon="1.095814">
        <ele>502.493</ele>
        <time>2021-06-21T06:33:32Z</time>
      </trkpt>
      <trkpt lat="41.543973" lon="1.097019">
        <ele>513.678</ele>
        <time>2021-06-21T06:34:46Z</time>
      </trkpt>
      <trkpt lat="41.541961" lon="1.097036">
        <ele>524.463</ele>
        <time>2021-06-21T06:36:19Z</time>
      </trkpt>
      <trkpt lat="41.541112" lon="1.097938">
        <ele>535.467</ele>
        <time>2021-06-21T06:37:20Z</time>
      </trkpt>
      <trkpt lat="41.534085" lon="1.098174">
        <ele>534.028</ele>
        <time>2021-06-21T06:40:37Z</time>
      </trkpt>
      <trkpt lat="41.533493" lon="1.096921">
        <ele>541.065</ele>
        <time>2021-06-21T06:41:30Z</time>
      </trkpt>
      <trkpt lat="41.529515" lon="1.094976">
        <ele>547.655</ele>
        <time>2021-06-21T06:44:16Z</time>
      </trkpt>
      <trkpt lat="41.529632" lon="1.093977">
        <ele>552.607</ele>
        <time>2021-06-21T06:44:52Z</time>
      </trkpt>
      <trkpt lat="41.528513" lon="1.092406">
        <ele>551.017</ele>
        <time>2021-06-21T06:45:43Z</time>
      </trkpt>
      <trkpt lat="41.529176" lon="1.090479">
        <ele>543.208</ele>
        <time>2021-06-21T06:46:54Z</time>
      </trkpt>
      <trkpt lat="41.528694" lon="1.089391">
        <ele>541.272</ele>
        <time>2021-06-21T06:47:22Z</time>
      </trkpt>
      <trkpt lat="41.529195" lon="1.090414">
        <ele>540.411</ele>
        <time>2021-06-21T06:51:07Z</time>
      </trkpt>
      <trkpt lat="41.528316" lon="1.092398">
        <ele>543.829</ele>
        <time>2021-06-21T06:52:18Z</time>
      </trkpt>
      <trkpt lat="41.527180" lon="1.090377">
        <ele>529.254</ele>
        <time>2021-06-21T06:52:59Z</time>
      </trkpt>
      <trkpt lat="41.525898" lon="1.091057">
        <ele>531.259</ele>
        <time>2021-06-21T06:53:44Z</time>
      </trkpt>
      <trkpt lat="41.527104" lon="1.089902">
        <ele>512.473</ele>
        <time>2021-06-21T06:54:13Z</time>
      </trkpt>
      <trkpt lat="41.525092" lon="1.089771">
        <ele>492.234</ele>
        <time>2021-06-21T06:54:56Z</time>
      </trkpt>
      <trkpt lat="41.525644" lon="1.089163">
        <ele>484.691</ele>
        <time>2021-06-21T06:55:25Z</time>
      </trkpt>
      <trkpt lat="41.525067" lon="1.088580">
        <ele>477.642</ele>
        <time>2021-06-21T06:55:45Z</time>
      </trkpt>
      <trkpt lat="41.525726" lon="1.086679">
        <ele>469.222</ele>
        <time>2021-06-21T06:56:36Z</time>
      </trkpt>
      <trkpt lat="41.523761" lon="1.084955">
        <ele>502.014</ele>
        <time>2021-06-21T06:59:20Z</time>
      </trkpt>
      <trkpt lat="41.524080" lon="1.082229">
        <ele>513.408</ele>
        <time>2021-06-21T07:00:48Z</time>
      </trkpt>
      <trkpt lat="41.523215" lon="1.085356">
        <ele>521.221</ele>
        <time>2021-06-21T07:02:32Z</time>
      </trkpt>
      <trkpt lat="41.520115" lon="1.089495">
        <ele>546.070</ele>
        <time>2021-06-21T07:22:47Z</time>
      </trkpt>
      <trkpt lat="41.519862" lon="1.091266">
        <ele>548.038</ele>
        <time>2021-06-21T07:23:29Z</time>
      </trkpt>
      <trkpt lat="41.515468" lon="1.092925">
        <ele>562.253</ele>
        <time>2021-06-21T07:26:02Z</time>
      </trkpt>
      <trkpt lat="41.511032" lon="1.096328">
        <ele>577.088</ele>
        <time>2021-06-21T07:28:53Z</time>
      </trkpt>
      <trkpt lat="41.508717" lon="1.096062">
        <ele>586.072</ele>
        <time>2021-06-21T07:30:11Z</time>
      </trkpt>
      <trkpt lat="41.505436" lon="1.100608">
        <ele>601.043</ele>
        <time>2021-06-21T07:32:43Z</time>
      </trkpt>
      <trkpt lat="41.504854" lon="1.102693">
        <ele>605.070</ele>
        <time>2021-06-21T07:33:38Z</time>
      </trkpt>
      <trkpt lat="41.501004" lon="1.107766">
        <ele>629.051</ele>
        <time>2021-06-21T07:36:51Z</time>
      </trkpt>
      <trkpt lat="41.499559" lon="1.111884">
        <ele>646.401</ele>
        <time>2021-06-21T07:39:02Z</time>
      </trkpt>
      <trkpt lat="41.498095" lon="1.113050">
        <ele>648.811</ele>
        <time>2021-06-21T07:40:02Z</time>
      </trkpt>
      <trkpt lat="41.497613" lon="1.111953">
        <ele>644.208</ele>
        <time>2021-06-21T07:40:27Z</time>
      </trkpt>
      <trkpt lat="41.496768" lon="1.112357">
        <ele>639.612</ele>
        <time>2021-06-21T07:40:46Z</time>
      </trkpt>
      <trkpt lat="41.494779" lon="1.116640">
        <ele>617.481</ele>
        <time>2021-06-21T07:42:06Z</time>
      </trkpt>
      <trkpt lat="41.493929" lon="1.114877">
        <ele>625.859</ele>
        <time>2021-06-21T07:43:26Z</time>
      </trkpt>
      <trkpt lat="41.493886" lon="1.115514">
        <ele>630.074</ele>
        <time>2021-06-21T07:44:01Z</time>
      </trkpt>
      <trkpt lat="41.493983" lon="1.114904">
        <ele>626.259</ele>
        <time>2021-06-21T07:44:35Z</time>
      </trkpt>
      <trkpt lat="41.492806" lon="1.116219">
        <ele>626.883</ele>
        <time>2021-06-21T07:45:36Z</time>
      </trkpt>
      <trkpt lat="41.492050" lon="1.118868">
        <ele>632.634</ele>
        <time>2021-06-21T07:46:43Z</time>
      </trkpt>
      <trkpt lat="41.489562" lon="1.120649">
        <ele>639.821</ele>
        <time>2021-06-21T07:48:06Z</time>
      </trkpt>
      <trkpt lat="41.484840" lon="1.121308">
        <ele>654.417</ele>
        <time>2021-06-21T07:50:33Z</time>
      </trkpt>
      <trkpt lat="41.481715" lon="1.123827">
        <ele>670.087</ele>
        <time>2021-06-21T07:52:46Z</time>
      </trkpt>
      <trkpt lat="41.478346" lon="1.122284">
        <ele>687.815</ele>
        <time>2021-06-21T07:57:45Z</time>
      </trkpt>
      <trkpt lat="41.476173" lon="1.123521">
        <ele>699.408</ele>
        <time>2021-06-21T07:59:19Z</time>
      </trkpt>
      <trkpt lat="41.473291" lon="1.123707">
        <ele>715.038</ele>
        <time>2021-06-21T08:01:15Z</time>
      </trkpt>
      <trkpt lat="41.472192" lon="1.125725">
        <ele>706.247</ele>
        <time>2021-06-21T08:02:13Z</time>
      </trkpt>
      <trkpt lat="41.472303" lon="1.128018">
        <ele>693.425</ele>
        <time>2021-06-21T08:02:31Z</time>
      </trkpt>
      <trkpt lat="41.470666" lon="1.131008">
        <ele>674.890</ele>
        <time>2021-06-21T08:03:07Z</time>
      </trkpt>
      <trkpt lat="41.470711" lon="1.129665">
        <ele>663.825</ele>
        <time>2021-06-21T08:03:21Z</time>
      </trkpt>
      <trkpt lat="41.469542" lon="1.127654">
        <ele>656.669</ele>
        <time>2021-06-21T08:03:43Z</time>
      </trkpt>
      <trkpt lat="41.469425" lon="1.130058">
        <ele>640.490</ele>
        <time>2021-06-21T08:04:07Z</time>
      </trkpt>
      <trkpt lat="41.465026" lon="1.128953">
        <ele>620.647</ele>
        <time>2021-06-21T08:05:05Z</time>
      </trkpt>
      <trkpt lat="41.464345" lon="1.130154">
        <ele>613.093</ele>
        <time>2021-06-21T08:05:18Z</time>
      </trkpt>
      <trkpt lat="41.463264" lon="1.130250">
        <ele>605.465</ele>
        <time>2021-06-21T08:05:57Z</time>
      </trkpt>
      <trkpt lat="41.464636" lon="1.127140">
        <ele>580.421</ele>
        <time>2021-06-21T08:06:52Z</time>
      </trkpt>
      <trkpt lat="41.461998" lon="1.129804">
        <ele>562.008</ele>
        <time>2021-06-21T08:07:52Z</time>
      </trkpt>
      <trkpt lat="41.459450" lon="1.128511">
        <ele>547.656</ele>
        <time>2021-06-21T08:08:49Z</time>
      </trkpt>
      <trkpt lat="41.458502" lon="1.126906">
        <ele>539.435</ele>
        <time>2021-06-21T08:09:18Z</time>
      </trkpt>
      <trkpt lat="41.455186" lon="1.126147">
        <ele>523.293</ele>
        <time>2021-06-21T08:10:29Z</time>
      </trkpt>
      <trkpt lat="41.452192" lon="1.128234">
        <ele>507.688</ele>
        <time>2021-06-21T08:11:27Z</time>
      </trkpt>
      <trkpt lat="41.448397" lon="1.128715">
        <ele>493.633</ele>
        <time>2021-06-21T08:12:25Z</time>
      </trkpt>
      <trkpt lat="41.445907" lon="1.131055">
        <ele>479.817</ele>
        <time>2021-06-21T08:13:23Z</time>
      </trkpt>
      <trkpt lat="41.446050" lon="1.130349">
        <ele>477.648</ele>
        <time>2021-06-21T08:13:36Z</time>
      </trkpt>
      <trkpt lat="41.442267" lon="1.127906">
        <ele>483.245</ele>
        <time>2021-06-21T08:15:48Z</time>
      </trkpt>
      <trkpt lat="41.439365" lon="1.124554">
        <ele>462.095</ele>
        <time>2021-06-21T08:16:54Z</time>
      </trkpt>
      <trkpt lat="41.435146" lon="1.123361">
        <ele>447.849</ele>
        <time>2021-06-21T08:18:16Z</time>
      </trkpt>
      <trkpt lat="41.432605" lon="1.124236">
        <ele>440.623</ele>
        <time>2021-06-21T08:18:57Z</time>
      </trkpt>
      <trkpt lat="41.429182" lon="1.122461">
        <ele>429.208</ele>
        <time>2021-06-21T08:19:53Z</time>
      </trkpt>
      <trkpt lat="41.422387" lon="1.122032">
        <ele>423.636</ele>
        <time>2021-06-21T08:21:43Z</time>
      </trkpt>
      <trkpt lat="41.420767" lon="1.120364">
        <ele>422.495</ele>
        <time>2021-06-21T08:22:26Z</time>
      </trkpt>
      <trkpt lat="41.419484" lon="1.121633">
        <ele>423.223</ele>
        <time>2021-06-21T08:23:04Z</time>
      </trkpt>
      <trkpt lat="41.416731" lon="1.122013">
        <ele>410.818</ele>
        <time>2021-06-21T08:24:04Z</time>
      </trkpt>
      <trkpt lat="41.415085" lon="1.123510">
        <ele>402.893</ele>
        <time>2021-06-21T08:24:35Z</time>
      </trkpt>
      <trkpt lat="41.413537" lon="1.123177">
        <ele>408.647</ele>
        <time>2021-06-21T08:25:46Z</time>
      </trkpt>
      <trkpt lat="41.413024" lon="1.121377">
        <ele>404.418</ele>
        <time>2021-06-21T08:26:36Z</time>
      </trkpt>
      <trkpt lat="41.411395" lon="1.120003">
        <ele>411.665</ele>
        <time>2021-06-21T08:28:12Z</time>
      </trkpt>
      <trkpt lat="41.410567" lon="1.115455">
        <ele>391.673</ele>
        <time>2021-06-21T08:30:03Z</time>
      </trkpt>
      <trkpt lat="41.407014" lon="1.112506">
        <ele>408.285</ele>
        <time>2021-06-21T08:33:49Z</time>
      </trkpt>
      <trkpt lat="41.408001" lon="1.108165">
        <ele>404.413</ele>
        <time>2021-06-21T08:35:12Z</time>
      </trkpt>
      <trkpt lat="41.406583" lon="1.107465">
        <ele>412.808</ele>
        <time>2021-06-21T08:36:14Z</time>
      </trkpt>
      <trkpt lat="41.403071" lon="1.108189">
        <ele>422.064</ele>
        <time>2021-06-21T08:38:10Z</time>
      </trkpt>
      <trkpt lat="41.400888" lon="1.107242">
        <ele>422.473</ele>
        <time>2021-06-21T08:39:41Z</time>
      </trkpt>
      <trkpt lat="41.400610" lon="1.105815">
        <ele>421.411</ele>
        <time>2021-06-21T08:40:20Z</time>
      </trkpt>
      <trkpt lat="41.397832" lon="1.104819">
        <ele>401.466</ele>
        <time>2021-06-21T08:41:14Z</time>
      </trkpt>
      <trkpt lat="41.398309" lon="1.102596">
        <ele>410.831</ele>
        <time>2021-06-21T08:42:11Z</time>
      </trkpt>
      <trkpt lat="41.397452" lon="1.099784">
        <ele>417.875</ele>
        <time>2021-06-21T08:43:24Z</time>
      </trkpt>
      <trkpt lat="41.394617" lon="1.098511">
        <ele>419.226</ele>
        <time>2021-06-21T08:47:39Z</time>
      </trkpt>
      <trkpt lat="41.395021" lon="1.099178">
        <ele>419.213</ele>
        <time>2021-06-21T08:48:06Z</time>
      </trkpt>
      <trkpt lat="41.394956" lon="1.098399">
        <ele>421.019</ele>
        <time>2021-06-21T08:51:54Z</time>
      </trkpt>
      <trkpt lat="41.393717" lon="1.098353">
        <ele>421.209</ele>
        <time>2021-06-21T08:52:31Z</time>
      </trkpt>
      <trkpt lat="41.391489" lon="1.094048">
        <ele>433.419</ele>
        <time>2021-06-21T08:55:09Z</time>
      </trkpt>
      <trkpt lat="41.388998" lon="1.091717">
        <ele>450.808</ele>
        <time>2021-06-21T08:57:09Z</time>
      </trkpt>
      <trkpt lat="41.386112" lon="1.090768">
        <ele>470.698</ele>
        <time>2021-06-21T08:59:23Z</time>
      </trkpt>
      <trkpt lat="41.377939" lon="1.091232">
        <ele>523.277</ele>
        <time>2021-06-21T09:04:54Z</time>
      </trkpt>
      <trkpt lat="41.376264" lon="1.088523">
        <ele>522.285</ele>
        <time>2021-06-21T09:05:59Z</time>
      </trkpt>
      <trkpt lat="41.377832" lon="1.086954">
        <ele>513.460</ele>
        <time>2021-06-21T09:06:25Z</time>
      </trkpt>
      <trkpt lat="41.380165" lon="1.080066">
        <ele>493.885</ele>
        <time>2021-06-21T09:07:45Z</time>
      </trkpt>
      <trkpt lat="41.377882" lon="1.074069">
        <ele>514.859</ele>
        <time>2021-06-21T09:10:32Z</time>
      </trkpt>
      <trkpt lat="41.373557" lon="1.065955">
        <ele>535.050</ele>
        <time>2021-06-21T09:14:00Z</time>
      </trkpt>
      <trkpt lat="41.370952" lon="1.063909">
        <ele>548.637</ele>
        <time>2021-06-21T09:15:31Z</time>
      </trkpt>
      <trkpt lat="41.370113" lon="1.061744">
        <ele>551.659</ele>
        <time>2021-06-21T09:16:16Z</time>
      </trkpt>
      <trkpt lat="41.367377" lon="1.060621">
        <ele>549.603</ele>
        <time>2021-06-21T09:17:06Z</time>
      </trkpt>
      <trkpt lat="41.366718" lon="1.055967">
        <ele>555.023</ele>
        <time>2021-06-21T09:18:14Z</time>
      </trkpt>
      <trkpt lat="41.366661" lon="1.057610">
        <ele>552.008</ele>
        <time>2021-06-21T09:18:41Z</time>
      </trkpt>
      <trkpt lat="41.363542" lon="1.061148">
        <ele>559.462</ele>
        <time>2021-06-21T09:20:49Z</time>
      </trkpt>
      <trkpt lat="41.362211" lon="1.059481">
        <ele>567.211</ele>
        <time>2021-06-21T09:22:02Z</time>
      </trkpt>
      <trkpt lat="41.359366" lon="1.061807">
        <ele>588.099</ele>
        <time>2021-06-21T09:24:25Z</time>
      </trkpt>
      <trkpt lat="41.357720" lon="1.060308">
        <ele>599.424</ele>
        <time>2021-06-21T09:25:52Z</time>
      </trkpt>
      <trkpt lat="41.356216" lon="1.061165">
        <ele>609.829</ele>
        <time>2021-06-21T09:27:03Z</time>
      </trkpt>
      <trkpt lat="41.355612" lon="1.060317">
        <ele>616.223</ele>
        <time>2021-06-21T09:32:07Z</time>
      </trkpt>
      <trkpt lat="41.354532" lon="1.061965">
        <ele>628.644</ele>
        <time>2021-06-21T09:33:27Z</time>
      </trkpt>
      <trkpt lat="41.352015" lon="1.060005">
        <ele>653.011</ele>
        <time>2021-06-21T09:36:06Z</time>
      </trkpt>
      <trkpt lat="41.350425" lon="1.060243">
        <ele>663.284</ele>
        <time>2021-06-21T09:37:23Z</time>
      </trkpt>
      <trkpt lat="41.348088" lon="1.058035">
        <ele>685.207</ele>
        <time>2021-06-21T09:39:58Z</time>
      </trkpt>
      <trkpt lat="41.344182" lon="1.058319">
        <ele>698.817</ele>
        <time>2021-06-21T09:42:43Z</time>
      </trkpt>
      <trkpt lat="41.337745" lon="1.055861">
        <ele>740.608</ele>
        <time>2021-06-21T09:48:19Z</time>
      </trkpt>
      <trkpt lat="41.335860" lon="1.053440">
        <ele>758.055</ele>
        <time>2021-06-21T09:52:29Z</time>
      </trkpt>
      <trkpt lat="41.332815" lon="1.055764">
        <ele>792.674</ele>
        <time>2021-06-21T09:57:18Z</time>
      </trkpt>
      <trkpt lat="41.333912" lon="1.055940">
        <ele>801.032</ele>
        <time>2021-06-21T09:58:27Z</time>
      </trkpt>
      <trkpt lat="41.332368" lon="1.056687">
        <ele>814.297</ele>
        <time>2021-06-21T10:00:08Z</time>
      </trkpt>
      <trkpt lat="41.331199" lon="1.055803">
        <ele>822.612</ele>
        <time>2021-06-21T10:01:33Z</time>
      </trkpt>
      <trkpt lat="41.330616" lon="1.050933">
        <ele>849.226</ele>
        <time>2021-06-21T10:05:28Z</time>
      </trkpt>
      <trkpt lat="41.328818" lon="1.044707">
        <ele>890.227</ele>
        <time>2021-06-21T10:11:25Z</time>
      </trkpt>
      <trkpt lat="41.330863" lon="1.046989">
        <ele>909.094</ele>
        <time>2021-06-21T10:15:07Z</time>
      </trkpt>
      <trkpt lat="41.330954" lon="1.045121">
        <ele>919.852</ele>
        <time>2021-06-21T10:16:35Z</time>
      </trkpt>
      <trkpt lat="41.333466" lon="1.044754">
        <ele>937.253</ele>
        <time>2021-06-21T10:19:06Z</time>
      </trkpt>
      <trkpt lat="41.333950" lon="1.046213">
        <ele>944.008</ele>
        <time>2021-06-21T10:20:09Z</time>
      </trkpt>
      <trkpt lat="41.335701" lon="1.047514">
        <ele>957.208</ele>
        <time>2021-06-21T10:21:58Z</time>
      </trkpt>
      <trkpt lat="41.336795" lon="1.045438">
        <ele>969.892</ele>
        <time>2021-06-21T10:23:37Z</time>
      </trkpt>
      <trkpt lat="41.340098" lon="1.046790">
        <ele>980.041</ele>
        <time>2021-06-21T10:26:08Z</time>
      </trkpt>
      <trkpt lat="41.338767" lon="1.042833">
        <ele>967.019</ele>
        <time>2021-06-21T10:29:50Z</time>
      </trkpt>
      <trkpt lat="41.336126" lon="1.040071">
        <ele>953.664</ele>
        <time>2021-06-21T10:30:59Z</time>
      </trkpt>
      <trkpt lat="41.334324" lon="1.040139">
        <ele>942.479</ele>
        <time>2021-06-21T10:31:34Z</time>
      </trkpt>
      <trkpt lat="41.333098" lon="1.037938">
        <ele>932.233</ele>
        <time>2021-06-21T10:32:11Z</time>
      </trkpt>
      <trkpt lat="41.334548" lon="1.033951">
        <ele>917.014</ele>
        <time>2021-06-21T10:33:21Z</time>
      </trkpt>
      <trkpt lat="41.331820" lon="1.030373">
        <ele>899.021</ele>
        <time>2021-06-21T10:34:41Z</time>
      </trkpt>
      <trkpt lat="41.332912" lon="1.029818">
        <ele>896.869</ele>
        <time>2021-06-21T10:35:12Z</time>
      </trkpt>
      <trkpt lat="41.332861" lon="1.027469">
        <ele>892.404</ele>
        <time>2021-06-21T10:35:50Z</time>
      </trkpt>
      <trkpt lat="41.336578" lon="1.029874">
        <ele>897.424</ele>
        <time>2021-06-21T10:38:07Z</time>
      </trkpt>
      <trkpt lat="41.337512" lon="1.029511">
        <ele>899.408</ele>
        <time>2021-06-21T10:38:36Z</time>
      </trkpt>
      <trkpt lat="41.338800" lon="1.031493">
        <ele>903.883</ele>
        <time>2021-06-21T10:39:37Z</time>
      </trkpt>
      <trkpt lat="41.340021" lon="1.030459">
        <ele>908.232</ele>
        <time>2021-06-21T10:40:23Z</time>
      </trkpt>
      <trkpt lat="41.343026" lon="1.032457">
        <ele>916.230</ele>
        <time>2021-06-21T10:42:08Z</time>
      </trkpt>
      <trkpt lat="41.343240" lon="1.033924">
        <ele>917.815</ele>
        <time>2021-06-21T10:42:41Z</time>
      </trkpt>
      <trkpt lat="41.345025" lon="1.034736">
        <ele>920.890</ele>
        <time>2021-06-21T10:43:29Z</time>
      </trkpt>
      <trkpt lat="41.346257" lon="1.033345">
        <ele>923.674</ele>
        <time>2021-06-21T10:44:11Z</time>
      </trkpt>
      <trkpt lat="41.346132" lon="1.032097">
        <ele>924.495</ele>
        <time>2021-06-21T10:44:34Z</time>
      </trkpt>
      <trkpt lat="41.343791" lon="1.028966">
        <ele>918.812</ele>
        <time>2021-06-21T10:45:33Z</time>
      </trkpt>
      <trkpt lat="41.343742" lon="1.026865">
        <ele>915.092</ele>
        <time>2021-06-21T10:45:58Z</time>
      </trkpt>
      <trkpt lat="41.341607" lon="1.026350">
        <ele>912.873</ele>
        <time>2021-06-21T10:46:36Z</time>
      </trkpt>
      <trkpt lat="41.341594" lon="1.024814">
        <ele>910.820</ele>
        <time>2021-06-21T10:46:57Z</time>
      </trkpt>
      <trkpt lat="41.340600" lon="1.024373">
        <ele>910.008</ele>
        <time>2021-06-21T10:47:16Z</time>
      </trkpt>
      <trkpt lat="41.340641" lon="1.023311">
        <ele>909.666</ele>
        <time>2021-06-21T10:47:39Z</time>
      </trkpt>
      <trkpt lat="41.339152" lon="1.022922">
        <ele>908.625</ele>
        <time>2021-06-21T10:48:11Z</time>
      </trkpt>
      <trkpt lat="41.339656" lon="1.020990">
        <ele>906.463</ele>
        <time>2021-06-21T10:48:50Z</time>
      </trkpt>
      <trkpt lat="41.337145" lon="1.020137">
        <ele>901.668</ele>
        <time>2021-06-21T10:49:39Z</time>
      </trkpt>
      <trkpt lat="41.338001" lon="1.017891">
        <ele>901.633</ele>
        <time>2021-06-21T10:50:38Z</time>
      </trkpt>
      <trkpt lat="41.337028" lon="1.017149">
        <ele>899.037</ele>
        <time>2021-06-21T10:51:01Z</time>
      </trkpt>
      <trkpt lat="41.337045" lon="1.015417">
        <ele>899.858</ele>
        <time>2021-06-21T10:51:48Z</time>
      </trkpt>
      <trkpt lat="41.334174" lon="1.013842">
        <ele>896.835</ele>
        <time>2021-06-21T10:52:52Z</time>
      </trkpt>
      <trkpt lat="41.332513" lon="1.009479">
        <ele>888.619</ele>
        <time>2021-06-21T10:54:20Z</time>
      </trkpt>
      <trkpt lat="41.334464" lon="1.010245">
        <ele>879.209</ele>
        <time>2021-06-21T10:55:14Z</time>
      </trkpt>
      <trkpt lat="41.334777" lon="1.009403">
        <ele>880.819</ele>
        <time>2021-06-21T10:55:55Z</time>
      </trkpt>
      <trkpt lat="41.335829" lon="1.010213">
        <ele>884.408</ele>
        <time>2021-06-21T10:56:48Z</time>
      </trkpt>
      <trkpt lat="41.337164" lon="1.009464">
        <ele>895.048</ele>
        <time>2021-06-21T11:01:42Z</time>
      </trkpt>
      <trkpt lat="41.336000" lon="1.009800">
        <ele>899.627</ele>
        <time>2021-06-21T11:02:32Z</time>
      </trkpt>
      <trkpt lat="41.335222" lon="1.008268">
        <ele>906.455</ele>
        <time>2021-06-21T11:03:19Z</time>
      </trkpt>
      <trkpt lat="41.333657" lon="1.008453">
        <ele>913.090</ele>
        <time>2021-06-21T11:04:17Z</time>
      </trkpt>
      <trkpt lat="41.335174" lon="1.007732">
        <ele>922.095</ele>
        <time>2021-06-21T11:05:24Z</time>
      </trkpt>
      <trkpt lat="41.336337" lon="1.008927">
        <ele>928.449</ele>
        <time>2021-06-21T11:06:18Z</time>
      </trkpt>
      <trkpt lat="41.342551" lon="1.003956">
        <ele>959.490</ele>
        <time>2021-06-21T11:10:26Z</time>
      </trkpt>
      <trkpt lat="41.341234" lon="1.003653">
        <ele>961.817</ele>
        <time>2021-06-21T11:11:05Z</time>
      </trkpt>
      <trkpt lat="41.340526" lon="1.001842">
        <ele>965.678</ele>
        <time>2021-06-21T11:11:49Z</time>
      </trkpt>
      <trkpt lat="41.337501" lon="1.001756">
        <ele>976.633</ele>
        <time>2021-06-21T11:13:16Z</time>
      </trkpt>
      <trkpt lat="41.338295" lon="0.999398">
        <ele>980.026</ele>
        <time>2021-06-21T11:14:10Z</time>
      </trkpt>
      <trkpt lat="41.337238" lon="0.992535">
        <ele>987.208</ele>
        <time>2021-06-21T11:16:11Z</time>
      </trkpt>
      <trkpt lat="41.335086" lon="0.991656">
        <ele>991.684</ele>
        <time>2021-06-21T11:17:08Z</time>
      </trkpt>
      <trkpt lat="41.333368" lon="0.993663">
        <ele>999.673</ele>
        <time>2021-06-21T11:18:13Z</time>
      </trkpt>
      <trkpt lat="41.330126" lon="0.993395">
        <ele>1008.651</ele>
        <time>2021-06-21T11:20:04Z</time>
      </trkpt>
      <trkpt lat="41.327896" lon="0.991281">
        <ele>999.476</ele>
        <time>2021-06-21T11:22:10Z</time>
      </trkpt>
      <trkpt lat="41.326982" lon="0.988304">
        <ele>991.031</ele>
        <time>2021-06-21T11:22:52Z</time>
      </trkpt>
      <trkpt lat="41.325454" lon="0.987787">
        <ele>986.865</ele>
        <time>2021-06-21T11:23:13Z</time>
      </trkpt>
      <trkpt lat="41.324706" lon="0.989746">
        <ele>983.286</ele>
        <time>2021-06-21T11:23:35Z</time>
      </trkpt>
      <trkpt lat="41.323069" lon="0.990662">
        <ele>973.873</ele>
        <time>2021-06-21T11:23:55Z</time>
      </trkpt>
      <trkpt lat="41.322208" lon="0.995285">
        <ele>961.234</ele>
        <time>2021-06-21T11:24:38Z</time>
      </trkpt>
      <trkpt lat="41.318827" lon="0.989948">
        <ele>945.055</ele>
        <time>2021-06-21T11:25:41Z</time>
      </trkpt>
      <trkpt lat="41.316640" lon="0.987960">
        <ele>935.010</ele>
        <time>2021-06-21T11:26:12Z</time>
      </trkpt>
      <trkpt lat="41.314722" lon="0.988335">
        <ele>933.408</ele>
        <time>2021-06-21T11:26:38Z</time>
      </trkpt>
      <trkpt lat="41.313264" lon="0.986655">
        <ele>930.410</ele>
        <time>2021-06-21T11:27:03Z</time>
      </trkpt>
      <trkpt lat="41.311349" lon="0.988696">
        <ele>924.889</ele>
        <time>2021-06-21T11:27:36Z</time>
      </trkpt>
      <trkpt lat="41.309395" lon="0.988531">
        <ele>931.287</ele>
        <time>2021-06-21T11:28:27Z</time>
      </trkpt>
      <trkpt lat="41.309668" lon="0.987530">
        <ele>1022.062</ele>
        <time>2021-06-21T12:09:31Z</time>
      </trkpt>
      <trkpt lat="41.309579" lon="0.988599">
        <ele>931.087</ele>
        <time>2021-06-21T12:13:55Z</time>
      </trkpt>
      <trkpt lat="41.311055" lon="0.989366">
        <ele>923.021</ele>
        <time>2021-06-21T12:15:47Z</time>
      </trkpt>
      <trkpt lat="41.308884" lon="0.987771">
        <ele>927.222</ele>
        <time>2021-06-21T12:19:07Z</time>
      </trkpt>
      <trkpt lat="41.308792" lon="0.984445">
        <ele>917.839</ele>
        <time>2021-06-21T12:19:47Z</time>
      </trkpt>
      <trkpt lat="41.310327" lon="0.983264">
        <ele>913.872</ele>
        <time>2021-06-21T12:20:12Z</time>
      </trkpt>
      <trkpt lat="41.311014" lon="0.979880">
        <ele>903.413</ele>
        <time>2021-06-21T12:20:46Z</time>
      </trkpt>
      <trkpt lat="41.313804" lon="0.976153">
        <ele>909.214</ele>
        <time>2021-06-21T12:22:07Z</time>
      </trkpt>
      <trkpt lat="41.313943" lon="0.971330">
        <ele>914.008</ele>
        <time>2021-06-21T12:23:19Z</time>
      </trkpt>
      <trkpt lat="41.313346" lon="0.969745">
        <ele>914.094</ele>
        <time>2021-06-21T12:23:45Z</time>
      </trkpt>
      <trkpt lat="41.313659" lon="0.966285">
        <ele>921.853</ele>
        <time>2021-06-21T12:25:01Z</time>
      </trkpt>
      <trkpt lat="41.312527" lon="0.963676">
        <ele>927.051</ele>
        <time>2021-06-21T12:26:21Z</time>
      </trkpt>
      <trkpt lat="41.312785" lon="0.964206">
        <ele>929.256</ele>
        <time>2021-06-21T12:26:45Z</time>
      </trkpt>
      <trkpt lat="41.308590" lon="0.963632">
        <ele>921.081</ele>
        <time>2021-06-21T12:28:53Z</time>
      </trkpt>
      <trkpt lat="41.305703" lon="0.961374">
        <ele>944.665</ele>
        <time>2021-06-21T12:32:20Z</time>
      </trkpt>
      <trkpt lat="41.303611" lon="0.961253">
        <ele>954.086</ele>
        <time>2021-06-21T12:34:23Z</time>
      </trkpt>
      <trkpt lat="41.302904" lon="0.960360">
        <ele>948.073</ele>
        <time>2021-06-21T12:34:44Z</time>
      </trkpt>
      <trkpt lat="41.302121" lon="0.960768">
        <ele>953.086</ele>
        <time>2021-06-21T12:35:21Z</time>
      </trkpt>
      <trkpt lat="41.299033" lon="0.954675">
        <ele>919.260</ele>
        <time>2021-06-21T12:37:29Z</time>
      </trkpt>
      <trkpt lat="41.299729" lon="0.950720">
        <ele>871.626</ele>
        <time>2021-06-21T12:38:44Z</time>
      </trkpt>
      <trkpt lat="41.298344" lon="0.953137">
        <ele>863.008</ele>
        <time>2021-06-21T12:39:45Z</time>
      </trkpt>
      <trkpt lat="41.295195" lon="0.948161">
        <ele>843.295</ele>
        <time>2021-06-21T12:42:58Z</time>
      </trkpt>
      <trkpt lat="41.296651" lon="0.947220">
        <ele>829.024</ele>
        <time>2021-06-21T12:43:39Z</time>
      </trkpt>
      <trkpt lat="41.297267" lon="0.945293">
        <ele>803.082</ele>
        <time>2021-06-21T12:44:33Z</time>
      </trkpt>
      <trkpt lat="41.296097" lon="0.946222">
        <ele>785.217</ele>
        <time>2021-06-21T12:45:06Z</time>
      </trkpt>
      <trkpt lat="41.294227" lon="0.943705">
        <ele>746.622</ele>
        <time>2021-06-21T12:46:08Z</time>
      </trkpt>
      <trkpt lat="41.295299" lon="0.939876">
        <ele>726.676</ele>
        <time>2021-06-21T12:47:36Z</time>
      </trkpt>
      <trkpt lat="41.294250" lon="0.939245">
        <ele>710.477</ele>
        <time>2021-06-21T12:48:12Z</time>
      </trkpt>
      <trkpt lat="41.294294" lon="0.937831">
        <ele>699.894</ele>
        <time>2021-06-21T12:48:39Z</time>
      </trkpt>
      <trkpt lat="41.290942" lon="0.935847">
        <ele>667.413</ele>
        <time>2021-06-21T12:50:22Z</time>
      </trkpt>
      <trkpt lat="41.290826" lon="0.933259">
        <ele>657.843</ele>
        <time>2021-06-21T12:50:59Z</time>
      </trkpt>
      <trkpt lat="41.288140" lon="0.930111">
        <ele>602.607</ele>
        <time>2021-06-21T12:52:25Z</time>
      </trkpt>
      <trkpt lat="41.287433" lon="0.927178">
        <ele>570.608</ele>
        <time>2021-06-21T12:53:21Z</time>
      </trkpt>
      <trkpt lat="41.282804" lon="0.924440">
        <ele>560.098</ele>
        <time>2021-06-21T12:59:57Z</time>
      </trkpt>
      <trkpt lat="41.280748" lon="0.925559">
        <ele>539.027</ele>
        <time>2021-06-21T13:00:57Z</time>
      </trkpt>
      <trkpt lat="41.280083" lon="0.924945">
        <ele>541.445</ele>
        <time>2021-06-21T13:01:30Z</time>
      </trkpt>
      <trkpt lat="41.277190" lon="0.926527">
        <ele>541.840</ele>
        <time>2021-06-21T13:02:57Z</time>
      </trkpt>
      <trkpt lat="41.273051" lon="0.919395">
        <ele>524.645</ele>
        <time>2021-06-21T13:07:07Z</time>
      </trkpt>
      <trkpt lat="41.268563" lon="0.915266">
        <ele>519.889</ele>
        <time>2021-06-21T13:10:38Z</time>
      </trkpt>
      <trkpt lat="41.264976" lon="0.908208">
        <ele>516.870</ele>
        <time>2021-06-21T13:13:22Z</time>
      </trkpt>
      <trkpt lat="41.264791" lon="0.904904">
        <ele>527.057</ele>
        <time>2021-06-21T13:14:48Z</time>
      </trkpt>
      <trkpt lat="41.262511" lon="0.903619">
        <ele>513.633</ele>
        <time>2021-06-21T13:15:21Z</time>
      </trkpt>
      <trkpt lat="41.260113" lon="0.904923">
        <ele>498.223</ele>
        <time>2021-06-21T13:15:48Z</time>
      </trkpt>
      <trkpt lat="41.253936" lon="0.898697">
        <ele>468.615</ele>
        <time>2021-06-21T13:17:38Z</time>
      </trkpt>
      <trkpt lat="41.253593" lon="0.896134">
        <ele>460.608</ele>
        <time>2021-06-21T13:18:10Z</time>
      </trkpt>
      <trkpt lat="41.251704" lon="0.894186">
        <ele>466.270</ele>
        <time>2021-06-21T13:19:35Z</time>
      </trkpt>
      <trkpt lat="41.250730" lon="0.890041">
        <ele>473.449</ele>
        <time>2021-06-21T13:21:59Z</time>
      </trkpt>
      <trkpt lat="41.249920" lon="0.889432">
        <ele>474.427</ele>
        <time>2021-06-21T13:22:33Z</time>
      </trkpt>
      <trkpt lat="41.250573" lon="0.889767">
        <ele>473.412</ele>
        <time>2021-06-21T13:23:00Z</time>
      </trkpt>
      <trkpt lat="41.249623" lon="0.888666">
        <ele>463.667</ele>
        <time>2021-06-21T13:23:29Z</time>
      </trkpt>
      <trkpt lat="41.248749" lon="0.882222">
        <ele>454.071</ele>
        <time>2021-06-21T13:26:06Z</time>
      </trkpt>
      <trkpt lat="41.249801" lon="0.879555">
        <ele>458.832</ele>
        <time>2021-06-21T13:27:20Z</time>
      </trkpt>
      <trkpt lat="41.247695" lon="0.873211">
        <ele>467.429</ele>
        <time>2021-06-21T13:30:19Z</time>
      </trkpt>
      <trkpt lat="41.247089" lon="0.873163">
        <ele>472.086</ele>
        <time>2021-06-21T13:30:52Z</time>
      </trkpt>
      <trkpt lat="41.246901" lon="0.871345">
        <ele>476.060</ele>
        <time>2021-06-21T13:32:43Z</time>
      </trkpt>
      <trkpt lat="41.247983" lon="0.870198">
        <ele>475.826</ele>
        <time>2021-06-21T13:34:56Z</time>
      </trkpt>
      <trkpt lat="41.247864" lon="0.867976">
        <ele>474.408</ele>
        <time>2021-06-21T13:35:49Z</time>
      </trkpt>
      <trkpt lat="41.246307" lon="0.868466">
        <ele>474.645</ele>
        <time>2021-06-21T13:36:58Z</time>
      </trkpt>
      <trkpt lat="41.245878" lon="0.866076">
        <ele>491.244</ele>
        <time>2021-06-21T13:39:04Z</time>
      </trkpt>
      <trkpt lat="41.246751" lon="0.864953">
        <ele>478.212</ele>
        <time>2021-06-21T13:39:35Z</time>
      </trkpt>
      <trkpt lat="41.245164" lon="0.862297">
        <ele>457.247</ele>
        <time>2021-06-21T13:40:29Z</time>
      </trkpt>
      <trkpt lat="41.245293" lon="0.864519">
        <ele>443.422</ele>
        <time>2021-06-21T13:41:09Z</time>
      </trkpt>
      <trkpt lat="41.243024" lon="0.863464">
        <ele>418.236</ele>
        <time>2021-06-21T13:42:09Z</time>
      </trkpt>
      <trkpt lat="41.243194" lon="0.861828">
        <ele>408.627</ele>
        <time>2021-06-21T13:42:32Z</time>
      </trkpt>
      <trkpt lat="41.241674" lon="0.858013">
        <ele>377.894</ele>
        <time>2021-06-21T13:43:31Z</time>
      </trkpt>
      <trkpt lat="41.242245" lon="0.853826">
        <ele>391.676</ele>
        <time>2021-06-21T13:46:40Z</time>
      </trkpt>
      <trkpt lat="41.241832" lon="0.850852">
        <ele>414.490</ele>
        <time>2021-06-21T13:50:15Z</time>
      </trkpt>
      <trkpt lat="41.239882" lon="0.847829">
        <ele>422.019</ele>
        <time>2021-06-21T13:52:10Z</time>
      </trkpt>
      <trkpt lat="41.236918" lon="0.845898">
        <ele>393.808</ele>
        <time>2021-06-21T13:53:24Z</time>
      </trkpt>
      <trkpt lat="41.235712" lon="0.846846">
        <ele>375.064</ele>
        <time>2021-06-21T13:54:00Z</time>
      </trkpt>
      <trkpt lat="41.234691" lon="0.844983">
        <ele>367.273</ele>
        <time>2021-06-21T13:54:41Z</time>
      </trkpt>
      <trkpt lat="41.235017" lon="0.841728">
        <ele>353.651</ele>
        <time>2021-06-21T13:55:14Z</time>
      </trkpt>
      <trkpt lat="41.235850" lon="0.841213">
        <ele>345.636</ele>
        <time>2021-06-21T13:55:24Z</time>
      </trkpt>
      <trkpt lat="41.235566" lon="0.839644">
        <ele>342.411</ele>
        <time>2021-06-21T13:55:40Z</time>
      </trkpt>
      <trkpt lat="41.233828" lon="0.838926">
        <ele>355.035</ele>
        <time>2021-06-21T13:56:47Z</time>
      </trkpt>
      <trkpt lat="41.233786" lon="0.837631">
        <ele>362.026</ele>
        <time>2021-06-21T13:57:29Z</time>
      </trkpt>
      <trkpt lat="41.235825" lon="0.836471">
        <ele>370.263</ele>
        <time>2021-06-21T13:58:43Z</time>
      </trkpt>
      <trkpt lat="41.237334" lon="0.832105">
        <ele>389.093</ele>
        <time>2021-06-21T14:01:07Z</time>
      </trkpt>
      <trkpt lat="41.236513" lon="0.830900">
        <ele>396.065</ele>
        <time>2021-06-21T14:01:55Z</time>
      </trkpt>
      <trkpt lat="41.238936" lon="0.828193">
        <ele>415.221</ele>
        <time>2021-06-21T14:04:09Z</time>
      </trkpt>
      <trkpt lat="41.240841" lon="0.828758">
        <ele>420.808</ele>
        <time>2021-06-21T14:05:04Z</time>
      </trkpt>
      <trkpt lat="41.242850" lon="0.824146">
        <ele>443.456</ele>
        <time>2021-06-21T14:07:25Z</time>
      </trkpt>
      <trkpt lat="41.242837" lon="0.822315">
        <ele>452.495</ele>
        <time>2021-06-21T14:08:16Z</time>
      </trkpt>
      <trkpt lat="41.241891" lon="0.820715">
        <ele>460.653</ele>
        <time>2021-06-21T14:09:09Z</time>
      </trkpt>
      <trkpt lat="41.242925" lon="0.817513">
        <ele>454.698</ele>
        <time>2021-06-21T14:09:57Z</time>
      </trkpt>
      <trkpt lat="41.241567" lon="0.817026">
        <ele>456.873</ele>
        <time>2021-06-21T14:10:25Z</time>
      </trkpt>
      <trkpt lat="41.240147" lon="0.817958">
        <ele>458.657</ele>
        <time>2021-06-21T14:10:59Z</time>
      </trkpt>
      <trkpt lat="41.238752" lon="0.816117">
        <ele>463.618</ele>
        <time>2021-06-21T14:11:46Z</time>
      </trkpt>
      <trkpt lat="41.239653" lon="0.812573">
        <ele>449.275</ele>
        <time>2021-06-21T14:12:26Z</time>
      </trkpt>
      <trkpt lat="41.240734" lon="0.812625">
        <ele>447.032</ele>
        <time>2021-06-21T14:12:38Z</time>
      </trkpt>
      <trkpt lat="41.241315" lon="0.811482">
        <ele>442.292</ele>
        <time>2021-06-21T14:12:50Z</time>
      </trkpt>
      <trkpt lat="41.242542" lon="0.812076">
        <ele>438.211</ele>
        <time>2021-06-21T14:13:04Z</time>
      </trkpt>
      <trkpt lat="41.244589" lon="0.810664">
        <ele>434.808</ele>
        <time>2021-06-21T14:13:33Z</time>
      </trkpt>
      <trkpt lat="41.243945" lon="0.806549">
        <ele>463.480</ele>
        <time>2021-06-21T14:16:34Z</time>
      </trkpt>
      <trkpt lat="41.242787" lon="0.805531">
        <ele>476.219</ele>
        <time>2021-06-21T14:17:58Z</time>
      </trkpt>
      <trkpt lat="41.241831" lon="0.805981">
        <ele>485.077</ele>
        <time>2021-06-21T14:18:59Z</time>
      </trkpt>
      <trkpt lat="41.242334" lon="0.803969">
        <ele>502.482</ele>
        <time>2021-06-21T14:20:48Z</time>
      </trkpt>
      <trkpt lat="41.239247" lon="0.802996">
        <ele>527.887</ele>
        <time>2021-06-21T14:24:55Z</time>
      </trkpt>
      <trkpt lat="41.238841" lon="0.801535">
        <ele>523.891</ele>
        <time>2021-06-21T14:39:21Z</time>
      </trkpt>
      <trkpt lat="41.237961" lon="0.801630">
        <ele>515.612</ele>
        <time>2021-06-21T14:43:57Z</time>
      </trkpt>
      <trkpt lat="41.238162" lon="0.796767">
        <ele>499.629</ele>
        <time>2021-06-21T14:45:07Z</time>
      </trkpt>
      <trkpt lat="41.234176" lon="0.792250">
        <ele>487.258</ele>
        <time>2021-06-21T14:47:08Z</time>
      </trkpt>
      <trkpt lat="41.230916" lon="0.791593">
        <ele>475.652</ele>
        <time>2021-06-21T14:48:20Z</time>
      </trkpt>
      <trkpt lat="41.229098" lon="0.790156">
        <ele>457.017</ele>
        <time>2021-06-21T14:49:08Z</time>
      </trkpt>
      <trkpt lat="41.225943" lon="0.784680">
        <ele>424.208</ele>
        <time>2021-06-21T14:52:08Z</time>
      </trkpt>
      <trkpt lat="41.223785" lon="0.784726">
        <ele>413.212</ele>
        <time>2021-06-21T14:53:06Z</time>
      </trkpt>
      <trkpt lat="41.221729" lon="0.786339">
        <ele>397.881</ele>
        <time>2021-06-21T14:55:51Z</time>
      </trkpt>
      <trkpt lat="41.217684" lon="0.783602">
        <ele>386.899</ele>
        <time>2021-06-21T14:58:21Z</time>
      </trkpt>
      <trkpt lat="41.217591" lon="0.782271">
        <ele>380.854</ele>
        <time>2021-06-21T14:58:48Z</time>
      </trkpt>
      <trkpt lat="41.215730" lon="0.783836">
        <ele>366.429</ele>
        <time>2021-06-21T14:59:36Z</time>
      </trkpt>
      <trkpt lat="41.215372" lon="0.783385">
        <ele>361.413</ele>
        <time>2021-06-21T14:59:54Z</time>
      </trkpt>
      <trkpt lat="41.215903" lon="0.783665">
        <ele>366.274</ele>
        <time>2021-06-21T15:02:33Z</time>
      </trkpt>
      <trkpt lat="41.213181" lon="0.784528">
        <ele>375.641</ele>
        <time>2021-06-21T15:05:30Z</time>
      </trkpt>
      <trkpt lat="41.213042" lon="0.783110">
        <ele>381.012</ele>
        <time>2021-06-21T15:06:18Z</time>
      </trkpt>
      <trkpt lat="41.211430" lon="0.782635">
        <ele>386.032</ele>
        <time>2021-06-21T15:07:31Z</time>
      </trkpt>
      <trkpt lat="41.211769" lon="0.781676">
        <ele>390.605</ele>
        <time>2021-06-21T15:08:03Z</time>
      </trkpt>
      <trkpt lat="41.210523" lon="0.778664">
        <ele>411.208</ele>
        <time>2021-06-21T15:10:26Z</time>
      </trkpt>
      <trkpt lat="41.208778" lon="0.778716">
        <ele>443.638</ele>
        <time>2021-06-21T15:15:08Z</time>
      </trkpt>
      <trkpt lat="41.206009" lon="0.783370">
        <ele>415.297</ele>
        <time>2021-06-21T15:17:37Z</time>
      </trkpt>
      <trkpt lat="41.206249" lon="0.781182">
        <ele>399.465</ele>
        <time>2021-06-21T15:18:21Z</time>
      </trkpt>
      <trkpt lat="41.205140" lon="0.780211">
        <ele>385.880</ele>
        <time>2021-06-21T15:18:51Z</time>
      </trkpt>
      <trkpt lat="41.205966" lon="0.778372">
        <ele>372.065</ele>
        <time>2021-06-21T15:19:29Z</time>
      </trkpt>
      <trkpt lat="41.203669" lon="0.781135">
        <ele>352.819</ele>
        <time>2021-06-21T15:20:26Z</time>
      </trkpt>
      <trkpt lat="41.199525" lon="0.781846">
        <ele>344.690</ele>
        <time>2021-06-21T15:21:29Z</time>
      </trkpt>
      <trkpt lat="41.197101" lon="0.780224">
        <ele>336.067</ele>
        <time>2021-06-21T15:22:03Z</time>
      </trkpt>
      <trkpt lat="41.193341" lon="0.774696">
        <ele>327.825</ele>
        <time>2021-06-21T15:23:23Z</time>
      </trkpt>
      <trkpt lat="41.192253" lon="0.774959">
        <ele>328.226</ele>
        <time>2021-06-21T15:32:08Z</time>
      </trkpt>
      <trkpt lat="41.189080" lon="0.770638">
        <ele>316.808</ele>
        <time>2021-06-21T15:34:41Z</time>
      </trkpt>
      <trkpt lat="41.189409" lon="0.769448">
        <ele>308.208</ele>
        <time>2021-06-21T15:34:59Z</time>
      </trkpt>
      <trkpt lat="41.191739" lon="0.769628">
        <ele>290.679</ele>
        <time>2021-06-21T15:35:25Z</time>
      </trkpt>
      <trkpt lat="41.193005" lon="0.764868">
        <ele>262.038</ele>
        <time>2021-06-21T15:36:44Z</time>
      </trkpt>
      <trkpt lat="41.194147" lon="0.764632">
        <ele>240.096</ele>
        <time>2021-06-21T15:36:58Z</time>
      </trkpt>
      <trkpt lat="41.192190" lon="0.760516">
        <ele>199.051</ele>
        <time>2021-06-21T15:37:28Z</time>
      </trkpt>
      <trkpt lat="41.188933" lon="0.759197">
        <ele>179.446</ele>
        <time>2021-06-21T15:38:08Z</time>
      </trkpt>
      <trkpt lat="41.189805" lon="0.756543">
        <ele>183.070</ele>
        <time>2021-06-21T15:39:17Z</time>
      </trkpt>
      <trkpt lat="41.188653" lon="0.753998">
        <ele>199.281</ele>
        <time>2021-06-21T15:40:57Z</time>
      </trkpt>
      <trkpt lat="41.189953" lon="0.752583">
        <ele>209.038</ele>
        <time>2021-06-21T15:42:06Z</time>
      </trkpt>
      <trkpt lat="41.190343" lon="0.750362">
        <ele>211.832</ele>
        <time>2021-06-21T15:43:00Z</time>
      </trkpt>
      <trkpt lat="41.188340" lon="0.751647">
        <ele>221.492</ele>
        <time>2021-06-21T15:44:32Z</time>
      </trkpt>
      <trkpt lat="41.186654" lon="0.750532">
        <ele>237.611</ele>
        <time>2021-06-21T15:47:27Z</time>
      </trkpt>
      <trkpt lat="41.186266" lon="0.749122">
        <ele>235.208</ele>
        <time>2021-06-21T15:47:59Z</time>
      </trkpt>
      <trkpt lat="41.184552" lon="0.749816">
        <ele>220.830</ele>
        <time>2021-06-21T15:48:20Z</time>
      </trkpt>
      <trkpt lat="41.184323" lon="0.748089">
        <ele>213.679</ele>
        <time>2021-06-21T15:48:36Z</time>
      </trkpt>
      <trkpt lat="41.182161" lon="0.748237">
        <ele>197.637</ele>
        <time>2021-06-21T15:49:00Z</time>
      </trkpt>
      <trkpt lat="41.183369" lon="0.745726">
        <ele>182.452</ele>
        <time>2021-06-21T15:49:25Z</time>
      </trkpt>
      <trkpt lat="41.181376" lon="0.745131">
        <ele>197.647</ele>
        <time>2021-06-21T15:50:54Z</time>
      </trkpt>
      <trkpt lat="41.180555" lon="0.743585">
        <ele>210.021</ele>
        <time>2021-06-21T15:51:59Z</time>
      </trkpt>
      <trkpt lat="41.180780" lon="0.740273">
        <ele>229.062</ele>
        <time>2021-06-21T15:53:55Z</time>
      </trkpt>
      <trkpt lat="41.179809" lon="0.741440">
        <ele>234.819</ele>
        <time>2021-06-21T15:54:49Z</time>
      </trkpt>
      <trkpt lat="41.179682" lon="0.740347">
        <ele>241.852</ele>
        <time>2021-06-21T15:55:26Z</time>
      </trkpt>
      <trkpt lat="41.178835" lon="0.740056">
        <ele>248.853</ele>
        <time>2021-06-21T15:56:07Z</time>
      </trkpt>
      <trkpt lat="41.179241" lon="0.736692">
        <ele>265.208</ele>
        <time>2021-06-21T15:57:58Z</time>
      </trkpt>
      <trkpt lat="41.178547" lon="0.731788">
        <ele>280.608</ele>
        <time>2021-06-21T16:00:06Z</time>
      </trkpt>
      <trkpt lat="41.176565" lon="0.725665">
        <ele>287.832</ele>
        <time>2021-06-21T16:02:34Z</time>
      </trkpt>
      <trkpt lat="41.172253" lon="0.716970">
        <ele>270.441</ele>
        <time>2021-06-21T16:04:40Z</time>
      </trkpt>
      <trkpt lat="41.172663" lon="0.714124">
        <ele>255.629</ele>
        <time>2021-06-21T16:05:05Z</time>
      </trkpt>
      <trkpt lat="41.170933" lon="0.713220">
        <ele>262.244</ele>
        <time>2021-06-21T16:06:03Z</time>
      </trkpt>
      <trkpt lat="41.171312" lon="0.708681">
        <ele>236.069</ele>
        <time>2021-06-21T16:06:42Z</time>
      </trkpt>
      <trkpt lat="41.169178" lon="0.708736">
        <ele>246.293</ele>
        <time>2021-06-21T16:07:48Z</time>
      </trkpt>
      <trkpt lat="41.167148" lon="0.705094">
        <ele>243.254</ele>
        <time>2021-06-21T16:09:16Z</time>
      </trkpt>
      <trkpt lat="41.163528" lon="0.705129">
        <ele>239.011</ele>
        <time>2021-06-21T16:10:30Z</time>
      </trkpt>
      <trkpt lat="41.162809" lon="0.702347">
        <ele>232.661</ele>
        <time>2021-06-21T16:14:41Z</time>
      </trkpt>
      <trkpt lat="41.163333" lon="0.696819">
        <ele>223.021</ele>
        <time>2021-06-21T16:15:48Z</time>
      </trkpt>
      <trkpt lat="41.164470" lon="0.696598">
        <ele>216.813</ele>
        <time>2021-06-21T16:16:24Z</time>
      </trkpt>
      <trkpt lat="41.163592" lon="0.693309">
        <ele>198.608</ele>
        <time>2021-06-21T16:17:07Z</time>
      </trkpt>
      <trkpt lat="41.164185" lon="0.692259">
        <ele>191.233</ele>
        <time>2021-06-21T16:17:25Z</time>
      </trkpt>
      <trkpt lat="41.163853" lon="0.689030">
        <ele>182.242</ele>
        <time>2021-06-21T16:18:15Z</time>
      </trkpt>
      <trkpt lat="41.161615" lon="0.685412">
        <ele>161.450</ele>
        <time>2021-06-21T16:19:35Z</time>
      </trkpt>
      <trkpt lat="41.161683" lon="0.682461">
        <ele>151.085</ele>
        <time>2021-06-21T16:20:30Z</time>
      </trkpt>
      <trkpt lat="41.160587" lon="0.682643">
        <ele>146.850</ele>
        <time>2021-06-21T16:21:05Z</time>
      </trkpt>
      <trkpt lat="41.159683" lon="0.680624">
        <ele>139.664</ele>
        <time>2021-06-21T16:21:50Z</time>
      </trkpt>
      <trkpt lat="41.160316" lon="0.680100">
        <ele>132.475</ele>
        <time>2021-06-21T16:22:20Z</time>
      </trkpt>
      <trkpt lat="41.159585" lon="0.677338">
        <ele>118.062</ele>
        <time>2021-06-21T16:24:57Z</time>
      </trkpt>
      <trkpt lat="41.158647" lon="0.676587">
        <ele>113.223</ele>
        <time>2021-06-21T16:26:23Z</time>
      </trkpt>
      <trkpt lat="41.158925" lon="0.674564">
        <ele>116.483</ele>
        <time>2021-06-21T16:27:35Z</time>
      </trkpt>
      <trkpt lat="41.156176" lon="0.669710">
        <ele>113.611</ele>
        <time>2021-06-21T16:30:02Z</time>
      </trkpt>
      <trkpt lat="41.151194" lon="0.663786">
        <ele>123.808</ele>
        <time>2021-06-21T16:33:40Z</time>
      </trkpt>
      <trkpt lat="41.148785" lon="0.658789">
        <ele>111.869</ele>
        <time>2021-06-21T16:41:09Z</time>
      </trkpt>
      <trkpt lat="41.147641" lon="0.659232">
        <ele>101.698</ele>
        <time>2021-06-21T16:41:38Z</time>
      </trkpt>
      <trkpt lat="41.146235" lon="0.656694">
        <ele>104.436</ele>
        <time>2021-06-21T16:43:16Z</time>
      </trkpt>
      <trkpt lat="41.143923" lon="0.656186">
        <ele>135.271</ele>
        <time>2021-06-21T16:49:25Z</time>
      </trkpt>
      <trkpt lat="41.139222" lon="0.650872">
        <ele>103.416</ele>
        <time>2021-06-21T16:52:47Z</time>
      </trkpt>
      <trkpt lat="41.136775" lon="0.650061">
        <ele>65.480</ele>
        <time>2021-06-21T16:53:57Z</time>
      </trkpt>
      <trkpt lat="41.135755" lon="0.651901">
        <ele>59.081</ele>
        <time>2021-06-21T16:54:42Z</time>
      </trkpt>
      <trkpt lat="41.130027" lon="0.651450">
        <ele>56.028</ele>
        <time>2021-06-21T17:02:26Z</time>
      </trkpt>
      <trkpt lat="41.128619" lon="0.642376">
        <ele>58.255</ele>
        <time>2021-06-21T17:04:52Z</time>
      </trkpt>
      <trkpt lat="41.132773" lon="0.640857">
        <ele>60.407</ele>
        <time>2021-06-21T17:18:56Z</time>
      </trkpt>
      <trkpt lat="41.127541" lon="0.637935">
        <ele>53.617</ele>
        <time>2021-06-21T17:20:55Z</time>
      </trkpt>
      <trkpt lat="41.125077" lon="0.635027">
        <ele>59.808</ele>
        <time>2021-06-21T17:22:20Z</time>
      </trkpt>
      <trkpt lat="41.113454" lon="0.633145">
        <ele>52.052</ele>
        <time>2021-06-21T17:30:57Z</time>
      </trkpt>
      <trkpt lat="41.111451" lon="0.630853">
        <ele>57.491</ele>
        <time>2021-06-21T17:32:08Z</time>
      </trkpt>
      <trkpt lat="41.109362" lon="0.631635">
        <ele>61.069</ele>
        <time>2021-06-21T17:33:11Z</time>
      </trkpt>
      <trkpt lat="41.105247" lon="0.635347">
        <ele>61.074</ele>
        <time>2021-06-21T17:34:56Z</time>
      </trkpt>
      <trkpt lat="41.093140" lon="0.641865">
        <ele>57.039</ele>
        <time>2021-06-21T17:39:35Z</time>
      </trkpt>
      <trkpt lat="41.093735" lon="0.640410">
        <ele>64.413</ele>
        <time>2021-06-21T17:40:31Z</time>
      </trkpt>
      <trkpt lat="41.093353" lon="0.629782">
        <ele>89.694</ele>
        <time>2021-06-21T17:45:35Z</time>
      </trkpt>
      <trkpt lat="41.094072" lon="0.629166">
        <ele>91.251</ele>
        <time>2021-06-21T17:45:57Z</time>
      </trkpt>
      <trkpt lat="41.096699" lon="0.618164">
        <ele>126.475</ele>
        <time>2021-06-21T17:58:05Z</time>
      </trkpt>
      <trkpt lat="41.097253" lon="0.611804">
        <ele>140.228</ele>
        <time>2021-06-21T18:01:02Z</time>
      </trkpt>
      <trkpt lat="41.102159" lon="0.600286">
        <ele>177.020</ele>
        <time>2021-06-21T18:06:58Z</time>
      </trkpt>
      <trkpt lat="41.103411" lon="0.592414">
        <ele>215.808</ele>
        <time>2021-06-21T18:13:50Z</time>
      </trkpt>
      <trkpt lat="41.104968" lon="0.588099">
        <ele>264.074</ele>
        <time>2021-06-21T18:49:11Z</time>
      </trkpt>
      <trkpt lat="41.104654" lon="0.587235">
        <ele>273.083</ele>
        <time>2021-06-21T18:50:53Z</time>
      </trkpt>
      <trkpt lat="41.105384" lon="0.585598">
        <ele>290.461</ele>
        <time>2021-06-21T18:54:05Z</time>
      </trkpt>
      <trkpt lat="41.104252" lon="0.585011">
        <ele>305.046</ele>
        <time>2021-06-21T18:55:36Z</time>
      </trkpt>
      <trkpt lat="41.106681" lon="0.582794">
        <ele>334.071</ele>
        <time>2021-06-21T19:02:53Z</time>
      </trkpt>
      <trkpt lat="41.107198" lon="0.583695">
        <ele>341.665</ele>
        <time>2021-06-21T19:04:13Z</time>
      </trkpt>
      <trkpt lat="41.108398" lon="0.582803">
        <ele>343.646</ele>
        <time>2021-06-21T19:04:56Z</time>
      </trkpt>
      <trkpt lat="41.109481" lon="0.583348">
        <ele>329.693</ele>
        <time>2021-06-21T19:05:21Z</time>
      </trkpt>
      <trkpt lat="41.110847" lon="0.580131">
        <ele>309.636</ele>
        <time>2021-06-21T19:06:09Z</time>
      </trkpt>
      <trkpt lat="41.112537" lon="0.579368">
        <ele>297.217</ele>
        <time>2021-06-21T19:06:38Z</time>
      </trkpt>
      <trkpt lat="41.115420" lon="0.574371">
        <ele>277.618</ele>
        <time>2021-06-21T19:08:37Z</time>
      </trkpt>
      <trkpt lat="41.117960" lon="0.571691">
        <ele>331.608</ele>
        <time>2021-06-21T19:17:40Z</time>
      </trkpt>
      <trkpt lat="41.117879" lon="0.568374">
        <ele>361.420</ele>
        <time>2021-06-21T19:20:58Z</time>
      </trkpt>
      <trkpt lat="41.121147" lon="0.565678">
        <ele>340.619</ele>
        <time>2021-06-21T19:22:35Z</time>
      </trkpt>
      <trkpt lat="41.121699" lon="0.562701">
        <ele>345.067</ele>
        <time>2021-06-21T19:24:07Z</time>
      </trkpt>
      <trkpt lat="41.122647" lon="0.562935">
        <ele>337.822</ele>
        <time>2021-06-21T19:24:30Z</time>
      </trkpt>
      <trkpt lat="41.119292" lon="0.556670">
        <ele>299.247</ele>
        <time>2021-06-21T19:26:42Z</time>
      </trkpt>
      <trkpt lat="41.117334" lon="0.556764">
        <ele>292.231</ele>
        <time>2021-06-21T19:27:47Z</time>
      </trkpt>
      <trkpt lat="41.116787" lon="0.557873">
        <ele>284.852</ele>
        <time>2021-06-21T19:28:09Z</time>
      </trkpt>
      <trkpt lat="41.115068" lon="0.556381">
        <ele>274.039</ele>
        <time>2021-06-21T19:28:53Z</time>
      </trkpt>
      <trkpt lat="41.115114" lon="0.557654">
        <ele>263.079</ele>
        <time>2021-06-21T19:29:22Z</time>
      </trkpt>
      <trkpt lat="41.112643" lon="0.555038">
        <ele>248.805</ele>
        <time>2021-06-21T19:30:23Z</time>
      </trkpt>
      <trkpt lat="41.110277" lon="0.553945">
        <ele>237.225</ele>
        <time>2021-06-21T19:31:11Z</time>
      </trkpt>
      <trkpt lat="41.109644" lon="0.554837">
        <ele>237.208</ele>
        <time>2021-06-21T19:31:42Z</time>
      </trkpt>
      <trkpt lat="41.106933" lon="0.553404">
        <ele>219.424</ele>
        <time>2021-06-21T19:32:39Z</time>
      </trkpt>
      <trkpt lat="41.106201" lon="0.554454">
        <ele>211.663</ele>
        <time>2021-06-21T19:33:00Z</time>
      </trkpt>
      <trkpt lat="41.102386" lon="0.552876">
        <ele>195.061</ele>
        <time>2021-06-21T19:34:16Z</time>
      </trkpt>
      <trkpt lat="41.101436" lon="0.551608">
        <ele>192.496</ele>
        <time>2021-06-21T19:34:56Z</time>
      </trkpt>
      <trkpt lat="41.102196" lon="0.549006">
        <ele>200.241</ele>
        <time>2021-06-21T19:35:59Z</time>
      </trkpt>
      <trkpt lat="41.101109" lon="0.545323">
        <ele>196.425</ele>
        <time>2021-06-21T19:37:19Z</time>
      </trkpt>
      <trkpt lat="41.100131" lon="0.545416">
        <ele>192.426</ele>
        <time>2021-06-21T19:38:20Z</time>
      </trkpt>
      <trkpt lat="41.095057" lon="0.541552">
        <ele>233.263</ele>
        <time>2021-06-21T19:43:38Z</time>
      </trkpt>
      <trkpt lat="41.092040" lon="0.540714">
        <ele>212.023</ele>
        <time>2021-06-21T19:44:34Z</time>
      </trkpt>
      <trkpt lat="41.089917" lon="0.537203">
        <ele>211.283</ele>
        <time>2021-06-21T19:46:08Z</time>
      </trkpt>
      <trkpt lat="41.088304" lon="0.536482">
        <ele>221.011</ele>
        <time>2021-06-21T19:47:24Z</time>
      </trkpt>
      <trkpt lat="41.085111" lon="0.531638">
        <ele>243.008</ele>
        <time>2021-06-21T19:50:46Z</time>
      </trkpt>
      <trkpt lat="41.081749" lon="0.528508">
        <ele>265.869</ele>
        <time>2021-06-21T19:53:55Z</time>
      </trkpt>
      <trkpt lat="41.077104" lon="0.526761">
        <ele>280.248</ele>
        <time>2021-06-21T19:58:10Z</time>
      </trkpt>
      <trkpt lat="41.071167" lon="0.522386">
        <ele>322.676</ele>
        <time>2021-06-21T20:04:33Z</time>
      </trkpt>
      <trkpt lat="41.070412" lon="0.516175">
        <ele>353.881</ele>
        <time>2021-06-21T20:18:48Z</time>
      </trkpt>
      <trkpt lat="41.071594" lon="0.512783">
        <ele>400.676</ele>
        <time>2021-06-21T20:25:49Z</time>
      </trkpt>
      <trkpt lat="41.070946" lon="0.511622">
        <ele>386.470</ele>
        <time>2021-06-21T20:26:35Z</time>
      </trkpt>
      <trkpt lat="41.076417" lon="0.511351">
        <ele>344.431</ele>
        <time>2021-06-21T20:28:52Z</time>
      </trkpt>
      <trkpt lat="41.079331" lon="0.507003">
        <ele>306.668</ele>
        <time>2021-06-21T20:30:31Z</time>
      </trkpt>
      <trkpt lat="41.078603" lon="0.506275">
        <ele>293.844</ele>
        <time>2021-06-21T20:30:53Z</time>
      </trkpt>
      <trkpt lat="41.080088" lon="0.505579">
        <ele>293.805</ele>
        <time>2021-06-21T20:31:35Z</time>
      </trkpt>
      <trkpt lat="41.077842" lon="0.494980">
        <ele>300.215</ele>
        <time>2021-06-21T20:39:06Z</time>
      </trkpt>
      <trkpt lat="41.077663" lon="0.487621">
        <ele>289.808</ele>
        <time>2021-06-21T20:40:38Z</time>
      </trkpt>
      <trkpt lat="41.076668" lon="0.484563">
        <ele>286.421</ele>
        <time>2021-06-21T20:41:30Z</time>
      </trkpt>
      <trkpt lat="41.077380" lon="0.483661">
        <ele>284.010</ele>
        <time>2021-06-21T20:41:48Z</time>
      </trkpt>
      <trkpt lat="41.076847" lon="0.482696">
        <ele>282.898</ele>
        <time>2021-06-21T20:42:07Z</time>
      </trkpt>
      <trkpt lat="41.078767" lon="0.481259">
        <ele>293.893</ele>
        <time>2021-06-21T20:43:44Z</time>
      </trkpt>
      <trkpt lat="41.075445" lon="0.471156">
        <ele>297.818</ele>
        <time>2021-06-21T21:03:48Z</time>
      </trkpt>
      <trkpt lat="41.076066" lon="0.471619">
        <ele>304.222</ele>
        <time>2021-06-21T21:04:57Z</time>
      </trkpt>
      <trkpt lat="41.074473" lon="0.468727">
        <ele>302.433</ele>
        <time>2021-06-21T21:06:15Z</time>
      </trkpt>
      <trkpt lat="41.073778" lon="0.463551">
        <ele>301.870</ele>
        <time>2021-06-21T21:07:24Z</time>
      </trkpt>
      <trkpt lat="41.071596" lon="0.459040">
        <ele>313.824</ele>
        <time>2021-06-21T21:09:05Z</time>
      </trkpt>
      <trkpt lat="41.071666" lon="0.452495">
        <ele>320.604</ele>
        <time>2021-06-21T21:12:01Z</time>
      </trkpt>
      <trkpt lat="41.070252" lon="0.447981">
        <ele>316.414</ele>
        <time>2021-06-21T21:13:00Z</time>
      </trkpt>
      <trkpt lat="41.069121" lon="0.447467">
        <ele>319.008</ele>
        <time>2021-06-21T21:13:27Z</time>
      </trkpt>
      <trkpt lat="41.067855" lon="0.444208">
        <ele>318.629</ele>
        <time>2021-06-21T21:14:29Z</time>
      </trkpt>
      <trkpt lat="41.066912" lon="0.445063">
        <ele>324.458</ele>
        <time>2021-06-21T21:15:05Z</time>
      </trkpt>
      <trkpt lat="41.065577" lon="0.444569">
        <ele>340.456</ele>
        <time>2021-06-21T21:16:25Z</time>
      </trkpt>
      <trkpt lat="41.062398" lon="0.440865">
        <ele>360.621</ele>
        <time>2021-06-21T21:20:17Z</time>
      </trkpt>
      <trkpt lat="41.058000" lon="0.438880">
        <ele>367.846</ele>
        <time>2021-06-21T21:22:30Z</time>
      </trkpt>
      <trkpt lat="41.055287" lon="0.438666">
        <ele>369.230</ele>
        <time>2021-06-21T21:23:50Z</time>
      </trkpt>
      <trkpt lat="41.054856" lon="0.439496">
        <ele>368.491</ele>
        <time>2021-06-21T21:24:12Z</time>
      </trkpt>
      <trkpt lat="41.053940" lon="0.438347">
        <ele>368.498</ele>
        <time>2021-06-21T21:24:57Z</time>
      </trkpt>
      <trkpt lat="41.052127" lon="0.439270">
        <ele>373.265</ele>
        <time>2021-06-21T21:25:57Z</time>
      </trkpt>
      <trkpt lat="41.051142" lon="0.436413">
        <ele>367.668</ele>
        <time>2021-06-21T21:26:41Z</time>
      </trkpt>
      <trkpt lat="41.048000" lon="0.435593">
        <ele>376.414</ele>
        <time>2021-06-21T21:28:25Z</time>
      </trkpt>
      <trkpt lat="41.043589" lon="0.430426">
        <ele>414.208</ele>
        <time>2021-06-21T21:32:33Z</time>
      </trkpt>
      <trkpt lat="41.042831" lon="0.427867">
        <ele>417.223</ele>
        <time>2021-06-21T21:33:45Z</time>
      </trkpt>
      <trkpt lat="41.039637" lon="0.425411">
        <ele>397.442</ele>
        <time>2021-06-21T21:34:37Z</time>
      </trkpt>
      <trkpt lat="41.038095" lon="0.419232">
        <ele>365.660</ele>
        <time>2021-06-21T21:36:05Z</time>
      </trkpt>
      <trkpt lat="41.034871" lon="0.413655">
        <ele>348.865</ele>
        <time>2021-06-21T21:38:11Z</time>
      </trkpt>
      <trkpt lat="41.034518" lon="0.411077">
        <ele>344.060</ele>
        <time>2021-06-21T21:38:48Z</time>
      </trkpt>
      <trkpt lat="41.034151" lon="0.411416">
        <ele>347.054</ele>
        <time>2021-06-21T21:40:12Z</time>
      </trkpt>
      <trkpt lat="41.034625" lon="0.411247">
        <ele>346.675</ele>
        <time>2021-06-21T21:41:29Z</time>
      </trkpt>
      <trkpt lat="41.030850" lon="0.408184">
        <ele>341.032</ele>
        <time>2021-06-21T21:45:31Z</time>
      </trkpt>
      <trkpt lat="41.027039" lon="0.406816">
        <ele>337.039</ele>
        <time>2021-06-21T21:47:15Z</time>
      </trkpt>
      <trkpt lat="41.022833" lon="0.401974">
        <ele>307.001</ele>
        <time>2021-06-21T21:48:43Z</time>
      </trkpt>
      <trkpt lat="41.021960" lon="0.402388">
        <ele>294.421</ele>
        <time>2021-06-21T21:49:02Z</time>
      </trkpt>
      <trkpt lat="41.022231" lon="0.401163">
        <ele>286.008</ele>
        <time>2021-06-21T21:49:18Z</time>
      </trkpt>
      <trkpt lat="41.024608" lon="0.400577">
        <ele>274.090</ele>
        <time>2021-06-21T21:49:58Z</time>
      </trkpt>
      <trkpt lat="41.023474" lon="0.399782">
        <ele>273.249</ele>
        <time>2021-06-21T21:50:27Z</time>
      </trkpt>
      <trkpt lat="41.021636" lon="0.400122">
        <ele>288.867</ele>
        <time>2021-06-21T21:51:55Z</time>
      </trkpt>
      <trkpt lat="41.020134" lon="0.397966">
        <ele>286.242</ele>
        <time>2021-06-21T21:52:49Z</time>
      </trkpt>
      <trkpt lat="41.021728" lon="0.394942">
        <ele>296.467</ele>
        <time>2021-06-21T21:54:37Z</time>
      </trkpt>
      <trkpt lat="41.019466" lon="0.395338">
        <ele>297.231</ele>
        <time>2021-06-21T21:55:44Z</time>
      </trkpt>
      <trkpt lat="41.018893" lon="0.392858">
        <ele>288.642</ele>
        <time>2021-06-21T21:56:20Z</time>
      </trkpt>
      <trkpt lat="41.015876" lon="0.391297">
        <ele>285.299</ele>
        <time>2021-06-21T21:57:42Z</time>
      </trkpt>
      <trkpt lat="41.014265" lon="0.392127">
        <ele>281.678</ele>
        <time>2021-06-21T22:00:20Z</time>
      </trkpt>
      <trkpt lat="41.014013" lon="0.390416">
        <ele>256.433</ele>
        <time>2021-06-21T22:00:59Z</time>
      </trkpt>
      <trkpt lat="41.010933" lon="0.391674">
        <ele>235.026</ele>
        <time>2021-06-21T22:03:41Z</time>
      </trkpt>
      <trkpt lat="41.009693" lon="0.390766">
        <ele>242.008</ele>
        <time>2021-06-21T22:04:57Z</time>
      </trkpt>
      <trkpt lat="41.009142" lon="0.388306">
        <ele>258.084</ele>
        <time>2021-06-21T22:07:01Z</time>
      </trkpt>
      <trkpt lat="41.009975" lon="0.388567">
        <ele>269.693</ele>
        <time>2021-06-21T22:08:41Z</time>
      </trkpt>
      <trkpt lat="41.009974" lon="0.385633">
        <ele>286.471</ele>
        <time>2021-06-21T22:11:48Z</time>
      </trkpt>
      <trkpt lat="41.010885" lon="0.385650">
        <ele>283.666</ele>
        <time>2021-06-21T22:12:32Z</time>
      </trkpt>
      <trkpt lat="41.009802" lon="0.386695">
        <ele>279.825</ele>
        <time>2021-06-22T06:37:10Z</time>
      </trkpt>
      <trkpt lat="41.009981" lon="0.388655">
        <ele>268.026</ele>
        <time>2021-06-22T06:37:52Z</time>
      </trkpt>
      <trkpt lat="41.010776" lon="0.388658">
        <ele>266.408</ele>
        <time>2021-06-22T06:38:23Z</time>
      </trkpt>
      <trkpt lat="41.008495" lon="0.388118">
        <ele>267.808</ele>
        <time>2021-06-22T06:39:53Z</time>
      </trkpt>
      <trkpt lat="41.007222" lon="0.386241">
        <ele>267.289</ele>
        <time>2021-06-22T06:40:35Z</time>
      </trkpt>
      <trkpt lat="41.007101" lon="0.384394">
        <ele>267.078</ele>
        <time>2021-06-22T06:41:04Z</time>
      </trkpt>
      <trkpt lat="41.008147" lon="0.379881">
        <ele>267.456</ele>
        <time>2021-06-22T06:42:08Z</time>
      </trkpt>
      <trkpt lat="41.007692" lon="0.377586">
        <ele>268.691</ele>
        <time>2021-06-22T06:42:46Z</time>
      </trkpt>
      <trkpt lat="41.005934" lon="0.375695">
        <ele>274.056</ele>
        <time>2021-06-22T06:43:42Z</time>
      </trkpt>
      <trkpt lat="41.002829" lon="0.374648">
        <ele>281.041</ele>
        <time>2021-06-22T06:45:07Z</time>
      </trkpt>
      <trkpt lat="41.000554" lon="0.372280">
        <ele>287.482</ele>
        <time>2021-06-22T06:46:20Z</time>
      </trkpt>
      <trkpt lat="40.998570" lon="0.366210">
        <ele>298.082</ele>
        <time>2021-06-22T06:48:25Z</time>
      </trkpt>
      <trkpt lat="40.996119" lon="0.363674">
        <ele>304.869</ele>
        <time>2021-06-22T06:49:41Z</time>
      </trkpt>
      <trkpt lat="40.994393" lon="0.360113">
        <ele>311.204</ele>
        <time>2021-06-22T06:50:58Z</time>
      </trkpt>
      <trkpt lat="40.994504" lon="0.355122">
        <ele>320.224</ele>
        <time>2021-06-22T06:52:32Z</time>
      </trkpt>
      <trkpt lat="40.992106" lon="0.351964">
        <ele>328.008</ele>
        <time>2021-06-22T06:56:07Z</time>
      </trkpt>
      <trkpt lat="40.985811" lon="0.348192">
        <ele>341.263</ele>
        <time>2021-06-22T06:58:52Z</time>
      </trkpt>
      <trkpt lat="40.984399" lon="0.345861">
        <ele>347.272</ele>
        <time>2021-06-22T06:59:45Z</time>
      </trkpt>
      <trkpt lat="40.982938" lon="0.344611">
        <ele>351.050</ele>
        <time>2021-06-22T07:00:25Z</time>
      </trkpt>
      <trkpt lat="40.981738" lon="0.344513">
        <ele>353.885</ele>
        <time>2021-06-22T07:00:56Z</time>
      </trkpt>
      <trkpt lat="40.979740" lon="0.345642">
        <ele>358.270</ele>
        <time>2021-06-22T07:01:48Z</time>
      </trkpt>
      <trkpt lat="40.977297" lon="0.345647">
        <ele>363.425</ele>
        <time>2021-06-22T07:02:51Z</time>
      </trkpt>
      <trkpt lat="40.974899" lon="0.344221">
        <ele>369.486</ele>
        <time>2021-06-22T07:03:45Z</time>
      </trkpt>
      <trkpt lat="40.971832" lon="0.344774">
        <ele>376.816</ele>
        <time>2021-06-22T07:04:58Z</time>
      </trkpt>
      <trkpt lat="40.968520" lon="0.342657">
        <ele>384.021</ele>
        <time>2021-06-22T07:06:23Z</time>
      </trkpt>
      <trkpt lat="40.965014" lon="0.332676">
        <ele>402.241</ele>
        <time>2021-06-22T07:09:36Z</time>
      </trkpt>
      <trkpt lat="40.962242" lon="0.327569">
        <ele>412.605</ele>
        <time>2021-06-22T07:11:36Z</time>
      </trkpt>
      <trkpt lat="40.962264" lon="0.323915">
        <ele>418.208</ele>
        <time>2021-06-22T07:12:55Z</time>
      </trkpt>
      <trkpt lat="40.963790" lon="0.321854">
        <ele>423.219</ele>
        <time>2021-06-22T07:13:53Z</time>
      </trkpt>
      <trkpt lat="40.965917" lon="0.317055">
        <ele>422.248</ele>
        <time>2021-06-22T07:15:28Z</time>
      </trkpt>
      <trkpt lat="40.965744" lon="0.315274">
        <ele>422.476</ele>
        <time>2021-06-22T07:15:53Z</time>
      </trkpt>
      <trkpt lat="40.963607" lon="0.309211">
        <ele>421.611</ele>
        <time>2021-06-22T07:17:20Z</time>
      </trkpt>
      <trkpt lat="40.953142" lon="0.295783">
        <ele>433.866</ele>
        <time>2021-06-22T07:22:33Z</time>
      </trkpt>
      <trkpt lat="40.944479" lon="0.277044">
        <ele>423.061</ele>
        <time>2021-06-22T07:26:50Z</time>
      </trkpt>
      <trkpt lat="40.940955" lon="0.274600">
        <ele>419.442</ele>
        <time>2021-06-22T07:28:19Z</time>
      </trkpt>
      <trkpt lat="40.936950" lon="0.275191">
        <ele>421.212</ele>
        <time>2021-06-22T07:30:16Z</time>
      </trkpt>
      <trkpt lat="40.935002" lon="0.274401">
        <ele>417.662</ele>
        <time>2021-06-22T07:31:42Z</time>
      </trkpt>
      <trkpt lat="40.925974" lon="0.264591">
        <ele>448.283</ele>
        <time>2021-06-22T07:40:47Z</time>
      </trkpt>
      <trkpt lat="40.917567" lon="0.258469">
        <ele>457.811</ele>
        <time>2021-06-22T07:43:49Z</time>
      </trkpt>
      <trkpt lat="40.915803" lon="0.260290">
        <ele>469.008</ele>
        <time>2021-06-22T07:45:00Z</time>
      </trkpt>
      <trkpt lat="40.914627" lon="0.260141">
        <ele>469.683</ele>
        <time>2021-06-22T07:46:14Z</time>
      </trkpt>
      <trkpt lat="40.912392" lon="0.261128">
        <ele>476.282</ele>
        <time>2021-06-22T07:47:24Z</time>
      </trkpt>
      <trkpt lat="40.913184" lon="0.260614">
        <ele>475.040</ele>
        <time>2021-06-22T07:47:54Z</time>
      </trkpt>
      <trkpt lat="40.912032" lon="0.261366">
        <ele>480.015</ele>
        <time>2021-06-22T07:49:13Z</time>
      </trkpt>
      <trkpt lat="40.910298" lon="0.259923">
        <ele>493.480</ele>
        <time>2021-06-22T07:50:55Z</time>
      </trkpt>
      <trkpt lat="40.910829" lon="0.260314">
        <ele>493.415</ele>
        <time>2021-06-22T07:51:23Z</time>
      </trkpt>
      <trkpt lat="40.909858" lon="0.260510">
        <ele>497.026</ele>
        <time>2021-06-22T07:52:47Z</time>
      </trkpt>
      <trkpt lat="40.907088" lon="0.263164">
        <ele>485.436</ele>
        <time>2021-06-22T07:54:03Z</time>
      </trkpt>
      <trkpt lat="40.901725" lon="0.256820">
        <ele>490.884</ele>
        <time>2021-06-22T07:58:29Z</time>
      </trkpt>
      <trkpt lat="40.900803" lon="0.257667">
        <ele>481.807</ele>
        <time>2021-06-22T07:58:50Z</time>
      </trkpt>
      <trkpt lat="40.895960" lon="0.257687">
        <ele>508.417</ele>
        <time>2021-06-22T08:01:51Z</time>
      </trkpt>
      <trkpt lat="40.892487" lon="0.260001">
        <ele>509.408</ele>
        <time>2021-06-22T08:03:25Z</time>
      </trkpt>
      <trkpt lat="40.890472" lon="0.260005">
        <ele>508.075</ele>
        <time>2021-06-22T08:03:59Z</time>
      </trkpt>
      <trkpt lat="40.885995" lon="0.263959">
        <ele>525.024</ele>
        <time>2021-06-22T08:06:54Z</time>
      </trkpt>
      <trkpt lat="40.884685" lon="0.263142">
        <ele>533.672</ele>
        <time>2021-06-22T08:07:56Z</time>
      </trkpt>
      <trkpt lat="40.882269" lon="0.262916">
        <ele>545.417</ele>
        <time>2021-06-22T08:09:31Z</time>
      </trkpt>
      <trkpt lat="40.878788" lon="0.263991">
        <ele>578.832</ele>
        <time>2021-06-22T08:12:57Z</time>
      </trkpt>
      <trkpt lat="40.878126" lon="0.261992">
        <ele>571.057</ele>
        <time>2021-06-22T08:13:39Z</time>
      </trkpt>
      <trkpt lat="40.876017" lon="0.260274">
        <ele>552.018</ele>
        <time>2021-06-22T08:14:23Z</time>
      </trkpt>
      <trkpt lat="40.874902" lon="0.258137">
        <ele>533.278</ele>
        <time>2021-06-22T08:14:55Z</time>
      </trkpt>
      <trkpt lat="40.870443" lon="0.254185">
        <ele>508.075</ele>
        <time>2021-06-22T08:17:12Z</time>
      </trkpt>
      <trkpt lat="40.866083" lon="0.254501">
        <ele>512.428</ele>
        <time>2021-06-22T08:20:26Z</time>
      </trkpt>
      <trkpt lat="40.864713" lon="0.253664">
        <ele>513.020</ele>
        <time>2021-06-22T08:21:17Z</time>
      </trkpt>
      <trkpt lat="40.862849" lon="0.250974">
        <ele>538.008</ele>
        <time>2021-06-22T08:24:58Z</time>
      </trkpt>
      <trkpt lat="40.861506" lon="0.246876">
        <ele>556.844</ele>
        <time>2021-06-22T08:27:49Z</time>
      </trkpt>
      <trkpt lat="40.860738" lon="0.246502">
        <ele>555.223</ele>
        <time>2021-06-22T08:28:09Z</time>
      </trkpt>
      <trkpt lat="40.859804" lon="0.242498">
        <ele>569.011</ele>
        <time>2021-06-22T08:30:18Z</time>
      </trkpt>
      <trkpt lat="40.860679" lon="0.241205">
        <ele>585.496</ele>
        <time>2021-06-22T08:31:48Z</time>
      </trkpt>
      <trkpt lat="40.858154" lon="0.233867">
        <ele>623.831</ele>
        <time>2021-06-22T08:37:08Z</time>
      </trkpt>
      <trkpt lat="40.857535" lon="0.233943">
        <ele>622.836</ele>
        <time>2021-06-22T08:37:22Z</time>
      </trkpt>
      <trkpt lat="40.854249" lon="0.229654">
        <ele>602.287</ele>
        <time>2021-06-22T08:38:42Z</time>
      </trkpt>
      <trkpt lat="40.852168" lon="0.223893">
        <ele>587.037</ele>
        <time>2021-06-22T08:40:34Z</time>
      </trkpt>
      <trkpt lat="40.852358" lon="0.222406">
        <ele>572.057</ele>
        <time>2021-06-22T08:40:54Z</time>
      </trkpt>
      <trkpt lat="40.851935" lon="0.221518">
        <ele>568.200</ele>
        <time>2021-06-22T08:41:07Z</time>
      </trkpt>
      <trkpt lat="40.852066" lon="0.220013">
        <ele>564.420</ele>
        <time>2021-06-22T08:41:31Z</time>
      </trkpt>
      <trkpt lat="40.849818" lon="0.217641">
        <ele>557.208</ele>
        <time>2021-06-22T08:42:25Z</time>
      </trkpt>
      <trkpt lat="40.849955" lon="0.216231">
        <ele>551.612</ele>
        <time>2021-06-22T08:42:43Z</time>
      </trkpt>
      <trkpt lat="40.848207" lon="0.212938">
        <ele>551.651</ele>
        <time>2021-06-22T08:43:57Z</time>
      </trkpt>
      <trkpt lat="40.848700" lon="0.212248">
        <ele>548.239</ele>
        <time>2021-06-22T08:44:11Z</time>
      </trkpt>
      <trkpt lat="40.847419" lon="0.208736">
        <ele>536.684</ele>
        <time>2021-06-22T08:44:52Z</time>
      </trkpt>
      <trkpt lat="40.845170" lon="0.206399">
        <ele>535.059</ele>
        <time>2021-06-22T08:45:45Z</time>
      </trkpt>
      <trkpt lat="40.843063" lon="0.203057">
        <ele>526.814</ele>
        <time>2021-06-22T08:46:34Z</time>
      </trkpt>
      <trkpt lat="40.842190" lon="0.200660">
        <ele>526.475</ele>
        <time>2021-06-22T08:47:04Z</time>
      </trkpt>
      <trkpt lat="40.840626" lon="0.198592">
        <ele>526.025</ele>
        <time>2021-06-22T08:47:35Z</time>
      </trkpt>
      <trkpt lat="40.840282" lon="0.196993">
        <ele>523.887</ele>
        <time>2021-06-22T08:47:51Z</time>
      </trkpt>
      <trkpt lat="40.840741" lon="0.194423">
        <ele>520.242</ele>
        <time>2021-06-22T08:48:21Z</time>
      </trkpt>
      <trkpt lat="40.835418" lon="0.189377">
        <ele>549.226</ele>
        <time>2021-06-22T08:54:14Z</time>
      </trkpt>
      <trkpt lat="40.835402" lon="0.189968">
        <ele>556.008</ele>
        <time>2021-06-22T08:54:41Z</time>
      </trkpt>
      <trkpt lat="40.832691" lon="0.188883">
        <ele>588.095</ele>
        <time>2021-06-22T08:57:34Z</time>
      </trkpt>
      <trkpt lat="40.831646" lon="0.185877">
        <ele>594.614</ele>
        <time>2021-06-22T08:58:49Z</time>
      </trkpt>
      <trkpt lat="40.832145" lon="0.184616">
        <ele>583.062</ele>
        <time>2021-06-22T08:59:07Z</time>
      </trkpt>
      <trkpt lat="40.831754" lon="0.183780">
        <ele>570.437</ele>
        <time>2021-06-22T08:59:26Z</time>
      </trkpt>
      <trkpt lat="40.830621" lon="0.184303">
        <ele>559.642</ele>
        <time>2021-06-22T09:32:19Z</time>
      </trkpt>
      <trkpt lat="40.830138" lon="0.183479">
        <ele>559.847</ele>
        <time>2021-06-22T09:32:42Z</time>
      </trkpt>
      <trkpt lat="40.827119" lon="0.186169">
        <ele>553.458</ele>
        <time>2021-06-22T09:34:14Z</time>
      </trkpt>
      <trkpt lat="40.823871" lon="0.186688">
        <ele>562.058</ele>
        <time>2021-06-22T09:35:58Z</time>
      </trkpt>
      <trkpt lat="40.822937" lon="0.187873">
        <ele>567.896</ele>
        <time>2021-06-22T09:36:45Z</time>
      </trkpt>
      <trkpt lat="40.821187" lon="0.187892">
        <ele>569.231</ele>
        <time>2021-06-22T09:37:33Z</time>
      </trkpt>
      <trkpt lat="40.820174" lon="0.186965">
        <ele>569.824</ele>
        <time>2021-06-22T09:38:10Z</time>
      </trkpt>
      <trkpt lat="40.819598" lon="0.185050">
        <ele>576.408</ele>
        <time>2021-06-22T09:39:20Z</time>
      </trkpt>
      <trkpt lat="40.818679" lon="0.186632">
        <ele>582.426</ele>
        <time>2021-06-22T09:40:28Z</time>
      </trkpt>
      <trkpt lat="40.816157" lon="0.186789">
        <ele>580.025</ele>
        <time>2021-06-22T09:41:29Z</time>
      </trkpt>
      <trkpt lat="40.816085" lon="0.184538">
        <ele>579.083</ele>
        <time>2021-06-22T09:42:19Z</time>
      </trkpt>
      <trkpt lat="40.814187" lon="0.182549">
        <ele>585.248</ele>
        <time>2021-06-22T09:43:55Z</time>
      </trkpt>
      <trkpt lat="40.812366" lon="0.183857">
        <ele>587.013</ele>
        <time>2021-06-22T09:44:46Z</time>
      </trkpt>
      <trkpt lat="40.811099" lon="0.186129">
        <ele>588.668</ele>
        <time>2021-06-22T09:45:45Z</time>
      </trkpt>
      <trkpt lat="40.812583" lon="0.181500">
        <ele>585.039</ele>
        <time>2021-06-22T09:47:26Z</time>
      </trkpt>
      <trkpt lat="40.813217" lon="0.180973">
        <ele>584.649</ele>
        <time>2021-06-22T09:47:44Z</time>
      </trkpt>
      <trkpt lat="40.811633" lon="0.175843">
        <ele>594.044</ele>
        <time>2021-06-22T09:49:42Z</time>
      </trkpt>
      <trkpt lat="40.810908" lon="0.170501">
        <ele>620.405</ele>
        <time>2021-06-22T09:57:41Z</time>
      </trkpt>
      <trkpt lat="40.811313" lon="0.170886">
        <ele>625.615</ele>
        <time>2021-06-22T09:58:24Z</time>
      </trkpt>
      <trkpt lat="40.810522" lon="0.169491">
        <ele>642.208</ele>
        <time>2021-06-22T10:00:13Z</time>
      </trkpt>
      <trkpt lat="40.809290" lon="0.164404">
        <ele>700.821</ele>
        <time>2021-06-22T10:05:49Z</time>
      </trkpt>
      <trkpt lat="40.807992" lon="0.163529">
        <ele>703.880</ele>
        <time>2021-06-22T10:08:48Z</time>
      </trkpt>
      <trkpt lat="40.804701" lon="0.164958">
        <ele>738.658</ele>
        <time>2021-06-22T10:12:50Z</time>
      </trkpt>
      <trkpt lat="40.803939" lon="0.164461">
        <ele>752.873</ele>
        <time>2021-06-22T10:14:07Z</time>
      </trkpt>
      <trkpt lat="40.802919" lon="0.165407">
        <ele>761.258</ele>
        <time>2021-06-22T10:15:25Z</time>
      </trkpt>
      <trkpt lat="40.800907" lon="0.165218">
        <ele>781.633</ele>
        <time>2021-06-22T10:20:16Z</time>
      </trkpt>
      <trkpt lat="40.797154" lon="0.167287">
        <ele>823.624</ele>
        <time>2021-06-22T10:25:18Z</time>
      </trkpt>
      <trkpt lat="40.795766" lon="0.167205">
        <ele>835.894</ele>
        <time>2021-06-22T10:26:53Z</time>
      </trkpt>
      <trkpt lat="40.795107" lon="0.166480">
        <ele>838.226</ele>
        <time>2021-06-22T10:28:51Z</time>
      </trkpt>
      <trkpt lat="40.794675" lon="0.167069">
        <ele>837.047</ele>
        <time>2021-06-22T10:29:07Z</time>
      </trkpt>
      <trkpt lat="40.792433" lon="0.167098">
        <ele>817.411</ele>
        <time>2021-06-22T10:29:52Z</time>
      </trkpt>
      <trkpt lat="40.791796" lon="0.168104">
        <ele>812.408</ele>
        <time>2021-06-22T10:30:16Z</time>
      </trkpt>
      <trkpt lat="40.790196" lon="0.168519">
        <ele>807.469</ele>
        <time>2021-06-22T10:30:46Z</time>
      </trkpt>
      <trkpt lat="40.789846" lon="0.169717">
        <ele>806.858</ele>
        <time>2021-06-22T10:31:17Z</time>
      </trkpt>
      <trkpt lat="40.790324" lon="0.171383">
        <ele>792.286</ele>
        <time>2021-06-22T10:31:41Z</time>
      </trkpt>
      <trkpt lat="40.789611" lon="0.172399">
        <ele>783.031</ele>
        <time>2021-06-22T10:32:03Z</time>
      </trkpt>
      <trkpt lat="40.788115" lon="0.171578">
        <ele>784.226</ele>
        <time>2021-06-22T10:32:59Z</time>
      </trkpt>
      <trkpt lat="40.785844" lon="0.171888">
        <ele>769.241</ele>
        <time>2021-06-22T10:37:12Z</time>
      </trkpt>
      <trkpt lat="40.786113" lon="0.172912">
        <ele>773.692</ele>
        <time>2021-06-22T10:37:53Z</time>
      </trkpt>
      <trkpt lat="40.784708" lon="0.173237">
        <ele>773.412</ele>
        <time>2021-06-22T10:38:33Z</time>
      </trkpt>
      <trkpt lat="40.784220" lon="0.173994">
        <ele>775.852</ele>
        <time>2021-06-22T10:39:01Z</time>
      </trkpt>
      <trkpt lat="40.782695" lon="0.174502">
        <ele>778.853</ele>
        <time>2021-06-22T10:39:50Z</time>
      </trkpt>
      <trkpt lat="40.777916" lon="0.172066">
        <ele>804.808</ele>
        <time>2021-06-22T10:43:54Z</time>
      </trkpt>
      <trkpt lat="40.777522" lon="0.172820">
        <ele>808.408</ele>
        <time>2021-06-22T10:44:25Z</time>
      </trkpt>
      <trkpt lat="40.776738" lon="0.172822">
        <ele>812.662</ele>
        <time>2021-06-22T10:45:08Z</time>
      </trkpt>
      <trkpt lat="40.775873" lon="0.175220">
        <ele>825.871</ele>
        <time>2021-06-22T10:46:56Z</time>
      </trkpt>
      <trkpt lat="40.776741" lon="0.175739">
        <ele>837.619</ele>
        <time>2021-06-22T10:48:27Z</time>
      </trkpt>
      <trkpt lat="40.775903" lon="0.176468">
        <ele>852.624</ele>
        <time>2021-06-22T10:49:57Z</time>
      </trkpt>
      <trkpt lat="40.775175" lon="0.175991">
        <ele>860.819</ele>
        <time>2021-06-22T10:51:32Z</time>
      </trkpt>
      <trkpt lat="40.774875" lon="0.176645">
        <ele>858.254</ele>
        <time>2021-06-22T10:51:50Z</time>
      </trkpt>
      <trkpt lat="40.771328" lon="0.173879">
        <ele>864.485</ele>
        <time>2021-06-22T10:54:12Z</time>
      </trkpt>
      <trkpt lat="40.769945" lon="0.173794">
        <ele>881.665</ele>
        <time>2021-06-22T10:55:59Z</time>
      </trkpt>
      <trkpt lat="40.768992" lon="0.172724">
        <ele>896.861</ele>
        <time>2021-06-22T10:57:39Z</time>
      </trkpt>
      <trkpt lat="40.769541" lon="0.174067">
        <ele>908.021</ele>
        <time>2021-06-22T10:59:09Z</time>
      </trkpt>
      <trkpt lat="40.768347" lon="0.173112">
        <ele>927.013</ele>
        <time>2021-06-22T11:01:10Z</time>
      </trkpt>
      <trkpt lat="40.768176" lon="0.172023">
        <ele>937.808</ele>
        <time>2021-06-22T11:02:17Z</time>
      </trkpt>
      <trkpt lat="40.766892" lon="0.171268">
        <ele>954.673</ele>
        <time>2021-06-22T11:04:00Z</time>
      </trkpt>
      <trkpt lat="40.765232" lon="0.171381">
        <ele>969.692</ele>
        <time>2021-06-22T11:05:56Z</time>
      </trkpt>
      <trkpt lat="40.760915" lon="0.173561">
        <ele>1008.840</ele>
        <time>2021-06-22T11:11:14Z</time>
      </trkpt>
      <trkpt lat="40.755820" lon="0.172367">
        <ele>1071.855</ele>
        <time>2021-06-22T11:18:12Z</time>
      </trkpt>
      <trkpt lat="40.754897" lon="0.173172">
        <ele>1083.440</ele>
        <time>2021-06-22T11:19:30Z</time>
      </trkpt>
      <trkpt lat="40.755424" lon="0.173389">
        <ele>1090.495</ele>
        <time>2021-06-22T11:20:55Z</time>
      </trkpt>
      <trkpt lat="40.755806" lon="0.175690">
        <ele>1110.816</ele>
        <time>2021-06-22T11:23:00Z</time>
      </trkpt>
      <trkpt lat="40.755404" lon="0.177514">
        <ele>1123.466</ele>
        <time>2021-06-22T11:24:49Z</time>
      </trkpt>
      <trkpt lat="40.753530" lon="0.181124">
        <ele>1160.411</ele>
        <time>2021-06-22T11:28:42Z</time>
      </trkpt>
      <trkpt lat="40.753120" lon="0.181113">
        <ele>1163.621</ele>
        <time>2021-06-22T11:29:24Z</time>
      </trkpt>
      <trkpt lat="40.753146" lon="0.180211">
        <ele>1168.403</ele>
        <time>2021-06-22T11:30:10Z</time>
      </trkpt>
      <trkpt lat="40.751931" lon="0.180286">
        <ele>1179.208</ele>
        <time>2021-06-22T11:31:33Z</time>
      </trkpt>
      <trkpt lat="40.750045" lon="0.181953">
        <ele>1201.098</ele>
        <time>2021-06-22T11:34:27Z</time>
      </trkpt>
      <trkpt lat="40.746943" lon="0.181444">
        <ele>1207.267</ele>
        <time>2021-06-22T11:36:38Z</time>
      </trkpt>
      <trkpt lat="40.743591" lon="0.184693">
        <ele>1207.465</ele>
        <time>2021-06-22T11:39:25Z</time>
      </trkpt>
      <trkpt lat="40.743026" lon="0.185959">
        <ele>1213.680</ele>
        <time>2021-06-22T11:40:31Z</time>
      </trkpt>
      <trkpt lat="40.741624" lon="0.186169">
        <ele>1210.415</ele>
        <time>2021-06-22T11:41:24Z</time>
      </trkpt>
      <trkpt lat="40.740198" lon="0.189677">
        <ele>1201.650</ele>
        <time>2021-06-22T11:53:33Z</time>
      </trkpt>
      <trkpt lat="40.741967" lon="0.187185">
        <ele>1203.081</ele>
        <time>2021-06-22T11:54:57Z</time>
      </trkpt>
      <trkpt lat="40.743106" lon="0.189141">
        <ele>1199.871</ele>
        <time>2021-06-22T11:55:38Z</time>
      </trkpt>
      <trkpt lat="40.744625" lon="0.190335">
        <ele>1187.216</ele>
        <time>2021-06-22T11:56:16Z</time>
      </trkpt>
      <trkpt lat="40.743603" lon="0.190914">
        <ele>1181.676</ele>
        <time>2021-06-22T11:56:54Z</time>
      </trkpt>
      <trkpt lat="40.742463" lon="0.189851">
        <ele>1171.613</ele>
        <time>2021-06-22T11:57:23Z</time>
      </trkpt>
      <trkpt lat="40.742124" lon="0.193911">
        <ele>1143.008</ele>
        <time>2021-06-22T12:00:04Z</time>
      </trkpt>
      <trkpt lat="40.742724" lon="0.195019">
        <ele>1131.818</ele>
        <time>2021-06-22T12:00:28Z</time>
      </trkpt>
      <trkpt lat="40.742293" lon="0.195131">
        <ele>1128.427</ele>
        <time>2021-06-22T12:00:40Z</time>
      </trkpt>
      <trkpt lat="40.743005" lon="0.196735">
        <ele>1114.425</ele>
        <time>2021-06-22T12:01:17Z</time>
      </trkpt>
      <trkpt lat="40.741331" lon="0.195915">
        <ele>1099.280</ele>
        <time>2021-06-22T12:01:51Z</time>
      </trkpt>
      <trkpt lat="40.740260" lon="0.196399">
        <ele>1094.025</ele>
        <time>2021-06-22T12:02:11Z</time>
      </trkpt>
      <trkpt lat="40.741439" lon="0.198113">
        <ele>1090.040</ele>
        <time>2021-06-22T12:02:53Z</time>
      </trkpt>
      <trkpt lat="40.740716" lon="0.200476">
        <ele>1065.411</ele>
        <time>2021-06-22T12:03:51Z</time>
      </trkpt>
      <trkpt lat="40.739732" lon="0.199201">
        <ele>1064.061</ele>
        <time>2021-06-22T12:04:32Z</time>
      </trkpt>
      <trkpt lat="40.738029" lon="0.200235">
        <ele>1071.611</ele>
        <time>2021-06-22T12:09:40Z</time>
      </trkpt>
      <trkpt lat="40.737286" lon="0.201975">
        <ele>1070.421</ele>
        <time>2021-06-22T12:10:20Z</time>
      </trkpt>
      <trkpt lat="40.735352" lon="0.203114">
        <ele>1075.603</ele>
        <time>2021-06-22T12:11:15Z</time>
      </trkpt>
      <trkpt lat="40.732840" lon="0.202684">
        <ele>1083.208</ele>
        <time>2021-06-22T12:12:46Z</time>
      </trkpt>
      <trkpt lat="40.730373" lon="0.205262">
        <ele>1110.838</ele>
        <time>2021-06-22T12:15:42Z</time>
      </trkpt>
      <trkpt lat="40.732001" lon="0.209254">
        <ele>1117.417</ele>
        <time>2021-06-22T12:18:17Z</time>
      </trkpt>
      <trkpt lat="40.732289" lon="0.211542">
        <ele>1125.095</ele>
        <time>2021-06-22T12:19:21Z</time>
      </trkpt>
      <trkpt lat="40.733614" lon="0.214660">
        <ele>1157.880</ele>
        <time>2021-06-22T12:22:27Z</time>
      </trkpt>
      <trkpt lat="40.735853" lon="0.217429">
        <ele>1133.255</ele>
        <time>2021-06-22T12:24:44Z</time>
      </trkpt>
      <trkpt lat="40.734955" lon="0.216949">
        <ele>1123.040</ele>
        <time>2021-06-22T12:25:08Z</time>
      </trkpt>
      <trkpt lat="40.736595" lon="0.219628">
        <ele>1086.611</ele>
        <time>2021-06-22T12:26:11Z</time>
      </trkpt>
      <trkpt lat="40.737483" lon="0.220171">
        <ele>1081.251</ele>
        <time>2021-06-22T12:26:30Z</time>
      </trkpt>
      <trkpt lat="40.738910" lon="0.219911">
        <ele>1071.261</ele>
        <time>2021-06-22T12:26:57Z</time>
      </trkpt>
      <trkpt lat="40.740004" lon="0.221888">
        <ele>1060.221</ele>
        <time>2021-06-22T12:27:31Z</time>
      </trkpt>
      <trkpt lat="40.742274" lon="0.221805">
        <ele>1054.013</ele>
        <time>2021-06-22T12:28:13Z</time>
      </trkpt>
      <trkpt lat="40.742163" lon="0.222611">
        <ele>1053.608</ele>
        <time>2021-06-22T12:28:45Z</time>
      </trkpt>
      <trkpt lat="40.744299" lon="0.229307">
        <ele>1093.813</ele>
        <time>2021-06-22T12:33:38Z</time>
      </trkpt>
      <trkpt lat="40.743229" lon="0.229706">
        <ele>1108.682</ele>
        <time>2021-06-22T12:35:01Z</time>
      </trkpt>
      <trkpt lat="40.742190" lon="0.228433">
        <ele>1127.640</ele>
        <time>2021-06-22T12:36:39Z</time>
      </trkpt>
      <trkpt lat="40.742563" lon="0.230481">
        <ele>1144.095</ele>
        <time>2021-06-22T12:39:29Z</time>
      </trkpt>
      <trkpt lat="40.745041" lon="0.233526">
        <ele>1167.610</ele>
        <time>2021-06-22T12:42:24Z</time>
      </trkpt>
      <trkpt lat="40.745921" lon="0.233457">
        <ele>1181.075</ele>
        <time>2021-06-22T12:44:25Z</time>
      </trkpt>
      <trkpt lat="40.750225" lon="0.237144">
        <ele>1182.666</ele>
        <time>2021-06-22T12:49:05Z</time>
      </trkpt>
      <trkpt lat="40.752430" lon="0.237945">
        <ele>1181.626</ele>
        <time>2021-06-22T12:50:09Z</time>
      </trkpt>
      <trkpt lat="40.754233" lon="0.241082">
        <ele>1182.426</ele>
        <time>2021-06-22T12:51:25Z</time>
      </trkpt>
      <trkpt lat="40.755029" lon="0.244433">
        <ele>1159.647</ele>
        <time>2021-06-22T12:52:37Z</time>
      </trkpt>
      <trkpt lat="40.753605" lon="0.243502">
        <ele>1143.811</ele>
        <time>2021-06-22T12:53:14Z</time>
      </trkpt>
      <trkpt lat="40.753291" lon="0.244872">
        <ele>1137.208</ele>
        <time>2021-06-22T12:53:33Z</time>
      </trkpt>
      <trkpt lat="40.753952" lon="0.244450">
        <ele>1131.229</ele>
        <time>2021-06-22T12:53:49Z</time>
      </trkpt>
      <trkpt lat="40.752715" lon="0.247749">
        <ele>1109.298</ele>
        <time>2021-06-22T12:54:37Z</time>
      </trkpt>
      <trkpt lat="40.751897" lon="0.248607">
        <ele>1098.876</ele>
        <time>2021-06-22T12:54:59Z</time>
      </trkpt>
      <trkpt lat="40.750270" lon="0.248925">
        <ele>1086.231</ele>
        <time>2021-06-22T12:55:39Z</time>
      </trkpt>
      <trkpt lat="40.750970" lon="0.251946">
        <ele>1063.076</ele>
        <time>2021-06-22T13:01:12Z</time>
      </trkpt>
      <trkpt lat="40.749608" lon="0.253444">
        <ele>1038.421</ele>
        <time>2021-06-22T13:02:05Z</time>
      </trkpt>
      <trkpt lat="40.750213" lon="0.252175">
        <ele>1021.482</ele>
        <time>2021-06-22T13:02:42Z</time>
      </trkpt>
      <trkpt lat="40.749181" lon="0.249414">
        <ele>993.842</ele>
        <time>2021-06-22T13:03:41Z</time>
      </trkpt>
      <trkpt lat="40.749058" lon="0.251709">
        <ele>983.068</ele>
        <time>2021-06-22T13:04:20Z</time>
      </trkpt>
      <trkpt lat="40.748101" lon="0.254038">
        <ele>990.042</ele>
        <time>2021-06-22T13:06:30Z</time>
      </trkpt>
      <trkpt lat="40.748542" lon="0.255025">
        <ele>988.826</ele>
        <time>2021-06-22T13:06:55Z</time>
      </trkpt>
      <trkpt lat="40.751317" lon="0.255346">
        <ele>971.408</ele>
        <time>2021-06-22T13:08:25Z</time>
      </trkpt>
      <trkpt lat="40.750681" lon="0.258345">
        <ele>972.653</ele>
        <time>2021-06-22T13:09:47Z</time>
      </trkpt>
      <trkpt lat="40.749835" lon="0.257694">
        <ele>977.682</ele>
        <time>2021-06-22T13:10:37Z</time>
      </trkpt>
      <trkpt lat="40.749285" lon="0.258075">
        <ele>979.260</ele>
        <time>2021-06-22T13:11:00Z</time>
      </trkpt>
      <trkpt lat="40.749238" lon="0.259475">
        <ele>976.095</ele>
        <time>2021-06-22T13:11:22Z</time>
      </trkpt>
      <trkpt lat="40.747923" lon="0.258780">
        <ele>971.040</ele>
        <time>2021-06-22T13:12:00Z</time>
      </trkpt>
      <trkpt lat="40.747478" lon="0.259521">
        <ele>966.495</ele>
        <time>2021-06-22T13:12:19Z</time>
      </trkpt>
      <trkpt lat="40.747978" lon="0.260654">
        <ele>960.426</ele>
        <time>2021-06-22T13:12:39Z</time>
      </trkpt>
      <trkpt lat="40.749507" lon="0.261934">
        <ele>948.026</ele>
        <time>2021-06-22T13:13:17Z</time>
      </trkpt>
      <trkpt lat="40.749057" lon="0.264276">
        <ele>922.863</ele>
        <time>2021-06-22T13:14:05Z</time>
      </trkpt>
      <trkpt lat="40.748410" lon="0.262600">
        <ele>908.644</ele>
        <time>2021-06-22T13:21:16Z</time>
      </trkpt>
      <trkpt lat="40.745565" lon="0.259617">
        <ele>905.418</ele>
        <time>2021-06-22T13:23:16Z</time>
      </trkpt>
      <trkpt lat="40.745248" lon="0.260197">
        <ele>912.008</ele>
        <time>2021-06-22T13:23:48Z</time>
      </trkpt>
      <trkpt lat="40.743564" lon="0.260516">
        <ele>912.033</ele>
        <time>2021-06-22T13:24:43Z</time>
      </trkpt>
      <trkpt lat="40.743174" lon="0.259948">
        <ele>905.842</ele>
        <time>2021-06-22T13:24:54Z</time>
      </trkpt>
      <trkpt lat="40.740647" lon="0.260436">
        <ele>883.260</ele>
        <time>2021-06-22T13:28:16Z</time>
      </trkpt>
      <trkpt lat="40.739987" lon="0.264667">
        <ele>856.645</ele>
        <time>2021-06-22T13:29:39Z</time>
      </trkpt>
      <trkpt lat="40.738689" lon="0.264898">
        <ele>846.220</ele>
        <time>2021-06-22T13:30:05Z</time>
      </trkpt>
      <trkpt lat="40.738688" lon="0.267079">
        <ele>827.425</ele>
        <time>2021-06-22T13:30:48Z</time>
      </trkpt>
      <trkpt lat="40.739530" lon="0.268673">
        <ele>807.446</ele>
        <time>2021-06-22T13:31:21Z</time>
      </trkpt>
      <trkpt lat="40.738532" lon="0.270149">
        <ele>782.036</ele>
        <time>2021-06-22T13:32:13Z</time>
      </trkpt>
      <trkpt lat="40.736924" lon="0.267614">
        <ele>779.885</ele>
        <time>2021-06-22T13:35:51Z</time>
      </trkpt>
      <trkpt lat="40.737095" lon="0.266788">
        <ele>778.489</ele>
        <time>2021-06-22T13:36:13Z</time>
      </trkpt>
      <trkpt lat="40.736254" lon="0.266267">
        <ele>770.017</ele>
        <time>2021-06-22T13:36:39Z</time>
      </trkpt>
      <trkpt lat="40.735918" lon="0.264930">
        <ele>759.008</ele>
        <time>2021-06-22T13:37:01Z</time>
      </trkpt>
      <trkpt lat="40.736551" lon="0.263940">
        <ele>750.625</ele>
        <time>2021-06-22T13:37:20Z</time>
      </trkpt>
      <trkpt lat="40.736286" lon="0.262890">
        <ele>737.424</ele>
        <time>2021-06-22T13:37:39Z</time>
      </trkpt>
      <trkpt lat="40.737102" lon="0.261603">
        <ele>722.072</ele>
        <time>2021-06-22T13:38:13Z</time>
      </trkpt>
      <trkpt lat="40.736956" lon="0.256669">
        <ele>662.677</ele>
        <time>2021-06-22T13:39:51Z</time>
      </trkpt>
      <trkpt lat="40.735829" lon="0.256088">
        <ele>651.462</ele>
        <time>2021-06-22T13:40:22Z</time>
      </trkpt>
      <trkpt lat="40.735317" lon="0.253693">
        <ele>646.827</ele>
        <time>2021-06-22T13:40:55Z</time>
      </trkpt>
      <trkpt lat="40.731876" lon="0.251461">
        <ele>640.468</ele>
        <time>2021-06-22T13:45:00Z</time>
      </trkpt>
      <trkpt lat="40.731519" lon="0.250105">
        <ele>650.838</ele>
        <time>2021-06-22T13:46:05Z</time>
      </trkpt>
      <trkpt lat="40.727804" lon="0.246797">
        <ele>622.435</ele>
        <time>2021-06-22T13:47:41Z</time>
      </trkpt>
      <trkpt lat="40.726291" lon="0.246559">
        <ele>614.486</ele>
        <time>2021-06-22T13:48:10Z</time>
      </trkpt>
      <trkpt lat="40.725986" lon="0.244772">
        <ele>609.814</ele>
        <time>2021-06-22T13:48:36Z</time>
      </trkpt>
      <trkpt lat="40.724680" lon="0.244041">
        <ele>604.008</ele>
        <time>2021-06-22T13:49:00Z</time>
      </trkpt>
      <trkpt lat="40.723556" lon="0.244392">
        <ele>602.880</ele>
        <time>2021-06-22T13:49:35Z</time>
      </trkpt>
      <trkpt lat="40.722994" lon="0.243512">
        <ele>595.869</ele>
        <time>2021-06-22T13:50:05Z</time>
      </trkpt>
      <trkpt lat="40.720181" lon="0.245960">
        <ele>587.017</ele>
        <time>2021-06-22T13:51:50Z</time>
      </trkpt>
      <trkpt lat="40.720144" lon="0.247478">
        <ele>592.022</ele>
        <time>2021-06-22T13:52:33Z</time>
      </trkpt>
      <trkpt lat="40.718536" lon="0.246224">
        <ele>598.497</ele>
        <time>2021-06-22T13:53:43Z</time>
      </trkpt>
      <trkpt lat="40.716778" lon="0.246449">
        <ele>602.672</ele>
        <time>2021-06-22T13:56:18Z</time>
      </trkpt>
      <trkpt lat="40.716276" lon="0.244451">
        <ele>608.043</ele>
        <time>2021-06-22T13:57:21Z</time>
      </trkpt>
      <trkpt lat="40.715137" lon="0.243661">
        <ele>606.433</ele>
        <time>2021-06-22T13:58:00Z</time>
      </trkpt>
      <trkpt lat="40.713193" lon="0.244258">
        <ele>591.464</ele>
        <time>2021-06-22T13:58:43Z</time>
      </trkpt>
      <trkpt lat="40.712417" lon="0.240635">
        <ele>571.206</ele>
        <time>2021-06-22T13:59:38Z</time>
      </trkpt>
      <trkpt lat="40.711477" lon="0.238983">
        <ele>562.616</ele>
        <time>2021-06-22T14:00:09Z</time>
      </trkpt>
      <trkpt lat="40.711977" lon="0.238058">
        <ele>556.008</ele>
        <time>2021-06-22T14:00:27Z</time>
      </trkpt>
      <trkpt lat="40.711689" lon="0.237138">
        <ele>551.033</ele>
        <time>2021-06-22T14:00:47Z</time>
      </trkpt>
      <trkpt lat="40.706444" lon="0.236222">
        <ele>537.622</ele>
        <time>2021-06-22T14:03:12Z</time>
      </trkpt>
      <trkpt lat="40.705781" lon="0.234627">
        <ele>534.650</ele>
        <time>2021-06-22T14:04:57Z</time>
      </trkpt>
      <trkpt lat="40.703945" lon="0.234786">
        <ele>534.415</ele>
        <time>2021-06-22T14:05:51Z</time>
      </trkpt>
      <trkpt lat="40.701891" lon="0.231193">
        <ele>517.880</ele>
        <time>2021-06-22T14:06:55Z</time>
      </trkpt>
      <trkpt lat="40.702993" lon="0.229291">
        <ele>509.095</ele>
        <time>2021-06-22T14:07:24Z</time>
      </trkpt>
      <trkpt lat="40.702851" lon="0.228469">
        <ele>508.496</ele>
        <time>2021-06-22T14:07:39Z</time>
      </trkpt>
      <trkpt lat="40.699912" lon="0.227265">
        <ele>501.816</ele>
        <time>2021-06-22T14:09:03Z</time>
      </trkpt>
      <trkpt lat="40.700345" lon="0.226293">
        <ele>498.446</ele>
        <time>2021-06-22T14:10:26Z</time>
      </trkpt>
      <trkpt lat="40.699731" lon="0.227427">
        <ele>500.288</ele>
        <time>2021-06-22T14:11:50Z</time>
      </trkpt>
      <trkpt lat="40.698248" lon="0.226684">
        <ele>498.216</ele>
        <time>2021-06-22T14:12:25Z</time>
      </trkpt>
      <trkpt lat="40.696931" lon="0.224014">
        <ele>485.608</ele>
        <time>2021-06-22T14:13:04Z</time>
      </trkpt>
      <trkpt lat="40.693740" lon="0.223825">
        <ele>489.061</ele>
        <time>2021-06-22T14:14:46Z</time>
      </trkpt>
      <trkpt lat="40.691567" lon="0.220433">
        <ele>490.060</ele>
        <time>2021-06-22T14:18:09Z</time>
      </trkpt>
      <trkpt lat="40.690634" lon="0.219804">
        <ele>484.228</ele>
        <time>2021-06-22T14:18:32Z</time>
      </trkpt>
      <trkpt lat="40.689153" lon="0.220002">
        <ele>478.893</ele>
        <time>2021-06-22T14:19:04Z</time>
      </trkpt>
      <trkpt lat="40.687926" lon="0.222264">
        <ele>479.488</ele>
        <time>2021-06-22T14:20:00Z</time>
      </trkpt>
      <trkpt lat="40.685265" lon="0.221958">
        <ele>484.253</ele>
        <time>2021-06-22T14:21:16Z</time>
      </trkpt>
      <trkpt lat="40.683461" lon="0.223121">
        <ele>486.614</ele>
        <time>2021-06-22T14:22:15Z</time>
      </trkpt>
      <trkpt lat="40.681408" lon="0.226277">
        <ele>502.854</ele>
        <time>2021-06-22T14:29:01Z</time>
      </trkpt>
      <trkpt lat="40.680898" lon="0.228398">
        <ele>502.244</ele>
        <time>2021-06-22T14:31:04Z</time>
      </trkpt>
      <trkpt lat="40.678515" lon="0.230122">
        <ele>491.005</ele>
        <time>2021-06-22T14:32:01Z</time>
      </trkpt>
      <trkpt lat="40.676590" lon="0.228949">
        <ele>493.415</ele>
        <time>2021-06-22T14:33:14Z</time>
      </trkpt>
      <trkpt lat="40.671011" lon="0.230968">
        <ele>476.608</ele>
        <time>2021-06-22T14:35:54Z</time>
      </trkpt>
      <trkpt lat="40.671227" lon="0.232575">
        <ele>476.481</ele>
        <time>2021-06-22T14:38:04Z</time>
      </trkpt>
      <trkpt lat="40.669013" lon="0.235007">
        <ele>458.440</ele>
        <time>2021-06-22T15:56:44Z</time>
      </trkpt>
      <trkpt lat="40.669715" lon="0.237274">
        <ele>441.868</ele>
        <time>2021-06-22T15:57:02Z</time>
      </trkpt>
      <trkpt lat="40.672076" lon="0.238015">
        <ele>419.853</ele>
        <time>2021-06-22T15:57:23Z</time>
      </trkpt>
      <trkpt lat="40.670746" lon="0.241137">
        <ele>417.218</ele>
        <time>2021-06-22T15:58:03Z</time>
      </trkpt>
      <trkpt lat="40.670327" lon="0.245602">
        <ele>414.423</ele>
        <time>2021-06-22T15:59:05Z</time>
      </trkpt>
      <trkpt lat="40.668625" lon="0.249907">
        <ele>416.614</ele>
        <time>2021-06-22T16:00:22Z</time>
      </trkpt>
      <trkpt lat="40.669348" lon="0.251617">
        <ele>411.044</ele>
        <time>2021-06-22T16:00:45Z</time>
      </trkpt>
      <trkpt lat="40.669167" lon="0.252615">
        <ele>403.417</ele>
        <time>2021-06-22T16:00:56Z</time>
      </trkpt>
      <trkpt lat="40.670482" lon="0.257612">
        <ele>396.687</ele>
        <time>2021-06-22T16:01:59Z</time>
      </trkpt>
      <trkpt lat="40.668443" lon="0.263916">
        <ele>394.015</ele>
        <time>2021-06-22T16:03:17Z</time>
      </trkpt>
      <trkpt lat="40.661430" lon="0.265163">
        <ele>371.808</ele>
        <time>2021-06-22T16:04:43Z</time>
      </trkpt>
      <trkpt lat="40.660237" lon="0.267602">
        <ele>374.818</ele>
        <time>2021-06-22T16:05:20Z</time>
      </trkpt>
      <trkpt lat="40.658925" lon="0.267037">
        <ele>371.457</ele>
        <time>2021-06-22T16:05:40Z</time>
      </trkpt>
      <trkpt lat="40.654310" lon="0.268069">
        <ele>365.635</ele>
        <time>2021-06-22T16:06:42Z</time>
      </trkpt>
      <trkpt lat="40.653114" lon="0.267778">
        <ele>364.640</ele>
        <time>2021-06-22T16:06:59Z</time>
      </trkpt>
      <trkpt lat="40.648446" lon="0.268719">
        <ele>364.275</ele>
        <time>2021-06-22T16:08:18Z</time>
      </trkpt>
      <trkpt lat="40.647648" lon="0.269935">
        <ele>362.250</ele>
        <time>2021-06-22T16:08:43Z</time>
      </trkpt>
      <trkpt lat="40.646088" lon="0.269456">
        <ele>371.261</ele>
        <time>2021-06-22T16:09:40Z</time>
      </trkpt>
      <trkpt lat="40.645237" lon="0.270343">
        <ele>377.881</ele>
        <time>2021-06-22T16:10:21Z</time>
      </trkpt>
      <trkpt lat="40.645288" lon="0.271332">
        <ele>379.026</ele>
        <time>2021-06-22T16:10:43Z</time>
      </trkpt>
      <trkpt lat="40.635710" lon="0.278553">
        <ele>358.247</ele>
        <time>2021-06-22T16:14:15Z</time>
      </trkpt>
      <trkpt lat="40.634850" lon="0.280095">
        <ele>362.611</ele>
        <time>2021-06-22T16:14:53Z</time>
      </trkpt>
      <trkpt lat="40.635377" lon="0.280847">
        <ele>361.408</ele>
        <time>2021-06-22T16:15:13Z</time>
      </trkpt>
      <trkpt lat="40.634310" lon="0.283977">
        <ele>357.039</ele>
        <time>2021-06-22T16:16:20Z</time>
      </trkpt>
      <trkpt lat="40.634617" lon="0.284359">
        <ele>357.488</ele>
        <time>2021-06-22T16:16:43Z</time>
      </trkpt>
      <trkpt lat="40.634290" lon="0.284191">
        <ele>356.476</ele>
        <time>2021-06-22T16:21:39Z</time>
      </trkpt>
      <trkpt lat="40.633208" lon="0.286213">
        <ele>353.021</ele>
        <time>2021-06-22T16:22:17Z</time>
      </trkpt>
      <trkpt lat="40.632146" lon="0.291992">
        <ele>338.846</ele>
        <time>2021-06-22T16:23:12Z</time>
      </trkpt>
      <trkpt lat="40.638887" lon="0.303891">
        <ele>331.471</ele>
        <time>2021-06-22T16:25:55Z</time>
      </trkpt>
      <trkpt lat="40.642034" lon="0.307491">
        <ele>334.212</ele>
        <time>2021-06-22T16:26:54Z</time>
      </trkpt>
      <trkpt lat="40.642676" lon="0.307540">
        <ele>333.252</ele>
        <time>2021-06-22T16:27:03Z</time>
      </trkpt>
      <trkpt lat="40.643573" lon="0.309645">
        <ele>330.499</ele>
        <time>2021-06-22T16:27:31Z</time>
      </trkpt>
      <trkpt lat="40.643656" lon="0.312836">
        <ele>322.207</ele>
        <time>2021-06-22T16:28:03Z</time>
      </trkpt>
      <trkpt lat="40.640967" lon="0.322407">
        <ele>297.227</ele>
        <time>2021-06-22T16:29:31Z</time>
      </trkpt>
      <trkpt lat="40.648864" lon="0.331764">
        <ele>288.608</ele>
        <time>2021-06-22T16:31:56Z</time>
      </trkpt>
      <trkpt lat="40.648980" lon="0.332476">
        <ele>286.626</ele>
        <time>2021-06-22T16:32:09Z</time>
      </trkpt>
      <trkpt lat="40.648970" lon="0.331823">
        <ele>289.065</ele>
        <time>2021-06-22T16:32:52Z</time>
      </trkpt>
      <trkpt lat="40.653925" lon="0.340747">
        <ele>292.843</ele>
        <time>2021-06-22T16:35:41Z</time>
      </trkpt>
      <trkpt lat="40.655340" lon="0.342334">
        <ele>294.068</ele>
        <time>2021-06-22T16:36:15Z</time>
      </trkpt>
      <trkpt lat="40.659786" lon="0.352404">
        <ele>295.083</ele>
        <time>2021-06-22T16:38:47Z</time>
      </trkpt>
      <trkpt lat="40.664011" lon="0.356087">
        <ele>299.678</ele>
        <time>2021-06-22T16:40:22Z</time>
      </trkpt>
      <trkpt lat="40.673179" lon="0.365854">
        <ele>290.279</ele>
        <time>2021-06-22T16:43:20Z</time>
      </trkpt>
      <trkpt lat="40.672818" lon="0.365636">
        <ele>291.429</ele>
        <time>2021-06-22T16:43:36Z</time>
      </trkpt>
      <trkpt lat="40.671486" lon="0.370593">
        <ele>275.821</ele>
        <time>2021-06-22T16:44:47Z</time>
      </trkpt>
      <trkpt lat="40.669971" lon="0.379822">
        <ele>251.241</ele>
        <time>2021-06-22T16:46:28Z</time>
      </trkpt>
      <trkpt lat="40.670243" lon="0.383803">
        <ele>242.605</ele>
        <time>2021-06-22T16:47:34Z</time>
      </trkpt>
      <trkpt lat="40.669187" lon="0.384360">
        <ele>240.808</ele>
        <time>2021-06-22T16:48:04Z</time>
      </trkpt>
      <trkpt lat="40.667761" lon="0.391928">
        <ele>222.649</ele>
        <time>2021-06-22T16:49:56Z</time>
      </trkpt>
      <trkpt lat="40.668427" lon="0.396525">
        <ele>213.088</ele>
        <time>2021-06-22T16:51:05Z</time>
      </trkpt>
      <trkpt lat="40.669400" lon="0.397736">
        <ele>210.876</ele>
        <time>2021-06-22T16:51:33Z</time>
      </trkpt>
      <trkpt lat="40.669295" lon="0.403239">
        <ele>199.091</ele>
        <time>2021-06-22T16:52:41Z</time>
      </trkpt>
      <trkpt lat="40.663684" lon="0.413933">
        <ele>176.046</ele>
        <time>2021-06-22T16:55:43Z</time>
      </trkpt>
      <trkpt lat="40.663306" lon="0.417180">
        <ele>171.481</ele>
        <time>2021-06-22T16:56:26Z</time>
      </trkpt>
      <trkpt lat="40.660838" lon="0.422396">
        <ele>159.432</ele>
        <time>2021-06-22T16:57:59Z</time>
      </trkpt>
      <trkpt lat="40.660284" lon="0.427147">
        <ele>153.022</ele>
        <time>2021-06-22T16:59:03Z</time>
      </trkpt>
      <trkpt lat="40.659337" lon="0.429900">
        <ele>148.629</ele>
        <time>2021-06-22T16:59:49Z</time>
      </trkpt>
      <trkpt lat="40.658389" lon="0.430995">
        <ele>145.800</ele>
        <time>2021-06-22T17:00:12Z</time>
      </trkpt>
      <trkpt lat="40.657609" lon="0.433182">
        <ele>146.420</ele>
        <time>2021-06-22T17:00:58Z</time>
      </trkpt>
      <trkpt lat="40.654494" lon="0.431363">
        <ele>144.008</ele>
        <time>2021-06-22T17:02:14Z</time>
      </trkpt>
      <trkpt lat="40.652256" lon="0.431444">
        <ele>143.649</ele>
        <time>2021-06-22T17:02:54Z</time>
      </trkpt>
      <trkpt lat="40.647016" lon="0.429324">
        <ele>144.628</ele>
        <time>2021-06-22T17:04:22Z</time>
      </trkpt>
      <trkpt lat="40.646902" lon="0.430410">
        <ele>144.466</ele>
        <time>2021-06-22T17:04:57Z</time>
      </trkpt>
      <trkpt lat="40.645964" lon="0.429907">
        <ele>143.481</ele>
        <time>2021-06-22T17:05:23Z</time>
      </trkpt>
      <trkpt lat="40.641292" lon="0.432039">
        <ele>150.276</ele>
        <time>2021-06-22T17:07:55Z</time>
      </trkpt>
      <trkpt lat="40.639549" lon="0.433664">
        <ele>158.451</ele>
        <time>2021-06-22T17:09:55Z</time>
      </trkpt>
      <trkpt lat="40.638577" lon="0.435446">
        <ele>164.642</ele>
        <time>2021-06-22T17:10:59Z</time>
      </trkpt>
      <trkpt lat="40.636773" lon="0.436633">
        <ele>169.842</ele>
        <time>2021-06-22T17:12:10Z</time>
      </trkpt>
      <trkpt lat="40.638497" lon="0.439826">
        <ele>181.421</ele>
        <time>2021-06-22T17:14:12Z</time>
      </trkpt>
      <trkpt lat="40.637923" lon="0.439630">
        <ele>185.641</ele>
        <time>2021-06-22T17:14:39Z</time>
      </trkpt>
      <trkpt lat="40.634919" lon="0.441553">
        <ele>192.405</ele>
        <time>2021-06-22T17:16:07Z</time>
      </trkpt>
      <trkpt lat="40.633604" lon="0.444176">
        <ele>201.008</ele>
        <time>2021-06-22T17:17:30Z</time>
      </trkpt>
      <trkpt lat="40.631499" lon="0.444156">
        <ele>209.269</ele>
        <time>2021-06-22T17:18:49Z</time>
      </trkpt>
      <trkpt lat="40.629537" lon="0.445382">
        <ele>216.468</ele>
        <time>2021-06-22T17:20:06Z</time>
      </trkpt>
      <trkpt lat="40.629151" lon="0.444771">
        <ele>220.666</ele>
        <time>2021-06-22T17:20:32Z</time>
      </trkpt>
      <trkpt lat="40.630415" lon="0.443216">
        <ele>222.291</ele>
        <time>2021-06-22T17:21:08Z</time>
      </trkpt>
      <trkpt lat="40.631940" lon="0.442609">
        <ele>226.066</ele>
        <time>2021-06-22T17:21:47Z</time>
      </trkpt>
      <trkpt lat="40.632315" lon="0.441173">
        <ele>231.241</ele>
        <time>2021-06-22T17:22:22Z</time>
      </trkpt>
      <trkpt lat="40.630918" lon="0.440560">
        <ele>236.822</ele>
        <time>2021-06-22T17:23:16Z</time>
      </trkpt>
      <trkpt lat="40.629861" lon="0.441222">
        <ele>242.892</ele>
        <time>2021-06-22T17:24:04Z</time>
      </trkpt>
      <trkpt lat="40.628685" lon="0.440995">
        <ele>250.037</ele>
        <time>2021-06-22T17:24:56Z</time>
      </trkpt>
      <trkpt lat="40.628783" lon="0.439579">
        <ele>256.649</ele>
        <time>2021-06-22T17:25:38Z</time>
      </trkpt>
      <trkpt lat="40.625742" lon="0.440306">
        <ele>265.213</ele>
        <time>2021-06-22T17:27:33Z</time>
      </trkpt>
      <trkpt lat="40.625885" lon="0.441420">
        <ele>259.608</ele>
        <time>2021-06-22T17:27:45Z</time>
      </trkpt>
      <trkpt lat="40.625383" lon="0.441856">
        <ele>255.410</ele>
        <time>2021-06-22T17:27:53Z</time>
      </trkpt>
      <trkpt lat="40.622639" lon="0.440595">
        <ele>237.449</ele>
        <time>2021-06-22T17:28:32Z</time>
      </trkpt>
      <trkpt lat="40.622913" lon="0.441527">
        <ele>235.047</ele>
        <time>2021-06-22T17:28:45Z</time>
      </trkpt>
      <trkpt lat="40.621668" lon="0.441406">
        <ele>225.892</ele>
        <time>2021-06-22T17:29:02Z</time>
      </trkpt>
      <trkpt lat="40.618873" lon="0.443953">
        <ele>203.027</ele>
        <time>2021-06-22T17:29:40Z</time>
      </trkpt>
      <trkpt lat="40.617157" lon="0.442034">
        <ele>187.242</ele>
        <time>2021-06-22T17:30:05Z</time>
      </trkpt>
      <trkpt lat="40.615265" lon="0.442237">
        <ele>186.093</ele>
        <time>2021-06-22T17:30:33Z</time>
      </trkpt>
      <trkpt lat="40.613854" lon="0.444410">
        <ele>171.613</ele>
        <time>2021-06-22T17:30:57Z</time>
      </trkpt>
      <trkpt lat="40.611507" lon="0.445484">
        <ele>170.026</ele>
        <time>2021-06-22T17:31:31Z</time>
      </trkpt>
      <trkpt lat="40.604690" lon="0.445100">
        <ele>150.647</ele>
        <time>2021-06-22T17:33:04Z</time>
      </trkpt>
      <trkpt lat="40.601758" lon="0.445780">
        <ele>145.011</ele>
        <time>2021-06-22T17:33:48Z</time>
      </trkpt>
      <trkpt lat="40.600600" lon="0.447724">
        <ele>142.808</ele>
        <time>2021-06-22T17:35:25Z</time>
      </trkpt>
      <trkpt lat="40.600281" lon="0.447560">
        <ele>142.449</ele>
        <time>2021-06-22T17:36:08Z</time>
      </trkpt>
      <trkpt lat="40.599272" lon="0.449683">
        <ele>137.688</ele>
        <time>2021-06-22T17:37:34Z</time>
      </trkpt>
      <trkpt lat="40.600599" lon="0.451540">
        <ele>136.256</ele>
        <time>2021-06-22T17:38:21Z</time>
      </trkpt>
      <trkpt lat="40.597487" lon="0.456212">
        <ele>129.061</ele>
        <time>2021-06-22T17:39:56Z</time>
      </trkpt>
      <trkpt lat="40.597675" lon="0.457425">
        <ele>131.476</ele>
        <time>2021-06-22T17:40:22Z</time>
      </trkpt>
      <trkpt lat="40.603096" lon="0.461157">
        <ele>131.821</ele>
        <time>2021-06-22T17:42:20Z</time>
      </trkpt>
      <trkpt lat="40.603704" lon="0.466315">
        <ele>132.672</ele>
        <time>2021-06-22T17:43:36Z</time>
      </trkpt>
      <trkpt lat="40.604757" lon="0.470306">
        <ele>137.062</ele>
        <time>2021-06-22T17:44:44Z</time>
      </trkpt>
      <trkpt lat="40.605835" lon="0.471046">
        <ele>137.657</ele>
        <time>2021-06-22T17:45:08Z</time>
      </trkpt>
      <trkpt lat="40.607126" lon="0.471001">
        <ele>137.600</ele>
        <time>2021-06-22T17:45:32Z</time>
      </trkpt>
      <trkpt lat="40.608813" lon="0.472073">
        <ele>140.420</ele>
        <time>2021-06-22T17:46:09Z</time>
      </trkpt>
      <trkpt lat="40.611036" lon="0.474717">
        <ele>143.208</ele>
        <time>2021-06-22T17:47:13Z</time>
      </trkpt>
      <trkpt lat="40.611325" lon="0.476988">
        <ele>147.442</ele>
        <time>2021-06-22T17:48:04Z</time>
      </trkpt>
      <trkpt lat="40.614049" lon="0.478708">
        <ele>147.881</ele>
        <time>2021-06-22T17:49:15Z</time>
      </trkpt>
      <trkpt lat="40.614843" lon="0.477753">
        <ele>146.629</ele>
        <time>2021-06-22T17:49:38Z</time>
      </trkpt>
      <trkpt lat="40.613385" lon="0.480816">
        <ele>152.844</ele>
        <time>2021-06-22T17:51:10Z</time>
      </trkpt>
      <trkpt lat="40.613946" lon="0.480003">
        <ele>150.639</ele>
        <time>2021-06-22T17:51:29Z</time>
      </trkpt>
      <trkpt lat="40.626683" lon="0.491292">
        <ele>128.294</ele>
        <time>2021-06-22T17:55:31Z</time>
      </trkpt>
      <trkpt lat="40.626746" lon="0.492459">
        <ele>127.675</ele>
        <time>2021-06-22T17:55:50Z</time>
      </trkpt>
      <trkpt lat="40.629384" lon="0.496613">
        <ele>125.085</ele>
        <time>2021-06-22T17:56:50Z</time>
      </trkpt>
      <trkpt lat="40.631889" lon="0.499430">
        <ele>126.029</ele>
        <time>2021-06-22T17:57:42Z</time>
      </trkpt>
      <trkpt lat="40.633259" lon="0.503672">
        <ele>139.200</ele>
        <time>2021-06-22T17:59:47Z</time>
      </trkpt>
      <trkpt lat="40.633188" lon="0.508772">
        <ele>159.020</ele>
        <time>2021-06-22T18:02:00Z</time>
      </trkpt>
      <trkpt lat="40.635858" lon="0.511491">
        <ele>162.608</ele>
        <time>2021-06-22T18:03:14Z</time>
      </trkpt>
      <trkpt lat="40.636333" lon="0.512950">
        <ele>170.619</ele>
        <time>2021-06-22T18:03:58Z</time>
      </trkpt>
      <trkpt lat="40.637799" lon="0.514614">
        <ele>177.038</ele>
        <time>2021-06-22T18:04:58Z</time>
      </trkpt>
      <trkpt lat="40.638887" lon="0.511770">
        <ele>165.236</ele>
        <time>2021-06-22T18:05:42Z</time>
      </trkpt>
      <trkpt lat="40.642075" lon="0.515069">
        <ele>160.231</ele>
        <time>2021-06-22T18:06:56Z</time>
      </trkpt>
      <trkpt lat="40.643083" lon="0.515351">
        <ele>158.216</ele>
        <time>2021-06-22T18:07:13Z</time>
      </trkpt>
      <trkpt lat="40.644082" lon="0.513737">
        <ele>151.061</ele>
        <time>2021-06-22T18:07:33Z</time>
      </trkpt>
      <trkpt lat="40.644921" lon="0.514370">
        <ele>146.822</ele>
        <time>2021-06-22T18:07:49Z</time>
      </trkpt>
      <trkpt lat="40.648979" lon="0.511114">
        <ele>126.632</ele>
        <time>2021-06-22T18:08:51Z</time>
      </trkpt>
      <trkpt lat="40.651969" lon="0.514325">
        <ele>124.888</ele>
        <time>2021-06-22T18:10:00Z</time>
      </trkpt>
      <trkpt lat="40.651274" lon="0.515361">
        <ele>129.024</ele>
        <time>2021-06-22T18:10:31Z</time>
      </trkpt>
      <trkpt lat="40.651379" lon="0.518406">
        <ele>139.626</ele>
        <time>2021-06-22T18:11:53Z</time>
      </trkpt>
      <trkpt lat="40.655373" lon="0.525041">
        <ele>161.608</ele>
        <time>2021-06-22T18:15:35Z</time>
      </trkpt>
      <trkpt lat="40.657473" lon="0.526802">
        <ele>164.635</ele>
        <time>2021-06-22T18:16:41Z</time>
      </trkpt>
      <trkpt lat="40.659830" lon="0.525670">
        <ele>149.884</ele>
        <time>2021-06-22T18:17:15Z</time>
      </trkpt>
      <trkpt lat="40.661050" lon="0.523193">
        <ele>135.222</ele>
        <time>2021-06-22T18:17:41Z</time>
      </trkpt>
      <trkpt lat="40.661647" lon="0.523581">
        <ele>134.067</ele>
        <time>2021-06-22T18:17:51Z</time>
      </trkpt>
      <trkpt lat="40.664110" lon="0.522723">
        <ele>121.072</ele>
        <time>2021-06-22T18:18:24Z</time>
      </trkpt>
      <trkpt lat="40.665854" lon="0.525850">
        <ele>129.217</ele>
        <time>2021-06-22T18:21:10Z</time>
      </trkpt>
      <trkpt lat="40.664487" lon="0.526180">
        <ele>138.428</ele>
        <time>2021-06-22T18:22:22Z</time>
      </trkpt>
      <trkpt lat="40.665367" lon="0.529353">
        <ele>154.838</ele>
        <time>2021-06-22T18:24:07Z</time>
      </trkpt>
      <trkpt lat="40.664853" lon="0.532470">
        <ele>150.656</ele>
        <time>2021-06-22T18:24:52Z</time>
      </trkpt>
      <trkpt lat="40.666022" lon="0.535435">
        <ele>156.259</ele>
        <time>2021-06-22T18:25:56Z</time>
      </trkpt>
      <trkpt lat="40.665700" lon="0.536198">
        <ele>156.214</ele>
        <time>2021-06-22T18:26:14Z</time>
      </trkpt>
      <trkpt lat="40.666922" lon="0.539936">
        <ele>169.808</ele>
        <time>2021-06-22T18:28:09Z</time>
      </trkpt>
      <trkpt lat="40.666500" lon="0.540758">
        <ele>162.652</ele>
        <time>2021-06-22T18:28:25Z</time>
      </trkpt>
      <trkpt lat="40.666835" lon="0.542798">
        <ele>166.091</ele>
        <time>2021-06-22T18:29:14Z</time>
      </trkpt>
      <trkpt lat="40.668253" lon="0.545130">
        <ele>153.419</ele>
        <time>2021-06-22T18:30:46Z</time>
      </trkpt>
      <trkpt lat="40.671530" lon="0.548662">
        <ele>124.864</ele>
        <time>2021-06-22T18:31:56Z</time>
      </trkpt>
      <trkpt lat="40.672146" lon="0.548449">
        <ele>119.869</ele>
        <time>2021-06-22T18:32:15Z</time>
      </trkpt>
      <trkpt lat="40.672463" lon="0.551703">
        <ele>123.494</ele>
        <time>2021-06-22T18:34:11Z</time>
      </trkpt>
      <trkpt lat="40.673545" lon="0.554713">
        <ele>126.015</ele>
        <time>2021-06-22T18:35:34Z</time>
      </trkpt>
      <trkpt lat="40.676745" lon="0.556022">
        <ele>141.655</ele>
        <time>2021-06-22T18:37:48Z</time>
      </trkpt>
      <trkpt lat="40.677167" lon="0.557103">
        <ele>139.441</ele>
        <time>2021-06-22T18:38:08Z</time>
      </trkpt>
      <trkpt lat="40.676848" lon="0.557618">
        <ele>139.681</ele>
        <time>2021-06-22T18:38:19Z</time>
      </trkpt>
      <trkpt lat="40.678403" lon="0.560337">
        <ele>145.009</ele>
        <time>2021-06-22T18:39:42Z</time>
      </trkpt>
      <trkpt lat="40.679795" lon="0.560548">
        <ele>142.208</ele>
        <time>2021-06-22T18:41:47Z</time>
      </trkpt>
      <trkpt lat="40.681240" lon="0.559668">
        <ele>120.661</ele>
        <time>2021-06-22T18:42:20Z</time>
      </trkpt>
      <trkpt lat="40.685922" lon="0.568642">
        <ele>54.430</ele>
        <time>2021-06-22T18:44:26Z</time>
      </trkpt>
      <trkpt lat="40.685125" lon="0.569543">
        <ele>53.038</ele>
        <time>2021-06-22T18:44:46Z</time>
      </trkpt>
      <trkpt lat="40.684249" lon="0.572093">
        <ele>49.883</ele>
        <time>2021-06-22T18:45:23Z</time>
      </trkpt>
      <trkpt lat="40.683876" lon="0.577158">
        <ele>31.628</ele>
        <time>2021-06-22T18:46:11Z</time>
      </trkpt>
      <trkpt lat="40.686988" lon="0.575673">
        <ele>37.093</ele>
        <time>2021-06-22T18:47:04Z</time>
      </trkpt>
      <trkpt lat="40.693707" lon="0.575113">
        <ele>25.484</ele>
        <time>2021-06-22T18:48:33Z</time>
      </trkpt>
      <trkpt lat="40.694575" lon="0.579888">
        <ele>21.074</ele>
        <time>2021-06-22T18:50:17Z</time>
      </trkpt>
      <trkpt lat="40.697964" lon="0.579383">
        <ele>19.647</ele>
        <time>2021-06-22T18:51:23Z</time>
      </trkpt>
      <trkpt lat="40.700725" lon="0.580108">
        <ele>16.829</ele>
        <time>2021-06-22T18:52:14Z</time>
      </trkpt>
      <trkpt lat="40.703129" lon="0.579388">
        <ele>17.621</ele>
        <time>2021-06-22T18:52:56Z</time>
      </trkpt>
      <trkpt lat="40.712167" lon="0.580092">
        <ele>17.608</ele>
        <time>2021-06-22T19:00:05Z</time>
      </trkpt>
      <trkpt lat="40.712787" lon="0.579629">
        <ele>18.051</ele>
        <time>2021-06-22T19:00:23Z</time>
      </trkpt>
      <trkpt lat="40.721686" lon="0.588525">
        <ele>14.060</ele>
        <time>2021-06-22T19:03:24Z</time>
      </trkpt>
      <trkpt lat="40.721778" lon="0.589225">
        <ele>13.888</ele>
        <time>2021-06-22T19:03:33Z</time>
      </trkpt>
      <trkpt lat="40.726148" lon="0.591028">
        <ele>20.883</ele>
        <time>2021-06-22T19:05:06Z</time>
      </trkpt>
      <trkpt lat="40.729194" lon="0.589901">
        <ele>14.468</ele>
        <time>2021-06-22T19:05:50Z</time>
      </trkpt>
      <trkpt lat="40.728864" lon="0.591007">
        <ele>13.243</ele>
        <time>2021-06-22T19:06:06Z</time>
      </trkpt>
      <trkpt lat="40.729442" lon="0.592027">
        <ele>13.444</ele>
        <time>2021-06-22T19:06:23Z</time>
      </trkpt>
      <trkpt lat="40.729377" lon="0.593031">
        <ele>12.834</ele>
        <time>2021-06-22T19:06:37Z</time>
      </trkpt>
      <trkpt lat="40.726317" lon="0.591755">
        <ele>11.654</ele>
        <time>2021-06-22T19:07:40Z</time>
      </trkpt>
      <trkpt lat="40.720996" lon="0.592371">
        <ele>11.456</ele>
        <time>2021-06-22T19:09:22Z</time>
      </trkpt>
      <trkpt lat="40.726136" lon="0.598962">
        <ele>11.011</ele>
        <time>2021-06-22T19:12:02Z</time>
      </trkpt>
      <trkpt lat="40.730962" lon="0.611419">
        <ele>11.008</ele>
        <time>2021-06-22T19:15:02Z</time>
      </trkpt>
      <trkpt lat="40.732692" lon="0.613525">
        <ele>10.812</ele>
        <time>2021-06-22T19:15:43Z</time>
      </trkpt>
      <trkpt lat="40.736626" lon="0.615358">
        <ele>11.041</ele>
        <time>2021-06-22T19:17:02Z</time>
      </trkpt>
      <trkpt lat="40.736128" lon="0.616042">
        <ele>10.459</ele>
        <time>2021-06-22T19:17:21Z</time>
      </trkpt>
      <trkpt lat="40.742853" lon="0.628387">
        <ele>12.424</ele>
        <time>2021-06-22T19:21:01Z</time>
      </trkpt>
      <trkpt lat="40.743735" lon="0.628540">
        <ele>13.819</ele>
        <time>2021-06-22T19:21:25Z</time>
      </trkpt>
      <trkpt lat="40.744342" lon="0.634028">
        <ele>12.674</ele>
        <time>2021-06-22T19:23:50Z</time>
      </trkpt>
      <trkpt lat="40.743843" lon="0.628486">
        <ele>13.695</ele>
        <time>2021-06-22T19:25:56Z</time>
      </trkpt>
      <trkpt lat="40.746043" lon="0.639887">
        <ele>8.815</ele>
        <time>2021-06-22T19:29:41Z</time>
      </trkpt>
      <trkpt lat="40.751969" lon="0.646312">
        <ele>8.858</ele>
        <time>2021-06-22T19:31:54Z</time>
      </trkpt>
      <trkpt lat="40.769330" lon="0.670360">
        <ele>8.452</ele>
        <time>2021-06-22T19:39:25Z</time>
      </trkpt>
      <trkpt lat="40.770602" lon="0.673320">
        <ele>8.817</ele>
        <time>2021-06-22T19:40:18Z</time>
      </trkpt>
      <trkpt lat="40.778274" lon="0.680321">
        <ele>8.408</ele>
        <time>2021-06-22T19:43:10Z</time>
      </trkpt>
      <trkpt lat="40.775764" lon="0.685058">
        <ele>5.632</ele>
        <time>2021-06-22T19:44:29Z</time>
      </trkpt>
      <trkpt lat="40.776169" lon="0.689446">
        <ele>6.661</ele>
        <time>2021-06-22T19:45:34Z</time>
      </trkpt>
      <trkpt lat="40.769499" lon="0.702317">
        <ele>5.879</ele>
        <time>2021-06-22T19:49:00Z</time>
      </trkpt>
      <trkpt lat="40.769806" lon="0.703221">
        <ele>6.044</ele>
        <time>2021-06-22T19:49:14Z</time>
      </trkpt>
      <trkpt lat="40.770753" lon="0.703804">
        <ele>6.669</ele>
        <time>2021-06-22T19:49:33Z</time>
      </trkpt>
      <trkpt lat="40.770793" lon="0.709871">
        <ele>6.464</ele>
        <time>2021-06-22T19:51:03Z</time>
      </trkpt>
      <trkpt lat="40.773303" lon="0.711276">
        <ele>6.225</ele>
        <time>2021-06-22T19:51:53Z</time>
      </trkpt>
      <trkpt lat="40.777203" lon="0.715460">
        <ele>5.435</ele>
        <time>2021-06-22T19:53:12Z</time>
      </trkpt>
      <trkpt lat="40.778177" lon="0.717763">
        <ele>6.081</ele>
        <time>2021-06-22T19:53:53Z</time>
      </trkpt>
      <trkpt lat="40.778929" lon="0.718314">
        <ele>6.061</ele>
        <time>2021-06-22T19:54:25Z</time>
      </trkpt>
      <trkpt lat="40.779277" lon="0.717186">
        <ele>6.017</ele>
        <time>2021-06-22T19:54:55Z</time>
      </trkpt>
      <trkpt lat="40.785685" lon="0.709422">
        <ele>5.608</ele>
        <time>2021-06-22T19:57:59Z</time>
      </trkpt>
      <trkpt lat="40.785647" lon="0.708713">
        <ele>5.665</ele>
        <time>2021-06-22T19:58:14Z</time>
      </trkpt>
      <trkpt lat="40.787633" lon="0.707667">
        <ele>6.624</ele>
        <time>2021-06-22T19:59:27Z</time>
      </trkpt>
      <trkpt lat="40.788842" lon="0.706127">
        <ele>6.632</ele>
        <time>2021-06-22T20:00:11Z</time>
      </trkpt>
      <trkpt lat="40.799097" lon="0.699730">
        <ele>8.487</ele>
        <time>2021-06-22T20:04:39Z</time>
      </trkpt>
    </trkseg>
  </trk>
</gpx>
